<?xml version="1.0" encoding="UTF-8" standalone="no" ?>
<gpx xmlns="http://www.topografix.com/GPX/1/1" xmlns:xsi="http://www.w3.org/2001/XMLSchema-instance" xsi:schemaLocation="http://www.topografix.com/GPX/1/1 http://www.topografix.com/GPX/1/1/gpx.xsd" version="1.1" creator="VisuGPX - https://www.visugpx.com">
  <metadata>
    <name>RoadTrip Moto Ecosse Juin 2021 - V2</name>
  </metadata>
  <trk>
    <name><![CDATA[J00 - Paris - IJmuiden]]></name>
    <trkseg>
      <trkpt lat="48.85889" lon="2.32003">
        <ele>43.44</ele>
        <time>2021-03-20T14:24:03Z</time>
      </trkpt>
      <trkpt lat="48.8572" lon="2.31877">
        <ele>46.87</ele>
        <time>2021-03-20T14:24:47Z</time>
      </trkpt>
      <trkpt lat="48.85741" lon="2.31811">
        <ele>48.39</ele>
        <time>2021-03-20T14:24:53Z</time>
      </trkpt>
      <trkpt lat="48.85756" lon="2.31752">
        <ele>45.39</ele>
        <time>2021-03-20T14:25:00Z</time>
      </trkpt>
      <trkpt lat="48.85778" lon="2.31656">
        <ele>41.01</ele>
        <time>2021-03-20T14:25:07Z</time>
      </trkpt>
      <trkpt lat="48.85796" lon="2.31537">
        <ele>40.67</ele>
        <time>2021-03-20T14:25:13Z</time>
      </trkpt>
      <trkpt lat="48.85794" lon="2.31515">
        <ele>39.34</ele>
        <time>2021-03-20T14:25:20Z</time>
      </trkpt>
      <trkpt lat="48.85804" lon="2.3147">
        <ele>38.95</ele>
        <time>2021-03-20T14:25:22Z</time>
      </trkpt>
      <trkpt lat="48.8581" lon="2.31456">
        <ele>39.73</ele>
        <time>2021-03-20T14:25:25Z</time>
      </trkpt>
      <trkpt lat="48.8582" lon="2.31445">
        <ele>40.47</ele>
        <time>2021-03-20T14:25:27Z</time>
      </trkpt>
      <trkpt lat="48.85834" lon="2.31464">
        <ele>40.26</ele>
        <time>2021-03-20T14:25:43Z</time>
      </trkpt>
      <trkpt lat="48.85837" lon="2.31465">
        <ele>39.95</ele>
        <time>2021-03-20T14:25:58Z</time>
      </trkpt>
      <trkpt lat="48.86097" lon="2.31497">
        <ele>39.19</ele>
        <time>2021-03-20T14:26:14Z</time>
      </trkpt>
      <trkpt lat="48.86289" lon="2.31517">
        <ele>34.6</ele>
        <time>2021-03-20T14:26:29Z</time>
      </trkpt>
      <trkpt lat="48.86291" lon="2.31764">
        <ele>49.38</ele>
        <time>2021-03-20T14:26:38Z</time>
      </trkpt>
      <trkpt lat="48.86289" lon="2.31795">
        <ele>39.22</ele>
        <time>2021-03-20T14:26:47Z</time>
      </trkpt>
      <trkpt lat="48.86275" lon="2.31827">
        <ele>27.53</ele>
        <time>2021-03-20T14:26:56Z</time>
      </trkpt>
      <trkpt lat="48.86253" lon="2.31899">
        <ele>33.71</ele>
        <time>2021-03-20T14:27:05Z</time>
      </trkpt>
      <trkpt lat="48.86407" lon="2.32012">
        <ele>30.08</ele>
        <time>2021-03-20T14:27:28Z</time>
      </trkpt>
      <trkpt lat="48.86415" lon="2.32034">
        <ele>31.25</ele>
        <time>2021-03-20T14:27:31Z</time>
      </trkpt>
      <trkpt lat="48.86447" lon="2.32055">
        <ele>34.09</ele>
        <time>2021-03-20T14:27:34Z</time>
      </trkpt>
      <trkpt lat="48.86466" lon="2.32075">
        <ele>34.78</ele>
        <time>2021-03-20T14:27:37Z</time>
      </trkpt>
      <trkpt lat="48.86467" lon="2.32087">
        <ele>34.95</ele>
        <time>2021-03-20T14:27:40Z</time>
      </trkpt>
      <trkpt lat="48.86472" lon="2.32102">
        <ele>35.64</ele>
        <time>2021-03-20T14:27:44Z</time>
      </trkpt>
      <trkpt lat="48.86482" lon="2.32116">
        <ele>35.77</ele>
        <time>2021-03-20T14:27:47Z</time>
      </trkpt>
      <trkpt lat="48.86508" lon="2.32138">
        <ele>36.01</ele>
        <time>2021-03-20T14:27:50Z</time>
      </trkpt>
      <trkpt lat="48.86561" lon="2.32176">
        <ele>34.33</ele>
        <time>2021-03-20T14:27:53Z</time>
      </trkpt>
      <trkpt lat="48.86597" lon="2.32196">
        <ele>36.44</ele>
        <time>2021-03-20T14:27:56Z</time>
      </trkpt>
      <trkpt lat="48.86604" lon="2.32197">
        <ele>37.24</ele>
        <time>2021-03-20T14:27:59Z</time>
      </trkpt>
      <trkpt lat="48.86662" lon="2.32197">
        <ele>42.58</ele>
        <time>2021-03-20T14:28:22Z</time>
      </trkpt>
      <trkpt lat="48.86926" lon="2.3239">
        <ele>44.67</ele>
        <time>2021-03-20T14:28:45Z</time>
      </trkpt>
      <trkpt lat="48.86921" lon="2.32408">
        <ele>43.85</ele>
        <time>2021-03-20T14:28:58Z</time>
      </trkpt>
      <trkpt lat="48.86925" lon="2.32438">
        <ele>41.45</ele>
        <time>2021-03-20T14:29:11Z</time>
      </trkpt>
      <trkpt lat="48.86951" lon="2.32579">
        <ele>44.37</ele>
        <time>2021-03-20T14:29:24Z</time>
      </trkpt>
      <trkpt lat="48.86957" lon="2.32587">
        <ele>45.19</ele>
        <time>2021-03-20T14:29:37Z</time>
      </trkpt>
      <trkpt lat="48.8701" lon="2.32905">
        <ele>49.69</ele>
        <time>2021-03-20T14:29:50Z</time>
      </trkpt>
      <trkpt lat="48.87069" lon="2.33255">
        <ele>47.9</ele>
        <time>2021-03-20T14:30:03Z</time>
      </trkpt>
      <trkpt lat="48.87116" lon="2.33234">
        <ele>50.02</ele>
        <time>2021-03-20T14:30:23Z</time>
      </trkpt>
      <trkpt lat="48.8728" lon="2.33307">
        <ele>44.77</ele>
        <time>2021-03-20T14:30:43Z</time>
      </trkpt>
      <trkpt lat="48.87295" lon="2.3333">
        <ele>43.12</ele>
        <time>2021-03-20T14:31:04Z</time>
      </trkpt>
      <trkpt lat="48.8731" lon="2.33344">
        <ele>42.37</ele>
        <time>2021-03-20T14:31:24Z</time>
      </trkpt>
      <trkpt lat="48.87315" lon="2.33353">
        <ele>42.71</ele>
        <time>2021-03-20T14:31:44Z</time>
      </trkpt>
      <trkpt lat="48.87362" lon="2.33532">
        <ele>50.22</ele>
        <time>2021-03-20T14:32:04Z</time>
      </trkpt>
      <trkpt lat="48.87418" lon="2.3375">
        <ele>43.06</ele>
        <time>2021-03-20T14:32:24Z</time>
      </trkpt>
      <trkpt lat="48.87583" lon="2.34368">
        <ele>46.72</ele>
        <time>2021-03-20T14:32:44Z</time>
      </trkpt>
      <trkpt lat="48.87603" lon="2.34452">
        <ele>47.08</ele>
        <time>2021-03-20T14:33:04Z</time>
      </trkpt>
      <trkpt lat="48.87778" lon="2.35126">
        <ele>53.5</ele>
        <time>2021-03-20T14:33:24Z</time>
      </trkpt>
      <trkpt lat="48.87849" lon="2.35393">
        <ele>60.12</ele>
        <time>2021-03-20T14:33:44Z</time>
      </trkpt>
      <trkpt lat="48.87853" lon="2.35404">
        <ele>60.42</ele>
        <time>2021-03-20T14:34:04Z</time>
      </trkpt>
      <trkpt lat="48.87931" lon="2.35708">
        <ele>62</ele>
        <time>2021-03-20T14:34:24Z</time>
      </trkpt>
      <trkpt lat="48.88008" lon="2.35992">
        <ele>49.46</ele>
        <time>2021-03-20T14:34:45Z</time>
      </trkpt>
      <trkpt lat="48.88073" lon="2.36242">
        <ele>61.91</ele>
        <time>2021-03-20T14:35:05Z</time>
      </trkpt>
      <trkpt lat="48.88094" lon="2.36324">
        <ele>60.17</ele>
        <time>2021-03-20T14:35:25Z</time>
      </trkpt>
      <trkpt lat="48.88161" lon="2.36579">
        <ele>57.5</ele>
        <time>2021-03-20T14:35:45Z</time>
      </trkpt>
      <trkpt lat="48.88253" lon="2.36693">
        <ele>56.94</ele>
        <time>2021-03-20T14:35:58Z</time>
      </trkpt>
      <trkpt lat="48.88385" lon="2.3686">
        <ele>58.74</ele>
        <time>2021-03-20T14:36:11Z</time>
      </trkpt>
      <trkpt lat="48.88403" lon="2.36884">
        <ele>56.14</ele>
        <time>2021-03-20T14:36:24Z</time>
      </trkpt>
      <trkpt lat="48.88438" lon="2.3692">
        <ele>55.31</ele>
        <time>2021-03-20T14:36:37Z</time>
      </trkpt>
      <trkpt lat="48.88464" lon="2.36954">
        <ele>55.56</ele>
        <time>2021-03-20T14:36:49Z</time>
      </trkpt>
      <trkpt lat="48.88826" lon="2.37397">
        <ele>56.93</ele>
        <time>2021-03-20T14:37:02Z</time>
      </trkpt>
      <trkpt lat="48.88984" lon="2.37596">
        <ele>55.22</ele>
        <time>2021-03-20T14:37:15Z</time>
      </trkpt>
      <trkpt lat="48.89113" lon="2.37756">
        <ele>53.79</ele>
        <time>2021-03-20T14:37:28Z</time>
      </trkpt>
      <trkpt lat="48.89231" lon="2.37912">
        <ele>53.95</ele>
        <time>2021-03-20T14:37:41Z</time>
      </trkpt>
      <trkpt lat="48.89432" lon="2.38171">
        <ele>52.69</ele>
        <time>2021-03-20T14:37:54Z</time>
      </trkpt>
      <trkpt lat="48.89437" lon="2.38181">
        <ele>53.15</ele>
        <time>2021-03-20T14:38:07Z</time>
      </trkpt>
      <trkpt lat="48.89468" lon="2.38222">
        <ele>54.17</ele>
        <time>2021-03-20T14:38:20Z</time>
      </trkpt>
      <trkpt lat="48.89474" lon="2.38227">
        <ele>54.07</ele>
        <time>2021-03-20T14:38:33Z</time>
      </trkpt>
      <trkpt lat="48.89514" lon="2.38274">
        <ele>52.55</ele>
        <time>2021-03-20T14:38:46Z</time>
      </trkpt>
      <trkpt lat="48.89582" lon="2.38359">
        <ele>49.12</ele>
        <time>2021-03-20T14:38:59Z</time>
      </trkpt>
      <trkpt lat="48.89604" lon="2.38401">
        <ele>49.32</ele>
        <time>2021-03-20T14:39:12Z</time>
      </trkpt>
      <trkpt lat="48.89615" lon="2.38417">
        <ele>51.3</ele>
        <time>2021-03-20T14:39:24Z</time>
      </trkpt>
      <trkpt lat="48.8977" lon="2.38581">
        <ele>49.9</ele>
        <time>2021-03-20T14:39:37Z</time>
      </trkpt>
      <trkpt lat="48.89802" lon="2.38611">
        <ele>47.15</ele>
        <time>2021-03-20T14:39:50Z</time>
      </trkpt>
      <trkpt lat="48.8985" lon="2.38658">
        <ele>47.27</ele>
        <time>2021-03-20T14:40:03Z</time>
      </trkpt>
      <trkpt lat="48.89958" lon="2.38771">
        <ele>44</ele>
        <time>2021-03-20T14:40:16Z</time>
      </trkpt>
      <trkpt lat="48.89999" lon="2.38818">
        <ele>44.45</ele>
        <time>2021-03-20T14:40:29Z</time>
      </trkpt>
      <trkpt lat="48.9001" lon="2.38826">
        <ele>44.57</ele>
        <time>2021-03-20T14:40:42Z</time>
      </trkpt>
      <trkpt lat="48.90033" lon="2.38838">
        <ele>44.35</ele>
        <time>2021-03-20T14:40:55Z</time>
      </trkpt>
      <trkpt lat="48.90044" lon="2.38845">
        <ele>45.19</ele>
        <time>2021-03-20T14:40:59Z</time>
      </trkpt>
      <trkpt lat="48.90053" lon="2.38847">
        <ele>45.79</ele>
        <time>2021-03-20T14:41:02Z</time>
      </trkpt>
      <trkpt lat="48.90112" lon="2.38937">
        <ele>50.15</ele>
        <time>2021-03-20T14:41:06Z</time>
      </trkpt>
      <trkpt lat="48.90121" lon="2.38947">
        <ele>48.92</ele>
        <time>2021-03-20T14:41:09Z</time>
      </trkpt>
      <trkpt lat="48.90158" lon="2.38989">
        <ele>46.72</ele>
        <time>2021-03-20T14:41:13Z</time>
      </trkpt>
      <trkpt lat="48.90211" lon="2.39039">
        <ele>46.58</ele>
        <time>2021-03-20T14:41:30Z</time>
      </trkpt>
      <trkpt lat="48.90492" lon="2.39346">
        <ele>45.28</ele>
        <time>2021-03-20T14:41:47Z</time>
      </trkpt>
      <trkpt lat="48.9051" lon="2.39369">
        <ele>45</ele>
        <time>2021-03-20T14:42:04Z</time>
      </trkpt>
      <trkpt lat="48.9053" lon="2.39392">
        <ele>45.1</ele>
        <time>2021-03-20T14:42:22Z</time>
      </trkpt>
      <trkpt lat="48.90533" lon="2.39398">
        <ele>45.31</ele>
        <time>2021-03-20T14:42:39Z</time>
      </trkpt>
      <trkpt lat="48.90604" lon="2.39479">
        <ele>45.26</ele>
        <time>2021-03-20T14:42:56Z</time>
      </trkpt>
      <trkpt lat="48.9064" lon="2.39514">
        <ele>46.58</ele>
        <time>2021-03-20T14:43:13Z</time>
      </trkpt>
      <trkpt lat="48.90655" lon="2.39522">
        <ele>47.22</ele>
        <time>2021-03-20T14:43:30Z</time>
      </trkpt>
      <trkpt lat="48.90668" lon="2.39536">
        <ele>47.97</ele>
        <time>2021-03-20T14:43:48Z</time>
      </trkpt>
      <trkpt lat="48.91353" lon="2.40279">
        <ele>46.23</ele>
        <time>2021-03-20T14:44:05Z</time>
      </trkpt>
      <trkpt lat="48.91381" lon="2.40318">
        <ele>42.81</ele>
        <time>2021-03-20T14:44:22Z</time>
      </trkpt>
      <trkpt lat="48.91449" lon="2.40394">
        <ele>39.97</ele>
        <time>2021-03-20T14:44:39Z</time>
      </trkpt>
      <trkpt lat="48.91655" lon="2.40616">
        <ele>40.34</ele>
        <time>2021-03-20T14:44:56Z</time>
      </trkpt>
      <trkpt lat="48.91808" lon="2.40777">
        <ele>41</ele>
        <time>2021-03-20T14:45:14Z</time>
      </trkpt>
      <trkpt lat="48.91882" lon="2.40858">
        <ele>40.75</ele>
        <time>2021-03-20T14:45:31Z</time>
      </trkpt>
      <trkpt lat="48.91904" lon="2.40879">
        <ele>40.9</ele>
        <time>2021-03-20T14:45:42Z</time>
      </trkpt>
      <trkpt lat="48.91995" lon="2.40974">
        <ele>40.77</ele>
        <time>2021-03-20T14:45:54Z</time>
      </trkpt>
      <trkpt lat="48.92187" lon="2.41186">
        <ele>41</ele>
        <time>2021-03-20T14:46:06Z</time>
      </trkpt>
      <trkpt lat="48.9224" lon="2.41242">
        <ele>42.89</ele>
        <time>2021-03-20T14:46:17Z</time>
      </trkpt>
      <trkpt lat="48.92325" lon="2.41337">
        <ele>41</ele>
        <time>2021-03-20T14:46:29Z</time>
      </trkpt>
      <trkpt lat="48.92418" lon="2.41435">
        <ele>41.06</ele>
        <time>2021-03-20T14:46:41Z</time>
      </trkpt>
      <trkpt lat="48.92481" lon="2.41507">
        <ele>43</ele>
        <time>2021-03-20T14:46:52Z</time>
      </trkpt>
      <trkpt lat="48.92575" lon="2.41607">
        <ele>44.14</ele>
        <time>2021-03-20T14:47:04Z</time>
      </trkpt>
      <trkpt lat="48.92647" lon="2.41689">
        <ele>41.14</ele>
        <time>2021-03-20T14:47:16Z</time>
      </trkpt>
      <trkpt lat="48.92748" lon="2.41799">
        <ele>42.76</ele>
        <time>2021-03-20T14:47:27Z</time>
      </trkpt>
      <trkpt lat="48.92755" lon="2.41814">
        <ele>43.41</ele>
        <time>2021-03-20T14:47:39Z</time>
      </trkpt>
      <trkpt lat="48.92775" lon="2.41834">
        <ele>44.01</ele>
        <time>2021-03-20T14:47:51Z</time>
      </trkpt>
      <trkpt lat="48.928" lon="2.41857">
        <ele>44.19</ele>
        <time>2021-03-20T14:48:00Z</time>
      </trkpt>
      <trkpt lat="48.92861" lon="2.41925">
        <ele>44.98</ele>
        <time>2021-03-20T14:48:10Z</time>
      </trkpt>
      <trkpt lat="48.92963" lon="2.42032">
        <ele>45.36</ele>
        <time>2021-03-20T14:48:19Z</time>
      </trkpt>
      <trkpt lat="48.93094" lon="2.42173">
        <ele>43.39</ele>
        <time>2021-03-20T14:48:29Z</time>
      </trkpt>
      <trkpt lat="48.93164" lon="2.42253">
        <ele>45.09</ele>
        <time>2021-03-20T14:48:39Z</time>
      </trkpt>
      <trkpt lat="48.93225" lon="2.42319">
        <ele>47</ele>
        <time>2021-03-20T14:48:48Z</time>
      </trkpt>
      <trkpt lat="48.93259" lon="2.42351">
        <ele>47.94</ele>
        <time>2021-03-20T14:48:58Z</time>
      </trkpt>
      <trkpt lat="48.9327" lon="2.42368">
        <ele>48.86</ele>
        <time>2021-03-20T14:49:07Z</time>
      </trkpt>
      <trkpt lat="48.93315" lon="2.42418">
        <ele>48.26</ele>
        <time>2021-03-20T14:49:17Z</time>
      </trkpt>
      <trkpt lat="48.93523" lon="2.42636">
        <ele>41.89</ele>
        <time>2021-03-20T14:49:27Z</time>
      </trkpt>
      <trkpt lat="48.93596" lon="2.42701">
        <ele>41.43</ele>
        <time>2021-03-20T14:49:36Z</time>
      </trkpt>
      <trkpt lat="48.93629" lon="2.42734">
        <ele>41.22</ele>
        <time>2021-03-20T14:49:46Z</time>
      </trkpt>
      <trkpt lat="48.9374" lon="2.42834">
        <ele>39.74</ele>
        <time>2021-03-20T14:49:56Z</time>
      </trkpt>
      <trkpt lat="48.93741" lon="2.42841">
        <ele>39.68</ele>
        <time>2021-03-20T14:50:04Z</time>
      </trkpt>
      <trkpt lat="48.93745" lon="2.42845">
        <ele>39.4</ele>
        <time>2021-03-20T14:50:12Z</time>
      </trkpt>
      <trkpt lat="48.93887" lon="2.42972">
        <ele>47.89</ele>
        <time>2021-03-20T14:50:20Z</time>
      </trkpt>
      <trkpt lat="48.94076" lon="2.43147">
        <ele>47.74</ele>
        <time>2021-03-20T14:50:28Z</time>
      </trkpt>
      <trkpt lat="48.94105" lon="2.4317">
        <ele>48</ele>
        <time>2021-03-20T14:50:36Z</time>
      </trkpt>
      <trkpt lat="48.94154" lon="2.43215">
        <ele>45.71</ele>
        <time>2021-03-20T14:50:44Z</time>
      </trkpt>
      <trkpt lat="48.9421" lon="2.43258">
        <ele>43.71</ele>
        <time>2021-03-20T14:50:52Z</time>
      </trkpt>
      <trkpt lat="48.94218" lon="2.43281">
        <ele>44.27</ele>
        <time>2021-03-20T14:51:04Z</time>
      </trkpt>
      <trkpt lat="48.94242" lon="2.43339">
        <ele>46.26</ele>
        <time>2021-03-20T14:51:15Z</time>
      </trkpt>
      <trkpt lat="48.94285" lon="2.43455">
        <ele>47.63</ele>
        <time>2021-03-20T14:51:27Z</time>
      </trkpt>
      <trkpt lat="48.94315" lon="2.43517">
        <ele>45.3</ele>
        <time>2021-03-20T14:51:39Z</time>
      </trkpt>
      <trkpt lat="48.94332" lon="2.43557">
        <ele>44.17</ele>
        <time>2021-03-20T14:51:51Z</time>
      </trkpt>
      <trkpt lat="48.94346" lon="2.4357">
        <ele>44.06</ele>
        <time>2021-03-20T14:52:03Z</time>
      </trkpt>
      <trkpt lat="48.94426" lon="2.43759">
        <ele>44.89</ele>
        <time>2021-03-20T14:52:15Z</time>
      </trkpt>
      <trkpt lat="48.94486" lon="2.43885">
        <ele>44.48</ele>
        <time>2021-03-20T14:52:26Z</time>
      </trkpt>
      <trkpt lat="48.94522" lon="2.43958">
        <ele>45.31</ele>
        <time>2021-03-20T14:52:38Z</time>
      </trkpt>
      <trkpt lat="48.94632" lon="2.44163">
        <ele>44.53</ele>
        <time>2021-03-20T14:52:50Z</time>
      </trkpt>
      <trkpt lat="48.95047" lon="2.44934">
        <ele>43.4</ele>
        <time>2021-03-20T14:53:02Z</time>
      </trkpt>
      <trkpt lat="48.95224" lon="2.45268">
        <ele>45.67</ele>
        <time>2021-03-20T14:53:14Z</time>
      </trkpt>
      <trkpt lat="48.95599" lon="2.45963">
        <ele>43</ele>
        <time>2021-03-20T14:53:26Z</time>
      </trkpt>
      <trkpt lat="48.95742" lon="2.46228">
        <ele>45.98</ele>
        <time>2021-03-20T14:53:38Z</time>
      </trkpt>
      <trkpt lat="48.95773" lon="2.46289">
        <ele>46.19</ele>
        <time>2021-03-20T14:53:49Z</time>
      </trkpt>
      <trkpt lat="48.95956" lon="2.46623">
        <ele>49.67</ele>
        <time>2021-03-20T14:54:01Z</time>
      </trkpt>
      <trkpt lat="48.96059" lon="2.46803">
        <ele>54.15</ele>
        <time>2021-03-20T14:54:13Z</time>
      </trkpt>
      <trkpt lat="48.96104" lon="2.46875">
        <ele>53.86</ele>
        <time>2021-03-20T14:54:25Z</time>
      </trkpt>
      <trkpt lat="48.96393" lon="2.47314">
        <ele>53.15</ele>
        <time>2021-03-20T14:54:37Z</time>
      </trkpt>
      <trkpt lat="48.96399" lon="2.4734">
        <ele>53.85</ele>
        <time>2021-03-20T14:54:44Z</time>
      </trkpt>
      <trkpt lat="48.96422" lon="2.47383">
        <ele>56.63</ele>
        <time>2021-03-20T14:54:52Z</time>
      </trkpt>
      <trkpt lat="48.96453" lon="2.47432">
        <ele>57</ele>
        <time>2021-03-20T14:55:00Z</time>
      </trkpt>
      <trkpt lat="48.96472" lon="2.47469">
        <ele>56.99</ele>
        <time>2021-03-20T14:55:07Z</time>
      </trkpt>
      <trkpt lat="48.96479" lon="2.47487">
        <ele>56.84</ele>
        <time>2021-03-20T14:55:15Z</time>
      </trkpt>
      <trkpt lat="48.9659" lon="2.47717">
        <ele>60.73</ele>
        <time>2021-03-20T14:55:23Z</time>
      </trkpt>
      <trkpt lat="48.96623" lon="2.4777">
        <ele>60.99</ele>
        <time>2021-03-20T14:55:30Z</time>
      </trkpt>
      <trkpt lat="48.96668" lon="2.47829">
        <ele>59.8</ele>
        <time>2021-03-20T14:55:38Z</time>
      </trkpt>
      <trkpt lat="48.96777" lon="2.47959">
        <ele>61.02</ele>
        <time>2021-03-20T14:55:46Z</time>
      </trkpt>
      <trkpt lat="48.96874" lon="2.48083">
        <ele>59.95</ele>
        <time>2021-03-20T14:55:53Z</time>
      </trkpt>
      <trkpt lat="48.96888" lon="2.48095">
        <ele>60.94</ele>
        <time>2021-03-20T14:56:01Z</time>
      </trkpt>
      <trkpt lat="48.97225" lon="2.48607">
        <ele>66.38</ele>
        <time>2021-03-20T14:56:09Z</time>
      </trkpt>
      <trkpt lat="48.97237" lon="2.48635">
        <ele>66.14</ele>
        <time>2021-03-20T14:56:17Z</time>
      </trkpt>
      <trkpt lat="48.97258" lon="2.4867">
        <ele>67</ele>
        <time>2021-03-20T14:56:26Z</time>
      </trkpt>
      <trkpt lat="48.97283" lon="2.48724">
        <ele>68.05</ele>
        <time>2021-03-20T14:56:35Z</time>
      </trkpt>
      <trkpt lat="48.97301" lon="2.48769">
        <ele>69.58</ele>
        <time>2021-03-20T14:56:44Z</time>
      </trkpt>
      <trkpt lat="48.97317" lon="2.4883">
        <ele>71.53</ele>
        <time>2021-03-20T14:56:53Z</time>
      </trkpt>
      <trkpt lat="48.97323" lon="2.4888">
        <ele>70.7</ele>
        <time>2021-03-20T14:57:01Z</time>
      </trkpt>
      <trkpt lat="48.97328" lon="2.48947">
        <ele>70.67</ele>
        <time>2021-03-20T14:57:10Z</time>
      </trkpt>
      <trkpt lat="48.97328" lon="2.48986">
        <ele>72.32</ele>
        <time>2021-03-20T14:57:19Z</time>
      </trkpt>
      <trkpt lat="48.97318" lon="2.49057">
        <ele>74.97</ele>
        <time>2021-03-20T14:57:28Z</time>
      </trkpt>
      <trkpt lat="48.97301" lon="2.49145">
        <ele>73.95</ele>
        <time>2021-03-20T14:57:37Z</time>
      </trkpt>
      <trkpt lat="48.97289" lon="2.4919">
        <ele>75.57</ele>
        <time>2021-03-20T14:57:45Z</time>
      </trkpt>
      <trkpt lat="48.97288" lon="2.49204">
        <ele>75.77</ele>
        <time>2021-03-20T14:57:54Z</time>
      </trkpt>
      <trkpt lat="48.97099" lon="2.49903">
        <ele>75.73</ele>
        <time>2021-03-20T14:58:03Z</time>
      </trkpt>
      <trkpt lat="48.96949" lon="2.50368">
        <ele>72.3</ele>
        <time>2021-03-20T14:58:12Z</time>
      </trkpt>
      <trkpt lat="48.96785" lon="2.50922">
        <ele>76.17</ele>
        <time>2021-03-20T14:58:21Z</time>
      </trkpt>
      <trkpt lat="48.96731" lon="2.51109">
        <ele>70.14</ele>
        <time>2021-03-20T14:58:29Z</time>
      </trkpt>
      <trkpt lat="48.96647" lon="2.51386">
        <ele>71.18</ele>
        <time>2021-03-20T14:58:38Z</time>
      </trkpt>
      <trkpt lat="48.96634" lon="2.51431">
        <ele>69.28</ele>
        <time>2021-03-20T14:58:47Z</time>
      </trkpt>
      <trkpt lat="48.96598" lon="2.51544">
        <ele>67.05</ele>
        <time>2021-03-20T14:58:56Z</time>
      </trkpt>
      <trkpt lat="48.96472" lon="2.51869">
        <ele>66.42</ele>
        <time>2021-03-20T14:59:05Z</time>
      </trkpt>
      <trkpt lat="48.9644" lon="2.51939">
        <ele>65.29</ele>
        <time>2021-03-20T14:59:13Z</time>
      </trkpt>
      <trkpt lat="48.96352" lon="2.52108">
        <ele>62.46</ele>
        <time>2021-03-20T14:59:22Z</time>
      </trkpt>
      <trkpt lat="48.96284" lon="2.52219">
        <ele>61.88</ele>
        <time>2021-03-20T14:59:31Z</time>
      </trkpt>
      <trkpt lat="48.96245" lon="2.52273">
        <ele>60.5</ele>
        <time>2021-03-20T14:59:40Z</time>
      </trkpt>
      <trkpt lat="48.962" lon="2.52324">
        <ele>57.42</ele>
        <time>2021-03-20T14:59:49Z</time>
      </trkpt>
      <trkpt lat="48.96137" lon="2.52385">
        <ele>55.99</ele>
        <time>2021-03-20T14:59:57Z</time>
      </trkpt>
      <trkpt lat="48.96017" lon="2.52474">
        <ele>52.1</ele>
        <time>2021-03-20T15:00:06Z</time>
      </trkpt>
      <trkpt lat="48.95972" lon="2.52513">
        <ele>55.46</ele>
        <time>2021-03-20T15:00:15Z</time>
      </trkpt>
      <trkpt lat="48.95948" lon="2.52537">
        <ele>55.06</ele>
        <time>2021-03-20T15:00:24Z</time>
      </trkpt>
      <trkpt lat="48.95924" lon="2.52567">
        <ele>52.93</ele>
        <time>2021-03-20T15:00:33Z</time>
      </trkpt>
      <trkpt lat="48.95888" lon="2.52616">
        <ele>55.39</ele>
        <time>2021-03-20T15:00:41Z</time>
      </trkpt>
      <trkpt lat="48.95865" lon="2.52661">
        <ele>56.89</ele>
        <time>2021-03-20T15:00:50Z</time>
      </trkpt>
      <trkpt lat="48.95835" lon="2.52733">
        <ele>57.39</ele>
        <time>2021-03-20T15:00:59Z</time>
      </trkpt>
      <trkpt lat="48.95809" lon="2.52825">
        <ele>61</ele>
        <time>2021-03-20T15:01:08Z</time>
      </trkpt>
      <trkpt lat="48.95799" lon="2.52887">
        <ele>62.24</ele>
        <time>2021-03-20T15:01:17Z</time>
      </trkpt>
      <trkpt lat="48.95791" lon="2.52973">
        <ele>60.41</ele>
        <time>2021-03-20T15:01:25Z</time>
      </trkpt>
      <trkpt lat="48.95793" lon="2.53066">
        <ele>59.44</ele>
        <time>2021-03-20T15:01:34Z</time>
      </trkpt>
      <trkpt lat="48.95799" lon="2.53124">
        <ele>59</ele>
        <time>2021-03-20T15:01:43Z</time>
      </trkpt>
      <trkpt lat="48.95814" lon="2.53206">
        <ele>61.41</ele>
        <time>2021-03-20T15:01:52Z</time>
      </trkpt>
      <trkpt lat="48.95841" lon="2.53341">
        <ele>61.79</ele>
        <time>2021-03-20T15:02:01Z</time>
      </trkpt>
      <trkpt lat="48.95889" lon="2.53562">
        <ele>59.76</ele>
        <time>2021-03-20T15:02:09Z</time>
      </trkpt>
      <trkpt lat="48.95966" lon="2.53867">
        <ele>58.24</ele>
        <time>2021-03-20T15:02:18Z</time>
      </trkpt>
      <trkpt lat="48.96075" lon="2.54236">
        <ele>63.86</ele>
        <time>2021-03-20T15:02:27Z</time>
      </trkpt>
      <trkpt lat="48.96165" lon="2.54515">
        <ele>64.41</ele>
        <time>2021-03-20T15:02:36Z</time>
      </trkpt>
      <trkpt lat="48.96342" lon="2.55042">
        <ele>66.16</ele>
        <time>2021-03-20T15:02:45Z</time>
      </trkpt>
      <trkpt lat="48.96512" lon="2.55561">
        <ele>67.54</ele>
        <time>2021-03-20T15:02:53Z</time>
      </trkpt>
      <trkpt lat="48.9653" lon="2.55623">
        <ele>67.45</ele>
        <time>2021-03-20T15:03:02Z</time>
      </trkpt>
      <trkpt lat="48.96807" lon="2.56468">
        <ele>74.03</ele>
        <time>2021-03-20T15:03:11Z</time>
      </trkpt>
      <trkpt lat="48.96881" lon="2.5668">
        <ele>72.64</ele>
        <time>2021-03-20T15:03:20Z</time>
      </trkpt>
      <trkpt lat="48.97025" lon="2.57058">
        <ele>70</ele>
        <time>2021-03-20T15:03:29Z</time>
      </trkpt>
      <trkpt lat="48.97166" lon="2.57397">
        <ele>67.42</ele>
        <time>2021-03-20T15:03:37Z</time>
      </trkpt>
      <trkpt lat="48.97369" lon="2.57863">
        <ele>71.64</ele>
        <time>2021-03-20T15:03:46Z</time>
      </trkpt>
      <trkpt lat="48.97382" lon="2.57884">
        <ele>72.69</ele>
        <time>2021-03-20T15:03:54Z</time>
      </trkpt>
      <trkpt lat="48.97529" lon="2.58213">
        <ele>75.35</ele>
        <time>2021-03-20T15:04:03Z</time>
      </trkpt>
      <trkpt lat="48.97771" lon="2.58773">
        <ele>74.71</ele>
        <time>2021-03-20T15:04:11Z</time>
      </trkpt>
      <trkpt lat="48.98162" lon="2.59666">
        <ele>79.84</ele>
        <time>2021-03-20T15:04:19Z</time>
      </trkpt>
      <trkpt lat="48.98374" lon="2.60154">
        <ele>80.93</ele>
        <time>2021-03-20T15:04:27Z</time>
      </trkpt>
      <trkpt lat="48.98612" lon="2.60693">
        <ele>83.1</ele>
        <time>2021-03-20T15:04:35Z</time>
      </trkpt>
      <trkpt lat="48.98869" lon="2.61285">
        <ele>76.81</ele>
        <time>2021-03-20T15:04:43Z</time>
      </trkpt>
      <trkpt lat="48.99448" lon="2.62604">
        <ele>88.34</ele>
        <time>2021-03-20T15:04:52Z</time>
      </trkpt>
      <trkpt lat="48.99605" lon="2.62927">
        <ele>89.08</ele>
        <time>2021-03-20T15:05:00Z</time>
      </trkpt>
      <trkpt lat="48.99909" lon="2.63501">
        <ele>91</ele>
        <time>2021-03-20T15:05:08Z</time>
      </trkpt>
      <trkpt lat="49.002" lon="2.63993">
        <ele>85.61</ele>
        <time>2021-03-20T15:05:16Z</time>
      </trkpt>
      <trkpt lat="49.0047" lon="2.64421">
        <ele>88.93</ele>
        <time>2021-03-20T15:05:24Z</time>
      </trkpt>
      <trkpt lat="49.0052" lon="2.64496">
        <ele>87</ele>
        <time>2021-03-20T15:05:32Z</time>
      </trkpt>
      <trkpt lat="49.00586" lon="2.64591">
        <ele>90.03</ele>
        <time>2021-03-20T15:05:41Z</time>
      </trkpt>
      <trkpt lat="49.00794" lon="2.64882">
        <ele>90</ele>
        <time>2021-03-20T15:05:49Z</time>
      </trkpt>
      <trkpt lat="49.00911" lon="2.65038">
        <ele>87.19</ele>
        <time>2021-03-20T15:05:57Z</time>
      </trkpt>
      <trkpt lat="49.01051" lon="2.65218">
        <ele>82.99</ele>
        <time>2021-03-20T15:06:05Z</time>
      </trkpt>
      <trkpt lat="49.01194" lon="2.65393">
        <ele>82</ele>
        <time>2021-03-20T15:06:13Z</time>
      </trkpt>
      <trkpt lat="49.01385" lon="2.6562">
        <ele>77</ele>
        <time>2021-03-20T15:06:21Z</time>
      </trkpt>
      <trkpt lat="49.01561" lon="2.65816">
        <ele>74.44</ele>
        <time>2021-03-20T15:06:29Z</time>
      </trkpt>
      <trkpt lat="49.01923" lon="2.66189">
        <ele>86.43</ele>
        <time>2021-03-20T15:06:38Z</time>
      </trkpt>
      <trkpt lat="49.02671" lon="2.6694">
        <ele>102.83</ele>
        <time>2021-03-20T15:06:46Z</time>
      </trkpt>
      <trkpt lat="49.02919" lon="2.67184">
        <ele>103.92</ele>
        <time>2021-03-20T15:06:54Z</time>
      </trkpt>
      <trkpt lat="49.03418" lon="2.67693">
        <ele>95</ele>
        <time>2021-03-20T15:07:02Z</time>
      </trkpt>
      <trkpt lat="49.03607" lon="2.67893">
        <ele>95.85</ele>
        <time>2021-03-20T15:07:10Z</time>
      </trkpt>
      <trkpt lat="49.03706" lon="2.68004">
        <ele>96.33</ele>
        <time>2021-03-20T15:07:18Z</time>
      </trkpt>
      <trkpt lat="49.03803" lon="2.6812">
        <ele>96.93</ele>
        <time>2021-03-20T15:07:27Z</time>
      </trkpt>
      <trkpt lat="49.03835" lon="2.68156">
        <ele>97</ele>
        <time>2021-03-20T15:07:35Z</time>
      </trkpt>
      <trkpt lat="49.03874" lon="2.68204">
        <ele>98.46</ele>
        <time>2021-03-20T15:07:43Z</time>
      </trkpt>
      <trkpt lat="49.03944" lon="2.68291">
        <ele>102.43</ele>
        <time>2021-03-20T15:07:51Z</time>
      </trkpt>
      <trkpt lat="49.04123" lon="2.68524">
        <ele>108.3</ele>
        <time>2021-03-20T15:07:59Z</time>
      </trkpt>
      <trkpt lat="49.0462" lon="2.69209">
        <ele>145.8</ele>
        <time>2021-03-20T15:08:07Z</time>
      </trkpt>
      <trkpt lat="49.04695" lon="2.69304">
        <ele>149.2</ele>
        <time>2021-03-20T15:08:16Z</time>
      </trkpt>
      <trkpt lat="49.04797" lon="2.69419">
        <ele>152.59</ele>
        <time>2021-03-20T15:08:24Z</time>
      </trkpt>
      <trkpt lat="49.04916" lon="2.69547">
        <ele>153.3</ele>
        <time>2021-03-20T15:08:32Z</time>
      </trkpt>
      <trkpt lat="49.05074" lon="2.69689">
        <ele>146.16</ele>
        <time>2021-03-20T15:08:40Z</time>
      </trkpt>
      <trkpt lat="49.05141" lon="2.69744">
        <ele>138.3</ele>
        <time>2021-03-20T15:08:48Z</time>
      </trkpt>
      <trkpt lat="49.05221" lon="2.69806">
        <ele>133.98</ele>
        <time>2021-03-20T15:08:56Z</time>
      </trkpt>
      <trkpt lat="49.05358" lon="2.69899">
        <ele>121</ele>
        <time>2021-03-20T15:09:05Z</time>
      </trkpt>
      <trkpt lat="49.0544" lon="2.69948">
        <ele>118.75</ele>
        <time>2021-03-20T15:09:13Z</time>
      </trkpt>
      <trkpt lat="49.05594" lon="2.70044">
        <ele>114.99</ele>
        <time>2021-03-20T15:09:21Z</time>
      </trkpt>
      <trkpt lat="49.0578" lon="2.70154">
        <ele>115.57</ele>
        <time>2021-03-20T15:09:29Z</time>
      </trkpt>
      <trkpt lat="49.05935" lon="2.70252">
        <ele>114.56</ele>
        <time>2021-03-20T15:09:37Z</time>
      </trkpt>
      <trkpt lat="49.06013" lon="2.70308">
        <ele>114.91</ele>
        <time>2021-03-20T15:09:45Z</time>
      </trkpt>
      <trkpt lat="49.06109" lon="2.70387">
        <ele>114.99</ele>
        <time>2021-03-20T15:09:53Z</time>
      </trkpt>
      <trkpt lat="49.06178" lon="2.70452">
        <ele>112.83</ele>
        <time>2021-03-20T15:10:02Z</time>
      </trkpt>
      <trkpt lat="49.0622" lon="2.70494">
        <ele>112.22</ele>
        <time>2021-03-20T15:10:10Z</time>
      </trkpt>
      <trkpt lat="49.06293" lon="2.70575">
        <ele>111.86</ele>
        <time>2021-03-20T15:10:18Z</time>
      </trkpt>
      <trkpt lat="49.06347" lon="2.70637">
        <ele>109</ele>
        <time>2021-03-20T15:10:26Z</time>
      </trkpt>
      <trkpt lat="49.06632" lon="2.71002">
        <ele>104.2</ele>
        <time>2021-03-20T15:10:34Z</time>
      </trkpt>
      <trkpt lat="49.06891" lon="2.71345">
        <ele>101.57</ele>
        <time>2021-03-20T15:10:42Z</time>
      </trkpt>
      <trkpt lat="49.07416" lon="2.72035">
        <ele>95.74</ele>
        <time>2021-03-20T15:10:51Z</time>
      </trkpt>
      <trkpt lat="49.07662" lon="2.72355">
        <ele>98.62</ele>
        <time>2021-03-20T15:10:59Z</time>
      </trkpt>
      <trkpt lat="49.07865" lon="2.72623">
        <ele>101.68</ele>
        <time>2021-03-20T15:11:07Z</time>
      </trkpt>
      <trkpt lat="49.08002" lon="2.72782">
        <ele>105</ele>
        <time>2021-03-20T15:11:15Z</time>
      </trkpt>
      <trkpt lat="49.08108" lon="2.7289">
        <ele>104.87</ele>
        <time>2021-03-20T15:11:23Z</time>
      </trkpt>
      <trkpt lat="49.08179" lon="2.72951">
        <ele>104.42</ele>
        <time>2021-03-20T15:11:31Z</time>
      </trkpt>
      <trkpt lat="49.08282" lon="2.73024">
        <ele>103.86</ele>
        <time>2021-03-20T15:11:40Z</time>
      </trkpt>
      <trkpt lat="49.08391" lon="2.73089">
        <ele>102.78</ele>
        <time>2021-03-20T15:11:48Z</time>
      </trkpt>
      <trkpt lat="49.08541" lon="2.73161">
        <ele>98.39</ele>
        <time>2021-03-20T15:11:56Z</time>
      </trkpt>
      <trkpt lat="49.09383" lon="2.73548">
        <ele>102.3</ele>
        <time>2021-03-20T15:12:04Z</time>
      </trkpt>
      <trkpt lat="49.09505" lon="2.73615">
        <ele>107</ele>
        <time>2021-03-20T15:12:12Z</time>
      </trkpt>
      <trkpt lat="49.09615" lon="2.73692">
        <ele>108.06</ele>
        <time>2021-03-20T15:12:20Z</time>
      </trkpt>
      <trkpt lat="49.0968" lon="2.73742">
        <ele>110.56</ele>
        <time>2021-03-20T15:12:29Z</time>
      </trkpt>
      <trkpt lat="49.09733" lon="2.73787">
        <ele>108.36</ele>
        <time>2021-03-20T15:12:37Z</time>
      </trkpt>
      <trkpt lat="49.09784" lon="2.73833">
        <ele>107.79</ele>
        <time>2021-03-20T15:12:45Z</time>
      </trkpt>
      <trkpt lat="49.09846" lon="2.73895">
        <ele>109.91</ele>
        <time>2021-03-20T15:12:53Z</time>
      </trkpt>
      <trkpt lat="49.09885" lon="2.73936">
        <ele>112.19</ele>
        <time>2021-03-20T15:13:01Z</time>
      </trkpt>
      <trkpt lat="49.09924" lon="2.7398">
        <ele>109.46</ele>
        <time>2021-03-20T15:13:09Z</time>
      </trkpt>
      <trkpt lat="49.10012" lon="2.74091">
        <ele>109.29</ele>
        <time>2021-03-20T15:13:17Z</time>
      </trkpt>
      <trkpt lat="49.10079" lon="2.74186">
        <ele>111.12</ele>
        <time>2021-03-20T15:13:26Z</time>
      </trkpt>
      <trkpt lat="49.10142" lon="2.74283">
        <ele>110.79</ele>
        <time>2021-03-20T15:13:34Z</time>
      </trkpt>
      <trkpt lat="49.10191" lon="2.74368">
        <ele>110</ele>
        <time>2021-03-20T15:13:42Z</time>
      </trkpt>
      <trkpt lat="49.10252" lon="2.7448">
        <ele>111.32</ele>
        <time>2021-03-20T15:13:50Z</time>
      </trkpt>
      <trkpt lat="49.10295" lon="2.7457">
        <ele>112.18</ele>
        <time>2021-03-20T15:13:58Z</time>
      </trkpt>
      <trkpt lat="49.10348" lon="2.74691">
        <ele>110.67</ele>
        <time>2021-03-20T15:14:06Z</time>
      </trkpt>
      <trkpt lat="49.10383" lon="2.7478">
        <ele>113.6</ele>
        <time>2021-03-20T15:14:15Z</time>
      </trkpt>
      <trkpt lat="49.10434" lon="2.74935">
        <ele>113.25</ele>
        <time>2021-03-20T15:14:23Z</time>
      </trkpt>
      <trkpt lat="49.10472" lon="2.75067">
        <ele>114.01</ele>
        <time>2021-03-20T15:14:31Z</time>
      </trkpt>
      <trkpt lat="49.10515" lon="2.75229">
        <ele>118.58</ele>
        <time>2021-03-20T15:14:39Z</time>
      </trkpt>
      <trkpt lat="49.1057" lon="2.75463">
        <ele>118</ele>
        <time>2021-03-20T15:14:47Z</time>
      </trkpt>
      <trkpt lat="49.10588" lon="2.75568">
        <ele>114.62</ele>
        <time>2021-03-20T15:14:55Z</time>
      </trkpt>
      <trkpt lat="49.10631" lon="2.75774">
        <ele>111.82</ele>
        <time>2021-03-20T15:15:04Z</time>
      </trkpt>
      <trkpt lat="49.10684" lon="2.7601">
        <ele>112.34</ele>
        <time>2021-03-20T15:15:12Z</time>
      </trkpt>
      <trkpt lat="49.10779" lon="2.76311">
        <ele>112.99</ele>
        <time>2021-03-20T15:15:20Z</time>
      </trkpt>
      <trkpt lat="49.10879" lon="2.76539">
        <ele>114.83</ele>
        <time>2021-03-20T15:15:28Z</time>
      </trkpt>
      <trkpt lat="49.11013" lon="2.76767">
        <ele>116.67</ele>
        <time>2021-03-20T15:15:36Z</time>
      </trkpt>
      <trkpt lat="49.11085" lon="2.76872">
        <ele>114.07</ele>
        <time>2021-03-20T15:15:44Z</time>
      </trkpt>
      <trkpt lat="49.11242" lon="2.77086">
        <ele>118.81</ele>
        <time>2021-03-20T15:15:53Z</time>
      </trkpt>
      <trkpt lat="49.11377" lon="2.77262">
        <ele>120.75</ele>
        <time>2021-03-20T15:16:01Z</time>
      </trkpt>
      <trkpt lat="49.13108" lon="2.79561">
        <ele>110.1</ele>
        <time>2021-03-20T15:16:09Z</time>
      </trkpt>
      <trkpt lat="49.13157" lon="2.79618">
        <ele>107.61</ele>
        <time>2021-03-20T15:16:17Z</time>
      </trkpt>
      <trkpt lat="49.13205" lon="2.79666">
        <ele>107</ele>
        <time>2021-03-20T15:16:25Z</time>
      </trkpt>
      <trkpt lat="49.13257" lon="2.79711">
        <ele>105.75</ele>
        <time>2021-03-20T15:16:33Z</time>
      </trkpt>
      <trkpt lat="49.13305" lon="2.79747">
        <ele>105</ele>
        <time>2021-03-20T15:16:41Z</time>
      </trkpt>
      <trkpt lat="49.13382" lon="2.79795">
        <ele>103.26</ele>
        <time>2021-03-20T15:16:50Z</time>
      </trkpt>
      <trkpt lat="49.13427" lon="2.79817">
        <ele>102.78</ele>
        <time>2021-03-20T15:16:58Z</time>
      </trkpt>
      <trkpt lat="49.13487" lon="2.79839">
        <ele>104</ele>
        <time>2021-03-20T15:17:06Z</time>
      </trkpt>
      <trkpt lat="49.13552" lon="2.79856">
        <ele>101.99</ele>
        <time>2021-03-20T15:17:14Z</time>
      </trkpt>
      <trkpt lat="49.1362" lon="2.79866">
        <ele>101.11</ele>
        <time>2021-03-20T15:17:22Z</time>
      </trkpt>
      <trkpt lat="49.13911" lon="2.79897">
        <ele>103</ele>
        <time>2021-03-20T15:17:30Z</time>
      </trkpt>
      <trkpt lat="49.13987" lon="2.79914">
        <ele>103.96</ele>
        <time>2021-03-20T15:17:39Z</time>
      </trkpt>
      <trkpt lat="49.14055" lon="2.79935">
        <ele>105.68</ele>
        <time>2021-03-20T15:17:47Z</time>
      </trkpt>
      <trkpt lat="49.14136" lon="2.79974">
        <ele>104.07</ele>
        <time>2021-03-20T15:17:55Z</time>
      </trkpt>
      <trkpt lat="49.14179" lon="2.80001">
        <ele>104.03</ele>
        <time>2021-03-20T15:18:03Z</time>
      </trkpt>
      <trkpt lat="49.14237" lon="2.80045">
        <ele>105.21</ele>
        <time>2021-03-20T15:18:11Z</time>
      </trkpt>
      <trkpt lat="49.14299" lon="2.80102">
        <ele>104.67</ele>
        <time>2021-03-20T15:18:19Z</time>
      </trkpt>
      <trkpt lat="49.14359" lon="2.80172">
        <ele>97.42</ele>
        <time>2021-03-20T15:18:28Z</time>
      </trkpt>
      <trkpt lat="49.14422" lon="2.8026">
        <ele>95.43</ele>
        <time>2021-03-20T15:18:36Z</time>
      </trkpt>
      <trkpt lat="49.14456" lon="2.80315">
        <ele>92.94</ele>
        <time>2021-03-20T15:18:44Z</time>
      </trkpt>
      <trkpt lat="49.14508" lon="2.80418">
        <ele>92.31</ele>
        <time>2021-03-20T15:18:52Z</time>
      </trkpt>
      <trkpt lat="49.14565" lon="2.80547">
        <ele>93.64</ele>
        <time>2021-03-20T15:19:00Z</time>
      </trkpt>
      <trkpt lat="49.14643" lon="2.80744">
        <ele>96.03</ele>
        <time>2021-03-20T15:19:08Z</time>
      </trkpt>
      <trkpt lat="49.1469" lon="2.80868">
        <ele>104.33</ele>
        <time>2021-03-20T15:19:17Z</time>
      </trkpt>
      <trkpt lat="49.14722" lon="2.80965">
        <ele>107.75</ele>
        <time>2021-03-20T15:19:25Z</time>
      </trkpt>
      <trkpt lat="49.14752" lon="2.81075">
        <ele>113.43</ele>
        <time>2021-03-20T15:19:33Z</time>
      </trkpt>
      <trkpt lat="49.14774" lon="2.81182">
        <ele>113.4</ele>
        <time>2021-03-20T15:19:41Z</time>
      </trkpt>
      <trkpt lat="49.14792" lon="2.81307">
        <ele>115.98</ele>
        <time>2021-03-20T15:19:49Z</time>
      </trkpt>
      <trkpt lat="49.14797" lon="2.81371">
        <ele>115.56</ele>
        <time>2021-03-20T15:19:57Z</time>
      </trkpt>
      <trkpt lat="49.148" lon="2.81435">
        <ele>116.54</ele>
        <time>2021-03-20T15:20:05Z</time>
      </trkpt>
      <trkpt lat="49.14803" lon="2.81535">
        <ele>117.93</ele>
        <time>2021-03-20T15:20:14Z</time>
      </trkpt>
      <trkpt lat="49.14803" lon="2.81585">
        <ele>117.85</ele>
        <time>2021-03-20T15:20:22Z</time>
      </trkpt>
      <trkpt lat="49.148" lon="2.81647">
        <ele>116.57</ele>
        <time>2021-03-20T15:20:30Z</time>
      </trkpt>
      <trkpt lat="49.14794" lon="2.81717">
        <ele>115.83</ele>
        <time>2021-03-20T15:20:38Z</time>
      </trkpt>
      <trkpt lat="49.14788" lon="2.8184">
        <ele>115.59</ele>
        <time>2021-03-20T15:20:46Z</time>
      </trkpt>
      <trkpt lat="49.14781" lon="2.82046">
        <ele>119.04</ele>
        <time>2021-03-20T15:20:54Z</time>
      </trkpt>
      <trkpt lat="49.14785" lon="2.82161">
        <ele>118.27</ele>
        <time>2021-03-20T15:21:03Z</time>
      </trkpt>
      <trkpt lat="49.14796" lon="2.82289">
        <ele>116.92</ele>
        <time>2021-03-20T15:21:11Z</time>
      </trkpt>
      <trkpt lat="49.14817" lon="2.82425">
        <ele>118</ele>
        <time>2021-03-20T15:21:19Z</time>
      </trkpt>
      <trkpt lat="49.14842" lon="2.82537">
        <ele>118.68</ele>
        <time>2021-03-20T15:21:27Z</time>
      </trkpt>
      <trkpt lat="49.1487" lon="2.8263">
        <ele>117.2</ele>
        <time>2021-03-20T15:21:35Z</time>
      </trkpt>
      <trkpt lat="49.14941" lon="2.82805">
        <ele>118.84</ele>
        <time>2021-03-20T15:21:43Z</time>
      </trkpt>
      <trkpt lat="49.15072" lon="2.831">
        <ele>123.84</ele>
        <time>2021-03-20T15:21:52Z</time>
      </trkpt>
      <trkpt lat="49.15191" lon="2.83358">
        <ele>122.89</ele>
        <time>2021-03-20T15:22:00Z</time>
      </trkpt>
      <trkpt lat="49.15855" lon="2.84848">
        <ele>125</ele>
        <time>2021-03-20T15:22:08Z</time>
      </trkpt>
      <trkpt lat="49.15915" lon="2.84982">
        <ele>125</ele>
        <time>2021-03-20T15:22:16Z</time>
      </trkpt>
      <trkpt lat="49.15979" lon="2.85119">
        <ele>126.25</ele>
        <time>2021-03-20T15:22:24Z</time>
      </trkpt>
      <trkpt lat="49.16" lon="2.8515">
        <ele>127.42</ele>
        <time>2021-03-20T15:22:32Z</time>
      </trkpt>
      <trkpt lat="49.16052" lon="2.852">
        <ele>129.34</ele>
        <time>2021-03-20T15:22:41Z</time>
      </trkpt>
      <trkpt lat="49.16069" lon="2.8522">
        <ele>129.43</ele>
        <time>2021-03-20T15:22:49Z</time>
      </trkpt>
      <trkpt lat="49.16086" lon="2.85243">
        <ele>129.58</ele>
        <time>2021-03-20T15:22:57Z</time>
      </trkpt>
      <trkpt lat="49.16252" lon="2.85542">
        <ele>130.52</ele>
        <time>2021-03-20T15:23:05Z</time>
      </trkpt>
      <trkpt lat="49.16328" lon="2.85676">
        <ele>131.45</ele>
        <time>2021-03-20T15:23:13Z</time>
      </trkpt>
      <trkpt lat="49.16495" lon="2.85976">
        <ele>132.86</ele>
        <time>2021-03-20T15:23:21Z</time>
      </trkpt>
      <trkpt lat="49.16541" lon="2.86076">
        <ele>132.35</ele>
        <time>2021-03-20T15:23:29Z</time>
      </trkpt>
      <trkpt lat="49.16613" lon="2.86218">
        <ele>133.35</ele>
        <time>2021-03-20T15:23:38Z</time>
      </trkpt>
      <trkpt lat="49.16853" lon="2.86658">
        <ele>132.94</ele>
        <time>2021-03-20T15:23:46Z</time>
      </trkpt>
      <trkpt lat="49.16934" lon="2.8683">
        <ele>132.07</ele>
        <time>2021-03-20T15:23:54Z</time>
      </trkpt>
      <trkpt lat="49.17002" lon="2.86965">
        <ele>133</ele>
        <time>2021-03-20T15:24:02Z</time>
      </trkpt>
      <trkpt lat="49.17564" lon="2.87991">
        <ele>130.62</ele>
        <time>2021-03-20T15:24:10Z</time>
      </trkpt>
      <trkpt lat="49.17635" lon="2.88107">
        <ele>129.87</ele>
        <time>2021-03-20T15:24:18Z</time>
      </trkpt>
      <trkpt lat="49.177" lon="2.88206">
        <ele>127.59</ele>
        <time>2021-03-20T15:24:27Z</time>
      </trkpt>
      <trkpt lat="49.17751" lon="2.88292">
        <ele>126</ele>
        <time>2021-03-20T15:24:35Z</time>
      </trkpt>
      <trkpt lat="49.17938" lon="2.8863">
        <ele>124.72</ele>
        <time>2021-03-20T15:24:43Z</time>
      </trkpt>
      <trkpt lat="49.17983" lon="2.88712">
        <ele>122.26</ele>
        <time>2021-03-20T15:24:51Z</time>
      </trkpt>
      <trkpt lat="49.18093" lon="2.88891">
        <ele>120.87</ele>
        <time>2021-03-20T15:24:59Z</time>
      </trkpt>
      <trkpt lat="49.18144" lon="2.8897">
        <ele>120</ele>
        <time>2021-03-20T15:25:07Z</time>
      </trkpt>
      <trkpt lat="49.18297" lon="2.89246">
        <ele>119.16</ele>
        <time>2021-03-20T15:25:16Z</time>
      </trkpt>
      <trkpt lat="49.18695" lon="2.89969">
        <ele>123.67</ele>
        <time>2021-03-20T15:25:24Z</time>
      </trkpt>
      <trkpt lat="49.18881" lon="2.90303">
        <ele>121.26</ele>
        <time>2021-03-20T15:25:32Z</time>
      </trkpt>
      <trkpt lat="49.19013" lon="2.90547">
        <ele>120.48</ele>
        <time>2021-03-20T15:25:40Z</time>
      </trkpt>
      <trkpt lat="49.19075" lon="2.90672">
        <ele>119.94</ele>
        <time>2021-03-20T15:25:48Z</time>
      </trkpt>
      <trkpt lat="49.19179" lon="2.90865">
        <ele>119.37</ele>
        <time>2021-03-20T15:25:56Z</time>
      </trkpt>
      <trkpt lat="49.19213" lon="2.90939">
        <ele>120.19</ele>
        <time>2021-03-20T15:26:05Z</time>
      </trkpt>
      <trkpt lat="49.19248" lon="2.91025">
        <ele>120.09</ele>
        <time>2021-03-20T15:26:13Z</time>
      </trkpt>
      <trkpt lat="49.19278" lon="2.91126">
        <ele>119.99</ele>
        <time>2021-03-20T15:26:21Z</time>
      </trkpt>
      <trkpt lat="49.19303" lon="2.91238">
        <ele>119.27</ele>
        <time>2021-03-20T15:26:29Z</time>
      </trkpt>
      <trkpt lat="49.19371" lon="2.91576">
        <ele>120.79</ele>
        <time>2021-03-20T15:26:37Z</time>
      </trkpt>
      <trkpt lat="49.19399" lon="2.91693">
        <ele>123.39</ele>
        <time>2021-03-20T15:26:45Z</time>
      </trkpt>
      <trkpt lat="49.19429" lon="2.9179">
        <ele>122.36</ele>
        <time>2021-03-20T15:26:53Z</time>
      </trkpt>
      <trkpt lat="49.19468" lon="2.91892">
        <ele>124.92</ele>
        <time>2021-03-20T15:27:02Z</time>
      </trkpt>
      <trkpt lat="49.19515" lon="2.91998">
        <ele>124.96</ele>
        <time>2021-03-20T15:27:10Z</time>
      </trkpt>
      <trkpt lat="49.19562" lon="2.92082">
        <ele>127.01</ele>
        <time>2021-03-20T15:27:18Z</time>
      </trkpt>
      <trkpt lat="49.19598" lon="2.9214">
        <ele>127.54</ele>
        <time>2021-03-20T15:27:26Z</time>
      </trkpt>
      <trkpt lat="49.1962" lon="2.92171">
        <ele>127.9</ele>
        <time>2021-03-20T15:27:34Z</time>
      </trkpt>
      <trkpt lat="49.19938" lon="2.92589">
        <ele>132</ele>
        <time>2021-03-20T15:27:42Z</time>
      </trkpt>
      <trkpt lat="49.20464" lon="2.93274">
        <ele>136.62</ele>
        <time>2021-03-20T15:27:51Z</time>
      </trkpt>
      <trkpt lat="49.20532" lon="2.93362">
        <ele>137.16</ele>
        <time>2021-03-20T15:27:59Z</time>
      </trkpt>
      <trkpt lat="49.20588" lon="2.9344">
        <ele>138.3</ele>
        <time>2021-03-20T15:28:07Z</time>
      </trkpt>
      <trkpt lat="49.20634" lon="2.93514">
        <ele>141.11</ele>
        <time>2021-03-20T15:28:15Z</time>
      </trkpt>
      <trkpt lat="49.20664" lon="2.9357">
        <ele>141.89</ele>
        <time>2021-03-20T15:28:23Z</time>
      </trkpt>
      <trkpt lat="49.20705" lon="2.93664">
        <ele>139.05</ele>
        <time>2021-03-20T15:28:31Z</time>
      </trkpt>
      <trkpt lat="49.20811" lon="2.93945">
        <ele>140.2</ele>
        <time>2021-03-20T15:28:40Z</time>
      </trkpt>
      <trkpt lat="49.20872" lon="2.94114">
        <ele>141.93</ele>
        <time>2021-03-20T15:28:48Z</time>
      </trkpt>
      <trkpt lat="49.20906" lon="2.9422">
        <ele>143.55</ele>
        <time>2021-03-20T15:28:56Z</time>
      </trkpt>
      <trkpt lat="49.20932" lon="2.94316">
        <ele>143</ele>
        <time>2021-03-20T15:29:04Z</time>
      </trkpt>
      <trkpt lat="49.2095" lon="2.94395">
        <ele>142.95</ele>
        <time>2021-03-20T15:29:12Z</time>
      </trkpt>
      <trkpt lat="49.20971" lon="2.94509">
        <ele>142.3</ele>
        <time>2021-03-20T15:29:20Z</time>
      </trkpt>
      <trkpt lat="49.2099" lon="2.94622">
        <ele>143.39</ele>
        <time>2021-03-20T15:29:29Z</time>
      </trkpt>
      <trkpt lat="49.2104" lon="2.94985">
        <ele>143.44</ele>
        <time>2021-03-20T15:29:37Z</time>
      </trkpt>
      <trkpt lat="49.21055" lon="2.95078">
        <ele>143.21</ele>
        <time>2021-03-20T15:29:45Z</time>
      </trkpt>
      <trkpt lat="49.21076" lon="2.95172">
        <ele>142</ele>
        <time>2021-03-20T15:29:53Z</time>
      </trkpt>
      <trkpt lat="49.21105" lon="2.9529">
        <ele>142</ele>
        <time>2021-03-20T15:30:01Z</time>
      </trkpt>
      <trkpt lat="49.21129" lon="2.95374">
        <ele>142</ele>
        <time>2021-03-20T15:30:09Z</time>
      </trkpt>
      <trkpt lat="49.21189" lon="2.95554">
        <ele>141</ele>
        <time>2021-03-20T15:30:17Z</time>
      </trkpt>
      <trkpt lat="49.21259" lon="2.95747">
        <ele>137.12</ele>
        <time>2021-03-20T15:30:26Z</time>
      </trkpt>
      <trkpt lat="49.21289" lon="2.95818">
        <ele>137</ele>
        <time>2021-03-20T15:30:34Z</time>
      </trkpt>
      <trkpt lat="49.21329" lon="2.95905">
        <ele>136</ele>
        <time>2021-03-20T15:30:42Z</time>
      </trkpt>
      <trkpt lat="49.21359" lon="2.95964">
        <ele>135.94</ele>
        <time>2021-03-20T15:30:50Z</time>
      </trkpt>
      <trkpt lat="49.21389" lon="2.96019">
        <ele>134.99</ele>
        <time>2021-03-20T15:30:58Z</time>
      </trkpt>
      <trkpt lat="49.21471" lon="2.96151">
        <ele>132</ele>
        <time>2021-03-20T15:31:06Z</time>
      </trkpt>
      <trkpt lat="49.21565" lon="2.96274">
        <ele>134.05</ele>
        <time>2021-03-20T15:31:15Z</time>
      </trkpt>
      <trkpt lat="49.21634" lon="2.96349">
        <ele>136.66</ele>
        <time>2021-03-20T15:31:23Z</time>
      </trkpt>
      <trkpt lat="49.21709" lon="2.9642">
        <ele>136.59</ele>
        <time>2021-03-20T15:31:31Z</time>
      </trkpt>
      <trkpt lat="49.21922" lon="2.96592">
        <ele>136.06</ele>
        <time>2021-03-20T15:31:39Z</time>
      </trkpt>
      <trkpt lat="49.22054" lon="2.96696">
        <ele>130.05</ele>
        <time>2021-03-20T15:31:47Z</time>
      </trkpt>
      <trkpt lat="49.22114" lon="2.96745">
        <ele>126.74</ele>
        <time>2021-03-20T15:31:55Z</time>
      </trkpt>
      <trkpt lat="49.22174" lon="2.96806">
        <ele>124.54</ele>
        <time>2021-03-20T15:32:04Z</time>
      </trkpt>
      <trkpt lat="49.22298" lon="2.9694">
        <ele>128.84</ele>
        <time>2021-03-20T15:32:12Z</time>
      </trkpt>
      <trkpt lat="49.22374" lon="2.97049">
        <ele>130.3</ele>
        <time>2021-03-20T15:32:20Z</time>
      </trkpt>
      <trkpt lat="49.2264" lon="2.97457">
        <ele>135.86</ele>
        <time>2021-03-20T15:32:28Z</time>
      </trkpt>
      <trkpt lat="49.22751" lon="2.97642">
        <ele>139.77</ele>
        <time>2021-03-20T15:32:36Z</time>
      </trkpt>
      <trkpt lat="49.22785" lon="2.97711">
        <ele>133.76</ele>
        <time>2021-03-20T15:32:44Z</time>
      </trkpt>
      <trkpt lat="49.22854" lon="2.9787">
        <ele>132.25</ele>
        <time>2021-03-20T15:32:53Z</time>
      </trkpt>
      <trkpt lat="49.23016" lon="2.98227">
        <ele>129.51</ele>
        <time>2021-03-20T15:33:01Z</time>
      </trkpt>
      <trkpt lat="49.23053" lon="2.98318">
        <ele>126.54</ele>
        <time>2021-03-20T15:33:09Z</time>
      </trkpt>
      <trkpt lat="49.23089" lon="2.98421">
        <ele>122.72</ele>
        <time>2021-03-20T15:33:17Z</time>
      </trkpt>
      <trkpt lat="49.23132" lon="2.98556">
        <ele>120.25</ele>
        <time>2021-03-20T15:33:25Z</time>
      </trkpt>
      <trkpt lat="49.23161" lon="2.98683">
        <ele>118</ele>
        <time>2021-03-20T15:33:33Z</time>
      </trkpt>
      <trkpt lat="49.23191" lon="2.98822">
        <ele>122</ele>
        <time>2021-03-20T15:33:41Z</time>
      </trkpt>
      <trkpt lat="49.23212" lon="2.98957">
        <ele>119.25</ele>
        <time>2021-03-20T15:33:50Z</time>
      </trkpt>
      <trkpt lat="49.2327" lon="2.9934">
        <ele>116.79</ele>
        <time>2021-03-20T15:33:58Z</time>
      </trkpt>
      <trkpt lat="49.23293" lon="2.99452">
        <ele>112.38</ele>
        <time>2021-03-20T15:34:06Z</time>
      </trkpt>
      <trkpt lat="49.23338" lon="2.99621">
        <ele>116.01</ele>
        <time>2021-03-20T15:34:14Z</time>
      </trkpt>
      <trkpt lat="49.23374" lon="2.99734">
        <ele>117.71</ele>
        <time>2021-03-20T15:34:22Z</time>
      </trkpt>
      <trkpt lat="49.23417" lon="2.99852">
        <ele>115.64</ele>
        <time>2021-03-20T15:34:30Z</time>
      </trkpt>
      <trkpt lat="49.23463" lon="2.99961">
        <ele>105.11</ele>
        <time>2021-03-20T15:34:39Z</time>
      </trkpt>
      <trkpt lat="49.23553" lon="3.0014">
        <ele>101.85</ele>
        <time>2021-03-20T15:34:47Z</time>
      </trkpt>
      <trkpt lat="49.23705" lon="3.00427">
        <ele>99.99</ele>
        <time>2021-03-20T15:34:55Z</time>
      </trkpt>
      <trkpt lat="49.23732" lon="3.00482">
        <ele>100.32</ele>
        <time>2021-03-20T15:35:03Z</time>
      </trkpt>
      <trkpt lat="49.23775" lon="3.0058">
        <ele>100.9</ele>
        <time>2021-03-20T15:35:11Z</time>
      </trkpt>
      <trkpt lat="49.23902" lon="3.00917">
        <ele>110</ele>
        <time>2021-03-20T15:35:19Z</time>
      </trkpt>
      <trkpt lat="49.23954" lon="3.01073">
        <ele>111.14</ele>
        <time>2021-03-20T15:35:28Z</time>
      </trkpt>
      <trkpt lat="49.23967" lon="3.01119">
        <ele>112.5</ele>
        <time>2021-03-20T15:35:36Z</time>
      </trkpt>
      <trkpt lat="49.23988" lon="3.01205">
        <ele>114.76</ele>
        <time>2021-03-20T15:35:44Z</time>
      </trkpt>
      <trkpt lat="49.24025" lon="3.01425">
        <ele>117.18</ele>
        <time>2021-03-20T15:35:52Z</time>
      </trkpt>
      <trkpt lat="49.2403" lon="3.01463">
        <ele>117.93</ele>
        <time>2021-03-20T15:36:00Z</time>
      </trkpt>
      <trkpt lat="49.24035" lon="3.01534">
        <ele>117</ele>
        <time>2021-03-20T15:36:08Z</time>
      </trkpt>
      <trkpt lat="49.24039" lon="3.01746">
        <ele>116.39</ele>
        <time>2021-03-20T15:36:17Z</time>
      </trkpt>
      <trkpt lat="49.24035" lon="3.01868">
        <ele>118.36</ele>
        <time>2021-03-20T15:36:25Z</time>
      </trkpt>
      <trkpt lat="49.24024" lon="3.02041">
        <ele>119.34</ele>
        <time>2021-03-20T15:36:33Z</time>
      </trkpt>
      <trkpt lat="49.24013" lon="3.02181">
        <ele>116.52</ele>
        <time>2021-03-20T15:36:41Z</time>
      </trkpt>
      <trkpt lat="49.24004" lon="3.02283">
        <ele>115.86</ele>
        <time>2021-03-20T15:36:49Z</time>
      </trkpt>
      <trkpt lat="49.24003" lon="3.02377">
        <ele>114.24</ele>
        <time>2021-03-20T15:36:57Z</time>
      </trkpt>
      <trkpt lat="49.24004" lon="3.02457">
        <ele>113.07</ele>
        <time>2021-03-20T15:37:05Z</time>
      </trkpt>
      <trkpt lat="49.24007" lon="3.02537">
        <ele>111.18</ele>
        <time>2021-03-20T15:37:14Z</time>
      </trkpt>
      <trkpt lat="49.24015" lon="3.02621">
        <ele>110</ele>
        <time>2021-03-20T15:37:22Z</time>
      </trkpt>
      <trkpt lat="49.24053" lon="3.02807">
        <ele>100.4</ele>
        <time>2021-03-20T15:37:30Z</time>
      </trkpt>
      <trkpt lat="49.24151" lon="3.03278">
        <ele>76</ele>
        <time>2021-03-20T15:37:38Z</time>
      </trkpt>
      <trkpt lat="49.24167" lon="3.03327">
        <ele>77.8</ele>
        <time>2021-03-20T15:37:46Z</time>
      </trkpt>
      <trkpt lat="49.24176" lon="3.0335">
        <ele>78.33</ele>
        <time>2021-03-20T15:37:54Z</time>
      </trkpt>
      <trkpt lat="49.24203" lon="3.03402">
        <ele>80.28</ele>
        <time>2021-03-20T15:38:03Z</time>
      </trkpt>
      <trkpt lat="49.24227" lon="3.03439">
        <ele>85.04</ele>
        <time>2021-03-20T15:38:11Z</time>
      </trkpt>
      <trkpt lat="49.24258" lon="3.03472">
        <ele>90.42</ele>
        <time>2021-03-20T15:38:19Z</time>
      </trkpt>
      <trkpt lat="49.2429" lon="3.035">
        <ele>91.3</ele>
        <time>2021-03-20T15:38:27Z</time>
      </trkpt>
      <trkpt lat="49.24453" lon="3.03577">
        <ele>104.79</ele>
        <time>2021-03-20T15:38:35Z</time>
      </trkpt>
      <trkpt lat="49.24539" lon="3.03616">
        <ele>109.55</ele>
        <time>2021-03-20T15:38:43Z</time>
      </trkpt>
      <trkpt lat="49.24565" lon="3.03636">
        <ele>110.45</ele>
        <time>2021-03-20T15:38:52Z</time>
      </trkpt>
      <trkpt lat="49.24609" lon="3.03682">
        <ele>114.67</ele>
        <time>2021-03-20T15:39:00Z</time>
      </trkpt>
      <trkpt lat="49.24632" lon="3.03717">
        <ele>116.99</ele>
        <time>2021-03-20T15:39:08Z</time>
      </trkpt>
      <trkpt lat="49.24654" lon="3.03758">
        <ele>118.45</ele>
        <time>2021-03-20T15:39:16Z</time>
      </trkpt>
      <trkpt lat="49.24681" lon="3.03829">
        <ele>119</ele>
        <time>2021-03-20T15:39:24Z</time>
      </trkpt>
      <trkpt lat="49.24692" lon="3.03875">
        <ele>119.95</ele>
        <time>2021-03-20T15:39:32Z</time>
      </trkpt>
      <trkpt lat="49.24698" lon="3.03914">
        <ele>120.13</ele>
        <time>2021-03-20T15:39:41Z</time>
      </trkpt>
      <trkpt lat="49.24702" lon="3.03956">
        <ele>120.58</ele>
        <time>2021-03-20T15:39:49Z</time>
      </trkpt>
      <trkpt lat="49.24714" lon="3.04125">
        <ele>124.48</ele>
        <time>2021-03-20T15:39:57Z</time>
      </trkpt>
      <trkpt lat="49.24722" lon="3.04194">
        <ele>125</ele>
        <time>2021-03-20T15:40:05Z</time>
      </trkpt>
      <trkpt lat="49.24737" lon="3.04288">
        <ele>126</ele>
        <time>2021-03-20T15:40:13Z</time>
      </trkpt>
      <trkpt lat="49.24749" lon="3.04344">
        <ele>127.38</ele>
        <time>2021-03-20T15:40:21Z</time>
      </trkpt>
      <trkpt lat="49.24772" lon="3.04432">
        <ele>129</ele>
        <time>2021-03-20T15:40:29Z</time>
      </trkpt>
      <trkpt lat="49.25055" lon="3.05382">
        <ele>122.25</ele>
        <time>2021-03-20T15:40:38Z</time>
      </trkpt>
      <trkpt lat="49.25113" lon="3.05587">
        <ele>122</ele>
        <time>2021-03-20T15:40:46Z</time>
      </trkpt>
      <trkpt lat="49.25138" lon="3.057">
        <ele>121.99</ele>
        <time>2021-03-20T15:40:54Z</time>
      </trkpt>
      <trkpt lat="49.25216" lon="3.06185">
        <ele>124</ele>
        <time>2021-03-20T15:41:02Z</time>
      </trkpt>
      <trkpt lat="49.2524" lon="3.06328">
        <ele>124.29</ele>
        <time>2021-03-20T15:41:10Z</time>
      </trkpt>
      <trkpt lat="49.25268" lon="3.06462">
        <ele>126.17</ele>
        <time>2021-03-20T15:41:18Z</time>
      </trkpt>
      <trkpt lat="49.25293" lon="3.06543">
        <ele>123.54</ele>
        <time>2021-03-20T15:41:27Z</time>
      </trkpt>
      <trkpt lat="49.25319" lon="3.06611">
        <ele>125.49</ele>
        <time>2021-03-20T15:41:35Z</time>
      </trkpt>
      <trkpt lat="49.25347" lon="3.06671">
        <ele>125</ele>
        <time>2021-03-20T15:41:43Z</time>
      </trkpt>
      <trkpt lat="49.25363" lon="3.06701">
        <ele>124.96</ele>
        <time>2021-03-20T15:41:51Z</time>
      </trkpt>
      <trkpt lat="49.25385" lon="3.06739">
        <ele>125</ele>
        <time>2021-03-20T15:41:59Z</time>
      </trkpt>
      <trkpt lat="49.2544" lon="3.06823">
        <ele>126.83</ele>
        <time>2021-03-20T15:42:07Z</time>
      </trkpt>
      <trkpt lat="49.25662" lon="3.07123">
        <ele>127</ele>
        <time>2021-03-20T15:42:16Z</time>
      </trkpt>
      <trkpt lat="49.26119" lon="3.07735">
        <ele>131</ele>
        <time>2021-03-20T15:42:24Z</time>
      </trkpt>
      <trkpt lat="49.26194" lon="3.07846">
        <ele>132.47</ele>
        <time>2021-03-20T15:42:32Z</time>
      </trkpt>
      <trkpt lat="49.26247" lon="3.07914">
        <ele>134.91</ele>
        <time>2021-03-20T15:42:40Z</time>
      </trkpt>
      <trkpt lat="49.26306" lon="3.08009">
        <ele>138.15</ele>
        <time>2021-03-20T15:42:48Z</time>
      </trkpt>
      <trkpt lat="49.26384" lon="3.08165">
        <ele>134.95</ele>
        <time>2021-03-20T15:42:56Z</time>
      </trkpt>
      <trkpt lat="49.26427" lon="3.08266">
        <ele>135.42</ele>
        <time>2021-03-20T15:43:05Z</time>
      </trkpt>
      <trkpt lat="49.26454" lon="3.08335">
        <ele>133.68</ele>
        <time>2021-03-20T15:43:13Z</time>
      </trkpt>
      <trkpt lat="49.26485" lon="3.08427">
        <ele>135.93</ele>
        <time>2021-03-20T15:43:21Z</time>
      </trkpt>
      <trkpt lat="49.26546" lon="3.08658">
        <ele>140.1</ele>
        <time>2021-03-20T15:43:29Z</time>
      </trkpt>
      <trkpt lat="49.26572" lon="3.08787">
        <ele>139.73</ele>
        <time>2021-03-20T15:43:37Z</time>
      </trkpt>
      <trkpt lat="49.26592" lon="3.08923">
        <ele>141.55</ele>
        <time>2021-03-20T15:43:45Z</time>
      </trkpt>
      <trkpt lat="49.26603" lon="3.09037">
        <ele>140.62</ele>
        <time>2021-03-20T15:43:53Z</time>
      </trkpt>
      <trkpt lat="49.26608" lon="3.09113">
        <ele>140.15</ele>
        <time>2021-03-20T15:44:02Z</time>
      </trkpt>
      <trkpt lat="49.26611" lon="3.09197">
        <ele>139.08</ele>
        <time>2021-03-20T15:44:10Z</time>
      </trkpt>
      <trkpt lat="49.26613" lon="3.09319">
        <ele>140.05</ele>
        <time>2021-03-20T15:44:18Z</time>
      </trkpt>
      <trkpt lat="49.26611" lon="3.09609">
        <ele>142.06</ele>
        <time>2021-03-20T15:44:26Z</time>
      </trkpt>
      <trkpt lat="49.26602" lon="3.09721">
        <ele>138.02</ele>
        <time>2021-03-20T15:44:31Z</time>
      </trkpt>
      <trkpt lat="49.26591" lon="3.09799">
        <ele>137.78</ele>
        <time>2021-03-20T15:44:36Z</time>
      </trkpt>
      <trkpt lat="49.26553" lon="3.09999">
        <ele>138.85</ele>
        <time>2021-03-20T15:44:40Z</time>
      </trkpt>
      <trkpt lat="49.26553" lon="3.10008">
        <ele>138.89</ele>
        <time>2021-03-20T15:44:45Z</time>
      </trkpt>
      <trkpt lat="49.26709" lon="3.10007">
        <ele>142.75</ele>
        <time>2021-03-20T15:44:52Z</time>
      </trkpt>
      <trkpt lat="49.26879" lon="3.10012">
        <ele>147.83</ele>
        <time>2021-03-20T15:44:59Z</time>
      </trkpt>
      <trkpt lat="49.26938" lon="3.10017">
        <ele>155.94</ele>
        <time>2021-03-20T15:45:06Z</time>
      </trkpt>
      <trkpt lat="49.26971" lon="3.10042">
        <ele>156.89</ele>
        <time>2021-03-20T15:45:13Z</time>
      </trkpt>
      <trkpt lat="49.27214" lon="3.10183">
        <ele>162.64</ele>
        <time>2021-03-20T15:45:20Z</time>
      </trkpt>
      <trkpt lat="49.27707" lon="3.10492">
        <ele>177.64</ele>
        <time>2021-03-20T15:45:27Z</time>
      </trkpt>
      <trkpt lat="49.27793" lon="3.10544">
        <ele>182.22</ele>
        <time>2021-03-20T15:45:34Z</time>
      </trkpt>
      <trkpt lat="49.2789" lon="3.10607">
        <ele>189.21</ele>
        <time>2021-03-20T15:45:41Z</time>
      </trkpt>
      <trkpt lat="49.28159" lon="3.10874">
        <ele>178.58</ele>
        <time>2021-03-20T15:45:48Z</time>
      </trkpt>
      <trkpt lat="49.28176" lon="3.10895">
        <ele>181.16</ele>
        <time>2021-03-20T15:45:55Z</time>
      </trkpt>
      <trkpt lat="49.28193" lon="3.10919">
        <ele>183.9</ele>
        <time>2021-03-20T15:46:02Z</time>
      </trkpt>
      <trkpt lat="49.28204" lon="3.10948">
        <ele>184.66</ele>
        <time>2021-03-20T15:46:09Z</time>
      </trkpt>
      <trkpt lat="49.28209" lon="3.10972">
        <ele>184.47</ele>
        <time>2021-03-20T15:46:16Z</time>
      </trkpt>
      <trkpt lat="49.28212" lon="3.1099">
        <ele>183.89</ele>
        <time>2021-03-20T15:46:23Z</time>
      </trkpt>
      <trkpt lat="49.28213" lon="3.1101">
        <ele>183.66</ele>
        <time>2021-03-20T15:46:30Z</time>
      </trkpt>
      <trkpt lat="49.28208" lon="3.1137">
        <ele>190.68</ele>
        <time>2021-03-20T15:46:37Z</time>
      </trkpt>
      <trkpt lat="49.28221" lon="3.1143">
        <ele>191.08</ele>
        <time>2021-03-20T15:46:44Z</time>
      </trkpt>
      <trkpt lat="49.28228" lon="3.11442">
        <ele>191.44</ele>
        <time>2021-03-20T15:46:51Z</time>
      </trkpt>
      <trkpt lat="49.28238" lon="3.11452">
        <ele>191.16</ele>
        <time>2021-03-20T15:46:58Z</time>
      </trkpt>
      <trkpt lat="49.28254" lon="3.11457">
        <ele>190.47</ele>
        <time>2021-03-20T15:47:05Z</time>
      </trkpt>
      <trkpt lat="49.28266" lon="3.11453">
        <ele>190.32</ele>
        <time>2021-03-20T15:47:12Z</time>
      </trkpt>
      <trkpt lat="49.28274" lon="3.11447">
        <ele>190.09</ele>
        <time>2021-03-20T15:47:19Z</time>
      </trkpt>
      <trkpt lat="49.28297" lon="3.11404">
        <ele>192.25</ele>
        <time>2021-03-20T15:47:26Z</time>
      </trkpt>
      <trkpt lat="49.28376" lon="3.11224">
        <ele>188.87</ele>
        <time>2021-03-20T15:47:33Z</time>
      </trkpt>
      <trkpt lat="49.28422" lon="3.11149">
        <ele>186.31</ele>
        <time>2021-03-20T15:47:40Z</time>
      </trkpt>
      <trkpt lat="49.28531" lon="3.11052">
        <ele>174.01</ele>
        <time>2021-03-20T15:47:47Z</time>
      </trkpt>
      <trkpt lat="49.28657" lon="3.10837">
        <ele>168.51</ele>
        <time>2021-03-20T15:47:54Z</time>
      </trkpt>
      <trkpt lat="49.287" lon="3.10788">
        <ele>166.87</ele>
        <time>2021-03-20T15:48:01Z</time>
      </trkpt>
      <trkpt lat="49.28755" lon="3.10743">
        <ele>164.65</ele>
        <time>2021-03-20T15:48:08Z</time>
      </trkpt>
      <trkpt lat="49.28981" lon="3.1063">
        <ele>165.53</ele>
        <time>2021-03-20T15:48:15Z</time>
      </trkpt>
      <trkpt lat="49.29204" lon="3.10591">
        <ele>166.36</ele>
        <time>2021-03-20T15:48:22Z</time>
      </trkpt>
      <trkpt lat="49.29418" lon="3.10573">
        <ele>149.58</ele>
        <time>2021-03-20T15:48:28Z</time>
      </trkpt>
      <trkpt lat="49.29479" lon="3.10573">
        <ele>143.74</ele>
        <time>2021-03-20T15:48:35Z</time>
      </trkpt>
      <trkpt lat="49.29533" lon="3.10582">
        <ele>142.79</ele>
        <time>2021-03-20T15:48:42Z</time>
      </trkpt>
      <trkpt lat="49.29611" lon="3.10625">
        <ele>141.51</ele>
        <time>2021-03-20T15:48:49Z</time>
      </trkpt>
      <trkpt lat="49.29668" lon="3.1067">
        <ele>140.13</ele>
        <time>2021-03-20T15:48:56Z</time>
      </trkpt>
      <trkpt lat="49.29755" lon="3.10764">
        <ele>138.83</ele>
        <time>2021-03-20T15:49:03Z</time>
      </trkpt>
      <trkpt lat="49.29845" lon="3.10854">
        <ele>136.86</ele>
        <time>2021-03-20T15:49:10Z</time>
      </trkpt>
      <trkpt lat="49.29914" lon="3.10907">
        <ele>135.65</ele>
        <time>2021-03-20T15:49:17Z</time>
      </trkpt>
      <trkpt lat="49.29966" lon="3.10936">
        <ele>135.15</ele>
        <time>2021-03-20T15:49:24Z</time>
      </trkpt>
      <trkpt lat="49.30013" lon="3.10954">
        <ele>135</ele>
        <time>2021-03-20T15:49:31Z</time>
      </trkpt>
      <trkpt lat="49.30062" lon="3.10965">
        <ele>134.77</ele>
        <time>2021-03-20T15:49:38Z</time>
      </trkpt>
      <trkpt lat="49.30114" lon="3.10969">
        <ele>133.08</ele>
        <time>2021-03-20T15:49:45Z</time>
      </trkpt>
      <trkpt lat="49.30153" lon="3.10965">
        <ele>134.64</ele>
        <time>2021-03-20T15:49:52Z</time>
      </trkpt>
      <trkpt lat="49.30194" lon="3.10958">
        <ele>136.45</ele>
        <time>2021-03-20T15:49:59Z</time>
      </trkpt>
      <trkpt lat="49.30229" lon="3.10947">
        <ele>137.1</ele>
        <time>2021-03-20T15:50:06Z</time>
      </trkpt>
      <trkpt lat="49.30267" lon="3.1093">
        <ele>137</ele>
        <time>2021-03-20T15:50:13Z</time>
      </trkpt>
      <trkpt lat="49.30318" lon="3.109">
        <ele>137.61</ele>
        <time>2021-03-20T15:50:20Z</time>
      </trkpt>
      <trkpt lat="49.30354" lon="3.1087">
        <ele>138.24</ele>
        <time>2021-03-20T15:50:27Z</time>
      </trkpt>
      <trkpt lat="49.3039" lon="3.10835">
        <ele>139.97</ele>
        <time>2021-03-20T15:50:34Z</time>
      </trkpt>
      <trkpt lat="49.30417" lon="3.10805">
        <ele>141.02</ele>
        <time>2021-03-20T15:50:41Z</time>
      </trkpt>
      <trkpt lat="49.30461" lon="3.10744">
        <ele>141.69</ele>
        <time>2021-03-20T15:50:48Z</time>
      </trkpt>
      <trkpt lat="49.30492" lon="3.10693">
        <ele>142.69</ele>
        <time>2021-03-20T15:50:55Z</time>
      </trkpt>
      <trkpt lat="49.30607" lon="3.10477">
        <ele>143.74</ele>
        <time>2021-03-20T15:51:02Z</time>
      </trkpt>
      <trkpt lat="49.30651" lon="3.10418">
        <ele>143</ele>
        <time>2021-03-20T15:51:09Z</time>
      </trkpt>
      <trkpt lat="49.30699" lon="3.1037">
        <ele>141.84</ele>
        <time>2021-03-20T15:51:16Z</time>
      </trkpt>
      <trkpt lat="49.30743" lon="3.10338">
        <ele>140.26</ele>
        <time>2021-03-20T15:51:23Z</time>
      </trkpt>
      <trkpt lat="49.30785" lon="3.10316">
        <ele>138.73</ele>
        <time>2021-03-20T15:51:30Z</time>
      </trkpt>
      <trkpt lat="49.30838" lon="3.10299">
        <ele>136.96</ele>
        <time>2021-03-20T15:51:37Z</time>
      </trkpt>
      <trkpt lat="49.30889" lon="3.10293">
        <ele>136.54</ele>
        <time>2021-03-20T15:51:44Z</time>
      </trkpt>
      <trkpt lat="49.3092" lon="3.10294">
        <ele>136.81</ele>
        <time>2021-03-20T15:51:51Z</time>
      </trkpt>
      <trkpt lat="49.31098" lon="3.1032">
        <ele>138</ele>
        <time>2021-03-20T15:51:58Z</time>
      </trkpt>
      <trkpt lat="49.31138" lon="3.10323">
        <ele>138</ele>
        <time>2021-03-20T15:52:05Z</time>
      </trkpt>
      <trkpt lat="49.31194" lon="3.10322">
        <ele>139.58</ele>
        <time>2021-03-20T15:52:12Z</time>
      </trkpt>
      <trkpt lat="49.31279" lon="3.10314">
        <ele>139.32</ele>
        <time>2021-03-20T15:52:19Z</time>
      </trkpt>
      <trkpt lat="49.31339" lon="3.10314">
        <ele>140.32</ele>
        <time>2021-03-20T15:52:26Z</time>
      </trkpt>
      <trkpt lat="49.31819" lon="3.1033">
        <ele>142.58</ele>
        <time>2021-03-20T15:52:33Z</time>
      </trkpt>
      <trkpt lat="49.3187" lon="3.10326">
        <ele>142.68</ele>
        <time>2021-03-20T15:52:40Z</time>
      </trkpt>
      <trkpt lat="49.32824" lon="3.1015">
        <ele>144.66</ele>
        <time>2021-03-20T15:52:47Z</time>
      </trkpt>
      <trkpt lat="49.32877" lon="3.10133">
        <ele>145</ele>
        <time>2021-03-20T15:52:54Z</time>
      </trkpt>
      <trkpt lat="49.33387" lon="3.09943">
        <ele>146.94</ele>
        <time>2021-03-20T15:53:01Z</time>
      </trkpt>
      <trkpt lat="49.33411" lon="3.09936">
        <ele>147.8</ele>
        <time>2021-03-20T15:53:08Z</time>
      </trkpt>
      <trkpt lat="49.33435" lon="3.09933">
        <ele>148</ele>
        <time>2021-03-20T15:53:15Z</time>
      </trkpt>
      <trkpt lat="49.33507" lon="3.09937">
        <ele>149</ele>
        <time>2021-03-20T15:53:22Z</time>
      </trkpt>
      <trkpt lat="49.33596" lon="3.09946">
        <ele>148.58</ele>
        <time>2021-03-20T15:53:29Z</time>
      </trkpt>
      <trkpt lat="49.33836" lon="3.09987">
        <ele>147</ele>
        <time>2021-03-20T15:53:36Z</time>
      </trkpt>
      <trkpt lat="49.33913" lon="3.0999">
        <ele>148.58</ele>
        <time>2021-03-20T15:53:43Z</time>
      </trkpt>
      <trkpt lat="49.34023" lon="3.09975">
        <ele>148.09</ele>
        <time>2021-03-20T15:53:50Z</time>
      </trkpt>
      <trkpt lat="49.34256" lon="3.09936">
        <ele>149.52</ele>
        <time>2021-03-20T15:53:57Z</time>
      </trkpt>
      <trkpt lat="49.34538" lon="3.09857">
        <ele>151.37</ele>
        <time>2021-03-20T15:54:03Z</time>
      </trkpt>
      <trkpt lat="49.34562" lon="3.09856">
        <ele>152.5</ele>
        <time>2021-03-20T15:54:10Z</time>
      </trkpt>
      <trkpt lat="49.34581" lon="3.09857">
        <ele>153.94</ele>
        <time>2021-03-20T15:54:17Z</time>
      </trkpt>
      <trkpt lat="49.3462" lon="3.09866">
        <ele>157.42</ele>
        <time>2021-03-20T15:54:24Z</time>
      </trkpt>
      <trkpt lat="49.34739" lon="3.09919">
        <ele>160.91</ele>
        <time>2021-03-20T15:54:31Z</time>
      </trkpt>
      <trkpt lat="49.3476" lon="3.09931">
        <ele>160.49</ele>
        <time>2021-03-20T15:54:38Z</time>
      </trkpt>
      <trkpt lat="49.3481" lon="3.09975">
        <ele>159.82</ele>
        <time>2021-03-20T15:54:45Z</time>
      </trkpt>
      <trkpt lat="49.35268" lon="3.10479">
        <ele>147.24</ele>
        <time>2021-03-20T15:54:52Z</time>
      </trkpt>
      <trkpt lat="49.35485" lon="3.10587">
        <ele>147.07</ele>
        <time>2021-03-20T15:54:59Z</time>
      </trkpt>
      <trkpt lat="49.36333" lon="3.1111">
        <ele>147.98</ele>
        <time>2021-03-20T15:55:06Z</time>
      </trkpt>
      <trkpt lat="49.36522" lon="3.11191">
        <ele>149.32</ele>
        <time>2021-03-20T15:55:13Z</time>
      </trkpt>
      <trkpt lat="49.36756" lon="3.11283">
        <ele>143.04</ele>
        <time>2021-03-20T15:55:20Z</time>
      </trkpt>
      <trkpt lat="49.36793" lon="3.11309">
        <ele>144</ele>
        <time>2021-03-20T15:55:27Z</time>
      </trkpt>
      <trkpt lat="49.37529" lon="3.12307">
        <ele>144.97</ele>
        <time>2021-03-20T15:55:34Z</time>
      </trkpt>
      <trkpt lat="49.37941" lon="3.13084">
        <ele>147.87</ele>
        <time>2021-03-20T15:55:41Z</time>
      </trkpt>
      <trkpt lat="49.3816" lon="3.13031">
        <ele>146.97</ele>
        <time>2021-03-20T15:55:45Z</time>
      </trkpt>
      <trkpt lat="49.38217" lon="3.13015">
        <ele>148</ele>
        <time>2021-03-20T15:55:49Z</time>
      </trkpt>
      <trkpt lat="49.38247" lon="3.13004">
        <ele>148</ele>
        <time>2021-03-20T15:55:53Z</time>
      </trkpt>
      <trkpt lat="49.38274" lon="3.1299">
        <ele>147.7</ele>
        <time>2021-03-20T15:55:57Z</time>
      </trkpt>
      <trkpt lat="49.38304" lon="3.12971">
        <ele>146.04</ele>
        <time>2021-03-20T15:56:01Z</time>
      </trkpt>
      <trkpt lat="49.38339" lon="3.12942">
        <ele>144.98</ele>
        <time>2021-03-20T15:56:05Z</time>
      </trkpt>
      <trkpt lat="49.38398" lon="3.12881">
        <ele>142.67</ele>
        <time>2021-03-20T15:56:09Z</time>
      </trkpt>
      <trkpt lat="49.38457" lon="3.12817">
        <ele>139.56</ele>
        <time>2021-03-20T15:56:12Z</time>
      </trkpt>
      <trkpt lat="49.38505" lon="3.12758">
        <ele>138.05</ele>
        <time>2021-03-20T15:56:16Z</time>
      </trkpt>
      <trkpt lat="49.38587" lon="3.12643">
        <ele>135.14</ele>
        <time>2021-03-20T15:56:20Z</time>
      </trkpt>
      <trkpt lat="49.38611" lon="3.12599">
        <ele>136</ele>
        <time>2021-03-20T15:56:24Z</time>
      </trkpt>
      <trkpt lat="49.38671" lon="3.12435">
        <ele>131.38</ele>
        <time>2021-03-20T15:56:28Z</time>
      </trkpt>
      <trkpt lat="49.38688" lon="3.1237">
        <ele>129.45</ele>
        <time>2021-03-20T15:56:32Z</time>
      </trkpt>
      <trkpt lat="49.38695" lon="3.12235">
        <ele>129.36</ele>
        <time>2021-03-20T15:56:36Z</time>
      </trkpt>
      <trkpt lat="49.38719" lon="3.12119">
        <ele>119.68</ele>
        <time>2021-03-20T15:56:40Z</time>
      </trkpt>
      <trkpt lat="49.38724" lon="3.12005">
        <ele>109.81</ele>
        <time>2021-03-20T15:56:44Z</time>
      </trkpt>
      <trkpt lat="49.38718" lon="3.11953">
        <ele>110.68</ele>
        <time>2021-03-20T15:56:47Z</time>
      </trkpt>
      <trkpt lat="49.38721" lon="3.11903">
        <ele>109.83</ele>
        <time>2021-03-20T15:56:51Z</time>
      </trkpt>
      <trkpt lat="49.38736" lon="3.11862">
        <ele>107.99</ele>
        <time>2021-03-20T15:56:55Z</time>
      </trkpt>
      <trkpt lat="49.38776" lon="3.11775">
        <ele>104.74</ele>
        <time>2021-03-20T15:56:59Z</time>
      </trkpt>
      <trkpt lat="49.38799" lon="3.11714">
        <ele>99.86</ele>
        <time>2021-03-20T15:57:03Z</time>
      </trkpt>
      <trkpt lat="49.38824" lon="3.11665">
        <ele>97.38</ele>
        <time>2021-03-20T15:57:07Z</time>
      </trkpt>
      <trkpt lat="49.38871" lon="3.11601">
        <ele>94.11</ele>
        <time>2021-03-20T15:57:11Z</time>
      </trkpt>
      <trkpt lat="49.38903" lon="3.11543">
        <ele>92.4</ele>
        <time>2021-03-20T15:57:15Z</time>
      </trkpt>
      <trkpt lat="49.38933" lon="3.11514">
        <ele>86.56</ele>
        <time>2021-03-20T15:57:19Z</time>
      </trkpt>
      <trkpt lat="49.38955" lon="3.11512">
        <ele>82.42</ele>
        <time>2021-03-20T15:57:23Z</time>
      </trkpt>
      <trkpt lat="49.3904" lon="3.11546">
        <ele>74.04</ele>
        <time>2021-03-20T15:57:26Z</time>
      </trkpt>
      <trkpt lat="49.3906" lon="3.11545">
        <ele>73.57</ele>
        <time>2021-03-20T15:57:30Z</time>
      </trkpt>
      <trkpt lat="49.39083" lon="3.11535">
        <ele>72.51</ele>
        <time>2021-03-20T15:57:34Z</time>
      </trkpt>
      <trkpt lat="49.39103" lon="3.11521">
        <ele>70.95</ele>
        <time>2021-03-20T15:57:38Z</time>
      </trkpt>
      <trkpt lat="49.3912" lon="3.11494">
        <ele>70.38</ele>
        <time>2021-03-20T15:57:42Z</time>
      </trkpt>
      <trkpt lat="49.39132" lon="3.1146">
        <ele>69.84</ele>
        <time>2021-03-20T15:57:46Z</time>
      </trkpt>
      <trkpt lat="49.39149" lon="3.11381">
        <ele>58.84</ele>
        <time>2021-03-20T15:57:50Z</time>
      </trkpt>
      <trkpt lat="49.39169" lon="3.11344">
        <ele>54.01</ele>
        <time>2021-03-20T15:57:54Z</time>
      </trkpt>
      <trkpt lat="49.39194" lon="3.11318">
        <ele>48.97</ele>
        <time>2021-03-20T15:57:58Z</time>
      </trkpt>
      <trkpt lat="49.39206" lon="3.11312">
        <ele>48.35</ele>
        <time>2021-03-20T15:58:02Z</time>
      </trkpt>
      <trkpt lat="49.39219" lon="3.11309">
        <ele>48.12</ele>
        <time>2021-03-20T15:58:05Z</time>
      </trkpt>
      <trkpt lat="49.3924" lon="3.11311">
        <ele>47.69</ele>
        <time>2021-03-20T15:58:09Z</time>
      </trkpt>
      <trkpt lat="49.39266" lon="3.11326">
        <ele>47.49</ele>
        <time>2021-03-20T15:58:13Z</time>
      </trkpt>
      <trkpt lat="49.39276" lon="3.11336">
        <ele>47.52</ele>
        <time>2021-03-20T15:58:17Z</time>
      </trkpt>
      <trkpt lat="49.39308" lon="3.11384">
        <ele>46.32</ele>
        <time>2021-03-20T15:58:21Z</time>
      </trkpt>
      <trkpt lat="49.39319" lon="3.11397">
        <ele>44.47</ele>
        <time>2021-03-20T15:58:25Z</time>
      </trkpt>
      <trkpt lat="49.39339" lon="3.11412">
        <ele>42.28</ele>
        <time>2021-03-20T15:58:29Z</time>
      </trkpt>
      <trkpt lat="49.39361" lon="3.1142">
        <ele>41.15</ele>
        <time>2021-03-20T15:58:33Z</time>
      </trkpt>
      <trkpt lat="49.39378" lon="3.11424">
        <ele>41.27</ele>
        <time>2021-03-20T15:58:37Z</time>
      </trkpt>
      <trkpt lat="49.39426" lon="3.11428">
        <ele>41</ele>
        <time>2021-03-20T15:58:40Z</time>
      </trkpt>
      <trkpt lat="49.39604" lon="3.11419">
        <ele>38</ele>
        <time>2021-03-20T15:58:44Z</time>
      </trkpt>
      <trkpt lat="49.4006" lon="3.11393">
        <ele>39.14</ele>
        <time>2021-03-20T15:58:48Z</time>
      </trkpt>
      <trkpt lat="49.40145" lon="3.11386">
        <ele>37.09</ele>
        <time>2021-03-20T15:58:52Z</time>
      </trkpt>
      <trkpt lat="49.40242" lon="3.11382">
        <ele>36.99</ele>
        <time>2021-03-20T15:58:56Z</time>
      </trkpt>
      <trkpt lat="49.4025" lon="3.11383">
        <ele>37.57</ele>
        <time>2021-03-20T15:59:00Z</time>
      </trkpt>
      <trkpt lat="49.40258" lon="3.11388">
        <ele>38.99</ele>
        <time>2021-03-20T15:59:04Z</time>
      </trkpt>
      <trkpt lat="49.40273" lon="3.11392">
        <ele>41.68</ele>
        <time>2021-03-20T15:59:08Z</time>
      </trkpt>
      <trkpt lat="49.40275" lon="3.11397">
        <ele>42.61</ele>
        <time>2021-03-20T15:59:14Z</time>
      </trkpt>
      <trkpt lat="49.40281" lon="3.11402">
        <ele>43.6</ele>
        <time>2021-03-20T15:59:20Z</time>
      </trkpt>
      <trkpt lat="49.40288" lon="3.11401">
        <ele>42.76</ele>
        <time>2021-03-20T15:59:26Z</time>
      </trkpt>
      <trkpt lat="49.40293" lon="3.11395">
        <ele>41.51</ele>
        <time>2021-03-20T15:59:31Z</time>
      </trkpt>
      <trkpt lat="49.40294" lon="3.1139">
        <ele>40.89</ele>
        <time>2021-03-20T15:59:37Z</time>
      </trkpt>
      <trkpt lat="49.403" lon="3.11382">
        <ele>40.04</ele>
        <time>2021-03-20T15:59:43Z</time>
      </trkpt>
      <trkpt lat="49.40311" lon="3.11375">
        <ele>39.21</ele>
        <time>2021-03-20T15:59:49Z</time>
      </trkpt>
      <trkpt lat="49.40328" lon="3.11371">
        <ele>38.25</ele>
        <time>2021-03-20T15:59:55Z</time>
      </trkpt>
      <trkpt lat="49.4034" lon="3.11374">
        <ele>38.13</ele>
        <time>2021-03-20T16:00:01Z</time>
      </trkpt>
      <trkpt lat="49.40352" lon="3.11379">
        <ele>38.24</ele>
        <time>2021-03-20T16:00:07Z</time>
      </trkpt>
      <trkpt lat="49.40365" lon="3.11392">
        <ele>38.31</ele>
        <time>2021-03-20T16:00:13Z</time>
      </trkpt>
      <trkpt lat="49.40431" lon="3.11507">
        <ele>45.49</ele>
        <time>2021-03-20T16:00:19Z</time>
      </trkpt>
      <trkpt lat="49.4045" lon="3.11528">
        <ele>46.41</ele>
        <time>2021-03-20T16:00:25Z</time>
      </trkpt>
      <trkpt lat="49.40465" lon="3.11536">
        <ele>47.56</ele>
        <time>2021-03-20T16:00:31Z</time>
      </trkpt>
      <trkpt lat="49.405" lon="3.11539">
        <ele>49</ele>
        <time>2021-03-20T16:00:36Z</time>
      </trkpt>
      <trkpt lat="49.40533" lon="3.11538">
        <ele>50.19</ele>
        <time>2021-03-20T16:00:42Z</time>
      </trkpt>
      <trkpt lat="49.40596" lon="3.11495">
        <ele>51.92</ele>
        <time>2021-03-20T16:00:48Z</time>
      </trkpt>
      <trkpt lat="49.40601" lon="3.1149">
        <ele>51.76</ele>
        <time>2021-03-20T16:00:54Z</time>
      </trkpt>
      <trkpt lat="49.40605" lon="3.11477">
        <ele>51.34</ele>
        <time>2021-03-20T16:01:00Z</time>
      </trkpt>
      <trkpt lat="49.40606" lon="3.11373">
        <ele>48.51</ele>
        <time>2021-03-20T16:01:06Z</time>
      </trkpt>
      <trkpt lat="49.40613" lon="3.11356">
        <ele>47.69</ele>
        <time>2021-03-20T16:01:12Z</time>
      </trkpt>
      <trkpt lat="49.40624" lon="3.11348">
        <ele>46.39</ele>
        <time>2021-03-20T16:01:18Z</time>
      </trkpt>
      <trkpt lat="49.40671" lon="3.11333">
        <ele>42.97</ele>
        <time>2021-03-20T16:01:24Z</time>
      </trkpt>
      <trkpt lat="49.40678" lon="3.11328">
        <ele>42.8</ele>
        <time>2021-03-20T16:01:30Z</time>
      </trkpt>
      <trkpt lat="49.40696" lon="3.11312">
        <ele>42.15</ele>
        <time>2021-03-20T16:01:36Z</time>
      </trkpt>
      <trkpt lat="49.40703" lon="3.11301">
        <ele>41.58</ele>
        <time>2021-03-20T16:01:41Z</time>
      </trkpt>
      <trkpt lat="49.40744" lon="3.1121">
        <ele>41.22</ele>
        <time>2021-03-20T16:01:47Z</time>
      </trkpt>
      <trkpt lat="49.40747" lon="3.11184">
        <ele>41.14</ele>
        <time>2021-03-20T16:01:53Z</time>
      </trkpt>
      <trkpt lat="49.40746" lon="3.11149">
        <ele>41.3</ele>
        <time>2021-03-20T16:01:59Z</time>
      </trkpt>
      <trkpt lat="49.40747" lon="3.11132">
        <ele>41.23</ele>
        <time>2021-03-20T16:02:05Z</time>
      </trkpt>
      <trkpt lat="49.40752" lon="3.11105">
        <ele>41.17</ele>
        <time>2021-03-20T16:02:11Z</time>
      </trkpt>
      <trkpt lat="49.40759" lon="3.1108">
        <ele>41.44</ele>
        <time>2021-03-20T16:02:17Z</time>
      </trkpt>
      <trkpt lat="49.4077" lon="3.11051">
        <ele>42.29</ele>
        <time>2021-03-20T16:02:23Z</time>
      </trkpt>
      <trkpt lat="49.40787" lon="3.11019">
        <ele>44.31</ele>
        <time>2021-03-20T16:02:29Z</time>
      </trkpt>
      <trkpt lat="49.40944" lon="3.10779">
        <ele>49</ele>
        <time>2021-03-20T16:02:35Z</time>
      </trkpt>
      <trkpt lat="49.40961" lon="3.10762">
        <ele>49.57</ele>
        <time>2021-03-20T16:02:41Z</time>
      </trkpt>
      <trkpt lat="49.40976" lon="3.10754">
        <ele>49.73</ele>
        <time>2021-03-20T16:02:46Z</time>
      </trkpt>
      <trkpt lat="49.40986" lon="3.10752">
        <ele>49.46</ele>
        <time>2021-03-20T16:02:52Z</time>
      </trkpt>
      <trkpt lat="49.4152" lon="3.10689">
        <ele>56.15</ele>
        <time>2021-03-20T16:02:58Z</time>
      </trkpt>
      <trkpt lat="49.41939" lon="3.10635">
        <ele>74.04</ele>
        <time>2021-03-20T16:03:04Z</time>
      </trkpt>
      <trkpt lat="49.41963" lon="3.10634">
        <ele>76.35</ele>
        <time>2021-03-20T16:03:10Z</time>
      </trkpt>
      <trkpt lat="49.41983" lon="3.10642">
        <ele>78.91</ele>
        <time>2021-03-20T16:03:16Z</time>
      </trkpt>
      <trkpt lat="49.42" lon="3.10656">
        <ele>80.43</ele>
        <time>2021-03-20T16:03:22Z</time>
      </trkpt>
      <trkpt lat="49.4201" lon="3.10668">
        <ele>80.54</ele>
        <time>2021-03-20T16:03:28Z</time>
      </trkpt>
      <trkpt lat="49.42027" lon="3.10695">
        <ele>79.78</ele>
        <time>2021-03-20T16:03:34Z</time>
      </trkpt>
      <trkpt lat="49.42064" lon="3.10767">
        <ele>82.72</ele>
        <time>2021-03-20T16:03:40Z</time>
      </trkpt>
      <trkpt lat="49.42075" lon="3.10784">
        <ele>83.5</ele>
        <time>2021-03-20T16:03:46Z</time>
      </trkpt>
      <trkpt lat="49.42092" lon="3.10802">
        <ele>84.04</ele>
        <time>2021-03-20T16:03:52Z</time>
      </trkpt>
      <trkpt lat="49.421" lon="3.10806">
        <ele>84.2</ele>
        <time>2021-03-20T16:03:57Z</time>
      </trkpt>
      <trkpt lat="49.42109" lon="3.10806">
        <ele>84.74</ele>
        <time>2021-03-20T16:04:03Z</time>
      </trkpt>
      <trkpt lat="49.42118" lon="3.10804">
        <ele>85.05</ele>
        <time>2021-03-20T16:04:09Z</time>
      </trkpt>
      <trkpt lat="49.42156" lon="3.10782">
        <ele>89.33</ele>
        <time>2021-03-20T16:04:15Z</time>
      </trkpt>
      <trkpt lat="49.42176" lon="3.10777">
        <ele>92.47</ele>
        <time>2021-03-20T16:04:21Z</time>
      </trkpt>
      <trkpt lat="49.42198" lon="3.10779">
        <ele>95.39</ele>
        <time>2021-03-20T16:04:27Z</time>
      </trkpt>
      <trkpt lat="49.4222" lon="3.10789">
        <ele>96.49</ele>
        <time>2021-03-20T16:04:33Z</time>
      </trkpt>
      <trkpt lat="49.42242" lon="3.10811">
        <ele>96.66</ele>
        <time>2021-03-20T16:04:39Z</time>
      </trkpt>
      <trkpt lat="49.42263" lon="3.10837">
        <ele>97.61</ele>
        <time>2021-03-20T16:04:45Z</time>
      </trkpt>
      <trkpt lat="49.42274" lon="3.10847">
        <ele>98.14</ele>
        <time>2021-03-20T16:04:51Z</time>
      </trkpt>
      <trkpt lat="49.42295" lon="3.10856">
        <ele>101.61</ele>
        <time>2021-03-20T16:04:57Z</time>
      </trkpt>
      <trkpt lat="49.42326" lon="3.10864">
        <ele>106.68</ele>
        <time>2021-03-20T16:05:02Z</time>
      </trkpt>
      <trkpt lat="49.42349" lon="3.10877">
        <ele>107.28</ele>
        <time>2021-03-20T16:05:08Z</time>
      </trkpt>
      <trkpt lat="49.4236" lon="3.10887">
        <ele>107.11</ele>
        <time>2021-03-20T16:05:14Z</time>
      </trkpt>
      <trkpt lat="49.4238" lon="3.10917">
        <ele>104.84</ele>
        <time>2021-03-20T16:05:20Z</time>
      </trkpt>
      <trkpt lat="49.4239" lon="3.10941">
        <ele>103.71</ele>
        <time>2021-03-20T16:05:26Z</time>
      </trkpt>
      <trkpt lat="49.42395" lon="3.10952">
        <ele>103.56</ele>
        <time>2021-03-20T16:05:32Z</time>
      </trkpt>
      <trkpt lat="49.42403" lon="3.10961">
        <ele>103.89</ele>
        <time>2021-03-20T16:05:38Z</time>
      </trkpt>
      <trkpt lat="49.42411" lon="3.10967">
        <ele>104.55</ele>
        <time>2021-03-20T16:05:44Z</time>
      </trkpt>
      <trkpt lat="49.42444" lon="3.10982">
        <ele>109.91</ele>
        <time>2021-03-20T16:05:50Z</time>
      </trkpt>
      <trkpt lat="49.42459" lon="3.10992">
        <ele>111.14</ele>
        <time>2021-03-20T16:05:56Z</time>
      </trkpt>
      <trkpt lat="49.42465" lon="3.11">
        <ele>111.67</ele>
        <time>2021-03-20T16:06:02Z</time>
      </trkpt>
      <trkpt lat="49.42491" lon="3.11051">
        <ele>109.82</ele>
        <time>2021-03-20T16:06:07Z</time>
      </trkpt>
      <trkpt lat="49.42505" lon="3.11065">
        <ele>108.74</ele>
        <time>2021-03-20T16:06:13Z</time>
      </trkpt>
      <trkpt lat="49.42512" lon="3.11068">
        <ele>108.08</ele>
        <time>2021-03-20T16:06:19Z</time>
      </trkpt>
      <trkpt lat="49.42519" lon="3.11067">
        <ele>107.83</ele>
        <time>2021-03-20T16:06:25Z</time>
      </trkpt>
      <trkpt lat="49.42525" lon="3.11064">
        <ele>107.96</ele>
        <time>2021-03-20T16:06:31Z</time>
      </trkpt>
      <trkpt lat="49.42532" lon="3.11056">
        <ele>108.71</ele>
        <time>2021-03-20T16:06:37Z</time>
      </trkpt>
      <trkpt lat="49.42552" lon="3.11015">
        <ele>113.1</ele>
        <time>2021-03-20T16:06:43Z</time>
      </trkpt>
      <trkpt lat="49.42924" lon="3.10171">
        <ele>144</ele>
        <time>2021-03-20T16:06:49Z</time>
      </trkpt>
      <trkpt lat="49.42935" lon="3.10149">
        <ele>144.44</ele>
        <time>2021-03-20T16:06:55Z</time>
      </trkpt>
      <trkpt lat="49.42958" lon="3.10116">
        <ele>144.58</ele>
        <time>2021-03-20T16:07:01Z</time>
      </trkpt>
      <trkpt lat="49.42982" lon="3.10096">
        <ele>144.81</ele>
        <time>2021-03-20T16:07:07Z</time>
      </trkpt>
      <trkpt lat="49.43007" lon="3.10086">
        <ele>145.32</ele>
        <time>2021-03-20T16:07:12Z</time>
      </trkpt>
      <trkpt lat="49.43147" lon="3.1007">
        <ele>146.14</ele>
        <time>2021-03-20T16:07:18Z</time>
      </trkpt>
      <trkpt lat="49.44159" lon="3.10048">
        <ele>146.29</ele>
        <time>2021-03-20T16:07:24Z</time>
      </trkpt>
      <trkpt lat="49.44192" lon="3.10048">
        <ele>146.29</ele>
        <time>2021-03-20T16:07:30Z</time>
      </trkpt>
      <trkpt lat="49.44356" lon="3.10062">
        <ele>145</ele>
        <time>2021-03-20T16:07:36Z</time>
      </trkpt>
      <trkpt lat="49.44853" lon="3.10072">
        <ele>144.3</ele>
        <time>2021-03-20T16:07:42Z</time>
      </trkpt>
      <trkpt lat="49.45528" lon="3.10046">
        <ele>147</ele>
        <time>2021-03-20T16:07:48Z</time>
      </trkpt>
      <trkpt lat="49.45656" lon="3.10045">
        <ele>147.37</ele>
        <time>2021-03-20T16:07:54Z</time>
      </trkpt>
      <trkpt lat="49.45736" lon="3.10051">
        <ele>147.08</ele>
        <time>2021-03-20T16:08:00Z</time>
      </trkpt>
      <trkpt lat="49.46016" lon="3.10083">
        <ele>146.01</ele>
        <time>2021-03-20T16:08:06Z</time>
      </trkpt>
      <trkpt lat="49.46036" lon="3.10083">
        <ele>146</ele>
        <time>2021-03-20T16:08:12Z</time>
      </trkpt>
      <trkpt lat="49.46069" lon="3.10077">
        <ele>145.89</ele>
        <time>2021-03-20T16:08:18Z</time>
      </trkpt>
      <trkpt lat="49.46223" lon="3.10029">
        <ele>143.05</ele>
        <time>2021-03-20T16:08:23Z</time>
      </trkpt>
      <trkpt lat="49.46312" lon="3.09995">
        <ele>142.62</ele>
        <time>2021-03-20T16:08:29Z</time>
      </trkpt>
      <trkpt lat="49.46425" lon="3.09947">
        <ele>139.81</ele>
        <time>2021-03-20T16:08:35Z</time>
      </trkpt>
      <trkpt lat="49.46442" lon="3.09939">
        <ele>138.88</ele>
        <time>2021-03-20T16:08:41Z</time>
      </trkpt>
      <trkpt lat="49.46455" lon="3.09929">
        <ele>138.43</ele>
        <time>2021-03-20T16:08:47Z</time>
      </trkpt>
      <trkpt lat="49.46477" lon="3.09906">
        <ele>137.48</ele>
        <time>2021-03-20T16:08:53Z</time>
      </trkpt>
      <trkpt lat="49.46509" lon="3.09861">
        <ele>137.33</ele>
        <time>2021-03-20T16:08:59Z</time>
      </trkpt>
      <trkpt lat="49.46913" lon="3.09261">
        <ele>145.86</ele>
        <time>2021-03-20T16:09:05Z</time>
      </trkpt>
      <trkpt lat="49.47031" lon="3.09099">
        <ele>149.12</ele>
        <time>2021-03-20T16:09:11Z</time>
      </trkpt>
      <trkpt lat="49.47176" lon="3.08894">
        <ele>151.13</ele>
        <time>2021-03-20T16:09:17Z</time>
      </trkpt>
      <trkpt lat="49.47195" lon="3.08872">
        <ele>151</ele>
        <time>2021-03-20T16:09:23Z</time>
      </trkpt>
      <trkpt lat="49.47213" lon="3.08854">
        <ele>151.18</ele>
        <time>2021-03-20T16:09:28Z</time>
      </trkpt>
      <trkpt lat="49.47566" lon="3.08532">
        <ele>155.37</ele>
        <time>2021-03-20T16:09:34Z</time>
      </trkpt>
      <trkpt lat="49.47584" lon="3.08518">
        <ele>156</ele>
        <time>2021-03-20T16:09:40Z</time>
      </trkpt>
      <trkpt lat="49.47861" lon="3.08353">
        <ele>152.28</ele>
        <time>2021-03-20T16:09:46Z</time>
      </trkpt>
      <trkpt lat="49.47949" lon="3.08297">
        <ele>150.18</ele>
        <time>2021-03-20T16:09:52Z</time>
      </trkpt>
      <trkpt lat="49.48" lon="3.08272">
        <ele>151</ele>
        <time>2021-03-20T16:09:58Z</time>
      </trkpt>
      <trkpt lat="49.48012" lon="3.08348">
        <ele>145.97</ele>
        <time>2021-03-20T16:10:03Z</time>
      </trkpt>
      <trkpt lat="49.48019" lon="3.0843">
        <ele>146.03</ele>
        <time>2021-03-20T16:10:08Z</time>
      </trkpt>
      <trkpt lat="49.48022" lon="3.08528">
        <ele>141.14</ele>
        <time>2021-03-20T16:10:12Z</time>
      </trkpt>
      <trkpt lat="49.4802" lon="3.08583">
        <ele>138.88</ele>
        <time>2021-03-20T16:10:17Z</time>
      </trkpt>
      <trkpt lat="49.48002" lon="3.08671">
        <ele>135.28</ele>
        <time>2021-03-20T16:10:22Z</time>
      </trkpt>
      <trkpt lat="49.47998" lon="3.08708">
        <ele>134.31</ele>
        <time>2021-03-20T16:10:27Z</time>
      </trkpt>
      <trkpt lat="49.47998" lon="3.08747">
        <ele>133.75</ele>
        <time>2021-03-20T16:10:32Z</time>
      </trkpt>
      <trkpt lat="49.4801" lon="3.08865">
        <ele>130.04</ele>
        <time>2021-03-20T16:10:37Z</time>
      </trkpt>
      <trkpt lat="49.4802" lon="3.08985">
        <ele>125.89</ele>
        <time>2021-03-20T16:10:41Z</time>
      </trkpt>
      <trkpt lat="49.48031" lon="3.09032">
        <ele>121.25</ele>
        <time>2021-03-20T16:10:46Z</time>
      </trkpt>
      <trkpt lat="49.48064" lon="3.09084">
        <ele>123.46</ele>
        <time>2021-03-20T16:10:51Z</time>
      </trkpt>
      <trkpt lat="49.48166" lon="3.09216">
        <ele>117.49</ele>
        <time>2021-03-20T16:10:56Z</time>
      </trkpt>
      <trkpt lat="49.48214" lon="3.09292">
        <ele>110.02</ele>
        <time>2021-03-20T16:11:01Z</time>
      </trkpt>
      <trkpt lat="49.4827" lon="3.09414">
        <ele>103.71</ele>
        <time>2021-03-20T16:11:05Z</time>
      </trkpt>
      <trkpt lat="49.48284" lon="3.09437">
        <ele>101.76</ele>
        <time>2021-03-20T16:11:10Z</time>
      </trkpt>
      <trkpt lat="49.48352" lon="3.09549">
        <ele>101.19</ele>
        <time>2021-03-20T16:11:15Z</time>
      </trkpt>
      <trkpt lat="49.48468" lon="3.09681">
        <ele>104.89</ele>
        <time>2021-03-20T16:11:20Z</time>
      </trkpt>
      <trkpt lat="49.4849" lon="3.09733">
        <ele>103.09</ele>
        <time>2021-03-20T16:11:25Z</time>
      </trkpt>
      <trkpt lat="49.48499" lon="3.0975">
        <ele>101.93</ele>
        <time>2021-03-20T16:11:29Z</time>
      </trkpt>
      <trkpt lat="49.4857" lon="3.09812">
        <ele>97.88</ele>
        <time>2021-03-20T16:11:34Z</time>
      </trkpt>
      <trkpt lat="49.4863" lon="3.09838">
        <ele>98.17</ele>
        <time>2021-03-20T16:11:39Z</time>
      </trkpt>
      <trkpt lat="49.48638" lon="3.09846">
        <ele>98.44</ele>
        <time>2021-03-20T16:11:44Z</time>
      </trkpt>
      <trkpt lat="49.48664" lon="3.09879">
        <ele>101.76</ele>
        <time>2021-03-20T16:11:49Z</time>
      </trkpt>
      <trkpt lat="49.48679" lon="3.09886">
        <ele>104.68</ele>
        <time>2021-03-20T16:11:53Z</time>
      </trkpt>
      <trkpt lat="49.48697" lon="3.09887">
        <ele>108.01</ele>
        <time>2021-03-20T16:11:58Z</time>
      </trkpt>
      <trkpt lat="49.48714" lon="3.09879">
        <ele>109.61</ele>
        <time>2021-03-20T16:12:03Z</time>
      </trkpt>
      <trkpt lat="49.48729" lon="3.09868">
        <ele>110.54</ele>
        <time>2021-03-20T16:12:08Z</time>
      </trkpt>
      <trkpt lat="49.48817" lon="3.09757">
        <ele>110.28</ele>
        <time>2021-03-20T16:12:13Z</time>
      </trkpt>
      <trkpt lat="49.48895" lon="3.09615">
        <ele>115.67</ele>
        <time>2021-03-20T16:12:17Z</time>
      </trkpt>
      <trkpt lat="49.48964" lon="3.09545">
        <ele>123.84</ele>
        <time>2021-03-20T16:12:22Z</time>
      </trkpt>
      <trkpt lat="49.49015" lon="3.09485">
        <ele>122.89</ele>
        <time>2021-03-20T16:12:27Z</time>
      </trkpt>
      <trkpt lat="49.49028" lon="3.09489">
        <ele>123.86</ele>
        <time>2021-03-20T16:12:32Z</time>
      </trkpt>
      <trkpt lat="49.49033" lon="3.0951">
        <ele>126.31</ele>
        <time>2021-03-20T16:12:37Z</time>
      </trkpt>
      <trkpt lat="49.49029" lon="3.09525">
        <ele>127.76</ele>
        <time>2021-03-20T16:12:41Z</time>
      </trkpt>
      <trkpt lat="49.4901" lon="3.09544">
        <ele>129.16</ele>
        <time>2021-03-20T16:12:46Z</time>
      </trkpt>
      <trkpt lat="49.48995" lon="3.09575">
        <ele>129.93</ele>
        <time>2021-03-20T16:12:51Z</time>
      </trkpt>
      <trkpt lat="49.48992" lon="3.0962">
        <ele>130.71</ele>
        <time>2021-03-20T16:12:56Z</time>
      </trkpt>
      <trkpt lat="49.48996" lon="3.09665">
        <ele>131.86</ele>
        <time>2021-03-20T16:13:01Z</time>
      </trkpt>
      <trkpt lat="49.49004" lon="3.09692">
        <ele>132.14</ele>
        <time>2021-03-20T16:13:05Z</time>
      </trkpt>
      <trkpt lat="49.49028" lon="3.09718">
        <ele>133.01</ele>
        <time>2021-03-20T16:13:10Z</time>
      </trkpt>
      <trkpt lat="49.49063" lon="3.09735">
        <ele>134.6</ele>
        <time>2021-03-20T16:13:15Z</time>
      </trkpt>
      <trkpt lat="49.49131" lon="3.09795">
        <ele>138.48</ele>
        <time>2021-03-20T16:13:20Z</time>
      </trkpt>
      <trkpt lat="49.49208" lon="3.09879">
        <ele>139.51</ele>
        <time>2021-03-20T16:13:25Z</time>
      </trkpt>
      <trkpt lat="49.49236" lon="3.09925">
        <ele>136.44</ele>
        <time>2021-03-20T16:13:29Z</time>
      </trkpt>
      <trkpt lat="49.49251" lon="3.09974">
        <ele>132.87</ele>
        <time>2021-03-20T16:13:34Z</time>
      </trkpt>
      <trkpt lat="49.49268" lon="3.10177">
        <ele>128.66</ele>
        <time>2021-03-20T16:13:39Z</time>
      </trkpt>
      <trkpt lat="49.49269" lon="3.10238">
        <ele>128.69</ele>
        <time>2021-03-20T16:13:44Z</time>
      </trkpt>
      <trkpt lat="49.49252" lon="3.10364">
        <ele>132.07</ele>
        <time>2021-03-20T16:13:49Z</time>
      </trkpt>
      <trkpt lat="49.49246" lon="3.10459">
        <ele>133.63</ele>
        <time>2021-03-20T16:13:54Z</time>
      </trkpt>
      <trkpt lat="49.49251" lon="3.10661">
        <ele>136.85</ele>
        <time>2021-03-20T16:13:58Z</time>
      </trkpt>
      <trkpt lat="49.49238" lon="3.10726">
        <ele>137.11</ele>
        <time>2021-03-20T16:14:03Z</time>
      </trkpt>
      <trkpt lat="49.49239" lon="3.10789">
        <ele>136.8</ele>
        <time>2021-03-20T16:14:08Z</time>
      </trkpt>
      <trkpt lat="49.49251" lon="3.10849">
        <ele>138.02</ele>
        <time>2021-03-20T16:14:13Z</time>
      </trkpt>
      <trkpt lat="49.49333" lon="3.11152">
        <ele>137</ele>
        <time>2021-03-20T16:14:18Z</time>
      </trkpt>
      <trkpt lat="49.49341" lon="3.11224">
        <ele>136.15</ele>
        <time>2021-03-20T16:14:22Z</time>
      </trkpt>
      <trkpt lat="49.49349" lon="3.11737">
        <ele>139</ele>
        <time>2021-03-20T16:14:27Z</time>
      </trkpt>
      <trkpt lat="49.49381" lon="3.12189">
        <ele>143.28</ele>
        <time>2021-03-20T16:14:32Z</time>
      </trkpt>
      <trkpt lat="49.49379" lon="3.12264">
        <ele>141.68</ele>
        <time>2021-03-20T16:14:37Z</time>
      </trkpt>
      <trkpt lat="49.49327" lon="3.12485">
        <ele>134.99</ele>
        <time>2021-03-20T16:14:42Z</time>
      </trkpt>
      <trkpt lat="49.49322" lon="3.12519">
        <ele>134.8</ele>
        <time>2021-03-20T16:14:46Z</time>
      </trkpt>
      <trkpt lat="49.49323" lon="3.12557">
        <ele>134.14</ele>
        <time>2021-03-20T16:14:51Z</time>
      </trkpt>
      <trkpt lat="49.49334" lon="3.12606">
        <ele>132.92</ele>
        <time>2021-03-20T16:14:56Z</time>
      </trkpt>
      <trkpt lat="49.49347" lon="3.12629">
        <ele>132.96</ele>
        <time>2021-03-20T16:15:01Z</time>
      </trkpt>
      <trkpt lat="49.49361" lon="3.12644">
        <ele>132.37</ele>
        <time>2021-03-20T16:15:06Z</time>
      </trkpt>
      <trkpt lat="49.49396" lon="3.12664">
        <ele>132.31</ele>
        <time>2021-03-20T16:15:10Z</time>
      </trkpt>
      <trkpt lat="49.49478" lon="3.12699">
        <ele>128.9</ele>
        <time>2021-03-20T16:15:15Z</time>
      </trkpt>
      <trkpt lat="49.49493" lon="3.12709">
        <ele>128.36</ele>
        <time>2021-03-20T16:15:20Z</time>
      </trkpt>
      <trkpt lat="49.49513" lon="3.12731">
        <ele>128.45</ele>
        <time>2021-03-20T16:15:25Z</time>
      </trkpt>
      <trkpt lat="49.49536" lon="3.12764">
        <ele>129.75</ele>
        <time>2021-03-20T16:15:30Z</time>
      </trkpt>
      <trkpt lat="49.49854" lon="3.13398">
        <ele>130.95</ele>
        <time>2021-03-20T16:15:34Z</time>
      </trkpt>
      <trkpt lat="49.50009" lon="3.13703">
        <ele>132.62</ele>
        <time>2021-03-20T16:15:39Z</time>
      </trkpt>
      <trkpt lat="49.50404" lon="3.14372">
        <ele>128.75</ele>
        <time>2021-03-20T16:15:44Z</time>
      </trkpt>
      <trkpt lat="49.50427" lon="3.14396">
        <ele>127.85</ele>
        <time>2021-03-20T16:15:49Z</time>
      </trkpt>
      <trkpt lat="49.50775" lon="3.14683">
        <ele>124.49</ele>
        <time>2021-03-20T16:15:54Z</time>
      </trkpt>
      <trkpt lat="49.51209" lon="3.14883">
        <ele>85.07</ele>
        <time>2021-03-20T16:15:58Z</time>
      </trkpt>
      <trkpt lat="49.51443" lon="3.15068">
        <ele>75.08</ele>
        <time>2021-03-20T16:16:03Z</time>
      </trkpt>
      <trkpt lat="49.51451" lon="3.15064">
        <ele>74.58</ele>
        <time>2021-03-20T16:16:08Z</time>
      </trkpt>
      <trkpt lat="49.51478" lon="3.15016">
        <ele>72.97</ele>
        <time>2021-03-20T16:16:13Z</time>
      </trkpt>
      <trkpt lat="49.51489" lon="3.15004">
        <ele>72.63</ele>
        <time>2021-03-20T16:16:18Z</time>
      </trkpt>
      <trkpt lat="49.51496" lon="3.14997">
        <ele>72.25</ele>
        <time>2021-03-20T16:16:22Z</time>
      </trkpt>
      <trkpt lat="49.51511" lon="3.14996">
        <ele>71.21</ele>
        <time>2021-03-20T16:16:27Z</time>
      </trkpt>
      <trkpt lat="49.51605" lon="3.15122">
        <ele>70.24</ele>
        <time>2021-03-20T16:16:32Z</time>
      </trkpt>
      <trkpt lat="49.51619" lon="3.15147">
        <ele>69.49</ele>
        <time>2021-03-20T16:16:37Z</time>
      </trkpt>
      <trkpt lat="49.51637" lon="3.1512">
        <ele>68.15</ele>
        <time>2021-03-20T16:16:40Z</time>
      </trkpt>
      <trkpt lat="49.5166" lon="3.15063">
        <ele>68</ele>
        <time>2021-03-20T16:16:42Z</time>
      </trkpt>
      <trkpt lat="49.5168" lon="3.15033">
        <ele>68.81</ele>
        <time>2021-03-20T16:16:45Z</time>
      </trkpt>
      <trkpt lat="49.51692" lon="3.15025">
        <ele>69</ele>
        <time>2021-03-20T16:16:47Z</time>
      </trkpt>
      <trkpt lat="49.51737" lon="3.15009">
        <ele>68</ele>
        <time>2021-03-20T16:16:50Z</time>
      </trkpt>
      <trkpt lat="49.51745" lon="3.15009">
        <ele>68</ele>
        <time>2021-03-20T16:16:53Z</time>
      </trkpt>
      <trkpt lat="49.5177" lon="3.15021">
        <ele>67.29</ele>
        <time>2021-03-20T16:16:55Z</time>
      </trkpt>
      <trkpt lat="49.51785" lon="3.15026">
        <ele>67</ele>
        <time>2021-03-20T16:16:58Z</time>
      </trkpt>
      <trkpt lat="49.51791" lon="3.15037">
        <ele>67</ele>
        <time>2021-03-20T16:17:04Z</time>
      </trkpt>
      <trkpt lat="49.51952" lon="3.15223">
        <ele>65</ele>
        <time>2021-03-20T16:17:10Z</time>
      </trkpt>
      <trkpt lat="49.51973" lon="3.15241">
        <ele>65.02</ele>
        <time>2021-03-20T16:17:17Z</time>
      </trkpt>
      <trkpt lat="49.51983" lon="3.15246">
        <ele>65.32</ele>
        <time>2021-03-20T16:17:23Z</time>
      </trkpt>
      <trkpt lat="49.52025" lon="3.15263">
        <ele>65.06</ele>
        <time>2021-03-20T16:17:29Z</time>
      </trkpt>
      <trkpt lat="49.52093" lon="3.15277">
        <ele>62.99</ele>
        <time>2021-03-20T16:17:36Z</time>
      </trkpt>
      <trkpt lat="49.52324" lon="3.15315">
        <ele>57</ele>
        <time>2021-03-20T16:17:42Z</time>
      </trkpt>
      <trkpt lat="49.52456" lon="3.15318">
        <ele>56.46</ele>
        <time>2021-03-20T16:17:48Z</time>
      </trkpt>
      <trkpt lat="49.52574" lon="3.15316">
        <ele>58.04</ele>
        <time>2021-03-20T16:17:54Z</time>
      </trkpt>
      <trkpt lat="49.52876" lon="3.15316">
        <ele>55.83</ele>
        <time>2021-03-20T16:18:01Z</time>
      </trkpt>
      <trkpt lat="49.53001" lon="3.15322">
        <ele>54.98</ele>
        <time>2021-03-20T16:18:07Z</time>
      </trkpt>
      <trkpt lat="49.53151" lon="3.15405">
        <ele>55.19</ele>
        <time>2021-03-20T16:18:13Z</time>
      </trkpt>
      <trkpt lat="49.53189" lon="3.15428">
        <ele>55.8</ele>
        <time>2021-03-20T16:18:19Z</time>
      </trkpt>
      <trkpt lat="49.53262" lon="3.15507">
        <ele>55.66</ele>
        <time>2021-03-20T16:18:26Z</time>
      </trkpt>
      <trkpt lat="49.53567" lon="3.15955">
        <ele>58</ele>
        <time>2021-03-20T16:18:32Z</time>
      </trkpt>
      <trkpt lat="49.53588" lon="3.15981">
        <ele>57.83</ele>
        <time>2021-03-20T16:18:38Z</time>
      </trkpt>
      <trkpt lat="49.5362" lon="3.16006">
        <ele>57.07</ele>
        <time>2021-03-20T16:18:44Z</time>
      </trkpt>
      <trkpt lat="49.53647" lon="3.1602">
        <ele>57.79</ele>
        <time>2021-03-20T16:18:51Z</time>
      </trkpt>
      <trkpt lat="49.5367" lon="3.16043">
        <ele>58.59</ele>
        <time>2021-03-20T16:18:57Z</time>
      </trkpt>
      <trkpt lat="49.53755" lon="3.16147">
        <ele>61.4</ele>
        <time>2021-03-20T16:19:03Z</time>
      </trkpt>
      <trkpt lat="49.53808" lon="3.16193">
        <ele>63.08</ele>
        <time>2021-03-20T16:19:10Z</time>
      </trkpt>
      <trkpt lat="49.53926" lon="3.16318">
        <ele>67.34</ele>
        <time>2021-03-20T16:19:16Z</time>
      </trkpt>
      <trkpt lat="49.53942" lon="3.16332">
        <ele>67.9</ele>
        <time>2021-03-20T16:19:22Z</time>
      </trkpt>
      <trkpt lat="49.53957" lon="3.16339">
        <ele>68</ele>
        <time>2021-03-20T16:19:28Z</time>
      </trkpt>
      <trkpt lat="49.54023" lon="3.16352">
        <ele>68.73</ele>
        <time>2021-03-20T16:19:35Z</time>
      </trkpt>
      <trkpt lat="49.54097" lon="3.16362">
        <ele>68.98</ele>
        <time>2021-03-20T16:19:41Z</time>
      </trkpt>
      <trkpt lat="49.54331" lon="3.16478">
        <ele>65.92</ele>
        <time>2021-03-20T16:19:47Z</time>
      </trkpt>
      <trkpt lat="49.54414" lon="3.16512">
        <ele>66</ele>
        <time>2021-03-20T16:19:53Z</time>
      </trkpt>
      <trkpt lat="49.54768" lon="3.16685">
        <ele>63.03</ele>
        <time>2021-03-20T16:20:00Z</time>
      </trkpt>
      <trkpt lat="49.54959" lon="3.16748">
        <ele>58.92</ele>
        <time>2021-03-20T16:20:06Z</time>
      </trkpt>
      <trkpt lat="49.55888" lon="3.1705">
        <ele>50.23</ele>
        <time>2021-03-20T16:20:12Z</time>
      </trkpt>
      <trkpt lat="49.55912" lon="3.17051">
        <ele>50.15</ele>
        <time>2021-03-20T16:20:19Z</time>
      </trkpt>
      <trkpt lat="49.56073" lon="3.17009">
        <ele>53.26</ele>
        <time>2021-03-20T16:20:25Z</time>
      </trkpt>
      <trkpt lat="49.56084" lon="3.17004">
        <ele>52.26</ele>
        <time>2021-03-20T16:20:31Z</time>
      </trkpt>
      <trkpt lat="49.56107" lon="3.1698">
        <ele>50.31</ele>
        <time>2021-03-20T16:20:37Z</time>
      </trkpt>
      <trkpt lat="49.5612" lon="3.16954">
        <ele>48.93</ele>
        <time>2021-03-20T16:20:44Z</time>
      </trkpt>
      <trkpt lat="49.56199" lon="3.16725">
        <ele>42</ele>
        <time>2021-03-20T16:20:50Z</time>
      </trkpt>
      <trkpt lat="49.5622" lon="3.16678">
        <ele>43.04</ele>
        <time>2021-03-20T16:20:56Z</time>
      </trkpt>
      <trkpt lat="49.56236" lon="3.1666">
        <ele>42.49</ele>
        <time>2021-03-20T16:21:02Z</time>
      </trkpt>
      <trkpt lat="49.56249" lon="3.16652">
        <ele>42.04</ele>
        <time>2021-03-20T16:21:09Z</time>
      </trkpt>
      <trkpt lat="49.5627" lon="3.16652">
        <ele>42.73</ele>
        <time>2021-03-20T16:21:15Z</time>
      </trkpt>
      <trkpt lat="49.56303" lon="3.16657">
        <ele>44.24</ele>
        <time>2021-03-20T16:21:21Z</time>
      </trkpt>
      <trkpt lat="49.56553" lon="3.16756">
        <ele>46.68</ele>
        <time>2021-03-20T16:21:28Z</time>
      </trkpt>
      <trkpt lat="49.56888" lon="3.16883">
        <ele>46</ele>
        <time>2021-03-20T16:21:34Z</time>
      </trkpt>
      <trkpt lat="49.5692" lon="3.16909">
        <ele>44.18</ele>
        <time>2021-03-20T16:21:40Z</time>
      </trkpt>
      <trkpt lat="49.56956" lon="3.1692">
        <ele>43</ele>
        <time>2021-03-20T16:21:46Z</time>
      </trkpt>
      <trkpt lat="49.57" lon="3.16922">
        <ele>43</ele>
        <time>2021-03-20T16:21:53Z</time>
      </trkpt>
      <trkpt lat="49.57076" lon="3.16918">
        <ele>42.18</ele>
        <time>2021-03-20T16:21:59Z</time>
      </trkpt>
      <trkpt lat="49.57186" lon="3.16885">
        <ele>41.29</ele>
        <time>2021-03-20T16:22:05Z</time>
      </trkpt>
      <trkpt lat="49.57311" lon="3.1686">
        <ele>41.96</ele>
        <time>2021-03-20T16:22:11Z</time>
      </trkpt>
      <trkpt lat="49.574" lon="3.16869">
        <ele>41</ele>
        <time>2021-03-20T16:22:18Z</time>
      </trkpt>
      <trkpt lat="49.57415" lon="3.16872">
        <ele>41</ele>
        <time>2021-03-20T16:22:24Z</time>
      </trkpt>
      <trkpt lat="49.57422" lon="3.1688">
        <ele>41</ele>
        <time>2021-03-20T16:22:30Z</time>
      </trkpt>
      <trkpt lat="49.57428" lon="3.16874">
        <ele>41</ele>
        <time>2021-03-20T16:22:36Z</time>
      </trkpt>
      <trkpt lat="49.57437" lon="3.16872">
        <ele>41</ele>
        <time>2021-03-20T16:22:42Z</time>
      </trkpt>
      <trkpt lat="49.57519" lon="3.16876">
        <ele>41.17</ele>
        <time>2021-03-20T16:22:48Z</time>
      </trkpt>
      <trkpt lat="49.57772" lon="3.1694">
        <ele>39.88</ele>
        <time>2021-03-20T16:22:54Z</time>
      </trkpt>
      <trkpt lat="49.57816" lon="3.16945">
        <ele>39</ele>
        <time>2021-03-20T16:23:00Z</time>
      </trkpt>
      <trkpt lat="49.5783" lon="3.1695">
        <ele>39</ele>
        <time>2021-03-20T16:23:06Z</time>
      </trkpt>
      <trkpt lat="49.57856" lon="3.16937">
        <ele>39.81</ele>
        <time>2021-03-20T16:23:12Z</time>
      </trkpt>
      <trkpt lat="49.5801" lon="3.16785">
        <ele>39</ele>
        <time>2021-03-20T16:23:18Z</time>
      </trkpt>
      <trkpt lat="49.58096" lon="3.16665">
        <ele>39.44</ele>
        <time>2021-03-20T16:23:24Z</time>
      </trkpt>
      <trkpt lat="49.58204" lon="3.16562">
        <ele>40.07</ele>
        <time>2021-03-20T16:23:30Z</time>
      </trkpt>
      <trkpt lat="49.58243" lon="3.16519">
        <ele>40</ele>
        <time>2021-03-20T16:23:36Z</time>
      </trkpt>
      <trkpt lat="49.58261" lon="3.16509">
        <ele>40</ele>
        <time>2021-03-20T16:23:42Z</time>
      </trkpt>
      <trkpt lat="49.58279" lon="3.16509">
        <ele>39.97</ele>
        <time>2021-03-20T16:23:48Z</time>
      </trkpt>
      <trkpt lat="49.5831" lon="3.16525">
        <ele>39.91</ele>
        <time>2021-03-20T16:23:54Z</time>
      </trkpt>
      <trkpt lat="49.58425" lon="3.16597">
        <ele>41.03</ele>
        <time>2021-03-20T16:24:00Z</time>
      </trkpt>
      <trkpt lat="49.58565" lon="3.16666">
        <ele>40.35</ele>
        <time>2021-03-20T16:24:06Z</time>
      </trkpt>
      <trkpt lat="49.58691" lon="3.16618">
        <ele>41.91</ele>
        <time>2021-03-20T16:24:12Z</time>
      </trkpt>
      <trkpt lat="49.58704" lon="3.16618">
        <ele>41.4</ele>
        <time>2021-03-20T16:24:17Z</time>
      </trkpt>
      <trkpt lat="49.5871" lon="3.16633">
        <ele>40.67</ele>
        <time>2021-03-20T16:24:22Z</time>
      </trkpt>
      <trkpt lat="49.58739" lon="3.16805">
        <ele>40.98</ele>
        <time>2021-03-20T16:24:27Z</time>
      </trkpt>
      <trkpt lat="49.58754" lon="3.16855">
        <ele>40.19</ele>
        <time>2021-03-20T16:24:32Z</time>
      </trkpt>
      <trkpt lat="49.58974" lon="3.17245">
        <ele>41.06</ele>
        <time>2021-03-20T16:24:36Z</time>
      </trkpt>
      <trkpt lat="49.59181" lon="3.17586">
        <ele>38.42</ele>
        <time>2021-03-20T16:24:41Z</time>
      </trkpt>
      <trkpt lat="49.59209" lon="3.176">
        <ele>37.78</ele>
        <time>2021-03-20T16:24:46Z</time>
      </trkpt>
      <trkpt lat="49.59221" lon="3.17602">
        <ele>37.68</ele>
        <time>2021-03-20T16:24:50Z</time>
      </trkpt>
      <trkpt lat="49.59276" lon="3.17593">
        <ele>38.93</ele>
        <time>2021-03-20T16:24:55Z</time>
      </trkpt>
      <trkpt lat="49.59329" lon="3.17579">
        <ele>39</ele>
        <time>2021-03-20T16:25:00Z</time>
      </trkpt>
      <trkpt lat="49.5934" lon="3.17583">
        <ele>39.49</ele>
        <time>2021-03-20T16:25:05Z</time>
      </trkpt>
      <trkpt lat="49.59349" lon="3.17591">
        <ele>40</ele>
        <time>2021-03-20T16:25:09Z</time>
      </trkpt>
      <trkpt lat="49.59361" lon="3.17627">
        <ele>39.42</ele>
        <time>2021-03-20T16:25:14Z</time>
      </trkpt>
      <trkpt lat="49.59375" lon="3.17701">
        <ele>39.63</ele>
        <time>2021-03-20T16:25:19Z</time>
      </trkpt>
      <trkpt lat="49.59375" lon="3.17813">
        <ele>41</ele>
        <time>2021-03-20T16:25:23Z</time>
      </trkpt>
      <trkpt lat="49.59378" lon="3.17873">
        <ele>40.34</ele>
        <time>2021-03-20T16:25:28Z</time>
      </trkpt>
      <trkpt lat="49.59389" lon="3.17932">
        <ele>40</ele>
        <time>2021-03-20T16:25:33Z</time>
      </trkpt>
      <trkpt lat="49.59413" lon="3.18031">
        <ele>40.01</ele>
        <time>2021-03-20T16:25:37Z</time>
      </trkpt>
      <trkpt lat="49.59423" lon="3.18041">
        <ele>40.21</ele>
        <time>2021-03-20T16:25:42Z</time>
      </trkpt>
      <trkpt lat="49.59459" lon="3.18063">
        <ele>40.48</ele>
        <time>2021-03-20T16:25:47Z</time>
      </trkpt>
      <trkpt lat="49.59492" lon="3.18075">
        <ele>40</ele>
        <time>2021-03-20T16:25:52Z</time>
      </trkpt>
      <trkpt lat="49.59524" lon="3.18072">
        <ele>41.21</ele>
        <time>2021-03-20T16:25:56Z</time>
      </trkpt>
      <trkpt lat="49.59563" lon="3.18066">
        <ele>42.72</ele>
        <time>2021-03-20T16:26:01Z</time>
      </trkpt>
      <trkpt lat="49.59576" lon="3.18057">
        <ele>42.99</ele>
        <time>2021-03-20T16:26:06Z</time>
      </trkpt>
      <trkpt lat="49.59595" lon="3.18017">
        <ele>44.39</ele>
        <time>2021-03-20T16:26:10Z</time>
      </trkpt>
      <trkpt lat="49.5963" lon="3.18015">
        <ele>43.8</ele>
        <time>2021-03-20T16:26:15Z</time>
      </trkpt>
      <trkpt lat="49.59651" lon="3.18016">
        <ele>42.8</ele>
        <time>2021-03-20T16:26:20Z</time>
      </trkpt>
      <trkpt lat="49.59667" lon="3.18013">
        <ele>41.99</ele>
        <time>2021-03-20T16:26:24Z</time>
      </trkpt>
      <trkpt lat="49.59678" lon="3.17995">
        <ele>41.58</ele>
        <time>2021-03-20T16:26:29Z</time>
      </trkpt>
      <trkpt lat="49.59718" lon="3.17902">
        <ele>42</ele>
        <time>2021-03-20T16:26:33Z</time>
      </trkpt>
      <trkpt lat="49.59882" lon="3.17627">
        <ele>42.89</ele>
        <time>2021-03-20T16:26:38Z</time>
      </trkpt>
      <trkpt lat="49.59896" lon="3.17615">
        <ele>43</ele>
        <time>2021-03-20T16:26:43Z</time>
      </trkpt>
      <trkpt lat="49.59903" lon="3.17622">
        <ele>43</ele>
        <time>2021-03-20T16:26:47Z</time>
      </trkpt>
      <trkpt lat="49.59906" lon="3.17622">
        <ele>43</ele>
        <time>2021-03-20T16:26:51Z</time>
      </trkpt>
      <trkpt lat="49.59913" lon="3.17615">
        <ele>43</ele>
        <time>2021-03-20T16:26:56Z</time>
      </trkpt>
      <trkpt lat="49.59914" lon="3.17604">
        <ele>43</ele>
        <time>2021-03-20T16:27:00Z</time>
      </trkpt>
      <trkpt lat="49.5995" lon="3.17594">
        <ele>42.72</ele>
        <time>2021-03-20T16:27:05Z</time>
      </trkpt>
      <trkpt lat="49.59966" lon="3.17586">
        <ele>42.15</ele>
        <time>2021-03-20T16:27:09Z</time>
      </trkpt>
      <trkpt lat="49.60027" lon="3.17537">
        <ele>41.02</ele>
        <time>2021-03-20T16:27:13Z</time>
      </trkpt>
      <trkpt lat="49.60119" lon="3.17456">
        <ele>43.6</ele>
        <time>2021-03-20T16:27:18Z</time>
      </trkpt>
      <trkpt lat="49.6018" lon="3.17375">
        <ele>44.74</ele>
        <time>2021-03-20T16:27:22Z</time>
      </trkpt>
      <trkpt lat="49.60241" lon="3.17305">
        <ele>46.67</ele>
        <time>2021-03-20T16:27:26Z</time>
      </trkpt>
      <trkpt lat="49.60272" lon="3.17285">
        <ele>46.85</ele>
        <time>2021-03-20T16:27:31Z</time>
      </trkpt>
      <trkpt lat="49.60308" lon="3.17272">
        <ele>47.29</ele>
        <time>2021-03-20T16:27:35Z</time>
      </trkpt>
      <trkpt lat="49.60364" lon="3.17243">
        <ele>49</ele>
        <time>2021-03-20T16:27:40Z</time>
      </trkpt>
      <trkpt lat="49.60515" lon="3.17151">
        <ele>53</ele>
        <time>2021-03-20T16:27:44Z</time>
      </trkpt>
      <trkpt lat="49.6064" lon="3.17078">
        <ele>54.87</ele>
        <time>2021-03-20T16:27:48Z</time>
      </trkpt>
      <trkpt lat="49.60669" lon="3.17069">
        <ele>56.09</ele>
        <time>2021-03-20T16:27:53Z</time>
      </trkpt>
      <trkpt lat="49.6069" lon="3.17066">
        <ele>56.84</ele>
        <time>2021-03-20T16:27:57Z</time>
      </trkpt>
      <trkpt lat="49.60698" lon="3.17075">
        <ele>57</ele>
        <time>2021-03-20T16:28:02Z</time>
      </trkpt>
      <trkpt lat="49.60703" lon="3.17076">
        <ele>57</ele>
        <time>2021-03-20T16:28:06Z</time>
      </trkpt>
      <trkpt lat="49.6071" lon="3.1709">
        <ele>57</ele>
        <time>2021-03-20T16:28:11Z</time>
      </trkpt>
      <trkpt lat="49.60844" lon="3.17563">
        <ele>55.74</ele>
        <time>2021-03-20T16:28:15Z</time>
      </trkpt>
      <trkpt lat="49.60904" lon="3.17748">
        <ele>55.53</ele>
        <time>2021-03-20T16:28:20Z</time>
      </trkpt>
      <trkpt lat="49.6093" lon="3.17822">
        <ele>56.2</ele>
        <time>2021-03-20T16:28:24Z</time>
      </trkpt>
      <trkpt lat="49.60975" lon="3.17933">
        <ele>55.3</ele>
        <time>2021-03-20T16:28:29Z</time>
      </trkpt>
      <trkpt lat="49.61039" lon="3.18079">
        <ele>51.85</ele>
        <time>2021-03-20T16:28:34Z</time>
      </trkpt>
      <trkpt lat="49.61077" lon="3.18156">
        <ele>51.21</ele>
        <time>2021-03-20T16:28:38Z</time>
      </trkpt>
      <trkpt lat="49.61123" lon="3.18239">
        <ele>54.44</ele>
        <time>2021-03-20T16:28:43Z</time>
      </trkpt>
      <trkpt lat="49.61185" lon="3.18346">
        <ele>58</ele>
        <time>2021-03-20T16:28:47Z</time>
      </trkpt>
      <trkpt lat="49.61252" lon="3.18446">
        <ele>58.05</ele>
        <time>2021-03-20T16:28:52Z</time>
      </trkpt>
      <trkpt lat="49.61299" lon="3.18512">
        <ele>56.67</ele>
        <time>2021-03-20T16:28:56Z</time>
      </trkpt>
      <trkpt lat="49.61369" lon="3.18602">
        <ele>57.65</ele>
        <time>2021-03-20T16:29:01Z</time>
      </trkpt>
      <trkpt lat="49.61384" lon="3.18624">
        <ele>58.37</ele>
        <time>2021-03-20T16:29:05Z</time>
      </trkpt>
      <trkpt lat="49.61397" lon="3.18652">
        <ele>59</ele>
        <time>2021-03-20T16:29:10Z</time>
      </trkpt>
      <trkpt lat="49.61398" lon="3.18667">
        <ele>59</ele>
        <time>2021-03-20T16:29:16Z</time>
      </trkpt>
      <trkpt lat="49.61402" lon="3.18677">
        <ele>59</ele>
        <time>2021-03-20T16:29:22Z</time>
      </trkpt>
      <trkpt lat="49.61411" lon="3.18685">
        <ele>59</ele>
        <time>2021-03-20T16:29:27Z</time>
      </trkpt>
      <trkpt lat="49.61418" lon="3.18686">
        <ele>58.97</ele>
        <time>2021-03-20T16:29:33Z</time>
      </trkpt>
      <trkpt lat="49.61424" lon="3.18683">
        <ele>58.84</ele>
        <time>2021-03-20T16:29:39Z</time>
      </trkpt>
      <trkpt lat="49.6144" lon="3.18691">
        <ele>58.26</ele>
        <time>2021-03-20T16:29:45Z</time>
      </trkpt>
      <trkpt lat="49.61466" lon="3.18713">
        <ele>58</ele>
        <time>2021-03-20T16:29:51Z</time>
      </trkpt>
      <trkpt lat="49.62285" lon="3.19583">
        <ele>62.25</ele>
        <time>2021-03-20T16:29:56Z</time>
      </trkpt>
      <trkpt lat="49.62381" lon="3.19688">
        <ele>62.94</ele>
        <time>2021-03-20T16:30:02Z</time>
      </trkpt>
      <trkpt lat="49.62462" lon="3.19786">
        <ele>63.83</ele>
        <time>2021-03-20T16:30:08Z</time>
      </trkpt>
      <trkpt lat="49.62489" lon="3.19822">
        <ele>65.96</ele>
        <time>2021-03-20T16:30:14Z</time>
      </trkpt>
      <trkpt lat="49.6251" lon="3.19855">
        <ele>67</ele>
        <time>2021-03-20T16:30:20Z</time>
      </trkpt>
      <trkpt lat="49.62519" lon="3.19882">
        <ele>67</ele>
        <time>2021-03-20T16:30:26Z</time>
      </trkpt>
      <trkpt lat="49.62519" lon="3.19893">
        <ele>66.96</ele>
        <time>2021-03-20T16:30:28Z</time>
      </trkpt>
      <trkpt lat="49.62521" lon="3.199">
        <ele>66.9</ele>
        <time>2021-03-20T16:30:31Z</time>
      </trkpt>
      <trkpt lat="49.6253" lon="3.19913">
        <ele>67</ele>
        <time>2021-03-20T16:30:34Z</time>
      </trkpt>
      <trkpt lat="49.62536" lon="3.19915">
        <ele>67</ele>
        <time>2021-03-20T16:30:36Z</time>
      </trkpt>
      <trkpt lat="49.62544" lon="3.19913">
        <ele>67</ele>
        <time>2021-03-20T16:30:39Z</time>
      </trkpt>
      <trkpt lat="49.6256" lon="3.19928">
        <ele>67.17</ele>
        <time>2021-03-20T16:30:42Z</time>
      </trkpt>
      <trkpt lat="49.62587" lon="3.19961">
        <ele>68.14</ele>
        <time>2021-03-20T16:30:44Z</time>
      </trkpt>
      <trkpt lat="49.62635" lon="3.20037">
        <ele>68.13</ele>
        <time>2021-03-20T16:30:47Z</time>
      </trkpt>
      <trkpt lat="49.62701" lon="3.20153">
        <ele>65.71</ele>
        <time>2021-03-20T16:30:50Z</time>
      </trkpt>
      <trkpt lat="49.62738" lon="3.20225">
        <ele>64.94</ele>
        <time>2021-03-20T16:30:52Z</time>
      </trkpt>
      <trkpt lat="49.62796" lon="3.20348">
        <ele>63.32</ele>
        <time>2021-03-20T16:30:55Z</time>
      </trkpt>
      <trkpt lat="49.62833" lon="3.20435">
        <ele>65</ele>
        <time>2021-03-20T16:30:58Z</time>
      </trkpt>
      <trkpt lat="49.62885" lon="3.20567">
        <ele>66.25</ele>
        <time>2021-03-20T16:31:00Z</time>
      </trkpt>
      <trkpt lat="49.62917" lon="3.20664">
        <ele>67.97</ele>
        <time>2021-03-20T16:31:03Z</time>
      </trkpt>
      <trkpt lat="49.62994" lon="3.20965">
        <ele>74.59</ele>
        <time>2021-03-20T16:31:06Z</time>
      </trkpt>
      <trkpt lat="49.62996" lon="3.20988">
        <ele>74.26</ele>
        <time>2021-03-20T16:31:08Z</time>
      </trkpt>
      <trkpt lat="49.62995" lon="3.21001">
        <ele>73.81</ele>
        <time>2021-03-20T16:31:11Z</time>
      </trkpt>
      <trkpt lat="49.62991" lon="3.21013">
        <ele>73.36</ele>
        <time>2021-03-20T16:31:15Z</time>
      </trkpt>
      <trkpt lat="49.6299" lon="3.21022">
        <ele>73.13</ele>
        <time>2021-03-20T16:31:19Z</time>
      </trkpt>
      <trkpt lat="49.62992" lon="3.21036">
        <ele>73</ele>
        <time>2021-03-20T16:31:23Z</time>
      </trkpt>
      <trkpt lat="49.62996" lon="3.21047">
        <ele>73</ele>
        <time>2021-03-20T16:31:28Z</time>
      </trkpt>
      <trkpt lat="49.63" lon="3.21053">
        <ele>73.01</ele>
        <time>2021-03-20T16:31:32Z</time>
      </trkpt>
      <trkpt lat="49.63008" lon="3.21058">
        <ele>73.5</ele>
        <time>2021-03-20T16:31:36Z</time>
      </trkpt>
      <trkpt lat="49.63013" lon="3.21059">
        <ele>73.8</ele>
        <time>2021-03-20T16:31:40Z</time>
      </trkpt>
      <trkpt lat="49.63024" lon="3.21054">
        <ele>74.71</ele>
        <time>2021-03-20T16:31:44Z</time>
      </trkpt>
      <trkpt lat="49.63032" lon="3.21041">
        <ele>75.26</ele>
        <time>2021-03-20T16:31:48Z</time>
      </trkpt>
      <trkpt lat="49.63035" lon="3.21026">
        <ele>75.52</ele>
        <time>2021-03-20T16:31:52Z</time>
      </trkpt>
      <trkpt lat="49.63049" lon="3.2101">
        <ele>76.51</ele>
        <time>2021-03-20T16:31:57Z</time>
      </trkpt>
      <trkpt lat="49.6309" lon="3.20982">
        <ele>76.59</ele>
        <time>2021-03-20T16:32:01Z</time>
      </trkpt>
      <trkpt lat="49.63676" lon="3.20649">
        <ele>86.98</ele>
        <time>2021-03-20T16:32:05Z</time>
      </trkpt>
      <trkpt lat="49.63727" lon="3.20637">
        <ele>88.23</ele>
        <time>2021-03-20T16:32:09Z</time>
      </trkpt>
      <trkpt lat="49.63977" lon="3.20658">
        <ele>83.78</ele>
        <time>2021-03-20T16:32:13Z</time>
      </trkpt>
      <trkpt lat="49.6401" lon="3.20663">
        <ele>82.88</ele>
        <time>2021-03-20T16:32:17Z</time>
      </trkpt>
      <trkpt lat="49.64206" lon="3.20724">
        <ele>83.67</ele>
        <time>2021-03-20T16:32:21Z</time>
      </trkpt>
      <trkpt lat="49.64349" lon="3.20806">
        <ele>87.01</ele>
        <time>2021-03-20T16:32:25Z</time>
      </trkpt>
      <trkpt lat="49.64406" lon="3.20828">
        <ele>87.8</ele>
        <time>2021-03-20T16:32:30Z</time>
      </trkpt>
      <trkpt lat="49.64456" lon="3.20839">
        <ele>88.42</ele>
        <time>2021-03-20T16:32:34Z</time>
      </trkpt>
      <trkpt lat="49.64493" lon="3.2084">
        <ele>88.86</ele>
        <time>2021-03-20T16:32:38Z</time>
      </trkpt>
      <trkpt lat="49.64536" lon="3.20832">
        <ele>89</ele>
        <time>2021-03-20T16:32:42Z</time>
      </trkpt>
      <trkpt lat="49.64555" lon="3.20825">
        <ele>89</ele>
        <time>2021-03-20T16:32:46Z</time>
      </trkpt>
      <trkpt lat="49.64665" lon="3.20766">
        <ele>88.56</ele>
        <time>2021-03-20T16:32:50Z</time>
      </trkpt>
      <trkpt lat="49.64769" lon="3.20705">
        <ele>86</ele>
        <time>2021-03-20T16:32:54Z</time>
      </trkpt>
      <trkpt lat="49.64805" lon="3.20694">
        <ele>85.02</ele>
        <time>2021-03-20T16:32:58Z</time>
      </trkpt>
      <trkpt lat="49.64901" lon="3.20677">
        <ele>83.9</ele>
        <time>2021-03-20T16:33:03Z</time>
      </trkpt>
      <trkpt lat="49.64948" lon="3.2066">
        <ele>85.39</ele>
        <time>2021-03-20T16:33:07Z</time>
      </trkpt>
      <trkpt lat="49.64997" lon="3.20636">
        <ele>87</ele>
        <time>2021-03-20T16:33:11Z</time>
      </trkpt>
      <trkpt lat="49.65057" lon="3.20597">
        <ele>85.94</ele>
        <time>2021-03-20T16:33:15Z</time>
      </trkpt>
      <trkpt lat="49.65146" lon="3.20521">
        <ele>82.25</ele>
        <time>2021-03-20T16:33:19Z</time>
      </trkpt>
      <trkpt lat="49.65164" lon="3.20509">
        <ele>82.68</ele>
        <time>2021-03-20T16:33:23Z</time>
      </trkpt>
      <trkpt lat="49.65176" lon="3.20507">
        <ele>82.42</ele>
        <time>2021-03-20T16:33:27Z</time>
      </trkpt>
      <trkpt lat="49.65188" lon="3.20509">
        <ele>81.92</ele>
        <time>2021-03-20T16:33:32Z</time>
      </trkpt>
      <trkpt lat="49.65201" lon="3.20519">
        <ele>81.62</ele>
        <time>2021-03-20T16:33:36Z</time>
      </trkpt>
      <trkpt lat="49.65211" lon="3.20532">
        <ele>81.4</ele>
        <time>2021-03-20T16:33:40Z</time>
      </trkpt>
      <trkpt lat="49.65225" lon="3.20564">
        <ele>80.69</ele>
        <time>2021-03-20T16:33:44Z</time>
      </trkpt>
      <trkpt lat="49.65252" lon="3.20611">
        <ele>80.16</ele>
        <time>2021-03-20T16:33:48Z</time>
      </trkpt>
      <trkpt lat="49.65485" lon="3.21093">
        <ele>78.81</ele>
        <time>2021-03-20T16:33:52Z</time>
      </trkpt>
      <trkpt lat="49.65509" lon="3.21118">
        <ele>78.5</ele>
        <time>2021-03-20T16:33:56Z</time>
      </trkpt>
      <trkpt lat="49.65545" lon="3.21142">
        <ele>75.58</ele>
        <time>2021-03-20T16:34:00Z</time>
      </trkpt>
      <trkpt lat="49.65573" lon="3.21143">
        <ele>74.04</ele>
        <time>2021-03-20T16:34:05Z</time>
      </trkpt>
      <trkpt lat="49.65601" lon="3.21136">
        <ele>72.26</ele>
        <time>2021-03-20T16:34:09Z</time>
      </trkpt>
      <trkpt lat="49.65632" lon="3.21109">
        <ele>71.61</ele>
        <time>2021-03-20T16:34:13Z</time>
      </trkpt>
      <trkpt lat="49.65648" lon="3.21091">
        <ele>70.81</ele>
        <time>2021-03-20T16:34:17Z</time>
      </trkpt>
      <trkpt lat="49.65664" lon="3.21064">
        <ele>69.42</ele>
        <time>2021-03-20T16:34:21Z</time>
      </trkpt>
      <trkpt lat="49.65677" lon="3.21018">
        <ele>69.27</ele>
        <time>2021-03-20T16:34:25Z</time>
      </trkpt>
      <trkpt lat="49.65703" lon="3.20828">
        <ele>69.53</ele>
        <time>2021-03-20T16:34:29Z</time>
      </trkpt>
      <trkpt lat="49.6571" lon="3.20813">
        <ele>69.64</ele>
        <time>2021-03-20T16:34:34Z</time>
      </trkpt>
      <trkpt lat="49.65723" lon="3.20791">
        <ele>70.06</ele>
        <time>2021-03-20T16:34:38Z</time>
      </trkpt>
      <trkpt lat="49.65739" lon="3.20775">
        <ele>70.45</ele>
        <time>2021-03-20T16:34:42Z</time>
      </trkpt>
      <trkpt lat="49.65758" lon="3.20764">
        <ele>69.3</ele>
        <time>2021-03-20T16:34:46Z</time>
      </trkpt>
      <trkpt lat="49.6578" lon="3.20763">
        <ele>67.25</ele>
        <time>2021-03-20T16:34:50Z</time>
      </trkpt>
      <trkpt lat="49.65834" lon="3.20774">
        <ele>61.17</ele>
        <time>2021-03-20T16:34:54Z</time>
      </trkpt>
      <trkpt lat="49.65856" lon="3.20765">
        <ele>61.53</ele>
        <time>2021-03-20T16:34:58Z</time>
      </trkpt>
      <trkpt lat="49.65869" lon="3.20752">
        <ele>61.36</ele>
        <time>2021-03-20T16:35:02Z</time>
      </trkpt>
      <trkpt lat="49.65881" lon="3.20737">
        <ele>61.84</ele>
        <time>2021-03-20T16:35:07Z</time>
      </trkpt>
      <trkpt lat="49.65939" lon="3.20644">
        <ele>60.41</ele>
        <time>2021-03-20T16:35:11Z</time>
      </trkpt>
      <trkpt lat="49.65956" lon="3.20637">
        <ele>59.57</ele>
        <time>2021-03-20T16:35:15Z</time>
      </trkpt>
      <trkpt lat="49.65973" lon="3.20637">
        <ele>58.96</ele>
        <time>2021-03-20T16:35:19Z</time>
      </trkpt>
      <trkpt lat="49.66225" lon="3.20725">
        <ele>60.2</ele>
        <time>2021-03-20T16:35:23Z</time>
      </trkpt>
      <trkpt lat="49.66325" lon="3.20763">
        <ele>65.68</ele>
        <time>2021-03-20T16:35:27Z</time>
      </trkpt>
      <trkpt lat="49.66376" lon="3.2078">
        <ele>68.01</ele>
        <time>2021-03-20T16:35:31Z</time>
      </trkpt>
      <trkpt lat="49.66537" lon="3.20839">
        <ele>74.14</ele>
        <time>2021-03-20T16:35:35Z</time>
      </trkpt>
      <trkpt lat="49.66715" lon="3.20888">
        <ele>80.58</ele>
        <time>2021-03-20T16:35:40Z</time>
      </trkpt>
      <trkpt lat="49.66966" lon="3.20903">
        <ele>86.88</ele>
        <time>2021-03-20T16:35:44Z</time>
      </trkpt>
      <trkpt lat="49.67068" lon="3.20922">
        <ele>89.67</ele>
        <time>2021-03-20T16:35:48Z</time>
      </trkpt>
      <trkpt lat="49.67479" lon="3.21153">
        <ele>93.71</ele>
        <time>2021-03-20T16:35:52Z</time>
      </trkpt>
      <trkpt lat="49.67566" lon="3.21212">
        <ele>96.25</ele>
        <time>2021-03-20T16:35:56Z</time>
      </trkpt>
      <trkpt lat="49.6769" lon="3.21291">
        <ele>98.62</ele>
        <time>2021-03-20T16:36:00Z</time>
      </trkpt>
      <trkpt lat="49.67849" lon="3.21403">
        <ele>95.92</ele>
        <time>2021-03-20T16:36:04Z</time>
      </trkpt>
      <trkpt lat="49.67892" lon="3.21459">
        <ele>93.89</ele>
        <time>2021-03-20T16:36:09Z</time>
      </trkpt>
      <trkpt lat="49.68054" lon="3.21745">
        <ele>85.18</ele>
        <time>2021-03-20T16:36:13Z</time>
      </trkpt>
      <trkpt lat="49.68119" lon="3.21802">
        <ele>81.53</ele>
        <time>2021-03-20T16:36:17Z</time>
      </trkpt>
      <trkpt lat="49.68195" lon="3.21841">
        <ele>78.99</ele>
        <time>2021-03-20T16:36:21Z</time>
      </trkpt>
      <trkpt lat="49.68349" lon="3.21894">
        <ele>76.08</ele>
        <time>2021-03-20T16:36:25Z</time>
      </trkpt>
      <trkpt lat="49.68778" lon="3.22026">
        <ele>83</ele>
        <time>2021-03-20T16:36:29Z</time>
      </trkpt>
      <trkpt lat="49.68825" lon="3.22043">
        <ele>82.45</ele>
        <time>2021-03-20T16:36:33Z</time>
      </trkpt>
      <trkpt lat="49.6886" lon="3.22092">
        <ele>83.31</ele>
        <time>2021-03-20T16:36:37Z</time>
      </trkpt>
      <trkpt lat="49.68851" lon="3.22128">
        <ele>80.62</ele>
        <time>2021-03-20T16:36:41Z</time>
      </trkpt>
      <trkpt lat="49.68839" lon="3.2227">
        <ele>81.36</ele>
        <time>2021-03-20T16:36:45Z</time>
      </trkpt>
      <trkpt lat="49.68812" lon="3.22554">
        <ele>81.06</ele>
        <time>2021-03-20T16:36:50Z</time>
      </trkpt>
      <trkpt lat="49.688" lon="3.22598">
        <ele>81.39</ele>
        <time>2021-03-20T16:36:54Z</time>
      </trkpt>
      <trkpt lat="49.68776" lon="3.2267">
        <ele>81.66</ele>
        <time>2021-03-20T16:36:58Z</time>
      </trkpt>
      <trkpt lat="49.68763" lon="3.22739">
        <ele>75.64</ele>
        <time>2021-03-20T16:37:02Z</time>
      </trkpt>
      <trkpt lat="49.68755" lon="3.22847">
        <ele>75.58</ele>
        <time>2021-03-20T16:37:06Z</time>
      </trkpt>
      <trkpt lat="49.68745" lon="3.23">
        <ele>71.18</ele>
        <time>2021-03-20T16:37:10Z</time>
      </trkpt>
      <trkpt lat="49.68733" lon="3.23116">
        <ele>70</ele>
        <time>2021-03-20T16:37:14Z</time>
      </trkpt>
      <trkpt lat="49.68718" lon="3.23203">
        <ele>71.85</ele>
        <time>2021-03-20T16:37:18Z</time>
      </trkpt>
      <trkpt lat="49.68698" lon="3.23251">
        <ele>70.97</ele>
        <time>2021-03-20T16:37:22Z</time>
      </trkpt>
      <trkpt lat="49.68642" lon="3.23402">
        <ele>71.57</ele>
        <time>2021-03-20T16:37:26Z</time>
      </trkpt>
      <trkpt lat="49.68632" lon="3.23466">
        <ele>71.94</ele>
        <time>2021-03-20T16:37:30Z</time>
      </trkpt>
      <trkpt lat="49.68635" lon="3.23693">
        <ele>74.95</ele>
        <time>2021-03-20T16:37:34Z</time>
      </trkpt>
      <trkpt lat="49.68642" lon="3.23752">
        <ele>75.93</ele>
        <time>2021-03-20T16:37:38Z</time>
      </trkpt>
      <trkpt lat="49.68676" lon="3.23831">
        <ele>75.37</ele>
        <time>2021-03-20T16:37:42Z</time>
      </trkpt>
      <trkpt lat="49.68705" lon="3.23923">
        <ele>78.09</ele>
        <time>2021-03-20T16:37:46Z</time>
      </trkpt>
      <trkpt lat="49.68715" lon="3.23947">
        <ele>78.74</ele>
        <time>2021-03-20T16:37:50Z</time>
      </trkpt>
      <trkpt lat="49.6874" lon="3.23983">
        <ele>78.6</ele>
        <time>2021-03-20T16:37:54Z</time>
      </trkpt>
      <trkpt lat="49.68748" lon="3.23999">
        <ele>78.02</ele>
        <time>2021-03-20T16:37:58Z</time>
      </trkpt>
      <trkpt lat="49.68774" lon="3.24176">
        <ele>75.54</ele>
        <time>2021-03-20T16:38:02Z</time>
      </trkpt>
      <trkpt lat="49.68791" lon="3.24255">
        <ele>72.74</ele>
        <time>2021-03-20T16:38:06Z</time>
      </trkpt>
      <trkpt lat="49.68793" lon="3.24285">
        <ele>72.07</ele>
        <time>2021-03-20T16:38:10Z</time>
      </trkpt>
      <trkpt lat="49.6879" lon="3.24317">
        <ele>71.94</ele>
        <time>2021-03-20T16:38:14Z</time>
      </trkpt>
      <trkpt lat="49.6878" lon="3.24353">
        <ele>72.69</ele>
        <time>2021-03-20T16:38:18Z</time>
      </trkpt>
      <trkpt lat="49.68834" lon="3.24384">
        <ele>73.01</ele>
        <time>2021-03-20T16:38:22Z</time>
      </trkpt>
      <trkpt lat="49.68863" lon="3.24404">
        <ele>74.65</ele>
        <time>2021-03-20T16:38:25Z</time>
      </trkpt>
      <trkpt lat="49.68873" lon="3.24415">
        <ele>75.79</ele>
        <time>2021-03-20T16:38:29Z</time>
      </trkpt>
      <trkpt lat="49.68879" lon="3.24435">
        <ele>76.3</ele>
        <time>2021-03-20T16:38:32Z</time>
      </trkpt>
      <trkpt lat="49.689" lon="3.24539">
        <ele>75.21</ele>
        <time>2021-03-20T16:38:36Z</time>
      </trkpt>
      <trkpt lat="49.68917" lon="3.24699">
        <ele>71</ele>
        <time>2021-03-20T16:38:39Z</time>
      </trkpt>
      <trkpt lat="49.68932" lon="3.24824">
        <ele>69.64</ele>
        <time>2021-03-20T16:38:43Z</time>
      </trkpt>
      <trkpt lat="49.6893" lon="3.24907">
        <ele>67.69</ele>
        <time>2021-03-20T16:38:46Z</time>
      </trkpt>
      <trkpt lat="49.68924" lon="3.25014">
        <ele>68</ele>
        <time>2021-03-20T16:38:49Z</time>
      </trkpt>
      <trkpt lat="49.68916" lon="3.25078">
        <ele>67.97</ele>
        <time>2021-03-20T16:38:53Z</time>
      </trkpt>
      <trkpt lat="49.68898" lon="3.25135">
        <ele>66.44</ele>
        <time>2021-03-20T16:38:56Z</time>
      </trkpt>
      <trkpt lat="49.68855" lon="3.25258">
        <ele>65.37</ele>
        <time>2021-03-20T16:39:00Z</time>
      </trkpt>
      <trkpt lat="49.68844" lon="3.25312">
        <ele>65.37</ele>
        <time>2021-03-20T16:39:03Z</time>
      </trkpt>
      <trkpt lat="49.68841" lon="3.25352">
        <ele>65.09</ele>
        <time>2021-03-20T16:39:07Z</time>
      </trkpt>
      <trkpt lat="49.68847" lon="3.25544">
        <ele>62.89</ele>
        <time>2021-03-20T16:39:10Z</time>
      </trkpt>
      <trkpt lat="49.68851" lon="3.25575">
        <ele>62.2</ele>
        <time>2021-03-20T16:39:14Z</time>
      </trkpt>
      <trkpt lat="49.68861" lon="3.25606">
        <ele>62.14</ele>
        <time>2021-03-20T16:39:17Z</time>
      </trkpt>
      <trkpt lat="49.68872" lon="3.25625">
        <ele>62.96</ele>
        <time>2021-03-20T16:39:21Z</time>
      </trkpt>
      <trkpt lat="49.68926" lon="3.25667">
        <ele>67.01</ele>
        <time>2021-03-20T16:39:24Z</time>
      </trkpt>
      <trkpt lat="49.68935" lon="3.25686">
        <ele>68.01</ele>
        <time>2021-03-20T16:39:28Z</time>
      </trkpt>
      <trkpt lat="49.68947" lon="3.25787">
        <ele>67.8</ele>
        <time>2021-03-20T16:39:31Z</time>
      </trkpt>
      <trkpt lat="49.68951" lon="3.25799">
        <ele>67.53</ele>
        <time>2021-03-20T16:39:34Z</time>
      </trkpt>
      <trkpt lat="49.68968" lon="3.25821">
        <ele>67.78</ele>
        <time>2021-03-20T16:39:38Z</time>
      </trkpt>
      <trkpt lat="49.68983" lon="3.25832">
        <ele>68.39</ele>
        <time>2021-03-20T16:39:41Z</time>
      </trkpt>
      <trkpt lat="49.68998" lon="3.25849">
        <ele>68.36</ele>
        <time>2021-03-20T16:39:45Z</time>
      </trkpt>
      <trkpt lat="49.69019" lon="3.2588">
        <ele>68.93</ele>
        <time>2021-03-20T16:39:48Z</time>
      </trkpt>
      <trkpt lat="49.69045" lon="3.25871">
        <ele>70.5</ele>
        <time>2021-03-20T16:39:53Z</time>
      </trkpt>
      <trkpt lat="49.69063" lon="3.25867">
        <ele>71.06</ele>
        <time>2021-03-20T16:39:58Z</time>
      </trkpt>
      <trkpt lat="49.69081" lon="3.25866">
        <ele>71.15</ele>
        <time>2021-03-20T16:40:02Z</time>
      </trkpt>
      <trkpt lat="49.69111" lon="3.2587">
        <ele>70.35</ele>
        <time>2021-03-20T16:40:07Z</time>
      </trkpt>
      <trkpt lat="49.69143" lon="3.25885">
        <ele>69.7</ele>
        <time>2021-03-20T16:40:11Z</time>
      </trkpt>
      <trkpt lat="49.69211" lon="3.25935">
        <ele>72.14</ele>
        <time>2021-03-20T16:40:16Z</time>
      </trkpt>
      <trkpt lat="49.69272" lon="3.25998">
        <ele>75.79</ele>
        <time>2021-03-20T16:40:20Z</time>
      </trkpt>
      <trkpt lat="49.69372" lon="3.26119">
        <ele>73.56</ele>
        <time>2021-03-20T16:40:25Z</time>
      </trkpt>
      <trkpt lat="49.69435" lon="3.26213">
        <ele>77.21</ele>
        <time>2021-03-20T16:40:30Z</time>
      </trkpt>
      <trkpt lat="49.6946" lon="3.26254">
        <ele>75.94</ele>
        <time>2021-03-20T16:40:34Z</time>
      </trkpt>
      <trkpt lat="49.69485" lon="3.263">
        <ele>76.45</ele>
        <time>2021-03-20T16:40:39Z</time>
      </trkpt>
      <trkpt lat="49.6952" lon="3.26368">
        <ele>74.6</ele>
        <time>2021-03-20T16:40:43Z</time>
      </trkpt>
      <trkpt lat="49.6959" lon="3.26523">
        <ele>71.24</ele>
        <time>2021-03-20T16:40:48Z</time>
      </trkpt>
      <trkpt lat="49.69684" lon="3.26737">
        <ele>72.1</ele>
        <time>2021-03-20T16:40:53Z</time>
      </trkpt>
      <trkpt lat="49.69875" lon="3.27186">
        <ele>66.16</ele>
        <time>2021-03-20T16:40:57Z</time>
      </trkpt>
      <trkpt lat="49.69923" lon="3.27299">
        <ele>63.21</ele>
        <time>2021-03-20T16:41:02Z</time>
      </trkpt>
      <trkpt lat="49.69951" lon="3.27356">
        <ele>62.39</ele>
        <time>2021-03-20T16:41:06Z</time>
      </trkpt>
      <trkpt lat="49.69978" lon="3.27402">
        <ele>61.73</ele>
        <time>2021-03-20T16:41:11Z</time>
      </trkpt>
      <trkpt lat="49.70002" lon="3.27438">
        <ele>62</ele>
        <time>2021-03-20T16:41:16Z</time>
      </trkpt>
      <trkpt lat="49.70052" lon="3.27499">
        <ele>60.01</ele>
        <time>2021-03-20T16:41:20Z</time>
      </trkpt>
      <trkpt lat="49.70085" lon="3.27534">
        <ele>60.05</ele>
        <time>2021-03-20T16:41:25Z</time>
      </trkpt>
      <trkpt lat="49.70107" lon="3.27554">
        <ele>60.05</ele>
        <time>2021-03-20T16:41:29Z</time>
      </trkpt>
      <trkpt lat="49.70159" lon="3.27593">
        <ele>61.46</ele>
        <time>2021-03-20T16:41:34Z</time>
      </trkpt>
      <trkpt lat="49.70201" lon="3.27619">
        <ele>65.01</ele>
        <time>2021-03-20T16:41:39Z</time>
      </trkpt>
      <trkpt lat="49.70269" lon="3.2765">
        <ele>63.23</ele>
        <time>2021-03-20T16:41:43Z</time>
      </trkpt>
      <trkpt lat="49.70301" lon="3.27662">
        <ele>61.31</ele>
        <time>2021-03-20T16:41:48Z</time>
      </trkpt>
      <trkpt lat="49.70354" lon="3.27674">
        <ele>62.73</ele>
        <time>2021-03-20T16:41:52Z</time>
      </trkpt>
      <trkpt lat="49.70391" lon="3.27678">
        <ele>64.09</ele>
        <time>2021-03-20T16:41:57Z</time>
      </trkpt>
      <trkpt lat="49.70456" lon="3.27681">
        <ele>67.57</ele>
        <time>2021-03-20T16:42:02Z</time>
      </trkpt>
      <trkpt lat="49.7072" lon="3.27664">
        <ele>74.47</ele>
        <time>2021-03-20T16:42:06Z</time>
      </trkpt>
      <trkpt lat="49.70979" lon="3.27653">
        <ele>75.89</ele>
        <time>2021-03-20T16:42:11Z</time>
      </trkpt>
      <trkpt lat="49.71237" lon="3.27636">
        <ele>66.85</ele>
        <time>2021-03-20T16:42:15Z</time>
      </trkpt>
      <trkpt lat="49.71562" lon="3.27619">
        <ele>70</ele>
        <time>2021-03-20T16:42:20Z</time>
      </trkpt>
      <trkpt lat="49.71646" lon="3.27612">
        <ele>72.98</ele>
        <time>2021-03-20T16:42:24Z</time>
      </trkpt>
      <trkpt lat="49.7173" lon="3.27609">
        <ele>74.32</ele>
        <time>2021-03-20T16:42:29Z</time>
      </trkpt>
      <trkpt lat="49.71816" lon="3.27602">
        <ele>74.32</ele>
        <time>2021-03-20T16:42:34Z</time>
      </trkpt>
      <trkpt lat="49.71829" lon="3.27603">
        <ele>74.3</ele>
        <time>2021-03-20T16:42:38Z</time>
      </trkpt>
      <trkpt lat="49.7184" lon="3.27608">
        <ele>74.12</ele>
        <time>2021-03-20T16:42:43Z</time>
      </trkpt>
      <trkpt lat="49.71847" lon="3.27617">
        <ele>73.81</ele>
        <time>2021-03-20T16:42:52Z</time>
      </trkpt>
      <trkpt lat="49.71855" lon="3.2762">
        <ele>73.7</ele>
        <time>2021-03-20T16:43:01Z</time>
      </trkpt>
      <trkpt lat="49.71863" lon="3.27617">
        <ele>73.86</ele>
        <time>2021-03-20T16:43:10Z</time>
      </trkpt>
      <trkpt lat="49.71869" lon="3.27609">
        <ele>74.46</ele>
        <time>2021-03-20T16:43:19Z</time>
      </trkpt>
      <trkpt lat="49.71884" lon="3.27595">
        <ele>75.93</ele>
        <time>2021-03-20T16:43:28Z</time>
      </trkpt>
      <trkpt lat="49.71892" lon="3.27594">
        <ele>76.24</ele>
        <time>2021-03-20T16:43:37Z</time>
      </trkpt>
      <trkpt lat="49.72148" lon="3.27584">
        <ele>79</ele>
        <time>2021-03-20T16:43:46Z</time>
      </trkpt>
      <trkpt lat="49.72828" lon="3.27547">
        <ele>99.87</ele>
        <time>2021-03-20T16:43:55Z</time>
      </trkpt>
      <trkpt lat="49.73072" lon="3.27531">
        <ele>95.4</ele>
        <time>2021-03-20T16:44:04Z</time>
      </trkpt>
      <trkpt lat="49.7333" lon="3.27519">
        <ele>88.11</ele>
        <time>2021-03-20T16:44:13Z</time>
      </trkpt>
      <trkpt lat="49.73458" lon="3.27509">
        <ele>84</ele>
        <time>2021-03-20T16:44:22Z</time>
      </trkpt>
      <trkpt lat="49.7458" lon="3.27449">
        <ele>81.59</ele>
        <time>2021-03-20T16:44:31Z</time>
      </trkpt>
      <trkpt lat="49.75492" lon="3.27397">
        <ele>82.92</ele>
        <time>2021-03-20T16:44:40Z</time>
      </trkpt>
      <trkpt lat="49.7565" lon="3.27392">
        <ele>80.94</ele>
        <time>2021-03-20T16:44:49Z</time>
      </trkpt>
      <trkpt lat="49.75746" lon="3.27393">
        <ele>83.81</ele>
        <time>2021-03-20T16:44:58Z</time>
      </trkpt>
      <trkpt lat="49.7584" lon="3.27402">
        <ele>88.25</ele>
        <time>2021-03-20T16:45:08Z</time>
      </trkpt>
      <trkpt lat="49.75886" lon="3.27409">
        <ele>91.67</ele>
        <time>2021-03-20T16:45:17Z</time>
      </trkpt>
      <trkpt lat="49.75956" lon="3.27423">
        <ele>93.4</ele>
        <time>2021-03-20T16:45:26Z</time>
      </trkpt>
      <trkpt lat="49.76079" lon="3.27459">
        <ele>99.28</ele>
        <time>2021-03-20T16:45:35Z</time>
      </trkpt>
      <trkpt lat="49.76165" lon="3.27492">
        <ele>99.78</ele>
        <time>2021-03-20T16:45:44Z</time>
      </trkpt>
      <trkpt lat="49.76273" lon="3.27544">
        <ele>96.52</ele>
        <time>2021-03-20T16:45:53Z</time>
      </trkpt>
      <trkpt lat="49.76343" lon="3.27585">
        <ele>98.46</ele>
        <time>2021-03-20T16:46:02Z</time>
      </trkpt>
      <trkpt lat="49.76421" lon="3.27635">
        <ele>100</ele>
        <time>2021-03-20T16:46:11Z</time>
      </trkpt>
      <trkpt lat="49.76635" lon="3.27785">
        <ele>102</ele>
        <time>2021-03-20T16:46:20Z</time>
      </trkpt>
      <trkpt lat="49.77205" lon="3.28189">
        <ele>102.76</ele>
        <time>2021-03-20T16:46:29Z</time>
      </trkpt>
      <trkpt lat="49.77279" lon="3.2824">
        <ele>104.04</ele>
        <time>2021-03-20T16:46:38Z</time>
      </trkpt>
      <trkpt lat="49.77331" lon="3.28272">
        <ele>105</ele>
        <time>2021-03-20T16:46:47Z</time>
      </trkpt>
      <trkpt lat="49.7738" lon="3.28298">
        <ele>106.67</ele>
        <time>2021-03-20T16:46:56Z</time>
      </trkpt>
      <trkpt lat="49.77431" lon="3.28324">
        <ele>108</ele>
        <time>2021-03-20T16:47:05Z</time>
      </trkpt>
      <trkpt lat="49.77472" lon="3.28342">
        <ele>108.31</ele>
        <time>2021-03-20T16:47:14Z</time>
      </trkpt>
      <trkpt lat="49.7752" lon="3.28366">
        <ele>110.83</ele>
        <time>2021-03-20T16:47:17Z</time>
      </trkpt>
      <trkpt lat="49.77593" lon="3.28388">
        <ele>114.64</ele>
        <time>2021-03-20T16:47:20Z</time>
      </trkpt>
      <trkpt lat="49.77608" lon="3.28396">
        <ele>114.09</ele>
        <time>2021-03-20T16:47:22Z</time>
      </trkpt>
      <trkpt lat="49.77633" lon="3.28415">
        <ele>113.21</ele>
        <time>2021-03-20T16:47:25Z</time>
      </trkpt>
      <trkpt lat="49.77795" lon="3.28554">
        <ele>113.07</ele>
        <time>2021-03-20T16:47:28Z</time>
      </trkpt>
      <trkpt lat="49.77805" lon="3.28559">
        <ele>112.86</ele>
        <time>2021-03-20T16:47:30Z</time>
      </trkpt>
      <trkpt lat="49.77816" lon="3.28556">
        <ele>112.96</ele>
        <time>2021-03-20T16:47:33Z</time>
      </trkpt>
      <trkpt lat="49.77833" lon="3.28545">
        <ele>113.37</ele>
        <time>2021-03-20T16:47:36Z</time>
      </trkpt>
      <trkpt lat="49.7786" lon="3.28667">
        <ele>110</ele>
        <time>2021-03-20T16:47:40Z</time>
      </trkpt>
      <trkpt lat="49.77867" lon="3.2869">
        <ele>111.09</ele>
        <time>2021-03-20T16:47:44Z</time>
      </trkpt>
      <trkpt lat="49.77878" lon="3.28713">
        <ele>112.27</ele>
        <time>2021-03-20T16:47:48Z</time>
      </trkpt>
      <trkpt lat="49.77893" lon="3.28732">
        <ele>113</ele>
        <time>2021-03-20T16:47:52Z</time>
      </trkpt>
      <trkpt lat="49.77937" lon="3.28779">
        <ele>112.96</ele>
        <time>2021-03-20T16:47:57Z</time>
      </trkpt>
      <trkpt lat="49.77969" lon="3.28817">
        <ele>112.47</ele>
        <time>2021-03-20T16:48:01Z</time>
      </trkpt>
      <trkpt lat="49.78041" lon="3.28919">
        <ele>113.51</ele>
        <time>2021-03-20T16:48:05Z</time>
      </trkpt>
      <trkpt lat="49.78075" lon="3.28973">
        <ele>112.31</ele>
        <time>2021-03-20T16:48:09Z</time>
      </trkpt>
      <trkpt lat="49.78284" lon="3.29348">
        <ele>110.42</ele>
        <time>2021-03-20T16:48:13Z</time>
      </trkpt>
      <trkpt lat="49.78349" lon="3.29487">
        <ele>107.24</ele>
        <time>2021-03-20T16:48:18Z</time>
      </trkpt>
      <trkpt lat="49.78718" lon="3.30258">
        <ele>114</ele>
        <time>2021-03-20T16:48:22Z</time>
      </trkpt>
      <trkpt lat="49.7875" lon="3.30333">
        <ele>114</ele>
        <time>2021-03-20T16:48:26Z</time>
      </trkpt>
      <trkpt lat="49.78814" lon="3.30458">
        <ele>108.21</ele>
        <time>2021-03-20T16:48:30Z</time>
      </trkpt>
      <trkpt lat="49.78848" lon="3.30535">
        <ele>105.74</ele>
        <time>2021-03-20T16:48:34Z</time>
      </trkpt>
      <trkpt lat="49.78874" lon="3.30576">
        <ele>106.73</ele>
        <time>2021-03-20T16:48:39Z</time>
      </trkpt>
      <trkpt lat="49.78898" lon="3.30602">
        <ele>107.99</ele>
        <time>2021-03-20T16:48:43Z</time>
      </trkpt>
      <trkpt lat="49.78935" lon="3.30659">
        <ele>110.24</ele>
        <time>2021-03-20T16:48:47Z</time>
      </trkpt>
      <trkpt lat="49.78956" lon="3.3071">
        <ele>111.42</ele>
        <time>2021-03-20T16:48:51Z</time>
      </trkpt>
      <trkpt lat="49.7898" lon="3.30799">
        <ele>114.04</ele>
        <time>2021-03-20T16:48:55Z</time>
      </trkpt>
      <trkpt lat="49.78993" lon="3.30879">
        <ele>116</ele>
        <time>2021-03-20T16:49:00Z</time>
      </trkpt>
      <trkpt lat="49.78997" lon="3.30895">
        <ele>116</ele>
        <time>2021-03-20T16:49:04Z</time>
      </trkpt>
      <trkpt lat="49.79002" lon="3.30908">
        <ele>116.03</ele>
        <time>2021-03-20T16:49:08Z</time>
      </trkpt>
      <trkpt lat="49.79014" lon="3.30924">
        <ele>115.87</ele>
        <time>2021-03-20T16:49:12Z</time>
      </trkpt>
      <trkpt lat="49.79033" lon="3.30944">
        <ele>116.18</ele>
        <time>2021-03-20T16:49:16Z</time>
      </trkpt>
      <trkpt lat="49.79072" lon="3.30976">
        <ele>116.35</ele>
        <time>2021-03-20T16:49:21Z</time>
      </trkpt>
      <trkpt lat="49.7911" lon="3.31002">
        <ele>114.99</ele>
        <time>2021-03-20T16:49:25Z</time>
      </trkpt>
      <trkpt lat="49.7914" lon="3.31028">
        <ele>113.01</ele>
        <time>2021-03-20T16:49:29Z</time>
      </trkpt>
      <trkpt lat="49.79235" lon="3.31154">
        <ele>113.53</ele>
        <time>2021-03-20T16:49:33Z</time>
      </trkpt>
      <trkpt lat="49.7925" lon="3.31182">
        <ele>112.98</ele>
        <time>2021-03-20T16:49:37Z</time>
      </trkpt>
      <trkpt lat="49.79306" lon="3.31331">
        <ele>109.97</ele>
        <time>2021-03-20T16:49:42Z</time>
      </trkpt>
      <trkpt lat="49.79333" lon="3.31391">
        <ele>108</ele>
        <time>2021-03-20T16:49:46Z</time>
      </trkpt>
      <trkpt lat="49.79387" lon="3.31488">
        <ele>105.07</ele>
        <time>2021-03-20T16:49:50Z</time>
      </trkpt>
      <trkpt lat="49.7941" lon="3.31524">
        <ele>105.1</ele>
        <time>2021-03-20T16:49:54Z</time>
      </trkpt>
      <trkpt lat="49.79442" lon="3.31569">
        <ele>105</ele>
        <time>2021-03-20T16:49:58Z</time>
      </trkpt>
      <trkpt lat="49.79464" lon="3.31591">
        <ele>105</ele>
        <time>2021-03-20T16:50:03Z</time>
      </trkpt>
      <trkpt lat="49.79656" lon="3.3176">
        <ele>100.75</ele>
        <time>2021-03-20T16:50:07Z</time>
      </trkpt>
      <trkpt lat="49.79718" lon="3.3181">
        <ele>100.13</ele>
        <time>2021-03-20T16:50:11Z</time>
      </trkpt>
      <trkpt lat="49.79779" lon="3.31862">
        <ele>100.03</ele>
        <time>2021-03-20T16:50:15Z</time>
      </trkpt>
      <trkpt lat="49.79802" lon="3.31888">
        <ele>101.09</ele>
        <time>2021-03-20T16:50:19Z</time>
      </trkpt>
      <trkpt lat="49.79824" lon="3.31918">
        <ele>101.38</ele>
        <time>2021-03-20T16:50:24Z</time>
      </trkpt>
      <trkpt lat="49.79842" lon="3.31957">
        <ele>102.44</ele>
        <time>2021-03-20T16:50:28Z</time>
      </trkpt>
      <trkpt lat="49.79865" lon="3.32023">
        <ele>104.72</ele>
        <time>2021-03-20T16:50:32Z</time>
      </trkpt>
      <trkpt lat="49.79896" lon="3.32098">
        <ele>105</ele>
        <time>2021-03-20T16:50:36Z</time>
      </trkpt>
      <trkpt lat="49.79902" lon="3.32108">
        <ele>105</ele>
        <time>2021-03-20T16:50:40Z</time>
      </trkpt>
      <trkpt lat="49.80063" lon="3.32032">
        <ele>103.59</ele>
        <time>2021-03-20T16:51:00Z</time>
      </trkpt>
      <trkpt lat="49.80086" lon="3.32021">
        <ele>101.82</ele>
        <time>2021-03-20T16:51:20Z</time>
      </trkpt>
      <trkpt lat="49.80193" lon="3.31973">
        <ele>97</ele>
        <time>2021-03-20T16:51:39Z</time>
      </trkpt>
      <trkpt lat="49.80453" lon="3.31855">
        <ele>85.13</ele>
        <time>2021-03-20T16:51:59Z</time>
      </trkpt>
      <trkpt lat="49.80481" lon="3.31839">
        <ele>86.59</ele>
        <time>2021-03-20T16:52:18Z</time>
      </trkpt>
      <trkpt lat="49.81806" lon="3.3124">
        <ele>114.39</ele>
        <time>2021-03-20T16:52:38Z</time>
      </trkpt>
      <trkpt lat="49.81878" lon="3.31207">
        <ele>113.64</ele>
        <time>2021-03-20T16:52:58Z</time>
      </trkpt>
      <trkpt lat="49.81907" lon="3.31357">
        <ele>113.55</ele>
        <time>2021-03-20T16:53:03Z</time>
      </trkpt>
      <trkpt lat="49.81916" lon="3.31399">
        <ele>112.99</ele>
        <time>2021-03-20T16:53:08Z</time>
      </trkpt>
      <trkpt lat="49.81927" lon="3.31435">
        <ele>112.58</ele>
        <time>2021-03-20T16:53:14Z</time>
      </trkpt>
      <trkpt lat="49.81993" lon="3.31611">
        <ele>115.74</ele>
        <time>2021-03-20T16:53:19Z</time>
      </trkpt>
      <trkpt lat="49.82014" lon="3.31671">
        <ele>115</ele>
        <time>2021-03-20T16:53:25Z</time>
      </trkpt>
      <trkpt lat="49.82082" lon="3.31933">
        <ele>114.03</ele>
        <time>2021-03-20T16:53:30Z</time>
      </trkpt>
      <trkpt lat="49.82095" lon="3.31979">
        <ele>114.7</ele>
        <time>2021-03-20T16:53:35Z</time>
      </trkpt>
      <trkpt lat="49.82107" lon="3.32008">
        <ele>114.54</ele>
        <time>2021-03-20T16:53:41Z</time>
      </trkpt>
      <trkpt lat="49.82123" lon="3.32039">
        <ele>113.92</ele>
        <time>2021-03-20T16:53:46Z</time>
      </trkpt>
      <trkpt lat="49.82186" lon="3.32138">
        <ele>111.29</ele>
        <time>2021-03-20T16:53:51Z</time>
      </trkpt>
      <trkpt lat="49.82196" lon="3.32158">
        <ele>111.64</ele>
        <time>2021-03-20T16:53:57Z</time>
      </trkpt>
      <trkpt lat="49.82222" lon="3.3222">
        <ele>113</ele>
        <time>2021-03-20T16:54:02Z</time>
      </trkpt>
      <trkpt lat="49.8225" lon="3.32302">
        <ele>111.13</ele>
        <time>2021-03-20T16:54:08Z</time>
      </trkpt>
      <trkpt lat="49.82269" lon="3.32344">
        <ele>111</ele>
        <time>2021-03-20T16:54:13Z</time>
      </trkpt>
      <trkpt lat="49.82467" lon="3.32751">
        <ele>113.37</ele>
        <time>2021-03-20T16:54:18Z</time>
      </trkpt>
      <trkpt lat="49.82478" lon="3.32772">
        <ele>113.77</ele>
        <time>2021-03-20T16:54:24Z</time>
      </trkpt>
      <trkpt lat="49.82482" lon="3.32775">
        <ele>114.12</ele>
        <time>2021-03-20T16:54:29Z</time>
      </trkpt>
      <trkpt lat="49.82583" lon="3.32556">
        <ele>115</ele>
        <time>2021-03-20T16:54:31Z</time>
      </trkpt>
      <trkpt lat="49.82606" lon="3.32511">
        <ele>114.5</ele>
        <time>2021-03-20T16:54:34Z</time>
      </trkpt>
      <trkpt lat="49.8262" lon="3.32489">
        <ele>114.18</ele>
        <time>2021-03-20T16:54:36Z</time>
      </trkpt>
      <trkpt lat="49.82639" lon="3.32467">
        <ele>113.8</ele>
        <time>2021-03-20T16:54:38Z</time>
      </trkpt>
      <trkpt lat="49.82655" lon="3.32451">
        <ele>113.83</ele>
        <time>2021-03-20T16:54:40Z</time>
      </trkpt>
      <trkpt lat="49.8271" lon="3.32407">
        <ele>111.81</ele>
        <time>2021-03-20T16:54:43Z</time>
      </trkpt>
      <trkpt lat="49.82741" lon="3.32378">
        <ele>111.69</ele>
        <time>2021-03-20T16:54:45Z</time>
      </trkpt>
      <trkpt lat="49.82761" lon="3.32357">
        <ele>111.46</ele>
        <time>2021-03-20T16:54:47Z</time>
      </trkpt>
      <trkpt lat="49.82788" lon="3.32322">
        <ele>109.63</ele>
        <time>2021-03-20T16:54:49Z</time>
      </trkpt>
      <trkpt lat="49.82824" lon="3.32266">
        <ele>109.52</ele>
        <time>2021-03-20T16:54:52Z</time>
      </trkpt>
      <trkpt lat="49.82844" lon="3.32239">
        <ele>106.87</ele>
        <time>2021-03-20T16:54:54Z</time>
      </trkpt>
      <trkpt lat="49.82875" lon="3.32213">
        <ele>102.16</ele>
        <time>2021-03-20T16:54:56Z</time>
      </trkpt>
      <trkpt lat="49.82881" lon="3.32216">
        <ele>102.06</ele>
        <time>2021-03-20T16:55:00Z</time>
      </trkpt>
      <trkpt lat="49.82888" lon="3.32216">
        <ele>101.83</ele>
        <time>2021-03-20T16:55:03Z</time>
      </trkpt>
      <trkpt lat="49.82898" lon="3.32228">
        <ele>102.04</ele>
        <time>2021-03-20T16:55:07Z</time>
      </trkpt>
      <trkpt lat="49.82932" lon="3.32283">
        <ele>104.6</ele>
        <time>2021-03-20T16:55:10Z</time>
      </trkpt>
      <trkpt lat="49.83169" lon="3.3277">
        <ele>107.91</ele>
        <time>2021-03-20T16:55:14Z</time>
      </trkpt>
      <trkpt lat="49.83197" lon="3.32815">
        <ele>107.92</ele>
        <time>2021-03-20T16:55:17Z</time>
      </trkpt>
      <trkpt lat="49.83211" lon="3.32835">
        <ele>107.39</ele>
        <time>2021-03-20T16:55:21Z</time>
      </trkpt>
      <trkpt lat="49.83248" lon="3.32873">
        <ele>106.07</ele>
        <time>2021-03-20T16:55:24Z</time>
      </trkpt>
      <trkpt lat="49.83267" lon="3.32887">
        <ele>105.41</ele>
        <time>2021-03-20T16:55:28Z</time>
      </trkpt>
      <trkpt lat="49.83302" lon="3.32909">
        <ele>104.74</ele>
        <time>2021-03-20T16:55:32Z</time>
      </trkpt>
      <trkpt lat="49.83344" lon="3.32922">
        <ele>103.62</ele>
        <time>2021-03-20T16:55:35Z</time>
      </trkpt>
      <trkpt lat="49.83383" lon="3.32925">
        <ele>101.41</ele>
        <time>2021-03-20T16:55:39Z</time>
      </trkpt>
      <trkpt lat="49.83406" lon="3.32922">
        <ele>99.15</ele>
        <time>2021-03-20T16:55:42Z</time>
      </trkpt>
      <trkpt lat="49.83441" lon="3.32913">
        <ele>96.37</ele>
        <time>2021-03-20T16:55:46Z</time>
      </trkpt>
      <trkpt lat="49.83717" lon="3.32785">
        <ele>92.33</ele>
        <time>2021-03-20T16:55:49Z</time>
      </trkpt>
      <trkpt lat="49.83751" lon="3.32781">
        <ele>93.93</ele>
        <time>2021-03-20T16:55:53Z</time>
      </trkpt>
      <trkpt lat="49.83755" lon="3.32787">
        <ele>93.85</ele>
        <time>2021-03-20T16:55:55Z</time>
      </trkpt>
      <trkpt lat="49.83761" lon="3.32792">
        <ele>93.88</ele>
        <time>2021-03-20T16:55:56Z</time>
      </trkpt>
      <trkpt lat="49.83767" lon="3.32793">
        <ele>94.04</ele>
        <time>2021-03-20T16:55:58Z</time>
      </trkpt>
      <trkpt lat="49.83773" lon="3.32792">
        <ele>94.3</ele>
        <time>2021-03-20T16:56:00Z</time>
      </trkpt>
      <trkpt lat="49.83778" lon="3.32788">
        <ele>94.64</ele>
        <time>2021-03-20T16:56:02Z</time>
      </trkpt>
      <trkpt lat="49.83788" lon="3.3279">
        <ele>94.71</ele>
        <time>2021-03-20T16:56:03Z</time>
      </trkpt>
      <trkpt lat="49.83811" lon="3.32802">
        <ele>94.37</ele>
        <time>2021-03-20T16:56:05Z</time>
      </trkpt>
      <trkpt lat="49.84011" lon="3.32976">
        <ele>93.26</ele>
        <time>2021-03-20T16:56:07Z</time>
      </trkpt>
      <trkpt lat="49.84043" lon="3.32997">
        <ele>92.57</ele>
        <time>2021-03-20T16:56:09Z</time>
      </trkpt>
      <trkpt lat="49.84105" lon="3.33024">
        <ele>90.23</ele>
        <time>2021-03-20T16:56:10Z</time>
      </trkpt>
      <trkpt lat="49.84136" lon="3.33034">
        <ele>90.24</ele>
        <time>2021-03-20T16:56:12Z</time>
      </trkpt>
      <trkpt lat="49.84144" lon="3.33039">
        <ele>89.9</ele>
        <time>2021-03-20T16:56:14Z</time>
      </trkpt>
      <trkpt lat="49.84154" lon="3.3305">
        <ele>88.88</ele>
        <time>2021-03-20T16:56:16Z</time>
      </trkpt>
      <trkpt lat="49.84156" lon="3.33062">
        <ele>88.56</ele>
        <time>2021-03-20T16:56:18Z</time>
      </trkpt>
      <trkpt lat="49.8416" lon="3.33073">
        <ele>88</ele>
        <time>2021-03-20T16:56:20Z</time>
      </trkpt>
      <trkpt lat="49.84165" lon="3.33082">
        <ele>87.21</ele>
        <time>2021-03-20T16:56:23Z</time>
      </trkpt>
      <trkpt lat="49.84172" lon="3.33089">
        <ele>86.39</ele>
        <time>2021-03-20T16:56:25Z</time>
      </trkpt>
      <trkpt lat="49.8418" lon="3.33093">
        <ele>85.44</ele>
        <time>2021-03-20T16:56:27Z</time>
      </trkpt>
      <trkpt lat="49.84188" lon="3.33095">
        <ele>84.42</ele>
        <time>2021-03-20T16:56:30Z</time>
      </trkpt>
      <trkpt lat="49.84196" lon="3.33093">
        <ele>83.6</ele>
        <time>2021-03-20T16:56:32Z</time>
      </trkpt>
      <trkpt lat="49.84203" lon="3.33089">
        <ele>83.49</ele>
        <time>2021-03-20T16:56:34Z</time>
      </trkpt>
      <trkpt lat="49.8421" lon="3.33082">
        <ele>83.42</ele>
        <time>2021-03-20T16:56:37Z</time>
      </trkpt>
      <trkpt lat="49.84218" lon="3.33067">
        <ele>82.67</ele>
        <time>2021-03-20T16:56:39Z</time>
      </trkpt>
      <trkpt lat="49.84221" lon="3.33048">
        <ele>81.81</ele>
        <time>2021-03-20T16:56:41Z</time>
      </trkpt>
      <trkpt lat="49.84234" lon="3.33034">
        <ele>81.57</ele>
        <time>2021-03-20T16:56:44Z</time>
      </trkpt>
      <trkpt lat="49.84249" lon="3.33028">
        <ele>81.95</ele>
        <time>2021-03-20T16:56:46Z</time>
      </trkpt>
      <trkpt lat="49.84276" lon="3.33023">
        <ele>83.28</ele>
        <time>2021-03-20T16:56:49Z</time>
      </trkpt>
      <trkpt lat="49.8433" lon="3.33025">
        <ele>85.21</ele>
        <time>2021-03-20T16:56:51Z</time>
      </trkpt>
      <trkpt lat="49.84351" lon="3.33021">
        <ele>83.5</ele>
        <time>2021-03-20T16:56:53Z</time>
      </trkpt>
      <trkpt lat="49.84405" lon="3.33">
        <ele>78.83</ele>
        <time>2021-03-20T16:56:56Z</time>
      </trkpt>
      <trkpt lat="49.84572" lon="3.32919">
        <ele>75.09</ele>
        <time>2021-03-20T16:56:58Z</time>
      </trkpt>
      <trkpt lat="49.84591" lon="3.32913">
        <ele>75.24</ele>
        <time>2021-03-20T16:57:00Z</time>
      </trkpt>
      <trkpt lat="49.84619" lon="3.32913">
        <ele>75.94</ele>
        <time>2021-03-20T16:57:03Z</time>
      </trkpt>
      <trkpt lat="49.84648" lon="3.32921">
        <ele>76</ele>
        <time>2021-03-20T16:57:05Z</time>
      </trkpt>
      <trkpt lat="49.84669" lon="3.32934">
        <ele>76.03</ele>
        <time>2021-03-20T16:57:07Z</time>
      </trkpt>
      <trkpt lat="49.84727" lon="3.3299">
        <ele>76.19</ele>
        <time>2021-03-20T16:57:10Z</time>
      </trkpt>
      <trkpt lat="49.84749" lon="3.33004">
        <ele>75.03</ele>
        <time>2021-03-20T16:57:12Z</time>
      </trkpt>
      <trkpt lat="49.84763" lon="3.33008">
        <ele>74.54</ele>
        <time>2021-03-20T16:57:14Z</time>
      </trkpt>
      <trkpt lat="49.84786" lon="3.33009">
        <ele>74.1</ele>
        <time>2021-03-20T16:57:17Z</time>
      </trkpt>
      <trkpt lat="49.84806" lon="3.33005">
        <ele>74.19</ele>
        <time>2021-03-20T16:57:19Z</time>
      </trkpt>
      <trkpt lat="49.84826" lon="3.32997">
        <ele>74</ele>
        <time>2021-03-20T16:57:22Z</time>
      </trkpt>
      <trkpt lat="49.84936" lon="3.32899">
        <ele>76.9</ele>
        <time>2021-03-20T16:57:24Z</time>
      </trkpt>
      <trkpt lat="49.84986" lon="3.32861">
        <ele>80</ele>
        <time>2021-03-20T16:57:26Z</time>
      </trkpt>
      <trkpt lat="49.85027" lon="3.32842">
        <ele>80</ele>
        <time>2021-03-20T16:57:29Z</time>
      </trkpt>
      <trkpt lat="49.85061" lon="3.32829">
        <ele>80</ele>
        <time>2021-03-20T16:57:31Z</time>
      </trkpt>
      <trkpt lat="49.85106" lon="3.3282">
        <ele>80.4</ele>
        <time>2021-03-20T16:57:33Z</time>
      </trkpt>
      <trkpt lat="49.85132" lon="3.32823">
        <ele>79.91</ele>
        <time>2021-03-20T16:57:36Z</time>
      </trkpt>
      <trkpt lat="49.85154" lon="3.32828">
        <ele>79.95</ele>
        <time>2021-03-20T16:57:38Z</time>
      </trkpt>
      <trkpt lat="49.85224" lon="3.3286">
        <ele>76.83</ele>
        <time>2021-03-20T16:57:40Z</time>
      </trkpt>
      <trkpt lat="49.85248" lon="3.32872">
        <ele>75.17</ele>
        <time>2021-03-20T16:57:43Z</time>
      </trkpt>
      <trkpt lat="49.85278" lon="3.32881">
        <ele>74</ele>
        <time>2021-03-20T16:57:45Z</time>
      </trkpt>
      <trkpt lat="49.85314" lon="3.32886">
        <ele>72.92</ele>
        <time>2021-03-20T16:57:47Z</time>
      </trkpt>
      <trkpt lat="49.85364" lon="3.32887">
        <ele>74.2</ele>
        <time>2021-03-20T16:57:50Z</time>
      </trkpt>
      <trkpt lat="49.85407" lon="3.32874">
        <ele>76.99</ele>
        <time>2021-03-20T16:57:52Z</time>
      </trkpt>
      <trkpt lat="49.85455" lon="3.3285">
        <ele>80.72</ele>
        <time>2021-03-20T16:57:55Z</time>
      </trkpt>
      <trkpt lat="49.85507" lon="3.3281">
        <ele>83.61</ele>
        <time>2021-03-20T16:57:57Z</time>
      </trkpt>
      <trkpt lat="49.85547" lon="3.32769">
        <ele>86.92</ele>
        <time>2021-03-20T16:57:59Z</time>
      </trkpt>
      <trkpt lat="49.85594" lon="3.32704">
        <ele>93.29</ele>
        <time>2021-03-20T16:58:02Z</time>
      </trkpt>
      <trkpt lat="49.85643" lon="3.32645">
        <ele>98.82</ele>
        <time>2021-03-20T16:58:04Z</time>
      </trkpt>
      <trkpt lat="49.85681" lon="3.32592">
        <ele>99.35</ele>
        <time>2021-03-20T16:58:06Z</time>
      </trkpt>
      <trkpt lat="49.85705" lon="3.32568">
        <ele>99.55</ele>
        <time>2021-03-20T16:58:09Z</time>
      </trkpt>
      <trkpt lat="49.85731" lon="3.32555">
        <ele>99.68</ele>
        <time>2021-03-20T16:58:11Z</time>
      </trkpt>
      <trkpt lat="49.85738" lon="3.32557">
        <ele>99.42</ele>
        <time>2021-03-20T16:58:15Z</time>
      </trkpt>
      <trkpt lat="49.85746" lon="3.32554">
        <ele>99.2</ele>
        <time>2021-03-20T16:58:19Z</time>
      </trkpt>
      <trkpt lat="49.85752" lon="3.32549">
        <ele>99.24</ele>
        <time>2021-03-20T16:58:24Z</time>
      </trkpt>
      <trkpt lat="49.85757" lon="3.3254">
        <ele>99.42</ele>
        <time>2021-03-20T16:58:28Z</time>
      </trkpt>
      <trkpt lat="49.8576" lon="3.3253">
        <ele>99.6</ele>
        <time>2021-03-20T16:58:32Z</time>
      </trkpt>
      <trkpt lat="49.85767" lon="3.32518">
        <ele>99.24</ele>
        <time>2021-03-20T16:58:36Z</time>
      </trkpt>
      <trkpt lat="49.85785" lon="3.32499">
        <ele>98.96</ele>
        <time>2021-03-20T16:58:41Z</time>
      </trkpt>
      <trkpt lat="49.85807" lon="3.32485">
        <ele>98.46</ele>
        <time>2021-03-20T16:58:45Z</time>
      </trkpt>
      <trkpt lat="49.85838" lon="3.32476">
        <ele>98.1</ele>
        <time>2021-03-20T16:58:49Z</time>
      </trkpt>
      <trkpt lat="49.85886" lon="3.32474">
        <ele>98</ele>
        <time>2021-03-20T16:58:53Z</time>
      </trkpt>
      <trkpt lat="49.85912" lon="3.32478">
        <ele>97.17</ele>
        <time>2021-03-20T16:58:57Z</time>
      </trkpt>
      <trkpt lat="49.85967" lon="3.32497">
        <ele>96.07</ele>
        <time>2021-03-20T16:59:02Z</time>
      </trkpt>
      <trkpt lat="49.86004" lon="3.32523">
        <ele>95.11</ele>
        <time>2021-03-20T16:59:06Z</time>
      </trkpt>
      <trkpt lat="49.86026" lon="3.32542">
        <ele>95.21</ele>
        <time>2021-03-20T16:59:10Z</time>
      </trkpt>
      <trkpt lat="49.86113" lon="3.32658">
        <ele>95.55</ele>
        <time>2021-03-20T16:59:14Z</time>
      </trkpt>
      <trkpt lat="49.86132" lon="3.32682">
        <ele>95</ele>
        <time>2021-03-20T16:59:18Z</time>
      </trkpt>
      <trkpt lat="49.86159" lon="3.32709">
        <ele>94.44</ele>
        <time>2021-03-20T16:59:23Z</time>
      </trkpt>
      <trkpt lat="49.86198" lon="3.32737">
        <ele>92.31</ele>
        <time>2021-03-20T16:59:27Z</time>
      </trkpt>
      <trkpt lat="49.86232" lon="3.32755">
        <ele>91.07</ele>
        <time>2021-03-20T16:59:31Z</time>
      </trkpt>
      <trkpt lat="49.86255" lon="3.32765">
        <ele>90.34</ele>
        <time>2021-03-20T16:59:35Z</time>
      </trkpt>
      <trkpt lat="49.86306" lon="3.32771">
        <ele>89.76</ele>
        <time>2021-03-20T16:59:39Z</time>
      </trkpt>
      <trkpt lat="49.86413" lon="3.32767">
        <ele>90</ele>
        <time>2021-03-20T16:59:44Z</time>
      </trkpt>
      <trkpt lat="49.86531" lon="3.32766">
        <ele>89.13</ele>
        <time>2021-03-20T16:59:48Z</time>
      </trkpt>
      <trkpt lat="49.86591" lon="3.32767">
        <ele>90.08</ele>
        <time>2021-03-20T16:59:52Z</time>
      </trkpt>
      <trkpt lat="49.86631" lon="3.32778">
        <ele>92</ele>
        <time>2021-03-20T16:59:56Z</time>
      </trkpt>
      <trkpt lat="49.86684" lon="3.3281">
        <ele>95.3</ele>
        <time>2021-03-20T17:00:00Z</time>
      </trkpt>
      <trkpt lat="49.86738" lon="3.3285">
        <ele>98.57</ele>
        <time>2021-03-20T17:00:05Z</time>
      </trkpt>
      <trkpt lat="49.86786" lon="3.32878">
        <ele>101.4</ele>
        <time>2021-03-20T17:00:09Z</time>
      </trkpt>
      <trkpt lat="49.86811" lon="3.32898">
        <ele>104.06</ele>
        <time>2021-03-20T17:00:13Z</time>
      </trkpt>
      <trkpt lat="49.86873" lon="3.3293">
        <ele>105</ele>
        <time>2021-03-20T17:00:17Z</time>
      </trkpt>
      <trkpt lat="49.86924" lon="3.32941">
        <ele>105.69</ele>
        <time>2021-03-20T17:00:21Z</time>
      </trkpt>
      <trkpt lat="49.87017" lon="3.32936">
        <ele>102.66</ele>
        <time>2021-03-20T17:00:26Z</time>
      </trkpt>
      <trkpt lat="49.87034" lon="3.32938">
        <ele>101.5</ele>
        <time>2021-03-20T17:00:30Z</time>
      </trkpt>
      <trkpt lat="49.87039" lon="3.32943">
        <ele>101.14</ele>
        <time>2021-03-20T17:00:33Z</time>
      </trkpt>
      <trkpt lat="49.87043" lon="3.32943">
        <ele>100.91</ele>
        <time>2021-03-20T17:00:36Z</time>
      </trkpt>
      <trkpt lat="49.87048" lon="3.3294">
        <ele>100.39</ele>
        <time>2021-03-20T17:00:40Z</time>
      </trkpt>
      <trkpt lat="49.8705" lon="3.32936">
        <ele>100.13</ele>
        <time>2021-03-20T17:00:43Z</time>
      </trkpt>
      <trkpt lat="49.87061" lon="3.32951">
        <ele>100.42</ele>
        <time>2021-03-20T17:00:46Z</time>
      </trkpt>
      <trkpt lat="49.87134" lon="3.33103">
        <ele>102.63</ele>
        <time>2021-03-20T17:00:49Z</time>
      </trkpt>
      <trkpt lat="49.8715" lon="3.3313">
        <ele>103.55</ele>
        <time>2021-03-20T17:00:53Z</time>
      </trkpt>
      <trkpt lat="49.87161" lon="3.33136">
        <ele>103.82</ele>
        <time>2021-03-20T17:00:56Z</time>
      </trkpt>
      <trkpt lat="49.87173" lon="3.33138">
        <ele>103.72</ele>
        <time>2021-03-20T17:00:59Z</time>
      </trkpt>
      <trkpt lat="49.8723" lon="3.33121">
        <ele>98.46</ele>
        <time>2021-03-20T17:01:03Z</time>
      </trkpt>
      <trkpt lat="49.8728" lon="3.33093">
        <ele>96.65</ele>
        <time>2021-03-20T17:01:06Z</time>
      </trkpt>
      <trkpt lat="49.87324" lon="3.33058">
        <ele>93.37</ele>
        <time>2021-03-20T17:01:09Z</time>
      </trkpt>
      <trkpt lat="49.87375" lon="3.33004">
        <ele>90.56</ele>
        <time>2021-03-20T17:01:12Z</time>
      </trkpt>
      <trkpt lat="49.87415" lon="3.32946">
        <ele>90.05</ele>
        <time>2021-03-20T17:01:16Z</time>
      </trkpt>
      <trkpt lat="49.87441" lon="3.32901">
        <ele>87.37</ele>
        <time>2021-03-20T17:01:19Z</time>
      </trkpt>
      <trkpt lat="49.87466" lon="3.32848">
        <ele>85.79</ele>
        <time>2021-03-20T17:01:22Z</time>
      </trkpt>
      <trkpt lat="49.87491" lon="3.32772">
        <ele>84.81</ele>
        <time>2021-03-20T17:01:25Z</time>
      </trkpt>
      <trkpt lat="49.8751" lon="3.32685">
        <ele>84.79</ele>
        <time>2021-03-20T17:01:29Z</time>
      </trkpt>
      <trkpt lat="49.87517" lon="3.32649">
        <ele>83.99</ele>
        <time>2021-03-20T17:01:32Z</time>
      </trkpt>
      <trkpt lat="49.87517" lon="3.32636">
        <ele>83.43</ele>
        <time>2021-03-20T17:01:35Z</time>
      </trkpt>
      <trkpt lat="49.87482" lon="3.32492">
        <ele>82.35</ele>
        <time>2021-03-20T17:01:38Z</time>
      </trkpt>
      <trkpt lat="49.87485" lon="3.32467">
        <ele>82.47</ele>
        <time>2021-03-20T17:01:42Z</time>
      </trkpt>
      <trkpt lat="49.87499" lon="3.32439">
        <ele>83.14</ele>
        <time>2021-03-20T17:01:45Z</time>
      </trkpt>
      <trkpt lat="49.87521" lon="3.3241">
        <ele>83.94</ele>
        <time>2021-03-20T17:01:48Z</time>
      </trkpt>
      <trkpt lat="49.87563" lon="3.32378">
        <ele>83.62</ele>
        <time>2021-03-20T17:01:52Z</time>
      </trkpt>
      <trkpt lat="49.87572" lon="3.3239">
        <ele>84</ele>
        <time>2021-03-20T17:02:00Z</time>
      </trkpt>
      <trkpt lat="49.87582" lon="3.32409">
        <ele>84</ele>
        <time>2021-03-20T17:02:09Z</time>
      </trkpt>
      <trkpt lat="49.87805" lon="3.32737">
        <ele>92.98</ele>
        <time>2021-03-20T17:02:17Z</time>
      </trkpt>
      <trkpt lat="49.8803" lon="3.33081">
        <ele>104.88</ele>
        <time>2021-03-20T17:02:26Z</time>
      </trkpt>
      <trkpt lat="49.88227" lon="3.33393">
        <ele>98.51</ele>
        <time>2021-03-20T17:02:35Z</time>
      </trkpt>
      <trkpt lat="49.88303" lon="3.33479">
        <ele>96.31</ele>
        <time>2021-03-20T17:02:43Z</time>
      </trkpt>
      <trkpt lat="49.88387" lon="3.33568">
        <ele>97.12</ele>
        <time>2021-03-20T17:02:52Z</time>
      </trkpt>
      <trkpt lat="49.88466" lon="3.33647">
        <ele>98.07</ele>
        <time>2021-03-20T17:03:00Z</time>
      </trkpt>
      <trkpt lat="49.88635" lon="3.33769">
        <ele>98.69</ele>
        <time>2021-03-20T17:03:09Z</time>
      </trkpt>
      <trkpt lat="49.88678" lon="3.33809">
        <ele>99.48</ele>
        <time>2021-03-20T17:03:18Z</time>
      </trkpt>
      <trkpt lat="49.88708" lon="3.33841">
        <ele>99.65</ele>
        <time>2021-03-20T17:03:26Z</time>
      </trkpt>
      <trkpt lat="49.88964" lon="3.34136">
        <ele>96.46</ele>
        <time>2021-03-20T17:03:35Z</time>
      </trkpt>
      <trkpt lat="49.88983" lon="3.34162">
        <ele>95.55</ele>
        <time>2021-03-20T17:03:43Z</time>
      </trkpt>
      <trkpt lat="49.88992" lon="3.34178">
        <ele>95.42</ele>
        <time>2021-03-20T17:03:52Z</time>
      </trkpt>
      <trkpt lat="49.89071" lon="3.3434">
        <ele>95.05</ele>
        <time>2021-03-20T17:04:00Z</time>
      </trkpt>
      <trkpt lat="49.8909" lon="3.34362">
        <ele>94.61</ele>
        <time>2021-03-20T17:04:09Z</time>
      </trkpt>
      <trkpt lat="49.89112" lon="3.34376">
        <ele>93.52</ele>
        <time>2021-03-20T17:04:18Z</time>
      </trkpt>
      <trkpt lat="49.89168" lon="3.34399">
        <ele>94.26</ele>
        <time>2021-03-20T17:04:26Z</time>
      </trkpt>
      <trkpt lat="49.8922" lon="3.34418">
        <ele>88.19</ele>
        <time>2021-03-20T17:04:35Z</time>
      </trkpt>
      <trkpt lat="49.89296" lon="3.34369">
        <ele>85.06</ele>
        <time>2021-03-20T17:04:39Z</time>
      </trkpt>
      <trkpt lat="49.89403" lon="3.34289">
        <ele>85.18</ele>
        <time>2021-03-20T17:04:44Z</time>
      </trkpt>
      <trkpt lat="49.89426" lon="3.34268">
        <ele>85.68</ele>
        <time>2021-03-20T17:04:48Z</time>
      </trkpt>
      <trkpt lat="49.89462" lon="3.34227">
        <ele>87.62</ele>
        <time>2021-03-20T17:04:53Z</time>
      </trkpt>
      <trkpt lat="49.89483" lon="3.34199">
        <ele>88.06</ele>
        <time>2021-03-20T17:04:57Z</time>
      </trkpt>
      <trkpt lat="49.89569" lon="3.34127">
        <ele>83.98</ele>
        <time>2021-03-20T17:05:02Z</time>
      </trkpt>
      <trkpt lat="49.89572" lon="3.34114">
        <ele>84.13</ele>
        <time>2021-03-20T17:05:06Z</time>
      </trkpt>
      <trkpt lat="49.89573" lon="3.34102">
        <ele>84.48</ele>
        <time>2021-03-20T17:05:11Z</time>
      </trkpt>
      <trkpt lat="49.89571" lon="3.3409">
        <ele>85.06</ele>
        <time>2021-03-20T17:05:15Z</time>
      </trkpt>
      <trkpt lat="49.8955" lon="3.3398">
        <ele>88.19</ele>
        <time>2021-03-20T17:05:20Z</time>
      </trkpt>
      <trkpt lat="49.89546" lon="3.33937">
        <ele>87.42</ele>
        <time>2021-03-20T17:05:24Z</time>
      </trkpt>
      <trkpt lat="49.89546" lon="3.33912">
        <ele>86.5</ele>
        <time>2021-03-20T17:05:29Z</time>
      </trkpt>
      <trkpt lat="49.8955" lon="3.33897">
        <ele>85.68</ele>
        <time>2021-03-20T17:05:33Z</time>
      </trkpt>
      <trkpt lat="49.89558" lon="3.33882">
        <ele>85.42</ele>
        <time>2021-03-20T17:05:38Z</time>
      </trkpt>
      <trkpt lat="49.89568" lon="3.3387">
        <ele>86.57</ele>
        <time>2021-03-20T17:05:42Z</time>
      </trkpt>
      <trkpt lat="49.89603" lon="3.3385">
        <ele>88.72</ele>
        <time>2021-03-20T17:05:47Z</time>
      </trkpt>
      <trkpt lat="49.89649" lon="3.33844">
        <ele>90.35</ele>
        <time>2021-03-20T17:05:51Z</time>
      </trkpt>
      <trkpt lat="49.89701" lon="3.33847">
        <ele>93.45</ele>
        <time>2021-03-20T17:05:56Z</time>
      </trkpt>
      <trkpt lat="49.89708" lon="3.33843">
        <ele>93.99</ele>
        <time>2021-03-20T17:06:00Z</time>
      </trkpt>
      <trkpt lat="49.89719" lon="3.33881">
        <ele>94.78</ele>
        <time>2021-03-20T17:06:07Z</time>
      </trkpt>
      <trkpt lat="49.89721" lon="3.33893">
        <ele>94.77</ele>
        <time>2021-03-20T17:06:14Z</time>
      </trkpt>
      <trkpt lat="49.89728" lon="3.33893">
        <ele>94.87</ele>
        <time>2021-03-20T17:06:21Z</time>
      </trkpt>
      <trkpt lat="49.89739" lon="3.33899">
        <ele>94.85</ele>
        <time>2021-03-20T17:06:28Z</time>
      </trkpt>
      <trkpt lat="49.89753" lon="3.33899">
        <ele>95.03</ele>
        <time>2021-03-20T17:06:35Z</time>
      </trkpt>
      <trkpt lat="49.89766" lon="3.33894">
        <ele>95.11</ele>
        <time>2021-03-20T17:06:42Z</time>
      </trkpt>
      <trkpt lat="49.89869" lon="3.33843">
        <ele>97.01</ele>
        <time>2021-03-20T17:06:49Z</time>
      </trkpt>
      <trkpt lat="49.89996" lon="3.33815">
        <ele>96.2</ele>
        <time>2021-03-20T17:06:56Z</time>
      </trkpt>
      <trkpt lat="49.90056" lon="3.33823">
        <ele>96.2</ele>
        <time>2021-03-20T17:07:03Z</time>
      </trkpt>
      <trkpt lat="49.90133" lon="3.33853">
        <ele>95.86</ele>
        <time>2021-03-20T17:07:10Z</time>
      </trkpt>
      <trkpt lat="49.90355" lon="3.34019">
        <ele>101.67</ele>
        <time>2021-03-20T17:07:17Z</time>
      </trkpt>
      <trkpt lat="49.9078" lon="3.3432">
        <ele>123</ele>
        <time>2021-03-20T17:07:24Z</time>
      </trkpt>
      <trkpt lat="49.90847" lon="3.34362">
        <ele>124.04</ele>
        <time>2021-03-20T17:07:31Z</time>
      </trkpt>
      <trkpt lat="49.90968" lon="3.3439">
        <ele>120.32</ele>
        <time>2021-03-20T17:07:38Z</time>
      </trkpt>
      <trkpt lat="49.9101" lon="3.34369">
        <ele>117.63</ele>
        <time>2021-03-20T17:07:45Z</time>
      </trkpt>
      <trkpt lat="49.91037" lon="3.34341">
        <ele>116.23</ele>
        <time>2021-03-20T17:07:52Z</time>
      </trkpt>
      <trkpt lat="49.91226" lon="3.34559">
        <ele>116.14</ele>
        <time>2021-03-20T17:07:58Z</time>
      </trkpt>
      <trkpt lat="49.91281" lon="3.34627">
        <ele>119.19</ele>
        <time>2021-03-20T17:08:05Z</time>
      </trkpt>
      <trkpt lat="49.91617" lon="3.35085">
        <ele>134.65</ele>
        <time>2021-03-20T17:08:11Z</time>
      </trkpt>
      <trkpt lat="49.91738" lon="3.35277">
        <ele>135.71</ele>
        <time>2021-03-20T17:08:18Z</time>
      </trkpt>
      <trkpt lat="49.91776" lon="3.35385">
        <ele>134.77</ele>
        <time>2021-03-20T17:08:25Z</time>
      </trkpt>
      <trkpt lat="49.91941" lon="3.36001">
        <ele>129.68</ele>
        <time>2021-03-20T17:08:31Z</time>
      </trkpt>
      <trkpt lat="49.91963" lon="3.36063">
        <ele>133.44</ele>
        <time>2021-03-20T17:08:38Z</time>
      </trkpt>
      <trkpt lat="49.91997" lon="3.36122">
        <ele>133.54</ele>
        <time>2021-03-20T17:08:44Z</time>
      </trkpt>
      <trkpt lat="49.92024" lon="3.36163">
        <ele>133</ele>
        <time>2021-03-20T17:08:51Z</time>
      </trkpt>
      <trkpt lat="49.92133" lon="3.36308">
        <ele>121.91</ele>
        <time>2021-03-20T17:08:58Z</time>
      </trkpt>
      <trkpt lat="49.92232" lon="3.36432">
        <ele>116.52</ele>
        <time>2021-03-20T17:09:04Z</time>
      </trkpt>
      <trkpt lat="49.92323" lon="3.36488">
        <ele>116.66</ele>
        <time>2021-03-20T17:09:11Z</time>
      </trkpt>
      <trkpt lat="49.92338" lon="3.365">
        <ele>116.83</ele>
        <time>2021-03-20T17:09:18Z</time>
      </trkpt>
      <trkpt lat="49.92369" lon="3.36532">
        <ele>116.86</ele>
        <time>2021-03-20T17:09:24Z</time>
      </trkpt>
      <trkpt lat="49.92402" lon="3.36579">
        <ele>117.83</ele>
        <time>2021-03-20T17:09:31Z</time>
      </trkpt>
      <trkpt lat="49.92447" lon="3.36655">
        <ele>116.46</ele>
        <time>2021-03-20T17:09:37Z</time>
      </trkpt>
      <trkpt lat="49.92685" lon="3.37028">
        <ele>115</ele>
        <time>2021-03-20T17:09:44Z</time>
      </trkpt>
      <trkpt lat="49.92695" lon="3.36984">
        <ele>113.43</ele>
        <time>2021-03-20T17:09:46Z</time>
      </trkpt>
      <trkpt lat="49.92705" lon="3.36961">
        <ele>112.8</ele>
        <time>2021-03-20T17:09:48Z</time>
      </trkpt>
      <trkpt lat="49.92712" lon="3.36954">
        <ele>112.56</ele>
        <time>2021-03-20T17:09:50Z</time>
      </trkpt>
      <trkpt lat="49.92792" lon="3.36896">
        <ele>113</ele>
        <time>2021-03-20T17:09:51Z</time>
      </trkpt>
      <trkpt lat="49.92805" lon="3.36883">
        <ele>112.79</ele>
        <time>2021-03-20T17:09:53Z</time>
      </trkpt>
      <trkpt lat="49.92813" lon="3.36872">
        <ele>112.56</ele>
        <time>2021-03-20T17:09:55Z</time>
      </trkpt>
      <trkpt lat="49.92832" lon="3.3689">
        <ele>113</ele>
        <time>2021-03-20T17:10:03Z</time>
      </trkpt>
      <trkpt lat="49.92844" lon="3.36891">
        <ele>113.38</ele>
        <time>2021-03-20T17:10:11Z</time>
      </trkpt>
      <trkpt lat="49.92856" lon="3.36876">
        <ele>114.2</ele>
        <time>2021-03-20T17:10:19Z</time>
      </trkpt>
      <trkpt lat="49.9287" lon="3.36843">
        <ele>116.26</ele>
        <time>2021-03-20T17:10:27Z</time>
      </trkpt>
      <trkpt lat="49.92908" lon="3.36808">
        <ele>118.69</ele>
        <time>2021-03-20T17:10:35Z</time>
      </trkpt>
      <trkpt lat="49.93001" lon="3.36689">
        <ele>122.77</ele>
        <time>2021-03-20T17:10:43Z</time>
      </trkpt>
      <trkpt lat="49.93132" lon="3.36519">
        <ele>118.65</ele>
        <time>2021-03-20T17:10:51Z</time>
      </trkpt>
      <trkpt lat="49.93178" lon="3.36446">
        <ele>116.63</ele>
        <time>2021-03-20T17:10:59Z</time>
      </trkpt>
      <trkpt lat="49.93208" lon="3.36419">
        <ele>115.57</ele>
        <time>2021-03-20T17:11:07Z</time>
      </trkpt>
      <trkpt lat="49.93232" lon="3.36405">
        <ele>114.41</ele>
        <time>2021-03-20T17:11:14Z</time>
      </trkpt>
      <trkpt lat="49.93337" lon="3.36366">
        <ele>109.18</ele>
        <time>2021-03-20T17:11:22Z</time>
      </trkpt>
      <trkpt lat="49.9357" lon="3.36289">
        <ele>107.12</ele>
        <time>2021-03-20T17:11:30Z</time>
      </trkpt>
      <trkpt lat="49.93616" lon="3.36279">
        <ele>109.43</ele>
        <time>2021-03-20T17:11:38Z</time>
      </trkpt>
      <trkpt lat="49.93658" lon="3.3628">
        <ele>112.55</ele>
        <time>2021-03-20T17:11:46Z</time>
      </trkpt>
      <trkpt lat="49.93764" lon="3.36298">
        <ele>119.24</ele>
        <time>2021-03-20T17:11:54Z</time>
      </trkpt>
      <trkpt lat="49.93809" lon="3.36303">
        <ele>120.14</ele>
        <time>2021-03-20T17:12:02Z</time>
      </trkpt>
      <trkpt lat="49.93841" lon="3.36301">
        <ele>122.16</ele>
        <time>2021-03-20T17:12:10Z</time>
      </trkpt>
      <trkpt lat="49.93879" lon="3.36291">
        <ele>123.96</ele>
        <time>2021-03-20T17:12:18Z</time>
      </trkpt>
      <trkpt lat="49.94027" lon="3.36233">
        <ele>128.76</ele>
        <time>2021-03-20T17:12:26Z</time>
      </trkpt>
      <trkpt lat="49.94137" lon="3.36202">
        <ele>126.86</ele>
        <time>2021-03-20T17:12:34Z</time>
      </trkpt>
      <trkpt lat="49.94234" lon="3.36179">
        <ele>128.17</ele>
        <time>2021-03-20T17:12:42Z</time>
      </trkpt>
      <trkpt lat="49.94305" lon="3.36166">
        <ele>127.95</ele>
        <time>2021-03-20T17:12:50Z</time>
      </trkpt>
      <trkpt lat="49.94422" lon="3.36134">
        <ele>131.01</ele>
        <time>2021-03-20T17:12:57Z</time>
      </trkpt>
      <trkpt lat="49.94467" lon="3.36105">
        <ele>132.22</ele>
        <time>2021-03-20T17:13:05Z</time>
      </trkpt>
      <trkpt lat="49.9456" lon="3.36017">
        <ele>137.73</ele>
        <time>2021-03-20T17:13:13Z</time>
      </trkpt>
      <trkpt lat="49.94604" lon="3.3598">
        <ele>140.54</ele>
        <time>2021-03-20T17:13:21Z</time>
      </trkpt>
      <trkpt lat="49.94647" lon="3.35949">
        <ele>140.29</ele>
        <time>2021-03-20T17:13:29Z</time>
      </trkpt>
      <trkpt lat="49.94704" lon="3.35922">
        <ele>138.31</ele>
        <time>2021-03-20T17:13:37Z</time>
      </trkpt>
      <trkpt lat="49.94792" lon="3.35887">
        <ele>138.03</ele>
        <time>2021-03-20T17:13:45Z</time>
      </trkpt>
      <trkpt lat="49.94831" lon="3.35847">
        <ele>139.44</ele>
        <time>2021-03-20T17:13:53Z</time>
      </trkpt>
      <trkpt lat="49.94896" lon="3.35787">
        <ele>136.32</ele>
        <time>2021-03-20T17:14:01Z</time>
      </trkpt>
      <trkpt lat="49.94928" lon="3.35766">
        <ele>135.41</ele>
        <time>2021-03-20T17:14:09Z</time>
      </trkpt>
      <trkpt lat="49.94968" lon="3.35753">
        <ele>134.12</ele>
        <time>2021-03-20T17:14:17Z</time>
      </trkpt>
      <trkpt lat="49.95168" lon="3.3573">
        <ele>133.31</ele>
        <time>2021-03-20T17:14:25Z</time>
      </trkpt>
      <trkpt lat="49.95361" lon="3.35698">
        <ele>137.08</ele>
        <time>2021-03-20T17:14:33Z</time>
      </trkpt>
      <trkpt lat="49.9542" lon="3.35669">
        <ele>133.41</ele>
        <time>2021-03-20T17:14:40Z</time>
      </trkpt>
      <trkpt lat="49.95498" lon="3.35618">
        <ele>134.86</ele>
        <time>2021-03-20T17:14:48Z</time>
      </trkpt>
      <trkpt lat="49.95553" lon="3.3558">
        <ele>135.79</ele>
        <time>2021-03-20T17:14:56Z</time>
      </trkpt>
      <trkpt lat="49.95614" lon="3.35547">
        <ele>135.96</ele>
        <time>2021-03-20T17:15:04Z</time>
      </trkpt>
      <trkpt lat="49.95674" lon="3.35546">
        <ele>136</ele>
        <time>2021-03-20T17:15:12Z</time>
      </trkpt>
      <trkpt lat="49.95953" lon="3.3557">
        <ele>138.8</ele>
        <time>2021-03-20T17:15:20Z</time>
      </trkpt>
      <trkpt lat="49.96002" lon="3.35569">
        <ele>139.41</ele>
        <time>2021-03-20T17:15:28Z</time>
      </trkpt>
      <trkpt lat="49.96214" lon="3.35517">
        <ele>134.93</ele>
        <time>2021-03-20T17:15:36Z</time>
      </trkpt>
      <trkpt lat="49.96392" lon="3.35478">
        <ele>131.2</ele>
        <time>2021-03-20T17:15:44Z</time>
      </trkpt>
      <trkpt lat="49.96446" lon="3.35484">
        <ele>130.33</ele>
        <time>2021-03-20T17:15:52Z</time>
      </trkpt>
      <trkpt lat="49.96472" lon="3.35483">
        <ele>128.39</ele>
        <time>2021-03-20T17:16:00Z</time>
      </trkpt>
      <trkpt lat="49.96531" lon="3.35441">
        <ele>130</ele>
        <time>2021-03-20T17:16:08Z</time>
      </trkpt>
      <trkpt lat="49.96572" lon="3.35408">
        <ele>131.31</ele>
        <time>2021-03-20T17:16:16Z</time>
      </trkpt>
      <trkpt lat="49.96603" lon="3.35367">
        <ele>132.93</ele>
        <time>2021-03-20T17:16:24Z</time>
      </trkpt>
      <trkpt lat="49.96649" lon="3.35293">
        <ele>136.66</ele>
        <time>2021-03-20T17:16:31Z</time>
      </trkpt>
      <trkpt lat="49.96685" lon="3.35242">
        <ele>139.4</ele>
        <time>2021-03-20T17:16:39Z</time>
      </trkpt>
      <trkpt lat="49.96707" lon="3.3522">
        <ele>140.44</ele>
        <time>2021-03-20T17:16:47Z</time>
      </trkpt>
      <trkpt lat="49.96741" lon="3.35196">
        <ele>141</ele>
        <time>2021-03-20T17:16:55Z</time>
      </trkpt>
      <trkpt lat="49.96766" lon="3.35185">
        <ele>141.19</ele>
        <time>2021-03-20T17:17:03Z</time>
      </trkpt>
      <trkpt lat="49.96787" lon="3.35183">
        <ele>141.96</ele>
        <time>2021-03-20T17:17:11Z</time>
      </trkpt>
      <trkpt lat="49.9681" lon="3.35193">
        <ele>142.84</ele>
        <time>2021-03-20T17:17:19Z</time>
      </trkpt>
      <trkpt lat="49.96836" lon="3.35214">
        <ele>141.78</ele>
        <time>2021-03-20T17:17:27Z</time>
      </trkpt>
      <trkpt lat="49.9687" lon="3.35249">
        <ele>139.67</ele>
        <time>2021-03-20T17:17:35Z</time>
      </trkpt>
      <trkpt lat="49.96927" lon="3.3533">
        <ele>136.73</ele>
        <time>2021-03-20T17:17:43Z</time>
      </trkpt>
      <trkpt lat="49.96968" lon="3.35385">
        <ele>137.85</ele>
        <time>2021-03-20T17:17:51Z</time>
      </trkpt>
      <trkpt lat="49.97044" lon="3.35448">
        <ele>138.72</ele>
        <time>2021-03-20T17:17:59Z</time>
      </trkpt>
      <trkpt lat="49.9715" lon="3.35487">
        <ele>143.41</ele>
        <time>2021-03-20T17:18:07Z</time>
      </trkpt>
      <trkpt lat="49.97173" lon="3.35492">
        <ele>143.83</ele>
        <time>2021-03-20T17:18:14Z</time>
      </trkpt>
      <trkpt lat="49.97294" lon="3.35487">
        <ele>139.2</ele>
        <time>2021-03-20T17:18:22Z</time>
      </trkpt>
      <trkpt lat="49.97474" lon="3.35519">
        <ele>133.94</ele>
        <time>2021-03-20T17:18:30Z</time>
      </trkpt>
      <trkpt lat="49.97535" lon="3.3552">
        <ele>132.78</ele>
        <time>2021-03-20T17:18:38Z</time>
      </trkpt>
      <trkpt lat="49.9757" lon="3.35514">
        <ele>133.27</ele>
        <time>2021-03-20T17:18:46Z</time>
      </trkpt>
      <trkpt lat="49.97625" lon="3.35499">
        <ele>134.98</ele>
        <time>2021-03-20T17:18:54Z</time>
      </trkpt>
      <trkpt lat="49.97651" lon="3.35495">
        <ele>134.42</ele>
        <time>2021-03-20T17:19:02Z</time>
      </trkpt>
      <trkpt lat="49.97717" lon="3.35492">
        <ele>131.71</ele>
        <time>2021-03-20T17:19:10Z</time>
      </trkpt>
      <trkpt lat="49.97772" lon="3.35492">
        <ele>131.14</ele>
        <time>2021-03-20T17:19:18Z</time>
      </trkpt>
      <trkpt lat="49.97902" lon="3.35525">
        <ele>129</ele>
        <time>2021-03-20T17:19:26Z</time>
      </trkpt>
      <trkpt lat="49.97933" lon="3.35529">
        <ele>129.01</ele>
        <time>2021-03-20T17:19:34Z</time>
      </trkpt>
      <trkpt lat="49.98016" lon="3.35525">
        <ele>128.42</ele>
        <time>2021-03-20T17:19:42Z</time>
      </trkpt>
      <trkpt lat="49.98048" lon="3.35515">
        <ele>128.33</ele>
        <time>2021-03-20T17:19:50Z</time>
      </trkpt>
      <trkpt lat="49.98086" lon="3.35491">
        <ele>129.23</ele>
        <time>2021-03-20T17:19:57Z</time>
      </trkpt>
      <trkpt lat="49.98129" lon="3.35451">
        <ele>128.37</ele>
        <time>2021-03-20T17:20:05Z</time>
      </trkpt>
      <trkpt lat="49.98221" lon="3.35371">
        <ele>127.64</ele>
        <time>2021-03-20T17:20:13Z</time>
      </trkpt>
      <trkpt lat="49.98257" lon="3.35348">
        <ele>128.35</ele>
        <time>2021-03-20T17:20:21Z</time>
      </trkpt>
      <trkpt lat="49.9843" lon="3.35275">
        <ele>125.25</ele>
        <time>2021-03-20T17:20:29Z</time>
      </trkpt>
      <trkpt lat="49.9862" lon="3.35199">
        <ele>125.76</ele>
        <time>2021-03-20T17:20:37Z</time>
      </trkpt>
      <trkpt lat="49.98719" lon="3.35173">
        <ele>125.87</ele>
        <time>2021-03-20T17:20:45Z</time>
      </trkpt>
      <trkpt lat="49.98814" lon="3.35167">
        <ele>125.68</ele>
        <time>2021-03-20T17:20:53Z</time>
      </trkpt>
      <trkpt lat="49.99411" lon="3.35252">
        <ele>133.78</ele>
        <time>2021-03-20T17:21:01Z</time>
      </trkpt>
      <trkpt lat="50.00408" lon="3.35435">
        <ele>120.95</ele>
        <time>2021-03-20T17:21:09Z</time>
      </trkpt>
      <trkpt lat="50.00851" lon="3.36057">
        <ele>124.29</ele>
        <time>2021-03-20T17:21:25Z</time>
      </trkpt>
      <trkpt lat="50.01703" lon="3.37267">
        <ele>125.15</ele>
        <time>2021-03-20T17:21:40Z</time>
      </trkpt>
      <trkpt lat="50.0175" lon="3.37325">
        <ele>121</ele>
        <time>2021-03-20T17:21:56Z</time>
      </trkpt>
      <trkpt lat="50.01816" lon="3.37413">
        <ele>123.39</ele>
        <time>2021-03-20T17:22:12Z</time>
      </trkpt>
      <trkpt lat="50.01988" lon="3.37651">
        <ele>129.84</ele>
        <time>2021-03-20T17:22:27Z</time>
      </trkpt>
      <trkpt lat="50.02156" lon="3.3789">
        <ele>138.58</ele>
        <time>2021-03-20T17:22:43Z</time>
      </trkpt>
      <trkpt lat="50.02177" lon="3.37932">
        <ele>137.26</ele>
        <time>2021-03-20T17:22:59Z</time>
      </trkpt>
      <trkpt lat="50.02175" lon="3.37946">
        <ele>136.6</ele>
        <time>2021-03-20T17:23:10Z</time>
      </trkpt>
      <trkpt lat="50.02178" lon="3.3796">
        <ele>135.73</ele>
        <time>2021-03-20T17:23:20Z</time>
      </trkpt>
      <trkpt lat="50.02181" lon="3.37967">
        <ele>135.26</ele>
        <time>2021-03-20T17:23:31Z</time>
      </trkpt>
      <trkpt lat="50.02188" lon="3.37973">
        <ele>134.93</ele>
        <time>2021-03-20T17:23:42Z</time>
      </trkpt>
      <trkpt lat="50.02199" lon="3.37974">
        <ele>135.39</ele>
        <time>2021-03-20T17:23:53Z</time>
      </trkpt>
      <trkpt lat="50.02203" lon="3.37972">
        <ele>135.88</ele>
        <time>2021-03-20T17:24:04Z</time>
      </trkpt>
      <trkpt lat="50.02231" lon="3.37998">
        <ele>138.4</ele>
        <time>2021-03-20T17:24:15Z</time>
      </trkpt>
      <trkpt lat="50.02562" lon="3.38459">
        <ele>136.21</ele>
        <time>2021-03-20T17:24:25Z</time>
      </trkpt>
      <trkpt lat="50.02908" lon="3.38935">
        <ele>129.24</ele>
        <time>2021-03-20T17:24:36Z</time>
      </trkpt>
      <trkpt lat="50.02937" lon="3.38978">
        <ele>129.68</ele>
        <time>2021-03-20T17:24:47Z</time>
      </trkpt>
      <trkpt lat="50.03108" lon="3.39264">
        <ele>135.22</ele>
        <time>2021-03-20T17:24:58Z</time>
      </trkpt>
      <trkpt lat="50.03419" lon="3.39794">
        <ele>144.09</ele>
        <time>2021-03-20T17:25:09Z</time>
      </trkpt>
      <trkpt lat="50.03498" lon="3.39933">
        <ele>141.8</ele>
        <time>2021-03-20T17:25:20Z</time>
      </trkpt>
      <trkpt lat="50.03727" lon="3.4031">
        <ele>134.3</ele>
        <time>2021-03-20T17:25:30Z</time>
      </trkpt>
      <trkpt lat="50.03949" lon="3.40687">
        <ele>133.17</ele>
        <time>2021-03-20T17:25:41Z</time>
      </trkpt>
      <trkpt lat="50.0412" lon="3.40979">
        <ele>137.17</ele>
        <time>2021-03-20T17:25:52Z</time>
      </trkpt>
      <trkpt lat="50.04372" lon="3.41419">
        <ele>127.45</ele>
        <time>2021-03-20T17:26:03Z</time>
      </trkpt>
      <trkpt lat="50.0438" lon="3.41437">
        <ele>127.91</ele>
        <time>2021-03-20T17:26:14Z</time>
      </trkpt>
      <trkpt lat="50.04586" lon="3.41796">
        <ele>141.18</ele>
        <time>2021-03-20T17:26:25Z</time>
      </trkpt>
      <trkpt lat="50.05114" lon="3.42697">
        <ele>147.07</ele>
        <time>2021-03-20T17:26:35Z</time>
      </trkpt>
      <trkpt lat="50.05168" lon="3.42784">
        <ele>144</ele>
        <time>2021-03-20T17:26:46Z</time>
      </trkpt>
      <trkpt lat="50.05572" lon="3.43475">
        <ele>145.48</ele>
        <time>2021-03-20T17:26:57Z</time>
      </trkpt>
      <trkpt lat="50.05897" lon="3.44026">
        <ele>141</ele>
        <time>2021-03-20T17:27:08Z</time>
      </trkpt>
      <trkpt lat="50.06067" lon="3.44309">
        <ele>138.57</ele>
        <time>2021-03-20T17:27:19Z</time>
      </trkpt>
      <trkpt lat="50.06083" lon="3.44341">
        <ele>140.73</ele>
        <time>2021-03-20T17:27:30Z</time>
      </trkpt>
      <trkpt lat="50.06081" lon="3.44357">
        <ele>140.07</ele>
        <time>2021-03-20T17:27:40Z</time>
      </trkpt>
      <trkpt lat="50.06083" lon="3.44365">
        <ele>139.85</ele>
        <time>2021-03-20T17:27:51Z</time>
      </trkpt>
      <trkpt lat="50.06086" lon="3.44371">
        <ele>140.03</ele>
        <time>2021-03-20T17:28:01Z</time>
      </trkpt>
      <trkpt lat="50.06091" lon="3.44376">
        <ele>140.51</ele>
        <time>2021-03-20T17:28:12Z</time>
      </trkpt>
      <trkpt lat="50.06096" lon="3.44377">
        <ele>141.19</ele>
        <time>2021-03-20T17:28:22Z</time>
      </trkpt>
      <trkpt lat="50.06101" lon="3.44376">
        <ele>141.98</ele>
        <time>2021-03-20T17:28:33Z</time>
      </trkpt>
      <trkpt lat="50.06117" lon="3.44402">
        <ele>143.55</ele>
        <time>2021-03-20T17:28:43Z</time>
      </trkpt>
      <trkpt lat="50.06399" lon="3.44885">
        <ele>150.83</ele>
        <time>2021-03-20T17:28:54Z</time>
      </trkpt>
      <trkpt lat="50.06883" lon="3.4569">
        <ele>141</ele>
        <time>2021-03-20T17:29:04Z</time>
      </trkpt>
      <trkpt lat="50.07241" lon="3.46296">
        <ele>133.32</ele>
        <time>2021-03-20T17:29:15Z</time>
      </trkpt>
      <trkpt lat="50.07256" lon="3.46316">
        <ele>132.28</ele>
        <time>2021-03-20T17:29:25Z</time>
      </trkpt>
      <trkpt lat="50.07344" lon="3.46377">
        <ele>128.26</ele>
        <time>2021-03-20T17:29:36Z</time>
      </trkpt>
      <trkpt lat="50.07364" lon="3.46398">
        <ele>127.11</ele>
        <time>2021-03-20T17:29:46Z</time>
      </trkpt>
      <trkpt lat="50.07381" lon="3.46422">
        <ele>127.7</ele>
        <time>2021-03-20T17:29:57Z</time>
      </trkpt>
      <trkpt lat="50.07415" lon="3.46492">
        <ele>128.71</ele>
        <time>2021-03-20T17:30:07Z</time>
      </trkpt>
      <trkpt lat="50.07495" lon="3.46673">
        <ele>129.83</ele>
        <time>2021-03-20T17:30:18Z</time>
      </trkpt>
      <trkpt lat="50.07543" lon="3.46761">
        <ele>130.36</ele>
        <time>2021-03-20T17:30:28Z</time>
      </trkpt>
      <trkpt lat="50.07604" lon="3.46905">
        <ele>130.74</ele>
        <time>2021-03-20T17:30:39Z</time>
      </trkpt>
      <trkpt lat="50.07629" lon="3.46955">
        <ele>130.41</ele>
        <time>2021-03-20T17:30:49Z</time>
      </trkpt>
      <trkpt lat="50.07899" lon="3.47407">
        <ele>127.08</ele>
        <time>2021-03-20T17:31:00Z</time>
      </trkpt>
      <trkpt lat="50.08233" lon="3.47974">
        <ele>135</ele>
        <time>2021-03-20T17:31:10Z</time>
      </trkpt>
      <trkpt lat="50.08294" lon="3.48062">
        <ele>136</ele>
        <time>2021-03-20T17:31:21Z</time>
      </trkpt>
      <trkpt lat="50.08518" lon="3.4845">
        <ele>144</ele>
        <time>2021-03-20T17:31:31Z</time>
      </trkpt>
      <trkpt lat="50.08736" lon="3.48803">
        <ele>135.48</ele>
        <time>2021-03-20T17:31:42Z</time>
      </trkpt>
      <trkpt lat="50.08976" lon="3.49212">
        <ele>140.42</ele>
        <time>2021-03-20T17:31:53Z</time>
      </trkpt>
      <trkpt lat="50.09135" lon="3.49473">
        <ele>138.86</ele>
        <time>2021-03-20T17:32:03Z</time>
      </trkpt>
      <trkpt lat="50.0952" lon="3.5013">
        <ele>135.76</ele>
        <time>2021-03-20T17:32:14Z</time>
      </trkpt>
      <trkpt lat="50.09718" lon="3.50458">
        <ele>136.72</ele>
        <time>2021-03-20T17:32:24Z</time>
      </trkpt>
      <trkpt lat="50.10344" lon="3.51521">
        <ele>128.39</ele>
        <time>2021-03-20T17:32:35Z</time>
      </trkpt>
      <trkpt lat="50.10616" lon="3.5197">
        <ele>129.83</ele>
        <time>2021-03-20T17:32:45Z</time>
      </trkpt>
      <trkpt lat="50.10764" lon="3.52224">
        <ele>121.51</ele>
        <time>2021-03-20T17:32:56Z</time>
      </trkpt>
      <trkpt lat="50.10767" lon="3.52236">
        <ele>121.61</ele>
        <time>2021-03-20T17:33:06Z</time>
      </trkpt>
      <trkpt lat="50.10779" lon="3.52271">
        <ele>122.04</ele>
        <time>2021-03-20T17:33:17Z</time>
      </trkpt>
      <trkpt lat="50.10778" lon="3.52282">
        <ele>122</ele>
        <time>2021-03-20T17:33:20Z</time>
      </trkpt>
      <trkpt lat="50.10779" lon="3.52292">
        <ele>122.04</ele>
        <time>2021-03-20T17:33:23Z</time>
      </trkpt>
      <trkpt lat="50.10782" lon="3.52301">
        <ele>122.14</ele>
        <time>2021-03-20T17:33:27Z</time>
      </trkpt>
      <trkpt lat="50.10787" lon="3.52309">
        <ele>122.31</ele>
        <time>2021-03-20T17:33:30Z</time>
      </trkpt>
      <trkpt lat="50.10793" lon="3.52313">
        <ele>122.56</ele>
        <time>2021-03-20T17:33:34Z</time>
      </trkpt>
      <trkpt lat="50.10804" lon="3.52313">
        <ele>122.93</ele>
        <time>2021-03-20T17:33:37Z</time>
      </trkpt>
      <trkpt lat="50.10814" lon="3.52322">
        <ele>122.6</ele>
        <time>2021-03-20T17:33:40Z</time>
      </trkpt>
      <trkpt lat="50.10838" lon="3.52362">
        <ele>122.74</ele>
        <time>2021-03-20T17:33:44Z</time>
      </trkpt>
      <trkpt lat="50.1096" lon="3.52545">
        <ele>125.07</ele>
        <time>2021-03-20T17:33:47Z</time>
      </trkpt>
      <trkpt lat="50.1103" lon="3.52661">
        <ele>130.55</ele>
        <time>2021-03-20T17:33:50Z</time>
      </trkpt>
      <trkpt lat="50.11118" lon="3.52821">
        <ele>131.14</ele>
        <time>2021-03-20T17:33:54Z</time>
      </trkpt>
      <trkpt lat="50.11362" lon="3.53227">
        <ele>123</ele>
        <time>2021-03-20T17:33:57Z</time>
      </trkpt>
      <trkpt lat="50.11432" lon="3.53354">
        <ele>118.86</ele>
        <time>2021-03-20T17:34:01Z</time>
      </trkpt>
      <trkpt lat="50.11442" lon="3.53373">
        <ele>118.2</ele>
        <time>2021-03-20T17:34:04Z</time>
      </trkpt>
      <trkpt lat="50.11448" lon="3.53393">
        <ele>117.86</ele>
        <time>2021-03-20T17:34:07Z</time>
      </trkpt>
      <trkpt lat="50.11447" lon="3.53409">
        <ele>118.53</ele>
        <time>2021-03-20T17:34:17Z</time>
      </trkpt>
      <trkpt lat="50.11453" lon="3.53424">
        <ele>118.72</ele>
        <time>2021-03-20T17:34:26Z</time>
      </trkpt>
      <trkpt lat="50.1146" lon="3.53429">
        <ele>118.54</ele>
        <time>2021-03-20T17:34:35Z</time>
      </trkpt>
      <trkpt lat="50.11468" lon="3.53427">
        <ele>118.02</ele>
        <time>2021-03-20T17:34:44Z</time>
      </trkpt>
      <trkpt lat="50.11474" lon="3.53429">
        <ele>117.72</ele>
        <time>2021-03-20T17:34:54Z</time>
      </trkpt>
      <trkpt lat="50.11484" lon="3.53437">
        <ele>117.57</ele>
        <time>2021-03-20T17:35:03Z</time>
      </trkpt>
      <trkpt lat="50.115" lon="3.53453">
        <ele>117.32</ele>
        <time>2021-03-20T17:35:12Z</time>
      </trkpt>
      <trkpt lat="50.11566" lon="3.53542">
        <ele>114.25</ele>
        <time>2021-03-20T17:35:22Z</time>
      </trkpt>
      <trkpt lat="50.11597" lon="3.53592">
        <ele>112.88</ele>
        <time>2021-03-20T17:35:31Z</time>
      </trkpt>
      <trkpt lat="50.11632" lon="3.53668">
        <ele>108.47</ele>
        <time>2021-03-20T17:35:40Z</time>
      </trkpt>
      <trkpt lat="50.11656" lon="3.53723">
        <ele>107.98</ele>
        <time>2021-03-20T17:35:49Z</time>
      </trkpt>
      <trkpt lat="50.11683" lon="3.53764">
        <ele>104.27</ele>
        <time>2021-03-20T17:35:59Z</time>
      </trkpt>
      <trkpt lat="50.11766" lon="3.53867">
        <ele>95.61</ele>
        <time>2021-03-20T17:36:08Z</time>
      </trkpt>
      <trkpt lat="50.11876" lon="3.53991">
        <ele>86.81</ele>
        <time>2021-03-20T17:36:17Z</time>
      </trkpt>
      <trkpt lat="50.11908" lon="3.5404">
        <ele>85.75</ele>
        <time>2021-03-20T17:36:26Z</time>
      </trkpt>
      <trkpt lat="50.11972" lon="3.5416">
        <ele>83.01</ele>
        <time>2021-03-20T17:36:36Z</time>
      </trkpt>
      <trkpt lat="50.11986" lon="3.54184">
        <ele>83</ele>
        <time>2021-03-20T17:36:45Z</time>
      </trkpt>
      <trkpt lat="50.11998" lon="3.54198">
        <ele>83.12</ele>
        <time>2021-03-20T17:36:54Z</time>
      </trkpt>
      <trkpt lat="50.12018" lon="3.54215">
        <ele>83.91</ele>
        <time>2021-03-20T17:37:04Z</time>
      </trkpt>
      <trkpt lat="50.12061" lon="3.54236">
        <ele>84.28</ele>
        <time>2021-03-20T17:37:13Z</time>
      </trkpt>
      <trkpt lat="50.12085" lon="3.54237">
        <ele>85.65</ele>
        <time>2021-03-20T17:37:22Z</time>
      </trkpt>
      <trkpt lat="50.12092" lon="3.54241">
        <ele>86.32</ele>
        <time>2021-03-20T17:37:31Z</time>
      </trkpt>
      <trkpt lat="50.12104" lon="3.54253">
        <ele>87.61</ele>
        <time>2021-03-20T17:37:41Z</time>
      </trkpt>
      <trkpt lat="50.12148" lon="3.54367">
        <ele>96.96</ele>
        <time>2021-03-20T17:37:50Z</time>
      </trkpt>
      <trkpt lat="50.12164" lon="3.54399">
        <ele>99.25</ele>
        <time>2021-03-20T17:37:59Z</time>
      </trkpt>
      <trkpt lat="50.123" lon="3.54609">
        <ele>112.62</ele>
        <time>2021-03-20T17:38:08Z</time>
      </trkpt>
      <trkpt lat="50.13447" lon="3.56236">
        <ele>139.39</ele>
        <time>2021-03-20T17:38:18Z</time>
      </trkpt>
      <trkpt lat="50.1346" lon="3.5626">
        <ele>139.8</ele>
        <time>2021-03-20T17:38:27Z</time>
      </trkpt>
      <trkpt lat="50.13475" lon="3.56281">
        <ele>140.12</ele>
        <time>2021-03-20T17:38:36Z</time>
      </trkpt>
      <trkpt lat="50.13486" lon="3.56291">
        <ele>140.47</ele>
        <time>2021-03-20T17:38:46Z</time>
      </trkpt>
      <trkpt lat="50.13653" lon="3.56525">
        <ele>139.51</ele>
        <time>2021-03-20T17:38:55Z</time>
      </trkpt>
      <trkpt lat="50.13828" lon="3.56777">
        <ele>135.82</ele>
        <time>2021-03-20T17:39:04Z</time>
      </trkpt>
      <trkpt lat="50.13941" lon="3.56935">
        <ele>139.23</ele>
        <time>2021-03-20T17:39:13Z</time>
      </trkpt>
      <trkpt lat="50.14076" lon="3.57131">
        <ele>144</ele>
        <time>2021-03-20T17:39:23Z</time>
      </trkpt>
      <trkpt lat="50.14271" lon="3.57405">
        <ele>140.75</ele>
        <time>2021-03-20T17:39:32Z</time>
      </trkpt>
      <trkpt lat="50.14327" lon="3.57482">
        <ele>140.58</ele>
        <time>2021-03-20T17:39:41Z</time>
      </trkpt>
      <trkpt lat="50.14595" lon="3.57863">
        <ele>136.19</ele>
        <time>2021-03-20T17:39:50Z</time>
      </trkpt>
      <trkpt lat="50.14667" lon="3.57953">
        <ele>135</ele>
        <time>2021-03-20T17:40:00Z</time>
      </trkpt>
      <trkpt lat="50.14997" lon="3.58409">
        <ele>142.12</ele>
        <time>2021-03-20T17:40:09Z</time>
      </trkpt>
      <trkpt lat="50.15103" lon="3.58566">
        <ele>142.28</ele>
        <time>2021-03-20T17:40:18Z</time>
      </trkpt>
      <trkpt lat="50.15218" lon="3.58729">
        <ele>139</ele>
        <time>2021-03-20T17:40:28Z</time>
      </trkpt>
      <trkpt lat="50.15344" lon="3.58901">
        <ele>139</ele>
        <time>2021-03-20T17:40:37Z</time>
      </trkpt>
      <trkpt lat="50.1542" lon="3.59013">
        <ele>139.87</ele>
        <time>2021-03-20T17:40:46Z</time>
      </trkpt>
      <trkpt lat="50.15473" lon="3.59076">
        <ele>138.99</ele>
        <time>2021-03-20T17:40:55Z</time>
      </trkpt>
      <trkpt lat="50.15521" lon="3.59141">
        <ele>135.16</ele>
        <time>2021-03-20T17:41:05Z</time>
      </trkpt>
      <trkpt lat="50.15893" lon="3.59648">
        <ele>140.19</ele>
        <time>2021-03-20T17:41:14Z</time>
      </trkpt>
      <trkpt lat="50.16052" lon="3.59861">
        <ele>136.14</ele>
        <time>2021-03-20T17:41:23Z</time>
      </trkpt>
      <trkpt lat="50.16119" lon="3.59947">
        <ele>132.73</ele>
        <time>2021-03-20T17:41:32Z</time>
      </trkpt>
      <trkpt lat="50.16862" lon="3.61">
        <ele>140.03</ele>
        <time>2021-03-20T17:41:42Z</time>
      </trkpt>
      <trkpt lat="50.17274" lon="3.61569">
        <ele>144.07</ele>
        <time>2021-03-20T17:41:51Z</time>
      </trkpt>
      <trkpt lat="50.17803" lon="3.62318">
        <ele>134.57</ele>
        <time>2021-03-20T17:42:00Z</time>
      </trkpt>
      <trkpt lat="50.18282" lon="3.62991">
        <ele>145.66</ele>
        <time>2021-03-20T17:42:10Z</time>
      </trkpt>
      <trkpt lat="50.1846" lon="3.63248">
        <ele>144.55</ele>
        <time>2021-03-20T17:42:19Z</time>
      </trkpt>
      <trkpt lat="50.18749" lon="3.63648">
        <ele>140.36</ele>
        <time>2021-03-20T17:42:28Z</time>
      </trkpt>
      <trkpt lat="50.1889" lon="3.63851">
        <ele>138.29</ele>
        <time>2021-03-20T17:42:37Z</time>
      </trkpt>
      <trkpt lat="50.18894" lon="3.63863">
        <ele>137.73</ele>
        <time>2021-03-20T17:42:47Z</time>
      </trkpt>
      <trkpt lat="50.18895" lon="3.63873">
        <ele>137.36</ele>
        <time>2021-03-20T17:42:56Z</time>
      </trkpt>
      <trkpt lat="50.18892" lon="3.63886">
        <ele>136.99</ele>
        <time>2021-03-20T17:42:58Z</time>
      </trkpt>
      <trkpt lat="50.18895" lon="3.63895">
        <ele>136.79</ele>
        <time>2021-03-20T17:43:00Z</time>
      </trkpt>
      <trkpt lat="50.18899" lon="3.63899">
        <ele>136.65</ele>
        <time>2021-03-20T17:43:02Z</time>
      </trkpt>
      <trkpt lat="50.18903" lon="3.63901">
        <ele>136.49</ele>
        <time>2021-03-20T17:43:04Z</time>
      </trkpt>
      <trkpt lat="50.18909" lon="3.63899">
        <ele>136.29</ele>
        <time>2021-03-20T17:43:06Z</time>
      </trkpt>
      <trkpt lat="50.18911" lon="3.63895">
        <ele>136.19</ele>
        <time>2021-03-20T17:43:08Z</time>
      </trkpt>
      <trkpt lat="50.1892" lon="3.63896">
        <ele>135.88</ele>
        <time>2021-03-20T17:43:09Z</time>
      </trkpt>
      <trkpt lat="50.18953" lon="3.63887">
        <ele>134.75</ele>
        <time>2021-03-20T17:43:11Z</time>
      </trkpt>
      <trkpt lat="50.19204" lon="3.63914">
        <ele>143.33</ele>
        <time>2021-03-20T17:43:13Z</time>
      </trkpt>
      <trkpt lat="50.1914" lon="3.64097">
        <ele>141.59</ele>
        <time>2021-03-20T17:43:21Z</time>
      </trkpt>
      <trkpt lat="50.19115" lon="3.6416">
        <ele>141.9</ele>
        <time>2021-03-20T17:43:30Z</time>
      </trkpt>
      <trkpt lat="50.19533" lon="3.64753">
        <ele>141.55</ele>
        <time>2021-03-20T17:43:40Z</time>
      </trkpt>
      <trkpt lat="50.19607" lon="3.64855">
        <ele>138.32</ele>
        <time>2021-03-20T17:43:51Z</time>
      </trkpt>
      <trkpt lat="50.20006" lon="3.6543">
        <ele>140</ele>
        <time>2021-03-20T17:44:02Z</time>
      </trkpt>
      <trkpt lat="50.20338" lon="3.65904">
        <ele>143.92</ele>
        <time>2021-03-20T17:44:13Z</time>
      </trkpt>
      <trkpt lat="50.20613" lon="3.66287">
        <ele>143.27</ele>
        <time>2021-03-20T17:44:24Z</time>
      </trkpt>
      <trkpt lat="50.2079" lon="3.66541">
        <ele>148.86</ele>
        <time>2021-03-20T17:44:35Z</time>
      </trkpt>
      <trkpt lat="50.20908" lon="3.66705">
        <ele>148.42</ele>
        <time>2021-03-20T17:44:45Z</time>
      </trkpt>
      <trkpt lat="50.20952" lon="3.66769">
        <ele>148</ele>
        <time>2021-03-20T17:44:56Z</time>
      </trkpt>
      <trkpt lat="50.21018" lon="3.66873">
        <ele>148.33</ele>
        <time>2021-03-20T17:45:07Z</time>
      </trkpt>
      <trkpt lat="50.21073" lon="3.66969">
        <ele>140.12</ele>
        <time>2021-03-20T17:45:18Z</time>
      </trkpt>
      <trkpt lat="50.21131" lon="3.67059">
        <ele>137.16</ele>
        <time>2021-03-20T17:45:29Z</time>
      </trkpt>
      <trkpt lat="50.21163" lon="3.67106">
        <ele>136.34</ele>
        <time>2021-03-20T17:45:40Z</time>
      </trkpt>
      <trkpt lat="50.21274" lon="3.67259">
        <ele>137.92</ele>
        <time>2021-03-20T17:45:50Z</time>
      </trkpt>
      <trkpt lat="50.21325" lon="3.67323">
        <ele>141.32</ele>
        <time>2021-03-20T17:46:01Z</time>
      </trkpt>
      <trkpt lat="50.21411" lon="3.67413">
        <ele>142.74</ele>
        <time>2021-03-20T17:46:12Z</time>
      </trkpt>
      <trkpt lat="50.21431" lon="3.6744">
        <ele>143.11</ele>
        <time>2021-03-20T17:46:23Z</time>
      </trkpt>
      <trkpt lat="50.21662" lon="3.67766">
        <ele>147.32</ele>
        <time>2021-03-20T17:46:34Z</time>
      </trkpt>
      <trkpt lat="50.22057" lon="3.6833">
        <ele>141.81</ele>
        <time>2021-03-20T17:46:45Z</time>
      </trkpt>
      <trkpt lat="50.22078" lon="3.68372">
        <ele>141.74</ele>
        <time>2021-03-20T17:46:55Z</time>
      </trkpt>
      <trkpt lat="50.22081" lon="3.68381">
        <ele>141.92</ele>
        <time>2021-03-20T17:47:06Z</time>
      </trkpt>
      <trkpt lat="50.22079" lon="3.68391">
        <ele>142.54</ele>
        <time>2021-03-20T17:47:16Z</time>
      </trkpt>
      <trkpt lat="50.22082" lon="3.68405">
        <ele>144.32</ele>
        <time>2021-03-20T17:47:26Z</time>
      </trkpt>
      <trkpt lat="50.22088" lon="3.68415">
        <ele>145.43</ele>
        <time>2021-03-20T17:47:35Z</time>
      </trkpt>
      <trkpt lat="50.22094" lon="3.68419">
        <ele>145.48</ele>
        <time>2021-03-20T17:47:45Z</time>
      </trkpt>
      <trkpt lat="50.22103" lon="3.68419">
        <ele>144.96</ele>
        <time>2021-03-20T17:47:55Z</time>
      </trkpt>
      <trkpt lat="50.22121" lon="3.68428">
        <ele>145.11</ele>
        <time>2021-03-20T17:48:05Z</time>
      </trkpt>
      <trkpt lat="50.22213" lon="3.68554">
        <ele>150.5</ele>
        <time>2021-03-20T17:48:14Z</time>
      </trkpt>
      <trkpt lat="50.22217" lon="3.68557">
        <ele>149.99</ele>
        <time>2021-03-20T17:48:24Z</time>
      </trkpt>
      <trkpt lat="50.22369" lon="3.68772">
        <ele>146.62</ele>
        <time>2021-03-20T17:48:34Z</time>
      </trkpt>
      <trkpt lat="50.22516" lon="3.68987">
        <ele>152.14</ele>
        <time>2021-03-20T17:48:44Z</time>
      </trkpt>
      <trkpt lat="50.22563" lon="3.6905">
        <ele>152.87</ele>
        <time>2021-03-20T17:48:53Z</time>
      </trkpt>
      <trkpt lat="50.2272" lon="3.69275">
        <ele>155.23</ele>
        <time>2021-03-20T17:49:03Z</time>
      </trkpt>
      <trkpt lat="50.22759" lon="3.69325">
        <ele>150.7</ele>
        <time>2021-03-20T17:49:13Z</time>
      </trkpt>
      <trkpt lat="50.22878" lon="3.69487">
        <ele>146.48</ele>
        <time>2021-03-20T17:49:22Z</time>
      </trkpt>
      <trkpt lat="50.23007" lon="3.69673">
        <ele>148.34</ele>
        <time>2021-03-20T17:49:32Z</time>
      </trkpt>
      <trkpt lat="50.2336" lon="3.7017">
        <ele>153.57</ele>
        <time>2021-03-20T17:49:42Z</time>
      </trkpt>
      <trkpt lat="50.23403" lon="3.70236">
        <ele>154.74</ele>
        <time>2021-03-20T17:49:52Z</time>
      </trkpt>
      <trkpt lat="50.23514" lon="3.70388">
        <ele>153.47</ele>
        <time>2021-03-20T17:50:01Z</time>
      </trkpt>
      <trkpt lat="50.23633" lon="3.70558">
        <ele>144.3</ele>
        <time>2021-03-20T17:50:11Z</time>
      </trkpt>
      <trkpt lat="50.23851" lon="3.70863">
        <ele>145.74</ele>
        <time>2021-03-20T17:50:21Z</time>
      </trkpt>
      <trkpt lat="50.24019" lon="3.71103">
        <ele>137.44</ele>
        <time>2021-03-20T17:50:31Z</time>
      </trkpt>
      <trkpt lat="50.24191" lon="3.7136">
        <ele>145.88</ele>
        <time>2021-03-20T17:50:40Z</time>
      </trkpt>
      <trkpt lat="50.24408" lon="3.71663">
        <ele>146.71</ele>
        <time>2021-03-20T17:50:50Z</time>
      </trkpt>
      <trkpt lat="50.24648" lon="3.72005">
        <ele>151.88</ele>
        <time>2021-03-20T17:51:00Z</time>
      </trkpt>
      <trkpt lat="50.24804" lon="3.72218">
        <ele>139.82</ele>
        <time>2021-03-20T17:51:09Z</time>
      </trkpt>
      <trkpt lat="50.24843" lon="3.72276">
        <ele>141.42</ele>
        <time>2021-03-20T17:51:19Z</time>
      </trkpt>
      <trkpt lat="50.2525" lon="3.72845">
        <ele>152.01</ele>
        <time>2021-03-20T17:51:29Z</time>
      </trkpt>
      <trkpt lat="50.25302" lon="3.72921">
        <ele>147.97</ele>
        <time>2021-03-20T17:51:39Z</time>
      </trkpt>
      <trkpt lat="50.25556" lon="3.73283">
        <ele>141.18</ele>
        <time>2021-03-20T17:51:48Z</time>
      </trkpt>
      <trkpt lat="50.25701" lon="3.73483">
        <ele>152.45</ele>
        <time>2021-03-20T17:51:58Z</time>
      </trkpt>
      <trkpt lat="50.265" lon="3.74631">
        <ele>155.46</ele>
        <time>2021-03-20T17:52:08Z</time>
      </trkpt>
      <trkpt lat="50.26595" lon="3.74773">
        <ele>153.73</ele>
        <time>2021-03-20T17:52:18Z</time>
      </trkpt>
      <trkpt lat="50.26866" lon="3.75149">
        <ele>148.32</ele>
        <time>2021-03-20T17:52:27Z</time>
      </trkpt>
      <trkpt lat="50.26987" lon="3.75314">
        <ele>146.72</ele>
        <time>2021-03-20T17:52:37Z</time>
      </trkpt>
      <trkpt lat="50.27228" lon="3.75659">
        <ele>151.71</ele>
        <time>2021-03-20T17:52:47Z</time>
      </trkpt>
      <trkpt lat="50.27536" lon="3.76095">
        <ele>146.71</ele>
        <time>2021-03-20T17:52:56Z</time>
      </trkpt>
      <trkpt lat="50.27709" lon="3.76332">
        <ele>145.05</ele>
        <time>2021-03-20T17:53:06Z</time>
      </trkpt>
      <trkpt lat="50.27746" lon="3.76384">
        <ele>144.72</ele>
        <time>2021-03-20T17:53:16Z</time>
      </trkpt>
      <trkpt lat="50.27824" lon="3.76496">
        <ele>143.49</ele>
        <time>2021-03-20T17:53:26Z</time>
      </trkpt>
      <trkpt lat="50.27831" lon="3.76471">
        <ele>144.08</ele>
        <time>2021-03-20T17:53:29Z</time>
      </trkpt>
      <trkpt lat="50.27842" lon="3.76441">
        <ele>143.9</ele>
        <time>2021-03-20T17:53:32Z</time>
      </trkpt>
      <trkpt lat="50.27874" lon="3.76375">
        <ele>145.06</ele>
        <time>2021-03-20T17:53:35Z</time>
      </trkpt>
      <trkpt lat="50.27935" lon="3.76228">
        <ele>144.35</ele>
        <time>2021-03-20T17:53:38Z</time>
      </trkpt>
      <trkpt lat="50.27942" lon="3.76207">
        <ele>144.55</ele>
        <time>2021-03-20T17:53:41Z</time>
      </trkpt>
      <trkpt lat="50.27992" lon="3.76031">
        <ele>146.38</ele>
        <time>2021-03-20T17:53:45Z</time>
      </trkpt>
      <trkpt lat="50.28015" lon="3.75943">
        <ele>143.95</ele>
        <time>2021-03-20T17:53:48Z</time>
      </trkpt>
      <trkpt lat="50.28033" lon="3.7587">
        <ele>142.06</ele>
        <time>2021-03-20T17:53:51Z</time>
      </trkpt>
      <trkpt lat="50.28045" lon="3.75831">
        <ele>142.1</ele>
        <time>2021-03-20T17:53:54Z</time>
      </trkpt>
      <trkpt lat="50.2806" lon="3.75793">
        <ele>143.44</ele>
        <time>2021-03-20T17:53:57Z</time>
      </trkpt>
      <trkpt lat="50.28071" lon="3.75772">
        <ele>144.12</ele>
        <time>2021-03-20T17:54:00Z</time>
      </trkpt>
      <trkpt lat="50.2811" lon="3.75712">
        <ele>145</ele>
        <time>2021-03-20T17:54:04Z</time>
      </trkpt>
      <trkpt lat="50.28122" lon="3.75686">
        <ele>144.6</ele>
        <time>2021-03-20T17:54:07Z</time>
      </trkpt>
      <trkpt lat="50.28126" lon="3.75674">
        <ele>144.48</ele>
        <time>2021-03-20T17:54:10Z</time>
      </trkpt>
      <trkpt lat="50.28131" lon="3.75635">
        <ele>143.96</ele>
        <time>2021-03-20T17:54:13Z</time>
      </trkpt>
      <trkpt lat="50.28132" lon="3.75599">
        <ele>143.75</ele>
        <time>2021-03-20T17:54:16Z</time>
      </trkpt>
      <trkpt lat="50.28306" lon="3.75574">
        <ele>147</ele>
        <time>2021-03-20T17:54:21Z</time>
      </trkpt>
      <trkpt lat="50.28368" lon="3.75568">
        <ele>143.48</ele>
        <time>2021-03-20T17:54:26Z</time>
      </trkpt>
      <trkpt lat="50.28401" lon="3.75576">
        <ele>141.57</ele>
        <time>2021-03-20T17:54:31Z</time>
      </trkpt>
      <trkpt lat="50.28479" lon="3.75616">
        <ele>141.25</ele>
        <time>2021-03-20T17:54:36Z</time>
      </trkpt>
      <trkpt lat="50.28549" lon="3.75649">
        <ele>140.65</ele>
        <time>2021-03-20T17:54:40Z</time>
      </trkpt>
      <trkpt lat="50.28558" lon="3.75651">
        <ele>140.68</ele>
        <time>2021-03-20T17:54:45Z</time>
      </trkpt>
      <trkpt lat="50.28566" lon="3.75651">
        <ele>141.11</ele>
        <time>2021-03-20T17:54:50Z</time>
      </trkpt>
      <trkpt lat="50.28612" lon="3.75641">
        <ele>143.09</ele>
        <time>2021-03-20T17:54:55Z</time>
      </trkpt>
      <trkpt lat="50.28622" lon="3.75641">
        <ele>143.08</ele>
        <time>2021-03-20T17:55:00Z</time>
      </trkpt>
      <trkpt lat="50.28674" lon="3.75668">
        <ele>142.69</ele>
        <time>2021-03-20T17:55:04Z</time>
      </trkpt>
      <trkpt lat="50.2868" lon="3.75668">
        <ele>142.5</ele>
        <time>2021-03-20T17:55:09Z</time>
      </trkpt>
      <trkpt lat="50.28686" lon="3.75664">
        <ele>142.2</ele>
        <time>2021-03-20T17:55:14Z</time>
      </trkpt>
      <trkpt lat="50.28692" lon="3.75656">
        <ele>141.71</ele>
        <time>2021-03-20T17:55:19Z</time>
      </trkpt>
      <trkpt lat="50.28712" lon="3.75611">
        <ele>141</ele>
        <time>2021-03-20T17:55:24Z</time>
      </trkpt>
      <trkpt lat="50.28724" lon="3.75588">
        <ele>141.01</ele>
        <time>2021-03-20T17:55:29Z</time>
      </trkpt>
      <trkpt lat="50.2875" lon="3.75616">
        <ele>141.98</ele>
        <time>2021-03-20T17:55:31Z</time>
      </trkpt>
      <trkpt lat="50.28758" lon="3.75619">
        <ele>142</ele>
        <time>2021-03-20T17:55:33Z</time>
      </trkpt>
      <trkpt lat="50.28771" lon="3.75629">
        <ele>142</ele>
        <time>2021-03-20T17:55:35Z</time>
      </trkpt>
      <trkpt lat="50.2877" lon="3.75643">
        <ele>141.85</ele>
        <time>2021-03-20T17:55:38Z</time>
      </trkpt>
      <trkpt lat="50.28774" lon="3.75662">
        <ele>141.15</ele>
        <time>2021-03-20T17:55:41Z</time>
      </trkpt>
      <trkpt lat="50.28904" lon="3.75954">
        <ele>131.8</ele>
        <time>2021-03-20T17:55:44Z</time>
      </trkpt>
      <trkpt lat="50.28915" lon="3.75985">
        <ele>130.16</ele>
        <time>2021-03-20T17:55:47Z</time>
      </trkpt>
      <trkpt lat="50.28941" lon="3.76081">
        <ele>127.22</ele>
        <time>2021-03-20T17:55:50Z</time>
      </trkpt>
      <trkpt lat="50.28957" lon="3.76122">
        <ele>125.56</ele>
        <time>2021-03-20T17:55:53Z</time>
      </trkpt>
      <trkpt lat="50.2897" lon="3.76146">
        <ele>124.82</ele>
        <time>2021-03-20T17:55:56Z</time>
      </trkpt>
      <trkpt lat="50.28997" lon="3.7618">
        <ele>124</ele>
        <time>2021-03-20T17:55:59Z</time>
      </trkpt>
      <trkpt lat="50.2907" lon="3.76267">
        <ele>120.08</ele>
        <time>2021-03-20T17:56:02Z</time>
      </trkpt>
      <trkpt lat="50.2908" lon="3.7628">
        <ele>119.06</ele>
        <time>2021-03-20T17:56:05Z</time>
      </trkpt>
      <trkpt lat="50.29096" lon="3.76307">
        <ele>118.38</ele>
        <time>2021-03-20T17:56:08Z</time>
      </trkpt>
      <trkpt lat="50.29161" lon="3.7647">
        <ele>119.68</ele>
        <time>2021-03-20T17:56:11Z</time>
      </trkpt>
      <trkpt lat="50.29178" lon="3.76505">
        <ele>121.57</ele>
        <time>2021-03-20T17:56:14Z</time>
      </trkpt>
      <trkpt lat="50.29218" lon="3.76571">
        <ele>123.72</ele>
        <time>2021-03-20T17:56:17Z</time>
      </trkpt>
      <trkpt lat="50.2924" lon="3.76612">
        <ele>123.79</ele>
        <time>2021-03-20T17:56:20Z</time>
      </trkpt>
      <trkpt lat="50.29258" lon="3.76656">
        <ele>124.02</ele>
        <time>2021-03-20T17:56:22Z</time>
      </trkpt>
      <trkpt lat="50.29315" lon="3.76819">
        <ele>126.47</ele>
        <time>2021-03-20T17:56:25Z</time>
      </trkpt>
      <trkpt lat="50.2933" lon="3.76856">
        <ele>127</ele>
        <time>2021-03-20T17:56:28Z</time>
      </trkpt>
      <trkpt lat="50.29377" lon="3.76952">
        <ele>126.87</ele>
        <time>2021-03-20T17:56:31Z</time>
      </trkpt>
      <trkpt lat="50.29512" lon="3.77208">
        <ele>121.58</ele>
        <time>2021-03-20T17:56:34Z</time>
      </trkpt>
      <trkpt lat="50.29534" lon="3.77237">
        <ele>120.76</ele>
        <time>2021-03-20T17:56:37Z</time>
      </trkpt>
      <trkpt lat="50.29584" lon="3.77287">
        <ele>119</ele>
        <time>2021-03-20T17:56:40Z</time>
      </trkpt>
      <trkpt lat="50.296" lon="3.77309">
        <ele>118.86</ele>
        <time>2021-03-20T17:56:43Z</time>
      </trkpt>
      <trkpt lat="50.29696" lon="3.77491">
        <ele>112.34</ele>
        <time>2021-03-20T17:56:46Z</time>
      </trkpt>
      <trkpt lat="50.29729" lon="3.77708">
        <ele>115.6</ele>
        <time>2021-03-20T17:56:49Z</time>
      </trkpt>
      <trkpt lat="50.29742" lon="3.77807">
        <ele>118.75</ele>
        <time>2021-03-20T17:56:52Z</time>
      </trkpt>
      <trkpt lat="50.29766" lon="3.77971">
        <ele>120.59</ele>
        <time>2021-03-20T17:56:55Z</time>
      </trkpt>
      <trkpt lat="50.29785" lon="3.78103">
        <ele>122.19</ele>
        <time>2021-03-20T17:56:58Z</time>
      </trkpt>
      <trkpt lat="50.29796" lon="3.782">
        <ele>125.94</ele>
        <time>2021-03-20T17:57:01Z</time>
      </trkpt>
      <trkpt lat="50.29798" lon="3.78263">
        <ele>127.74</ele>
        <time>2021-03-20T17:57:04Z</time>
      </trkpt>
      <trkpt lat="50.29797" lon="3.78309">
        <ele>129.44</ele>
        <time>2021-03-20T17:57:07Z</time>
      </trkpt>
      <trkpt lat="50.29782" lon="3.78419">
        <ele>132.96</ele>
        <time>2021-03-20T17:57:10Z</time>
      </trkpt>
      <trkpt lat="50.2978" lon="3.78448">
        <ele>134.05</ele>
        <time>2021-03-20T17:57:13Z</time>
      </trkpt>
      <trkpt lat="50.29794" lon="3.78599">
        <ele>140.65</ele>
        <time>2021-03-20T17:57:16Z</time>
      </trkpt>
      <trkpt lat="50.29799" lon="3.78622">
        <ele>141.03</ele>
        <time>2021-03-20T17:57:19Z</time>
      </trkpt>
      <trkpt lat="50.29913" lon="3.78803">
        <ele>145.17</ele>
        <time>2021-03-20T17:57:23Z</time>
      </trkpt>
      <trkpt lat="50.29939" lon="3.78846">
        <ele>145.21</ele>
        <time>2021-03-20T17:57:28Z</time>
      </trkpt>
      <trkpt lat="50.3" lon="3.78956">
        <ele>146</ele>
        <time>2021-03-20T17:57:32Z</time>
      </trkpt>
      <trkpt lat="50.30036" lon="3.79011">
        <ele>148</ele>
        <time>2021-03-20T17:57:36Z</time>
      </trkpt>
      <trkpt lat="50.30045" lon="3.79019">
        <ele>148</ele>
        <time>2021-03-20T17:57:41Z</time>
      </trkpt>
      <trkpt lat="50.30057" lon="3.79019">
        <ele>148</ele>
        <time>2021-03-20T17:57:45Z</time>
      </trkpt>
      <trkpt lat="50.3006" lon="3.7905">
        <ele>148.66</ele>
        <time>2021-03-20T17:57:48Z</time>
      </trkpt>
      <trkpt lat="50.30076" lon="3.79096">
        <ele>149.45</ele>
        <time>2021-03-20T17:57:50Z</time>
      </trkpt>
      <trkpt lat="50.30095" lon="3.79136">
        <ele>149.58</ele>
        <time>2021-03-20T17:57:53Z</time>
      </trkpt>
      <trkpt lat="50.30098" lon="3.7916">
        <ele>149.87</ele>
        <time>2021-03-20T17:57:56Z</time>
      </trkpt>
      <trkpt lat="50.30096" lon="3.79172">
        <ele>150</ele>
        <time>2021-03-20T17:58:00Z</time>
      </trkpt>
      <trkpt lat="50.30096" lon="3.79191">
        <ele>150</ele>
        <time>2021-03-20T17:58:04Z</time>
      </trkpt>
      <trkpt lat="50.30098" lon="3.79197">
        <ele>149.95</ele>
        <time>2021-03-20T17:58:07Z</time>
      </trkpt>
      <trkpt lat="50.30102" lon="3.79201">
        <ele>149.84</ele>
        <time>2021-03-20T17:58:11Z</time>
      </trkpt>
      <trkpt lat="50.30106" lon="3.79202">
        <ele>149.78</ele>
        <time>2021-03-20T17:58:15Z</time>
      </trkpt>
      <trkpt lat="50.3011" lon="3.792">
        <ele>149.82</ele>
        <time>2021-03-20T17:58:19Z</time>
      </trkpt>
      <trkpt lat="50.30116" lon="3.79189">
        <ele>149.83</ele>
        <time>2021-03-20T17:58:23Z</time>
      </trkpt>
      <trkpt lat="50.30119" lon="3.79165">
        <ele>149.68</ele>
        <time>2021-03-20T17:58:27Z</time>
      </trkpt>
      <trkpt lat="50.30135" lon="3.79134">
        <ele>149</ele>
        <time>2021-03-20T17:58:31Z</time>
      </trkpt>
      <trkpt lat="50.30177" lon="3.79084">
        <ele>148.61</ele>
        <time>2021-03-20T17:58:35Z</time>
      </trkpt>
      <trkpt lat="50.3023" lon="3.79032">
        <ele>148.14</ele>
        <time>2021-03-20T17:58:39Z</time>
      </trkpt>
      <trkpt lat="50.3029" lon="3.78978">
        <ele>145.4</ele>
        <time>2021-03-20T17:58:43Z</time>
      </trkpt>
      <trkpt lat="50.304" lon="3.78884">
        <ele>142.83</ele>
        <time>2021-03-20T17:58:47Z</time>
      </trkpt>
      <trkpt lat="50.30524" lon="3.78775">
        <ele>142.63</ele>
        <time>2021-03-20T17:58:51Z</time>
      </trkpt>
      <trkpt lat="50.30611" lon="3.78685">
        <ele>142</ele>
        <time>2021-03-20T17:58:55Z</time>
      </trkpt>
      <trkpt lat="50.30642" lon="3.78656">
        <ele>142</ele>
        <time>2021-03-20T17:58:58Z</time>
      </trkpt>
      <trkpt lat="50.30718" lon="3.78585">
        <ele>141.9</ele>
        <time>2021-03-20T17:59:02Z</time>
      </trkpt>
      <trkpt lat="50.30735" lon="3.78566">
        <ele>142</ele>
        <time>2021-03-20T17:59:06Z</time>
      </trkpt>
      <trkpt lat="50.30769" lon="3.78521">
        <ele>140.92</ele>
        <time>2021-03-20T17:59:12Z</time>
      </trkpt>
      <trkpt lat="50.30783" lon="3.78499">
        <ele>141.18</ele>
        <time>2021-03-20T17:59:18Z</time>
      </trkpt>
      <trkpt lat="50.30862" lon="3.78359">
        <ele>144.12</ele>
        <time>2021-03-20T17:59:24Z</time>
      </trkpt>
      <trkpt lat="50.30879" lon="3.78341">
        <ele>144.9</ele>
        <time>2021-03-20T17:59:31Z</time>
      </trkpt>
      <trkpt lat="50.3094" lon="3.78293">
        <ele>146</ele>
        <time>2021-03-20T17:59:37Z</time>
      </trkpt>
      <trkpt lat="50.30983" lon="3.78241">
        <ele>145.26</ele>
        <time>2021-03-20T17:59:43Z</time>
      </trkpt>
      <trkpt lat="50.31029" lon="3.78188">
        <ele>141.69</ele>
        <time>2021-03-20T17:59:49Z</time>
      </trkpt>
      <trkpt lat="50.31061" lon="3.78157">
        <ele>138.71</ele>
        <time>2021-03-20T17:59:55Z</time>
      </trkpt>
      <trkpt lat="50.3114" lon="3.78098">
        <ele>137.95</ele>
        <time>2021-03-20T18:00:01Z</time>
      </trkpt>
      <trkpt lat="50.31162" lon="3.78086">
        <ele>137.17</ele>
        <time>2021-03-20T18:00:07Z</time>
      </trkpt>
      <trkpt lat="50.31185" lon="3.78068">
        <ele>136.36</ele>
        <time>2021-03-20T18:00:13Z</time>
      </trkpt>
      <trkpt lat="50.31301" lon="3.77947">
        <ele>135</ele>
        <time>2021-03-20T18:00:19Z</time>
      </trkpt>
      <trkpt lat="50.31443" lon="3.77811">
        <ele>133.84</ele>
        <time>2021-03-20T18:00:25Z</time>
      </trkpt>
      <trkpt lat="50.31653" lon="3.77618">
        <ele>129.49</ele>
        <time>2021-03-20T18:00:31Z</time>
      </trkpt>
      <trkpt lat="50.31845" lon="3.77453">
        <ele>127.6</ele>
        <time>2021-03-20T18:00:37Z</time>
      </trkpt>
      <trkpt lat="50.32015" lon="3.77297">
        <ele>123</ele>
        <time>2021-03-20T18:00:43Z</time>
      </trkpt>
      <trkpt lat="50.32136" lon="3.77185">
        <ele>123</ele>
        <time>2021-03-20T18:00:49Z</time>
      </trkpt>
      <trkpt lat="50.32259" lon="3.7707">
        <ele>122</ele>
        <time>2021-03-20T18:00:55Z</time>
      </trkpt>
      <trkpt lat="50.32439" lon="3.76917">
        <ele>118</ele>
        <time>2021-03-20T18:01:01Z</time>
      </trkpt>
      <trkpt lat="50.32449" lon="3.76913">
        <ele>118.14</ele>
        <time>2021-03-20T18:01:07Z</time>
      </trkpt>
      <trkpt lat="50.32459" lon="3.7692">
        <ele>117.82</ele>
        <time>2021-03-20T18:01:13Z</time>
      </trkpt>
      <trkpt lat="50.32468" lon="3.76931">
        <ele>117.04</ele>
        <time>2021-03-20T18:01:19Z</time>
      </trkpt>
      <trkpt lat="50.32526" lon="3.77012">
        <ele>115.97</ele>
        <time>2021-03-20T18:01:25Z</time>
      </trkpt>
      <trkpt lat="50.3257" lon="3.77078">
        <ele>107.97</ele>
        <time>2021-03-20T18:01:31Z</time>
      </trkpt>
      <trkpt lat="50.32613" lon="3.77122">
        <ele>104.77</ele>
        <time>2021-03-20T18:01:37Z</time>
      </trkpt>
      <trkpt lat="50.32619" lon="3.77124">
        <ele>104.36</ele>
        <time>2021-03-20T18:01:43Z</time>
      </trkpt>
      <trkpt lat="50.32637" lon="3.77117">
        <ele>104.46</ele>
        <time>2021-03-20T18:01:50Z</time>
      </trkpt>
      <trkpt lat="50.32678" lon="3.77083">
        <ele>103.83</ele>
        <time>2021-03-20T18:01:56Z</time>
      </trkpt>
      <trkpt lat="50.32689" lon="3.77078">
        <ele>102.85</ele>
        <time>2021-03-20T18:02:02Z</time>
      </trkpt>
      <trkpt lat="50.32716" lon="3.77072">
        <ele>100.53</ele>
        <time>2021-03-20T18:02:08Z</time>
      </trkpt>
      <trkpt lat="50.32729" lon="3.77063">
        <ele>99.04</ele>
        <time>2021-03-20T18:02:14Z</time>
      </trkpt>
      <trkpt lat="50.328" lon="3.76969">
        <ele>92.5</ele>
        <time>2021-03-20T18:02:20Z</time>
      </trkpt>
      <trkpt lat="50.32849" lon="3.7688">
        <ele>94.91</ele>
        <time>2021-03-20T18:02:26Z</time>
      </trkpt>
      <trkpt lat="50.32868" lon="3.76859">
        <ele>95.15</ele>
        <time>2021-03-20T18:02:32Z</time>
      </trkpt>
      <trkpt lat="50.32909" lon="3.76821">
        <ele>94.26</ele>
        <time>2021-03-20T18:02:38Z</time>
      </trkpt>
      <trkpt lat="50.32948" lon="3.76792">
        <ele>93.68</ele>
        <time>2021-03-20T18:02:44Z</time>
      </trkpt>
      <trkpt lat="50.32956" lon="3.7679">
        <ele>93.09</ele>
        <time>2021-03-20T18:02:50Z</time>
      </trkpt>
      <trkpt lat="50.32982" lon="3.76794">
        <ele>90.73</ele>
        <time>2021-03-20T18:02:56Z</time>
      </trkpt>
      <trkpt lat="50.32987" lon="3.76792">
        <ele>90.44</ele>
        <time>2021-03-20T18:03:02Z</time>
      </trkpt>
      <trkpt lat="50.32996" lon="3.76784">
        <ele>90.08</ele>
        <time>2021-03-20T18:03:08Z</time>
      </trkpt>
      <trkpt lat="50.33002" lon="3.76775">
        <ele>90.39</ele>
        <time>2021-03-20T18:03:14Z</time>
      </trkpt>
      <trkpt lat="50.33036" lon="3.767">
        <ele>96.59</ele>
        <time>2021-03-20T18:03:20Z</time>
      </trkpt>
      <trkpt lat="50.33047" lon="3.76664">
        <ele>97.26</ele>
        <time>2021-03-20T18:03:26Z</time>
      </trkpt>
      <trkpt lat="50.33053" lon="3.76635">
        <ele>97.43</ele>
        <time>2021-03-20T18:03:32Z</time>
      </trkpt>
      <trkpt lat="50.33058" lon="3.76563">
        <ele>99.46</ele>
        <time>2021-03-20T18:03:38Z</time>
      </trkpt>
      <trkpt lat="50.33061" lon="3.76534">
        <ele>101.22</ele>
        <time>2021-03-20T18:03:44Z</time>
      </trkpt>
      <trkpt lat="50.33077" lon="3.76438">
        <ele>96.34</ele>
        <time>2021-03-20T18:03:50Z</time>
      </trkpt>
      <trkpt lat="50.33099" lon="3.7634">
        <ele>86.36</ele>
        <time>2021-03-20T18:03:56Z</time>
      </trkpt>
      <trkpt lat="50.33104" lon="3.76334">
        <ele>85.72</ele>
        <time>2021-03-20T18:04:02Z</time>
      </trkpt>
      <trkpt lat="50.33112" lon="3.76331">
        <ele>85.04</ele>
        <time>2021-03-20T18:04:09Z</time>
      </trkpt>
      <trkpt lat="50.33166" lon="3.76314">
        <ele>83.68</ele>
        <time>2021-03-20T18:04:15Z</time>
      </trkpt>
      <trkpt lat="50.33196" lon="3.76295">
        <ele>85.21</ele>
        <time>2021-03-20T18:04:21Z</time>
      </trkpt>
      <trkpt lat="50.33211" lon="3.76278">
        <ele>86.82</ele>
        <time>2021-03-20T18:04:27Z</time>
      </trkpt>
      <trkpt lat="50.33237" lon="3.76235">
        <ele>88.28</ele>
        <time>2021-03-20T18:04:33Z</time>
      </trkpt>
      <trkpt lat="50.33283" lon="3.76177">
        <ele>92.71</ele>
        <time>2021-03-20T18:04:39Z</time>
      </trkpt>
      <trkpt lat="50.33308" lon="3.76126">
        <ele>97.29</ele>
        <time>2021-03-20T18:04:45Z</time>
      </trkpt>
      <trkpt lat="50.33329" lon="3.76096">
        <ele>99.57</ele>
        <time>2021-03-20T18:04:51Z</time>
      </trkpt>
      <trkpt lat="50.33414" lon="3.76016">
        <ele>98.24</ele>
        <time>2021-03-20T18:04:57Z</time>
      </trkpt>
      <trkpt lat="50.33472" lon="3.75966">
        <ele>96.99</ele>
        <time>2021-03-20T18:05:03Z</time>
      </trkpt>
      <trkpt lat="50.33602" lon="3.75843">
        <ele>108.65</ele>
        <time>2021-03-20T18:05:09Z</time>
      </trkpt>
      <trkpt lat="50.33624" lon="3.75828">
        <ele>109.54</ele>
        <time>2021-03-20T18:05:15Z</time>
      </trkpt>
      <trkpt lat="50.33655" lon="3.75804">
        <ele>111</ele>
        <time>2021-03-20T18:05:21Z</time>
      </trkpt>
      <trkpt lat="50.33709" lon="3.75748">
        <ele>112.54</ele>
        <time>2021-03-20T18:05:27Z</time>
      </trkpt>
      <trkpt lat="50.33866" lon="3.75601">
        <ele>115.8</ele>
        <time>2021-03-20T18:05:33Z</time>
      </trkpt>
      <trkpt lat="50.34016" lon="3.75466">
        <ele>116.59</ele>
        <time>2021-03-20T18:05:39Z</time>
      </trkpt>
      <trkpt lat="50.34166" lon="3.7532">
        <ele>123.51</ele>
        <time>2021-03-20T18:05:45Z</time>
      </trkpt>
      <trkpt lat="50.34275" lon="3.7524">
        <ele>118.63</ele>
        <time>2021-03-20T18:05:51Z</time>
      </trkpt>
      <trkpt lat="50.34301" lon="3.75216">
        <ele>117.76</ele>
        <time>2021-03-20T18:05:57Z</time>
      </trkpt>
      <trkpt lat="50.34366" lon="3.75141">
        <ele>117.43</ele>
        <time>2021-03-20T18:06:03Z</time>
      </trkpt>
      <trkpt lat="50.3449" lon="3.75024">
        <ele>115.36</ele>
        <time>2021-03-20T18:06:09Z</time>
      </trkpt>
      <trkpt lat="50.34501" lon="3.75012">
        <ele>115</ele>
        <time>2021-03-20T18:06:15Z</time>
      </trkpt>
      <trkpt lat="50.34535" lon="3.74974">
        <ele>115.93</ele>
        <time>2021-03-20T18:06:21Z</time>
      </trkpt>
      <trkpt lat="50.34571" lon="3.74938">
        <ele>115.97</ele>
        <time>2021-03-20T18:06:28Z</time>
      </trkpt>
      <trkpt lat="50.34704" lon="3.74825">
        <ele>114.33</ele>
        <time>2021-03-20T18:06:34Z</time>
      </trkpt>
      <trkpt lat="50.34735" lon="3.74793">
        <ele>112.1</ele>
        <time>2021-03-20T18:06:40Z</time>
      </trkpt>
      <trkpt lat="50.34793" lon="3.74724">
        <ele>110.06</ele>
        <time>2021-03-20T18:06:46Z</time>
      </trkpt>
      <trkpt lat="50.34829" lon="3.74693">
        <ele>109.85</ele>
        <time>2021-03-20T18:06:52Z</time>
      </trkpt>
      <trkpt lat="50.34928" lon="3.74612">
        <ele>112.39</ele>
        <time>2021-03-20T18:06:58Z</time>
      </trkpt>
      <trkpt lat="50.34953" lon="3.74588">
        <ele>112.49</ele>
        <time>2021-03-20T18:07:04Z</time>
      </trkpt>
      <trkpt lat="50.35041" lon="3.74507">
        <ele>114.61</ele>
        <time>2021-03-20T18:07:10Z</time>
      </trkpt>
      <trkpt lat="50.35119" lon="3.74433">
        <ele>113.7</ele>
        <time>2021-03-20T18:07:16Z</time>
      </trkpt>
      <trkpt lat="50.35271" lon="3.74293">
        <ele>113.26</ele>
        <time>2021-03-20T18:07:22Z</time>
      </trkpt>
      <trkpt lat="50.35339" lon="3.74232">
        <ele>113</ele>
        <time>2021-03-20T18:07:28Z</time>
      </trkpt>
      <trkpt lat="50.36246" lon="3.73383">
        <ele>88.15</ele>
        <time>2021-03-20T18:07:34Z</time>
      </trkpt>
      <trkpt lat="50.3633" lon="3.73308">
        <ele>85.21</ele>
        <time>2021-03-20T18:07:40Z</time>
      </trkpt>
      <trkpt lat="50.3643" lon="3.73221">
        <ele>82.54</ele>
        <time>2021-03-20T18:07:46Z</time>
      </trkpt>
      <trkpt lat="50.3645" lon="3.73202">
        <ele>82.53</ele>
        <time>2021-03-20T18:07:52Z</time>
      </trkpt>
      <trkpt lat="50.36468" lon="3.73181">
        <ele>82.15</ele>
        <time>2021-03-20T18:07:58Z</time>
      </trkpt>
      <trkpt lat="50.36537" lon="3.73065">
        <ele>83</ele>
        <time>2021-03-20T18:08:04Z</time>
      </trkpt>
      <trkpt lat="50.36551" lon="3.73044">
        <ele>82.93</ele>
        <time>2021-03-20T18:08:10Z</time>
      </trkpt>
      <trkpt lat="50.3658" lon="3.73019">
        <ele>82.11</ele>
        <time>2021-03-20T18:08:16Z</time>
      </trkpt>
      <trkpt lat="50.36677" lon="3.72952">
        <ele>81.37</ele>
        <time>2021-03-20T18:08:22Z</time>
      </trkpt>
      <trkpt lat="50.36834" lon="3.72837">
        <ele>83.01</ele>
        <time>2021-03-20T18:08:28Z</time>
      </trkpt>
      <trkpt lat="50.36895" lon="3.72781">
        <ele>84.2</ele>
        <time>2021-03-20T18:08:34Z</time>
      </trkpt>
      <trkpt lat="50.36963" lon="3.72716">
        <ele>83.05</ele>
        <time>2021-03-20T18:08:41Z</time>
      </trkpt>
      <trkpt lat="50.37045" lon="3.72641">
        <ele>81.31</ele>
        <time>2021-03-20T18:08:47Z</time>
      </trkpt>
      <trkpt lat="50.37125" lon="3.72579">
        <ele>79.98</ele>
        <time>2021-03-20T18:08:53Z</time>
      </trkpt>
      <trkpt lat="50.37166" lon="3.72542">
        <ele>78.03</ele>
        <time>2021-03-20T18:08:59Z</time>
      </trkpt>
      <trkpt lat="50.37203" lon="3.72504">
        <ele>76.69</ele>
        <time>2021-03-20T18:09:05Z</time>
      </trkpt>
      <trkpt lat="50.37282" lon="3.72431">
        <ele>73.49</ele>
        <time>2021-03-20T18:09:11Z</time>
      </trkpt>
      <trkpt lat="50.37339" lon="3.72385">
        <ele>71.66</ele>
        <time>2021-03-20T18:09:17Z</time>
      </trkpt>
      <trkpt lat="50.37382" lon="3.72352">
        <ele>68.39</ele>
        <time>2021-03-20T18:09:23Z</time>
      </trkpt>
      <trkpt lat="50.37486" lon="3.72285">
        <ele>65.5</ele>
        <time>2021-03-20T18:09:29Z</time>
      </trkpt>
      <trkpt lat="50.3761" lon="3.722">
        <ele>63.24</ele>
        <time>2021-03-20T18:09:35Z</time>
      </trkpt>
      <trkpt lat="50.37628" lon="3.72185">
        <ele>62.38</ele>
        <time>2021-03-20T18:09:41Z</time>
      </trkpt>
      <trkpt lat="50.37698" lon="3.72125">
        <ele>62.31</ele>
        <time>2021-03-20T18:09:47Z</time>
      </trkpt>
      <trkpt lat="50.37705" lon="3.72115">
        <ele>62.14</ele>
        <time>2021-03-20T18:09:53Z</time>
      </trkpt>
      <trkpt lat="50.37713" lon="3.72097">
        <ele>62.17</ele>
        <time>2021-03-20T18:09:59Z</time>
      </trkpt>
      <trkpt lat="50.37718" lon="3.7209">
        <ele>62.08</ele>
        <time>2021-03-20T18:10:05Z</time>
      </trkpt>
      <trkpt lat="50.37821" lon="3.7202">
        <ele>56.89</ele>
        <time>2021-03-20T18:10:11Z</time>
      </trkpt>
      <trkpt lat="50.37836" lon="3.72014">
        <ele>55.77</ele>
        <time>2021-03-20T18:10:17Z</time>
      </trkpt>
      <trkpt lat="50.37848" lon="3.72017">
        <ele>54.44</ele>
        <time>2021-03-20T18:10:23Z</time>
      </trkpt>
      <trkpt lat="50.37861" lon="3.72014">
        <ele>52.99</ele>
        <time>2021-03-20T18:10:29Z</time>
      </trkpt>
      <trkpt lat="50.3799" lon="3.71943">
        <ele>49.67</ele>
        <time>2021-03-20T18:10:35Z</time>
      </trkpt>
      <trkpt lat="50.38007" lon="3.71932">
        <ele>47.8</ele>
        <time>2021-03-20T18:10:41Z</time>
      </trkpt>
      <trkpt lat="50.38022" lon="3.71917">
        <ele>46.38</ele>
        <time>2021-03-20T18:10:47Z</time>
      </trkpt>
      <trkpt lat="50.38039" lon="3.71912">
        <ele>45.19</ele>
        <time>2021-03-20T18:10:53Z</time>
      </trkpt>
      <trkpt lat="50.38084" lon="3.71891">
        <ele>44</ele>
        <time>2021-03-20T18:11:00Z</time>
      </trkpt>
      <trkpt lat="50.38148" lon="3.71852">
        <ele>42.67</ele>
        <time>2021-03-20T18:11:06Z</time>
      </trkpt>
      <trkpt lat="50.3817" lon="3.71833">
        <ele>41.88</ele>
        <time>2021-03-20T18:11:12Z</time>
      </trkpt>
      <trkpt lat="50.38213" lon="3.71787">
        <ele>41.35</ele>
        <time>2021-03-20T18:11:18Z</time>
      </trkpt>
      <trkpt lat="50.38229" lon="3.71777">
        <ele>40.99</ele>
        <time>2021-03-20T18:11:24Z</time>
      </trkpt>
      <trkpt lat="50.38297" lon="3.71758">
        <ele>41.28</ele>
        <time>2021-03-20T18:11:30Z</time>
      </trkpt>
      <trkpt lat="50.38303" lon="3.71748">
        <ele>41</ele>
        <time>2021-03-20T18:11:36Z</time>
      </trkpt>
      <trkpt lat="50.38324" lon="3.71767">
        <ele>42.3</ele>
        <time>2021-03-20T18:11:40Z</time>
      </trkpt>
      <trkpt lat="50.38336" lon="3.71787">
        <ele>43.43</ele>
        <time>2021-03-20T18:11:44Z</time>
      </trkpt>
      <trkpt lat="50.38385" lon="3.71885">
        <ele>49.69</ele>
        <time>2021-03-20T18:11:48Z</time>
      </trkpt>
      <trkpt lat="50.38408" lon="3.71942">
        <ele>52.54</ele>
        <time>2021-03-20T18:11:52Z</time>
      </trkpt>
      <trkpt lat="50.38423" lon="3.71969">
        <ele>54.12</ele>
        <time>2021-03-20T18:11:56Z</time>
      </trkpt>
      <trkpt lat="50.38445" lon="3.7199">
        <ele>55.65</ele>
        <time>2021-03-20T18:12:00Z</time>
      </trkpt>
      <trkpt lat="50.3846" lon="3.71996">
        <ele>55.87</ele>
        <time>2021-03-20T18:12:04Z</time>
      </trkpt>
      <trkpt lat="50.38475" lon="3.71999">
        <ele>56.08</ele>
        <time>2021-03-20T18:12:08Z</time>
      </trkpt>
      <trkpt lat="50.38533" lon="3.71987">
        <ele>57.92</ele>
        <time>2021-03-20T18:12:12Z</time>
      </trkpt>
      <trkpt lat="50.38558" lon="3.71992">
        <ele>59.6</ele>
        <time>2021-03-20T18:12:16Z</time>
      </trkpt>
      <trkpt lat="50.38573" lon="3.71998">
        <ele>59.32</ele>
        <time>2021-03-20T18:12:20Z</time>
      </trkpt>
      <trkpt lat="50.38648" lon="3.72048">
        <ele>61.48</ele>
        <time>2021-03-20T18:12:24Z</time>
      </trkpt>
      <trkpt lat="50.38788" lon="3.72162">
        <ele>65.47</ele>
        <time>2021-03-20T18:12:28Z</time>
      </trkpt>
      <trkpt lat="50.38805" lon="3.72179">
        <ele>65.96</ele>
        <time>2021-03-20T18:12:32Z</time>
      </trkpt>
      <trkpt lat="50.38825" lon="3.7221">
        <ele>65.82</ele>
        <time>2021-03-20T18:12:36Z</time>
      </trkpt>
      <trkpt lat="50.38863" lon="3.72298">
        <ele>68.66</ele>
        <time>2021-03-20T18:12:40Z</time>
      </trkpt>
      <trkpt lat="50.38887" lon="3.72359">
        <ele>69.08</ele>
        <time>2021-03-20T18:12:44Z</time>
      </trkpt>
      <trkpt lat="50.38974" lon="3.72612">
        <ele>69</ele>
        <time>2021-03-20T18:12:48Z</time>
      </trkpt>
      <trkpt lat="50.39063" lon="3.72813">
        <ele>68.54</ele>
        <time>2021-03-20T18:12:52Z</time>
      </trkpt>
      <trkpt lat="50.39074" lon="3.72851">
        <ele>68.21</ele>
        <time>2021-03-20T18:12:56Z</time>
      </trkpt>
      <trkpt lat="50.39093" lon="3.72937">
        <ele>68.67</ele>
        <time>2021-03-20T18:13:00Z</time>
      </trkpt>
      <trkpt lat="50.39103" lon="3.72964">
        <ele>68.29</ele>
        <time>2021-03-20T18:13:04Z</time>
      </trkpt>
      <trkpt lat="50.39122" lon="3.72997">
        <ele>69.28</ele>
        <time>2021-03-20T18:13:08Z</time>
      </trkpt>
      <trkpt lat="50.39209" lon="3.73134">
        <ele>69.9</ele>
        <time>2021-03-20T18:13:12Z</time>
      </trkpt>
      <trkpt lat="50.39284" lon="3.73216">
        <ele>72.56</ele>
        <time>2021-03-20T18:13:16Z</time>
      </trkpt>
      <trkpt lat="50.39391" lon="3.73356">
        <ele>71</ele>
        <time>2021-03-20T18:13:20Z</time>
      </trkpt>
      <trkpt lat="50.39507" lon="3.73487">
        <ele>67.46</ele>
        <time>2021-03-20T18:13:24Z</time>
      </trkpt>
      <trkpt lat="50.39525" lon="3.73511">
        <ele>67</ele>
        <time>2021-03-20T18:13:28Z</time>
      </trkpt>
      <trkpt lat="50.39539" lon="3.73536">
        <ele>65.93</ele>
        <time>2021-03-20T18:13:32Z</time>
      </trkpt>
      <trkpt lat="50.39552" lon="3.73572">
        <ele>64.22</ele>
        <time>2021-03-20T18:13:36Z</time>
      </trkpt>
      <trkpt lat="50.39573" lon="3.73642">
        <ele>62.26</ele>
        <time>2021-03-20T18:13:40Z</time>
      </trkpt>
      <trkpt lat="50.39596" lon="3.73691">
        <ele>60.59</ele>
        <time>2021-03-20T18:13:44Z</time>
      </trkpt>
      <trkpt lat="50.39623" lon="3.73727">
        <ele>59.76</ele>
        <time>2021-03-20T18:13:48Z</time>
      </trkpt>
      <trkpt lat="50.39825" lon="3.73968">
        <ele>52.62</ele>
        <time>2021-03-20T18:13:52Z</time>
      </trkpt>
      <trkpt lat="50.39832" lon="3.7398">
        <ele>51.79</ele>
        <time>2021-03-20T18:13:56Z</time>
      </trkpt>
      <trkpt lat="50.39836" lon="3.7399">
        <ele>51.45</ele>
        <time>2021-03-20T18:14:00Z</time>
      </trkpt>
      <trkpt lat="50.39837" lon="3.74003">
        <ele>51.12</ele>
        <time>2021-03-20T18:14:04Z</time>
      </trkpt>
      <trkpt lat="50.39829" lon="3.74073">
        <ele>51.23</ele>
        <time>2021-03-20T18:14:08Z</time>
      </trkpt>
      <trkpt lat="50.39831" lon="3.74097">
        <ele>51.67</ele>
        <time>2021-03-20T18:14:12Z</time>
      </trkpt>
      <trkpt lat="50.39853" lon="3.74163">
        <ele>51.78</ele>
        <time>2021-03-20T18:14:16Z</time>
      </trkpt>
      <trkpt lat="50.39861" lon="3.74178">
        <ele>51.46</ele>
        <time>2021-03-20T18:14:20Z</time>
      </trkpt>
      <trkpt lat="50.39899" lon="3.74238">
        <ele>52.57</ele>
        <time>2021-03-20T18:14:24Z</time>
      </trkpt>
      <trkpt lat="50.39908" lon="3.74256">
        <ele>53.45</ele>
        <time>2021-03-20T18:14:28Z</time>
      </trkpt>
      <trkpt lat="50.40004" lon="3.74573">
        <ele>54.74</ele>
        <time>2021-03-20T18:14:32Z</time>
      </trkpt>
      <trkpt lat="50.40021" lon="3.74625">
        <ele>54.5</ele>
        <time>2021-03-20T18:14:36Z</time>
      </trkpt>
      <trkpt lat="50.40036" lon="3.7466">
        <ele>54.26</ele>
        <time>2021-03-20T18:14:40Z</time>
      </trkpt>
      <trkpt lat="50.40152" lon="3.74895">
        <ele>51.42</ele>
        <time>2021-03-20T18:14:44Z</time>
      </trkpt>
      <trkpt lat="50.40212" lon="3.75023">
        <ele>48.38</ele>
        <time>2021-03-20T18:14:48Z</time>
      </trkpt>
      <trkpt lat="50.40256" lon="3.75125">
        <ele>45</ele>
        <time>2021-03-20T18:14:52Z</time>
      </trkpt>
      <trkpt lat="50.40258" lon="3.75145">
        <ele>45.21</ele>
        <time>2021-03-20T18:14:56Z</time>
      </trkpt>
      <trkpt lat="50.40253" lon="3.75211">
        <ele>45.93</ele>
        <time>2021-03-20T18:15:00Z</time>
      </trkpt>
      <trkpt lat="50.40254" lon="3.75219">
        <ele>45.86</ele>
        <time>2021-03-20T18:15:04Z</time>
      </trkpt>
      <trkpt lat="50.40259" lon="3.7523">
        <ele>45.68</ele>
        <time>2021-03-20T18:15:08Z</time>
      </trkpt>
      <trkpt lat="50.40269" lon="3.75237">
        <ele>45.31</ele>
        <time>2021-03-20T18:15:12Z</time>
      </trkpt>
      <trkpt lat="50.40276" lon="3.75238">
        <ele>45.05</ele>
        <time>2021-03-20T18:15:16Z</time>
      </trkpt>
      <trkpt lat="50.40393" lon="3.75224">
        <ele>44.15</ele>
        <time>2021-03-20T18:15:21Z</time>
      </trkpt>
      <trkpt lat="50.4041" lon="3.75228">
        <ele>44.75</ele>
        <time>2021-03-20T18:15:25Z</time>
      </trkpt>
      <trkpt lat="50.40448" lon="3.75249">
        <ele>43.72</ele>
        <time>2021-03-20T18:15:29Z</time>
      </trkpt>
      <trkpt lat="50.40465" lon="3.75252">
        <ele>42.5</ele>
        <time>2021-03-20T18:15:34Z</time>
      </trkpt>
      <trkpt lat="50.40509" lon="3.75238">
        <ele>42.44</ele>
        <time>2021-03-20T18:15:38Z</time>
      </trkpt>
      <trkpt lat="50.40529" lon="3.75238">
        <ele>42.42</ele>
        <time>2021-03-20T18:15:42Z</time>
      </trkpt>
      <trkpt lat="50.40682" lon="3.75302">
        <ele>43</ele>
        <time>2021-03-20T18:15:47Z</time>
      </trkpt>
      <trkpt lat="50.40722" lon="3.75315">
        <ele>43</ele>
        <time>2021-03-20T18:15:51Z</time>
      </trkpt>
      <trkpt lat="50.40729" lon="3.75317">
        <ele>43.24</ele>
        <time>2021-03-20T18:15:55Z</time>
      </trkpt>
      <trkpt lat="50.40743" lon="3.75316">
        <ele>43.76</ele>
        <time>2021-03-20T18:16:00Z</time>
      </trkpt>
      <trkpt lat="50.40761" lon="3.75299">
        <ele>44.77</ele>
        <time>2021-03-20T18:16:04Z</time>
      </trkpt>
      <trkpt lat="50.40833" lon="3.75209">
        <ele>46.51</ele>
        <time>2021-03-20T18:16:08Z</time>
      </trkpt>
      <trkpt lat="50.40845" lon="3.75188">
        <ele>45.86</ele>
        <time>2021-03-20T18:16:13Z</time>
      </trkpt>
      <trkpt lat="50.40913" lon="3.7509">
        <ele>46</ele>
        <time>2021-03-20T18:16:17Z</time>
      </trkpt>
      <trkpt lat="50.40934" lon="3.75066">
        <ele>46</ele>
        <time>2021-03-20T18:16:21Z</time>
      </trkpt>
      <trkpt lat="50.40944" lon="3.75054">
        <ele>46</ele>
        <time>2021-03-20T18:16:26Z</time>
      </trkpt>
      <trkpt lat="50.40991" lon="3.75015">
        <ele>46</ele>
        <time>2021-03-20T18:16:30Z</time>
      </trkpt>
      <trkpt lat="50.41037" lon="3.74981">
        <ele>46.25</ele>
        <time>2021-03-20T18:16:34Z</time>
      </trkpt>
      <trkpt lat="50.41151" lon="3.74909">
        <ele>48.12</ele>
        <time>2021-03-20T18:16:39Z</time>
      </trkpt>
      <trkpt lat="50.41208" lon="3.74881">
        <ele>48.8</ele>
        <time>2021-03-20T18:16:43Z</time>
      </trkpt>
      <trkpt lat="50.41233" lon="3.74872">
        <ele>48.09</ele>
        <time>2021-03-20T18:16:47Z</time>
      </trkpt>
      <trkpt lat="50.41253" lon="3.7487">
        <ele>47.4</ele>
        <time>2021-03-20T18:16:52Z</time>
      </trkpt>
      <trkpt lat="50.41272" lon="3.74875">
        <ele>47.4</ele>
        <time>2021-03-20T18:16:56Z</time>
      </trkpt>
      <trkpt lat="50.41288" lon="3.74884">
        <ele>47.11</ele>
        <time>2021-03-20T18:17:01Z</time>
      </trkpt>
      <trkpt lat="50.41304" lon="3.74899">
        <ele>47.35</ele>
        <time>2021-03-20T18:17:05Z</time>
      </trkpt>
      <trkpt lat="50.41313" lon="3.74916">
        <ele>47.45</ele>
        <time>2021-03-20T18:17:09Z</time>
      </trkpt>
      <trkpt lat="50.41313" lon="3.7493">
        <ele>47.96</ele>
        <time>2021-03-20T18:17:14Z</time>
      </trkpt>
      <trkpt lat="50.41317" lon="3.74943">
        <ele>48.15</ele>
        <time>2021-03-20T18:17:19Z</time>
      </trkpt>
      <trkpt lat="50.41322" lon="3.74951">
        <ele>47.83</ele>
        <time>2021-03-20T18:17:23Z</time>
      </trkpt>
      <trkpt lat="50.41329" lon="3.74957">
        <ele>47.32</ele>
        <time>2021-03-20T18:17:28Z</time>
      </trkpt>
      <trkpt lat="50.41337" lon="3.74958">
        <ele>46.71</ele>
        <time>2021-03-20T18:17:33Z</time>
      </trkpt>
      <trkpt lat="50.41344" lon="3.74955">
        <ele>46.08</ele>
        <time>2021-03-20T18:17:37Z</time>
      </trkpt>
      <trkpt lat="50.4135" lon="3.74949">
        <ele>45.67</ele>
        <time>2021-03-20T18:17:42Z</time>
      </trkpt>
      <trkpt lat="50.41355" lon="3.7494">
        <ele>45.54</ele>
        <time>2021-03-20T18:17:47Z</time>
      </trkpt>
      <trkpt lat="50.41357" lon="3.74928">
        <ele>45.69</ele>
        <time>2021-03-20T18:17:52Z</time>
      </trkpt>
      <trkpt lat="50.41357" lon="3.74915">
        <ele>46</ele>
        <time>2021-03-20T18:17:56Z</time>
      </trkpt>
      <trkpt lat="50.4136" lon="3.74904">
        <ele>46</ele>
        <time>2021-03-20T18:18:01Z</time>
      </trkpt>
      <trkpt lat="50.41364" lon="3.74894">
        <ele>46</ele>
        <time>2021-03-20T18:18:06Z</time>
      </trkpt>
      <trkpt lat="50.41389" lon="3.74865">
        <ele>45.15</ele>
        <time>2021-03-20T18:18:10Z</time>
      </trkpt>
      <trkpt lat="50.41452" lon="3.74797">
        <ele>42.43</ele>
        <time>2021-03-20T18:18:15Z</time>
      </trkpt>
      <trkpt lat="50.4191" lon="3.74301">
        <ele>34.14</ele>
        <time>2021-03-20T18:18:20Z</time>
      </trkpt>
      <trkpt lat="50.41958" lon="3.74242">
        <ele>35</ele>
        <time>2021-03-20T18:18:24Z</time>
      </trkpt>
      <trkpt lat="50.41995" lon="3.74195">
        <ele>34.97</ele>
        <time>2021-03-20T18:18:29Z</time>
      </trkpt>
      <trkpt lat="50.42057" lon="3.74101">
        <ele>38.94</ele>
        <time>2021-03-20T18:18:34Z</time>
      </trkpt>
      <trkpt lat="50.42102" lon="3.74018">
        <ele>37.93</ele>
        <time>2021-03-20T18:18:39Z</time>
      </trkpt>
      <trkpt lat="50.42164" lon="3.73873">
        <ele>32.99</ele>
        <time>2021-03-20T18:18:43Z</time>
      </trkpt>
      <trkpt lat="50.42482" lon="3.73082">
        <ele>25</ele>
        <time>2021-03-20T18:18:48Z</time>
      </trkpt>
      <trkpt lat="50.42513" lon="3.73023">
        <ele>24</ele>
        <time>2021-03-20T18:18:53Z</time>
      </trkpt>
      <trkpt lat="50.42547" lon="3.72945">
        <ele>24</ele>
        <time>2021-03-20T18:18:57Z</time>
      </trkpt>
      <trkpt lat="50.42552" lon="3.72937">
        <ele>24.23</ele>
        <time>2021-03-20T18:19:02Z</time>
      </trkpt>
      <trkpt lat="50.42564" lon="3.72928">
        <ele>24.9</ele>
        <time>2021-03-20T18:19:07Z</time>
      </trkpt>
      <trkpt lat="50.42575" lon="3.72935">
        <ele>25.04</ele>
        <time>2021-03-20T18:19:16Z</time>
      </trkpt>
      <trkpt lat="50.42589" lon="3.72935">
        <ele>25.35</ele>
        <time>2021-03-20T18:19:24Z</time>
      </trkpt>
      <trkpt lat="50.42601" lon="3.72925">
        <ele>25.7</ele>
        <time>2021-03-20T18:19:33Z</time>
      </trkpt>
      <trkpt lat="50.42608" lon="3.72914">
        <ele>26</ele>
        <time>2021-03-20T18:19:42Z</time>
      </trkpt>
      <trkpt lat="50.42612" lon="3.72904">
        <ele>25.98</ele>
        <time>2021-03-20T18:19:50Z</time>
      </trkpt>
      <trkpt lat="50.42623" lon="3.72898">
        <ele>25.57</ele>
        <time>2021-03-20T18:19:59Z</time>
      </trkpt>
      <trkpt lat="50.42659" lon="3.72898">
        <ele>24.28</ele>
        <time>2021-03-20T18:20:08Z</time>
      </trkpt>
      <trkpt lat="50.42799" lon="3.72874">
        <ele>25.28</ele>
        <time>2021-03-20T18:20:17Z</time>
      </trkpt>
      <trkpt lat="50.44349" lon="3.72906">
        <ele>19.45</ele>
        <time>2021-03-20T18:20:25Z</time>
      </trkpt>
      <trkpt lat="50.44747" lon="3.72918">
        <ele>21.88</ele>
        <time>2021-03-20T18:20:34Z</time>
      </trkpt>
      <trkpt lat="50.44785" lon="3.72927">
        <ele>21.83</ele>
        <time>2021-03-20T18:20:43Z</time>
      </trkpt>
      <trkpt lat="50.44853" lon="3.72934">
        <ele>21.62</ele>
        <time>2021-03-20T18:20:52Z</time>
      </trkpt>
      <trkpt lat="50.44977" lon="3.72939">
        <ele>21.98</ele>
        <time>2021-03-20T18:21:00Z</time>
      </trkpt>
      <trkpt lat="50.45289" lon="3.72942">
        <ele>20.4</ele>
        <time>2021-03-20T18:21:09Z</time>
      </trkpt>
      <trkpt lat="50.45354" lon="3.72939">
        <ele>19.24</ele>
        <time>2021-03-20T18:21:18Z</time>
      </trkpt>
      <trkpt lat="50.45376" lon="3.72928">
        <ele>19</ele>
        <time>2021-03-20T18:21:26Z</time>
      </trkpt>
      <trkpt lat="50.45459" lon="3.72927">
        <ele>21.4</ele>
        <time>2021-03-20T18:21:35Z</time>
      </trkpt>
      <trkpt lat="50.45527" lon="3.72928">
        <ele>20.42</ele>
        <time>2021-03-20T18:21:44Z</time>
      </trkpt>
      <trkpt lat="50.45947" lon="3.72937">
        <ele>19.75</ele>
        <time>2021-03-20T18:21:53Z</time>
      </trkpt>
      <trkpt lat="50.46019" lon="3.72941">
        <ele>19.88</ele>
        <time>2021-03-20T18:22:01Z</time>
      </trkpt>
      <trkpt lat="50.46039" lon="3.72944">
        <ele>20</ele>
        <time>2021-03-20T18:22:10Z</time>
      </trkpt>
      <trkpt lat="50.46116" lon="3.72972">
        <ele>22.19</ele>
        <time>2021-03-20T18:22:19Z</time>
      </trkpt>
      <trkpt lat="50.46167" lon="3.73">
        <ele>23</ele>
        <time>2021-03-20T18:22:28Z</time>
      </trkpt>
      <trkpt lat="50.46232" lon="3.73049">
        <ele>23.42</ele>
        <time>2021-03-20T18:22:36Z</time>
      </trkpt>
      <trkpt lat="50.46254" lon="3.73071">
        <ele>23.06</ele>
        <time>2021-03-20T18:22:45Z</time>
      </trkpt>
      <trkpt lat="50.46298" lon="3.73122">
        <ele>22.73</ele>
        <time>2021-03-20T18:22:54Z</time>
      </trkpt>
      <trkpt lat="50.46341" lon="3.73207">
        <ele>22.94</ele>
        <time>2021-03-20T18:22:55Z</time>
      </trkpt>
      <trkpt lat="50.4635" lon="3.73242">
        <ele>22.76</ele>
        <time>2021-03-20T18:22:55Z</time>
      </trkpt>
      <trkpt lat="50.46351" lon="3.7326">
        <ele>22.43</ele>
        <time>2021-03-20T18:22:56Z</time>
      </trkpt>
      <trkpt lat="50.46351" lon="3.73276">
        <ele>22.03</ele>
        <time>2021-03-20T18:22:57Z</time>
      </trkpt>
      <trkpt lat="50.46348" lon="3.73293">
        <ele>22</ele>
        <time>2021-03-20T18:22:58Z</time>
      </trkpt>
      <trkpt lat="50.46343" lon="3.73306">
        <ele>22</ele>
        <time>2021-03-20T18:22:58Z</time>
      </trkpt>
      <trkpt lat="50.46335" lon="3.73319">
        <ele>21.97</ele>
        <time>2021-03-20T18:22:59Z</time>
      </trkpt>
      <trkpt lat="50.46326" lon="3.73328">
        <ele>21.74</ele>
        <time>2021-03-20T18:23:00Z</time>
      </trkpt>
      <trkpt lat="50.46319" lon="3.73334">
        <ele>21.49</ele>
        <time>2021-03-20T18:23:01Z</time>
      </trkpt>
      <trkpt lat="50.46302" lon="3.73337">
        <ele>21</ele>
        <time>2021-03-20T18:23:01Z</time>
      </trkpt>
      <trkpt lat="50.46294" lon="3.73335">
        <ele>21</ele>
        <time>2021-03-20T18:23:02Z</time>
      </trkpt>
      <trkpt lat="50.46284" lon="3.7333">
        <ele>20.91</ele>
        <time>2021-03-20T18:23:03Z</time>
      </trkpt>
      <trkpt lat="50.46296" lon="3.7334">
        <ele>21</ele>
        <time>2021-03-20T18:23:08Z</time>
      </trkpt>
      <trkpt lat="50.4631" lon="3.73348">
        <ele>21.07</ele>
        <time>2021-03-20T18:23:13Z</time>
      </trkpt>
      <trkpt lat="50.46341" lon="3.7336">
        <ele>20.77</ele>
        <time>2021-03-20T18:23:18Z</time>
      </trkpt>
      <trkpt lat="50.4638" lon="3.73381">
        <ele>19.29</ele>
        <time>2021-03-20T18:23:23Z</time>
      </trkpt>
      <trkpt lat="50.46397" lon="3.73395">
        <ele>18.77</ele>
        <time>2021-03-20T18:23:28Z</time>
      </trkpt>
      <trkpt lat="50.4641" lon="3.73411">
        <ele>18.84</ele>
        <time>2021-03-20T18:23:33Z</time>
      </trkpt>
      <trkpt lat="50.46424" lon="3.7343">
        <ele>19.47</ele>
        <time>2021-03-20T18:23:38Z</time>
      </trkpt>
      <trkpt lat="50.46448" lon="3.73477">
        <ele>20.17</ele>
        <time>2021-03-20T18:23:43Z</time>
      </trkpt>
      <trkpt lat="50.4646" lon="3.73505">
        <ele>21.12</ele>
        <time>2021-03-20T18:23:47Z</time>
      </trkpt>
      <trkpt lat="50.46494" lon="3.73607">
        <ele>21.87</ele>
        <time>2021-03-20T18:23:52Z</time>
      </trkpt>
      <trkpt lat="50.46558" lon="3.73926">
        <ele>23.87</ele>
        <time>2021-03-20T18:23:57Z</time>
      </trkpt>
      <trkpt lat="50.46742" lon="3.74801">
        <ele>24.71</ele>
        <time>2021-03-20T18:24:02Z</time>
      </trkpt>
      <trkpt lat="50.46967" lon="3.74632">
        <ele>29.8</ele>
        <time>2021-03-20T18:24:08Z</time>
      </trkpt>
      <trkpt lat="50.47001" lon="3.74608">
        <ele>29.19</ele>
        <time>2021-03-20T18:24:14Z</time>
      </trkpt>
      <trkpt lat="50.4705" lon="3.74577">
        <ele>31.63</ele>
        <time>2021-03-20T18:24:20Z</time>
      </trkpt>
      <trkpt lat="50.47099" lon="3.7455">
        <ele>34.34</ele>
        <time>2021-03-20T18:24:26Z</time>
      </trkpt>
      <trkpt lat="50.47164" lon="3.74508">
        <ele>36.79</ele>
        <time>2021-03-20T18:24:32Z</time>
      </trkpt>
      <trkpt lat="50.47313" lon="3.74426">
        <ele>36.68</ele>
        <time>2021-03-20T18:24:38Z</time>
      </trkpt>
      <trkpt lat="50.47411" lon="3.74363">
        <ele>39.95</ele>
        <time>2021-03-20T18:24:45Z</time>
      </trkpt>
      <trkpt lat="50.475" lon="3.74297">
        <ele>39.31</ele>
        <time>2021-03-20T18:24:51Z</time>
      </trkpt>
      <trkpt lat="50.47575" lon="3.74226">
        <ele>37.48</ele>
        <time>2021-03-20T18:24:57Z</time>
      </trkpt>
      <trkpt lat="50.47646" lon="3.74149">
        <ele>39.4</ele>
        <time>2021-03-20T18:25:03Z</time>
      </trkpt>
      <trkpt lat="50.47711" lon="3.74061">
        <ele>39.89</ele>
        <time>2021-03-20T18:25:09Z</time>
      </trkpt>
      <trkpt lat="50.47747" lon="3.74009">
        <ele>40.73</ele>
        <time>2021-03-20T18:25:15Z</time>
      </trkpt>
      <trkpt lat="50.47818" lon="3.73886">
        <ele>41.1</ele>
        <time>2021-03-20T18:25:21Z</time>
      </trkpt>
      <trkpt lat="50.47881" lon="3.73754">
        <ele>43.32</ele>
        <time>2021-03-20T18:25:27Z</time>
      </trkpt>
      <trkpt lat="50.47908" lon="3.73689">
        <ele>42.63</ele>
        <time>2021-03-20T18:25:33Z</time>
      </trkpt>
      <trkpt lat="50.47934" lon="3.73618">
        <ele>42</ele>
        <time>2021-03-20T18:25:39Z</time>
      </trkpt>
      <trkpt lat="50.47958" lon="3.73545">
        <ele>42.68</ele>
        <time>2021-03-20T18:25:45Z</time>
      </trkpt>
      <trkpt lat="50.48002" lon="3.73398">
        <ele>45.26</ele>
        <time>2021-03-20T18:25:51Z</time>
      </trkpt>
      <trkpt lat="50.4806" lon="3.73173">
        <ele>51.21</ele>
        <time>2021-03-20T18:25:57Z</time>
      </trkpt>
      <trkpt lat="50.48779" lon="3.70296">
        <ele>46.68</ele>
        <time>2021-03-20T18:26:03Z</time>
      </trkpt>
      <trkpt lat="50.4884" lon="3.70075">
        <ele>48.77</ele>
        <time>2021-03-20T18:26:09Z</time>
      </trkpt>
      <trkpt lat="50.48881" lon="3.69933">
        <ele>47.29</ele>
        <time>2021-03-20T18:26:15Z</time>
      </trkpt>
      <trkpt lat="50.48959" lon="3.69682">
        <ele>53.05</ele>
        <time>2021-03-20T18:26:21Z</time>
      </trkpt>
      <trkpt lat="50.49029" lon="3.69472">
        <ele>55.13</ele>
        <time>2021-03-20T18:26:27Z</time>
      </trkpt>
      <trkpt lat="50.49061" lon="3.69381">
        <ele>55.88</ele>
        <time>2021-03-20T18:26:33Z</time>
      </trkpt>
      <trkpt lat="50.4916" lon="3.69115">
        <ele>59.42</ele>
        <time>2021-03-20T18:26:39Z</time>
      </trkpt>
      <trkpt lat="50.49216" lon="3.6898">
        <ele>60.26</ele>
        <time>2021-03-20T18:26:45Z</time>
      </trkpt>
      <trkpt lat="50.49244" lon="3.68918">
        <ele>61.39</ele>
        <time>2021-03-20T18:26:51Z</time>
      </trkpt>
      <trkpt lat="50.49305" lon="3.68794">
        <ele>60.97</ele>
        <time>2021-03-20T18:26:57Z</time>
      </trkpt>
      <trkpt lat="50.49373" lon="3.68678">
        <ele>59.75</ele>
        <time>2021-03-20T18:27:03Z</time>
      </trkpt>
      <trkpt lat="50.49408" lon="3.68626">
        <ele>58.3</ele>
        <time>2021-03-20T18:27:09Z</time>
      </trkpt>
      <trkpt lat="50.49487" lon="3.68525">
        <ele>58.42</ele>
        <time>2021-03-20T18:27:15Z</time>
      </trkpt>
      <trkpt lat="50.49529" lon="3.68477">
        <ele>60.25</ele>
        <time>2021-03-20T18:27:21Z</time>
      </trkpt>
      <trkpt lat="50.49572" lon="3.68434">
        <ele>58.98</ele>
        <time>2021-03-20T18:27:27Z</time>
      </trkpt>
      <trkpt lat="50.49661" lon="3.68358">
        <ele>58.63</ele>
        <time>2021-03-20T18:27:33Z</time>
      </trkpt>
      <trkpt lat="50.49756" lon="3.68291">
        <ele>59.35</ele>
        <time>2021-03-20T18:27:39Z</time>
      </trkpt>
      <trkpt lat="50.4985" lon="3.68233">
        <ele>58.39</ele>
        <time>2021-03-20T18:27:45Z</time>
      </trkpt>
      <trkpt lat="50.50253" lon="3.67996">
        <ele>47.65</ele>
        <time>2021-03-20T18:27:51Z</time>
      </trkpt>
      <trkpt lat="50.50342" lon="3.67936">
        <ele>46.78</ele>
        <time>2021-03-20T18:27:57Z</time>
      </trkpt>
      <trkpt lat="50.50434" lon="3.67867">
        <ele>47.87</ele>
        <time>2021-03-20T18:28:03Z</time>
      </trkpt>
      <trkpt lat="50.50519" lon="3.67792">
        <ele>47.38</ele>
        <time>2021-03-20T18:28:09Z</time>
      </trkpt>
      <trkpt lat="50.50561" lon="3.67751">
        <ele>48.84</ele>
        <time>2021-03-20T18:28:15Z</time>
      </trkpt>
      <trkpt lat="50.50603" lon="3.67707">
        <ele>47.66</ele>
        <time>2021-03-20T18:28:21Z</time>
      </trkpt>
      <trkpt lat="50.50643" lon="3.6766">
        <ele>47.55</ele>
        <time>2021-03-20T18:28:28Z</time>
      </trkpt>
      <trkpt lat="50.50692" lon="3.67597">
        <ele>48.34</ele>
        <time>2021-03-20T18:28:34Z</time>
      </trkpt>
      <trkpt lat="50.50732" lon="3.67537">
        <ele>49.64</ele>
        <time>2021-03-20T18:28:40Z</time>
      </trkpt>
      <trkpt lat="50.50767" lon="3.67478">
        <ele>45.69</ele>
        <time>2021-03-20T18:28:46Z</time>
      </trkpt>
      <trkpt lat="50.508" lon="3.67413">
        <ele>46</ele>
        <time>2021-03-20T18:28:52Z</time>
      </trkpt>
      <trkpt lat="50.50829" lon="3.67351">
        <ele>47.37</ele>
        <time>2021-03-20T18:28:58Z</time>
      </trkpt>
      <trkpt lat="50.5085" lon="3.673">
        <ele>47.6</ele>
        <time>2021-03-20T18:29:04Z</time>
      </trkpt>
      <trkpt lat="50.50861" lon="3.67288">
        <ele>48</ele>
        <time>2021-03-20T18:29:11Z</time>
      </trkpt>
      <trkpt lat="50.50928" lon="3.67142">
        <ele>47.35</ele>
        <time>2021-03-20T18:29:18Z</time>
      </trkpt>
      <trkpt lat="50.5102" lon="3.66952">
        <ele>51.2</ele>
        <time>2021-03-20T18:29:25Z</time>
      </trkpt>
      <trkpt lat="50.51038" lon="3.66919">
        <ele>51.18</ele>
        <time>2021-03-20T18:29:32Z</time>
      </trkpt>
      <trkpt lat="50.51398" lon="3.67528">
        <ele>50.02</ele>
        <time>2021-03-20T18:30:07Z</time>
      </trkpt>
      <trkpt lat="50.5113" lon="3.68122">
        <ele>54</ele>
        <time>2021-03-20T18:30:22Z</time>
      </trkpt>
      <trkpt lat="50.50992" lon="3.6842">
        <ele>55.77</ele>
        <time>2021-03-20T18:30:36Z</time>
      </trkpt>
      <trkpt lat="50.50812" lon="3.68818">
        <ele>57.11</ele>
        <time>2021-03-20T18:30:50Z</time>
      </trkpt>
      <trkpt lat="50.5069" lon="3.69092">
        <ele>57.22</ele>
        <time>2021-03-20T18:31:04Z</time>
      </trkpt>
      <trkpt lat="50.50637" lon="3.69201">
        <ele>56.88</ele>
        <time>2021-03-20T18:31:19Z</time>
      </trkpt>
      <trkpt lat="50.5055" lon="3.69389">
        <ele>53.22</ele>
        <time>2021-03-20T18:31:33Z</time>
      </trkpt>
      <trkpt lat="50.50794" lon="3.69362">
        <ele>60.08</ele>
        <time>2021-03-20T18:31:47Z</time>
      </trkpt>
      <trkpt lat="50.50994" lon="3.69343">
        <ele>57.31</ele>
        <time>2021-03-20T18:32:02Z</time>
      </trkpt>
      <trkpt lat="50.51628" lon="3.69298">
        <ele>56.94</ele>
        <time>2021-03-20T18:32:16Z</time>
      </trkpt>
      <trkpt lat="50.51845" lon="3.69279">
        <ele>55.57</ele>
        <time>2021-03-20T18:32:31Z</time>
      </trkpt>
      <trkpt lat="50.52177" lon="3.69256">
        <ele>58.68</ele>
        <time>2021-03-20T18:32:46Z</time>
      </trkpt>
      <trkpt lat="50.52601" lon="3.69232">
        <ele>61</ele>
        <time>2021-03-20T18:33:00Z</time>
      </trkpt>
      <trkpt lat="50.5316" lon="3.69195">
        <ele>63.53</ele>
        <time>2021-03-20T18:33:15Z</time>
      </trkpt>
      <trkpt lat="50.53193" lon="3.69197">
        <ele>63.99</ele>
        <time>2021-03-20T18:33:29Z</time>
      </trkpt>
      <trkpt lat="50.53213" lon="3.6921">
        <ele>63.71</ele>
        <time>2021-03-20T18:33:44Z</time>
      </trkpt>
      <trkpt lat="50.53279" lon="3.69233">
        <ele>60</ele>
        <time>2021-03-20T18:33:58Z</time>
      </trkpt>
      <trkpt lat="50.53312" lon="3.69246">
        <ele>60.22</ele>
        <time>2021-03-20T18:34:13Z</time>
      </trkpt>
      <trkpt lat="50.53346" lon="3.69249">
        <ele>60.55</ele>
        <time>2021-03-20T18:34:28Z</time>
      </trkpt>
      <trkpt lat="50.53499" lon="3.69203">
        <ele>60.31</ele>
        <time>2021-03-20T18:34:42Z</time>
      </trkpt>
      <trkpt lat="50.53589" lon="3.69173">
        <ele>60</ele>
        <time>2021-03-20T18:34:57Z</time>
      </trkpt>
      <trkpt lat="50.53718" lon="3.69148">
        <ele>60.47</ele>
        <time>2021-03-20T18:35:11Z</time>
      </trkpt>
      <trkpt lat="50.54093" lon="3.69121">
        <ele>62.29</ele>
        <time>2021-03-20T18:35:26Z</time>
      </trkpt>
      <trkpt lat="50.54232" lon="3.69108">
        <ele>64.54</ele>
        <time>2021-03-20T18:35:40Z</time>
      </trkpt>
      <trkpt lat="50.54861" lon="3.69062">
        <ele>76.98</ele>
        <time>2021-03-20T18:35:55Z</time>
      </trkpt>
      <trkpt lat="50.55244" lon="3.69048">
        <ele>63.37</ele>
        <time>2021-03-20T18:36:09Z</time>
      </trkpt>
      <trkpt lat="50.5576" lon="3.6902">
        <ele>66.65</ele>
        <time>2021-03-20T18:36:24Z</time>
      </trkpt>
      <trkpt lat="50.55842" lon="3.69013">
        <ele>65.32</ele>
        <time>2021-03-20T18:36:39Z</time>
      </trkpt>
      <trkpt lat="50.55847" lon="3.68989">
        <ele>64.41</ele>
        <time>2021-03-20T18:36:44Z</time>
      </trkpt>
      <trkpt lat="50.55971" lon="3.68686">
        <ele>61.33</ele>
        <time>2021-03-20T18:36:50Z</time>
      </trkpt>
      <trkpt lat="50.5603" lon="3.68535">
        <ele>61.85</ele>
        <time>2021-03-20T18:36:55Z</time>
      </trkpt>
      <trkpt lat="50.56187" lon="3.67952">
        <ele>59.73</ele>
        <time>2021-03-20T18:37:00Z</time>
      </trkpt>
      <trkpt lat="50.56196" lon="3.67924">
        <ele>59.31</ele>
        <time>2021-03-20T18:37:06Z</time>
      </trkpt>
      <trkpt lat="50.5626" lon="3.67775">
        <ele>57.63</ele>
        <time>2021-03-20T18:37:11Z</time>
      </trkpt>
      <trkpt lat="50.56273" lon="3.67735">
        <ele>57.18</ele>
        <time>2021-03-20T18:37:17Z</time>
      </trkpt>
      <trkpt lat="50.56276" lon="3.67691">
        <ele>58</ele>
        <time>2021-03-20T18:37:22Z</time>
      </trkpt>
      <trkpt lat="50.56297" lon="3.67691">
        <ele>58</ele>
        <time>2021-03-20T18:37:28Z</time>
      </trkpt>
      <trkpt lat="50.56376" lon="3.67781">
        <ele>55.92</ele>
        <time>2021-03-20T18:37:34Z</time>
      </trkpt>
      <trkpt lat="50.56476" lon="3.67874">
        <ele>55.92</ele>
        <time>2021-03-20T18:37:40Z</time>
      </trkpt>
      <trkpt lat="50.56535" lon="3.67901">
        <ele>55.27</ele>
        <time>2021-03-20T18:37:46Z</time>
      </trkpt>
      <trkpt lat="50.56801" lon="3.68037">
        <ele>58.95</ele>
        <time>2021-03-20T18:37:52Z</time>
      </trkpt>
      <trkpt lat="50.56833" lon="3.68046">
        <ele>58.66</ele>
        <time>2021-03-20T18:37:58Z</time>
      </trkpt>
      <trkpt lat="50.56858" lon="3.68048">
        <ele>58.73</ele>
        <time>2021-03-20T18:38:04Z</time>
      </trkpt>
      <trkpt lat="50.5697" lon="3.68036">
        <ele>57.26</ele>
        <time>2021-03-20T18:38:10Z</time>
      </trkpt>
      <trkpt lat="50.56984" lon="3.68038">
        <ele>57.63</ele>
        <time>2021-03-20T18:38:16Z</time>
      </trkpt>
      <trkpt lat="50.57085" lon="3.68071">
        <ele>57</ele>
        <time>2021-03-20T18:38:22Z</time>
      </trkpt>
      <trkpt lat="50.57248" lon="3.68145">
        <ele>54.8</ele>
        <time>2021-03-20T18:38:27Z</time>
      </trkpt>
      <trkpt lat="50.57331" lon="3.68187">
        <ele>54.07</ele>
        <time>2021-03-20T18:38:33Z</time>
      </trkpt>
      <trkpt lat="50.57358" lon="3.68211">
        <ele>52.76</ele>
        <time>2021-03-20T18:38:39Z</time>
      </trkpt>
      <trkpt lat="50.57525" lon="3.68374">
        <ele>51.11</ele>
        <time>2021-03-20T18:38:45Z</time>
      </trkpt>
      <trkpt lat="50.57561" lon="3.68399">
        <ele>49.82</ele>
        <time>2021-03-20T18:38:51Z</time>
      </trkpt>
      <trkpt lat="50.57624" lon="3.68434">
        <ele>48.64</ele>
        <time>2021-03-20T18:38:57Z</time>
      </trkpt>
      <trkpt lat="50.57817" lon="3.68513">
        <ele>50.41</ele>
        <time>2021-03-20T18:39:03Z</time>
      </trkpt>
      <trkpt lat="50.57924" lon="3.6858">
        <ele>50</ele>
        <time>2021-03-20T18:39:09Z</time>
      </trkpt>
      <trkpt lat="50.58023" lon="3.68653">
        <ele>52.33</ele>
        <time>2021-03-20T18:39:15Z</time>
      </trkpt>
      <trkpt lat="50.58352" lon="3.68911">
        <ele>53.34</ele>
        <time>2021-03-20T18:39:21Z</time>
      </trkpt>
      <trkpt lat="50.58404" lon="3.68961">
        <ele>54.06</ele>
        <time>2021-03-20T18:39:27Z</time>
      </trkpt>
      <trkpt lat="50.58471" lon="3.6904">
        <ele>53.02</ele>
        <time>2021-03-20T18:39:33Z</time>
      </trkpt>
      <trkpt lat="50.58495" lon="3.69065">
        <ele>52.16</ele>
        <time>2021-03-20T18:39:38Z</time>
      </trkpt>
      <trkpt lat="50.58523" lon="3.69084">
        <ele>52.85</ele>
        <time>2021-03-20T18:39:44Z</time>
      </trkpt>
      <trkpt lat="50.58635" lon="3.69149">
        <ele>51.43</ele>
        <time>2021-03-20T18:39:50Z</time>
      </trkpt>
      <trkpt lat="50.58657" lon="3.69156">
        <ele>51.22</ele>
        <time>2021-03-20T18:39:56Z</time>
      </trkpt>
      <trkpt lat="50.58891" lon="3.69187">
        <ele>48.74</ele>
        <time>2021-03-20T18:40:02Z</time>
      </trkpt>
      <trkpt lat="50.58944" lon="3.69201">
        <ele>49</ele>
        <time>2021-03-20T18:40:08Z</time>
      </trkpt>
      <trkpt lat="50.58942" lon="3.69224">
        <ele>49</ele>
        <time>2021-03-20T18:40:13Z</time>
      </trkpt>
      <trkpt lat="50.59015" lon="3.69361">
        <ele>50</ele>
        <time>2021-03-20T18:40:18Z</time>
      </trkpt>
      <trkpt lat="50.59065" lon="3.6948">
        <ele>49.83</ele>
        <time>2021-03-20T18:40:23Z</time>
      </trkpt>
      <trkpt lat="50.5909" lon="3.69533">
        <ele>50.05</ele>
        <time>2021-03-20T18:40:28Z</time>
      </trkpt>
      <trkpt lat="50.59148" lon="3.69641">
        <ele>50.94</ele>
        <time>2021-03-20T18:40:33Z</time>
      </trkpt>
      <trkpt lat="50.59165" lon="3.69663">
        <ele>50.13</ele>
        <time>2021-03-20T18:40:39Z</time>
      </trkpt>
      <trkpt lat="50.5933" lon="3.69828">
        <ele>48.71</ele>
        <time>2021-03-20T18:40:44Z</time>
      </trkpt>
      <trkpt lat="50.59366" lon="3.69875">
        <ele>49.08</ele>
        <time>2021-03-20T18:40:49Z</time>
      </trkpt>
      <trkpt lat="50.5939" lon="3.69915">
        <ele>49.07</ele>
        <time>2021-03-20T18:40:54Z</time>
      </trkpt>
      <trkpt lat="50.59508" lon="3.70174">
        <ele>46.3</ele>
        <time>2021-03-20T18:40:59Z</time>
      </trkpt>
      <trkpt lat="50.59556" lon="3.70294">
        <ele>46</ele>
        <time>2021-03-20T18:41:04Z</time>
      </trkpt>
      <trkpt lat="50.59573" lon="3.70329">
        <ele>46</ele>
        <time>2021-03-20T18:41:09Z</time>
      </trkpt>
      <trkpt lat="50.59688" lon="3.7054">
        <ele>44.31</ele>
        <time>2021-03-20T18:41:14Z</time>
      </trkpt>
      <trkpt lat="50.59743" lon="3.70539">
        <ele>45.15</ele>
        <time>2021-03-20T18:41:18Z</time>
      </trkpt>
      <trkpt lat="50.59811" lon="3.70554">
        <ele>44.6</ele>
        <time>2021-03-20T18:41:22Z</time>
      </trkpt>
      <trkpt lat="50.59842" lon="3.70575">
        <ele>43.31</ele>
        <time>2021-03-20T18:41:25Z</time>
      </trkpt>
      <trkpt lat="50.59888" lon="3.70615">
        <ele>44.84</ele>
        <time>2021-03-20T18:41:29Z</time>
      </trkpt>
      <trkpt lat="50.59935" lon="3.70651">
        <ele>44.21</ele>
        <time>2021-03-20T18:41:33Z</time>
      </trkpt>
      <trkpt lat="50.60047" lon="3.70752">
        <ele>42.68</ele>
        <time>2021-03-20T18:41:37Z</time>
      </trkpt>
      <trkpt lat="50.60171" lon="3.7084">
        <ele>43.86</ele>
        <time>2021-03-20T18:41:41Z</time>
      </trkpt>
      <trkpt lat="50.60368" lon="3.70976">
        <ele>47.02</ele>
        <time>2021-03-20T18:41:44Z</time>
      </trkpt>
      <trkpt lat="50.60427" lon="3.70998">
        <ele>46.08</ele>
        <time>2021-03-20T18:41:48Z</time>
      </trkpt>
      <trkpt lat="50.60484" lon="3.71013">
        <ele>46.24</ele>
        <time>2021-03-20T18:41:52Z</time>
      </trkpt>
      <trkpt lat="50.6071" lon="3.70992">
        <ele>46.55</ele>
        <time>2021-03-20T18:41:56Z</time>
      </trkpt>
      <trkpt lat="50.60775" lon="3.70995">
        <ele>44.74</ele>
        <time>2021-03-20T18:41:59Z</time>
      </trkpt>
      <trkpt lat="50.60823" lon="3.70989">
        <ele>44.17</ele>
        <time>2021-03-20T18:42:03Z</time>
      </trkpt>
      <trkpt lat="50.60876" lon="3.70963">
        <ele>41.65</ele>
        <time>2021-03-20T18:42:07Z</time>
      </trkpt>
      <trkpt lat="50.60901" lon="3.70963">
        <ele>41.21</ele>
        <time>2021-03-20T18:42:11Z</time>
      </trkpt>
      <trkpt lat="50.60939" lon="3.70985">
        <ele>41.1</ele>
        <time>2021-03-20T18:42:14Z</time>
      </trkpt>
      <trkpt lat="50.61013" lon="3.71051">
        <ele>41.79</ele>
        <time>2021-03-20T18:42:18Z</time>
      </trkpt>
      <trkpt lat="50.61087" lon="3.71124">
        <ele>40.79</ele>
        <time>2021-03-20T18:42:22Z</time>
      </trkpt>
      <trkpt lat="50.61109" lon="3.7116">
        <ele>40.81</ele>
        <time>2021-03-20T18:42:26Z</time>
      </trkpt>
      <trkpt lat="50.61153" lon="3.71221">
        <ele>41.44</ele>
        <time>2021-03-20T18:42:30Z</time>
      </trkpt>
      <trkpt lat="50.61377" lon="3.71272">
        <ele>43.44</ele>
        <time>2021-03-20T18:42:33Z</time>
      </trkpt>
      <trkpt lat="50.61416" lon="3.71276">
        <ele>42.91</ele>
        <time>2021-03-20T18:42:37Z</time>
      </trkpt>
      <trkpt lat="50.61443" lon="3.71267">
        <ele>42.85</ele>
        <time>2021-03-20T18:42:41Z</time>
      </trkpt>
      <trkpt lat="50.61541" lon="3.71228">
        <ele>39.3</ele>
        <time>2021-03-20T18:42:45Z</time>
      </trkpt>
      <trkpt lat="50.61578" lon="3.71218">
        <ele>39.64</ele>
        <time>2021-03-20T18:42:48Z</time>
      </trkpt>
      <trkpt lat="50.61598" lon="3.71207">
        <ele>39.46</ele>
        <time>2021-03-20T18:42:52Z</time>
      </trkpt>
      <trkpt lat="50.61627" lon="3.71183">
        <ele>39</ele>
        <time>2021-03-20T18:42:56Z</time>
      </trkpt>
      <trkpt lat="50.61658" lon="3.71149">
        <ele>39.41</ele>
        <time>2021-03-20T18:43:00Z</time>
      </trkpt>
      <trkpt lat="50.617" lon="3.71093">
        <ele>40.44</ele>
        <time>2021-03-20T18:43:04Z</time>
      </trkpt>
      <trkpt lat="50.61718" lon="3.71063">
        <ele>40.24</ele>
        <time>2021-03-20T18:43:07Z</time>
      </trkpt>
      <trkpt lat="50.61731" lon="3.71036">
        <ele>40.39</ele>
        <time>2021-03-20T18:43:11Z</time>
      </trkpt>
      <trkpt lat="50.61744" lon="3.71">
        <ele>41.21</ele>
        <time>2021-03-20T18:43:15Z</time>
      </trkpt>
      <trkpt lat="50.61749" lon="3.70972">
        <ele>42.02</ele>
        <time>2021-03-20T18:43:19Z</time>
      </trkpt>
      <trkpt lat="50.61754" lon="3.70934">
        <ele>42.74</ele>
        <time>2021-03-20T18:43:22Z</time>
      </trkpt>
      <trkpt lat="50.61762" lon="3.70896">
        <ele>42.55</ele>
        <time>2021-03-20T18:43:26Z</time>
      </trkpt>
      <trkpt lat="50.61773" lon="3.70863">
        <ele>42.76</ele>
        <time>2021-03-20T18:43:30Z</time>
      </trkpt>
      <trkpt lat="50.61803" lon="3.70792">
        <ele>42.9</ele>
        <time>2021-03-20T18:43:34Z</time>
      </trkpt>
      <trkpt lat="50.61855" lon="3.70682">
        <ele>42.85</ele>
        <time>2021-03-20T18:43:38Z</time>
      </trkpt>
      <trkpt lat="50.61861" lon="3.70661">
        <ele>43.02</ele>
        <time>2021-03-20T18:43:41Z</time>
      </trkpt>
      <trkpt lat="50.62039" lon="3.70545">
        <ele>38.59</ele>
        <time>2021-03-20T18:43:45Z</time>
      </trkpt>
      <trkpt lat="50.62079" lon="3.70498">
        <ele>37.95</ele>
        <time>2021-03-20T18:43:49Z</time>
      </trkpt>
      <trkpt lat="50.6209" lon="3.70489">
        <ele>37.46</ele>
        <time>2021-03-20T18:43:53Z</time>
      </trkpt>
      <trkpt lat="50.62133" lon="3.70464">
        <ele>37.77</ele>
        <time>2021-03-20T18:43:56Z</time>
      </trkpt>
      <trkpt lat="50.62148" lon="3.70461">
        <ele>38</ele>
        <time>2021-03-20T18:44:00Z</time>
      </trkpt>
      <trkpt lat="50.62178" lon="3.70477">
        <ele>37.89</ele>
        <time>2021-03-20T18:44:04Z</time>
      </trkpt>
      <trkpt lat="50.62213" lon="3.70438">
        <ele>38.74</ele>
        <time>2021-03-20T18:44:08Z</time>
      </trkpt>
      <trkpt lat="50.62227" lon="3.70427">
        <ele>39.12</ele>
        <time>2021-03-20T18:44:12Z</time>
      </trkpt>
      <trkpt lat="50.62269" lon="3.70402">
        <ele>40.35</ele>
        <time>2021-03-20T18:44:15Z</time>
      </trkpt>
      <trkpt lat="50.62451" lon="3.70305">
        <ele>46.78</ele>
        <time>2021-03-20T18:44:19Z</time>
      </trkpt>
      <trkpt lat="50.62482" lon="3.70302">
        <ele>46</ele>
        <time>2021-03-20T18:44:23Z</time>
      </trkpt>
      <trkpt lat="50.62536" lon="3.70314">
        <ele>45.5</ele>
        <time>2021-03-20T18:44:27Z</time>
      </trkpt>
      <trkpt lat="50.62561" lon="3.70312">
        <ele>44.82</ele>
        <time>2021-03-20T18:44:31Z</time>
      </trkpt>
      <trkpt lat="50.62573" lon="3.70296">
        <ele>44.39</ele>
        <time>2021-03-20T18:44:38Z</time>
      </trkpt>
      <trkpt lat="50.6278" lon="3.69911">
        <ele>47.06</ele>
        <time>2021-03-20T18:44:45Z</time>
      </trkpt>
      <trkpt lat="50.628" lon="3.69892">
        <ele>47.8</ele>
        <time>2021-03-20T18:44:51Z</time>
      </trkpt>
      <trkpt lat="50.62815" lon="3.69882">
        <ele>48.62</ele>
        <time>2021-03-20T18:45:04Z</time>
      </trkpt>
      <trkpt lat="50.63307" lon="3.69973">
        <ele>59.08</ele>
        <time>2021-03-20T18:45:17Z</time>
      </trkpt>
      <trkpt lat="50.63448" lon="3.70012">
        <ele>65.23</ele>
        <time>2021-03-20T18:45:29Z</time>
      </trkpt>
      <trkpt lat="50.63551" lon="3.70024">
        <ele>70.41</ele>
        <time>2021-03-20T18:45:34Z</time>
      </trkpt>
      <trkpt lat="50.63993" lon="3.70089">
        <ele>45.81</ele>
        <time>2021-03-20T18:45:39Z</time>
      </trkpt>
      <trkpt lat="50.64572" lon="3.70197">
        <ele>63.63</ele>
        <time>2021-03-20T18:45:44Z</time>
      </trkpt>
      <trkpt lat="50.64684" lon="3.70203">
        <ele>67.42</ele>
        <time>2021-03-20T18:45:49Z</time>
      </trkpt>
      <trkpt lat="50.64729" lon="3.70202">
        <ele>72.42</ele>
        <time>2021-03-20T18:45:54Z</time>
      </trkpt>
      <trkpt lat="50.64828" lon="3.7023">
        <ele>70.22</ele>
        <time>2021-03-20T18:45:59Z</time>
      </trkpt>
      <trkpt lat="50.6487" lon="3.7024">
        <ele>65.67</ele>
        <time>2021-03-20T18:46:04Z</time>
      </trkpt>
      <trkpt lat="50.64986" lon="3.70262">
        <ele>62.01</ele>
        <time>2021-03-20T18:46:09Z</time>
      </trkpt>
      <trkpt lat="50.6509" lon="3.70266">
        <ele>58.43</ele>
        <time>2021-03-20T18:46:14Z</time>
      </trkpt>
      <trkpt lat="50.65175" lon="3.70265">
        <ele>56.44</ele>
        <time>2021-03-20T18:46:19Z</time>
      </trkpt>
      <trkpt lat="50.65214" lon="3.70268">
        <ele>55.56</ele>
        <time>2021-03-20T18:46:24Z</time>
      </trkpt>
      <trkpt lat="50.6523" lon="3.70278">
        <ele>56.28</ele>
        <time>2021-03-20T18:46:29Z</time>
      </trkpt>
      <trkpt lat="50.65247" lon="3.70293">
        <ele>56.88</ele>
        <time>2021-03-20T18:46:34Z</time>
      </trkpt>
      <trkpt lat="50.65261" lon="3.70302">
        <ele>57</ele>
        <time>2021-03-20T18:46:39Z</time>
      </trkpt>
      <trkpt lat="50.65277" lon="3.70306">
        <ele>57</ele>
        <time>2021-03-20T18:46:44Z</time>
      </trkpt>
      <trkpt lat="50.65292" lon="3.70306">
        <ele>56.49</ele>
        <time>2021-03-20T18:46:49Z</time>
      </trkpt>
      <trkpt lat="50.65318" lon="3.70301">
        <ele>56.81</ele>
        <time>2021-03-20T18:46:54Z</time>
      </trkpt>
      <trkpt lat="50.65352" lon="3.70292">
        <ele>58.17</ele>
        <time>2021-03-20T18:46:59Z</time>
      </trkpt>
      <trkpt lat="50.65409" lon="3.70293">
        <ele>61.05</ele>
        <time>2021-03-20T18:47:04Z</time>
      </trkpt>
      <trkpt lat="50.65528" lon="3.70275">
        <ele>69.89</ele>
        <time>2021-03-20T18:47:09Z</time>
      </trkpt>
      <trkpt lat="50.65545" lon="3.70278">
        <ele>70.63</ele>
        <time>2021-03-20T18:47:14Z</time>
      </trkpt>
      <trkpt lat="50.65637" lon="3.70312">
        <ele>77.16</ele>
        <time>2021-03-20T18:47:19Z</time>
      </trkpt>
      <trkpt lat="50.65703" lon="3.7033">
        <ele>82.46</ele>
        <time>2021-03-20T18:47:24Z</time>
      </trkpt>
      <trkpt lat="50.65728" lon="3.70312">
        <ele>85.42</ele>
        <time>2021-03-20T18:47:29Z</time>
      </trkpt>
      <trkpt lat="50.65757" lon="3.70284">
        <ele>92.43</ele>
        <time>2021-03-20T18:47:34Z</time>
      </trkpt>
      <trkpt lat="50.6578" lon="3.70228">
        <ele>97.47</ele>
        <time>2021-03-20T18:47:39Z</time>
      </trkpt>
      <trkpt lat="50.65785" lon="3.70204">
        <ele>97.74</ele>
        <time>2021-03-20T18:47:44Z</time>
      </trkpt>
      <trkpt lat="50.65786" lon="3.70181">
        <ele>96.95</ele>
        <time>2021-03-20T18:47:49Z</time>
      </trkpt>
      <trkpt lat="50.65782" lon="3.7011">
        <ele>96.49</ele>
        <time>2021-03-20T18:47:54Z</time>
      </trkpt>
      <trkpt lat="50.65783" lon="3.70085">
        <ele>96.4</ele>
        <time>2021-03-20T18:47:59Z</time>
      </trkpt>
      <trkpt lat="50.65791" lon="3.70058">
        <ele>96.95</ele>
        <time>2021-03-20T18:48:04Z</time>
      </trkpt>
      <trkpt lat="50.65812" lon="3.70012">
        <ele>97.11</ele>
        <time>2021-03-20T18:48:09Z</time>
      </trkpt>
      <trkpt lat="50.65893" lon="3.69922">
        <ele>94.79</ele>
        <time>2021-03-20T18:48:14Z</time>
      </trkpt>
      <trkpt lat="50.65951" lon="3.69879">
        <ele>92.47</ele>
        <time>2021-03-20T18:48:19Z</time>
      </trkpt>
      <trkpt lat="50.66033" lon="3.69839">
        <ele>89.18</ele>
        <time>2021-03-20T18:48:24Z</time>
      </trkpt>
      <trkpt lat="50.66169" lon="3.69809">
        <ele>87.07</ele>
        <time>2021-03-20T18:48:29Z</time>
      </trkpt>
      <trkpt lat="50.66414" lon="3.69865">
        <ele>81.94</ele>
        <time>2021-03-20T18:48:34Z</time>
      </trkpt>
      <trkpt lat="50.66471" lon="3.69895">
        <ele>80.78</ele>
        <time>2021-03-20T18:48:39Z</time>
      </trkpt>
      <trkpt lat="50.66626" lon="3.70015">
        <ele>74.68</ele>
        <time>2021-03-20T18:48:44Z</time>
      </trkpt>
      <trkpt lat="50.66742" lon="3.70135">
        <ele>71</ele>
        <time>2021-03-20T18:48:48Z</time>
      </trkpt>
      <trkpt lat="50.67029" lon="3.70372">
        <ele>60.57</ele>
        <time>2021-03-20T18:48:53Z</time>
      </trkpt>
      <trkpt lat="50.67154" lon="3.70468">
        <ele>61.54</ele>
        <time>2021-03-20T18:48:58Z</time>
      </trkpt>
      <trkpt lat="50.67186" lon="3.70501">
        <ele>63.34</ele>
        <time>2021-03-20T18:49:03Z</time>
      </trkpt>
      <trkpt lat="50.67218" lon="3.70557">
        <ele>61.96</ele>
        <time>2021-03-20T18:49:08Z</time>
      </trkpt>
      <trkpt lat="50.67247" lon="3.70651">
        <ele>58.52</ele>
        <time>2021-03-20T18:49:13Z</time>
      </trkpt>
      <trkpt lat="50.67253" lon="3.70668">
        <ele>58.12</ele>
        <time>2021-03-20T18:49:18Z</time>
      </trkpt>
      <trkpt lat="50.67269" lon="3.70693">
        <ele>58.68</ele>
        <time>2021-03-20T18:49:23Z</time>
      </trkpt>
      <trkpt lat="50.67288" lon="3.70712">
        <ele>58.22</ele>
        <time>2021-03-20T18:49:28Z</time>
      </trkpt>
      <trkpt lat="50.67317" lon="3.70729">
        <ele>58</ele>
        <time>2021-03-20T18:49:33Z</time>
      </trkpt>
      <trkpt lat="50.67487" lon="3.70772">
        <ele>56.13</ele>
        <time>2021-03-20T18:49:38Z</time>
      </trkpt>
      <trkpt lat="50.67585" lon="3.7079">
        <ele>50</ele>
        <time>2021-03-20T18:49:43Z</time>
      </trkpt>
      <trkpt lat="50.67711" lon="3.7083">
        <ele>48.32</ele>
        <time>2021-03-20T18:49:48Z</time>
      </trkpt>
      <trkpt lat="50.67743" lon="3.70844">
        <ele>47.25</ele>
        <time>2021-03-20T18:49:53Z</time>
      </trkpt>
      <trkpt lat="50.67878" lon="3.70879">
        <ele>50.98</ele>
        <time>2021-03-20T18:49:58Z</time>
      </trkpt>
      <trkpt lat="50.68129" lon="3.70951">
        <ele>54.68</ele>
        <time>2021-03-20T18:50:03Z</time>
      </trkpt>
      <trkpt lat="50.68155" lon="3.70965">
        <ele>54.42</ele>
        <time>2021-03-20T18:50:08Z</time>
      </trkpt>
      <trkpt lat="50.68222" lon="3.7102">
        <ele>55.02</ele>
        <time>2021-03-20T18:50:13Z</time>
      </trkpt>
      <trkpt lat="50.68249" lon="3.71038">
        <ele>52.13</ele>
        <time>2021-03-20T18:50:18Z</time>
      </trkpt>
      <trkpt lat="50.68609" lon="3.71199">
        <ele>40.94</ele>
        <time>2021-03-20T18:50:23Z</time>
      </trkpt>
      <trkpt lat="50.68759" lon="3.7128">
        <ele>45.6</ele>
        <time>2021-03-20T18:50:28Z</time>
      </trkpt>
      <trkpt lat="50.68782" lon="3.7129">
        <ele>46.74</ele>
        <time>2021-03-20T18:50:33Z</time>
      </trkpt>
      <trkpt lat="50.68809" lon="3.71296">
        <ele>47.43</ele>
        <time>2021-03-20T18:50:38Z</time>
      </trkpt>
      <trkpt lat="50.68833" lon="3.71299">
        <ele>48</ele>
        <time>2021-03-20T18:50:43Z</time>
      </trkpt>
      <trkpt lat="50.68859" lon="3.71297">
        <ele>48</ele>
        <time>2021-03-20T18:50:48Z</time>
      </trkpt>
      <trkpt lat="50.68891" lon="3.71291">
        <ele>45.97</ele>
        <time>2021-03-20T18:50:53Z</time>
      </trkpt>
      <trkpt lat="50.68918" lon="3.7128">
        <ele>45.17</ele>
        <time>2021-03-20T18:50:58Z</time>
      </trkpt>
      <trkpt lat="50.68949" lon="3.71263">
        <ele>47.3</ele>
        <time>2021-03-20T18:51:03Z</time>
      </trkpt>
      <trkpt lat="50.69033" lon="3.71203">
        <ele>51.68</ele>
        <time>2021-03-20T18:51:08Z</time>
      </trkpt>
      <trkpt lat="50.69071" lon="3.71186">
        <ele>54.5</ele>
        <time>2021-03-20T18:51:13Z</time>
      </trkpt>
      <trkpt lat="50.69104" lon="3.71181">
        <ele>56.23</ele>
        <time>2021-03-20T18:51:18Z</time>
      </trkpt>
      <trkpt lat="50.69134" lon="3.71183">
        <ele>58.24</ele>
        <time>2021-03-20T18:51:23Z</time>
      </trkpt>
      <trkpt lat="50.69241" lon="3.71215">
        <ele>64.89</ele>
        <time>2021-03-20T18:51:28Z</time>
      </trkpt>
      <trkpt lat="50.69306" lon="3.71232">
        <ele>68.02</ele>
        <time>2021-03-20T18:51:33Z</time>
      </trkpt>
      <trkpt lat="50.69399" lon="3.71247">
        <ele>64.57</ele>
        <time>2021-03-20T18:51:38Z</time>
      </trkpt>
      <trkpt lat="50.6941" lon="3.71253">
        <ele>64.33</ele>
        <time>2021-03-20T18:51:43Z</time>
      </trkpt>
      <trkpt lat="50.69425" lon="3.71251">
        <ele>64.32</ele>
        <time>2021-03-20T18:51:48Z</time>
      </trkpt>
      <trkpt lat="50.69462" lon="3.71257">
        <ele>65</ele>
        <time>2021-03-20T18:51:53Z</time>
      </trkpt>
      <trkpt lat="50.69528" lon="3.71274">
        <ele>62.86</ele>
        <time>2021-03-20T18:51:58Z</time>
      </trkpt>
      <trkpt lat="50.69648" lon="3.71298">
        <ele>59.76</ele>
        <time>2021-03-20T18:52:03Z</time>
      </trkpt>
      <trkpt lat="50.70134" lon="3.71429">
        <ele>47.64</ele>
        <time>2021-03-20T18:52:08Z</time>
      </trkpt>
      <trkpt lat="50.70431" lon="3.71501">
        <ele>48.44</ele>
        <time>2021-03-20T18:52:13Z</time>
      </trkpt>
      <trkpt lat="50.70557" lon="3.7154">
        <ele>45.14</ele>
        <time>2021-03-20T18:52:18Z</time>
      </trkpt>
      <trkpt lat="50.70928" lon="3.71626">
        <ele>40.4</ele>
        <time>2021-03-20T18:52:23Z</time>
      </trkpt>
      <trkpt lat="50.71329" lon="3.71734">
        <ele>38.83</ele>
        <time>2021-03-20T18:52:28Z</time>
      </trkpt>
      <trkpt lat="50.71726" lon="3.71827">
        <ele>58.35</ele>
        <time>2021-03-20T18:52:33Z</time>
      </trkpt>
      <trkpt lat="50.7175" lon="3.71828">
        <ele>59.18</ele>
        <time>2021-03-20T18:52:38Z</time>
      </trkpt>
      <trkpt lat="50.71795" lon="3.71823">
        <ele>60</ele>
        <time>2021-03-20T18:52:43Z</time>
      </trkpt>
      <trkpt lat="50.71809" lon="3.71824">
        <ele>59.86</ele>
        <time>2021-03-20T18:52:48Z</time>
      </trkpt>
      <trkpt lat="50.721" lon="3.71901">
        <ele>42.61</ele>
        <time>2021-03-20T18:52:53Z</time>
      </trkpt>
      <trkpt lat="50.72275" lon="3.71944">
        <ele>39.91</ele>
        <time>2021-03-20T18:52:58Z</time>
      </trkpt>
      <trkpt lat="50.72562" lon="3.72006">
        <ele>33.57</ele>
        <time>2021-03-20T18:53:03Z</time>
      </trkpt>
      <trkpt lat="50.72708" lon="3.72046">
        <ele>29.33</ele>
        <time>2021-03-20T18:53:08Z</time>
      </trkpt>
      <trkpt lat="50.72775" lon="3.72062">
        <ele>29.09</ele>
        <time>2021-03-20T18:53:13Z</time>
      </trkpt>
      <trkpt lat="50.7282" lon="3.72069">
        <ele>30</ele>
        <time>2021-03-20T18:53:18Z</time>
      </trkpt>
      <trkpt lat="50.73051" lon="3.72083">
        <ele>34.02</ele>
        <time>2021-03-20T18:53:23Z</time>
      </trkpt>
      <trkpt lat="50.73126" lon="3.72086">
        <ele>34.92</ele>
        <time>2021-03-20T18:53:28Z</time>
      </trkpt>
      <trkpt lat="50.73143" lon="3.72084">
        <ele>35.12</ele>
        <time>2021-03-20T18:53:33Z</time>
      </trkpt>
      <trkpt lat="50.73188" lon="3.7207">
        <ele>36.77</ele>
        <time>2021-03-20T18:53:38Z</time>
      </trkpt>
      <trkpt lat="50.73332" lon="3.7199">
        <ele>38.96</ele>
        <time>2021-03-20T18:53:43Z</time>
      </trkpt>
      <trkpt lat="50.73381" lon="3.72212">
        <ele>45.26</ele>
        <time>2021-03-20T18:53:50Z</time>
      </trkpt>
      <trkpt lat="50.7342" lon="3.72219">
        <ele>49.03</ele>
        <time>2021-03-20T18:53:57Z</time>
      </trkpt>
      <trkpt lat="50.73418" lon="3.72104">
        <ele>49.18</ele>
        <time>2021-03-20T18:54:01Z</time>
      </trkpt>
      <trkpt lat="50.73423" lon="3.72046">
        <ele>49.64</ele>
        <time>2021-03-20T18:54:05Z</time>
      </trkpt>
      <trkpt lat="50.7343" lon="3.72021">
        <ele>49.82</ele>
        <time>2021-03-20T18:54:09Z</time>
      </trkpt>
      <trkpt lat="50.73445" lon="3.71979">
        <ele>50.78</ele>
        <time>2021-03-20T18:54:13Z</time>
      </trkpt>
      <trkpt lat="50.73454" lon="3.71946">
        <ele>51.66</ele>
        <time>2021-03-20T18:54:17Z</time>
      </trkpt>
      <trkpt lat="50.73474" lon="3.71793">
        <ele>58.59</ele>
        <time>2021-03-20T18:54:20Z</time>
      </trkpt>
      <trkpt lat="50.73479" lon="3.71768">
        <ele>59.82</ele>
        <time>2021-03-20T18:54:24Z</time>
      </trkpt>
      <trkpt lat="50.7349" lon="3.71725">
        <ele>61.83</ele>
        <time>2021-03-20T18:54:28Z</time>
      </trkpt>
      <trkpt lat="50.73501" lon="3.71698">
        <ele>62.13</ele>
        <time>2021-03-20T18:54:32Z</time>
      </trkpt>
      <trkpt lat="50.73506" lon="3.71689">
        <ele>62.07</ele>
        <time>2021-03-20T18:54:36Z</time>
      </trkpt>
      <trkpt lat="50.73555" lon="3.71652">
        <ele>64.45</ele>
        <time>2021-03-20T18:54:40Z</time>
      </trkpt>
      <trkpt lat="50.73573" lon="3.71633">
        <ele>66.41</ele>
        <time>2021-03-20T18:54:43Z</time>
      </trkpt>
      <trkpt lat="50.73584" lon="3.716">
        <ele>68.41</ele>
        <time>2021-03-20T18:54:47Z</time>
      </trkpt>
      <trkpt lat="50.73588" lon="3.71581">
        <ele>69.18</ele>
        <time>2021-03-20T18:54:51Z</time>
      </trkpt>
      <trkpt lat="50.73628" lon="3.71608">
        <ele>69.71</ele>
        <time>2021-03-20T18:54:54Z</time>
      </trkpt>
      <trkpt lat="50.73697" lon="3.7165">
        <ele>69.9</ele>
        <time>2021-03-20T18:54:57Z</time>
      </trkpt>
      <trkpt lat="50.73705" lon="3.71656">
        <ele>69.61</ele>
        <time>2021-03-20T18:55:00Z</time>
      </trkpt>
      <trkpt lat="50.73743" lon="3.71705">
        <ele>68.07</ele>
        <time>2021-03-20T18:55:03Z</time>
      </trkpt>
      <trkpt lat="50.7378" lon="3.71761">
        <ele>64.06</ele>
        <time>2021-03-20T18:55:06Z</time>
      </trkpt>
      <trkpt lat="50.73797" lon="3.71778">
        <ele>62.31</ele>
        <time>2021-03-20T18:55:09Z</time>
      </trkpt>
      <trkpt lat="50.73827" lon="3.71795">
        <ele>60.45</ele>
        <time>2021-03-20T18:55:12Z</time>
      </trkpt>
      <trkpt lat="50.73837" lon="3.71798">
        <ele>59.73</ele>
        <time>2021-03-20T18:55:15Z</time>
      </trkpt>
      <trkpt lat="50.7385" lon="3.71794">
        <ele>58.78</ele>
        <time>2021-03-20T18:55:18Z</time>
      </trkpt>
      <trkpt lat="50.73858" lon="3.71799">
        <ele>58.22</ele>
        <time>2021-03-20T18:55:21Z</time>
      </trkpt>
      <trkpt lat="50.73866" lon="3.71825">
        <ele>57.48</ele>
        <time>2021-03-20T18:55:24Z</time>
      </trkpt>
      <trkpt lat="50.73868" lon="3.71851">
        <ele>57.25</ele>
        <time>2021-03-20T18:55:27Z</time>
      </trkpt>
      <trkpt lat="50.73866" lon="3.71907">
        <ele>57</ele>
        <time>2021-03-20T18:55:30Z</time>
      </trkpt>
      <trkpt lat="50.73862" lon="3.71939">
        <ele>57</ele>
        <time>2021-03-20T18:55:33Z</time>
      </trkpt>
      <trkpt lat="50.73854" lon="3.71981">
        <ele>56.67</ele>
        <time>2021-03-20T18:55:36Z</time>
      </trkpt>
      <trkpt lat="50.73851" lon="3.72003">
        <ele>55.94</ele>
        <time>2021-03-20T18:55:39Z</time>
      </trkpt>
      <trkpt lat="50.73852" lon="3.72014">
        <ele>55.66</ele>
        <time>2021-03-20T18:55:42Z</time>
      </trkpt>
      <trkpt lat="50.73854" lon="3.72033">
        <ele>55.05</ele>
        <time>2021-03-20T18:55:46Z</time>
      </trkpt>
      <trkpt lat="50.7386" lon="3.72047">
        <ele>54.33</ele>
        <time>2021-03-20T18:55:49Z</time>
      </trkpt>
      <trkpt lat="50.73873" lon="3.72063">
        <ele>54.44</ele>
        <time>2021-03-20T18:55:52Z</time>
      </trkpt>
      <trkpt lat="50.73933" lon="3.7211">
        <ele>58.17</ele>
        <time>2021-03-20T18:55:55Z</time>
      </trkpt>
      <trkpt lat="50.73949" lon="3.72115">
        <ele>59.15</ele>
        <time>2021-03-20T18:55:58Z</time>
      </trkpt>
      <trkpt lat="50.73973" lon="3.72111">
        <ele>60.03</ele>
        <time>2021-03-20T18:56:01Z</time>
      </trkpt>
      <trkpt lat="50.7403" lon="3.72082">
        <ele>65.08</ele>
        <time>2021-03-20T18:56:04Z</time>
      </trkpt>
      <trkpt lat="50.74038" lon="3.72073">
        <ele>65.36</ele>
        <time>2021-03-20T18:56:07Z</time>
      </trkpt>
      <trkpt lat="50.74051" lon="3.72049">
        <ele>65.86</ele>
        <time>2021-03-20T18:56:10Z</time>
      </trkpt>
      <trkpt lat="50.74058" lon="3.72045">
        <ele>66</ele>
        <time>2021-03-20T18:56:13Z</time>
      </trkpt>
      <trkpt lat="50.74064" lon="3.72047">
        <ele>66</ele>
        <time>2021-03-20T18:56:16Z</time>
      </trkpt>
      <trkpt lat="50.74135" lon="3.72097">
        <ele>64.74</ele>
        <time>2021-03-20T18:56:19Z</time>
      </trkpt>
      <trkpt lat="50.74143" lon="3.72101">
        <ele>64.14</ele>
        <time>2021-03-20T18:56:22Z</time>
      </trkpt>
      <trkpt lat="50.74156" lon="3.72058">
        <ele>64.95</ele>
        <time>2021-03-20T18:56:25Z</time>
      </trkpt>
      <trkpt lat="50.74169" lon="3.72023">
        <ele>67.18</ele>
        <time>2021-03-20T18:56:28Z</time>
      </trkpt>
      <trkpt lat="50.74199" lon="3.71952">
        <ele>68.79</ele>
        <time>2021-03-20T18:56:31Z</time>
      </trkpt>
      <trkpt lat="50.74216" lon="3.71907">
        <ele>69</ele>
        <time>2021-03-20T18:56:34Z</time>
      </trkpt>
      <trkpt lat="50.74229" lon="3.71879">
        <ele>69.37</ele>
        <time>2021-03-20T18:56:37Z</time>
      </trkpt>
      <trkpt lat="50.74263" lon="3.71817">
        <ele>69.91</ele>
        <time>2021-03-20T18:56:40Z</time>
      </trkpt>
      <trkpt lat="50.74302" lon="3.71741">
        <ele>71.46</ele>
        <time>2021-03-20T18:56:43Z</time>
      </trkpt>
      <trkpt lat="50.74328" lon="3.71699">
        <ele>72.82</ele>
        <time>2021-03-20T18:56:46Z</time>
      </trkpt>
      <trkpt lat="50.7434" lon="3.71686">
        <ele>72.75</ele>
        <time>2021-03-20T18:56:49Z</time>
      </trkpt>
      <trkpt lat="50.74368" lon="3.71671">
        <ele>71.53</ele>
        <time>2021-03-20T18:56:52Z</time>
      </trkpt>
      <trkpt lat="50.74398" lon="3.71666">
        <ele>69.37</ele>
        <time>2021-03-20T18:56:55Z</time>
      </trkpt>
      <trkpt lat="50.74414" lon="3.71661">
        <ele>68.44</ele>
        <time>2021-03-20T18:56:58Z</time>
      </trkpt>
      <trkpt lat="50.74424" lon="3.71653">
        <ele>67.95</ele>
        <time>2021-03-20T18:57:01Z</time>
      </trkpt>
      <trkpt lat="50.74464" lon="3.71614">
        <ele>65.62</ele>
        <time>2021-03-20T18:57:04Z</time>
      </trkpt>
      <trkpt lat="50.74514" lon="3.7155">
        <ele>63.33</ele>
        <time>2021-03-20T18:57:07Z</time>
      </trkpt>
      <trkpt lat="50.74589" lon="3.71471">
        <ele>57</ele>
        <time>2021-03-20T18:57:10Z</time>
      </trkpt>
      <trkpt lat="50.74693" lon="3.7135">
        <ele>50.13</ele>
        <time>2021-03-20T18:57:13Z</time>
      </trkpt>
      <trkpt lat="50.74734" lon="3.71302">
        <ele>47</ele>
        <time>2021-03-20T18:57:16Z</time>
      </trkpt>
      <trkpt lat="50.74804" lon="3.7122">
        <ele>44.15</ele>
        <time>2021-03-20T18:57:19Z</time>
      </trkpt>
      <trkpt lat="50.74819" lon="3.71206">
        <ele>44.1</ele>
        <time>2021-03-20T18:57:22Z</time>
      </trkpt>
      <trkpt lat="50.75064" lon="3.71051">
        <ele>55.06</ele>
        <time>2021-03-20T18:57:25Z</time>
      </trkpt>
      <trkpt lat="50.75108" lon="3.71017">
        <ele>57.76</ele>
        <time>2021-03-20T18:57:28Z</time>
      </trkpt>
      <trkpt lat="50.75129" lon="3.70993">
        <ele>60.19</ele>
        <time>2021-03-20T18:57:31Z</time>
      </trkpt>
      <trkpt lat="50.75152" lon="3.70952">
        <ele>62.47</ele>
        <time>2021-03-20T18:57:34Z</time>
      </trkpt>
      <trkpt lat="50.75169" lon="3.7091">
        <ele>63.01</ele>
        <time>2021-03-20T18:57:37Z</time>
      </trkpt>
      <trkpt lat="50.75177" lon="3.70884">
        <ele>63.44</ele>
        <time>2021-03-20T18:57:40Z</time>
      </trkpt>
      <trkpt lat="50.75204" lon="3.70775">
        <ele>65.75</ele>
        <time>2021-03-20T18:57:43Z</time>
      </trkpt>
      <trkpt lat="50.75245" lon="3.70572">
        <ele>72.61</ele>
        <time>2021-03-20T18:57:46Z</time>
      </trkpt>
      <trkpt lat="50.75252" lon="3.70543">
        <ele>73.64</ele>
        <time>2021-03-20T18:57:49Z</time>
      </trkpt>
      <trkpt lat="50.753" lon="3.70403">
        <ele>84.88</ele>
        <time>2021-03-20T18:57:52Z</time>
      </trkpt>
      <trkpt lat="50.75309" lon="3.70383">
        <ele>86.15</ele>
        <time>2021-03-20T18:57:55Z</time>
      </trkpt>
      <trkpt lat="50.75317" lon="3.70371">
        <ele>86.57</ele>
        <time>2021-03-20T18:57:58Z</time>
      </trkpt>
      <trkpt lat="50.7534" lon="3.70348">
        <ele>88.09</ele>
        <time>2021-03-20T18:58:01Z</time>
      </trkpt>
      <trkpt lat="50.75358" lon="3.70324">
        <ele>89.95</ele>
        <time>2021-03-20T18:58:04Z</time>
      </trkpt>
      <trkpt lat="50.75368" lon="3.70308">
        <ele>91.43</ele>
        <time>2021-03-20T18:58:07Z</time>
      </trkpt>
      <trkpt lat="50.75415" lon="3.70219">
        <ele>93.03</ele>
        <time>2021-03-20T18:58:10Z</time>
      </trkpt>
      <trkpt lat="50.75442" lon="3.70161">
        <ele>96.02</ele>
        <time>2021-03-20T18:58:13Z</time>
      </trkpt>
      <trkpt lat="50.75449" lon="3.70141">
        <ele>97.25</ele>
        <time>2021-03-20T18:58:16Z</time>
      </trkpt>
      <trkpt lat="50.75454" lon="3.7012">
        <ele>98.14</ele>
        <time>2021-03-20T18:58:19Z</time>
      </trkpt>
      <trkpt lat="50.75457" lon="3.70082">
        <ele>99.44</ele>
        <time>2021-03-20T18:58:22Z</time>
      </trkpt>
      <trkpt lat="50.75455" lon="3.70067">
        <ele>99.4</ele>
        <time>2021-03-20T18:58:25Z</time>
      </trkpt>
      <trkpt lat="50.75448" lon="3.70023">
        <ele>97.95</ele>
        <time>2021-03-20T18:58:28Z</time>
      </trkpt>
      <trkpt lat="50.75406" lon="3.69906">
        <ele>96.25</ele>
        <time>2021-03-20T18:58:31Z</time>
      </trkpt>
      <trkpt lat="50.75386" lon="3.69842">
        <ele>97.57</ele>
        <time>2021-03-20T18:58:34Z</time>
      </trkpt>
      <trkpt lat="50.75369" lon="3.69781">
        <ele>99.46</ele>
        <time>2021-03-20T18:58:37Z</time>
      </trkpt>
      <trkpt lat="50.75357" lon="3.69722">
        <ele>100.4</ele>
        <time>2021-03-20T18:58:40Z</time>
      </trkpt>
      <trkpt lat="50.75347" lon="3.69652">
        <ele>101.04</ele>
        <time>2021-03-20T18:58:43Z</time>
      </trkpt>
      <trkpt lat="50.75342" lon="3.69575">
        <ele>99.83</ele>
        <time>2021-03-20T18:58:46Z</time>
      </trkpt>
      <trkpt lat="50.75344" lon="3.69525">
        <ele>99.24</ele>
        <time>2021-03-20T18:58:49Z</time>
      </trkpt>
      <trkpt lat="50.75349" lon="3.69494">
        <ele>99.4</ele>
        <time>2021-03-20T18:58:52Z</time>
      </trkpt>
      <trkpt lat="50.75354" lon="3.69472">
        <ele>98.53</ele>
        <time>2021-03-20T18:58:55Z</time>
      </trkpt>
      <trkpt lat="50.75362" lon="3.6945">
        <ele>98.47</ele>
        <time>2021-03-20T18:58:58Z</time>
      </trkpt>
      <trkpt lat="50.75381" lon="3.69411">
        <ele>96</ele>
        <time>2021-03-20T18:59:01Z</time>
      </trkpt>
      <trkpt lat="50.75392" lon="3.69395">
        <ele>95.72</ele>
        <time>2021-03-20T18:59:04Z</time>
      </trkpt>
      <trkpt lat="50.75406" lon="3.69379">
        <ele>96.11</ele>
        <time>2021-03-20T18:59:07Z</time>
      </trkpt>
      <trkpt lat="50.75423" lon="3.69364">
        <ele>96.64</ele>
        <time>2021-03-20T18:59:10Z</time>
      </trkpt>
      <trkpt lat="50.75452" lon="3.69344">
        <ele>96.49</ele>
        <time>2021-03-20T18:59:13Z</time>
      </trkpt>
      <trkpt lat="50.75486" lon="3.69328">
        <ele>94.14</ele>
        <time>2021-03-20T18:59:16Z</time>
      </trkpt>
      <trkpt lat="50.75525" lon="3.69312">
        <ele>91.23</ele>
        <time>2021-03-20T18:59:19Z</time>
      </trkpt>
      <trkpt lat="50.75548" lon="3.69297">
        <ele>89.92</ele>
        <time>2021-03-20T18:59:22Z</time>
      </trkpt>
      <trkpt lat="50.75737" lon="3.69055">
        <ele>95.02</ele>
        <time>2021-03-20T18:59:25Z</time>
      </trkpt>
      <trkpt lat="50.75845" lon="3.68893">
        <ele>105.78</ele>
        <time>2021-03-20T18:59:28Z</time>
      </trkpt>
      <trkpt lat="50.75912" lon="3.68768">
        <ele>110.52</ele>
        <time>2021-03-20T18:59:31Z</time>
      </trkpt>
      <trkpt lat="50.75937" lon="3.68728">
        <ele>110.75</ele>
        <time>2021-03-20T18:59:34Z</time>
      </trkpt>
      <trkpt lat="50.76199" lon="3.684">
        <ele>121</ele>
        <time>2021-03-20T18:59:37Z</time>
      </trkpt>
      <trkpt lat="50.76229" lon="3.68368">
        <ele>121.98</ele>
        <time>2021-03-20T18:59:40Z</time>
      </trkpt>
      <trkpt lat="50.76241" lon="3.68363">
        <ele>122.61</ele>
        <time>2021-03-20T18:59:43Z</time>
      </trkpt>
      <trkpt lat="50.7625" lon="3.68353">
        <ele>122.99</ele>
        <time>2021-03-20T18:59:46Z</time>
      </trkpt>
      <trkpt lat="50.76233" lon="3.68257">
        <ele>123.13</ele>
        <time>2021-03-20T18:59:48Z</time>
      </trkpt>
      <trkpt lat="50.76219" lon="3.68197">
        <ele>123.69</ele>
        <time>2021-03-20T18:59:50Z</time>
      </trkpt>
      <trkpt lat="50.76209" lon="3.6816">
        <ele>123.54</ele>
        <time>2021-03-20T18:59:52Z</time>
      </trkpt>
      <trkpt lat="50.76181" lon="3.68076">
        <ele>124</ele>
        <time>2021-03-20T18:59:54Z</time>
      </trkpt>
      <trkpt lat="50.7616" lon="3.68023">
        <ele>124.54</ele>
        <time>2021-03-20T18:59:55Z</time>
      </trkpt>
      <trkpt lat="50.76161" lon="3.68004">
        <ele>124.59</ele>
        <time>2021-03-20T18:59:56Z</time>
      </trkpt>
      <trkpt lat="50.76165" lon="3.67991">
        <ele>124.93</ele>
        <time>2021-03-20T18:59:57Z</time>
      </trkpt>
      <trkpt lat="50.76177" lon="3.67986">
        <ele>125.37</ele>
        <time>2021-03-20T18:59:58Z</time>
      </trkpt>
      <trkpt lat="50.76206" lon="3.6799">
        <ele>126</ele>
        <time>2021-03-20T19:00:05Z</time>
      </trkpt>
      <trkpt lat="50.76238" lon="3.67988">
        <ele>126.82</ele>
        <time>2021-03-20T19:00:11Z</time>
      </trkpt>
      <trkpt lat="50.76504" lon="3.67907">
        <ele>131.41</ele>
        <time>2021-03-20T19:00:17Z</time>
      </trkpt>
      <trkpt lat="50.76543" lon="3.67888">
        <ele>125.79</ele>
        <time>2021-03-20T19:00:24Z</time>
      </trkpt>
      <trkpt lat="50.76567" lon="3.67871">
        <ele>122.96</ele>
        <time>2021-03-20T19:00:30Z</time>
      </trkpt>
      <trkpt lat="50.76669" lon="3.6777">
        <ele>123</ele>
        <time>2021-03-20T19:00:37Z</time>
      </trkpt>
      <trkpt lat="50.76702" lon="3.67734">
        <ele>123</ele>
        <time>2021-03-20T19:00:43Z</time>
      </trkpt>
      <trkpt lat="50.76721" lon="3.6771">
        <ele>122.55</ele>
        <time>2021-03-20T19:00:50Z</time>
      </trkpt>
      <trkpt lat="50.77025" lon="3.67284">
        <ele>123</ele>
        <time>2021-03-20T19:00:56Z</time>
      </trkpt>
      <trkpt lat="50.77137" lon="3.67075">
        <ele>122</ele>
        <time>2021-03-20T19:01:03Z</time>
      </trkpt>
      <trkpt lat="50.77155" lon="3.67049">
        <ele>121.44</ele>
        <time>2021-03-20T19:01:09Z</time>
      </trkpt>
      <trkpt lat="50.77178" lon="3.67021">
        <ele>120.61</ele>
        <time>2021-03-20T19:01:15Z</time>
      </trkpt>
      <trkpt lat="50.77192" lon="3.66999">
        <ele>120.06</ele>
        <time>2021-03-20T19:01:22Z</time>
      </trkpt>
      <trkpt lat="50.7731" lon="3.66758">
        <ele>120.68</ele>
        <time>2021-03-20T19:01:28Z</time>
      </trkpt>
      <trkpt lat="50.77338" lon="3.66705">
        <ele>118.83</ele>
        <time>2021-03-20T19:01:35Z</time>
      </trkpt>
      <trkpt lat="50.77357" lon="3.66677">
        <ele>118.15</ele>
        <time>2021-03-20T19:01:41Z</time>
      </trkpt>
      <trkpt lat="50.77398" lon="3.66629">
        <ele>116.34</ele>
        <time>2021-03-20T19:01:48Z</time>
      </trkpt>
      <trkpt lat="50.77411" lon="3.66617">
        <ele>115.39</ele>
        <time>2021-03-20T19:01:54Z</time>
      </trkpt>
      <trkpt lat="50.7745" lon="3.6659">
        <ele>112.95</ele>
        <time>2021-03-20T19:02:01Z</time>
      </trkpt>
      <trkpt lat="50.77477" lon="3.66565">
        <ele>113</ele>
        <time>2021-03-20T19:02:07Z</time>
      </trkpt>
      <trkpt lat="50.7749" lon="3.66551">
        <ele>113.11</ele>
        <time>2021-03-20T19:02:14Z</time>
      </trkpt>
      <trkpt lat="50.77562" lon="3.6644">
        <ele>115.37</ele>
        <time>2021-03-20T19:02:20Z</time>
      </trkpt>
      <trkpt lat="50.77628" lon="3.66344">
        <ele>114.64</ele>
        <time>2021-03-20T19:02:26Z</time>
      </trkpt>
      <trkpt lat="50.77708" lon="3.66394">
        <ele>115</ele>
        <time>2021-03-20T19:02:31Z</time>
      </trkpt>
      <trkpt lat="50.77787" lon="3.66449">
        <ele>112.11</ele>
        <time>2021-03-20T19:02:35Z</time>
      </trkpt>
      <trkpt lat="50.77846" lon="3.66503">
        <ele>113</ele>
        <time>2021-03-20T19:02:40Z</time>
      </trkpt>
      <trkpt lat="50.77876" lon="3.66528">
        <ele>113.54</ele>
        <time>2021-03-20T19:02:44Z</time>
      </trkpt>
      <trkpt lat="50.7798" lon="3.66592">
        <ele>112.41</ele>
        <time>2021-03-20T19:02:49Z</time>
      </trkpt>
      <trkpt lat="50.77991" lon="3.66596">
        <ele>111.86</ele>
        <time>2021-03-20T19:02:53Z</time>
      </trkpt>
      <trkpt lat="50.78" lon="3.66595">
        <ele>111.58</ele>
        <time>2021-03-20T19:02:57Z</time>
      </trkpt>
      <trkpt lat="50.78022" lon="3.66585">
        <ele>110.41</ele>
        <time>2021-03-20T19:03:02Z</time>
      </trkpt>
      <trkpt lat="50.78042" lon="3.6659">
        <ele>109.62</ele>
        <time>2021-03-20T19:03:06Z</time>
      </trkpt>
      <trkpt lat="50.78081" lon="3.66624">
        <ele>109.09</ele>
        <time>2021-03-20T19:03:11Z</time>
      </trkpt>
      <trkpt lat="50.78093" lon="3.6663">
        <ele>108.38</ele>
        <time>2021-03-20T19:03:15Z</time>
      </trkpt>
      <trkpt lat="50.78121" lon="3.66638">
        <ele>106.01</ele>
        <time>2021-03-20T19:03:19Z</time>
      </trkpt>
      <trkpt lat="50.78152" lon="3.66638">
        <ele>102.08</ele>
        <time>2021-03-20T19:03:24Z</time>
      </trkpt>
      <trkpt lat="50.78164" lon="3.66638">
        <ele>100.43</ele>
        <time>2021-03-20T19:03:28Z</time>
      </trkpt>
      <trkpt lat="50.78184" lon="3.66643">
        <ele>98</ele>
        <time>2021-03-20T19:03:33Z</time>
      </trkpt>
      <trkpt lat="50.78216" lon="3.66666">
        <ele>96.78</ele>
        <time>2021-03-20T19:03:37Z</time>
      </trkpt>
      <trkpt lat="50.78238" lon="3.66686">
        <ele>97.58</ele>
        <time>2021-03-20T19:03:41Z</time>
      </trkpt>
      <trkpt lat="50.78253" lon="3.66703">
        <ele>97.89</ele>
        <time>2021-03-20T19:03:46Z</time>
      </trkpt>
      <trkpt lat="50.78302" lon="3.66765">
        <ele>94.57</ele>
        <time>2021-03-20T19:03:50Z</time>
      </trkpt>
      <trkpt lat="50.78357" lon="3.6684">
        <ele>93.16</ele>
        <time>2021-03-20T19:03:55Z</time>
      </trkpt>
      <trkpt lat="50.78385" lon="3.66884">
        <ele>91.31</ele>
        <time>2021-03-20T19:03:59Z</time>
      </trkpt>
      <trkpt lat="50.78399" lon="3.66901">
        <ele>90.46</ele>
        <time>2021-03-20T19:04:03Z</time>
      </trkpt>
      <trkpt lat="50.78465" lon="3.66963">
        <ele>87</ele>
        <time>2021-03-20T19:04:08Z</time>
      </trkpt>
      <trkpt lat="50.78531" lon="3.67035">
        <ele>82.69</ele>
        <time>2021-03-20T19:04:12Z</time>
      </trkpt>
      <trkpt lat="50.78574" lon="3.67076">
        <ele>80.26</ele>
        <time>2021-03-20T19:04:17Z</time>
      </trkpt>
      <trkpt lat="50.7861" lon="3.67103">
        <ele>76.66</ele>
        <time>2021-03-20T19:04:21Z</time>
      </trkpt>
      <trkpt lat="50.78626" lon="3.67118">
        <ele>75.87</ele>
        <time>2021-03-20T19:04:25Z</time>
      </trkpt>
      <trkpt lat="50.78691" lon="3.67195">
        <ele>72.93</ele>
        <time>2021-03-20T19:04:30Z</time>
      </trkpt>
      <trkpt lat="50.78751" lon="3.67254">
        <ele>71.86</ele>
        <time>2021-03-20T19:04:34Z</time>
      </trkpt>
      <trkpt lat="50.78849" lon="3.67366">
        <ele>71.21</ele>
        <time>2021-03-20T19:04:39Z</time>
      </trkpt>
      <trkpt lat="50.78881" lon="3.67395">
        <ele>69.56</ele>
        <time>2021-03-20T19:04:43Z</time>
      </trkpt>
      <trkpt lat="50.78907" lon="3.67408">
        <ele>69.06</ele>
        <time>2021-03-20T19:04:47Z</time>
      </trkpt>
      <trkpt lat="50.78965" lon="3.6743">
        <ele>67.79</ele>
        <time>2021-03-20T19:04:52Z</time>
      </trkpt>
      <trkpt lat="50.7898" lon="3.67432">
        <ele>66.7</ele>
        <time>2021-03-20T19:04:56Z</time>
      </trkpt>
      <trkpt lat="50.79028" lon="3.67432">
        <ele>61.44</ele>
        <time>2021-03-20T19:05:01Z</time>
      </trkpt>
      <trkpt lat="50.79048" lon="3.67435">
        <ele>58.65</ele>
        <time>2021-03-20T19:05:05Z</time>
      </trkpt>
      <trkpt lat="50.79104" lon="3.67455">
        <ele>58.36</ele>
        <time>2021-03-20T19:05:09Z</time>
      </trkpt>
      <trkpt lat="50.79201" lon="3.6748">
        <ele>57.26</ele>
        <time>2021-03-20T19:05:14Z</time>
      </trkpt>
      <trkpt lat="50.7934" lon="3.67501">
        <ele>56</ele>
        <time>2021-03-20T19:05:18Z</time>
      </trkpt>
      <trkpt lat="50.79396" lon="3.67515">
        <ele>55</ele>
        <time>2021-03-20T19:05:23Z</time>
      </trkpt>
      <trkpt lat="50.79454" lon="3.67521">
        <ele>54.17</ele>
        <time>2021-03-20T19:05:27Z</time>
      </trkpt>
      <trkpt lat="50.79505" lon="3.67518">
        <ele>53</ele>
        <time>2021-03-20T19:05:31Z</time>
      </trkpt>
      <trkpt lat="50.79573" lon="3.67509">
        <ele>51.38</ele>
        <time>2021-03-20T19:05:36Z</time>
      </trkpt>
      <trkpt lat="50.79591" lon="3.67502">
        <ele>50.73</ele>
        <time>2021-03-20T19:05:40Z</time>
      </trkpt>
      <trkpt lat="50.797" lon="3.67444">
        <ele>49</ele>
        <time>2021-03-20T19:05:45Z</time>
      </trkpt>
      <trkpt lat="50.79746" lon="3.67428">
        <ele>48.66</ele>
        <time>2021-03-20T19:05:49Z</time>
      </trkpt>
      <trkpt lat="50.79772" lon="3.67428">
        <ele>47.83</ele>
        <time>2021-03-20T19:05:53Z</time>
      </trkpt>
      <trkpt lat="50.79866" lon="3.67475">
        <ele>47.91</ele>
        <time>2021-03-20T19:05:58Z</time>
      </trkpt>
      <trkpt lat="50.7989" lon="3.67483">
        <ele>47.55</ele>
        <time>2021-03-20T19:06:02Z</time>
      </trkpt>
      <trkpt lat="50.80034" lon="3.67514">
        <ele>42.24</ele>
        <time>2021-03-20T19:06:07Z</time>
      </trkpt>
      <trkpt lat="50.80158" lon="3.67556">
        <ele>41.99</ele>
        <time>2021-03-20T19:06:11Z</time>
      </trkpt>
      <trkpt lat="50.80256" lon="3.67599">
        <ele>44.69</ele>
        <time>2021-03-20T19:06:16Z</time>
      </trkpt>
      <trkpt lat="50.80274" lon="3.67603">
        <ele>45.49</ele>
        <time>2021-03-20T19:06:20Z</time>
      </trkpt>
      <trkpt lat="50.80286" lon="3.67609">
        <ele>46.21</ele>
        <time>2021-03-20T19:06:24Z</time>
      </trkpt>
      <trkpt lat="50.80458" lon="3.67706">
        <ele>43.78</ele>
        <time>2021-03-20T19:06:29Z</time>
      </trkpt>
      <trkpt lat="50.80502" lon="3.67737">
        <ele>44</ele>
        <time>2021-03-20T19:06:33Z</time>
      </trkpt>
      <trkpt lat="50.80535" lon="3.67768">
        <ele>43.83</ele>
        <time>2021-03-20T19:06:38Z</time>
      </trkpt>
      <trkpt lat="50.80552" lon="3.67787">
        <ele>43.08</ele>
        <time>2021-03-20T19:06:42Z</time>
      </trkpt>
      <trkpt lat="50.80562" lon="3.67802">
        <ele>43</ele>
        <time>2021-03-20T19:06:46Z</time>
      </trkpt>
      <trkpt lat="50.80612" lon="3.67861">
        <ele>43</ele>
        <time>2021-03-20T19:06:51Z</time>
      </trkpt>
      <trkpt lat="50.80633" lon="3.67879">
        <ele>42.86</ele>
        <time>2021-03-20T19:06:55Z</time>
      </trkpt>
      <trkpt lat="50.80657" lon="3.67894">
        <ele>42.3</ele>
        <time>2021-03-20T19:07:00Z</time>
      </trkpt>
      <trkpt lat="50.80671" lon="3.679">
        <ele>41.94</ele>
        <time>2021-03-20T19:07:04Z</time>
      </trkpt>
      <trkpt lat="50.80682" lon="3.67909">
        <ele>41.58</ele>
        <time>2021-03-20T19:07:08Z</time>
      </trkpt>
      <trkpt lat="50.80691" lon="3.67922">
        <ele>40.94</ele>
        <time>2021-03-20T19:07:13Z</time>
      </trkpt>
      <trkpt lat="50.80711" lon="3.67961">
        <ele>39.39</ele>
        <time>2021-03-20T19:07:17Z</time>
      </trkpt>
      <trkpt lat="50.80761" lon="3.68016">
        <ele>38.41</ele>
        <time>2021-03-20T19:07:22Z</time>
      </trkpt>
      <trkpt lat="50.80774" lon="3.68027">
        <ele>38.04</ele>
        <time>2021-03-20T19:07:26Z</time>
      </trkpt>
      <trkpt lat="50.80801" lon="3.68039">
        <ele>38.35</ele>
        <time>2021-03-20T19:07:30Z</time>
      </trkpt>
      <trkpt lat="50.80821" lon="3.68041">
        <ele>39.04</ele>
        <time>2021-03-20T19:07:35Z</time>
      </trkpt>
      <trkpt lat="50.8083" lon="3.68037">
        <ele>39.24</ele>
        <time>2021-03-20T19:07:39Z</time>
      </trkpt>
      <trkpt lat="50.80847" lon="3.68018">
        <ele>39.5</ele>
        <time>2021-03-20T19:07:44Z</time>
      </trkpt>
      <trkpt lat="50.80893" lon="3.67946">
        <ele>39.86</ele>
        <time>2021-03-20T19:07:48Z</time>
      </trkpt>
      <trkpt lat="50.80898" lon="3.67941">
        <ele>39.65</ele>
        <time>2021-03-20T19:07:52Z</time>
      </trkpt>
      <trkpt lat="50.80906" lon="3.67939">
        <ele>39.4</ele>
        <time>2021-03-20T19:07:57Z</time>
      </trkpt>
      <trkpt lat="50.80918" lon="3.67942">
        <ele>38.95</ele>
        <time>2021-03-20T19:08:01Z</time>
      </trkpt>
      <trkpt lat="50.80928" lon="3.67954">
        <ele>38.59</ele>
        <time>2021-03-20T19:08:06Z</time>
      </trkpt>
      <trkpt lat="50.80968" lon="3.68017">
        <ele>37.14</ele>
        <time>2021-03-20T19:08:10Z</time>
      </trkpt>
      <trkpt lat="50.8101" lon="3.68076">
        <ele>35.47</ele>
        <time>2021-03-20T19:08:14Z</time>
      </trkpt>
      <trkpt lat="50.8108" lon="3.68173">
        <ele>32.13</ele>
        <time>2021-03-20T19:08:19Z</time>
      </trkpt>
      <trkpt lat="50.81094" lon="3.68189">
        <ele>31.62</ele>
        <time>2021-03-20T19:08:23Z</time>
      </trkpt>
      <trkpt lat="50.81109" lon="3.682">
        <ele>31.07</ele>
        <time>2021-03-20T19:08:28Z</time>
      </trkpt>
      <trkpt lat="50.81121" lon="3.68207">
        <ele>30.8</ele>
        <time>2021-03-20T19:08:32Z</time>
      </trkpt>
      <trkpt lat="50.8113" lon="3.68208">
        <ele>30.64</ele>
        <time>2021-03-20T19:08:36Z</time>
      </trkpt>
      <trkpt lat="50.81141" lon="3.68201">
        <ele>30.23</ele>
        <time>2021-03-20T19:08:41Z</time>
      </trkpt>
      <trkpt lat="50.81152" lon="3.68187">
        <ele>30</ele>
        <time>2021-03-20T19:08:45Z</time>
      </trkpt>
      <trkpt lat="50.81221" lon="3.68063">
        <ele>31</ele>
        <time>2021-03-20T19:08:50Z</time>
      </trkpt>
      <trkpt lat="50.81239" lon="3.68035">
        <ele>30.1</ele>
        <time>2021-03-20T19:08:54Z</time>
      </trkpt>
      <trkpt lat="50.81252" lon="3.68018">
        <ele>29.94</ele>
        <time>2021-03-20T19:08:58Z</time>
      </trkpt>
      <trkpt lat="50.8128" lon="3.6799">
        <ele>29.46</ele>
        <time>2021-03-20T19:09:03Z</time>
      </trkpt>
      <trkpt lat="50.81299" lon="3.67984">
        <ele>30.34</ele>
        <time>2021-03-20T19:09:07Z</time>
      </trkpt>
      <trkpt lat="50.81308" lon="3.67987">
        <ele>30.51</ele>
        <time>2021-03-20T19:09:12Z</time>
      </trkpt>
      <trkpt lat="50.81319" lon="3.67995">
        <ele>30.58</ele>
        <time>2021-03-20T19:09:16Z</time>
      </trkpt>
      <trkpt lat="50.81335" lon="3.68011">
        <ele>31</ele>
        <time>2021-03-20T19:09:20Z</time>
      </trkpt>
      <trkpt lat="50.81381" lon="3.68071">
        <ele>32.87</ele>
        <time>2021-03-20T19:09:25Z</time>
      </trkpt>
      <trkpt lat="50.81394" lon="3.68083">
        <ele>33</ele>
        <time>2021-03-20T19:09:29Z</time>
      </trkpt>
      <trkpt lat="50.81408" lon="3.68091">
        <ele>33.28</ele>
        <time>2021-03-20T19:09:34Z</time>
      </trkpt>
      <trkpt lat="50.81444" lon="3.68104">
        <ele>33.74</ele>
        <time>2021-03-20T19:09:38Z</time>
      </trkpt>
      <trkpt lat="50.81474" lon="3.68112">
        <ele>35.15</ele>
        <time>2021-03-20T19:09:42Z</time>
      </trkpt>
      <trkpt lat="50.81488" lon="3.68112">
        <ele>36.14</ele>
        <time>2021-03-20T19:09:47Z</time>
      </trkpt>
      <trkpt lat="50.81516" lon="3.68108">
        <ele>38</ele>
        <time>2021-03-20T19:09:51Z</time>
      </trkpt>
      <trkpt lat="50.81551" lon="3.68098">
        <ele>40.59</ele>
        <time>2021-03-20T19:09:56Z</time>
      </trkpt>
      <trkpt lat="50.81573" lon="3.68098">
        <ele>41.63</ele>
        <time>2021-03-20T19:10:00Z</time>
      </trkpt>
      <trkpt lat="50.81583" lon="3.68101">
        <ele>41.99</ele>
        <time>2021-03-20T19:10:05Z</time>
      </trkpt>
      <trkpt lat="50.81687" lon="3.68147">
        <ele>54.58</ele>
        <time>2021-03-20T19:10:09Z</time>
      </trkpt>
      <trkpt lat="50.81706" lon="3.68154">
        <ele>56.92</ele>
        <time>2021-03-20T19:10:13Z</time>
      </trkpt>
      <trkpt lat="50.81797" lon="3.68154">
        <ele>65.14</ele>
        <time>2021-03-20T19:10:18Z</time>
      </trkpt>
      <trkpt lat="50.8181" lon="3.68164">
        <ele>65.4</ele>
        <time>2021-03-20T19:10:22Z</time>
      </trkpt>
      <trkpt lat="50.81877" lon="3.68258">
        <ele>67.88</ele>
        <time>2021-03-20T19:10:27Z</time>
      </trkpt>
      <trkpt lat="50.81949" lon="3.68343">
        <ele>73.52</ele>
        <time>2021-03-20T19:10:31Z</time>
      </trkpt>
      <trkpt lat="50.82034" lon="3.68437">
        <ele>78.32</ele>
        <time>2021-03-20T19:10:35Z</time>
      </trkpt>
      <trkpt lat="50.8207" lon="3.68467">
        <ele>78.51</ele>
        <time>2021-03-20T19:10:40Z</time>
      </trkpt>
      <trkpt lat="50.82077" lon="3.68475">
        <ele>78.73</ele>
        <time>2021-03-20T19:10:44Z</time>
      </trkpt>
      <trkpt lat="50.82092" lon="3.685">
        <ele>79.6</ele>
        <time>2021-03-20T19:10:49Z</time>
      </trkpt>
      <trkpt lat="50.82112" lon="3.68543">
        <ele>81.61</ele>
        <time>2021-03-20T19:10:53Z</time>
      </trkpt>
      <trkpt lat="50.82125" lon="3.68558">
        <ele>83.47</ele>
        <time>2021-03-20T19:10:57Z</time>
      </trkpt>
      <trkpt lat="50.82149" lon="3.68572">
        <ele>86.1</ele>
        <time>2021-03-20T19:11:02Z</time>
      </trkpt>
      <trkpt lat="50.82195" lon="3.68593">
        <ele>89.01</ele>
        <time>2021-03-20T19:11:06Z</time>
      </trkpt>
      <trkpt lat="50.8223" lon="3.686">
        <ele>90.21</ele>
        <time>2021-03-20T19:11:11Z</time>
      </trkpt>
      <trkpt lat="50.8225" lon="3.68597">
        <ele>92.04</ele>
        <time>2021-03-20T19:11:15Z</time>
      </trkpt>
      <trkpt lat="50.82281" lon="3.68589">
        <ele>94.82</ele>
        <time>2021-03-20T19:11:19Z</time>
      </trkpt>
      <trkpt lat="50.82357" lon="3.68595">
        <ele>96.33</ele>
        <time>2021-03-20T19:11:24Z</time>
      </trkpt>
      <trkpt lat="50.82384" lon="3.68592">
        <ele>96.69</ele>
        <time>2021-03-20T19:11:28Z</time>
      </trkpt>
      <trkpt lat="50.82477" lon="3.68547">
        <ele>96.31</ele>
        <time>2021-03-20T19:11:33Z</time>
      </trkpt>
      <trkpt lat="50.82497" lon="3.68539">
        <ele>95.46</ele>
        <time>2021-03-20T19:11:37Z</time>
      </trkpt>
      <trkpt lat="50.82509" lon="3.68544">
        <ele>95.88</ele>
        <time>2021-03-20T19:11:41Z</time>
      </trkpt>
      <trkpt lat="50.82587" lon="3.68628">
        <ele>98.88</ele>
        <time>2021-03-20T19:11:46Z</time>
      </trkpt>
      <trkpt lat="50.82688" lon="3.68503">
        <ele>93.87</ele>
        <time>2021-03-20T19:11:50Z</time>
      </trkpt>
      <trkpt lat="50.82752" lon="3.68415">
        <ele>93</ele>
        <time>2021-03-20T19:11:54Z</time>
      </trkpt>
      <trkpt lat="50.82776" lon="3.68373">
        <ele>93.93</ele>
        <time>2021-03-20T19:11:59Z</time>
      </trkpt>
      <trkpt lat="50.82798" lon="3.68324">
        <ele>94</ele>
        <time>2021-03-20T19:12:03Z</time>
      </trkpt>
      <trkpt lat="50.82826" lon="3.68256">
        <ele>94</ele>
        <time>2021-03-20T19:12:07Z</time>
      </trkpt>
      <trkpt lat="50.82846" lon="3.68214">
        <ele>94.45</ele>
        <time>2021-03-20T19:12:12Z</time>
      </trkpt>
      <trkpt lat="50.82864" lon="3.68183">
        <ele>95.09</ele>
        <time>2021-03-20T19:12:16Z</time>
      </trkpt>
      <trkpt lat="50.82983" lon="3.67991">
        <ele>96.95</ele>
        <time>2021-03-20T19:12:20Z</time>
      </trkpt>
      <trkpt lat="50.82993" lon="3.67969">
        <ele>97.25</ele>
        <time>2021-03-20T19:12:25Z</time>
      </trkpt>
      <trkpt lat="50.83004" lon="3.67939">
        <ele>97.05</ele>
        <time>2021-03-20T19:12:29Z</time>
      </trkpt>
      <trkpt lat="50.83046" lon="3.6798">
        <ele>95.71</ele>
        <time>2021-03-20T19:12:32Z</time>
      </trkpt>
      <trkpt lat="50.83143" lon="3.68127">
        <ele>96.57</ele>
        <time>2021-03-20T19:12:35Z</time>
      </trkpt>
      <trkpt lat="50.83177" lon="3.68164">
        <ele>96.52</ele>
        <time>2021-03-20T19:12:38Z</time>
      </trkpt>
      <trkpt lat="50.83424" lon="3.68388">
        <ele>97</ele>
        <time>2021-03-20T19:12:42Z</time>
      </trkpt>
      <trkpt lat="50.83435" lon="3.68403">
        <ele>97</ele>
        <time>2021-03-20T19:12:45Z</time>
      </trkpt>
      <trkpt lat="50.83485" lon="3.6849">
        <ele>95.03</ele>
        <time>2021-03-20T19:12:48Z</time>
      </trkpt>
      <trkpt lat="50.83495" lon="3.68502">
        <ele>95</ele>
        <time>2021-03-20T19:12:51Z</time>
      </trkpt>
      <trkpt lat="50.83507" lon="3.68508">
        <ele>95.25</ele>
        <time>2021-03-20T19:12:54Z</time>
      </trkpt>
      <trkpt lat="50.83603" lon="3.68532">
        <ele>94.62</ele>
        <time>2021-03-20T19:12:58Z</time>
      </trkpt>
      <trkpt lat="50.83616" lon="3.68538">
        <ele>93.69</ele>
        <time>2021-03-20T19:13:01Z</time>
      </trkpt>
      <trkpt lat="50.8369" lon="3.68594">
        <ele>90.25</ele>
        <time>2021-03-20T19:13:04Z</time>
      </trkpt>
      <trkpt lat="50.83696" lon="3.68602">
        <ele>90.01</ele>
        <time>2021-03-20T19:13:07Z</time>
      </trkpt>
      <trkpt lat="50.83705" lon="3.68622">
        <ele>90.39</ele>
        <time>2021-03-20T19:13:10Z</time>
      </trkpt>
      <trkpt lat="50.83707" lon="3.68628">
        <ele>90.44</ele>
        <time>2021-03-20T19:13:13Z</time>
      </trkpt>
      <trkpt lat="50.83739" lon="3.68711">
        <ele>89.15</ele>
        <time>2021-03-20T19:13:17Z</time>
      </trkpt>
      <trkpt lat="50.83749" lon="3.68766">
        <ele>89.02</ele>
        <time>2021-03-20T19:13:20Z</time>
      </trkpt>
      <trkpt lat="50.83762" lon="3.68797">
        <ele>88.98</ele>
        <time>2021-03-20T19:13:23Z</time>
      </trkpt>
      <trkpt lat="50.83773" lon="3.6881">
        <ele>88.55</ele>
        <time>2021-03-20T19:13:26Z</time>
      </trkpt>
      <trkpt lat="50.83796" lon="3.68832">
        <ele>88.24</ele>
        <time>2021-03-20T19:13:29Z</time>
      </trkpt>
      <trkpt lat="50.83833" lon="3.68871">
        <ele>87</ele>
        <time>2021-03-20T19:13:33Z</time>
      </trkpt>
      <trkpt lat="50.83991" lon="3.6906">
        <ele>77.28</ele>
        <time>2021-03-20T19:13:36Z</time>
      </trkpt>
      <trkpt lat="50.84102" lon="3.69263">
        <ele>74.15</ele>
        <time>2021-03-20T19:13:39Z</time>
      </trkpt>
      <trkpt lat="50.84152" lon="3.69351">
        <ele>71.93</ele>
        <time>2021-03-20T19:13:42Z</time>
      </trkpt>
      <trkpt lat="50.84238" lon="3.69478">
        <ele>67.8</ele>
        <time>2021-03-20T19:13:45Z</time>
      </trkpt>
      <trkpt lat="50.84261" lon="3.69508">
        <ele>67</ele>
        <time>2021-03-20T19:13:48Z</time>
      </trkpt>
      <trkpt lat="50.84325" lon="3.69571">
        <ele>67</ele>
        <time>2021-03-20T19:13:52Z</time>
      </trkpt>
      <trkpt lat="50.84351" lon="3.69599">
        <ele>67.27</ele>
        <time>2021-03-20T19:13:55Z</time>
      </trkpt>
      <trkpt lat="50.84409" lon="3.69676">
        <ele>64.19</ele>
        <time>2021-03-20T19:13:58Z</time>
      </trkpt>
      <trkpt lat="50.84499" lon="3.69768">
        <ele>63.34</ele>
        <time>2021-03-20T19:14:01Z</time>
      </trkpt>
      <trkpt lat="50.84542" lon="3.69821">
        <ele>60.94</ele>
        <time>2021-03-20T19:14:04Z</time>
      </trkpt>
      <trkpt lat="50.84585" lon="3.6988">
        <ele>56.95</ele>
        <time>2021-03-20T19:14:08Z</time>
      </trkpt>
      <trkpt lat="50.84608" lon="3.69915">
        <ele>56.12</ele>
        <time>2021-03-20T19:14:11Z</time>
      </trkpt>
      <trkpt lat="50.84624" lon="3.6995">
        <ele>54.08</ele>
        <time>2021-03-20T19:14:14Z</time>
      </trkpt>
      <trkpt lat="50.84659" lon="3.70046">
        <ele>52.35</ele>
        <time>2021-03-20T19:14:17Z</time>
      </trkpt>
      <trkpt lat="50.847" lon="3.70122">
        <ele>47.62</ele>
        <time>2021-03-20T19:14:20Z</time>
      </trkpt>
      <trkpt lat="50.84723" lon="3.70157">
        <ele>46.37</ele>
        <time>2021-03-20T19:14:23Z</time>
      </trkpt>
      <trkpt lat="50.84856" lon="3.70317">
        <ele>40.75</ele>
        <time>2021-03-20T19:14:27Z</time>
      </trkpt>
      <trkpt lat="50.84869" lon="3.70336">
        <ele>40</ele>
        <time>2021-03-20T19:14:30Z</time>
      </trkpt>
      <trkpt lat="50.84918" lon="3.70426">
        <ele>39.96</ele>
        <time>2021-03-20T19:14:33Z</time>
      </trkpt>
      <trkpt lat="50.84985" lon="3.70513">
        <ele>36.53</ele>
        <time>2021-03-20T19:14:36Z</time>
      </trkpt>
      <trkpt lat="50.85032" lon="3.7059">
        <ele>35.6</ele>
        <time>2021-03-20T19:14:39Z</time>
      </trkpt>
      <trkpt lat="50.8505" lon="3.70623">
        <ele>34.11</ele>
        <time>2021-03-20T19:14:43Z</time>
      </trkpt>
      <trkpt lat="50.8506" lon="3.70647">
        <ele>33.56</ele>
        <time>2021-03-20T19:14:46Z</time>
      </trkpt>
      <trkpt lat="50.85077" lon="3.70693">
        <ele>32.23</ele>
        <time>2021-03-20T19:14:49Z</time>
      </trkpt>
      <trkpt lat="50.85086" lon="3.70726">
        <ele>31.78</ele>
        <time>2021-03-20T19:14:52Z</time>
      </trkpt>
      <trkpt lat="50.8509" lon="3.7075">
        <ele>30.99</ele>
        <time>2021-03-20T19:14:55Z</time>
      </trkpt>
      <trkpt lat="50.85107" lon="3.70742">
        <ele>31.03</ele>
        <time>2021-03-20T19:15:02Z</time>
      </trkpt>
      <trkpt lat="50.85154" lon="3.70703">
        <ele>29.84</ele>
        <time>2021-03-20T19:15:08Z</time>
      </trkpt>
      <trkpt lat="50.85176" lon="3.70692">
        <ele>29.7</ele>
        <time>2021-03-20T19:15:14Z</time>
      </trkpt>
      <trkpt lat="50.85193" lon="3.70692">
        <ele>29.15</ele>
        <time>2021-03-20T19:15:20Z</time>
      </trkpt>
      <trkpt lat="50.85199" lon="3.70694">
        <ele>29.01</ele>
        <time>2021-03-20T19:15:27Z</time>
      </trkpt>
      <trkpt lat="50.85213" lon="3.70703">
        <ele>28.7</ele>
        <time>2021-03-20T19:15:33Z</time>
      </trkpt>
      <trkpt lat="50.85241" lon="3.70726">
        <ele>28.67</ele>
        <time>2021-03-20T19:15:39Z</time>
      </trkpt>
      <trkpt lat="50.85263" lon="3.70731">
        <ele>29.46</ele>
        <time>2021-03-20T19:15:46Z</time>
      </trkpt>
      <trkpt lat="50.85278" lon="3.70731">
        <ele>30</ele>
        <time>2021-03-20T19:15:52Z</time>
      </trkpt>
      <trkpt lat="50.85294" lon="3.70727">
        <ele>29.43</ele>
        <time>2021-03-20T19:15:58Z</time>
      </trkpt>
      <trkpt lat="50.85317" lon="3.70714">
        <ele>28.87</ele>
        <time>2021-03-20T19:16:04Z</time>
      </trkpt>
      <trkpt lat="50.8533" lon="3.70703">
        <ele>28.4</ele>
        <time>2021-03-20T19:16:11Z</time>
      </trkpt>
      <trkpt lat="50.85371" lon="3.70662">
        <ele>29.33</ele>
        <time>2021-03-20T19:16:17Z</time>
      </trkpt>
      <trkpt lat="50.85392" lon="3.70629">
        <ele>31.25</ele>
        <time>2021-03-20T19:16:23Z</time>
      </trkpt>
      <trkpt lat="50.85408" lon="3.70594">
        <ele>31.3</ele>
        <time>2021-03-20T19:16:29Z</time>
      </trkpt>
      <trkpt lat="50.8547" lon="3.7043">
        <ele>26.92</ele>
        <time>2021-03-20T19:16:36Z</time>
      </trkpt>
      <trkpt lat="50.85487" lon="3.70393">
        <ele>25.13</ele>
        <time>2021-03-20T19:16:42Z</time>
      </trkpt>
      <trkpt lat="50.8551" lon="3.70366">
        <ele>25.89</ele>
        <time>2021-03-20T19:16:48Z</time>
      </trkpt>
      <trkpt lat="50.85634" lon="3.70264">
        <ele>26.61</ele>
        <time>2021-03-20T19:16:55Z</time>
      </trkpt>
      <trkpt lat="50.85657" lon="3.70243">
        <ele>27.01</ele>
        <time>2021-03-20T19:17:01Z</time>
      </trkpt>
      <trkpt lat="50.8569" lon="3.70205">
        <ele>28.57</ele>
        <time>2021-03-20T19:17:07Z</time>
      </trkpt>
      <trkpt lat="50.85709" lon="3.70179">
        <ele>27.9</ele>
        <time>2021-03-20T19:17:13Z</time>
      </trkpt>
      <trkpt lat="50.8572" lon="3.7016">
        <ele>26.77</ele>
        <time>2021-03-20T19:17:20Z</time>
      </trkpt>
      <trkpt lat="50.85836" lon="3.69908">
        <ele>23</ele>
        <time>2021-03-20T19:17:26Z</time>
      </trkpt>
      <trkpt lat="50.85861" lon="3.69871">
        <ele>22.37</ele>
        <time>2021-03-20T19:17:32Z</time>
      </trkpt>
      <trkpt lat="50.86052" lon="3.69641">
        <ele>22.08</ele>
        <time>2021-03-20T19:17:38Z</time>
      </trkpt>
      <trkpt lat="50.8612" lon="3.69573">
        <ele>21.33</ele>
        <time>2021-03-20T19:17:45Z</time>
      </trkpt>
      <trkpt lat="50.86233" lon="3.69474">
        <ele>20.04</ele>
        <time>2021-03-20T19:17:51Z</time>
      </trkpt>
      <trkpt lat="50.86249" lon="3.69463">
        <ele>20</ele>
        <time>2021-03-20T19:17:57Z</time>
      </trkpt>
      <trkpt lat="50.86268" lon="3.69455">
        <ele>20.24</ele>
        <time>2021-03-20T19:18:04Z</time>
      </trkpt>
      <trkpt lat="50.86689" lon="3.69336">
        <ele>16.9</ele>
        <time>2021-03-20T19:18:10Z</time>
      </trkpt>
      <trkpt lat="50.86711" lon="3.69334">
        <ele>17.61</ele>
        <time>2021-03-20T19:18:16Z</time>
      </trkpt>
      <trkpt lat="50.86751" lon="3.69342">
        <ele>18</ele>
        <time>2021-03-20T19:18:22Z</time>
      </trkpt>
      <trkpt lat="50.86776" lon="3.69355">
        <ele>18</ele>
        <time>2021-03-20T19:18:29Z</time>
      </trkpt>
      <trkpt lat="50.86795" lon="3.6937">
        <ele>17.81</ele>
        <time>2021-03-20T19:18:35Z</time>
      </trkpt>
      <trkpt lat="50.86806" lon="3.69381">
        <ele>17.25</ele>
        <time>2021-03-20T19:18:41Z</time>
      </trkpt>
      <trkpt lat="50.87081" lon="3.69706">
        <ele>23.27</ele>
        <time>2021-03-20T19:18:47Z</time>
      </trkpt>
      <trkpt lat="50.8732" lon="3.69959">
        <ele>25</ele>
        <time>2021-03-20T19:18:54Z</time>
      </trkpt>
      <trkpt lat="50.87381" lon="3.69833">
        <ele>23</ele>
        <time>2021-03-20T19:18:58Z</time>
      </trkpt>
      <trkpt lat="50.87406" lon="3.69786">
        <ele>21.78</ele>
        <time>2021-03-20T19:19:03Z</time>
      </trkpt>
      <trkpt lat="50.87434" lon="3.69746">
        <ele>20</ele>
        <time>2021-03-20T19:19:07Z</time>
      </trkpt>
      <trkpt lat="50.87473" lon="3.69686">
        <ele>22.98</ele>
        <time>2021-03-20T19:19:12Z</time>
      </trkpt>
      <trkpt lat="50.87488" lon="3.69656">
        <ele>22.25</ele>
        <time>2021-03-20T19:19:17Z</time>
      </trkpt>
      <trkpt lat="50.87557" lon="3.69463">
        <ele>20.68</ele>
        <time>2021-03-20T19:19:21Z</time>
      </trkpt>
      <trkpt lat="50.87572" lon="3.69426">
        <ele>20.2</ele>
        <time>2021-03-20T19:19:26Z</time>
      </trkpt>
      <trkpt lat="50.8759" lon="3.69393">
        <ele>20</ele>
        <time>2021-03-20T19:19:30Z</time>
      </trkpt>
      <trkpt lat="50.87782" lon="3.69067">
        <ele>17.83</ele>
        <time>2021-03-20T19:19:35Z</time>
      </trkpt>
      <trkpt lat="50.87798" lon="3.69046">
        <ele>16.82</ele>
        <time>2021-03-20T19:19:40Z</time>
      </trkpt>
      <trkpt lat="50.87817" lon="3.69029">
        <ele>16.03</ele>
        <time>2021-03-20T19:19:44Z</time>
      </trkpt>
      <trkpt lat="50.8788" lon="3.68989">
        <ele>13.94</ele>
        <time>2021-03-20T19:19:49Z</time>
      </trkpt>
      <trkpt lat="50.8835" lon="3.68708">
        <ele>12.69</ele>
        <time>2021-03-20T19:19:53Z</time>
      </trkpt>
      <trkpt lat="50.88369" lon="3.68689">
        <ele>11.73</ele>
        <time>2021-03-20T19:19:58Z</time>
      </trkpt>
      <trkpt lat="50.88384" lon="3.68668">
        <ele>11.17</ele>
        <time>2021-03-20T19:20:02Z</time>
      </trkpt>
      <trkpt lat="50.88401" lon="3.68636">
        <ele>10.58</ele>
        <time>2021-03-20T19:20:07Z</time>
      </trkpt>
      <trkpt lat="50.88422" lon="3.68564">
        <ele>10</ele>
        <time>2021-03-20T19:20:12Z</time>
      </trkpt>
      <trkpt lat="50.88429" lon="3.68556">
        <ele>10</ele>
        <time>2021-03-20T19:20:16Z</time>
      </trkpt>
      <trkpt lat="50.88437" lon="3.6855">
        <ele>10</ele>
        <time>2021-03-20T19:20:21Z</time>
      </trkpt>
      <trkpt lat="50.88454" lon="3.68553">
        <ele>10</ele>
        <time>2021-03-20T19:20:25Z</time>
      </trkpt>
      <trkpt lat="50.88463" lon="3.68553">
        <ele>10</ele>
        <time>2021-03-20T19:20:32Z</time>
      </trkpt>
      <trkpt lat="50.88471" lon="3.68541">
        <ele>10</ele>
        <time>2021-03-20T19:20:39Z</time>
      </trkpt>
      <trkpt lat="50.8848" lon="3.68541">
        <ele>10.15</ele>
        <time>2021-03-20T19:20:46Z</time>
      </trkpt>
      <trkpt lat="50.88542" lon="3.68606">
        <ele>9.69</ele>
        <time>2021-03-20T19:20:53Z</time>
      </trkpt>
      <trkpt lat="50.88571" lon="3.68632">
        <ele>11.08</ele>
        <time>2021-03-20T19:21:00Z</time>
      </trkpt>
      <trkpt lat="50.88586" lon="3.68639">
        <ele>12</ele>
        <time>2021-03-20T19:21:07Z</time>
      </trkpt>
      <trkpt lat="50.88733" lon="3.68643">
        <ele>11.16</ele>
        <time>2021-03-20T19:21:14Z</time>
      </trkpt>
      <trkpt lat="50.88747" lon="3.6864">
        <ele>11.03</ele>
        <time>2021-03-20T19:21:21Z</time>
      </trkpt>
      <trkpt lat="50.88758" lon="3.68632">
        <ele>11</ele>
        <time>2021-03-20T19:21:28Z</time>
      </trkpt>
      <trkpt lat="50.89078" lon="3.68361">
        <ele>9.78</ele>
        <time>2021-03-20T19:21:35Z</time>
      </trkpt>
      <trkpt lat="50.89133" lon="3.68308">
        <ele>10.88</ele>
        <time>2021-03-20T19:21:42Z</time>
      </trkpt>
      <trkpt lat="50.89153" lon="3.68286">
        <ele>11</ele>
        <time>2021-03-20T19:21:49Z</time>
      </trkpt>
      <trkpt lat="50.89181" lon="3.6825">
        <ele>12</ele>
        <time>2021-03-20T19:21:56Z</time>
      </trkpt>
      <trkpt lat="50.89223" lon="3.68186">
        <ele>11.97</ele>
        <time>2021-03-20T19:22:03Z</time>
      </trkpt>
      <trkpt lat="50.89248" lon="3.68145">
        <ele>11.02</ele>
        <time>2021-03-20T19:22:10Z</time>
      </trkpt>
      <trkpt lat="50.8937" lon="3.67907">
        <ele>11.67</ele>
        <time>2021-03-20T19:22:17Z</time>
      </trkpt>
      <trkpt lat="50.89471" lon="3.67707">
        <ele>6.98</ele>
        <time>2021-03-20T19:22:24Z</time>
      </trkpt>
      <trkpt lat="50.8972" lon="3.67233">
        <ele>6.39</ele>
        <time>2021-03-20T19:22:31Z</time>
      </trkpt>
      <trkpt lat="50.89764" lon="3.67125">
        <ele>5.25</ele>
        <time>2021-03-20T19:22:38Z</time>
      </trkpt>
      <trkpt lat="50.89792" lon="3.6704">
        <ele>3.73</ele>
        <time>2021-03-20T19:22:45Z</time>
      </trkpt>
      <trkpt lat="50.89879" lon="3.6674">
        <ele>8.81</ele>
        <time>2021-03-20T19:22:52Z</time>
      </trkpt>
      <trkpt lat="50.90025" lon="3.66139">
        <ele>9</ele>
        <time>2021-03-20T19:22:59Z</time>
      </trkpt>
      <trkpt lat="50.90035" lon="3.66093">
        <ele>10</ele>
        <time>2021-03-20T19:23:06Z</time>
      </trkpt>
      <trkpt lat="50.90089" lon="3.65825">
        <ele>11</ele>
        <time>2021-03-20T19:23:13Z</time>
      </trkpt>
      <trkpt lat="50.90095" lon="3.65775">
        <ele>10.91</ele>
        <time>2021-03-20T19:23:20Z</time>
      </trkpt>
      <trkpt lat="50.9011" lon="3.65575">
        <ele>12.97</ele>
        <time>2021-03-20T19:23:27Z</time>
      </trkpt>
      <trkpt lat="50.90133" lon="3.65344">
        <ele>14</ele>
        <time>2021-03-20T19:23:34Z</time>
      </trkpt>
      <trkpt lat="50.90137" lon="3.65324">
        <ele>13.98</ele>
        <time>2021-03-20T19:23:41Z</time>
      </trkpt>
      <trkpt lat="50.90145" lon="3.65302">
        <ele>14</ele>
        <time>2021-03-20T19:23:48Z</time>
      </trkpt>
      <trkpt lat="50.90159" lon="3.65275">
        <ele>13.97</ele>
        <time>2021-03-20T19:23:55Z</time>
      </trkpt>
      <trkpt lat="50.90167" lon="3.65264">
        <ele>13.99</ele>
        <time>2021-03-20T19:24:02Z</time>
      </trkpt>
      <trkpt lat="50.90184" lon="3.65249">
        <ele>13.39</ele>
        <time>2021-03-20T19:24:09Z</time>
      </trkpt>
      <trkpt lat="50.90203" lon="3.65239">
        <ele>12.7</ele>
        <time>2021-03-20T19:24:16Z</time>
      </trkpt>
      <trkpt lat="50.90223" lon="3.65236">
        <ele>12.03</ele>
        <time>2021-03-20T19:24:23Z</time>
      </trkpt>
      <trkpt lat="50.90291" lon="3.65259">
        <ele>15</ele>
        <time>2021-03-20T19:24:30Z</time>
      </trkpt>
      <trkpt lat="50.9031" lon="3.65262">
        <ele>15.07</ele>
        <time>2021-03-20T19:24:37Z</time>
      </trkpt>
      <trkpt lat="50.90344" lon="3.65259">
        <ele>15.31</ele>
        <time>2021-03-20T19:24:44Z</time>
      </trkpt>
      <trkpt lat="50.9044" lon="3.65261">
        <ele>16.32</ele>
        <time>2021-03-20T19:24:51Z</time>
      </trkpt>
      <trkpt lat="50.90469" lon="3.65266">
        <ele>17.45</ele>
        <time>2021-03-20T19:24:58Z</time>
      </trkpt>
      <trkpt lat="50.90492" lon="3.65274">
        <ele>17.15</ele>
        <time>2021-03-20T19:25:05Z</time>
      </trkpt>
      <trkpt lat="50.90546" lon="3.65299">
        <ele>16.35</ele>
        <time>2021-03-20T19:25:12Z</time>
      </trkpt>
      <trkpt lat="50.90567" lon="3.65301">
        <ele>15.17</ele>
        <time>2021-03-20T19:25:19Z</time>
      </trkpt>
      <trkpt lat="50.90583" lon="3.65297">
        <ele>14.06</ele>
        <time>2021-03-20T19:25:26Z</time>
      </trkpt>
      <trkpt lat="50.90593" lon="3.65289">
        <ele>13.66</ele>
        <time>2021-03-20T19:25:33Z</time>
      </trkpt>
      <trkpt lat="50.90599" lon="3.65291">
        <ele>13.43</ele>
        <time>2021-03-20T19:25:38Z</time>
      </trkpt>
      <trkpt lat="50.90606" lon="3.65288">
        <ele>13.2</ele>
        <time>2021-03-20T19:25:44Z</time>
      </trkpt>
      <trkpt lat="50.90618" lon="3.65288">
        <ele>13</ele>
        <time>2021-03-20T19:25:49Z</time>
      </trkpt>
      <trkpt lat="50.90723" lon="3.65266">
        <ele>15.98</ele>
        <time>2021-03-20T19:25:55Z</time>
      </trkpt>
      <trkpt lat="50.90801" lon="3.65257">
        <ele>13.16</ele>
        <time>2021-03-20T19:26:00Z</time>
      </trkpt>
      <trkpt lat="50.90882" lon="3.65251">
        <ele>14.01</ele>
        <time>2021-03-20T19:26:06Z</time>
      </trkpt>
      <trkpt lat="50.91126" lon="3.65218">
        <ele>12.85</ele>
        <time>2021-03-20T19:26:11Z</time>
      </trkpt>
      <trkpt lat="50.91178" lon="3.65219">
        <ele>15.15</ele>
        <time>2021-03-20T19:26:17Z</time>
      </trkpt>
      <trkpt lat="50.91203" lon="3.65224">
        <ele>15.35</ele>
        <time>2021-03-20T19:26:22Z</time>
      </trkpt>
      <trkpt lat="50.91239" lon="3.6523">
        <ele>13.39</ele>
        <time>2021-03-20T19:26:28Z</time>
      </trkpt>
      <trkpt lat="50.91251" lon="3.65228">
        <ele>13</ele>
        <time>2021-03-20T19:26:33Z</time>
      </trkpt>
      <trkpt lat="50.91267" lon="3.6522">
        <ele>13.04</ele>
        <time>2021-03-20T19:26:39Z</time>
      </trkpt>
      <trkpt lat="50.91302" lon="3.6519">
        <ele>14</ele>
        <time>2021-03-20T19:26:44Z</time>
      </trkpt>
      <trkpt lat="50.91339" lon="3.65174">
        <ele>14</ele>
        <time>2021-03-20T19:26:50Z</time>
      </trkpt>
      <trkpt lat="50.91418" lon="3.65158">
        <ele>12.95</ele>
        <time>2021-03-20T19:26:55Z</time>
      </trkpt>
      <trkpt lat="50.91447" lon="3.65161">
        <ele>11.12</ele>
        <time>2021-03-20T19:27:01Z</time>
      </trkpt>
      <trkpt lat="50.91458" lon="3.65159">
        <ele>10.77</ele>
        <time>2021-03-20T19:27:07Z</time>
      </trkpt>
      <trkpt lat="50.9153" lon="3.65115">
        <ele>9.08</ele>
        <time>2021-03-20T19:27:12Z</time>
      </trkpt>
      <trkpt lat="50.91544" lon="3.65113">
        <ele>9.59</ele>
        <time>2021-03-20T19:27:18Z</time>
      </trkpt>
      <trkpt lat="50.91599" lon="3.65107">
        <ele>9.45</ele>
        <time>2021-03-20T19:27:23Z</time>
      </trkpt>
      <trkpt lat="50.91701" lon="3.65104">
        <ele>8</ele>
        <time>2021-03-20T19:27:29Z</time>
      </trkpt>
      <trkpt lat="50.9173" lon="3.65102">
        <ele>8</ele>
        <time>2021-03-20T19:27:34Z</time>
      </trkpt>
      <trkpt lat="50.91763" lon="3.65096">
        <ele>8.2</ele>
        <time>2021-03-20T19:27:40Z</time>
      </trkpt>
      <trkpt lat="50.91777" lon="3.65086">
        <ele>8.11</ele>
        <time>2021-03-20T19:27:45Z</time>
      </trkpt>
      <trkpt lat="50.92172" lon="3.64952">
        <ele>7.56</ele>
        <time>2021-03-20T19:27:51Z</time>
      </trkpt>
      <trkpt lat="50.9219" lon="3.6495">
        <ele>6.97</ele>
        <time>2021-03-20T19:27:56Z</time>
      </trkpt>
      <trkpt lat="50.92224" lon="3.64939">
        <ele>5</ele>
        <time>2021-03-20T19:28:02Z</time>
      </trkpt>
      <trkpt lat="50.92238" lon="3.6493">
        <ele>5</ele>
        <time>2021-03-20T19:28:07Z</time>
      </trkpt>
      <trkpt lat="50.92466" lon="3.6485">
        <ele>4</ele>
        <time>2021-03-20T19:28:13Z</time>
      </trkpt>
      <trkpt lat="50.92482" lon="3.64849">
        <ele>4</ele>
        <time>2021-03-20T19:28:18Z</time>
      </trkpt>
      <trkpt lat="50.92538" lon="3.64829">
        <ele>3.33</ele>
        <time>2021-03-20T19:28:24Z</time>
      </trkpt>
      <trkpt lat="50.92555" lon="3.64819">
        <ele>4.01</ele>
        <time>2021-03-20T19:28:29Z</time>
      </trkpt>
      <trkpt lat="50.92846" lon="3.64719">
        <ele>9.87</ele>
        <time>2021-03-20T19:28:35Z</time>
      </trkpt>
      <trkpt lat="50.9286" lon="3.64718">
        <ele>9.85</ele>
        <time>2021-03-20T19:28:40Z</time>
      </trkpt>
      <trkpt lat="50.9287" lon="3.64715">
        <ele>9.1</ele>
        <time>2021-03-20T19:28:46Z</time>
      </trkpt>
      <trkpt lat="50.9288" lon="3.64707">
        <ele>8.09</ele>
        <time>2021-03-20T19:28:51Z</time>
      </trkpt>
      <trkpt lat="50.92904" lon="3.64699">
        <ele>7.16</ele>
        <time>2021-03-20T19:28:57Z</time>
      </trkpt>
      <trkpt lat="50.92938" lon="3.64706">
        <ele>7.43</ele>
        <time>2021-03-20T19:29:02Z</time>
      </trkpt>
      <trkpt lat="50.92935" lon="3.64791">
        <ele>9.66</ele>
        <time>2021-03-20T19:29:07Z</time>
      </trkpt>
      <trkpt lat="50.92937" lon="3.6484">
        <ele>10.48</ele>
        <time>2021-03-20T19:29:12Z</time>
      </trkpt>
      <trkpt lat="50.93034" lon="3.64828">
        <ele>7.8</ele>
        <time>2021-03-20T19:29:19Z</time>
      </trkpt>
      <trkpt lat="50.931" lon="3.64815">
        <ele>10.56</ele>
        <time>2021-03-20T19:29:26Z</time>
      </trkpt>
      <trkpt lat="50.93124" lon="3.64807">
        <ele>11.03</ele>
        <time>2021-03-20T19:29:33Z</time>
      </trkpt>
      <trkpt lat="50.9332" lon="3.64714">
        <ele>7.84</ele>
        <time>2021-03-20T19:29:40Z</time>
      </trkpt>
      <trkpt lat="50.93376" lon="3.64696">
        <ele>7.49</ele>
        <time>2021-03-20T19:29:47Z</time>
      </trkpt>
      <trkpt lat="50.93402" lon="3.64696">
        <ele>7.5</ele>
        <time>2021-03-20T19:29:54Z</time>
      </trkpt>
      <trkpt lat="50.93521" lon="3.64718">
        <ele>6.16</ele>
        <time>2021-03-20T19:30:01Z</time>
      </trkpt>
      <trkpt lat="50.93532" lon="3.64714">
        <ele>6.3</ele>
        <time>2021-03-20T19:30:08Z</time>
      </trkpt>
      <trkpt lat="50.93559" lon="3.64696">
        <ele>6.95</ele>
        <time>2021-03-20T19:30:15Z</time>
      </trkpt>
      <trkpt lat="50.93621" lon="3.64649">
        <ele>7.02</ele>
        <time>2021-03-20T19:30:22Z</time>
      </trkpt>
      <trkpt lat="50.93649" lon="3.64636">
        <ele>5.9</ele>
        <time>2021-03-20T19:30:29Z</time>
      </trkpt>
      <trkpt lat="50.93706" lon="3.64616">
        <ele>6</ele>
        <time>2021-03-20T19:30:35Z</time>
      </trkpt>
      <trkpt lat="50.93823" lon="3.64595">
        <ele>4.22</ele>
        <time>2021-03-20T19:30:42Z</time>
      </trkpt>
      <trkpt lat="50.93996" lon="3.64526">
        <ele>6.06</ele>
        <time>2021-03-20T19:30:49Z</time>
      </trkpt>
      <trkpt lat="50.94086" lon="3.64442">
        <ele>7.9</ele>
        <time>2021-03-20T19:30:56Z</time>
      </trkpt>
      <trkpt lat="50.94147" lon="3.64388">
        <ele>8</ele>
        <time>2021-03-20T19:31:03Z</time>
      </trkpt>
      <trkpt lat="50.94172" lon="3.64369">
        <ele>7.59</ele>
        <time>2021-03-20T19:31:10Z</time>
      </trkpt>
      <trkpt lat="50.94192" lon="3.6436">
        <ele>6.18</ele>
        <time>2021-03-20T19:31:17Z</time>
      </trkpt>
      <trkpt lat="50.9426" lon="3.64348">
        <ele>3.34</ele>
        <time>2021-03-20T19:31:24Z</time>
      </trkpt>
      <trkpt lat="50.9428" lon="3.64342">
        <ele>4.06</ele>
        <time>2021-03-20T19:31:31Z</time>
      </trkpt>
      <trkpt lat="50.94298" lon="3.6433">
        <ele>4.76</ele>
        <time>2021-03-20T19:31:38Z</time>
      </trkpt>
      <trkpt lat="50.94354" lon="3.6428">
        <ele>6</ele>
        <time>2021-03-20T19:31:45Z</time>
      </trkpt>
      <trkpt lat="50.94377" lon="3.64266">
        <ele>6.13</ele>
        <time>2021-03-20T19:31:52Z</time>
      </trkpt>
      <trkpt lat="50.94509" lon="3.64292">
        <ele>4.84</ele>
        <time>2021-03-20T19:31:59Z</time>
      </trkpt>
      <trkpt lat="50.94523" lon="3.64298">
        <ele>4.78</ele>
        <time>2021-03-20T19:32:06Z</time>
      </trkpt>
      <trkpt lat="50.94694" lon="3.64405">
        <ele>7</ele>
        <time>2021-03-20T19:32:13Z</time>
      </trkpt>
      <trkpt lat="50.94717" lon="3.64413">
        <ele>7</ele>
        <time>2021-03-20T19:32:20Z</time>
      </trkpt>
      <trkpt lat="50.9478" lon="3.64424">
        <ele>8.98</ele>
        <time>2021-03-20T19:32:27Z</time>
      </trkpt>
      <trkpt lat="50.94817" lon="3.6442">
        <ele>8.05</ele>
        <time>2021-03-20T19:32:34Z</time>
      </trkpt>
      <trkpt lat="50.94827" lon="3.64415">
        <ele>7.54</ele>
        <time>2021-03-20T19:32:41Z</time>
      </trkpt>
      <trkpt lat="50.94841" lon="3.64402">
        <ele>7.24</ele>
        <time>2021-03-20T19:32:48Z</time>
      </trkpt>
      <trkpt lat="50.94896" lon="3.64337">
        <ele>8</ele>
        <time>2021-03-20T19:32:55Z</time>
      </trkpt>
      <trkpt lat="50.94963" lon="3.64233">
        <ele>7.16</ele>
        <time>2021-03-20T19:33:02Z</time>
      </trkpt>
      <trkpt lat="50.95002" lon="3.64106">
        <ele>5.89</ele>
        <time>2021-03-20T19:33:09Z</time>
      </trkpt>
      <trkpt lat="50.96391" lon="3.65181">
        <ele>5.92</ele>
        <time>2021-03-20T19:33:34Z</time>
      </trkpt>
      <trkpt lat="50.96418" lon="3.65202">
        <ele>5.28</ele>
        <time>2021-03-20T19:33:58Z</time>
      </trkpt>
      <trkpt lat="50.96475" lon="3.65238">
        <ele>6.9</ele>
        <time>2021-03-20T19:34:23Z</time>
      </trkpt>
      <trkpt lat="50.96518" lon="3.65276">
        <ele>5.61</ele>
        <time>2021-03-20T19:34:48Z</time>
      </trkpt>
      <trkpt lat="50.96518" lon="3.65284">
        <ele>5.88</ele>
        <time>2021-03-20T19:34:58Z</time>
      </trkpt>
      <trkpt lat="50.96523" lon="3.65299">
        <ele>6.57</ele>
        <time>2021-03-20T19:35:08Z</time>
      </trkpt>
      <trkpt lat="50.96531" lon="3.65332">
        <ele>7.95</ele>
        <time>2021-03-20T19:35:18Z</time>
      </trkpt>
      <trkpt lat="50.96535" lon="3.65338">
        <ele>8</ele>
        <time>2021-03-20T19:35:29Z</time>
      </trkpt>
      <trkpt lat="50.96551" lon="3.65386">
        <ele>8.75</ele>
        <time>2021-03-20T19:35:39Z</time>
      </trkpt>
      <trkpt lat="50.96786" lon="3.65972">
        <ele>5.72</ele>
        <time>2021-03-20T19:35:49Z</time>
      </trkpt>
      <trkpt lat="50.96857" lon="3.66146">
        <ele>7.96</ele>
        <time>2021-03-20T19:35:59Z</time>
      </trkpt>
      <trkpt lat="50.96874" lon="3.66186">
        <ele>7.52</ele>
        <time>2021-03-20T19:36:09Z</time>
      </trkpt>
      <trkpt lat="50.96896" lon="3.66228">
        <ele>7</ele>
        <time>2021-03-20T19:36:20Z</time>
      </trkpt>
      <trkpt lat="50.96924" lon="3.66275">
        <ele>7.23</ele>
        <time>2021-03-20T19:36:30Z</time>
      </trkpt>
      <trkpt lat="50.96974" lon="3.66343">
        <ele>9.26</ele>
        <time>2021-03-20T19:36:40Z</time>
      </trkpt>
      <trkpt lat="50.97022" lon="3.66395">
        <ele>10.2</ele>
        <time>2021-03-20T19:36:50Z</time>
      </trkpt>
      <trkpt lat="50.9735" lon="3.66679">
        <ele>6.41</ele>
        <time>2021-03-20T19:37:00Z</time>
      </trkpt>
      <trkpt lat="50.97489" lon="3.66803">
        <ele>7.15</ele>
        <time>2021-03-20T19:37:11Z</time>
      </trkpt>
      <trkpt lat="50.97523" lon="3.66847">
        <ele>9</ele>
        <time>2021-03-20T19:37:21Z</time>
      </trkpt>
      <trkpt lat="50.97642" lon="3.67019">
        <ele>7</ele>
        <time>2021-03-20T19:37:31Z</time>
      </trkpt>
      <trkpt lat="50.97688" lon="3.67096">
        <ele>6.78</ele>
        <time>2021-03-20T19:37:41Z</time>
      </trkpt>
      <trkpt lat="50.9779" lon="3.6728">
        <ele>8</ele>
        <time>2021-03-20T19:37:51Z</time>
      </trkpt>
      <trkpt lat="50.97827" lon="3.67341">
        <ele>7.76</ele>
        <time>2021-03-20T19:38:02Z</time>
      </trkpt>
      <trkpt lat="50.98071" lon="3.67642">
        <ele>4.92</ele>
        <time>2021-03-20T19:38:12Z</time>
      </trkpt>
      <trkpt lat="50.98353" lon="3.67979">
        <ele>9.44</ele>
        <time>2021-03-20T19:38:22Z</time>
      </trkpt>
      <trkpt lat="50.98514" lon="3.68186">
        <ele>12.53</ele>
        <time>2021-03-20T19:38:32Z</time>
      </trkpt>
      <trkpt lat="50.98543" lon="3.68209">
        <ele>10.82</ele>
        <time>2021-03-20T19:38:42Z</time>
      </trkpt>
      <trkpt lat="50.98559" lon="3.68216">
        <ele>9.66</ele>
        <time>2021-03-20T19:38:53Z</time>
      </trkpt>
      <trkpt lat="50.98581" lon="3.68215">
        <ele>9.05</ele>
        <time>2021-03-20T19:39:03Z</time>
      </trkpt>
      <trkpt lat="50.98984" lon="3.68126">
        <ele>8.26</ele>
        <time>2021-03-20T19:39:13Z</time>
      </trkpt>
      <trkpt lat="50.99034" lon="3.68119">
        <ele>6.77</ele>
        <time>2021-03-20T19:39:23Z</time>
      </trkpt>
      <trkpt lat="50.99187" lon="3.6812">
        <ele>6.74</ele>
        <time>2021-03-20T19:39:34Z</time>
      </trkpt>
      <trkpt lat="50.99192" lon="3.68123">
        <ele>6.92</ele>
        <time>2021-03-20T19:39:44Z</time>
      </trkpt>
      <trkpt lat="50.99227" lon="3.68124">
        <ele>7.61</ele>
        <time>2021-03-20T19:39:54Z</time>
      </trkpt>
      <trkpt lat="50.99234" lon="3.68121">
        <ele>7.79</ele>
        <time>2021-03-20T19:40:04Z</time>
      </trkpt>
      <trkpt lat="50.99239" lon="3.68115">
        <ele>7.94</ele>
        <time>2021-03-20T19:40:14Z</time>
      </trkpt>
      <trkpt lat="50.99244" lon="3.68105">
        <ele>8</ele>
        <time>2021-03-20T19:40:25Z</time>
      </trkpt>
      <trkpt lat="50.99318" lon="3.68183">
        <ele>6.78</ele>
        <time>2021-03-20T19:40:42Z</time>
      </trkpt>
      <trkpt lat="50.994" lon="3.68277">
        <ele>7.05</ele>
        <time>2021-03-20T19:40:59Z</time>
      </trkpt>
      <trkpt lat="50.99518" lon="3.6842">
        <ele>6.96</ele>
        <time>2021-03-20T19:41:16Z</time>
      </trkpt>
      <trkpt lat="50.9968" lon="3.68619">
        <ele>8.17</ele>
        <time>2021-03-20T19:41:33Z</time>
      </trkpt>
      <trkpt lat="51.00864" lon="3.70079">
        <ele>5.65</ele>
        <time>2021-03-20T19:41:50Z</time>
      </trkpt>
      <trkpt lat="51.00923" lon="3.70152">
        <ele>6.3</ele>
        <time>2021-03-20T19:42:07Z</time>
      </trkpt>
      <trkpt lat="51.00964" lon="3.70202">
        <ele>8.37</ele>
        <time>2021-03-20T19:42:24Z</time>
      </trkpt>
      <trkpt lat="51.00988" lon="3.70226">
        <ele>8.11</ele>
        <time>2021-03-20T19:42:41Z</time>
      </trkpt>
      <trkpt lat="51.01023" lon="3.7027">
        <ele>6.37</ele>
        <time>2021-03-20T19:42:58Z</time>
      </trkpt>
      <trkpt lat="51.01022" lon="3.70282">
        <ele>6.42</ele>
        <time>2021-03-20T19:43:06Z</time>
      </trkpt>
      <trkpt lat="51.01025" lon="3.70292">
        <ele>6.24</ele>
        <time>2021-03-20T19:43:14Z</time>
      </trkpt>
      <trkpt lat="51.01035" lon="3.70305">
        <ele>5.99</ele>
        <time>2021-03-20T19:43:21Z</time>
      </trkpt>
      <trkpt lat="51.0122" lon="3.70468">
        <ele>7.76</ele>
        <time>2021-03-20T19:43:29Z</time>
      </trkpt>
      <trkpt lat="51.0124" lon="3.70483">
        <ele>7.13</ele>
        <time>2021-03-20T19:43:37Z</time>
      </trkpt>
      <trkpt lat="51.01249" lon="3.70483">
        <ele>6.45</ele>
        <time>2021-03-20T19:43:45Z</time>
      </trkpt>
      <trkpt lat="51.01312" lon="3.70593">
        <ele>9.14</ele>
        <time>2021-03-20T19:43:53Z</time>
      </trkpt>
      <trkpt lat="51.01346" lon="3.70644">
        <ele>8.45</ele>
        <time>2021-03-20T19:44:00Z</time>
      </trkpt>
      <trkpt lat="51.01383" lon="3.70685">
        <ele>8.78</ele>
        <time>2021-03-20T19:44:08Z</time>
      </trkpt>
      <trkpt lat="51.01404" lon="3.70706">
        <ele>8.78</ele>
        <time>2021-03-20T19:44:16Z</time>
      </trkpt>
      <trkpt lat="51.01454" lon="3.70741">
        <ele>9.47</ele>
        <time>2021-03-20T19:44:24Z</time>
      </trkpt>
      <trkpt lat="51.01748" lon="3.70918">
        <ele>7.01</ele>
        <time>2021-03-20T19:44:32Z</time>
      </trkpt>
      <trkpt lat="51.01786" lon="3.70939">
        <ele>6.01</ele>
        <time>2021-03-20T19:44:40Z</time>
      </trkpt>
      <trkpt lat="51.01808" lon="3.70945">
        <ele>7</ele>
        <time>2021-03-20T19:44:47Z</time>
      </trkpt>
      <trkpt lat="51.01845" lon="3.70951">
        <ele>7.25</ele>
        <time>2021-03-20T19:44:55Z</time>
      </trkpt>
      <trkpt lat="51.01879" lon="3.7095">
        <ele>7.07</ele>
        <time>2021-03-20T19:45:03Z</time>
      </trkpt>
      <trkpt lat="51.02053" lon="3.70929">
        <ele>8.57</ele>
        <time>2021-03-20T19:45:11Z</time>
      </trkpt>
      <trkpt lat="51.02106" lon="3.70925">
        <ele>9.61</ele>
        <time>2021-03-20T19:45:19Z</time>
      </trkpt>
      <trkpt lat="51.02181" lon="3.70926">
        <ele>6.47</ele>
        <time>2021-03-20T19:45:26Z</time>
      </trkpt>
      <trkpt lat="51.02152" lon="3.70863">
        <ele>7.05</ele>
        <time>2021-03-20T19:45:33Z</time>
      </trkpt>
      <trkpt lat="51.0214" lon="3.70842">
        <ele>6.34</ele>
        <time>2021-03-20T19:45:40Z</time>
      </trkpt>
      <trkpt lat="51.02115" lon="3.70782">
        <ele>5.87</ele>
        <time>2021-03-20T19:45:46Z</time>
      </trkpt>
      <trkpt lat="51.02107" lon="3.70759">
        <ele>6.53</ele>
        <time>2021-03-20T19:45:53Z</time>
      </trkpt>
      <trkpt lat="51.02084" lon="3.70709">
        <ele>6.03</ele>
        <time>2021-03-20T19:46:00Z</time>
      </trkpt>
      <trkpt lat="51.0206" lon="3.7065">
        <ele>5.25</ele>
        <time>2021-03-20T19:46:06Z</time>
      </trkpt>
      <trkpt lat="51.02054" lon="3.70629">
        <ele>4.85</ele>
        <time>2021-03-20T19:46:13Z</time>
      </trkpt>
      <trkpt lat="51.02052" lon="3.70611">
        <ele>4.63</ele>
        <time>2021-03-20T19:46:20Z</time>
      </trkpt>
      <trkpt lat="51.02059" lon="3.70595">
        <ele>4.56</ele>
        <time>2021-03-20T19:46:26Z</time>
      </trkpt>
      <trkpt lat="51.02065" lon="3.70587">
        <ele>4.53</ele>
        <time>2021-03-20T19:46:33Z</time>
      </trkpt>
      <trkpt lat="51.02103" lon="3.70563">
        <ele>3.34</ele>
        <time>2021-03-20T19:46:40Z</time>
      </trkpt>
      <trkpt lat="51.02111" lon="3.70548">
        <ele>2.76</ele>
        <time>2021-03-20T19:46:46Z</time>
      </trkpt>
      <trkpt lat="51.02197" lon="3.70508">
        <ele>7.87</ele>
        <time>2021-03-20T19:46:53Z</time>
      </trkpt>
      <trkpt lat="51.02261" lon="3.7048">
        <ele>4.34</ele>
        <time>2021-03-20T19:46:59Z</time>
      </trkpt>
      <trkpt lat="51.02585" lon="3.70358">
        <ele>9.12</ele>
        <time>2021-03-20T19:47:06Z</time>
      </trkpt>
      <trkpt lat="51.02699" lon="3.70322">
        <ele>1.69</ele>
        <time>2021-03-20T19:47:13Z</time>
      </trkpt>
      <trkpt lat="51.02801" lon="3.70282">
        <ele>5.53</ele>
        <time>2021-03-20T19:47:19Z</time>
      </trkpt>
      <trkpt lat="51.02836" lon="3.70264">
        <ele>8.05</ele>
        <time>2021-03-20T19:47:26Z</time>
      </trkpt>
      <trkpt lat="51.02897" lon="3.70224">
        <ele>8.71</ele>
        <time>2021-03-20T19:47:33Z</time>
      </trkpt>
      <trkpt lat="51.02965" lon="3.70165">
        <ele>4.37</ele>
        <time>2021-03-20T19:47:39Z</time>
      </trkpt>
      <trkpt lat="51.03015" lon="3.70112">
        <ele>7.6</ele>
        <time>2021-03-20T19:47:46Z</time>
      </trkpt>
      <trkpt lat="51.03041" lon="3.7008">
        <ele>8.35</ele>
        <time>2021-03-20T19:47:53Z</time>
      </trkpt>
      <trkpt lat="51.03094" lon="3.70007">
        <ele>7.26</ele>
        <time>2021-03-20T19:47:59Z</time>
      </trkpt>
      <trkpt lat="51.03145" lon="3.69921">
        <ele>4.54</ele>
        <time>2021-03-20T19:48:06Z</time>
      </trkpt>
      <trkpt lat="51.0317" lon="3.69871">
        <ele>1.82</ele>
        <time>2021-03-20T19:48:13Z</time>
      </trkpt>
      <trkpt lat="51.03197" lon="3.69812">
        <ele>1.77</ele>
        <time>2021-03-20T19:48:19Z</time>
      </trkpt>
      <trkpt lat="51.0322" lon="3.69755">
        <ele>4.63</ele>
        <time>2021-03-20T19:48:26Z</time>
      </trkpt>
      <trkpt lat="51.03245" lon="3.69683">
        <ele>6.36</ele>
        <time>2021-03-20T19:48:33Z</time>
      </trkpt>
      <trkpt lat="51.0327" lon="3.69593">
        <ele>3.63</ele>
        <time>2021-03-20T19:48:39Z</time>
      </trkpt>
      <trkpt lat="51.0329" lon="3.69506">
        <ele>3.65</ele>
        <time>2021-03-20T19:48:46Z</time>
      </trkpt>
      <trkpt lat="51.03307" lon="3.69402">
        <ele>5.55</ele>
        <time>2021-03-20T19:48:53Z</time>
      </trkpt>
      <trkpt lat="51.03339" lon="3.69096">
        <ele>4.47</ele>
        <time>2021-03-20T19:48:59Z</time>
      </trkpt>
      <trkpt lat="51.03356" lon="3.68997">
        <ele>3.09</ele>
        <time>2021-03-20T19:49:06Z</time>
      </trkpt>
      <trkpt lat="51.03368" lon="3.68947">
        <ele>4</ele>
        <time>2021-03-20T19:49:12Z</time>
      </trkpt>
      <trkpt lat="51.03388" lon="3.68872">
        <ele>4.17</ele>
        <time>2021-03-20T19:49:19Z</time>
      </trkpt>
      <trkpt lat="51.03403" lon="3.68824">
        <ele>5.66</ele>
        <time>2021-03-20T19:49:26Z</time>
      </trkpt>
      <trkpt lat="51.03442" lon="3.68719">
        <ele>6.2</ele>
        <time>2021-03-20T19:49:32Z</time>
      </trkpt>
      <trkpt lat="51.03478" lon="3.68646">
        <ele>5.07</ele>
        <time>2021-03-20T19:49:39Z</time>
      </trkpt>
      <trkpt lat="51.0351" lon="3.6859">
        <ele>2.38</ele>
        <time>2021-03-20T19:49:46Z</time>
      </trkpt>
      <trkpt lat="51.03542" lon="3.68542">
        <ele>1</ele>
        <time>2021-03-20T19:49:52Z</time>
      </trkpt>
      <trkpt lat="51.03692" lon="3.68343">
        <ele>5.74</ele>
        <time>2021-03-20T19:49:59Z</time>
      </trkpt>
      <trkpt lat="51.03783" lon="3.6823">
        <ele>9.72</ele>
        <time>2021-03-20T19:50:06Z</time>
      </trkpt>
      <trkpt lat="51.03833" lon="3.68178">
        <ele>9.06</ele>
        <time>2021-03-20T19:50:12Z</time>
      </trkpt>
      <trkpt lat="51.0389" lon="3.68127">
        <ele>8.12</ele>
        <time>2021-03-20T19:50:19Z</time>
      </trkpt>
      <trkpt lat="51.03929" lon="3.68102">
        <ele>8.81</ele>
        <time>2021-03-20T19:50:26Z</time>
      </trkpt>
      <trkpt lat="51.04002" lon="3.6806">
        <ele>1</ele>
        <time>2021-03-20T19:50:32Z</time>
      </trkpt>
      <trkpt lat="51.04088" lon="3.68022">
        <ele>4.03</ele>
        <time>2021-03-20T19:50:39Z</time>
      </trkpt>
      <trkpt lat="51.04146" lon="3.68002">
        <ele>6.25</ele>
        <time>2021-03-20T19:50:46Z</time>
      </trkpt>
      <trkpt lat="51.04413" lon="3.67933">
        <ele>5.6</ele>
        <time>2021-03-20T19:50:52Z</time>
      </trkpt>
      <trkpt lat="51.04609" lon="3.67892">
        <ele>4.24</ele>
        <time>2021-03-20T19:50:59Z</time>
      </trkpt>
      <trkpt lat="51.04676" lon="3.67874">
        <ele>5.12</ele>
        <time>2021-03-20T19:51:06Z</time>
      </trkpt>
      <trkpt lat="51.04742" lon="3.67851">
        <ele>-1.18</ele>
        <time>2021-03-20T19:51:12Z</time>
      </trkpt>
      <trkpt lat="51.0481" lon="3.67823">
        <ele>0.32</ele>
        <time>2021-03-20T19:51:19Z</time>
      </trkpt>
      <trkpt lat="51.04873" lon="3.67793">
        <ele>3.92</ele>
        <time>2021-03-20T19:51:25Z</time>
      </trkpt>
      <trkpt lat="51.04918" lon="3.67766">
        <ele>3.28</ele>
        <time>2021-03-20T19:51:32Z</time>
      </trkpt>
      <trkpt lat="51.04998" lon="3.67707">
        <ele>6.61</ele>
        <time>2021-03-20T19:51:39Z</time>
      </trkpt>
      <trkpt lat="51.05052" lon="3.67659">
        <ele>9.53</ele>
        <time>2021-03-20T19:51:45Z</time>
      </trkpt>
      <trkpt lat="51.05145" lon="3.67554">
        <ele>4.7</ele>
        <time>2021-03-20T19:51:52Z</time>
      </trkpt>
      <trkpt lat="51.0523" lon="3.67446">
        <ele>-1.53</ele>
        <time>2021-03-20T19:51:59Z</time>
      </trkpt>
      <trkpt lat="51.05343" lon="3.67278">
        <ele>4</ele>
        <time>2021-03-20T19:52:05Z</time>
      </trkpt>
      <trkpt lat="51.05441" lon="3.67127">
        <ele>1.56</ele>
        <time>2021-03-20T19:52:12Z</time>
      </trkpt>
      <trkpt lat="51.0556" lon="3.66941">
        <ele>1.36</ele>
        <time>2021-03-20T19:52:19Z</time>
      </trkpt>
      <trkpt lat="51.05656" lon="3.66799">
        <ele>3.23</ele>
        <time>2021-03-20T19:52:25Z</time>
      </trkpt>
      <trkpt lat="51.05748" lon="3.66673">
        <ele>5</ele>
        <time>2021-03-20T19:52:32Z</time>
      </trkpt>
      <trkpt lat="51.05843" lon="3.6655">
        <ele>4</ele>
        <time>2021-03-20T19:52:39Z</time>
      </trkpt>
      <trkpt lat="51.0593" lon="3.66446">
        <ele>3.39</ele>
        <time>2021-03-20T19:52:45Z</time>
      </trkpt>
      <trkpt lat="51.06014" lon="3.66352">
        <ele>8.33</ele>
        <time>2021-03-20T19:52:52Z</time>
      </trkpt>
      <trkpt lat="51.0606" lon="3.66303">
        <ele>7.66</ele>
        <time>2021-03-20T19:52:59Z</time>
      </trkpt>
      <trkpt lat="51.06131" lon="3.66235">
        <ele>5.46</ele>
        <time>2021-03-20T19:53:05Z</time>
      </trkpt>
      <trkpt lat="51.06224" lon="3.66155">
        <ele>5.47</ele>
        <time>2021-03-20T19:53:12Z</time>
      </trkpt>
      <trkpt lat="51.06323" lon="3.6608">
        <ele>-0.63</ele>
        <time>2021-03-20T19:53:19Z</time>
      </trkpt>
      <trkpt lat="51.064" lon="3.6603">
        <ele>4.58</ele>
        <time>2021-03-20T19:53:25Z</time>
      </trkpt>
      <trkpt lat="51.06444" lon="3.66004">
        <ele>5.87</ele>
        <time>2021-03-20T19:53:32Z</time>
      </trkpt>
      <trkpt lat="51.0653" lon="3.65959">
        <ele>2.17</ele>
        <time>2021-03-20T19:53:38Z</time>
      </trkpt>
      <trkpt lat="51.06586" lon="3.65934">
        <ele>-0.43</ele>
        <time>2021-03-20T19:53:45Z</time>
      </trkpt>
      <trkpt lat="51.06651" lon="3.65909">
        <ele>2</ele>
        <time>2021-03-20T19:53:52Z</time>
      </trkpt>
      <trkpt lat="51.06714" lon="3.65887">
        <ele>4.35</ele>
        <time>2021-03-20T19:53:58Z</time>
      </trkpt>
      <trkpt lat="51.06835" lon="3.65854">
        <ele>3.34</ele>
        <time>2021-03-20T19:54:05Z</time>
      </trkpt>
      <trkpt lat="51.06899" lon="3.65841">
        <ele>4.53</ele>
        <time>2021-03-20T19:54:12Z</time>
      </trkpt>
      <trkpt lat="51.06968" lon="3.6583">
        <ele>3.32</ele>
        <time>2021-03-20T19:54:18Z</time>
      </trkpt>
      <trkpt lat="51.0704" lon="3.65822">
        <ele>3.75</ele>
        <time>2021-03-20T19:54:25Z</time>
      </trkpt>
      <trkpt lat="51.07159" lon="3.65816">
        <ele>5.02</ele>
        <time>2021-03-20T19:54:32Z</time>
      </trkpt>
      <trkpt lat="51.07322" lon="3.65815">
        <ele>2.28</ele>
        <time>2021-03-20T19:54:38Z</time>
      </trkpt>
      <trkpt lat="51.07449" lon="3.65822">
        <ele>4.28</ele>
        <time>2021-03-20T19:54:45Z</time>
      </trkpt>
      <trkpt lat="51.08055" lon="3.65873">
        <ele>3.91</ele>
        <time>2021-03-20T19:54:52Z</time>
      </trkpt>
      <trkpt lat="51.08125" lon="3.65884">
        <ele>3</ele>
        <time>2021-03-20T19:54:58Z</time>
      </trkpt>
      <trkpt lat="51.08156" lon="3.65895">
        <ele>4.26</ele>
        <time>2021-03-20T19:55:05Z</time>
      </trkpt>
      <trkpt lat="51.08183" lon="3.65908">
        <ele>5.19</ele>
        <time>2021-03-20T19:55:12Z</time>
      </trkpt>
      <trkpt lat="51.08203" lon="3.6592">
        <ele>5.16</ele>
        <time>2021-03-20T19:55:18Z</time>
      </trkpt>
      <trkpt lat="51.08239" lon="3.65949">
        <ele>5.08</ele>
        <time>2021-03-20T19:55:25Z</time>
      </trkpt>
      <trkpt lat="51.08282" lon="3.65995">
        <ele>4.76</ele>
        <time>2021-03-20T19:55:32Z</time>
      </trkpt>
      <trkpt lat="51.08319" lon="3.66051">
        <ele>7</ele>
        <time>2021-03-20T19:55:38Z</time>
      </trkpt>
      <trkpt lat="51.08348" lon="3.66115">
        <ele>3.34</ele>
        <time>2021-03-20T19:55:45Z</time>
      </trkpt>
      <trkpt lat="51.08362" lon="3.66152">
        <ele>2.47</ele>
        <time>2021-03-20T19:55:51Z</time>
      </trkpt>
      <trkpt lat="51.08386" lon="3.66233">
        <ele>4.11</ele>
        <time>2021-03-20T19:55:58Z</time>
      </trkpt>
      <trkpt lat="51.08525" lon="3.66775">
        <ele>6.64</ele>
        <time>2021-03-20T19:56:05Z</time>
      </trkpt>
      <trkpt lat="51.08585" lon="3.67016">
        <ele>5.16</ele>
        <time>2021-03-20T19:56:11Z</time>
      </trkpt>
      <trkpt lat="51.08627" lon="3.672">
        <ele>5.14</ele>
        <time>2021-03-20T19:56:18Z</time>
      </trkpt>
      <trkpt lat="51.08683" lon="3.67484">
        <ele>2.15</ele>
        <time>2021-03-20T19:56:25Z</time>
      </trkpt>
      <trkpt lat="51.08751" lon="3.67869">
        <ele>-2.62</ele>
        <time>2021-03-20T19:56:31Z</time>
      </trkpt>
      <trkpt lat="51.08817" lon="3.68176">
        <ele>8</ele>
        <time>2021-03-20T19:56:38Z</time>
      </trkpt>
      <trkpt lat="51.08865" lon="3.68385">
        <ele>7.49</ele>
        <time>2021-03-20T19:56:45Z</time>
      </trkpt>
      <trkpt lat="51.0892" lon="3.68598">
        <ele>5.52</ele>
        <time>2021-03-20T19:56:51Z</time>
      </trkpt>
      <trkpt lat="51.09019" lon="3.68943">
        <ele>-0.34</ele>
        <time>2021-03-20T19:56:58Z</time>
      </trkpt>
      <trkpt lat="51.09173" lon="3.69462">
        <ele>0.35</ele>
        <time>2021-03-20T19:57:05Z</time>
      </trkpt>
      <trkpt lat="51.09251" lon="3.69706">
        <ele>1.65</ele>
        <time>2021-03-20T19:57:11Z</time>
      </trkpt>
      <trkpt lat="51.09341" lon="3.69965">
        <ele>5.34</ele>
        <time>2021-03-20T19:57:18Z</time>
      </trkpt>
      <trkpt lat="51.0944" lon="3.70218">
        <ele>5.71</ele>
        <time>2021-03-20T19:57:25Z</time>
      </trkpt>
      <trkpt lat="51.0944" lon="3.70218">
        <ele>5.71</ele>
        <time>2021-03-20T19:57:25Z</time>
      </trkpt>
      <trkpt lat="51.09466" lon="3.70282">
        <ele>7.33</ele>
        <time>2021-03-20T19:57:32Z</time>
      </trkpt>
      <trkpt lat="51.09542" lon="3.70459">
        <ele>5.77</ele>
        <time>2021-03-20T19:57:40Z</time>
      </trkpt>
      <trkpt lat="51.09623" lon="3.70632">
        <ele>6.47</ele>
        <time>2021-03-20T19:57:48Z</time>
      </trkpt>
      <trkpt lat="51.09703" lon="3.70796">
        <ele>3.66</ele>
        <time>2021-03-20T19:57:56Z</time>
      </trkpt>
      <trkpt lat="51.09852" lon="3.71077">
        <ele>6</ele>
        <time>2021-03-20T19:58:03Z</time>
      </trkpt>
      <trkpt lat="51.09918" lon="3.7119">
        <ele>8.11</ele>
        <time>2021-03-20T19:58:11Z</time>
      </trkpt>
      <trkpt lat="51.10011" lon="3.71342">
        <ele>7</ele>
        <time>2021-03-20T19:58:19Z</time>
      </trkpt>
      <trkpt lat="51.10063" lon="3.71434">
        <ele>6.53</ele>
        <time>2021-03-20T19:58:27Z</time>
      </trkpt>
      <trkpt lat="51.1008" lon="3.71465">
        <ele>7.55</ele>
        <time>2021-03-20T19:58:34Z</time>
      </trkpt>
      <trkpt lat="51.10141" lon="3.71565">
        <ele>5.68</ele>
        <time>2021-03-20T19:58:42Z</time>
      </trkpt>
      <trkpt lat="51.10236" lon="3.71704">
        <ele>11.54</ele>
        <time>2021-03-20T19:58:50Z</time>
      </trkpt>
      <trkpt lat="51.10327" lon="3.71829">
        <ele>4.76</ele>
        <time>2021-03-20T19:58:58Z</time>
      </trkpt>
      <trkpt lat="51.10445" lon="3.71982">
        <ele>6.35</ele>
        <time>2021-03-20T19:59:06Z</time>
      </trkpt>
      <trkpt lat="51.10654" lon="3.72259">
        <ele>6.16</ele>
        <time>2021-03-20T19:59:13Z</time>
      </trkpt>
      <trkpt lat="51.1073" lon="3.72351">
        <ele>5.64</ele>
        <time>2021-03-20T19:59:21Z</time>
      </trkpt>
      <trkpt lat="51.10808" lon="3.72436">
        <ele>10.97</ele>
        <time>2021-03-20T19:59:29Z</time>
      </trkpt>
      <trkpt lat="51.10876" lon="3.72504">
        <ele>9.72</ele>
        <time>2021-03-20T19:59:37Z</time>
      </trkpt>
      <trkpt lat="51.10948" lon="3.72567">
        <ele>4.86</ele>
        <time>2021-03-20T19:59:44Z</time>
      </trkpt>
      <trkpt lat="51.11035" lon="3.72634">
        <ele>5.14</ele>
        <time>2021-03-20T19:59:52Z</time>
      </trkpt>
      <trkpt lat="51.11067" lon="3.72657">
        <ele>4.06</ele>
        <time>2021-03-20T20:00:00Z</time>
      </trkpt>
      <trkpt lat="51.11152" lon="3.72712">
        <ele>6.09</ele>
        <time>2021-03-20T20:00:08Z</time>
      </trkpt>
      <trkpt lat="51.11211" lon="3.72745">
        <ele>4.61</ele>
        <time>2021-03-20T20:00:15Z</time>
      </trkpt>
      <trkpt lat="51.11281" lon="3.7278">
        <ele>4</ele>
        <time>2021-03-20T20:00:23Z</time>
      </trkpt>
      <trkpt lat="51.1135" lon="3.7281">
        <ele>5.58</ele>
        <time>2021-03-20T20:00:31Z</time>
      </trkpt>
      <trkpt lat="51.11475" lon="3.72852">
        <ele>7.89</ele>
        <time>2021-03-20T20:00:39Z</time>
      </trkpt>
      <trkpt lat="51.11558" lon="3.72872">
        <ele>7.32</ele>
        <time>2021-03-20T20:00:47Z</time>
      </trkpt>
      <trkpt lat="51.11643" lon="3.72886">
        <ele>7.12</ele>
        <time>2021-03-20T20:00:54Z</time>
      </trkpt>
      <trkpt lat="51.11692" lon="3.72891">
        <ele>5.28</ele>
        <time>2021-03-20T20:01:02Z</time>
      </trkpt>
      <trkpt lat="51.11943" lon="3.72907">
        <ele>6.32</ele>
        <time>2021-03-20T20:01:10Z</time>
      </trkpt>
      <trkpt lat="51.12003" lon="3.72913">
        <ele>2.34</ele>
        <time>2021-03-20T20:01:18Z</time>
      </trkpt>
      <trkpt lat="51.12027" lon="3.72968">
        <ele>2.75</ele>
        <time>2021-03-20T20:01:20Z</time>
      </trkpt>
      <trkpt lat="51.12034" lon="3.72977">
        <ele>3.64</ele>
        <time>2021-03-20T20:01:23Z</time>
      </trkpt>
      <trkpt lat="51.12174" lon="3.73">
        <ele>5.26</ele>
        <time>2021-03-20T20:01:29Z</time>
      </trkpt>
      <trkpt lat="51.12256" lon="3.73021">
        <ele>6</ele>
        <time>2021-03-20T20:01:35Z</time>
      </trkpt>
      <trkpt lat="51.12314" lon="3.7304">
        <ele>6.55</ele>
        <time>2021-03-20T20:01:42Z</time>
      </trkpt>
      <trkpt lat="51.12393" lon="3.73069">
        <ele>6.45</ele>
        <time>2021-03-20T20:01:48Z</time>
      </trkpt>
      <trkpt lat="51.12464" lon="3.73102">
        <ele>5.76</ele>
        <time>2021-03-20T20:01:54Z</time>
      </trkpt>
      <trkpt lat="51.12598" lon="3.73179">
        <ele>5.04</ele>
        <time>2021-03-20T20:02:01Z</time>
      </trkpt>
      <trkpt lat="51.12641" lon="3.73208">
        <ele>3.57</ele>
        <time>2021-03-20T20:02:07Z</time>
      </trkpt>
      <trkpt lat="51.1273" lon="3.73275">
        <ele>3.74</ele>
        <time>2021-03-20T20:02:13Z</time>
      </trkpt>
      <trkpt lat="51.1294" lon="3.73439">
        <ele>4.3</ele>
        <time>2021-03-20T20:02:20Z</time>
      </trkpt>
      <trkpt lat="51.1295" lon="3.73449">
        <ele>3.82</ele>
        <time>2021-03-20T20:02:26Z</time>
      </trkpt>
      <trkpt lat="51.12953" lon="3.7346">
        <ele>3.69</ele>
        <time>2021-03-20T20:02:32Z</time>
      </trkpt>
      <trkpt lat="51.12973" lon="3.73453">
        <ele>2.97</ele>
        <time>2021-03-20T20:02:34Z</time>
      </trkpt>
      <trkpt lat="51.12985" lon="3.73454">
        <ele>2.54</ele>
        <time>2021-03-20T20:02:35Z</time>
      </trkpt>
      <trkpt lat="51.13027" lon="3.73435">
        <ele>2.33</ele>
        <time>2021-03-20T20:02:37Z</time>
      </trkpt>
      <trkpt lat="51.1307" lon="3.73467">
        <ele>5.16</ele>
        <time>2021-03-20T20:02:45Z</time>
      </trkpt>
      <trkpt lat="51.13195" lon="3.73547">
        <ele>2.98</ele>
        <time>2021-03-20T20:02:53Z</time>
      </trkpt>
      <trkpt lat="51.13366" lon="3.73638">
        <ele>1.19</ele>
        <time>2021-03-20T20:03:01Z</time>
      </trkpt>
      <trkpt lat="51.13513" lon="3.73701">
        <ele>2.43</ele>
        <time>2021-03-20T20:03:09Z</time>
      </trkpt>
      <trkpt lat="51.1377" lon="3.73802">
        <ele>2</ele>
        <time>2021-03-20T20:03:18Z</time>
      </trkpt>
      <trkpt lat="51.13817" lon="3.73821">
        <ele>3.41</ele>
        <time>2021-03-20T20:03:26Z</time>
      </trkpt>
      <trkpt lat="51.13985" lon="3.73888">
        <ele>1.99</ele>
        <time>2021-03-20T20:03:34Z</time>
      </trkpt>
      <trkpt lat="51.13995" lon="3.739">
        <ele>2.07</ele>
        <time>2021-03-20T20:03:36Z</time>
      </trkpt>
      <trkpt lat="51.14206" lon="3.74013">
        <ele>4.36</ele>
        <time>2021-03-20T20:03:39Z</time>
      </trkpt>
      <trkpt lat="51.14215" lon="3.74022">
        <ele>4.14</ele>
        <time>2021-03-20T20:03:41Z</time>
      </trkpt>
      <trkpt lat="51.14218" lon="3.74033">
        <ele>4.32</ele>
        <time>2021-03-20T20:03:43Z</time>
      </trkpt>
      <trkpt lat="51.14221" lon="3.74052">
        <ele>4.77</ele>
        <time>2021-03-20T20:03:46Z</time>
      </trkpt>
      <trkpt lat="51.14212" lon="3.74114">
        <ele>4.62</ele>
        <time>2021-03-20T20:03:48Z</time>
      </trkpt>
      <trkpt lat="51.14211" lon="3.74137">
        <ele>4.61</ele>
        <time>2021-03-20T20:03:50Z</time>
      </trkpt>
      <trkpt lat="51.14214" lon="3.74165">
        <ele>5.13</ele>
        <time>2021-03-20T20:03:52Z</time>
      </trkpt>
      <trkpt lat="51.14219" lon="3.74182">
        <ele>5.17</ele>
        <time>2021-03-20T20:03:55Z</time>
      </trkpt>
      <trkpt lat="51.14232" lon="3.74211">
        <ele>4.42</ele>
        <time>2021-03-20T20:03:57Z</time>
      </trkpt>
      <trkpt lat="51.14252" lon="3.74235">
        <ele>3.92</ele>
        <time>2021-03-20T20:03:59Z</time>
      </trkpt>
      <trkpt lat="51.14267" lon="3.74244">
        <ele>3.4</ele>
        <time>2021-03-20T20:04:01Z</time>
      </trkpt>
      <trkpt lat="51.14277" lon="3.74246">
        <ele>3.01</ele>
        <time>2021-03-20T20:04:04Z</time>
      </trkpt>
      <trkpt lat="51.14301" lon="3.74246">
        <ele>1.32</ele>
        <time>2021-03-20T20:04:06Z</time>
      </trkpt>
      <trkpt lat="51.14322" lon="3.74255">
        <ele>1.07</ele>
        <time>2021-03-20T20:04:07Z</time>
      </trkpt>
      <trkpt lat="51.14331" lon="3.74264">
        <ele>1.04</ele>
        <time>2021-03-20T20:04:08Z</time>
      </trkpt>
      <trkpt lat="51.1435" lon="3.74298">
        <ele>1.58</ele>
        <time>2021-03-20T20:04:09Z</time>
      </trkpt>
      <trkpt lat="51.14356" lon="3.74306">
        <ele>1.82</ele>
        <time>2021-03-20T20:04:10Z</time>
      </trkpt>
      <trkpt lat="51.14366" lon="3.74316">
        <ele>2.49</ele>
        <time>2021-03-20T20:04:11Z</time>
      </trkpt>
      <trkpt lat="51.14377" lon="3.74323">
        <ele>3.38</ele>
        <time>2021-03-20T20:04:12Z</time>
      </trkpt>
      <trkpt lat="51.14403" lon="3.74328">
        <ele>5.24</ele>
        <time>2021-03-20T20:04:13Z</time>
      </trkpt>
      <trkpt lat="51.14448" lon="3.74325">
        <ele>6.86</ele>
        <time>2021-03-20T20:04:14Z</time>
      </trkpt>
      <trkpt lat="51.14496" lon="3.74311">
        <ele>2.92</ele>
        <time>2021-03-20T20:04:15Z</time>
      </trkpt>
      <trkpt lat="51.14513" lon="3.7431">
        <ele>2.74</ele>
        <time>2021-03-20T20:04:16Z</time>
      </trkpt>
      <trkpt lat="51.14531" lon="3.7432">
        <ele>2.75</ele>
        <time>2021-03-20T20:04:17Z</time>
      </trkpt>
      <trkpt lat="51.14544" lon="3.74336">
        <ele>3.1</ele>
        <time>2021-03-20T20:04:18Z</time>
      </trkpt>
      <trkpt lat="51.14543" lon="3.74346">
        <ele>2.59</ele>
        <time>2021-03-20T20:04:22Z</time>
      </trkpt>
      <trkpt lat="51.14543" lon="3.74362">
        <ele>1.93</ele>
        <time>2021-03-20T20:04:25Z</time>
      </trkpt>
      <trkpt lat="51.14546" lon="3.74376">
        <ele>1.09</ele>
        <time>2021-03-20T20:04:28Z</time>
      </trkpt>
      <trkpt lat="51.14555" lon="3.7439">
        <ele>0.03</ele>
        <time>2021-03-20T20:04:32Z</time>
      </trkpt>
      <trkpt lat="51.14562" lon="3.74397">
        <ele>0.43</ele>
        <time>2021-03-20T20:04:35Z</time>
      </trkpt>
      <trkpt lat="51.14569" lon="3.744">
        <ele>1</ele>
        <time>2021-03-20T20:04:39Z</time>
      </trkpt>
      <trkpt lat="51.1458" lon="3.74399">
        <ele>1.76</ele>
        <time>2021-03-20T20:04:42Z</time>
      </trkpt>
      <trkpt lat="51.14589" lon="3.74393">
        <ele>2.2</ele>
        <time>2021-03-20T20:04:45Z</time>
      </trkpt>
      <trkpt lat="51.14596" lon="3.74384">
        <ele>2.73</ele>
        <time>2021-03-20T20:04:49Z</time>
      </trkpt>
      <trkpt lat="51.14601" lon="3.7437">
        <ele>3.54</ele>
        <time>2021-03-20T20:04:52Z</time>
      </trkpt>
      <trkpt lat="51.14603" lon="3.74353">
        <ele>4.08</ele>
        <time>2021-03-20T20:04:55Z</time>
      </trkpt>
      <trkpt lat="51.14611" lon="3.74345">
        <ele>4</ele>
        <time>2021-03-20T20:04:59Z</time>
      </trkpt>
      <trkpt lat="51.14632" lon="3.74336">
        <ele>3.26</ele>
        <time>2021-03-20T20:05:02Z</time>
      </trkpt>
      <trkpt lat="51.1466" lon="3.74317">
        <ele>4.35</ele>
        <time>2021-03-20T20:05:06Z</time>
      </trkpt>
      <trkpt lat="51.14694" lon="3.74306">
        <ele>4.03</ele>
        <time>2021-03-20T20:05:09Z</time>
      </trkpt>
      <trkpt lat="51.14719" lon="3.74307">
        <ele>3.23</ele>
        <time>2021-03-20T20:05:12Z</time>
      </trkpt>
      <trkpt lat="51.14737" lon="3.74313">
        <ele>4.04</ele>
        <time>2021-03-20T20:05:16Z</time>
      </trkpt>
      <trkpt lat="51.15027" lon="3.74437">
        <ele>4.22</ele>
        <time>2021-03-20T20:05:19Z</time>
      </trkpt>
      <trkpt lat="51.15096" lon="3.74471">
        <ele>2</ele>
        <time>2021-03-20T20:05:22Z</time>
      </trkpt>
      <trkpt lat="51.15171" lon="3.74512">
        <ele>0.16</ele>
        <time>2021-03-20T20:05:26Z</time>
      </trkpt>
      <trkpt lat="51.15704" lon="3.74786">
        <ele>2.34</ele>
        <time>2021-03-20T20:05:29Z</time>
      </trkpt>
      <trkpt lat="51.15816" lon="3.74838">
        <ele>-1</ele>
        <time>2021-03-20T20:05:33Z</time>
      </trkpt>
      <trkpt lat="51.15923" lon="3.74904">
        <ele>0.8</ele>
        <time>2021-03-20T20:05:36Z</time>
      </trkpt>
      <trkpt lat="51.15985" lon="3.74951">
        <ele>3</ele>
        <time>2021-03-20T20:05:39Z</time>
      </trkpt>
      <trkpt lat="51.16045" lon="3.75006">
        <ele>3</ele>
        <time>2021-03-20T20:05:43Z</time>
      </trkpt>
      <trkpt lat="51.16108" lon="3.75074">
        <ele>2</ele>
        <time>2021-03-20T20:05:46Z</time>
      </trkpt>
      <trkpt lat="51.16161" lon="3.75137">
        <ele>2</ele>
        <time>2021-03-20T20:05:49Z</time>
      </trkpt>
      <trkpt lat="51.16212" lon="3.7521">
        <ele>2.35</ele>
        <time>2021-03-20T20:05:53Z</time>
      </trkpt>
      <trkpt lat="51.1624" lon="3.75254">
        <ele>2.49</ele>
        <time>2021-03-20T20:05:56Z</time>
      </trkpt>
      <trkpt lat="51.16267" lon="3.75301">
        <ele>2</ele>
        <time>2021-03-20T20:06:00Z</time>
      </trkpt>
      <trkpt lat="51.16298" lon="3.75361">
        <ele>1.01</ele>
        <time>2021-03-20T20:06:03Z</time>
      </trkpt>
      <trkpt lat="51.16328" lon="3.75426">
        <ele>2.87</ele>
        <time>2021-03-20T20:06:06Z</time>
      </trkpt>
      <trkpt lat="51.16353" lon="3.75485">
        <ele>3.38</ele>
        <time>2021-03-20T20:06:10Z</time>
      </trkpt>
      <trkpt lat="51.16382" lon="3.75564">
        <ele>2.49</ele>
        <time>2021-03-20T20:06:13Z</time>
      </trkpt>
      <trkpt lat="51.16396" lon="3.75602">
        <ele>2.35</ele>
        <time>2021-03-20T20:06:16Z</time>
      </trkpt>
      <trkpt lat="51.16415" lon="3.75667">
        <ele>2.06</ele>
        <time>2021-03-20T20:06:20Z</time>
      </trkpt>
      <trkpt lat="51.16442" lon="3.75767">
        <ele>1.78</ele>
        <time>2021-03-20T20:06:23Z</time>
      </trkpt>
      <trkpt lat="51.16462" lon="3.75861">
        <ele>2.64</ele>
        <time>2021-03-20T20:06:27Z</time>
      </trkpt>
      <trkpt lat="51.16479" lon="3.75956">
        <ele>3.25</ele>
        <time>2021-03-20T20:06:30Z</time>
      </trkpt>
      <trkpt lat="51.16531" lon="3.76369">
        <ele>4.96</ele>
        <time>2021-03-20T20:06:33Z</time>
      </trkpt>
      <trkpt lat="51.16534" lon="3.76416">
        <ele>4.53</ele>
        <time>2021-03-20T20:06:37Z</time>
      </trkpt>
      <trkpt lat="51.16535" lon="3.76466">
        <ele>2.9</ele>
        <time>2021-03-20T20:06:40Z</time>
      </trkpt>
      <trkpt lat="51.16555" lon="3.76622">
        <ele>1.39</ele>
        <time>2021-03-20T20:06:43Z</time>
      </trkpt>
      <trkpt lat="51.16562" lon="3.7667">
        <ele>3.56</ele>
        <time>2021-03-20T20:06:47Z</time>
      </trkpt>
      <trkpt lat="51.16583" lon="3.76775">
        <ele>6.89</ele>
        <time>2021-03-20T20:06:50Z</time>
      </trkpt>
      <trkpt lat="51.16602" lon="3.76847">
        <ele>3.16</ele>
        <time>2021-03-20T20:06:54Z</time>
      </trkpt>
      <trkpt lat="51.16631" lon="3.76943">
        <ele>2</ele>
        <time>2021-03-20T20:06:57Z</time>
      </trkpt>
      <trkpt lat="51.16643" lon="3.76998">
        <ele>1.19</ele>
        <time>2021-03-20T20:07:00Z</time>
      </trkpt>
      <trkpt lat="51.1665" lon="3.77044">
        <ele>1.39</ele>
        <time>2021-03-20T20:07:04Z</time>
      </trkpt>
      <trkpt lat="51.16695" lon="3.77398">
        <ele>3.34</ele>
        <time>2021-03-20T20:07:07Z</time>
      </trkpt>
      <trkpt lat="51.16721" lon="3.77589">
        <ele>3.79</ele>
        <time>2021-03-20T20:07:10Z</time>
      </trkpt>
      <trkpt lat="51.16773" lon="3.7799">
        <ele>6.96</ele>
        <time>2021-03-20T20:07:14Z</time>
      </trkpt>
      <trkpt lat="51.16792" lon="3.78113">
        <ele>10.95</ele>
        <time>2021-03-20T20:07:17Z</time>
      </trkpt>
      <trkpt lat="51.16818" lon="3.7824">
        <ele>7.16</ele>
        <time>2021-03-20T20:07:21Z</time>
      </trkpt>
      <trkpt lat="51.16842" lon="3.78349">
        <ele>3.75</ele>
        <time>2021-03-20T20:07:24Z</time>
      </trkpt>
      <trkpt lat="51.16869" lon="3.78442">
        <ele>3</ele>
        <time>2021-03-20T20:07:27Z</time>
      </trkpt>
      <trkpt lat="51.16899" lon="3.78524">
        <ele>3.37</ele>
        <time>2021-03-20T20:07:31Z</time>
      </trkpt>
      <trkpt lat="51.16954" lon="3.78659">
        <ele>4.49</ele>
        <time>2021-03-20T20:07:34Z</time>
      </trkpt>
      <trkpt lat="51.16974" lon="3.78726">
        <ele>3</ele>
        <time>2021-03-20T20:07:38Z</time>
      </trkpt>
      <trkpt lat="51.16985" lon="3.78768">
        <ele>3</ele>
        <time>2021-03-20T20:07:41Z</time>
      </trkpt>
      <trkpt lat="51.17069" lon="3.79201">
        <ele>3.63</ele>
        <time>2021-03-20T20:07:44Z</time>
      </trkpt>
      <trkpt lat="51.17089" lon="3.79244">
        <ele>3.42</ele>
        <time>2021-03-20T20:07:48Z</time>
      </trkpt>
      <trkpt lat="51.17102" lon="3.7926">
        <ele>3.67</ele>
        <time>2021-03-20T20:07:51Z</time>
      </trkpt>
      <trkpt lat="51.17116" lon="3.79272">
        <ele>4.18</ele>
        <time>2021-03-20T20:07:54Z</time>
      </trkpt>
      <trkpt lat="51.17137" lon="3.79282">
        <ele>4.79</ele>
        <time>2021-03-20T20:07:58Z</time>
      </trkpt>
      <trkpt lat="51.17398" lon="3.79383">
        <ele>8.46</ele>
        <time>2021-03-20T20:08:01Z</time>
      </trkpt>
      <trkpt lat="51.17421" lon="3.79386">
        <ele>10.66</ele>
        <time>2021-03-20T20:08:05Z</time>
      </trkpt>
      <trkpt lat="51.17437" lon="3.79382">
        <ele>12.29</ele>
        <time>2021-03-20T20:08:08Z</time>
      </trkpt>
      <trkpt lat="51.1746" lon="3.79366">
        <ele>12.52</ele>
        <time>2021-03-20T20:08:11Z</time>
      </trkpt>
      <trkpt lat="51.17477" lon="3.7941">
        <ele>11.39</ele>
        <time>2021-03-20T20:08:17Z</time>
      </trkpt>
      <trkpt lat="51.1748" lon="3.79414">
        <ele>10.44</ele>
        <time>2021-03-20T20:08:22Z</time>
      </trkpt>
      <trkpt lat="51.17488" lon="3.79419">
        <ele>8.49</ele>
        <time>2021-03-20T20:08:27Z</time>
      </trkpt>
      <trkpt lat="51.17784" lon="3.79534">
        <ele>10.82</ele>
        <time>2021-03-20T20:08:33Z</time>
      </trkpt>
      <trkpt lat="51.178" lon="3.79537">
        <ele>10.94</ele>
        <time>2021-03-20T20:08:38Z</time>
      </trkpt>
      <trkpt lat="51.17839" lon="3.79529">
        <ele>10.34</ele>
        <time>2021-03-20T20:08:43Z</time>
      </trkpt>
      <trkpt lat="51.17853" lon="3.79531">
        <ele>8.89</ele>
        <time>2021-03-20T20:08:48Z</time>
      </trkpt>
      <trkpt lat="51.17978" lon="3.79579">
        <ele>4.65</ele>
        <time>2021-03-20T20:08:54Z</time>
      </trkpt>
      <trkpt lat="51.18003" lon="3.79594">
        <ele>2.49</ele>
        <time>2021-03-20T20:08:59Z</time>
      </trkpt>
      <trkpt lat="51.18041" lon="3.79628">
        <ele>2.45</ele>
        <time>2021-03-20T20:09:04Z</time>
      </trkpt>
      <trkpt lat="51.18066" lon="3.79643">
        <ele>4.78</ele>
        <time>2021-03-20T20:09:10Z</time>
      </trkpt>
      <trkpt lat="51.1817" lon="3.79692">
        <ele>7.29</ele>
        <time>2021-03-20T20:09:15Z</time>
      </trkpt>
      <trkpt lat="51.18229" lon="3.79725">
        <ele>8.17</ele>
        <time>2021-03-20T20:09:20Z</time>
      </trkpt>
      <trkpt lat="51.183" lon="3.79772">
        <ele>0.59</ele>
        <time>2021-03-20T20:09:25Z</time>
      </trkpt>
      <trkpt lat="51.18365" lon="3.79827">
        <ele>3.64</ele>
        <time>2021-03-20T20:09:31Z</time>
      </trkpt>
      <trkpt lat="51.18618" lon="3.80067">
        <ele>2.3</ele>
        <time>2021-03-20T20:09:36Z</time>
      </trkpt>
      <trkpt lat="51.18632" lon="3.80075">
        <ele>1.85</ele>
        <time>2021-03-20T20:09:41Z</time>
      </trkpt>
      <trkpt lat="51.18643" lon="3.80078">
        <ele>1.99</ele>
        <time>2021-03-20T20:09:47Z</time>
      </trkpt>
      <trkpt lat="51.19062" lon="3.80066">
        <ele>3.11</ele>
        <time>2021-03-20T20:09:52Z</time>
      </trkpt>
      <trkpt lat="51.19721" lon="3.80043">
        <ele>2.49</ele>
        <time>2021-03-20T20:09:57Z</time>
      </trkpt>
      <trkpt lat="51.1977" lon="3.80033">
        <ele>4.9</ele>
        <time>2021-03-20T20:10:03Z</time>
      </trkpt>
      <trkpt lat="51.19835" lon="3.80022">
        <ele>3.21</ele>
        <time>2021-03-20T20:10:13Z</time>
      </trkpt>
      <trkpt lat="51.20035" lon="3.79997">
        <ele>4.97</ele>
        <time>2021-03-20T20:10:23Z</time>
      </trkpt>
      <trkpt lat="51.20078" lon="3.79993">
        <ele>5.55</ele>
        <time>2021-03-20T20:10:33Z</time>
      </trkpt>
      <trkpt lat="51.20241" lon="3.79986">
        <ele>1.8</ele>
        <time>2021-03-20T20:10:43Z</time>
      </trkpt>
      <trkpt lat="51.20322" lon="3.79991">
        <ele>0.74</ele>
        <time>2021-03-20T20:10:53Z</time>
      </trkpt>
      <trkpt lat="51.20564" lon="3.80011">
        <ele>4.29</ele>
        <time>2021-03-20T20:11:03Z</time>
      </trkpt>
      <trkpt lat="51.20782" lon="3.8003">
        <ele>1.1</ele>
        <time>2021-03-20T20:11:13Z</time>
      </trkpt>
      <trkpt lat="51.20951" lon="3.80044">
        <ele>3.26</ele>
        <time>2021-03-20T20:11:23Z</time>
      </trkpt>
      <trkpt lat="51.2097" lon="3.80052">
        <ele>3.84</ele>
        <time>2021-03-20T20:11:33Z</time>
      </trkpt>
      <trkpt lat="51.21049" lon="3.80068">
        <ele>1.48</ele>
        <time>2021-03-20T20:11:44Z</time>
      </trkpt>
      <trkpt lat="51.21053" lon="3.8005">
        <ele>1.38</ele>
        <time>2021-03-20T20:11:45Z</time>
      </trkpt>
      <trkpt lat="51.21058" lon="3.8003">
        <ele>1.93</ele>
        <time>2021-03-20T20:11:50Z</time>
      </trkpt>
      <trkpt lat="51.21076" lon="3.79928">
        <ele>2.05</ele>
        <time>2021-03-20T20:11:55Z</time>
      </trkpt>
      <trkpt lat="51.21078" lon="3.79921">
        <ele>1.94</ele>
        <time>2021-03-20T20:12:01Z</time>
      </trkpt>
      <trkpt lat="51.21085" lon="3.79908">
        <ele>2.07</ele>
        <time>2021-03-20T20:12:06Z</time>
      </trkpt>
      <trkpt lat="51.21228" lon="3.79778">
        <ele>2.22</ele>
        <time>2021-03-20T20:12:11Z</time>
      </trkpt>
      <trkpt lat="51.21264" lon="3.79738">
        <ele>4.23</ele>
        <time>2021-03-20T20:12:16Z</time>
      </trkpt>
      <trkpt lat="51.21279" lon="3.79718">
        <ele>4.78</ele>
        <time>2021-03-20T20:12:21Z</time>
      </trkpt>
      <trkpt lat="51.21293" lon="3.79683">
        <ele>3.44</ele>
        <time>2021-03-20T20:12:26Z</time>
      </trkpt>
      <trkpt lat="51.21301" lon="3.79657">
        <ele>2.82</ele>
        <time>2021-03-20T20:12:31Z</time>
      </trkpt>
      <trkpt lat="51.21359" lon="3.79429">
        <ele>0.61</ele>
        <time>2021-03-20T20:12:37Z</time>
      </trkpt>
      <trkpt lat="51.21371" lon="3.79372">
        <ele>1.04</ele>
        <time>2021-03-20T20:12:42Z</time>
      </trkpt>
      <trkpt lat="51.21375" lon="3.79344">
        <ele>0.99</ele>
        <time>2021-03-20T20:12:47Z</time>
      </trkpt>
      <trkpt lat="51.21378" lon="3.79314">
        <ele>1.22</ele>
        <time>2021-03-20T20:12:52Z</time>
      </trkpt>
      <trkpt lat="51.21384" lon="3.79132">
        <ele>3.77</ele>
        <time>2021-03-20T20:12:57Z</time>
      </trkpt>
      <trkpt lat="51.21387" lon="3.79115">
        <ele>3.87</ele>
        <time>2021-03-20T20:13:02Z</time>
      </trkpt>
      <trkpt lat="51.21393" lon="3.79101">
        <ele>4.57</ele>
        <time>2021-03-20T20:13:07Z</time>
      </trkpt>
      <trkpt lat="51.21403" lon="3.79088">
        <ele>5.41</ele>
        <time>2021-03-20T20:13:13Z</time>
      </trkpt>
      <trkpt lat="51.21427" lon="3.7907">
        <ele>6</ele>
        <time>2021-03-20T20:13:18Z</time>
      </trkpt>
      <trkpt lat="51.21507" lon="3.79029">
        <ele>6.48</ele>
        <time>2021-03-20T20:13:23Z</time>
      </trkpt>
      <trkpt lat="51.21583" lon="3.78947">
        <ele>3.12</ele>
        <time>2021-03-20T20:13:28Z</time>
      </trkpt>
      <trkpt lat="51.21592" lon="3.7894">
        <ele>2.68</ele>
        <time>2021-03-20T20:13:33Z</time>
      </trkpt>
      <trkpt lat="51.21616" lon="3.78934">
        <ele>2.29</ele>
        <time>2021-03-20T20:13:38Z</time>
      </trkpt>
      <trkpt lat="51.21714" lon="3.78939">
        <ele>5.35</ele>
        <time>2021-03-20T20:13:43Z</time>
      </trkpt>
      <trkpt lat="51.21894" lon="3.78958">
        <ele>4.47</ele>
        <time>2021-03-20T20:13:48Z</time>
      </trkpt>
      <trkpt lat="51.21972" lon="3.78953">
        <ele>2.61</ele>
        <time>2021-03-20T20:13:54Z</time>
      </trkpt>
      <trkpt lat="51.22013" lon="3.78949">
        <ele>2.16</ele>
        <time>2021-03-20T20:13:59Z</time>
      </trkpt>
      <trkpt lat="51.22287" lon="3.78889">
        <ele>2.32</ele>
        <time>2021-03-20T20:14:04Z</time>
      </trkpt>
      <trkpt lat="51.22351" lon="3.78875">
        <ele>2.32</ele>
        <time>2021-03-20T20:14:09Z</time>
      </trkpt>
      <trkpt lat="51.22413" lon="3.78698">
        <ele>-1</ele>
        <time>2021-03-20T20:14:18Z</time>
      </trkpt>
      <trkpt lat="51.22452" lon="3.786">
        <ele>-0.33</ele>
        <time>2021-03-20T20:14:27Z</time>
      </trkpt>
      <trkpt lat="51.2248" lon="3.7849">
        <ele>-0.1</ele>
        <time>2021-03-20T20:14:36Z</time>
      </trkpt>
      <trkpt lat="51.22489" lon="3.7845">
        <ele>-0.6</ele>
        <time>2021-03-20T20:14:45Z</time>
      </trkpt>
      <trkpt lat="51.22494" lon="3.78413">
        <ele>3.2</ele>
        <time>2021-03-20T20:14:54Z</time>
      </trkpt>
      <trkpt lat="51.225" lon="3.78084">
        <ele>2</ele>
        <time>2021-03-20T20:15:03Z</time>
      </trkpt>
      <trkpt lat="51.22535" lon="3.78097">
        <ele>2.49</ele>
        <time>2021-03-20T20:15:05Z</time>
      </trkpt>
      <trkpt lat="51.22544" lon="3.78097">
        <ele>2.5</ele>
        <time>2021-03-20T20:15:07Z</time>
      </trkpt>
      <trkpt lat="51.22551" lon="3.78095">
        <ele>2.4</ele>
        <time>2021-03-20T20:15:09Z</time>
      </trkpt>
      <trkpt lat="51.22546" lon="3.78053">
        <ele>1.43</ele>
        <time>2021-03-20T20:15:13Z</time>
      </trkpt>
      <trkpt lat="51.22536" lon="3.78003">
        <ele>2.71</ele>
        <time>2021-03-20T20:15:18Z</time>
      </trkpt>
      <trkpt lat="51.22525" lon="3.77961">
        <ele>3</ele>
        <time>2021-03-20T20:15:22Z</time>
      </trkpt>
      <trkpt lat="51.22512" lon="3.77922">
        <ele>3.36</ele>
        <time>2021-03-20T20:15:27Z</time>
      </trkpt>
      <trkpt lat="51.22501" lon="3.77894">
        <ele>3.02</ele>
        <time>2021-03-20T20:15:32Z</time>
      </trkpt>
      <trkpt lat="51.22516" lon="3.77834">
        <ele>3.58</ele>
        <time>2021-03-20T20:15:35Z</time>
      </trkpt>
      <trkpt lat="51.22535" lon="3.77808">
        <ele>3.36</ele>
        <time>2021-03-20T20:15:38Z</time>
      </trkpt>
      <trkpt lat="51.22538" lon="3.77797">
        <ele>2.95</ele>
        <time>2021-03-20T20:15:41Z</time>
      </trkpt>
      <trkpt lat="51.22537" lon="3.77762">
        <ele>1.42</ele>
        <time>2021-03-20T20:15:44Z</time>
      </trkpt>
      <trkpt lat="51.2254" lon="3.77751">
        <ele>1.04</ele>
        <time>2021-03-20T20:15:47Z</time>
      </trkpt>
      <trkpt lat="51.22557" lon="3.7773">
        <ele>1</ele>
        <time>2021-03-20T20:15:50Z</time>
      </trkpt>
      <trkpt lat="51.22603" lon="3.77679">
        <ele>2.69</ele>
        <time>2021-03-20T20:15:53Z</time>
      </trkpt>
      <trkpt lat="51.22614" lon="3.77662">
        <ele>2.76</ele>
        <time>2021-03-20T20:15:56Z</time>
      </trkpt>
      <trkpt lat="51.22639" lon="3.77592">
        <ele>1.32</ele>
        <time>2021-03-20T20:15:59Z</time>
      </trkpt>
      <trkpt lat="51.22648" lon="3.77546">
        <ele>0.78</ele>
        <time>2021-03-20T20:16:02Z</time>
      </trkpt>
      <trkpt lat="51.22653" lon="3.77508">
        <ele>0.5</ele>
        <time>2021-03-20T20:16:05Z</time>
      </trkpt>
      <trkpt lat="51.22665" lon="3.77469">
        <ele>1</ele>
        <time>2021-03-20T20:16:08Z</time>
      </trkpt>
      <trkpt lat="51.22752" lon="3.77297">
        <ele>4.2</ele>
        <time>2021-03-20T20:16:11Z</time>
      </trkpt>
      <trkpt lat="51.22823" lon="3.77159">
        <ele>-0.73</ele>
        <time>2021-03-20T20:16:14Z</time>
      </trkpt>
      <trkpt lat="51.2284" lon="3.77134">
        <ele>3.7</ele>
        <time>2021-03-20T20:16:17Z</time>
      </trkpt>
      <trkpt lat="51.22918" lon="3.77036">
        <ele>4.3</ele>
        <time>2021-03-20T20:16:20Z</time>
      </trkpt>
      <trkpt lat="51.22952" lon="3.77005">
        <ele>4.2</ele>
        <time>2021-03-20T20:16:23Z</time>
      </trkpt>
      <trkpt lat="51.22986" lon="3.76978">
        <ele>-0.8</ele>
        <time>2021-03-20T20:16:26Z</time>
      </trkpt>
      <trkpt lat="51.23059" lon="3.76927">
        <ele>-0.34</ele>
        <time>2021-03-20T20:16:29Z</time>
      </trkpt>
      <trkpt lat="51.23091" lon="3.76889">
        <ele>0.27</ele>
        <time>2021-03-20T20:16:32Z</time>
      </trkpt>
      <trkpt lat="51.23105" lon="3.7688">
        <ele>0.77</ele>
        <time>2021-03-20T20:16:35Z</time>
      </trkpt>
      <trkpt lat="51.23115" lon="3.76877">
        <ele>0.86</ele>
        <time>2021-03-20T20:16:38Z</time>
      </trkpt>
      <trkpt lat="51.23185" lon="3.76892">
        <ele>0.34</ele>
        <time>2021-03-20T20:16:41Z</time>
      </trkpt>
      <trkpt lat="51.23202" lon="3.76891">
        <ele>1</ele>
        <time>2021-03-20T20:16:44Z</time>
      </trkpt>
      <trkpt lat="51.23342" lon="3.76814">
        <ele>0.69</ele>
        <time>2021-03-20T20:16:47Z</time>
      </trkpt>
      <trkpt lat="51.23363" lon="3.76796">
        <ele>0.93</ele>
        <time>2021-03-20T20:16:50Z</time>
      </trkpt>
      <trkpt lat="51.2337" lon="3.76793">
        <ele>0.68</ele>
        <time>2021-03-20T20:16:53Z</time>
      </trkpt>
      <trkpt lat="51.23572" lon="3.7727">
        <ele>1</ele>
        <time>2021-03-20T20:17:01Z</time>
      </trkpt>
      <trkpt lat="51.23577" lon="3.77276">
        <ele>1</ele>
        <time>2021-03-20T20:17:09Z</time>
      </trkpt>
      <trkpt lat="51.23591" lon="3.77277">
        <ele>-0.01</ele>
        <time>2021-03-20T20:17:17Z</time>
      </trkpt>
      <trkpt lat="51.23675" lon="3.77261">
        <ele>-1.43</ele>
        <time>2021-03-20T20:17:25Z</time>
      </trkpt>
      <trkpt lat="51.24128" lon="3.77162">
        <ele>-1</ele>
        <time>2021-03-20T20:17:33Z</time>
      </trkpt>
      <trkpt lat="51.24161" lon="3.77153">
        <ele>0.19</ele>
        <time>2021-03-20T20:17:41Z</time>
      </trkpt>
      <trkpt lat="51.24172" lon="3.77146">
        <ele>0.74</ele>
        <time>2021-03-20T20:17:49Z</time>
      </trkpt>
      <trkpt lat="51.24202" lon="3.77216">
        <ele>1.02</ele>
        <time>2021-03-20T20:17:54Z</time>
      </trkpt>
      <trkpt lat="51.24205" lon="3.77375">
        <ele>3.63</ele>
        <time>2021-03-20T20:18:00Z</time>
      </trkpt>
      <trkpt lat="51.24207" lon="3.77389">
        <ele>3.53</ele>
        <time>2021-03-20T20:18:06Z</time>
      </trkpt>
      <trkpt lat="51.24246" lon="3.77458">
        <ele>0.31</ele>
        <time>2021-03-20T20:18:12Z</time>
      </trkpt>
      <trkpt lat="51.2431" lon="3.77566">
        <ele>0.15</ele>
        <time>2021-03-20T20:18:17Z</time>
      </trkpt>
      <trkpt lat="51.24313" lon="3.77597">
        <ele>0.28</ele>
        <time>2021-03-20T20:18:23Z</time>
      </trkpt>
      <trkpt lat="51.2432" lon="3.77866">
        <ele>-1.82</ele>
        <time>2021-03-20T20:18:29Z</time>
      </trkpt>
      <trkpt lat="51.24318" lon="3.77879">
        <ele>-1.36</ele>
        <time>2021-03-20T20:18:34Z</time>
      </trkpt>
      <trkpt lat="51.24247" lon="3.78152">
        <ele>0.54</ele>
        <time>2021-03-20T20:18:40Z</time>
      </trkpt>
      <trkpt lat="51.244" lon="3.78274">
        <ele>-0.33</ele>
        <time>2021-03-20T20:18:46Z</time>
      </trkpt>
      <trkpt lat="51.24565" lon="3.784">
        <ele>3.7</ele>
        <time>2021-03-20T20:18:51Z</time>
      </trkpt>
      <trkpt lat="51.24693" lon="3.78487">
        <ele>1.56</ele>
        <time>2021-03-20T20:18:57Z</time>
      </trkpt>
      <trkpt lat="51.24853" lon="3.77854">
        <ele>1</ele>
        <time>2021-03-20T20:19:22Z</time>
      </trkpt>
      <trkpt lat="51.25522" lon="3.78284">
        <ele>0.19</ele>
        <time>2021-03-20T20:19:28Z</time>
      </trkpt>
      <trkpt lat="51.2554" lon="3.78303">
        <ele>1</ele>
        <time>2021-03-20T20:19:34Z</time>
      </trkpt>
      <trkpt lat="51.2557" lon="3.78391">
        <ele>-1.01</ele>
        <time>2021-03-20T20:19:40Z</time>
      </trkpt>
      <trkpt lat="51.25593" lon="3.78429">
        <ele>-1.38</ele>
        <time>2021-03-20T20:19:46Z</time>
      </trkpt>
      <trkpt lat="51.25615" lon="3.78437">
        <ele>-0.88</ele>
        <time>2021-03-20T20:19:53Z</time>
      </trkpt>
      <trkpt lat="51.25835" lon="3.78493">
        <ele>0.7</ele>
        <time>2021-03-20T20:19:59Z</time>
      </trkpt>
      <trkpt lat="51.25844" lon="3.78492">
        <ele>0.33</ele>
        <time>2021-03-20T20:20:05Z</time>
      </trkpt>
      <trkpt lat="51.25858" lon="3.78482">
        <ele>-0.52</ele>
        <time>2021-03-20T20:20:11Z</time>
      </trkpt>
      <trkpt lat="51.25863" lon="3.78472">
        <ele>-1</ele>
        <time>2021-03-20T20:20:17Z</time>
      </trkpt>
      <trkpt lat="51.25882" lon="3.78389">
        <ele>-1</ele>
        <time>2021-03-20T20:20:24Z</time>
      </trkpt>
      <trkpt lat="51.25887" lon="3.7837">
        <ele>-0.36</ele>
        <time>2021-03-20T20:20:30Z</time>
      </trkpt>
      <trkpt lat="51.25911" lon="3.78384">
        <ele>-0.84</ele>
        <time>2021-03-20T20:20:31Z</time>
      </trkpt>
      <trkpt lat="51.2622" lon="3.7783">
        <ele>4.01</ele>
        <time>2021-03-20T20:20:39Z</time>
      </trkpt>
      <trkpt lat="51.26224" lon="3.77791">
        <ele>3.94</ele>
        <time>2021-03-20T20:20:46Z</time>
      </trkpt>
      <trkpt lat="51.26228" lon="3.77775">
        <ele>3.89</ele>
        <time>2021-03-20T20:20:54Z</time>
      </trkpt>
      <trkpt lat="51.26354" lon="3.7741">
        <ele>2</ele>
        <time>2021-03-20T20:21:01Z</time>
      </trkpt>
      <trkpt lat="51.26351" lon="3.77401">
        <ele>2</ele>
        <time>2021-03-20T20:21:09Z</time>
      </trkpt>
      <trkpt lat="51.26345" lon="3.7739">
        <ele>2</ele>
        <time>2021-03-20T20:21:16Z</time>
      </trkpt>
      <trkpt lat="51.26396" lon="3.77387">
        <ele>1.25</ele>
        <time>2021-03-20T20:21:24Z</time>
      </trkpt>
      <trkpt lat="51.26472" lon="3.77411">
        <ele>1.02</ele>
        <time>2021-03-20T20:21:32Z</time>
      </trkpt>
      <trkpt lat="51.26478" lon="3.77412">
        <ele>1</ele>
        <time>2021-03-20T20:21:40Z</time>
      </trkpt>
      <trkpt lat="51.26485" lon="3.77408">
        <ele>1</ele>
        <time>2021-03-20T20:21:48Z</time>
      </trkpt>
      <trkpt lat="51.26868" lon="3.76955">
        <ele>3.7</ele>
        <time>2021-03-20T20:21:56Z</time>
      </trkpt>
      <trkpt lat="51.26882" lon="3.76941">
        <ele>3.4</ele>
        <time>2021-03-20T20:22:04Z</time>
      </trkpt>
      <trkpt lat="51.26894" lon="3.76939">
        <ele>-0.14</ele>
        <time>2021-03-20T20:22:12Z</time>
      </trkpt>
      <trkpt lat="51.26909" lon="3.76946">
        <ele>-0.71</ele>
        <time>2021-03-20T20:22:20Z</time>
      </trkpt>
      <trkpt lat="51.26922" lon="3.76962">
        <ele>-1</ele>
        <time>2021-03-20T20:22:28Z</time>
      </trkpt>
      <trkpt lat="51.27205" lon="3.77376">
        <ele>1.25</ele>
        <time>2021-03-20T20:22:36Z</time>
      </trkpt>
      <trkpt lat="51.27207" lon="3.7739">
        <ele>1.91</ele>
        <time>2021-03-20T20:22:44Z</time>
      </trkpt>
      <trkpt lat="51.27221" lon="3.77384">
        <ele>2.73</ele>
        <time>2021-03-20T20:22:49Z</time>
      </trkpt>
      <trkpt lat="51.27231" lon="3.77377">
        <ele>3.19</ele>
        <time>2021-03-20T20:22:53Z</time>
      </trkpt>
      <trkpt lat="51.2724" lon="3.77367">
        <ele>3.49</ele>
        <time>2021-03-20T20:22:58Z</time>
      </trkpt>
      <trkpt lat="51.27463" lon="3.77108">
        <ele>2.35</ele>
        <time>2021-03-20T20:23:02Z</time>
      </trkpt>
      <trkpt lat="51.27483" lon="3.77077">
        <ele>0.86</ele>
        <time>2021-03-20T20:23:07Z</time>
      </trkpt>
      <trkpt lat="51.27559" lon="3.76918">
        <ele>1.03</ele>
        <time>2021-03-20T20:23:11Z</time>
      </trkpt>
      <trkpt lat="51.27577" lon="3.76897">
        <ele>1</ele>
        <time>2021-03-20T20:23:16Z</time>
      </trkpt>
      <trkpt lat="51.27593" lon="3.7689">
        <ele>1.02</ele>
        <time>2021-03-20T20:23:20Z</time>
      </trkpt>
      <trkpt lat="51.27604" lon="3.7689">
        <ele>1.03</ele>
        <time>2021-03-20T20:23:24Z</time>
      </trkpt>
      <trkpt lat="51.27746" lon="3.76901">
        <ele>1.68</ele>
        <time>2021-03-20T20:23:29Z</time>
      </trkpt>
      <trkpt lat="51.27757" lon="3.76892">
        <ele>2.44</ele>
        <time>2021-03-20T20:23:33Z</time>
      </trkpt>
      <trkpt lat="51.27764" lon="3.76878">
        <ele>3.44</ele>
        <time>2021-03-20T20:23:38Z</time>
      </trkpt>
      <trkpt lat="51.27887" lon="3.76533">
        <ele>1</ele>
        <time>2021-03-20T20:23:42Z</time>
      </trkpt>
      <trkpt lat="51.27899" lon="3.76511">
        <ele>1.37</ele>
        <time>2021-03-20T20:23:47Z</time>
      </trkpt>
      <trkpt lat="51.2797" lon="3.76446">
        <ele>2.92</ele>
        <time>2021-03-20T20:23:51Z</time>
      </trkpt>
      <trkpt lat="51.27977" lon="3.76441">
        <ele>3</ele>
        <time>2021-03-20T20:23:56Z</time>
      </trkpt>
      <trkpt lat="51.27982" lon="3.76442">
        <ele>3</ele>
        <time>2021-03-20T20:24:00Z</time>
      </trkpt>
      <trkpt lat="51.27987" lon="3.76449">
        <ele>3</ele>
        <time>2021-03-20T20:24:05Z</time>
      </trkpt>
      <trkpt lat="51.28008" lon="3.76496">
        <ele>3.87</ele>
        <time>2021-03-20T20:24:09Z</time>
      </trkpt>
      <trkpt lat="51.28018" lon="3.76512">
        <ele>4.43</ele>
        <time>2021-03-20T20:24:14Z</time>
      </trkpt>
      <trkpt lat="51.28035" lon="3.76531">
        <ele>4.84</ele>
        <time>2021-03-20T20:24:18Z</time>
      </trkpt>
      <trkpt lat="51.2803" lon="3.76552">
        <ele>5.79</ele>
        <time>2021-03-20T20:24:19Z</time>
      </trkpt>
      <trkpt lat="51.28132" lon="3.7665">
        <ele>2.64</ele>
        <time>2021-03-20T20:24:24Z</time>
      </trkpt>
      <trkpt lat="51.28165" lon="3.76677">
        <ele>2.62</ele>
        <time>2021-03-20T20:24:29Z</time>
      </trkpt>
      <trkpt lat="51.28178" lon="3.76684">
        <ele>1.98</ele>
        <time>2021-03-20T20:24:33Z</time>
      </trkpt>
      <trkpt lat="51.28196" lon="3.76687">
        <ele>1.26</ele>
        <time>2021-03-20T20:24:38Z</time>
      </trkpt>
      <trkpt lat="51.28217" lon="3.76683">
        <ele>1.4</ele>
        <time>2021-03-20T20:24:43Z</time>
      </trkpt>
      <trkpt lat="51.28232" lon="3.76676">
        <ele>1.66</ele>
        <time>2021-03-20T20:24:47Z</time>
      </trkpt>
      <trkpt lat="51.28252" lon="3.76657">
        <ele>2.2</ele>
        <time>2021-03-20T20:24:52Z</time>
      </trkpt>
      <trkpt lat="51.28263" lon="3.76639">
        <ele>2.03</ele>
        <time>2021-03-20T20:24:57Z</time>
      </trkpt>
      <trkpt lat="51.28322" lon="3.76494">
        <ele>2.14</ele>
        <time>2021-03-20T20:25:01Z</time>
      </trkpt>
      <trkpt lat="51.28334" lon="3.76473">
        <ele>2.98</ele>
        <time>2021-03-20T20:25:06Z</time>
      </trkpt>
      <trkpt lat="51.28347" lon="3.76459">
        <ele>3.72</ele>
        <time>2021-03-20T20:25:11Z</time>
      </trkpt>
      <trkpt lat="51.2836" lon="3.76449">
        <ele>4.74</ele>
        <time>2021-03-20T20:25:16Z</time>
      </trkpt>
      <trkpt lat="51.28376" lon="3.76445">
        <ele>4.99</ele>
        <time>2021-03-20T20:25:20Z</time>
      </trkpt>
      <trkpt lat="51.28393" lon="3.76446">
        <ele>4.62</ele>
        <time>2021-03-20T20:25:25Z</time>
      </trkpt>
      <trkpt lat="51.28414" lon="3.76457">
        <ele>2.74</ele>
        <time>2021-03-20T20:25:30Z</time>
      </trkpt>
      <trkpt lat="51.28423" lon="3.76465">
        <ele>1.96</ele>
        <time>2021-03-20T20:25:34Z</time>
      </trkpt>
      <trkpt lat="51.2871" lon="3.76787">
        <ele>1.82</ele>
        <time>2021-03-20T20:25:39Z</time>
      </trkpt>
      <trkpt lat="51.28767" lon="3.76857">
        <ele>0.63</ele>
        <time>2021-03-20T20:25:44Z</time>
      </trkpt>
      <trkpt lat="51.28854" lon="3.76948">
        <ele>1.66</ele>
        <time>2021-03-20T20:25:48Z</time>
      </trkpt>
      <trkpt lat="51.28876" lon="3.76975">
        <ele>1.42</ele>
        <time>2021-03-20T20:25:53Z</time>
      </trkpt>
      <trkpt lat="51.28891" lon="3.77001">
        <ele>0.92</ele>
        <time>2021-03-20T20:25:58Z</time>
      </trkpt>
      <trkpt lat="51.28908" lon="3.77036">
        <ele>-0.28</ele>
        <time>2021-03-20T20:26:02Z</time>
      </trkpt>
      <trkpt lat="51.28923" lon="3.77079">
        <ele>-0.79</ele>
        <time>2021-03-20T20:26:07Z</time>
      </trkpt>
      <trkpt lat="51.29007" lon="3.77391">
        <ele>2.23</ele>
        <time>2021-03-20T20:26:12Z</time>
      </trkpt>
      <trkpt lat="51.29038" lon="3.77487">
        <ele>0.12</ele>
        <time>2021-03-20T20:26:16Z</time>
      </trkpt>
      <trkpt lat="51.29042" lon="3.77484">
        <ele>0.04</ele>
        <time>2021-03-20T20:26:22Z</time>
      </trkpt>
      <trkpt lat="51.29046" lon="3.77477">
        <ele>0.15</ele>
        <time>2021-03-20T20:26:28Z</time>
      </trkpt>
      <trkpt lat="51.29097" lon="3.77299">
        <ele>1.12</ele>
        <time>2021-03-20T20:26:34Z</time>
      </trkpt>
      <trkpt lat="51.29196" lon="3.76995">
        <ele>1.01</ele>
        <time>2021-03-20T20:26:40Z</time>
      </trkpt>
      <trkpt lat="51.29245" lon="3.76865">
        <ele>1.95</ele>
        <time>2021-03-20T20:26:46Z</time>
      </trkpt>
      <trkpt lat="51.29258" lon="3.76838">
        <ele>2.28</ele>
        <time>2021-03-20T20:26:52Z</time>
      </trkpt>
      <trkpt lat="51.29282" lon="3.76812">
        <ele>2.1</ele>
        <time>2021-03-20T20:26:58Z</time>
      </trkpt>
      <trkpt lat="51.29296" lon="3.76846">
        <ele>2.35</ele>
        <time>2021-03-20T20:27:04Z</time>
      </trkpt>
      <trkpt lat="51.29317" lon="3.76884">
        <ele>1.76</ele>
        <time>2021-03-20T20:27:10Z</time>
      </trkpt>
      <trkpt lat="51.29341" lon="3.76918">
        <ele>-0.31</ele>
        <time>2021-03-20T20:27:16Z</time>
      </trkpt>
      <trkpt lat="51.29365" lon="3.76943">
        <ele>-1.63</ele>
        <time>2021-03-20T20:27:22Z</time>
      </trkpt>
      <trkpt lat="51.29393" lon="3.76967">
        <ele>0.31</ele>
        <time>2021-03-20T20:27:28Z</time>
      </trkpt>
      <trkpt lat="51.29794" lon="3.77249">
        <ele>1.58</ele>
        <time>2021-03-20T20:27:35Z</time>
      </trkpt>
      <trkpt lat="51.29813" lon="3.77269">
        <ele>1.41</ele>
        <time>2021-03-20T20:27:41Z</time>
      </trkpt>
      <trkpt lat="51.29825" lon="3.77289">
        <ele>1.7</ele>
        <time>2021-03-20T20:27:47Z</time>
      </trkpt>
      <trkpt lat="51.29833" lon="3.77309">
        <ele>1.99</ele>
        <time>2021-03-20T20:27:53Z</time>
      </trkpt>
      <trkpt lat="51.29947" lon="3.77632">
        <ele>2</ele>
        <time>2021-03-20T20:27:59Z</time>
      </trkpt>
      <trkpt lat="51.29957" lon="3.77652">
        <ele>1.55</ele>
        <time>2021-03-20T20:28:05Z</time>
      </trkpt>
      <trkpt lat="51.29979" lon="3.77676">
        <ele>0.77</ele>
        <time>2021-03-20T20:28:11Z</time>
      </trkpt>
      <trkpt lat="51.30003" lon="3.77688">
        <ele>0.1</ele>
        <time>2021-03-20T20:28:18Z</time>
      </trkpt>
      <trkpt lat="51.30065" lon="3.77695">
        <ele>0.99</ele>
        <time>2021-03-20T20:28:24Z</time>
      </trkpt>
      <trkpt lat="51.30089" lon="3.77711">
        <ele>0.51</ele>
        <time>2021-03-20T20:28:30Z</time>
      </trkpt>
      <trkpt lat="51.30116" lon="3.77736">
        <ele>1</ele>
        <time>2021-03-20T20:28:36Z</time>
      </trkpt>
      <trkpt lat="51.30216" lon="3.77841">
        <ele>1.24</ele>
        <time>2021-03-20T20:28:42Z</time>
      </trkpt>
      <trkpt lat="51.30261" lon="3.77891">
        <ele>1.39</ele>
        <time>2021-03-20T20:28:48Z</time>
      </trkpt>
      <trkpt lat="51.30267" lon="3.77904">
        <ele>1.61</ele>
        <time>2021-03-20T20:28:54Z</time>
      </trkpt>
      <trkpt lat="51.30287" lon="3.77932">
        <ele>2.36</ele>
        <time>2021-03-20T20:29:00Z</time>
      </trkpt>
      <trkpt lat="51.30286" lon="3.77943">
        <ele>2.67</ele>
        <time>2021-03-20T20:29:08Z</time>
      </trkpt>
      <trkpt lat="51.30287" lon="3.77953">
        <ele>2.67</ele>
        <time>2021-03-20T20:29:15Z</time>
      </trkpt>
      <trkpt lat="51.3029" lon="3.77962">
        <ele>2.57</ele>
        <time>2021-03-20T20:29:23Z</time>
      </trkpt>
      <trkpt lat="51.2993" lon="3.78861">
        <ele>-1.48</ele>
        <time>2021-03-20T20:29:30Z</time>
      </trkpt>
      <trkpt lat="51.29873" lon="3.79023">
        <ele>-1.07</ele>
        <time>2021-03-20T20:29:38Z</time>
      </trkpt>
      <trkpt lat="51.29821" lon="3.79193">
        <ele>0.45</ele>
        <time>2021-03-20T20:29:45Z</time>
      </trkpt>
      <trkpt lat="51.29784" lon="3.79334">
        <ele>2.31</ele>
        <time>2021-03-20T20:29:53Z</time>
      </trkpt>
      <trkpt lat="51.29751" lon="3.79484">
        <ele>1.19</ele>
        <time>2021-03-20T20:30:00Z</time>
      </trkpt>
      <trkpt lat="51.29715" lon="3.7967">
        <ele>-2</ele>
        <time>2021-03-20T20:30:08Z</time>
      </trkpt>
      <trkpt lat="51.29663" lon="3.79978">
        <ele>-0.04</ele>
        <time>2021-03-20T20:30:16Z</time>
      </trkpt>
      <trkpt lat="51.29602" lon="3.80331">
        <ele>1.09</ele>
        <time>2021-03-20T20:30:23Z</time>
      </trkpt>
      <trkpt lat="51.2959" lon="3.80416">
        <ele>0.23</ele>
        <time>2021-03-20T20:30:31Z</time>
      </trkpt>
      <trkpt lat="51.29558" lon="3.8061">
        <ele>3.04</ele>
        <time>2021-03-20T20:30:38Z</time>
      </trkpt>
      <trkpt lat="51.29548" lon="3.80688">
        <ele>-1.28</ele>
        <time>2021-03-20T20:30:46Z</time>
      </trkpt>
      <trkpt lat="51.29544" lon="3.80812">
        <ele>1.22</ele>
        <time>2021-03-20T20:30:53Z</time>
      </trkpt>
      <trkpt lat="51.29537" lon="3.8082">
        <ele>1.51</ele>
        <time>2021-03-20T20:30:55Z</time>
      </trkpt>
      <trkpt lat="51.29533" lon="3.80833">
        <ele>1.98</ele>
        <time>2021-03-20T20:30:57Z</time>
      </trkpt>
      <trkpt lat="51.29534" lon="3.80847">
        <ele>2</ele>
        <time>2021-03-20T20:30:59Z</time>
      </trkpt>
      <trkpt lat="51.2954" lon="3.80859">
        <ele>2</ele>
        <time>2021-03-20T20:31:01Z</time>
      </trkpt>
      <trkpt lat="51.29545" lon="3.80863">
        <ele>1.94</ele>
        <time>2021-03-20T20:31:02Z</time>
      </trkpt>
      <trkpt lat="51.29552" lon="3.80863">
        <ele>1.93</ele>
        <time>2021-03-20T20:31:04Z</time>
      </trkpt>
      <trkpt lat="51.29558" lon="3.8086">
        <ele>1.91</ele>
        <time>2021-03-20T20:31:06Z</time>
      </trkpt>
      <trkpt lat="51.29563" lon="3.80852">
        <ele>1.74</ele>
        <time>2021-03-20T20:31:08Z</time>
      </trkpt>
      <trkpt lat="51.29573" lon="3.80854">
        <ele>1.39</ele>
        <time>2021-03-20T20:31:10Z</time>
      </trkpt>
      <trkpt lat="51.29599" lon="3.8087">
        <ele>0.62</ele>
        <time>2021-03-20T20:31:12Z</time>
      </trkpt>
      <trkpt lat="51.29678" lon="3.80985">
        <ele>0.33</ele>
        <time>2021-03-20T20:31:14Z</time>
      </trkpt>
      <trkpt lat="51.29685" lon="3.80999">
        <ele>0.02</ele>
        <time>2021-03-20T20:31:15Z</time>
      </trkpt>
      <trkpt lat="51.29684" lon="3.81008">
        <ele>4.9</ele>
        <time>2021-03-20T20:31:21Z</time>
      </trkpt>
      <trkpt lat="51.29684" lon="3.81018">
        <ele>4.8</ele>
        <time>2021-03-20T20:31:27Z</time>
      </trkpt>
      <trkpt lat="51.29689" lon="3.8103">
        <ele>4.7</ele>
        <time>2021-03-20T20:31:32Z</time>
      </trkpt>
      <trkpt lat="51.29697" lon="3.81036">
        <ele>-0.03</ele>
        <time>2021-03-20T20:31:38Z</time>
      </trkpt>
      <trkpt lat="51.29706" lon="3.81035">
        <ele>-0.11</ele>
        <time>2021-03-20T20:31:44Z</time>
      </trkpt>
      <trkpt lat="51.29711" lon="3.81031">
        <ele>-0.06</ele>
        <time>2021-03-20T20:31:49Z</time>
      </trkpt>
      <trkpt lat="51.29715" lon="3.81024">
        <ele>4.3</ele>
        <time>2021-03-20T20:31:55Z</time>
      </trkpt>
      <trkpt lat="51.29717" lon="3.81015">
        <ele>4.2</ele>
        <time>2021-03-20T20:32:00Z</time>
      </trkpt>
      <trkpt lat="51.29731" lon="3.81008">
        <ele>3.9</ele>
        <time>2021-03-20T20:32:06Z</time>
      </trkpt>
      <trkpt lat="51.29779" lon="3.80995">
        <ele>-0.81</ele>
        <time>2021-03-20T20:32:12Z</time>
      </trkpt>
      <trkpt lat="51.29814" lon="3.80984">
        <ele>-0.41</ele>
        <time>2021-03-20T20:32:17Z</time>
      </trkpt>
      <trkpt lat="51.29827" lon="3.80974">
        <ele>-0.2</ele>
        <time>2021-03-20T20:32:23Z</time>
      </trkpt>
      <trkpt lat="51.29849" lon="3.80948">
        <ele>0.55</ele>
        <time>2021-03-20T20:32:29Z</time>
      </trkpt>
      <trkpt lat="51.29859" lon="3.80928">
        <ele>0.96</ele>
        <time>2021-03-20T20:32:34Z</time>
      </trkpt>
      <trkpt lat="51.29867" lon="3.80902">
        <ele>0.78</ele>
        <time>2021-03-20T20:32:40Z</time>
      </trkpt>
      <trkpt lat="51.29872" lon="3.80874">
        <ele>0.05</ele>
        <time>2021-03-20T20:32:45Z</time>
      </trkpt>
      <trkpt lat="51.29876" lon="3.80731">
        <ele>0.47</ele>
        <time>2021-03-20T20:32:51Z</time>
      </trkpt>
      <trkpt lat="51.29883" lon="3.80684">
        <ele>1</ele>
        <time>2021-03-20T20:32:57Z</time>
      </trkpt>
      <trkpt lat="51.29889" lon="3.80657">
        <ele>0.99</ele>
        <time>2021-03-20T20:33:02Z</time>
      </trkpt>
      <trkpt lat="51.29905" lon="3.80614">
        <ele>1</ele>
        <time>2021-03-20T20:33:08Z</time>
      </trkpt>
      <trkpt lat="51.29929" lon="3.80567">
        <ele>1</ele>
        <time>2021-03-20T20:33:14Z</time>
      </trkpt>
      <trkpt lat="51.29943" lon="3.80548">
        <ele>1</ele>
        <time>2021-03-20T20:33:19Z</time>
      </trkpt>
      <trkpt lat="51.29973" lon="3.8052">
        <ele>1.02</ele>
        <time>2021-03-20T20:33:25Z</time>
      </trkpt>
      <trkpt lat="51.29998" lon="3.80491">
        <ele>1.95</ele>
        <time>2021-03-20T20:33:30Z</time>
      </trkpt>
      <trkpt lat="51.30061" lon="3.80449">
        <ele>1</ele>
        <time>2021-03-20T20:33:36Z</time>
      </trkpt>
      <trkpt lat="51.30106" lon="3.80424">
        <ele>-0.25</ele>
        <time>2021-03-20T20:33:42Z</time>
      </trkpt>
      <trkpt lat="51.30154" lon="3.80399">
        <ele>-1.73</ele>
        <time>2021-03-20T20:33:47Z</time>
      </trkpt>
      <trkpt lat="51.30208" lon="3.80378">
        <ele>0.1</ele>
        <time>2021-03-20T20:33:53Z</time>
      </trkpt>
      <trkpt lat="51.30255" lon="3.80362">
        <ele>0.8</ele>
        <time>2021-03-20T20:33:59Z</time>
      </trkpt>
      <trkpt lat="51.3033" lon="3.80341">
        <ele>1</ele>
        <time>2021-03-20T20:34:04Z</time>
      </trkpt>
      <trkpt lat="51.30565" lon="3.80285">
        <ele>-1</ele>
        <time>2021-03-20T20:34:10Z</time>
      </trkpt>
      <trkpt lat="51.30636" lon="3.80265">
        <ele>-0.95</ele>
        <time>2021-03-20T20:34:15Z</time>
      </trkpt>
      <trkpt lat="51.3069" lon="3.80248">
        <ele>-1.16</ele>
        <time>2021-03-20T20:34:21Z</time>
      </trkpt>
      <trkpt lat="51.30749" lon="3.80224">
        <ele>-1</ele>
        <time>2021-03-20T20:34:27Z</time>
      </trkpt>
      <trkpt lat="51.30803" lon="3.80202">
        <ele>3.7</ele>
        <time>2021-03-20T20:34:32Z</time>
      </trkpt>
      <trkpt lat="51.30853" lon="3.80178">
        <ele>-0.72</ele>
        <time>2021-03-20T20:34:38Z</time>
      </trkpt>
      <trkpt lat="51.3091" lon="3.80149">
        <ele>-1.75</ele>
        <time>2021-03-20T20:34:44Z</time>
      </trkpt>
      <trkpt lat="51.31062" lon="3.80059">
        <ele>0.19</ele>
        <time>2021-03-20T20:34:49Z</time>
      </trkpt>
      <trkpt lat="51.31107" lon="3.80028">
        <ele>0.16</ele>
        <time>2021-03-20T20:34:55Z</time>
      </trkpt>
      <trkpt lat="51.31224" lon="3.7994">
        <ele>0.85</ele>
        <time>2021-03-20T20:35:00Z</time>
      </trkpt>
      <trkpt lat="51.3138" lon="3.79816">
        <ele>-1.19</ele>
        <time>2021-03-20T20:35:06Z</time>
      </trkpt>
      <trkpt lat="51.31435" lon="3.79777">
        <ele>0.67</ele>
        <time>2021-03-20T20:35:12Z</time>
      </trkpt>
      <trkpt lat="51.31519" lon="3.79724">
        <ele>4</ele>
        <time>2021-03-20T20:35:17Z</time>
      </trkpt>
      <trkpt lat="51.31555" lon="3.79706">
        <ele>-0.59</ele>
        <time>2021-03-20T20:35:23Z</time>
      </trkpt>
      <trkpt lat="51.31613" lon="3.79681">
        <ele>1.05</ele>
        <time>2021-03-20T20:35:29Z</time>
      </trkpt>
      <trkpt lat="51.31681" lon="3.79658">
        <ele>0.8</ele>
        <time>2021-03-20T20:35:34Z</time>
      </trkpt>
      <trkpt lat="51.31721" lon="3.79647">
        <ele>0.26</ele>
        <time>2021-03-20T20:35:40Z</time>
      </trkpt>
      <trkpt lat="51.31762" lon="3.79638">
        <ele>1</ele>
        <time>2021-03-20T20:35:45Z</time>
      </trkpt>
      <trkpt lat="51.31884" lon="3.79626">
        <ele>-3</ele>
        <time>2021-03-20T20:35:51Z</time>
      </trkpt>
      <trkpt lat="51.31965" lon="3.79629">
        <ele>1</ele>
        <time>2021-03-20T20:35:57Z</time>
      </trkpt>
      <trkpt lat="51.32012" lon="3.79635">
        <ele>0.84</ele>
        <time>2021-03-20T20:36:02Z</time>
      </trkpt>
      <trkpt lat="51.32107" lon="3.79657">
        <ele>-0.35</ele>
        <time>2021-03-20T20:36:08Z</time>
      </trkpt>
      <trkpt lat="51.3221" lon="3.79694">
        <ele>-0.44</ele>
        <time>2021-03-20T20:36:14Z</time>
      </trkpt>
      <trkpt lat="51.32258" lon="3.79719">
        <ele>0.55</ele>
        <time>2021-03-20T20:36:19Z</time>
      </trkpt>
      <trkpt lat="51.32326" lon="3.7976">
        <ele>0.88</ele>
        <time>2021-03-20T20:36:25Z</time>
      </trkpt>
      <trkpt lat="51.32419" lon="3.79827">
        <ele>-1.77</ele>
        <time>2021-03-20T20:36:31Z</time>
      </trkpt>
      <trkpt lat="51.32478" lon="3.79874">
        <ele>-0.79</ele>
        <time>2021-03-20T20:36:36Z</time>
      </trkpt>
      <trkpt lat="51.32525" lon="3.79914">
        <ele>0.91</ele>
        <time>2021-03-20T20:36:42Z</time>
      </trkpt>
      <trkpt lat="51.326" lon="3.79972">
        <ele>-0.39</ele>
        <time>2021-03-20T20:36:47Z</time>
      </trkpt>
      <trkpt lat="51.3265" lon="3.80006">
        <ele>1</ele>
        <time>2021-03-20T20:36:53Z</time>
      </trkpt>
      <trkpt lat="51.32708" lon="3.80038">
        <ele>-0.49</ele>
        <time>2021-03-20T20:36:59Z</time>
      </trkpt>
      <trkpt lat="51.32745" lon="3.80056">
        <ele>-1</ele>
        <time>2021-03-20T20:37:04Z</time>
      </trkpt>
      <trkpt lat="51.32788" lon="3.80074">
        <ele>-0.62</ele>
        <time>2021-03-20T20:37:10Z</time>
      </trkpt>
      <trkpt lat="51.32903" lon="3.80108">
        <ele>-1.45</ele>
        <time>2021-03-20T20:37:16Z</time>
      </trkpt>
      <trkpt lat="51.32984" lon="3.80119">
        <ele>-1.44</ele>
        <time>2021-03-20T20:37:21Z</time>
      </trkpt>
      <trkpt lat="51.33053" lon="3.80119">
        <ele>-1.08</ele>
        <time>2021-03-20T20:37:27Z</time>
      </trkpt>
      <trkpt lat="51.33123" lon="3.8011">
        <ele>1.97</ele>
        <time>2021-03-20T20:37:32Z</time>
      </trkpt>
      <trkpt lat="51.33173" lon="3.80101">
        <ele>2.64</ele>
        <time>2021-03-20T20:37:38Z</time>
      </trkpt>
      <trkpt lat="51.33242" lon="3.8008">
        <ele>1.7</ele>
        <time>2021-03-20T20:37:44Z</time>
      </trkpt>
      <trkpt lat="51.33338" lon="3.80043">
        <ele>2.53</ele>
        <time>2021-03-20T20:37:49Z</time>
      </trkpt>
      <trkpt lat="51.33444" lon="3.79997">
        <ele>1.99</ele>
        <time>2021-03-20T20:37:55Z</time>
      </trkpt>
      <trkpt lat="51.33601" lon="3.79938">
        <ele>2.77</ele>
        <time>2021-03-20T20:38:01Z</time>
      </trkpt>
      <trkpt lat="51.33733" lon="3.79903">
        <ele>0.6</ele>
        <time>2021-03-20T20:38:06Z</time>
      </trkpt>
      <trkpt lat="51.33843" lon="3.7988">
        <ele>-0.33</ele>
        <time>2021-03-20T20:38:12Z</time>
      </trkpt>
      <trkpt lat="51.33923" lon="3.79868">
        <ele>-0.39</ele>
        <time>2021-03-20T20:38:17Z</time>
      </trkpt>
      <trkpt lat="51.34026" lon="3.79858">
        <ele>-0.47</ele>
        <time>2021-03-20T20:38:23Z</time>
      </trkpt>
      <trkpt lat="51.34131" lon="3.79853">
        <ele>-0.55</ele>
        <time>2021-03-20T20:38:29Z</time>
      </trkpt>
      <trkpt lat="51.34387" lon="3.79854">
        <ele>-0.74</ele>
        <time>2021-03-20T20:38:34Z</time>
      </trkpt>
      <trkpt lat="51.37007" lon="3.79883">
        <ele>-2</ele>
        <time>2021-03-20T20:38:40Z</time>
      </trkpt>
      <trkpt lat="51.37007" lon="3.79883">
        <ele>-2</ele>
        <time>2021-03-20T20:38:40Z</time>
      </trkpt>
      <trkpt lat="51.37776" lon="3.79891">
        <ele>-3.25</ele>
        <time>2021-03-20T20:38:51Z</time>
      </trkpt>
      <trkpt lat="51.38935" lon="3.79894">
        <ele>-4.09</ele>
        <time>2021-03-20T20:39:02Z</time>
      </trkpt>
      <trkpt lat="51.39153" lon="3.79888">
        <ele>-4.24</ele>
        <time>2021-03-20T20:39:14Z</time>
      </trkpt>
      <trkpt lat="51.39278" lon="3.79872">
        <ele>-4.33</ele>
        <time>2021-03-20T20:39:25Z</time>
      </trkpt>
      <trkpt lat="51.3937" lon="3.7985">
        <ele>-4.4</ele>
        <time>2021-03-20T20:39:36Z</time>
      </trkpt>
      <trkpt lat="51.39466" lon="3.79819">
        <ele>-4.47</ele>
        <time>2021-03-20T20:39:47Z</time>
      </trkpt>
      <trkpt lat="51.39538" lon="3.79791">
        <ele>-4.53</ele>
        <time>2021-03-20T20:39:59Z</time>
      </trkpt>
      <trkpt lat="51.39605" lon="3.79759">
        <ele>-4.58</ele>
        <time>2021-03-20T20:40:10Z</time>
      </trkpt>
      <trkpt lat="51.3971" lon="3.79692">
        <ele>-4.67</ele>
        <time>2021-03-20T20:40:21Z</time>
      </trkpt>
      <trkpt lat="51.39762" lon="3.79654">
        <ele>-4.72</ele>
        <time>2021-03-20T20:40:32Z</time>
      </trkpt>
      <trkpt lat="51.39851" lon="3.79578">
        <ele>-4.81</ele>
        <time>2021-03-20T20:40:44Z</time>
      </trkpt>
      <trkpt lat="51.39932" lon="3.79494">
        <ele>-5.2</ele>
        <time>2021-03-20T20:40:55Z</time>
      </trkpt>
      <trkpt lat="51.39995" lon="3.79421">
        <ele>-2.15</ele>
        <time>2021-03-20T20:41:06Z</time>
      </trkpt>
      <trkpt lat="51.40154" lon="3.79217">
        <ele>-1.64</ele>
        <time>2021-03-20T20:41:17Z</time>
      </trkpt>
      <trkpt lat="51.40389" lon="3.78901">
        <ele>-3</ele>
        <time>2021-03-20T20:41:29Z</time>
      </trkpt>
      <trkpt lat="51.40908" lon="3.78193">
        <ele>-2.3</ele>
        <time>2021-03-20T20:41:40Z</time>
      </trkpt>
      <trkpt lat="51.40968" lon="3.78107">
        <ele>-1.02</ele>
        <time>2021-03-20T20:41:51Z</time>
      </trkpt>
      <trkpt lat="51.4103" lon="3.78008">
        <ele>-1.07</ele>
        <time>2021-03-20T20:42:02Z</time>
      </trkpt>
      <trkpt lat="51.41076" lon="3.77924">
        <ele>-0.98</ele>
        <time>2021-03-20T20:42:14Z</time>
      </trkpt>
      <trkpt lat="51.41109" lon="3.77858">
        <ele>-1.84</ele>
        <time>2021-03-20T20:42:25Z</time>
      </trkpt>
      <trkpt lat="51.41142" lon="3.77786">
        <ele>-2.88</ele>
        <time>2021-03-20T20:42:36Z</time>
      </trkpt>
      <trkpt lat="51.41174" lon="3.77708">
        <ele>-3</ele>
        <time>2021-03-20T20:42:47Z</time>
      </trkpt>
      <trkpt lat="51.41276" lon="3.77432">
        <ele>-2.57</ele>
        <time>2021-03-20T20:42:59Z</time>
      </trkpt>
      <trkpt lat="51.4133" lon="3.77302">
        <ele>-0.9</ele>
        <time>2021-03-20T20:43:10Z</time>
      </trkpt>
      <trkpt lat="51.41374" lon="3.77209">
        <ele>-0.72</ele>
        <time>2021-03-20T20:43:21Z</time>
      </trkpt>
      <trkpt lat="51.4142" lon="3.77122">
        <ele>-1.11</ele>
        <time>2021-03-20T20:43:32Z</time>
      </trkpt>
      <trkpt lat="51.41481" lon="3.77022">
        <ele>-2</ele>
        <time>2021-03-20T20:43:44Z</time>
      </trkpt>
      <trkpt lat="51.41515" lon="3.76971">
        <ele>-2</ele>
        <time>2021-03-20T20:43:55Z</time>
      </trkpt>
      <trkpt lat="51.41569" lon="3.76898">
        <ele>-2</ele>
        <time>2021-03-20T20:44:06Z</time>
      </trkpt>
      <trkpt lat="51.41656" lon="3.76796">
        <ele>-1</ele>
        <time>2021-03-20T20:44:17Z</time>
      </trkpt>
      <trkpt lat="51.41693" lon="3.76759">
        <ele>-1</ele>
        <time>2021-03-20T20:44:29Z</time>
      </trkpt>
      <trkpt lat="51.41756" lon="3.76702">
        <ele>-1.75</ele>
        <time>2021-03-20T20:44:40Z</time>
      </trkpt>
      <trkpt lat="51.41819" lon="3.7665">
        <ele>-1.69</ele>
        <time>2021-03-20T20:44:51Z</time>
      </trkpt>
      <trkpt lat="51.41905" lon="3.76591">
        <ele>-1.29</ele>
        <time>2021-03-20T20:45:02Z</time>
      </trkpt>
      <trkpt lat="51.41969" lon="3.76555">
        <ele>-0.11</ele>
        <time>2021-03-20T20:45:14Z</time>
      </trkpt>
      <trkpt lat="51.42066" lon="3.76512">
        <ele>-1</ele>
        <time>2021-03-20T20:45:25Z</time>
      </trkpt>
      <trkpt lat="51.42497" lon="3.76341">
        <ele>-1</ele>
        <time>2021-03-20T20:45:36Z</time>
      </trkpt>
      <trkpt lat="51.42954" lon="3.76146">
        <ele>-0.26</ele>
        <time>2021-03-20T20:45:47Z</time>
      </trkpt>
      <trkpt lat="51.4342" lon="3.75932">
        <ele>-1.59</ele>
        <time>2021-03-20T20:45:59Z</time>
      </trkpt>
      <trkpt lat="51.43768" lon="3.75772">
        <ele>-1.13</ele>
        <time>2021-03-20T20:46:10Z</time>
      </trkpt>
      <trkpt lat="51.43986" lon="3.75667">
        <ele>-1.52</ele>
        <time>2021-03-20T20:46:21Z</time>
      </trkpt>
      <trkpt lat="51.44029" lon="3.75652">
        <ele>2</ele>
        <time>2021-03-20T20:46:32Z</time>
      </trkpt>
      <trkpt lat="51.44104" lon="3.75638">
        <ele>-0.73</ele>
        <time>2021-03-20T20:46:50Z</time>
      </trkpt>
      <trkpt lat="51.44107" lon="3.75631">
        <ele>-0.84</ele>
        <time>2021-03-20T20:47:02Z</time>
      </trkpt>
      <trkpt lat="51.44161" lon="3.75603">
        <ele>-1.19</ele>
        <time>2021-03-20T20:47:14Z</time>
      </trkpt>
      <trkpt lat="51.44215" lon="3.75577">
        <ele>-1.75</ele>
        <time>2021-03-20T20:47:26Z</time>
      </trkpt>
      <trkpt lat="51.44297" lon="3.75514">
        <ele>-1</ele>
        <time>2021-03-20T20:47:38Z</time>
      </trkpt>
      <trkpt lat="51.44411" lon="3.75454">
        <ele>-1.8</ele>
        <time>2021-03-20T20:47:50Z</time>
      </trkpt>
      <trkpt lat="51.44632" lon="3.75328">
        <ele>-1.76</ele>
        <time>2021-03-20T20:48:02Z</time>
      </trkpt>
      <trkpt lat="51.4469" lon="3.75307">
        <ele>-1.16</ele>
        <time>2021-03-20T20:48:03Z</time>
      </trkpt>
      <trkpt lat="51.447" lon="3.75305">
        <ele>-1.2</ele>
        <time>2021-03-20T20:48:04Z</time>
      </trkpt>
      <trkpt lat="51.44722" lon="3.75309">
        <ele>-1.89</ele>
        <time>2021-03-20T20:48:06Z</time>
      </trkpt>
      <trkpt lat="51.44744" lon="3.75326">
        <ele>-1.25</ele>
        <time>2021-03-20T20:48:07Z</time>
      </trkpt>
      <trkpt lat="51.44755" lon="3.75342">
        <ele>-1.16</ele>
        <time>2021-03-20T20:48:08Z</time>
      </trkpt>
      <trkpt lat="51.44764" lon="3.75363">
        <ele>-1.52</ele>
        <time>2021-03-20T20:48:10Z</time>
      </trkpt>
      <trkpt lat="51.44769" lon="3.75382">
        <ele>-1.91</ele>
        <time>2021-03-20T20:48:11Z</time>
      </trkpt>
      <trkpt lat="51.44771" lon="3.75401">
        <ele>-1.67</ele>
        <time>2021-03-20T20:48:12Z</time>
      </trkpt>
      <trkpt lat="51.44772" lon="3.75421">
        <ele>-1.08</ele>
        <time>2021-03-20T20:48:14Z</time>
      </trkpt>
      <trkpt lat="51.44768" lon="3.75451">
        <ele>-0.7</ele>
        <time>2021-03-20T20:48:15Z</time>
      </trkpt>
      <trkpt lat="51.44758" lon="3.75481">
        <ele>-1.16</ele>
        <time>2021-03-20T20:48:16Z</time>
      </trkpt>
      <trkpt lat="51.44745" lon="3.75502">
        <ele>-0.94</ele>
        <time>2021-03-20T20:48:17Z</time>
      </trkpt>
      <trkpt lat="51.44729" lon="3.75516">
        <ele>-0.86</ele>
        <time>2021-03-20T20:48:19Z</time>
      </trkpt>
      <trkpt lat="51.44708" lon="3.75524">
        <ele>-1</ele>
        <time>2021-03-20T20:48:20Z</time>
      </trkpt>
      <trkpt lat="51.44684" lon="3.7552">
        <ele>-1</ele>
        <time>2021-03-20T20:48:21Z</time>
      </trkpt>
      <trkpt lat="51.44675" lon="3.75515">
        <ele>-1</ele>
        <time>2021-03-20T20:48:23Z</time>
      </trkpt>
      <trkpt lat="51.44661" lon="3.75501">
        <ele>-1</ele>
        <time>2021-03-20T20:48:24Z</time>
      </trkpt>
      <trkpt lat="51.44644" lon="3.75476">
        <ele>-0.85</ele>
        <time>2021-03-20T20:48:25Z</time>
      </trkpt>
      <trkpt lat="51.44657" lon="3.75506">
        <ele>-1</ele>
        <time>2021-03-20T20:48:28Z</time>
      </trkpt>
      <trkpt lat="51.44672" lon="3.75522">
        <ele>-1</ele>
        <time>2021-03-20T20:48:31Z</time>
      </trkpt>
      <trkpt lat="51.44683" lon="3.75529">
        <ele>-1.02</ele>
        <time>2021-03-20T20:48:34Z</time>
      </trkpt>
      <trkpt lat="51.44699" lon="3.75535">
        <ele>-0.96</ele>
        <time>2021-03-20T20:48:37Z</time>
      </trkpt>
      <trkpt lat="51.44713" lon="3.75536">
        <ele>-0.8</ele>
        <time>2021-03-20T20:48:40Z</time>
      </trkpt>
      <trkpt lat="51.44727" lon="3.75532">
        <ele>-0.66</ele>
        <time>2021-03-20T20:48:43Z</time>
      </trkpt>
      <trkpt lat="51.44748" lon="3.75518">
        <ele>-0.41</ele>
        <time>2021-03-20T20:48:46Z</time>
      </trkpt>
      <trkpt lat="51.44761" lon="3.75502">
        <ele>-0.16</ele>
        <time>2021-03-20T20:48:49Z</time>
      </trkpt>
      <trkpt lat="51.44771" lon="3.75484">
        <ele>-0.03</ele>
        <time>2021-03-20T20:48:52Z</time>
      </trkpt>
      <trkpt lat="51.44778" lon="3.75468">
        <ele>1</ele>
        <time>2021-03-20T20:48:55Z</time>
      </trkpt>
      <trkpt lat="51.44785" lon="3.75434">
        <ele>-0.13</ele>
        <time>2021-03-20T20:48:58Z</time>
      </trkpt>
      <trkpt lat="51.44798" lon="3.75315">
        <ele>-2</ele>
        <time>2021-03-20T20:49:01Z</time>
      </trkpt>
      <trkpt lat="51.44808" lon="3.75279">
        <ele>-2</ele>
        <time>2021-03-20T20:49:04Z</time>
      </trkpt>
      <trkpt lat="51.44818" lon="3.75248">
        <ele>-1.54</ele>
        <time>2021-03-20T20:49:07Z</time>
      </trkpt>
      <trkpt lat="51.44831" lon="3.75223">
        <ele>-1.1</ele>
        <time>2021-03-20T20:49:10Z</time>
      </trkpt>
      <trkpt lat="51.44848" lon="3.75193">
        <ele>1.6</ele>
        <time>2021-03-20T20:49:12Z</time>
      </trkpt>
      <trkpt lat="51.44906" lon="3.75124">
        <ele>-0.33</ele>
        <time>2021-03-20T20:49:15Z</time>
      </trkpt>
      <trkpt lat="51.44994" lon="3.75043">
        <ele>2.02</ele>
        <time>2021-03-20T20:49:18Z</time>
      </trkpt>
      <trkpt lat="51.4509" lon="3.74941">
        <ele>1.42</ele>
        <time>2021-03-20T20:49:21Z</time>
      </trkpt>
      <trkpt lat="51.45157" lon="3.7485">
        <ele>-0.6</ele>
        <time>2021-03-20T20:49:24Z</time>
      </trkpt>
      <trkpt lat="51.45311" lon="3.74609">
        <ele>-0.92</ele>
        <time>2021-03-20T20:49:27Z</time>
      </trkpt>
      <trkpt lat="51.45349" lon="3.74554">
        <ele>0.02</ele>
        <time>2021-03-20T20:49:30Z</time>
      </trkpt>
      <trkpt lat="51.45394" lon="3.74495">
        <ele>-1.85</ele>
        <time>2021-03-20T20:49:33Z</time>
      </trkpt>
      <trkpt lat="51.45425" lon="3.7446">
        <ele>-1.71</ele>
        <time>2021-03-20T20:49:36Z</time>
      </trkpt>
      <trkpt lat="51.45439" lon="3.74446">
        <ele>-1.19</ele>
        <time>2021-03-20T20:49:39Z</time>
      </trkpt>
      <trkpt lat="51.45458" lon="3.74421">
        <ele>-1.41</ele>
        <time>2021-03-20T20:49:44Z</time>
      </trkpt>
      <trkpt lat="51.45481" lon="3.74403">
        <ele>-0.68</ele>
        <time>2021-03-20T20:49:48Z</time>
      </trkpt>
      <trkpt lat="51.45505" lon="3.74389">
        <ele>1</ele>
        <time>2021-03-20T20:49:53Z</time>
      </trkpt>
      <trkpt lat="51.4562" lon="3.74339">
        <ele>-1</ele>
        <time>2021-03-20T20:49:58Z</time>
      </trkpt>
      <trkpt lat="51.45675" lon="3.74302">
        <ele>-0.69</ele>
        <time>2021-03-20T20:50:02Z</time>
      </trkpt>
      <trkpt lat="51.45709" lon="3.74271">
        <ele>-0.65</ele>
        <time>2021-03-20T20:50:07Z</time>
      </trkpt>
      <trkpt lat="51.45739" lon="3.74238">
        <ele>-1.62</ele>
        <time>2021-03-20T20:50:12Z</time>
      </trkpt>
      <trkpt lat="51.45768" lon="3.74199">
        <ele>-1.46</ele>
        <time>2021-03-20T20:50:16Z</time>
      </trkpt>
      <trkpt lat="51.45804" lon="3.74142">
        <ele>-1</ele>
        <time>2021-03-20T20:50:21Z</time>
      </trkpt>
      <trkpt lat="51.45819" lon="3.74111">
        <ele>-1</ele>
        <time>2021-03-20T20:50:26Z</time>
      </trkpt>
      <trkpt lat="51.45863" lon="3.74031">
        <ele>-2.01</ele>
        <time>2021-03-20T20:50:30Z</time>
      </trkpt>
      <trkpt lat="51.45909" lon="3.7395">
        <ele>-1.27</ele>
        <time>2021-03-20T20:50:35Z</time>
      </trkpt>
      <trkpt lat="51.45942" lon="3.73901">
        <ele>0.05</ele>
        <time>2021-03-20T20:50:40Z</time>
      </trkpt>
      <trkpt lat="51.46027" lon="3.73798">
        <ele>1</ele>
        <time>2021-03-20T20:50:44Z</time>
      </trkpt>
      <trkpt lat="51.46054" lon="3.73769">
        <ele>0.63</ele>
        <time>2021-03-20T20:50:49Z</time>
      </trkpt>
      <trkpt lat="51.46081" lon="3.73742">
        <ele>0.9</ele>
        <time>2021-03-20T20:50:54Z</time>
      </trkpt>
      <trkpt lat="51.46198" lon="3.73637">
        <ele>1</ele>
        <time>2021-03-20T20:50:58Z</time>
      </trkpt>
      <trkpt lat="51.46228" lon="3.73605">
        <ele>0.99</ele>
        <time>2021-03-20T20:51:03Z</time>
      </trkpt>
      <trkpt lat="51.46303" lon="3.73536">
        <ele>0.65</ele>
        <time>2021-03-20T20:51:08Z</time>
      </trkpt>
      <trkpt lat="51.46321" lon="3.73517">
        <ele>0.44</ele>
        <time>2021-03-20T20:51:12Z</time>
      </trkpt>
      <trkpt lat="51.46365" lon="3.73476">
        <ele>-0.11</ele>
        <time>2021-03-20T20:51:17Z</time>
      </trkpt>
      <trkpt lat="51.46419" lon="3.73429">
        <ele>0.45</ele>
        <time>2021-03-20T20:51:22Z</time>
      </trkpt>
      <trkpt lat="51.47014" lon="3.72891">
        <ele>0.94</ele>
        <time>2021-03-20T20:51:26Z</time>
      </trkpt>
      <trkpt lat="51.4753" lon="3.72421">
        <ele>1.13</ele>
        <time>2021-03-20T20:51:31Z</time>
      </trkpt>
      <trkpt lat="51.47597" lon="3.72356">
        <ele>-0.09</ele>
        <time>2021-03-20T20:51:36Z</time>
      </trkpt>
      <trkpt lat="51.47692" lon="3.72249">
        <ele>1</ele>
        <time>2021-03-20T20:51:40Z</time>
      </trkpt>
      <trkpt lat="51.47719" lon="3.72214">
        <ele>0.49</ele>
        <time>2021-03-20T20:51:45Z</time>
      </trkpt>
      <trkpt lat="51.47802" lon="3.72096">
        <ele>-0.41</ele>
        <time>2021-03-20T20:51:50Z</time>
      </trkpt>
      <trkpt lat="51.47846" lon="3.72024">
        <ele>1.07</ele>
        <time>2021-03-20T20:51:54Z</time>
      </trkpt>
      <trkpt lat="51.47889" lon="3.71949">
        <ele>1</ele>
        <time>2021-03-20T20:51:59Z</time>
      </trkpt>
      <trkpt lat="51.4794" lon="3.71849">
        <ele>-0.68</ele>
        <time>2021-03-20T20:52:04Z</time>
      </trkpt>
      <trkpt lat="51.4799" lon="3.7174">
        <ele>1</ele>
        <time>2021-03-20T20:52:09Z</time>
      </trkpt>
      <trkpt lat="51.48028" lon="3.71643">
        <ele>1.14</ele>
        <time>2021-03-20T20:52:13Z</time>
      </trkpt>
      <trkpt lat="51.48054" lon="3.71571">
        <ele>0.95</ele>
        <time>2021-03-20T20:52:18Z</time>
      </trkpt>
      <trkpt lat="51.48088" lon="3.71464">
        <ele>1</ele>
        <time>2021-03-20T20:52:23Z</time>
      </trkpt>
      <trkpt lat="51.48125" lon="3.71328">
        <ele>0.61</ele>
        <time>2021-03-20T20:52:27Z</time>
      </trkpt>
      <trkpt lat="51.48142" lon="3.71254">
        <ele>0.98</ele>
        <time>2021-03-20T20:52:32Z</time>
      </trkpt>
      <trkpt lat="51.48168" lon="3.71125">
        <ele>4</ele>
        <time>2021-03-20T20:52:37Z</time>
      </trkpt>
      <trkpt lat="51.48184" lon="3.71028">
        <ele>1.4</ele>
        <time>2021-03-20T20:52:41Z</time>
      </trkpt>
      <trkpt lat="51.48196" lon="3.70934">
        <ele>1.31</ele>
        <time>2021-03-20T20:52:46Z</time>
      </trkpt>
      <trkpt lat="51.48207" lon="3.70839">
        <ele>1</ele>
        <time>2021-03-20T20:52:51Z</time>
      </trkpt>
      <trkpt lat="51.48215" lon="3.70731">
        <ele>1.73</ele>
        <time>2021-03-20T20:52:55Z</time>
      </trkpt>
      <trkpt lat="51.48221" lon="3.7055">
        <ele>1.17</ele>
        <time>2021-03-20T20:53:00Z</time>
      </trkpt>
      <trkpt lat="51.4822" lon="3.70442">
        <ele>1.82</ele>
        <time>2021-03-20T20:53:05Z</time>
      </trkpt>
      <trkpt lat="51.48218" lon="3.70381">
        <ele>1</ele>
        <time>2021-03-20T20:53:09Z</time>
      </trkpt>
      <trkpt lat="51.4821" lon="3.70256">
        <ele>-0.12</ele>
        <time>2021-03-20T20:53:14Z</time>
      </trkpt>
      <trkpt lat="51.48202" lon="3.70169">
        <ele>-0.73</ele>
        <time>2021-03-20T20:53:19Z</time>
      </trkpt>
      <trkpt lat="51.48191" lon="3.70078">
        <ele>-0.11</ele>
        <time>2021-03-20T20:53:23Z</time>
      </trkpt>
      <trkpt lat="51.48177" lon="3.69975">
        <ele>-0.75</ele>
        <time>2021-03-20T20:53:28Z</time>
      </trkpt>
      <trkpt lat="51.4816" lon="3.69881">
        <ele>-0.28</ele>
        <time>2021-03-20T20:53:33Z</time>
      </trkpt>
      <trkpt lat="51.48134" lon="3.6976">
        <ele>-1.23</ele>
        <time>2021-03-20T20:53:37Z</time>
      </trkpt>
      <trkpt lat="51.48106" lon="3.69648">
        <ele>-0.27</ele>
        <time>2021-03-20T20:53:42Z</time>
      </trkpt>
      <trkpt lat="51.48073" lon="3.69539">
        <ele>-0.38</ele>
        <time>2021-03-20T20:53:47Z</time>
      </trkpt>
      <trkpt lat="51.48028" lon="3.6941">
        <ele>-1</ele>
        <time>2021-03-20T20:53:51Z</time>
      </trkpt>
      <trkpt lat="51.47843" lon="3.6894">
        <ele>1.83</ele>
        <time>2021-03-20T20:53:56Z</time>
      </trkpt>
      <trkpt lat="51.47809" lon="3.68849">
        <ele>2.13</ele>
        <time>2021-03-20T20:54:01Z</time>
      </trkpt>
      <trkpt lat="51.47777" lon="3.68767">
        <ele>0.97</ele>
        <time>2021-03-20T20:54:05Z</time>
      </trkpt>
      <trkpt lat="51.4775" lon="3.68708">
        <ele>1.52</ele>
        <time>2021-03-20T20:54:10Z</time>
      </trkpt>
      <trkpt lat="51.47695" lon="3.68573">
        <ele>3.37</ele>
        <time>2021-03-20T20:54:15Z</time>
      </trkpt>
      <trkpt lat="51.47568" lon="3.68253">
        <ele>4.9</ele>
        <time>2021-03-20T20:54:19Z</time>
      </trkpt>
      <trkpt lat="51.47553" lon="3.68195">
        <ele>5.64</ele>
        <time>2021-03-20T20:54:27Z</time>
      </trkpt>
      <trkpt lat="51.47405" lon="3.67749">
        <ele>3.13</ele>
        <time>2021-03-20T20:54:34Z</time>
      </trkpt>
      <trkpt lat="51.47373" lon="3.67661">
        <ele>3</ele>
        <time>2021-03-20T20:54:42Z</time>
      </trkpt>
      <trkpt lat="51.47358" lon="3.67623">
        <ele>3</ele>
        <time>2021-03-20T20:54:46Z</time>
      </trkpt>
      <trkpt lat="51.47127" lon="3.67123">
        <ele>4.96</ele>
        <time>2021-03-20T20:54:50Z</time>
      </trkpt>
      <trkpt lat="51.47065" lon="3.66975">
        <ele>2.78</ele>
        <time>2021-03-20T20:54:54Z</time>
      </trkpt>
      <trkpt lat="51.47051" lon="3.66957">
        <ele>1.68</ele>
        <time>2021-03-20T20:54:59Z</time>
      </trkpt>
      <trkpt lat="51.46969" lon="3.66748">
        <ele>2.63</ele>
        <time>2021-03-20T20:55:03Z</time>
      </trkpt>
      <trkpt lat="51.46921" lon="3.66609">
        <ele>-1.94</ele>
        <time>2021-03-20T20:55:07Z</time>
      </trkpt>
      <trkpt lat="51.46899" lon="3.66533">
        <ele>-0.65</ele>
        <time>2021-03-20T20:55:11Z</time>
      </trkpt>
      <trkpt lat="51.46873" lon="3.66435">
        <ele>-1.39</ele>
        <time>2021-03-20T20:55:16Z</time>
      </trkpt>
      <trkpt lat="51.46857" lon="3.66365">
        <ele>-0.34</ele>
        <time>2021-03-20T20:55:20Z</time>
      </trkpt>
      <trkpt lat="51.46843" lon="3.66295">
        <ele>1.59</ele>
        <time>2021-03-20T20:55:24Z</time>
      </trkpt>
      <trkpt lat="51.46821" lon="3.66161">
        <ele>1.37</ele>
        <time>2021-03-20T20:55:28Z</time>
      </trkpt>
      <trkpt lat="51.46812" lon="3.66077">
        <ele>2</ele>
        <time>2021-03-20T20:55:33Z</time>
      </trkpt>
      <trkpt lat="51.46804" lon="3.65984">
        <ele>2.93</ele>
        <time>2021-03-20T20:55:37Z</time>
      </trkpt>
      <trkpt lat="51.468" lon="3.65903">
        <ele>1.39</ele>
        <time>2021-03-20T20:55:41Z</time>
      </trkpt>
      <trkpt lat="51.46798" lon="3.65825">
        <ele>0.65</ele>
        <time>2021-03-20T20:55:46Z</time>
      </trkpt>
      <trkpt lat="51.468" lon="3.6569">
        <ele>-1</ele>
        <time>2021-03-20T20:55:50Z</time>
      </trkpt>
      <trkpt lat="51.46804" lon="3.65611">
        <ele>0.93</ele>
        <time>2021-03-20T20:55:54Z</time>
      </trkpt>
      <trkpt lat="51.46811" lon="3.6552">
        <ele>2.58</ele>
        <time>2021-03-20T20:55:58Z</time>
      </trkpt>
      <trkpt lat="51.46833" lon="3.65358">
        <ele>-1.97</ele>
        <time>2021-03-20T20:56:03Z</time>
      </trkpt>
      <trkpt lat="51.46846" lon="3.65277">
        <ele>-2.49</ele>
        <time>2021-03-20T20:56:07Z</time>
      </trkpt>
      <trkpt lat="51.46876" lon="3.65143">
        <ele>1.53</ele>
        <time>2021-03-20T20:56:11Z</time>
      </trkpt>
      <trkpt lat="51.469" lon="3.65051">
        <ele>1.29</ele>
        <time>2021-03-20T20:56:15Z</time>
      </trkpt>
      <trkpt lat="51.46933" lon="3.64945">
        <ele>2</ele>
        <time>2021-03-20T20:56:20Z</time>
      </trkpt>
      <trkpt lat="51.46978" lon="3.64824">
        <ele>0.48</ele>
        <time>2021-03-20T20:56:24Z</time>
      </trkpt>
      <trkpt lat="51.47044" lon="3.64678">
        <ele>1</ele>
        <time>2021-03-20T20:56:28Z</time>
      </trkpt>
      <trkpt lat="51.47093" lon="3.64586">
        <ele>-0.57</ele>
        <time>2021-03-20T20:56:32Z</time>
      </trkpt>
      <trkpt lat="51.47175" lon="3.6444">
        <ele>-2.31</ele>
        <time>2021-03-20T20:56:37Z</time>
      </trkpt>
      <trkpt lat="51.47304" lon="3.64224">
        <ele>0.9</ele>
        <time>2021-03-20T20:56:41Z</time>
      </trkpt>
      <trkpt lat="51.47329" lon="3.64175">
        <ele>-0.28</ele>
        <time>2021-03-20T20:56:45Z</time>
      </trkpt>
      <trkpt lat="51.47454" lon="3.63967">
        <ele>3.07</ele>
        <time>2021-03-20T20:56:49Z</time>
      </trkpt>
      <trkpt lat="51.4749" lon="3.63901">
        <ele>3</ele>
        <time>2021-03-20T20:56:54Z</time>
      </trkpt>
      <trkpt lat="51.47556" lon="3.63788">
        <ele>1.01</ele>
        <time>2021-03-20T20:56:58Z</time>
      </trkpt>
      <trkpt lat="51.47559" lon="3.63779">
        <ele>1.13</ele>
        <time>2021-03-20T20:57:02Z</time>
      </trkpt>
      <trkpt lat="51.4758" lon="3.63746">
        <ele>2.87</ele>
        <time>2021-03-20T20:57:07Z</time>
      </trkpt>
      <trkpt lat="51.47582" lon="3.63742">
        <ele>3.13</ele>
        <time>2021-03-20T20:57:11Z</time>
      </trkpt>
      <trkpt lat="51.47597" lon="3.63743">
        <ele>3.73</ele>
        <time>2021-03-20T20:57:15Z</time>
      </trkpt>
      <trkpt lat="51.47606" lon="3.63731">
        <ele>4.51</ele>
        <time>2021-03-20T20:57:19Z</time>
      </trkpt>
      <trkpt lat="51.47608" lon="3.63719">
        <ele>4.88</ele>
        <time>2021-03-20T20:57:24Z</time>
      </trkpt>
      <trkpt lat="51.47607" lon="3.63705">
        <ele>4.84</ele>
        <time>2021-03-20T20:57:28Z</time>
      </trkpt>
      <trkpt lat="51.47599" lon="3.63689">
        <ele>4.55</ele>
        <time>2021-03-20T20:57:29Z</time>
      </trkpt>
      <trkpt lat="51.47593" lon="3.63685">
        <ele>4.34</ele>
        <time>2021-03-20T20:57:30Z</time>
      </trkpt>
      <trkpt lat="51.47578" lon="3.63686">
        <ele>3.6</ele>
        <time>2021-03-20T20:57:31Z</time>
      </trkpt>
      <trkpt lat="51.4757" lon="3.63677">
        <ele>3.05</ele>
        <time>2021-03-20T20:57:34Z</time>
      </trkpt>
      <trkpt lat="51.47562" lon="3.63664">
        <ele>2.38</ele>
        <time>2021-03-20T20:57:36Z</time>
      </trkpt>
      <trkpt lat="51.47553" lon="3.63643">
        <ele>0.84</ele>
        <time>2021-03-20T20:57:39Z</time>
      </trkpt>
      <trkpt lat="51.47544" lon="3.63619">
        <ele>-0.65</ele>
        <time>2021-03-20T20:57:42Z</time>
      </trkpt>
      <trkpt lat="51.47535" lon="3.63579">
        <ele>-1</ele>
        <time>2021-03-20T20:57:44Z</time>
      </trkpt>
      <trkpt lat="51.47532" lon="3.63543">
        <ele>-0.53</ele>
        <time>2021-03-20T20:57:47Z</time>
      </trkpt>
      <trkpt lat="51.47534" lon="3.63525">
        <ele>1</ele>
        <time>2021-03-20T20:57:49Z</time>
      </trkpt>
      <trkpt lat="51.47538" lon="3.63509">
        <ele>1</ele>
        <time>2021-03-20T20:57:52Z</time>
      </trkpt>
      <trkpt lat="51.47546" lon="3.63491">
        <ele>0.11</ele>
        <time>2021-03-20T20:57:54Z</time>
      </trkpt>
      <trkpt lat="51.47555" lon="3.63479">
        <ele>0.71</ele>
        <time>2021-03-20T20:57:57Z</time>
      </trkpt>
      <trkpt lat="51.47566" lon="3.6347">
        <ele>1.37</ele>
        <time>2021-03-20T20:58:00Z</time>
      </trkpt>
      <trkpt lat="51.47578" lon="3.63466">
        <ele>1.82</ele>
        <time>2021-03-20T20:58:02Z</time>
      </trkpt>
      <trkpt lat="51.4759" lon="3.63467">
        <ele>1.75</ele>
        <time>2021-03-20T20:58:05Z</time>
      </trkpt>
      <trkpt lat="51.47601" lon="3.63471">
        <ele>1.38</ele>
        <time>2021-03-20T20:58:07Z</time>
      </trkpt>
      <trkpt lat="51.47609" lon="3.63477">
        <ele>0.89</ele>
        <time>2021-03-20T20:58:10Z</time>
      </trkpt>
      <trkpt lat="51.47619" lon="3.63489">
        <ele>0.03</ele>
        <time>2021-03-20T20:58:12Z</time>
      </trkpt>
      <trkpt lat="51.47627" lon="3.63504">
        <ele>-0.56</ele>
        <time>2021-03-20T20:58:15Z</time>
      </trkpt>
      <trkpt lat="51.4766" lon="3.63596">
        <ele>1.47</ele>
        <time>2021-03-20T20:58:18Z</time>
      </trkpt>
      <trkpt lat="51.47911" lon="3.64567">
        <ele>-3.2</ele>
        <time>2021-03-20T20:58:20Z</time>
      </trkpt>
      <trkpt lat="51.47927" lon="3.6466">
        <ele>-4.72</ele>
        <time>2021-03-20T20:58:25Z</time>
      </trkpt>
      <trkpt lat="51.4795" lon="3.64766">
        <ele>-2.15</ele>
        <time>2021-03-20T20:58:31Z</time>
      </trkpt>
      <trkpt lat="51.47956" lon="3.64808">
        <ele>-1.54</ele>
        <time>2021-03-20T20:58:36Z</time>
      </trkpt>
      <trkpt lat="51.47959" lon="3.64848">
        <ele>-0.76</ele>
        <time>2021-03-20T20:58:41Z</time>
      </trkpt>
      <trkpt lat="51.47959" lon="3.64872">
        <ele>-0.14</ele>
        <time>2021-03-20T20:58:46Z</time>
      </trkpt>
      <trkpt lat="51.47953" lon="3.64925">
        <ele>0.78</ele>
        <time>2021-03-20T20:58:52Z</time>
      </trkpt>
      <trkpt lat="51.47948" lon="3.64949">
        <ele>1</ele>
        <time>2021-03-20T20:58:57Z</time>
      </trkpt>
      <trkpt lat="51.47939" lon="3.64981">
        <ele>0.74</ele>
        <time>2021-03-20T20:59:02Z</time>
      </trkpt>
      <trkpt lat="51.47915" lon="3.6505">
        <ele>-0.28</ele>
        <time>2021-03-20T20:59:07Z</time>
      </trkpt>
      <trkpt lat="51.47906" lon="3.65088">
        <ele>-0.32</ele>
        <time>2021-03-20T20:59:13Z</time>
      </trkpt>
      <trkpt lat="51.47903" lon="3.65126">
        <ele>1</ele>
        <time>2021-03-20T20:59:18Z</time>
      </trkpt>
      <trkpt lat="51.47908" lon="3.65163">
        <ele>1</ele>
        <time>2021-03-20T20:59:23Z</time>
      </trkpt>
      <trkpt lat="51.47919" lon="3.65197">
        <ele>0.1</ele>
        <time>2021-03-20T20:59:28Z</time>
      </trkpt>
      <trkpt lat="51.47932" lon="3.6522">
        <ele>0.93</ele>
        <time>2021-03-20T20:59:34Z</time>
      </trkpt>
      <trkpt lat="51.47953" lon="3.65241">
        <ele>1</ele>
        <time>2021-03-20T20:59:39Z</time>
      </trkpt>
      <trkpt lat="51.47968" lon="3.65248">
        <ele>1</ele>
        <time>2021-03-20T20:59:44Z</time>
      </trkpt>
      <trkpt lat="51.47982" lon="3.6525">
        <ele>1</ele>
        <time>2021-03-20T20:59:49Z</time>
      </trkpt>
      <trkpt lat="51.48013" lon="3.65243">
        <ele>1</ele>
        <time>2021-03-20T20:59:55Z</time>
      </trkpt>
      <trkpt lat="51.48031" lon="3.65234">
        <ele>0.87</ele>
        <time>2021-03-20T21:00:00Z</time>
      </trkpt>
      <trkpt lat="51.48174" lon="3.6514">
        <ele>1.32</ele>
        <time>2021-03-20T21:00:05Z</time>
      </trkpt>
      <trkpt lat="51.48218" lon="3.65108">
        <ele>3.55</ele>
        <time>2021-03-20T21:00:10Z</time>
      </trkpt>
      <trkpt lat="51.48347" lon="3.65">
        <ele>1</ele>
        <time>2021-03-20T21:00:16Z</time>
      </trkpt>
      <trkpt lat="51.48495" lon="3.64862">
        <ele>-0.89</ele>
        <time>2021-03-20T21:00:21Z</time>
      </trkpt>
      <trkpt lat="51.48569" lon="3.64784">
        <ele>-0.5</ele>
        <time>2021-03-20T21:00:26Z</time>
      </trkpt>
      <trkpt lat="51.48677" lon="3.64661">
        <ele>0.8</ele>
        <time>2021-03-20T21:00:31Z</time>
      </trkpt>
      <trkpt lat="51.4877" lon="3.64544">
        <ele>0.83</ele>
        <time>2021-03-20T21:00:36Z</time>
      </trkpt>
      <trkpt lat="51.4885" lon="3.64437">
        <ele>-0.58</ele>
        <time>2021-03-20T21:00:42Z</time>
      </trkpt>
      <trkpt lat="51.48877" lon="3.64397">
        <ele>-1</ele>
        <time>2021-03-20T21:00:47Z</time>
      </trkpt>
      <trkpt lat="51.49003" lon="3.64198">
        <ele>0.91</ele>
        <time>2021-03-20T21:00:52Z</time>
      </trkpt>
      <trkpt lat="51.49269" lon="3.63761">
        <ele>0.73</ele>
        <time>2021-03-20T21:00:57Z</time>
      </trkpt>
      <trkpt lat="51.49421" lon="3.63516">
        <ele>1.72</ele>
        <time>2021-03-20T21:01:03Z</time>
      </trkpt>
      <trkpt lat="51.49482" lon="3.63433">
        <ele>1.37</ele>
        <time>2021-03-20T21:01:08Z</time>
      </trkpt>
      <trkpt lat="51.49537" lon="3.63378">
        <ele>2</ele>
        <time>2021-03-20T21:01:13Z</time>
      </trkpt>
      <trkpt lat="51.49577" lon="3.63347">
        <ele>2</ele>
        <time>2021-03-20T21:01:18Z</time>
      </trkpt>
      <trkpt lat="51.49604" lon="3.63331">
        <ele>2.73</ele>
        <time>2021-03-20T21:01:24Z</time>
      </trkpt>
      <trkpt lat="51.49644" lon="3.63312">
        <ele>3.59</ele>
        <time>2021-03-20T21:01:29Z</time>
      </trkpt>
      <trkpt lat="51.49712" lon="3.63292">
        <ele>3.47</ele>
        <time>2021-03-20T21:01:34Z</time>
      </trkpt>
      <trkpt lat="51.49778" lon="3.63287">
        <ele>1</ele>
        <time>2021-03-20T21:01:39Z</time>
      </trkpt>
      <trkpt lat="51.50063" lon="3.63302">
        <ele>4.79</ele>
        <time>2021-03-20T21:01:45Z</time>
      </trkpt>
      <trkpt lat="51.50206" lon="3.63312">
        <ele>-0.12</ele>
        <time>2021-03-20T21:01:50Z</time>
      </trkpt>
      <trkpt lat="51.50688" lon="3.63338">
        <ele>-2</ele>
        <time>2021-03-20T21:01:55Z</time>
      </trkpt>
      <trkpt lat="51.50764" lon="3.63332">
        <ele>-2.96</ele>
        <time>2021-03-20T21:02:00Z</time>
      </trkpt>
      <trkpt lat="51.50849" lon="3.63318">
        <ele>-2.72</ele>
        <time>2021-03-20T21:02:06Z</time>
      </trkpt>
      <trkpt lat="51.50914" lon="3.633">
        <ele>-2.17</ele>
        <time>2021-03-20T21:02:11Z</time>
      </trkpt>
      <trkpt lat="51.50975" lon="3.63278">
        <ele>-3</ele>
        <time>2021-03-20T21:02:16Z</time>
      </trkpt>
      <trkpt lat="51.51063" lon="3.63239">
        <ele>-1.74</ele>
        <time>2021-03-20T21:02:21Z</time>
      </trkpt>
      <trkpt lat="51.51112" lon="3.63213">
        <ele>-0.65</ele>
        <time>2021-03-20T21:02:27Z</time>
      </trkpt>
      <trkpt lat="51.51188" lon="3.63163">
        <ele>-0.8</ele>
        <time>2021-03-20T21:02:32Z</time>
      </trkpt>
      <trkpt lat="51.5123" lon="3.6313">
        <ele>-1</ele>
        <time>2021-03-20T21:02:37Z</time>
      </trkpt>
      <trkpt lat="51.51292" lon="3.63077">
        <ele>-0.5</ele>
        <time>2021-03-20T21:02:42Z</time>
      </trkpt>
      <trkpt lat="51.51386" lon="3.62984">
        <ele>-2.54</ele>
        <time>2021-03-20T21:02:48Z</time>
      </trkpt>
      <trkpt lat="51.51422" lon="3.62943">
        <ele>-0.94</ele>
        <time>2021-03-20T21:02:53Z</time>
      </trkpt>
      <trkpt lat="51.51479" lon="3.6287">
        <ele>-0.48</ele>
        <time>2021-03-20T21:02:58Z</time>
      </trkpt>
      <trkpt lat="51.51542" lon="3.62779">
        <ele>-2.02</ele>
        <time>2021-03-20T21:03:03Z</time>
      </trkpt>
      <trkpt lat="51.51608" lon="3.6267">
        <ele>-3.1</ele>
        <time>2021-03-20T21:03:09Z</time>
      </trkpt>
      <trkpt lat="51.51938" lon="3.62077">
        <ele>-1</ele>
        <time>2021-03-20T21:03:14Z</time>
      </trkpt>
      <trkpt lat="51.51962" lon="3.62039">
        <ele>-1.59</ele>
        <time>2021-03-20T21:03:19Z</time>
      </trkpt>
      <trkpt lat="51.51972" lon="3.62042">
        <ele>-1.49</ele>
        <time>2021-03-20T21:03:27Z</time>
      </trkpt>
      <trkpt lat="51.51981" lon="3.62035">
        <ele>-2.05</ele>
        <time>2021-03-20T21:03:35Z</time>
      </trkpt>
      <trkpt lat="51.51985" lon="3.62026">
        <ele>-2.45</ele>
        <time>2021-03-20T21:03:43Z</time>
      </trkpt>
      <trkpt lat="51.51986" lon="3.62015">
        <ele>-2.5</ele>
        <time>2021-03-20T21:03:51Z</time>
      </trkpt>
      <trkpt lat="51.51983" lon="3.62">
        <ele>-2.41</ele>
        <time>2021-03-20T21:03:59Z</time>
      </trkpt>
      <trkpt lat="51.52031" lon="3.61903">
        <ele>-1</ele>
        <time>2021-03-20T21:04:07Z</time>
      </trkpt>
      <trkpt lat="51.52127" lon="3.61736">
        <ele>-1</ele>
        <time>2021-03-20T21:04:15Z</time>
      </trkpt>
      <trkpt lat="51.5217" lon="3.61674">
        <ele>1</ele>
        <time>2021-03-20T21:04:23Z</time>
      </trkpt>
      <trkpt lat="51.52216" lon="3.61617">
        <time>2021-03-20T21:04:31Z</time>
      </trkpt>
      <trkpt lat="51.52265" lon="3.61568">
        <ele>-1</ele>
        <time>2021-03-20T21:04:39Z</time>
      </trkpt>
      <trkpt lat="51.52292" lon="3.61545">
        <ele>-1.31</ele>
        <time>2021-03-20T21:04:47Z</time>
      </trkpt>
      <trkpt lat="51.5236" lon="3.61498">
        <ele>-1.11</ele>
        <time>2021-03-20T21:04:55Z</time>
      </trkpt>
      <trkpt lat="51.52434" lon="3.6146">
        <ele>-1.61</ele>
        <time>2021-03-20T21:05:03Z</time>
      </trkpt>
      <trkpt lat="51.52743" lon="3.61327">
        <ele>-2.1</ele>
        <time>2021-03-20T21:05:11Z</time>
      </trkpt>
      <trkpt lat="51.53056" lon="3.61188">
        <ele>-1.73</ele>
        <time>2021-03-20T21:05:19Z</time>
      </trkpt>
      <trkpt lat="51.53294" lon="3.61079">
        <ele>-2.58</ele>
        <time>2021-03-20T21:05:27Z</time>
      </trkpt>
      <trkpt lat="51.53538" lon="3.60964">
        <ele>-1.55</ele>
        <time>2021-03-20T21:05:35Z</time>
      </trkpt>
      <trkpt lat="51.53733" lon="3.60867">
        <ele>-1.92</ele>
        <time>2021-03-20T21:05:43Z</time>
      </trkpt>
      <trkpt lat="51.53898" lon="3.6078">
        <ele>-0.37</ele>
        <time>2021-03-20T21:05:51Z</time>
      </trkpt>
      <trkpt lat="51.54067" lon="3.60688">
        <ele>-2</ele>
        <time>2021-03-20T21:05:59Z</time>
      </trkpt>
      <trkpt lat="51.54278" lon="3.60567">
        <ele>-1.01</ele>
        <time>2021-03-20T21:06:07Z</time>
      </trkpt>
      <trkpt lat="51.54316" lon="3.60552">
        <ele>0.86</ele>
        <time>2021-03-20T21:06:15Z</time>
      </trkpt>
      <trkpt lat="51.54324" lon="3.60562">
        <ele>1</ele>
        <time>2021-03-20T21:06:21Z</time>
      </trkpt>
      <trkpt lat="51.54333" lon="3.60564">
        <ele>1</ele>
        <time>2021-03-20T21:06:27Z</time>
      </trkpt>
      <trkpt lat="51.54341" lon="3.60558">
        <ele>0.43</ele>
        <time>2021-03-20T21:06:33Z</time>
      </trkpt>
      <trkpt lat="51.54346" lon="3.60551">
        <ele>0.02</ele>
        <time>2021-03-20T21:06:39Z</time>
      </trkpt>
      <trkpt lat="51.54348" lon="3.60541">
        <ele>-0.29</ele>
        <time>2021-03-20T21:06:45Z</time>
      </trkpt>
      <trkpt lat="51.54391" lon="3.60522">
        <ele>-0.8</ele>
        <time>2021-03-20T21:06:51Z</time>
      </trkpt>
      <trkpt lat="51.54529" lon="3.60486">
        <ele>0.48</ele>
        <time>2021-03-20T21:06:57Z</time>
      </trkpt>
      <trkpt lat="51.54605" lon="3.60463">
        <ele>-1.78</ele>
        <time>2021-03-20T21:07:03Z</time>
      </trkpt>
      <trkpt lat="51.54795" lon="3.60396">
        <ele>-0.86</ele>
        <time>2021-03-20T21:07:09Z</time>
      </trkpt>
      <trkpt lat="51.54935" lon="3.60338">
        <ele>-0.36</ele>
        <time>2021-03-20T21:07:15Z</time>
      </trkpt>
      <trkpt lat="51.55111" lon="3.60252">
        <ele>-1.07</ele>
        <time>2021-03-20T21:07:21Z</time>
      </trkpt>
      <trkpt lat="51.55218" lon="3.60194">
        <ele>0.17</ele>
        <time>2021-03-20T21:07:27Z</time>
      </trkpt>
      <trkpt lat="51.55424" lon="3.60075">
        <ele>1</ele>
        <time>2021-03-20T21:07:33Z</time>
      </trkpt>
      <trkpt lat="51.55492" lon="3.60041">
        <ele>-0.72</ele>
        <time>2021-03-20T21:07:39Z</time>
      </trkpt>
      <trkpt lat="51.55575" lon="3.60005">
        <ele>1</ele>
        <time>2021-03-20T21:07:45Z</time>
      </trkpt>
      <trkpt lat="51.55661" lon="3.59973">
        <ele>1</ele>
        <time>2021-03-20T21:07:51Z</time>
      </trkpt>
      <trkpt lat="51.55711" lon="3.59956">
        <ele>1</ele>
        <time>2021-03-20T21:07:57Z</time>
      </trkpt>
      <trkpt lat="51.55754" lon="3.59952">
        <ele>-0.85</ele>
        <time>2021-03-20T21:08:03Z</time>
      </trkpt>
      <trkpt lat="51.55756" lon="3.59958">
        <ele>-0.77</ele>
        <time>2021-03-20T21:08:08Z</time>
      </trkpt>
      <trkpt lat="51.55763" lon="3.59965">
        <ele>-0.52</ele>
        <time>2021-03-20T21:08:13Z</time>
      </trkpt>
      <trkpt lat="51.55773" lon="3.59965">
        <ele>-0.19</ele>
        <time>2021-03-20T21:08:18Z</time>
      </trkpt>
      <trkpt lat="51.55781" lon="3.59956">
        <ele>1</ele>
        <time>2021-03-20T21:08:23Z</time>
      </trkpt>
      <trkpt lat="51.55822" lon="3.59963">
        <ele>1</ele>
        <time>2021-03-20T21:08:28Z</time>
      </trkpt>
      <trkpt lat="51.55968" lon="3.60029">
        <ele>-0.95</ele>
        <time>2021-03-20T21:08:33Z</time>
      </trkpt>
      <trkpt lat="51.56008" lon="3.60053">
        <ele>-0.73</ele>
        <time>2021-03-20T21:08:38Z</time>
      </trkpt>
      <trkpt lat="51.56045" lon="3.60082">
        <ele>1</ele>
        <time>2021-03-20T21:08:43Z</time>
      </trkpt>
      <trkpt lat="51.56081" lon="3.60117">
        <ele>1</ele>
        <time>2021-03-20T21:08:48Z</time>
      </trkpt>
      <trkpt lat="51.56113" lon="3.60153">
        <ele>-1</ele>
        <time>2021-03-20T21:08:52Z</time>
      </trkpt>
      <trkpt lat="51.56136" lon="3.60183">
        <ele>-1</ele>
        <time>2021-03-20T21:08:57Z</time>
      </trkpt>
      <trkpt lat="51.56163" lon="3.60223">
        <ele>-1</ele>
        <time>2021-03-20T21:09:02Z</time>
      </trkpt>
      <trkpt lat="51.56188" lon="3.60267">
        <ele>-0.55</ele>
        <time>2021-03-20T21:09:07Z</time>
      </trkpt>
      <trkpt lat="51.56336" lon="3.6056">
        <ele>1</ele>
        <time>2021-03-20T21:09:12Z</time>
      </trkpt>
      <trkpt lat="51.56382" lon="3.60647">
        <ele>0.28</ele>
        <time>2021-03-20T21:09:17Z</time>
      </trkpt>
      <trkpt lat="51.56492" lon="3.60863">
        <ele>0.06</ele>
        <time>2021-03-20T21:09:22Z</time>
      </trkpt>
      <trkpt lat="51.56541" lon="3.60954">
        <ele>0.53</ele>
        <time>2021-03-20T21:09:27Z</time>
      </trkpt>
      <trkpt lat="51.56559" lon="3.60983">
        <ele>1</ele>
        <time>2021-03-20T21:09:32Z</time>
      </trkpt>
      <trkpt lat="51.56621" lon="3.61066">
        <ele>1</ele>
        <time>2021-03-20T21:09:37Z</time>
      </trkpt>
      <trkpt lat="51.56667" lon="3.61112">
        <ele>1</ele>
        <time>2021-03-20T21:09:42Z</time>
      </trkpt>
      <trkpt lat="51.56716" lon="3.61153">
        <ele>1</ele>
        <time>2021-03-20T21:09:46Z</time>
      </trkpt>
      <trkpt lat="51.56751" lon="3.61175">
        <ele>1</ele>
        <time>2021-03-20T21:09:51Z</time>
      </trkpt>
      <trkpt lat="51.56863" lon="3.61235">
        <ele>0.94</ele>
        <time>2021-03-20T21:09:56Z</time>
      </trkpt>
      <trkpt lat="51.5689" lon="3.61252">
        <ele>0.08</ele>
        <time>2021-03-20T21:10:01Z</time>
      </trkpt>
      <trkpt lat="51.5693" lon="3.61284">
        <ele>1</ele>
        <time>2021-03-20T21:10:06Z</time>
      </trkpt>
      <trkpt lat="51.56949" lon="3.61303">
        <ele>1</ele>
        <time>2021-03-20T21:10:11Z</time>
      </trkpt>
      <trkpt lat="51.5699" lon="3.61348">
        <ele>1</ele>
        <time>2021-03-20T21:10:16Z</time>
      </trkpt>
      <trkpt lat="51.57019" lon="3.61385">
        <ele>2.52</ele>
        <time>2021-03-20T21:10:21Z</time>
      </trkpt>
      <trkpt lat="51.57357" lon="3.61882">
        <ele>-0.62</ele>
        <time>2021-03-20T21:10:26Z</time>
      </trkpt>
      <trkpt lat="51.57386" lon="3.6192">
        <ele>-0.89</ele>
        <time>2021-03-20T21:10:31Z</time>
      </trkpt>
      <trkpt lat="51.57433" lon="3.61969">
        <ele>1</ele>
        <time>2021-03-20T21:10:36Z</time>
      </trkpt>
      <trkpt lat="51.57432" lon="3.61978">
        <ele>1</ele>
        <time>2021-03-20T21:10:36Z</time>
      </trkpt>
      <trkpt lat="51.57434" lon="3.61987">
        <ele>1</ele>
        <time>2021-03-20T21:10:37Z</time>
      </trkpt>
      <trkpt lat="51.57437" lon="3.61995">
        <ele>1</ele>
        <time>2021-03-20T21:10:38Z</time>
      </trkpt>
      <trkpt lat="51.57442" lon="3.62001">
        <ele>1</ele>
        <time>2021-03-20T21:10:39Z</time>
      </trkpt>
      <trkpt lat="51.57451" lon="3.62003">
        <ele>0.24</ele>
        <time>2021-03-20T21:10:40Z</time>
      </trkpt>
      <trkpt lat="51.5746" lon="3.61998">
        <ele>0.56</ele>
        <time>2021-03-20T21:10:41Z</time>
      </trkpt>
      <trkpt lat="51.57463" lon="3.61992">
        <ele>0.68</ele>
        <time>2021-03-20T21:10:42Z</time>
      </trkpt>
      <trkpt lat="51.57467" lon="3.61979">
        <ele>0.79</ele>
        <time>2021-03-20T21:10:42Z</time>
      </trkpt>
      <trkpt lat="51.57465" lon="3.61964">
        <ele>0.73</ele>
        <time>2021-03-20T21:10:43Z</time>
      </trkpt>
      <trkpt lat="51.57458" lon="3.61952">
        <ele>0.49</ele>
        <time>2021-03-20T21:10:44Z</time>
      </trkpt>
      <trkpt lat="51.57463" lon="3.6193">
        <ele>0.84</ele>
        <time>2021-03-20T21:10:45Z</time>
      </trkpt>
      <trkpt lat="51.57463" lon="3.61916">
        <ele>1</ele>
        <time>2021-03-20T21:10:46Z</time>
      </trkpt>
      <trkpt lat="51.5747" lon="3.61921">
        <ele>0.99</ele>
        <time>2021-03-20T21:10:53Z</time>
      </trkpt>
      <trkpt lat="51.57482" lon="3.61936">
        <ele>1</ele>
        <time>2021-03-20T21:10:59Z</time>
      </trkpt>
      <trkpt lat="51.57495" lon="3.61969">
        <ele>1</ele>
        <time>2021-03-20T21:11:06Z</time>
      </trkpt>
      <trkpt lat="51.57499" lon="3.61976">
        <ele>1</ele>
        <time>2021-03-20T21:11:13Z</time>
      </trkpt>
      <trkpt lat="51.57791" lon="3.6215">
        <ele>0.52</ele>
        <time>2021-03-20T21:11:20Z</time>
      </trkpt>
      <trkpt lat="51.58194" lon="3.62388">
        <ele>1</ele>
        <time>2021-03-20T21:11:27Z</time>
      </trkpt>
      <trkpt lat="51.58255" lon="3.62432">
        <ele>2.55</ele>
        <time>2021-03-20T21:11:34Z</time>
      </trkpt>
      <trkpt lat="51.58315" lon="3.62485">
        <ele>3.78</ele>
        <time>2021-03-20T21:11:40Z</time>
      </trkpt>
      <trkpt lat="51.58351" lon="3.62525">
        <ele>4.96</ele>
        <time>2021-03-20T21:11:47Z</time>
      </trkpt>
      <trkpt lat="51.5837" lon="3.62549">
        <ele>5.24</ele>
        <time>2021-03-20T21:11:54Z</time>
      </trkpt>
      <trkpt lat="51.58468" lon="3.62691">
        <ele>3.71</ele>
        <time>2021-03-20T21:12:01Z</time>
      </trkpt>
      <trkpt lat="51.58509" lon="3.62758">
        <ele>4.03</ele>
        <time>2021-03-20T21:12:08Z</time>
      </trkpt>
      <trkpt lat="51.58519" lon="3.62769">
        <ele>4.01</ele>
        <time>2021-03-20T21:12:15Z</time>
      </trkpt>
      <trkpt lat="51.58544" lon="3.62787">
        <ele>4.95</ele>
        <time>2021-03-20T21:12:21Z</time>
      </trkpt>
      <trkpt lat="51.58551" lon="3.62802">
        <ele>4.93</ele>
        <time>2021-03-20T21:12:28Z</time>
      </trkpt>
      <trkpt lat="51.58551" lon="3.62812">
        <ele>4.63</ele>
        <time>2021-03-20T21:12:35Z</time>
      </trkpt>
      <trkpt lat="51.58549" lon="3.62823">
        <ele>4.27</ele>
        <time>2021-03-20T21:12:42Z</time>
      </trkpt>
      <trkpt lat="51.5851" lon="3.62873">
        <ele>2.73</ele>
        <time>2021-03-20T21:12:49Z</time>
      </trkpt>
      <trkpt lat="51.58509" lon="3.62887">
        <ele>2.64</ele>
        <time>2021-03-20T21:12:56Z</time>
      </trkpt>
      <trkpt lat="51.5851" lon="3.62893">
        <ele>2.67</ele>
        <time>2021-03-20T21:13:02Z</time>
      </trkpt>
      <trkpt lat="51.58511" lon="3.62898">
        <ele>2.66</ele>
        <time>2021-03-20T21:13:09Z</time>
      </trkpt>
      <trkpt lat="51.58517" lon="3.62909">
        <ele>2.75</ele>
        <time>2021-03-20T21:13:16Z</time>
      </trkpt>
      <trkpt lat="51.58559" lon="3.62977">
        <ele>3.1</ele>
        <time>2021-03-20T21:13:23Z</time>
      </trkpt>
      <trkpt lat="51.58578" lon="3.63012">
        <ele>3</ele>
        <time>2021-03-20T21:13:30Z</time>
      </trkpt>
      <trkpt lat="51.58623" lon="3.63142">
        <ele>3.77</ele>
        <time>2021-03-20T21:13:37Z</time>
      </trkpt>
      <trkpt lat="51.58643" lon="3.63204">
        <ele>4.07</ele>
        <time>2021-03-20T21:13:43Z</time>
      </trkpt>
      <trkpt lat="51.58812" lon="3.63807">
        <ele>4.2</ele>
        <time>2021-03-20T21:13:50Z</time>
      </trkpt>
      <trkpt lat="51.58827" lon="3.63866">
        <ele>3.85</ele>
        <time>2021-03-20T21:13:57Z</time>
      </trkpt>
      <trkpt lat="51.5884" lon="3.63921">
        <ele>3.41</ele>
        <time>2021-03-20T21:14:04Z</time>
      </trkpt>
      <trkpt lat="51.58878" lon="3.64103">
        <ele>2.79</ele>
        <time>2021-03-20T21:14:11Z</time>
      </trkpt>
      <trkpt lat="51.589" lon="3.64239">
        <ele>4.74</ele>
        <time>2021-03-20T21:14:18Z</time>
      </trkpt>
      <trkpt lat="51.58901" lon="3.64291">
        <ele>3.79</ele>
        <time>2021-03-20T21:14:24Z</time>
      </trkpt>
      <trkpt lat="51.589" lon="3.64362">
        <ele>2.16</ele>
        <time>2021-03-20T21:14:31Z</time>
      </trkpt>
      <trkpt lat="51.58902" lon="3.64396">
        <ele>1.91</ele>
        <time>2021-03-20T21:14:38Z</time>
      </trkpt>
      <trkpt lat="51.58912" lon="3.64469">
        <ele>1.83</ele>
        <time>2021-03-20T21:14:45Z</time>
      </trkpt>
      <trkpt lat="51.5892" lon="3.64496">
        <ele>2.02</ele>
        <time>2021-03-20T21:14:52Z</time>
      </trkpt>
      <trkpt lat="51.58922" lon="3.64526">
        <ele>2</ele>
        <time>2021-03-20T21:14:59Z</time>
      </trkpt>
      <trkpt lat="51.58941" lon="3.64645">
        <ele>1.9</ele>
        <time>2021-03-20T21:15:05Z</time>
      </trkpt>
      <trkpt lat="51.58944" lon="3.6469">
        <ele>2</ele>
        <time>2021-03-20T21:15:12Z</time>
      </trkpt>
      <trkpt lat="51.58952" lon="3.65802">
        <ele>1.16</ele>
        <time>2021-03-20T21:15:19Z</time>
      </trkpt>
      <trkpt lat="51.58951" lon="3.65931">
        <ele>1.76</ele>
        <time>2021-03-20T21:15:26Z</time>
      </trkpt>
      <trkpt lat="51.58949" lon="3.65995">
        <ele>2.97</ele>
        <time>2021-03-20T21:15:33Z</time>
      </trkpt>
      <trkpt lat="51.58942" lon="3.66064">
        <ele>2.92</ele>
        <time>2021-03-20T21:15:40Z</time>
      </trkpt>
      <trkpt lat="51.58904" lon="3.66307">
        <ele>3.56</ele>
        <time>2021-03-20T21:15:46Z</time>
      </trkpt>
      <trkpt lat="51.58899" lon="3.66306">
        <ele>3.38</ele>
        <time>2021-03-20T21:15:50Z</time>
      </trkpt>
      <trkpt lat="51.58895" lon="3.66309">
        <ele>3.21</ele>
        <time>2021-03-20T21:15:54Z</time>
      </trkpt>
      <trkpt lat="51.58891" lon="3.66314">
        <ele>3.07</ele>
        <time>2021-03-20T21:15:58Z</time>
      </trkpt>
      <trkpt lat="51.58889" lon="3.66322">
        <ele>3</ele>
        <time>2021-03-20T21:16:02Z</time>
      </trkpt>
      <trkpt lat="51.58891" lon="3.66336">
        <ele>3.06</ele>
        <time>2021-03-20T21:16:06Z</time>
      </trkpt>
      <trkpt lat="51.58898" lon="3.66345">
        <ele>3.33</ele>
        <time>2021-03-20T21:16:11Z</time>
      </trkpt>
      <trkpt lat="51.58887" lon="3.66439">
        <ele>2.1</ele>
        <time>2021-03-20T21:16:15Z</time>
      </trkpt>
      <trkpt lat="51.58875" lon="3.6651">
        <ele>1.5</ele>
        <time>2021-03-20T21:16:19Z</time>
      </trkpt>
      <trkpt lat="51.58846" lon="3.66662">
        <ele>1.26</ele>
        <time>2021-03-20T21:16:23Z</time>
      </trkpt>
      <trkpt lat="51.58828" lon="3.6674">
        <ele>1.82</ele>
        <time>2021-03-20T21:16:27Z</time>
      </trkpt>
      <trkpt lat="51.58797" lon="3.66925">
        <ele>1.89</ele>
        <time>2021-03-20T21:16:31Z</time>
      </trkpt>
      <trkpt lat="51.58791" lon="3.66987">
        <ele>1.96</ele>
        <time>2021-03-20T21:16:35Z</time>
      </trkpt>
      <trkpt lat="51.58771" lon="3.67131">
        <ele>0.75</ele>
        <time>2021-03-20T21:16:39Z</time>
      </trkpt>
      <trkpt lat="51.58738" lon="3.67345">
        <ele>3.9</ele>
        <time>2021-03-20T21:16:43Z</time>
      </trkpt>
      <trkpt lat="51.58738" lon="3.67374">
        <ele>3.12</ele>
        <time>2021-03-20T21:16:47Z</time>
      </trkpt>
      <trkpt lat="51.58743" lon="3.67409">
        <ele>2.75</ele>
        <time>2021-03-20T21:16:51Z</time>
      </trkpt>
      <trkpt lat="51.58754" lon="3.67444">
        <ele>1.85</ele>
        <time>2021-03-20T21:16:55Z</time>
      </trkpt>
      <trkpt lat="51.58763" lon="3.67462">
        <ele>1.53</ele>
        <time>2021-03-20T21:16:59Z</time>
      </trkpt>
      <trkpt lat="51.58772" lon="3.67476">
        <ele>1.35</ele>
        <time>2021-03-20T21:17:03Z</time>
      </trkpt>
      <trkpt lat="51.58796" lon="3.6751">
        <ele>2</ele>
        <time>2021-03-20T21:17:07Z</time>
      </trkpt>
      <trkpt lat="51.5882" lon="3.67481">
        <ele>2</ele>
        <time>2021-03-20T21:17:11Z</time>
      </trkpt>
      <trkpt lat="51.58861" lon="3.67448">
        <ele>2</ele>
        <time>2021-03-20T21:17:15Z</time>
      </trkpt>
      <trkpt lat="51.58867" lon="3.67453">
        <ele>2</ele>
        <time>2021-03-20T21:17:26Z</time>
      </trkpt>
      <trkpt lat="51.58874" lon="3.67454">
        <ele>2</ele>
        <time>2021-03-20T21:17:36Z</time>
      </trkpt>
      <trkpt lat="51.58943" lon="3.67603">
        <ele>0.3</ele>
        <time>2021-03-20T21:17:47Z</time>
      </trkpt>
      <trkpt lat="51.58974" lon="3.67653">
        <ele>0.63</ele>
        <time>2021-03-20T21:17:58Z</time>
      </trkpt>
      <trkpt lat="51.5902" lon="3.67714">
        <ele>2.01</ele>
        <time>2021-03-20T21:18:09Z</time>
      </trkpt>
      <trkpt lat="51.59056" lon="3.67753">
        <ele>0.91</ele>
        <time>2021-03-20T21:18:20Z</time>
      </trkpt>
      <trkpt lat="51.5911" lon="3.67798">
        <ele>1.95</ele>
        <time>2021-03-20T21:18:31Z</time>
      </trkpt>
      <trkpt lat="51.59579" lon="3.68091">
        <ele>3.58</ele>
        <time>2021-03-20T21:18:42Z</time>
      </trkpt>
      <trkpt lat="51.59703" lon="3.68149">
        <ele>6.93</ele>
        <time>2021-03-20T21:18:53Z</time>
      </trkpt>
      <trkpt lat="51.59784" lon="3.68176">
        <ele>8</ele>
        <time>2021-03-20T21:19:04Z</time>
      </trkpt>
      <trkpt lat="51.59889" lon="3.68199">
        <ele>10.98</ele>
        <time>2021-03-20T21:19:14Z</time>
      </trkpt>
      <trkpt lat="51.60098" lon="3.68232">
        <ele>2.19</ele>
        <time>2021-03-20T21:19:25Z</time>
      </trkpt>
      <trkpt lat="51.61811" lon="3.68465">
        <ele>10.88</ele>
        <time>2021-03-20T21:19:36Z</time>
      </trkpt>
      <trkpt lat="51.62011" lon="3.68495">
        <ele>12.75</ele>
        <time>2021-03-20T21:19:47Z</time>
      </trkpt>
      <trkpt lat="51.62078" lon="3.68514">
        <ele>11.69</ele>
        <time>2021-03-20T21:19:58Z</time>
      </trkpt>
      <trkpt lat="51.62159" lon="3.68543">
        <ele>9.07</ele>
        <time>2021-03-20T21:20:09Z</time>
      </trkpt>
      <trkpt lat="51.62232" lon="3.68578">
        <ele>9.48</ele>
        <time>2021-03-20T21:20:20Z</time>
      </trkpt>
      <trkpt lat="51.62312" lon="3.68624">
        <ele>9.77</ele>
        <time>2021-03-20T21:20:31Z</time>
      </trkpt>
      <trkpt lat="51.6236" lon="3.68656">
        <ele>9.02</ele>
        <time>2021-03-20T21:20:42Z</time>
      </trkpt>
      <trkpt lat="51.6242" lon="3.687">
        <ele>6.7</ele>
        <time>2021-03-20T21:20:53Z</time>
      </trkpt>
      <trkpt lat="51.6251" lon="3.68779">
        <ele>6.36</ele>
        <time>2021-03-20T21:21:03Z</time>
      </trkpt>
      <trkpt lat="51.62584" lon="3.68855">
        <ele>8.02</ele>
        <time>2021-03-20T21:21:14Z</time>
      </trkpt>
      <trkpt lat="51.62652" lon="3.68935">
        <ele>8.65</ele>
        <time>2021-03-20T21:21:25Z</time>
      </trkpt>
      <trkpt lat="51.62727" lon="3.69037">
        <ele>9.73</ele>
        <time>2021-03-20T21:21:36Z</time>
      </trkpt>
      <trkpt lat="51.62813" lon="3.69161">
        <ele>8.42</ele>
        <time>2021-03-20T21:21:47Z</time>
      </trkpt>
      <trkpt lat="51.62913" lon="3.69316">
        <ele>6.53</ele>
        <time>2021-03-20T21:21:58Z</time>
      </trkpt>
      <trkpt lat="51.63052" lon="3.69548">
        <ele>9.23</ele>
        <time>2021-03-20T21:22:09Z</time>
      </trkpt>
      <trkpt lat="51.63185" lon="3.69791">
        <ele>9.34</ele>
        <time>2021-03-20T21:22:20Z</time>
      </trkpt>
      <trkpt lat="51.63329" lon="3.70078">
        <ele>11</ele>
        <time>2021-03-20T21:22:31Z</time>
      </trkpt>
      <trkpt lat="51.63347" lon="3.70128">
        <ele>11</ele>
        <time>2021-03-20T21:22:41Z</time>
      </trkpt>
      <trkpt lat="51.63415" lon="3.70281">
        <ele>9.94</ele>
        <time>2021-03-20T21:22:52Z</time>
      </trkpt>
      <trkpt lat="51.63424" lon="3.70315">
        <ele>10.18</ele>
        <time>2021-03-20T21:22:55Z</time>
      </trkpt>
      <trkpt lat="51.63423" lon="3.70328">
        <ele>10.04</ele>
        <time>2021-03-20T21:22:57Z</time>
      </trkpt>
      <trkpt lat="51.63417" lon="3.70344">
        <ele>9.63</ele>
        <time>2021-03-20T21:23:00Z</time>
      </trkpt>
      <trkpt lat="51.63405" lon="3.70358">
        <ele>9.12</ele>
        <time>2021-03-20T21:23:02Z</time>
      </trkpt>
      <trkpt lat="51.63393" lon="3.70378">
        <ele>8.41</ele>
        <time>2021-03-20T21:23:04Z</time>
      </trkpt>
      <trkpt lat="51.63385" lon="3.70404">
        <ele>7.31</ele>
        <time>2021-03-20T21:23:07Z</time>
      </trkpt>
      <trkpt lat="51.63382" lon="3.70433">
        <ele>6.16</ele>
        <time>2021-03-20T21:23:09Z</time>
      </trkpt>
      <trkpt lat="51.63383" lon="3.70447">
        <ele>5.78</ele>
        <time>2021-03-20T21:23:12Z</time>
      </trkpt>
      <trkpt lat="51.63388" lon="3.70475">
        <ele>5.87</ele>
        <time>2021-03-20T21:23:14Z</time>
      </trkpt>
      <trkpt lat="51.63415" lon="3.70552">
        <ele>4.18</ele>
        <time>2021-03-20T21:23:16Z</time>
      </trkpt>
      <trkpt lat="51.63459" lon="3.70661">
        <ele>3.63</ele>
        <time>2021-03-20T21:23:19Z</time>
      </trkpt>
      <trkpt lat="51.63519" lon="3.70788">
        <ele>3.68</ele>
        <time>2021-03-20T21:23:21Z</time>
      </trkpt>
      <trkpt lat="51.63586" lon="3.70915">
        <ele>3.11</ele>
        <time>2021-03-20T21:23:24Z</time>
      </trkpt>
      <trkpt lat="51.63471" lon="3.71081">
        <ele>2.12</ele>
        <time>2021-03-20T21:23:30Z</time>
      </trkpt>
      <trkpt lat="51.63466" lon="3.71084">
        <ele>2.2</ele>
        <time>2021-03-20T21:23:36Z</time>
      </trkpt>
      <trkpt lat="51.63455" lon="3.71078">
        <ele>2.69</ele>
        <time>2021-03-20T21:23:42Z</time>
      </trkpt>
      <trkpt lat="51.63443" lon="3.71068">
        <ele>2.95</ele>
        <time>2021-03-20T21:23:48Z</time>
      </trkpt>
      <trkpt lat="51.63296" lon="3.70901">
        <ele>2.36</ele>
        <time>2021-03-20T21:23:54Z</time>
      </trkpt>
      <trkpt lat="51.63304" lon="3.70881">
        <ele>3.21</ele>
        <time>2021-03-20T21:23:59Z</time>
      </trkpt>
      <trkpt lat="51.63337" lon="3.70811">
        <ele>3.87</ele>
        <time>2021-03-20T21:24:05Z</time>
      </trkpt>
      <trkpt lat="51.634" lon="3.70705">
        <ele>4.61</ele>
        <time>2021-03-20T21:24:10Z</time>
      </trkpt>
      <trkpt lat="51.63407" lon="3.70689">
        <ele>4.36</ele>
        <time>2021-03-20T21:24:16Z</time>
      </trkpt>
      <trkpt lat="51.6341" lon="3.70666">
        <ele>4.22</ele>
        <time>2021-03-20T21:24:22Z</time>
      </trkpt>
      <trkpt lat="51.63409" lon="3.70645">
        <ele>4.26</ele>
        <time>2021-03-20T21:24:27Z</time>
      </trkpt>
      <trkpt lat="51.63404" lon="3.70626">
        <ele>4.46</ele>
        <time>2021-03-20T21:24:33Z</time>
      </trkpt>
      <trkpt lat="51.63373" lon="3.70561">
        <ele>3.85</ele>
        <time>2021-03-20T21:24:39Z</time>
      </trkpt>
      <trkpt lat="51.63226" lon="3.70165">
        <ele>4.21</ele>
        <time>2021-03-20T21:24:44Z</time>
      </trkpt>
      <trkpt lat="51.63149" lon="3.69971">
        <ele>5.76</ele>
        <time>2021-03-20T21:24:50Z</time>
      </trkpt>
      <trkpt lat="51.63053" lon="3.69749">
        <ele>4.91</ele>
        <time>2021-03-20T21:24:55Z</time>
      </trkpt>
      <trkpt lat="51.62977" lon="3.69587">
        <ele>4.33</ele>
        <time>2021-03-20T21:25:01Z</time>
      </trkpt>
      <trkpt lat="51.62898" lon="3.69433">
        <ele>4.82</ele>
        <time>2021-03-20T21:25:07Z</time>
      </trkpt>
      <trkpt lat="51.62898" lon="3.69433">
        <ele>4.82</ele>
        <time>2021-03-20T21:25:07Z</time>
      </trkpt>
      <trkpt lat="51.62977" lon="3.69587">
        <ele>4.33</ele>
        <time>2021-03-20T21:25:12Z</time>
      </trkpt>
      <trkpt lat="51.63053" lon="3.69749">
        <ele>4.91</ele>
        <time>2021-03-20T21:25:18Z</time>
      </trkpt>
      <trkpt lat="51.63149" lon="3.69971">
        <ele>5.76</ele>
        <time>2021-03-20T21:25:24Z</time>
      </trkpt>
      <trkpt lat="51.63226" lon="3.70165">
        <ele>4.21</ele>
        <time>2021-03-20T21:25:29Z</time>
      </trkpt>
      <trkpt lat="51.63373" lon="3.70561">
        <ele>3.85</ele>
        <time>2021-03-20T21:25:35Z</time>
      </trkpt>
      <trkpt lat="51.63404" lon="3.70626">
        <ele>4.46</ele>
        <time>2021-03-20T21:25:40Z</time>
      </trkpt>
      <trkpt lat="51.63409" lon="3.70645">
        <ele>4.26</ele>
        <time>2021-03-20T21:25:46Z</time>
      </trkpt>
      <trkpt lat="51.6341" lon="3.70666">
        <ele>4.22</ele>
        <time>2021-03-20T21:25:52Z</time>
      </trkpt>
      <trkpt lat="51.63407" lon="3.70689">
        <ele>4.36</ele>
        <time>2021-03-20T21:25:57Z</time>
      </trkpt>
      <trkpt lat="51.634" lon="3.70705">
        <ele>4.61</ele>
        <time>2021-03-20T21:26:03Z</time>
      </trkpt>
      <trkpt lat="51.63337" lon="3.70811">
        <ele>3.87</ele>
        <time>2021-03-20T21:26:09Z</time>
      </trkpt>
      <trkpt lat="51.63304" lon="3.70881">
        <ele>3.21</ele>
        <time>2021-03-20T21:26:14Z</time>
      </trkpt>
      <trkpt lat="51.63296" lon="3.70901">
        <ele>2.36</ele>
        <time>2021-03-20T21:26:20Z</time>
      </trkpt>
      <trkpt lat="51.63443" lon="3.71068">
        <ele>2.95</ele>
        <time>2021-03-20T21:26:26Z</time>
      </trkpt>
      <trkpt lat="51.63455" lon="3.71078">
        <ele>2.69</ele>
        <time>2021-03-20T21:26:32Z</time>
      </trkpt>
      <trkpt lat="51.63466" lon="3.71084">
        <ele>2.2</ele>
        <time>2021-03-20T21:26:38Z</time>
      </trkpt>
      <trkpt lat="51.63471" lon="3.71081">
        <ele>2.12</ele>
        <time>2021-03-20T21:26:44Z</time>
      </trkpt>
      <trkpt lat="51.63586" lon="3.70915">
        <ele>3.11</ele>
        <time>2021-03-20T21:26:50Z</time>
      </trkpt>
      <trkpt lat="51.63519" lon="3.70788">
        <ele>3.68</ele>
        <time>2021-03-20T21:26:58Z</time>
      </trkpt>
      <trkpt lat="51.63459" lon="3.70661">
        <ele>3.63</ele>
        <time>2021-03-20T21:27:05Z</time>
      </trkpt>
      <trkpt lat="51.63415" lon="3.70552">
        <ele>4.18</ele>
        <time>2021-03-20T21:27:13Z</time>
      </trkpt>
      <trkpt lat="51.63388" lon="3.70475">
        <ele>5.87</ele>
        <time>2021-03-20T21:27:21Z</time>
      </trkpt>
      <trkpt lat="51.63383" lon="3.70447">
        <ele>5.78</ele>
        <time>2021-03-20T21:27:29Z</time>
      </trkpt>
      <trkpt lat="51.63382" lon="3.70433">
        <ele>6.16</ele>
        <time>2021-03-20T21:27:37Z</time>
      </trkpt>
      <trkpt lat="51.63385" lon="3.70404">
        <ele>7.31</ele>
        <time>2021-03-20T21:27:44Z</time>
      </trkpt>
      <trkpt lat="51.63393" lon="3.70378">
        <ele>8.41</ele>
        <time>2021-03-20T21:27:52Z</time>
      </trkpt>
      <trkpt lat="51.63405" lon="3.70358">
        <ele>9.12</ele>
        <time>2021-03-20T21:28:00Z</time>
      </trkpt>
      <trkpt lat="51.63417" lon="3.70344">
        <ele>9.63</ele>
        <time>2021-03-20T21:28:08Z</time>
      </trkpt>
      <trkpt lat="51.63427" lon="3.70339">
        <ele>9.87</ele>
        <time>2021-03-20T21:28:16Z</time>
      </trkpt>
      <trkpt lat="51.63436" lon="3.70341">
        <ele>9.91</ele>
        <time>2021-03-20T21:28:23Z</time>
      </trkpt>
      <trkpt lat="51.63453" lon="3.70369">
        <ele>9.82</ele>
        <time>2021-03-20T21:28:31Z</time>
      </trkpt>
      <trkpt lat="51.6356" lon="3.70616">
        <ele>7</ele>
        <time>2021-03-20T21:28:39Z</time>
      </trkpt>
      <trkpt lat="51.6359" lon="3.70679">
        <ele>8</ele>
        <time>2021-03-20T21:28:47Z</time>
      </trkpt>
      <trkpt lat="51.63605" lon="3.70706">
        <ele>8.4</ele>
        <time>2021-03-20T21:28:55Z</time>
      </trkpt>
      <trkpt lat="51.63614" lon="3.70715">
        <ele>8.63</ele>
        <time>2021-03-20T21:29:02Z</time>
      </trkpt>
      <trkpt lat="51.63671" lon="3.70819">
        <ele>7.52</ele>
        <time>2021-03-20T21:29:10Z</time>
      </trkpt>
      <trkpt lat="51.63707" lon="3.7088">
        <ele>8.32</ele>
        <time>2021-03-20T21:29:18Z</time>
      </trkpt>
      <trkpt lat="51.63765" lon="3.70968">
        <ele>8.52</ele>
        <time>2021-03-20T21:29:26Z</time>
      </trkpt>
      <trkpt lat="51.63843" lon="3.71076">
        <ele>9.63</ele>
        <time>2021-03-20T21:29:34Z</time>
      </trkpt>
      <trkpt lat="51.63931" lon="3.71178">
        <ele>9.58</ele>
        <time>2021-03-20T21:29:42Z</time>
      </trkpt>
      <trkpt lat="51.63993" lon="3.71238">
        <ele>8.18</ele>
        <time>2021-03-20T21:29:49Z</time>
      </trkpt>
      <trkpt lat="51.64062" lon="3.71301">
        <ele>8.37</ele>
        <time>2021-03-20T21:29:57Z</time>
      </trkpt>
      <trkpt lat="51.65033" lon="3.72074">
        <ele>8.55</ele>
        <time>2021-03-20T21:30:05Z</time>
      </trkpt>
      <trkpt lat="51.65202" lon="3.72205">
        <ele>9.1</ele>
        <time>2021-03-20T21:30:13Z</time>
      </trkpt>
      <trkpt lat="51.65246" lon="3.72234">
        <ele>9.94</ele>
        <time>2021-03-20T21:30:21Z</time>
      </trkpt>
      <trkpt lat="51.65323" lon="3.72271">
        <ele>10.11</ele>
        <time>2021-03-20T21:30:28Z</time>
      </trkpt>
      <trkpt lat="51.65375" lon="3.7229">
        <ele>11.05</ele>
        <time>2021-03-20T21:30:36Z</time>
      </trkpt>
      <trkpt lat="51.65433" lon="3.72305">
        <ele>10.42</ele>
        <time>2021-03-20T21:30:44Z</time>
      </trkpt>
      <trkpt lat="51.6547" lon="3.72311">
        <ele>10</ele>
        <time>2021-03-20T21:30:52Z</time>
      </trkpt>
      <trkpt lat="51.65542" lon="3.72314">
        <ele>8.27</ele>
        <time>2021-03-20T21:31:00Z</time>
      </trkpt>
      <trkpt lat="51.66579" lon="3.72248">
        <ele>2.86</ele>
        <time>2021-03-20T21:31:07Z</time>
      </trkpt>
      <trkpt lat="51.66671" lon="3.72246">
        <ele>7.63</ele>
        <time>2021-03-20T21:31:15Z</time>
      </trkpt>
      <trkpt lat="51.66734" lon="3.72253">
        <ele>5.53</ele>
        <time>2021-03-20T21:31:23Z</time>
      </trkpt>
      <trkpt lat="51.66781" lon="3.72262">
        <ele>7.04</ele>
        <time>2021-03-20T21:31:31Z</time>
      </trkpt>
      <trkpt lat="51.6682" lon="3.72274">
        <ele>8.41</ele>
        <time>2021-03-20T21:31:39Z</time>
      </trkpt>
      <trkpt lat="51.66905" lon="3.72307">
        <ele>7.47</ele>
        <time>2021-03-20T21:31:46Z</time>
      </trkpt>
      <trkpt lat="51.67171" lon="3.72438">
        <ele>0.84</ele>
        <time>2021-03-20T21:31:54Z</time>
      </trkpt>
      <trkpt lat="51.67362" lon="3.72537">
        <ele>-1</ele>
        <time>2021-03-20T21:32:02Z</time>
      </trkpt>
      <trkpt lat="51.67502" lon="3.72616">
        <ele>-0.07</ele>
        <time>2021-03-20T21:32:10Z</time>
      </trkpt>
      <trkpt lat="51.67559" lon="3.72657">
        <ele>-0.91</ele>
        <time>2021-03-20T21:32:18Z</time>
      </trkpt>
      <trkpt lat="51.67607" lon="3.72693">
        <ele>1</ele>
        <time>2021-03-20T21:32:26Z</time>
      </trkpt>
      <trkpt lat="51.67622" lon="3.72708">
        <ele>1</ele>
        <time>2021-03-20T21:32:33Z</time>
      </trkpt>
      <trkpt lat="51.67668" lon="3.72763">
        <ele>-0.48</ele>
        <time>2021-03-20T21:32:41Z</time>
      </trkpt>
      <trkpt lat="51.67713" lon="3.72828">
        <ele>-1</ele>
        <time>2021-03-20T21:32:49Z</time>
      </trkpt>
      <trkpt lat="51.67717" lon="3.72831">
        <ele>-1</ele>
        <time>2021-03-20T21:32:57Z</time>
      </trkpt>
      <trkpt lat="51.67724" lon="3.72831">
        <ele>-0.95</ele>
        <time>2021-03-20T21:33:05Z</time>
      </trkpt>
      <trkpt lat="51.6773" lon="3.72827">
        <ele>-0.77</ele>
        <time>2021-03-20T21:33:12Z</time>
      </trkpt>
      <trkpt lat="51.67755" lon="3.72789">
        <ele>-1</ele>
        <time>2021-03-20T21:33:20Z</time>
      </trkpt>
      <trkpt lat="51.67848" lon="3.72688">
        <ele>0.24</ele>
        <time>2021-03-20T21:33:28Z</time>
      </trkpt>
      <trkpt lat="51.67872" lon="3.72675">
        <ele>0.71</ele>
        <time>2021-03-20T21:33:36Z</time>
      </trkpt>
      <trkpt lat="51.67963" lon="3.7264">
        <ele>1</ele>
        <time>2021-03-20T21:33:44Z</time>
      </trkpt>
      <trkpt lat="51.68025" lon="3.72624">
        <ele>-1</ele>
        <time>2021-03-20T21:33:51Z</time>
      </trkpt>
      <trkpt lat="51.68055" lon="3.72625">
        <ele>-1</ele>
        <time>2021-03-20T21:33:59Z</time>
      </trkpt>
      <trkpt lat="51.6807" lon="3.72633">
        <ele>-0.47</ele>
        <time>2021-03-20T21:34:07Z</time>
      </trkpt>
      <trkpt lat="51.68087" lon="3.72646">
        <ele>-0.23</ele>
        <time>2021-03-20T21:34:15Z</time>
      </trkpt>
      <trkpt lat="51.68113" lon="3.72672">
        <ele>1</ele>
        <time>2021-03-20T21:34:23Z</time>
      </trkpt>
      <trkpt lat="51.68454" lon="3.73188">
        <ele>-0.2</ele>
        <time>2021-03-20T21:34:30Z</time>
      </trkpt>
      <trkpt lat="51.6827" lon="3.73501">
        <ele>-1.28</ele>
        <time>2021-03-20T21:34:53Z</time>
      </trkpt>
      <trkpt lat="51.68087" lon="3.73825">
        <ele>0.13</ele>
        <time>2021-03-20T21:35:16Z</time>
      </trkpt>
      <trkpt lat="51.68159" lon="3.73957">
        <ele>1</ele>
        <time>2021-03-20T21:35:25Z</time>
      </trkpt>
      <trkpt lat="51.68248" lon="3.74084">
        <ele>-2.07</ele>
        <time>2021-03-20T21:35:33Z</time>
      </trkpt>
      <trkpt lat="51.68292" lon="3.7415">
        <ele>-1.11</ele>
        <time>2021-03-20T21:35:42Z</time>
      </trkpt>
      <trkpt lat="51.68316" lon="3.74192">
        <ele>-1</ele>
        <time>2021-03-20T21:35:51Z</time>
      </trkpt>
      <trkpt lat="51.68441" lon="3.74464">
        <ele>-1</ele>
        <time>2021-03-20T21:36:00Z</time>
      </trkpt>
      <trkpt lat="51.6848" lon="3.7444">
        <ele>-1.11</ele>
        <time>2021-03-20T21:36:04Z</time>
      </trkpt>
      <trkpt lat="51.6854" lon="3.74408">
        <ele>0.55</ele>
        <time>2021-03-20T21:36:07Z</time>
      </trkpt>
      <trkpt lat="51.68558" lon="3.74393">
        <ele>-0.06</ele>
        <time>2021-03-20T21:36:11Z</time>
      </trkpt>
      <trkpt lat="51.68579" lon="3.74368">
        <ele>-0.86</ele>
        <time>2021-03-20T21:36:15Z</time>
      </trkpt>
      <trkpt lat="51.68645" lon="3.74257">
        <ele>1.47</ele>
        <time>2021-03-20T21:36:18Z</time>
      </trkpt>
      <trkpt lat="51.68663" lon="3.74219">
        <ele>0.88</ele>
        <time>2021-03-20T21:36:22Z</time>
      </trkpt>
      <trkpt lat="51.68678" lon="3.7416">
        <ele>-0.04</ele>
        <time>2021-03-20T21:36:26Z</time>
      </trkpt>
      <trkpt lat="51.68694" lon="3.7405">
        <ele>0.79</ele>
        <time>2021-03-20T21:36:29Z</time>
      </trkpt>
      <trkpt lat="51.68702" lon="3.74026">
        <ele>0.25</ele>
        <time>2021-03-20T21:36:33Z</time>
      </trkpt>
      <trkpt lat="51.6877" lon="3.73879">
        <ele>0.64</ele>
        <time>2021-03-20T21:36:36Z</time>
      </trkpt>
      <trkpt lat="51.68792" lon="3.73842">
        <ele>0.5</ele>
        <time>2021-03-20T21:36:40Z</time>
      </trkpt>
      <trkpt lat="51.688" lon="3.73833">
        <ele>0.8</ele>
        <time>2021-03-20T21:36:44Z</time>
      </trkpt>
      <trkpt lat="51.68807" lon="3.73835">
        <ele>1</ele>
        <time>2021-03-20T21:36:47Z</time>
      </trkpt>
      <trkpt lat="51.68878" lon="3.74016">
        <ele>1.77</ele>
        <time>2021-03-20T21:36:51Z</time>
      </trkpt>
      <trkpt lat="51.68911" lon="3.74085">
        <ele>-0.67</ele>
        <time>2021-03-20T21:36:54Z</time>
      </trkpt>
      <trkpt lat="51.68933" lon="3.74137">
        <ele>-2</ele>
        <time>2021-03-20T21:36:58Z</time>
      </trkpt>
      <trkpt lat="51.6896" lon="3.74193">
        <ele>-1.47</ele>
        <time>2021-03-20T21:37:02Z</time>
      </trkpt>
      <trkpt lat="51.69049" lon="3.74392">
        <ele>-2</ele>
        <time>2021-03-20T21:37:05Z</time>
      </trkpt>
      <trkpt lat="51.69081" lon="3.7447">
        <ele>-2</ele>
        <time>2021-03-20T21:37:09Z</time>
      </trkpt>
      <trkpt lat="51.69101" lon="3.74512">
        <ele>-2</ele>
        <time>2021-03-20T21:37:12Z</time>
      </trkpt>
      <trkpt lat="51.69119" lon="3.74568">
        <ele>-1</ele>
        <time>2021-03-20T21:37:16Z</time>
      </trkpt>
      <trkpt lat="51.6913" lon="3.74625">
        <ele>-1</ele>
        <time>2021-03-20T21:37:20Z</time>
      </trkpt>
      <trkpt lat="51.69141" lon="3.74697">
        <ele>-1</ele>
        <time>2021-03-20T21:37:23Z</time>
      </trkpt>
      <trkpt lat="51.69165" lon="3.74778">
        <ele>-1</ele>
        <time>2021-03-20T21:37:27Z</time>
      </trkpt>
      <trkpt lat="51.69168" lon="3.74798">
        <ele>-1</ele>
        <time>2021-03-20T21:37:30Z</time>
      </trkpt>
      <trkpt lat="51.69168" lon="3.74819">
        <ele>-1.45</ele>
        <time>2021-03-20T21:37:34Z</time>
      </trkpt>
      <trkpt lat="51.69164" lon="3.74834">
        <ele>-2</ele>
        <time>2021-03-20T21:37:38Z</time>
      </trkpt>
      <trkpt lat="51.69157" lon="3.74848">
        <ele>-2</ele>
        <time>2021-03-20T21:37:41Z</time>
      </trkpt>
      <trkpt lat="51.69158" lon="3.74863">
        <ele>-2</ele>
        <time>2021-03-20T21:37:45Z</time>
      </trkpt>
      <trkpt lat="51.69164" lon="3.74881">
        <ele>-2</ele>
        <time>2021-03-20T21:37:49Z</time>
      </trkpt>
      <trkpt lat="51.69171" lon="3.74897">
        <ele>-2</ele>
        <time>2021-03-20T21:37:52Z</time>
      </trkpt>
      <trkpt lat="51.69204" lon="3.74864">
        <ele>-1.06</ele>
        <time>2021-03-20T21:37:57Z</time>
      </trkpt>
      <trkpt lat="51.6921" lon="3.74874">
        <ele>-1.2</ele>
        <time>2021-03-20T21:38:01Z</time>
      </trkpt>
      <trkpt lat="51.69218" lon="3.74877">
        <ele>-1.1</ele>
        <time>2021-03-20T21:38:06Z</time>
      </trkpt>
      <trkpt lat="51.69227" lon="3.74874">
        <ele>-0.92</ele>
        <time>2021-03-20T21:38:10Z</time>
      </trkpt>
      <trkpt lat="51.69256" lon="3.74899">
        <ele>1</ele>
        <time>2021-03-20T21:38:15Z</time>
      </trkpt>
      <trkpt lat="51.69312" lon="3.74971">
        <ele>-1</ele>
        <time>2021-03-20T21:38:19Z</time>
      </trkpt>
      <trkpt lat="51.69349" lon="3.7501">
        <ele>-1.45</ele>
        <time>2021-03-20T21:38:24Z</time>
      </trkpt>
      <trkpt lat="51.69393" lon="3.75048">
        <ele>-1.73</ele>
        <time>2021-03-20T21:38:28Z</time>
      </trkpt>
      <trkpt lat="51.6943" lon="3.75074">
        <ele>-1.52</ele>
        <time>2021-03-20T21:38:33Z</time>
      </trkpt>
      <trkpt lat="51.69477" lon="3.75099">
        <ele>-0.57</ele>
        <time>2021-03-20T21:38:37Z</time>
      </trkpt>
      <trkpt lat="51.69554" lon="3.75131">
        <ele>-1</ele>
        <time>2021-03-20T21:38:42Z</time>
      </trkpt>
      <trkpt lat="51.69615" lon="3.75159">
        <ele>-1.71</ele>
        <time>2021-03-20T21:38:46Z</time>
      </trkpt>
      <trkpt lat="51.69699" lon="3.75211">
        <ele>-2.51</ele>
        <time>2021-03-20T21:38:51Z</time>
      </trkpt>
      <trkpt lat="51.6974" lon="3.75233">
        <ele>-3</ele>
        <time>2021-03-20T21:38:55Z</time>
      </trkpt>
      <trkpt lat="51.69763" lon="3.75254">
        <ele>-2.47</ele>
        <time>2021-03-20T21:39:00Z</time>
      </trkpt>
      <trkpt lat="51.69763" lon="3.75263">
        <ele>-2.3</ele>
        <time>2021-03-20T21:39:02Z</time>
      </trkpt>
      <trkpt lat="51.69765" lon="3.75271">
        <ele>-2.12</ele>
        <time>2021-03-20T21:39:04Z</time>
      </trkpt>
      <trkpt lat="51.69768" lon="3.75278">
        <ele>-2</ele>
        <time>2021-03-20T21:39:06Z</time>
      </trkpt>
      <trkpt lat="51.69773" lon="3.75283">
        <ele>-2</ele>
        <time>2021-03-20T21:39:09Z</time>
      </trkpt>
      <trkpt lat="51.69778" lon="3.75285">
        <ele>-2</ele>
        <time>2021-03-20T21:39:11Z</time>
      </trkpt>
      <trkpt lat="51.69784" lon="3.75284">
        <ele>-2</ele>
        <time>2021-03-20T21:39:13Z</time>
      </trkpt>
      <trkpt lat="51.69791" lon="3.75276">
        <ele>-1.96</ele>
        <time>2021-03-20T21:39:15Z</time>
      </trkpt>
      <trkpt lat="51.69795" lon="3.75263">
        <ele>-1.67</ele>
        <time>2021-03-20T21:39:18Z</time>
      </trkpt>
      <trkpt lat="51.69796" lon="3.75257">
        <ele>-1.51</ele>
        <time>2021-03-20T21:39:20Z</time>
      </trkpt>
      <trkpt lat="51.69816" lon="3.75244">
        <ele>-1</ele>
        <time>2021-03-20T21:39:22Z</time>
      </trkpt>
      <trkpt lat="51.69823" lon="3.75235">
        <ele>-1</ele>
        <time>2021-03-20T21:39:24Z</time>
      </trkpt>
      <trkpt lat="51.69844" lon="3.75221">
        <ele>-0.58</ele>
        <time>2021-03-20T21:39:27Z</time>
      </trkpt>
      <trkpt lat="51.69878" lon="3.75183">
        <time>2021-03-20T21:39:29Z</time>
      </trkpt>
      <trkpt lat="51.69907" lon="3.75142">
        <ele>-0.32</ele>
        <time>2021-03-20T21:39:31Z</time>
      </trkpt>
      <trkpt lat="51.6992" lon="3.75099">
        <ele>-0.06</ele>
        <time>2021-03-20T21:39:33Z</time>
      </trkpt>
      <trkpt lat="51.69932" lon="3.7505">
        <ele>-0.11</ele>
        <time>2021-03-20T21:39:35Z</time>
      </trkpt>
      <trkpt lat="51.69947" lon="3.74975">
        <ele>-1.81</ele>
        <time>2021-03-20T21:39:38Z</time>
      </trkpt>
      <trkpt lat="51.69962" lon="3.74918">
        <ele>-1.37</ele>
        <time>2021-03-20T21:39:40Z</time>
      </trkpt>
      <trkpt lat="51.69991" lon="3.74839">
        <ele>-0.65</ele>
        <time>2021-03-20T21:39:42Z</time>
      </trkpt>
      <trkpt lat="51.7" lon="3.74838">
        <ele>-0.01</ele>
        <time>2021-03-20T21:39:56Z</time>
      </trkpt>
      <trkpt lat="51.70006" lon="3.7483">
        <ele>0.23</ele>
        <time>2021-03-20T21:40:09Z</time>
      </trkpt>
      <trkpt lat="51.70095" lon="3.74947">
        <time>2021-03-20T21:40:23Z</time>
      </trkpt>
      <trkpt lat="51.70167" lon="3.75062">
        <ele>-1</ele>
        <time>2021-03-20T21:40:37Z</time>
      </trkpt>
      <trkpt lat="51.70242" lon="3.75198">
        <ele>-1.89</ele>
        <time>2021-03-20T21:40:50Z</time>
      </trkpt>
      <trkpt lat="51.70272" lon="3.75257">
        <ele>-1</ele>
        <time>2021-03-20T21:41:04Z</time>
      </trkpt>
      <trkpt lat="51.70328" lon="3.75384">
        <ele>-1.98</ele>
        <time>2021-03-20T21:41:18Z</time>
      </trkpt>
      <trkpt lat="51.70503" lon="3.75801">
        <ele>-2</ele>
        <time>2021-03-20T21:41:31Z</time>
      </trkpt>
      <trkpt lat="51.70904" lon="3.76705">
        <ele>-3</ele>
        <time>2021-03-20T21:41:45Z</time>
      </trkpt>
      <trkpt lat="51.70976" lon="3.76849">
        <ele>-1</ele>
        <time>2021-03-20T21:41:59Z</time>
      </trkpt>
      <trkpt lat="51.71412" lon="3.77639">
        <ele>-3.18</ele>
        <time>2021-03-20T21:42:12Z</time>
      </trkpt>
      <trkpt lat="51.71409" lon="3.77649">
        <ele>-2.91</ele>
        <time>2021-03-20T21:42:15Z</time>
      </trkpt>
      <trkpt lat="51.71413" lon="3.77665">
        <ele>-2.18</ele>
        <time>2021-03-20T21:42:18Z</time>
      </trkpt>
      <trkpt lat="51.71419" lon="3.77673">
        <ele>-2</ele>
        <time>2021-03-20T21:42:21Z</time>
      </trkpt>
      <trkpt lat="51.71428" lon="3.77674">
        <ele>-2</ele>
        <time>2021-03-20T21:42:24Z</time>
      </trkpt>
      <trkpt lat="51.7143" lon="3.77671">
        <ele>-2</ele>
        <time>2021-03-20T21:42:27Z</time>
      </trkpt>
      <trkpt lat="51.71486" lon="3.77774">
        <ele>-1.52</ele>
        <time>2021-03-20T21:42:29Z</time>
      </trkpt>
      <trkpt lat="51.71513" lon="3.77821">
        <ele>-1</ele>
        <time>2021-03-20T21:42:32Z</time>
      </trkpt>
      <trkpt lat="51.71529" lon="3.77844">
        <ele>-1</ele>
        <time>2021-03-20T21:42:35Z</time>
      </trkpt>
      <trkpt lat="51.7155" lon="3.77869">
        <ele>-0.94</ele>
        <time>2021-03-20T21:42:38Z</time>
      </trkpt>
      <trkpt lat="51.71594" lon="3.77901">
        <ele>-1</ele>
        <time>2021-03-20T21:42:41Z</time>
      </trkpt>
      <trkpt lat="51.71616" lon="3.77913">
        <ele>-1.17</ele>
        <time>2021-03-20T21:42:44Z</time>
      </trkpt>
      <trkpt lat="51.7164" lon="3.77921">
        <ele>-2</ele>
        <time>2021-03-20T21:42:46Z</time>
      </trkpt>
      <trkpt lat="51.71672" lon="3.77924">
        <ele>-1.95</ele>
        <time>2021-03-20T21:42:49Z</time>
      </trkpt>
      <trkpt lat="51.71702" lon="3.77923">
        <ele>-1.77</ele>
        <time>2021-03-20T21:42:52Z</time>
      </trkpt>
      <trkpt lat="51.71722" lon="3.77918">
        <ele>-1.95</ele>
        <time>2021-03-20T21:42:55Z</time>
      </trkpt>
      <trkpt lat="51.71747" lon="3.77908">
        <ele>-2</ele>
        <time>2021-03-20T21:42:58Z</time>
      </trkpt>
      <trkpt lat="51.72099" lon="3.77705">
        <ele>-0.57</ele>
        <time>2021-03-20T21:43:01Z</time>
      </trkpt>
      <trkpt lat="51.72134" lon="3.77695">
        <ele>-1.83</ele>
        <time>2021-03-20T21:43:03Z</time>
      </trkpt>
      <trkpt lat="51.72173" lon="3.77692">
        <ele>-1</ele>
        <time>2021-03-20T21:43:06Z</time>
      </trkpt>
      <trkpt lat="51.72218" lon="3.777">
        <ele>-0.12</ele>
        <time>2021-03-20T21:43:09Z</time>
      </trkpt>
      <trkpt lat="51.72249" lon="3.77715">
        <ele>0.24</ele>
        <time>2021-03-20T21:43:12Z</time>
      </trkpt>
      <trkpt lat="51.72275" lon="3.77737">
        <ele>1</ele>
        <time>2021-03-20T21:43:15Z</time>
      </trkpt>
      <trkpt lat="51.72302" lon="3.77764">
        <ele>0.81</ele>
        <time>2021-03-20T21:43:17Z</time>
      </trkpt>
      <trkpt lat="51.72317" lon="3.77784">
        <ele>1</ele>
        <time>2021-03-20T21:43:20Z</time>
      </trkpt>
      <trkpt lat="51.72333" lon="3.77809">
        <ele>0.88</ele>
        <time>2021-03-20T21:43:23Z</time>
      </trkpt>
      <trkpt lat="51.72426" lon="3.7798">
        <ele>-0.93</ele>
        <time>2021-03-20T21:43:26Z</time>
      </trkpt>
      <trkpt lat="51.72448" lon="3.78009">
        <ele>-0.87</ele>
        <time>2021-03-20T21:43:29Z</time>
      </trkpt>
      <trkpt lat="51.7247" lon="3.78031">
        <ele>-0.19</ele>
        <time>2021-03-20T21:43:32Z</time>
      </trkpt>
      <trkpt lat="51.72496" lon="3.78045">
        <ele>-0.95</ele>
        <time>2021-03-20T21:43:34Z</time>
      </trkpt>
      <trkpt lat="51.7252" lon="3.78054">
        <ele>-1</ele>
        <time>2021-03-20T21:43:37Z</time>
      </trkpt>
      <trkpt lat="51.7252" lon="3.78063">
        <ele>-1</ele>
        <time>2021-03-20T21:43:41Z</time>
      </trkpt>
      <trkpt lat="51.72522" lon="3.78071">
        <ele>-1</ele>
        <time>2021-03-20T21:43:44Z</time>
      </trkpt>
      <trkpt lat="51.72525" lon="3.78078">
        <ele>-1</ele>
        <time>2021-03-20T21:43:48Z</time>
      </trkpt>
      <trkpt lat="51.7253" lon="3.78082">
        <ele>-1</ele>
        <time>2021-03-20T21:43:52Z</time>
      </trkpt>
      <trkpt lat="51.72536" lon="3.78082">
        <ele>-1</ele>
        <time>2021-03-20T21:43:55Z</time>
      </trkpt>
      <trkpt lat="51.72541" lon="3.78079">
        <ele>-1</ele>
        <time>2021-03-20T21:43:59Z</time>
      </trkpt>
      <trkpt lat="51.72584" lon="3.78189">
        <ele>-1.96</ele>
        <time>2021-03-20T21:44:02Z</time>
      </trkpt>
      <trkpt lat="51.72797" lon="3.78574">
        <ele>-2.32</ele>
        <time>2021-03-20T21:44:06Z</time>
      </trkpt>
      <trkpt lat="51.72793" lon="3.78581">
        <ele>-2.44</ele>
        <time>2021-03-20T21:44:10Z</time>
      </trkpt>
      <trkpt lat="51.72792" lon="3.78589">
        <ele>-2.31</ele>
        <time>2021-03-20T21:44:15Z</time>
      </trkpt>
      <trkpt lat="51.72792" lon="3.78597">
        <ele>-2.01</ele>
        <time>2021-03-20T21:44:20Z</time>
      </trkpt>
      <trkpt lat="51.72794" lon="3.78604">
        <ele>-1.66</ele>
        <time>2021-03-20T21:44:24Z</time>
      </trkpt>
      <trkpt lat="51.72797" lon="3.78609">
        <ele>-1.39</ele>
        <time>2021-03-20T21:44:29Z</time>
      </trkpt>
      <trkpt lat="51.72804" lon="3.78614">
        <ele>-1.05</ele>
        <time>2021-03-20T21:44:33Z</time>
      </trkpt>
      <trkpt lat="51.72812" lon="3.78612">
        <ele>-1.23</ele>
        <time>2021-03-20T21:44:38Z</time>
      </trkpt>
      <trkpt lat="51.72923" lon="3.78954">
        <ele>-2.21</ele>
        <time>2021-03-20T21:44:43Z</time>
      </trkpt>
      <trkpt lat="51.72949" lon="3.7907">
        <ele>-3</ele>
        <time>2021-03-20T21:44:47Z</time>
      </trkpt>
      <trkpt lat="51.72961" lon="3.79144">
        <ele>-1.92</ele>
        <time>2021-03-20T21:44:52Z</time>
      </trkpt>
      <trkpt lat="51.72968" lon="3.79214">
        <ele>-1.85</ele>
        <time>2021-03-20T21:44:56Z</time>
      </trkpt>
      <trkpt lat="51.72978" lon="3.79401">
        <ele>-2</ele>
        <time>2021-03-20T21:45:01Z</time>
      </trkpt>
      <trkpt lat="51.72988" lon="3.79521">
        <ele>-2.55</ele>
        <time>2021-03-20T21:45:06Z</time>
      </trkpt>
      <trkpt lat="51.73003" lon="3.79636">
        <ele>-1</ele>
        <time>2021-03-20T21:45:10Z</time>
      </trkpt>
      <trkpt lat="51.7303" lon="3.79744">
        <ele>-1</ele>
        <time>2021-03-20T21:45:15Z</time>
      </trkpt>
      <trkpt lat="51.7306" lon="3.79834">
        <ele>-1</ele>
        <time>2021-03-20T21:45:19Z</time>
      </trkpt>
      <trkpt lat="51.73235" lon="3.80262">
        <ele>-1.3</ele>
        <time>2021-03-20T21:45:24Z</time>
      </trkpt>
      <trkpt lat="51.73232" lon="3.80267">
        <ele>-1.26</ele>
        <time>2021-03-20T21:45:30Z</time>
      </trkpt>
      <trkpt lat="51.73232" lon="3.80276">
        <ele>-1.04</ele>
        <time>2021-03-20T21:45:35Z</time>
      </trkpt>
      <trkpt lat="51.73235" lon="3.80291">
        <ele>-1</ele>
        <time>2021-03-20T21:45:41Z</time>
      </trkpt>
      <trkpt lat="51.7324" lon="3.80299">
        <ele>-1</ele>
        <time>2021-03-20T21:45:46Z</time>
      </trkpt>
      <trkpt lat="51.73246" lon="3.80304">
        <ele>-1</ele>
        <time>2021-03-20T21:45:52Z</time>
      </trkpt>
      <trkpt lat="51.73252" lon="3.80303">
        <ele>-1.07</ele>
        <time>2021-03-20T21:45:58Z</time>
      </trkpt>
      <trkpt lat="51.73351" lon="3.80546">
        <ele>-1.42</ele>
        <time>2021-03-20T21:46:03Z</time>
      </trkpt>
      <trkpt lat="51.73376" lon="3.80611">
        <ele>-1.53</ele>
        <time>2021-03-20T21:46:09Z</time>
      </trkpt>
      <trkpt lat="51.73396" lon="3.80676">
        <ele>-2</ele>
        <time>2021-03-20T21:46:15Z</time>
      </trkpt>
      <trkpt lat="51.73411" lon="3.80736">
        <ele>-1</ele>
        <time>2021-03-20T21:46:20Z</time>
      </trkpt>
      <trkpt lat="51.73429" lon="3.80821">
        <ele>-0.7</ele>
        <time>2021-03-20T21:46:26Z</time>
      </trkpt>
      <trkpt lat="51.73442" lon="3.8091">
        <ele>-0.9</ele>
        <time>2021-03-20T21:46:31Z</time>
      </trkpt>
      <trkpt lat="51.73449" lon="3.80987">
        <ele>-0.85</ele>
        <time>2021-03-20T21:46:37Z</time>
      </trkpt>
      <trkpt lat="51.73453" lon="3.81095">
        <ele>-1</ele>
        <time>2021-03-20T21:46:43Z</time>
      </trkpt>
      <trkpt lat="51.73424" lon="3.82196">
        <ele>1.19</ele>
        <time>2021-03-20T21:46:48Z</time>
      </trkpt>
      <trkpt lat="51.73415" lon="3.822">
        <ele>0.74</ele>
        <time>2021-03-20T21:46:52Z</time>
      </trkpt>
      <trkpt lat="51.73411" lon="3.82208">
        <ele>0.42</ele>
        <time>2021-03-20T21:46:55Z</time>
      </trkpt>
      <trkpt lat="51.73409" lon="3.82219">
        <ele>0.09</ele>
        <time>2021-03-20T21:46:58Z</time>
      </trkpt>
      <trkpt lat="51.73413" lon="3.82248">
        <ele>1</ele>
        <time>2021-03-20T21:47:02Z</time>
      </trkpt>
      <trkpt lat="51.73407" lon="3.82278">
        <ele>1.11</ele>
        <time>2021-03-20T21:47:05Z</time>
      </trkpt>
      <trkpt lat="51.73409" lon="3.82286">
        <ele>0.21</ele>
        <time>2021-03-20T21:47:08Z</time>
      </trkpt>
      <trkpt lat="51.73414" lon="3.82296">
        <ele>0.57</ele>
        <time>2021-03-20T21:47:11Z</time>
      </trkpt>
      <trkpt lat="51.73421" lon="3.82301">
        <ele>0.87</ele>
        <time>2021-03-20T21:47:15Z</time>
      </trkpt>
      <trkpt lat="51.73413" lon="3.8242">
        <ele>2.12</ele>
        <time>2021-03-20T21:47:18Z</time>
      </trkpt>
      <trkpt lat="51.73399" lon="3.82836">
        <ele>-1.37</ele>
        <time>2021-03-20T21:47:21Z</time>
      </trkpt>
      <trkpt lat="51.73428" lon="3.82838">
        <ele>-1.6</ele>
        <time>2021-03-20T21:47:28Z</time>
      </trkpt>
      <trkpt lat="51.7346" lon="3.82832">
        <ele>-0.37</ele>
        <time>2021-03-20T21:47:35Z</time>
      </trkpt>
      <trkpt lat="51.73473" lon="3.82831">
        <ele>0.07</ele>
        <time>2021-03-20T21:47:42Z</time>
      </trkpt>
      <trkpt lat="51.73502" lon="3.82821">
        <ele>0.45</ele>
        <time>2021-03-20T21:47:49Z</time>
      </trkpt>
      <trkpt lat="51.73532" lon="3.828">
        <ele>1</ele>
        <time>2021-03-20T21:47:56Z</time>
      </trkpt>
      <trkpt lat="51.73635" lon="3.82712">
        <ele>-1.38</ele>
        <time>2021-03-20T21:48:03Z</time>
      </trkpt>
      <trkpt lat="51.73711" lon="3.82642">
        <ele>1.06</ele>
        <time>2021-03-20T21:48:10Z</time>
      </trkpt>
      <trkpt lat="51.73798" lon="3.82568">
        <ele>4.87</ele>
        <time>2021-03-20T21:48:16Z</time>
      </trkpt>
      <trkpt lat="51.73829" lon="3.82548">
        <ele>5</ele>
        <time>2021-03-20T21:48:23Z</time>
      </trkpt>
      <trkpt lat="51.73866" lon="3.82537">
        <ele>4.74</ele>
        <time>2021-03-20T21:48:30Z</time>
      </trkpt>
      <trkpt lat="51.7388" lon="3.82535">
        <ele>3.98</ele>
        <time>2021-03-20T21:48:37Z</time>
      </trkpt>
      <trkpt lat="51.73933" lon="3.8254">
        <ele>3.31</ele>
        <time>2021-03-20T21:48:44Z</time>
      </trkpt>
      <trkpt lat="51.74714" lon="3.82661">
        <ele>4.67</ele>
        <time>2021-03-20T21:48:51Z</time>
      </trkpt>
      <trkpt lat="51.74787" lon="3.82676">
        <ele>1.33</ele>
        <time>2021-03-20T21:48:58Z</time>
      </trkpt>
      <trkpt lat="51.74862" lon="3.82697">
        <ele>0.8</ele>
        <time>2021-03-20T21:49:05Z</time>
      </trkpt>
      <trkpt lat="51.74916" lon="3.82717">
        <ele>-0.66</ele>
        <time>2021-03-20T21:49:12Z</time>
      </trkpt>
      <trkpt lat="51.74978" lon="3.82748">
        <ele>5.21</ele>
        <time>2021-03-20T21:49:19Z</time>
      </trkpt>
      <trkpt lat="51.75047" lon="3.82792">
        <ele>5.5</ele>
        <time>2021-03-20T21:49:25Z</time>
      </trkpt>
      <trkpt lat="51.75113" lon="3.82841">
        <ele>5.82</ele>
        <time>2021-03-20T21:49:32Z</time>
      </trkpt>
      <trkpt lat="51.75143" lon="3.82866">
        <ele>5.68</ele>
        <time>2021-03-20T21:49:39Z</time>
      </trkpt>
      <trkpt lat="51.75214" lon="3.82937">
        <ele>3.93</ele>
        <time>2021-03-20T21:49:46Z</time>
      </trkpt>
      <trkpt lat="51.75251" lon="3.82979">
        <ele>4.78</ele>
        <time>2021-03-20T21:49:53Z</time>
      </trkpt>
      <trkpt lat="51.75286" lon="3.83022">
        <ele>5.28</ele>
        <time>2021-03-20T21:50:00Z</time>
      </trkpt>
      <trkpt lat="51.75335" lon="3.83091">
        <ele>4.78</ele>
        <time>2021-03-20T21:50:07Z</time>
      </trkpt>
      <trkpt lat="51.75389" lon="3.83179">
        <ele>4</ele>
        <time>2021-03-20T21:50:14Z</time>
      </trkpt>
      <trkpt lat="51.75434" lon="3.83263">
        <ele>3.16</ele>
        <time>2021-03-20T21:50:21Z</time>
      </trkpt>
      <trkpt lat="51.75449" lon="3.83295">
        <ele>3.33</ele>
        <time>2021-03-20T21:50:28Z</time>
      </trkpt>
      <trkpt lat="51.75482" lon="3.83368">
        <ele>5.87</ele>
        <time>2021-03-20T21:50:34Z</time>
      </trkpt>
      <trkpt lat="51.75522" lon="3.83472">
        <ele>7</ele>
        <time>2021-03-20T21:50:41Z</time>
      </trkpt>
      <trkpt lat="51.75571" lon="3.83628">
        <ele>5.56</ele>
        <time>2021-03-20T21:50:48Z</time>
      </trkpt>
      <trkpt lat="51.756" lon="3.83738">
        <ele>4.6</ele>
        <time>2021-03-20T21:50:55Z</time>
      </trkpt>
      <trkpt lat="51.75795" lon="3.84504">
        <ele>3.44</ele>
        <time>2021-03-20T21:51:02Z</time>
      </trkpt>
      <trkpt lat="51.75808" lon="3.84574">
        <ele>3.17</ele>
        <time>2021-03-20T21:51:09Z</time>
      </trkpt>
      <trkpt lat="51.75812" lon="3.84639">
        <ele>2.23</ele>
        <time>2021-03-20T21:51:16Z</time>
      </trkpt>
      <trkpt lat="51.75809" lon="3.847">
        <ele>3.21</ele>
        <time>2021-03-20T21:51:23Z</time>
      </trkpt>
      <trkpt lat="51.758" lon="3.84768">
        <ele>3.61</ele>
        <time>2021-03-20T21:51:30Z</time>
      </trkpt>
      <trkpt lat="51.75784" lon="3.84828">
        <ele>2.42</ele>
        <time>2021-03-20T21:51:37Z</time>
      </trkpt>
      <trkpt lat="51.75713" lon="3.85052">
        <ele>0.54</ele>
        <time>2021-03-20T21:51:43Z</time>
      </trkpt>
      <trkpt lat="51.75676" lon="3.85197">
        <ele>1.09</ele>
        <time>2021-03-20T21:51:50Z</time>
      </trkpt>
      <trkpt lat="51.75672" lon="3.85246">
        <ele>2</ele>
        <time>2021-03-20T21:51:57Z</time>
      </trkpt>
      <trkpt lat="51.75677" lon="3.85289">
        <ele>2.63</ele>
        <time>2021-03-20T21:52:04Z</time>
      </trkpt>
      <trkpt lat="51.75687" lon="3.85324">
        <ele>2.75</ele>
        <time>2021-03-20T21:52:11Z</time>
      </trkpt>
      <trkpt lat="51.75698" lon="3.85347">
        <ele>3.12</ele>
        <time>2021-03-20T21:52:18Z</time>
      </trkpt>
      <trkpt lat="51.75723" lon="3.85382">
        <ele>4.71</ele>
        <time>2021-03-20T21:52:25Z</time>
      </trkpt>
      <trkpt lat="51.75733" lon="3.85365">
        <ele>4.08</ele>
        <time>2021-03-20T21:52:28Z</time>
      </trkpt>
      <trkpt lat="51.75748" lon="3.85331">
        <ele>3.99</ele>
        <time>2021-03-20T21:52:32Z</time>
      </trkpt>
      <trkpt lat="51.75788" lon="3.8525">
        <ele>4.62</ele>
        <time>2021-03-20T21:52:36Z</time>
      </trkpt>
      <trkpt lat="51.75821" lon="3.8518">
        <ele>3</ele>
        <time>2021-03-20T21:52:39Z</time>
      </trkpt>
      <trkpt lat="51.75842" lon="3.85159">
        <ele>3.23</ele>
        <time>2021-03-20T21:52:43Z</time>
      </trkpt>
      <trkpt lat="51.75869" lon="3.85146">
        <ele>3.18</ele>
        <time>2021-03-20T21:52:47Z</time>
      </trkpt>
      <trkpt lat="51.75881" lon="3.85145">
        <ele>3.06</ele>
        <time>2021-03-20T21:52:50Z</time>
      </trkpt>
      <trkpt lat="51.75905" lon="3.85151">
        <ele>3</ele>
        <time>2021-03-20T21:52:54Z</time>
      </trkpt>
      <trkpt lat="51.75916" lon="3.85156">
        <ele>3</ele>
        <time>2021-03-20T21:52:58Z</time>
      </trkpt>
      <trkpt lat="51.75939" lon="3.85179">
        <ele>3</ele>
        <time>2021-03-20T21:53:01Z</time>
      </trkpt>
      <trkpt lat="51.75959" lon="3.85215">
        <ele>3</ele>
        <time>2021-03-20T21:53:05Z</time>
      </trkpt>
      <trkpt lat="51.76077" lon="3.85484">
        <ele>2.86</ele>
        <time>2021-03-20T21:53:08Z</time>
      </trkpt>
      <trkpt lat="51.76059" lon="3.85508">
        <ele>3</ele>
        <time>2021-03-20T21:53:15Z</time>
      </trkpt>
      <trkpt lat="51.76054" lon="3.85521">
        <ele>3</ele>
        <time>2021-03-20T21:53:22Z</time>
      </trkpt>
      <trkpt lat="51.76053" lon="3.85535">
        <ele>3.02</ele>
        <time>2021-03-20T21:53:28Z</time>
      </trkpt>
      <trkpt lat="51.76056" lon="3.85554">
        <ele>3</ele>
        <time>2021-03-20T21:53:35Z</time>
      </trkpt>
      <trkpt lat="51.76067" lon="3.85573">
        <ele>3</ele>
        <time>2021-03-20T21:53:42Z</time>
      </trkpt>
      <trkpt lat="51.76203" lon="3.8566">
        <ele>2.08</ele>
        <time>2021-03-20T21:53:48Z</time>
      </trkpt>
      <trkpt lat="51.76321" lon="3.8574">
        <ele>3.71</ele>
        <time>2021-03-20T21:53:55Z</time>
      </trkpt>
      <trkpt lat="51.76465" lon="3.85846">
        <ele>4.44</ele>
        <time>2021-03-20T21:54:02Z</time>
      </trkpt>
      <trkpt lat="51.7666" lon="3.85976">
        <ele>5.15</ele>
        <time>2021-03-20T21:54:08Z</time>
      </trkpt>
      <trkpt lat="51.77569" lon="3.86542">
        <ele>3.96</ele>
        <time>2021-03-20T21:54:15Z</time>
      </trkpt>
      <trkpt lat="51.78299" lon="3.87001">
        <ele>3.75</ele>
        <time>2021-03-20T21:54:22Z</time>
      </trkpt>
      <trkpt lat="51.78432" lon="3.87092">
        <ele>5.68</ele>
        <time>2021-03-20T21:54:28Z</time>
      </trkpt>
      <trkpt lat="51.78454" lon="3.87109">
        <ele>5.06</ele>
        <time>2021-03-20T21:54:35Z</time>
      </trkpt>
      <trkpt lat="51.78476" lon="3.8713">
        <ele>5.24</ele>
        <time>2021-03-20T21:54:42Z</time>
      </trkpt>
      <trkpt lat="51.78499" lon="3.87163">
        <ele>6.08</ele>
        <time>2021-03-20T21:54:48Z</time>
      </trkpt>
      <trkpt lat="51.78521" lon="3.87215">
        <ele>6.74</ele>
        <time>2021-03-20T21:54:55Z</time>
      </trkpt>
      <trkpt lat="51.78529" lon="3.87252">
        <ele>6.92</ele>
        <time>2021-03-20T21:55:02Z</time>
      </trkpt>
      <trkpt lat="51.78533" lon="3.87291">
        <ele>6</ele>
        <time>2021-03-20T21:55:09Z</time>
      </trkpt>
      <trkpt lat="51.78533" lon="3.87327">
        <ele>5.36</ele>
        <time>2021-03-20T21:55:15Z</time>
      </trkpt>
      <trkpt lat="51.7853" lon="3.87362">
        <ele>5.04</ele>
        <time>2021-03-20T21:55:22Z</time>
      </trkpt>
      <trkpt lat="51.78517" lon="3.87422">
        <ele>4.4</ele>
        <time>2021-03-20T21:55:29Z</time>
      </trkpt>
      <trkpt lat="51.78395" lon="3.87857">
        <ele>4</ele>
        <time>2021-03-20T21:55:35Z</time>
      </trkpt>
      <trkpt lat="51.78388" lon="3.87897">
        <ele>4</ele>
        <time>2021-03-20T21:55:42Z</time>
      </trkpt>
      <trkpt lat="51.78385" lon="3.87945">
        <ele>3.85</ele>
        <time>2021-03-20T21:55:49Z</time>
      </trkpt>
      <trkpt lat="51.78387" lon="3.87987">
        <ele>3.38</ele>
        <time>2021-03-20T21:55:55Z</time>
      </trkpt>
      <trkpt lat="51.78393" lon="3.88026">
        <ele>3.14</ele>
        <time>2021-03-20T21:56:02Z</time>
      </trkpt>
      <trkpt lat="51.78399" lon="3.88052">
        <ele>2.85</ele>
        <time>2021-03-20T21:56:09Z</time>
      </trkpt>
      <trkpt lat="51.78416" lon="3.88099">
        <ele>3.41</ele>
        <time>2021-03-20T21:56:15Z</time>
      </trkpt>
      <trkpt lat="51.78458" lon="3.882">
        <ele>2.4</ele>
        <time>2021-03-20T21:56:22Z</time>
      </trkpt>
      <trkpt lat="51.78516" lon="3.8833">
        <ele>2.64</ele>
        <time>2021-03-20T21:56:29Z</time>
      </trkpt>
      <trkpt lat="51.78539" lon="3.88373">
        <ele>2.58</ele>
        <time>2021-03-20T21:56:35Z</time>
      </trkpt>
      <trkpt lat="51.7859" lon="3.8844">
        <ele>2.16</ele>
        <time>2021-03-20T21:56:42Z</time>
      </trkpt>
      <trkpt lat="51.7862" lon="3.8846">
        <ele>2</ele>
        <time>2021-03-20T21:56:49Z</time>
      </trkpt>
      <trkpt lat="51.7866" lon="3.88483">
        <ele>2.09</ele>
        <time>2021-03-20T21:56:55Z</time>
      </trkpt>
      <trkpt lat="51.78897" lon="3.88552">
        <ele>0.75</ele>
        <time>2021-03-20T21:57:02Z</time>
      </trkpt>
      <trkpt lat="51.78999" lon="3.88575">
        <ele>1</ele>
        <time>2021-03-20T21:57:09Z</time>
      </trkpt>
      <trkpt lat="51.79043" lon="3.88573">
        <ele>1</ele>
        <time>2021-03-20T21:57:15Z</time>
      </trkpt>
      <trkpt lat="51.7908" lon="3.8856">
        <ele>1</ele>
        <time>2021-03-20T21:57:22Z</time>
      </trkpt>
      <trkpt lat="51.7914" lon="3.88518">
        <ele>2.1</ele>
        <time>2021-03-20T21:57:29Z</time>
      </trkpt>
      <trkpt lat="51.79216" lon="3.88442">
        <ele>4.05</ele>
        <time>2021-03-20T21:57:35Z</time>
      </trkpt>
      <trkpt lat="51.79219" lon="3.88449">
        <ele>4</ele>
        <time>2021-03-20T21:57:41Z</time>
      </trkpt>
      <trkpt lat="51.79223" lon="3.88453">
        <ele>4</ele>
        <time>2021-03-20T21:57:47Z</time>
      </trkpt>
      <trkpt lat="51.7923" lon="3.88455">
        <ele>3.89</ele>
        <time>2021-03-20T21:57:53Z</time>
      </trkpt>
      <trkpt lat="51.79238" lon="3.88463">
        <ele>3.61</ele>
        <time>2021-03-20T21:57:58Z</time>
      </trkpt>
      <trkpt lat="51.79301" lon="3.88618">
        <ele>2.66</ele>
        <time>2021-03-20T21:58:04Z</time>
      </trkpt>
      <trkpt lat="51.79342" lon="3.88729">
        <ele>3.36</ele>
        <time>2021-03-20T21:58:10Z</time>
      </trkpt>
      <trkpt lat="51.79361" lon="3.88773">
        <ele>2.85</ele>
        <time>2021-03-20T21:58:16Z</time>
      </trkpt>
      <trkpt lat="51.79516" lon="3.89245">
        <ele>2</ele>
        <time>2021-03-20T21:58:21Z</time>
      </trkpt>
      <trkpt lat="51.79536" lon="3.89314">
        <ele>2.81</ele>
        <time>2021-03-20T21:58:27Z</time>
      </trkpt>
      <trkpt lat="51.79552" lon="3.89385">
        <ele>3</ele>
        <time>2021-03-20T21:58:33Z</time>
      </trkpt>
      <trkpt lat="51.79567" lon="3.89461">
        <ele>3.82</ele>
        <time>2021-03-20T21:58:39Z</time>
      </trkpt>
      <trkpt lat="51.7958" lon="3.89537">
        <ele>4.6</ele>
        <time>2021-03-20T21:58:44Z</time>
      </trkpt>
      <trkpt lat="51.7959" lon="3.89614">
        <ele>6</ele>
        <time>2021-03-20T21:58:50Z</time>
      </trkpt>
      <trkpt lat="51.796" lon="3.89705">
        <ele>4.47</ele>
        <time>2021-03-20T21:58:56Z</time>
      </trkpt>
      <trkpt lat="51.79616" lon="3.89917">
        <ele>3.13</ele>
        <time>2021-03-20T21:59:02Z</time>
      </trkpt>
      <trkpt lat="51.79629" lon="3.90129">
        <ele>3.03</ele>
        <time>2021-03-20T21:59:07Z</time>
      </trkpt>
      <trkpt lat="51.79649" lon="3.90689">
        <ele>1.32</ele>
        <time>2021-03-20T21:59:13Z</time>
      </trkpt>
      <trkpt lat="51.7966" lon="3.9092">
        <ele>0.87</ele>
        <time>2021-03-20T21:59:19Z</time>
      </trkpt>
      <trkpt lat="51.79676" lon="3.91216">
        <ele>-2</ele>
        <time>2021-03-20T21:59:25Z</time>
      </trkpt>
      <trkpt lat="51.79689" lon="3.91419">
        <ele>-0.94</ele>
        <time>2021-03-20T21:59:30Z</time>
      </trkpt>
      <trkpt lat="51.79713" lon="3.91734">
        <ele>1.8</ele>
        <time>2021-03-20T21:59:36Z</time>
      </trkpt>
      <trkpt lat="51.7975" lon="3.92136">
        <ele>1</ele>
        <time>2021-03-20T21:59:42Z</time>
      </trkpt>
      <trkpt lat="51.79787" lon="3.92471">
        <ele>-0.31</ele>
        <time>2021-03-20T21:59:48Z</time>
      </trkpt>
      <trkpt lat="51.79885" lon="3.93253">
        <ele>2.12</ele>
        <time>2021-03-20T21:59:53Z</time>
      </trkpt>
      <trkpt lat="51.79932" lon="3.93667">
        <ele>0.01</ele>
        <time>2021-03-20T21:59:59Z</time>
      </trkpt>
      <trkpt lat="51.79952" lon="3.93877">
        <ele>1.41</ele>
        <time>2021-03-20T22:00:05Z</time>
      </trkpt>
      <trkpt lat="51.79965" lon="3.93967">
        <ele>2</ele>
        <time>2021-03-20T22:00:11Z</time>
      </trkpt>
      <trkpt lat="51.79977" lon="3.9402">
        <ele>1.68</ele>
        <time>2021-03-20T22:00:16Z</time>
      </trkpt>
      <trkpt lat="51.79993" lon="3.94077">
        <ele>0.25</ele>
        <time>2021-03-20T22:00:22Z</time>
      </trkpt>
      <trkpt lat="51.80027" lon="3.94175">
        <ele>0.91</ele>
        <time>2021-03-20T22:00:28Z</time>
      </trkpt>
      <trkpt lat="51.80063" lon="3.94266">
        <ele>0.88</ele>
        <time>2021-03-20T22:00:34Z</time>
      </trkpt>
      <trkpt lat="51.80108" lon="3.94357">
        <ele>-3.37</ele>
        <time>2021-03-20T22:00:39Z</time>
      </trkpt>
      <trkpt lat="51.80144" lon="3.94422">
        <ele>-0.81</ele>
        <time>2021-03-20T22:00:45Z</time>
      </trkpt>
      <trkpt lat="51.80168" lon="3.94458">
        <ele>-0.05</ele>
        <time>2021-03-20T22:00:51Z</time>
      </trkpt>
      <trkpt lat="51.80192" lon="3.94489">
        <ele>-0.3</ele>
        <time>2021-03-20T22:00:57Z</time>
      </trkpt>
      <trkpt lat="51.80239" lon="3.94537">
        <ele>-2.27</ele>
        <time>2021-03-20T22:01:02Z</time>
      </trkpt>
      <trkpt lat="51.80279" lon="3.94565">
        <ele>-1.95</ele>
        <time>2021-03-20T22:01:08Z</time>
      </trkpt>
      <trkpt lat="51.80319" lon="3.94585">
        <ele>0.46</ele>
        <time>2021-03-20T22:01:14Z</time>
      </trkpt>
      <trkpt lat="51.80343" lon="3.94593">
        <ele>1</ele>
        <time>2021-03-20T22:01:20Z</time>
      </trkpt>
      <trkpt lat="51.80368" lon="3.94598">
        <ele>0.89</ele>
        <time>2021-03-20T22:01:25Z</time>
      </trkpt>
      <trkpt lat="51.80393" lon="3.94601">
        <ele>0.63</ele>
        <time>2021-03-20T22:01:31Z</time>
      </trkpt>
      <trkpt lat="51.80419" lon="3.94601">
        <ele>0.5</ele>
        <time>2021-03-20T22:01:37Z</time>
      </trkpt>
      <trkpt lat="51.8045" lon="3.94596">
        <ele>-0.46</ele>
        <time>2021-03-20T22:01:43Z</time>
      </trkpt>
      <trkpt lat="51.80478" lon="3.94589">
        <ele>0.02</ele>
        <time>2021-03-20T22:01:48Z</time>
      </trkpt>
      <trkpt lat="51.805" lon="3.9458">
        <ele>1</ele>
        <time>2021-03-20T22:01:54Z</time>
      </trkpt>
      <trkpt lat="51.8052" lon="3.94571">
        <ele>1</ele>
        <time>2021-03-20T22:02:00Z</time>
      </trkpt>
      <trkpt lat="51.8059" lon="3.94527">
        <ele>2</ele>
        <time>2021-03-20T22:02:06Z</time>
      </trkpt>
      <trkpt lat="51.80646" lon="3.94496">
        <ele>1</ele>
        <time>2021-03-20T22:02:11Z</time>
      </trkpt>
      <trkpt lat="51.80663" lon="3.94487">
        <ele>1</ele>
        <time>2021-03-20T22:02:17Z</time>
      </trkpt>
      <trkpt lat="51.80688" lon="3.94479">
        <ele>1</ele>
        <time>2021-03-20T22:02:23Z</time>
      </trkpt>
      <trkpt lat="51.80718" lon="3.94473">
        <ele>0.98</ele>
        <time>2021-03-20T22:02:29Z</time>
      </trkpt>
      <trkpt lat="51.80752" lon="3.94471">
        <ele>0.93</ele>
        <time>2021-03-20T22:02:34Z</time>
      </trkpt>
      <trkpt lat="51.80793" lon="3.94477">
        <ele>-0.08</ele>
        <time>2021-03-20T22:02:40Z</time>
      </trkpt>
      <trkpt lat="51.80828" lon="3.94489">
        <ele>0.2</ele>
        <time>2021-03-20T22:02:46Z</time>
      </trkpt>
      <trkpt lat="51.8083" lon="3.94497">
        <ele>-0.03</ele>
        <time>2021-03-20T22:02:51Z</time>
      </trkpt>
      <trkpt lat="51.80838" lon="3.94509">
        <ele>0.17</ele>
        <time>2021-03-20T22:02:55Z</time>
      </trkpt>
      <trkpt lat="51.80847" lon="3.94511">
        <ele>0.49</ele>
        <time>2021-03-20T22:03:00Z</time>
      </trkpt>
      <trkpt lat="51.80852" lon="3.94509">
        <ele>0.66</ele>
        <time>2021-03-20T22:03:05Z</time>
      </trkpt>
      <trkpt lat="51.80859" lon="3.94499">
        <ele>0.93</ele>
        <time>2021-03-20T22:03:10Z</time>
      </trkpt>
      <trkpt lat="51.80911" lon="3.94518">
        <ele>2.28</ele>
        <time>2021-03-20T22:03:15Z</time>
      </trkpt>
      <trkpt lat="51.8093" lon="3.94528">
        <ele>2</ele>
        <time>2021-03-20T22:03:19Z</time>
      </trkpt>
      <trkpt lat="51.80966" lon="3.9455">
        <ele>1.04</ele>
        <time>2021-03-20T22:03:24Z</time>
      </trkpt>
      <trkpt lat="51.80997" lon="3.94579">
        <ele>1</ele>
        <time>2021-03-20T22:03:29Z</time>
      </trkpt>
      <trkpt lat="51.81027" lon="3.94614">
        <ele>1</ele>
        <time>2021-03-20T22:03:34Z</time>
      </trkpt>
      <trkpt lat="51.81068" lon="3.94669">
        <ele>1.4</ele>
        <time>2021-03-20T22:03:39Z</time>
      </trkpt>
      <trkpt lat="51.81154" lon="3.94803">
        <ele>-0.47</ele>
        <time>2021-03-20T22:03:43Z</time>
      </trkpt>
      <trkpt lat="51.81194" lon="3.94874">
        <ele>-1.46</ele>
        <time>2021-03-20T22:03:48Z</time>
      </trkpt>
      <trkpt lat="51.81207" lon="3.94899">
        <ele>-2</ele>
        <time>2021-03-20T22:03:53Z</time>
      </trkpt>
      <trkpt lat="51.81241" lon="3.94982">
        <ele>-1.12</ele>
        <time>2021-03-20T22:03:58Z</time>
      </trkpt>
      <trkpt lat="51.81354" lon="3.95332">
        <ele>-0.01</ele>
        <time>2021-03-20T22:04:02Z</time>
      </trkpt>
      <trkpt lat="51.8137" lon="3.95392">
        <ele>-1</ele>
        <time>2021-03-20T22:04:07Z</time>
      </trkpt>
      <trkpt lat="51.81385" lon="3.95457">
        <ele>1</ele>
        <time>2021-03-20T22:04:12Z</time>
      </trkpt>
      <trkpt lat="51.81405" lon="3.95558">
        <ele>1</ele>
        <time>2021-03-20T22:04:17Z</time>
      </trkpt>
      <trkpt lat="51.81415" lon="3.95624">
        <ele>1</ele>
        <time>2021-03-20T22:04:22Z</time>
      </trkpt>
      <trkpt lat="51.81427" lon="3.95727">
        <ele>-0.38</ele>
        <time>2021-03-20T22:04:26Z</time>
      </trkpt>
      <trkpt lat="51.81431" lon="3.95783">
        <ele>0.47</ele>
        <time>2021-03-20T22:04:31Z</time>
      </trkpt>
      <trkpt lat="51.81436" lon="3.95885">
        <ele>-0.17</ele>
        <time>2021-03-20T22:04:36Z</time>
      </trkpt>
      <trkpt lat="51.81437" lon="3.95967">
        <ele>-0.34</ele>
        <time>2021-03-20T22:04:41Z</time>
      </trkpt>
      <trkpt lat="51.81433" lon="3.96232">
        <ele>-3.98</ele>
        <time>2021-03-20T22:04:46Z</time>
      </trkpt>
      <trkpt lat="51.81432" lon="3.96677">
        <ele>2</ele>
        <time>2021-03-20T22:04:50Z</time>
      </trkpt>
      <trkpt lat="51.81434" lon="3.96902">
        <ele>-1.38</ele>
        <time>2021-03-20T22:04:55Z</time>
      </trkpt>
      <trkpt lat="51.81435" lon="3.9696">
        <ele>-2</ele>
        <time>2021-03-20T22:05:00Z</time>
      </trkpt>
      <trkpt lat="51.81438" lon="3.97025">
        <ele>-1.22</ele>
        <time>2021-03-20T22:05:05Z</time>
      </trkpt>
      <trkpt lat="51.8145" lon="3.97161">
        <ele>-0.84</ele>
        <time>2021-03-20T22:05:10Z</time>
      </trkpt>
      <trkpt lat="51.81463" lon="3.9726">
        <ele>-1</ele>
        <time>2021-03-20T22:05:14Z</time>
      </trkpt>
      <trkpt lat="51.81475" lon="3.97331">
        <ele>-0.18</ele>
        <time>2021-03-20T22:05:19Z</time>
      </trkpt>
      <trkpt lat="51.81541" lon="3.97681">
        <ele>-0.54</ele>
        <time>2021-03-20T22:05:24Z</time>
      </trkpt>
      <trkpt lat="51.81556" lon="3.97782">
        <ele>1</ele>
        <time>2021-03-20T22:05:29Z</time>
      </trkpt>
      <trkpt lat="51.81563" lon="3.9787">
        <ele>0.96</ele>
        <time>2021-03-20T22:05:33Z</time>
      </trkpt>
      <trkpt lat="51.81569" lon="3.97975">
        <ele>1</ele>
        <time>2021-03-20T22:05:38Z</time>
      </trkpt>
      <trkpt lat="51.8157" lon="3.98058">
        <ele>0.52</ele>
        <time>2021-03-20T22:05:43Z</time>
      </trkpt>
      <trkpt lat="51.81568" lon="3.98195">
        <ele>1.43</ele>
        <time>2021-03-20T22:05:48Z</time>
      </trkpt>
      <trkpt lat="51.81563" lon="3.98291">
        <ele>1</ele>
        <time>2021-03-20T22:05:53Z</time>
      </trkpt>
      <trkpt lat="51.81572" lon="3.98292">
        <ele>1</ele>
        <time>2021-03-20T22:05:57Z</time>
      </trkpt>
      <trkpt lat="51.81619" lon="3.98296">
        <ele>-0.9</ele>
        <time>2021-03-20T22:06:02Z</time>
      </trkpt>
      <trkpt lat="51.81658" lon="3.98304">
        <ele>-0.94</ele>
        <time>2021-03-20T22:06:07Z</time>
      </trkpt>
      <trkpt lat="51.81674" lon="3.98315">
        <ele>-1.06</ele>
        <time>2021-03-20T22:06:11Z</time>
      </trkpt>
      <trkpt lat="51.81691" lon="3.98335">
        <ele>-1.12</ele>
        <time>2021-03-20T22:06:16Z</time>
      </trkpt>
      <trkpt lat="51.81701" lon="3.98353">
        <ele>-0.5</ele>
        <time>2021-03-20T22:06:20Z</time>
      </trkpt>
      <trkpt lat="51.8171" lon="3.98375">
        <ele>0.1</ele>
        <time>2021-03-20T22:06:25Z</time>
      </trkpt>
      <trkpt lat="51.8181" lon="3.98848">
        <ele>0.16</ele>
        <time>2021-03-20T22:06:30Z</time>
      </trkpt>
      <trkpt lat="51.81857" lon="3.99083">
        <ele>-0.15</ele>
        <time>2021-03-20T22:06:34Z</time>
      </trkpt>
      <trkpt lat="51.81868" lon="3.99157">
        <ele>-1.38</ele>
        <time>2021-03-20T22:06:39Z</time>
      </trkpt>
      <trkpt lat="51.81871" lon="3.9921">
        <ele>-1.09</ele>
        <time>2021-03-20T22:06:44Z</time>
      </trkpt>
      <trkpt lat="51.81892" lon="3.99217">
        <ele>-0.06</ele>
        <time>2021-03-20T22:06:50Z</time>
      </trkpt>
      <trkpt lat="51.81899" lon="3.99223">
        <ele>0.35</ele>
        <time>2021-03-20T22:06:56Z</time>
      </trkpt>
      <trkpt lat="51.82" lon="3.9938">
        <ele>-1</ele>
        <time>2021-03-20T22:07:02Z</time>
      </trkpt>
      <trkpt lat="51.82103" lon="3.99545">
        <ele>-0.15</ele>
        <time>2021-03-20T22:07:08Z</time>
      </trkpt>
      <trkpt lat="51.8228" lon="3.9981">
        <ele>-0.99</ele>
        <time>2021-03-20T22:07:14Z</time>
      </trkpt>
      <trkpt lat="51.8238" lon="3.9997">
        <ele>-1.32</ele>
        <time>2021-03-20T22:07:20Z</time>
      </trkpt>
      <trkpt lat="51.8246" lon="4.0009">
        <ele>-1.32</ele>
        <time>2021-03-20T22:07:26Z</time>
      </trkpt>
      <trkpt lat="51.82627" lon="4.00355">
        <ele>-1.43</ele>
        <time>2021-03-20T22:07:32Z</time>
      </trkpt>
      <trkpt lat="51.82642" lon="4.00381">
        <ele>-1</ele>
        <time>2021-03-20T22:07:38Z</time>
      </trkpt>
      <trkpt lat="51.82689" lon="4.00629">
        <ele>-0.21</ele>
        <time>2021-03-20T22:07:45Z</time>
      </trkpt>
      <trkpt lat="51.82698" lon="4.00655">
        <ele>2.7</ele>
        <time>2021-03-20T22:07:51Z</time>
      </trkpt>
      <trkpt lat="51.8271" lon="4.0068">
        <ele>2.4</ele>
        <time>2021-03-20T22:07:57Z</time>
      </trkpt>
      <trkpt lat="51.82722" lon="4.00688">
        <ele>2.5</ele>
        <time>2021-03-20T22:08:03Z</time>
      </trkpt>
      <trkpt lat="51.82738" lon="4.00688">
        <ele>-0.57</ele>
        <time>2021-03-20T22:08:09Z</time>
      </trkpt>
      <trkpt lat="51.82829" lon="4.00676">
        <ele>2.3</ele>
        <time>2021-03-20T22:08:15Z</time>
      </trkpt>
      <trkpt lat="51.82841" lon="4.00678">
        <ele>0.26</ele>
        <time>2021-03-20T22:08:21Z</time>
      </trkpt>
      <trkpt lat="51.82852" lon="4.00683">
        <ele>0.65</ele>
        <time>2021-03-20T22:08:27Z</time>
      </trkpt>
      <trkpt lat="51.8286" lon="4.00692">
        <ele>0.97</ele>
        <time>2021-03-20T22:08:33Z</time>
      </trkpt>
      <trkpt lat="51.82879" lon="4.00718">
        <ele>1.54</ele>
        <time>2021-03-20T22:08:39Z</time>
      </trkpt>
      <trkpt lat="51.82883" lon="4.00704">
        <ele>1.28</ele>
        <time>2021-03-20T22:08:44Z</time>
      </trkpt>
      <trkpt lat="51.82921" lon="4.00648">
        <ele>0.91</ele>
        <time>2021-03-20T22:08:48Z</time>
      </trkpt>
      <trkpt lat="51.82927" lon="4.00645">
        <ele>0.7</ele>
        <time>2021-03-20T22:08:53Z</time>
      </trkpt>
      <trkpt lat="51.82935" lon="4.00649">
        <ele>0.58</ele>
        <time>2021-03-20T22:08:57Z</time>
      </trkpt>
      <trkpt lat="51.82976" lon="4.00717">
        <ele>1.23</ele>
        <time>2021-03-20T22:09:02Z</time>
      </trkpt>
      <trkpt lat="51.82982" lon="4.00733">
        <ele>1.7</ele>
        <time>2021-03-20T22:09:06Z</time>
      </trkpt>
      <trkpt lat="51.83012" lon="4.00793">
        <ele>2.43</ele>
        <time>2021-03-20T22:09:11Z</time>
      </trkpt>
      <trkpt lat="51.83192" lon="4.01105">
        <ele>4.11</ele>
        <time>2021-03-20T22:09:15Z</time>
      </trkpt>
      <trkpt lat="51.83201" lon="4.01125">
        <ele>4.23</ele>
        <time>2021-03-20T22:09:19Z</time>
      </trkpt>
      <trkpt lat="51.83208" lon="4.01149">
        <ele>4.64</ele>
        <time>2021-03-20T22:09:24Z</time>
      </trkpt>
      <trkpt lat="51.83211" lon="4.01177">
        <ele>5.2</ele>
        <time>2021-03-20T22:09:28Z</time>
      </trkpt>
      <trkpt lat="51.8321" lon="4.01207">
        <ele>5.61</ele>
        <time>2021-03-20T22:09:33Z</time>
      </trkpt>
      <trkpt lat="51.832" lon="4.01262">
        <ele>5.83</ele>
        <time>2021-03-20T22:09:37Z</time>
      </trkpt>
      <trkpt lat="51.83163" lon="4.01417">
        <ele>7.01</ele>
        <time>2021-03-20T22:09:42Z</time>
      </trkpt>
      <trkpt lat="51.83141" lon="4.0149">
        <ele>7.37</ele>
        <time>2021-03-20T22:09:46Z</time>
      </trkpt>
      <trkpt lat="51.83119" lon="4.01549">
        <ele>5.52</ele>
        <time>2021-03-20T22:09:51Z</time>
      </trkpt>
      <trkpt lat="51.83076" lon="4.01651">
        <ele>5.74</ele>
        <time>2021-03-20T22:09:55Z</time>
      </trkpt>
      <trkpt lat="51.83049" lon="4.01705">
        <ele>5.3</ele>
        <time>2021-03-20T22:10:00Z</time>
      </trkpt>
      <trkpt lat="51.83003" lon="4.01787">
        <ele>3.2</ele>
        <time>2021-03-20T22:10:04Z</time>
      </trkpt>
      <trkpt lat="51.8295" lon="4.01887">
        <ele>1.28</ele>
        <time>2021-03-20T22:10:09Z</time>
      </trkpt>
      <trkpt lat="51.82931" lon="4.01928">
        <ele>1</ele>
        <time>2021-03-20T22:10:13Z</time>
      </trkpt>
      <trkpt lat="51.82896" lon="4.02014">
        <ele>3.38</ele>
        <time>2021-03-20T22:10:18Z</time>
      </trkpt>
      <trkpt lat="51.82863" lon="4.02123">
        <ele>3.65</ele>
        <time>2021-03-20T22:10:22Z</time>
      </trkpt>
      <trkpt lat="51.82803" lon="4.02366">
        <ele>4.77</ele>
        <time>2021-03-20T22:10:26Z</time>
      </trkpt>
      <trkpt lat="51.82785" lon="4.02428">
        <ele>2.92</ele>
        <time>2021-03-20T22:10:31Z</time>
      </trkpt>
      <trkpt lat="51.8277" lon="4.02476">
        <ele>1.55</ele>
        <time>2021-03-20T22:10:35Z</time>
      </trkpt>
      <trkpt lat="51.82738" lon="4.0256">
        <ele>2</ele>
        <time>2021-03-20T22:10:40Z</time>
      </trkpt>
      <trkpt lat="51.82711" lon="4.02625">
        <ele>1</ele>
        <time>2021-03-20T22:10:44Z</time>
      </trkpt>
      <trkpt lat="51.82661" lon="4.02731">
        <ele>4.34</ele>
        <time>2021-03-20T22:10:49Z</time>
      </trkpt>
      <trkpt lat="51.82587" lon="4.02879">
        <ele>4.52</ele>
        <time>2021-03-20T22:10:53Z</time>
      </trkpt>
      <trkpt lat="51.82372" lon="4.03285">
        <ele>7.19</ele>
        <time>2021-03-20T22:10:58Z</time>
      </trkpt>
      <trkpt lat="51.82333" lon="4.03349">
        <ele>5.37</ele>
        <time>2021-03-20T22:11:02Z</time>
      </trkpt>
      <trkpt lat="51.82151" lon="4.03599">
        <ele>2.28</ele>
        <time>2021-03-20T22:11:07Z</time>
      </trkpt>
      <trkpt lat="51.82092" lon="4.03666">
        <ele>2.65</ele>
        <time>2021-03-20T22:11:11Z</time>
      </trkpt>
      <trkpt lat="51.82083" lon="4.03664">
        <ele>2.89</ele>
        <time>2021-03-20T22:11:13Z</time>
      </trkpt>
      <trkpt lat="51.82076" lon="4.03671">
        <ele>3</ele>
        <time>2021-03-20T22:11:16Z</time>
      </trkpt>
      <trkpt lat="51.82074" lon="4.03677">
        <ele>3</ele>
        <time>2021-03-20T22:11:18Z</time>
      </trkpt>
      <trkpt lat="51.82073" lon="4.0369">
        <ele>3</ele>
        <time>2021-03-20T22:11:20Z</time>
      </trkpt>
      <trkpt lat="51.82076" lon="4.03699">
        <ele>3.16</ele>
        <time>2021-03-20T22:11:23Z</time>
      </trkpt>
      <trkpt lat="51.82081" lon="4.03705">
        <ele>3.37</ele>
        <time>2021-03-20T22:11:25Z</time>
      </trkpt>
      <trkpt lat="51.82089" lon="4.03706">
        <ele>3.15</ele>
        <time>2021-03-20T22:11:27Z</time>
      </trkpt>
      <trkpt lat="51.82097" lon="4.03712">
        <ele>2.82</ele>
        <time>2021-03-20T22:11:29Z</time>
      </trkpt>
      <trkpt lat="51.82136" lon="4.03775">
        <ele>2.02</ele>
        <time>2021-03-20T22:11:32Z</time>
      </trkpt>
      <trkpt lat="51.82175" lon="4.03829">
        <ele>2.05</ele>
        <time>2021-03-20T22:11:34Z</time>
      </trkpt>
      <trkpt lat="51.82198" lon="4.03854">
        <ele>2.12</ele>
        <time>2021-03-20T22:11:36Z</time>
      </trkpt>
      <trkpt lat="51.8223" lon="4.03895">
        <ele>2</ele>
        <time>2021-03-20T22:11:39Z</time>
      </trkpt>
      <trkpt lat="51.82379" lon="4.04097">
        <ele>-0.86</ele>
        <time>2021-03-20T22:11:41Z</time>
      </trkpt>
      <trkpt lat="51.82432" lon="4.04154">
        <ele>4.61</ele>
        <time>2021-03-20T22:11:43Z</time>
      </trkpt>
      <trkpt lat="51.82459" lon="4.04171">
        <ele>6.04</ele>
        <time>2021-03-20T22:11:46Z</time>
      </trkpt>
      <trkpt lat="51.82475" lon="4.0412">
        <ele>7.1</ele>
        <time>2021-03-20T22:11:52Z</time>
      </trkpt>
      <trkpt lat="51.82482" lon="4.04104">
        <ele>7.43</ele>
        <time>2021-03-20T22:11:59Z</time>
      </trkpt>
      <trkpt lat="51.82492" lon="4.04087">
        <ele>8.32</ele>
        <time>2021-03-20T22:12:05Z</time>
      </trkpt>
      <trkpt lat="51.82513" lon="4.04071">
        <ele>9.47</ele>
        <time>2021-03-20T22:12:12Z</time>
      </trkpt>
      <trkpt lat="51.82525" lon="4.04067">
        <ele>9.91</ele>
        <time>2021-03-20T22:12:18Z</time>
      </trkpt>
      <trkpt lat="51.8254" lon="4.04067">
        <ele>10.42</ele>
        <time>2021-03-20T22:12:25Z</time>
      </trkpt>
      <trkpt lat="51.8255" lon="4.0407">
        <ele>10.78</ele>
        <time>2021-03-20T22:12:31Z</time>
      </trkpt>
      <trkpt lat="51.82559" lon="4.04075">
        <ele>11.28</ele>
        <time>2021-03-20T22:12:38Z</time>
      </trkpt>
      <trkpt lat="51.82576" lon="4.0409">
        <ele>12.22</ele>
        <time>2021-03-20T22:12:45Z</time>
      </trkpt>
      <trkpt lat="51.82729" lon="4.04257">
        <ele>12.81</ele>
        <time>2021-03-20T22:12:51Z</time>
      </trkpt>
      <trkpt lat="51.82748" lon="4.0427">
        <ele>12.94</ele>
        <time>2021-03-20T22:12:58Z</time>
      </trkpt>
      <trkpt lat="51.82897" lon="4.04469">
        <ele>4.04</ele>
        <time>2021-03-20T22:13:04Z</time>
      </trkpt>
      <trkpt lat="51.83645" lon="4.0548">
        <ele>5.54</ele>
        <time>2021-03-20T22:13:11Z</time>
      </trkpt>
      <trkpt lat="51.83816" lon="4.05717">
        <ele>12.43</ele>
        <time>2021-03-20T22:13:17Z</time>
      </trkpt>
      <trkpt lat="51.83891" lon="4.05832">
        <ele>12.06</ele>
        <time>2021-03-20T22:13:24Z</time>
      </trkpt>
      <trkpt lat="51.83964" lon="4.05952">
        <ele>12.92</ele>
        <time>2021-03-20T22:13:30Z</time>
      </trkpt>
      <trkpt lat="51.84011" lon="4.06038">
        <ele>12.44</ele>
        <time>2021-03-20T22:13:37Z</time>
      </trkpt>
      <trkpt lat="51.84081" lon="4.06175">
        <ele>13.53</ele>
        <time>2021-03-20T22:13:44Z</time>
      </trkpt>
      <trkpt lat="51.84151" lon="4.06327">
        <ele>14</ele>
        <time>2021-03-20T22:13:50Z</time>
      </trkpt>
      <trkpt lat="51.84243" lon="4.06577">
        <ele>11.26</ele>
        <time>2021-03-20T22:13:57Z</time>
      </trkpt>
      <trkpt lat="51.84308" lon="4.06789">
        <ele>8.64</ele>
        <time>2021-03-20T22:14:03Z</time>
      </trkpt>
      <trkpt lat="51.84335" lon="4.06887">
        <ele>9.06</ele>
        <time>2021-03-20T22:14:10Z</time>
      </trkpt>
      <trkpt lat="51.84347" lon="4.06936">
        <ele>7.79</ele>
        <time>2021-03-20T22:14:16Z</time>
      </trkpt>
      <trkpt lat="51.84469" lon="4.07502">
        <ele>7.9</ele>
        <time>2021-03-20T22:14:23Z</time>
      </trkpt>
      <trkpt lat="51.84528" lon="4.07753">
        <ele>4.09</ele>
        <time>2021-03-20T22:14:30Z</time>
      </trkpt>
      <trkpt lat="51.84607" lon="4.08064">
        <ele>3</ele>
        <time>2021-03-20T22:14:36Z</time>
      </trkpt>
      <trkpt lat="51.8466" lon="4.08255">
        <ele>4.54</ele>
        <time>2021-03-20T22:14:43Z</time>
      </trkpt>
      <trkpt lat="51.84722" lon="4.08455">
        <ele>-0.63</ele>
        <time>2021-03-20T22:14:49Z</time>
      </trkpt>
      <trkpt lat="51.84766" lon="4.0859">
        <ele>-0.9</ele>
        <time>2021-03-20T22:14:56Z</time>
      </trkpt>
      <trkpt lat="51.84797" lon="4.08694">
        <ele>0.69</ele>
        <time>2021-03-20T22:15:02Z</time>
      </trkpt>
      <trkpt lat="51.84837" lon="4.08819">
        <ele>0.47</ele>
        <time>2021-03-20T22:15:09Z</time>
      </trkpt>
      <trkpt lat="51.84833" lon="4.08829">
        <ele>0.85</ele>
        <time>2021-03-20T22:15:13Z</time>
      </trkpt>
      <trkpt lat="51.84832" lon="4.08842">
        <ele>0.97</ele>
        <time>2021-03-20T22:15:18Z</time>
      </trkpt>
      <trkpt lat="51.84835" lon="4.08853">
        <ele>1</ele>
        <time>2021-03-20T22:15:22Z</time>
      </trkpt>
      <trkpt lat="51.8484" lon="4.08861">
        <ele>1</ele>
        <time>2021-03-20T22:15:27Z</time>
      </trkpt>
      <trkpt lat="51.84846" lon="4.08866">
        <ele>1</ele>
        <time>2021-03-20T22:15:31Z</time>
      </trkpt>
      <trkpt lat="51.84853" lon="4.08866">
        <ele>1</ele>
        <time>2021-03-20T22:15:36Z</time>
      </trkpt>
      <trkpt lat="51.84908" lon="4.09009">
        <ele>-0.33</ele>
        <time>2021-03-20T22:15:40Z</time>
      </trkpt>
      <trkpt lat="51.84915" lon="4.09033">
        <ele>0.13</ele>
        <time>2021-03-20T22:15:44Z</time>
      </trkpt>
      <trkpt lat="51.84937" lon="4.09082">
        <ele>1</ele>
        <time>2021-03-20T22:15:49Z</time>
      </trkpt>
      <trkpt lat="51.84963" lon="4.09131">
        <ele>0.1</ele>
        <time>2021-03-20T22:15:53Z</time>
      </trkpt>
      <trkpt lat="51.85022" lon="4.09275">
        <ele>-1.11</ele>
        <time>2021-03-20T22:15:58Z</time>
      </trkpt>
      <trkpt lat="51.85107" lon="4.09487">
        <ele>-1.52</ele>
        <time>2021-03-20T22:16:02Z</time>
      </trkpt>
      <trkpt lat="51.8515" lon="4.09605">
        <ele>-2</ele>
        <time>2021-03-20T22:16:06Z</time>
      </trkpt>
      <trkpt lat="51.85203" lon="4.09759">
        <ele>0.32</ele>
        <time>2021-03-20T22:16:11Z</time>
      </trkpt>
      <trkpt lat="51.85279" lon="4.09991">
        <ele>-0.66</ele>
        <time>2021-03-20T22:16:15Z</time>
      </trkpt>
      <trkpt lat="51.8532" lon="4.10121">
        <ele>-2</ele>
        <time>2021-03-20T22:16:20Z</time>
      </trkpt>
      <trkpt lat="51.85362" lon="4.10265">
        <ele>-0.44</ele>
        <time>2021-03-20T22:16:24Z</time>
      </trkpt>
      <trkpt lat="51.85454" lon="4.10609">
        <ele>-0.67</ele>
        <time>2021-03-20T22:16:29Z</time>
      </trkpt>
      <trkpt lat="51.85511" lon="4.10858">
        <ele>0.41</ele>
        <time>2021-03-20T22:16:33Z</time>
      </trkpt>
      <trkpt lat="51.85542" lon="4.11">
        <ele>0.5</ele>
        <time>2021-03-20T22:16:37Z</time>
      </trkpt>
      <trkpt lat="51.85571" lon="4.11145">
        <ele>0.56</ele>
        <time>2021-03-20T22:16:42Z</time>
      </trkpt>
      <trkpt lat="51.85644" lon="4.1153">
        <ele>-0.08</ele>
        <time>2021-03-20T22:16:46Z</time>
      </trkpt>
      <trkpt lat="51.85668" lon="4.117">
        <ele>-1</ele>
        <time>2021-03-20T22:16:51Z</time>
      </trkpt>
      <trkpt lat="51.85677" lon="4.11784">
        <ele>-1.38</ele>
        <time>2021-03-20T22:16:55Z</time>
      </trkpt>
      <trkpt lat="51.85694" lon="4.11926">
        <ele>-1.66</ele>
        <time>2021-03-20T22:17:00Z</time>
      </trkpt>
      <trkpt lat="51.85688" lon="4.11934">
        <ele>-1.28</ele>
        <time>2021-03-20T22:17:05Z</time>
      </trkpt>
      <trkpt lat="51.85684" lon="4.11946">
        <ele>-1</ele>
        <time>2021-03-20T22:17:11Z</time>
      </trkpt>
      <trkpt lat="51.85686" lon="4.11963">
        <ele>-1</ele>
        <time>2021-03-20T22:17:17Z</time>
      </trkpt>
      <trkpt lat="51.85692" lon="4.11975">
        <ele>-0.99</ele>
        <time>2021-03-20T22:17:23Z</time>
      </trkpt>
      <trkpt lat="51.85697" lon="4.11978">
        <ele>-1</ele>
        <time>2021-03-20T22:17:29Z</time>
      </trkpt>
      <trkpt lat="51.85711" lon="4.12115">
        <ele>0.22</ele>
        <time>2021-03-20T22:17:35Z</time>
      </trkpt>
      <trkpt lat="51.85721" lon="4.12223">
        <ele>-1.11</ele>
        <time>2021-03-20T22:17:41Z</time>
      </trkpt>
      <trkpt lat="51.85734" lon="4.12315">
        <ele>-0.73</ele>
        <time>2021-03-20T22:17:46Z</time>
      </trkpt>
      <trkpt lat="51.85742" lon="4.12399">
        <ele>-1.39</ele>
        <time>2021-03-20T22:17:52Z</time>
      </trkpt>
      <trkpt lat="51.85761" lon="4.12695">
        <ele>-0.96</ele>
        <time>2021-03-20T22:17:58Z</time>
      </trkpt>
      <trkpt lat="51.85783" lon="4.13319">
        <ele>-2.32</ele>
        <time>2021-03-20T22:18:04Z</time>
      </trkpt>
      <trkpt lat="51.85792" lon="4.13494">
        <ele>-3.12</ele>
        <time>2021-03-20T22:18:10Z</time>
      </trkpt>
      <trkpt lat="51.85803" lon="4.13662">
        <ele>0.74</ele>
        <time>2021-03-20T22:18:16Z</time>
      </trkpt>
      <trkpt lat="51.85818" lon="4.13843">
        <ele>-2.12</ele>
        <time>2021-03-20T22:18:21Z</time>
      </trkpt>
      <trkpt lat="51.85846" lon="4.14118">
        <ele>-1</ele>
        <time>2021-03-20T22:18:27Z</time>
      </trkpt>
      <trkpt lat="51.85872" lon="4.14321">
        <ele>-2.18</ele>
        <time>2021-03-20T22:18:33Z</time>
      </trkpt>
      <trkpt lat="51.85905" lon="4.14548">
        <ele>-3.31</ele>
        <time>2021-03-20T22:18:39Z</time>
      </trkpt>
      <trkpt lat="51.85948" lon="4.14812">
        <ele>-2.87</ele>
        <time>2021-03-20T22:18:45Z</time>
      </trkpt>
      <trkpt lat="51.85989" lon="4.15013">
        <ele>-2.38</ele>
        <time>2021-03-20T22:18:51Z</time>
      </trkpt>
      <trkpt lat="51.861" lon="4.15528">
        <ele>1.41</ele>
        <time>2021-03-20T22:18:57Z</time>
      </trkpt>
      <trkpt lat="51.86135" lon="4.1571">
        <ele>-1.68</ele>
        <time>2021-03-20T22:19:02Z</time>
      </trkpt>
      <trkpt lat="51.86131" lon="4.15721">
        <ele>-2.24</ele>
        <time>2021-03-20T22:19:09Z</time>
      </trkpt>
      <trkpt lat="51.86129" lon="4.15734">
        <ele>-2.35</ele>
        <time>2021-03-20T22:19:15Z</time>
      </trkpt>
      <trkpt lat="51.8612" lon="4.15742">
        <ele>-2.67</ele>
        <time>2021-03-20T22:19:21Z</time>
      </trkpt>
      <trkpt lat="51.86078" lon="4.15772">
        <ele>-0.84</ele>
        <time>2021-03-20T22:19:28Z</time>
      </trkpt>
      <trkpt lat="51.85651" lon="4.16038">
        <ele>-3.93</ele>
        <time>2021-03-20T22:19:34Z</time>
      </trkpt>
      <trkpt lat="51.85533" lon="4.16115">
        <ele>-2.19</ele>
        <time>2021-03-20T22:19:41Z</time>
      </trkpt>
      <trkpt lat="51.85437" lon="4.16173">
        <ele>-2.29</ele>
        <time>2021-03-20T22:19:47Z</time>
      </trkpt>
      <trkpt lat="51.85402" lon="4.1619">
        <ele>-3</ele>
        <time>2021-03-20T22:19:53Z</time>
      </trkpt>
      <trkpt lat="51.85352" lon="4.16195">
        <ele>-3</ele>
        <time>2021-03-20T22:20:00Z</time>
      </trkpt>
      <trkpt lat="51.85346" lon="4.16183">
        <ele>-3</ele>
        <time>2021-03-20T22:20:04Z</time>
      </trkpt>
      <trkpt lat="51.85338" lon="4.16182">
        <ele>-3</ele>
        <time>2021-03-20T22:20:07Z</time>
      </trkpt>
      <trkpt lat="51.85311" lon="4.16199">
        <ele>-2.84</ele>
        <time>2021-03-20T22:20:11Z</time>
      </trkpt>
      <trkpt lat="51.85306" lon="4.16209">
        <ele>-2.47</ele>
        <time>2021-03-20T22:20:15Z</time>
      </trkpt>
      <trkpt lat="51.85305" lon="4.16218">
        <ele>-2.16</ele>
        <time>2021-03-20T22:20:19Z</time>
      </trkpt>
      <trkpt lat="51.85253" lon="4.16257">
        <ele>-2.67</ele>
        <time>2021-03-20T22:20:23Z</time>
      </trkpt>
      <trkpt lat="51.85248" lon="4.16264">
        <ele>-2.56</ele>
        <time>2021-03-20T22:20:27Z</time>
      </trkpt>
      <trkpt lat="51.85227" lon="4.16284">
        <ele>-3.68</ele>
        <time>2021-03-20T22:20:31Z</time>
      </trkpt>
      <trkpt lat="51.85201" lon="4.16313">
        <ele>-3.94</ele>
        <time>2021-03-20T22:20:35Z</time>
      </trkpt>
      <trkpt lat="51.85169" lon="4.16341">
        <ele>-4.63</ele>
        <time>2021-03-20T22:20:39Z</time>
      </trkpt>
      <trkpt lat="51.84953" lon="4.16482">
        <ele>-2.89</ele>
        <time>2021-03-20T22:20:43Z</time>
      </trkpt>
      <trkpt lat="51.84872" lon="4.16533">
        <ele>-3</ele>
        <time>2021-03-20T22:20:47Z</time>
      </trkpt>
      <trkpt lat="51.84817" lon="4.16553">
        <ele>-2.47</ele>
        <time>2021-03-20T22:20:51Z</time>
      </trkpt>
      <trkpt lat="51.84699" lon="4.16628">
        <ele>-1.17</ele>
        <time>2021-03-20T22:20:55Z</time>
      </trkpt>
      <trkpt lat="51.84674" lon="4.16648">
        <ele>-1.33</ele>
        <time>2021-03-20T22:20:59Z</time>
      </trkpt>
      <trkpt lat="51.8466" lon="4.16654">
        <ele>-1.53</ele>
        <time>2021-03-20T22:21:02Z</time>
      </trkpt>
      <trkpt lat="51.84656" lon="4.16648">
        <ele>-1.33</ele>
        <time>2021-03-20T22:21:06Z</time>
      </trkpt>
      <trkpt lat="51.8465" lon="4.16646">
        <ele>-1.26</ele>
        <time>2021-03-20T22:21:09Z</time>
      </trkpt>
      <trkpt lat="51.84642" lon="4.1665">
        <ele>-1.41</ele>
        <time>2021-03-20T22:21:12Z</time>
      </trkpt>
      <trkpt lat="51.84638" lon="4.16659">
        <ele>-1.72</ele>
        <time>2021-03-20T22:21:15Z</time>
      </trkpt>
      <trkpt lat="51.84636" lon="4.1667">
        <ele>-2</ele>
        <time>2021-03-20T22:21:18Z</time>
      </trkpt>
      <trkpt lat="51.84579" lon="4.16705">
        <ele>-1.52</ele>
        <time>2021-03-20T22:21:21Z</time>
      </trkpt>
      <trkpt lat="51.84488" lon="4.16773">
        <ele>0.11</ele>
        <time>2021-03-20T22:21:24Z</time>
      </trkpt>
      <trkpt lat="51.84448" lon="4.16797">
        <ele>1</ele>
        <time>2021-03-20T22:21:28Z</time>
      </trkpt>
      <trkpt lat="51.84423" lon="4.16803">
        <ele>0.76</ele>
        <time>2021-03-20T22:21:31Z</time>
      </trkpt>
      <trkpt lat="51.84397" lon="4.16799">
        <ele>0.13</ele>
        <time>2021-03-20T22:21:34Z</time>
      </trkpt>
      <trkpt lat="51.84331" lon="4.16769">
        <ele>-2.62</ele>
        <time>2021-03-20T22:21:37Z</time>
      </trkpt>
      <trkpt lat="51.8432" lon="4.1677">
        <ele>-2.37</ele>
        <time>2021-03-20T22:21:40Z</time>
      </trkpt>
      <trkpt lat="51.84299" lon="4.1678">
        <ele>-1.77</ele>
        <time>2021-03-20T22:21:43Z</time>
      </trkpt>
      <trkpt lat="51.84268" lon="4.16816">
        <ele>-0.4</ele>
        <time>2021-03-20T22:21:46Z</time>
      </trkpt>
      <trkpt lat="51.84272" lon="4.16826">
        <ele>-0.2</ele>
        <time>2021-03-20T22:21:55Z</time>
      </trkpt>
      <trkpt lat="51.84362" lon="4.17038">
        <ele>-0.7</ele>
        <time>2021-03-20T22:22:04Z</time>
      </trkpt>
      <trkpt lat="51.8439" lon="4.17096">
        <ele>-1.61</ele>
        <time>2021-03-20T22:22:13Z</time>
      </trkpt>
      <trkpt lat="51.84475" lon="4.17301">
        <ele>-0.16</ele>
        <time>2021-03-20T22:22:22Z</time>
      </trkpt>
      <trkpt lat="51.84556" lon="4.1747">
        <ele>-1.97</ele>
        <time>2021-03-20T22:22:31Z</time>
      </trkpt>
      <trkpt lat="51.84571" lon="4.17507">
        <ele>-0.46</ele>
        <time>2021-03-20T22:22:39Z</time>
      </trkpt>
      <trkpt lat="51.84604" lon="4.17583">
        <ele>-1.73</ele>
        <time>2021-03-20T22:22:48Z</time>
      </trkpt>
      <trkpt lat="51.84643" lon="4.17693">
        <ele>-0.15</ele>
        <time>2021-03-20T22:22:57Z</time>
      </trkpt>
      <trkpt lat="51.84696" lon="4.17816">
        <ele>-0.63</ele>
        <time>2021-03-20T22:23:06Z</time>
      </trkpt>
      <trkpt lat="51.84704" lon="4.17831">
        <ele>-0.41</ele>
        <time>2021-03-20T22:23:15Z</time>
      </trkpt>
      <trkpt lat="51.85033" lon="4.18591">
        <ele>-1.46</ele>
        <time>2021-03-20T22:23:24Z</time>
      </trkpt>
      <trkpt lat="51.85061" lon="4.18661">
        <ele>-2.38</ele>
        <time>2021-03-20T22:23:32Z</time>
      </trkpt>
      <trkpt lat="51.85512" lon="4.19709">
        <ele>-1.77</ele>
        <time>2021-03-20T22:23:41Z</time>
      </trkpt>
      <trkpt lat="51.85529" lon="4.19743">
        <ele>-1.05</ele>
        <time>2021-03-20T22:23:50Z</time>
      </trkpt>
      <trkpt lat="51.85581" lon="4.1983">
        <ele>-2.05</ele>
        <time>2021-03-20T22:23:59Z</time>
      </trkpt>
      <trkpt lat="51.85594" lon="4.19858">
        <ele>-1.44</ele>
        <time>2021-03-20T22:24:08Z</time>
      </trkpt>
      <trkpt lat="51.85616" lon="4.19919">
        <ele>-1.39</ele>
        <time>2021-03-20T22:24:17Z</time>
      </trkpt>
      <trkpt lat="51.8564" lon="4.20002">
        <ele>-0.97</ele>
        <time>2021-03-20T22:24:25Z</time>
      </trkpt>
      <trkpt lat="51.85653" lon="4.20039">
        <ele>0.1</ele>
        <time>2021-03-20T22:24:34Z</time>
      </trkpt>
      <trkpt lat="51.85744" lon="4.20247">
        <ele>-0.71</ele>
        <time>2021-03-20T22:24:43Z</time>
      </trkpt>
      <trkpt lat="51.85839" lon="4.20469">
        <ele>-0.37</ele>
        <time>2021-03-20T22:24:52Z</time>
      </trkpt>
      <trkpt lat="51.8601" lon="4.20862">
        <ele>-1.99</ele>
        <time>2021-03-20T22:25:01Z</time>
      </trkpt>
      <trkpt lat="51.86503" lon="4.22013">
        <ele>-3</ele>
        <time>2021-03-20T22:25:10Z</time>
      </trkpt>
      <trkpt lat="51.86544" lon="4.22089">
        <ele>-3.46</ele>
        <time>2021-03-20T22:25:18Z</time>
      </trkpt>
      <trkpt lat="51.86574" lon="4.22139">
        <ele>-1.37</ele>
        <time>2021-03-20T22:25:27Z</time>
      </trkpt>
      <trkpt lat="51.86596" lon="4.22186">
        <ele>1</ele>
        <time>2021-03-20T22:25:36Z</time>
      </trkpt>
      <trkpt lat="51.8661" lon="4.22227">
        <ele>0.05</ele>
        <time>2021-03-20T22:25:45Z</time>
      </trkpt>
      <trkpt lat="51.86622" lon="4.22269">
        <ele>-0.5</ele>
        <time>2021-03-20T22:25:54Z</time>
      </trkpt>
      <trkpt lat="51.8665" lon="4.22354">
        <ele>-1</ele>
        <time>2021-03-20T22:26:03Z</time>
      </trkpt>
      <trkpt lat="51.86672" lon="4.22407">
        <ele>-0.19</ele>
        <time>2021-03-20T22:26:12Z</time>
      </trkpt>
      <trkpt lat="51.86698" lon="4.22445">
        <ele>-0.12</ele>
        <time>2021-03-20T22:26:20Z</time>
      </trkpt>
      <trkpt lat="51.86719" lon="4.2247">
        <ele>-0.89</ele>
        <time>2021-03-20T22:26:29Z</time>
      </trkpt>
      <trkpt lat="51.86744" lon="4.22519">
        <ele>2.5</ele>
        <time>2021-03-20T22:26:38Z</time>
      </trkpt>
      <trkpt lat="51.86726" lon="4.22538">
        <ele>0.06</ele>
        <time>2021-03-20T22:26:44Z</time>
      </trkpt>
      <trkpt lat="51.86675" lon="4.22595">
        <ele>-0.4</ele>
        <time>2021-03-20T22:26:51Z</time>
      </trkpt>
      <trkpt lat="51.86519" lon="4.22752">
        <ele>-1.35</ele>
        <time>2021-03-20T22:26:57Z</time>
      </trkpt>
      <trkpt lat="51.86384" lon="4.22895">
        <ele>-4</ele>
        <time>2021-03-20T22:27:04Z</time>
      </trkpt>
      <trkpt lat="51.86343" lon="4.22942">
        <ele>-3.09</ele>
        <time>2021-03-20T22:27:10Z</time>
      </trkpt>
      <trkpt lat="51.86294" lon="4.23012">
        <ele>-3.84</ele>
        <time>2021-03-20T22:27:16Z</time>
      </trkpt>
      <trkpt lat="51.86272" lon="4.23051">
        <ele>-4.32</ele>
        <time>2021-03-20T22:27:23Z</time>
      </trkpt>
      <trkpt lat="51.86256" lon="4.23086">
        <ele>-4.77</ele>
        <time>2021-03-20T22:27:29Z</time>
      </trkpt>
      <trkpt lat="51.86237" lon="4.23134">
        <ele>-5.47</ele>
        <time>2021-03-20T22:27:35Z</time>
      </trkpt>
      <trkpt lat="51.86221" lon="4.2318">
        <ele>-6.45</ele>
        <time>2021-03-20T22:27:42Z</time>
      </trkpt>
      <trkpt lat="51.86205" lon="4.23238">
        <ele>-3.75</ele>
        <time>2021-03-20T22:27:48Z</time>
      </trkpt>
      <trkpt lat="51.86134" lon="4.23559">
        <ele>-3</ele>
        <time>2021-03-20T22:27:55Z</time>
      </trkpt>
      <trkpt lat="51.86109" lon="4.23681">
        <ele>-3.06</ele>
        <time>2021-03-20T22:28:01Z</time>
      </trkpt>
      <trkpt lat="51.86076" lon="4.23876">
        <ele>-2.14</ele>
        <time>2021-03-20T22:28:07Z</time>
      </trkpt>
      <trkpt lat="51.86033" lon="4.24143">
        <ele>-0.85</ele>
        <time>2021-03-20T22:28:14Z</time>
      </trkpt>
      <trkpt lat="51.8602" lon="4.24252">
        <ele>1.73</ele>
        <time>2021-03-20T22:28:20Z</time>
      </trkpt>
      <trkpt lat="51.86006" lon="4.24346">
        <ele>0.2</ele>
        <time>2021-03-20T22:28:26Z</time>
      </trkpt>
      <trkpt lat="51.85983" lon="4.24478">
        <ele>-0.08</ele>
        <time>2021-03-20T22:28:33Z</time>
      </trkpt>
      <trkpt lat="51.85964" lon="4.24553">
        <ele>1.65</ele>
        <time>2021-03-20T22:28:39Z</time>
      </trkpt>
      <trkpt lat="51.85914" lon="4.2474">
        <ele>0.44</ele>
        <time>2021-03-20T22:28:45Z</time>
      </trkpt>
      <trkpt lat="51.85858" lon="4.2496">
        <ele>-0.89</ele>
        <time>2021-03-20T22:28:52Z</time>
      </trkpt>
      <trkpt lat="51.85849" lon="4.25033">
        <ele>-1.1</ele>
        <time>2021-03-20T22:28:58Z</time>
      </trkpt>
      <trkpt lat="51.85846" lon="4.25081">
        <ele>-1.44</ele>
        <time>2021-03-20T22:29:05Z</time>
      </trkpt>
      <trkpt lat="51.85845" lon="4.25132">
        <ele>-2.4</ele>
        <time>2021-03-20T22:29:11Z</time>
      </trkpt>
      <trkpt lat="51.85851" lon="4.25253">
        <ele>-1.25</ele>
        <time>2021-03-20T22:29:17Z</time>
      </trkpt>
      <trkpt lat="51.85864" lon="4.25419">
        <ele>-3</ele>
        <time>2021-03-20T22:29:24Z</time>
      </trkpt>
      <trkpt lat="51.85879" lon="4.25545">
        <ele>-0.65</ele>
        <time>2021-03-20T22:29:30Z</time>
      </trkpt>
      <trkpt lat="51.85891" lon="4.25696">
        <ele>-0.06</ele>
        <time>2021-03-20T22:29:36Z</time>
      </trkpt>
      <trkpt lat="51.85894" lon="4.25836">
        <ele>-0.81</ele>
        <time>2021-03-20T22:29:43Z</time>
      </trkpt>
      <trkpt lat="51.85889" lon="4.25957">
        <ele>1.02</ele>
        <time>2021-03-20T22:29:49Z</time>
      </trkpt>
      <trkpt lat="51.85885" lon="4.2604">
        <ele>0.33</ele>
        <time>2021-03-20T22:29:56Z</time>
      </trkpt>
      <trkpt lat="51.85883" lon="4.26225">
        <ele>-2.22</ele>
        <time>2021-03-20T22:30:02Z</time>
      </trkpt>
      <trkpt lat="51.85884" lon="4.26359">
        <ele>-3.19</ele>
        <time>2021-03-20T22:30:08Z</time>
      </trkpt>
      <trkpt lat="51.85887" lon="4.26413">
        <ele>-3.07</ele>
        <time>2021-03-20T22:30:15Z</time>
      </trkpt>
      <trkpt lat="51.85898" lon="4.26527">
        <ele>-2</ele>
        <time>2021-03-20T22:30:21Z</time>
      </trkpt>
      <trkpt lat="51.85905" lon="4.26625">
        <ele>-2.33</ele>
        <time>2021-03-20T22:30:27Z</time>
      </trkpt>
      <trkpt lat="51.85908" lon="4.26728">
        <ele>-3.08</ele>
        <time>2021-03-20T22:30:34Z</time>
      </trkpt>
      <trkpt lat="51.85904" lon="4.27115">
        <ele>-2.92</ele>
        <time>2021-03-20T22:30:40Z</time>
      </trkpt>
      <trkpt lat="51.85905" lon="4.27183">
        <ele>-1.42</ele>
        <time>2021-03-20T22:30:47Z</time>
      </trkpt>
      <trkpt lat="51.85908" lon="4.2728">
        <ele>-1.6</ele>
        <time>2021-03-20T22:30:53Z</time>
      </trkpt>
      <trkpt lat="51.85968" lon="4.28103">
        <ele>-1.05</ele>
        <time>2021-03-20T22:30:59Z</time>
      </trkpt>
      <trkpt lat="51.85975" lon="4.28206">
        <ele>1.33</ele>
        <time>2021-03-20T22:31:06Z</time>
      </trkpt>
      <trkpt lat="51.85976" lon="4.28264">
        <ele>1.05</ele>
        <time>2021-03-20T22:31:12Z</time>
      </trkpt>
      <trkpt lat="51.85976" lon="4.28385">
        <ele>1.86</ele>
        <time>2021-03-20T22:31:18Z</time>
      </trkpt>
      <trkpt lat="51.85969" lon="4.28503">
        <ele>-4.77</ele>
        <time>2021-03-20T22:31:25Z</time>
      </trkpt>
      <trkpt lat="51.85912" lon="4.29072">
        <ele>-0.16</ele>
        <time>2021-03-20T22:31:31Z</time>
      </trkpt>
      <trkpt lat="51.85896" lon="4.29214">
        <ele>-4.06</ele>
        <time>2021-03-20T22:31:37Z</time>
      </trkpt>
      <trkpt lat="51.85886" lon="4.29316">
        <ele>-1.88</ele>
        <time>2021-03-20T22:31:44Z</time>
      </trkpt>
      <trkpt lat="51.85874" lon="4.29455">
        <ele>1.2</ele>
        <time>2021-03-20T22:31:50Z</time>
      </trkpt>
      <trkpt lat="51.85848" lon="4.29727">
        <ele>-0.9</ele>
        <time>2021-03-20T22:31:57Z</time>
      </trkpt>
      <trkpt lat="51.85842" lon="4.29763">
        <ele>-0.19</ele>
        <time>2021-03-20T22:32:03Z</time>
      </trkpt>
      <trkpt lat="51.8582" lon="4.29886">
        <ele>-0.37</ele>
        <time>2021-03-20T22:32:09Z</time>
      </trkpt>
      <trkpt lat="51.85797" lon="4.29962">
        <ele>-1.48</ele>
        <time>2021-03-20T22:32:16Z</time>
      </trkpt>
      <trkpt lat="51.85769" lon="4.30033">
        <ele>1.13</ele>
        <time>2021-03-20T22:32:22Z</time>
      </trkpt>
      <trkpt lat="51.85757" lon="4.30058">
        <ele>1.17</ele>
        <time>2021-03-20T22:32:28Z</time>
      </trkpt>
      <trkpt lat="51.85732" lon="4.30105">
        <ele>-0.13</ele>
        <time>2021-03-20T22:32:35Z</time>
      </trkpt>
      <trkpt lat="51.8567" lon="4.30199">
        <ele>-0.16</ele>
        <time>2021-03-20T22:32:41Z</time>
      </trkpt>
      <trkpt lat="51.8567" lon="4.30217">
        <ele>-0.83</ele>
        <time>2021-03-20T22:32:46Z</time>
      </trkpt>
      <trkpt lat="51.8568" lon="4.30242">
        <ele>-1</ele>
        <time>2021-03-20T22:32:51Z</time>
      </trkpt>
      <trkpt lat="51.85794" lon="4.3047">
        <ele>-3.04</ele>
        <time>2021-03-20T22:32:56Z</time>
      </trkpt>
      <trkpt lat="51.85811" lon="4.305">
        <ele>-1.81</ele>
        <time>2021-03-20T22:33:01Z</time>
      </trkpt>
      <trkpt lat="51.85844" lon="4.3055">
        <ele>1.27</ele>
        <time>2021-03-20T22:33:07Z</time>
      </trkpt>
      <trkpt lat="51.85876" lon="4.3059">
        <ele>2.37</ele>
        <time>2021-03-20T22:33:12Z</time>
      </trkpt>
      <trkpt lat="51.85936" lon="4.30652">
        <ele>0.48</ele>
        <time>2021-03-20T22:33:17Z</time>
      </trkpt>
      <trkpt lat="51.85977" lon="4.30685">
        <ele>-1.08</ele>
        <time>2021-03-20T22:33:22Z</time>
      </trkpt>
      <trkpt lat="51.86016" lon="4.3071">
        <ele>3.58</ele>
        <time>2021-03-20T22:33:27Z</time>
      </trkpt>
      <trkpt lat="51.86056" lon="4.30731">
        <ele>5.99</ele>
        <time>2021-03-20T22:33:32Z</time>
      </trkpt>
      <trkpt lat="51.8611" lon="4.30749">
        <ele>2.16</ele>
        <time>2021-03-20T22:33:37Z</time>
      </trkpt>
      <trkpt lat="51.86163" lon="4.30758">
        <ele>0.71</ele>
        <time>2021-03-20T22:33:42Z</time>
      </trkpt>
      <trkpt lat="51.86219" lon="4.3076">
        <ele>5.35</ele>
        <time>2021-03-20T22:33:47Z</time>
      </trkpt>
      <trkpt lat="51.8639" lon="4.30759">
        <ele>3.66</ele>
        <time>2021-03-20T22:33:52Z</time>
      </trkpt>
      <trkpt lat="51.86698" lon="4.30749">
        <ele>-0.92</ele>
        <time>2021-03-20T22:33:57Z</time>
      </trkpt>
      <trkpt lat="51.86766" lon="4.30751">
        <ele>-1.9</ele>
        <time>2021-03-20T22:34:02Z</time>
      </trkpt>
      <trkpt lat="51.86776" lon="4.30755">
        <ele>-1.81</ele>
        <time>2021-03-20T22:34:10Z</time>
      </trkpt>
      <trkpt lat="51.86781" lon="4.3076">
        <ele>-1.76</ele>
        <time>2021-03-20T22:34:17Z</time>
      </trkpt>
      <trkpt lat="51.86786" lon="4.30769">
        <ele>-1.68</ele>
        <time>2021-03-20T22:34:25Z</time>
      </trkpt>
      <trkpt lat="51.86789" lon="4.30785">
        <ele>-1.57</ele>
        <time>2021-03-20T22:34:33Z</time>
      </trkpt>
      <trkpt lat="51.86803" lon="4.31006">
        <ele>0.18</ele>
        <time>2021-03-20T22:34:40Z</time>
      </trkpt>
      <trkpt lat="51.86811" lon="4.31088">
        <ele>0.84</ele>
        <time>2021-03-20T22:34:48Z</time>
      </trkpt>
      <trkpt lat="51.86827" lon="4.31196">
        <ele>1.73</ele>
        <time>2021-03-20T22:34:55Z</time>
      </trkpt>
      <trkpt lat="51.86868" lon="4.31413">
        <ele>3.5</ele>
        <time>2021-03-20T22:35:03Z</time>
      </trkpt>
      <trkpt lat="51.86879" lon="4.31484">
        <ele>4.08</ele>
        <time>2021-03-20T22:35:10Z</time>
      </trkpt>
      <trkpt lat="51.86897" lon="4.3164">
        <ele>5.35</ele>
        <time>2021-03-20T22:35:18Z</time>
      </trkpt>
      <trkpt lat="51.86913" lon="4.31809">
        <ele>6.72</ele>
        <time>2021-03-20T22:35:25Z</time>
      </trkpt>
      <trkpt lat="51.86925" lon="4.31976">
        <ele>5.25</ele>
        <time>2021-03-20T22:35:33Z</time>
      </trkpt>
      <trkpt lat="51.86936" lon="4.32187">
        <ele>2.93</ele>
        <time>2021-03-20T22:35:41Z</time>
      </trkpt>
      <trkpt lat="51.86938" lon="4.32315">
        <ele>0.64</ele>
        <time>2021-03-20T22:35:48Z</time>
      </trkpt>
      <trkpt lat="51.86957" lon="4.32423">
        <ele>3.5</ele>
        <time>2021-03-20T22:35:56Z</time>
      </trkpt>
      <trkpt lat="51.86967" lon="4.32469">
        <ele>3.37</ele>
        <time>2021-03-20T22:36:03Z</time>
      </trkpt>
      <trkpt lat="51.87029" lon="4.32691">
        <ele>3.36</ele>
        <time>2021-03-20T22:36:11Z</time>
      </trkpt>
      <trkpt lat="51.87053" lon="4.32789">
        <ele>3.36</ele>
        <time>2021-03-20T22:36:18Z</time>
      </trkpt>
      <trkpt lat="51.87166" lon="4.33321">
        <ele>3.36</ele>
        <time>2021-03-20T22:36:26Z</time>
      </trkpt>
      <trkpt lat="51.87176" lon="4.33383">
        <ele>3.36</ele>
        <time>2021-03-20T22:36:33Z</time>
      </trkpt>
      <trkpt lat="51.87182" lon="4.33449">
        <ele>3.36</ele>
        <time>2021-03-20T22:36:41Z</time>
      </trkpt>
      <trkpt lat="51.87183" lon="4.33488">
        <ele>3.36</ele>
        <time>2021-03-20T22:36:49Z</time>
      </trkpt>
      <trkpt lat="51.8718" lon="4.3363">
        <ele>3.36</ele>
        <time>2021-03-20T22:36:56Z</time>
      </trkpt>
      <trkpt lat="51.87184" lon="4.33732">
        <ele>3.36</ele>
        <time>2021-03-20T22:37:04Z</time>
      </trkpt>
      <trkpt lat="51.87197" lon="4.33813">
        <ele>3.29</ele>
        <time>2021-03-20T22:37:11Z</time>
      </trkpt>
      <trkpt lat="51.8722" lon="4.33899">
        <ele>-1.81</ele>
        <time>2021-03-20T22:37:19Z</time>
      </trkpt>
      <trkpt lat="51.87301" lon="4.34157">
        <ele>-1.15</ele>
        <time>2021-03-20T22:37:26Z</time>
      </trkpt>
      <trkpt lat="51.87366" lon="4.34388">
        <ele>3.03</ele>
        <time>2021-03-20T22:37:34Z</time>
      </trkpt>
      <trkpt lat="51.87412" lon="4.34526">
        <ele>-2.73</ele>
        <time>2021-03-20T22:37:41Z</time>
      </trkpt>
      <trkpt lat="51.87452" lon="4.34686">
        <ele>3.65</ele>
        <time>2021-03-20T22:37:49Z</time>
      </trkpt>
      <trkpt lat="51.87485" lon="4.34863">
        <ele>2.43</ele>
        <time>2021-03-20T22:37:57Z</time>
      </trkpt>
      <trkpt lat="51.87507" lon="4.35005">
        <ele>8.53</ele>
        <time>2021-03-20T22:38:04Z</time>
      </trkpt>
      <trkpt lat="51.87521" lon="4.35122">
        <ele>7.16</ele>
        <time>2021-03-20T22:38:12Z</time>
      </trkpt>
      <trkpt lat="51.87586" lon="4.36031">
        <ele>4.12</ele>
        <time>2021-03-20T22:38:19Z</time>
      </trkpt>
      <trkpt lat="51.87594" lon="4.36184">
        <ele>3.37</ele>
        <time>2021-03-20T22:38:27Z</time>
      </trkpt>
      <trkpt lat="51.87588" lon="4.36343">
        <ele>4</ele>
        <time>2021-03-20T22:38:32Z</time>
      </trkpt>
      <trkpt lat="51.87568" lon="4.36767">
        <ele>1.86</ele>
        <time>2021-03-20T22:38:38Z</time>
      </trkpt>
      <trkpt lat="51.87567" lon="4.3684">
        <ele>-0.3</ele>
        <time>2021-03-20T22:38:43Z</time>
      </trkpt>
      <trkpt lat="51.87552" lon="4.36996">
        <ele>-3.76</ele>
        <time>2021-03-20T22:38:49Z</time>
      </trkpt>
      <trkpt lat="51.87542" lon="4.37081">
        <ele>-3</ele>
        <time>2021-03-20T22:38:55Z</time>
      </trkpt>
      <trkpt lat="51.87523" lon="4.37182">
        <ele>-3.82</ele>
        <time>2021-03-20T22:39:00Z</time>
      </trkpt>
      <trkpt lat="51.875" lon="4.37273">
        <ele>-4.01</ele>
        <time>2021-03-20T22:39:06Z</time>
      </trkpt>
      <trkpt lat="51.87453" lon="4.37426">
        <ele>0.4</ele>
        <time>2021-03-20T22:39:11Z</time>
      </trkpt>
      <trkpt lat="51.87433" lon="4.375">
        <ele>2.97</ele>
        <time>2021-03-20T22:39:17Z</time>
      </trkpt>
      <trkpt lat="51.87401" lon="4.37668">
        <ele>-1.58</ele>
        <time>2021-03-20T22:39:22Z</time>
      </trkpt>
      <trkpt lat="51.87385" lon="4.37742">
        <ele>-2.26</ele>
        <time>2021-03-20T22:39:28Z</time>
      </trkpt>
      <trkpt lat="51.87359" lon="4.37823">
        <ele>1.3</ele>
        <time>2021-03-20T22:39:33Z</time>
      </trkpt>
      <trkpt lat="51.87336" lon="4.37887">
        <ele>0.96</ele>
        <time>2021-03-20T22:39:39Z</time>
      </trkpt>
      <trkpt lat="51.87322" lon="4.37937">
        <ele>-1.14</ele>
        <time>2021-03-20T22:39:43Z</time>
      </trkpt>
      <trkpt lat="51.87264" lon="4.38118">
        <ele>2.89</ele>
        <time>2021-03-20T22:39:48Z</time>
      </trkpt>
      <trkpt lat="51.87252" lon="4.38163">
        <ele>1.15</ele>
        <time>2021-03-20T22:39:52Z</time>
      </trkpt>
      <trkpt lat="51.87243" lon="4.38207">
        <ele>0.47</ele>
        <time>2021-03-20T22:39:57Z</time>
      </trkpt>
      <trkpt lat="51.87236" lon="4.38253">
        <ele>1.23</ele>
        <time>2021-03-20T22:40:01Z</time>
      </trkpt>
      <trkpt lat="51.87233" lon="4.38319">
        <ele>2.5</ele>
        <time>2021-03-20T22:40:06Z</time>
      </trkpt>
      <trkpt lat="51.87234" lon="4.3836">
        <ele>1.84</ele>
        <time>2021-03-20T22:40:10Z</time>
      </trkpt>
      <trkpt lat="51.87237" lon="4.38402">
        <ele>0.83</ele>
        <time>2021-03-20T22:40:15Z</time>
      </trkpt>
      <trkpt lat="51.87247" lon="4.38465">
        <ele>2.2</ele>
        <time>2021-03-20T22:40:19Z</time>
      </trkpt>
      <trkpt lat="51.87262" lon="4.38521">
        <ele>0.65</ele>
        <time>2021-03-20T22:40:24Z</time>
      </trkpt>
      <trkpt lat="51.87272" lon="4.38548">
        <ele>2.83</ele>
        <time>2021-03-20T22:40:28Z</time>
      </trkpt>
      <trkpt lat="51.87289" lon="4.38589">
        <ele>3.62</ele>
        <time>2021-03-20T22:40:32Z</time>
      </trkpt>
      <trkpt lat="51.87307" lon="4.38626">
        <ele>4.33</ele>
        <time>2021-03-20T22:40:37Z</time>
      </trkpt>
      <trkpt lat="51.87339" lon="4.38675">
        <ele>5.35</ele>
        <time>2021-03-20T22:40:41Z</time>
      </trkpt>
      <trkpt lat="51.87366" lon="4.38705">
        <ele>6.07</ele>
        <time>2021-03-20T22:40:46Z</time>
      </trkpt>
      <trkpt lat="51.87402" lon="4.38735">
        <ele>4.88</ele>
        <time>2021-03-20T22:40:50Z</time>
      </trkpt>
      <trkpt lat="51.87434" lon="4.38754">
        <ele>2.52</ele>
        <time>2021-03-20T22:40:55Z</time>
      </trkpt>
      <trkpt lat="51.87482" lon="4.38771">
        <ele>4.27</ele>
        <time>2021-03-20T22:40:59Z</time>
      </trkpt>
      <trkpt lat="51.87542" lon="4.38773">
        <ele>5.15</ele>
        <time>2021-03-20T22:41:04Z</time>
      </trkpt>
      <trkpt lat="51.87602" lon="4.3875">
        <ele>5.33</ele>
        <time>2021-03-20T22:41:08Z</time>
      </trkpt>
      <trkpt lat="51.87644" lon="4.38723">
        <ele>7.96</ele>
        <time>2021-03-20T22:41:13Z</time>
      </trkpt>
      <trkpt lat="51.87678" lon="4.38694">
        <ele>8.61</ele>
        <time>2021-03-20T22:41:17Z</time>
      </trkpt>
      <trkpt lat="51.87738" lon="4.38649">
        <ele>10.01</ele>
        <time>2021-03-20T22:41:21Z</time>
      </trkpt>
      <trkpt lat="51.87834" lon="4.38555">
        <ele>10.05</ele>
        <time>2021-03-20T22:41:26Z</time>
      </trkpt>
      <trkpt lat="51.87933" lon="4.38468">
        <ele>8</ele>
        <time>2021-03-20T22:41:30Z</time>
      </trkpt>
      <trkpt lat="51.8796" lon="4.38447">
        <ele>9.69</ele>
        <time>2021-03-20T22:41:35Z</time>
      </trkpt>
      <trkpt lat="51.88051" lon="4.38381">
        <ele>6.96</ele>
        <time>2021-03-20T22:41:39Z</time>
      </trkpt>
      <trkpt lat="51.88136" lon="4.38325">
        <ele>5.51</ele>
        <time>2021-03-20T22:41:44Z</time>
      </trkpt>
      <trkpt lat="51.88342" lon="4.38198">
        <ele>6</ele>
        <time>2021-03-20T22:41:48Z</time>
      </trkpt>
      <trkpt lat="51.8846" lon="4.3813">
        <ele>1.36</ele>
        <time>2021-03-20T22:41:53Z</time>
      </trkpt>
      <trkpt lat="51.88635" lon="4.38036">
        <ele>1.95</ele>
        <time>2021-03-20T22:41:57Z</time>
      </trkpt>
      <trkpt lat="51.88807" lon="4.37955">
        <ele>0.07</ele>
        <time>2021-03-20T22:42:02Z</time>
      </trkpt>
      <trkpt lat="51.88916" lon="4.3791">
        <ele>3.27</ele>
        <time>2021-03-20T22:42:06Z</time>
      </trkpt>
      <trkpt lat="51.88955" lon="4.37892">
        <ele>5.26</ele>
        <time>2021-03-20T22:42:14Z</time>
      </trkpt>
      <trkpt lat="51.89032" lon="4.37866">
        <ele>5.13</ele>
        <time>2021-03-20T22:42:23Z</time>
      </trkpt>
      <trkpt lat="51.89186" lon="4.3782">
        <ele>5.34</ele>
        <time>2021-03-20T22:42:31Z</time>
      </trkpt>
      <trkpt lat="51.89267" lon="4.37786">
        <ele>5.38</ele>
        <time>2021-03-20T22:42:39Z</time>
      </trkpt>
      <trkpt lat="51.89352" lon="4.37736">
        <ele>3</ele>
        <time>2021-03-20T22:42:48Z</time>
      </trkpt>
      <trkpt lat="51.89401" lon="4.37699">
        <ele>2.4</ele>
        <time>2021-03-20T22:42:56Z</time>
      </trkpt>
      <trkpt lat="51.89443" lon="4.37663">
        <ele>2.01</ele>
        <time>2021-03-20T22:43:04Z</time>
      </trkpt>
      <trkpt lat="51.89486" lon="4.3762">
        <ele>0.65</ele>
        <time>2021-03-20T22:43:12Z</time>
      </trkpt>
      <trkpt lat="51.89542" lon="4.37559">
        <ele>0.5</ele>
        <time>2021-03-20T22:43:21Z</time>
      </trkpt>
      <trkpt lat="51.89675" lon="4.374">
        <ele>0.38</ele>
        <time>2021-03-20T22:43:29Z</time>
      </trkpt>
      <trkpt lat="51.89797" lon="4.37279">
        <ele>0.29</ele>
        <time>2021-03-20T22:43:37Z</time>
      </trkpt>
      <trkpt lat="51.899" lon="4.37199">
        <ele>0.22</ele>
        <time>2021-03-20T22:43:46Z</time>
      </trkpt>
      <trkpt lat="51.89983" lon="4.37148">
        <ele>0.16</ele>
        <time>2021-03-20T22:43:54Z</time>
      </trkpt>
      <trkpt lat="51.90053" lon="4.3712">
        <ele>0.12</ele>
        <time>2021-03-20T22:44:02Z</time>
      </trkpt>
      <trkpt lat="51.90117" lon="4.37098">
        <ele>0.09</ele>
        <time>2021-03-20T22:44:10Z</time>
      </trkpt>
      <trkpt lat="51.90231" lon="4.37072">
        <ele>0.02</ele>
        <time>2021-03-20T22:44:19Z</time>
      </trkpt>
      <trkpt lat="51.90278" lon="4.37072">
        <ele>-0.01</ele>
        <time>2021-03-20T22:44:27Z</time>
      </trkpt>
      <trkpt lat="51.90364" lon="4.37071">
        <ele>-1.12</ele>
        <time>2021-03-20T22:44:35Z</time>
      </trkpt>
      <trkpt lat="51.90522" lon="4.37091">
        <ele>5</ele>
        <time>2021-03-20T22:44:44Z</time>
      </trkpt>
      <trkpt lat="51.90612" lon="4.37099">
        <ele>4.21</ele>
        <time>2021-03-20T22:44:52Z</time>
      </trkpt>
      <trkpt lat="51.9072" lon="4.37098">
        <ele>2.61</ele>
        <time>2021-03-20T22:45:00Z</time>
      </trkpt>
      <trkpt lat="51.90786" lon="4.3709">
        <ele>5.76</ele>
        <time>2021-03-20T22:45:08Z</time>
      </trkpt>
      <trkpt lat="51.90857" lon="4.37075">
        <ele>5.12</ele>
        <time>2021-03-20T22:45:17Z</time>
      </trkpt>
      <trkpt lat="51.90918" lon="4.37057">
        <ele>1.03</ele>
        <time>2021-03-20T22:45:25Z</time>
      </trkpt>
      <trkpt lat="51.91031" lon="4.37011">
        <ele>2.79</ele>
        <time>2021-03-20T22:45:33Z</time>
      </trkpt>
      <trkpt lat="51.9118" lon="4.3693">
        <ele>-5.03</ele>
        <time>2021-03-20T22:45:42Z</time>
      </trkpt>
      <trkpt lat="51.91246" lon="4.36897">
        <ele>-7.51</ele>
        <time>2021-03-20T22:45:50Z</time>
      </trkpt>
      <trkpt lat="51.91294" lon="4.36876">
        <ele>-3.4</ele>
        <time>2021-03-20T22:45:58Z</time>
      </trkpt>
      <trkpt lat="51.91419" lon="4.3683">
        <ele>-2.81</ele>
        <time>2021-03-20T22:46:06Z</time>
      </trkpt>
      <trkpt lat="51.91495" lon="4.36798">
        <ele>-4.62</ele>
        <time>2021-03-20T22:46:15Z</time>
      </trkpt>
      <trkpt lat="51.91539" lon="4.36785">
        <ele>-5</ele>
        <time>2021-03-20T22:46:23Z</time>
      </trkpt>
      <trkpt lat="51.91629" lon="4.36753">
        <ele>-3.83</ele>
        <time>2021-03-20T22:46:31Z</time>
      </trkpt>
      <trkpt lat="51.91817" lon="4.36698">
        <ele>0.43</ele>
        <time>2021-03-20T22:46:40Z</time>
      </trkpt>
      <trkpt lat="51.9191" lon="4.36674">
        <ele>1.23</ele>
        <time>2021-03-20T22:46:48Z</time>
      </trkpt>
      <trkpt lat="51.92121" lon="4.36642">
        <ele>0.95</ele>
        <time>2021-03-20T22:46:56Z</time>
      </trkpt>
      <trkpt lat="51.92297" lon="4.36612">
        <ele>2.65</ele>
        <time>2021-03-20T22:47:04Z</time>
      </trkpt>
      <trkpt lat="51.92514" lon="4.36586">
        <ele>0.29</ele>
        <time>2021-03-20T22:47:13Z</time>
      </trkpt>
      <trkpt lat="51.92713" lon="4.36552">
        <ele>6.67</ele>
        <time>2021-03-20T22:47:21Z</time>
      </trkpt>
      <trkpt lat="51.92857" lon="4.36515">
        <ele>8.99</ele>
        <time>2021-03-20T22:47:29Z</time>
      </trkpt>
      <trkpt lat="51.92923" lon="4.36502">
        <ele>8.52</ele>
        <time>2021-03-20T22:47:38Z</time>
      </trkpt>
      <trkpt lat="51.93014" lon="4.36485">
        <ele>6.99</ele>
        <time>2021-03-20T22:47:46Z</time>
      </trkpt>
      <trkpt lat="51.93113" lon="4.3647">
        <ele>6.18</ele>
        <time>2021-03-20T22:47:54Z</time>
      </trkpt>
      <trkpt lat="51.93188" lon="4.36459">
        <ele>5.77</ele>
        <time>2021-03-20T22:48:02Z</time>
      </trkpt>
      <trkpt lat="51.9334" lon="4.36428">
        <ele>4.95</ele>
        <time>2021-03-20T22:48:11Z</time>
      </trkpt>
      <trkpt lat="51.9346" lon="4.36389">
        <ele>4.28</ele>
        <time>2021-03-20T22:48:19Z</time>
      </trkpt>
      <trkpt lat="51.93613" lon="4.36323">
        <ele>3.41</ele>
        <time>2021-03-20T22:48:27Z</time>
      </trkpt>
      <trkpt lat="51.93766" lon="4.3624">
        <ele>2.5</ele>
        <time>2021-03-20T22:48:36Z</time>
      </trkpt>
      <trkpt lat="51.93917" lon="4.36142">
        <ele>1.56</ele>
        <time>2021-03-20T22:48:44Z</time>
      </trkpt>
      <trkpt lat="51.94099" lon="4.36016">
        <ele>0.39</ele>
        <time>2021-03-20T22:48:52Z</time>
      </trkpt>
      <trkpt lat="51.94466" lon="4.35749">
        <ele>-2</ele>
        <time>2021-03-20T22:49:00Z</time>
      </trkpt>
      <trkpt lat="51.94957" lon="4.35395">
        <ele>-4.91</ele>
        <time>2021-03-20T22:49:09Z</time>
      </trkpt>
      <trkpt lat="51.9512" lon="4.35271">
        <ele>-3</ele>
        <time>2021-03-20T22:49:17Z</time>
      </trkpt>
      <trkpt lat="51.95203" lon="4.35206">
        <ele>-4.7</ele>
        <time>2021-03-20T22:49:25Z</time>
      </trkpt>
      <trkpt lat="51.95455" lon="4.35018">
        <ele>-4</ele>
        <time>2021-03-20T22:49:34Z</time>
      </trkpt>
      <trkpt lat="51.95561" lon="4.34944">
        <ele>-2.83</ele>
        <time>2021-03-20T22:49:42Z</time>
      </trkpt>
      <trkpt lat="51.95687" lon="4.34862">
        <ele>-2.99</ele>
        <time>2021-03-20T22:49:50Z</time>
      </trkpt>
      <trkpt lat="51.95765" lon="4.34815">
        <ele>-3.84</ele>
        <time>2021-03-20T22:49:58Z</time>
      </trkpt>
      <trkpt lat="51.95944" lon="4.34711">
        <ele>-5</ele>
        <time>2021-03-20T22:50:07Z</time>
      </trkpt>
      <trkpt lat="51.96101" lon="4.34625">
        <ele>-3.64</ele>
        <time>2021-03-20T22:50:15Z</time>
      </trkpt>
      <trkpt lat="51.9656" lon="4.34395">
        <ele>-4.17</ele>
        <time>2021-03-20T22:50:23Z</time>
      </trkpt>
      <trkpt lat="51.96688" lon="4.34324">
        <ele>-4.14</ele>
        <time>2021-03-20T22:50:32Z</time>
      </trkpt>
      <trkpt lat="51.968" lon="4.34256">
        <ele>-3.39</ele>
        <time>2021-03-20T22:50:40Z</time>
      </trkpt>
      <trkpt lat="51.96895" lon="4.34194">
        <ele>-4</ele>
        <time>2021-03-20T22:50:48Z</time>
      </trkpt>
      <trkpt lat="51.9699" lon="4.34128">
        <ele>-3.64</ele>
        <time>2021-03-20T22:50:56Z</time>
      </trkpt>
      <trkpt lat="51.97143" lon="4.34011">
        <ele>-5</ele>
        <time>2021-03-20T22:51:05Z</time>
      </trkpt>
      <trkpt lat="51.97325" lon="4.33859">
        <ele>-4</ele>
        <time>2021-03-20T22:51:13Z</time>
      </trkpt>
      <trkpt lat="51.9784" lon="4.33386">
        <ele>-4.31</ele>
        <time>2021-03-20T22:51:21Z</time>
      </trkpt>
      <trkpt lat="51.98154" lon="4.33105">
        <ele>-5.33</ele>
        <time>2021-03-20T22:51:30Z</time>
      </trkpt>
      <trkpt lat="51.98641" lon="4.32657">
        <ele>-3.2</ele>
        <time>2021-03-20T22:51:38Z</time>
      </trkpt>
      <trkpt lat="51.98945" lon="4.32372">
        <ele>-5.98</ele>
        <time>2021-03-20T22:51:46Z</time>
      </trkpt>
      <trkpt lat="51.98954" lon="4.32364">
        <ele>-5.7</ele>
        <time>2021-03-20T22:51:54Z</time>
      </trkpt>
      <trkpt lat="51.98962" lon="4.32357">
        <ele>-5.37</ele>
        <time>2021-03-20T22:52:03Z</time>
      </trkpt>
      <trkpt lat="51.98975" lon="4.32344">
        <ele>-4.89</ele>
        <time>2021-03-20T22:52:11Z</time>
      </trkpt>
      <trkpt lat="51.98979" lon="4.3234">
        <ele>-4.75</ele>
        <time>2021-03-20T22:52:19Z</time>
      </trkpt>
      <trkpt lat="51.98989" lon="4.32331">
        <ele>-4.47</ele>
        <time>2021-03-20T22:52:28Z</time>
      </trkpt>
      <trkpt lat="51.99613" lon="4.31745">
        <ele>-1.84</ele>
        <time>2021-03-20T22:52:36Z</time>
      </trkpt>
      <trkpt lat="51.99757" lon="4.31604">
        <ele>-3.18</ele>
        <time>2021-03-20T22:52:44Z</time>
      </trkpt>
      <trkpt lat="51.99915" lon="4.31452">
        <ele>-2.94</ele>
        <time>2021-03-20T22:52:52Z</time>
      </trkpt>
      <trkpt lat="52.00009" lon="4.31369">
        <ele>-4.29</ele>
        <time>2021-03-20T22:53:01Z</time>
      </trkpt>
      <trkpt lat="52.00087" lon="4.31305">
        <ele>-3</ele>
        <time>2021-03-20T22:53:09Z</time>
      </trkpt>
      <trkpt lat="52.00212" lon="4.31217">
        <ele>-4</ele>
        <time>2021-03-20T22:53:17Z</time>
      </trkpt>
      <trkpt lat="52.003" lon="4.31169">
        <ele>-3.43</ele>
        <time>2021-03-20T22:53:26Z</time>
      </trkpt>
      <trkpt lat="52.00345" lon="4.31146">
        <ele>-3.74</ele>
        <time>2021-03-20T22:53:34Z</time>
      </trkpt>
      <trkpt lat="52.00409" lon="4.31121">
        <ele>-4.91</ele>
        <time>2021-03-20T22:53:42Z</time>
      </trkpt>
      <trkpt lat="52.00527" lon="4.31085">
        <ele>-3.92</ele>
        <time>2021-03-20T22:53:50Z</time>
      </trkpt>
      <trkpt lat="52.00568" lon="4.31077">
        <ele>-3.31</ele>
        <time>2021-03-20T22:53:59Z</time>
      </trkpt>
      <trkpt lat="52.00608" lon="4.31073">
        <ele>-3.82</ele>
        <time>2021-03-20T22:54:07Z</time>
      </trkpt>
      <trkpt lat="52.00684" lon="4.31068">
        <ele>-3.73</ele>
        <time>2021-03-20T22:54:15Z</time>
      </trkpt>
      <trkpt lat="52.0075" lon="4.3107">
        <ele>-4.01</ele>
        <time>2021-03-20T22:54:24Z</time>
      </trkpt>
      <trkpt lat="52.00839" lon="4.3108">
        <ele>-5</ele>
        <time>2021-03-20T22:54:32Z</time>
      </trkpt>
      <trkpt lat="52.00915" lon="4.31096">
        <ele>-4.53</ele>
        <time>2021-03-20T22:54:40Z</time>
      </trkpt>
      <trkpt lat="52.00987" lon="4.31119">
        <ele>-2.27</ele>
        <time>2021-03-20T22:54:48Z</time>
      </trkpt>
      <trkpt lat="52.01045" lon="4.31141">
        <ele>-1.43</ele>
        <time>2021-03-20T22:54:57Z</time>
      </trkpt>
      <trkpt lat="52.01102" lon="4.31168">
        <ele>-2.43</ele>
        <time>2021-03-20T22:55:05Z</time>
      </trkpt>
      <trkpt lat="52.01171" lon="4.31207">
        <ele>-6.65</ele>
        <time>2021-03-20T22:55:13Z</time>
      </trkpt>
      <trkpt lat="52.01295" lon="4.31285">
        <ele>-2.15</ele>
        <time>2021-03-20T22:55:22Z</time>
      </trkpt>
      <trkpt lat="52.01421" lon="4.31375">
        <ele>-4.51</ele>
        <time>2021-03-20T22:55:30Z</time>
      </trkpt>
      <trkpt lat="52.01487" lon="4.31426">
        <ele>-5.34</ele>
        <time>2021-03-20T22:55:38Z</time>
      </trkpt>
      <trkpt lat="52.01942" lon="4.31756">
        <ele>-2.19</ele>
        <time>2021-03-20T22:55:46Z</time>
      </trkpt>
      <trkpt lat="52.02282" lon="4.32004">
        <ele>-5.68</ele>
        <time>2021-03-20T22:55:55Z</time>
      </trkpt>
      <trkpt lat="52.02379" lon="4.32082">
        <ele>-2</ele>
        <time>2021-03-20T22:56:03Z</time>
      </trkpt>
      <trkpt lat="52.02471" lon="4.3216">
        <ele>-10.42</ele>
        <time>2021-03-20T22:56:11Z</time>
      </trkpt>
      <trkpt lat="52.02563" lon="4.32245">
        <ele>-7.34</ele>
        <time>2021-03-20T22:56:20Z</time>
      </trkpt>
      <trkpt lat="52.02628" lon="4.32308">
        <ele>-9.17</ele>
        <time>2021-03-20T22:56:28Z</time>
      </trkpt>
      <trkpt lat="52.02813" lon="4.32503">
        <ele>-4.62</ele>
        <time>2021-03-20T22:56:36Z</time>
      </trkpt>
      <trkpt lat="52.02913" lon="4.32614">
        <ele>-6.64</ele>
        <time>2021-03-20T22:56:44Z</time>
      </trkpt>
      <trkpt lat="52.03123" lon="4.32881">
        <ele>-3.87</ele>
        <time>2021-03-20T22:56:53Z</time>
      </trkpt>
      <trkpt lat="52.03183" lon="4.32963">
        <ele>-1</ele>
        <time>2021-03-20T22:57:01Z</time>
      </trkpt>
      <trkpt lat="52.03337" lon="4.33193">
        <ele>0.81</ele>
        <time>2021-03-20T22:57:09Z</time>
      </trkpt>
      <trkpt lat="52.0356" lon="4.33538">
        <ele>4.79</ele>
        <time>2021-03-20T22:57:18Z</time>
      </trkpt>
      <trkpt lat="52.03585" lon="4.33598">
        <ele>6.41</ele>
        <time>2021-03-20T22:57:23Z</time>
      </trkpt>
      <trkpt lat="52.03702" lon="4.33798">
        <ele>4.26</ele>
        <time>2021-03-20T22:57:29Z</time>
      </trkpt>
      <trkpt lat="52.03727" lon="4.33836">
        <ele>3.21</ele>
        <time>2021-03-20T22:57:34Z</time>
      </trkpt>
      <trkpt lat="52.03828" lon="4.33994">
        <ele>10.43</ele>
        <time>2021-03-20T22:57:45Z</time>
      </trkpt>
      <trkpt lat="52.04054" lon="4.34386">
        <ele>6.02</ele>
        <time>2021-03-20T22:57:55Z</time>
      </trkpt>
      <trkpt lat="52.04115" lon="4.34499">
        <ele>10.95</ele>
        <time>2021-03-20T22:58:06Z</time>
      </trkpt>
      <trkpt lat="52.04167" lon="4.34599">
        <ele>5.87</ele>
        <time>2021-03-20T22:58:16Z</time>
      </trkpt>
      <trkpt lat="52.0425" lon="4.34762">
        <ele>6.58</ele>
        <time>2021-03-20T22:58:28Z</time>
      </trkpt>
      <trkpt lat="52.04315" lon="4.34896">
        <ele>4.1</ele>
        <time>2021-03-20T22:58:40Z</time>
      </trkpt>
      <trkpt lat="52.04397" lon="4.35084">
        <ele>0.98</ele>
        <time>2021-03-20T22:58:51Z</time>
      </trkpt>
      <trkpt lat="52.04472" lon="4.35244">
        <ele>2</ele>
        <time>2021-03-20T22:59:03Z</time>
      </trkpt>
      <trkpt lat="52.04559" lon="4.35413">
        <ele>2.36</ele>
        <time>2021-03-20T22:59:14Z</time>
      </trkpt>
      <trkpt lat="52.04584" lon="4.35455">
        <ele>1.61</ele>
        <time>2021-03-20T22:59:26Z</time>
      </trkpt>
      <trkpt lat="52.04604" lon="4.35497">
        <ele>0.76</ele>
        <time>2021-03-20T22:59:37Z</time>
      </trkpt>
      <trkpt lat="52.04682" lon="4.35643">
        <ele>0.08</ele>
        <time>2021-03-20T22:59:49Z</time>
      </trkpt>
      <trkpt lat="52.04702" lon="4.35679">
        <ele>-1.59</ele>
        <time>2021-03-20T23:00:00Z</time>
      </trkpt>
      <trkpt lat="52.04828" lon="4.35884">
        <ele>-1.16</ele>
        <time>2021-03-20T23:00:12Z</time>
      </trkpt>
      <trkpt lat="52.04958" lon="4.36072">
        <ele>-0.01</ele>
        <time>2021-03-20T23:00:23Z</time>
      </trkpt>
      <trkpt lat="52.05165" lon="4.3634">
        <ele>-0.94</ele>
        <time>2021-03-20T23:00:35Z</time>
      </trkpt>
      <trkpt lat="52.05233" lon="4.36417">
        <ele>-2.39</ele>
        <time>2021-03-20T23:00:46Z</time>
      </trkpt>
      <trkpt lat="52.05274" lon="4.36469">
        <ele>-2.01</ele>
        <time>2021-03-20T23:00:58Z</time>
      </trkpt>
      <trkpt lat="52.06005" lon="4.37339">
        <ele>6.82</ele>
        <time>2021-03-20T23:01:09Z</time>
      </trkpt>
      <trkpt lat="52.06408" lon="4.37805">
        <ele>2</ele>
        <time>2021-03-20T23:01:21Z</time>
      </trkpt>
      <trkpt lat="52.06508" lon="4.37924">
        <ele>1.22</ele>
        <time>2021-03-20T23:01:32Z</time>
      </trkpt>
      <trkpt lat="52.06564" lon="4.38002">
        <ele>-5</ele>
        <time>2021-03-20T23:01:41Z</time>
      </trkpt>
      <trkpt lat="52.06624" lon="4.38081">
        <ele>-1.08</ele>
        <time>2021-03-20T23:01:50Z</time>
      </trkpt>
      <trkpt lat="52.06692" lon="4.38182">
        <ele>-2</ele>
        <time>2021-03-20T23:01:58Z</time>
      </trkpt>
      <trkpt lat="52.06857" lon="4.38464">
        <ele>-0.87</ele>
        <time>2021-03-20T23:02:07Z</time>
      </trkpt>
      <trkpt lat="52.06917" lon="4.38571">
        <ele>-6</ele>
        <time>2021-03-20T23:02:15Z</time>
      </trkpt>
      <trkpt lat="52.0698" lon="4.38691">
        <ele>-2.74</ele>
        <time>2021-03-20T23:02:24Z</time>
      </trkpt>
      <trkpt lat="52.07035" lon="4.38806">
        <ele>-5.01</ele>
        <time>2021-03-20T23:02:32Z</time>
      </trkpt>
      <trkpt lat="52.07083" lon="4.38916">
        <ele>-6.98</ele>
        <time>2021-03-20T23:02:41Z</time>
      </trkpt>
      <trkpt lat="52.07261" lon="4.39354">
        <ele>-5</ele>
        <time>2021-03-20T23:02:49Z</time>
      </trkpt>
      <trkpt lat="52.07331" lon="4.39536">
        <ele>-5.93</ele>
        <time>2021-03-20T23:02:58Z</time>
      </trkpt>
      <trkpt lat="52.0747" lon="4.39923">
        <ele>-4.78</ele>
        <time>2021-03-20T23:03:10Z</time>
      </trkpt>
      <trkpt lat="52.07524" lon="4.4006">
        <ele>-4</ele>
        <time>2021-03-20T23:03:22Z</time>
      </trkpt>
      <trkpt lat="52.07594" lon="4.40213">
        <ele>-2.65</ele>
        <time>2021-03-20T23:03:35Z</time>
      </trkpt>
      <trkpt lat="52.07677" lon="4.40363">
        <ele>-0.9</ele>
        <time>2021-03-20T23:03:47Z</time>
      </trkpt>
      <trkpt lat="52.07721" lon="4.40435">
        <ele>1.29</ele>
        <time>2021-03-20T23:03:59Z</time>
      </trkpt>
      <trkpt lat="52.07813" lon="4.40571">
        <ele>1.28</ele>
        <time>2021-03-20T23:04:12Z</time>
      </trkpt>
      <trkpt lat="52.07857" lon="4.40617">
        <ele>4.51</ele>
        <time>2021-03-20T23:04:24Z</time>
      </trkpt>
      <trkpt lat="52.079" lon="4.40675">
        <ele>1</ele>
        <time>2021-03-20T23:04:37Z</time>
      </trkpt>
      <trkpt lat="52.08076" lon="4.40893">
        <ele>-3.75</ele>
        <time>2021-03-20T23:04:49Z</time>
      </trkpt>
      <trkpt lat="52.08231" lon="4.4109">
        <ele>-3.62</ele>
        <time>2021-03-20T23:05:01Z</time>
      </trkpt>
      <trkpt lat="52.08336" lon="4.41237">
        <ele>-4.49</ele>
        <time>2021-03-20T23:05:14Z</time>
      </trkpt>
      <trkpt lat="52.08405" lon="4.41341">
        <ele>-4.59</ele>
        <time>2021-03-20T23:05:26Z</time>
      </trkpt>
      <trkpt lat="52.08475" lon="4.41452">
        <ele>-3</ele>
        <time>2021-03-20T23:05:38Z</time>
      </trkpt>
      <trkpt lat="52.08576" lon="4.41629">
        <ele>-5</ele>
        <time>2021-03-20T23:05:51Z</time>
      </trkpt>
      <trkpt lat="52.08832" lon="4.42102">
        <ele>-4.02</ele>
        <time>2021-03-20T23:06:03Z</time>
      </trkpt>
      <trkpt lat="52.09236" lon="4.42857">
        <ele>-4.49</ele>
        <time>2021-03-20T23:06:15Z</time>
      </trkpt>
      <trkpt lat="52.09609" lon="4.43607">
        <ele>-4</ele>
        <time>2021-03-20T23:06:28Z</time>
      </trkpt>
      <trkpt lat="52.10182" lon="4.44766">
        <ele>-4.44</ele>
        <time>2021-03-20T23:06:40Z</time>
      </trkpt>
      <trkpt lat="52.10399" lon="4.4517">
        <ele>-5.57</ele>
        <time>2021-03-20T23:06:52Z</time>
      </trkpt>
      <trkpt lat="52.10496" lon="4.45325">
        <ele>-4.16</ele>
        <time>2021-03-20T23:07:05Z</time>
      </trkpt>
      <trkpt lat="52.10605" lon="4.45489">
        <ele>-0.52</ele>
        <time>2021-03-20T23:07:17Z</time>
      </trkpt>
      <trkpt lat="52.10758" lon="4.45691">
        <ele>-1.67</ele>
        <time>2021-03-20T23:07:30Z</time>
      </trkpt>
      <trkpt lat="52.11093" lon="4.46119">
        <ele>1.05</ele>
        <time>2021-03-20T23:07:42Z</time>
      </trkpt>
      <trkpt lat="52.11169" lon="4.46214">
        <ele>-1.61</ele>
        <time>2021-03-20T23:07:54Z</time>
      </trkpt>
      <trkpt lat="52.11289" lon="4.46354">
        <ele>0.4</ele>
        <time>2021-03-20T23:08:07Z</time>
      </trkpt>
      <trkpt lat="52.11573" lon="4.4671">
        <ele>-1.12</ele>
        <time>2021-03-20T23:08:19Z</time>
      </trkpt>
      <trkpt lat="52.11685" lon="4.46862">
        <ele>-0.69</ele>
        <time>2021-03-20T23:08:31Z</time>
      </trkpt>
      <trkpt lat="52.11887" lon="4.47149">
        <ele>-1.58</ele>
        <time>2021-03-20T23:08:44Z</time>
      </trkpt>
      <trkpt lat="52.12014" lon="4.4734">
        <ele>-1.49</ele>
        <time>2021-03-20T23:08:56Z</time>
      </trkpt>
      <trkpt lat="52.12188" lon="4.47615">
        <ele>-4.24</ele>
        <time>2021-03-20T23:09:08Z</time>
      </trkpt>
      <trkpt lat="52.12285" lon="4.47774">
        <ele>-3.89</ele>
        <time>2021-03-20T23:09:21Z</time>
      </trkpt>
      <trkpt lat="52.12336" lon="4.47876">
        <ele>-0.53</ele>
        <time>2021-03-20T23:09:33Z</time>
      </trkpt>
      <trkpt lat="52.12684" lon="4.48548">
        <ele>-2.9</ele>
        <time>2021-03-20T23:09:46Z</time>
      </trkpt>
      <trkpt lat="52.12752" lon="4.48682">
        <ele>-3.06</ele>
        <time>2021-03-20T23:09:58Z</time>
      </trkpt>
      <trkpt lat="52.12877" lon="4.48949">
        <ele>-0.03</ele>
        <time>2021-03-20T23:10:07Z</time>
      </trkpt>
      <trkpt lat="52.12951" lon="4.49113">
        <ele>-1</ele>
        <time>2021-03-20T23:10:15Z</time>
      </trkpt>
      <trkpt lat="52.13017" lon="4.49261">
        <ele>-1.76</ele>
        <time>2021-03-20T23:10:24Z</time>
      </trkpt>
      <trkpt lat="52.13123" lon="4.49509">
        <time>2021-03-20T23:10:33Z</time>
      </trkpt>
      <trkpt lat="52.13235" lon="4.4974">
        <ele>1.47</ele>
        <time>2021-03-20T23:10:42Z</time>
      </trkpt>
      <trkpt lat="52.13503" lon="4.50266">
        <ele>0.82</ele>
        <time>2021-03-20T23:10:50Z</time>
      </trkpt>
      <trkpt lat="52.13594" lon="4.50439">
        <ele>-2.79</ele>
        <time>2021-03-20T23:10:59Z</time>
      </trkpt>
      <trkpt lat="52.1364" lon="4.50514">
        <ele>-2.96</ele>
        <time>2021-03-20T23:11:08Z</time>
      </trkpt>
      <trkpt lat="52.13719" lon="4.50632">
        <ele>1.07</ele>
        <time>2021-03-20T23:11:17Z</time>
      </trkpt>
      <trkpt lat="52.13814" lon="4.50752">
        <ele>0.04</ele>
        <time>2021-03-20T23:11:28Z</time>
      </trkpt>
      <trkpt lat="52.13867" lon="4.50812">
        <ele>1.22</ele>
        <time>2021-03-20T23:11:39Z</time>
      </trkpt>
      <trkpt lat="52.13963" lon="4.50914">
        <ele>1.66</ele>
        <time>2021-03-20T23:11:50Z</time>
      </trkpt>
      <trkpt lat="52.14217" lon="4.51199">
        <ele>3.48</ele>
        <time>2021-03-20T23:12:01Z</time>
      </trkpt>
      <trkpt lat="52.14265" lon="4.51259">
        <ele>2.39</ele>
        <time>2021-03-20T23:12:12Z</time>
      </trkpt>
      <trkpt lat="52.14322" lon="4.51335">
        <ele>-1.87</ele>
        <time>2021-03-20T23:12:23Z</time>
      </trkpt>
      <trkpt lat="52.14356" lon="4.51385">
        <ele>-1.22</ele>
        <time>2021-03-20T23:12:35Z</time>
      </trkpt>
      <trkpt lat="52.14396" lon="4.51449">
        <ele>-0.58</ele>
        <time>2021-03-20T23:12:46Z</time>
      </trkpt>
      <trkpt lat="52.14442" lon="4.51528">
        <ele>3.92</ele>
        <time>2021-03-20T23:12:57Z</time>
      </trkpt>
      <trkpt lat="52.14487" lon="4.51612">
        <ele>0.52</ele>
        <time>2021-03-20T23:13:08Z</time>
      </trkpt>
      <trkpt lat="52.14558" lon="4.51752">
        <ele>0.82</ele>
        <time>2021-03-20T23:13:19Z</time>
      </trkpt>
      <trkpt lat="52.146" lon="4.51865">
        <ele>1.05</ele>
        <time>2021-03-20T23:13:30Z</time>
      </trkpt>
      <trkpt lat="52.14649" lon="4.52025">
        <ele>1.36</ele>
        <time>2021-03-20T23:13:41Z</time>
      </trkpt>
      <trkpt lat="52.14807" lon="4.5258">
        <ele>2.44</ele>
        <time>2021-03-20T23:13:52Z</time>
      </trkpt>
      <trkpt lat="52.14856" lon="4.52741">
        <ele>2.76</ele>
        <time>2021-03-20T23:14:03Z</time>
      </trkpt>
      <trkpt lat="52.14905" lon="4.52891">
        <ele>3.06</ele>
        <time>2021-03-20T23:14:14Z</time>
      </trkpt>
      <trkpt lat="52.14936" lon="4.52978">
        <ele>3.23</ele>
        <time>2021-03-20T23:14:26Z</time>
      </trkpt>
      <trkpt lat="52.14987" lon="4.5313">
        <ele>4.18</ele>
        <time>2021-03-20T23:14:37Z</time>
      </trkpt>
      <trkpt lat="52.15114" lon="4.5344">
        <ele>-0.55</ele>
        <time>2021-03-20T23:14:48Z</time>
      </trkpt>
      <trkpt lat="52.15211" lon="4.5366">
        <ele>2.6</ele>
        <time>2021-03-20T23:14:59Z</time>
      </trkpt>
      <trkpt lat="52.1563" lon="4.5457">
        <ele>1</ele>
        <time>2021-03-20T23:15:10Z</time>
      </trkpt>
      <trkpt lat="52.15898" lon="4.55117">
        <ele>0.34</ele>
        <time>2021-03-20T23:15:21Z</time>
      </trkpt>
      <trkpt lat="52.16003" lon="4.55305">
        <ele>1</ele>
        <time>2021-03-20T23:15:32Z</time>
      </trkpt>
      <trkpt lat="52.16137" lon="4.55529">
        <ele>-0.16</ele>
        <time>2021-03-20T23:15:43Z</time>
      </trkpt>
      <trkpt lat="52.16297" lon="4.55766">
        <ele>-0.81</ele>
        <time>2021-03-20T23:15:54Z</time>
      </trkpt>
      <trkpt lat="52.16372" lon="4.55867">
        <ele>-0.61</ele>
        <time>2021-03-20T23:16:05Z</time>
      </trkpt>
      <trkpt lat="52.16471" lon="4.5599">
        <ele>-1.35</ele>
        <time>2021-03-20T23:16:17Z</time>
      </trkpt>
      <trkpt lat="52.16645" lon="4.56192">
        <ele>-2.6</ele>
        <time>2021-03-20T23:16:28Z</time>
      </trkpt>
      <trkpt lat="52.16723" lon="4.56276">
        <ele>-0.92</ele>
        <time>2021-03-20T23:16:39Z</time>
      </trkpt>
      <trkpt lat="52.16872" lon="4.56448">
        <ele>0.38</ele>
        <time>2021-03-20T23:16:50Z</time>
      </trkpt>
      <trkpt lat="52.16979" lon="4.56598">
        <ele>-2.24</ele>
        <time>2021-03-20T23:17:01Z</time>
      </trkpt>
      <trkpt lat="52.17124" lon="4.56821">
        <ele>-1.74</ele>
        <time>2021-03-20T23:17:12Z</time>
      </trkpt>
      <trkpt lat="52.1718" lon="4.56922">
        <ele>-2.42</ele>
        <time>2021-03-20T23:17:23Z</time>
      </trkpt>
      <trkpt lat="52.17263" lon="4.57085">
        <ele>-1.95</ele>
        <time>2021-03-20T23:17:34Z</time>
      </trkpt>
      <trkpt lat="52.17354" lon="4.57296">
        <time>2021-03-20T23:17:45Z</time>
      </trkpt>
      <trkpt lat="52.17433" lon="4.57505">
        <ele>-1.67</ele>
        <time>2021-03-20T23:17:56Z</time>
      </trkpt>
      <trkpt lat="52.17546" lon="4.57813">
        <ele>-1.52</ele>
        <time>2021-03-20T23:18:08Z</time>
      </trkpt>
      <trkpt lat="52.17627" lon="4.58024">
        <ele>-1.45</ele>
        <time>2021-03-20T23:18:19Z</time>
      </trkpt>
      <trkpt lat="52.17712" lon="4.5824">
        <ele>-0.38</ele>
        <time>2021-03-20T23:18:30Z</time>
      </trkpt>
      <trkpt lat="52.17864" lon="4.58607">
        <ele>-1.01</ele>
        <time>2021-03-20T23:18:41Z</time>
      </trkpt>
      <trkpt lat="52.17966" lon="4.58846">
        <ele>-1</ele>
        <time>2021-03-20T23:18:52Z</time>
      </trkpt>
      <trkpt lat="52.18152" lon="4.5932">
        <ele>1.24</ele>
        <time>2021-03-20T23:19:03Z</time>
      </trkpt>
      <trkpt lat="52.18223" lon="4.59485">
        <ele>-0.46</ele>
        <time>2021-03-20T23:19:14Z</time>
      </trkpt>
      <trkpt lat="52.18276" lon="4.59596">
        <ele>-3.5</ele>
        <time>2021-03-20T23:19:25Z</time>
      </trkpt>
      <trkpt lat="52.18324" lon="4.59691">
        <ele>-1.34</ele>
        <time>2021-03-20T23:19:36Z</time>
      </trkpt>
      <trkpt lat="52.18359" lon="4.59756">
        <ele>-2.08</ele>
        <time>2021-03-20T23:19:48Z</time>
      </trkpt>
      <trkpt lat="52.18482" lon="4.59957">
        <ele>-2.92</ele>
        <time>2021-03-20T23:19:59Z</time>
      </trkpt>
      <trkpt lat="52.18604" lon="4.60135">
        <ele>-4.25</ele>
        <time>2021-03-20T23:20:10Z</time>
      </trkpt>
      <trkpt lat="52.18777" lon="4.60344">
        <ele>-4.59</ele>
        <time>2021-03-20T23:20:21Z</time>
      </trkpt>
      <trkpt lat="52.18887" lon="4.60457">
        <ele>-2.94</ele>
        <time>2021-03-20T23:20:32Z</time>
      </trkpt>
      <trkpt lat="52.18965" lon="4.60531">
        <ele>-1.89</ele>
        <time>2021-03-20T23:20:43Z</time>
      </trkpt>
      <trkpt lat="52.19016" lon="4.60583">
        <ele>-1.59</ele>
        <time>2021-03-20T23:20:54Z</time>
      </trkpt>
      <trkpt lat="52.1911" lon="4.60665">
        <ele>-3</ele>
        <time>2021-03-20T23:21:05Z</time>
      </trkpt>
      <trkpt lat="52.19226" lon="4.60774">
        <ele>-1.87</ele>
        <time>2021-03-20T23:21:16Z</time>
      </trkpt>
      <trkpt lat="52.1936" lon="4.60897">
        <ele>-2.36</ele>
        <time>2021-03-20T23:21:27Z</time>
      </trkpt>
      <trkpt lat="52.19919" lon="4.6142">
        <ele>-2.86</ele>
        <time>2021-03-20T23:21:39Z</time>
      </trkpt>
      <trkpt lat="52.20705" lon="4.6215">
        <ele>-4.03</ele>
        <time>2021-03-20T23:21:50Z</time>
      </trkpt>
      <trkpt lat="52.20891" lon="4.62307">
        <ele>-2.01</ele>
        <time>2021-03-20T23:22:01Z</time>
      </trkpt>
      <trkpt lat="52.21087" lon="4.62456">
        <ele>-3.7</ele>
        <time>2021-03-20T23:22:12Z</time>
      </trkpt>
      <trkpt lat="52.21215" lon="4.62542">
        <ele>-4.52</ele>
        <time>2021-03-20T23:22:23Z</time>
      </trkpt>
      <trkpt lat="52.21369" lon="4.6264">
        <ele>-3.03</ele>
        <time>2021-03-20T23:22:34Z</time>
      </trkpt>
      <trkpt lat="52.21524" lon="4.62729">
        <ele>-1.89</ele>
        <time>2021-03-20T23:22:45Z</time>
      </trkpt>
      <trkpt lat="52.21609" lon="4.62777">
        <ele>3.95</ele>
        <time>2021-03-20T23:22:56Z</time>
      </trkpt>
      <trkpt lat="52.21768" lon="4.62866">
        <ele>-2</ele>
        <time>2021-03-20T23:23:07Z</time>
      </trkpt>
      <trkpt lat="52.21854" lon="4.62918">
        <ele>-2.37</ele>
        <time>2021-03-20T23:23:18Z</time>
      </trkpt>
      <trkpt lat="52.21907" lon="4.62956">
        <ele>-2.76</ele>
        <time>2021-03-20T23:23:30Z</time>
      </trkpt>
      <trkpt lat="52.22028" lon="4.63057">
        <ele>-2.03</ele>
        <time>2021-03-20T23:23:41Z</time>
      </trkpt>
      <trkpt lat="52.22093" lon="4.63124">
        <ele>-2.1</ele>
        <time>2021-03-20T23:23:52Z</time>
      </trkpt>
      <trkpt lat="52.22191" lon="4.63242">
        <ele>-1.94</ele>
        <time>2021-03-20T23:24:03Z</time>
      </trkpt>
      <trkpt lat="52.2223" lon="4.63293">
        <ele>-2.48</ele>
        <time>2021-03-20T23:24:14Z</time>
      </trkpt>
      <trkpt lat="52.22946" lon="4.64339">
        <ele>-5</ele>
        <time>2021-03-20T23:24:25Z</time>
      </trkpt>
      <trkpt lat="52.23198" lon="4.64699">
        <ele>-5.46</ele>
        <time>2021-03-20T23:24:36Z</time>
      </trkpt>
      <trkpt lat="52.23298" lon="4.64839">
        <ele>-1.26</ele>
        <time>2021-03-20T23:24:47Z</time>
      </trkpt>
      <trkpt lat="52.23433" lon="4.65021">
        <ele>-3.39</ele>
        <time>2021-03-20T23:24:58Z</time>
      </trkpt>
      <trkpt lat="52.23578" lon="4.65206">
        <ele>-3.38</ele>
        <time>2021-03-20T23:25:10Z</time>
      </trkpt>
      <trkpt lat="52.23748" lon="4.65429">
        <ele>-6.5</ele>
        <time>2021-03-20T23:25:21Z</time>
      </trkpt>
      <trkpt lat="52.23836" lon="4.65551">
        <ele>-0.99</ele>
        <time>2021-03-20T23:25:32Z</time>
      </trkpt>
      <trkpt lat="52.24083" lon="4.65904">
        <ele>-3.54</ele>
        <time>2021-03-20T23:25:43Z</time>
      </trkpt>
      <trkpt lat="52.24123" lon="4.65966">
        <ele>-6</ele>
        <time>2021-03-20T23:25:54Z</time>
      </trkpt>
      <trkpt lat="52.24496" lon="4.66503">
        <ele>-4</ele>
        <time>2021-03-20T23:26:05Z</time>
      </trkpt>
      <trkpt lat="52.25355" lon="4.67733">
        <ele>-5.77</ele>
        <time>2021-03-20T23:26:16Z</time>
      </trkpt>
      <trkpt lat="52.25764" lon="4.68326">
        <ele>-6.12</ele>
        <time>2021-03-20T23:26:27Z</time>
      </trkpt>
      <trkpt lat="52.26269" lon="4.69042">
        <ele>-6.2</ele>
        <time>2021-03-20T23:26:38Z</time>
      </trkpt>
      <trkpt lat="52.26564" lon="4.69468">
        <ele>-5</ele>
        <time>2021-03-20T23:26:49Z</time>
      </trkpt>
      <trkpt lat="52.26712" lon="4.69675">
        <ele>-4</ele>
        <time>2021-03-20T23:27:01Z</time>
      </trkpt>
      <trkpt lat="52.26832" lon="4.69848">
        <ele>-4.05</ele>
        <time>2021-03-20T23:27:12Z</time>
      </trkpt>
      <trkpt lat="52.28822" lon="4.72703">
        <ele>0.48</ele>
        <time>2021-03-20T23:29:29Z</time>
      </trkpt>
      <trkpt lat="52.28852" lon="4.72771">
        <ele>-1.5</ele>
        <time>2021-03-20T23:29:41Z</time>
      </trkpt>
      <trkpt lat="52.28941" lon="4.72935">
        <ele>-2.54</ele>
        <time>2021-03-20T23:29:54Z</time>
      </trkpt>
      <trkpt lat="52.28958" lon="4.72971">
        <ele>-3</ele>
        <time>2021-03-20T23:30:06Z</time>
      </trkpt>
      <trkpt lat="52.29014" lon="4.73075">
        <ele>-2.85</ele>
        <time>2021-03-20T23:30:18Z</time>
      </trkpt>
      <trkpt lat="52.29029" lon="4.73096">
        <ele>-3.47</ele>
        <time>2021-03-20T23:30:30Z</time>
      </trkpt>
      <trkpt lat="52.2906" lon="4.73132">
        <ele>-3.64</ele>
        <time>2021-03-20T23:30:43Z</time>
      </trkpt>
      <trkpt lat="52.29096" lon="4.73163">
        <ele>-2.58</ele>
        <time>2021-03-20T23:30:55Z</time>
      </trkpt>
      <trkpt lat="52.29134" lon="4.73184">
        <ele>-3.26</ele>
        <time>2021-03-20T23:31:07Z</time>
      </trkpt>
      <trkpt lat="52.29157" lon="4.73195">
        <ele>-3.37</ele>
        <time>2021-03-20T23:31:20Z</time>
      </trkpt>
      <trkpt lat="52.29181" lon="4.73203">
        <ele>-3.47</ele>
        <time>2021-03-20T23:31:32Z</time>
      </trkpt>
      <trkpt lat="52.29221" lon="4.73209">
        <ele>-3.63</ele>
        <time>2021-03-20T23:31:44Z</time>
      </trkpt>
      <trkpt lat="52.29238" lon="4.73209">
        <ele>-3.7</ele>
        <time>2021-03-20T23:31:57Z</time>
      </trkpt>
      <trkpt lat="52.29272" lon="4.73205">
        <ele>-3.42</ele>
        <time>2021-03-20T23:32:09Z</time>
      </trkpt>
      <trkpt lat="52.29297" lon="4.73198">
        <ele>-3.72</ele>
        <time>2021-03-20T23:32:21Z</time>
      </trkpt>
      <trkpt lat="52.29397" lon="4.73166">
        <ele>-4.4</ele>
        <time>2021-03-20T23:32:34Z</time>
      </trkpt>
      <trkpt lat="52.29476" lon="4.73144">
        <ele>-3.98</ele>
        <time>2021-03-20T23:32:46Z</time>
      </trkpt>
      <trkpt lat="52.29523" lon="4.73133">
        <ele>-5</ele>
        <time>2021-03-20T23:32:58Z</time>
      </trkpt>
      <trkpt lat="52.2962" lon="4.73122">
        <ele>-4.69</ele>
        <time>2021-03-20T23:33:10Z</time>
      </trkpt>
      <trkpt lat="52.29669" lon="4.73121">
        <ele>-1.43</ele>
        <time>2021-03-20T23:33:23Z</time>
      </trkpt>
      <trkpt lat="52.29739" lon="4.73122">
        <ele>-3.75</ele>
        <time>2021-03-20T23:33:35Z</time>
      </trkpt>
      <trkpt lat="52.29821" lon="4.73129">
        <ele>-4.27</ele>
        <time>2021-03-20T23:33:47Z</time>
      </trkpt>
      <trkpt lat="52.3205" lon="4.73334">
        <ele>-4</ele>
        <time>2021-03-20T23:34:00Z</time>
      </trkpt>
      <trkpt lat="52.32189" lon="4.73346">
        <ele>-6.63</ele>
        <time>2021-03-20T23:34:12Z</time>
      </trkpt>
      <trkpt lat="52.34556" lon="4.73564">
        <ele>-5</ele>
        <time>2021-03-20T23:34:24Z</time>
      </trkpt>
      <trkpt lat="52.34655" lon="4.73575">
        <ele>-5.57</ele>
        <time>2021-03-20T23:34:37Z</time>
      </trkpt>
      <trkpt lat="52.34764" lon="4.73592">
        <ele>-4.64</ele>
        <time>2021-03-20T23:34:49Z</time>
      </trkpt>
      <trkpt lat="52.34935" lon="4.73629">
        <ele>-6</ele>
        <time>2021-03-20T23:35:01Z</time>
      </trkpt>
      <trkpt lat="52.35137" lon="4.73718">
        <ele>-6.05</ele>
        <time>2021-03-20T23:35:04Z</time>
      </trkpt>
      <trkpt lat="52.35184" lon="4.73742">
        <ele>-4</ele>
        <time>2021-03-20T23:35:07Z</time>
      </trkpt>
      <trkpt lat="52.3523" lon="4.73769">
        <ele>-6</ele>
        <time>2021-03-20T23:35:10Z</time>
      </trkpt>
      <trkpt lat="52.35254" lon="4.73788">
        <ele>-6.09</ele>
        <time>2021-03-20T23:35:14Z</time>
      </trkpt>
      <trkpt lat="52.35288" lon="4.73825">
        <ele>-6.05</ele>
        <time>2021-03-20T23:35:17Z</time>
      </trkpt>
      <trkpt lat="52.35305" lon="4.73847">
        <ele>-6.04</ele>
        <time>2021-03-20T23:35:20Z</time>
      </trkpt>
      <trkpt lat="52.35322" lon="4.73874">
        <ele>-6.02</ele>
        <time>2021-03-20T23:35:23Z</time>
      </trkpt>
      <trkpt lat="52.35339" lon="4.73908">
        <ele>-6</ele>
        <time>2021-03-20T23:35:26Z</time>
      </trkpt>
      <trkpt lat="52.35365" lon="4.73968">
        <ele>-5.76</ele>
        <time>2021-03-20T23:35:29Z</time>
      </trkpt>
      <trkpt lat="52.35384" lon="4.74023">
        <ele>-4.02</ele>
        <time>2021-03-20T23:35:32Z</time>
      </trkpt>
      <trkpt lat="52.35414" lon="4.74103">
        <ele>-6.78</ele>
        <time>2021-03-20T23:35:39Z</time>
      </trkpt>
      <trkpt lat="52.35442" lon="4.74158">
        <ele>-4.39</ele>
        <time>2021-03-20T23:35:46Z</time>
      </trkpt>
      <trkpt lat="52.35455" lon="4.74182">
        <ele>-4</ele>
        <time>2021-03-20T23:35:54Z</time>
      </trkpt>
      <trkpt lat="52.35481" lon="4.7422">
        <ele>-4.32</ele>
        <time>2021-03-20T23:36:01Z</time>
      </trkpt>
      <trkpt lat="52.35505" lon="4.74248">
        <ele>-5.19</ele>
        <time>2021-03-20T23:36:08Z</time>
      </trkpt>
      <trkpt lat="52.35543" lon="4.7428">
        <ele>-5</ele>
        <time>2021-03-20T23:36:15Z</time>
      </trkpt>
      <trkpt lat="52.35568" lon="4.74296">
        <ele>-4.88</ele>
        <time>2021-03-20T23:36:22Z</time>
      </trkpt>
      <trkpt lat="52.35589" lon="4.74306">
        <ele>-4.79</ele>
        <time>2021-03-20T23:36:30Z</time>
      </trkpt>
      <trkpt lat="52.35613" lon="4.74314">
        <ele>-4.06</ele>
        <time>2021-03-20T23:36:37Z</time>
      </trkpt>
      <trkpt lat="52.35661" lon="4.74319">
        <ele>-5.31</ele>
        <time>2021-03-20T23:36:44Z</time>
      </trkpt>
      <trkpt lat="52.35709" lon="4.74312">
        <ele>-6.53</ele>
        <time>2021-03-20T23:36:51Z</time>
      </trkpt>
      <trkpt lat="52.35749" lon="4.74296">
        <ele>-7</ele>
        <time>2021-03-20T23:36:59Z</time>
      </trkpt>
      <trkpt lat="52.35785" lon="4.74273">
        <ele>-5.96</ele>
        <time>2021-03-20T23:37:06Z</time>
      </trkpt>
      <trkpt lat="52.35812" lon="4.74248">
        <ele>-5.24</ele>
        <time>2021-03-20T23:37:13Z</time>
      </trkpt>
      <trkpt lat="52.35835" lon="4.74222">
        <ele>-5.93</ele>
        <time>2021-03-20T23:37:20Z</time>
      </trkpt>
      <trkpt lat="52.35858" lon="4.74191">
        <ele>-6.12</ele>
        <time>2021-03-20T23:37:27Z</time>
      </trkpt>
      <trkpt lat="52.35872" lon="4.74168">
        <ele>-7.34</ele>
        <time>2021-03-20T23:37:35Z</time>
      </trkpt>
      <trkpt lat="52.35894" lon="4.74125">
        <ele>-7.81</ele>
        <time>2021-03-20T23:37:42Z</time>
      </trkpt>
      <trkpt lat="52.3591" lon="4.74086">
        <ele>-7.26</ele>
        <time>2021-03-20T23:37:49Z</time>
      </trkpt>
      <trkpt lat="52.35927" lon="4.74026">
        <ele>-7.22</ele>
        <time>2021-03-20T23:37:56Z</time>
      </trkpt>
      <trkpt lat="52.35936" lon="4.73986">
        <ele>-6.44</ele>
        <time>2021-03-20T23:38:04Z</time>
      </trkpt>
      <trkpt lat="52.35946" lon="4.73918">
        <ele>-4.97</ele>
        <time>2021-03-20T23:38:11Z</time>
      </trkpt>
      <trkpt lat="52.35964" lon="4.73682">
        <ele>-3.71</ele>
        <time>2021-03-20T23:38:18Z</time>
      </trkpt>
      <trkpt lat="52.35975" lon="4.73607">
        <ele>-3.77</ele>
        <time>2021-03-20T23:38:25Z</time>
      </trkpt>
      <trkpt lat="52.35988" lon="4.73543">
        <ele>-1.67</ele>
        <time>2021-03-20T23:38:32Z</time>
      </trkpt>
      <trkpt lat="52.35998" lon="4.73507">
        <ele>-1.83</ele>
        <time>2021-03-20T23:38:40Z</time>
      </trkpt>
      <trkpt lat="52.36011" lon="4.7347">
        <ele>-2.77</ele>
        <time>2021-03-20T23:38:47Z</time>
      </trkpt>
      <trkpt lat="52.36036" lon="4.73409">
        <ele>-3.02</ele>
        <time>2021-03-20T23:38:54Z</time>
      </trkpt>
      <trkpt lat="52.36319" lon="4.7287">
        <ele>-1.12</ele>
        <time>2021-03-20T23:39:01Z</time>
      </trkpt>
      <trkpt lat="52.36363" lon="4.72772">
        <ele>-1.85</ele>
        <time>2021-03-20T23:39:09Z</time>
      </trkpt>
      <trkpt lat="52.36953" lon="4.71673">
        <ele>-1</ele>
        <time>2021-03-20T23:39:16Z</time>
      </trkpt>
      <trkpt lat="52.37" lon="4.7158">
        <ele>-3.13</ele>
        <time>2021-03-20T23:39:23Z</time>
      </trkpt>
      <trkpt lat="52.3721" lon="4.71188">
        <ele>1</ele>
        <time>2021-03-20T23:39:30Z</time>
      </trkpt>
      <trkpt lat="52.3725" lon="4.71116">
        <ele>0.82</ele>
        <time>2021-03-20T23:39:37Z</time>
      </trkpt>
      <trkpt lat="52.37276" lon="4.71074">
        <ele>1.38</ele>
        <time>2021-03-20T23:39:45Z</time>
      </trkpt>
      <trkpt lat="52.37302" lon="4.7104">
        <ele>0.66</ele>
        <time>2021-03-20T23:39:52Z</time>
      </trkpt>
      <trkpt lat="52.37341" lon="4.71">
        <ele>2.99</ele>
        <time>2021-03-20T23:39:59Z</time>
      </trkpt>
      <trkpt lat="52.37383" lon="4.70965">
        <ele>0.45</ele>
        <time>2021-03-20T23:40:06Z</time>
      </trkpt>
      <trkpt lat="52.3744" lon="4.70929">
        <ele>-0.17</ele>
        <time>2021-03-20T23:40:14Z</time>
      </trkpt>
      <trkpt lat="52.37457" lon="4.70921">
        <ele>0.91</ele>
        <time>2021-03-20T23:40:21Z</time>
      </trkpt>
      <trkpt lat="52.37507" lon="4.70905">
        <ele>1.86</ele>
        <time>2021-03-20T23:40:28Z</time>
      </trkpt>
      <trkpt lat="52.3756" lon="4.70895">
        <ele>1.9</ele>
        <time>2021-03-20T23:40:35Z</time>
      </trkpt>
      <trkpt lat="52.37619" lon="4.70889">
        <ele>1.7</ele>
        <time>2021-03-20T23:40:42Z</time>
      </trkpt>
      <trkpt lat="52.38041" lon="4.70822">
        <ele>0.73</ele>
        <time>2021-03-20T23:40:50Z</time>
      </trkpt>
      <trkpt lat="52.38147" lon="4.70799">
        <ele>5.47</ele>
        <time>2021-03-20T23:40:57Z</time>
      </trkpt>
      <trkpt lat="52.38625" lon="4.70723">
        <ele>7.49</ele>
        <time>2021-03-20T23:41:04Z</time>
      </trkpt>
      <trkpt lat="52.39008" lon="4.70668">
        <ele>-3</ele>
        <time>2021-03-20T23:41:11Z</time>
      </trkpt>
      <trkpt lat="52.39288" lon="4.70624">
        <ele>-2.63</ele>
        <time>2021-03-20T23:41:19Z</time>
      </trkpt>
      <trkpt lat="52.40154" lon="4.70482">
        <ele>-2.27</ele>
        <time>2021-03-20T23:41:26Z</time>
      </trkpt>
      <trkpt lat="52.40271" lon="4.70454">
        <ele>1.5</ele>
        <time>2021-03-20T23:41:33Z</time>
      </trkpt>
      <trkpt lat="52.40386" lon="4.70419">
        <ele>-0.91</ele>
        <time>2021-03-20T23:41:40Z</time>
      </trkpt>
      <trkpt lat="52.4053" lon="4.70358">
        <ele>1.12</ele>
        <time>2021-03-20T23:41:47Z</time>
      </trkpt>
      <trkpt lat="52.4137" lon="4.69916">
        <ele>0.72</ele>
        <time>2021-03-20T23:41:55Z</time>
      </trkpt>
      <trkpt lat="52.41456" lon="4.69868">
        <ele>0.17</ele>
        <time>2021-03-20T23:42:02Z</time>
      </trkpt>
      <trkpt lat="52.41535" lon="4.69818">
        <ele>-0.12</ele>
        <time>2021-03-20T23:42:09Z</time>
      </trkpt>
      <trkpt lat="52.41649" lon="4.69738">
        <ele>-1.28</ele>
        <time>2021-03-20T23:42:16Z</time>
      </trkpt>
      <trkpt lat="52.41729" lon="4.69674">
        <ele>-1.4</ele>
        <time>2021-03-20T23:42:24Z</time>
      </trkpt>
      <trkpt lat="52.41814" lon="4.69593">
        <ele>1.13</ele>
        <time>2021-03-20T23:42:31Z</time>
      </trkpt>
      <trkpt lat="52.41889" lon="4.69515">
        <ele>0.99</ele>
        <time>2021-03-20T23:42:38Z</time>
      </trkpt>
      <trkpt lat="52.42037" lon="4.6932">
        <ele>1.61</ele>
        <time>2021-03-20T23:42:45Z</time>
      </trkpt>
      <trkpt lat="52.42139" lon="4.69166">
        <ele>2.01</ele>
        <time>2021-03-20T23:42:52Z</time>
      </trkpt>
      <trkpt lat="52.42223" lon="4.6902">
        <ele>1</ele>
        <time>2021-03-20T23:43:00Z</time>
      </trkpt>
      <trkpt lat="52.42385" lon="4.68719">
        <ele>-3.87</ele>
        <time>2021-03-20T23:43:07Z</time>
      </trkpt>
      <trkpt lat="52.42453" lon="4.68596">
        <ele>-0.06</ele>
        <time>2021-03-20T23:43:14Z</time>
      </trkpt>
      <trkpt lat="52.42526" lon="4.68476">
        <ele>2.7</ele>
        <time>2021-03-20T23:43:21Z</time>
      </trkpt>
      <trkpt lat="52.42585" lon="4.68386">
        <ele>1.85</ele>
        <time>2021-03-20T23:43:29Z</time>
      </trkpt>
      <trkpt lat="52.42647" lon="4.68299">
        <ele>1</ele>
        <time>2021-03-20T23:43:36Z</time>
      </trkpt>
      <trkpt lat="52.42724" lon="4.68198">
        <ele>-0.77</ele>
        <time>2021-03-20T23:43:43Z</time>
      </trkpt>
      <trkpt lat="52.42753" lon="4.68163">
        <ele>-0.05</ele>
        <time>2021-03-20T23:43:50Z</time>
      </trkpt>
      <trkpt lat="52.43063" lon="4.67829">
        <ele>-0.38</ele>
        <time>2021-03-20T23:43:57Z</time>
      </trkpt>
      <trkpt lat="52.43381" lon="4.67499">
        <ele>1</ele>
        <time>2021-03-20T23:44:05Z</time>
      </trkpt>
      <trkpt lat="52.43624" lon="4.67243">
        <ele>1</ele>
        <time>2021-03-20T23:44:12Z</time>
      </trkpt>
      <trkpt lat="52.43682" lon="4.67205">
        <ele>-0.3</ele>
        <time>2021-03-20T23:44:15Z</time>
      </trkpt>
      <trkpt lat="52.43772" lon="4.67121">
        <ele>1</ele>
        <time>2021-03-20T23:44:19Z</time>
      </trkpt>
      <trkpt lat="52.43815" lon="4.67087">
        <ele>0.43</ele>
        <time>2021-03-20T23:44:22Z</time>
      </trkpt>
      <trkpt lat="52.43841" lon="4.67072">
        <ele>1.65</ele>
        <time>2021-03-20T23:44:26Z</time>
      </trkpt>
      <trkpt lat="52.43865" lon="4.67059">
        <ele>4.01</ele>
        <time>2021-03-20T23:44:29Z</time>
      </trkpt>
      <trkpt lat="52.43903" lon="4.67045">
        <ele>4.29</ele>
        <time>2021-03-20T23:44:33Z</time>
      </trkpt>
      <trkpt lat="52.43969" lon="4.67028">
        <ele>-3.74</ele>
        <time>2021-03-20T23:44:36Z</time>
      </trkpt>
      <trkpt lat="52.44033" lon="4.67015">
        <ele>0.19</ele>
        <time>2021-03-20T23:44:40Z</time>
      </trkpt>
      <trkpt lat="52.44095" lon="4.66993">
        <ele>2.76</ele>
        <time>2021-03-20T23:44:43Z</time>
      </trkpt>
      <trkpt lat="52.44147" lon="4.66962">
        <ele>-1.25</ele>
        <time>2021-03-20T23:44:47Z</time>
      </trkpt>
      <trkpt lat="52.44197" lon="4.66921">
        <ele>-2.68</ele>
        <time>2021-03-20T23:44:50Z</time>
      </trkpt>
      <trkpt lat="52.44225" lon="4.66892">
        <ele>-0.76</ele>
        <time>2021-03-20T23:44:54Z</time>
      </trkpt>
      <trkpt lat="52.44256" lon="4.66852">
        <ele>0.16</ele>
        <time>2021-03-20T23:44:57Z</time>
      </trkpt>
      <trkpt lat="52.44304" lon="4.66775">
        <ele>1</ele>
        <time>2021-03-20T23:45:01Z</time>
      </trkpt>
      <trkpt lat="52.44338" lon="4.66706">
        <ele>2.11</ele>
        <time>2021-03-20T23:45:04Z</time>
      </trkpt>
      <trkpt lat="52.44425" lon="4.66477">
        <ele>-0.81</ele>
        <time>2021-03-20T23:45:07Z</time>
      </trkpt>
      <trkpt lat="52.44458" lon="4.66407">
        <ele>-0.35</ele>
        <time>2021-03-20T23:45:11Z</time>
      </trkpt>
      <trkpt lat="52.445" lon="4.66341">
        <ele>2</ele>
        <time>2021-03-20T23:45:14Z</time>
      </trkpt>
      <trkpt lat="52.4453" lon="4.66302">
        <ele>3.06</ele>
        <time>2021-03-20T23:45:18Z</time>
      </trkpt>
      <trkpt lat="52.44586" lon="4.66243">
        <ele>2.83</ele>
        <time>2021-03-20T23:45:21Z</time>
      </trkpt>
      <trkpt lat="52.44663" lon="4.6617">
        <ele>1</ele>
        <time>2021-03-20T23:45:25Z</time>
      </trkpt>
      <trkpt lat="52.44771" lon="4.66079">
        <ele>3</ele>
        <time>2021-03-20T23:45:28Z</time>
      </trkpt>
      <trkpt lat="52.44877" lon="4.66002">
        <ele>5.2</ele>
        <time>2021-03-20T23:45:32Z</time>
      </trkpt>
      <trkpt lat="52.44985" lon="4.65933">
        <ele>6.04</ele>
        <time>2021-03-20T23:45:35Z</time>
      </trkpt>
      <trkpt lat="52.45028" lon="4.6592">
        <ele>4.88</ele>
        <time>2021-03-20T23:45:38Z</time>
      </trkpt>
      <trkpt lat="52.45076" lon="4.65901">
        <ele>5.4</ele>
        <time>2021-03-20T23:45:41Z</time>
      </trkpt>
      <trkpt lat="52.4511" lon="4.65897">
        <ele>4.74</ele>
        <time>2021-03-20T23:45:44Z</time>
      </trkpt>
      <trkpt lat="52.45146" lon="4.65904">
        <ele>4.07</ele>
        <time>2021-03-20T23:45:47Z</time>
      </trkpt>
      <trkpt lat="52.45301" lon="4.65951">
        <ele>1.22</ele>
        <time>2021-03-20T23:45:50Z</time>
      </trkpt>
      <trkpt lat="52.45338" lon="4.65954">
        <ele>0.18</ele>
        <time>2021-03-20T23:45:53Z</time>
      </trkpt>
      <trkpt lat="52.4537" lon="4.65948">
        <ele>1</ele>
        <time>2021-03-20T23:45:56Z</time>
      </trkpt>
      <trkpt lat="52.45394" lon="4.65938">
        <ele>0.86</ele>
        <time>2021-03-20T23:45:58Z</time>
      </trkpt>
      <trkpt lat="52.45453" lon="4.65899">
        <ele>0.94</ele>
        <time>2021-03-20T23:46:01Z</time>
      </trkpt>
      <trkpt lat="52.45499" lon="4.65864">
        <ele>1.05</ele>
        <time>2021-03-20T23:46:04Z</time>
      </trkpt>
      <trkpt lat="52.45649" lon="4.65771">
        <ele>1.09</ele>
        <time>2021-03-20T23:46:07Z</time>
      </trkpt>
      <trkpt lat="52.45686" lon="4.65754">
        <ele>1.96</ele>
        <time>2021-03-20T23:46:10Z</time>
      </trkpt>
      <trkpt lat="52.45795" lon="4.65715">
        <ele>2.4</ele>
        <time>2021-03-20T23:46:13Z</time>
      </trkpt>
      <trkpt lat="52.45823" lon="4.65702">
        <ele>0.67</ele>
        <time>2021-03-20T23:46:16Z</time>
      </trkpt>
      <trkpt lat="52.45829" lon="4.65695">
        <ele>0.19</ele>
        <time>2021-03-20T23:46:19Z</time>
      </trkpt>
      <trkpt lat="52.45832" lon="4.65686">
        <ele>0.03</ele>
        <time>2021-03-20T23:46:22Z</time>
      </trkpt>
      <trkpt lat="52.45835" lon="4.65669">
        <ele>2</ele>
        <time>2021-03-20T23:46:25Z</time>
      </trkpt>
      <trkpt lat="52.45793" lon="4.65371">
        <ele>4.16</ele>
        <time>2021-03-20T23:46:27Z</time>
      </trkpt>
      <trkpt lat="52.4579" lon="4.65333">
        <ele>4</ele>
        <time>2021-03-20T23:46:30Z</time>
      </trkpt>
      <trkpt lat="52.45792" lon="4.65275">
        <ele>3.96</ele>
        <time>2021-03-20T23:46:33Z</time>
      </trkpt>
      <trkpt lat="52.45795" lon="4.65238">
        <ele>3.62</ele>
        <time>2021-03-20T23:46:36Z</time>
      </trkpt>
      <trkpt lat="52.45801" lon="4.65204">
        <ele>3.16</ele>
        <time>2021-03-20T23:46:39Z</time>
      </trkpt>
      <trkpt lat="52.45809" lon="4.65169">
        <ele>3.13</ele>
        <time>2021-03-20T23:46:42Z</time>
      </trkpt>
      <trkpt lat="52.4582" lon="4.65135">
        <ele>3</ele>
        <time>2021-03-20T23:46:45Z</time>
      </trkpt>
      <trkpt lat="52.45845" lon="4.65079">
        <ele>1.92</ele>
        <time>2021-03-20T23:46:48Z</time>
      </trkpt>
      <trkpt lat="52.4601" lon="4.64745">
        <ele>2.67</ele>
        <time>2021-03-20T23:46:56Z</time>
      </trkpt>
      <trkpt lat="52.4605" lon="4.64671">
        <ele>5.4</ele>
        <time>2021-03-20T23:47:04Z</time>
      </trkpt>
      <trkpt lat="52.46074" lon="4.64645">
        <ele>8.39</ele>
        <time>2021-03-20T23:47:12Z</time>
      </trkpt>
      <trkpt lat="52.46094" lon="4.64628">
        <ele>8.6</ele>
        <time>2021-03-20T23:47:20Z</time>
      </trkpt>
      <trkpt lat="52.46134" lon="4.64604">
        <ele>8</ele>
        <time>2021-03-20T23:47:28Z</time>
      </trkpt>
      <trkpt lat="52.46154" lon="4.64587">
        <ele>7.39</ele>
        <time>2021-03-20T23:47:36Z</time>
      </trkpt>
      <trkpt lat="52.46173" lon="4.64566">
        <ele>6.56</ele>
        <time>2021-03-20T23:47:44Z</time>
      </trkpt>
      <trkpt lat="52.46198" lon="4.64526">
        <ele>7.73</ele>
        <time>2021-03-20T23:47:52Z</time>
      </trkpt>
      <trkpt lat="52.46207" lon="4.64506">
        <ele>7.44</ele>
        <time>2021-03-20T23:48:00Z</time>
      </trkpt>
      <trkpt lat="52.46225" lon="4.64455">
        <ele>7.65</ele>
        <time>2021-03-20T23:48:08Z</time>
      </trkpt>
      <trkpt lat="52.46236" lon="4.64392">
        <ele>8.52</ele>
        <time>2021-03-20T23:48:16Z</time>
      </trkpt>
      <trkpt lat="52.46237" lon="4.64356">
        <ele>7.92</ele>
        <time>2021-03-20T23:48:24Z</time>
      </trkpt>
      <trkpt lat="52.46233" lon="4.64031">
        <ele>10</ele>
        <time>2021-03-20T23:48:32Z</time>
      </trkpt>
      <trkpt lat="52.46233" lon="4.63828">
        <ele>6.09</ele>
        <time>2021-03-20T23:48:40Z</time>
      </trkpt>
      <trkpt lat="52.46239" lon="4.63511">
        <ele>4.77</ele>
        <time>2021-03-20T23:48:48Z</time>
      </trkpt>
      <trkpt lat="52.46238" lon="4.63462">
        <ele>4.45</ele>
        <time>2021-03-20T23:48:56Z</time>
      </trkpt>
      <trkpt lat="52.46232" lon="4.63397">
        <ele>4.66</ele>
        <time>2021-03-20T23:49:04Z</time>
      </trkpt>
      <trkpt lat="52.46212" lon="4.63293">
        <ele>5.13</ele>
        <time>2021-03-20T23:49:12Z</time>
      </trkpt>
      <trkpt lat="52.46212" lon="4.63257">
        <ele>5.61</ele>
        <time>2021-03-20T23:49:20Z</time>
      </trkpt>
      <trkpt lat="52.46214" lon="4.63226">
        <ele>5.61</ele>
        <time>2021-03-20T23:49:29Z</time>
      </trkpt>
      <trkpt lat="52.46219" lon="4.63213">
        <ele>4.92</ele>
        <time>2021-03-20T23:49:37Z</time>
      </trkpt>
      <trkpt lat="52.46246" lon="4.63154">
        <ele>2.6</ele>
        <time>2021-03-20T23:49:46Z</time>
      </trkpt>
      <trkpt lat="52.46286" lon="4.63089">
        <ele>3.68</ele>
        <time>2021-03-20T23:49:54Z</time>
      </trkpt>
      <trkpt lat="52.46314" lon="4.63031">
        <ele>2.2</ele>
        <time>2021-03-20T23:50:03Z</time>
      </trkpt>
      <trkpt lat="52.46324" lon="4.63005">
        <ele>2.51</ele>
        <time>2021-03-20T23:50:11Z</time>
      </trkpt>
      <trkpt lat="52.46349" lon="4.62919">
        <ele>2.79</ele>
        <time>2021-03-20T23:50:20Z</time>
      </trkpt>
      <trkpt lat="52.46355" lon="4.62878">
        <ele>2.05</ele>
        <time>2021-03-20T23:50:28Z</time>
      </trkpt>
      <trkpt lat="52.46358" lon="4.62833">
        <ele>1.24</ele>
        <time>2021-03-20T23:50:36Z</time>
      </trkpt>
      <trkpt lat="52.46355" lon="4.62122">
        <ele>2.91</ele>
        <time>2021-03-20T23:50:45Z</time>
      </trkpt>
      <trkpt lat="52.46343" lon="4.6085">
        <ele>6.66</ele>
        <time>2021-03-20T23:50:53Z</time>
      </trkpt>
      <trkpt lat="52.46339" lon="4.6079">
        <ele>9.78</ele>
        <time>2021-03-20T23:51:02Z</time>
      </trkpt>
      <trkpt lat="52.46338" lon="4.60738">
        <ele>9.99</ele>
        <time>2021-03-20T23:51:10Z</time>
      </trkpt>
      <trkpt lat="52.46331" lon="4.60677">
        <ele>11.69</ele>
        <time>2021-03-20T23:51:19Z</time>
      </trkpt>
      <trkpt lat="52.46312" lon="4.60602">
        <ele>10.44</ele>
        <time>2021-03-20T23:51:27Z</time>
      </trkpt>
      <trkpt lat="52.46321" lon="4.60595">
        <ele>12.37</ele>
        <time>2021-03-20T23:51:36Z</time>
      </trkpt>
      <trkpt lat="52.46329" lon="4.60586">
        <ele>14.12</ele>
        <time>2021-03-20T23:51:46Z</time>
      </trkpt>
      <trkpt lat="52.46335" lon="4.60576">
        <ele>14.5</ele>
        <time>2021-03-20T23:51:55Z</time>
      </trkpt>
      <trkpt lat="52.4634" lon="4.60562">
        <ele>12.53</ele>
        <time>2021-03-20T23:52:04Z</time>
      </trkpt>
      <trkpt lat="52.46342" lon="4.60539">
        <ele>10.78</ele>
        <time>2021-03-20T23:52:14Z</time>
      </trkpt>
      <trkpt lat="52.4634" lon="4.60245">
        <ele>3.64</ele>
        <time>2021-03-20T23:52:23Z</time>
      </trkpt>
      <trkpt lat="52.46338" lon="4.60218">
        <ele>3</ele>
        <time>2021-03-20T23:52:33Z</time>
      </trkpt>
      <trkpt lat="52.46327" lon="4.60113">
        <ele>2.29</ele>
        <time>2021-03-20T23:52:42Z</time>
      </trkpt>
      <trkpt lat="52.46326" lon="4.6008">
        <ele>2.38</ele>
        <time>2021-03-20T23:52:51Z</time>
      </trkpt>
      <trkpt lat="52.46335" lon="4.59725">
        <ele>5.15</ele>
        <time>2021-03-20T23:53:01Z</time>
      </trkpt>
      <trkpt lat="52.46335" lon="4.59506">
        <ele>8.62</ele>
        <time>2021-03-20T23:53:10Z</time>
      </trkpt>
      <trkpt lat="52.46348" lon="4.59393">
        <ele>5.41</ele>
        <time>2021-03-20T23:53:19Z</time>
      </trkpt>
      <trkpt lat="52.46348" lon="4.5916">
        <ele>6.93</ele>
        <time>2021-03-20T23:53:29Z</time>
      </trkpt>
      <trkpt lat="52.4635" lon="4.59052">
        <ele>7.72</ele>
        <time>2021-03-20T23:53:38Z</time>
      </trkpt>
      <trkpt lat="52.46349" lon="4.58912">
        <ele>7.47</ele>
        <time>2021-03-20T23:53:47Z</time>
      </trkpt>
      <trkpt lat="52.46344" lon="4.58763">
        <ele>5.05</ele>
        <time>2021-03-20T23:53:57Z</time>
      </trkpt>
    </trkseg>
  </trk>
  <trk>
    <name><![CDATA[WE02 - Amsterdam - NewCastle]]></name>
    <trkseg>
      <trkpt lat="52.4627" lon="4.58427">
        <ele>4.79</ele>
        <time>2021-03-20T14:36:00Z</time>
      </trkpt>
      <trkpt lat="52.46267" lon="4.58428">
        <ele>5.18</ele>
        <time>2021-03-20T14:37:33Z</time>
      </trkpt>
      <trkpt lat="52.46263" lon="4.5844">
        <ele>5.91</ele>
        <time>2021-03-20T14:39:07Z</time>
      </trkpt>
      <trkpt lat="52.46253" lon="4.58461">
        <ele>5.91</ele>
        <time>2021-03-20T14:40:40Z</time>
      </trkpt>
      <trkpt lat="52.46248" lon="4.58463">
        <ele>5.91</ele>
        <time>2021-03-20T14:42:14Z</time>
      </trkpt>
      <trkpt lat="52.46244" lon="4.58463">
        <ele>5.91</ele>
        <time>2021-03-20T14:43:47Z</time>
      </trkpt>
      <trkpt lat="52.46239" lon="4.58459">
        <ele>5.91</ele>
        <time>2021-03-20T14:45:20Z</time>
      </trkpt>
      <trkpt lat="52.46234" lon="4.58454">
        <ele>5.91</ele>
        <time>2021-03-20T14:46:54Z</time>
      </trkpt>
      <trkpt lat="52.46232" lon="4.58445">
        <ele>5.91</ele>
        <time>2021-03-20T14:48:27Z</time>
      </trkpt>
      <trkpt lat="52.4623" lon="4.58427">
        <ele>5.91</ele>
        <time>2021-03-20T14:50:00Z</time>
      </trkpt>
      <trkpt lat="52.46231" lon="4.58405">
        <ele>5.91</ele>
        <time>2021-03-20T14:51:34Z</time>
      </trkpt>
      <trkpt lat="52.46239" lon="4.58348">
        <ele>5.91</ele>
        <time>2021-03-20T14:53:07Z</time>
      </trkpt>
      <trkpt lat="52.46261" lon="4.58278">
        <ele>5.91</ele>
        <time>2021-03-20T14:54:41Z</time>
      </trkpt>
      <trkpt lat="52.4633" lon="4.58087">
        <ele>5.91</ele>
        <time>2021-03-20T14:56:14Z</time>
      </trkpt>
      <trkpt lat="52.46344" lon="4.58023">
        <ele>5.91</ele>
        <time>2021-03-20T14:57:47Z</time>
      </trkpt>
      <trkpt lat="52.46353" lon="4.57941">
        <ele>5.91</ele>
        <time>2021-03-20T14:59:21Z</time>
      </trkpt>
      <trkpt lat="52.46355" lon="4.57847">
        <ele>5.91</ele>
        <time>2021-03-20T15:00:54Z</time>
      </trkpt>
      <trkpt lat="52.46325" lon="4.57299">
        <ele>5.9</ele>
        <time>2021-03-20T15:02:28Z</time>
      </trkpt>
      <trkpt lat="52.46325" lon="4.57133">
        <ele>5.9</ele>
        <time>2021-03-20T15:04:01Z</time>
      </trkpt>
      <trkpt lat="52.46332" lon="4.56958">
        <ele>5.9</ele>
        <time>2021-03-20T15:05:34Z</time>
      </trkpt>
      <trkpt lat="52.46622" lon="4.53831">
        <ele>5.9</ele>
        <time>2021-03-20T15:07:08Z</time>
      </trkpt>
      <trkpt lat="52.46668" lon="4.53422">
        <ele>5.9</ele>
        <time>2021-03-20T15:08:41Z</time>
      </trkpt>
      <trkpt lat="52.46736" lon="4.53031">
        <ele>5.9</ele>
        <time>2021-03-20T15:10:15Z</time>
      </trkpt>
      <trkpt lat="52.46849" lon="4.52628">
        <ele>5.9</ele>
        <time>2021-03-20T15:11:48Z</time>
      </trkpt>
      <trkpt lat="52.47129" lon="4.51986">
        <ele>5.9</ele>
        <time>2021-03-20T15:13:21Z</time>
      </trkpt>
      <trkpt lat="52.50575" lon="4.43971">
        <ele>5.58</ele>
        <time>2021-03-20T15:14:55Z</time>
      </trkpt>
      <trkpt lat="52.50575" lon="4.43971">
        <ele>5.58</ele>
        <time>2021-03-20T15:14:55Z</time>
      </trkpt>
      <trkpt lat="53.80859" lon="1.40977">
        <ele>5.58</ele>
        <time>2021-03-21T05:32:34Z</time>
      </trkpt>
      <trkpt lat="53.80859" lon="1.40977">
        <ele>5.58</ele>
        <time>2021-03-21T05:32:34Z</time>
      </trkpt>
      <trkpt lat="54.2125" lon="0.4704">
        <ele>5.58</ele>
        <time>2021-03-21T09:54:58Z</time>
      </trkpt>
      <trkpt lat="54.2125" lon="0.4704">
        <ele>5.58</ele>
        <time>2021-03-21T09:54:58Z</time>
      </trkpt>
      <trkpt lat="54.38461" lon="0.07013">
        <ele>5.58</ele>
        <time>2021-03-21T11:46:16Z</time>
      </trkpt>
      <trkpt lat="54.38461" lon="0.07013">
        <ele>5.58</ele>
        <time>2021-03-21T11:46:16Z</time>
      </trkpt>
      <trkpt lat="54.70783" lon="-0.68157">
        <ele>5.58</ele>
        <time>2021-03-21T15:14:29Z</time>
      </trkpt>
      <trkpt lat="54.70783" lon="-0.68157">
        <ele>5.58</ele>
        <time>2021-03-21T15:14:29Z</time>
      </trkpt>
      <trkpt lat="54.99347" lon="-1.34585">
        <ele>5.58</ele>
        <time>2021-03-21T18:17:36Z</time>
      </trkpt>
      <trkpt lat="54.99347" lon="-1.34585">
        <ele>5.58</ele>
        <time>2021-03-21T18:17:36Z</time>
      </trkpt>
      <trkpt lat="55.01181" lon="-1.3885">
        <ele>5.26</ele>
        <time>2021-03-21T18:18:54Z</time>
      </trkpt>
      <trkpt lat="55.01298" lon="-1.39675">
        <ele>5.26</ele>
        <time>2021-03-21T18:20:13Z</time>
      </trkpt>
      <trkpt lat="55.01231" lon="-1.40349">
        <ele>5.26</ele>
        <time>2021-03-21T18:21:31Z</time>
      </trkpt>
      <trkpt lat="55.01035" lon="-1.41355">
        <ele>5.26</ele>
        <time>2021-03-21T18:22:50Z</time>
      </trkpt>
      <trkpt lat="55.00961" lon="-1.4216">
        <ele>5.26</ele>
        <time>2021-03-21T18:24:08Z</time>
      </trkpt>
      <trkpt lat="55.00833" lon="-1.42986">
        <ele>5.26</ele>
        <time>2021-03-21T18:25:27Z</time>
      </trkpt>
      <trkpt lat="55.00639" lon="-1.43873">
        <ele>5.26</ele>
        <time>2021-03-21T18:26:46Z</time>
      </trkpt>
      <trkpt lat="55.00523" lon="-1.44092">
        <ele>5.26</ele>
        <time>2021-03-21T18:28:04Z</time>
      </trkpt>
      <trkpt lat="55.00294" lon="-1.44258">
        <ele>5.26</ele>
        <time>2021-03-21T18:29:23Z</time>
      </trkpt>
      <trkpt lat="54.99395" lon="-1.44619">
        <ele>5.26</ele>
        <time>2021-03-21T18:30:41Z</time>
      </trkpt>
      <trkpt lat="54.9922" lon="-1.44726">
        <ele>5.26</ele>
        <time>2021-03-21T18:32:00Z</time>
      </trkpt>
      <trkpt lat="54.98996" lon="-1.44944">
        <ele>5.26</ele>
        <time>2021-03-21T18:33:18Z</time>
      </trkpt>
      <trkpt lat="54.98983" lon="-1.44967">
        <ele>5.26</ele>
        <time>2021-03-21T18:34:37Z</time>
      </trkpt>
      <trkpt lat="54.98974" lon="-1.44995">
        <ele>5.26</ele>
        <time>2021-03-21T18:35:55Z</time>
      </trkpt>
      <trkpt lat="54.9897" lon="-1.45026">
        <ele>5.26</ele>
        <time>2021-03-21T18:37:14Z</time>
      </trkpt>
      <trkpt lat="54.9897" lon="-1.45048">
        <ele>5.26</ele>
        <time>2021-03-21T18:38:32Z</time>
      </trkpt>
      <trkpt lat="54.98973" lon="-1.45069">
        <ele>5.26</ele>
        <time>2021-03-21T18:39:51Z</time>
      </trkpt>
      <trkpt lat="54.98981" lon="-1.45098">
        <ele>5.26</ele>
        <time>2021-03-21T18:41:09Z</time>
      </trkpt>
      <trkpt lat="54.98994" lon="-1.45122">
        <ele>5.26</ele>
        <time>2021-03-21T18:42:28Z</time>
      </trkpt>
      <trkpt lat="54.99012" lon="-1.4514">
        <ele>5.26</ele>
        <time>2021-03-21T18:43:46Z</time>
      </trkpt>
      <trkpt lat="54.99033" lon="-1.45147">
        <ele>5.26</ele>
        <time>2021-03-21T18:45:05Z</time>
      </trkpt>
      <trkpt lat="54.99048" lon="-1.45145">
        <ele>5.26</ele>
        <time>2021-03-21T18:46:23Z</time>
      </trkpt>
      <trkpt lat="54.99063" lon="-1.45136">
        <ele>5.26</ele>
        <time>2021-03-21T18:47:42Z</time>
      </trkpt>
      <trkpt lat="54.99203" lon="-1.44983">
        <ele>5.26</ele>
        <time>2021-03-21T18:49:00Z</time>
      </trkpt>
      <trkpt lat="54.99251" lon="-1.44985">
        <ele>2</ele>
        <time>2021-03-21T18:49:07Z</time>
      </trkpt>
      <trkpt lat="54.99263" lon="-1.44984">
        <ele>2</ele>
        <time>2021-03-21T18:49:14Z</time>
      </trkpt>
      <trkpt lat="54.99271" lon="-1.45032">
        <ele>3</ele>
        <time>2021-03-21T18:49:21Z</time>
      </trkpt>
      <trkpt lat="54.99276" lon="-1.45072">
        <ele>4.19</ele>
        <time>2021-03-21T18:49:28Z</time>
      </trkpt>
      <trkpt lat="54.99279" lon="-1.45157">
        <ele>7.61</ele>
        <time>2021-03-21T18:49:35Z</time>
      </trkpt>
      <trkpt lat="54.99288" lon="-1.4518">
        <ele>7.96</ele>
        <time>2021-03-21T18:49:41Z</time>
      </trkpt>
      <trkpt lat="54.99312" lon="-1.45151">
        <ele>6.77</ele>
        <time>2021-03-21T18:49:52Z</time>
      </trkpt>
      <trkpt lat="54.99344" lon="-1.45278">
        <ele>7.37</ele>
        <time>2021-03-21T18:50:03Z</time>
      </trkpt>
      <trkpt lat="54.99432" lon="-1.45596">
        <ele>11.26</ele>
        <time>2021-03-21T18:50:13Z</time>
      </trkpt>
      <trkpt lat="54.99437" lon="-1.45643">
        <ele>12.73</ele>
        <time>2021-03-21T18:50:24Z</time>
      </trkpt>
      <trkpt lat="54.99436" lon="-1.45679">
        <ele>13.15</ele>
        <time>2021-03-21T18:50:35Z</time>
      </trkpt>
      <trkpt lat="54.99437" lon="-1.45701">
        <ele>13.73</ele>
        <time>2021-03-21T18:50:45Z</time>
      </trkpt>
      <trkpt lat="54.99444" lon="-1.45735">
        <ele>13.96</ele>
        <time>2021-03-21T18:50:56Z</time>
      </trkpt>
      <trkpt lat="54.99451" lon="-1.45747">
        <ele>14.2</ele>
        <time>2021-03-21T18:51:07Z</time>
      </trkpt>
      <trkpt lat="54.99464" lon="-1.45756">
        <ele>14.85</ele>
        <time>2021-03-21T18:51:17Z</time>
      </trkpt>
      <trkpt lat="54.99478" lon="-1.45815">
        <ele>15.86</ele>
        <time>2021-03-21T18:51:19Z</time>
      </trkpt>
      <trkpt lat="54.9949" lon="-1.4588">
        <ele>17</ele>
        <time>2021-03-21T18:51:22Z</time>
      </trkpt>
      <trkpt lat="54.99505" lon="-1.45941">
        <ele>17.33</ele>
        <time>2021-03-21T18:51:24Z</time>
      </trkpt>
      <trkpt lat="54.99509" lon="-1.45967">
        <ele>19.02</ele>
        <time>2021-03-21T18:51:26Z</time>
      </trkpt>
      <trkpt lat="54.9951" lon="-1.45985">
        <ele>20.12</ele>
        <time>2021-03-21T18:51:28Z</time>
      </trkpt>
      <trkpt lat="54.995" lon="-1.45993">
        <ele>20.49</ele>
        <time>2021-03-21T18:51:29Z</time>
      </trkpt>
      <trkpt lat="54.99494" lon="-1.46009">
        <ele>20.83</ele>
        <time>2021-03-21T18:51:30Z</time>
      </trkpt>
      <trkpt lat="54.99493" lon="-1.46027">
        <ele>20.5</ele>
        <time>2021-03-21T18:51:32Z</time>
      </trkpt>
      <trkpt lat="54.99498" lon="-1.46043">
        <ele>20.11</ele>
        <time>2021-03-21T18:51:33Z</time>
      </trkpt>
      <trkpt lat="54.99507" lon="-1.46051">
        <ele>20.52</ele>
        <time>2021-03-21T18:51:34Z</time>
      </trkpt>
      <trkpt lat="54.99516" lon="-1.46065">
        <ele>21.36</ele>
        <time>2021-03-21T18:51:35Z</time>
      </trkpt>
      <trkpt lat="54.99524" lon="-1.4609">
        <ele>23.2</ele>
        <time>2021-03-21T18:51:36Z</time>
      </trkpt>
    </trkseg>
  </trk>
  <trk>
    <name><![CDATA[J01 - North Tyneside - Ardrossan]]></name>
    <trkseg>
      <trkpt lat="54.99524" lon="-1.4609">
        <ele>23.2</ele>
        <time>2021-03-20T14:23:34Z</time>
      </trkpt>
      <trkpt lat="54.99586" lon="-1.46334">
        <ele>22.87</ele>
        <time>2021-03-20T14:23:40Z</time>
      </trkpt>
      <trkpt lat="54.99589" lon="-1.4635">
        <ele>22.44</ele>
        <time>2021-03-20T14:23:46Z</time>
      </trkpt>
      <trkpt lat="54.99589" lon="-1.46373">
        <ele>21.93</ele>
        <time>2021-03-20T14:23:52Z</time>
      </trkpt>
      <trkpt lat="54.99588" lon="-1.46378">
        <ele>21.73</ele>
        <time>2021-03-20T14:23:54Z</time>
      </trkpt>
      <trkpt lat="54.99588" lon="-1.46395">
        <ele>21.77</ele>
        <time>2021-03-20T14:23:56Z</time>
      </trkpt>
      <trkpt lat="54.99594" lon="-1.46409">
        <ele>23.13</ele>
        <time>2021-03-20T14:23:58Z</time>
      </trkpt>
      <trkpt lat="54.996" lon="-1.46415">
        <ele>24.3</ele>
        <time>2021-03-20T14:24:01Z</time>
      </trkpt>
      <trkpt lat="54.99615" lon="-1.46444">
        <ele>27.73</ele>
        <time>2021-03-20T14:24:03Z</time>
      </trkpt>
      <trkpt lat="54.99639" lon="-1.46551">
        <ele>25.37</ele>
        <time>2021-03-20T14:24:05Z</time>
      </trkpt>
      <trkpt lat="54.99649" lon="-1.46599">
        <ele>24.8</ele>
        <time>2021-03-20T14:24:07Z</time>
      </trkpt>
      <trkpt lat="54.99655" lon="-1.46658">
        <ele>26.09</ele>
        <time>2021-03-20T14:24:09Z</time>
      </trkpt>
      <trkpt lat="54.99656" lon="-1.46679">
        <ele>27.51</ele>
        <time>2021-03-20T14:24:11Z</time>
      </trkpt>
      <trkpt lat="54.99654" lon="-1.46707">
        <ele>29.69</ele>
        <time>2021-03-20T14:24:14Z</time>
      </trkpt>
      <trkpt lat="54.9965" lon="-1.4672">
        <ele>30.27</ele>
        <time>2021-03-20T14:24:17Z</time>
      </trkpt>
      <trkpt lat="54.99648" lon="-1.46742">
        <ele>29.85</ele>
        <time>2021-03-20T14:24:20Z</time>
      </trkpt>
      <trkpt lat="54.99651" lon="-1.46755">
        <ele>29.85</ele>
        <time>2021-03-20T14:24:23Z</time>
      </trkpt>
      <trkpt lat="54.99657" lon="-1.46766">
        <ele>30.28</ele>
        <time>2021-03-20T14:24:26Z</time>
      </trkpt>
      <trkpt lat="54.99663" lon="-1.46784">
        <ele>30.28</ele>
        <time>2021-03-20T14:24:29Z</time>
      </trkpt>
      <trkpt lat="54.99667" lon="-1.46811">
        <ele>28.59</ele>
        <time>2021-03-20T14:24:32Z</time>
      </trkpt>
      <trkpt lat="54.99666" lon="-1.46838">
        <ele>27</ele>
        <time>2021-03-20T14:24:35Z</time>
      </trkpt>
      <trkpt lat="54.99662" lon="-1.46866">
        <ele>26.83</ele>
        <time>2021-03-20T14:24:38Z</time>
      </trkpt>
      <trkpt lat="54.99651" lon="-1.46911">
        <ele>26.43</ele>
        <time>2021-03-20T14:24:41Z</time>
      </trkpt>
      <trkpt lat="54.99579" lon="-1.47147">
        <ele>28.83</ele>
        <time>2021-03-20T14:24:44Z</time>
      </trkpt>
      <trkpt lat="54.99547" lon="-1.4728">
        <ele>31.72</ele>
        <time>2021-03-20T14:24:47Z</time>
      </trkpt>
      <trkpt lat="54.99538" lon="-1.47311">
        <ele>32</ele>
        <time>2021-03-20T14:24:50Z</time>
      </trkpt>
      <trkpt lat="54.99529" lon="-1.47327">
        <ele>32</ele>
        <time>2021-03-20T14:24:53Z</time>
      </trkpt>
      <trkpt lat="54.99517" lon="-1.47339">
        <ele>31.07</ele>
        <time>2021-03-20T14:24:56Z</time>
      </trkpt>
      <trkpt lat="54.99508" lon="-1.47347">
        <ele>30.42</ele>
        <time>2021-03-20T14:24:59Z</time>
      </trkpt>
      <trkpt lat="54.99499" lon="-1.47372">
        <ele>29.88</ele>
        <time>2021-03-20T14:25:03Z</time>
      </trkpt>
      <trkpt lat="54.99499" lon="-1.47384">
        <ele>29.84</ele>
        <time>2021-03-20T14:25:06Z</time>
      </trkpt>
      <trkpt lat="54.99501" lon="-1.47396">
        <ele>30.27</ele>
        <time>2021-03-20T14:25:10Z</time>
      </trkpt>
      <trkpt lat="54.99514" lon="-1.4743">
        <ele>30.24</ele>
        <time>2021-03-20T14:25:13Z</time>
      </trkpt>
      <trkpt lat="54.99519" lon="-1.47457">
        <ele>30.05</ele>
        <time>2021-03-20T14:25:17Z</time>
      </trkpt>
      <trkpt lat="54.99524" lon="-1.47516">
        <ele>30.58</ele>
        <time>2021-03-20T14:25:20Z</time>
      </trkpt>
      <trkpt lat="54.99521" lon="-1.47643">
        <ele>27.14</ele>
        <time>2021-03-20T14:25:24Z</time>
      </trkpt>
      <trkpt lat="54.99519" lon="-1.47925">
        <ele>29.38</ele>
        <time>2021-03-20T14:25:27Z</time>
      </trkpt>
      <trkpt lat="54.9952" lon="-1.47951">
        <ele>29.06</ele>
        <time>2021-03-20T14:25:31Z</time>
      </trkpt>
      <trkpt lat="54.99529" lon="-1.48009">
        <ele>27.08</ele>
        <time>2021-03-20T14:25:34Z</time>
      </trkpt>
      <trkpt lat="54.9953" lon="-1.48034">
        <ele>27.09</ele>
        <time>2021-03-20T14:25:38Z</time>
      </trkpt>
      <trkpt lat="54.99527" lon="-1.48051">
        <ele>26.96</ele>
        <time>2021-03-20T14:25:41Z</time>
      </trkpt>
      <trkpt lat="54.99521" lon="-1.48066">
        <ele>26.84</ele>
        <time>2021-03-20T14:25:45Z</time>
      </trkpt>
      <trkpt lat="54.99492" lon="-1.48121">
        <ele>27.35</ele>
        <time>2021-03-20T14:25:49Z</time>
      </trkpt>
      <trkpt lat="54.99463" lon="-1.4816">
        <ele>24.89</ele>
        <time>2021-03-20T14:25:52Z</time>
      </trkpt>
      <trkpt lat="54.99414" lon="-1.4821">
        <ele>21.17</ele>
        <time>2021-03-20T14:25:56Z</time>
      </trkpt>
      <trkpt lat="54.99353" lon="-1.48264">
        <ele>23.85</ele>
        <time>2021-03-20T14:26:00Z</time>
      </trkpt>
      <trkpt lat="54.99266" lon="-1.48358">
        <ele>19.44</ele>
        <time>2021-03-20T14:26:03Z</time>
      </trkpt>
      <trkpt lat="54.99235" lon="-1.4838">
        <ele>18.8</ele>
        <time>2021-03-20T14:26:07Z</time>
      </trkpt>
      <trkpt lat="54.99211" lon="-1.48393">
        <ele>17.02</ele>
        <time>2021-03-20T14:26:11Z</time>
      </trkpt>
      <trkpt lat="54.99189" lon="-1.48398">
        <ele>15.4</ele>
        <time>2021-03-20T14:26:14Z</time>
      </trkpt>
      <trkpt lat="54.99163" lon="-1.48397">
        <ele>14.17</ele>
        <time>2021-03-20T14:26:18Z</time>
      </trkpt>
      <trkpt lat="54.99149" lon="-1.48394">
        <ele>13.47</ele>
        <time>2021-03-20T14:26:21Z</time>
      </trkpt>
      <trkpt lat="54.99115" lon="-1.48372">
        <ele>11.9</ele>
        <time>2021-03-20T14:26:25Z</time>
      </trkpt>
      <trkpt lat="54.99093" lon="-1.48347">
        <ele>12.05</ele>
        <time>2021-03-20T14:26:29Z</time>
      </trkpt>
      <trkpt lat="54.99082" lon="-1.48314">
        <ele>11.9</ele>
        <time>2021-03-20T14:26:32Z</time>
      </trkpt>
      <trkpt lat="54.99083" lon="-1.48302">
        <ele>12.14</ele>
        <time>2021-03-20T14:26:35Z</time>
      </trkpt>
      <trkpt lat="54.99081" lon="-1.48282">
        <ele>12.64</ele>
        <time>2021-03-20T14:26:38Z</time>
      </trkpt>
      <trkpt lat="54.99072" lon="-1.48266">
        <ele>12.16</ele>
        <time>2021-03-20T14:26:41Z</time>
      </trkpt>
      <trkpt lat="54.99065" lon="-1.48262">
        <ele>11.7</ele>
        <time>2021-03-20T14:26:44Z</time>
      </trkpt>
      <trkpt lat="54.99059" lon="-1.48262">
        <ele>11.21</ele>
        <time>2021-03-20T14:26:47Z</time>
      </trkpt>
      <trkpt lat="54.99051" lon="-1.48265">
        <ele>10.7</ele>
        <time>2021-03-20T14:26:50Z</time>
      </trkpt>
      <trkpt lat="54.99045" lon="-1.48272">
        <ele>10.27</ele>
        <time>2021-03-20T14:26:53Z</time>
      </trkpt>
      <trkpt lat="54.99009" lon="-1.48276">
        <ele>8.32</ele>
        <time>2021-03-20T14:26:56Z</time>
      </trkpt>
      <trkpt lat="54.99004" lon="-1.4828">
        <ele>8.05</ele>
        <time>2021-03-20T14:26:59Z</time>
      </trkpt>
      <trkpt lat="54.98996" lon="-1.48296">
        <ele>7.18</ele>
        <time>2021-03-20T14:27:02Z</time>
      </trkpt>
      <trkpt lat="54.98992" lon="-1.48325">
        <ele>6.5</ele>
        <time>2021-03-20T14:27:04Z</time>
      </trkpt>
      <trkpt lat="54.9898" lon="-1.4848">
        <ele>5.58</ele>
        <time>2021-03-20T14:27:07Z</time>
      </trkpt>
      <trkpt lat="54.98978" lon="-1.48549">
        <ele>6.22</ele>
        <time>2021-03-20T14:27:10Z</time>
      </trkpt>
      <trkpt lat="54.98982" lon="-1.48621">
        <ele>7.11</ele>
        <time>2021-03-20T14:27:13Z</time>
      </trkpt>
      <trkpt lat="54.98987" lon="-1.4866">
        <ele>7.53</ele>
        <time>2021-03-20T14:27:16Z</time>
      </trkpt>
      <trkpt lat="54.98994" lon="-1.48693">
        <ele>8.31</ele>
        <time>2021-03-20T14:27:19Z</time>
      </trkpt>
      <trkpt lat="54.99006" lon="-1.4873">
        <ele>9.49</ele>
        <time>2021-03-20T14:27:22Z</time>
      </trkpt>
      <trkpt lat="54.99024" lon="-1.48777">
        <ele>11.73</ele>
        <time>2021-03-20T14:27:25Z</time>
      </trkpt>
      <trkpt lat="54.99085" lon="-1.48977">
        <ele>17.15</ele>
        <time>2021-03-20T14:27:28Z</time>
      </trkpt>
      <trkpt lat="54.99094" lon="-1.49028">
        <ele>16.76</ele>
        <time>2021-03-20T14:27:31Z</time>
      </trkpt>
      <trkpt lat="54.991" lon="-1.49088">
        <ele>15.84</ele>
        <time>2021-03-20T14:27:34Z</time>
      </trkpt>
      <trkpt lat="54.99096" lon="-1.49089">
        <ele>15.33</ele>
        <time>2021-03-20T14:27:38Z</time>
      </trkpt>
      <trkpt lat="54.99092" lon="-1.49095">
        <ele>14.95</ele>
        <time>2021-03-20T14:27:42Z</time>
      </trkpt>
      <trkpt lat="54.99091" lon="-1.49103">
        <ele>14.86</ele>
        <time>2021-03-20T14:27:47Z</time>
      </trkpt>
      <trkpt lat="54.99095" lon="-1.49113">
        <ele>15.31</ele>
        <time>2021-03-20T14:27:51Z</time>
      </trkpt>
      <trkpt lat="54.99086" lon="-1.4913">
        <ele>14.31</ele>
        <time>2021-03-20T14:27:56Z</time>
      </trkpt>
      <trkpt lat="54.99076" lon="-1.49154">
        <ele>13.07</ele>
        <time>2021-03-20T14:28:00Z</time>
      </trkpt>
      <trkpt lat="54.99064" lon="-1.49213">
        <ele>14.3</ele>
        <time>2021-03-20T14:28:05Z</time>
      </trkpt>
      <trkpt lat="54.99061" lon="-1.49252">
        <ele>15.19</ele>
        <time>2021-03-20T14:28:09Z</time>
      </trkpt>
      <trkpt lat="54.99061" lon="-1.49337">
        <ele>13.33</ele>
        <time>2021-03-20T14:28:14Z</time>
      </trkpt>
      <trkpt lat="54.99055" lon="-1.496">
        <ele>10.39</ele>
        <time>2021-03-20T14:28:18Z</time>
      </trkpt>
      <trkpt lat="54.99061" lon="-1.49696">
        <ele>9.59</ele>
        <time>2021-03-20T14:28:22Z</time>
      </trkpt>
      <trkpt lat="54.99069" lon="-1.49753">
        <ele>9.92</ele>
        <time>2021-03-20T14:28:27Z</time>
      </trkpt>
      <trkpt lat="54.9908" lon="-1.49801">
        <ele>10.76</ele>
        <time>2021-03-20T14:28:31Z</time>
      </trkpt>
      <trkpt lat="54.99093" lon="-1.49873">
        <ele>11.72</ele>
        <time>2021-03-20T14:28:36Z</time>
      </trkpt>
      <trkpt lat="54.99099" lon="-1.49932">
        <ele>12.56</ele>
        <time>2021-03-20T14:28:40Z</time>
      </trkpt>
      <trkpt lat="54.99091" lon="-1.50051">
        <ele>10.46</ele>
        <time>2021-03-20T14:28:45Z</time>
      </trkpt>
      <trkpt lat="54.9908" lon="-1.50153">
        <ele>8.83</ele>
        <time>2021-03-20T14:28:49Z</time>
      </trkpt>
      <trkpt lat="54.99077" lon="-1.50197">
        <ele>7.74</ele>
        <time>2021-03-20T14:28:53Z</time>
      </trkpt>
      <trkpt lat="54.99077" lon="-1.50241">
        <ele>6.37</ele>
        <time>2021-03-20T14:28:58Z</time>
      </trkpt>
      <trkpt lat="54.99079" lon="-1.50283">
        <ele>4.83</ele>
        <time>2021-03-20T14:29:02Z</time>
      </trkpt>
      <trkpt lat="54.99088" lon="-1.50338">
        <ele>4.51</ele>
        <time>2021-03-20T14:29:07Z</time>
      </trkpt>
      <trkpt lat="54.99098" lon="-1.50371">
        <ele>4.31</ele>
        <time>2021-03-20T14:29:11Z</time>
      </trkpt>
      <trkpt lat="54.99113" lon="-1.50409">
        <ele>4.07</ele>
        <time>2021-03-20T14:29:16Z</time>
      </trkpt>
      <trkpt lat="54.99134" lon="-1.5044">
        <ele>3.85</ele>
        <time>2021-03-20T14:29:20Z</time>
      </trkpt>
      <trkpt lat="54.9922" lon="-1.50555">
        <ele>9.16</ele>
        <time>2021-03-20T14:29:24Z</time>
      </trkpt>
      <trkpt lat="54.99238" lon="-1.50586">
        <ele>8.35</ele>
        <time>2021-03-20T14:29:29Z</time>
      </trkpt>
      <trkpt lat="54.99253" lon="-1.50622">
        <ele>8.2</ele>
        <time>2021-03-20T14:29:33Z</time>
      </trkpt>
      <trkpt lat="54.99269" lon="-1.50669">
        <ele>9.43</ele>
        <time>2021-03-20T14:29:38Z</time>
      </trkpt>
      <trkpt lat="54.99282" lon="-1.50717">
        <ele>11.93</ele>
        <time>2021-03-20T14:29:42Z</time>
      </trkpt>
      <trkpt lat="54.99291" lon="-1.50787">
        <ele>13.22</ele>
        <time>2021-03-20T14:29:47Z</time>
      </trkpt>
      <trkpt lat="54.99295" lon="-1.50866">
        <ele>17.98</ele>
        <time>2021-03-20T14:29:51Z</time>
      </trkpt>
      <trkpt lat="54.99292" lon="-1.50955">
        <ele>20.88</ele>
        <time>2021-03-20T14:29:55Z</time>
      </trkpt>
      <trkpt lat="54.99285" lon="-1.51026">
        <ele>21.73</ele>
        <time>2021-03-20T14:30:00Z</time>
      </trkpt>
      <trkpt lat="54.99226" lon="-1.51449">
        <ele>21.02</ele>
        <time>2021-03-20T14:30:04Z</time>
      </trkpt>
      <trkpt lat="54.99213" lon="-1.51508">
        <ele>21.2</ele>
        <time>2021-03-20T14:30:09Z</time>
      </trkpt>
      <trkpt lat="54.99198" lon="-1.51553">
        <ele>21.13</ele>
        <time>2021-03-20T14:30:13Z</time>
      </trkpt>
      <trkpt lat="54.99178" lon="-1.51595">
        <ele>20.41</ele>
        <time>2021-03-20T14:30:18Z</time>
      </trkpt>
      <trkpt lat="54.99119" lon="-1.51704">
        <ele>23</ele>
        <time>2021-03-20T14:30:22Z</time>
      </trkpt>
      <trkpt lat="54.99098" lon="-1.51755">
        <ele>22.07</ele>
        <time>2021-03-20T14:30:26Z</time>
      </trkpt>
      <trkpt lat="54.99083" lon="-1.51827">
        <ele>20.95</ele>
        <time>2021-03-20T14:30:31Z</time>
      </trkpt>
      <trkpt lat="54.99076" lon="-1.51831">
        <ele>20.46</ele>
        <time>2021-03-20T14:30:37Z</time>
      </trkpt>
      <trkpt lat="54.99073" lon="-1.51839">
        <ele>20.12</ele>
        <time>2021-03-20T14:30:42Z</time>
      </trkpt>
      <trkpt lat="54.99076" lon="-1.51854">
        <ele>19.9</ele>
        <time>2021-03-20T14:30:48Z</time>
      </trkpt>
      <trkpt lat="54.99071" lon="-1.51873">
        <ele>19.31</ele>
        <time>2021-03-20T14:30:54Z</time>
      </trkpt>
      <trkpt lat="54.99052" lon="-1.51922">
        <ele>18.86</ele>
        <time>2021-03-20T14:31:00Z</time>
      </trkpt>
      <trkpt lat="54.99039" lon="-1.5197">
        <ele>18.04</ele>
        <time>2021-03-20T14:31:06Z</time>
      </trkpt>
      <trkpt lat="54.99025" lon="-1.52069">
        <ele>17.15</ele>
        <time>2021-03-20T14:31:11Z</time>
      </trkpt>
      <trkpt lat="54.99022" lon="-1.52119">
        <ele>15.88</ele>
        <time>2021-03-20T14:31:17Z</time>
      </trkpt>
      <trkpt lat="54.99019" lon="-1.52218">
        <ele>15.02</ele>
        <time>2021-03-20T14:31:23Z</time>
      </trkpt>
      <trkpt lat="54.9902" lon="-1.52307">
        <ele>16.93</ele>
        <time>2021-03-20T14:31:29Z</time>
      </trkpt>
      <trkpt lat="54.99028" lon="-1.52444">
        <ele>19.97</ele>
        <time>2021-03-20T14:31:35Z</time>
      </trkpt>
      <trkpt lat="54.99026" lon="-1.52519">
        <ele>22.59</ele>
        <time>2021-03-20T14:31:40Z</time>
      </trkpt>
      <trkpt lat="54.99008" lon="-1.52654">
        <ele>21</ele>
        <time>2021-03-20T14:31:46Z</time>
      </trkpt>
      <trkpt lat="54.98967" lon="-1.52841">
        <ele>22.27</ele>
        <time>2021-03-20T14:31:52Z</time>
      </trkpt>
      <trkpt lat="54.98962" lon="-1.52861">
        <ele>23</ele>
        <time>2021-03-20T14:31:58Z</time>
      </trkpt>
      <trkpt lat="54.98956" lon="-1.5288">
        <ele>23</ele>
        <time>2021-03-20T14:32:04Z</time>
      </trkpt>
      <trkpt lat="54.98874" lon="-1.53098">
        <ele>24.54</ele>
        <time>2021-03-20T14:32:09Z</time>
      </trkpt>
      <trkpt lat="54.98847" lon="-1.53162">
        <ele>25.5</ele>
        <time>2021-03-20T14:32:15Z</time>
      </trkpt>
      <trkpt lat="54.98804" lon="-1.53283">
        <ele>24.07</ele>
        <time>2021-03-20T14:32:21Z</time>
      </trkpt>
      <trkpt lat="54.98783" lon="-1.53332">
        <ele>24.16</ele>
        <time>2021-03-20T14:32:27Z</time>
      </trkpt>
      <trkpt lat="54.98762" lon="-1.53369">
        <ele>24.72</ele>
        <time>2021-03-20T14:32:33Z</time>
      </trkpt>
      <trkpt lat="54.98688" lon="-1.53481">
        <ele>25.33</ele>
        <time>2021-03-20T14:32:38Z</time>
      </trkpt>
      <trkpt lat="54.98486" lon="-1.53776">
        <ele>22.98</ele>
        <time>2021-03-20T14:32:44Z</time>
      </trkpt>
      <trkpt lat="54.98473" lon="-1.53806">
        <ele>23.06</ele>
        <time>2021-03-20T14:32:50Z</time>
      </trkpt>
      <trkpt lat="54.98466" lon="-1.53806">
        <ele>22.56</ele>
        <time>2021-03-20T14:32:54Z</time>
      </trkpt>
      <trkpt lat="54.98462" lon="-1.53815">
        <ele>22.26</ele>
        <time>2021-03-20T14:32:57Z</time>
      </trkpt>
      <trkpt lat="54.98464" lon="-1.53827">
        <ele>22.42</ele>
        <time>2021-03-20T14:33:01Z</time>
      </trkpt>
      <trkpt lat="54.98471" lon="-1.53831">
        <ele>22.92</ele>
        <time>2021-03-20T14:33:04Z</time>
      </trkpt>
      <trkpt lat="54.98471" lon="-1.53846">
        <ele>22.91</ele>
        <time>2021-03-20T14:33:08Z</time>
      </trkpt>
      <trkpt lat="54.98463" lon="-1.5394">
        <ele>21.67</ele>
        <time>2021-03-20T14:33:11Z</time>
      </trkpt>
      <trkpt lat="54.98426" lon="-1.54197">
        <ele>20.38</ele>
        <time>2021-03-20T14:33:15Z</time>
      </trkpt>
      <trkpt lat="54.98422" lon="-1.54195">
        <ele>20.2</ele>
        <time>2021-03-20T14:33:27Z</time>
      </trkpt>
      <trkpt lat="54.98414" lon="-1.54198">
        <ele>20.14</ele>
        <time>2021-03-20T14:33:39Z</time>
      </trkpt>
      <trkpt lat="54.98409" lon="-1.54209">
        <ele>20.52</ele>
        <time>2021-03-20T14:33:50Z</time>
      </trkpt>
      <trkpt lat="54.98408" lon="-1.54216">
        <ele>20.76</ele>
        <time>2021-03-20T14:34:02Z</time>
      </trkpt>
      <trkpt lat="54.98408" lon="-1.54222">
        <ele>21</ele>
        <time>2021-03-20T14:34:14Z</time>
      </trkpt>
      <trkpt lat="54.98412" lon="-1.54234">
        <ele>21.41</ele>
        <time>2021-03-20T14:34:26Z</time>
      </trkpt>
      <trkpt lat="54.98419" lon="-1.54239">
        <ele>21.6</ele>
        <time>2021-03-20T14:34:38Z</time>
      </trkpt>
      <trkpt lat="54.98409" lon="-1.54302">
        <ele>23.88</ele>
        <time>2021-03-20T14:34:50Z</time>
      </trkpt>
      <trkpt lat="54.9835" lon="-1.54763">
        <ele>27</ele>
        <time>2021-03-20T14:35:01Z</time>
      </trkpt>
      <trkpt lat="54.98284" lon="-1.5525">
        <ele>27.24</ele>
        <time>2021-03-20T14:35:13Z</time>
      </trkpt>
      <trkpt lat="54.98259" lon="-1.55444">
        <ele>27.67</ele>
        <time>2021-03-20T14:35:25Z</time>
      </trkpt>
      <trkpt lat="54.98224" lon="-1.55689">
        <ele>33.75</ele>
        <time>2021-03-20T14:35:37Z</time>
      </trkpt>
      <trkpt lat="54.9819" lon="-1.55822">
        <ele>33.85</ele>
        <time>2021-03-20T14:35:49Z</time>
      </trkpt>
      <trkpt lat="54.9797" lon="-1.5672">
        <ele>46.87</ele>
        <time>2021-03-20T14:36:00Z</time>
      </trkpt>
      <trkpt lat="54.97936" lon="-1.56869">
        <ele>49.42</ele>
        <time>2021-03-20T14:36:12Z</time>
      </trkpt>
      <trkpt lat="54.97921" lon="-1.56937">
        <ele>48.28</ele>
        <time>2021-03-20T14:36:17Z</time>
      </trkpt>
      <trkpt lat="54.97923" lon="-1.56993">
        <ele>50.01</ele>
        <time>2021-03-20T14:36:21Z</time>
      </trkpt>
      <trkpt lat="54.97911" lon="-1.57019">
        <ele>50.54</ele>
        <time>2021-03-20T14:36:25Z</time>
      </trkpt>
      <trkpt lat="54.97894" lon="-1.57049">
        <ele>50.18</ele>
        <time>2021-03-20T14:36:30Z</time>
      </trkpt>
      <trkpt lat="54.97854" lon="-1.57201">
        <ele>54.49</ele>
        <time>2021-03-20T14:36:34Z</time>
      </trkpt>
      <trkpt lat="54.9785" lon="-1.572">
        <ele>54.6</ele>
        <time>2021-03-20T14:36:36Z</time>
      </trkpt>
      <trkpt lat="54.97843" lon="-1.57207">
        <ele>55.09</ele>
        <time>2021-03-20T14:36:38Z</time>
      </trkpt>
      <trkpt lat="54.97842" lon="-1.5722">
        <ele>55.62</ele>
        <time>2021-03-20T14:36:40Z</time>
      </trkpt>
      <trkpt lat="54.97847" lon="-1.57231">
        <ele>55.51</ele>
        <time>2021-03-20T14:36:42Z</time>
      </trkpt>
      <trkpt lat="54.97829" lon="-1.57281">
        <ele>56.3</ele>
        <time>2021-03-20T14:36:44Z</time>
      </trkpt>
      <trkpt lat="54.97809" lon="-1.57329">
        <ele>57.74</ele>
        <time>2021-03-20T14:36:46Z</time>
      </trkpt>
      <trkpt lat="54.97779" lon="-1.57372">
        <ele>58.9</ele>
        <time>2021-03-20T14:36:48Z</time>
      </trkpt>
      <trkpt lat="54.97772" lon="-1.57376">
        <ele>59.1</ele>
        <time>2021-03-20T14:36:53Z</time>
      </trkpt>
      <trkpt lat="54.97768" lon="-1.57384">
        <ele>59.29</ele>
        <time>2021-03-20T14:36:58Z</time>
      </trkpt>
      <trkpt lat="54.97764" lon="-1.574">
        <ele>59.9</ele>
        <time>2021-03-20T14:37:03Z</time>
      </trkpt>
      <trkpt lat="54.97747" lon="-1.57424">
        <ele>61.35</ele>
        <time>2021-03-20T14:37:08Z</time>
      </trkpt>
      <trkpt lat="54.97728" lon="-1.57439">
        <ele>62.59</ele>
        <time>2021-03-20T14:37:13Z</time>
      </trkpt>
      <trkpt lat="54.97712" lon="-1.57459">
        <ele>62.12</ele>
        <time>2021-03-20T14:37:18Z</time>
      </trkpt>
      <trkpt lat="54.97684" lon="-1.57503">
        <ele>60.51</ele>
        <time>2021-03-20T14:37:23Z</time>
      </trkpt>
      <trkpt lat="54.9767" lon="-1.57539">
        <ele>59.06</ele>
        <time>2021-03-20T14:37:28Z</time>
      </trkpt>
      <trkpt lat="54.97658" lon="-1.57576">
        <ele>58.57</ele>
        <time>2021-03-20T14:37:33Z</time>
      </trkpt>
      <trkpt lat="54.97649" lon="-1.57616">
        <ele>58.26</ele>
        <time>2021-03-20T14:37:38Z</time>
      </trkpt>
      <trkpt lat="54.97609" lon="-1.57873">
        <ele>54.32</ele>
        <time>2021-03-20T14:37:43Z</time>
      </trkpt>
      <trkpt lat="54.97541" lon="-1.58335">
        <ele>39.88</ele>
        <time>2021-03-20T14:37:48Z</time>
      </trkpt>
      <trkpt lat="54.97535" lon="-1.58385">
        <ele>37.9</ele>
        <time>2021-03-20T14:37:53Z</time>
      </trkpt>
      <trkpt lat="54.9753" lon="-1.58498">
        <ele>36.08</ele>
        <time>2021-03-20T14:37:58Z</time>
      </trkpt>
      <trkpt lat="54.97532" lon="-1.58564">
        <ele>35.29</ele>
        <time>2021-03-20T14:38:03Z</time>
      </trkpt>
      <trkpt lat="54.97538" lon="-1.58636">
        <ele>36.29</ele>
        <time>2021-03-20T14:38:08Z</time>
      </trkpt>
      <trkpt lat="54.97546" lon="-1.58699">
        <ele>37.28</ele>
        <time>2021-03-20T14:38:13Z</time>
      </trkpt>
      <trkpt lat="54.97544" lon="-1.58709">
        <ele>37.17</ele>
        <time>2021-03-20T14:38:20Z</time>
      </trkpt>
      <trkpt lat="54.97545" lon="-1.58722">
        <ele>37.25</ele>
        <time>2021-03-20T14:38:27Z</time>
      </trkpt>
      <trkpt lat="54.97548" lon="-1.58729">
        <ele>37.01</ele>
        <time>2021-03-20T14:38:33Z</time>
      </trkpt>
      <trkpt lat="54.97567" lon="-1.58774">
        <ele>35.56</ele>
        <time>2021-03-20T14:38:40Z</time>
      </trkpt>
      <trkpt lat="54.97587" lon="-1.5885">
        <ele>32.66</ele>
        <time>2021-03-20T14:38:46Z</time>
      </trkpt>
      <trkpt lat="54.97598" lon="-1.58902">
        <ele>31.56</ele>
        <time>2021-03-20T14:38:53Z</time>
      </trkpt>
      <trkpt lat="54.97601" lon="-1.58939">
        <ele>29.53</ele>
        <time>2021-03-20T14:39:00Z</time>
      </trkpt>
      <trkpt lat="54.97599" lon="-1.58951">
        <ele>28.16</ele>
        <time>2021-03-20T14:39:06Z</time>
      </trkpt>
      <trkpt lat="54.97535" lon="-1.59455">
        <ele>30.43</ele>
        <time>2021-03-20T14:39:13Z</time>
      </trkpt>
      <trkpt lat="54.97521" lon="-1.59524">
        <ele>30.74</ele>
        <time>2021-03-20T14:39:19Z</time>
      </trkpt>
      <trkpt lat="54.97494" lon="-1.59628">
        <ele>35.52</ele>
        <time>2021-03-20T14:39:26Z</time>
      </trkpt>
      <trkpt lat="54.97474" lon="-1.59692">
        <ele>37.85</ele>
        <time>2021-03-20T14:39:33Z</time>
      </trkpt>
      <trkpt lat="54.97447" lon="-1.59833">
        <ele>36.85</ele>
        <time>2021-03-20T14:39:39Z</time>
      </trkpt>
      <trkpt lat="54.97445" lon="-1.59854">
        <ele>37</ele>
        <time>2021-03-20T14:39:46Z</time>
      </trkpt>
      <trkpt lat="54.97436" lon="-1.60296">
        <ele>41.13</ele>
        <time>2021-03-20T14:39:52Z</time>
      </trkpt>
      <trkpt lat="54.97438" lon="-1.60366">
        <ele>41.57</ele>
        <time>2021-03-20T14:39:59Z</time>
      </trkpt>
      <trkpt lat="54.97434" lon="-1.60388">
        <ele>41.23</ele>
        <time>2021-03-20T14:40:05Z</time>
      </trkpt>
      <trkpt lat="54.97448" lon="-1.60566">
        <ele>37.2</ele>
        <time>2021-03-20T14:40:12Z</time>
      </trkpt>
      <trkpt lat="54.97457" lon="-1.60592">
        <ele>37.47</ele>
        <time>2021-03-20T14:40:19Z</time>
      </trkpt>
      <trkpt lat="54.97471" lon="-1.60616">
        <ele>38.12</ele>
        <time>2021-03-20T14:40:25Z</time>
      </trkpt>
      <trkpt lat="54.9748" lon="-1.60629">
        <ele>39.53</ele>
        <time>2021-03-20T14:40:32Z</time>
      </trkpt>
      <trkpt lat="54.97478" lon="-1.60645">
        <ele>39.6</ele>
        <time>2021-03-20T14:40:34Z</time>
      </trkpt>
      <trkpt lat="54.97478" lon="-1.60664">
        <ele>39.65</ele>
        <time>2021-03-20T14:40:37Z</time>
      </trkpt>
      <trkpt lat="54.97482" lon="-1.60683">
        <ele>41.66</ele>
        <time>2021-03-20T14:40:39Z</time>
      </trkpt>
      <trkpt lat="54.97491" lon="-1.607">
        <ele>43.63</ele>
        <time>2021-03-20T14:40:41Z</time>
      </trkpt>
      <trkpt lat="54.97498" lon="-1.60707">
        <ele>44.34</ele>
        <time>2021-03-20T14:40:44Z</time>
      </trkpt>
      <trkpt lat="54.97512" lon="-1.60711">
        <ele>44.43</ele>
        <time>2021-03-20T14:40:46Z</time>
      </trkpt>
      <trkpt lat="54.97521" lon="-1.60734">
        <ele>46.18</ele>
        <time>2021-03-20T14:40:49Z</time>
      </trkpt>
      <trkpt lat="54.97532" lon="-1.60776">
        <ele>49.72</ele>
        <time>2021-03-20T14:40:51Z</time>
      </trkpt>
      <trkpt lat="54.97554" lon="-1.60824">
        <ele>51.71</ele>
        <time>2021-03-20T14:40:53Z</time>
      </trkpt>
      <trkpt lat="54.97579" lon="-1.60871">
        <ele>53</ele>
        <time>2021-03-20T14:40:56Z</time>
      </trkpt>
      <trkpt lat="54.97586" lon="-1.60917">
        <ele>53.1</ele>
        <time>2021-03-20T14:41:00Z</time>
      </trkpt>
      <trkpt lat="54.97582" lon="-1.60956">
        <ele>53.34</ele>
        <time>2021-03-20T14:41:05Z</time>
      </trkpt>
      <trkpt lat="54.97567" lon="-1.6104">
        <ele>53.8</ele>
        <time>2021-03-20T14:41:09Z</time>
      </trkpt>
      <trkpt lat="54.97626" lon="-1.61072">
        <ele>55.4</ele>
        <time>2021-03-20T14:41:31Z</time>
      </trkpt>
      <trkpt lat="54.97791" lon="-1.61153">
        <ele>51.77</ele>
        <time>2021-03-20T14:41:52Z</time>
      </trkpt>
      <trkpt lat="54.97783" lon="-1.61306">
        <ele>49.98</ele>
        <time>2021-03-20T14:41:59Z</time>
      </trkpt>
      <trkpt lat="54.97783" lon="-1.6134">
        <ele>49.49</ele>
        <time>2021-03-20T14:42:05Z</time>
      </trkpt>
      <trkpt lat="54.9779" lon="-1.61366">
        <ele>51.06</ele>
        <time>2021-03-20T14:42:12Z</time>
      </trkpt>
      <trkpt lat="54.97802" lon="-1.61389">
        <ele>52.78</ele>
        <time>2021-03-20T14:42:18Z</time>
      </trkpt>
      <trkpt lat="54.97799" lon="-1.614">
        <ele>53.26</ele>
        <time>2021-03-20T14:42:26Z</time>
      </trkpt>
      <trkpt lat="54.97788" lon="-1.6142">
        <ele>53.87</ele>
        <time>2021-03-20T14:42:34Z</time>
      </trkpt>
      <trkpt lat="54.9774" lon="-1.61462">
        <ele>52.98</ele>
        <time>2021-03-20T14:42:42Z</time>
      </trkpt>
      <trkpt lat="54.97733" lon="-1.61469">
        <ele>53.51</ele>
        <time>2021-03-20T14:42:49Z</time>
      </trkpt>
      <trkpt lat="54.97638" lon="-1.61559">
        <ele>54.14</ele>
        <time>2021-03-20T14:42:57Z</time>
      </trkpt>
      <trkpt lat="54.97549" lon="-1.61652">
        <ele>58.78</ele>
        <time>2021-03-20T14:43:05Z</time>
      </trkpt>
      <trkpt lat="54.97528" lon="-1.6167">
        <ele>58.13</ele>
        <time>2021-03-20T14:43:13Z</time>
      </trkpt>
      <trkpt lat="54.97492" lon="-1.61694">
        <ele>58.32</ele>
        <time>2021-03-20T14:43:20Z</time>
      </trkpt>
      <trkpt lat="54.97459" lon="-1.61708">
        <ele>59.96</ele>
        <time>2021-03-20T14:43:28Z</time>
      </trkpt>
      <trkpt lat="54.97462" lon="-1.61736">
        <ele>60.23</ele>
        <time>2021-03-20T14:43:37Z</time>
      </trkpt>
      <trkpt lat="54.9753" lon="-1.61815">
        <ele>60.39</ele>
        <time>2021-03-20T14:43:46Z</time>
      </trkpt>
      <trkpt lat="54.97484" lon="-1.61975">
        <ele>61.19</ele>
        <time>2021-03-20T14:43:53Z</time>
      </trkpt>
      <trkpt lat="54.97443" lon="-1.62126">
        <ele>65.5</ele>
        <time>2021-03-20T14:44:00Z</time>
      </trkpt>
      <trkpt lat="54.97432" lon="-1.62161">
        <ele>66.8</ele>
        <time>2021-03-20T14:44:06Z</time>
      </trkpt>
      <trkpt lat="54.97408" lon="-1.62224">
        <ele>65.16</ele>
        <time>2021-03-20T14:44:13Z</time>
      </trkpt>
      <trkpt lat="54.97446" lon="-1.62272">
        <ele>76.98</ele>
        <time>2021-03-20T14:44:22Z</time>
      </trkpt>
      <trkpt lat="54.9749" lon="-1.62332">
        <ele>83.79</ele>
        <time>2021-03-20T14:44:30Z</time>
      </trkpt>
      <trkpt lat="54.9752" lon="-1.62428">
        <ele>70.58</ele>
        <time>2021-03-20T14:44:39Z</time>
      </trkpt>
      <trkpt lat="54.97539" lon="-1.62499">
        <ele>68.39</ele>
        <time>2021-03-20T14:44:47Z</time>
      </trkpt>
      <trkpt lat="54.97556" lon="-1.62577">
        <ele>69.83</ele>
        <time>2021-03-20T14:44:55Z</time>
      </trkpt>
      <trkpt lat="54.97571" lon="-1.62632">
        <ele>72.3</ele>
        <time>2021-03-20T14:45:04Z</time>
      </trkpt>
      <trkpt lat="54.97588" lon="-1.62684">
        <ele>74.78</ele>
        <time>2021-03-20T14:45:12Z</time>
      </trkpt>
      <trkpt lat="54.97609" lon="-1.62718">
        <ele>75.91</ele>
        <time>2021-03-20T14:45:21Z</time>
      </trkpt>
      <trkpt lat="54.97644" lon="-1.62759">
        <ele>78.09</ele>
        <time>2021-03-20T14:45:29Z</time>
      </trkpt>
      <trkpt lat="54.97739" lon="-1.62863">
        <ele>78</ele>
        <time>2021-03-20T14:45:38Z</time>
      </trkpt>
      <trkpt lat="54.9776" lon="-1.62893">
        <ele>78.14</ele>
        <time>2021-03-20T14:45:46Z</time>
      </trkpt>
      <trkpt lat="54.97788" lon="-1.62944">
        <ele>79</ele>
        <time>2021-03-20T14:45:54Z</time>
      </trkpt>
      <trkpt lat="54.97853" lon="-1.6311">
        <ele>83.29</ele>
        <time>2021-03-20T14:46:03Z</time>
      </trkpt>
      <trkpt lat="54.9791" lon="-1.63246">
        <ele>84.9</ele>
        <time>2021-03-20T14:46:11Z</time>
      </trkpt>
      <trkpt lat="54.97976" lon="-1.63361">
        <ele>86.99</ele>
        <time>2021-03-20T14:46:20Z</time>
      </trkpt>
      <trkpt lat="54.97995" lon="-1.63388">
        <ele>87</ele>
        <time>2021-03-20T14:46:28Z</time>
      </trkpt>
      <trkpt lat="54.98069" lon="-1.6348">
        <ele>87.29</ele>
        <time>2021-03-20T14:46:37Z</time>
      </trkpt>
      <trkpt lat="54.98154" lon="-1.63602">
        <ele>85.94</ele>
        <time>2021-03-20T14:46:45Z</time>
      </trkpt>
      <trkpt lat="54.98183" lon="-1.63645">
        <ele>85.53</ele>
        <time>2021-03-20T14:46:54Z</time>
      </trkpt>
      <trkpt lat="54.98363" lon="-1.63943">
        <ele>89</ele>
        <time>2021-03-20T14:47:02Z</time>
      </trkpt>
      <trkpt lat="54.98426" lon="-1.6404">
        <ele>91.79</ele>
        <time>2021-03-20T14:47:10Z</time>
      </trkpt>
      <trkpt lat="54.98434" lon="-1.64062">
        <ele>92.75</ele>
        <time>2021-03-20T14:47:19Z</time>
      </trkpt>
      <trkpt lat="54.98445" lon="-1.64097">
        <ele>94.01</ele>
        <time>2021-03-20T14:47:21Z</time>
      </trkpt>
      <trkpt lat="54.98446" lon="-1.64116">
        <ele>94.05</ele>
        <time>2021-03-20T14:47:22Z</time>
      </trkpt>
      <trkpt lat="54.98445" lon="-1.64141">
        <ele>94.01</ele>
        <time>2021-03-20T14:47:24Z</time>
      </trkpt>
      <trkpt lat="54.9844" lon="-1.64174">
        <ele>93.88</ele>
        <time>2021-03-20T14:47:26Z</time>
      </trkpt>
      <trkpt lat="54.98435" lon="-1.64224">
        <ele>94.07</ele>
        <time>2021-03-20T14:47:38Z</time>
      </trkpt>
      <trkpt lat="54.98419" lon="-1.64619">
        <ele>100.21</ele>
        <time>2021-03-20T14:47:49Z</time>
      </trkpt>
      <trkpt lat="54.98414" lon="-1.64849">
        <ele>103.57</ele>
        <time>2021-03-20T14:48:01Z</time>
      </trkpt>
      <trkpt lat="54.98401" lon="-1.65271">
        <ele>107.43</ele>
        <time>2021-03-20T14:48:13Z</time>
      </trkpt>
      <trkpt lat="54.98387" lon="-1.65671">
        <ele>110.92</ele>
        <time>2021-03-20T14:48:25Z</time>
      </trkpt>
      <trkpt lat="54.98383" lon="-1.65749">
        <ele>109.25</ele>
        <time>2021-03-20T14:48:36Z</time>
      </trkpt>
      <trkpt lat="54.98382" lon="-1.65795">
        <ele>109.38</ele>
        <time>2021-03-20T14:48:48Z</time>
      </trkpt>
      <trkpt lat="54.98389" lon="-1.65875">
        <ele>109</ele>
        <time>2021-03-20T14:49:00Z</time>
      </trkpt>
      <trkpt lat="54.98406" lon="-1.65962">
        <ele>108.96</ele>
        <time>2021-03-20T14:49:12Z</time>
      </trkpt>
      <trkpt lat="54.98454" lon="-1.66155">
        <ele>108.66</ele>
        <time>2021-03-20T14:49:23Z</time>
      </trkpt>
      <trkpt lat="54.98514" lon="-1.66366">
        <ele>109.51</ele>
        <time>2021-03-20T14:49:35Z</time>
      </trkpt>
      <trkpt lat="54.98592" lon="-1.66569">
        <ele>102.07</ele>
        <time>2021-03-20T14:49:47Z</time>
      </trkpt>
      <trkpt lat="54.98715" lon="-1.6686">
        <ele>91.31</ele>
        <time>2021-03-20T14:49:58Z</time>
      </trkpt>
      <trkpt lat="54.98733" lon="-1.66897">
        <ele>90.71</ele>
        <time>2021-03-20T14:50:10Z</time>
      </trkpt>
      <trkpt lat="54.98774" lon="-1.6697">
        <ele>89.01</ele>
        <time>2021-03-20T14:50:22Z</time>
      </trkpt>
      <trkpt lat="54.98857" lon="-1.67107">
        <ele>87</ele>
        <time>2021-03-20T14:50:34Z</time>
      </trkpt>
      <trkpt lat="54.989" lon="-1.67042">
        <ele>88</ele>
        <time>2021-03-20T14:50:39Z</time>
      </trkpt>
      <trkpt lat="54.98953" lon="-1.66953">
        <ele>87.45</ele>
        <time>2021-03-20T14:50:44Z</time>
      </trkpt>
      <trkpt lat="54.9897" lon="-1.66939">
        <ele>86.34</ele>
        <time>2021-03-20T14:50:50Z</time>
      </trkpt>
      <trkpt lat="54.98985" lon="-1.66933">
        <ele>86.67</ele>
        <time>2021-03-20T14:50:55Z</time>
      </trkpt>
      <trkpt lat="54.98987" lon="-1.66936">
        <ele>86.67</ele>
        <time>2021-03-20T14:51:01Z</time>
      </trkpt>
      <trkpt lat="54.9899" lon="-1.66993">
        <ele>87.64</ele>
        <time>2021-03-20T14:51:07Z</time>
      </trkpt>
      <trkpt lat="54.98991" lon="-1.67151">
        <ele>87.67</ele>
        <time>2021-03-20T14:51:13Z</time>
      </trkpt>
      <trkpt lat="54.98993" lon="-1.67208">
        <ele>88.5</ele>
        <time>2021-03-20T14:51:19Z</time>
      </trkpt>
      <trkpt lat="54.99003" lon="-1.67283">
        <ele>88.25</ele>
        <time>2021-03-20T14:51:25Z</time>
      </trkpt>
      <trkpt lat="54.99029" lon="-1.67374">
        <ele>88.04</ele>
        <time>2021-03-20T14:51:31Z</time>
      </trkpt>
      <trkpt lat="54.9906" lon="-1.6744">
        <ele>88.15</ele>
        <time>2021-03-20T14:51:37Z</time>
      </trkpt>
      <trkpt lat="54.99095" lon="-1.67487">
        <ele>88</ele>
        <time>2021-03-20T14:51:43Z</time>
      </trkpt>
      <trkpt lat="54.99159" lon="-1.67555">
        <ele>90.72</ele>
        <time>2021-03-20T14:51:49Z</time>
      </trkpt>
      <trkpt lat="54.9918" lon="-1.67584">
        <ele>91</ele>
        <time>2021-03-20T14:51:55Z</time>
      </trkpt>
      <trkpt lat="54.99181" lon="-1.6759">
        <ele>91</ele>
        <time>2021-03-20T14:52:01Z</time>
      </trkpt>
      <trkpt lat="54.99185" lon="-1.67597">
        <ele>91</ele>
        <time>2021-03-20T14:52:06Z</time>
      </trkpt>
      <trkpt lat="54.99193" lon="-1.676">
        <ele>91</ele>
        <time>2021-03-20T14:52:12Z</time>
      </trkpt>
      <trkpt lat="54.9926" lon="-1.67675">
        <ele>91.29</ele>
        <time>2021-03-20T14:52:17Z</time>
      </trkpt>
      <trkpt lat="54.99409" lon="-1.67854">
        <ele>94.75</ele>
        <time>2021-03-20T14:52:22Z</time>
      </trkpt>
      <trkpt lat="54.99451" lon="-1.67924">
        <ele>97</ele>
        <time>2021-03-20T14:52:28Z</time>
      </trkpt>
      <trkpt lat="54.99475" lon="-1.67972">
        <ele>101.07</ele>
        <time>2021-03-20T14:52:33Z</time>
      </trkpt>
      <trkpt lat="54.99482" lon="-1.67988">
        <ele>101.14</ele>
        <time>2021-03-20T14:52:39Z</time>
      </trkpt>
      <trkpt lat="54.99488" lon="-1.68012">
        <ele>100.58</ele>
        <time>2021-03-20T14:52:44Z</time>
      </trkpt>
      <trkpt lat="54.99491" lon="-1.68041">
        <ele>99.69</ele>
        <time>2021-03-20T14:52:50Z</time>
      </trkpt>
      <trkpt lat="54.99488" lon="-1.68062">
        <ele>99.33</ele>
        <time>2021-03-20T14:52:52Z</time>
      </trkpt>
      <trkpt lat="54.99491" lon="-1.68086">
        <ele>99</ele>
        <time>2021-03-20T14:52:55Z</time>
      </trkpt>
      <trkpt lat="54.99501" lon="-1.68117">
        <ele>99.55</ele>
        <time>2021-03-20T14:52:58Z</time>
      </trkpt>
      <trkpt lat="54.99516" lon="-1.68141">
        <ele>100.03</ele>
        <time>2021-03-20T14:53:00Z</time>
      </trkpt>
      <trkpt lat="54.99534" lon="-1.68151">
        <ele>100.79</ele>
        <time>2021-03-20T14:53:03Z</time>
      </trkpt>
      <trkpt lat="54.99559" lon="-1.68174">
        <ele>102.59</ele>
        <time>2021-03-20T14:53:05Z</time>
      </trkpt>
      <trkpt lat="54.99577" lon="-1.68204">
        <ele>104.63</ele>
        <time>2021-03-20T14:53:08Z</time>
      </trkpt>
      <trkpt lat="54.99589" lon="-1.68235">
        <ele>105.11</ele>
        <time>2021-03-20T14:53:11Z</time>
      </trkpt>
      <trkpt lat="54.99587" lon="-1.68246">
        <ele>105.02</ele>
        <time>2021-03-20T14:53:18Z</time>
      </trkpt>
      <trkpt lat="54.99588" lon="-1.68257">
        <ele>105</ele>
        <time>2021-03-20T14:53:25Z</time>
      </trkpt>
      <trkpt lat="54.9959" lon="-1.68267">
        <ele>105</ele>
        <time>2021-03-20T14:53:32Z</time>
      </trkpt>
      <trkpt lat="54.99598" lon="-1.68279">
        <ele>105.05</ele>
        <time>2021-03-20T14:53:40Z</time>
      </trkpt>
      <trkpt lat="54.99609" lon="-1.68282">
        <ele>105.15</ele>
        <time>2021-03-20T14:53:47Z</time>
      </trkpt>
      <trkpt lat="54.99614" lon="-1.6828">
        <ele>105.17</ele>
        <time>2021-03-20T14:53:54Z</time>
      </trkpt>
      <trkpt lat="54.99623" lon="-1.68291">
        <ele>105.87</ele>
        <time>2021-03-20T14:54:01Z</time>
      </trkpt>
      <trkpt lat="54.99657" lon="-1.68352">
        <ele>108.3</ele>
        <time>2021-03-20T14:54:09Z</time>
      </trkpt>
      <trkpt lat="54.99676" lon="-1.68382">
        <ele>109</ele>
        <time>2021-03-20T14:54:16Z</time>
      </trkpt>
      <trkpt lat="54.99731" lon="-1.68527">
        <ele>110.68</ele>
        <time>2021-03-20T14:54:23Z</time>
      </trkpt>
      <trkpt lat="54.9979" lon="-1.68642">
        <ele>108.68</ele>
        <time>2021-03-20T14:54:30Z</time>
      </trkpt>
      <trkpt lat="54.99816" lon="-1.68721">
        <ele>109</ele>
        <time>2021-03-20T14:54:38Z</time>
      </trkpt>
      <trkpt lat="54.99828" lon="-1.68773">
        <ele>110.17</ele>
        <time>2021-03-20T14:54:45Z</time>
      </trkpt>
      <trkpt lat="54.99911" lon="-1.69209">
        <ele>109.8</ele>
        <time>2021-03-20T14:54:52Z</time>
      </trkpt>
      <trkpt lat="54.9992" lon="-1.69247">
        <ele>110.9</ele>
        <time>2021-03-20T14:54:59Z</time>
      </trkpt>
      <trkpt lat="54.99935" lon="-1.69301">
        <ele>111.29</ele>
        <time>2021-03-20T14:55:07Z</time>
      </trkpt>
      <trkpt lat="54.99975" lon="-1.69401">
        <ele>112.44</ele>
        <time>2021-03-20T14:55:14Z</time>
      </trkpt>
      <trkpt lat="55.00017" lon="-1.69497">
        <ele>114</ele>
        <time>2021-03-20T14:55:21Z</time>
      </trkpt>
      <trkpt lat="55.00059" lon="-1.69604">
        <ele>113</ele>
        <time>2021-03-20T14:55:28Z</time>
      </trkpt>
      <trkpt lat="55.00089" lon="-1.69665">
        <ele>112.57</ele>
        <time>2021-03-20T14:55:36Z</time>
      </trkpt>
      <trkpt lat="55.00145" lon="-1.69803">
        <ele>112.69</ele>
        <time>2021-03-20T14:55:43Z</time>
      </trkpt>
      <trkpt lat="55.00154" lon="-1.69824">
        <ele>112.46</ele>
        <time>2021-03-20T14:55:50Z</time>
      </trkpt>
      <trkpt lat="55.00194" lon="-1.6994">
        <ele>112.05</ele>
        <time>2021-03-20T14:55:57Z</time>
      </trkpt>
      <trkpt lat="55.00233" lon="-1.70063">
        <ele>110.88</ele>
        <time>2021-03-20T14:56:04Z</time>
      </trkpt>
      <trkpt lat="55.00338" lon="-1.70446">
        <ele>99.74</ele>
        <time>2021-03-20T14:56:12Z</time>
      </trkpt>
      <trkpt lat="55.00387" lon="-1.70606">
        <ele>100.94</ele>
        <time>2021-03-20T14:56:19Z</time>
      </trkpt>
      <trkpt lat="55.00462" lon="-1.70818">
        <ele>101.63</ele>
        <time>2021-03-20T14:56:26Z</time>
      </trkpt>
      <trkpt lat="55.00472" lon="-1.70854">
        <ele>102.73</ele>
        <time>2021-03-20T14:56:33Z</time>
      </trkpt>
      <trkpt lat="55.00481" lon="-1.70895">
        <ele>103.15</ele>
        <time>2021-03-20T14:56:41Z</time>
      </trkpt>
      <trkpt lat="55.00501" lon="-1.70965">
        <ele>103.73</ele>
        <time>2021-03-20T14:56:48Z</time>
      </trkpt>
      <trkpt lat="55.0055" lon="-1.71123">
        <ele>106.63</ele>
        <time>2021-03-20T14:56:55Z</time>
      </trkpt>
      <trkpt lat="55.00575" lon="-1.71194">
        <ele>106.57</ele>
        <time>2021-03-20T14:57:02Z</time>
      </trkpt>
      <trkpt lat="55.00598" lon="-1.71241">
        <ele>105.11</ele>
        <time>2021-03-20T14:57:10Z</time>
      </trkpt>
      <trkpt lat="55.00594" lon="-1.71253">
        <ele>105.23</ele>
        <time>2021-03-20T14:57:10Z</time>
      </trkpt>
      <trkpt lat="55.00595" lon="-1.71266">
        <ele>105.15</ele>
        <time>2021-03-20T14:57:11Z</time>
      </trkpt>
      <trkpt lat="55.006" lon="-1.71276">
        <ele>104.77</ele>
        <time>2021-03-20T14:57:12Z</time>
      </trkpt>
      <trkpt lat="55.00604" lon="-1.71278">
        <ele>104.5</ele>
        <time>2021-03-20T14:57:13Z</time>
      </trkpt>
      <trkpt lat="55.00612" lon="-1.71275">
        <ele>103.96</ele>
        <time>2021-03-20T14:57:13Z</time>
      </trkpt>
      <trkpt lat="55.00673" lon="-1.71417">
        <ele>100.53</ele>
        <time>2021-03-20T14:57:19Z</time>
      </trkpt>
      <trkpt lat="55.00708" lon="-1.71505">
        <ele>99.91</ele>
        <time>2021-03-20T14:57:24Z</time>
      </trkpt>
      <trkpt lat="55.00738" lon="-1.71605">
        <ele>97.43</ele>
        <time>2021-03-20T14:57:30Z</time>
      </trkpt>
      <trkpt lat="55.00767" lon="-1.71681">
        <ele>97.68</ele>
        <time>2021-03-20T14:57:35Z</time>
      </trkpt>
      <trkpt lat="55.00802" lon="-1.71765">
        <ele>94.65</ele>
        <time>2021-03-20T14:57:41Z</time>
      </trkpt>
      <trkpt lat="55.00845" lon="-1.7189">
        <ele>90.9</ele>
        <time>2021-03-20T14:57:46Z</time>
      </trkpt>
      <trkpt lat="55.00951" lon="-1.72164">
        <ele>82.77</ele>
        <time>2021-03-20T14:57:52Z</time>
      </trkpt>
      <trkpt lat="55.01031" lon="-1.72384">
        <ele>74.89</ele>
        <time>2021-03-20T14:57:58Z</time>
      </trkpt>
      <trkpt lat="55.01125" lon="-1.72547">
        <ele>75</ele>
        <time>2021-03-20T14:58:03Z</time>
      </trkpt>
      <trkpt lat="55.01143" lon="-1.72588">
        <ele>75.14</ele>
        <time>2021-03-20T14:58:09Z</time>
      </trkpt>
      <trkpt lat="55.01158" lon="-1.72638">
        <ele>75.4</ele>
        <time>2021-03-20T14:58:14Z</time>
      </trkpt>
      <trkpt lat="55.01202" lon="-1.72824">
        <ele>74.71</ele>
        <time>2021-03-20T14:58:20Z</time>
      </trkpt>
      <trkpt lat="55.0126" lon="-1.7309">
        <ele>74.37</ele>
        <time>2021-03-20T14:58:25Z</time>
      </trkpt>
      <trkpt lat="55.01295" lon="-1.73314">
        <ele>78.61</ele>
        <time>2021-03-20T14:58:31Z</time>
      </trkpt>
      <trkpt lat="55.01303" lon="-1.7342">
        <ele>81.9</ele>
        <time>2021-03-20T14:58:36Z</time>
      </trkpt>
      <trkpt lat="55.01307" lon="-1.73564">
        <ele>84.32</ele>
        <time>2021-03-20T14:58:42Z</time>
      </trkpt>
      <trkpt lat="55.01325" lon="-1.73916">
        <ele>83.01</ele>
        <time>2021-03-20T14:58:47Z</time>
      </trkpt>
      <trkpt lat="55.01329" lon="-1.73957">
        <ele>83</ele>
        <time>2021-03-20T14:58:53Z</time>
      </trkpt>
      <trkpt lat="55.01336" lon="-1.74118">
        <ele>84.75</ele>
        <time>2021-03-20T14:58:59Z</time>
      </trkpt>
      <trkpt lat="55.01341" lon="-1.74143">
        <ele>84</ele>
        <time>2021-03-20T14:59:04Z</time>
      </trkpt>
      <trkpt lat="55.01496" lon="-1.74526">
        <ele>93.93</ele>
        <time>2021-03-20T14:59:10Z</time>
      </trkpt>
      <trkpt lat="55.01506" lon="-1.74564">
        <ele>94.31</ele>
        <time>2021-03-20T14:59:15Z</time>
      </trkpt>
      <trkpt lat="55.01515" lon="-1.74608">
        <ele>95</ele>
        <time>2021-03-20T14:59:21Z</time>
      </trkpt>
      <trkpt lat="55.01535" lon="-1.74736">
        <ele>97.85</ele>
        <time>2021-03-20T14:59:26Z</time>
      </trkpt>
      <trkpt lat="55.01544" lon="-1.74829">
        <ele>103.05</ele>
        <time>2021-03-20T14:59:32Z</time>
      </trkpt>
      <trkpt lat="55.01544" lon="-1.74879">
        <ele>105.81</ele>
        <time>2021-03-20T14:59:37Z</time>
      </trkpt>
      <trkpt lat="55.0154" lon="-1.74928">
        <ele>106.9</ele>
        <time>2021-03-20T14:59:43Z</time>
      </trkpt>
      <trkpt lat="55.01541" lon="-1.74962">
        <ele>106.33</ele>
        <time>2021-03-20T14:59:48Z</time>
      </trkpt>
      <trkpt lat="55.0156" lon="-1.75065">
        <ele>107.34</ele>
        <time>2021-03-20T14:59:54Z</time>
      </trkpt>
      <trkpt lat="55.01564" lon="-1.75109">
        <ele>108</ele>
        <time>2021-03-20T15:00:00Z</time>
      </trkpt>
      <trkpt lat="55.01597" lon="-1.7564">
        <ele>117.96</ele>
        <time>2021-03-20T15:00:05Z</time>
      </trkpt>
      <trkpt lat="55.0161" lon="-1.75691">
        <ele>119.76</ele>
        <time>2021-03-20T15:00:11Z</time>
      </trkpt>
      <trkpt lat="55.0168" lon="-1.7591">
        <ele>132.97</ele>
        <time>2021-03-20T15:00:16Z</time>
      </trkpt>
      <trkpt lat="55.01708" lon="-1.76007">
        <ele>136.13</ele>
        <time>2021-03-20T15:00:22Z</time>
      </trkpt>
      <trkpt lat="55.01806" lon="-1.76196">
        <ele>141</ele>
        <time>2021-03-20T15:00:27Z</time>
      </trkpt>
      <trkpt lat="55.01912" lon="-1.76381">
        <ele>142.82</ele>
        <time>2021-03-20T15:00:33Z</time>
      </trkpt>
      <trkpt lat="55.02046" lon="-1.7666">
        <ele>142.58</ele>
        <time>2021-03-20T15:00:38Z</time>
      </trkpt>
      <trkpt lat="55.02089" lon="-1.7719">
        <ele>136.6</ele>
        <time>2021-03-20T15:00:44Z</time>
      </trkpt>
      <trkpt lat="55.02138" lon="-1.77468">
        <ele>134.05</ele>
        <time>2021-03-20T15:00:49Z</time>
      </trkpt>
      <trkpt lat="55.02147" lon="-1.77528">
        <ele>132.44</ele>
        <time>2021-03-20T15:00:55Z</time>
      </trkpt>
      <trkpt lat="55.02159" lon="-1.77712">
        <ele>131.86</ele>
        <time>2021-03-20T15:01:01Z</time>
      </trkpt>
      <trkpt lat="55.02159" lon="-1.77777">
        <ele>130.55</ele>
        <time>2021-03-20T15:01:06Z</time>
      </trkpt>
      <trkpt lat="55.02158" lon="-1.77834">
        <ele>128.98</ele>
        <time>2021-03-20T15:01:12Z</time>
      </trkpt>
      <trkpt lat="55.02153" lon="-1.77893">
        <ele>128.86</ele>
        <time>2021-03-20T15:01:17Z</time>
      </trkpt>
      <trkpt lat="55.02112" lon="-1.78101">
        <ele>129.93</ele>
        <time>2021-03-20T15:01:23Z</time>
      </trkpt>
      <trkpt lat="55.02058" lon="-1.78408">
        <ele>124.22</ele>
        <time>2021-03-20T15:01:28Z</time>
      </trkpt>
      <trkpt lat="55.02054" lon="-1.78466">
        <ele>123.22</ele>
        <time>2021-03-20T15:01:34Z</time>
      </trkpt>
      <trkpt lat="55.02063" lon="-1.78566">
        <ele>122.9</ele>
        <time>2021-03-20T15:01:39Z</time>
      </trkpt>
      <trkpt lat="55.0205" lon="-1.78837">
        <ele>121</ele>
        <time>2021-03-20T15:01:45Z</time>
      </trkpt>
      <trkpt lat="55.02039" lon="-1.78941">
        <ele>121</ele>
        <time>2021-03-20T15:01:50Z</time>
      </trkpt>
      <trkpt lat="55.0203" lon="-1.79089">
        <ele>122.94</ele>
        <time>2021-03-20T15:01:56Z</time>
      </trkpt>
      <trkpt lat="55.02027" lon="-1.79282">
        <ele>123.93</ele>
        <time>2021-03-20T15:02:02Z</time>
      </trkpt>
      <trkpt lat="55.02024" lon="-1.79334">
        <ele>123.71</ele>
        <time>2021-03-20T15:02:07Z</time>
      </trkpt>
      <trkpt lat="55.02017" lon="-1.79375">
        <ele>122.25</ele>
        <time>2021-03-20T15:02:13Z</time>
      </trkpt>
      <trkpt lat="55.0199" lon="-1.7949">
        <ele>120.65</ele>
        <time>2021-03-20T15:02:18Z</time>
      </trkpt>
      <trkpt lat="55.01974" lon="-1.79547">
        <ele>120</ele>
        <time>2021-03-20T15:02:24Z</time>
      </trkpt>
      <trkpt lat="55.01937" lon="-1.79664">
        <ele>118.27</ele>
        <time>2021-03-20T15:02:29Z</time>
      </trkpt>
      <trkpt lat="55.01921" lon="-1.79709">
        <ele>119</ele>
        <time>2021-03-20T15:02:35Z</time>
      </trkpt>
      <trkpt lat="55.0191" lon="-1.79757">
        <ele>119.25</ele>
        <time>2021-03-20T15:02:40Z</time>
      </trkpt>
      <trkpt lat="55.01894" lon="-1.79844">
        <ele>118.49</ele>
        <time>2021-03-20T15:02:46Z</time>
      </trkpt>
      <trkpt lat="55.01884" lon="-1.79919">
        <ele>118</ele>
        <time>2021-03-20T15:02:51Z</time>
      </trkpt>
      <trkpt lat="55.01875" lon="-1.80005">
        <ele>117.92</ele>
        <time>2021-03-20T15:02:57Z</time>
      </trkpt>
      <trkpt lat="55.01871" lon="-1.80026">
        <ele>117.65</ele>
        <time>2021-03-20T15:03:03Z</time>
      </trkpt>
      <trkpt lat="55.01866" lon="-1.80041">
        <ele>117.81</ele>
        <time>2021-03-20T15:03:08Z</time>
      </trkpt>
      <trkpt lat="55.01817" lon="-1.8014">
        <ele>116.59</ele>
        <time>2021-03-20T15:03:14Z</time>
      </trkpt>
      <trkpt lat="55.01813" lon="-1.80153">
        <ele>116.75</ele>
        <time>2021-03-20T15:03:19Z</time>
      </trkpt>
      <trkpt lat="55.01804" lon="-1.80186">
        <ele>117.69</ele>
        <time>2021-03-20T15:03:25Z</time>
      </trkpt>
      <trkpt lat="55.01792" lon="-1.80246">
        <ele>118.48</ele>
        <time>2021-03-20T15:03:30Z</time>
      </trkpt>
      <trkpt lat="55.01787" lon="-1.80316">
        <ele>119</ele>
        <time>2021-03-20T15:03:36Z</time>
      </trkpt>
      <trkpt lat="55.01784" lon="-1.8038">
        <ele>120</ele>
        <time>2021-03-20T15:03:41Z</time>
      </trkpt>
      <trkpt lat="55.01785" lon="-1.80483">
        <ele>123.11</ele>
        <time>2021-03-20T15:03:47Z</time>
      </trkpt>
      <trkpt lat="55.01781" lon="-1.80537">
        <ele>124</ele>
        <time>2021-03-20T15:03:52Z</time>
      </trkpt>
      <trkpt lat="55.01763" lon="-1.80661">
        <ele>126</ele>
        <time>2021-03-20T15:03:58Z</time>
      </trkpt>
      <trkpt lat="55.01761" lon="-1.80688">
        <ele>126</ele>
        <time>2021-03-20T15:04:04Z</time>
      </trkpt>
      <trkpt lat="55.0176" lon="-1.80716">
        <ele>126</ele>
        <time>2021-03-20T15:04:09Z</time>
      </trkpt>
      <trkpt lat="55.01764" lon="-1.8084">
        <ele>126</ele>
        <time>2021-03-20T15:04:15Z</time>
      </trkpt>
      <trkpt lat="55.01762" lon="-1.80914">
        <ele>126.89</ele>
        <time>2021-03-20T15:04:20Z</time>
      </trkpt>
      <trkpt lat="55.0175" lon="-1.81039">
        <ele>127</ele>
        <time>2021-03-20T15:04:26Z</time>
      </trkpt>
      <trkpt lat="55.01745" lon="-1.8113">
        <ele>126.79</ele>
        <time>2021-03-20T15:04:31Z</time>
      </trkpt>
      <trkpt lat="55.01737" lon="-1.81219">
        <ele>126.46</ele>
        <time>2021-03-20T15:04:37Z</time>
      </trkpt>
      <trkpt lat="55.01718" lon="-1.81749">
        <ele>128.01</ele>
        <time>2021-03-20T15:04:42Z</time>
      </trkpt>
      <trkpt lat="55.01719" lon="-1.81798">
        <ele>128.07</ele>
        <time>2021-03-20T15:04:48Z</time>
      </trkpt>
      <trkpt lat="55.01722" lon="-1.81839">
        <ele>127.99</ele>
        <time>2021-03-20T15:04:53Z</time>
      </trkpt>
      <trkpt lat="55.0173" lon="-1.8188">
        <ele>127.47</ele>
        <time>2021-03-20T15:04:59Z</time>
      </trkpt>
      <trkpt lat="55.01742" lon="-1.81923">
        <ele>126.54</ele>
        <time>2021-03-20T15:05:05Z</time>
      </trkpt>
      <trkpt lat="55.01927" lon="-1.8243">
        <ele>121</ele>
        <time>2021-03-20T15:05:10Z</time>
      </trkpt>
      <trkpt lat="55.01624" lon="-1.82452">
        <ele>133</ele>
        <time>2021-03-20T15:05:15Z</time>
      </trkpt>
      <trkpt lat="55.01594" lon="-1.82464">
        <ele>133</ele>
        <time>2021-03-20T15:05:20Z</time>
      </trkpt>
      <trkpt lat="55.01567" lon="-1.82483">
        <ele>133</ele>
        <time>2021-03-20T15:05:25Z</time>
      </trkpt>
      <trkpt lat="55.01533" lon="-1.82519">
        <ele>134.33</ele>
        <time>2021-03-20T15:05:29Z</time>
      </trkpt>
      <trkpt lat="55.0151" lon="-1.82534">
        <ele>135.64</ele>
        <time>2021-03-20T15:05:34Z</time>
      </trkpt>
      <trkpt lat="55.01496" lon="-1.82533">
        <ele>136.15</ele>
        <time>2021-03-20T15:05:39Z</time>
      </trkpt>
      <trkpt lat="55.01477" lon="-1.82519">
        <ele>136.84</ele>
        <time>2021-03-20T15:05:44Z</time>
      </trkpt>
      <trkpt lat="55.01406" lon="-1.82452">
        <ele>137.28</ele>
        <time>2021-03-20T15:05:49Z</time>
      </trkpt>
      <trkpt lat="55.01374" lon="-1.8243">
        <ele>137.01</ele>
        <time>2021-03-20T15:05:53Z</time>
      </trkpt>
      <trkpt lat="55.01283" lon="-1.82385">
        <ele>136.81</ele>
        <time>2021-03-20T15:05:58Z</time>
      </trkpt>
      <trkpt lat="55.01192" lon="-1.82352">
        <ele>135</ele>
        <time>2021-03-20T15:06:03Z</time>
      </trkpt>
      <trkpt lat="55.01162" lon="-1.82332">
        <ele>135</ele>
        <time>2021-03-20T15:06:08Z</time>
      </trkpt>
      <trkpt lat="55.0113" lon="-1.823">
        <ele>134.69</ele>
        <time>2021-03-20T15:06:13Z</time>
      </trkpt>
      <trkpt lat="55.01116" lon="-1.82294">
        <ele>134.16</ele>
        <time>2021-03-20T15:06:17Z</time>
      </trkpt>
      <trkpt lat="55.01107" lon="-1.82293">
        <ele>134</ele>
        <time>2021-03-20T15:06:22Z</time>
      </trkpt>
      <trkpt lat="55.01041" lon="-1.82295">
        <ele>135.52</ele>
        <time>2021-03-20T15:06:27Z</time>
      </trkpt>
      <trkpt lat="55.00999" lon="-1.82291">
        <ele>137.08</ele>
        <time>2021-03-20T15:06:32Z</time>
      </trkpt>
      <trkpt lat="55.00921" lon="-1.82268">
        <ele>141</ele>
        <time>2021-03-20T15:06:37Z</time>
      </trkpt>
      <trkpt lat="55.00849" lon="-1.82254">
        <ele>140.55</ele>
        <time>2021-03-20T15:06:41Z</time>
      </trkpt>
      <trkpt lat="55.00806" lon="-1.82248">
        <ele>139.09</ele>
        <time>2021-03-20T15:06:46Z</time>
      </trkpt>
      <trkpt lat="55.00766" lon="-1.82257">
        <ele>138.57</ele>
        <time>2021-03-20T15:06:51Z</time>
      </trkpt>
      <trkpt lat="55.00749" lon="-1.82266">
        <ele>137.98</ele>
        <time>2021-03-20T15:06:56Z</time>
      </trkpt>
      <trkpt lat="55.00718" lon="-1.82293">
        <ele>136.29</ele>
        <time>2021-03-20T15:07:01Z</time>
      </trkpt>
      <trkpt lat="55.00702" lon="-1.82301">
        <ele>135.43</ele>
        <time>2021-03-20T15:07:05Z</time>
      </trkpt>
      <trkpt lat="55.00603" lon="-1.82333">
        <ele>135</ele>
        <time>2021-03-20T15:07:10Z</time>
      </trkpt>
      <trkpt lat="55.00536" lon="-1.82366">
        <ele>134.69</ele>
        <time>2021-03-20T15:07:15Z</time>
      </trkpt>
      <trkpt lat="55.00479" lon="-1.82391">
        <ele>136.04</ele>
        <time>2021-03-20T15:07:20Z</time>
      </trkpt>
      <trkpt lat="55.00229" lon="-1.82457">
        <ele>137.76</ele>
        <time>2021-03-20T15:07:25Z</time>
      </trkpt>
      <trkpt lat="55.00266" lon="-1.82713">
        <ele>137.8</ele>
        <time>2021-03-20T15:07:36Z</time>
      </trkpt>
      <trkpt lat="55.00368" lon="-1.8337">
        <ele>134</ele>
        <time>2021-03-20T15:07:47Z</time>
      </trkpt>
      <trkpt lat="55.00376" lon="-1.83444">
        <ele>134</ele>
        <time>2021-03-20T15:07:58Z</time>
      </trkpt>
      <trkpt lat="55.00377" lon="-1.83494">
        <ele>135</ele>
        <time>2021-03-20T15:08:09Z</time>
      </trkpt>
      <trkpt lat="55.00372" lon="-1.84311">
        <ele>137.61</ele>
        <time>2021-03-20T15:08:20Z</time>
      </trkpt>
      <trkpt lat="55.00373" lon="-1.84363">
        <ele>137</ele>
        <time>2021-03-20T15:08:31Z</time>
      </trkpt>
      <trkpt lat="55.00379" lon="-1.84418">
        <ele>136.61</ele>
        <time>2021-03-20T15:08:42Z</time>
      </trkpt>
      <trkpt lat="55.00771" lon="-1.86945">
        <ele>119.75</ele>
        <time>2021-03-20T15:08:53Z</time>
      </trkpt>
      <trkpt lat="55.00846" lon="-1.87412">
        <ele>135.7</ele>
        <time>2021-03-20T15:09:04Z</time>
      </trkpt>
      <trkpt lat="55.00877" lon="-1.87609">
        <ele>142.1</ele>
        <time>2021-03-20T15:09:16Z</time>
      </trkpt>
      <trkpt lat="55.00887" lon="-1.87652">
        <ele>143.8</ele>
        <time>2021-03-20T15:09:27Z</time>
      </trkpt>
      <trkpt lat="55.00922" lon="-1.87781">
        <ele>149.35</ele>
        <time>2021-03-20T15:09:38Z</time>
      </trkpt>
      <trkpt lat="55.00927" lon="-1.8781">
        <ele>149.76</ele>
        <time>2021-03-20T15:09:49Z</time>
      </trkpt>
      <trkpt lat="55.00946" lon="-1.88033">
        <ele>154.06</ele>
        <time>2021-03-20T15:10:00Z</time>
      </trkpt>
      <trkpt lat="55.00947" lon="-1.88084">
        <ele>153.27</ele>
        <time>2021-03-20T15:10:11Z</time>
      </trkpt>
      <trkpt lat="55.0094" lon="-1.88213">
        <ele>146.58</ele>
        <time>2021-03-20T15:10:22Z</time>
      </trkpt>
      <trkpt lat="55.00921" lon="-1.88675">
        <ele>130.12</ele>
        <time>2021-03-20T15:10:33Z</time>
      </trkpt>
      <trkpt lat="55.00877" lon="-1.89986">
        <ele>116</ele>
        <time>2021-03-20T15:10:44Z</time>
      </trkpt>
      <trkpt lat="55.00854" lon="-1.90721">
        <ele>132.25</ele>
        <time>2021-03-20T15:10:55Z</time>
      </trkpt>
      <trkpt lat="55.00854" lon="-1.9077">
        <ele>133</ele>
        <time>2021-03-20T15:11:06Z</time>
      </trkpt>
      <trkpt lat="55.01112" lon="-1.94337">
        <ele>160.13</ele>
        <time>2021-03-20T15:11:18Z</time>
      </trkpt>
      <trkpt lat="55.01184" lon="-1.95431">
        <ele>183.63</ele>
        <time>2021-03-20T15:11:29Z</time>
      </trkpt>
      <trkpt lat="55.01211" lon="-1.95896">
        <ele>188.59</ele>
        <time>2021-03-20T15:11:40Z</time>
      </trkpt>
      <trkpt lat="55.01271" lon="-1.97034">
        <ele>193.74</ele>
        <time>2021-03-20T15:11:51Z</time>
      </trkpt>
      <trkpt lat="55.0128" lon="-1.97135">
        <ele>194.96</ele>
        <time>2021-03-20T15:12:02Z</time>
      </trkpt>
      <trkpt lat="55.01294" lon="-1.97241">
        <ele>196.86</ele>
        <time>2021-03-20T15:12:13Z</time>
      </trkpt>
      <trkpt lat="55.01298" lon="-1.97294">
        <ele>197</ele>
        <time>2021-03-20T15:12:24Z</time>
      </trkpt>
      <trkpt lat="55.01307" lon="-1.9786">
        <ele>204.92</ele>
        <time>2021-03-20T15:12:35Z</time>
      </trkpt>
      <trkpt lat="55.01305" lon="-1.97989">
        <ele>208.57</ele>
        <time>2021-03-20T15:12:46Z</time>
      </trkpt>
      <trkpt lat="55.01296" lon="-1.98142">
        <ele>211.04</ele>
        <time>2021-03-20T15:12:57Z</time>
      </trkpt>
      <trkpt lat="55.01288" lon="-1.98234">
        <ele>211.73</ele>
        <time>2021-03-20T15:13:08Z</time>
      </trkpt>
      <trkpt lat="55.01274" lon="-1.98351">
        <ele>209.25</ele>
        <time>2021-03-20T15:13:20Z</time>
      </trkpt>
      <trkpt lat="55.01251" lon="-1.98508">
        <ele>207.33</ele>
        <time>2021-03-20T15:13:31Z</time>
      </trkpt>
      <trkpt lat="55.01183" lon="-1.98917">
        <ele>202.59</ele>
        <time>2021-03-20T15:13:42Z</time>
      </trkpt>
      <trkpt lat="55.01173" lon="-1.98989">
        <ele>203.46</ele>
        <time>2021-03-20T15:13:53Z</time>
      </trkpt>
      <trkpt lat="55.01174" lon="-1.99052">
        <ele>206.09</ele>
        <time>2021-03-20T15:14:04Z</time>
      </trkpt>
      <trkpt lat="55.01179" lon="-1.99084">
        <ele>206.79</ele>
        <time>2021-03-20T15:14:15Z</time>
      </trkpt>
      <trkpt lat="55.01194" lon="-1.99152">
        <ele>203.03</ele>
        <time>2021-03-20T15:14:26Z</time>
      </trkpt>
      <trkpt lat="55.01197" lon="-1.99183">
        <ele>201.61</ele>
        <time>2021-03-20T15:14:37Z</time>
      </trkpt>
      <trkpt lat="55.01197" lon="-1.9921">
        <ele>201.38</ele>
        <time>2021-03-20T15:14:48Z</time>
      </trkpt>
      <trkpt lat="55.01193" lon="-1.99253">
        <ele>200.43</ele>
        <time>2021-03-20T15:14:59Z</time>
      </trkpt>
      <trkpt lat="55.01186" lon="-1.99301">
        <ele>200.03</ele>
        <time>2021-03-20T15:15:10Z</time>
      </trkpt>
      <trkpt lat="55.01179" lon="-1.9934">
        <ele>199.7</ele>
        <time>2021-03-20T15:15:22Z</time>
      </trkpt>
      <trkpt lat="55.01132" lon="-1.99519">
        <ele>189.33</ele>
        <time>2021-03-20T15:15:33Z</time>
      </trkpt>
      <trkpt lat="55.01125" lon="-1.9956">
        <ele>188.92</ele>
        <time>2021-03-20T15:15:44Z</time>
      </trkpt>
      <trkpt lat="55.0112" lon="-1.99602">
        <ele>188.33</ele>
        <time>2021-03-20T15:15:55Z</time>
      </trkpt>
      <trkpt lat="55.01089" lon="-2.00406">
        <ele>184.49</ele>
        <time>2021-03-20T15:16:06Z</time>
      </trkpt>
      <trkpt lat="55.01083" lon="-2.0059">
        <ele>185</ele>
        <time>2021-03-20T15:16:17Z</time>
      </trkpt>
      <trkpt lat="55.01083" lon="-2.00708">
        <ele>185.02</ele>
        <time>2021-03-20T15:16:28Z</time>
      </trkpt>
      <trkpt lat="55.01089" lon="-2.00764">
        <ele>183.8</ele>
        <time>2021-03-20T15:16:39Z</time>
      </trkpt>
      <trkpt lat="55.01192" lon="-2.01555">
        <ele>192.9</ele>
        <time>2021-03-20T15:16:50Z</time>
      </trkpt>
      <trkpt lat="55.01211" lon="-2.01661">
        <ele>197.39</ele>
        <time>2021-03-20T15:17:01Z</time>
      </trkpt>
      <trkpt lat="55.01223" lon="-2.01715">
        <ele>199.75</ele>
        <time>2021-03-20T15:17:12Z</time>
      </trkpt>
      <trkpt lat="55.01269" lon="-2.01885">
        <ele>205.15</ele>
        <time>2021-03-20T15:17:24Z</time>
      </trkpt>
      <trkpt lat="55.01306" lon="-2.02008">
        <ele>208.59</ele>
        <time>2021-03-20T15:17:35Z</time>
      </trkpt>
      <trkpt lat="55.01303" lon="-2.02034">
        <ele>210.33</ele>
        <time>2021-03-20T15:17:46Z</time>
      </trkpt>
      <trkpt lat="55.01294" lon="-2.02056">
        <ele>211.41</ele>
        <time>2021-03-20T15:17:57Z</time>
      </trkpt>
      <trkpt lat="55.0129" lon="-2.02062">
        <ele>211.8</ele>
        <time>2021-03-20T15:18:03Z</time>
      </trkpt>
      <trkpt lat="55.01283" lon="-2.02078">
        <ele>212.64</ele>
        <time>2021-03-20T15:18:09Z</time>
      </trkpt>
      <trkpt lat="55.0128" lon="-2.02098">
        <ele>212.97</ele>
        <time>2021-03-20T15:18:15Z</time>
      </trkpt>
      <trkpt lat="55.01282" lon="-2.02119">
        <ele>213.23</ele>
        <time>2021-03-20T15:18:21Z</time>
      </trkpt>
      <trkpt lat="55.0129" lon="-2.0214">
        <ele>213.57</ele>
        <time>2021-03-20T15:18:28Z</time>
      </trkpt>
      <trkpt lat="55.01296" lon="-2.02147">
        <ele>213.36</ele>
        <time>2021-03-20T15:18:34Z</time>
      </trkpt>
      <trkpt lat="55.01302" lon="-2.02194">
        <ele>214.1</ele>
        <time>2021-03-20T15:18:40Z</time>
      </trkpt>
      <trkpt lat="55.01311" lon="-2.02343">
        <ele>218.34</ele>
        <time>2021-03-20T15:18:46Z</time>
      </trkpt>
      <trkpt lat="55.01327" lon="-2.02591">
        <ele>225.5</ele>
        <time>2021-03-20T15:18:52Z</time>
      </trkpt>
      <trkpt lat="55.01335" lon="-2.02666">
        <ele>228.88</ele>
        <time>2021-03-20T15:18:58Z</time>
      </trkpt>
      <trkpt lat="55.01721" lon="-2.05719">
        <ele>253.04</ele>
        <time>2021-03-20T15:19:05Z</time>
      </trkpt>
      <trkpt lat="55.01869" lon="-2.06926">
        <ele>245.73</ele>
        <time>2021-03-20T15:19:11Z</time>
      </trkpt>
      <trkpt lat="55.01896" lon="-2.0715">
        <ele>246</ele>
        <time>2021-03-20T15:19:17Z</time>
      </trkpt>
      <trkpt lat="55.01904" lon="-2.07238">
        <ele>246</ele>
        <time>2021-03-20T15:19:23Z</time>
      </trkpt>
      <trkpt lat="55.01907" lon="-2.07319">
        <ele>246.67</ele>
        <time>2021-03-20T15:19:29Z</time>
      </trkpt>
      <trkpt lat="55.01913" lon="-2.07637">
        <ele>249.3</ele>
        <time>2021-03-20T15:19:35Z</time>
      </trkpt>
      <trkpt lat="55.01924" lon="-2.08332">
        <ele>250.46</ele>
        <time>2021-03-20T15:19:42Z</time>
      </trkpt>
      <trkpt lat="55.01935" lon="-2.09156">
        <ele>228.65</ele>
        <time>2021-03-20T15:19:48Z</time>
      </trkpt>
      <trkpt lat="55.01935" lon="-2.09368">
        <ele>226.31</ele>
        <time>2021-03-20T15:19:54Z</time>
      </trkpt>
      <trkpt lat="55.01933" lon="-2.09413">
        <ele>225.28</ele>
        <time>2021-03-20T15:20:00Z</time>
      </trkpt>
      <trkpt lat="55.01916" lon="-2.09561">
        <ele>224.79</ele>
        <time>2021-03-20T15:20:06Z</time>
      </trkpt>
      <trkpt lat="55.01901" lon="-2.09639">
        <ele>221.32</ele>
        <time>2021-03-20T15:20:12Z</time>
      </trkpt>
      <trkpt lat="55.01898" lon="-2.09685">
        <ele>220.09</ele>
        <time>2021-03-20T15:20:19Z</time>
      </trkpt>
      <trkpt lat="55.01906" lon="-2.10048">
        <ele>215.2</ele>
        <time>2021-03-20T15:20:25Z</time>
      </trkpt>
      <trkpt lat="55.01901" lon="-2.1028">
        <ele>213.79</ele>
        <time>2021-03-20T15:20:31Z</time>
      </trkpt>
      <trkpt lat="55.01897" lon="-2.10362">
        <ele>212.6</ele>
        <time>2021-03-20T15:20:37Z</time>
      </trkpt>
      <trkpt lat="55.01897" lon="-2.10423">
        <ele>211.46</ele>
        <time>2021-03-20T15:20:43Z</time>
      </trkpt>
      <trkpt lat="55.01912" lon="-2.10556">
        <ele>204.44</ele>
        <time>2021-03-20T15:20:49Z</time>
      </trkpt>
      <trkpt lat="55.01925" lon="-2.10651">
        <ele>199.44</ele>
        <time>2021-03-20T15:20:56Z</time>
      </trkpt>
      <trkpt lat="55.01934" lon="-2.10697">
        <ele>194.95</ele>
        <time>2021-03-20T15:21:02Z</time>
      </trkpt>
      <trkpt lat="55.01949" lon="-2.10757">
        <ele>187.92</ele>
        <time>2021-03-20T15:21:08Z</time>
      </trkpt>
      <trkpt lat="55.01958" lon="-2.10785">
        <ele>183.6</ele>
        <time>2021-03-20T15:21:14Z</time>
      </trkpt>
      <trkpt lat="55.02057" lon="-2.11031">
        <ele>167</ele>
        <time>2021-03-20T15:21:20Z</time>
      </trkpt>
      <trkpt lat="55.02088" lon="-2.11114">
        <ele>165.08</ele>
        <time>2021-03-20T15:21:26Z</time>
      </trkpt>
      <trkpt lat="55.02106" lon="-2.11176">
        <ele>163.16</ele>
        <time>2021-03-20T15:21:33Z</time>
      </trkpt>
      <trkpt lat="55.02141" lon="-2.11321">
        <ele>159.94</ele>
        <time>2021-03-20T15:21:39Z</time>
      </trkpt>
      <trkpt lat="55.02152" lon="-2.11374">
        <ele>156.36</ele>
        <time>2021-03-20T15:21:45Z</time>
      </trkpt>
      <trkpt lat="55.02163" lon="-2.11492">
        <ele>143.07</ele>
        <time>2021-03-20T15:21:51Z</time>
      </trkpt>
      <trkpt lat="55.02168" lon="-2.11532">
        <ele>138.52</ele>
        <time>2021-03-20T15:21:57Z</time>
      </trkpt>
      <trkpt lat="55.02232" lon="-2.11908">
        <ele>121.14</ele>
        <time>2021-03-20T15:22:03Z</time>
      </trkpt>
      <trkpt lat="55.02245" lon="-2.11975">
        <ele>118</ele>
        <time>2021-03-20T15:22:10Z</time>
      </trkpt>
      <trkpt lat="55.02251" lon="-2.11999">
        <ele>117.95</ele>
        <time>2021-03-20T15:22:16Z</time>
      </trkpt>
      <trkpt lat="55.02262" lon="-2.12022">
        <ele>117.9</ele>
        <time>2021-03-20T15:22:22Z</time>
      </trkpt>
      <trkpt lat="55.02359" lon="-2.12144">
        <ele>109.25</ele>
        <time>2021-03-20T15:22:28Z</time>
      </trkpt>
      <trkpt lat="55.02411" lon="-2.12218">
        <ele>100.3</ele>
        <time>2021-03-20T15:22:34Z</time>
      </trkpt>
      <trkpt lat="55.02456" lon="-2.12274">
        <ele>90.53</ele>
        <time>2021-03-20T15:22:40Z</time>
      </trkpt>
      <trkpt lat="55.02594" lon="-2.12408">
        <ele>71.89</ele>
        <time>2021-03-20T15:22:47Z</time>
      </trkpt>
      <trkpt lat="55.0272" lon="-2.12536">
        <ele>58.07</ele>
        <time>2021-03-20T15:22:53Z</time>
      </trkpt>
      <trkpt lat="55.02786" lon="-2.12598">
        <ele>58.61</ele>
        <time>2021-03-20T15:22:59Z</time>
      </trkpt>
      <trkpt lat="55.02858" lon="-2.12661">
        <ele>59</ele>
        <time>2021-03-20T15:23:05Z</time>
      </trkpt>
      <trkpt lat="55.02889" lon="-2.12685">
        <ele>57.33</ele>
        <time>2021-03-20T15:23:11Z</time>
      </trkpt>
      <trkpt lat="55.02955" lon="-2.12772">
        <ele>56.39</ele>
        <time>2021-03-20T15:23:17Z</time>
      </trkpt>
      <trkpt lat="55.02977" lon="-2.12808">
        <ele>58.47</ele>
        <time>2021-03-20T15:23:24Z</time>
      </trkpt>
      <trkpt lat="55.02972" lon="-2.12822">
        <ele>57.99</ele>
        <time>2021-03-20T15:23:28Z</time>
      </trkpt>
      <trkpt lat="55.02972" lon="-2.1283">
        <ele>57.99</ele>
        <time>2021-03-20T15:23:33Z</time>
      </trkpt>
      <trkpt lat="55.02973" lon="-2.12838">
        <ele>58.27</ele>
        <time>2021-03-20T15:23:38Z</time>
      </trkpt>
      <trkpt lat="55.02979" lon="-2.1285">
        <ele>59.36</ele>
        <time>2021-03-20T15:23:43Z</time>
      </trkpt>
      <trkpt lat="55.02986" lon="-2.12853">
        <ele>60.2</ele>
        <time>2021-03-20T15:23:48Z</time>
      </trkpt>
      <trkpt lat="55.02991" lon="-2.12852">
        <ele>60.7</ele>
        <time>2021-03-20T15:23:53Z</time>
      </trkpt>
      <trkpt lat="55.02999" lon="-2.12843">
        <ele>61.19</ele>
        <time>2021-03-20T15:23:57Z</time>
      </trkpt>
      <trkpt lat="55.03041" lon="-2.12894">
        <ele>63.48</ele>
        <time>2021-03-20T15:24:02Z</time>
      </trkpt>
      <trkpt lat="55.03175" lon="-2.13043">
        <ele>72</ele>
        <time>2021-03-20T15:24:07Z</time>
      </trkpt>
      <trkpt lat="55.03665" lon="-2.13602">
        <ele>102</ele>
        <time>2021-03-20T15:24:12Z</time>
      </trkpt>
      <trkpt lat="55.0366" lon="-2.13616">
        <ele>102.19</ele>
        <time>2021-03-20T15:24:16Z</time>
      </trkpt>
      <trkpt lat="55.03657" lon="-2.13634">
        <ele>102.82</ele>
        <time>2021-03-20T15:24:20Z</time>
      </trkpt>
      <trkpt lat="55.03661" lon="-2.13673">
        <ele>104.24</ele>
        <time>2021-03-20T15:24:24Z</time>
      </trkpt>
      <trkpt lat="55.03662" lon="-2.13711">
        <ele>105</ele>
        <time>2021-03-20T15:24:27Z</time>
      </trkpt>
      <trkpt lat="55.03662" lon="-2.13744">
        <ele>105.79</ele>
        <time>2021-03-20T15:24:31Z</time>
      </trkpt>
      <trkpt lat="55.03658" lon="-2.13769">
        <ele>106.22</ele>
        <time>2021-03-20T15:24:35Z</time>
      </trkpt>
      <trkpt lat="55.03629" lon="-2.13912">
        <ele>110.82</ele>
        <time>2021-03-20T15:24:39Z</time>
      </trkpt>
      <trkpt lat="55.03605" lon="-2.13999">
        <ele>112</ele>
        <time>2021-03-20T15:24:43Z</time>
      </trkpt>
      <trkpt lat="55.03597" lon="-2.14035">
        <ele>111</ele>
        <time>2021-03-20T15:24:47Z</time>
      </trkpt>
      <trkpt lat="55.03597" lon="-2.14055">
        <ele>111</ele>
        <time>2021-03-20T15:24:51Z</time>
      </trkpt>
      <trkpt lat="55.03599" lon="-2.14075">
        <ele>111.71</ele>
        <time>2021-03-20T15:24:55Z</time>
      </trkpt>
      <trkpt lat="55.03609" lon="-2.1413">
        <ele>112.66</ele>
        <time>2021-03-20T15:24:59Z</time>
      </trkpt>
      <trkpt lat="55.03612" lon="-2.14149">
        <ele>112.98</ele>
        <time>2021-03-20T15:25:03Z</time>
      </trkpt>
      <trkpt lat="55.03611" lon="-2.14164">
        <ele>112.99</ele>
        <time>2021-03-20T15:25:06Z</time>
      </trkpt>
      <trkpt lat="55.03609" lon="-2.14177">
        <ele>113.02</ele>
        <time>2021-03-20T15:25:10Z</time>
      </trkpt>
      <trkpt lat="55.03599" lon="-2.14216">
        <ele>113.42</ele>
        <time>2021-03-20T15:25:14Z</time>
      </trkpt>
      <trkpt lat="55.03596" lon="-2.14292">
        <ele>114.55</ele>
        <time>2021-03-20T15:25:18Z</time>
      </trkpt>
      <trkpt lat="55.03588" lon="-2.14348">
        <ele>115.28</ele>
        <time>2021-03-20T15:25:22Z</time>
      </trkpt>
      <trkpt lat="55.03576" lon="-2.1438">
        <ele>116.19</ele>
        <time>2021-03-20T15:25:26Z</time>
      </trkpt>
      <trkpt lat="55.03558" lon="-2.14415">
        <ele>118.69</ele>
        <time>2021-03-20T15:25:30Z</time>
      </trkpt>
      <trkpt lat="55.03493" lon="-2.14804">
        <ele>133.2</ele>
        <time>2021-03-20T15:25:34Z</time>
      </trkpt>
      <trkpt lat="55.03455" lon="-2.14829">
        <ele>134</ele>
        <time>2021-03-20T15:25:38Z</time>
      </trkpt>
      <trkpt lat="55.03428" lon="-2.14888">
        <ele>131.8</ele>
        <time>2021-03-20T15:25:41Z</time>
      </trkpt>
      <trkpt lat="55.03425" lon="-2.14899">
        <ele>131.21</ele>
        <time>2021-03-20T15:25:45Z</time>
      </trkpt>
      <trkpt lat="55.03419" lon="-2.14908">
        <ele>130.48</ele>
        <time>2021-03-20T15:25:49Z</time>
      </trkpt>
      <trkpt lat="55.03413" lon="-2.14913">
        <ele>129.83</ele>
        <time>2021-03-20T15:25:53Z</time>
      </trkpt>
      <trkpt lat="55.0339" lon="-2.14917">
        <ele>128.06</ele>
        <time>2021-03-20T15:25:57Z</time>
      </trkpt>
      <trkpt lat="55.03382" lon="-2.14924">
        <ele>128</ele>
        <time>2021-03-20T15:26:01Z</time>
      </trkpt>
      <trkpt lat="55.03379" lon="-2.14937">
        <ele>128</ele>
        <time>2021-03-20T15:26:05Z</time>
      </trkpt>
      <trkpt lat="55.03374" lon="-2.15154">
        <ele>131.55</ele>
        <time>2021-03-20T15:26:09Z</time>
      </trkpt>
      <trkpt lat="55.03371" lon="-2.15163">
        <ele>131.88</ele>
        <time>2021-03-20T15:26:13Z</time>
      </trkpt>
      <trkpt lat="55.03321" lon="-2.15219">
        <ele>132.87</ele>
        <time>2021-03-20T15:26:17Z</time>
      </trkpt>
      <trkpt lat="55.03284" lon="-2.15254">
        <ele>135.31</ele>
        <time>2021-03-20T15:26:20Z</time>
      </trkpt>
      <trkpt lat="55.03276" lon="-2.1526">
        <ele>135.62</ele>
        <time>2021-03-20T15:26:24Z</time>
      </trkpt>
      <trkpt lat="55.0326" lon="-2.15266">
        <ele>135.1</ele>
        <time>2021-03-20T15:26:28Z</time>
      </trkpt>
      <trkpt lat="55.03234" lon="-2.15265">
        <ele>134.55</ele>
        <time>2021-03-20T15:26:32Z</time>
      </trkpt>
      <trkpt lat="55.03201" lon="-2.15254">
        <ele>134.14</ele>
        <time>2021-03-20T15:26:36Z</time>
      </trkpt>
      <trkpt lat="55.03172" lon="-2.15237">
        <ele>133.44</ele>
        <time>2021-03-20T15:26:40Z</time>
      </trkpt>
      <trkpt lat="55.03143" lon="-2.15213">
        <ele>132.68</ele>
        <time>2021-03-20T15:26:44Z</time>
      </trkpt>
      <trkpt lat="55.03128" lon="-2.15207">
        <ele>132.84</ele>
        <time>2021-03-20T15:26:48Z</time>
      </trkpt>
      <trkpt lat="55.03105" lon="-2.15209">
        <ele>133.83</ele>
        <time>2021-03-20T15:26:52Z</time>
      </trkpt>
      <trkpt lat="55.03078" lon="-2.15225">
        <ele>135.29</ele>
        <time>2021-03-20T15:26:55Z</time>
      </trkpt>
      <trkpt lat="55.02961" lon="-2.15326">
        <ele>138</ele>
        <time>2021-03-20T15:26:59Z</time>
      </trkpt>
      <trkpt lat="55.02925" lon="-2.15344">
        <ele>136.32</ele>
        <time>2021-03-20T15:27:03Z</time>
      </trkpt>
      <trkpt lat="55.02929" lon="-2.15582">
        <ele>147.65</ele>
        <time>2021-03-20T15:27:15Z</time>
      </trkpt>
      <trkpt lat="55.02932" lon="-2.15618">
        <ele>149.48</ele>
        <time>2021-03-20T15:27:27Z</time>
      </trkpt>
      <trkpt lat="55.02937" lon="-2.15643">
        <ele>151.05</ele>
        <time>2021-03-20T15:27:40Z</time>
      </trkpt>
      <trkpt lat="55.0295" lon="-2.15687">
        <ele>154.5</ele>
        <time>2021-03-20T15:27:52Z</time>
      </trkpt>
      <trkpt lat="55.02965" lon="-2.15727">
        <ele>158.07</ele>
        <time>2021-03-20T15:28:04Z</time>
      </trkpt>
      <trkpt lat="55.02974" lon="-2.15759">
        <ele>160.08</ele>
        <time>2021-03-20T15:28:16Z</time>
      </trkpt>
      <trkpt lat="55.03034" lon="-2.16003">
        <ele>172.91</ele>
        <time>2021-03-20T15:28:28Z</time>
      </trkpt>
      <trkpt lat="55.03245" lon="-2.16903">
        <ele>182.18</ele>
        <time>2021-03-20T15:28:40Z</time>
      </trkpt>
      <trkpt lat="55.033" lon="-2.17147">
        <ele>196.63</ele>
        <time>2021-03-20T15:28:52Z</time>
      </trkpt>
      <trkpt lat="55.03363" lon="-2.17473">
        <ele>214.8</ele>
        <time>2021-03-20T15:29:04Z</time>
      </trkpt>
      <trkpt lat="55.03372" lon="-2.17508">
        <ele>214.86</ele>
        <time>2021-03-20T15:29:16Z</time>
      </trkpt>
      <trkpt lat="55.03386" lon="-2.17551">
        <ele>212.72</ele>
        <time>2021-03-20T15:29:29Z</time>
      </trkpt>
      <trkpt lat="55.03417" lon="-2.1766">
        <ele>200.95</ele>
        <time>2021-03-20T15:29:41Z</time>
      </trkpt>
      <trkpt lat="55.03441" lon="-2.17752">
        <ele>200.4</ele>
        <time>2021-03-20T15:29:53Z</time>
      </trkpt>
      <trkpt lat="55.03507" lon="-2.18036">
        <ele>195.73</ele>
        <time>2021-03-20T15:30:05Z</time>
      </trkpt>
      <trkpt lat="55.03772" lon="-2.1919">
        <ele>245.61</ele>
        <time>2021-03-20T15:30:17Z</time>
      </trkpt>
      <trkpt lat="55.03825" lon="-2.19431">
        <ele>251.31</ele>
        <time>2021-03-20T15:30:29Z</time>
      </trkpt>
      <trkpt lat="55.03828" lon="-2.19478">
        <ele>250.42</ele>
        <time>2021-03-20T15:30:41Z</time>
      </trkpt>
      <trkpt lat="55.03826" lon="-2.19521">
        <ele>250.35</ele>
        <time>2021-03-20T15:30:53Z</time>
      </trkpt>
      <trkpt lat="55.03801" lon="-2.19757">
        <ele>245.57</ele>
        <time>2021-03-20T15:31:05Z</time>
      </trkpt>
      <trkpt lat="55.03632" lon="-2.21455">
        <ele>237.13</ele>
        <time>2021-03-20T15:31:17Z</time>
      </trkpt>
      <trkpt lat="55.03575" lon="-2.22049">
        <ele>228.71</ele>
        <time>2021-03-20T15:31:30Z</time>
      </trkpt>
      <trkpt lat="55.03514" lon="-2.22669">
        <ele>218.12</ele>
        <time>2021-03-20T15:31:42Z</time>
      </trkpt>
      <trkpt lat="55.03466" lon="-2.23165">
        <ele>235.94</ele>
        <time>2021-03-20T15:31:54Z</time>
      </trkpt>
      <trkpt lat="55.03412" lon="-2.23706">
        <ele>242.82</ele>
        <time>2021-03-20T15:32:06Z</time>
      </trkpt>
      <trkpt lat="55.03341" lon="-2.24271">
        <ele>240</ele>
        <time>2021-03-20T15:32:18Z</time>
      </trkpt>
      <trkpt lat="55.03122" lon="-2.26113">
        <ele>245.55</ele>
        <time>2021-03-20T15:32:30Z</time>
      </trkpt>
      <trkpt lat="55.03112" lon="-2.26169">
        <ele>244.88</ele>
        <time>2021-03-20T15:32:42Z</time>
      </trkpt>
      <trkpt lat="55.0308" lon="-2.26317">
        <ele>242.64</ele>
        <time>2021-03-20T15:32:54Z</time>
      </trkpt>
      <trkpt lat="55.03071" lon="-2.26379">
        <ele>240.63</ele>
        <time>2021-03-20T15:33:06Z</time>
      </trkpt>
      <trkpt lat="55.03048" lon="-2.26602">
        <ele>236.74</ele>
        <time>2021-03-20T15:33:19Z</time>
      </trkpt>
      <trkpt lat="55.02993" lon="-2.27089">
        <ele>236.75</ele>
        <time>2021-03-20T15:33:31Z</time>
      </trkpt>
      <trkpt lat="55.02923" lon="-2.27737">
        <ele>231.88</ele>
        <time>2021-03-20T15:33:43Z</time>
      </trkpt>
      <trkpt lat="55.02915" lon="-2.27792">
        <ele>231.48</ele>
        <time>2021-03-20T15:33:55Z</time>
      </trkpt>
      <trkpt lat="55.02908" lon="-2.27827">
        <ele>231</ele>
        <time>2021-03-20T15:34:07Z</time>
      </trkpt>
      <trkpt lat="55.02895" lon="-2.27877">
        <ele>229.55</ele>
        <time>2021-03-20T15:34:19Z</time>
      </trkpt>
      <trkpt lat="55.02863" lon="-2.27978">
        <ele>229.19</ele>
        <time>2021-03-20T15:34:31Z</time>
      </trkpt>
      <trkpt lat="55.02769" lon="-2.28239">
        <ele>237.38</ele>
        <time>2021-03-20T15:34:43Z</time>
      </trkpt>
      <trkpt lat="55.02732" lon="-2.28334">
        <ele>233.99</ele>
        <time>2021-03-20T15:34:55Z</time>
      </trkpt>
      <trkpt lat="55.02505" lon="-2.28947">
        <ele>240.07</ele>
        <time>2021-03-20T15:35:07Z</time>
      </trkpt>
      <trkpt lat="55.02358" lon="-2.29355">
        <ele>249.85</ele>
        <time>2021-03-20T15:35:20Z</time>
      </trkpt>
      <trkpt lat="55.02318" lon="-2.29457">
        <ele>252.69</ele>
        <time>2021-03-20T15:35:32Z</time>
      </trkpt>
      <trkpt lat="55.02045" lon="-2.30114">
        <ele>250.33</ele>
        <time>2021-03-20T15:35:44Z</time>
      </trkpt>
      <trkpt lat="55.01849" lon="-2.3058">
        <ele>246.18</ele>
        <time>2021-03-20T15:35:56Z</time>
      </trkpt>
      <trkpt lat="55.01614" lon="-2.31044">
        <ele>225.9</ele>
        <time>2021-03-20T15:36:08Z</time>
      </trkpt>
      <trkpt lat="55.01419" lon="-2.3142">
        <ele>214.07</ele>
        <time>2021-03-20T15:36:20Z</time>
      </trkpt>
      <trkpt lat="55.0115" lon="-2.31946">
        <ele>217.26</ele>
        <time>2021-03-20T15:36:32Z</time>
      </trkpt>
      <trkpt lat="55.00985" lon="-2.32277">
        <ele>224.45</ele>
        <time>2021-03-20T15:36:44Z</time>
      </trkpt>
      <trkpt lat="55.0095" lon="-2.32357">
        <ele>224.88</ele>
        <time>2021-03-20T15:36:56Z</time>
      </trkpt>
      <trkpt lat="55.00938" lon="-2.32394">
        <ele>225.18</ele>
        <time>2021-03-20T15:37:08Z</time>
      </trkpt>
      <trkpt lat="55.00759" lon="-2.33137">
        <ele>233.86</ele>
        <time>2021-03-20T15:37:21Z</time>
      </trkpt>
      <trkpt lat="55.00639" lon="-2.33623">
        <ele>239.8</ele>
        <time>2021-03-20T15:37:33Z</time>
      </trkpt>
      <trkpt lat="55.00589" lon="-2.33831">
        <ele>243.7</ele>
        <time>2021-03-20T15:37:45Z</time>
      </trkpt>
      <trkpt lat="55.00526" lon="-2.34174">
        <ele>245.93</ele>
        <time>2021-03-20T15:37:57Z</time>
      </trkpt>
      <trkpt lat="55.00495" lon="-2.34335">
        <ele>246.76</ele>
        <time>2021-03-20T15:38:09Z</time>
      </trkpt>
      <trkpt lat="55.00354" lon="-2.3493">
        <ele>228.38</ele>
        <time>2021-03-20T15:38:21Z</time>
      </trkpt>
      <trkpt lat="55.00015" lon="-2.36319">
        <ele>232.46</ele>
        <time>2021-03-20T15:38:33Z</time>
      </trkpt>
      <trkpt lat="55.00003" lon="-2.3638">
        <ele>234.4</ele>
        <time>2021-03-20T15:38:45Z</time>
      </trkpt>
      <trkpt lat="54.99983" lon="-2.3651">
        <ele>241.59</ele>
        <time>2021-03-20T15:38:57Z</time>
      </trkpt>
      <trkpt lat="54.99793" lon="-2.37783">
        <ele>230.65</ele>
        <time>2021-03-20T15:39:10Z</time>
      </trkpt>
      <trkpt lat="54.99748" lon="-2.38095">
        <ele>232.62</ele>
        <time>2021-03-20T15:39:22Z</time>
      </trkpt>
      <trkpt lat="54.99654" lon="-2.38717">
        <ele>223.56</ele>
        <time>2021-03-20T15:39:34Z</time>
      </trkpt>
      <trkpt lat="54.99652" lon="-2.38736">
        <ele>223.72</ele>
        <time>2021-03-20T15:39:46Z</time>
      </trkpt>
      <trkpt lat="54.99603" lon="-2.39049">
        <ele>219.45</ele>
        <time>2021-03-20T15:39:58Z</time>
      </trkpt>
      <trkpt lat="54.9958" lon="-2.39219">
        <ele>219</ele>
        <time>2021-03-20T15:40:10Z</time>
      </trkpt>
      <trkpt lat="54.99541" lon="-2.39471">
        <ele>223.99</ele>
        <time>2021-03-20T15:40:22Z</time>
      </trkpt>
      <trkpt lat="54.99394" lon="-2.40347">
        <ele>216.62</ele>
        <time>2021-03-20T15:40:34Z</time>
      </trkpt>
      <trkpt lat="54.99275" lon="-2.41098">
        <ele>219</ele>
        <time>2021-03-20T15:40:46Z</time>
      </trkpt>
      <trkpt lat="54.99162" lon="-2.41786">
        <ele>229.16</ele>
        <time>2021-03-20T15:40:58Z</time>
      </trkpt>
      <trkpt lat="54.99064" lon="-2.42409">
        <ele>236.11</ele>
        <time>2021-03-20T15:41:11Z</time>
      </trkpt>
      <trkpt lat="54.9901" lon="-2.42872">
        <ele>225.4</ele>
        <time>2021-03-20T15:41:23Z</time>
      </trkpt>
      <trkpt lat="54.98961" lon="-2.43343">
        <ele>214.54</ele>
        <time>2021-03-20T15:41:35Z</time>
      </trkpt>
      <trkpt lat="54.98904" lon="-2.43849">
        <ele>215.16</ele>
        <time>2021-03-20T15:41:47Z</time>
      </trkpt>
      <trkpt lat="54.98803" lon="-2.44577">
        <ele>186.54</ele>
        <time>2021-03-20T15:41:59Z</time>
      </trkpt>
      <trkpt lat="54.98773" lon="-2.44812">
        <ele>174.72</ele>
        <time>2021-03-20T15:42:11Z</time>
      </trkpt>
      <trkpt lat="54.98767" lon="-2.44849">
        <ele>173.27</ele>
        <time>2021-03-20T15:42:23Z</time>
      </trkpt>
      <trkpt lat="54.9872" lon="-2.45222">
        <ele>177.72</ele>
        <time>2021-03-20T15:42:35Z</time>
      </trkpt>
      <trkpt lat="54.98657" lon="-2.45684">
        <ele>186.29</ele>
        <time>2021-03-20T15:42:47Z</time>
      </trkpt>
      <trkpt lat="54.98634" lon="-2.45833">
        <ele>190.62</ele>
        <time>2021-03-20T15:42:59Z</time>
      </trkpt>
      <trkpt lat="54.98552" lon="-2.46427">
        <ele>207.5</ele>
        <time>2021-03-20T15:43:12Z</time>
      </trkpt>
      <trkpt lat="54.98527" lon="-2.46649">
        <ele>210.4</ele>
        <time>2021-03-20T15:43:24Z</time>
      </trkpt>
      <trkpt lat="54.98391" lon="-2.47661">
        <ele>216.85</ele>
        <time>2021-03-20T15:43:36Z</time>
      </trkpt>
      <trkpt lat="54.98346" lon="-2.48026">
        <ele>214.93</ele>
        <time>2021-03-20T15:43:48Z</time>
      </trkpt>
      <trkpt lat="54.98267" lon="-2.48643">
        <ele>217.4</ele>
        <time>2021-03-20T15:44:00Z</time>
      </trkpt>
      <trkpt lat="54.9818" lon="-2.49338">
        <ele>223.5</ele>
        <time>2021-03-20T15:44:12Z</time>
      </trkpt>
      <trkpt lat="54.98125" lon="-2.4976">
        <ele>223.06</ele>
        <time>2021-03-20T15:44:24Z</time>
      </trkpt>
      <trkpt lat="54.9811" lon="-2.49942">
        <ele>217.85</ele>
        <time>2021-03-20T15:44:36Z</time>
      </trkpt>
      <trkpt lat="54.98108" lon="-2.50055">
        <ele>215.81</ele>
        <time>2021-03-20T15:44:48Z</time>
      </trkpt>
      <trkpt lat="54.9811" lon="-2.50142">
        <ele>210.86</ele>
        <time>2021-03-20T15:45:01Z</time>
      </trkpt>
      <trkpt lat="54.98115" lon="-2.50219">
        <ele>207.42</ele>
        <time>2021-03-20T15:45:13Z</time>
      </trkpt>
      <trkpt lat="54.98214" lon="-2.5142">
        <ele>198.34</ele>
        <time>2021-03-20T15:45:25Z</time>
      </trkpt>
      <trkpt lat="54.98258" lon="-2.51915">
        <ele>206.57</ele>
        <time>2021-03-20T15:45:37Z</time>
      </trkpt>
      <trkpt lat="54.98278" lon="-2.52163">
        <ele>206.04</ele>
        <time>2021-03-20T15:45:49Z</time>
      </trkpt>
      <trkpt lat="54.98288" lon="-2.5224">
        <ele>204.28</ele>
        <time>2021-03-20T15:46:01Z</time>
      </trkpt>
      <trkpt lat="54.98318" lon="-2.52405">
        <ele>195.11</ele>
        <time>2021-03-20T15:46:13Z</time>
      </trkpt>
      <trkpt lat="54.98334" lon="-2.52528">
        <ele>188.01</ele>
        <time>2021-03-20T15:46:25Z</time>
      </trkpt>
      <trkpt lat="54.98359" lon="-2.52848">
        <ele>162.93</ele>
        <time>2021-03-20T15:46:37Z</time>
      </trkpt>
      <trkpt lat="54.9836" lon="-2.5289">
        <ele>159.98</ele>
        <time>2021-03-20T15:46:49Z</time>
      </trkpt>
      <trkpt lat="54.98359" lon="-2.52906">
        <ele>159.36</ele>
        <time>2021-03-20T15:47:02Z</time>
      </trkpt>
      <trkpt lat="54.98355" lon="-2.52926">
        <ele>158.34</ele>
        <time>2021-03-20T15:47:14Z</time>
      </trkpt>
      <trkpt lat="54.98345" lon="-2.5295">
        <ele>156.49</ele>
        <time>2021-03-20T15:47:26Z</time>
      </trkpt>
      <trkpt lat="54.98241" lon="-2.53174">
        <ele>133.89</ele>
        <time>2021-03-20T15:47:38Z</time>
      </trkpt>
      <trkpt lat="54.98206" lon="-2.53254">
        <ele>130.57</ele>
        <time>2021-03-20T15:47:50Z</time>
      </trkpt>
      <trkpt lat="54.982" lon="-2.53286">
        <ele>130.86</ele>
        <time>2021-03-20T15:48:02Z</time>
      </trkpt>
      <trkpt lat="54.98197" lon="-2.53331">
        <ele>131</ele>
        <time>2021-03-20T15:48:14Z</time>
      </trkpt>
      <trkpt lat="54.98199" lon="-2.53439">
        <ele>135.44</ele>
        <time>2021-03-20T15:48:26Z</time>
      </trkpt>
      <trkpt lat="54.98261" lon="-2.53445">
        <ele>132.27</ele>
        <time>2021-03-20T15:48:30Z</time>
      </trkpt>
      <trkpt lat="54.98293" lon="-2.53451">
        <ele>130.66</ele>
        <time>2021-03-20T15:48:34Z</time>
      </trkpt>
      <trkpt lat="54.98334" lon="-2.53466">
        <ele>130.8</ele>
        <time>2021-03-20T15:48:37Z</time>
      </trkpt>
      <trkpt lat="54.98349" lon="-2.53476">
        <ele>131.56</ele>
        <time>2021-03-20T15:48:41Z</time>
      </trkpt>
      <trkpt lat="54.98358" lon="-2.53488">
        <ele>131.87</ele>
        <time>2021-03-20T15:48:44Z</time>
      </trkpt>
      <trkpt lat="54.98406" lon="-2.53575">
        <ele>138.46</ele>
        <time>2021-03-20T15:48:48Z</time>
      </trkpt>
      <trkpt lat="54.98438" lon="-2.53615">
        <ele>142.34</ele>
        <time>2021-03-20T15:48:52Z</time>
      </trkpt>
      <trkpt lat="54.98466" lon="-2.53635">
        <ele>142.93</ele>
        <time>2021-03-20T15:48:55Z</time>
      </trkpt>
      <trkpt lat="54.98498" lon="-2.53643">
        <ele>141.32</ele>
        <time>2021-03-20T15:48:59Z</time>
      </trkpt>
      <trkpt lat="54.98566" lon="-2.53645">
        <ele>140.22</ele>
        <time>2021-03-20T15:49:02Z</time>
      </trkpt>
      <trkpt lat="54.98591" lon="-2.53649">
        <ele>139.79</ele>
        <time>2021-03-20T15:49:06Z</time>
      </trkpt>
      <trkpt lat="54.98625" lon="-2.53662">
        <ele>137.92</ele>
        <time>2021-03-20T15:49:10Z</time>
      </trkpt>
      <trkpt lat="54.98655" lon="-2.53689">
        <ele>136.93</ele>
        <time>2021-03-20T15:49:13Z</time>
      </trkpt>
      <trkpt lat="54.98807" lon="-2.53913">
        <ele>138.88</ele>
        <time>2021-03-20T15:49:17Z</time>
      </trkpt>
      <trkpt lat="54.98896" lon="-2.54063">
        <ele>139.28</ele>
        <time>2021-03-20T15:49:20Z</time>
      </trkpt>
      <trkpt lat="54.98926" lon="-2.54121">
        <ele>138.35</ele>
        <time>2021-03-20T15:49:24Z</time>
      </trkpt>
      <trkpt lat="54.98954" lon="-2.54186">
        <ele>140.37</ele>
        <time>2021-03-20T15:49:28Z</time>
      </trkpt>
      <trkpt lat="54.98987" lon="-2.54284">
        <ele>143.86</ele>
        <time>2021-03-20T15:49:31Z</time>
      </trkpt>
      <trkpt lat="54.99009" lon="-2.54405">
        <ele>145.2</ele>
        <time>2021-03-20T15:49:35Z</time>
      </trkpt>
      <trkpt lat="54.99023" lon="-2.54517">
        <ele>147.13</ele>
        <time>2021-03-20T15:49:38Z</time>
      </trkpt>
      <trkpt lat="54.99038" lon="-2.54662">
        <ele>147.82</ele>
        <time>2021-03-20T15:49:42Z</time>
      </trkpt>
      <trkpt lat="54.99036" lon="-2.54753">
        <ele>149.7</ele>
        <time>2021-03-20T15:49:46Z</time>
      </trkpt>
      <trkpt lat="54.99041" lon="-2.54803">
        <ele>148.62</ele>
        <time>2021-03-20T15:49:49Z</time>
      </trkpt>
      <trkpt lat="54.99051" lon="-2.54847">
        <ele>147.73</ele>
        <time>2021-03-20T15:49:53Z</time>
      </trkpt>
      <trkpt lat="54.99054" lon="-2.5488">
        <ele>146.48</ele>
        <time>2021-03-20T15:49:56Z</time>
      </trkpt>
      <trkpt lat="54.99055" lon="-2.54978">
        <ele>147.01</ele>
        <time>2021-03-20T15:50:00Z</time>
      </trkpt>
      <trkpt lat="54.99061" lon="-2.55081">
        <ele>147.71</ele>
        <time>2021-03-20T15:50:04Z</time>
      </trkpt>
      <trkpt lat="54.99063" lon="-2.55099">
        <ele>148.3</ele>
        <time>2021-03-20T15:50:07Z</time>
      </trkpt>
      <trkpt lat="54.99069" lon="-2.55129">
        <ele>149.16</ele>
        <time>2021-03-20T15:50:11Z</time>
      </trkpt>
      <trkpt lat="54.99087" lon="-2.552">
        <ele>148.88</ele>
        <time>2021-03-20T15:50:14Z</time>
      </trkpt>
      <trkpt lat="54.9909" lon="-2.55244">
        <ele>148.16</ele>
        <time>2021-03-20T15:50:18Z</time>
      </trkpt>
      <trkpt lat="54.9909" lon="-2.55269">
        <ele>148</ele>
        <time>2021-03-20T15:50:22Z</time>
      </trkpt>
      <trkpt lat="54.99083" lon="-2.55374">
        <ele>150</ele>
        <time>2021-03-20T15:50:25Z</time>
      </trkpt>
      <trkpt lat="54.99078" lon="-2.55404">
        <ele>150</ele>
        <time>2021-03-20T15:50:29Z</time>
      </trkpt>
      <trkpt lat="54.99059" lon="-2.55466">
        <ele>150.08</ele>
        <time>2021-03-20T15:50:33Z</time>
      </trkpt>
      <trkpt lat="54.99054" lon="-2.5549">
        <ele>149.92</ele>
        <time>2021-03-20T15:50:36Z</time>
      </trkpt>
      <trkpt lat="54.99051" lon="-2.5552">
        <ele>149.84</ele>
        <time>2021-03-20T15:50:40Z</time>
      </trkpt>
      <trkpt lat="54.99052" lon="-2.55548">
        <ele>149.85</ele>
        <time>2021-03-20T15:50:43Z</time>
      </trkpt>
      <trkpt lat="54.9906" lon="-2.55643">
        <ele>150.14</ele>
        <time>2021-03-20T15:50:47Z</time>
      </trkpt>
      <trkpt lat="54.99058" lon="-2.55729">
        <ele>150.12</ele>
        <time>2021-03-20T15:50:51Z</time>
      </trkpt>
      <trkpt lat="54.99053" lon="-2.5584">
        <ele>150.91</ele>
        <time>2021-03-20T15:50:54Z</time>
      </trkpt>
      <trkpt lat="54.99028" lon="-2.56048">
        <ele>150.96</ele>
        <time>2021-03-20T15:50:58Z</time>
      </trkpt>
      <trkpt lat="54.99024" lon="-2.56188">
        <ele>151.36</ele>
        <time>2021-03-20T15:51:01Z</time>
      </trkpt>
      <trkpt lat="54.99013" lon="-2.56325">
        <ele>151.53</ele>
        <time>2021-03-20T15:51:05Z</time>
      </trkpt>
      <trkpt lat="54.99014" lon="-2.56368">
        <ele>150.87</ele>
        <time>2021-03-20T15:51:09Z</time>
      </trkpt>
      <trkpt lat="54.99011" lon="-2.56407">
        <ele>149.89</ele>
        <time>2021-03-20T15:51:12Z</time>
      </trkpt>
      <trkpt lat="54.99002" lon="-2.56476">
        <ele>148.68</ele>
        <time>2021-03-20T15:51:16Z</time>
      </trkpt>
      <trkpt lat="54.98998" lon="-2.56536">
        <ele>147</ele>
        <time>2021-03-20T15:51:19Z</time>
      </trkpt>
      <trkpt lat="54.98998" lon="-2.56619">
        <ele>144.07</ele>
        <time>2021-03-20T15:51:23Z</time>
      </trkpt>
      <trkpt lat="54.99001" lon="-2.56663">
        <ele>142.88</ele>
        <time>2021-03-20T15:51:27Z</time>
      </trkpt>
      <trkpt lat="54.99004" lon="-2.56716">
        <ele>143.48</ele>
        <time>2021-03-20T15:51:30Z</time>
      </trkpt>
      <trkpt lat="54.99008" lon="-2.56748">
        <ele>144.12</ele>
        <time>2021-03-20T15:51:34Z</time>
      </trkpt>
      <trkpt lat="54.99034" lon="-2.56864">
        <ele>141.28</ele>
        <time>2021-03-20T15:51:37Z</time>
      </trkpt>
      <trkpt lat="54.9905" lon="-2.56893">
        <ele>139.59</ele>
        <time>2021-03-20T15:51:41Z</time>
      </trkpt>
      <trkpt lat="54.99061" lon="-2.56923">
        <ele>138.82</ele>
        <time>2021-03-20T15:51:45Z</time>
      </trkpt>
      <trkpt lat="54.99068" lon="-2.56951">
        <ele>138.67</ele>
        <time>2021-03-20T15:51:48Z</time>
      </trkpt>
      <trkpt lat="54.99083" lon="-2.56975">
        <ele>138.01</ele>
        <time>2021-03-20T15:51:52Z</time>
      </trkpt>
      <trkpt lat="54.99101" lon="-2.57042">
        <ele>136.37</ele>
        <time>2021-03-20T15:51:55Z</time>
      </trkpt>
      <trkpt lat="54.99104" lon="-2.57083">
        <ele>136.01</ele>
        <time>2021-03-20T15:51:59Z</time>
      </trkpt>
      <trkpt lat="54.99109" lon="-2.5711">
        <ele>135.35</ele>
        <time>2021-03-20T15:52:03Z</time>
      </trkpt>
      <trkpt lat="54.99121" lon="-2.57149">
        <ele>132.96</ele>
        <time>2021-03-20T15:52:06Z</time>
      </trkpt>
      <trkpt lat="54.99128" lon="-2.57188">
        <ele>130.69</ele>
        <time>2021-03-20T15:52:10Z</time>
      </trkpt>
      <trkpt lat="54.9913" lon="-2.57204">
        <ele>129.96</ele>
        <time>2021-03-20T15:52:13Z</time>
      </trkpt>
      <trkpt lat="54.9913" lon="-2.57264">
        <ele>127.12</ele>
        <time>2021-03-20T15:52:17Z</time>
      </trkpt>
      <trkpt lat="54.99128" lon="-2.5732">
        <ele>125.25</ele>
        <time>2021-03-20T15:52:21Z</time>
      </trkpt>
      <trkpt lat="54.99147" lon="-2.57415">
        <ele>121.44</ele>
        <time>2021-03-20T15:52:24Z</time>
      </trkpt>
      <trkpt lat="54.99146" lon="-2.57437">
        <ele>121.52</ele>
        <time>2021-03-20T15:52:28Z</time>
      </trkpt>
      <trkpt lat="54.99142" lon="-2.5745">
        <ele>121.58</ele>
        <time>2021-03-20T15:52:31Z</time>
      </trkpt>
      <trkpt lat="54.99126" lon="-2.57481">
        <ele>122.4</ele>
        <time>2021-03-20T15:52:35Z</time>
      </trkpt>
      <trkpt lat="54.99128" lon="-2.57513">
        <ele>122.42</ele>
        <time>2021-03-20T15:52:38Z</time>
      </trkpt>
      <trkpt lat="54.99127" lon="-2.57582">
        <ele>122.36</ele>
        <time>2021-03-20T15:52:40Z</time>
      </trkpt>
      <trkpt lat="54.99129" lon="-2.57613">
        <ele>121.96</ele>
        <time>2021-03-20T15:52:43Z</time>
      </trkpt>
      <trkpt lat="54.99155" lon="-2.57683">
        <ele>117.93</ele>
        <time>2021-03-20T15:52:45Z</time>
      </trkpt>
      <trkpt lat="54.9918" lon="-2.57711">
        <ele>117.79</ele>
        <time>2021-03-20T15:52:48Z</time>
      </trkpt>
      <trkpt lat="54.99271" lon="-2.5781">
        <ele>127.54</ele>
        <time>2021-03-20T15:52:51Z</time>
      </trkpt>
      <trkpt lat="54.99288" lon="-2.57816">
        <ele>128.97</ele>
        <time>2021-03-20T15:52:53Z</time>
      </trkpt>
      <trkpt lat="54.99286" lon="-2.5785">
        <ele>130.61</ele>
        <time>2021-03-20T15:52:56Z</time>
      </trkpt>
      <trkpt lat="54.99275" lon="-2.57958">
        <ele>131.87</ele>
        <time>2021-03-20T15:52:58Z</time>
      </trkpt>
      <trkpt lat="54.99262" lon="-2.58006">
        <ele>130.92</ele>
        <time>2021-03-20T15:53:01Z</time>
      </trkpt>
      <trkpt lat="54.99252" lon="-2.58089">
        <ele>131.18</ele>
        <time>2021-03-20T15:53:04Z</time>
      </trkpt>
      <trkpt lat="54.99255" lon="-2.58131">
        <ele>131.07</ele>
        <time>2021-03-20T15:53:06Z</time>
      </trkpt>
      <trkpt lat="54.9926" lon="-2.58169">
        <ele>131.08</ele>
        <time>2021-03-20T15:53:09Z</time>
      </trkpt>
      <trkpt lat="54.99279" lon="-2.58241">
        <ele>132.58</ele>
        <time>2021-03-20T15:53:11Z</time>
      </trkpt>
      <trkpt lat="54.99298" lon="-2.58292">
        <ele>135.11</ele>
        <time>2021-03-20T15:53:14Z</time>
      </trkpt>
      <trkpt lat="54.99324" lon="-2.58398">
        <ele>134.74</ele>
        <time>2021-03-20T15:53:17Z</time>
      </trkpt>
      <trkpt lat="54.99333" lon="-2.58428">
        <ele>135.92</ele>
        <time>2021-03-20T15:53:19Z</time>
      </trkpt>
      <trkpt lat="54.99345" lon="-2.58455">
        <ele>136.84</ele>
        <time>2021-03-20T15:53:22Z</time>
      </trkpt>
      <trkpt lat="54.99358" lon="-2.58477">
        <ele>137.48</ele>
        <time>2021-03-20T15:53:24Z</time>
      </trkpt>
      <trkpt lat="54.99385" lon="-2.58517">
        <ele>141.15</ele>
        <time>2021-03-20T15:53:27Z</time>
      </trkpt>
      <trkpt lat="54.99437" lon="-2.58606">
        <ele>147.53</ele>
        <time>2021-03-20T15:53:30Z</time>
      </trkpt>
      <trkpt lat="54.99444" lon="-2.58625">
        <ele>148.37</ele>
        <time>2021-03-20T15:53:32Z</time>
      </trkpt>
      <trkpt lat="54.99455" lon="-2.58694">
        <ele>148.75</ele>
        <time>2021-03-20T15:53:35Z</time>
      </trkpt>
      <trkpt lat="54.99463" lon="-2.58758">
        <ele>152.49</ele>
        <time>2021-03-20T15:53:37Z</time>
      </trkpt>
      <trkpt lat="54.99462" lon="-2.58788">
        <ele>153.83</ele>
        <time>2021-03-20T15:53:40Z</time>
      </trkpt>
      <trkpt lat="54.99445" lon="-2.58944">
        <ele>152.18</ele>
        <time>2021-03-20T15:53:43Z</time>
      </trkpt>
      <trkpt lat="54.99445" lon="-2.58972">
        <ele>155.07</ele>
        <time>2021-03-20T15:53:45Z</time>
      </trkpt>
      <trkpt lat="54.99447" lon="-2.58999">
        <ele>157.11</ele>
        <time>2021-03-20T15:53:48Z</time>
      </trkpt>
      <trkpt lat="54.99452" lon="-2.59027">
        <ele>156.58</ele>
        <time>2021-03-20T15:53:50Z</time>
      </trkpt>
      <trkpt lat="54.99498" lon="-2.59152">
        <ele>152.48</ele>
        <time>2021-03-20T15:53:53Z</time>
      </trkpt>
      <trkpt lat="54.9953" lon="-2.59254">
        <ele>153</ele>
        <time>2021-03-20T15:53:56Z</time>
      </trkpt>
      <trkpt lat="54.99534" lon="-2.59274">
        <ele>153</ele>
        <time>2021-03-20T15:53:58Z</time>
      </trkpt>
      <trkpt lat="54.99537" lon="-2.59371">
        <ele>154</ele>
        <time>2021-03-20T15:54:01Z</time>
      </trkpt>
      <trkpt lat="54.99549" lon="-2.59488">
        <ele>153</ele>
        <time>2021-03-20T15:54:03Z</time>
      </trkpt>
      <trkpt lat="54.99551" lon="-2.59504">
        <ele>153.1</ele>
        <time>2021-03-20T15:54:06Z</time>
      </trkpt>
      <trkpt lat="54.99556" lon="-2.59518">
        <ele>153.67</ele>
        <time>2021-03-20T15:54:09Z</time>
      </trkpt>
      <trkpt lat="54.99569" lon="-2.5955">
        <ele>155.4</ele>
        <time>2021-03-20T15:54:11Z</time>
      </trkpt>
      <trkpt lat="54.99574" lon="-2.59566">
        <ele>156.35</ele>
        <time>2021-03-20T15:54:14Z</time>
      </trkpt>
      <trkpt lat="54.99578" lon="-2.59589">
        <ele>157.41</ele>
        <time>2021-03-20T15:54:16Z</time>
      </trkpt>
      <trkpt lat="54.9963" lon="-2.59998">
        <ele>154.67</ele>
        <time>2021-03-20T15:54:19Z</time>
      </trkpt>
      <trkpt lat="54.99638" lon="-2.60089">
        <ele>153.73</ele>
        <time>2021-03-20T15:54:22Z</time>
      </trkpt>
      <trkpt lat="54.9965" lon="-2.60251">
        <ele>151.02</ele>
        <time>2021-03-20T15:54:24Z</time>
      </trkpt>
      <trkpt lat="54.99651" lon="-2.60283">
        <ele>151.68</ele>
        <time>2021-03-20T15:54:27Z</time>
      </trkpt>
      <trkpt lat="54.99648" lon="-2.60334">
        <ele>153</ele>
        <time>2021-03-20T15:54:29Z</time>
      </trkpt>
      <trkpt lat="54.99572" lon="-2.60993">
        <ele>160.3</ele>
        <time>2021-03-20T15:54:32Z</time>
      </trkpt>
      <trkpt lat="54.9957" lon="-2.61044">
        <ele>160.03</ele>
        <time>2021-03-20T15:54:35Z</time>
      </trkpt>
      <trkpt lat="54.9957" lon="-2.61385">
        <ele>161.53</ele>
        <time>2021-03-20T15:54:37Z</time>
      </trkpt>
      <trkpt lat="54.99569" lon="-2.61547">
        <ele>161.48</ele>
        <time>2021-03-20T15:54:40Z</time>
      </trkpt>
      <trkpt lat="54.99571" lon="-2.61603">
        <ele>159.86</ele>
        <time>2021-03-20T15:54:42Z</time>
      </trkpt>
      <trkpt lat="54.99579" lon="-2.61772">
        <ele>156.65</ele>
        <time>2021-03-20T15:54:45Z</time>
      </trkpt>
      <trkpt lat="54.99582" lon="-2.61806">
        <ele>155.94</ele>
        <time>2021-03-20T15:54:48Z</time>
      </trkpt>
      <trkpt lat="54.99587" lon="-2.61837">
        <ele>156.11</ele>
        <time>2021-03-20T15:54:50Z</time>
      </trkpt>
      <trkpt lat="54.99601" lon="-2.619">
        <ele>156.04</ele>
        <time>2021-03-20T15:54:53Z</time>
      </trkpt>
      <trkpt lat="54.99605" lon="-2.61925">
        <ele>155.53</ele>
        <time>2021-03-20T15:54:55Z</time>
      </trkpt>
      <trkpt lat="54.99621" lon="-2.62346">
        <ele>147</ele>
        <time>2021-03-20T15:54:58Z</time>
      </trkpt>
      <trkpt lat="54.99628" lon="-2.62412">
        <ele>146.16</ele>
        <time>2021-03-20T15:55:01Z</time>
      </trkpt>
      <trkpt lat="54.99629" lon="-2.62444">
        <ele>146</ele>
        <time>2021-03-20T15:55:03Z</time>
      </trkpt>
      <trkpt lat="54.99625" lon="-2.62522">
        <ele>144.2</ele>
        <time>2021-03-20T15:55:06Z</time>
      </trkpt>
      <trkpt lat="54.99604" lon="-2.62682">
        <ele>138.44</ele>
        <time>2021-03-20T15:55:08Z</time>
      </trkpt>
      <trkpt lat="54.99604" lon="-2.627">
        <ele>137.95</ele>
        <time>2021-03-20T15:55:11Z</time>
      </trkpt>
      <trkpt lat="54.99606" lon="-2.62716">
        <ele>137.87</ele>
        <time>2021-03-20T15:55:14Z</time>
      </trkpt>
      <trkpt lat="54.99622" lon="-2.62789">
        <ele>139.91</ele>
        <time>2021-03-20T15:55:16Z</time>
      </trkpt>
      <trkpt lat="54.99624" lon="-2.62808">
        <ele>140.34</ele>
        <time>2021-03-20T15:55:19Z</time>
      </trkpt>
      <trkpt lat="54.99617" lon="-2.6287">
        <ele>140.61</ele>
        <time>2021-03-20T15:55:21Z</time>
      </trkpt>
      <trkpt lat="54.99614" lon="-2.62971">
        <ele>142.14</ele>
        <time>2021-03-20T15:55:24Z</time>
      </trkpt>
      <trkpt lat="54.99615" lon="-2.63">
        <ele>142.29</ele>
        <time>2021-03-20T15:55:27Z</time>
      </trkpt>
      <trkpt lat="54.99615" lon="-2.63025">
        <ele>142.27</ele>
        <time>2021-03-20T15:55:29Z</time>
      </trkpt>
      <trkpt lat="54.99613" lon="-2.63048">
        <ele>142.1</ele>
        <time>2021-03-20T15:55:32Z</time>
      </trkpt>
      <trkpt lat="54.99575" lon="-2.63208">
        <ele>139.71</ele>
        <time>2021-03-20T15:55:34Z</time>
      </trkpt>
      <trkpt lat="54.99572" lon="-2.63232">
        <ele>139.58</ele>
        <time>2021-03-20T15:55:37Z</time>
      </trkpt>
      <trkpt lat="54.9957" lon="-2.63278">
        <ele>139.54</ele>
        <time>2021-03-20T15:55:40Z</time>
      </trkpt>
      <trkpt lat="54.99571" lon="-2.63309">
        <ele>140.56</ele>
        <time>2021-03-20T15:55:42Z</time>
      </trkpt>
      <trkpt lat="54.99579" lon="-2.63415">
        <ele>139.13</ele>
        <time>2021-03-20T15:55:45Z</time>
      </trkpt>
      <trkpt lat="54.99578" lon="-2.63432">
        <ele>138.56</ele>
        <time>2021-03-20T15:55:47Z</time>
      </trkpt>
      <trkpt lat="54.99572" lon="-2.63459">
        <ele>137.87</ele>
        <time>2021-03-20T15:55:50Z</time>
      </trkpt>
      <trkpt lat="54.99546" lon="-2.6351">
        <ele>137</ele>
        <time>2021-03-20T15:55:53Z</time>
      </trkpt>
      <trkpt lat="54.99529" lon="-2.63565">
        <ele>137.35</ele>
        <time>2021-03-20T15:55:55Z</time>
      </trkpt>
      <trkpt lat="54.99514" lon="-2.63601">
        <ele>136.98</ele>
        <time>2021-03-20T15:55:58Z</time>
      </trkpt>
      <trkpt lat="54.99455" lon="-2.63714">
        <ele>136.06</ele>
        <time>2021-03-20T15:56:00Z</time>
      </trkpt>
      <trkpt lat="54.99446" lon="-2.63737">
        <ele>136.59</ele>
        <time>2021-03-20T15:56:03Z</time>
      </trkpt>
      <trkpt lat="54.99436" lon="-2.63768">
        <ele>137.34</ele>
        <time>2021-03-20T15:56:06Z</time>
      </trkpt>
      <trkpt lat="54.99408" lon="-2.63909">
        <ele>136</ele>
        <time>2021-03-20T15:56:08Z</time>
      </trkpt>
      <trkpt lat="54.99406" lon="-2.63929">
        <ele>136</ele>
        <time>2021-03-20T15:56:11Z</time>
      </trkpt>
      <trkpt lat="54.99408" lon="-2.63945">
        <ele>135.99</ele>
        <time>2021-03-20T15:56:13Z</time>
      </trkpt>
      <trkpt lat="54.99414" lon="-2.63964">
        <ele>135.43</ele>
        <time>2021-03-20T15:56:16Z</time>
      </trkpt>
      <trkpt lat="54.99459" lon="-2.64041">
        <ele>133.54</ele>
        <time>2021-03-20T15:56:19Z</time>
      </trkpt>
      <trkpt lat="54.99491" lon="-2.64072">
        <ele>133.1</ele>
        <time>2021-03-20T15:56:21Z</time>
      </trkpt>
      <trkpt lat="54.99512" lon="-2.64102">
        <ele>133.84</ele>
        <time>2021-03-20T15:56:24Z</time>
      </trkpt>
      <trkpt lat="54.99521" lon="-2.64126">
        <ele>133.59</ele>
        <time>2021-03-20T15:56:26Z</time>
      </trkpt>
      <trkpt lat="54.99535" lon="-2.64169">
        <ele>132.66</ele>
        <time>2021-03-20T15:56:29Z</time>
      </trkpt>
      <trkpt lat="54.99543" lon="-2.64186">
        <ele>132.27</ele>
        <time>2021-03-20T15:56:32Z</time>
      </trkpt>
      <trkpt lat="54.99554" lon="-2.64201">
        <ele>132.38</ele>
        <time>2021-03-20T15:56:34Z</time>
      </trkpt>
      <trkpt lat="54.99567" lon="-2.64209">
        <ele>132.79</ele>
        <time>2021-03-20T15:56:37Z</time>
      </trkpt>
      <trkpt lat="54.9959" lon="-2.64217">
        <ele>133.83</ele>
        <time>2021-03-20T15:56:39Z</time>
      </trkpt>
      <trkpt lat="54.99607" lon="-2.64229">
        <ele>134.43</ele>
        <time>2021-03-20T15:56:42Z</time>
      </trkpt>
      <trkpt lat="54.99646" lon="-2.64283">
        <ele>134.55</ele>
        <time>2021-03-20T15:56:44Z</time>
      </trkpt>
      <trkpt lat="54.99653" lon="-2.64302">
        <ele>134.67</ele>
        <time>2021-03-20T15:56:47Z</time>
      </trkpt>
      <trkpt lat="54.99657" lon="-2.64326">
        <ele>134.51</ele>
        <time>2021-03-20T15:56:50Z</time>
      </trkpt>
      <trkpt lat="54.99658" lon="-2.64353">
        <ele>133.69</ele>
        <time>2021-03-20T15:56:52Z</time>
      </trkpt>
      <trkpt lat="54.99655" lon="-2.64429">
        <ele>132.6</ele>
        <time>2021-03-20T15:56:55Z</time>
      </trkpt>
      <trkpt lat="54.99654" lon="-2.64585">
        <ele>129.52</ele>
        <time>2021-03-20T15:56:57Z</time>
      </trkpt>
      <trkpt lat="54.99657" lon="-2.64614">
        <ele>129.13</ele>
        <time>2021-03-20T15:57:00Z</time>
      </trkpt>
      <trkpt lat="54.99664" lon="-2.64642">
        <ele>127.78</ele>
        <time>2021-03-20T15:57:03Z</time>
      </trkpt>
      <trkpt lat="54.99673" lon="-2.64665">
        <ele>127.53</ele>
        <time>2021-03-20T15:57:05Z</time>
      </trkpt>
      <trkpt lat="54.99699" lon="-2.64716">
        <ele>125.88</ele>
        <time>2021-03-20T15:57:08Z</time>
      </trkpt>
      <trkpt lat="54.99708" lon="-2.64743">
        <ele>125.35</ele>
        <time>2021-03-20T15:57:10Z</time>
      </trkpt>
      <trkpt lat="54.99715" lon="-2.64778">
        <ele>124.5</ele>
        <time>2021-03-20T15:57:13Z</time>
      </trkpt>
      <trkpt lat="54.99719" lon="-2.64827">
        <ele>122.97</ele>
        <time>2021-03-20T15:57:16Z</time>
      </trkpt>
      <trkpt lat="54.99717" lon="-2.64965">
        <ele>114.25</ele>
        <time>2021-03-20T15:57:18Z</time>
      </trkpt>
      <trkpt lat="54.99719" lon="-2.65007">
        <ele>112.53</ele>
        <time>2021-03-20T15:57:21Z</time>
      </trkpt>
      <trkpt lat="54.99723" lon="-2.65035">
        <ele>110.49</ele>
        <time>2021-03-20T15:57:23Z</time>
      </trkpt>
      <trkpt lat="54.99747" lon="-2.65092">
        <ele>108.56</ele>
        <time>2021-03-20T15:57:26Z</time>
      </trkpt>
      <trkpt lat="54.99755" lon="-2.65123">
        <ele>108.37</ele>
        <time>2021-03-20T15:57:29Z</time>
      </trkpt>
      <trkpt lat="54.99775" lon="-2.65218">
        <ele>106.93</ele>
        <time>2021-03-20T15:57:31Z</time>
      </trkpt>
      <trkpt lat="54.99791" lon="-2.65261">
        <ele>106.08</ele>
        <time>2021-03-20T15:57:34Z</time>
      </trkpt>
      <trkpt lat="54.99809" lon="-2.65296">
        <ele>104.92</ele>
        <time>2021-03-20T15:57:36Z</time>
      </trkpt>
      <trkpt lat="54.99834" lon="-2.65338">
        <ele>103.92</ele>
        <time>2021-03-20T15:57:39Z</time>
      </trkpt>
      <trkpt lat="54.9984" lon="-2.65352">
        <ele>103.86</ele>
        <time>2021-03-20T15:57:42Z</time>
      </trkpt>
      <trkpt lat="54.99844" lon="-2.65367">
        <ele>103.58</ele>
        <time>2021-03-20T15:57:44Z</time>
      </trkpt>
      <trkpt lat="54.99849" lon="-2.65405">
        <ele>102.82</ele>
        <time>2021-03-20T15:57:47Z</time>
      </trkpt>
      <trkpt lat="54.99855" lon="-2.65426">
        <ele>102.76</ele>
        <time>2021-03-20T15:57:49Z</time>
      </trkpt>
      <trkpt lat="54.99872" lon="-2.6547">
        <ele>102.48</ele>
        <time>2021-03-20T15:57:52Z</time>
      </trkpt>
      <trkpt lat="54.9988" lon="-2.65511">
        <ele>102.31</ele>
        <time>2021-03-20T15:57:55Z</time>
      </trkpt>
      <trkpt lat="54.99887" lon="-2.65569">
        <ele>101.88</ele>
        <time>2021-03-20T15:57:57Z</time>
      </trkpt>
      <trkpt lat="54.99894" lon="-2.65607">
        <ele>102.52</ele>
        <time>2021-03-20T15:58:00Z</time>
      </trkpt>
      <trkpt lat="54.99939" lon="-2.65776">
        <ele>102</ele>
        <time>2021-03-20T15:58:02Z</time>
      </trkpt>
      <trkpt lat="54.99942" lon="-2.65798">
        <ele>101.94</ele>
        <time>2021-03-20T15:58:05Z</time>
      </trkpt>
      <trkpt lat="54.99946" lon="-2.65898">
        <ele>101.73</ele>
        <time>2021-03-20T15:58:08Z</time>
      </trkpt>
      <trkpt lat="54.99952" lon="-2.65931">
        <ele>100.87</ele>
        <time>2021-03-20T15:58:10Z</time>
      </trkpt>
      <trkpt lat="54.99964" lon="-2.65979">
        <ele>99.23</ele>
        <time>2021-03-20T15:58:13Z</time>
      </trkpt>
      <trkpt lat="54.99976" lon="-2.66042">
        <ele>97.61</ele>
        <time>2021-03-20T15:58:15Z</time>
      </trkpt>
      <trkpt lat="54.99994" lon="-2.66113">
        <ele>97.73</ele>
        <time>2021-03-20T15:58:18Z</time>
      </trkpt>
      <trkpt lat="55.00021" lon="-2.66201">
        <ele>96.26</ele>
        <time>2021-03-20T15:58:21Z</time>
      </trkpt>
      <trkpt lat="55.00024" lon="-2.66219">
        <ele>96.13</ele>
        <time>2021-03-20T15:58:23Z</time>
      </trkpt>
      <trkpt lat="55.00017" lon="-2.6628">
        <ele>96</ele>
        <time>2021-03-20T15:58:26Z</time>
      </trkpt>
      <trkpt lat="55.00016" lon="-2.66349">
        <ele>95.44</ele>
        <time>2021-03-20T15:58:28Z</time>
      </trkpt>
      <trkpt lat="55.00009" lon="-2.66392">
        <ele>94.92</ele>
        <time>2021-03-20T15:58:31Z</time>
      </trkpt>
      <trkpt lat="55.00003" lon="-2.66411">
        <ele>94.3</ele>
        <time>2021-03-20T15:58:34Z</time>
      </trkpt>
      <trkpt lat="54.99957" lon="-2.66515">
        <ele>93.26</ele>
        <time>2021-03-20T15:58:36Z</time>
      </trkpt>
      <trkpt lat="54.99951" lon="-2.66534">
        <ele>93</ele>
        <time>2021-03-20T15:58:39Z</time>
      </trkpt>
      <trkpt lat="54.99947" lon="-2.66557">
        <ele>93</ele>
        <time>2021-03-20T15:58:41Z</time>
      </trkpt>
      <trkpt lat="54.99944" lon="-2.6663">
        <ele>92.97</ele>
        <time>2021-03-20T15:58:44Z</time>
      </trkpt>
      <trkpt lat="54.99949" lon="-2.66686">
        <ele>93</ele>
        <time>2021-03-20T15:58:47Z</time>
      </trkpt>
      <trkpt lat="54.99946" lon="-2.66712">
        <ele>93</ele>
        <time>2021-03-20T15:58:49Z</time>
      </trkpt>
      <trkpt lat="54.99914" lon="-2.66873">
        <ele>92</ele>
        <time>2021-03-20T15:58:52Z</time>
      </trkpt>
      <trkpt lat="54.99913" lon="-2.66894">
        <ele>91.83</ele>
        <time>2021-03-20T15:58:54Z</time>
      </trkpt>
      <trkpt lat="54.99918" lon="-2.66931">
        <ele>90.94</ele>
        <time>2021-03-20T15:58:57Z</time>
      </trkpt>
      <trkpt lat="54.99975" lon="-2.67134">
        <ele>88.26</ele>
        <time>2021-03-20T15:59:00Z</time>
      </trkpt>
      <trkpt lat="54.99975" lon="-2.67155">
        <ele>88.11</ele>
        <time>2021-03-20T15:59:02Z</time>
      </trkpt>
      <trkpt lat="54.9997" lon="-2.67173">
        <ele>88.23</ele>
        <time>2021-03-20T15:59:05Z</time>
      </trkpt>
      <trkpt lat="54.99952" lon="-2.67214">
        <ele>89</ele>
        <time>2021-03-20T15:59:07Z</time>
      </trkpt>
      <trkpt lat="54.99944" lon="-2.67242">
        <ele>88.28</ele>
        <time>2021-03-20T15:59:10Z</time>
      </trkpt>
      <trkpt lat="54.99931" lon="-2.67313">
        <ele>86.5</ele>
        <time>2021-03-20T15:59:13Z</time>
      </trkpt>
      <trkpt lat="54.99926" lon="-2.67394">
        <ele>85.35</ele>
        <time>2021-03-20T15:59:15Z</time>
      </trkpt>
      <trkpt lat="54.9993" lon="-2.67429">
        <ele>85.47</ele>
        <time>2021-03-20T15:59:18Z</time>
      </trkpt>
      <trkpt lat="54.99937" lon="-2.67461">
        <ele>85.71</ele>
        <time>2021-03-20T15:59:20Z</time>
      </trkpt>
      <trkpt lat="54.99948" lon="-2.6748">
        <ele>86.24</ele>
        <time>2021-03-20T15:59:23Z</time>
      </trkpt>
      <trkpt lat="54.99977" lon="-2.67521">
        <ele>88.31</ele>
        <time>2021-03-20T15:59:26Z</time>
      </trkpt>
      <trkpt lat="54.99987" lon="-2.67544">
        <ele>89.06</ele>
        <time>2021-03-20T15:59:28Z</time>
      </trkpt>
      <trkpt lat="54.99998" lon="-2.676">
        <ele>89.75</ele>
        <time>2021-03-20T15:59:31Z</time>
      </trkpt>
      <trkpt lat="55.00004" lon="-2.67642">
        <ele>89.52</ele>
        <time>2021-03-20T15:59:33Z</time>
      </trkpt>
      <trkpt lat="55.00004" lon="-2.67682">
        <ele>89.07</ele>
        <time>2021-03-20T15:59:36Z</time>
      </trkpt>
      <trkpt lat="54.99988" lon="-2.6785">
        <ele>89.2</ele>
        <time>2021-03-20T15:59:39Z</time>
      </trkpt>
      <trkpt lat="54.99991" lon="-2.67885">
        <ele>89.65</ele>
        <time>2021-03-20T15:59:41Z</time>
      </trkpt>
      <trkpt lat="54.99998" lon="-2.67898">
        <ele>90.45</ele>
        <time>2021-03-20T15:59:44Z</time>
      </trkpt>
      <trkpt lat="55.00009" lon="-2.67908">
        <ele>91.65</ele>
        <time>2021-03-20T15:59:46Z</time>
      </trkpt>
      <trkpt lat="55.00053" lon="-2.67923">
        <ele>98.58</ele>
        <time>2021-03-20T15:59:49Z</time>
      </trkpt>
      <trkpt lat="55.00061" lon="-2.67933">
        <ele>99.54</ele>
        <time>2021-03-20T15:59:52Z</time>
      </trkpt>
      <trkpt lat="55.00064" lon="-2.67948">
        <ele>99.92</ele>
        <time>2021-03-20T15:59:54Z</time>
      </trkpt>
      <trkpt lat="55.00066" lon="-2.67992">
        <ele>100.39</ele>
        <time>2021-03-20T15:59:57Z</time>
      </trkpt>
      <trkpt lat="55.00086" lon="-2.68082">
        <ele>105.44</ele>
        <time>2021-03-20T15:59:59Z</time>
      </trkpt>
      <trkpt lat="55.0009" lon="-2.68117">
        <ele>104.92</ele>
        <time>2021-03-20T16:00:02Z</time>
      </trkpt>
      <trkpt lat="55.00091" lon="-2.68161">
        <ele>104.31</ele>
        <time>2021-03-20T16:00:05Z</time>
      </trkpt>
      <trkpt lat="55.00089" lon="-2.68407">
        <ele>102.03</ele>
        <time>2021-03-20T16:00:07Z</time>
      </trkpt>
      <trkpt lat="55.00087" lon="-2.68441">
        <ele>99.85</ele>
        <time>2021-03-20T16:00:10Z</time>
      </trkpt>
      <trkpt lat="55.0007" lon="-2.68553">
        <ele>94.09</ele>
        <time>2021-03-20T16:00:12Z</time>
      </trkpt>
      <trkpt lat="55.0003" lon="-2.68698">
        <ele>93.46</ele>
        <time>2021-03-20T16:00:15Z</time>
      </trkpt>
      <trkpt lat="55.00026" lon="-2.68723">
        <ele>93.69</ele>
        <time>2021-03-20T16:00:18Z</time>
      </trkpt>
      <trkpt lat="55.00025" lon="-2.68751">
        <ele>94.71</ele>
        <time>2021-03-20T16:00:20Z</time>
      </trkpt>
      <trkpt lat="55.00029" lon="-2.68811">
        <ele>95.95</ele>
        <time>2021-03-20T16:00:23Z</time>
      </trkpt>
      <trkpt lat="55.00026" lon="-2.68914">
        <ele>95.99</ele>
        <time>2021-03-20T16:00:25Z</time>
      </trkpt>
      <trkpt lat="55.00038" lon="-2.69075">
        <ele>99.04</ele>
        <time>2021-03-20T16:00:28Z</time>
      </trkpt>
      <trkpt lat="55.00043" lon="-2.69097">
        <ele>100.04</ele>
        <time>2021-03-20T16:00:31Z</time>
      </trkpt>
      <trkpt lat="55.00056" lon="-2.69135">
        <ele>101.9</ele>
        <time>2021-03-20T16:00:33Z</time>
      </trkpt>
      <trkpt lat="55.00087" lon="-2.69209">
        <ele>105.42</ele>
        <time>2021-03-20T16:00:36Z</time>
      </trkpt>
      <trkpt lat="55.00111" lon="-2.69286">
        <ele>109.25</ele>
        <time>2021-03-20T16:00:38Z</time>
      </trkpt>
      <trkpt lat="55.0012" lon="-2.69339">
        <ele>110.54</ele>
        <time>2021-03-20T16:00:41Z</time>
      </trkpt>
      <trkpt lat="55.00147" lon="-2.69561">
        <ele>115.39</ele>
        <time>2021-03-20T16:00:44Z</time>
      </trkpt>
      <trkpt lat="55.0016" lon="-2.69614">
        <ele>114.74</ele>
        <time>2021-03-20T16:00:46Z</time>
      </trkpt>
      <trkpt lat="55.00201" lon="-2.69732">
        <ele>114.88</ele>
        <time>2021-03-20T16:00:49Z</time>
      </trkpt>
      <trkpt lat="55.00231" lon="-2.69794">
        <ele>114.73</ele>
        <time>2021-03-20T16:00:51Z</time>
      </trkpt>
      <trkpt lat="55.00234" lon="-2.69806">
        <ele>114.42</ele>
        <time>2021-03-20T16:00:54Z</time>
      </trkpt>
      <trkpt lat="55.00234" lon="-2.69819">
        <ele>114.42</ele>
        <time>2021-03-20T16:00:57Z</time>
      </trkpt>
      <trkpt lat="55.00228" lon="-2.69856">
        <ele>114.19</ele>
        <time>2021-03-20T16:00:59Z</time>
      </trkpt>
      <trkpt lat="55.00206" lon="-2.69962">
        <ele>114</ele>
        <time>2021-03-20T16:01:02Z</time>
      </trkpt>
      <trkpt lat="54.99582" lon="-2.72228">
        <ele>114.1</ele>
        <time>2021-03-20T16:01:04Z</time>
      </trkpt>
      <trkpt lat="54.99582" lon="-2.72237">
        <ele>114.38</ele>
        <time>2021-03-20T16:01:07Z</time>
      </trkpt>
      <trkpt lat="54.99587" lon="-2.72242">
        <ele>115.19</ele>
        <time>2021-03-20T16:01:13Z</time>
      </trkpt>
      <trkpt lat="54.99691" lon="-2.72279">
        <ele>117.21</ele>
        <time>2021-03-20T16:01:20Z</time>
      </trkpt>
      <trkpt lat="54.99704" lon="-2.72291">
        <ele>116.51</ele>
        <time>2021-03-20T16:01:26Z</time>
      </trkpt>
      <trkpt lat="54.99741" lon="-2.72335">
        <ele>116.93</ele>
        <time>2021-03-20T16:01:32Z</time>
      </trkpt>
      <trkpt lat="54.99766" lon="-2.72373">
        <ele>116</ele>
        <time>2021-03-20T16:01:39Z</time>
      </trkpt>
      <trkpt lat="54.99785" lon="-2.72422">
        <ele>115</ele>
        <time>2021-03-20T16:01:45Z</time>
      </trkpt>
      <trkpt lat="54.99807" lon="-2.72445">
        <ele>115.04</ele>
        <time>2021-03-20T16:01:51Z</time>
      </trkpt>
      <trkpt lat="54.99854" lon="-2.72464">
        <ele>116.22</ele>
        <time>2021-03-20T16:01:58Z</time>
      </trkpt>
      <trkpt lat="54.99911" lon="-2.72478">
        <ele>113.39</ele>
        <time>2021-03-20T16:02:04Z</time>
      </trkpt>
      <trkpt lat="55.00092" lon="-2.72504">
        <ele>110.44</ele>
        <time>2021-03-20T16:02:10Z</time>
      </trkpt>
      <trkpt lat="55.00325" lon="-2.72528">
        <ele>110</ele>
        <time>2021-03-20T16:02:17Z</time>
      </trkpt>
      <trkpt lat="55.00714" lon="-2.7255">
        <ele>113.31</ele>
        <time>2021-03-20T16:02:23Z</time>
      </trkpt>
      <trkpt lat="55.0086" lon="-2.72495">
        <ele>113.89</ele>
        <time>2021-03-20T16:02:29Z</time>
      </trkpt>
      <trkpt lat="55.01043" lon="-2.72469">
        <ele>117.06</ele>
        <time>2021-03-20T16:02:36Z</time>
      </trkpt>
      <trkpt lat="55.01055" lon="-2.72471">
        <ele>117.05</ele>
        <time>2021-03-20T16:02:42Z</time>
      </trkpt>
      <trkpt lat="55.01067" lon="-2.72476">
        <ele>117.39</ele>
        <time>2021-03-20T16:02:48Z</time>
      </trkpt>
      <trkpt lat="55.01134" lon="-2.72571">
        <ele>114.81</ele>
        <time>2021-03-20T16:02:55Z</time>
      </trkpt>
      <trkpt lat="55.01181" lon="-2.72643">
        <ele>113.5</ele>
        <time>2021-03-20T16:03:01Z</time>
      </trkpt>
      <trkpt lat="55.01189" lon="-2.72662">
        <ele>113.18</ele>
        <time>2021-03-20T16:03:08Z</time>
      </trkpt>
      <trkpt lat="55.01198" lon="-2.72703">
        <ele>110.06</ele>
        <time>2021-03-20T16:03:14Z</time>
      </trkpt>
      <trkpt lat="55.012" lon="-2.72745">
        <ele>106.13</ele>
        <time>2021-03-20T16:03:20Z</time>
      </trkpt>
      <trkpt lat="55.01204" lon="-2.72772">
        <ele>103.22</ele>
        <time>2021-03-20T16:03:27Z</time>
      </trkpt>
      <trkpt lat="55.01207" lon="-2.72788">
        <ele>101.78</ele>
        <time>2021-03-20T16:03:33Z</time>
      </trkpt>
      <trkpt lat="55.01281" lon="-2.7293">
        <ele>101.84</ele>
        <time>2021-03-20T16:03:39Z</time>
      </trkpt>
      <trkpt lat="55.01282" lon="-2.72942">
        <ele>102.51</ele>
        <time>2021-03-20T16:03:46Z</time>
      </trkpt>
      <trkpt lat="55.01283" lon="-2.72967">
        <ele>105.78</ele>
        <time>2021-03-20T16:03:52Z</time>
      </trkpt>
      <trkpt lat="55.01289" lon="-2.72988">
        <ele>107.47</ele>
        <time>2021-03-20T16:03:58Z</time>
      </trkpt>
      <trkpt lat="55.01318" lon="-2.73058">
        <ele>110.79</ele>
        <time>2021-03-20T16:04:05Z</time>
      </trkpt>
      <trkpt lat="55.01327" lon="-2.73066">
        <ele>110.41</ele>
        <time>2021-03-20T16:04:11Z</time>
      </trkpt>
      <trkpt lat="55.01352" lon="-2.73065">
        <ele>108.8</ele>
        <time>2021-03-20T16:04:17Z</time>
      </trkpt>
      <trkpt lat="55.01365" lon="-2.73069">
        <ele>108.35</ele>
        <time>2021-03-20T16:04:24Z</time>
      </trkpt>
      <trkpt lat="55.01414" lon="-2.73105">
        <ele>107.09</ele>
        <time>2021-03-20T16:04:30Z</time>
      </trkpt>
      <trkpt lat="55.01652" lon="-2.7325">
        <ele>119.45</ele>
        <time>2021-03-20T16:04:36Z</time>
      </trkpt>
      <trkpt lat="55.0168" lon="-2.73254">
        <ele>120.35</ele>
        <time>2021-03-20T16:04:43Z</time>
      </trkpt>
      <trkpt lat="55.01724" lon="-2.73245">
        <ele>122.24</ele>
        <time>2021-03-20T16:04:49Z</time>
      </trkpt>
      <trkpt lat="55.01804" lon="-2.73244">
        <ele>126.65</ele>
        <time>2021-03-20T16:04:55Z</time>
      </trkpt>
      <trkpt lat="55.02025" lon="-2.73448">
        <ele>141.87</ele>
        <time>2021-03-20T16:05:02Z</time>
      </trkpt>
      <trkpt lat="55.02069" lon="-2.73481">
        <ele>141.52</ele>
        <time>2021-03-20T16:05:08Z</time>
      </trkpt>
      <trkpt lat="55.02157" lon="-2.7357">
        <ele>140.19</ele>
        <time>2021-03-20T16:05:14Z</time>
      </trkpt>
      <trkpt lat="55.02262" lon="-2.73701">
        <ele>134.58</ele>
        <time>2021-03-20T16:05:21Z</time>
      </trkpt>
      <trkpt lat="55.03164" lon="-2.7554">
        <ele>126.04</ele>
        <time>2021-03-20T16:05:27Z</time>
      </trkpt>
      <trkpt lat="55.03312" lon="-2.75447">
        <ele>120.17</ele>
        <time>2021-03-20T16:05:33Z</time>
      </trkpt>
      <trkpt lat="55.03563" lon="-2.75304">
        <ele>109.27</ele>
        <time>2021-03-20T16:05:40Z</time>
      </trkpt>
      <trkpt lat="55.0365" lon="-2.75304">
        <ele>116.22</ele>
        <time>2021-03-20T16:05:46Z</time>
      </trkpt>
      <trkpt lat="55.04023" lon="-2.75348">
        <ele>106</ele>
        <time>2021-03-20T16:05:52Z</time>
      </trkpt>
      <trkpt lat="55.04019" lon="-2.76244">
        <ele>126.78</ele>
        <time>2021-03-20T16:06:07Z</time>
      </trkpt>
      <trkpt lat="55.04066" lon="-2.76647">
        <ele>133.63</ele>
        <time>2021-03-20T16:06:22Z</time>
      </trkpt>
      <trkpt lat="55.04125" lon="-2.77188">
        <ele>131.75</ele>
        <time>2021-03-20T16:06:37Z</time>
      </trkpt>
      <trkpt lat="55.04185" lon="-2.77795">
        <ele>130.38</ele>
        <time>2021-03-20T16:06:52Z</time>
      </trkpt>
      <trkpt lat="55.04186" lon="-2.77813">
        <ele>129.91</ele>
        <time>2021-03-20T16:07:07Z</time>
      </trkpt>
      <trkpt lat="55.04181" lon="-2.77833">
        <ele>129.54</ele>
        <time>2021-03-20T16:07:22Z</time>
      </trkpt>
      <trkpt lat="55.04138" lon="-2.77928">
        <ele>123.98</ele>
        <time>2021-03-20T16:07:37Z</time>
      </trkpt>
      <trkpt lat="55.04211" lon="-2.78126">
        <ele>116.86</ele>
        <time>2021-03-20T16:07:50Z</time>
      </trkpt>
      <trkpt lat="55.04302" lon="-2.78381">
        <ele>111</ele>
        <time>2021-03-20T16:08:03Z</time>
      </trkpt>
      <trkpt lat="55.0434" lon="-2.78476">
        <ele>104.32</ele>
        <time>2021-03-20T16:08:16Z</time>
      </trkpt>
      <trkpt lat="55.04398" lon="-2.78597">
        <ele>94.84</ele>
        <time>2021-03-20T16:08:29Z</time>
      </trkpt>
      <trkpt lat="55.04497" lon="-2.78785">
        <ele>85.24</ele>
        <time>2021-03-20T16:08:42Z</time>
      </trkpt>
      <trkpt lat="55.04596" lon="-2.78806">
        <ele>92</ele>
        <time>2021-03-20T16:08:55Z</time>
      </trkpt>
      <trkpt lat="55.04663" lon="-2.78729">
        <ele>93.66</ele>
        <time>2021-03-20T16:09:08Z</time>
      </trkpt>
      <trkpt lat="55.04746" lon="-2.78822">
        <ele>92</ele>
        <time>2021-03-20T16:09:13Z</time>
      </trkpt>
      <trkpt lat="55.04773" lon="-2.78842">
        <ele>89.78</ele>
        <time>2021-03-20T16:09:18Z</time>
      </trkpt>
      <trkpt lat="55.04792" lon="-2.78818">
        <ele>88.62</ele>
        <time>2021-03-20T16:09:22Z</time>
      </trkpt>
      <trkpt lat="55.04811" lon="-2.78786">
        <ele>88.69</ele>
        <time>2021-03-20T16:09:27Z</time>
      </trkpt>
      <trkpt lat="55.04832" lon="-2.78781">
        <ele>84.05</ele>
        <time>2021-03-20T16:09:32Z</time>
      </trkpt>
      <trkpt lat="55.04847" lon="-2.7879">
        <ele>79.96</ele>
        <time>2021-03-20T16:09:36Z</time>
      </trkpt>
      <trkpt lat="55.0489" lon="-2.78862">
        <ele>71.96</ele>
        <time>2021-03-20T16:09:41Z</time>
      </trkpt>
      <trkpt lat="55.04914" lon="-2.78908">
        <ele>70.41</ele>
        <time>2021-03-20T16:09:45Z</time>
      </trkpt>
      <trkpt lat="55.04976" lon="-2.78938">
        <ele>70.31</ele>
        <time>2021-03-20T16:09:50Z</time>
      </trkpt>
      <trkpt lat="55.05011" lon="-2.78942">
        <ele>72.49</ele>
        <time>2021-03-20T16:09:55Z</time>
      </trkpt>
      <trkpt lat="55.05042" lon="-2.78936">
        <ele>75.9</ele>
        <time>2021-03-20T16:09:59Z</time>
      </trkpt>
      <trkpt lat="55.05103" lon="-2.78945">
        <ele>78.93</ele>
        <time>2021-03-20T16:10:10Z</time>
      </trkpt>
      <trkpt lat="55.05165" lon="-2.78962">
        <ele>81.43</ele>
        <time>2021-03-20T16:10:22Z</time>
      </trkpt>
      <trkpt lat="55.05218" lon="-2.78971">
        <ele>81.32</ele>
        <time>2021-03-20T16:10:33Z</time>
      </trkpt>
      <trkpt lat="55.0523" lon="-2.78987">
        <ele>79.11</ele>
        <time>2021-03-20T16:10:44Z</time>
      </trkpt>
      <trkpt lat="55.0523" lon="-2.79033">
        <ele>78.28</ele>
        <time>2021-03-20T16:10:55Z</time>
      </trkpt>
      <trkpt lat="55.05242" lon="-2.7907">
        <ele>79.75</ele>
        <time>2021-03-20T16:11:06Z</time>
      </trkpt>
      <trkpt lat="55.05261" lon="-2.7909">
        <ele>82.55</ele>
        <time>2021-03-20T16:11:17Z</time>
      </trkpt>
      <trkpt lat="55.05415" lon="-2.79229">
        <ele>101.86</ele>
        <time>2021-03-20T16:11:28Z</time>
      </trkpt>
      <trkpt lat="55.05417" lon="-2.79253">
        <ele>102.02</ele>
        <time>2021-03-20T16:11:39Z</time>
      </trkpt>
      <trkpt lat="55.05432" lon="-2.79647">
        <ele>106.07</ele>
        <time>2021-03-20T16:11:51Z</time>
      </trkpt>
      <trkpt lat="55.0544" lon="-2.79847">
        <ele>106.68</ele>
        <time>2021-03-20T16:12:02Z</time>
      </trkpt>
      <trkpt lat="55.05446" lon="-2.80088">
        <ele>111.14</ele>
        <time>2021-03-20T16:12:13Z</time>
      </trkpt>
      <trkpt lat="55.05463" lon="-2.80497">
        <ele>118.98</ele>
        <time>2021-03-20T16:12:24Z</time>
      </trkpt>
      <trkpt lat="55.05473" lon="-2.80819">
        <ele>126.51</ele>
        <time>2021-03-20T16:12:35Z</time>
      </trkpt>
      <trkpt lat="55.05644" lon="-2.80735">
        <ele>138.84</ele>
        <time>2021-03-20T16:12:56Z</time>
      </trkpt>
      <trkpt lat="55.05672" lon="-2.8166">
        <ele>156.9</ele>
        <time>2021-03-20T16:13:11Z</time>
      </trkpt>
      <trkpt lat="55.05685" lon="-2.81804">
        <ele>156.39</ele>
        <time>2021-03-20T16:13:27Z</time>
      </trkpt>
      <trkpt lat="55.05723" lon="-2.82156">
        <ele>150.42</ele>
        <time>2021-03-20T16:13:42Z</time>
      </trkpt>
      <trkpt lat="55.05708" lon="-2.82245">
        <ele>145.64</ele>
        <time>2021-03-20T16:13:58Z</time>
      </trkpt>
      <trkpt lat="55.0567" lon="-2.82409">
        <ele>141.27</ele>
        <time>2021-03-20T16:14:14Z</time>
      </trkpt>
      <trkpt lat="55.05634" lon="-2.82474">
        <ele>137.33</ele>
        <time>2021-03-20T16:14:29Z</time>
      </trkpt>
      <trkpt lat="55.05618" lon="-2.82548">
        <ele>136.21</ele>
        <time>2021-03-20T16:14:45Z</time>
      </trkpt>
      <trkpt lat="55.05606" lon="-2.82661">
        <ele>135.48</ele>
        <time>2021-03-20T16:15:00Z</time>
      </trkpt>
      <trkpt lat="55.05588" lon="-2.82804">
        <ele>137.31</ele>
        <time>2021-03-20T16:15:16Z</time>
      </trkpt>
      <trkpt lat="55.05712" lon="-2.83068">
        <ele>152.9</ele>
        <time>2021-03-20T16:15:23Z</time>
      </trkpt>
      <trkpt lat="55.05832" lon="-2.83255">
        <ele>168.75</ele>
        <time>2021-03-20T16:15:29Z</time>
      </trkpt>
      <trkpt lat="55.06078" lon="-2.83649">
        <ele>174.82</ele>
        <time>2021-03-20T16:15:35Z</time>
      </trkpt>
      <trkpt lat="55.06092" lon="-2.83667">
        <ele>174.99</ele>
        <time>2021-03-20T16:15:42Z</time>
      </trkpt>
      <trkpt lat="55.06101" lon="-2.83669">
        <ele>174.97</ele>
        <time>2021-03-20T16:15:48Z</time>
      </trkpt>
      <trkpt lat="55.06111" lon="-2.83664">
        <ele>175</ele>
        <time>2021-03-20T16:15:55Z</time>
      </trkpt>
      <trkpt lat="55.06208" lon="-2.83443">
        <ele>169.5</ele>
        <time>2021-03-20T16:16:01Z</time>
      </trkpt>
      <trkpt lat="55.06223" lon="-2.83432">
        <ele>168.99</ele>
        <time>2021-03-20T16:16:08Z</time>
      </trkpt>
      <trkpt lat="55.06393" lon="-2.83524">
        <ele>163.54</ele>
        <time>2021-03-20T16:16:14Z</time>
      </trkpt>
      <trkpt lat="55.06513" lon="-2.83575">
        <ele>161.04</ele>
        <time>2021-03-20T16:16:21Z</time>
      </trkpt>
      <trkpt lat="55.06651" lon="-2.83653">
        <ele>163.3</ele>
        <time>2021-03-20T16:16:27Z</time>
      </trkpt>
      <trkpt lat="55.06923" lon="-2.83821">
        <ele>169.77</ele>
        <time>2021-03-20T16:16:34Z</time>
      </trkpt>
      <trkpt lat="55.07007" lon="-2.83903">
        <ele>161.99</ele>
        <time>2021-03-20T16:16:40Z</time>
      </trkpt>
      <trkpt lat="55.07077" lon="-2.83983">
        <ele>151.49</ele>
        <time>2021-03-20T16:16:47Z</time>
      </trkpt>
      <trkpt lat="55.0709" lon="-2.83991">
        <ele>149.19</ele>
        <time>2021-03-20T16:16:53Z</time>
      </trkpt>
      <trkpt lat="55.07099" lon="-2.83986">
        <ele>147.97</ele>
        <time>2021-03-20T16:17:00Z</time>
      </trkpt>
      <trkpt lat="55.07134" lon="-2.83917">
        <ele>149.33</ele>
        <time>2021-03-20T16:17:06Z</time>
      </trkpt>
      <trkpt lat="55.07146" lon="-2.83902">
        <ele>148.98</ele>
        <time>2021-03-20T16:17:12Z</time>
      </trkpt>
      <trkpt lat="55.07153" lon="-2.8391">
        <ele>147.34</ele>
        <time>2021-03-20T16:17:19Z</time>
      </trkpt>
      <trkpt lat="55.07156" lon="-2.83923">
        <ele>146.46</ele>
        <time>2021-03-20T16:17:25Z</time>
      </trkpt>
      <trkpt lat="55.07155" lon="-2.83947">
        <ele>146.15</ele>
        <time>2021-03-20T16:17:32Z</time>
      </trkpt>
      <trkpt lat="55.07157" lon="-2.83966">
        <ele>144.76</ele>
        <time>2021-03-20T16:17:38Z</time>
      </trkpt>
      <trkpt lat="55.07171" lon="-2.83982">
        <ele>144.58</ele>
        <time>2021-03-20T16:17:45Z</time>
      </trkpt>
      <trkpt lat="55.07179" lon="-2.84005">
        <ele>145.83</ele>
        <time>2021-03-20T16:17:51Z</time>
      </trkpt>
      <trkpt lat="55.07178" lon="-2.84034">
        <ele>146.03</ele>
        <time>2021-03-20T16:17:58Z</time>
      </trkpt>
      <trkpt lat="55.07165" lon="-2.84105">
        <ele>144.76</ele>
        <time>2021-03-20T16:18:04Z</time>
      </trkpt>
      <trkpt lat="55.07164" lon="-2.84161">
        <ele>144.62</ele>
        <time>2021-03-20T16:18:11Z</time>
      </trkpt>
      <trkpt lat="55.07169" lon="-2.84185">
        <ele>144.71</ele>
        <time>2021-03-20T16:18:17Z</time>
      </trkpt>
      <trkpt lat="55.07179" lon="-2.84209">
        <ele>145.79</ele>
        <time>2021-03-20T16:18:24Z</time>
      </trkpt>
      <trkpt lat="55.07236" lon="-2.843">
        <ele>153.81</ele>
        <time>2021-03-20T16:18:30Z</time>
      </trkpt>
      <trkpt lat="55.07317" lon="-2.84406">
        <ele>159.79</ele>
        <time>2021-03-20T16:18:37Z</time>
      </trkpt>
      <trkpt lat="55.07532" lon="-2.84677">
        <ele>155.48</ele>
        <time>2021-03-20T16:18:43Z</time>
      </trkpt>
      <trkpt lat="55.07601" lon="-2.84846">
        <ele>146.2</ele>
        <time>2021-03-20T16:18:50Z</time>
      </trkpt>
      <trkpt lat="55.07647" lon="-2.84968">
        <ele>143.16</ele>
        <time>2021-03-20T16:18:56Z</time>
      </trkpt>
      <trkpt lat="55.077" lon="-2.85007">
        <ele>143.02</ele>
        <time>2021-03-20T16:19:02Z</time>
      </trkpt>
      <trkpt lat="55.0776" lon="-2.85069">
        <ele>145.88</ele>
        <time>2021-03-20T16:19:09Z</time>
      </trkpt>
      <trkpt lat="55.07923" lon="-2.8501">
        <ele>151.64</ele>
        <time>2021-03-20T16:19:15Z</time>
      </trkpt>
      <trkpt lat="55.07993" lon="-2.85255">
        <ele>149</ele>
        <time>2021-03-20T16:19:22Z</time>
      </trkpt>
      <trkpt lat="55.07902" lon="-2.85397">
        <ele>141.69</ele>
        <time>2021-03-20T16:19:27Z</time>
      </trkpt>
      <trkpt lat="55.07758" lon="-2.85629">
        <ele>133.66</ele>
        <time>2021-03-20T16:19:32Z</time>
      </trkpt>
      <trkpt lat="55.07633" lon="-2.85836">
        <ele>129.83</ele>
        <time>2021-03-20T16:19:38Z</time>
      </trkpt>
      <trkpt lat="55.07624" lon="-2.8587">
        <ele>128.23</ele>
        <time>2021-03-20T16:19:43Z</time>
      </trkpt>
      <trkpt lat="55.07622" lon="-2.85893">
        <ele>127.45</ele>
        <time>2021-03-20T16:19:48Z</time>
      </trkpt>
      <trkpt lat="55.07623" lon="-2.8592">
        <ele>126.58</ele>
        <time>2021-03-20T16:19:53Z</time>
      </trkpt>
      <trkpt lat="55.07638" lon="-2.86042">
        <ele>124.02</ele>
        <time>2021-03-20T16:19:58Z</time>
      </trkpt>
      <trkpt lat="55.0772" lon="-2.86705">
        <ele>103.52</ele>
        <time>2021-03-20T16:20:04Z</time>
      </trkpt>
      <trkpt lat="55.07756" lon="-2.86976">
        <ele>99.19</ele>
        <time>2021-03-20T16:20:09Z</time>
      </trkpt>
      <trkpt lat="55.07802" lon="-2.87238">
        <ele>96.86</ele>
        <time>2021-03-20T16:20:14Z</time>
      </trkpt>
      <trkpt lat="55.07953" lon="-2.88039">
        <ele>113.32</ele>
        <time>2021-03-20T16:20:19Z</time>
      </trkpt>
      <trkpt lat="55.07985" lon="-2.88117">
        <ele>111.9</ele>
        <time>2021-03-20T16:20:25Z</time>
      </trkpt>
      <trkpt lat="55.08121" lon="-2.88323">
        <ele>102.64</ele>
        <time>2021-03-20T16:20:30Z</time>
      </trkpt>
      <trkpt lat="55.08265" lon="-2.88537">
        <ele>96.45</ele>
        <time>2021-03-20T16:20:35Z</time>
      </trkpt>
      <trkpt lat="55.0838" lon="-2.88698">
        <ele>87.91</ele>
        <time>2021-03-20T16:20:40Z</time>
      </trkpt>
      <trkpt lat="55.08461" lon="-2.88815">
        <ele>84.87</ele>
        <time>2021-03-20T16:20:46Z</time>
      </trkpt>
      <trkpt lat="55.08494" lon="-2.88839">
        <ele>84.81</ele>
        <time>2021-03-20T16:20:51Z</time>
      </trkpt>
      <trkpt lat="55.08584" lon="-2.88885">
        <ele>76.92</ele>
        <time>2021-03-20T16:20:56Z</time>
      </trkpt>
      <trkpt lat="55.086" lon="-2.88899">
        <ele>73.14</ele>
        <time>2021-03-20T16:21:01Z</time>
      </trkpt>
      <trkpt lat="55.08617" lon="-2.88972">
        <ele>67.14</ele>
        <time>2021-03-20T16:21:06Z</time>
      </trkpt>
      <trkpt lat="55.08647" lon="-2.89044">
        <ele>65.26</ele>
        <time>2021-03-20T16:21:12Z</time>
      </trkpt>
      <trkpt lat="55.08677" lon="-2.89073">
        <ele>63.01</ele>
        <time>2021-03-20T16:21:17Z</time>
      </trkpt>
      <trkpt lat="55.08714" lon="-2.89081">
        <ele>58.96</ele>
        <time>2021-03-20T16:21:22Z</time>
      </trkpt>
      <trkpt lat="55.08749" lon="-2.89071">
        <ele>56.26</ele>
        <time>2021-03-20T16:21:27Z</time>
      </trkpt>
      <trkpt lat="55.08797" lon="-2.89043">
        <ele>55.09</ele>
        <time>2021-03-20T16:21:33Z</time>
      </trkpt>
      <trkpt lat="55.08822" lon="-2.89002">
        <ele>56.4</ele>
        <time>2021-03-20T16:21:38Z</time>
      </trkpt>
      <trkpt lat="55.08835" lon="-2.88971">
        <ele>57.06</ele>
        <time>2021-03-20T16:21:43Z</time>
      </trkpt>
      <trkpt lat="55.08859" lon="-2.88899">
        <ele>58.39</ele>
        <time>2021-03-20T16:21:48Z</time>
      </trkpt>
      <trkpt lat="55.08881" lon="-2.88877">
        <ele>61.83</ele>
        <time>2021-03-20T16:21:53Z</time>
      </trkpt>
      <trkpt lat="55.08923" lon="-2.88867">
        <ele>67.86</ele>
        <time>2021-03-20T16:21:59Z</time>
      </trkpt>
      <trkpt lat="55.08942" lon="-2.88879">
        <ele>69.83</ele>
        <time>2021-03-20T16:22:04Z</time>
      </trkpt>
      <trkpt lat="55.09308" lon="-2.89357">
        <ele>87.05</ele>
        <time>2021-03-20T16:22:09Z</time>
      </trkpt>
      <trkpt lat="55.09495" lon="-2.89596">
        <ele>106.46</ele>
        <time>2021-03-20T16:22:14Z</time>
      </trkpt>
      <trkpt lat="55.09513" lon="-2.89606">
        <ele>107.94</ele>
        <time>2021-03-20T16:22:20Z</time>
      </trkpt>
      <trkpt lat="55.09529" lon="-2.89608">
        <ele>109.1</ele>
        <time>2021-03-20T16:22:25Z</time>
      </trkpt>
      <trkpt lat="55.09552" lon="-2.89599">
        <ele>111.59</ele>
        <time>2021-03-20T16:22:30Z</time>
      </trkpt>
      <trkpt lat="55.09578" lon="-2.89578">
        <ele>113.64</ele>
        <time>2021-03-20T16:22:35Z</time>
      </trkpt>
      <trkpt lat="55.09589" lon="-2.89574">
        <ele>114.4</ele>
        <time>2021-03-20T16:22:41Z</time>
      </trkpt>
      <trkpt lat="55.09599" lon="-2.89573">
        <ele>115.1</ele>
        <time>2021-03-20T16:22:46Z</time>
      </trkpt>
      <trkpt lat="55.09616" lon="-2.89585">
        <ele>116.35</ele>
        <time>2021-03-20T16:22:51Z</time>
      </trkpt>
      <trkpt lat="55.09631" lon="-2.89603">
        <ele>117.43</ele>
        <time>2021-03-20T16:22:56Z</time>
      </trkpt>
      <trkpt lat="55.09624" lon="-2.89625">
        <ele>116.39</ele>
        <time>2021-03-20T16:22:58Z</time>
      </trkpt>
      <trkpt lat="55.09634" lon="-2.89636">
        <ele>116.73</ele>
        <time>2021-03-20T16:23:01Z</time>
      </trkpt>
      <trkpt lat="55.09651" lon="-2.89643">
        <ele>117.9</ele>
        <time>2021-03-20T16:23:04Z</time>
      </trkpt>
      <trkpt lat="55.0968" lon="-2.89636">
        <ele>119.88</ele>
        <time>2021-03-20T16:23:07Z</time>
      </trkpt>
      <trkpt lat="55.09776" lon="-2.89652">
        <ele>131.3</ele>
        <time>2021-03-20T16:23:10Z</time>
      </trkpt>
      <trkpt lat="55.09783" lon="-2.89658">
        <ele>132.37</ele>
        <time>2021-03-20T16:23:13Z</time>
      </trkpt>
      <trkpt lat="55.09836" lon="-2.89844">
        <ele>141.2</ele>
        <time>2021-03-20T16:23:16Z</time>
      </trkpt>
      <trkpt lat="55.09841" lon="-2.89858">
        <ele>141.77</ele>
        <time>2021-03-20T16:23:19Z</time>
      </trkpt>
      <trkpt lat="55.09852" lon="-2.89872">
        <ele>143</ele>
        <time>2021-03-20T16:23:23Z</time>
      </trkpt>
      <trkpt lat="55.09901" lon="-2.89902">
        <ele>146.88</ele>
        <time>2021-03-20T16:23:26Z</time>
      </trkpt>
      <trkpt lat="55.09934" lon="-2.89929">
        <ele>148.17</ele>
        <time>2021-03-20T16:23:29Z</time>
      </trkpt>
      <trkpt lat="55.09944" lon="-2.89934">
        <ele>148.01</ele>
        <time>2021-03-20T16:23:32Z</time>
      </trkpt>
      <trkpt lat="55.09962" lon="-2.89935">
        <ele>147.57</ele>
        <time>2021-03-20T16:23:35Z</time>
      </trkpt>
      <trkpt lat="55.10025" lon="-2.89923">
        <ele>149.68</ele>
        <time>2021-03-20T16:23:38Z</time>
      </trkpt>
      <trkpt lat="55.10044" lon="-2.89925">
        <ele>150.9</ele>
        <time>2021-03-20T16:23:41Z</time>
      </trkpt>
      <trkpt lat="55.10074" lon="-2.8994">
        <ele>152.56</ele>
        <time>2021-03-20T16:23:44Z</time>
      </trkpt>
      <trkpt lat="55.10115" lon="-2.89972">
        <ele>155.3</ele>
        <time>2021-03-20T16:23:47Z</time>
      </trkpt>
      <trkpt lat="55.10124" lon="-2.89984">
        <ele>155.46</ele>
        <time>2021-03-20T16:23:51Z</time>
      </trkpt>
      <trkpt lat="55.10132" lon="-2.90003">
        <ele>155.39</ele>
        <time>2021-03-20T16:23:54Z</time>
      </trkpt>
      <trkpt lat="55.10153" lon="-2.90081">
        <ele>155.54</ele>
        <time>2021-03-20T16:23:57Z</time>
      </trkpt>
      <trkpt lat="55.10172" lon="-2.90178">
        <ele>156.2</ele>
        <time>2021-03-20T16:24:00Z</time>
      </trkpt>
      <trkpt lat="55.1022" lon="-2.90516">
        <ele>152.87</ele>
        <time>2021-03-20T16:24:03Z</time>
      </trkpt>
      <trkpt lat="55.10222" lon="-2.9056">
        <ele>153.01</ele>
        <time>2021-03-20T16:24:06Z</time>
      </trkpt>
      <trkpt lat="55.10222" lon="-2.90583">
        <ele>152.99</ele>
        <time>2021-03-20T16:24:09Z</time>
      </trkpt>
      <trkpt lat="55.10217" lon="-2.90623">
        <ele>152.05</ele>
        <time>2021-03-20T16:24:12Z</time>
      </trkpt>
      <trkpt lat="55.10194" lon="-2.90728">
        <ele>145.6</ele>
        <time>2021-03-20T16:24:15Z</time>
      </trkpt>
      <trkpt lat="55.1019" lon="-2.90763">
        <ele>143.29</ele>
        <time>2021-03-20T16:24:19Z</time>
      </trkpt>
      <trkpt lat="55.10187" lon="-2.90806">
        <ele>141.2</ele>
        <time>2021-03-20T16:24:22Z</time>
      </trkpt>
      <trkpt lat="55.10186" lon="-2.90873">
        <ele>139.1</ele>
        <time>2021-03-20T16:24:25Z</time>
      </trkpt>
      <trkpt lat="55.10187" lon="-2.90909">
        <ele>138.49</ele>
        <time>2021-03-20T16:24:28Z</time>
      </trkpt>
      <trkpt lat="55.10189" lon="-2.90936">
        <ele>137.77</ele>
        <time>2021-03-20T16:24:31Z</time>
      </trkpt>
      <trkpt lat="55.10194" lon="-2.90966">
        <ele>136.39</ele>
        <time>2021-03-20T16:24:34Z</time>
      </trkpt>
      <trkpt lat="55.10199" lon="-2.90987">
        <ele>135.81</ele>
        <time>2021-03-20T16:24:37Z</time>
      </trkpt>
      <trkpt lat="55.10212" lon="-2.91022">
        <ele>134.71</ele>
        <time>2021-03-20T16:24:40Z</time>
      </trkpt>
      <trkpt lat="55.10271" lon="-2.9114">
        <ele>128.48</ele>
        <time>2021-03-20T16:24:43Z</time>
      </trkpt>
      <trkpt lat="55.10447" lon="-2.91461">
        <ele>117.31</ele>
        <time>2021-03-20T16:24:46Z</time>
      </trkpt>
      <trkpt lat="55.10461" lon="-2.91481">
        <ele>116.28</ele>
        <time>2021-03-20T16:24:50Z</time>
      </trkpt>
      <trkpt lat="55.10495" lon="-2.91517">
        <ele>115.4</ele>
        <time>2021-03-20T16:24:53Z</time>
      </trkpt>
      <trkpt lat="55.10606" lon="-2.91618">
        <ele>117.96</ele>
        <time>2021-03-20T16:24:56Z</time>
      </trkpt>
      <trkpt lat="55.10631" lon="-2.91647">
        <ele>117.79</ele>
        <time>2021-03-20T16:24:59Z</time>
      </trkpt>
      <trkpt lat="55.10662" lon="-2.9169">
        <ele>115.26</ele>
        <time>2021-03-20T16:25:02Z</time>
      </trkpt>
      <trkpt lat="55.10691" lon="-2.91705">
        <ele>114.77</ele>
        <time>2021-03-20T16:25:05Z</time>
      </trkpt>
      <trkpt lat="55.10749" lon="-2.91717">
        <ele>114.6</ele>
        <time>2021-03-20T16:25:08Z</time>
      </trkpt>
      <trkpt lat="55.10774" lon="-2.91753">
        <ele>118.19</ele>
        <time>2021-03-20T16:25:11Z</time>
      </trkpt>
      <trkpt lat="55.10818" lon="-2.91786">
        <ele>125.26</ele>
        <time>2021-03-20T16:25:14Z</time>
      </trkpt>
      <trkpt lat="55.10857" lon="-2.91777">
        <ele>127.62</ele>
        <time>2021-03-20T16:25:18Z</time>
      </trkpt>
      <trkpt lat="55.1095" lon="-2.91807">
        <ele>134.47</ele>
        <time>2021-03-20T16:25:21Z</time>
      </trkpt>
      <trkpt lat="55.10959" lon="-2.91821">
        <ele>135.56</ele>
        <time>2021-03-20T16:25:24Z</time>
      </trkpt>
      <trkpt lat="55.10961" lon="-2.91849">
        <ele>136.79</ele>
        <time>2021-03-20T16:25:27Z</time>
      </trkpt>
      <trkpt lat="55.10888" lon="-2.92135">
        <ele>146</ele>
        <time>2021-03-20T16:25:30Z</time>
      </trkpt>
      <trkpt lat="55.10837" lon="-2.92364">
        <ele>146.01</ele>
        <time>2021-03-20T16:25:33Z</time>
      </trkpt>
      <trkpt lat="55.10812" lon="-2.92506">
        <ele>147</ele>
        <time>2021-03-20T16:25:36Z</time>
      </trkpt>
      <trkpt lat="55.10772" lon="-2.92761">
        <ele>148.2</ele>
        <time>2021-03-20T16:25:39Z</time>
      </trkpt>
      <trkpt lat="55.10759" lon="-2.92859">
        <ele>146.39</ele>
        <time>2021-03-20T16:25:42Z</time>
      </trkpt>
      <trkpt lat="55.10757" lon="-2.92907">
        <ele>144.61</ele>
        <time>2021-03-20T16:25:46Z</time>
      </trkpt>
      <trkpt lat="55.10779" lon="-2.93242">
        <ele>136.28</ele>
        <time>2021-03-20T16:25:49Z</time>
      </trkpt>
      <trkpt lat="55.10779" lon="-2.93307">
        <ele>133.93</ele>
        <time>2021-03-20T16:25:52Z</time>
      </trkpt>
      <trkpt lat="55.10766" lon="-2.93378">
        <ele>132.16</ele>
        <time>2021-03-20T16:25:55Z</time>
      </trkpt>
      <trkpt lat="55.10713" lon="-2.93535">
        <ele>129</ele>
        <time>2021-03-20T16:25:58Z</time>
      </trkpt>
      <trkpt lat="55.10679" lon="-2.93611">
        <ele>127.1</ele>
        <time>2021-03-20T16:26:01Z</time>
      </trkpt>
      <trkpt lat="55.10654" lon="-2.93728">
        <ele>120.33</ele>
        <time>2021-03-20T16:26:04Z</time>
      </trkpt>
      <trkpt lat="55.10581" lon="-2.9395">
        <ele>110.99</ele>
        <time>2021-03-20T16:26:07Z</time>
      </trkpt>
      <trkpt lat="55.1056" lon="-2.94034">
        <ele>108.77</ele>
        <time>2021-03-20T16:26:10Z</time>
      </trkpt>
      <trkpt lat="55.10519" lon="-2.94163">
        <ele>99.27</ele>
        <time>2021-03-20T16:26:13Z</time>
      </trkpt>
      <trkpt lat="55.10502" lon="-2.94317">
        <ele>88.08</ele>
        <time>2021-03-20T16:26:17Z</time>
      </trkpt>
      <trkpt lat="55.10502" lon="-2.94429">
        <ele>87.08</ele>
        <time>2021-03-20T16:26:20Z</time>
      </trkpt>
      <trkpt lat="55.10497" lon="-2.94456">
        <ele>86.48</ele>
        <time>2021-03-20T16:26:23Z</time>
      </trkpt>
      <trkpt lat="55.10485" lon="-2.94479">
        <ele>85.22</ele>
        <time>2021-03-20T16:26:26Z</time>
      </trkpt>
      <trkpt lat="55.10374" lon="-2.94589">
        <ele>87.67</ele>
        <time>2021-03-20T16:26:29Z</time>
      </trkpt>
      <trkpt lat="55.10352" lon="-2.94619">
        <ele>88.6</ele>
        <time>2021-03-20T16:26:32Z</time>
      </trkpt>
      <trkpt lat="55.10331" lon="-2.94666">
        <ele>91.14</ele>
        <time>2021-03-20T16:26:35Z</time>
      </trkpt>
      <trkpt lat="55.10324" lon="-2.94701">
        <ele>93.38</ele>
        <time>2021-03-20T16:26:38Z</time>
      </trkpt>
      <trkpt lat="55.10318" lon="-2.94776">
        <ele>98.13</ele>
        <time>2021-03-20T16:26:41Z</time>
      </trkpt>
      <trkpt lat="55.10311" lon="-2.94828">
        <ele>99.57</ele>
        <time>2021-03-20T16:26:45Z</time>
      </trkpt>
      <trkpt lat="55.10283" lon="-2.94926">
        <ele>104.39</ele>
        <time>2021-03-20T16:26:48Z</time>
      </trkpt>
      <trkpt lat="55.10224" lon="-2.94891">
        <ele>103</ele>
        <time>2021-03-20T16:26:54Z</time>
      </trkpt>
      <trkpt lat="55.10166" lon="-2.94857">
        <ele>100.96</ele>
        <time>2021-03-20T16:27:00Z</time>
      </trkpt>
      <trkpt lat="55.10054" lon="-2.94779">
        <ele>95</ele>
        <time>2021-03-20T16:27:06Z</time>
      </trkpt>
      <trkpt lat="55.09782" lon="-2.95171">
        <ele>92.01</ele>
        <time>2021-03-20T16:27:09Z</time>
      </trkpt>
      <trkpt lat="55.09645" lon="-2.95353">
        <ele>87.66</ele>
        <time>2021-03-20T16:27:13Z</time>
      </trkpt>
      <trkpt lat="55.09564" lon="-2.95477">
        <ele>85.57</ele>
        <time>2021-03-20T16:27:16Z</time>
      </trkpt>
      <trkpt lat="55.09543" lon="-2.95501">
        <ele>84.48</ele>
        <time>2021-03-20T16:27:20Z</time>
      </trkpt>
      <trkpt lat="55.0951" lon="-2.95528">
        <ele>80.04</ele>
        <time>2021-03-20T16:27:23Z</time>
      </trkpt>
      <trkpt lat="55.09492" lon="-2.95556">
        <ele>78.72</ele>
        <time>2021-03-20T16:27:27Z</time>
      </trkpt>
      <trkpt lat="55.09476" lon="-2.95605">
        <ele>79.66</ele>
        <time>2021-03-20T16:27:30Z</time>
      </trkpt>
      <trkpt lat="55.09469" lon="-2.95661">
        <ele>81.27</ele>
        <time>2021-03-20T16:27:34Z</time>
      </trkpt>
      <trkpt lat="55.09469" lon="-2.95739">
        <ele>80.11</ele>
        <time>2021-03-20T16:27:37Z</time>
      </trkpt>
      <trkpt lat="55.09465" lon="-2.9579">
        <ele>79.14</ele>
        <time>2021-03-20T16:27:41Z</time>
      </trkpt>
      <trkpt lat="55.09446" lon="-2.95903">
        <ele>72.49</ele>
        <time>2021-03-20T16:27:44Z</time>
      </trkpt>
      <trkpt lat="55.0944" lon="-2.95953">
        <ele>66.82</ele>
        <time>2021-03-20T16:27:48Z</time>
      </trkpt>
      <trkpt lat="55.09441" lon="-2.96004">
        <ele>61.63</ele>
        <time>2021-03-20T16:27:51Z</time>
      </trkpt>
      <trkpt lat="55.09445" lon="-2.96098">
        <ele>58.57</ele>
        <time>2021-03-20T16:27:55Z</time>
      </trkpt>
      <trkpt lat="55.09444" lon="-2.96135">
        <ele>57.96</ele>
        <time>2021-03-20T16:27:58Z</time>
      </trkpt>
      <trkpt lat="55.0944" lon="-2.96175">
        <ele>56.65</ele>
        <time>2021-03-20T16:28:02Z</time>
      </trkpt>
      <trkpt lat="55.09444" lon="-2.96275">
        <ele>52.06</ele>
        <time>2021-03-20T16:28:05Z</time>
      </trkpt>
      <trkpt lat="55.09439" lon="-2.96314">
        <ele>49.76</ele>
        <time>2021-03-20T16:28:09Z</time>
      </trkpt>
      <trkpt lat="55.09409" lon="-2.96429">
        <ele>48.56</ele>
        <time>2021-03-20T16:28:12Z</time>
      </trkpt>
      <trkpt lat="55.094" lon="-2.96492">
        <ele>50.88</ele>
        <time>2021-03-20T16:28:16Z</time>
      </trkpt>
      <trkpt lat="55.09392" lon="-2.96516">
        <ele>51.57</ele>
        <time>2021-03-20T16:28:19Z</time>
      </trkpt>
      <trkpt lat="55.09385" lon="-2.96532">
        <ele>52.15</ele>
        <time>2021-03-20T16:28:23Z</time>
      </trkpt>
      <trkpt lat="55.09371" lon="-2.96553">
        <ele>52.65</ele>
        <time>2021-03-20T16:28:26Z</time>
      </trkpt>
      <trkpt lat="55.09339" lon="-2.96588">
        <ele>56.77</ele>
        <time>2021-03-20T16:28:30Z</time>
      </trkpt>
      <trkpt lat="55.09303" lon="-2.9664">
        <ele>61.03</ele>
        <time>2021-03-20T16:28:33Z</time>
      </trkpt>
      <trkpt lat="55.09286" lon="-2.96668">
        <ele>62.06</ele>
        <time>2021-03-20T16:28:37Z</time>
      </trkpt>
      <trkpt lat="55.09268" lon="-2.9671">
        <ele>62.84</ele>
        <time>2021-03-20T16:28:40Z</time>
      </trkpt>
      <trkpt lat="55.09253" lon="-2.96756">
        <ele>65.2</ele>
        <time>2021-03-20T16:28:44Z</time>
      </trkpt>
      <trkpt lat="55.09289" lon="-2.968">
        <ele>66.7</ele>
        <time>2021-03-20T16:28:46Z</time>
      </trkpt>
      <trkpt lat="55.09276" lon="-2.96833">
        <ele>67.99</ele>
        <time>2021-03-20T16:28:51Z</time>
      </trkpt>
      <trkpt lat="55.0924" lon="-2.96867">
        <ele>70.68</ele>
        <time>2021-03-20T16:28:56Z</time>
      </trkpt>
      <trkpt lat="55.09216" lon="-2.96908">
        <ele>71.68</ele>
        <time>2021-03-20T16:29:01Z</time>
      </trkpt>
      <trkpt lat="55.09205" lon="-2.96938">
        <ele>71.89</ele>
        <time>2021-03-20T16:29:05Z</time>
      </trkpt>
      <trkpt lat="55.09169" lon="-2.97161">
        <ele>78.87</ele>
        <time>2021-03-20T16:29:10Z</time>
      </trkpt>
      <trkpt lat="55.09157" lon="-2.97198">
        <ele>78.31</ele>
        <time>2021-03-20T16:29:15Z</time>
      </trkpt>
      <trkpt lat="55.09143" lon="-2.97223">
        <ele>78.2</ele>
        <time>2021-03-20T16:29:20Z</time>
      </trkpt>
      <trkpt lat="55.09119" lon="-2.97241">
        <ele>79.15</ele>
        <time>2021-03-20T16:29:25Z</time>
      </trkpt>
      <trkpt lat="55.09014" lon="-2.97286">
        <ele>81.79</ele>
        <time>2021-03-20T16:29:29Z</time>
      </trkpt>
      <trkpt lat="55.08852" lon="-2.97424">
        <ele>93.94</ele>
        <time>2021-03-20T16:29:34Z</time>
      </trkpt>
      <trkpt lat="55.08732" lon="-2.97521">
        <ele>98.12</ele>
        <time>2021-03-20T16:29:39Z</time>
      </trkpt>
      <trkpt lat="55.08708" lon="-2.97552">
        <ele>98.42</ele>
        <time>2021-03-20T16:29:44Z</time>
      </trkpt>
      <trkpt lat="55.08676" lon="-2.976">
        <ele>98</ele>
        <time>2021-03-20T16:29:49Z</time>
      </trkpt>
      <trkpt lat="55.08458" lon="-2.97979">
        <ele>100</ele>
        <time>2021-03-20T16:29:53Z</time>
      </trkpt>
      <trkpt lat="55.08441" lon="-2.98031">
        <ele>99.88</ele>
        <time>2021-03-20T16:29:58Z</time>
      </trkpt>
      <trkpt lat="55.08353" lon="-2.98451">
        <ele>100.22</ele>
        <time>2021-03-20T16:30:03Z</time>
      </trkpt>
      <trkpt lat="55.08323" lon="-2.98607">
        <ele>100.63</ele>
        <time>2021-03-20T16:30:08Z</time>
      </trkpt>
      <trkpt lat="55.08344" lon="-2.98765">
        <ele>101.56</ele>
        <time>2021-03-20T16:30:22Z</time>
      </trkpt>
      <trkpt lat="55.08363" lon="-2.98876">
        <ele>100</ele>
        <time>2021-03-20T16:30:36Z</time>
      </trkpt>
      <trkpt lat="55.08421" lon="-2.99">
        <ele>97</ele>
        <time>2021-03-20T16:30:50Z</time>
      </trkpt>
      <trkpt lat="55.08484" lon="-2.99114">
        <ele>95.22</ele>
        <time>2021-03-20T16:31:04Z</time>
      </trkpt>
      <trkpt lat="55.08503" lon="-2.99154">
        <ele>94.79</ele>
        <time>2021-03-20T16:31:18Z</time>
      </trkpt>
      <trkpt lat="55.08589" lon="-2.99392">
        <ele>93.31</ele>
        <time>2021-03-20T16:31:32Z</time>
      </trkpt>
      <trkpt lat="55.0872" lon="-2.99656">
        <ele>99.5</ele>
        <time>2021-03-20T16:31:46Z</time>
      </trkpt>
      <trkpt lat="55.08926" lon="-3.00187">
        <ele>120.17</ele>
        <time>2021-03-20T16:32:00Z</time>
      </trkpt>
      <trkpt lat="55.09185" lon="-3.01679">
        <ele>114.65</ele>
        <time>2021-03-20T16:32:14Z</time>
      </trkpt>
      <trkpt lat="55.09169" lon="-3.0191">
        <ele>116</ele>
        <time>2021-03-20T16:32:28Z</time>
      </trkpt>
      <trkpt lat="55.09397" lon="-3.01997">
        <ele>125.29</ele>
        <time>2021-03-20T16:32:35Z</time>
      </trkpt>
      <trkpt lat="55.09462" lon="-3.02044">
        <ele>127.26</ele>
        <time>2021-03-20T16:32:43Z</time>
      </trkpt>
      <trkpt lat="55.09542" lon="-3.02126">
        <ele>124.74</ele>
        <time>2021-03-20T16:32:51Z</time>
      </trkpt>
      <trkpt lat="55.09588" lon="-3.0219">
        <ele>121.84</ele>
        <time>2021-03-20T16:32:59Z</time>
      </trkpt>
      <trkpt lat="55.09661" lon="-3.0236">
        <ele>121.93</ele>
        <time>2021-03-20T16:33:07Z</time>
      </trkpt>
      <trkpt lat="55.09743" lon="-3.02531">
        <ele>132.63</ele>
        <time>2021-03-20T16:33:15Z</time>
      </trkpt>
      <trkpt lat="55.09828" lon="-3.02654">
        <ele>133.06</ele>
        <time>2021-03-20T16:33:22Z</time>
      </trkpt>
      <trkpt lat="55.09951" lon="-3.02793">
        <ele>130.55</ele>
        <time>2021-03-20T16:33:30Z</time>
      </trkpt>
      <trkpt lat="55.10546" lon="-3.03598">
        <ele>155.32</ele>
        <time>2021-03-20T16:33:38Z</time>
      </trkpt>
      <trkpt lat="55.10588" lon="-3.037">
        <ele>157.93</ele>
        <time>2021-03-20T16:33:46Z</time>
      </trkpt>
      <trkpt lat="55.10741" lon="-3.04129">
        <ele>170.09</ele>
        <time>2021-03-20T16:33:54Z</time>
      </trkpt>
      <trkpt lat="55.10788" lon="-3.04239">
        <ele>171.85</ele>
        <time>2021-03-20T16:34:02Z</time>
      </trkpt>
      <trkpt lat="55.10886" lon="-3.04372">
        <ele>172.51</ele>
        <time>2021-03-20T16:34:09Z</time>
      </trkpt>
      <trkpt lat="55.11036" lon="-3.04902">
        <ele>170.44</ele>
        <time>2021-03-20T16:34:17Z</time>
      </trkpt>
      <trkpt lat="55.11056" lon="-3.0495">
        <ele>170.61</ele>
        <time>2021-03-20T16:34:25Z</time>
      </trkpt>
      <trkpt lat="55.11078" lon="-3.04967">
        <ele>169.4</ele>
        <time>2021-03-20T16:34:33Z</time>
      </trkpt>
      <trkpt lat="55.11183" lon="-3.05001">
        <ele>167.34</ele>
        <time>2021-03-20T16:34:41Z</time>
      </trkpt>
      <trkpt lat="55.11206" lon="-3.05011">
        <ele>166.18</ele>
        <time>2021-03-20T16:34:49Z</time>
      </trkpt>
      <trkpt lat="55.11238" lon="-3.04991">
        <ele>166.47</ele>
        <time>2021-03-20T16:34:56Z</time>
      </trkpt>
      <trkpt lat="55.1126" lon="-3.04999">
        <ele>165.42</ele>
        <time>2021-03-20T16:35:04Z</time>
      </trkpt>
      <trkpt lat="55.11274" lon="-3.05033">
        <ele>164.67</ele>
        <time>2021-03-20T16:35:12Z</time>
      </trkpt>
      <trkpt lat="55.11294" lon="-3.05159">
        <ele>166.13</ele>
        <time>2021-03-20T16:35:20Z</time>
      </trkpt>
      <trkpt lat="55.11309" lon="-3.05188">
        <ele>166.3</ele>
        <time>2021-03-20T16:35:28Z</time>
      </trkpt>
      <trkpt lat="55.11431" lon="-3.05252">
        <ele>168.03</ele>
        <time>2021-03-20T16:35:36Z</time>
      </trkpt>
      <trkpt lat="55.11545" lon="-3.05247">
        <ele>168.81</ele>
        <time>2021-03-20T16:35:44Z</time>
      </trkpt>
      <trkpt lat="55.11702" lon="-3.05276">
        <ele>165.41</ele>
        <time>2021-03-20T16:35:51Z</time>
      </trkpt>
      <trkpt lat="55.11771" lon="-3.05316">
        <ele>160.98</ele>
        <time>2021-03-20T16:35:59Z</time>
      </trkpt>
      <trkpt lat="55.11816" lon="-3.05321">
        <ele>159.18</ele>
        <time>2021-03-20T16:36:07Z</time>
      </trkpt>
      <trkpt lat="55.12079" lon="-3.05481">
        <ele>155.9</ele>
        <time>2021-03-20T16:36:15Z</time>
      </trkpt>
      <trkpt lat="55.1214" lon="-3.05587">
        <ele>152.7</ele>
        <time>2021-03-20T16:36:23Z</time>
      </trkpt>
      <trkpt lat="55.12381" lon="-3.05912">
        <ele>143.45</ele>
        <time>2021-03-20T16:36:31Z</time>
      </trkpt>
      <trkpt lat="55.12389" lon="-3.05948">
        <ele>141.76</ele>
        <time>2021-03-20T16:36:38Z</time>
      </trkpt>
      <trkpt lat="55.12389" lon="-3.05986">
        <ele>139.46</ele>
        <time>2021-03-20T16:36:46Z</time>
      </trkpt>
      <trkpt lat="55.12379" lon="-3.06033">
        <ele>137.55</ele>
        <time>2021-03-20T16:36:54Z</time>
      </trkpt>
      <trkpt lat="55.12385" lon="-3.06085">
        <ele>136.29</ele>
        <time>2021-03-20T16:37:02Z</time>
      </trkpt>
      <trkpt lat="55.124" lon="-3.06106">
        <ele>135.21</ele>
        <time>2021-03-20T16:37:10Z</time>
      </trkpt>
      <trkpt lat="55.1234" lon="-3.06319">
        <ele>140.15</ele>
        <time>2021-03-20T16:37:16Z</time>
      </trkpt>
      <trkpt lat="55.123" lon="-3.06418">
        <ele>143.56</ele>
        <time>2021-03-20T16:37:22Z</time>
      </trkpt>
      <trkpt lat="55.11933" lon="-3.07079">
        <ele>155.48</ele>
        <time>2021-03-20T16:37:28Z</time>
      </trkpt>
      <trkpt lat="55.11924" lon="-3.07121">
        <ele>154.47</ele>
        <time>2021-03-20T16:37:34Z</time>
      </trkpt>
      <trkpt lat="55.11931" lon="-3.07299">
        <ele>151.09</ele>
        <time>2021-03-20T16:37:40Z</time>
      </trkpt>
      <trkpt lat="55.1191" lon="-3.07477">
        <ele>151.71</ele>
        <time>2021-03-20T16:37:46Z</time>
      </trkpt>
      <trkpt lat="55.11915" lon="-3.07531">
        <ele>150.09</ele>
        <time>2021-03-20T16:37:52Z</time>
      </trkpt>
      <trkpt lat="55.12053" lon="-3.08204">
        <ele>155.92</ele>
        <time>2021-03-20T16:37:58Z</time>
      </trkpt>
      <trkpt lat="55.12103" lon="-3.08341">
        <ele>158.16</ele>
        <time>2021-03-20T16:38:04Z</time>
      </trkpt>
      <trkpt lat="55.12107" lon="-3.08384">
        <ele>158.82</ele>
        <time>2021-03-20T16:38:10Z</time>
      </trkpt>
      <trkpt lat="55.1211" lon="-3.08522">
        <ele>166.03</ele>
        <time>2021-03-20T16:38:16Z</time>
      </trkpt>
      <trkpt lat="55.12121" lon="-3.08589">
        <ele>167.46</ele>
        <time>2021-03-20T16:38:22Z</time>
      </trkpt>
      <trkpt lat="55.12153" lon="-3.08723">
        <ele>165.53</ele>
        <time>2021-03-20T16:38:28Z</time>
      </trkpt>
      <trkpt lat="55.12183" lon="-3.08794">
        <ele>164.35</ele>
        <time>2021-03-20T16:38:34Z</time>
      </trkpt>
      <trkpt lat="55.1225" lon="-3.08896">
        <ele>160.04</ele>
        <time>2021-03-20T16:38:40Z</time>
      </trkpt>
      <trkpt lat="55.12308" lon="-3.08966">
        <ele>162.1</ele>
        <time>2021-03-20T16:38:46Z</time>
      </trkpt>
      <trkpt lat="55.12326" lon="-3.09006">
        <ele>162.94</ele>
        <time>2021-03-20T16:38:52Z</time>
      </trkpt>
      <trkpt lat="55.12333" lon="-3.09054">
        <ele>164</ele>
        <time>2021-03-20T16:38:58Z</time>
      </trkpt>
      <trkpt lat="55.12326" lon="-3.1006">
        <ele>188.84</ele>
        <time>2021-03-20T16:39:04Z</time>
      </trkpt>
      <trkpt lat="55.12231" lon="-3.10428">
        <ele>198.39</ele>
        <time>2021-03-20T16:39:10Z</time>
      </trkpt>
      <trkpt lat="55.12227" lon="-3.1047">
        <ele>199.45</ele>
        <time>2021-03-20T16:39:16Z</time>
      </trkpt>
      <trkpt lat="55.1223" lon="-3.1053">
        <ele>199.37</ele>
        <time>2021-03-20T16:39:22Z</time>
      </trkpt>
      <trkpt lat="55.12241" lon="-3.10565">
        <ele>201.48</ele>
        <time>2021-03-20T16:39:28Z</time>
      </trkpt>
      <trkpt lat="55.12273" lon="-3.10632">
        <ele>207.78</ele>
        <time>2021-03-20T16:39:34Z</time>
      </trkpt>
      <trkpt lat="55.12285" lon="-3.10687">
        <ele>209.89</ele>
        <time>2021-03-20T16:39:40Z</time>
      </trkpt>
      <trkpt lat="55.12292" lon="-3.10723">
        <ele>209.99</ele>
        <time>2021-03-20T16:39:46Z</time>
      </trkpt>
      <trkpt lat="55.12301" lon="-3.10758">
        <ele>210.66</ele>
        <time>2021-03-20T16:39:52Z</time>
      </trkpt>
      <trkpt lat="55.12334" lon="-3.10842">
        <ele>214.86</ele>
        <time>2021-03-20T16:39:58Z</time>
      </trkpt>
      <trkpt lat="55.1234" lon="-3.10863">
        <ele>215.48</ele>
        <time>2021-03-20T16:40:04Z</time>
      </trkpt>
      <trkpt lat="55.12418" lon="-3.11286">
        <ele>223.34</ele>
        <time>2021-03-20T16:40:11Z</time>
      </trkpt>
      <trkpt lat="55.12415" lon="-3.11338">
        <ele>224.07</ele>
        <time>2021-03-20T16:40:17Z</time>
      </trkpt>
      <trkpt lat="55.12376" lon="-3.11557">
        <ele>227.55</ele>
        <time>2021-03-20T16:40:23Z</time>
      </trkpt>
      <trkpt lat="55.12275" lon="-3.12312">
        <ele>228.54</ele>
        <time>2021-03-20T16:40:29Z</time>
      </trkpt>
      <trkpt lat="55.12259" lon="-3.12392">
        <ele>225.45</ele>
        <time>2021-03-20T16:40:35Z</time>
      </trkpt>
      <trkpt lat="55.12107" lon="-3.12902">
        <ele>218.75</ele>
        <time>2021-03-20T16:40:41Z</time>
      </trkpt>
      <trkpt lat="55.11886" lon="-3.13861">
        <ele>194.92</ele>
        <time>2021-03-20T16:40:47Z</time>
      </trkpt>
      <trkpt lat="55.11872" lon="-3.1399">
        <ele>192</ele>
        <time>2021-03-20T16:40:53Z</time>
      </trkpt>
      <trkpt lat="55.11877" lon="-3.14307">
        <ele>177.48</ele>
        <time>2021-03-20T16:40:59Z</time>
      </trkpt>
      <trkpt lat="55.11866" lon="-3.1436">
        <ele>173.44</ele>
        <time>2021-03-20T16:41:05Z</time>
      </trkpt>
      <trkpt lat="55.1173" lon="-3.14638">
        <ele>161.51</ele>
        <time>2021-03-20T16:41:11Z</time>
      </trkpt>
      <trkpt lat="55.11706" lon="-3.1466">
        <ele>160.49</ele>
        <time>2021-03-20T16:41:17Z</time>
      </trkpt>
      <trkpt lat="55.1167" lon="-3.1467">
        <ele>159.88</ele>
        <time>2021-03-20T16:41:23Z</time>
      </trkpt>
      <trkpt lat="55.11568" lon="-3.14707">
        <ele>152.98</ele>
        <time>2021-03-20T16:41:29Z</time>
      </trkpt>
      <trkpt lat="55.11531" lon="-3.14736">
        <ele>149.09</ele>
        <time>2021-03-20T16:41:35Z</time>
      </trkpt>
      <trkpt lat="55.11481" lon="-3.14791">
        <ele>146.36</ele>
        <time>2021-03-20T16:41:41Z</time>
      </trkpt>
      <trkpt lat="55.11454" lon="-3.14826">
        <ele>145.26</ele>
        <time>2021-03-20T16:41:47Z</time>
      </trkpt>
      <trkpt lat="55.11434" lon="-3.14865">
        <ele>143.53</ele>
        <time>2021-03-20T16:41:53Z</time>
      </trkpt>
      <trkpt lat="55.11429" lon="-3.14893">
        <ele>143</ele>
        <time>2021-03-20T16:41:59Z</time>
      </trkpt>
      <trkpt lat="55.11424" lon="-3.1493">
        <ele>143</ele>
        <time>2021-03-20T16:42:05Z</time>
      </trkpt>
      <trkpt lat="55.11398" lon="-3.15074">
        <ele>149.74</ele>
        <time>2021-03-20T16:42:11Z</time>
      </trkpt>
      <trkpt lat="55.11391" lon="-3.15157">
        <ele>152.15</ele>
        <time>2021-03-20T16:42:17Z</time>
      </trkpt>
      <trkpt lat="55.11381" lon="-3.15296">
        <ele>157.43</ele>
        <time>2021-03-20T16:42:23Z</time>
      </trkpt>
      <trkpt lat="55.11372" lon="-3.15463">
        <ele>161.37</ele>
        <time>2021-03-20T16:42:29Z</time>
      </trkpt>
      <trkpt lat="55.11368" lon="-3.15573">
        <ele>162.1</ele>
        <time>2021-03-20T16:42:35Z</time>
      </trkpt>
      <trkpt lat="55.1137" lon="-3.1567">
        <ele>164.72</ele>
        <time>2021-03-20T16:42:41Z</time>
      </trkpt>
      <trkpt lat="55.11375" lon="-3.15784">
        <ele>167.62</ele>
        <time>2021-03-20T16:42:47Z</time>
      </trkpt>
      <trkpt lat="55.11385" lon="-3.15876">
        <ele>168.73</ele>
        <time>2021-03-20T16:42:53Z</time>
      </trkpt>
      <trkpt lat="55.11405" lon="-3.15949">
        <ele>168.3</ele>
        <time>2021-03-20T16:42:59Z</time>
      </trkpt>
      <trkpt lat="55.11428" lon="-3.16008">
        <ele>167.34</ele>
        <time>2021-03-20T16:43:05Z</time>
      </trkpt>
      <trkpt lat="55.1149" lon="-3.16135">
        <ele>165.77</ele>
        <time>2021-03-20T16:43:11Z</time>
      </trkpt>
      <trkpt lat="55.11625" lon="-3.16393">
        <ele>166.28</ele>
        <time>2021-03-20T16:43:17Z</time>
      </trkpt>
      <trkpt lat="55.11703" lon="-3.16551">
        <ele>166.91</ele>
        <time>2021-03-20T16:43:23Z</time>
      </trkpt>
      <trkpt lat="55.11803" lon="-3.16812">
        <ele>178.59</ele>
        <time>2021-03-20T16:43:29Z</time>
      </trkpt>
      <trkpt lat="55.11957" lon="-3.16842">
        <ele>175.63</ele>
        <time>2021-03-20T16:43:33Z</time>
      </trkpt>
      <trkpt lat="55.11997" lon="-3.16867">
        <ele>172.91</ele>
        <time>2021-03-20T16:43:37Z</time>
      </trkpt>
      <trkpt lat="55.1204" lon="-3.16887">
        <ele>173.53</ele>
        <time>2021-03-20T16:43:42Z</time>
      </trkpt>
      <trkpt lat="55.1207" lon="-3.16908">
        <ele>172.59</ele>
        <time>2021-03-20T16:43:46Z</time>
      </trkpt>
      <trkpt lat="55.12142" lon="-3.17005">
        <ele>166.93</ele>
        <time>2021-03-20T16:43:50Z</time>
      </trkpt>
      <trkpt lat="55.1224" lon="-3.17198">
        <ele>160.56</ele>
        <time>2021-03-20T16:43:54Z</time>
      </trkpt>
      <trkpt lat="55.12293" lon="-3.17273">
        <ele>157.49</ele>
        <time>2021-03-20T16:43:58Z</time>
      </trkpt>
      <trkpt lat="55.12309" lon="-3.17287">
        <ele>155.64</ele>
        <time>2021-03-20T16:44:02Z</time>
      </trkpt>
      <trkpt lat="55.12381" lon="-3.17301">
        <ele>157.04</ele>
        <time>2021-03-20T16:44:06Z</time>
      </trkpt>
      <trkpt lat="55.12409" lon="-3.17311">
        <ele>157.5</ele>
        <time>2021-03-20T16:44:10Z</time>
      </trkpt>
      <trkpt lat="55.12456" lon="-3.17314">
        <ele>157.4</ele>
        <time>2021-03-20T16:44:14Z</time>
      </trkpt>
      <trkpt lat="55.12532" lon="-3.17302">
        <ele>156.23</ele>
        <time>2021-03-20T16:44:18Z</time>
      </trkpt>
      <trkpt lat="55.12576" lon="-3.17305">
        <ele>157.52</ele>
        <time>2021-03-20T16:44:23Z</time>
      </trkpt>
      <trkpt lat="55.12628" lon="-3.17313">
        <ele>158.95</ele>
        <time>2021-03-20T16:44:27Z</time>
      </trkpt>
      <trkpt lat="55.12791" lon="-3.173">
        <ele>165.18</ele>
        <time>2021-03-20T16:44:31Z</time>
      </trkpt>
      <trkpt lat="55.12837" lon="-3.17293">
        <ele>165.96</ele>
        <time>2021-03-20T16:44:35Z</time>
      </trkpt>
      <trkpt lat="55.1288" lon="-3.17302">
        <ele>167.09</ele>
        <time>2021-03-20T16:44:39Z</time>
      </trkpt>
      <trkpt lat="55.12922" lon="-3.17332">
        <ele>165.97</ele>
        <time>2021-03-20T16:44:43Z</time>
      </trkpt>
      <trkpt lat="55.13006" lon="-3.17423">
        <ele>166.38</ele>
        <time>2021-03-20T16:44:47Z</time>
      </trkpt>
      <trkpt lat="55.13018" lon="-3.17444">
        <ele>165.72</ele>
        <time>2021-03-20T16:44:51Z</time>
      </trkpt>
      <trkpt lat="55.1303" lon="-3.1748">
        <ele>166.1</ele>
        <time>2021-03-20T16:44:55Z</time>
      </trkpt>
      <trkpt lat="55.13068" lon="-3.17764">
        <ele>168.07</ele>
        <time>2021-03-20T16:44:59Z</time>
      </trkpt>
      <trkpt lat="55.13087" lon="-3.17832">
        <ele>168.84</ele>
        <time>2021-03-20T16:45:03Z</time>
      </trkpt>
      <trkpt lat="55.1311" lon="-3.17886">
        <ele>166.24</ele>
        <time>2021-03-20T16:45:08Z</time>
      </trkpt>
      <trkpt lat="55.13128" lon="-3.1794">
        <ele>164.86</ele>
        <time>2021-03-20T16:45:12Z</time>
      </trkpt>
      <trkpt lat="55.1313" lon="-3.17964">
        <ele>164.02</ele>
        <time>2021-03-20T16:45:16Z</time>
      </trkpt>
      <trkpt lat="55.13126" lon="-3.18004">
        <ele>162.62</ele>
        <time>2021-03-20T16:45:20Z</time>
      </trkpt>
      <trkpt lat="55.13128" lon="-3.18093">
        <ele>162.6</ele>
        <time>2021-03-20T16:45:24Z</time>
      </trkpt>
      <trkpt lat="55.13141" lon="-3.18286">
        <ele>166.42</ele>
        <time>2021-03-20T16:45:28Z</time>
      </trkpt>
      <trkpt lat="55.13162" lon="-3.18368">
        <ele>168.73</ele>
        <time>2021-03-20T16:45:32Z</time>
      </trkpt>
      <trkpt lat="55.13237" lon="-3.18604">
        <ele>163.18</ele>
        <time>2021-03-20T16:45:36Z</time>
      </trkpt>
      <trkpt lat="55.13284" lon="-3.18729">
        <ele>163.38</ele>
        <time>2021-03-20T16:45:40Z</time>
      </trkpt>
      <trkpt lat="55.13376" lon="-3.19059">
        <ele>164.18</ele>
        <time>2021-03-20T16:45:44Z</time>
      </trkpt>
      <trkpt lat="55.13426" lon="-3.19223">
        <ele>165.36</ele>
        <time>2021-03-20T16:45:48Z</time>
      </trkpt>
      <trkpt lat="55.13462" lon="-3.19323">
        <ele>166.12</ele>
        <time>2021-03-20T16:45:53Z</time>
      </trkpt>
      <trkpt lat="55.13541" lon="-3.19578">
        <ele>169.32</ele>
        <time>2021-03-20T16:45:57Z</time>
      </trkpt>
      <trkpt lat="55.13581" lon="-3.19727">
        <ele>169.98</ele>
        <time>2021-03-20T16:46:01Z</time>
      </trkpt>
      <trkpt lat="55.13656" lon="-3.20036">
        <ele>168.93</ele>
        <time>2021-03-20T16:46:05Z</time>
      </trkpt>
      <trkpt lat="55.13694" lon="-3.20223">
        <ele>160.98</ele>
        <time>2021-03-20T16:46:09Z</time>
      </trkpt>
      <trkpt lat="55.137" lon="-3.20297">
        <ele>157.93</ele>
        <time>2021-03-20T16:46:13Z</time>
      </trkpt>
      <trkpt lat="55.13708" lon="-3.20329">
        <ele>156.58</ele>
        <time>2021-03-20T16:46:17Z</time>
      </trkpt>
      <trkpt lat="55.1377" lon="-3.20497">
        <ele>153.28</ele>
        <time>2021-03-20T16:46:21Z</time>
      </trkpt>
      <trkpt lat="55.13798" lon="-3.2058">
        <ele>151.28</ele>
        <time>2021-03-20T16:46:25Z</time>
      </trkpt>
      <trkpt lat="55.13809" lon="-3.20642">
        <ele>151.73</ele>
        <time>2021-03-20T16:46:29Z</time>
      </trkpt>
      <trkpt lat="55.13819" lon="-3.20682">
        <ele>151.56</ele>
        <time>2021-03-20T16:46:33Z</time>
      </trkpt>
      <trkpt lat="55.1388" lon="-3.20906">
        <ele>158.85</ele>
        <time>2021-03-20T16:46:38Z</time>
      </trkpt>
      <trkpt lat="55.1388" lon="-3.20965">
        <ele>160.03</ele>
        <time>2021-03-20T16:46:42Z</time>
      </trkpt>
      <trkpt lat="55.13926" lon="-3.20989">
        <ele>156.35</ele>
        <time>2021-03-20T16:46:47Z</time>
      </trkpt>
      <trkpt lat="55.13936" lon="-3.21014">
        <ele>157.19</ele>
        <time>2021-03-20T16:46:52Z</time>
      </trkpt>
      <trkpt lat="55.13927" lon="-3.21263">
        <ele>167.59</ele>
        <time>2021-03-20T16:46:56Z</time>
      </trkpt>
      <trkpt lat="55.13937" lon="-3.21447">
        <ele>169.99</ele>
        <time>2021-03-20T16:47:01Z</time>
      </trkpt>
      <trkpt lat="55.13966" lon="-3.21647">
        <ele>174.88</ele>
        <time>2021-03-20T16:47:06Z</time>
      </trkpt>
      <trkpt lat="55.14049" lon="-3.22018">
        <ele>174.19</ele>
        <time>2021-03-20T16:47:11Z</time>
      </trkpt>
      <trkpt lat="55.14145" lon="-3.22348">
        <ele>159.54</ele>
        <time>2021-03-20T16:47:16Z</time>
      </trkpt>
      <trkpt lat="55.14153" lon="-3.22369">
        <ele>157.48</ele>
        <time>2021-03-20T16:47:21Z</time>
      </trkpt>
      <trkpt lat="55.14166" lon="-3.22392">
        <ele>155.67</ele>
        <time>2021-03-20T16:47:26Z</time>
      </trkpt>
      <trkpt lat="55.14194" lon="-3.22416">
        <ele>154.03</ele>
        <time>2021-03-20T16:47:31Z</time>
      </trkpt>
      <trkpt lat="55.14206" lon="-3.22431">
        <ele>152.82</ele>
        <time>2021-03-20T16:47:36Z</time>
      </trkpt>
      <trkpt lat="55.14223" lon="-3.22467">
        <ele>150.41</ele>
        <time>2021-03-20T16:47:41Z</time>
      </trkpt>
      <trkpt lat="55.14235" lon="-3.22511">
        <ele>149.79</ele>
        <time>2021-03-20T16:47:45Z</time>
      </trkpt>
      <trkpt lat="55.14246" lon="-3.22541">
        <ele>151.55</ele>
        <time>2021-03-20T16:47:50Z</time>
      </trkpt>
      <trkpt lat="55.14257" lon="-3.22563">
        <ele>152.28</ele>
        <time>2021-03-20T16:47:55Z</time>
      </trkpt>
      <trkpt lat="55.14282" lon="-3.22595">
        <ele>154.24</ele>
        <time>2021-03-20T16:48:00Z</time>
      </trkpt>
      <trkpt lat="55.14297" lon="-3.22607">
        <ele>154.99</ele>
        <time>2021-03-20T16:48:05Z</time>
      </trkpt>
      <trkpt lat="55.14327" lon="-3.22624">
        <ele>155.62</ele>
        <time>2021-03-20T16:48:10Z</time>
      </trkpt>
      <trkpt lat="55.14356" lon="-3.22637">
        <ele>156.83</ele>
        <time>2021-03-20T16:48:15Z</time>
      </trkpt>
      <trkpt lat="55.14388" lon="-3.22647">
        <ele>158.59</ele>
        <time>2021-03-20T16:48:20Z</time>
      </trkpt>
      <trkpt lat="55.14407" lon="-3.22647">
        <ele>158.82</ele>
        <time>2021-03-20T16:48:25Z</time>
      </trkpt>
      <trkpt lat="55.14484" lon="-3.22688">
        <ele>164.04</ele>
        <time>2021-03-20T16:48:30Z</time>
      </trkpt>
      <trkpt lat="55.1453" lon="-3.22697">
        <ele>163.57</ele>
        <time>2021-03-20T16:48:34Z</time>
      </trkpt>
      <trkpt lat="55.14594" lon="-3.22697">
        <ele>167.82</ele>
        <time>2021-03-20T16:48:39Z</time>
      </trkpt>
      <trkpt lat="55.14649" lon="-3.2271">
        <ele>169.94</ele>
        <time>2021-03-20T16:48:44Z</time>
      </trkpt>
      <trkpt lat="55.14708" lon="-3.22709">
        <ele>174.07</ele>
        <time>2021-03-20T16:48:49Z</time>
      </trkpt>
      <trkpt lat="55.14785" lon="-3.22701">
        <ele>176.43</ele>
        <time>2021-03-20T16:48:54Z</time>
      </trkpt>
      <trkpt lat="55.14809" lon="-3.22702">
        <ele>177.7</ele>
        <time>2021-03-20T16:48:59Z</time>
      </trkpt>
      <trkpt lat="55.14828" lon="-3.22706">
        <ele>180.14</ele>
        <time>2021-03-20T16:49:04Z</time>
      </trkpt>
      <trkpt lat="55.14874" lon="-3.22728">
        <ele>183.49</ele>
        <time>2021-03-20T16:49:09Z</time>
      </trkpt>
      <trkpt lat="55.14924" lon="-3.22731">
        <ele>183.49</ele>
        <time>2021-03-20T16:49:14Z</time>
      </trkpt>
      <trkpt lat="55.14945" lon="-3.22735">
        <ele>184.3</ele>
        <time>2021-03-20T16:49:19Z</time>
      </trkpt>
      <trkpt lat="55.14977" lon="-3.22748">
        <ele>185.43</ele>
        <time>2021-03-20T16:49:23Z</time>
      </trkpt>
      <trkpt lat="55.14999" lon="-3.2276">
        <ele>186.46</ele>
        <time>2021-03-20T16:49:28Z</time>
      </trkpt>
      <trkpt lat="55.15041" lon="-3.22803">
        <ele>191.61</ele>
        <time>2021-03-20T16:49:33Z</time>
      </trkpt>
      <trkpt lat="55.15082" lon="-3.22834">
        <ele>192.17</ele>
        <time>2021-03-20T16:49:38Z</time>
      </trkpt>
      <trkpt lat="55.15131" lon="-3.22883">
        <ele>199.39</ele>
        <time>2021-03-20T16:49:43Z</time>
      </trkpt>
      <trkpt lat="55.15172" lon="-3.2291">
        <ele>200.65</ele>
        <time>2021-03-20T16:49:48Z</time>
      </trkpt>
      <trkpt lat="55.15208" lon="-3.22929">
        <ele>203.07</ele>
        <time>2021-03-20T16:49:53Z</time>
      </trkpt>
      <trkpt lat="55.15267" lon="-3.22943">
        <ele>204.84</ele>
        <time>2021-03-20T16:49:58Z</time>
      </trkpt>
      <trkpt lat="55.15279" lon="-3.2295">
        <ele>205.64</ele>
        <time>2021-03-20T16:50:03Z</time>
      </trkpt>
      <trkpt lat="55.15367" lon="-3.23047">
        <ele>212.45</ele>
        <time>2021-03-20T16:50:08Z</time>
      </trkpt>
      <trkpt lat="55.15423" lon="-3.23089">
        <ele>217.2</ele>
        <time>2021-03-20T16:50:12Z</time>
      </trkpt>
      <trkpt lat="55.15657" lon="-3.23248">
        <ele>228.58</ele>
        <time>2021-03-20T16:50:17Z</time>
      </trkpt>
      <trkpt lat="55.15785" lon="-3.23342">
        <ele>233.32</ele>
        <time>2021-03-20T16:50:22Z</time>
      </trkpt>
      <trkpt lat="55.15835" lon="-3.23402">
        <ele>234.54</ele>
        <time>2021-03-20T16:50:27Z</time>
      </trkpt>
      <trkpt lat="55.1592" lon="-3.23533">
        <ele>248.4</ele>
        <time>2021-03-20T16:50:32Z</time>
      </trkpt>
      <trkpt lat="55.15985" lon="-3.23688">
        <ele>238.01</ele>
        <time>2021-03-20T16:50:37Z</time>
      </trkpt>
      <trkpt lat="55.16019" lon="-3.23784">
        <ele>232.32</ele>
        <time>2021-03-20T16:50:42Z</time>
      </trkpt>
      <trkpt lat="55.1604" lon="-3.23915">
        <ele>231.06</ele>
        <time>2021-03-20T16:50:47Z</time>
      </trkpt>
      <trkpt lat="55.16068" lon="-3.24254">
        <ele>225</ele>
        <time>2021-03-20T16:50:52Z</time>
      </trkpt>
      <trkpt lat="55.16077" lon="-3.24313">
        <ele>226</ele>
        <time>2021-03-20T16:50:57Z</time>
      </trkpt>
      <trkpt lat="55.16046" lon="-3.24382">
        <ele>227.49</ele>
        <time>2021-03-20T16:51:03Z</time>
      </trkpt>
      <trkpt lat="55.15935" lon="-3.2464">
        <ele>219.66</ele>
        <time>2021-03-20T16:51:08Z</time>
      </trkpt>
      <trkpt lat="55.15933" lon="-3.24677">
        <ele>220.1</ele>
        <time>2021-03-20T16:51:14Z</time>
      </trkpt>
      <trkpt lat="55.15944" lon="-3.24975">
        <ele>227.01</ele>
        <time>2021-03-20T16:51:20Z</time>
      </trkpt>
      <trkpt lat="55.15983" lon="-3.25309">
        <ele>223.19</ele>
        <time>2021-03-20T16:51:26Z</time>
      </trkpt>
      <trkpt lat="55.15868" lon="-3.25819">
        <ele>212.17</ele>
        <time>2021-03-20T16:51:32Z</time>
      </trkpt>
      <trkpt lat="55.15831" lon="-3.26062">
        <ele>208.15</ele>
        <time>2021-03-20T16:51:38Z</time>
      </trkpt>
      <trkpt lat="55.15822" lon="-3.2609">
        <ele>208.35</ele>
        <time>2021-03-20T16:51:44Z</time>
      </trkpt>
      <trkpt lat="55.15808" lon="-3.2612">
        <ele>209.45</ele>
        <time>2021-03-20T16:51:50Z</time>
      </trkpt>
      <trkpt lat="55.15541" lon="-3.26561">
        <ele>206.27</ele>
        <time>2021-03-20T16:51:56Z</time>
      </trkpt>
      <trkpt lat="55.15518" lon="-3.26584">
        <ele>204.29</ele>
        <time>2021-03-20T16:52:02Z</time>
      </trkpt>
      <trkpt lat="55.15494" lon="-3.266">
        <ele>201.95</ele>
        <time>2021-03-20T16:52:08Z</time>
      </trkpt>
      <trkpt lat="55.15426" lon="-3.2661">
        <ele>199.7</ele>
        <time>2021-03-20T16:52:14Z</time>
      </trkpt>
      <trkpt lat="55.15373" lon="-3.26642">
        <ele>195.64</ele>
        <time>2021-03-20T16:52:20Z</time>
      </trkpt>
      <trkpt lat="55.15346" lon="-3.2667">
        <ele>192.19</ele>
        <time>2021-03-20T16:52:26Z</time>
      </trkpt>
      <trkpt lat="55.1533" lon="-3.26695">
        <ele>189.82</ele>
        <time>2021-03-20T16:52:32Z</time>
      </trkpt>
      <trkpt lat="55.15314" lon="-3.26741">
        <ele>187.32</ele>
        <time>2021-03-20T16:52:38Z</time>
      </trkpt>
      <trkpt lat="55.15289" lon="-3.26895">
        <ele>182.77</ele>
        <time>2021-03-20T16:52:44Z</time>
      </trkpt>
      <trkpt lat="55.15272" lon="-3.27018">
        <ele>179</ele>
        <time>2021-03-20T16:52:50Z</time>
      </trkpt>
      <trkpt lat="55.15271" lon="-3.27053">
        <ele>179</ele>
        <time>2021-03-20T16:52:56Z</time>
      </trkpt>
      <trkpt lat="55.15278" lon="-3.27106">
        <ele>178.99</ele>
        <time>2021-03-20T16:53:01Z</time>
      </trkpt>
      <trkpt lat="55.15283" lon="-3.27168">
        <ele>178.1</ele>
        <time>2021-03-20T16:53:07Z</time>
      </trkpt>
      <trkpt lat="55.15288" lon="-3.27297">
        <ele>177.62</ele>
        <time>2021-03-20T16:53:13Z</time>
      </trkpt>
      <trkpt lat="55.15281" lon="-3.27351">
        <ele>177.37</ele>
        <time>2021-03-20T16:53:19Z</time>
      </trkpt>
      <trkpt lat="55.15277" lon="-3.27413">
        <ele>174.29</ele>
        <time>2021-03-20T16:53:25Z</time>
      </trkpt>
      <trkpt lat="55.15291" lon="-3.27586">
        <ele>166.25</ele>
        <time>2021-03-20T16:53:31Z</time>
      </trkpt>
      <trkpt lat="55.15299" lon="-3.27645">
        <ele>159.96</ele>
        <time>2021-03-20T16:53:37Z</time>
      </trkpt>
      <trkpt lat="55.15314" lon="-3.27711">
        <ele>151.84</ele>
        <time>2021-03-20T16:53:43Z</time>
      </trkpt>
      <trkpt lat="55.15313" lon="-3.27782">
        <ele>146.96</ele>
        <time>2021-03-20T16:53:49Z</time>
      </trkpt>
      <trkpt lat="55.15318" lon="-3.2785">
        <ele>141.62</ele>
        <time>2021-03-20T16:53:55Z</time>
      </trkpt>
      <trkpt lat="55.15313" lon="-3.27908">
        <ele>136.88</ele>
        <time>2021-03-20T16:54:01Z</time>
      </trkpt>
      <trkpt lat="55.15317" lon="-3.27961">
        <ele>133.82</ele>
        <time>2021-03-20T16:54:07Z</time>
      </trkpt>
      <trkpt lat="55.15314" lon="-3.28003">
        <ele>131.87</ele>
        <time>2021-03-20T16:54:13Z</time>
      </trkpt>
      <trkpt lat="55.15282" lon="-3.28211">
        <ele>127</ele>
        <time>2021-03-20T16:54:19Z</time>
      </trkpt>
      <trkpt lat="55.15276" lon="-3.28266">
        <ele>126.07</ele>
        <time>2021-03-20T16:54:25Z</time>
      </trkpt>
      <trkpt lat="55.1524" lon="-3.28494">
        <ele>132.83</ele>
        <time>2021-03-20T16:54:31Z</time>
      </trkpt>
      <trkpt lat="55.1522" lon="-3.28572">
        <ele>139.34</ele>
        <time>2021-03-20T16:54:37Z</time>
      </trkpt>
      <trkpt lat="55.15107" lon="-3.28713">
        <ele>151.37</ele>
        <time>2021-03-20T16:54:43Z</time>
      </trkpt>
      <trkpt lat="55.15133" lon="-3.28806">
        <ele>156</ele>
        <time>2021-03-20T16:54:51Z</time>
      </trkpt>
      <trkpt lat="55.15147" lon="-3.28832">
        <ele>156</ele>
        <time>2021-03-20T16:55:00Z</time>
      </trkpt>
      <trkpt lat="55.15166" lon="-3.2884">
        <ele>155.76</ele>
        <time>2021-03-20T16:55:08Z</time>
      </trkpt>
      <trkpt lat="55.15409" lon="-3.28868">
        <ele>164.2</ele>
        <time>2021-03-20T16:55:17Z</time>
      </trkpt>
      <trkpt lat="55.15441" lon="-3.28877">
        <ele>165.33</ele>
        <time>2021-03-20T16:55:26Z</time>
      </trkpt>
      <trkpt lat="55.15461" lon="-3.28902">
        <ele>165.61</ele>
        <time>2021-03-20T16:55:29Z</time>
      </trkpt>
      <trkpt lat="55.15467" lon="-3.28924">
        <ele>164.05</ele>
        <time>2021-03-20T16:55:34Z</time>
      </trkpt>
      <trkpt lat="55.15464" lon="-3.2908">
        <ele>155.96</ele>
        <time>2021-03-20T16:55:39Z</time>
      </trkpt>
      <trkpt lat="55.15466" lon="-3.29387">
        <ele>153.03</ele>
        <time>2021-03-20T16:55:44Z</time>
      </trkpt>
      <trkpt lat="55.15469" lon="-3.29447">
        <ele>152.42</ele>
        <time>2021-03-20T16:55:50Z</time>
      </trkpt>
      <trkpt lat="55.1548" lon="-3.29497">
        <ele>151.91</ele>
        <time>2021-03-20T16:55:55Z</time>
      </trkpt>
      <trkpt lat="55.15502" lon="-3.29541">
        <ele>152.84</ele>
        <time>2021-03-20T16:56:00Z</time>
      </trkpt>
      <trkpt lat="55.15613" lon="-3.29661">
        <ele>159.47</ele>
        <time>2021-03-20T16:56:05Z</time>
      </trkpt>
      <trkpt lat="55.15665" lon="-3.29779">
        <ele>158.88</ele>
        <time>2021-03-20T16:56:11Z</time>
      </trkpt>
      <trkpt lat="55.15681" lon="-3.298">
        <ele>160.5</ele>
        <time>2021-03-20T16:56:16Z</time>
      </trkpt>
      <trkpt lat="55.15721" lon="-3.29826">
        <ele>163.11</ele>
        <time>2021-03-20T16:56:21Z</time>
      </trkpt>
      <trkpt lat="55.15787" lon="-3.29935">
        <ele>165.76</ele>
        <time>2021-03-20T16:56:26Z</time>
      </trkpt>
      <trkpt lat="55.15806" lon="-3.30011">
        <ele>171.05</ele>
        <time>2021-03-20T16:56:32Z</time>
      </trkpt>
      <trkpt lat="55.15864" lon="-3.3019">
        <ele>174.5</ele>
        <time>2021-03-20T16:56:37Z</time>
      </trkpt>
      <trkpt lat="55.15883" lon="-3.30221">
        <ele>174.38</ele>
        <time>2021-03-20T16:56:42Z</time>
      </trkpt>
      <trkpt lat="55.15905" lon="-3.30248">
        <ele>175.86</ele>
        <time>2021-03-20T16:56:47Z</time>
      </trkpt>
      <trkpt lat="55.15961" lon="-3.3028">
        <ele>178.21</ele>
        <time>2021-03-20T16:56:53Z</time>
      </trkpt>
      <trkpt lat="55.15983" lon="-3.30281">
        <ele>179.21</ele>
        <time>2021-03-20T16:56:58Z</time>
      </trkpt>
      <trkpt lat="55.16022" lon="-3.30273">
        <ele>181.06</ele>
        <time>2021-03-20T16:57:03Z</time>
      </trkpt>
      <trkpt lat="55.16094" lon="-3.30266">
        <ele>181.74</ele>
        <time>2021-03-20T16:57:08Z</time>
      </trkpt>
      <trkpt lat="55.16115" lon="-3.30268">
        <ele>181.88</ele>
        <time>2021-03-20T16:57:14Z</time>
      </trkpt>
      <trkpt lat="55.16133" lon="-3.3028">
        <ele>182.37</ele>
        <time>2021-03-20T16:57:19Z</time>
      </trkpt>
      <trkpt lat="55.16145" lon="-3.30299">
        <ele>183.11</ele>
        <time>2021-03-20T16:57:24Z</time>
      </trkpt>
      <trkpt lat="55.16176" lon="-3.30426">
        <ele>184.7</ele>
        <time>2021-03-20T16:57:29Z</time>
      </trkpt>
      <trkpt lat="55.16193" lon="-3.30508">
        <ele>184.73</ele>
        <time>2021-03-20T16:57:35Z</time>
      </trkpt>
      <trkpt lat="55.16204" lon="-3.30591">
        <ele>186.24</ele>
        <time>2021-03-20T16:57:40Z</time>
      </trkpt>
      <trkpt lat="55.16207" lon="-3.3065">
        <ele>183.67</ele>
        <time>2021-03-20T16:57:45Z</time>
      </trkpt>
      <trkpt lat="55.16215" lon="-3.30695">
        <ele>183.92</ele>
        <time>2021-03-20T16:57:50Z</time>
      </trkpt>
      <trkpt lat="55.16227" lon="-3.30727">
        <ele>183.41</ele>
        <time>2021-03-20T16:57:56Z</time>
      </trkpt>
      <trkpt lat="55.16253" lon="-3.30766">
        <ele>180.74</ele>
        <time>2021-03-20T16:58:01Z</time>
      </trkpt>
      <trkpt lat="55.16265" lon="-3.30807">
        <ele>179.85</ele>
        <time>2021-03-20T16:58:06Z</time>
      </trkpt>
      <trkpt lat="55.16274" lon="-3.30869">
        <ele>179.78</ele>
        <time>2021-03-20T16:58:11Z</time>
      </trkpt>
      <trkpt lat="55.16281" lon="-3.30901">
        <ele>180.23</ele>
        <time>2021-03-20T16:58:17Z</time>
      </trkpt>
      <trkpt lat="55.16295" lon="-3.3093">
        <ele>180.88</ele>
        <time>2021-03-20T16:58:22Z</time>
      </trkpt>
      <trkpt lat="55.16394" lon="-3.31012">
        <ele>179.6</ele>
        <time>2021-03-20T16:58:27Z</time>
      </trkpt>
      <trkpt lat="55.16502" lon="-3.31121">
        <ele>179.6</ele>
        <time>2021-03-20T16:58:32Z</time>
      </trkpt>
      <trkpt lat="55.16556" lon="-3.31181">
        <ele>181.02</ele>
        <time>2021-03-20T16:58:38Z</time>
      </trkpt>
      <trkpt lat="55.16621" lon="-3.31316">
        <ele>191.26</ele>
        <time>2021-03-20T16:58:43Z</time>
      </trkpt>
      <trkpt lat="55.16625" lon="-3.31352">
        <ele>193.35</ele>
        <time>2021-03-20T16:58:48Z</time>
      </trkpt>
      <trkpt lat="55.16627" lon="-3.314">
        <ele>195.76</ele>
        <time>2021-03-20T16:58:53Z</time>
      </trkpt>
      <trkpt lat="55.16634" lon="-3.31485">
        <ele>197.09</ele>
        <time>2021-03-20T16:58:59Z</time>
      </trkpt>
      <trkpt lat="55.16643" lon="-3.3156">
        <ele>194.9</ele>
        <time>2021-03-20T16:59:04Z</time>
      </trkpt>
      <trkpt lat="55.16646" lon="-3.31617">
        <ele>195.63</ele>
        <time>2021-03-20T16:59:09Z</time>
      </trkpt>
      <trkpt lat="55.16658" lon="-3.31681">
        <ele>194.31</ele>
        <time>2021-03-20T16:59:14Z</time>
      </trkpt>
      <trkpt lat="55.16666" lon="-3.31755">
        <ele>196.09</ele>
        <time>2021-03-20T16:59:20Z</time>
      </trkpt>
      <trkpt lat="55.16664" lon="-3.31809">
        <ele>196.41</ele>
        <time>2021-03-20T16:59:25Z</time>
      </trkpt>
      <trkpt lat="55.16658" lon="-3.31858">
        <ele>196.69</ele>
        <time>2021-03-20T16:59:30Z</time>
      </trkpt>
      <trkpt lat="55.1665" lon="-3.31897">
        <ele>197.51</ele>
        <time>2021-03-20T16:59:35Z</time>
      </trkpt>
      <trkpt lat="55.16623" lon="-3.31953">
        <ele>200.26</ele>
        <time>2021-03-20T16:59:41Z</time>
      </trkpt>
      <trkpt lat="55.16621" lon="-3.31977">
        <ele>200.66</ele>
        <time>2021-03-20T16:59:46Z</time>
      </trkpt>
      <trkpt lat="55.16624" lon="-3.32004">
        <ele>200.93</ele>
        <time>2021-03-20T16:59:51Z</time>
      </trkpt>
      <trkpt lat="55.1665" lon="-3.32072">
        <ele>203.97</ele>
        <time>2021-03-20T16:59:56Z</time>
      </trkpt>
      <trkpt lat="55.16658" lon="-3.32108">
        <ele>205.04</ele>
        <time>2021-03-20T17:00:02Z</time>
      </trkpt>
      <trkpt lat="55.16658" lon="-3.32133">
        <ele>206.84</ele>
        <time>2021-03-20T17:00:07Z</time>
      </trkpt>
      <trkpt lat="55.16612" lon="-3.32358">
        <ele>218.97</ele>
        <time>2021-03-20T17:00:12Z</time>
      </trkpt>
      <trkpt lat="55.16601" lon="-3.32394">
        <ele>220.23</ele>
        <time>2021-03-20T17:00:17Z</time>
      </trkpt>
      <trkpt lat="55.16586" lon="-3.32423">
        <ele>220.55</ele>
        <time>2021-03-20T17:00:23Z</time>
      </trkpt>
      <trkpt lat="55.16558" lon="-3.32454">
        <ele>223.01</ele>
        <time>2021-03-20T17:00:28Z</time>
      </trkpt>
      <trkpt lat="55.16392" lon="-3.32575">
        <ele>223.95</ele>
        <time>2021-03-20T17:00:33Z</time>
      </trkpt>
      <trkpt lat="55.16388" lon="-3.32593">
        <ele>222.04</ele>
        <time>2021-03-20T17:00:38Z</time>
      </trkpt>
      <trkpt lat="55.16385" lon="-3.32686">
        <ele>215.46</ele>
        <time>2021-03-20T17:00:44Z</time>
      </trkpt>
      <trkpt lat="55.16367" lon="-3.3289">
        <ele>208.61</ele>
        <time>2021-03-20T17:00:49Z</time>
      </trkpt>
      <trkpt lat="55.16368" lon="-3.32966">
        <ele>207.66</ele>
        <time>2021-03-20T17:00:54Z</time>
      </trkpt>
      <trkpt lat="55.16368" lon="-3.33016">
        <ele>206.93</ele>
        <time>2021-03-20T17:00:59Z</time>
      </trkpt>
      <trkpt lat="55.16365" lon="-3.33061">
        <ele>205.3</ele>
        <time>2021-03-20T17:01:05Z</time>
      </trkpt>
      <trkpt lat="55.16346" lon="-3.33196">
        <ele>201.59</ele>
        <time>2021-03-20T17:01:10Z</time>
      </trkpt>
      <trkpt lat="55.16344" lon="-3.33236">
        <ele>201.32</ele>
        <time>2021-03-20T17:01:15Z</time>
      </trkpt>
      <trkpt lat="55.16348" lon="-3.33271">
        <ele>200.42</ele>
        <time>2021-03-20T17:01:20Z</time>
      </trkpt>
      <trkpt lat="55.1636" lon="-3.33321">
        <ele>199.08</ele>
        <time>2021-03-20T17:01:26Z</time>
      </trkpt>
      <trkpt lat="55.16374" lon="-3.33394">
        <ele>198.17</ele>
        <time>2021-03-20T17:01:31Z</time>
      </trkpt>
      <trkpt lat="55.16377" lon="-3.33436">
        <ele>198.61</ele>
        <time>2021-03-20T17:01:36Z</time>
      </trkpt>
      <trkpt lat="55.16362" lon="-3.33725">
        <ele>185.86</ele>
        <time>2021-03-20T17:01:41Z</time>
      </trkpt>
      <trkpt lat="55.16307" lon="-3.33932">
        <ele>175.04</ele>
        <time>2021-03-20T17:01:47Z</time>
      </trkpt>
      <trkpt lat="55.16297" lon="-3.33954">
        <ele>175.33</ele>
        <time>2021-03-20T17:01:52Z</time>
      </trkpt>
      <trkpt lat="55.16283" lon="-3.33969">
        <ele>175.87</ele>
        <time>2021-03-20T17:01:57Z</time>
      </trkpt>
      <trkpt lat="55.16201" lon="-3.34008">
        <ele>169.25</ele>
        <time>2021-03-20T17:02:02Z</time>
      </trkpt>
      <trkpt lat="55.16176" lon="-3.34024">
        <ele>166.17</ele>
        <time>2021-03-20T17:02:08Z</time>
      </trkpt>
      <trkpt lat="55.16158" lon="-3.34044">
        <ele>164.4</ele>
        <time>2021-03-20T17:02:13Z</time>
      </trkpt>
      <trkpt lat="55.16132" lon="-3.34095">
        <ele>162.48</ele>
        <time>2021-03-20T17:02:18Z</time>
      </trkpt>
      <trkpt lat="55.16107" lon="-3.34149">
        <ele>159.33</ele>
        <time>2021-03-20T17:02:23Z</time>
      </trkpt>
      <trkpt lat="55.16093" lon="-3.34199">
        <ele>156.53</ele>
        <time>2021-03-20T17:02:29Z</time>
      </trkpt>
      <trkpt lat="55.1608" lon="-3.34336">
        <ele>149.84</ele>
        <time>2021-03-20T17:02:34Z</time>
      </trkpt>
      <trkpt lat="55.1604" lon="-3.3457">
        <ele>137.38</ele>
        <time>2021-03-20T17:02:39Z</time>
      </trkpt>
      <trkpt lat="55.16042" lon="-3.34593">
        <ele>134.45</ele>
        <time>2021-03-20T17:02:44Z</time>
      </trkpt>
      <trkpt lat="55.16058" lon="-3.34624">
        <ele>129.52</ele>
        <time>2021-03-20T17:02:50Z</time>
      </trkpt>
      <trkpt lat="55.16075" lon="-3.34666">
        <ele>126.04</ele>
        <time>2021-03-20T17:02:55Z</time>
      </trkpt>
      <trkpt lat="55.1608" lon="-3.34706">
        <ele>123.17</ele>
        <time>2021-03-20T17:03:00Z</time>
      </trkpt>
      <trkpt lat="55.1608" lon="-3.34741">
        <ele>119.34</ele>
        <time>2021-03-20T17:03:05Z</time>
      </trkpt>
      <trkpt lat="55.16047" lon="-3.34898">
        <ele>110.51</ele>
        <time>2021-03-20T17:03:11Z</time>
      </trkpt>
      <trkpt lat="55.16045" lon="-3.34923">
        <ele>109.6</ele>
        <time>2021-03-20T17:03:16Z</time>
      </trkpt>
      <trkpt lat="55.16048" lon="-3.3494">
        <ele>109.1</ele>
        <time>2021-03-20T17:03:21Z</time>
      </trkpt>
      <trkpt lat="55.16059" lon="-3.34958">
        <ele>108.25</ele>
        <time>2021-03-20T17:03:26Z</time>
      </trkpt>
      <trkpt lat="55.16108" lon="-3.35012">
        <ele>101.6</ele>
        <time>2021-03-20T17:03:32Z</time>
      </trkpt>
      <trkpt lat="55.16142" lon="-3.35043">
        <ele>97.97</ele>
        <time>2021-03-20T17:03:37Z</time>
      </trkpt>
      <trkpt lat="55.16148" lon="-3.35055">
        <ele>97.01</ele>
        <time>2021-03-20T17:03:42Z</time>
      </trkpt>
      <trkpt lat="55.16152" lon="-3.35082">
        <ele>94.63</ele>
        <time>2021-03-20T17:03:47Z</time>
      </trkpt>
      <trkpt lat="55.16173" lon="-3.35149">
        <ele>90.73</ele>
        <time>2021-03-20T17:03:52Z</time>
      </trkpt>
      <trkpt lat="55.16203" lon="-3.35224">
        <ele>86.17</ele>
        <time>2021-03-20T17:03:58Z</time>
      </trkpt>
      <trkpt lat="55.16212" lon="-3.35254">
        <ele>84.36</ele>
        <time>2021-03-20T17:04:03Z</time>
      </trkpt>
      <trkpt lat="55.16213" lon="-3.3529">
        <ele>81.9</ele>
        <time>2021-03-20T17:04:08Z</time>
      </trkpt>
      <trkpt lat="55.16189" lon="-3.35436">
        <ele>81.69</ele>
        <time>2021-03-20T17:04:13Z</time>
      </trkpt>
      <trkpt lat="55.16196" lon="-3.35473">
        <ele>84.05</ele>
        <time>2021-03-20T17:04:19Z</time>
      </trkpt>
      <trkpt lat="55.1621" lon="-3.35497">
        <ele>85.79</ele>
        <time>2021-03-20T17:04:24Z</time>
      </trkpt>
      <trkpt lat="55.16227" lon="-3.35558">
        <ele>89.19</ele>
        <time>2021-03-20T17:04:29Z</time>
      </trkpt>
      <trkpt lat="55.16252" lon="-3.35789">
        <ele>99.41</ele>
        <time>2021-03-20T17:04:34Z</time>
      </trkpt>
      <trkpt lat="55.16278" lon="-3.35837">
        <ele>101.23</ele>
        <time>2021-03-20T17:04:40Z</time>
      </trkpt>
      <trkpt lat="55.16255" lon="-3.35982">
        <ele>101.18</ele>
        <time>2021-03-20T17:04:46Z</time>
      </trkpt>
      <trkpt lat="55.16227" lon="-3.3656">
        <ele>101.04</ele>
        <time>2021-03-20T17:04:53Z</time>
      </trkpt>
      <trkpt lat="55.16213" lon="-3.36632">
        <ele>99.67</ele>
        <time>2021-03-20T17:05:00Z</time>
      </trkpt>
      <trkpt lat="55.16195" lon="-3.3667">
        <ele>99.16</ele>
        <time>2021-03-20T17:05:06Z</time>
      </trkpt>
      <trkpt lat="55.16211" lon="-3.36693">
        <ele>100.52</ele>
        <time>2021-03-20T17:05:09Z</time>
      </trkpt>
      <trkpt lat="55.16212" lon="-3.36714">
        <ele>101.34</ele>
        <time>2021-03-20T17:05:12Z</time>
      </trkpt>
      <trkpt lat="55.16206" lon="-3.36753">
        <ele>102.47</ele>
        <time>2021-03-20T17:05:15Z</time>
      </trkpt>
      <trkpt lat="55.16173" lon="-3.3683">
        <ele>104</ele>
        <time>2021-03-20T17:05:17Z</time>
      </trkpt>
      <trkpt lat="55.16156" lon="-3.36884">
        <ele>102.22</ele>
        <time>2021-03-20T17:05:20Z</time>
      </trkpt>
      <trkpt lat="55.16107" lon="-3.37153">
        <ele>96.8</ele>
        <time>2021-03-20T17:05:23Z</time>
      </trkpt>
      <trkpt lat="55.16102" lon="-3.37227">
        <ele>93.83</ele>
        <time>2021-03-20T17:05:26Z</time>
      </trkpt>
      <trkpt lat="55.16102" lon="-3.37274">
        <ele>93</ele>
        <time>2021-03-20T17:05:29Z</time>
      </trkpt>
      <trkpt lat="55.16112" lon="-3.37313">
        <ele>91.74</ele>
        <time>2021-03-20T17:05:31Z</time>
      </trkpt>
      <trkpt lat="55.16123" lon="-3.37345">
        <ele>90.58</ele>
        <time>2021-03-20T17:05:34Z</time>
      </trkpt>
      <trkpt lat="55.16244" lon="-3.3757">
        <ele>87.25</ele>
        <time>2021-03-20T17:05:37Z</time>
      </trkpt>
      <trkpt lat="55.16262" lon="-3.37637">
        <ele>86.03</ele>
        <time>2021-03-20T17:05:40Z</time>
      </trkpt>
      <trkpt lat="55.16263" lon="-3.37682">
        <ele>86</ele>
        <time>2021-03-20T17:05:43Z</time>
      </trkpt>
      <trkpt lat="55.16258" lon="-3.37721">
        <ele>86</ele>
        <time>2021-03-20T17:05:45Z</time>
      </trkpt>
      <trkpt lat="55.16254" lon="-3.37732">
        <ele>85.65</ele>
        <time>2021-03-20T17:05:48Z</time>
      </trkpt>
      <trkpt lat="55.16162" lon="-3.37836">
        <ele>75.73</ele>
        <time>2021-03-20T17:05:51Z</time>
      </trkpt>
      <trkpt lat="55.16132" lon="-3.37897">
        <ele>74.53</ele>
        <time>2021-03-20T17:05:54Z</time>
      </trkpt>
      <trkpt lat="55.16078" lon="-3.3807">
        <ele>70.65</ele>
        <time>2021-03-20T17:05:56Z</time>
      </trkpt>
      <trkpt lat="55.16082" lon="-3.3809">
        <ele>70.91</ele>
        <time>2021-03-20T17:05:59Z</time>
      </trkpt>
      <trkpt lat="55.16423" lon="-3.38461">
        <ele>67.05</ele>
        <time>2021-03-20T17:06:07Z</time>
      </trkpt>
      <trkpt lat="55.16436" lon="-3.38486">
        <ele>66.19</ele>
        <time>2021-03-20T17:06:15Z</time>
      </trkpt>
      <trkpt lat="55.16435" lon="-3.38505">
        <ele>65.49</ele>
        <time>2021-03-20T17:06:23Z</time>
      </trkpt>
      <trkpt lat="55.16422" lon="-3.38495">
        <ele>65.39</ele>
        <time>2021-03-20T17:06:24Z</time>
      </trkpt>
      <trkpt lat="55.1641" lon="-3.38493">
        <ele>65.26</ele>
        <time>2021-03-20T17:06:25Z</time>
      </trkpt>
      <trkpt lat="55.16388" lon="-3.38499">
        <ele>65.04</ele>
        <time>2021-03-20T17:06:26Z</time>
      </trkpt>
      <trkpt lat="55.1637" lon="-3.38508">
        <ele>64.79</ele>
        <time>2021-03-20T17:06:27Z</time>
      </trkpt>
      <trkpt lat="55.16355" lon="-3.38526">
        <ele>64.07</ele>
        <time>2021-03-20T17:06:28Z</time>
      </trkpt>
      <trkpt lat="55.16339" lon="-3.3854">
        <ele>63.54</ele>
        <time>2021-03-20T17:06:30Z</time>
      </trkpt>
      <trkpt lat="55.16316" lon="-3.38598">
        <ele>60.46</ele>
        <time>2021-03-20T17:06:31Z</time>
      </trkpt>
      <trkpt lat="55.16313" lon="-3.38646">
        <ele>59.26</ele>
        <time>2021-03-20T17:06:32Z</time>
      </trkpt>
      <trkpt lat="55.16412" lon="-3.38684">
        <ele>63.37</ele>
        <time>2021-03-20T17:06:42Z</time>
      </trkpt>
      <trkpt lat="55.16538" lon="-3.38747">
        <ele>66</ele>
        <time>2021-03-20T17:06:52Z</time>
      </trkpt>
      <trkpt lat="55.16662" lon="-3.38849">
        <ele>66.55</ele>
        <time>2021-03-20T17:07:02Z</time>
      </trkpt>
      <trkpt lat="55.1715" lon="-3.39323">
        <ele>73.62</ele>
        <time>2021-03-20T17:07:12Z</time>
      </trkpt>
      <trkpt lat="55.1731" lon="-3.39504">
        <ele>75.97</ele>
        <time>2021-03-20T17:07:21Z</time>
      </trkpt>
      <trkpt lat="55.17662" lon="-3.40127">
        <ele>71.53</ele>
        <time>2021-03-20T17:07:31Z</time>
      </trkpt>
      <trkpt lat="55.17792" lon="-3.40281">
        <ele>70</ele>
        <time>2021-03-20T17:07:41Z</time>
      </trkpt>
      <trkpt lat="55.17953" lon="-3.40403">
        <ele>68.49</ele>
        <time>2021-03-20T17:07:51Z</time>
      </trkpt>
      <trkpt lat="55.18024" lon="-3.40435">
        <ele>69.28</ele>
        <time>2021-03-20T17:08:01Z</time>
      </trkpt>
      <trkpt lat="55.18131" lon="-3.40472">
        <ele>69.73</ele>
        <time>2021-03-20T17:08:11Z</time>
      </trkpt>
      <trkpt lat="55.18646" lon="-3.40632">
        <ele>64.2</ele>
        <time>2021-03-20T17:08:21Z</time>
      </trkpt>
      <trkpt lat="55.18816" lon="-3.40692">
        <ele>64</ele>
        <time>2021-03-20T17:08:31Z</time>
      </trkpt>
      <trkpt lat="55.18835" lon="-3.40696">
        <ele>64</ele>
        <time>2021-03-20T17:08:41Z</time>
      </trkpt>
      <trkpt lat="55.18851" lon="-3.40695">
        <ele>64</ele>
        <time>2021-03-20T17:08:50Z</time>
      </trkpt>
      <trkpt lat="55.18872" lon="-3.40686">
        <ele>64</ele>
        <time>2021-03-20T17:09:00Z</time>
      </trkpt>
      <trkpt lat="55.1889" lon="-3.40695">
        <ele>64</ele>
        <time>2021-03-20T17:09:10Z</time>
      </trkpt>
      <trkpt lat="55.18895" lon="-3.40704">
        <ele>64</ele>
        <time>2021-03-20T17:09:18Z</time>
      </trkpt>
      <trkpt lat="55.18917" lon="-3.4071">
        <ele>64</ele>
        <time>2021-03-20T17:09:26Z</time>
      </trkpt>
      <trkpt lat="55.18951" lon="-3.40733">
        <ele>63.44</ele>
        <time>2021-03-20T17:09:33Z</time>
      </trkpt>
      <trkpt lat="55.1924" lon="-3.40816">
        <ele>64</ele>
        <time>2021-03-20T17:09:41Z</time>
      </trkpt>
      <trkpt lat="55.2007" lon="-3.41078">
        <ele>68.8</ele>
        <time>2021-03-20T17:09:49Z</time>
      </trkpt>
      <trkpt lat="55.20167" lon="-3.41103">
        <ele>69.01</ele>
        <time>2021-03-20T17:09:57Z</time>
      </trkpt>
      <trkpt lat="55.20259" lon="-3.41114">
        <ele>70.36</ele>
        <time>2021-03-20T17:10:04Z</time>
      </trkpt>
      <trkpt lat="55.20326" lon="-3.41117">
        <ele>68</ele>
        <time>2021-03-20T17:10:12Z</time>
      </trkpt>
      <trkpt lat="55.20435" lon="-3.41109">
        <ele>69.17</ele>
        <time>2021-03-20T17:10:20Z</time>
      </trkpt>
      <trkpt lat="55.20582" lon="-3.41083">
        <ele>65.03</ele>
        <time>2021-03-20T17:10:27Z</time>
      </trkpt>
      <trkpt lat="55.20625" lon="-3.41081">
        <ele>65.95</ele>
        <time>2021-03-20T17:10:35Z</time>
      </trkpt>
      <trkpt lat="55.20655" lon="-3.41083">
        <ele>66</ele>
        <time>2021-03-20T17:10:43Z</time>
      </trkpt>
      <trkpt lat="55.20701" lon="-3.41094">
        <ele>67.78</ele>
        <time>2021-03-20T17:10:51Z</time>
      </trkpt>
      <trkpt lat="55.20756" lon="-3.41117">
        <ele>69.78</ele>
        <time>2021-03-20T17:10:58Z</time>
      </trkpt>
      <trkpt lat="55.208" lon="-3.41145">
        <ele>69.79</ele>
        <time>2021-03-20T17:11:06Z</time>
      </trkpt>
      <trkpt lat="55.2083" lon="-3.4117">
        <ele>70.76</ele>
        <time>2021-03-20T17:11:14Z</time>
      </trkpt>
      <trkpt lat="55.20859" lon="-3.41197">
        <ele>70.92</ele>
        <time>2021-03-20T17:11:22Z</time>
      </trkpt>
      <trkpt lat="55.20872" lon="-3.41214">
        <ele>71.12</ele>
        <time>2021-03-20T17:11:29Z</time>
      </trkpt>
      <trkpt lat="55.20972" lon="-3.41321">
        <ele>68.45</ele>
        <time>2021-03-20T17:11:37Z</time>
      </trkpt>
      <trkpt lat="55.21047" lon="-3.4139">
        <ele>67.65</ele>
        <time>2021-03-20T17:11:45Z</time>
      </trkpt>
      <trkpt lat="55.21087" lon="-3.41415">
        <ele>67.08</ele>
        <time>2021-03-20T17:11:53Z</time>
      </trkpt>
      <trkpt lat="55.21169" lon="-3.41452">
        <ele>67.53</ele>
        <time>2021-03-20T17:12:00Z</time>
      </trkpt>
      <trkpt lat="55.21246" lon="-3.41474">
        <ele>72.92</ele>
        <time>2021-03-20T17:12:08Z</time>
      </trkpt>
      <trkpt lat="55.21337" lon="-3.41497">
        <ele>78.76</ele>
        <time>2021-03-20T17:12:16Z</time>
      </trkpt>
      <trkpt lat="55.2149" lon="-3.41523">
        <ele>79.88</ele>
        <time>2021-03-20T17:12:23Z</time>
      </trkpt>
      <trkpt lat="55.21745" lon="-3.41588">
        <ele>86.98</ele>
        <time>2021-03-20T17:12:31Z</time>
      </trkpt>
      <trkpt lat="55.21808" lon="-3.41599">
        <ele>87.16</ele>
        <time>2021-03-20T17:12:39Z</time>
      </trkpt>
      <trkpt lat="55.21867" lon="-3.41601">
        <ele>87.83</ele>
        <time>2021-03-20T17:12:47Z</time>
      </trkpt>
      <trkpt lat="55.21931" lon="-3.41599">
        <ele>88.57</ele>
        <time>2021-03-20T17:12:54Z</time>
      </trkpt>
      <trkpt lat="55.22268" lon="-3.41558">
        <ele>93.32</ele>
        <time>2021-03-20T17:13:02Z</time>
      </trkpt>
      <trkpt lat="55.22437" lon="-3.41544">
        <ele>90</ele>
        <time>2021-03-20T17:13:10Z</time>
      </trkpt>
      <trkpt lat="55.22542" lon="-3.41529">
        <ele>91.08</ele>
        <time>2021-03-20T17:13:18Z</time>
      </trkpt>
      <trkpt lat="55.22676" lon="-3.41498">
        <ele>87.21</ele>
        <time>2021-03-20T17:13:25Z</time>
      </trkpt>
      <trkpt lat="55.22707" lon="-3.41485">
        <ele>86.92</ele>
        <time>2021-03-20T17:13:33Z</time>
      </trkpt>
      <trkpt lat="55.2291" lon="-3.41416">
        <ele>88.66</ele>
        <time>2021-03-20T17:13:41Z</time>
      </trkpt>
      <trkpt lat="55.23018" lon="-3.41391">
        <ele>90.18</ele>
        <time>2021-03-20T17:13:48Z</time>
      </trkpt>
      <trkpt lat="55.23345" lon="-3.41322">
        <ele>88.17</ele>
        <time>2021-03-20T17:13:56Z</time>
      </trkpt>
      <trkpt lat="55.23414" lon="-3.41303">
        <ele>87.91</ele>
        <time>2021-03-20T17:14:04Z</time>
      </trkpt>
      <trkpt lat="55.23518" lon="-3.41259">
        <ele>86.33</ele>
        <time>2021-03-20T17:14:12Z</time>
      </trkpt>
      <trkpt lat="55.23618" lon="-3.4121">
        <ele>86</ele>
        <time>2021-03-20T17:14:19Z</time>
      </trkpt>
      <trkpt lat="55.2367" lon="-3.41179">
        <ele>88.44</ele>
        <time>2021-03-20T17:14:27Z</time>
      </trkpt>
      <trkpt lat="55.23829" lon="-3.41107">
        <ele>88.69</ele>
        <time>2021-03-20T17:14:35Z</time>
      </trkpt>
      <trkpt lat="55.23901" lon="-3.4108">
        <ele>90.77</ele>
        <time>2021-03-20T17:14:43Z</time>
      </trkpt>
      <trkpt lat="55.24093" lon="-3.41038">
        <ele>90.75</ele>
        <time>2021-03-20T17:14:50Z</time>
      </trkpt>
      <trkpt lat="55.24293" lon="-3.41014">
        <ele>93.27</ele>
        <time>2021-03-20T17:14:58Z</time>
      </trkpt>
      <trkpt lat="55.24473" lon="-3.41004">
        <ele>93.45</ele>
        <time>2021-03-20T17:15:06Z</time>
      </trkpt>
      <trkpt lat="55.24654" lon="-3.41006">
        <ele>92.14</ele>
        <time>2021-03-20T17:15:14Z</time>
      </trkpt>
      <trkpt lat="55.24877" lon="-3.41038">
        <ele>94.13</ele>
        <time>2021-03-20T17:15:21Z</time>
      </trkpt>
      <trkpt lat="55.25155" lon="-3.41104">
        <ele>93.5</ele>
        <time>2021-03-20T17:15:29Z</time>
      </trkpt>
      <trkpt lat="55.25256" lon="-3.4114">
        <ele>93.85</ele>
        <time>2021-03-20T17:15:37Z</time>
      </trkpt>
      <trkpt lat="55.25365" lon="-3.41189">
        <ele>94.3</ele>
        <time>2021-03-20T17:15:44Z</time>
      </trkpt>
      <trkpt lat="55.25462" lon="-3.4125">
        <ele>96.33</ele>
        <time>2021-03-20T17:15:52Z</time>
      </trkpt>
      <trkpt lat="55.25555" lon="-3.41325">
        <ele>94.74</ele>
        <time>2021-03-20T17:16:00Z</time>
      </trkpt>
      <trkpt lat="55.25735" lon="-3.41494">
        <ele>97.77</ele>
        <time>2021-03-20T17:16:08Z</time>
      </trkpt>
      <trkpt lat="55.25809" lon="-3.41572">
        <ele>96.33</ele>
        <time>2021-03-20T17:16:15Z</time>
      </trkpt>
      <trkpt lat="55.25983" lon="-3.41792">
        <ele>97.02</ele>
        <time>2021-03-20T17:16:23Z</time>
      </trkpt>
      <trkpt lat="55.26069" lon="-3.41854">
        <ele>95.5</ele>
        <time>2021-03-20T17:16:31Z</time>
      </trkpt>
      <trkpt lat="55.2613" lon="-3.41883">
        <ele>96.77</ele>
        <time>2021-03-20T17:16:39Z</time>
      </trkpt>
      <trkpt lat="55.26226" lon="-3.41895">
        <ele>101.03</ele>
        <time>2021-03-20T17:16:46Z</time>
      </trkpt>
      <trkpt lat="55.26491" lon="-3.41872">
        <ele>110.39</ele>
        <time>2021-03-20T17:16:54Z</time>
      </trkpt>
      <trkpt lat="55.26659" lon="-3.41886">
        <ele>115.64</ele>
        <time>2021-03-20T17:17:02Z</time>
      </trkpt>
      <trkpt lat="55.26774" lon="-3.41908">
        <ele>112.52</ele>
        <time>2021-03-20T17:17:09Z</time>
      </trkpt>
      <trkpt lat="55.26939" lon="-3.41979">
        <ele>109.88</ele>
        <time>2021-03-20T17:17:17Z</time>
      </trkpt>
      <trkpt lat="55.27114" lon="-3.42083">
        <ele>107.8</ele>
        <time>2021-03-20T17:17:25Z</time>
      </trkpt>
      <trkpt lat="55.27202" lon="-3.4215">
        <ele>104.84</ele>
        <time>2021-03-20T17:17:33Z</time>
      </trkpt>
      <trkpt lat="55.27389" lon="-3.42312">
        <ele>103</ele>
        <time>2021-03-20T17:17:40Z</time>
      </trkpt>
      <trkpt lat="55.27633" lon="-3.42468">
        <ele>106.86</ele>
        <time>2021-03-20T17:17:48Z</time>
      </trkpt>
      <trkpt lat="55.27753" lon="-3.42555">
        <ele>106.88</ele>
        <time>2021-03-20T17:17:56Z</time>
      </trkpt>
      <trkpt lat="55.28024" lon="-3.42821">
        <ele>108.72</ele>
        <time>2021-03-20T17:18:04Z</time>
      </trkpt>
      <trkpt lat="55.28251" lon="-3.43034">
        <ele>115.2</ele>
        <time>2021-03-20T17:18:11Z</time>
      </trkpt>
      <trkpt lat="55.28428" lon="-3.43214">
        <ele>119.35</ele>
        <time>2021-03-20T17:18:19Z</time>
      </trkpt>
      <trkpt lat="55.28631" lon="-3.43488">
        <ele>112.29</ele>
        <time>2021-03-20T17:18:27Z</time>
      </trkpt>
      <trkpt lat="55.28732" lon="-3.436">
        <ele>111.65</ele>
        <time>2021-03-20T17:18:35Z</time>
      </trkpt>
      <trkpt lat="55.28791" lon="-3.43672">
        <ele>111.17</ele>
        <time>2021-03-20T17:18:42Z</time>
      </trkpt>
      <trkpt lat="55.28906" lon="-3.43819">
        <ele>111</ele>
        <time>2021-03-20T17:18:50Z</time>
      </trkpt>
      <trkpt lat="55.29027" lon="-3.44028">
        <ele>116.11</ele>
        <time>2021-03-20T17:18:58Z</time>
      </trkpt>
      <trkpt lat="55.2913" lon="-3.44197">
        <ele>114.33</ele>
        <time>2021-03-20T17:19:05Z</time>
      </trkpt>
      <trkpt lat="55.29279" lon="-3.44397">
        <ele>110.98</ele>
        <time>2021-03-20T17:19:13Z</time>
      </trkpt>
      <trkpt lat="55.29303" lon="-3.44445">
        <ele>111</ele>
        <time>2021-03-20T17:19:21Z</time>
      </trkpt>
      <trkpt lat="55.29302" lon="-3.44494">
        <ele>110.87</ele>
        <time>2021-03-20T17:19:29Z</time>
      </trkpt>
      <trkpt lat="55.2927" lon="-3.44518">
        <ele>110</ele>
        <time>2021-03-20T17:19:31Z</time>
      </trkpt>
      <trkpt lat="55.29236" lon="-3.44553">
        <ele>110.49</ele>
        <time>2021-03-20T17:19:33Z</time>
      </trkpt>
      <trkpt lat="55.29172" lon="-3.44631">
        <ele>110.28</ele>
        <time>2021-03-20T17:19:36Z</time>
      </trkpt>
      <trkpt lat="55.29139" lon="-3.44665">
        <ele>111</ele>
        <time>2021-03-20T17:19:38Z</time>
      </trkpt>
      <trkpt lat="55.29089" lon="-3.44706">
        <ele>112</ele>
        <time>2021-03-20T17:19:41Z</time>
      </trkpt>
      <trkpt lat="55.29055" lon="-3.44723">
        <ele>113.05</ele>
        <time>2021-03-20T17:19:43Z</time>
      </trkpt>
      <trkpt lat="55.29019" lon="-3.44734">
        <ele>115.61</ele>
        <time>2021-03-20T17:19:45Z</time>
      </trkpt>
      <trkpt lat="55.28983" lon="-3.44738">
        <ele>119.23</ele>
        <time>2021-03-20T17:19:48Z</time>
      </trkpt>
      <trkpt lat="55.28987" lon="-3.44777">
        <ele>123.34</ele>
        <time>2021-03-20T17:19:53Z</time>
      </trkpt>
      <trkpt lat="55.29001" lon="-3.4479">
        <ele>123.11</ele>
        <time>2021-03-20T17:19:58Z</time>
      </trkpt>
      <trkpt lat="55.29054" lon="-3.44819">
        <ele>118.19</ele>
        <time>2021-03-20T17:20:03Z</time>
      </trkpt>
      <trkpt lat="55.29155" lon="-3.44868">
        <ele>115.33</ele>
        <time>2021-03-20T17:20:08Z</time>
      </trkpt>
      <trkpt lat="55.29254" lon="-3.44922">
        <ele>111.22</ele>
        <time>2021-03-20T17:20:13Z</time>
      </trkpt>
      <trkpt lat="55.2928" lon="-3.44932">
        <ele>112.13</ele>
        <time>2021-03-20T17:20:18Z</time>
      </trkpt>
      <trkpt lat="55.29436" lon="-3.44957">
        <ele>105.74</ele>
        <time>2021-03-20T17:20:23Z</time>
      </trkpt>
      <trkpt lat="55.29529" lon="-3.44979">
        <ele>103.96</ele>
        <time>2021-03-20T17:20:28Z</time>
      </trkpt>
      <trkpt lat="55.29676" lon="-3.45024">
        <ele>103.79</ele>
        <time>2021-03-20T17:20:33Z</time>
      </trkpt>
      <trkpt lat="55.29812" lon="-3.45053">
        <ele>109.86</ele>
        <time>2021-03-20T17:20:38Z</time>
      </trkpt>
      <trkpt lat="55.30004" lon="-3.45104">
        <ele>105.38</ele>
        <time>2021-03-20T17:20:43Z</time>
      </trkpt>
      <trkpt lat="55.30194" lon="-3.45163">
        <ele>107.03</ele>
        <time>2021-03-20T17:20:48Z</time>
      </trkpt>
      <trkpt lat="55.30255" lon="-3.45207">
        <ele>106.36</ele>
        <time>2021-03-20T17:20:53Z</time>
      </trkpt>
      <trkpt lat="55.30291" lon="-3.45232">
        <ele>106.35</ele>
        <time>2021-03-20T17:20:58Z</time>
      </trkpt>
      <trkpt lat="55.30308" lon="-3.45247">
        <ele>106.89</ele>
        <time>2021-03-20T17:21:04Z</time>
      </trkpt>
      <trkpt lat="55.30326" lon="-3.45245">
        <ele>106.96</ele>
        <time>2021-03-20T17:21:09Z</time>
      </trkpt>
      <trkpt lat="55.30347" lon="-3.45231">
        <ele>107</ele>
        <time>2021-03-20T17:21:14Z</time>
      </trkpt>
      <trkpt lat="55.30362" lon="-3.45204">
        <ele>107.03</ele>
        <time>2021-03-20T17:21:19Z</time>
      </trkpt>
      <trkpt lat="55.30381" lon="-3.45154">
        <ele>107</ele>
        <time>2021-03-20T17:21:24Z</time>
      </trkpt>
      <trkpt lat="55.30414" lon="-3.45112">
        <ele>106.03</ele>
        <time>2021-03-20T17:21:29Z</time>
      </trkpt>
      <trkpt lat="55.3045" lon="-3.45084">
        <ele>106.19</ele>
        <time>2021-03-20T17:21:34Z</time>
      </trkpt>
      <trkpt lat="55.30492" lon="-3.45076">
        <ele>106.74</ele>
        <time>2021-03-20T17:21:39Z</time>
      </trkpt>
      <trkpt lat="55.30543" lon="-3.45102">
        <ele>108.29</ele>
        <time>2021-03-20T17:21:44Z</time>
      </trkpt>
      <trkpt lat="55.30903" lon="-3.45351">
        <ele>115.83</ele>
        <time>2021-03-20T17:21:49Z</time>
      </trkpt>
      <trkpt lat="55.30977" lon="-3.454">
        <ele>114.44</ele>
        <time>2021-03-20T17:21:54Z</time>
      </trkpt>
      <trkpt lat="55.31048" lon="-3.45422">
        <ele>107.87</ele>
        <time>2021-03-20T17:21:59Z</time>
      </trkpt>
      <trkpt lat="55.31076" lon="-3.45426">
        <ele>107</ele>
        <time>2021-03-20T17:22:04Z</time>
      </trkpt>
      <trkpt lat="55.31092" lon="-3.45421">
        <ele>107.32</ele>
        <time>2021-03-20T17:22:09Z</time>
      </trkpt>
      <trkpt lat="55.31109" lon="-3.45409">
        <ele>107.66</ele>
        <time>2021-03-20T17:22:14Z</time>
      </trkpt>
      <trkpt lat="55.31127" lon="-3.45387">
        <ele>108.11</ele>
        <time>2021-03-20T17:22:19Z</time>
      </trkpt>
      <trkpt lat="55.31135" lon="-3.45381">
        <ele>108.69</ele>
        <time>2021-03-20T17:22:24Z</time>
      </trkpt>
      <trkpt lat="55.31145" lon="-3.45378">
        <ele>109</ele>
        <time>2021-03-20T17:22:29Z</time>
      </trkpt>
      <trkpt lat="55.31157" lon="-3.45386">
        <ele>109</ele>
        <time>2021-03-20T17:22:34Z</time>
      </trkpt>
      <trkpt lat="55.31165" lon="-3.45402">
        <ele>109.44</ele>
        <time>2021-03-20T17:22:39Z</time>
      </trkpt>
      <trkpt lat="55.31167" lon="-3.45411">
        <ele>109.8</ele>
        <time>2021-03-20T17:22:44Z</time>
      </trkpt>
      <trkpt lat="55.31167" lon="-3.45417">
        <ele>110</ele>
        <time>2021-03-20T17:22:50Z</time>
      </trkpt>
      <trkpt lat="55.31161" lon="-3.45442">
        <ele>109.78</ele>
        <time>2021-03-20T17:22:55Z</time>
      </trkpt>
      <trkpt lat="55.31148" lon="-3.45476">
        <ele>108.64</ele>
        <time>2021-03-20T17:23:00Z</time>
      </trkpt>
      <trkpt lat="55.31147" lon="-3.45502">
        <ele>108.56</ele>
        <time>2021-03-20T17:23:05Z</time>
      </trkpt>
      <trkpt lat="55.31176" lon="-3.45558">
        <ele>110.25</ele>
        <time>2021-03-20T17:23:10Z</time>
      </trkpt>
      <trkpt lat="55.31232" lon="-3.4563">
        <ele>110.11</ele>
        <time>2021-03-20T17:23:15Z</time>
      </trkpt>
      <trkpt lat="55.31297" lon="-3.45707">
        <ele>112.7</ele>
        <time>2021-03-20T17:23:20Z</time>
      </trkpt>
      <trkpt lat="55.3137" lon="-3.45799">
        <ele>114.79</ele>
        <time>2021-03-20T17:23:26Z</time>
      </trkpt>
      <trkpt lat="55.31414" lon="-3.45862">
        <ele>117.83</ele>
        <time>2021-03-20T17:23:31Z</time>
      </trkpt>
      <trkpt lat="55.31493" lon="-3.45982">
        <ele>121.49</ele>
        <time>2021-03-20T17:23:36Z</time>
      </trkpt>
      <trkpt lat="55.31591" lon="-3.46149">
        <ele>124.52</ele>
        <time>2021-03-20T17:23:41Z</time>
      </trkpt>
      <trkpt lat="55.31624" lon="-3.46219">
        <ele>124.58</ele>
        <time>2021-03-20T17:23:46Z</time>
      </trkpt>
      <trkpt lat="55.31693" lon="-3.46339">
        <ele>126.08</ele>
        <time>2021-03-20T17:23:51Z</time>
      </trkpt>
      <trkpt lat="55.31766" lon="-3.46451">
        <ele>129.79</ele>
        <time>2021-03-20T17:23:56Z</time>
      </trkpt>
      <trkpt lat="55.31846" lon="-3.46553">
        <ele>128.88</ele>
        <time>2021-03-20T17:24:01Z</time>
      </trkpt>
      <trkpt lat="55.31926" lon="-3.4664">
        <ele>133</ele>
        <time>2021-03-20T17:24:07Z</time>
      </trkpt>
      <trkpt lat="55.31991" lon="-3.467">
        <ele>134.52</ele>
        <time>2021-03-20T17:24:12Z</time>
      </trkpt>
      <trkpt lat="55.32058" lon="-3.46753">
        <ele>136.92</ele>
        <time>2021-03-20T17:24:17Z</time>
      </trkpt>
      <trkpt lat="55.32256" lon="-3.46873">
        <ele>133.84</ele>
        <time>2021-03-20T17:24:22Z</time>
      </trkpt>
      <trkpt lat="55.3234" lon="-3.46929">
        <ele>135.82</ele>
        <time>2021-03-20T17:24:27Z</time>
      </trkpt>
      <trkpt lat="55.32435" lon="-3.47009">
        <ele>136.34</ele>
        <time>2021-03-20T17:24:32Z</time>
      </trkpt>
      <trkpt lat="55.32616" lon="-3.4718">
        <ele>138.6</ele>
        <time>2021-03-20T17:24:37Z</time>
      </trkpt>
      <trkpt lat="55.32699" lon="-3.47284">
        <ele>139.49</ele>
        <time>2021-03-20T17:24:42Z</time>
      </trkpt>
      <trkpt lat="55.32787" lon="-3.47391">
        <ele>144.28</ele>
        <time>2021-03-20T17:24:48Z</time>
      </trkpt>
      <trkpt lat="55.32864" lon="-3.47488">
        <ele>144</ele>
        <time>2021-03-20T17:24:53Z</time>
      </trkpt>
      <trkpt lat="55.33073" lon="-3.47685">
        <ele>141.15</ele>
        <time>2021-03-20T17:24:58Z</time>
      </trkpt>
      <trkpt lat="55.33119" lon="-3.47745">
        <ele>142.28</ele>
        <time>2021-03-20T17:25:03Z</time>
      </trkpt>
      <trkpt lat="55.33155" lon="-3.47799">
        <ele>144.99</ele>
        <time>2021-03-20T17:25:08Z</time>
      </trkpt>
      <trkpt lat="55.33232" lon="-3.47942">
        <ele>142.37</ele>
        <time>2021-03-20T17:25:13Z</time>
      </trkpt>
      <trkpt lat="55.33267" lon="-3.48004">
        <ele>144.16</ele>
        <time>2021-03-20T17:25:18Z</time>
      </trkpt>
      <trkpt lat="55.33371" lon="-3.48145">
        <ele>145.64</ele>
        <time>2021-03-20T17:25:24Z</time>
      </trkpt>
      <trkpt lat="55.33546" lon="-3.4834">
        <ele>150.23</ele>
        <time>2021-03-20T17:25:29Z</time>
      </trkpt>
      <trkpt lat="55.33623" lon="-3.48429">
        <ele>151.73</ele>
        <time>2021-03-20T17:25:34Z</time>
      </trkpt>
      <trkpt lat="55.33723" lon="-3.48564">
        <ele>152.26</ele>
        <time>2021-03-20T17:25:39Z</time>
      </trkpt>
      <trkpt lat="55.33808" lon="-3.48691">
        <ele>151.78</ele>
        <time>2021-03-20T17:25:44Z</time>
      </trkpt>
      <trkpt lat="55.33897" lon="-3.48869">
        <ele>153.9</ele>
        <time>2021-03-20T17:25:49Z</time>
      </trkpt>
      <trkpt lat="55.34002" lon="-3.49133">
        <ele>158.71</ele>
        <time>2021-03-20T17:25:54Z</time>
      </trkpt>
      <trkpt lat="55.34101" lon="-3.49426">
        <ele>159.99</ele>
        <time>2021-03-20T17:25:59Z</time>
      </trkpt>
      <trkpt lat="55.34236" lon="-3.4984">
        <ele>163.44</ele>
        <time>2021-03-20T17:26:05Z</time>
      </trkpt>
      <trkpt lat="55.34277" lon="-3.49931">
        <ele>163.15</ele>
        <time>2021-03-20T17:26:10Z</time>
      </trkpt>
      <trkpt lat="55.34397" lon="-3.50136">
        <ele>163.89</ele>
        <time>2021-03-20T17:26:15Z</time>
      </trkpt>
      <trkpt lat="55.34523" lon="-3.50323">
        <ele>166.89</ele>
        <time>2021-03-20T17:26:20Z</time>
      </trkpt>
      <trkpt lat="55.34639" lon="-3.50465">
        <ele>170.45</ele>
        <time>2021-03-20T17:26:25Z</time>
      </trkpt>
      <trkpt lat="55.34734" lon="-3.50561">
        <ele>172.21</ele>
        <time>2021-03-20T17:26:30Z</time>
      </trkpt>
      <trkpt lat="55.3491" lon="-3.50688">
        <ele>174.56</ele>
        <time>2021-03-20T17:26:35Z</time>
      </trkpt>
      <trkpt lat="55.3519" lon="-3.50911">
        <ele>181.57</ele>
        <time>2021-03-20T17:26:41Z</time>
      </trkpt>
      <trkpt lat="55.35289" lon="-3.51007">
        <ele>184.46</ele>
        <time>2021-03-20T17:26:46Z</time>
      </trkpt>
      <trkpt lat="55.35421" lon="-3.5115">
        <ele>184.44</ele>
        <time>2021-03-20T17:26:51Z</time>
      </trkpt>
      <trkpt lat="55.35644" lon="-3.51416">
        <ele>186.59</ele>
        <time>2021-03-20T17:26:56Z</time>
      </trkpt>
      <trkpt lat="55.35706" lon="-3.51477">
        <ele>188.34</ele>
        <time>2021-03-20T17:27:01Z</time>
      </trkpt>
      <trkpt lat="55.35758" lon="-3.51523">
        <ele>191.33</ele>
        <time>2021-03-20T17:27:06Z</time>
      </trkpt>
      <trkpt lat="55.3582" lon="-3.5157">
        <ele>191.76</ele>
        <time>2021-03-20T17:27:11Z</time>
      </trkpt>
      <trkpt lat="55.35875" lon="-3.516">
        <ele>190.58</ele>
        <time>2021-03-20T17:27:16Z</time>
      </trkpt>
      <trkpt lat="55.35979" lon="-3.51643">
        <ele>191.16</ele>
        <time>2021-03-20T17:27:22Z</time>
      </trkpt>
      <trkpt lat="55.36035" lon="-3.51655">
        <ele>191.35</ele>
        <time>2021-03-20T17:27:27Z</time>
      </trkpt>
      <trkpt lat="55.36134" lon="-3.51671">
        <ele>190.12</ele>
        <time>2021-03-20T17:27:32Z</time>
      </trkpt>
      <trkpt lat="55.36189" lon="-3.51675">
        <ele>190.29</ele>
        <time>2021-03-20T17:27:37Z</time>
      </trkpt>
      <trkpt lat="55.36352" lon="-3.51664">
        <ele>191.9</ele>
        <time>2021-03-20T17:27:42Z</time>
      </trkpt>
      <trkpt lat="55.3656" lon="-3.51603">
        <ele>196.6</ele>
        <time>2021-03-20T17:27:47Z</time>
      </trkpt>
      <trkpt lat="55.36691" lon="-3.51553">
        <ele>196.78</ele>
        <time>2021-03-20T17:27:52Z</time>
      </trkpt>
      <trkpt lat="55.36886" lon="-3.51495">
        <ele>207.41</ele>
        <time>2021-03-20T17:27:58Z</time>
      </trkpt>
      <trkpt lat="55.37023" lon="-3.51473">
        <ele>209.86</ele>
        <time>2021-03-20T17:28:03Z</time>
      </trkpt>
      <trkpt lat="55.37079" lon="-3.5147">
        <ele>209.65</ele>
        <time>2021-03-20T17:28:08Z</time>
      </trkpt>
      <trkpt lat="55.37136" lon="-3.51478">
        <ele>210.41</ele>
        <time>2021-03-20T17:28:13Z</time>
      </trkpt>
      <trkpt lat="55.37269" lon="-3.51533">
        <ele>208.8</ele>
        <time>2021-03-20T17:28:18Z</time>
      </trkpt>
      <trkpt lat="55.37373" lon="-3.51607">
        <ele>208.86</ele>
        <time>2021-03-20T17:28:23Z</time>
      </trkpt>
      <trkpt lat="55.37543" lon="-3.51771">
        <ele>207.44</ele>
        <time>2021-03-20T17:28:28Z</time>
      </trkpt>
      <trkpt lat="55.37585" lon="-3.51821">
        <ele>208.54</ele>
        <time>2021-03-20T17:28:33Z</time>
      </trkpt>
      <trkpt lat="55.37935" lon="-3.52173">
        <ele>214.97</ele>
        <time>2021-03-20T17:28:39Z</time>
      </trkpt>
      <trkpt lat="55.38022" lon="-3.52241">
        <ele>218.69</ele>
        <time>2021-03-20T17:28:44Z</time>
      </trkpt>
      <trkpt lat="55.38103" lon="-3.52291">
        <ele>221.2</ele>
        <time>2021-03-20T17:28:49Z</time>
      </trkpt>
      <trkpt lat="55.38184" lon="-3.5233">
        <ele>221.87</ele>
        <time>2021-03-20T17:28:54Z</time>
      </trkpt>
      <trkpt lat="55.38439" lon="-3.52377">
        <ele>219.32</ele>
        <time>2021-03-20T17:28:59Z</time>
      </trkpt>
      <trkpt lat="55.38643" lon="-3.52406">
        <ele>224.31</ele>
        <time>2021-03-20T17:29:04Z</time>
      </trkpt>
      <trkpt lat="55.38704" lon="-3.52405">
        <ele>224.07</ele>
        <time>2021-03-20T17:29:09Z</time>
      </trkpt>
      <trkpt lat="55.38766" lon="-3.52394">
        <ele>222.79</ele>
        <time>2021-03-20T17:29:14Z</time>
      </trkpt>
      <trkpt lat="55.38847" lon="-3.52369">
        <ele>223.25</ele>
        <time>2021-03-20T17:29:20Z</time>
      </trkpt>
      <trkpt lat="55.38893" lon="-3.52357">
        <ele>224.57</ele>
        <time>2021-03-20T17:29:25Z</time>
      </trkpt>
      <trkpt lat="55.38938" lon="-3.52352">
        <ele>224.98</ele>
        <time>2021-03-20T17:29:30Z</time>
      </trkpt>
      <trkpt lat="55.38991" lon="-3.52356">
        <ele>225.63</ele>
        <time>2021-03-20T17:29:35Z</time>
      </trkpt>
      <trkpt lat="55.39047" lon="-3.52373">
        <ele>226.44</ele>
        <time>2021-03-20T17:29:40Z</time>
      </trkpt>
      <trkpt lat="55.39072" lon="-3.52385">
        <ele>226.35</ele>
        <time>2021-03-20T17:29:45Z</time>
      </trkpt>
      <trkpt lat="55.39114" lon="-3.5241">
        <ele>225.79</ele>
        <time>2021-03-20T17:29:50Z</time>
      </trkpt>
      <trkpt lat="55.39145" lon="-3.52432">
        <ele>226.44</ele>
        <time>2021-03-20T17:29:56Z</time>
      </trkpt>
      <trkpt lat="55.39207" lon="-3.52481">
        <ele>227.82</ele>
        <time>2021-03-20T17:30:01Z</time>
      </trkpt>
      <trkpt lat="55.39319" lon="-3.52582">
        <ele>231.54</ele>
        <time>2021-03-20T17:30:06Z</time>
      </trkpt>
      <trkpt lat="55.39421" lon="-3.52684">
        <ele>234.58</ele>
        <time>2021-03-20T17:30:11Z</time>
      </trkpt>
      <trkpt lat="55.39462" lon="-3.52731">
        <ele>235.15</ele>
        <time>2021-03-20T17:30:16Z</time>
      </trkpt>
      <trkpt lat="55.39494" lon="-3.52773">
        <ele>235.26</ele>
        <time>2021-03-20T17:30:21Z</time>
      </trkpt>
      <trkpt lat="55.39537" lon="-3.52841">
        <ele>234.39</ele>
        <time>2021-03-20T17:30:26Z</time>
      </trkpt>
      <trkpt lat="55.39568" lon="-3.52899">
        <ele>235.75</ele>
        <time>2021-03-20T17:30:31Z</time>
      </trkpt>
      <trkpt lat="55.39593" lon="-3.52951">
        <ele>236.6</ele>
        <time>2021-03-20T17:30:37Z</time>
      </trkpt>
      <trkpt lat="55.3962" lon="-3.53016">
        <ele>238.51</ele>
        <time>2021-03-20T17:30:42Z</time>
      </trkpt>
      <trkpt lat="55.39654" lon="-3.53121">
        <ele>238.71</ele>
        <time>2021-03-20T17:30:47Z</time>
      </trkpt>
      <trkpt lat="55.3967" lon="-3.53181">
        <ele>239.13</ele>
        <time>2021-03-20T17:30:52Z</time>
      </trkpt>
      <trkpt lat="55.39689" lon="-3.53267">
        <ele>240.61</ele>
        <time>2021-03-20T17:30:57Z</time>
      </trkpt>
      <trkpt lat="55.39699" lon="-3.53321">
        <ele>242.75</ele>
        <time>2021-03-20T17:31:02Z</time>
      </trkpt>
      <trkpt lat="55.39706" lon="-3.5338">
        <ele>245.14</ele>
        <time>2021-03-20T17:31:07Z</time>
      </trkpt>
      <trkpt lat="55.39711" lon="-3.53435">
        <ele>246.42</ele>
        <time>2021-03-20T17:31:13Z</time>
      </trkpt>
      <trkpt lat="55.39713" lon="-3.53477">
        <ele>247.85</ele>
        <time>2021-03-20T17:31:18Z</time>
      </trkpt>
      <trkpt lat="55.39713" lon="-3.53521">
        <ele>248.39</ele>
        <time>2021-03-20T17:31:23Z</time>
      </trkpt>
      <trkpt lat="55.39711" lon="-3.53567">
        <ele>248.39</ele>
        <time>2021-03-20T17:31:28Z</time>
      </trkpt>
      <trkpt lat="55.39704" lon="-3.5363">
        <ele>249.24</ele>
        <time>2021-03-20T17:31:33Z</time>
      </trkpt>
      <trkpt lat="55.39699" lon="-3.53665">
        <ele>248.72</ele>
        <time>2021-03-20T17:31:38Z</time>
      </trkpt>
      <trkpt lat="55.39664" lon="-3.53845">
        <ele>248.77</ele>
        <time>2021-03-20T17:31:43Z</time>
      </trkpt>
      <trkpt lat="55.39653" lon="-3.53913">
        <ele>249.74</ele>
        <time>2021-03-20T17:31:48Z</time>
      </trkpt>
      <trkpt lat="55.39643" lon="-3.53998">
        <ele>252.36</ele>
        <time>2021-03-20T17:31:54Z</time>
      </trkpt>
      <trkpt lat="55.3964" lon="-3.54106">
        <ele>252.85</ele>
        <time>2021-03-20T17:31:59Z</time>
      </trkpt>
      <trkpt lat="55.39643" lon="-3.54182">
        <ele>255.06</ele>
        <time>2021-03-20T17:32:04Z</time>
      </trkpt>
      <trkpt lat="55.3965" lon="-3.54255">
        <ele>256.36</ele>
        <time>2021-03-20T17:32:09Z</time>
      </trkpt>
      <trkpt lat="55.39664" lon="-3.54352">
        <ele>255.31</ele>
        <time>2021-03-20T17:32:14Z</time>
      </trkpt>
      <trkpt lat="55.397" lon="-3.54533">
        <ele>257.74</ele>
        <time>2021-03-20T17:32:19Z</time>
      </trkpt>
      <trkpt lat="55.39758" lon="-3.54761">
        <ele>260.55</ele>
        <time>2021-03-20T17:32:24Z</time>
      </trkpt>
      <trkpt lat="55.39818" lon="-3.5494">
        <ele>262.93</ele>
        <time>2021-03-20T17:32:29Z</time>
      </trkpt>
      <trkpt lat="55.39892" lon="-3.55095">
        <ele>258.03</ele>
        <time>2021-03-20T17:32:35Z</time>
      </trkpt>
      <trkpt lat="55.3998" lon="-3.5526">
        <ele>260</ele>
        <time>2021-03-20T17:32:40Z</time>
      </trkpt>
      <trkpt lat="55.40079" lon="-3.55414">
        <ele>262.8</ele>
        <time>2021-03-20T17:32:45Z</time>
      </trkpt>
      <trkpt lat="55.40162" lon="-3.5552">
        <ele>263.44</ele>
        <time>2021-03-20T17:32:50Z</time>
      </trkpt>
      <trkpt lat="55.40314" lon="-3.55693">
        <ele>270.23</ele>
        <time>2021-03-20T17:32:55Z</time>
      </trkpt>
      <trkpt lat="55.40504" lon="-3.55914">
        <ele>281.51</ele>
        <time>2021-03-20T17:33:00Z</time>
      </trkpt>
      <trkpt lat="55.40584" lon="-3.56056">
        <ele>286.8</ele>
        <time>2021-03-20T17:33:05Z</time>
      </trkpt>
      <trkpt lat="55.40624" lon="-3.56129">
        <ele>289.31</ele>
        <time>2021-03-20T17:33:11Z</time>
      </trkpt>
      <trkpt lat="55.40682" lon="-3.5626">
        <ele>295.22</ele>
        <time>2021-03-20T17:33:16Z</time>
      </trkpt>
      <trkpt lat="55.40733" lon="-3.56386">
        <ele>295.45</ele>
        <time>2021-03-20T17:33:21Z</time>
      </trkpt>
      <trkpt lat="55.40786" lon="-3.56534">
        <ele>297.19</ele>
        <time>2021-03-20T17:33:26Z</time>
      </trkpt>
      <trkpt lat="55.40858" lon="-3.56771">
        <ele>295.68</ele>
        <time>2021-03-20T17:33:31Z</time>
      </trkpt>
      <trkpt lat="55.40886" lon="-3.56887">
        <ele>293.5</ele>
        <time>2021-03-20T17:33:36Z</time>
      </trkpt>
      <trkpt lat="55.40901" lon="-3.56958">
        <ele>294.92</ele>
        <time>2021-03-20T17:33:41Z</time>
      </trkpt>
      <trkpt lat="55.40912" lon="-3.57024">
        <ele>295.48</ele>
        <time>2021-03-20T17:33:46Z</time>
      </trkpt>
      <trkpt lat="55.40919" lon="-3.57073">
        <ele>295.09</ele>
        <time>2021-03-20T17:33:52Z</time>
      </trkpt>
      <trkpt lat="55.40938" lon="-3.57269">
        <ele>297.77</ele>
        <time>2021-03-20T17:33:57Z</time>
      </trkpt>
      <trkpt lat="55.40955" lon="-3.575">
        <ele>300.78</ele>
        <time>2021-03-20T17:34:02Z</time>
      </trkpt>
      <trkpt lat="55.40966" lon="-3.57579">
        <ele>300.92</ele>
        <time>2021-03-20T17:34:07Z</time>
      </trkpt>
      <trkpt lat="55.40982" lon="-3.57655">
        <ele>301.5</ele>
        <time>2021-03-20T17:34:12Z</time>
      </trkpt>
      <trkpt lat="55.41004" lon="-3.57737">
        <ele>302.14</ele>
        <time>2021-03-20T17:34:17Z</time>
      </trkpt>
      <trkpt lat="55.41033" lon="-3.57824">
        <ele>302.19</ele>
        <time>2021-03-20T17:34:22Z</time>
      </trkpt>
      <trkpt lat="55.4107" lon="-3.57912">
        <ele>302</ele>
        <time>2021-03-20T17:34:28Z</time>
      </trkpt>
      <trkpt lat="55.41108" lon="-3.57986">
        <ele>303</ele>
        <time>2021-03-20T17:34:33Z</time>
      </trkpt>
      <trkpt lat="55.41144" lon="-3.58039">
        <ele>304.18</ele>
        <time>2021-03-20T17:34:38Z</time>
      </trkpt>
      <trkpt lat="55.4118" lon="-3.58087">
        <ele>305</ele>
        <time>2021-03-20T17:34:43Z</time>
      </trkpt>
      <trkpt lat="55.4122" lon="-3.58133">
        <ele>305.98</ele>
        <time>2021-03-20T17:34:48Z</time>
      </trkpt>
      <trkpt lat="55.41283" lon="-3.58197">
        <ele>305.19</ele>
        <time>2021-03-20T17:34:53Z</time>
      </trkpt>
      <trkpt lat="55.41479" lon="-3.58386">
        <ele>308.89</ele>
        <time>2021-03-20T17:34:58Z</time>
      </trkpt>
      <trkpt lat="55.41622" lon="-3.58515">
        <ele>310.83</ele>
        <time>2021-03-20T17:35:03Z</time>
      </trkpt>
      <trkpt lat="55.41715" lon="-3.58609">
        <ele>311.51</ele>
        <time>2021-03-20T17:35:09Z</time>
      </trkpt>
      <trkpt lat="55.41835" lon="-3.58721">
        <ele>313.78</ele>
        <time>2021-03-20T17:35:14Z</time>
      </trkpt>
      <trkpt lat="55.41948" lon="-3.58839">
        <ele>313.37</ele>
        <time>2021-03-20T17:35:19Z</time>
      </trkpt>
      <trkpt lat="55.42044" lon="-3.58948">
        <ele>317.35</ele>
        <time>2021-03-20T17:35:24Z</time>
      </trkpt>
      <trkpt lat="55.42123" lon="-3.59059">
        <ele>315.22</ele>
        <time>2021-03-20T17:35:29Z</time>
      </trkpt>
      <trkpt lat="55.42174" lon="-3.59147">
        <ele>316.55</ele>
        <time>2021-03-20T17:35:34Z</time>
      </trkpt>
      <trkpt lat="55.42217" lon="-3.59228">
        <ele>316.03</ele>
        <time>2021-03-20T17:35:39Z</time>
      </trkpt>
      <trkpt lat="55.42252" lon="-3.59306">
        <ele>315</ele>
        <time>2021-03-20T17:35:45Z</time>
      </trkpt>
      <trkpt lat="55.42292" lon="-3.59405">
        <ele>314.31</ele>
        <time>2021-03-20T17:35:50Z</time>
      </trkpt>
      <trkpt lat="55.42345" lon="-3.59569">
        <ele>312.33</ele>
        <time>2021-03-20T17:35:55Z</time>
      </trkpt>
      <trkpt lat="55.42382" lon="-3.59727">
        <ele>311.03</ele>
        <time>2021-03-20T17:36:00Z</time>
      </trkpt>
      <trkpt lat="55.42414" lon="-3.59871">
        <ele>307.4</ele>
        <time>2021-03-20T17:36:05Z</time>
      </trkpt>
      <trkpt lat="55.42559" lon="-3.60581">
        <ele>301</ele>
        <time>2021-03-20T17:36:10Z</time>
      </trkpt>
      <trkpt lat="55.42579" lon="-3.6069">
        <ele>301.14</ele>
        <time>2021-03-20T17:36:15Z</time>
      </trkpt>
      <trkpt lat="55.42616" lon="-3.60836">
        <ele>301.02</ele>
        <time>2021-03-20T17:36:20Z</time>
      </trkpt>
      <trkpt lat="55.4265" lon="-3.60948">
        <ele>302.68</ele>
        <time>2021-03-20T17:36:26Z</time>
      </trkpt>
      <trkpt lat="55.42663" lon="-3.60979">
        <ele>302.51</ele>
        <time>2021-03-20T17:36:31Z</time>
      </trkpt>
      <trkpt lat="55.42712" lon="-3.61143">
        <ele>301.85</ele>
        <time>2021-03-20T17:36:36Z</time>
      </trkpt>
      <trkpt lat="55.42734" lon="-3.61243">
        <ele>300.41</ele>
        <time>2021-03-20T17:36:41Z</time>
      </trkpt>
      <trkpt lat="55.42742" lon="-3.61351">
        <ele>297.08</ele>
        <time>2021-03-20T17:36:46Z</time>
      </trkpt>
      <trkpt lat="55.42744" lon="-3.61481">
        <ele>295</ele>
        <time>2021-03-20T17:36:51Z</time>
      </trkpt>
      <trkpt lat="55.42752" lon="-3.61586">
        <ele>295</ele>
        <time>2021-03-20T17:36:56Z</time>
      </trkpt>
      <trkpt lat="55.4277" lon="-3.61678">
        <ele>295.29</ele>
        <time>2021-03-20T17:37:01Z</time>
      </trkpt>
      <trkpt lat="55.42808" lon="-3.61786">
        <ele>294.82</ele>
        <time>2021-03-20T17:37:07Z</time>
      </trkpt>
      <trkpt lat="55.42838" lon="-3.61836">
        <ele>294.93</ele>
        <time>2021-03-20T17:37:12Z</time>
      </trkpt>
      <trkpt lat="55.42904" lon="-3.61927">
        <ele>295.55</ele>
        <time>2021-03-20T17:37:17Z</time>
      </trkpt>
      <trkpt lat="55.42941" lon="-3.61986">
        <ele>296.73</ele>
        <time>2021-03-20T17:37:22Z</time>
      </trkpt>
      <trkpt lat="55.42975" lon="-3.62071">
        <ele>298.58</ele>
        <time>2021-03-20T17:37:27Z</time>
      </trkpt>
      <trkpt lat="55.42986" lon="-3.6212">
        <ele>298.68</ele>
        <time>2021-03-20T17:37:32Z</time>
      </trkpt>
      <trkpt lat="55.4299" lon="-3.6216">
        <ele>298.28</ele>
        <time>2021-03-20T17:37:37Z</time>
      </trkpt>
      <trkpt lat="55.42993" lon="-3.62278">
        <ele>296.73</ele>
        <time>2021-03-20T17:37:43Z</time>
      </trkpt>
      <trkpt lat="55.42965" lon="-3.62523">
        <ele>292.12</ele>
        <time>2021-03-20T17:37:48Z</time>
      </trkpt>
      <trkpt lat="55.4296" lon="-3.62615">
        <ele>290.35</ele>
        <time>2021-03-20T17:37:53Z</time>
      </trkpt>
      <trkpt lat="55.42961" lon="-3.62793">
        <ele>286.86</ele>
        <time>2021-03-20T17:37:58Z</time>
      </trkpt>
      <trkpt lat="55.42967" lon="-3.62902">
        <ele>287.98</ele>
        <time>2021-03-20T17:38:03Z</time>
      </trkpt>
      <trkpt lat="55.42985" lon="-3.63051">
        <ele>287.06</ele>
        <time>2021-03-20T17:38:08Z</time>
      </trkpt>
      <trkpt lat="55.43003" lon="-3.63183">
        <ele>285.92</ele>
        <time>2021-03-20T17:38:13Z</time>
      </trkpt>
      <trkpt lat="55.43099" lon="-3.63671">
        <ele>281.51</ele>
        <time>2021-03-20T17:38:18Z</time>
      </trkpt>
      <trkpt lat="55.43124" lon="-3.63786">
        <ele>280.6</ele>
        <time>2021-03-20T17:38:24Z</time>
      </trkpt>
      <trkpt lat="55.43154" lon="-3.639">
        <ele>280</ele>
        <time>2021-03-20T17:38:29Z</time>
      </trkpt>
      <trkpt lat="55.43192" lon="-3.64014">
        <ele>282.01</ele>
        <time>2021-03-20T17:38:34Z</time>
      </trkpt>
      <trkpt lat="55.43224" lon="-3.64097">
        <ele>286.56</ele>
        <time>2021-03-20T17:38:39Z</time>
      </trkpt>
      <trkpt lat="55.43273" lon="-3.6419">
        <ele>284.99</ele>
        <time>2021-03-20T17:38:44Z</time>
      </trkpt>
      <trkpt lat="55.43325" lon="-3.6427">
        <ele>279.44</ele>
        <time>2021-03-20T17:38:49Z</time>
      </trkpt>
      <trkpt lat="55.43362" lon="-3.64314">
        <ele>281.77</ele>
        <time>2021-03-20T17:38:54Z</time>
      </trkpt>
      <trkpt lat="55.43407" lon="-3.64355">
        <ele>280.55</ele>
        <time>2021-03-20T17:39:00Z</time>
      </trkpt>
      <trkpt lat="55.43536" lon="-3.64445">
        <ele>278.46</ele>
        <time>2021-03-20T17:39:05Z</time>
      </trkpt>
      <trkpt lat="55.4367" lon="-3.64558">
        <ele>278.92</ele>
        <time>2021-03-20T17:39:10Z</time>
      </trkpt>
      <trkpt lat="55.4376" lon="-3.64647">
        <ele>276.81</ele>
        <time>2021-03-20T17:39:15Z</time>
      </trkpt>
      <trkpt lat="55.43853" lon="-3.64757">
        <ele>275.83</ele>
        <time>2021-03-20T17:39:20Z</time>
      </trkpt>
      <trkpt lat="55.43947" lon="-3.64881">
        <ele>278</ele>
        <time>2021-03-20T17:39:25Z</time>
      </trkpt>
      <trkpt lat="55.44042" lon="-3.64996">
        <ele>279.2</ele>
        <time>2021-03-20T17:39:30Z</time>
      </trkpt>
      <trkpt lat="55.44115" lon="-3.65061">
        <ele>282.97</ele>
        <time>2021-03-20T17:39:35Z</time>
      </trkpt>
      <trkpt lat="55.44185" lon="-3.65096">
        <ele>286.58</ele>
        <time>2021-03-20T17:39:41Z</time>
      </trkpt>
      <trkpt lat="55.44241" lon="-3.65113">
        <ele>284.85</ele>
        <time>2021-03-20T17:39:46Z</time>
      </trkpt>
      <trkpt lat="55.44307" lon="-3.65114">
        <ele>286.83</ele>
        <time>2021-03-20T17:39:51Z</time>
      </trkpt>
      <trkpt lat="55.44401" lon="-3.65095">
        <ele>286.03</ele>
        <time>2021-03-20T17:39:56Z</time>
      </trkpt>
      <trkpt lat="55.44412" lon="-3.65097">
        <ele>284.9</ele>
        <time>2021-03-20T17:40:01Z</time>
      </trkpt>
      <trkpt lat="55.44418" lon="-3.65104">
        <ele>283.18</ele>
        <time>2021-03-20T17:40:06Z</time>
      </trkpt>
      <trkpt lat="55.44422" lon="-3.65119">
        <ele>281.52</ele>
        <time>2021-03-20T17:40:09Z</time>
      </trkpt>
      <trkpt lat="55.44426" lon="-3.65126">
        <ele>281.11</ele>
        <time>2021-03-20T17:40:12Z</time>
      </trkpt>
      <trkpt lat="55.44432" lon="-3.6513">
        <ele>280.78</ele>
        <time>2021-03-20T17:40:15Z</time>
      </trkpt>
      <trkpt lat="55.44437" lon="-3.65131">
        <ele>280.55</ele>
        <time>2021-03-20T17:40:18Z</time>
      </trkpt>
      <trkpt lat="55.44443" lon="-3.65128">
        <ele>280.45</ele>
        <time>2021-03-20T17:40:22Z</time>
      </trkpt>
      <trkpt lat="55.44448" lon="-3.65122">
        <ele>280.23</ele>
        <time>2021-03-20T17:40:25Z</time>
      </trkpt>
      <trkpt lat="55.44452" lon="-3.65113">
        <ele>280.17</ele>
        <time>2021-03-20T17:40:28Z</time>
      </trkpt>
      <trkpt lat="55.44453" lon="-3.65103">
        <ele>281.48</ele>
        <time>2021-03-20T17:40:31Z</time>
      </trkpt>
      <trkpt lat="55.44453" lon="-3.65092">
        <ele>283.34</ele>
        <time>2021-03-20T17:40:34Z</time>
      </trkpt>
      <trkpt lat="55.44458" lon="-3.65076">
        <ele>285.16</ele>
        <time>2021-03-20T17:40:37Z</time>
      </trkpt>
      <trkpt lat="55.44466" lon="-3.65063">
        <ele>285.89</ele>
        <time>2021-03-20T17:40:40Z</time>
      </trkpt>
      <trkpt lat="55.44513" lon="-3.65042">
        <ele>283.27</ele>
        <time>2021-03-20T17:40:43Z</time>
      </trkpt>
      <trkpt lat="55.44594" lon="-3.65023">
        <ele>279.85</ele>
        <time>2021-03-20T17:40:46Z</time>
      </trkpt>
      <trkpt lat="55.44654" lon="-3.65023">
        <ele>272.52</ele>
        <time>2021-03-20T17:40:49Z</time>
      </trkpt>
      <trkpt lat="55.44737" lon="-3.65036">
        <ele>267.78</ele>
        <time>2021-03-20T17:40:52Z</time>
      </trkpt>
      <trkpt lat="55.44765" lon="-3.65047">
        <ele>266.06</ele>
        <time>2021-03-20T17:40:55Z</time>
      </trkpt>
      <trkpt lat="55.44802" lon="-3.6505">
        <ele>267.7</ele>
        <time>2021-03-20T17:40:58Z</time>
      </trkpt>
      <trkpt lat="55.44843" lon="-3.65038">
        <ele>267.57</ele>
        <time>2021-03-20T17:41:01Z</time>
      </trkpt>
      <trkpt lat="55.44878" lon="-3.65018">
        <ele>268.27</ele>
        <time>2021-03-20T17:41:04Z</time>
      </trkpt>
      <trkpt lat="55.44923" lon="-3.64978">
        <ele>268.21</ele>
        <time>2021-03-20T17:41:07Z</time>
      </trkpt>
      <trkpt lat="55.44971" lon="-3.64916">
        <ele>265.97</ele>
        <time>2021-03-20T17:41:10Z</time>
      </trkpt>
      <trkpt lat="55.45008" lon="-3.64878">
        <ele>266.59</ele>
        <time>2021-03-20T17:41:13Z</time>
      </trkpt>
      <trkpt lat="55.45051" lon="-3.65029">
        <ele>271</ele>
        <time>2021-03-20T17:41:15Z</time>
      </trkpt>
      <trkpt lat="55.45062" lon="-3.6507">
        <ele>271.21</ele>
        <time>2021-03-20T17:41:18Z</time>
      </trkpt>
      <trkpt lat="55.45068" lon="-3.65114">
        <ele>271.52</ele>
        <time>2021-03-20T17:41:20Z</time>
      </trkpt>
      <trkpt lat="55.45065" lon="-3.65146">
        <ele>272.33</ele>
        <time>2021-03-20T17:41:23Z</time>
      </trkpt>
      <trkpt lat="55.45057" lon="-3.65172">
        <ele>272.24</ele>
        <time>2021-03-20T17:41:26Z</time>
      </trkpt>
      <trkpt lat="55.45045" lon="-3.65193">
        <ele>272.57</ele>
        <time>2021-03-20T17:41:28Z</time>
      </trkpt>
      <trkpt lat="55.45036" lon="-3.65198">
        <ele>272.29</ele>
        <time>2021-03-20T17:41:31Z</time>
      </trkpt>
      <trkpt lat="55.45029" lon="-3.65199">
        <ele>272.03</ele>
        <time>2021-03-20T17:41:33Z</time>
      </trkpt>
      <trkpt lat="55.45022" lon="-3.65196">
        <ele>272</ele>
        <time>2021-03-20T17:41:36Z</time>
      </trkpt>
      <trkpt lat="55.45015" lon="-3.65192">
        <ele>271.91</ele>
        <time>2021-03-20T17:41:40Z</time>
      </trkpt>
      <trkpt lat="55.45008" lon="-3.65195">
        <ele>272</ele>
        <time>2021-03-20T17:41:43Z</time>
      </trkpt>
      <trkpt lat="55.45002" lon="-3.65205">
        <ele>272</ele>
        <time>2021-03-20T17:41:47Z</time>
      </trkpt>
      <trkpt lat="55.44995" lon="-3.65227">
        <ele>272.32</ele>
        <time>2021-03-20T17:41:51Z</time>
      </trkpt>
      <trkpt lat="55.44977" lon="-3.65255">
        <ele>273.35</ele>
        <time>2021-03-20T17:41:55Z</time>
      </trkpt>
      <trkpt lat="55.4494" lon="-3.65278">
        <ele>272.99</ele>
        <time>2021-03-20T17:41:59Z</time>
      </trkpt>
      <trkpt lat="55.44855" lon="-3.65289">
        <ele>272.63</ele>
        <time>2021-03-20T17:42:03Z</time>
      </trkpt>
      <trkpt lat="55.44822" lon="-3.65298">
        <ele>274.15</ele>
        <time>2021-03-20T17:42:07Z</time>
      </trkpt>
      <trkpt lat="55.44791" lon="-3.65319">
        <ele>275.22</ele>
        <time>2021-03-20T17:42:10Z</time>
      </trkpt>
      <trkpt lat="55.4475" lon="-3.65368">
        <ele>274.24</ele>
        <time>2021-03-20T17:42:14Z</time>
      </trkpt>
      <trkpt lat="55.4458" lon="-3.65684">
        <ele>276.49</ele>
        <time>2021-03-20T17:42:18Z</time>
      </trkpt>
      <trkpt lat="55.44562" lon="-3.65723">
        <ele>277.02</ele>
        <time>2021-03-20T17:42:22Z</time>
      </trkpt>
      <trkpt lat="55.44545" lon="-3.65766">
        <ele>278.19</ele>
        <time>2021-03-20T17:42:26Z</time>
      </trkpt>
      <trkpt lat="55.44528" lon="-3.65803">
        <ele>279.81</ele>
        <time>2021-03-20T17:42:30Z</time>
      </trkpt>
      <trkpt lat="55.44504" lon="-3.65836">
        <ele>281.1</ele>
        <time>2021-03-20T17:42:34Z</time>
      </trkpt>
      <trkpt lat="55.44401" lon="-3.65869">
        <ele>279.28</ele>
        <time>2021-03-20T17:42:38Z</time>
      </trkpt>
      <trkpt lat="55.44308" lon="-3.65894">
        <ele>280.27</ele>
        <time>2021-03-20T17:42:41Z</time>
      </trkpt>
      <trkpt lat="55.44046" lon="-3.65949">
        <ele>278.88</ele>
        <time>2021-03-20T17:42:45Z</time>
      </trkpt>
      <trkpt lat="55.43971" lon="-3.6598">
        <ele>279.01</ele>
        <time>2021-03-20T17:42:49Z</time>
      </trkpt>
      <trkpt lat="55.43908" lon="-3.6602">
        <ele>279.05</ele>
        <time>2021-03-20T17:42:53Z</time>
      </trkpt>
      <trkpt lat="55.43901" lon="-3.66069">
        <ele>280.14</ele>
        <time>2021-03-20T17:42:56Z</time>
      </trkpt>
      <trkpt lat="55.43896" lon="-3.6613">
        <ele>281.69</ele>
        <time>2021-03-20T17:43:00Z</time>
      </trkpt>
      <trkpt lat="55.43878" lon="-3.66548">
        <ele>289.62</ele>
        <time>2021-03-20T17:43:03Z</time>
      </trkpt>
      <trkpt lat="55.43872" lon="-3.66774">
        <ele>293.38</ele>
        <time>2021-03-20T17:43:07Z</time>
      </trkpt>
      <trkpt lat="55.43869" lon="-3.67093">
        <ele>298.39</ele>
        <time>2021-03-20T17:43:10Z</time>
      </trkpt>
      <trkpt lat="55.43842" lon="-3.67284">
        <ele>303.4</ele>
        <time>2021-03-20T17:43:14Z</time>
      </trkpt>
      <trkpt lat="55.4383" lon="-3.67392">
        <ele>305.46</ele>
        <time>2021-03-20T17:43:17Z</time>
      </trkpt>
      <trkpt lat="55.43829" lon="-3.67475">
        <ele>305.31</ele>
        <time>2021-03-20T17:43:20Z</time>
      </trkpt>
      <trkpt lat="55.4383" lon="-3.67571">
        <ele>306.27</ele>
        <time>2021-03-20T17:43:24Z</time>
      </trkpt>
      <trkpt lat="55.43837" lon="-3.6764">
        <ele>307.92</ele>
        <time>2021-03-20T17:43:27Z</time>
      </trkpt>
      <trkpt lat="55.4385" lon="-3.67741">
        <ele>309.01</ele>
        <time>2021-03-20T17:43:31Z</time>
      </trkpt>
      <trkpt lat="55.43877" lon="-3.6789">
        <ele>308.36</ele>
        <time>2021-03-20T17:43:34Z</time>
      </trkpt>
      <trkpt lat="55.43902" lon="-3.68005">
        <ele>311.13</ele>
        <time>2021-03-20T17:43:38Z</time>
      </trkpt>
      <trkpt lat="55.43927" lon="-3.68096">
        <ele>310.64</ele>
        <time>2021-03-20T17:43:41Z</time>
      </trkpt>
      <trkpt lat="55.43994" lon="-3.68312">
        <ele>312.11</ele>
        <time>2021-03-20T17:43:44Z</time>
      </trkpt>
      <trkpt lat="55.44007" lon="-3.68387">
        <ele>311.52</ele>
        <time>2021-03-20T17:43:48Z</time>
      </trkpt>
      <trkpt lat="55.44026" lon="-3.68526">
        <ele>312.53</ele>
        <time>2021-03-20T17:43:51Z</time>
      </trkpt>
      <trkpt lat="55.44038" lon="-3.6864">
        <ele>318.04</ele>
        <time>2021-03-20T17:43:55Z</time>
      </trkpt>
      <trkpt lat="55.43999" lon="-3.68815">
        <ele>311.08</ele>
        <time>2021-03-20T17:43:58Z</time>
      </trkpt>
      <trkpt lat="55.43938" lon="-3.6903">
        <ele>310.22</ele>
        <time>2021-03-20T17:44:02Z</time>
      </trkpt>
      <trkpt lat="55.43923" lon="-3.69089">
        <ele>312.67</ele>
        <time>2021-03-20T17:44:05Z</time>
      </trkpt>
      <trkpt lat="55.43896" lon="-3.69204">
        <ele>312.96</ele>
        <time>2021-03-20T17:44:08Z</time>
      </trkpt>
      <trkpt lat="55.43845" lon="-3.69438">
        <ele>313.27</ele>
        <time>2021-03-20T17:44:12Z</time>
      </trkpt>
      <trkpt lat="55.4376" lon="-3.69739">
        <ele>322.65</ele>
        <time>2021-03-20T17:44:15Z</time>
      </trkpt>
      <trkpt lat="55.4373" lon="-3.69826">
        <ele>323.61</ele>
        <time>2021-03-20T17:44:19Z</time>
      </trkpt>
      <trkpt lat="55.43678" lon="-3.69939">
        <ele>327.3</ele>
        <time>2021-03-20T17:44:22Z</time>
      </trkpt>
      <trkpt lat="55.43623" lon="-3.70053">
        <ele>326.43</ele>
        <time>2021-03-20T17:44:26Z</time>
      </trkpt>
      <trkpt lat="55.43603" lon="-3.70123">
        <ele>324.88</ele>
        <time>2021-03-20T17:44:29Z</time>
      </trkpt>
      <trkpt lat="55.43569" lon="-3.7035">
        <ele>324.55</ele>
        <time>2021-03-20T17:44:32Z</time>
      </trkpt>
      <trkpt lat="55.43556" lon="-3.70407">
        <ele>323.64</ele>
        <time>2021-03-20T17:44:36Z</time>
      </trkpt>
      <trkpt lat="55.43537" lon="-3.7044">
        <ele>322.14</ele>
        <time>2021-03-20T17:44:39Z</time>
      </trkpt>
      <trkpt lat="55.43484" lon="-3.70509">
        <ele>319.72</ele>
        <time>2021-03-20T17:44:43Z</time>
      </trkpt>
      <trkpt lat="55.43425" lon="-3.70624">
        <ele>320.61</ele>
        <time>2021-03-20T17:44:46Z</time>
      </trkpt>
      <trkpt lat="55.43381" lon="-3.7072">
        <ele>322.73</ele>
        <time>2021-03-20T17:44:50Z</time>
      </trkpt>
      <trkpt lat="55.43342" lon="-3.70798">
        <ele>322.96</ele>
        <time>2021-03-20T17:44:53Z</time>
      </trkpt>
      <trkpt lat="55.43297" lon="-3.70865">
        <ele>324.13</ele>
        <time>2021-03-20T17:44:56Z</time>
      </trkpt>
      <trkpt lat="55.43246" lon="-3.70912">
        <ele>326.42</ele>
        <time>2021-03-20T17:45:00Z</time>
      </trkpt>
      <trkpt lat="55.43201" lon="-3.7094">
        <ele>326.31</ele>
        <time>2021-03-20T17:45:03Z</time>
      </trkpt>
      <trkpt lat="55.43178" lon="-3.7095">
        <ele>326.11</ele>
        <time>2021-03-20T17:45:07Z</time>
      </trkpt>
      <trkpt lat="55.43137" lon="-3.7096">
        <ele>326.65</ele>
        <time>2021-03-20T17:45:10Z</time>
      </trkpt>
      <trkpt lat="55.43109" lon="-3.70975">
        <ele>328.2</ele>
        <time>2021-03-20T17:45:14Z</time>
      </trkpt>
      <trkpt lat="55.43059" lon="-3.71008">
        <ele>329.03</ele>
        <time>2021-03-20T17:45:17Z</time>
      </trkpt>
      <trkpt lat="55.43029" lon="-3.71052">
        <ele>329.96</ele>
        <time>2021-03-20T17:45:20Z</time>
      </trkpt>
      <trkpt lat="55.42981" lon="-3.7115">
        <ele>336.18</ele>
        <time>2021-03-20T17:45:24Z</time>
      </trkpt>
      <trkpt lat="55.42945" lon="-3.71201">
        <ele>335.75</ele>
        <time>2021-03-20T17:45:27Z</time>
      </trkpt>
      <trkpt lat="55.42891" lon="-3.71283">
        <ele>335.85</ele>
        <time>2021-03-20T17:45:31Z</time>
      </trkpt>
      <trkpt lat="55.42855" lon="-3.71373">
        <ele>338.03</ele>
        <time>2021-03-20T17:45:34Z</time>
      </trkpt>
      <trkpt lat="55.42829" lon="-3.71468">
        <ele>343.46</ele>
        <time>2021-03-20T17:45:38Z</time>
      </trkpt>
      <trkpt lat="55.42795" lon="-3.7157">
        <ele>344.93</ele>
        <time>2021-03-20T17:45:41Z</time>
      </trkpt>
      <trkpt lat="55.42763" lon="-3.71636">
        <ele>344.07</ele>
        <time>2021-03-20T17:45:44Z</time>
      </trkpt>
      <trkpt lat="55.42753" lon="-3.71678">
        <ele>345.46</ele>
        <time>2021-03-20T17:45:48Z</time>
      </trkpt>
      <trkpt lat="55.42742" lon="-3.7185">
        <ele>350.39</ele>
        <time>2021-03-20T17:45:51Z</time>
      </trkpt>
      <trkpt lat="55.42773" lon="-3.72577">
        <ele>350.29</ele>
        <time>2021-03-20T17:45:55Z</time>
      </trkpt>
      <trkpt lat="55.42768" lon="-3.72635">
        <ele>349.87</ele>
        <time>2021-03-20T17:45:58Z</time>
      </trkpt>
      <trkpt lat="55.42759" lon="-3.72686">
        <ele>349.7</ele>
        <time>2021-03-20T17:46:02Z</time>
      </trkpt>
      <trkpt lat="55.42738" lon="-3.72754">
        <ele>349.78</ele>
        <time>2021-03-20T17:46:05Z</time>
      </trkpt>
      <trkpt lat="55.42692" lon="-3.72876">
        <ele>350.3</ele>
        <time>2021-03-20T17:46:08Z</time>
      </trkpt>
      <trkpt lat="55.42593" lon="-3.73129">
        <ele>353.01</ele>
        <time>2021-03-20T17:46:12Z</time>
      </trkpt>
      <trkpt lat="55.42574" lon="-3.73182">
        <ele>353.96</ele>
        <time>2021-03-20T17:46:15Z</time>
      </trkpt>
      <trkpt lat="55.42555" lon="-3.73244">
        <ele>354.58</ele>
        <time>2021-03-20T17:46:19Z</time>
      </trkpt>
      <trkpt lat="55.42538" lon="-3.73317">
        <ele>358.64</ele>
        <time>2021-03-20T17:46:22Z</time>
      </trkpt>
      <trkpt lat="55.42482" lon="-3.73405">
        <ele>359.2</ele>
        <time>2021-03-20T17:46:26Z</time>
      </trkpt>
      <trkpt lat="55.42462" lon="-3.73422">
        <ele>358.91</ele>
        <time>2021-03-20T17:46:29Z</time>
      </trkpt>
      <trkpt lat="55.42437" lon="-3.73433">
        <ele>357.45</ele>
        <time>2021-03-20T17:46:32Z</time>
      </trkpt>
      <trkpt lat="55.42389" lon="-3.73479">
        <ele>355.04</ele>
        <time>2021-03-20T17:46:36Z</time>
      </trkpt>
      <trkpt lat="55.4236" lon="-3.7352">
        <ele>356.54</ele>
        <time>2021-03-20T17:46:39Z</time>
      </trkpt>
      <trkpt lat="55.42347" lon="-3.73551">
        <ele>359.28</ele>
        <time>2021-03-20T17:46:43Z</time>
      </trkpt>
      <trkpt lat="55.42333" lon="-3.73571">
        <ele>361.14</ele>
        <time>2021-03-20T17:46:46Z</time>
      </trkpt>
      <trkpt lat="55.42269" lon="-3.73643">
        <ele>366.13</ele>
        <time>2021-03-20T17:46:50Z</time>
      </trkpt>
      <trkpt lat="55.42237" lon="-3.73691">
        <ele>370.05</ele>
        <time>2021-03-20T17:46:53Z</time>
      </trkpt>
      <trkpt lat="55.42217" lon="-3.73718">
        <ele>372.5</ele>
        <time>2021-03-20T17:46:57Z</time>
      </trkpt>
      <trkpt lat="55.42161" lon="-3.73752">
        <ele>375.67</ele>
        <time>2021-03-20T17:47:00Z</time>
      </trkpt>
      <trkpt lat="55.42123" lon="-3.73782">
        <ele>377.99</ele>
        <time>2021-03-20T17:47:03Z</time>
      </trkpt>
      <trkpt lat="55.42083" lon="-3.73821">
        <ele>384.23</ele>
        <time>2021-03-20T17:47:07Z</time>
      </trkpt>
      <trkpt lat="55.42012" lon="-3.73858">
        <ele>387.33</ele>
        <time>2021-03-20T17:47:10Z</time>
      </trkpt>
      <trkpt lat="55.4198" lon="-3.73893">
        <ele>389.61</ele>
        <time>2021-03-20T17:47:14Z</time>
      </trkpt>
      <trkpt lat="55.41954" lon="-3.73929">
        <ele>392.77</ele>
        <time>2021-03-20T17:47:17Z</time>
      </trkpt>
      <trkpt lat="55.41881" lon="-3.74072">
        <ele>399.64</ele>
        <time>2021-03-20T17:47:21Z</time>
      </trkpt>
      <trkpt lat="55.41843" lon="-3.74123">
        <ele>402.76</ele>
        <time>2021-03-20T17:47:24Z</time>
      </trkpt>
      <trkpt lat="55.4183" lon="-3.74157">
        <ele>405.37</ele>
        <time>2021-03-20T17:47:27Z</time>
      </trkpt>
      <trkpt lat="55.41824" lon="-3.74191">
        <ele>408.58</ele>
        <time>2021-03-20T17:47:31Z</time>
      </trkpt>
      <trkpt lat="55.41823" lon="-3.74277">
        <ele>416.57</ele>
        <time>2021-03-20T17:47:34Z</time>
      </trkpt>
      <trkpt lat="55.4181" lon="-3.74343">
        <ele>419.23</ele>
        <time>2021-03-20T17:47:38Z</time>
      </trkpt>
      <trkpt lat="55.41794" lon="-3.74387">
        <ele>419.41</ele>
        <time>2021-03-20T17:47:41Z</time>
      </trkpt>
      <trkpt lat="55.41756" lon="-3.74443">
        <ele>419.43</ele>
        <time>2021-03-20T17:47:45Z</time>
      </trkpt>
      <trkpt lat="55.41718" lon="-3.74467">
        <ele>419.72</ele>
        <time>2021-03-20T17:47:48Z</time>
      </trkpt>
      <trkpt lat="55.41693" lon="-3.74489">
        <ele>418.52</ele>
        <time>2021-03-20T17:47:51Z</time>
      </trkpt>
      <trkpt lat="55.4164" lon="-3.74616">
        <ele>422.96</ele>
        <time>2021-03-20T17:47:55Z</time>
      </trkpt>
      <trkpt lat="55.41637" lon="-3.74644">
        <ele>423.29</ele>
        <time>2021-03-20T17:47:58Z</time>
      </trkpt>
      <trkpt lat="55.41639" lon="-3.74699">
        <ele>422</ele>
        <time>2021-03-20T17:48:02Z</time>
      </trkpt>
      <trkpt lat="55.41634" lon="-3.74723">
        <ele>421.8</ele>
        <time>2021-03-20T17:48:05Z</time>
      </trkpt>
      <trkpt lat="55.41617" lon="-3.74774">
        <ele>419.5</ele>
        <time>2021-03-20T17:48:09Z</time>
      </trkpt>
      <trkpt lat="55.41606" lon="-3.74822">
        <ele>418.32</ele>
        <time>2021-03-20T17:48:12Z</time>
      </trkpt>
      <trkpt lat="55.41607" lon="-3.7489">
        <ele>415.8</ele>
        <time>2021-03-20T17:48:15Z</time>
      </trkpt>
      <trkpt lat="55.41605" lon="-3.74927">
        <ele>412.78</ele>
        <time>2021-03-20T17:48:19Z</time>
      </trkpt>
      <trkpt lat="55.41592" lon="-3.74995">
        <ele>405.99</ele>
        <time>2021-03-20T17:48:22Z</time>
      </trkpt>
      <trkpt lat="55.41596" lon="-3.75034">
        <ele>402.47</ele>
        <time>2021-03-20T17:48:26Z</time>
      </trkpt>
      <trkpt lat="55.41609" lon="-3.75077">
        <ele>400.39</ele>
        <time>2021-03-20T17:48:29Z</time>
      </trkpt>
      <trkpt lat="55.41645" lon="-3.75128">
        <ele>398.3</ele>
        <time>2021-03-20T17:48:33Z</time>
      </trkpt>
      <trkpt lat="55.41654" lon="-3.7515">
        <ele>397.43</ele>
        <time>2021-03-20T17:48:36Z</time>
      </trkpt>
      <trkpt lat="55.41663" lon="-3.75181">
        <ele>395.89</ele>
        <time>2021-03-20T17:48:39Z</time>
      </trkpt>
      <trkpt lat="55.41669" lon="-3.75211">
        <ele>394.76</ele>
        <time>2021-03-20T17:48:43Z</time>
      </trkpt>
      <trkpt lat="55.41679" lon="-3.75246">
        <ele>394.5</ele>
        <time>2021-03-20T17:48:46Z</time>
      </trkpt>
      <trkpt lat="55.41696" lon="-3.75289">
        <ele>393.36</ele>
        <time>2021-03-20T17:48:50Z</time>
      </trkpt>
      <trkpt lat="55.41764" lon="-3.75401">
        <ele>390.38</ele>
        <time>2021-03-20T17:48:53Z</time>
      </trkpt>
      <trkpt lat="55.41798" lon="-3.75521">
        <ele>387.27</ele>
        <time>2021-03-20T17:48:57Z</time>
      </trkpt>
      <trkpt lat="55.41858" lon="-3.75722">
        <ele>383.48</ele>
        <time>2021-03-20T17:49:00Z</time>
      </trkpt>
      <trkpt lat="55.41862" lon="-3.75744">
        <ele>382.9</ele>
        <time>2021-03-20T17:49:03Z</time>
      </trkpt>
      <trkpt lat="55.4186" lon="-3.75773">
        <ele>383.28</ele>
        <time>2021-03-20T17:49:07Z</time>
      </trkpt>
      <trkpt lat="55.41852" lon="-3.75794">
        <ele>384.42</ele>
        <time>2021-03-20T17:49:10Z</time>
      </trkpt>
      <trkpt lat="55.41843" lon="-3.75814">
        <ele>385.63</ele>
        <time>2021-03-20T17:49:14Z</time>
      </trkpt>
      <trkpt lat="55.41841" lon="-3.7584">
        <ele>386.24</ele>
        <time>2021-03-20T17:49:17Z</time>
      </trkpt>
      <trkpt lat="55.41847" lon="-3.75939">
        <ele>386.97</ele>
        <time>2021-03-20T17:49:21Z</time>
      </trkpt>
      <trkpt lat="55.41846" lon="-3.75952">
        <ele>386.83</ele>
        <time>2021-03-20T17:49:24Z</time>
      </trkpt>
      <trkpt lat="55.41836" lon="-3.75988">
        <ele>386.99</ele>
        <time>2021-03-20T17:49:27Z</time>
      </trkpt>
      <trkpt lat="55.41879" lon="-3.7598">
        <ele>380.74</ele>
        <time>2021-03-20T17:49:30Z</time>
      </trkpt>
      <trkpt lat="55.41976" lon="-3.75969">
        <ele>375.76</ele>
        <time>2021-03-20T17:49:33Z</time>
      </trkpt>
      <trkpt lat="55.41995" lon="-3.75971">
        <ele>375.18</ele>
        <time>2021-03-20T17:49:36Z</time>
      </trkpt>
      <trkpt lat="55.42015" lon="-3.75984">
        <ele>374.47</ele>
        <time>2021-03-20T17:49:39Z</time>
      </trkpt>
      <trkpt lat="55.42054" lon="-3.76028">
        <ele>375</ele>
        <time>2021-03-20T17:49:42Z</time>
      </trkpt>
      <trkpt lat="55.42128" lon="-3.76126">
        <ele>372.92</ele>
        <time>2021-03-20T17:49:45Z</time>
      </trkpt>
      <trkpt lat="55.42145" lon="-3.76141">
        <ele>372.78</ele>
        <time>2021-03-20T17:49:48Z</time>
      </trkpt>
      <trkpt lat="55.4217" lon="-3.76152">
        <ele>371.81</ele>
        <time>2021-03-20T17:49:51Z</time>
      </trkpt>
      <trkpt lat="55.42252" lon="-3.76179">
        <ele>368.6</ele>
        <time>2021-03-20T17:49:54Z</time>
      </trkpt>
      <trkpt lat="55.42294" lon="-3.76199">
        <ele>367.05</ele>
        <time>2021-03-20T17:49:57Z</time>
      </trkpt>
      <trkpt lat="55.42338" lon="-3.76225">
        <ele>364.39</ele>
        <time>2021-03-20T17:50:00Z</time>
      </trkpt>
      <trkpt lat="55.42395" lon="-3.76265">
        <ele>368.27</ele>
        <time>2021-03-20T17:50:03Z</time>
      </trkpt>
      <trkpt lat="55.42442" lon="-3.76286">
        <ele>366.77</ele>
        <time>2021-03-20T17:50:06Z</time>
      </trkpt>
      <trkpt lat="55.42468" lon="-3.76295">
        <ele>365.89</ele>
        <time>2021-03-20T17:50:08Z</time>
      </trkpt>
      <trkpt lat="55.42553" lon="-3.76307">
        <ele>364.73</ele>
        <time>2021-03-20T17:50:11Z</time>
      </trkpt>
      <trkpt lat="55.42579" lon="-3.7632">
        <ele>364.15</ele>
        <time>2021-03-20T17:50:14Z</time>
      </trkpt>
      <trkpt lat="55.42621" lon="-3.76351">
        <ele>362.42</ele>
        <time>2021-03-20T17:50:17Z</time>
      </trkpt>
      <trkpt lat="55.42647" lon="-3.76364">
        <ele>361.71</ele>
        <time>2021-03-20T17:50:20Z</time>
      </trkpt>
      <trkpt lat="55.42685" lon="-3.76375">
        <ele>359.83</ele>
        <time>2021-03-20T17:50:23Z</time>
      </trkpt>
      <trkpt lat="55.42751" lon="-3.76399">
        <ele>357.67</ele>
        <time>2021-03-20T17:50:26Z</time>
      </trkpt>
      <trkpt lat="55.42859" lon="-3.76397">
        <ele>355.5</ele>
        <time>2021-03-20T17:50:29Z</time>
      </trkpt>
      <trkpt lat="55.42889" lon="-3.76384">
        <ele>354.33</ele>
        <time>2021-03-20T17:50:32Z</time>
      </trkpt>
      <trkpt lat="55.42939" lon="-3.76351">
        <ele>353.18</ele>
        <time>2021-03-20T17:50:35Z</time>
      </trkpt>
      <trkpt lat="55.42965" lon="-3.76339">
        <ele>351.32</ele>
        <time>2021-03-20T17:50:38Z</time>
      </trkpt>
      <trkpt lat="55.4299" lon="-3.76331">
        <ele>349.94</ele>
        <time>2021-03-20T17:50:41Z</time>
      </trkpt>
      <trkpt lat="55.43013" lon="-3.76329">
        <ele>348.75</ele>
        <time>2021-03-20T17:50:44Z</time>
      </trkpt>
      <trkpt lat="55.43031" lon="-3.76322">
        <ele>348.4</ele>
        <time>2021-03-20T17:50:46Z</time>
      </trkpt>
      <trkpt lat="55.43057" lon="-3.7632">
        <ele>348.45</ele>
        <time>2021-03-20T17:50:49Z</time>
      </trkpt>
      <trkpt lat="55.43077" lon="-3.76313">
        <ele>348.54</ele>
        <time>2021-03-20T17:50:52Z</time>
      </trkpt>
      <trkpt lat="55.43089" lon="-3.76312">
        <ele>348.39</ele>
        <time>2021-03-20T17:50:55Z</time>
      </trkpt>
      <trkpt lat="55.43223" lon="-3.76262">
        <ele>345.64</ele>
        <time>2021-03-20T17:50:58Z</time>
      </trkpt>
      <trkpt lat="55.43259" lon="-3.76261">
        <ele>345.1</ele>
        <time>2021-03-20T17:51:01Z</time>
      </trkpt>
      <trkpt lat="55.43295" lon="-3.76253">
        <ele>345.64</ele>
        <time>2021-03-20T17:51:04Z</time>
      </trkpt>
      <trkpt lat="55.43511" lon="-3.76252">
        <ele>348.42</ele>
        <time>2021-03-20T17:51:07Z</time>
      </trkpt>
      <trkpt lat="55.43537" lon="-3.76242">
        <ele>347.63</ele>
        <time>2021-03-20T17:51:10Z</time>
      </trkpt>
      <trkpt lat="55.43562" lon="-3.76229">
        <ele>347.83</ele>
        <time>2021-03-20T17:51:13Z</time>
      </trkpt>
      <trkpt lat="55.43622" lon="-3.76189">
        <ele>352.67</ele>
        <time>2021-03-20T17:51:16Z</time>
      </trkpt>
      <trkpt lat="55.43635" lon="-3.76184">
        <ele>352.17</ele>
        <time>2021-03-20T17:51:19Z</time>
      </trkpt>
      <trkpt lat="55.43651" lon="-3.76182">
        <ele>350.12</ele>
        <time>2021-03-20T17:51:22Z</time>
      </trkpt>
      <trkpt lat="55.43664" lon="-3.76177">
        <ele>349.6</ele>
        <time>2021-03-20T17:51:24Z</time>
      </trkpt>
      <trkpt lat="55.43679" lon="-3.76174">
        <ele>347.16</ele>
        <time>2021-03-20T17:51:27Z</time>
      </trkpt>
      <trkpt lat="55.4376" lon="-3.76133">
        <ele>343.14</ele>
        <time>2021-03-20T17:51:30Z</time>
      </trkpt>
      <trkpt lat="55.43835" lon="-3.761">
        <ele>342.13</ele>
        <time>2021-03-20T17:51:33Z</time>
      </trkpt>
      <trkpt lat="55.43876" lon="-3.76074">
        <ele>340.19</ele>
        <time>2021-03-20T17:51:36Z</time>
      </trkpt>
      <trkpt lat="55.43923" lon="-3.76035">
        <ele>336.82</ele>
        <time>2021-03-20T17:51:39Z</time>
      </trkpt>
      <trkpt lat="55.43969" lon="-3.76013">
        <ele>333.32</ele>
        <time>2021-03-20T17:51:42Z</time>
      </trkpt>
      <trkpt lat="55.44069" lon="-3.75984">
        <ele>326.07</ele>
        <time>2021-03-20T17:51:45Z</time>
      </trkpt>
      <trkpt lat="55.44165" lon="-3.7595">
        <ele>326.38</ele>
        <time>2021-03-20T17:51:48Z</time>
      </trkpt>
      <trkpt lat="55.44212" lon="-3.75932">
        <ele>327.99</ele>
        <time>2021-03-20T17:51:51Z</time>
      </trkpt>
      <trkpt lat="55.4429" lon="-3.75894">
        <ele>326.85</ele>
        <time>2021-03-20T17:51:54Z</time>
      </trkpt>
      <trkpt lat="55.44302" lon="-3.75891">
        <ele>327.11</ele>
        <time>2021-03-20T17:51:57Z</time>
      </trkpt>
      <trkpt lat="55.44334" lon="-3.75891">
        <ele>327.18</ele>
        <time>2021-03-20T17:52:00Z</time>
      </trkpt>
      <trkpt lat="55.44369" lon="-3.75883">
        <ele>327.29</ele>
        <time>2021-03-20T17:52:02Z</time>
      </trkpt>
      <trkpt lat="55.444" lon="-3.75884">
        <ele>327.54</ele>
        <time>2021-03-20T17:52:05Z</time>
      </trkpt>
      <trkpt lat="55.44422" lon="-3.75892">
        <ele>326.3</ele>
        <time>2021-03-20T17:52:08Z</time>
      </trkpt>
      <trkpt lat="55.44474" lon="-3.7589">
        <ele>321.07</ele>
        <time>2021-03-20T17:52:11Z</time>
      </trkpt>
      <trkpt lat="55.44545" lon="-3.75858">
        <ele>320.98</ele>
        <time>2021-03-20T17:52:14Z</time>
      </trkpt>
      <trkpt lat="55.44563" lon="-3.75857">
        <ele>321.55</ele>
        <time>2021-03-20T17:52:17Z</time>
      </trkpt>
      <trkpt lat="55.44582" lon="-3.7585">
        <ele>321.16</ele>
        <time>2021-03-20T17:52:20Z</time>
      </trkpt>
      <trkpt lat="55.44602" lon="-3.75848">
        <ele>322.36</ele>
        <time>2021-03-20T17:52:23Z</time>
      </trkpt>
      <trkpt lat="55.4463" lon="-3.75836">
        <ele>322.16</ele>
        <time>2021-03-20T17:52:26Z</time>
      </trkpt>
      <trkpt lat="55.44647" lon="-3.75824">
        <ele>322.28</ele>
        <time>2021-03-20T17:52:29Z</time>
      </trkpt>
      <trkpt lat="55.44717" lon="-3.75759">
        <ele>321.15</ele>
        <time>2021-03-20T17:52:32Z</time>
      </trkpt>
      <trkpt lat="55.44818" lon="-3.757">
        <ele>320.55</ele>
        <time>2021-03-20T17:52:35Z</time>
      </trkpt>
      <trkpt lat="55.44853" lon="-3.75686">
        <ele>320.7</ele>
        <time>2021-03-20T17:52:38Z</time>
      </trkpt>
      <trkpt lat="55.44925" lon="-3.75667">
        <ele>323</ele>
        <time>2021-03-20T17:52:40Z</time>
      </trkpt>
      <trkpt lat="55.44952" lon="-3.75657">
        <ele>323</ele>
        <time>2021-03-20T17:52:43Z</time>
      </trkpt>
      <trkpt lat="55.45014" lon="-3.75628">
        <ele>321.51</ele>
        <time>2021-03-20T17:52:46Z</time>
      </trkpt>
      <trkpt lat="55.4511" lon="-3.75577">
        <ele>317.07</ele>
        <time>2021-03-20T17:52:49Z</time>
      </trkpt>
      <trkpt lat="55.45124" lon="-3.75567">
        <ele>317</ele>
        <time>2021-03-20T17:52:52Z</time>
      </trkpt>
      <trkpt lat="55.45135" lon="-3.75555">
        <ele>316.96</ele>
        <time>2021-03-20T17:52:55Z</time>
      </trkpt>
      <trkpt lat="55.45197" lon="-3.75471">
        <ele>316.14</ele>
        <time>2021-03-20T17:52:58Z</time>
      </trkpt>
      <trkpt lat="55.45207" lon="-3.7546">
        <ele>316.27</ele>
        <time>2021-03-20T17:53:01Z</time>
      </trkpt>
      <trkpt lat="55.45243" lon="-3.75432">
        <ele>315.08</ele>
        <time>2021-03-20T17:53:04Z</time>
      </trkpt>
      <trkpt lat="55.45318" lon="-3.75388">
        <ele>314.32</ele>
        <time>2021-03-20T17:53:07Z</time>
      </trkpt>
      <trkpt lat="55.4537" lon="-3.75369">
        <ele>316.51</ele>
        <time>2021-03-20T17:53:10Z</time>
      </trkpt>
      <trkpt lat="55.45436" lon="-3.75348">
        <ele>318.21</ele>
        <time>2021-03-20T17:53:13Z</time>
      </trkpt>
      <trkpt lat="55.45459" lon="-3.75335">
        <ele>318.05</ele>
        <time>2021-03-20T17:53:16Z</time>
      </trkpt>
      <trkpt lat="55.45554" lon="-3.75267">
        <ele>313.27</ele>
        <time>2021-03-20T17:53:18Z</time>
      </trkpt>
      <trkpt lat="55.45611" lon="-3.75242">
        <ele>313.38</ele>
        <time>2021-03-20T17:53:21Z</time>
      </trkpt>
      <trkpt lat="55.45631" lon="-3.75229">
        <ele>312.67</ele>
        <time>2021-03-20T17:53:24Z</time>
      </trkpt>
      <trkpt lat="55.45652" lon="-3.75207">
        <ele>312.68</ele>
        <time>2021-03-20T17:53:27Z</time>
      </trkpt>
      <trkpt lat="55.45664" lon="-3.75204">
        <ele>313.21</ele>
        <time>2021-03-20T17:53:30Z</time>
      </trkpt>
      <trkpt lat="55.45698" lon="-3.75178">
        <ele>312.75</ele>
        <time>2021-03-20T17:53:32Z</time>
      </trkpt>
      <trkpt lat="55.45792" lon="-3.75122">
        <ele>310.36</ele>
        <time>2021-03-20T17:53:35Z</time>
      </trkpt>
      <trkpt lat="55.45848" lon="-3.75103">
        <ele>312.46</ele>
        <time>2021-03-20T17:53:37Z</time>
      </trkpt>
      <trkpt lat="55.45867" lon="-3.75077">
        <ele>313.16</ele>
        <time>2021-03-20T17:53:40Z</time>
      </trkpt>
      <trkpt lat="55.45891" lon="-3.75037">
        <ele>316.16</ele>
        <time>2021-03-20T17:53:42Z</time>
      </trkpt>
      <trkpt lat="55.45946" lon="-3.74964">
        <ele>322.17</ele>
        <time>2021-03-20T17:53:44Z</time>
      </trkpt>
      <trkpt lat="55.45975" lon="-3.74921">
        <ele>324.1</ele>
        <time>2021-03-20T17:53:47Z</time>
      </trkpt>
      <trkpt lat="55.45989" lon="-3.74903">
        <ele>325.36</ele>
        <time>2021-03-20T17:53:49Z</time>
      </trkpt>
      <trkpt lat="55.46042" lon="-3.74858">
        <ele>333.6</ele>
        <time>2021-03-20T17:53:52Z</time>
      </trkpt>
      <trkpt lat="55.46062" lon="-3.74843">
        <ele>335.5</ele>
        <time>2021-03-20T17:53:54Z</time>
      </trkpt>
      <trkpt lat="55.461" lon="-3.74822">
        <ele>337.89</ele>
        <time>2021-03-20T17:53:57Z</time>
      </trkpt>
      <trkpt lat="55.46262" lon="-3.7475">
        <ele>351.39</ele>
        <time>2021-03-20T17:53:59Z</time>
      </trkpt>
      <trkpt lat="55.46343" lon="-3.74748">
        <ele>357.09</ele>
        <time>2021-03-20T17:54:01Z</time>
      </trkpt>
      <trkpt lat="55.46353" lon="-3.74751">
        <ele>357.84</ele>
        <time>2021-03-20T17:54:04Z</time>
      </trkpt>
      <trkpt lat="55.46374" lon="-3.74763">
        <ele>359.39</ele>
        <time>2021-03-20T17:54:06Z</time>
      </trkpt>
      <trkpt lat="55.46446" lon="-3.74834">
        <ele>360.9</ele>
        <time>2021-03-20T17:54:09Z</time>
      </trkpt>
      <trkpt lat="55.4646" lon="-3.74852">
        <ele>360.05</ele>
        <time>2021-03-20T17:54:11Z</time>
      </trkpt>
      <trkpt lat="55.46484" lon="-3.74888">
        <ele>358.43</ele>
        <time>2021-03-20T17:54:14Z</time>
      </trkpt>
      <trkpt lat="55.46499" lon="-3.74921">
        <ele>357.61</ele>
        <time>2021-03-20T17:54:16Z</time>
      </trkpt>
      <trkpt lat="55.46506" lon="-3.74941">
        <ele>357.81</ele>
        <time>2021-03-20T17:54:18Z</time>
      </trkpt>
      <trkpt lat="55.46542" lon="-3.75095">
        <ele>361.47</ele>
        <time>2021-03-20T17:54:21Z</time>
      </trkpt>
      <trkpt lat="55.46553" lon="-3.75128">
        <ele>361.33</ele>
        <time>2021-03-20T17:54:23Z</time>
      </trkpt>
      <trkpt lat="55.46568" lon="-3.75153">
        <ele>361.68</ele>
        <time>2021-03-20T17:54:26Z</time>
      </trkpt>
      <trkpt lat="55.46592" lon="-3.75177">
        <ele>361.3</ele>
        <time>2021-03-20T17:54:28Z</time>
      </trkpt>
      <trkpt lat="55.46615" lon="-3.75205">
        <ele>362.61</ele>
        <time>2021-03-20T17:54:31Z</time>
      </trkpt>
      <trkpt lat="55.46626" lon="-3.75227">
        <ele>363.29</ele>
        <time>2021-03-20T17:54:33Z</time>
      </trkpt>
      <trkpt lat="55.46669" lon="-3.75373">
        <ele>367.06</ele>
        <time>2021-03-20T17:54:35Z</time>
      </trkpt>
      <trkpt lat="55.46686" lon="-3.75414">
        <ele>367.09</ele>
        <time>2021-03-20T17:54:38Z</time>
      </trkpt>
      <trkpt lat="55.46722" lon="-3.75477">
        <ele>367.19</ele>
        <time>2021-03-20T17:54:40Z</time>
      </trkpt>
      <trkpt lat="55.46805" lon="-3.75606">
        <ele>376.36</ele>
        <time>2021-03-20T17:54:43Z</time>
      </trkpt>
      <trkpt lat="55.46829" lon="-3.75633">
        <ele>377.18</ele>
        <time>2021-03-20T17:54:45Z</time>
      </trkpt>
      <trkpt lat="55.46872" lon="-3.75668">
        <ele>376.85</ele>
        <time>2021-03-20T17:54:48Z</time>
      </trkpt>
      <trkpt lat="55.46994" lon="-3.7575">
        <ele>375.22</ele>
        <time>2021-03-20T17:54:50Z</time>
      </trkpt>
      <trkpt lat="55.47037" lon="-3.75784">
        <ele>373.38</ele>
        <time>2021-03-20T17:54:52Z</time>
      </trkpt>
      <trkpt lat="55.47049" lon="-3.75797">
        <ele>372.44</ele>
        <time>2021-03-20T17:54:55Z</time>
      </trkpt>
      <trkpt lat="55.47139" lon="-3.75932">
        <ele>356.91</ele>
        <time>2021-03-20T17:54:57Z</time>
      </trkpt>
      <trkpt lat="55.47196" lon="-3.76008">
        <ele>351.78</ele>
        <time>2021-03-20T17:55:00Z</time>
      </trkpt>
      <trkpt lat="55.47232" lon="-3.76052">
        <ele>347.85</ele>
        <time>2021-03-20T17:55:02Z</time>
      </trkpt>
      <trkpt lat="55.47276" lon="-3.76095">
        <ele>345.77</ele>
        <time>2021-03-20T17:55:05Z</time>
      </trkpt>
      <trkpt lat="55.47305" lon="-3.7613">
        <ele>344.25</ele>
        <time>2021-03-20T17:55:07Z</time>
      </trkpt>
      <trkpt lat="55.4732" lon="-3.76142">
        <ele>344.11</ele>
        <time>2021-03-20T17:55:10Z</time>
      </trkpt>
      <trkpt lat="55.47351" lon="-3.76156">
        <ele>342.61</ele>
        <time>2021-03-20T17:55:12Z</time>
      </trkpt>
      <trkpt lat="55.47405" lon="-3.76168">
        <ele>342.07</ele>
        <time>2021-03-20T17:55:14Z</time>
      </trkpt>
      <trkpt lat="55.47414" lon="-3.76172">
        <ele>342.2</ele>
        <time>2021-03-20T17:55:17Z</time>
      </trkpt>
      <trkpt lat="55.47422" lon="-3.76183">
        <ele>341.98</ele>
        <time>2021-03-20T17:55:19Z</time>
      </trkpt>
      <trkpt lat="55.4745" lon="-3.76241">
        <ele>340.85</ele>
        <time>2021-03-20T17:55:22Z</time>
      </trkpt>
      <trkpt lat="55.47507" lon="-3.76333">
        <ele>340.48</ele>
        <time>2021-03-20T17:55:24Z</time>
      </trkpt>
      <trkpt lat="55.4753" lon="-3.7638">
        <ele>335.95</ele>
        <time>2021-03-20T17:55:27Z</time>
      </trkpt>
      <trkpt lat="55.47563" lon="-3.76465">
        <ele>327.37</ele>
        <time>2021-03-20T17:55:29Z</time>
      </trkpt>
      <trkpt lat="55.47577" lon="-3.76486">
        <ele>327.33</ele>
        <time>2021-03-20T17:55:31Z</time>
      </trkpt>
      <trkpt lat="55.47607" lon="-3.76525">
        <ele>326.76</ele>
        <time>2021-03-20T17:55:34Z</time>
      </trkpt>
      <trkpt lat="55.47629" lon="-3.76561">
        <ele>325.91</ele>
        <time>2021-03-20T17:55:36Z</time>
      </trkpt>
      <trkpt lat="55.47637" lon="-3.76579">
        <ele>325.14</ele>
        <time>2021-03-20T17:55:39Z</time>
      </trkpt>
      <trkpt lat="55.47675" lon="-3.76685">
        <ele>319.9</ele>
        <time>2021-03-20T17:55:41Z</time>
      </trkpt>
      <trkpt lat="55.47703" lon="-3.7674">
        <ele>317.25</ele>
        <time>2021-03-20T17:55:44Z</time>
      </trkpt>
      <trkpt lat="55.47721" lon="-3.76784">
        <ele>316.22</ele>
        <time>2021-03-20T17:55:46Z</time>
      </trkpt>
      <trkpt lat="55.4775" lon="-3.76866">
        <ele>313.7</ele>
        <time>2021-03-20T17:55:48Z</time>
      </trkpt>
      <trkpt lat="55.47759" lon="-3.76886">
        <ele>313.76</ele>
        <time>2021-03-20T17:55:51Z</time>
      </trkpt>
      <trkpt lat="55.47788" lon="-3.76937">
        <ele>312.85</ele>
        <time>2021-03-20T17:55:53Z</time>
      </trkpt>
      <trkpt lat="55.47823" lon="-3.76982">
        <ele>308.45</ele>
        <time>2021-03-20T17:55:56Z</time>
      </trkpt>
      <trkpt lat="55.47834" lon="-3.77004">
        <ele>306.78</ele>
        <time>2021-03-20T17:55:58Z</time>
      </trkpt>
      <trkpt lat="55.47858" lon="-3.77079">
        <ele>304.8</ele>
        <time>2021-03-20T17:56:01Z</time>
      </trkpt>
      <trkpt lat="55.47884" lon="-3.7713">
        <ele>305.21</ele>
        <time>2021-03-20T17:56:03Z</time>
      </trkpt>
      <trkpt lat="55.47936" lon="-3.77273">
        <ele>298.69</ele>
        <time>2021-03-20T17:56:05Z</time>
      </trkpt>
      <trkpt lat="55.47959" lon="-3.77326">
        <ele>296.2</ele>
        <time>2021-03-20T17:56:08Z</time>
      </trkpt>
      <trkpt lat="55.4799" lon="-3.77381">
        <ele>294.68</ele>
        <time>2021-03-20T17:56:10Z</time>
      </trkpt>
      <trkpt lat="55.48017" lon="-3.77414">
        <ele>293.76</ele>
        <time>2021-03-20T17:56:13Z</time>
      </trkpt>
      <trkpt lat="55.48028" lon="-3.77426">
        <ele>294.05</ele>
        <time>2021-03-20T17:56:15Z</time>
      </trkpt>
      <trkpt lat="55.48048" lon="-3.77441">
        <ele>295.28</ele>
        <time>2021-03-20T17:56:18Z</time>
      </trkpt>
      <trkpt lat="55.48075" lon="-3.77453">
        <ele>295.39</ele>
        <time>2021-03-20T17:56:20Z</time>
      </trkpt>
      <trkpt lat="55.48089" lon="-3.77455">
        <ele>295.48</ele>
        <time>2021-03-20T17:56:23Z</time>
      </trkpt>
      <trkpt lat="55.48148" lon="-3.77455">
        <ele>296.66</ele>
        <time>2021-03-20T17:56:25Z</time>
      </trkpt>
      <trkpt lat="55.48188" lon="-3.77468">
        <ele>293.31</ele>
        <time>2021-03-20T17:56:28Z</time>
      </trkpt>
      <trkpt lat="55.48258" lon="-3.77474">
        <ele>288.99</ele>
        <time>2021-03-20T17:56:30Z</time>
      </trkpt>
      <trkpt lat="55.4831" lon="-3.77489">
        <ele>281.55</ele>
        <time>2021-03-20T17:56:32Z</time>
      </trkpt>
      <trkpt lat="55.48321" lon="-3.77488">
        <ele>281.3</ele>
        <time>2021-03-20T17:56:35Z</time>
      </trkpt>
      <trkpt lat="55.4839" lon="-3.77458">
        <ele>277.96</ele>
        <time>2021-03-20T17:56:37Z</time>
      </trkpt>
      <trkpt lat="55.48519" lon="-3.7739">
        <ele>270.17</ele>
        <time>2021-03-20T17:56:40Z</time>
      </trkpt>
      <trkpt lat="55.48597" lon="-3.77378">
        <ele>262.69</ele>
        <time>2021-03-20T17:56:42Z</time>
      </trkpt>
      <trkpt lat="55.48641" lon="-3.77377">
        <ele>258.51</ele>
        <time>2021-03-20T17:56:45Z</time>
      </trkpt>
      <trkpt lat="55.48665" lon="-3.7737">
        <ele>257.15</ele>
        <time>2021-03-20T17:56:47Z</time>
      </trkpt>
      <trkpt lat="55.48691" lon="-3.77369">
        <ele>254.75</ele>
        <time>2021-03-20T17:56:50Z</time>
      </trkpt>
      <trkpt lat="55.48722" lon="-3.77358">
        <ele>254.21</ele>
        <time>2021-03-20T17:56:52Z</time>
      </trkpt>
      <trkpt lat="55.48746" lon="-3.77347">
        <ele>254.58</ele>
        <time>2021-03-20T17:56:55Z</time>
      </trkpt>
      <trkpt lat="55.48785" lon="-3.77321">
        <ele>254.74</ele>
        <time>2021-03-20T17:56:57Z</time>
      </trkpt>
      <trkpt lat="55.4889" lon="-3.77242">
        <ele>253.26</ele>
        <time>2021-03-20T17:57:00Z</time>
      </trkpt>
      <trkpt lat="55.48928" lon="-3.77207">
        <ele>253</ele>
        <time>2021-03-20T17:57:02Z</time>
      </trkpt>
      <trkpt lat="55.48941" lon="-3.77186">
        <ele>253.29</ele>
        <time>2021-03-20T17:57:04Z</time>
      </trkpt>
      <trkpt lat="55.49077" lon="-3.7696">
        <ele>252.68</ele>
        <time>2021-03-20T17:57:07Z</time>
      </trkpt>
      <trkpt lat="55.49097" lon="-3.76937">
        <ele>253</ele>
        <time>2021-03-20T17:57:09Z</time>
      </trkpt>
      <trkpt lat="55.49115" lon="-3.7693">
        <ele>252.87</ele>
        <time>2021-03-20T17:57:12Z</time>
      </trkpt>
      <trkpt lat="55.49127" lon="-3.76928">
        <ele>252.42</ele>
        <time>2021-03-20T17:57:14Z</time>
      </trkpt>
      <trkpt lat="55.49142" lon="-3.7693">
        <ele>252.09</ele>
        <time>2021-03-20T17:57:17Z</time>
      </trkpt>
      <trkpt lat="55.49152" lon="-3.76936">
        <ele>252.49</ele>
        <time>2021-03-20T17:57:19Z</time>
      </trkpt>
      <trkpt lat="55.49171" lon="-3.76955">
        <ele>252.61</ele>
        <time>2021-03-20T17:57:22Z</time>
      </trkpt>
      <trkpt lat="55.49218" lon="-3.77021">
        <ele>251.23</ele>
        <time>2021-03-20T17:57:24Z</time>
      </trkpt>
      <trkpt lat="55.49309" lon="-3.77186">
        <ele>253.69</ele>
        <time>2021-03-20T17:57:27Z</time>
      </trkpt>
      <trkpt lat="55.49325" lon="-3.77204">
        <ele>254</ele>
        <time>2021-03-20T17:57:29Z</time>
      </trkpt>
      <trkpt lat="55.49351" lon="-3.77222">
        <ele>254.63</ele>
        <time>2021-03-20T17:57:32Z</time>
      </trkpt>
      <trkpt lat="55.49377" lon="-3.77247">
        <ele>256.08</ele>
        <time>2021-03-20T17:57:34Z</time>
      </trkpt>
      <trkpt lat="55.49405" lon="-3.77267">
        <ele>257.92</ele>
        <time>2021-03-20T17:57:36Z</time>
      </trkpt>
      <trkpt lat="55.49444" lon="-3.77327">
        <ele>263.75</ele>
        <time>2021-03-20T17:57:39Z</time>
      </trkpt>
      <trkpt lat="55.49454" lon="-3.7737">
        <ele>265.67</ele>
        <time>2021-03-20T17:57:41Z</time>
      </trkpt>
      <trkpt lat="55.49469" lon="-3.77401">
        <ele>266.67</ele>
        <time>2021-03-20T17:57:44Z</time>
      </trkpt>
      <trkpt lat="55.49498" lon="-3.77476">
        <ele>269.61</ele>
        <time>2021-03-20T17:57:46Z</time>
      </trkpt>
      <trkpt lat="55.49526" lon="-3.77521">
        <ele>271.29</ele>
        <time>2021-03-20T17:57:49Z</time>
      </trkpt>
      <trkpt lat="55.49505" lon="-3.7762">
        <ele>268.58</ele>
        <time>2021-03-20T17:57:52Z</time>
      </trkpt>
      <trkpt lat="55.49478" lon="-3.7766">
        <ele>269.6</ele>
        <time>2021-03-20T17:57:54Z</time>
      </trkpt>
      <trkpt lat="55.4945" lon="-3.77702">
        <ele>270.81</ele>
        <time>2021-03-20T17:57:57Z</time>
      </trkpt>
      <trkpt lat="55.49396" lon="-3.7781">
        <ele>273.78</ele>
        <time>2021-03-20T17:58:00Z</time>
      </trkpt>
      <trkpt lat="55.49325" lon="-3.77966">
        <ele>279.51</ele>
        <time>2021-03-20T17:58:03Z</time>
      </trkpt>
      <trkpt lat="55.49295" lon="-3.78018">
        <ele>281.34</ele>
        <time>2021-03-20T17:58:05Z</time>
      </trkpt>
      <trkpt lat="55.49281" lon="-3.78036">
        <ele>281.87</ele>
        <time>2021-03-20T17:58:08Z</time>
      </trkpt>
      <trkpt lat="55.49233" lon="-3.78081">
        <ele>286.41</ele>
        <time>2021-03-20T17:58:11Z</time>
      </trkpt>
      <trkpt lat="55.49213" lon="-3.78097">
        <ele>287.64</ele>
        <time>2021-03-20T17:58:14Z</time>
      </trkpt>
      <trkpt lat="55.49145" lon="-3.78132">
        <ele>287.92</ele>
        <time>2021-03-20T17:58:16Z</time>
      </trkpt>
      <trkpt lat="55.49093" lon="-3.78154">
        <ele>285.63</ele>
        <time>2021-03-20T17:58:19Z</time>
      </trkpt>
      <trkpt lat="55.49078" lon="-3.78164">
        <ele>284.49</ele>
        <time>2021-03-20T17:58:22Z</time>
      </trkpt>
      <trkpt lat="55.49046" lon="-3.78194">
        <ele>284.27</ele>
        <time>2021-03-20T17:58:24Z</time>
      </trkpt>
      <trkpt lat="55.48982" lon="-3.78267">
        <ele>284.95</ele>
        <time>2021-03-20T17:58:27Z</time>
      </trkpt>
      <trkpt lat="55.48876" lon="-3.78346">
        <ele>291.19</ele>
        <time>2021-03-20T17:58:30Z</time>
      </trkpt>
      <trkpt lat="55.48821" lon="-3.78401">
        <ele>296.27</ele>
        <time>2021-03-20T17:58:33Z</time>
      </trkpt>
      <trkpt lat="55.48729" lon="-3.78484">
        <ele>289.33</ele>
        <time>2021-03-20T17:58:35Z</time>
      </trkpt>
      <trkpt lat="55.48689" lon="-3.78527">
        <ele>289.24</ele>
        <time>2021-03-20T17:58:38Z</time>
      </trkpt>
      <trkpt lat="55.48618" lon="-3.78608">
        <ele>289.46</ele>
        <time>2021-03-20T17:58:41Z</time>
      </trkpt>
      <trkpt lat="55.48564" lon="-3.78658">
        <ele>288.71</ele>
        <time>2021-03-20T17:58:44Z</time>
      </trkpt>
      <trkpt lat="55.48544" lon="-3.78683">
        <ele>290.96</ele>
        <time>2021-03-20T17:58:46Z</time>
      </trkpt>
      <trkpt lat="55.48526" lon="-3.7871">
        <ele>294.54</ele>
        <time>2021-03-20T17:58:49Z</time>
      </trkpt>
      <trkpt lat="55.48498" lon="-3.78765">
        <ele>295.04</ele>
        <time>2021-03-20T17:58:52Z</time>
      </trkpt>
      <trkpt lat="55.48448" lon="-3.78825">
        <ele>288.16</ele>
        <time>2021-03-20T17:58:55Z</time>
      </trkpt>
      <trkpt lat="55.48419" lon="-3.78868">
        <ele>287.48</ele>
        <time>2021-03-20T17:58:57Z</time>
      </trkpt>
      <trkpt lat="55.48395" lon="-3.78894">
        <ele>286.05</ele>
        <time>2021-03-20T17:59:00Z</time>
      </trkpt>
      <trkpt lat="55.48315" lon="-3.79011">
        <ele>285.02</ele>
        <time>2021-03-20T17:59:03Z</time>
      </trkpt>
      <trkpt lat="55.48296" lon="-3.79044">
        <ele>285.93</ele>
        <time>2021-03-20T17:59:06Z</time>
      </trkpt>
      <trkpt lat="55.48261" lon="-3.79139">
        <ele>286.51</ele>
        <time>2021-03-20T17:59:08Z</time>
      </trkpt>
      <trkpt lat="55.48229" lon="-3.79203">
        <ele>286.83</ele>
        <time>2021-03-20T17:59:11Z</time>
      </trkpt>
      <trkpt lat="55.48216" lon="-3.79234">
        <ele>287</ele>
        <time>2021-03-20T17:59:14Z</time>
      </trkpt>
      <trkpt lat="55.48211" lon="-3.79252">
        <ele>287.49</ele>
        <time>2021-03-20T17:59:17Z</time>
      </trkpt>
      <trkpt lat="55.48201" lon="-3.79314">
        <ele>288.21</ele>
        <time>2021-03-20T17:59:19Z</time>
      </trkpt>
      <trkpt lat="55.48192" lon="-3.79344">
        <ele>288.14</ele>
        <time>2021-03-20T17:59:22Z</time>
      </trkpt>
      <trkpt lat="55.48162" lon="-3.79417">
        <ele>287.53</ele>
        <time>2021-03-20T17:59:25Z</time>
      </trkpt>
      <trkpt lat="55.48154" lon="-3.79443">
        <ele>286.65</ele>
        <time>2021-03-20T17:59:28Z</time>
      </trkpt>
      <trkpt lat="55.48144" lon="-3.79489">
        <ele>287.13</ele>
        <time>2021-03-20T17:59:30Z</time>
      </trkpt>
      <trkpt lat="55.48134" lon="-3.79577">
        <ele>286.11</ele>
        <time>2021-03-20T17:59:33Z</time>
      </trkpt>
      <trkpt lat="55.48128" lon="-3.79603">
        <ele>285.08</ele>
        <time>2021-03-20T17:59:36Z</time>
      </trkpt>
      <trkpt lat="55.481" lon="-3.79689">
        <ele>279.96</ele>
        <time>2021-03-20T17:59:39Z</time>
      </trkpt>
      <trkpt lat="55.48095" lon="-3.79712">
        <ele>279.05</ele>
        <time>2021-03-20T17:59:41Z</time>
      </trkpt>
      <trkpt lat="55.48101" lon="-3.79718">
        <ele>280.15</ele>
        <time>2021-03-20T17:59:44Z</time>
      </trkpt>
      <trkpt lat="55.48107" lon="-3.7975">
        <ele>281.99</ele>
        <time>2021-03-20T17:59:47Z</time>
      </trkpt>
      <trkpt lat="55.48128" lon="-3.79804">
        <ele>286.03</ele>
        <time>2021-03-20T17:59:50Z</time>
      </trkpt>
      <trkpt lat="55.48181" lon="-3.79898">
        <ele>291.41</ele>
        <time>2021-03-20T17:59:53Z</time>
      </trkpt>
      <trkpt lat="55.48198" lon="-3.79941">
        <ele>293.14</ele>
        <time>2021-03-20T17:59:56Z</time>
      </trkpt>
      <trkpt lat="55.48236" lon="-3.80063">
        <ele>294.63</ele>
        <time>2021-03-20T17:59:58Z</time>
      </trkpt>
      <trkpt lat="55.48267" lon="-3.80151">
        <ele>297.27</ele>
        <time>2021-03-20T18:00:01Z</time>
      </trkpt>
      <trkpt lat="55.48284" lon="-3.80233">
        <ele>299.1</ele>
        <time>2021-03-20T18:00:04Z</time>
      </trkpt>
      <trkpt lat="55.48296" lon="-3.80269">
        <ele>301.1</ele>
        <time>2021-03-20T18:00:07Z</time>
      </trkpt>
      <trkpt lat="55.4833" lon="-3.80326">
        <ele>303.26</ele>
        <time>2021-03-20T18:00:10Z</time>
      </trkpt>
      <trkpt lat="55.48356" lon="-3.80362">
        <ele>305.77</ele>
        <time>2021-03-20T18:00:13Z</time>
      </trkpt>
      <trkpt lat="55.48368" lon="-3.80383">
        <ele>307.47</ele>
        <time>2021-03-20T18:00:16Z</time>
      </trkpt>
      <trkpt lat="55.48375" lon="-3.804">
        <ele>308.27</ele>
        <time>2021-03-20T18:00:18Z</time>
      </trkpt>
      <trkpt lat="55.48383" lon="-3.80438">
        <ele>309.68</ele>
        <time>2021-03-20T18:00:21Z</time>
      </trkpt>
      <trkpt lat="55.48383" lon="-3.8047">
        <ele>309.85</ele>
        <time>2021-03-20T18:00:24Z</time>
      </trkpt>
      <trkpt lat="55.48374" lon="-3.80514">
        <ele>308.34</ele>
        <time>2021-03-20T18:00:27Z</time>
      </trkpt>
      <trkpt lat="55.48371" lon="-3.8054">
        <ele>307.85</ele>
        <time>2021-03-20T18:00:30Z</time>
      </trkpt>
      <trkpt lat="55.4837" lon="-3.80696">
        <ele>305.55</ele>
        <time>2021-03-20T18:00:33Z</time>
      </trkpt>
      <trkpt lat="55.48372" lon="-3.80766">
        <ele>303.98</ele>
        <time>2021-03-20T18:00:35Z</time>
      </trkpt>
      <trkpt lat="55.48386" lon="-3.80856">
        <ele>299.95</ele>
        <time>2021-03-20T18:00:38Z</time>
      </trkpt>
      <trkpt lat="55.48393" lon="-3.80892">
        <ele>297.98</ele>
        <time>2021-03-20T18:00:41Z</time>
      </trkpt>
      <trkpt lat="55.48401" lon="-3.80919">
        <ele>295.5</ele>
        <time>2021-03-20T18:00:44Z</time>
      </trkpt>
      <trkpt lat="55.48429" lon="-3.80976">
        <ele>293.5</ele>
        <time>2021-03-20T18:00:47Z</time>
      </trkpt>
      <trkpt lat="55.48432" lon="-3.80995">
        <ele>293.06</ele>
        <time>2021-03-20T18:00:50Z</time>
      </trkpt>
      <trkpt lat="55.48429" lon="-3.81084">
        <ele>291.14</ele>
        <time>2021-03-20T18:00:53Z</time>
      </trkpt>
      <trkpt lat="55.48429" lon="-3.81112">
        <ele>291.14</ele>
        <time>2021-03-20T18:00:55Z</time>
      </trkpt>
      <trkpt lat="55.48432" lon="-3.81133">
        <ele>291.08</ele>
        <time>2021-03-20T18:00:58Z</time>
      </trkpt>
      <trkpt lat="55.48459" lon="-3.812">
        <ele>292.22</ele>
        <time>2021-03-20T18:01:01Z</time>
      </trkpt>
      <trkpt lat="55.48478" lon="-3.81237">
        <ele>292.24</ele>
        <time>2021-03-20T18:01:04Z</time>
      </trkpt>
      <trkpt lat="55.48502" lon="-3.81271">
        <ele>294.5</ele>
        <time>2021-03-20T18:01:07Z</time>
      </trkpt>
      <trkpt lat="55.48541" lon="-3.81316">
        <ele>294.48</ele>
        <time>2021-03-20T18:01:10Z</time>
      </trkpt>
      <trkpt lat="55.4864" lon="-3.81393">
        <ele>291.32</ele>
        <time>2021-03-20T18:01:12Z</time>
      </trkpt>
      <trkpt lat="55.4868" lon="-3.8142">
        <ele>291.41</ele>
        <time>2021-03-20T18:01:15Z</time>
      </trkpt>
      <trkpt lat="55.48712" lon="-3.81434">
        <ele>292.75</ele>
        <time>2021-03-20T18:01:18Z</time>
      </trkpt>
      <trkpt lat="55.4872" lon="-3.81435">
        <ele>293.21</ele>
        <time>2021-03-20T18:01:21Z</time>
      </trkpt>
      <trkpt lat="55.48801" lon="-3.81435">
        <ele>294.83</ele>
        <time>2021-03-20T18:01:24Z</time>
      </trkpt>
      <trkpt lat="55.48834" lon="-3.81426">
        <ele>298.52</ele>
        <time>2021-03-20T18:01:27Z</time>
      </trkpt>
      <trkpt lat="55.48903" lon="-3.81427">
        <ele>294.52</ele>
        <time>2021-03-20T18:01:29Z</time>
      </trkpt>
      <trkpt lat="55.48925" lon="-3.81435">
        <ele>293.2</ele>
        <time>2021-03-20T18:01:32Z</time>
      </trkpt>
      <trkpt lat="55.48948" lon="-3.81448">
        <ele>292.56</ele>
        <time>2021-03-20T18:01:35Z</time>
      </trkpt>
      <trkpt lat="55.4898" lon="-3.81479">
        <ele>289.75</ele>
        <time>2021-03-20T18:01:38Z</time>
      </trkpt>
      <trkpt lat="55.49018" lon="-3.81509">
        <ele>289.02</ele>
        <time>2021-03-20T18:01:41Z</time>
      </trkpt>
      <trkpt lat="55.4905" lon="-3.81538">
        <ele>288.35</ele>
        <time>2021-03-20T18:01:44Z</time>
      </trkpt>
      <trkpt lat="55.49075" lon="-3.81572">
        <ele>289.79</ele>
        <time>2021-03-20T18:01:47Z</time>
      </trkpt>
      <trkpt lat="55.49154" lon="-3.81689">
        <ele>292.27</ele>
        <time>2021-03-20T18:01:49Z</time>
      </trkpt>
      <trkpt lat="55.49194" lon="-3.81741">
        <ele>293.3</ele>
        <time>2021-03-20T18:01:52Z</time>
      </trkpt>
      <trkpt lat="55.49213" lon="-3.81762">
        <ele>294.58</ele>
        <time>2021-03-20T18:01:55Z</time>
      </trkpt>
      <trkpt lat="55.49269" lon="-3.81814">
        <ele>298.5</ele>
        <time>2021-03-20T18:01:58Z</time>
      </trkpt>
      <trkpt lat="55.49333" lon="-3.81861">
        <ele>299.96</ele>
        <time>2021-03-20T18:02:01Z</time>
      </trkpt>
      <trkpt lat="55.49354" lon="-3.8188">
        <ele>301.04</ele>
        <time>2021-03-20T18:02:04Z</time>
      </trkpt>
      <trkpt lat="55.49402" lon="-3.81933">
        <ele>302.28</ele>
        <time>2021-03-20T18:02:06Z</time>
      </trkpt>
      <trkpt lat="55.49423" lon="-3.81959">
        <ele>302.67</ele>
        <time>2021-03-20T18:02:09Z</time>
      </trkpt>
      <trkpt lat="55.49432" lon="-3.81976">
        <ele>302.55</ele>
        <time>2021-03-20T18:02:12Z</time>
      </trkpt>
      <trkpt lat="55.49447" lon="-3.82009">
        <ele>303.42</ele>
        <time>2021-03-20T18:02:15Z</time>
      </trkpt>
      <trkpt lat="55.49495" lon="-3.82153">
        <ele>311.14</ele>
        <time>2021-03-20T18:02:18Z</time>
      </trkpt>
      <trkpt lat="55.49502" lon="-3.822">
        <ele>313.35</ele>
        <time>2021-03-20T18:02:21Z</time>
      </trkpt>
      <trkpt lat="55.49508" lon="-3.82291">
        <ele>317.83</ele>
        <time>2021-03-20T18:02:23Z</time>
      </trkpt>
      <trkpt lat="55.4952" lon="-3.82381">
        <ele>324.51</ele>
        <time>2021-03-20T18:02:26Z</time>
      </trkpt>
      <trkpt lat="55.49525" lon="-3.82402">
        <ele>326.48</ele>
        <time>2021-03-20T18:02:29Z</time>
      </trkpt>
      <trkpt lat="55.49547" lon="-3.82465">
        <ele>332.83</ele>
        <time>2021-03-20T18:02:32Z</time>
      </trkpt>
      <trkpt lat="55.49553" lon="-3.82486">
        <ele>334.14</ele>
        <time>2021-03-20T18:02:35Z</time>
      </trkpt>
      <trkpt lat="55.49568" lon="-3.82588">
        <ele>338.89</ele>
        <time>2021-03-20T18:02:38Z</time>
      </trkpt>
      <trkpt lat="55.49605" lon="-3.82695">
        <ele>347.79</ele>
        <time>2021-03-20T18:02:41Z</time>
      </trkpt>
      <trkpt lat="55.49627" lon="-3.82788">
        <ele>352.54</ele>
        <time>2021-03-20T18:02:43Z</time>
      </trkpt>
      <trkpt lat="55.49647" lon="-3.82863">
        <ele>353.61</ele>
        <time>2021-03-20T18:02:46Z</time>
      </trkpt>
      <trkpt lat="55.49698" lon="-3.82986">
        <ele>352.76</ele>
        <time>2021-03-20T18:02:49Z</time>
      </trkpt>
      <trkpt lat="55.49722" lon="-3.83032">
        <ele>351.63</ele>
        <time>2021-03-20T18:02:52Z</time>
      </trkpt>
      <trkpt lat="55.49743" lon="-3.83063">
        <ele>350.17</ele>
        <time>2021-03-20T18:02:55Z</time>
      </trkpt>
      <trkpt lat="55.49764" lon="-3.8309">
        <ele>349.16</ele>
        <time>2021-03-20T18:02:58Z</time>
      </trkpt>
      <trkpt lat="55.49865" lon="-3.83205">
        <ele>343.62</ele>
        <time>2021-03-20T18:03:00Z</time>
      </trkpt>
      <trkpt lat="55.49884" lon="-3.83232">
        <ele>342.66</ele>
        <time>2021-03-20T18:03:03Z</time>
      </trkpt>
      <trkpt lat="55.49925" lon="-3.83304">
        <ele>337.08</ele>
        <time>2021-03-20T18:03:06Z</time>
      </trkpt>
      <trkpt lat="55.49992" lon="-3.8343">
        <ele>332.55</ele>
        <time>2021-03-20T18:03:09Z</time>
      </trkpt>
      <trkpt lat="55.50046" lon="-3.83541">
        <ele>327.68</ele>
        <time>2021-03-20T18:03:12Z</time>
      </trkpt>
      <trkpt lat="55.50099" lon="-3.83671">
        <ele>326.95</ele>
        <time>2021-03-20T18:03:15Z</time>
      </trkpt>
      <trkpt lat="55.5016" lon="-3.83824">
        <ele>326.88</ele>
        <time>2021-03-20T18:03:17Z</time>
      </trkpt>
      <trkpt lat="55.5019" lon="-3.83919">
        <ele>324.55</ele>
        <time>2021-03-20T18:03:20Z</time>
      </trkpt>
      <trkpt lat="55.50204" lon="-3.83976">
        <ele>322.45</ele>
        <time>2021-03-20T18:03:23Z</time>
      </trkpt>
      <trkpt lat="55.50221" lon="-3.84065">
        <ele>316.33</ele>
        <time>2021-03-20T18:03:26Z</time>
      </trkpt>
      <trkpt lat="55.50235" lon="-3.84127">
        <ele>312.98</ele>
        <time>2021-03-20T18:03:29Z</time>
      </trkpt>
      <trkpt lat="55.50245" lon="-3.84164">
        <ele>311.02</ele>
        <time>2021-03-20T18:03:32Z</time>
      </trkpt>
      <trkpt lat="55.50297" lon="-3.84332">
        <ele>304.73</ele>
        <time>2021-03-20T18:03:35Z</time>
      </trkpt>
      <trkpt lat="55.50329" lon="-3.84462">
        <ele>299.24</ele>
        <time>2021-03-20T18:03:37Z</time>
      </trkpt>
      <trkpt lat="55.50338" lon="-3.84512">
        <ele>297.92</ele>
        <time>2021-03-20T18:03:40Z</time>
      </trkpt>
      <trkpt lat="55.50347" lon="-3.84574">
        <ele>296.81</ele>
        <time>2021-03-20T18:03:43Z</time>
      </trkpt>
      <trkpt lat="55.50352" lon="-3.84598">
        <ele>296.14</ele>
        <time>2021-03-20T18:03:46Z</time>
      </trkpt>
      <trkpt lat="55.50394" lon="-3.84719">
        <ele>291.45</ele>
        <time>2021-03-20T18:03:49Z</time>
      </trkpt>
      <trkpt lat="55.5041" lon="-3.8477">
        <ele>288.65</ele>
        <time>2021-03-20T18:03:52Z</time>
      </trkpt>
      <trkpt lat="55.50452" lon="-3.84876">
        <ele>281.08</ele>
        <time>2021-03-20T18:03:54Z</time>
      </trkpt>
      <trkpt lat="55.50516" lon="-3.85006">
        <ele>275.7</ele>
        <time>2021-03-20T18:03:57Z</time>
      </trkpt>
      <trkpt lat="55.50539" lon="-3.85049">
        <ele>273.85</ele>
        <time>2021-03-20T18:04:00Z</time>
      </trkpt>
      <trkpt lat="55.50563" lon="-3.85084">
        <ele>270.67</ele>
        <time>2021-03-20T18:04:03Z</time>
      </trkpt>
      <trkpt lat="55.50582" lon="-3.85104">
        <ele>268.49</ele>
        <time>2021-03-20T18:04:06Z</time>
      </trkpt>
      <trkpt lat="55.5065" lon="-3.85165">
        <ele>266.11</ele>
        <time>2021-03-20T18:04:09Z</time>
      </trkpt>
      <trkpt lat="55.50676" lon="-3.85184">
        <ele>265.07</ele>
        <time>2021-03-20T18:04:12Z</time>
      </trkpt>
      <trkpt lat="55.5069" lon="-3.85189">
        <ele>265.2</ele>
        <time>2021-03-20T18:04:14Z</time>
      </trkpt>
      <trkpt lat="55.50794" lon="-3.85193">
        <ele>262.55</ele>
        <time>2021-03-20T18:04:17Z</time>
      </trkpt>
      <trkpt lat="55.50993" lon="-3.85234">
        <ele>255.69</ele>
        <time>2021-03-20T18:04:20Z</time>
      </trkpt>
      <trkpt lat="55.51025" lon="-3.85239">
        <ele>254.25</ele>
        <time>2021-03-20T18:04:23Z</time>
      </trkpt>
      <trkpt lat="55.51098" lon="-3.85243">
        <ele>253.86</ele>
        <time>2021-03-20T18:04:26Z</time>
      </trkpt>
      <trkpt lat="55.5116" lon="-3.85255">
        <ele>253.45</ele>
        <time>2021-03-20T18:04:29Z</time>
      </trkpt>
      <trkpt lat="55.51212" lon="-3.85271">
        <ele>251.46</ele>
        <time>2021-03-20T18:04:31Z</time>
      </trkpt>
      <trkpt lat="55.51265" lon="-3.85299">
        <ele>249.75</ele>
        <time>2021-03-20T18:04:34Z</time>
      </trkpt>
      <trkpt lat="55.51286" lon="-3.85317">
        <ele>247.94</ele>
        <time>2021-03-20T18:04:37Z</time>
      </trkpt>
      <trkpt lat="55.51298" lon="-3.85335">
        <ele>245.84</ele>
        <time>2021-03-20T18:04:40Z</time>
      </trkpt>
      <trkpt lat="55.51307" lon="-3.85356">
        <ele>243.61</ele>
        <time>2021-03-20T18:04:43Z</time>
      </trkpt>
      <trkpt lat="55.51313" lon="-3.85374">
        <ele>242.32</ele>
        <time>2021-03-20T18:04:46Z</time>
      </trkpt>
      <trkpt lat="55.51335" lon="-3.85515">
        <ele>232.44</ele>
        <time>2021-03-20T18:04:48Z</time>
      </trkpt>
      <trkpt lat="55.51339" lon="-3.85532">
        <ele>231.65</ele>
        <time>2021-03-20T18:04:51Z</time>
      </trkpt>
      <trkpt lat="55.51344" lon="-3.85546">
        <ele>230.94</ele>
        <time>2021-03-20T18:04:54Z</time>
      </trkpt>
      <trkpt lat="55.51354" lon="-3.85563">
        <ele>229.94</ele>
        <time>2021-03-20T18:04:57Z</time>
      </trkpt>
      <trkpt lat="55.51391" lon="-3.85605">
        <ele>228.09</ele>
        <time>2021-03-20T18:05:00Z</time>
      </trkpt>
      <trkpt lat="55.51404" lon="-3.85624">
        <ele>228.09</ele>
        <time>2021-03-20T18:05:03Z</time>
      </trkpt>
      <trkpt lat="55.51421" lon="-3.85657">
        <ele>227.63</ele>
        <time>2021-03-20T18:05:06Z</time>
      </trkpt>
      <trkpt lat="55.51434" lon="-3.85698">
        <ele>227.18</ele>
        <time>2021-03-20T18:05:08Z</time>
      </trkpt>
      <trkpt lat="55.51449" lon="-3.85773">
        <ele>225.48</ele>
        <time>2021-03-20T18:05:11Z</time>
      </trkpt>
      <trkpt lat="55.51463" lon="-3.85866">
        <ele>222.66</ele>
        <time>2021-03-20T18:05:14Z</time>
      </trkpt>
      <trkpt lat="55.51465" lon="-3.85889">
        <ele>222.73</ele>
        <time>2021-03-20T18:05:17Z</time>
      </trkpt>
      <trkpt lat="55.51464" lon="-3.85931">
        <ele>221.7</ele>
        <time>2021-03-20T18:05:20Z</time>
      </trkpt>
      <trkpt lat="55.51449" lon="-3.86006">
        <ele>219.96</ele>
        <time>2021-03-20T18:05:23Z</time>
      </trkpt>
      <trkpt lat="55.51448" lon="-3.86032">
        <ele>219.89</ele>
        <time>2021-03-20T18:05:25Z</time>
      </trkpt>
      <trkpt lat="55.51454" lon="-3.86092">
        <ele>220</ele>
        <time>2021-03-20T18:05:28Z</time>
      </trkpt>
      <trkpt lat="55.51458" lon="-3.86115">
        <ele>220.15</ele>
        <time>2021-03-20T18:05:31Z</time>
      </trkpt>
      <trkpt lat="55.51467" lon="-3.86145">
        <ele>221.22</ele>
        <time>2021-03-20T18:05:34Z</time>
      </trkpt>
      <trkpt lat="55.51503" lon="-3.86216">
        <ele>222.7</ele>
        <time>2021-03-20T18:05:37Z</time>
      </trkpt>
      <trkpt lat="55.51544" lon="-3.86308">
        <ele>224.67</ele>
        <time>2021-03-20T18:05:40Z</time>
      </trkpt>
      <trkpt lat="55.51565" lon="-3.86342">
        <ele>226</ele>
        <time>2021-03-20T18:05:42Z</time>
      </trkpt>
      <trkpt lat="55.51586" lon="-3.86366">
        <ele>225.9</ele>
        <time>2021-03-20T18:05:45Z</time>
      </trkpt>
      <trkpt lat="55.516" lon="-3.86377">
        <ele>225.41</ele>
        <time>2021-03-20T18:05:48Z</time>
      </trkpt>
      <trkpt lat="55.51658" lon="-3.86402">
        <ele>224.48</ele>
        <time>2021-03-20T18:05:51Z</time>
      </trkpt>
      <trkpt lat="55.51716" lon="-3.86434">
        <ele>224.61</ele>
        <time>2021-03-20T18:05:54Z</time>
      </trkpt>
      <trkpt lat="55.51846" lon="-3.86511">
        <ele>220.47</ele>
        <time>2021-03-20T18:05:57Z</time>
      </trkpt>
      <trkpt lat="55.51873" lon="-3.8653">
        <ele>220.07</ele>
        <time>2021-03-20T18:06:00Z</time>
      </trkpt>
      <trkpt lat="55.51886" lon="-3.86545">
        <ele>220.62</ele>
        <time>2021-03-20T18:06:02Z</time>
      </trkpt>
      <trkpt lat="55.51899" lon="-3.86565">
        <ele>220.61</ele>
        <time>2021-03-20T18:06:05Z</time>
      </trkpt>
      <trkpt lat="55.51965" lon="-3.86682">
        <ele>219.74</ele>
        <time>2021-03-20T18:06:08Z</time>
      </trkpt>
      <trkpt lat="55.52004" lon="-3.86741">
        <ele>220.4</ele>
        <time>2021-03-20T18:06:11Z</time>
      </trkpt>
      <trkpt lat="55.52034" lon="-3.86777">
        <ele>219.32</ele>
        <time>2021-03-20T18:06:14Z</time>
      </trkpt>
      <trkpt lat="55.52075" lon="-3.86821">
        <ele>216.43</ele>
        <time>2021-03-20T18:06:17Z</time>
      </trkpt>
      <trkpt lat="55.52087" lon="-3.8684">
        <ele>216.3</ele>
        <time>2021-03-20T18:06:19Z</time>
      </trkpt>
      <trkpt lat="55.52125" lon="-3.86934">
        <ele>217.07</ele>
        <time>2021-03-20T18:06:22Z</time>
      </trkpt>
      <trkpt lat="55.52139" lon="-3.86958">
        <ele>216.48</ele>
        <time>2021-03-20T18:06:25Z</time>
      </trkpt>
      <trkpt lat="55.52155" lon="-3.86979">
        <ele>216.62</ele>
        <time>2021-03-20T18:06:28Z</time>
      </trkpt>
      <trkpt lat="55.52182" lon="-3.87009">
        <ele>216.47</ele>
        <time>2021-03-20T18:06:31Z</time>
      </trkpt>
      <trkpt lat="55.52193" lon="-3.87026">
        <ele>216.99</ele>
        <time>2021-03-20T18:06:34Z</time>
      </trkpt>
      <trkpt lat="55.52204" lon="-3.87038">
        <ele>217.59</ele>
        <time>2021-03-20T18:06:37Z</time>
      </trkpt>
      <trkpt lat="55.52211" lon="-3.87048">
        <ele>217.89</ele>
        <time>2021-03-20T18:06:39Z</time>
      </trkpt>
      <trkpt lat="55.5225" lon="-3.87124">
        <ele>218.98</ele>
        <time>2021-03-20T18:06:42Z</time>
      </trkpt>
      <trkpt lat="55.52267" lon="-3.87163">
        <ele>218.38</ele>
        <time>2021-03-20T18:06:45Z</time>
      </trkpt>
      <trkpt lat="55.52278" lon="-3.87194">
        <ele>216.06</ele>
        <time>2021-03-20T18:06:48Z</time>
      </trkpt>
      <trkpt lat="55.52292" lon="-3.87252">
        <ele>212.43</ele>
        <time>2021-03-20T18:06:51Z</time>
      </trkpt>
      <trkpt lat="55.52308" lon="-3.87432">
        <ele>211.86</ele>
        <time>2021-03-20T18:06:54Z</time>
      </trkpt>
      <trkpt lat="55.52311" lon="-3.87516">
        <ele>214.49</ele>
        <time>2021-03-20T18:06:56Z</time>
      </trkpt>
      <trkpt lat="55.52316" lon="-3.87538">
        <ele>215.27</ele>
        <time>2021-03-20T18:06:59Z</time>
      </trkpt>
      <trkpt lat="55.52321" lon="-3.87552">
        <ele>215.17</ele>
        <time>2021-03-20T18:07:02Z</time>
      </trkpt>
      <trkpt lat="55.52328" lon="-3.8756">
        <ele>215.05</ele>
        <time>2021-03-20T18:07:05Z</time>
      </trkpt>
      <trkpt lat="55.52337" lon="-3.87589">
        <ele>216.98</ele>
        <time>2021-03-20T18:07:07Z</time>
      </trkpt>
      <trkpt lat="55.52343" lon="-3.87599">
        <ele>217.12</ele>
        <time>2021-03-20T18:07:10Z</time>
      </trkpt>
      <trkpt lat="55.524" lon="-3.87661">
        <ele>219.19</ele>
        <time>2021-03-20T18:07:12Z</time>
      </trkpt>
      <trkpt lat="55.52422" lon="-3.87687">
        <ele>219.71</ele>
        <time>2021-03-20T18:07:15Z</time>
      </trkpt>
      <trkpt lat="55.52471" lon="-3.87755">
        <ele>222.47</ele>
        <time>2021-03-20T18:07:17Z</time>
      </trkpt>
      <trkpt lat="55.52545" lon="-3.87891">
        <ele>225.82</ele>
        <time>2021-03-20T18:07:20Z</time>
      </trkpt>
      <trkpt lat="55.52606" lon="-3.88013">
        <ele>225.9</ele>
        <time>2021-03-20T18:07:22Z</time>
      </trkpt>
      <trkpt lat="55.52631" lon="-3.88059">
        <ele>226.81</ele>
        <time>2021-03-20T18:07:24Z</time>
      </trkpt>
      <trkpt lat="55.52642" lon="-3.88074">
        <ele>227.87</ele>
        <time>2021-03-20T18:07:27Z</time>
      </trkpt>
      <trkpt lat="55.52683" lon="-3.88119">
        <ele>230.41</ele>
        <time>2021-03-20T18:07:29Z</time>
      </trkpt>
      <trkpt lat="55.52834" lon="-3.88284">
        <ele>221.76</ele>
        <time>2021-03-20T18:07:32Z</time>
      </trkpt>
      <trkpt lat="55.52897" lon="-3.88345">
        <ele>220.46</ele>
        <time>2021-03-20T18:07:34Z</time>
      </trkpt>
      <trkpt lat="55.52904" lon="-3.88355">
        <ele>220.48</ele>
        <time>2021-03-20T18:07:37Z</time>
      </trkpt>
      <trkpt lat="55.52913" lon="-3.88372">
        <ele>220.15</ele>
        <time>2021-03-20T18:07:39Z</time>
      </trkpt>
      <trkpt lat="55.52926" lon="-3.88411">
        <ele>219.89</ele>
        <time>2021-03-20T18:07:41Z</time>
      </trkpt>
      <trkpt lat="55.52952" lon="-3.88508">
        <ele>217.93</ele>
        <time>2021-03-20T18:07:44Z</time>
      </trkpt>
      <trkpt lat="55.52963" lon="-3.88535">
        <ele>216.68</ele>
        <time>2021-03-20T18:07:46Z</time>
      </trkpt>
      <trkpt lat="55.52973" lon="-3.88548">
        <ele>215.96</ele>
        <time>2021-03-20T18:07:49Z</time>
      </trkpt>
      <trkpt lat="55.5298" lon="-3.88552">
        <ele>215.43</ele>
        <time>2021-03-20T18:07:51Z</time>
      </trkpt>
      <trkpt lat="55.53002" lon="-3.88558">
        <ele>214</ele>
        <time>2021-03-20T18:07:54Z</time>
      </trkpt>
      <trkpt lat="55.53032" lon="-3.88551">
        <ele>215.16</ele>
        <time>2021-03-20T18:07:56Z</time>
      </trkpt>
      <trkpt lat="55.53065" lon="-3.8853">
        <ele>216.68</ele>
        <time>2021-03-20T18:07:58Z</time>
      </trkpt>
      <trkpt lat="55.53077" lon="-3.88528">
        <ele>217.53</ele>
        <time>2021-03-20T18:08:01Z</time>
      </trkpt>
      <trkpt lat="55.53091" lon="-3.88532">
        <ele>217.9</ele>
        <time>2021-03-20T18:08:03Z</time>
      </trkpt>
      <trkpt lat="55.53098" lon="-3.88541">
        <ele>217.77</ele>
        <time>2021-03-20T18:08:06Z</time>
      </trkpt>
      <trkpt lat="55.53103" lon="-3.88558">
        <ele>217.62</ele>
        <time>2021-03-20T18:08:08Z</time>
      </trkpt>
      <trkpt lat="55.53108" lon="-3.88587">
        <ele>216.77</ele>
        <time>2021-03-20T18:08:10Z</time>
      </trkpt>
      <trkpt lat="55.53113" lon="-3.88602">
        <ele>216.41</ele>
        <time>2021-03-20T18:08:13Z</time>
      </trkpt>
      <trkpt lat="55.53192" lon="-3.8877">
        <ele>214.92</ele>
        <time>2021-03-20T18:08:15Z</time>
      </trkpt>
      <trkpt lat="55.53203" lon="-3.88784">
        <ele>214.54</ele>
        <time>2021-03-20T18:08:18Z</time>
      </trkpt>
      <trkpt lat="55.5321" lon="-3.88789">
        <ele>214.22</ele>
        <time>2021-03-20T18:08:20Z</time>
      </trkpt>
      <trkpt lat="55.53257" lon="-3.88795">
        <ele>211.55</ele>
        <time>2021-03-20T18:08:23Z</time>
      </trkpt>
      <trkpt lat="55.53276" lon="-3.88804">
        <ele>209.25</ele>
        <time>2021-03-20T18:08:25Z</time>
      </trkpt>
      <trkpt lat="55.53315" lon="-3.88845">
        <ele>206.87</ele>
        <time>2021-03-20T18:08:27Z</time>
      </trkpt>
      <trkpt lat="55.53353" lon="-3.88906">
        <ele>210.77</ele>
        <time>2021-03-20T18:08:30Z</time>
      </trkpt>
      <trkpt lat="55.53367" lon="-3.88918">
        <ele>213.19</ele>
        <time>2021-03-20T18:08:32Z</time>
      </trkpt>
      <trkpt lat="55.53383" lon="-3.88921">
        <ele>216.17</ele>
        <time>2021-03-20T18:08:35Z</time>
      </trkpt>
      <trkpt lat="55.53404" lon="-3.88915">
        <ele>218.56</ele>
        <time>2021-03-20T18:08:37Z</time>
      </trkpt>
      <trkpt lat="55.53309" lon="-3.89238">
        <ele>220.82</ele>
        <time>2021-03-20T18:08:42Z</time>
      </trkpt>
      <trkpt lat="55.53156" lon="-3.89685">
        <ele>221.1</ele>
        <time>2021-03-20T18:08:46Z</time>
      </trkpt>
      <trkpt lat="55.53119" lon="-3.89789">
        <ele>219.84</ele>
        <time>2021-03-20T18:08:51Z</time>
      </trkpt>
      <trkpt lat="55.53096" lon="-3.89844">
        <ele>218.71</ele>
        <time>2021-03-20T18:08:56Z</time>
      </trkpt>
      <trkpt lat="55.53083" lon="-3.89866">
        <ele>218.13</ele>
        <time>2021-03-20T18:09:00Z</time>
      </trkpt>
      <trkpt lat="55.53057" lon="-3.89901">
        <ele>217.49</ele>
        <time>2021-03-20T18:09:05Z</time>
      </trkpt>
      <trkpt lat="55.5303" lon="-3.89944">
        <ele>219.18</ele>
        <time>2021-03-20T18:09:09Z</time>
      </trkpt>
      <trkpt lat="55.53009" lon="-3.8997">
        <ele>217.91</ele>
        <time>2021-03-20T18:09:14Z</time>
      </trkpt>
      <trkpt lat="55.52949" lon="-3.9002">
        <ele>216.26</ele>
        <time>2021-03-20T18:09:19Z</time>
      </trkpt>
      <trkpt lat="55.52941" lon="-3.9003">
        <ele>215.87</ele>
        <time>2021-03-20T18:09:23Z</time>
      </trkpt>
      <trkpt lat="55.5293" lon="-3.90052">
        <ele>215.46</ele>
        <time>2021-03-20T18:09:28Z</time>
      </trkpt>
      <trkpt lat="55.52924" lon="-3.90069">
        <ele>215.74</ele>
        <time>2021-03-20T18:09:32Z</time>
      </trkpt>
      <trkpt lat="55.52915" lon="-3.90106">
        <ele>216</ele>
        <time>2021-03-20T18:09:37Z</time>
      </trkpt>
      <trkpt lat="55.52902" lon="-3.90188">
        <ele>216.6</ele>
        <time>2021-03-20T18:09:42Z</time>
      </trkpt>
      <trkpt lat="55.52897" lon="-3.9023">
        <ele>216.56</ele>
        <time>2021-03-20T18:09:46Z</time>
      </trkpt>
      <trkpt lat="55.52893" lon="-3.9028">
        <ele>217.09</ele>
        <time>2021-03-20T18:09:51Z</time>
      </trkpt>
      <trkpt lat="55.52894" lon="-3.90354">
        <ele>216.2</ele>
        <time>2021-03-20T18:09:55Z</time>
      </trkpt>
      <trkpt lat="55.52939" lon="-3.90549">
        <ele>223.26</ele>
        <time>2021-03-20T18:10:00Z</time>
      </trkpt>
      <trkpt lat="55.52953" lon="-3.90614">
        <ele>225.84</ele>
        <time>2021-03-20T18:10:05Z</time>
      </trkpt>
      <trkpt lat="55.52963" lon="-3.90641">
        <ele>228.68</ele>
        <time>2021-03-20T18:10:09Z</time>
      </trkpt>
      <trkpt lat="55.52975" lon="-3.90661">
        <ele>231.55</ele>
        <time>2021-03-20T18:10:14Z</time>
      </trkpt>
      <trkpt lat="55.52983" lon="-3.90679">
        <ele>232.77</ele>
        <time>2021-03-20T18:10:19Z</time>
      </trkpt>
      <trkpt lat="55.52985" lon="-3.90694">
        <ele>232.83</ele>
        <time>2021-03-20T18:10:23Z</time>
      </trkpt>
      <trkpt lat="55.52985" lon="-3.90746">
        <ele>231.3</ele>
        <time>2021-03-20T18:10:28Z</time>
      </trkpt>
      <trkpt lat="55.52978" lon="-3.9084">
        <ele>229.22</ele>
        <time>2021-03-20T18:10:32Z</time>
      </trkpt>
      <trkpt lat="55.52978" lon="-3.90971">
        <ele>231.78</ele>
        <time>2021-03-20T18:10:37Z</time>
      </trkpt>
      <trkpt lat="55.52976" lon="-3.91003">
        <ele>231.13</ele>
        <time>2021-03-20T18:10:42Z</time>
      </trkpt>
      <trkpt lat="55.52976" lon="-3.91194">
        <ele>229.02</ele>
        <time>2021-03-20T18:10:46Z</time>
      </trkpt>
      <trkpt lat="55.5298" lon="-3.91257">
        <ele>229.03</ele>
        <time>2021-03-20T18:10:51Z</time>
      </trkpt>
      <trkpt lat="55.52994" lon="-3.91344">
        <ele>229.01</ele>
        <time>2021-03-20T18:10:55Z</time>
      </trkpt>
      <trkpt lat="55.53" lon="-3.91368">
        <ele>228.96</ele>
        <time>2021-03-20T18:11:00Z</time>
      </trkpt>
      <trkpt lat="55.53008" lon="-3.9139">
        <ele>230.07</ele>
        <time>2021-03-20T18:11:05Z</time>
      </trkpt>
      <trkpt lat="55.53026" lon="-3.91424">
        <ele>230.24</ele>
        <time>2021-03-20T18:11:09Z</time>
      </trkpt>
      <trkpt lat="55.53083" lon="-3.91519">
        <ele>231.55</ele>
        <time>2021-03-20T18:11:14Z</time>
      </trkpt>
      <trkpt lat="55.5314" lon="-3.91609">
        <ele>234.28</ele>
        <time>2021-03-20T18:11:18Z</time>
      </trkpt>
      <trkpt lat="55.53153" lon="-3.91633">
        <ele>235.49</ele>
        <time>2021-03-20T18:11:23Z</time>
      </trkpt>
      <trkpt lat="55.53162" lon="-3.91655">
        <ele>235.42</ele>
        <time>2021-03-20T18:11:28Z</time>
      </trkpt>
      <trkpt lat="55.53198" lon="-3.91758">
        <ele>235.05</ele>
        <time>2021-03-20T18:11:32Z</time>
      </trkpt>
      <trkpt lat="55.53208" lon="-3.91777">
        <ele>235.04</ele>
        <time>2021-03-20T18:11:37Z</time>
      </trkpt>
      <trkpt lat="55.53217" lon="-3.91788">
        <ele>235.18</ele>
        <time>2021-03-20T18:11:42Z</time>
      </trkpt>
      <trkpt lat="55.53231" lon="-3.91799">
        <ele>235.15</ele>
        <time>2021-03-20T18:11:46Z</time>
      </trkpt>
      <trkpt lat="55.53269" lon="-3.91807">
        <ele>235.43</ele>
        <time>2021-03-20T18:11:51Z</time>
      </trkpt>
      <trkpt lat="55.53297" lon="-3.91807">
        <ele>235.79</ele>
        <time>2021-03-20T18:11:55Z</time>
      </trkpt>
      <trkpt lat="55.53337" lon="-3.91798">
        <ele>237.22</ele>
        <time>2021-03-20T18:12:00Z</time>
      </trkpt>
      <trkpt lat="55.53358" lon="-3.91799">
        <ele>236.35</ele>
        <time>2021-03-20T18:12:05Z</time>
      </trkpt>
      <trkpt lat="55.53385" lon="-3.91805">
        <ele>235.08</ele>
        <time>2021-03-20T18:12:09Z</time>
      </trkpt>
      <trkpt lat="55.53401" lon="-3.91813">
        <ele>234.47</ele>
        <time>2021-03-20T18:12:14Z</time>
      </trkpt>
      <trkpt lat="55.53422" lon="-3.91828">
        <ele>234.05</ele>
        <time>2021-03-20T18:12:18Z</time>
      </trkpt>
      <trkpt lat="55.53444" lon="-3.91857">
        <ele>232.14</ele>
        <time>2021-03-20T18:12:23Z</time>
      </trkpt>
      <trkpt lat="55.53459" lon="-3.91885">
        <ele>234.11</ele>
        <time>2021-03-20T18:12:28Z</time>
      </trkpt>
      <trkpt lat="55.53466" lon="-3.91901">
        <ele>234.72</ele>
        <time>2021-03-20T18:12:32Z</time>
      </trkpt>
      <trkpt lat="55.53473" lon="-3.91937">
        <ele>235.14</ele>
        <time>2021-03-20T18:12:37Z</time>
      </trkpt>
      <trkpt lat="55.53474" lon="-3.91964">
        <ele>235.28</ele>
        <time>2021-03-20T18:12:41Z</time>
      </trkpt>
      <trkpt lat="55.53463" lon="-3.92047">
        <ele>234.96</ele>
        <time>2021-03-20T18:12:46Z</time>
      </trkpt>
      <trkpt lat="55.53454" lon="-3.92093">
        <ele>234.69</ele>
        <time>2021-03-20T18:12:51Z</time>
      </trkpt>
      <trkpt lat="55.53437" lon="-3.92158">
        <ele>234.64</ele>
        <time>2021-03-20T18:12:55Z</time>
      </trkpt>
      <trkpt lat="55.53422" lon="-3.92234">
        <ele>234.75</ele>
        <time>2021-03-20T18:13:00Z</time>
      </trkpt>
      <trkpt lat="55.53417" lon="-3.92302">
        <ele>234.89</ele>
        <time>2021-03-20T18:13:04Z</time>
      </trkpt>
      <trkpt lat="55.53414" lon="-3.9248">
        <ele>236</ele>
        <time>2021-03-20T18:13:09Z</time>
      </trkpt>
      <trkpt lat="55.5341" lon="-3.92559">
        <ele>236.76</ele>
        <time>2021-03-20T18:13:14Z</time>
      </trkpt>
      <trkpt lat="55.53401" lon="-3.92626">
        <ele>238.52</ele>
        <time>2021-03-20T18:13:18Z</time>
      </trkpt>
      <trkpt lat="55.53383" lon="-3.92697">
        <ele>240.68</ele>
        <time>2021-03-20T18:13:23Z</time>
      </trkpt>
      <trkpt lat="55.53363" lon="-3.92751">
        <ele>241.27</ele>
        <time>2021-03-20T18:13:28Z</time>
      </trkpt>
      <trkpt lat="55.53344" lon="-3.92796">
        <ele>240.84</ele>
        <time>2021-03-20T18:13:32Z</time>
      </trkpt>
      <trkpt lat="55.53273" lon="-3.92911">
        <ele>240.48</ele>
        <time>2021-03-20T18:13:37Z</time>
      </trkpt>
      <trkpt lat="55.53265" lon="-3.92927">
        <ele>240.46</ele>
        <time>2021-03-20T18:13:41Z</time>
      </trkpt>
      <trkpt lat="55.53232" lon="-3.93006">
        <ele>241.47</ele>
        <time>2021-03-20T18:13:46Z</time>
      </trkpt>
      <trkpt lat="55.53209" lon="-3.93051">
        <ele>241.92</ele>
        <time>2021-03-20T18:13:51Z</time>
      </trkpt>
      <trkpt lat="55.53199" lon="-3.93085">
        <ele>243.42</ele>
        <time>2021-03-20T18:13:55Z</time>
      </trkpt>
      <trkpt lat="55.53184" lon="-3.93173">
        <ele>243.62</ele>
        <time>2021-03-20T18:14:00Z</time>
      </trkpt>
      <trkpt lat="55.53176" lon="-3.93207">
        <ele>242.7</ele>
        <time>2021-03-20T18:14:04Z</time>
      </trkpt>
      <trkpt lat="55.53166" lon="-3.93247">
        <ele>242.67</ele>
        <time>2021-03-20T18:14:09Z</time>
      </trkpt>
      <trkpt lat="55.53154" lon="-3.93286">
        <ele>242.4</ele>
        <time>2021-03-20T18:14:14Z</time>
      </trkpt>
      <trkpt lat="55.53135" lon="-3.93332">
        <ele>242.52</ele>
        <time>2021-03-20T18:14:18Z</time>
      </trkpt>
      <trkpt lat="55.53099" lon="-3.93413">
        <ele>243.01</ele>
        <time>2021-03-20T18:14:23Z</time>
      </trkpt>
      <trkpt lat="55.53051" lon="-3.93509">
        <ele>240.4</ele>
        <time>2021-03-20T18:14:27Z</time>
      </trkpt>
      <trkpt lat="55.53042" lon="-3.93535">
        <ele>241.14</ele>
        <time>2021-03-20T18:14:32Z</time>
      </trkpt>
      <trkpt lat="55.53037" lon="-3.93558">
        <ele>241.06</ele>
        <time>2021-03-20T18:14:37Z</time>
      </trkpt>
      <trkpt lat="55.53028" lon="-3.93618">
        <ele>241.54</ele>
        <time>2021-03-20T18:14:41Z</time>
      </trkpt>
      <trkpt lat="55.53015" lon="-3.93743">
        <ele>242.41</ele>
        <time>2021-03-20T18:14:46Z</time>
      </trkpt>
      <trkpt lat="55.52994" lon="-3.9392">
        <ele>244.34</ele>
        <time>2021-03-20T18:14:51Z</time>
      </trkpt>
      <trkpt lat="55.52962" lon="-3.94245">
        <ele>248.19</ele>
        <time>2021-03-20T18:14:55Z</time>
      </trkpt>
      <trkpt lat="55.52959" lon="-3.94293">
        <ele>248.04</ele>
        <time>2021-03-20T18:15:00Z</time>
      </trkpt>
      <trkpt lat="55.52964" lon="-3.94388">
        <ele>247.29</ele>
        <time>2021-03-20T18:15:04Z</time>
      </trkpt>
      <trkpt lat="55.52971" lon="-3.9446">
        <ele>247.21</ele>
        <time>2021-03-20T18:15:09Z</time>
      </trkpt>
      <trkpt lat="55.52979" lon="-3.9451">
        <ele>247.07</ele>
        <time>2021-03-20T18:15:14Z</time>
      </trkpt>
      <trkpt lat="55.52994" lon="-3.94586">
        <ele>247.79</ele>
        <time>2021-03-20T18:15:18Z</time>
      </trkpt>
      <trkpt lat="55.53007" lon="-3.9472">
        <ele>248.62</ele>
        <time>2021-03-20T18:15:23Z</time>
      </trkpt>
      <trkpt lat="55.53007" lon="-3.94766">
        <ele>249.64</ele>
        <time>2021-03-20T18:15:27Z</time>
      </trkpt>
      <trkpt lat="55.53003" lon="-3.94817">
        <ele>249.39</ele>
        <time>2021-03-20T18:15:32Z</time>
      </trkpt>
      <trkpt lat="55.53002" lon="-3.94896">
        <ele>248.96</ele>
        <time>2021-03-20T18:15:37Z</time>
      </trkpt>
      <trkpt lat="55.53027" lon="-3.9514">
        <ele>246.9</ele>
        <time>2021-03-20T18:15:41Z</time>
      </trkpt>
      <trkpt lat="55.5309" lon="-3.95603">
        <ele>250</ele>
        <time>2021-03-20T18:15:46Z</time>
      </trkpt>
      <trkpt lat="55.5315" lon="-3.96034">
        <ele>252</ele>
        <time>2021-03-20T18:15:50Z</time>
      </trkpt>
      <trkpt lat="55.53168" lon="-3.96149">
        <ele>252.94</ele>
        <time>2021-03-20T18:15:55Z</time>
      </trkpt>
      <trkpt lat="55.5317" lon="-3.96173">
        <ele>252.87</ele>
        <time>2021-03-20T18:16:00Z</time>
      </trkpt>
      <trkpt lat="55.5317" lon="-3.96189">
        <ele>252.88</ele>
        <time>2021-03-20T18:16:04Z</time>
      </trkpt>
      <trkpt lat="55.53168" lon="-3.96209">
        <ele>252.97</ele>
        <time>2021-03-20T18:16:09Z</time>
      </trkpt>
      <trkpt lat="55.5316" lon="-3.96234">
        <ele>253.93</ele>
        <time>2021-03-20T18:16:14Z</time>
      </trkpt>
      <trkpt lat="55.53113" lon="-3.96342">
        <ele>253.92</ele>
        <time>2021-03-20T18:16:18Z</time>
      </trkpt>
      <trkpt lat="55.53091" lon="-3.96399">
        <ele>258.94</ele>
        <time>2021-03-20T18:16:23Z</time>
      </trkpt>
      <trkpt lat="55.53088" lon="-3.96414">
        <ele>260.58</ele>
        <time>2021-03-20T18:16:27Z</time>
      </trkpt>
      <trkpt lat="55.53088" lon="-3.9644">
        <ele>261.8</ele>
        <time>2021-03-20T18:16:32Z</time>
      </trkpt>
      <trkpt lat="55.5309" lon="-3.96466">
        <ele>262.79</ele>
        <time>2021-03-20T18:16:37Z</time>
      </trkpt>
      <trkpt lat="55.53095" lon="-3.96489">
        <ele>262.91</ele>
        <time>2021-03-20T18:16:41Z</time>
      </trkpt>
      <trkpt lat="55.53112" lon="-3.96536">
        <ele>262.63</ele>
        <time>2021-03-20T18:16:46Z</time>
      </trkpt>
      <trkpt lat="55.53135" lon="-3.96576">
        <ele>262.7</ele>
        <time>2021-03-20T18:16:50Z</time>
      </trkpt>
      <trkpt lat="55.5316" lon="-3.96613">
        <ele>262.95</ele>
        <time>2021-03-20T18:16:55Z</time>
      </trkpt>
      <trkpt lat="55.53184" lon="-3.96637">
        <ele>263.55</ele>
        <time>2021-03-20T18:17:00Z</time>
      </trkpt>
      <trkpt lat="55.53243" lon="-3.96677">
        <ele>260.91</ele>
        <time>2021-03-20T18:17:04Z</time>
      </trkpt>
      <trkpt lat="55.53258" lon="-3.9669">
        <ele>260.16</ele>
        <time>2021-03-20T18:17:09Z</time>
      </trkpt>
      <trkpt lat="55.53277" lon="-3.96717">
        <ele>259.89</ele>
        <time>2021-03-20T18:17:13Z</time>
      </trkpt>
      <trkpt lat="55.53285" lon="-3.96736">
        <ele>259.82</ele>
        <time>2021-03-20T18:17:18Z</time>
      </trkpt>
      <trkpt lat="55.53317" lon="-3.96819">
        <ele>260.28</ele>
        <time>2021-03-20T18:17:23Z</time>
      </trkpt>
      <trkpt lat="55.53329" lon="-3.96862">
        <ele>260.53</ele>
        <time>2021-03-20T18:17:27Z</time>
      </trkpt>
      <trkpt lat="55.53339" lon="-3.96922">
        <ele>261.73</ele>
        <time>2021-03-20T18:17:32Z</time>
      </trkpt>
      <trkpt lat="55.5336" lon="-3.97091">
        <ele>264.08</ele>
        <time>2021-03-20T18:17:36Z</time>
      </trkpt>
      <trkpt lat="55.53365" lon="-3.97112">
        <ele>263.71</ele>
        <time>2021-03-20T18:17:41Z</time>
      </trkpt>
      <trkpt lat="55.5339" lon="-3.97221">
        <ele>263.89</ele>
        <time>2021-03-20T18:17:46Z</time>
      </trkpt>
      <trkpt lat="55.53421" lon="-3.97312">
        <ele>267</ele>
        <time>2021-03-20T18:17:50Z</time>
      </trkpt>
      <trkpt lat="55.53477" lon="-3.97446">
        <ele>264.48</ele>
        <time>2021-03-20T18:17:55Z</time>
      </trkpt>
      <trkpt lat="55.53519" lon="-3.97524">
        <ele>256.8</ele>
        <time>2021-03-20T18:18:00Z</time>
      </trkpt>
      <trkpt lat="55.53541" lon="-3.97557">
        <ele>255.46</ele>
        <time>2021-03-20T18:18:04Z</time>
      </trkpt>
      <trkpt lat="55.53621" lon="-3.97645">
        <ele>254.19</ele>
        <time>2021-03-20T18:18:09Z</time>
      </trkpt>
      <trkpt lat="55.5364" lon="-3.97683">
        <ele>255.11</ele>
        <time>2021-03-20T18:18:13Z</time>
      </trkpt>
      <trkpt lat="55.53646" lon="-3.97701">
        <ele>255.52</ele>
        <time>2021-03-20T18:18:18Z</time>
      </trkpt>
      <trkpt lat="55.53651" lon="-3.97732">
        <ele>255.51</ele>
        <time>2021-03-20T18:18:23Z</time>
      </trkpt>
      <trkpt lat="55.53653" lon="-3.97765">
        <ele>255.05</ele>
        <time>2021-03-20T18:18:27Z</time>
      </trkpt>
      <trkpt lat="55.53651" lon="-3.97801">
        <ele>254.42</ele>
        <time>2021-03-20T18:18:32Z</time>
      </trkpt>
      <trkpt lat="55.53628" lon="-3.97992">
        <ele>250.8</ele>
        <time>2021-03-20T18:18:36Z</time>
      </trkpt>
      <trkpt lat="55.536" lon="-3.98103">
        <ele>250.22</ele>
        <time>2021-03-20T18:18:41Z</time>
      </trkpt>
      <trkpt lat="55.53561" lon="-3.98234">
        <ele>250.85</ele>
        <time>2021-03-20T18:18:46Z</time>
      </trkpt>
      <trkpt lat="55.53543" lon="-3.98475">
        <ele>250.59</ele>
        <time>2021-03-20T18:18:50Z</time>
      </trkpt>
      <trkpt lat="55.53544" lon="-3.98641">
        <ele>250.17</ele>
        <time>2021-03-20T18:18:55Z</time>
      </trkpt>
      <trkpt lat="55.53539" lon="-3.98798">
        <ele>250.08</ele>
        <time>2021-03-20T18:18:59Z</time>
      </trkpt>
      <trkpt lat="55.53553" lon="-3.98927">
        <ele>250.45</ele>
        <time>2021-03-20T18:19:04Z</time>
      </trkpt>
      <trkpt lat="55.53555" lon="-3.9898">
        <ele>249.99</ele>
        <time>2021-03-20T18:19:09Z</time>
      </trkpt>
      <trkpt lat="55.53555" lon="-3.99036">
        <ele>249.99</ele>
        <time>2021-03-20T18:19:13Z</time>
      </trkpt>
      <trkpt lat="55.53552" lon="-3.9908">
        <ele>249.86</ele>
        <time>2021-03-20T18:19:18Z</time>
      </trkpt>
      <trkpt lat="55.53543" lon="-3.99134">
        <ele>249.54</ele>
        <time>2021-03-20T18:19:23Z</time>
      </trkpt>
      <trkpt lat="55.53526" lon="-3.99211">
        <ele>250.04</ele>
        <time>2021-03-20T18:19:27Z</time>
      </trkpt>
      <trkpt lat="55.53515" lon="-3.99299">
        <ele>252.3</ele>
        <time>2021-03-20T18:19:32Z</time>
      </trkpt>
      <trkpt lat="55.53512" lon="-3.99759">
        <ele>251.43</ele>
        <time>2021-03-20T18:19:36Z</time>
      </trkpt>
      <trkpt lat="55.53506" lon="-3.99804">
        <ele>251.01</ele>
        <time>2021-03-20T18:19:41Z</time>
      </trkpt>
      <trkpt lat="55.53487" lon="-3.99891">
        <ele>248.55</ele>
        <time>2021-03-20T18:19:46Z</time>
      </trkpt>
      <trkpt lat="55.53483" lon="-3.99924">
        <ele>248.38</ele>
        <time>2021-03-20T18:19:50Z</time>
      </trkpt>
      <trkpt lat="55.53482" lon="-3.99955">
        <ele>248.73</ele>
        <time>2021-03-20T18:19:55Z</time>
      </trkpt>
      <trkpt lat="55.53484" lon="-3.99986">
        <ele>249.42</ele>
        <time>2021-03-20T18:19:59Z</time>
      </trkpt>
      <trkpt lat="55.53497" lon="-4.00086">
        <ele>249.76</ele>
        <time>2021-03-20T18:20:04Z</time>
      </trkpt>
      <trkpt lat="55.535" lon="-4.00123">
        <ele>249.98</ele>
        <time>2021-03-20T18:20:09Z</time>
      </trkpt>
      <trkpt lat="55.535" lon="-4.00169">
        <ele>249.98</ele>
        <time>2021-03-20T18:20:13Z</time>
      </trkpt>
      <trkpt lat="55.53495" lon="-4.00252">
        <ele>249.8</ele>
        <time>2021-03-20T18:20:18Z</time>
      </trkpt>
      <trkpt lat="55.53461" lon="-4.00533">
        <ele>244.83</ele>
        <time>2021-03-20T18:20:22Z</time>
      </trkpt>
      <trkpt lat="55.53383" lon="-4.01128">
        <ele>242.65</ele>
        <time>2021-03-20T18:20:27Z</time>
      </trkpt>
      <trkpt lat="55.53374" lon="-4.01179">
        <ele>242.1</ele>
        <time>2021-03-20T18:20:32Z</time>
      </trkpt>
      <trkpt lat="55.5334" lon="-4.01325">
        <ele>241.46</ele>
        <time>2021-03-20T18:20:36Z</time>
      </trkpt>
      <trkpt lat="55.53326" lon="-4.01398">
        <ele>241.17</ele>
        <time>2021-03-20T18:20:41Z</time>
      </trkpt>
      <trkpt lat="55.53263" lon="-4.01864">
        <ele>239.45</ele>
        <time>2021-03-20T18:20:45Z</time>
      </trkpt>
      <trkpt lat="55.5316" lon="-4.02763">
        <ele>238.11</ele>
        <time>2021-03-20T18:20:50Z</time>
      </trkpt>
      <trkpt lat="55.53136" lon="-4.02909">
        <ele>238.15</ele>
        <time>2021-03-20T18:20:55Z</time>
      </trkpt>
      <trkpt lat="55.531" lon="-4.03056">
        <ele>236.34</ele>
        <time>2021-03-20T18:20:59Z</time>
      </trkpt>
      <trkpt lat="55.53019" lon="-4.03551">
        <ele>235.66</ele>
        <time>2021-03-20T18:21:04Z</time>
      </trkpt>
      <trkpt lat="55.53009" lon="-4.03644">
        <ele>232.43</ele>
        <time>2021-03-20T18:21:09Z</time>
      </trkpt>
      <trkpt lat="55.52996" lon="-4.03842">
        <ele>230</ele>
        <time>2021-03-20T18:21:13Z</time>
      </trkpt>
      <trkpt lat="55.52983" lon="-4.04108">
        <ele>231.45</ele>
        <time>2021-03-20T18:21:18Z</time>
      </trkpt>
      <trkpt lat="55.52964" lon="-4.04204">
        <ele>229.83</ele>
        <time>2021-03-20T18:21:22Z</time>
      </trkpt>
      <trkpt lat="55.52763" lon="-4.05093">
        <ele>233.11</ele>
        <time>2021-03-20T18:21:27Z</time>
      </trkpt>
      <trkpt lat="55.52752" lon="-4.05149">
        <ele>233.16</ele>
        <time>2021-03-20T18:21:32Z</time>
      </trkpt>
      <trkpt lat="55.52741" lon="-4.05189">
        <ele>232.25</ele>
        <time>2021-03-20T18:21:36Z</time>
      </trkpt>
      <trkpt lat="55.52727" lon="-4.05229">
        <ele>231.63</ele>
        <time>2021-03-20T18:21:41Z</time>
      </trkpt>
      <trkpt lat="55.52688" lon="-4.0533">
        <ele>229.95</ele>
        <time>2021-03-20T18:21:45Z</time>
      </trkpt>
      <trkpt lat="55.52679" lon="-4.05359">
        <ele>229.26</ele>
        <time>2021-03-20T18:21:50Z</time>
      </trkpt>
      <trkpt lat="55.52666" lon="-4.05409">
        <ele>227.94</ele>
        <time>2021-03-20T18:21:55Z</time>
      </trkpt>
      <trkpt lat="55.52648" lon="-4.0549">
        <ele>227.02</ele>
        <time>2021-03-20T18:21:59Z</time>
      </trkpt>
      <trkpt lat="55.52628" lon="-4.05558">
        <ele>227.62</ele>
        <time>2021-03-20T18:22:04Z</time>
      </trkpt>
      <trkpt lat="55.5262" lon="-4.05595">
        <ele>227.32</ele>
        <time>2021-03-20T18:22:08Z</time>
      </trkpt>
      <trkpt lat="55.52614" lon="-4.05644">
        <ele>226.09</ele>
        <time>2021-03-20T18:22:13Z</time>
      </trkpt>
      <trkpt lat="55.5261" lon="-4.05743">
        <ele>224.97</ele>
        <time>2021-03-20T18:22:18Z</time>
      </trkpt>
      <trkpt lat="55.52589" lon="-4.05851">
        <ele>226.62</ele>
        <time>2021-03-20T18:22:22Z</time>
      </trkpt>
      <trkpt lat="55.52582" lon="-4.05874">
        <ele>227.08</ele>
        <time>2021-03-20T18:22:27Z</time>
      </trkpt>
      <trkpt lat="55.52531" lon="-4.05971">
        <ele>230.9</ele>
        <time>2021-03-20T18:22:32Z</time>
      </trkpt>
      <trkpt lat="55.52507" lon="-4.06006">
        <ele>231</ele>
        <time>2021-03-20T18:22:36Z</time>
      </trkpt>
      <trkpt lat="55.52469" lon="-4.06054">
        <ele>231.23</ele>
        <time>2021-03-20T18:22:41Z</time>
      </trkpt>
      <trkpt lat="55.52443" lon="-4.06094">
        <ele>231.57</ele>
        <time>2021-03-20T18:22:45Z</time>
      </trkpt>
      <trkpt lat="55.52435" lon="-4.06113">
        <ele>230.6</ele>
        <time>2021-03-20T18:22:50Z</time>
      </trkpt>
      <trkpt lat="55.52401" lon="-4.06228">
        <ele>226.79</ele>
        <time>2021-03-20T18:22:55Z</time>
      </trkpt>
      <trkpt lat="55.52357" lon="-4.06361">
        <ele>224</ele>
        <time>2021-03-20T18:22:59Z</time>
      </trkpt>
      <trkpt lat="55.52341" lon="-4.06401">
        <ele>224.12</ele>
        <time>2021-03-20T18:23:04Z</time>
      </trkpt>
      <trkpt lat="55.52182" lon="-4.06664">
        <ele>226.55</ele>
        <time>2021-03-20T18:23:08Z</time>
      </trkpt>
      <trkpt lat="55.52139" lon="-4.06749">
        <ele>224</ele>
        <time>2021-03-20T18:23:13Z</time>
      </trkpt>
      <trkpt lat="55.52124" lon="-4.06786">
        <ele>221.99</ele>
        <time>2021-03-20T18:23:18Z</time>
      </trkpt>
      <trkpt lat="55.52085" lon="-4.0692">
        <ele>222.1</ele>
        <time>2021-03-20T18:23:22Z</time>
      </trkpt>
      <trkpt lat="55.52071" lon="-4.0696">
        <ele>221.18</ele>
        <time>2021-03-20T18:23:27Z</time>
      </trkpt>
      <trkpt lat="55.52029" lon="-4.07045">
        <ele>217.76</ele>
        <time>2021-03-20T18:23:31Z</time>
      </trkpt>
      <trkpt lat="55.51983" lon="-4.07182">
        <ele>215.7</ele>
        <time>2021-03-20T18:23:36Z</time>
      </trkpt>
      <trkpt lat="55.51894" lon="-4.07436">
        <ele>213.17</ele>
        <time>2021-03-20T18:23:41Z</time>
      </trkpt>
      <trkpt lat="55.51766" lon="-4.07755">
        <ele>214.37</ele>
        <time>2021-03-20T18:23:45Z</time>
      </trkpt>
      <trkpt lat="55.51628" lon="-4.08073">
        <ele>209.81</ele>
        <time>2021-03-20T18:23:50Z</time>
      </trkpt>
      <trkpt lat="55.51573" lon="-4.08213">
        <ele>209.23</ele>
        <time>2021-03-20T18:23:55Z</time>
      </trkpt>
      <trkpt lat="55.51534" lon="-4.08324">
        <ele>209.39</ele>
        <time>2021-03-20T18:23:59Z</time>
      </trkpt>
      <trkpt lat="55.5148" lon="-4.08564">
        <ele>207.98</ele>
        <time>2021-03-20T18:24:04Z</time>
      </trkpt>
      <trkpt lat="55.51454" lon="-4.0871">
        <ele>206</ele>
        <time>2021-03-20T18:24:08Z</time>
      </trkpt>
      <trkpt lat="55.51446" lon="-4.08787">
        <ele>205</ele>
        <time>2021-03-20T18:24:13Z</time>
      </trkpt>
      <trkpt lat="55.51395" lon="-4.0928">
        <ele>204.74</ele>
        <time>2021-03-20T18:24:18Z</time>
      </trkpt>
      <trkpt lat="55.51327" lon="-4.09829">
        <ele>211.43</ele>
        <time>2021-03-20T18:24:22Z</time>
      </trkpt>
      <trkpt lat="55.51318" lon="-4.09911">
        <ele>212.8</ele>
        <time>2021-03-20T18:24:27Z</time>
      </trkpt>
      <trkpt lat="55.51313" lon="-4.10025">
        <ele>215.89</ele>
        <time>2021-03-20T18:24:31Z</time>
      </trkpt>
      <trkpt lat="55.51314" lon="-4.10132">
        <ele>217.04</ele>
        <time>2021-03-20T18:24:36Z</time>
      </trkpt>
      <trkpt lat="55.51323" lon="-4.10314">
        <ele>218.23</ele>
        <time>2021-03-20T18:24:41Z</time>
      </trkpt>
      <trkpt lat="55.51334" lon="-4.10497">
        <ele>223.01</ele>
        <time>2021-03-20T18:24:45Z</time>
      </trkpt>
      <trkpt lat="55.51334" lon="-4.10541">
        <ele>222.03</ele>
        <time>2021-03-20T18:24:50Z</time>
      </trkpt>
      <trkpt lat="55.51341" lon="-4.10704">
        <ele>221.57</ele>
        <time>2021-03-20T18:24:54Z</time>
      </trkpt>
      <trkpt lat="55.51352" lon="-4.10865">
        <ele>220.19</ele>
        <time>2021-03-20T18:24:59Z</time>
      </trkpt>
      <trkpt lat="55.51355" lon="-4.10903">
        <ele>219.46</ele>
        <time>2021-03-20T18:25:04Z</time>
      </trkpt>
      <trkpt lat="55.51415" lon="-4.11287">
        <ele>222.64</ele>
        <time>2021-03-20T18:25:08Z</time>
      </trkpt>
      <trkpt lat="55.5142" lon="-4.11333">
        <ele>222</ele>
        <time>2021-03-20T18:25:13Z</time>
      </trkpt>
      <trkpt lat="55.51428" lon="-4.11446">
        <ele>218.61</ele>
        <time>2021-03-20T18:25:17Z</time>
      </trkpt>
      <trkpt lat="55.51426" lon="-4.11493">
        <ele>218.67</ele>
        <time>2021-03-20T18:25:22Z</time>
      </trkpt>
      <trkpt lat="55.51422" lon="-4.11536">
        <ele>217.82</ele>
        <time>2021-03-20T18:25:27Z</time>
      </trkpt>
      <trkpt lat="55.51403" lon="-4.11639">
        <ele>215.49</ele>
        <time>2021-03-20T18:25:31Z</time>
      </trkpt>
      <trkpt lat="55.51432" lon="-4.11668">
        <ele>214.94</ele>
        <time>2021-03-20T18:25:36Z</time>
      </trkpt>
      <trkpt lat="55.51449" lon="-4.11695">
        <ele>214.17</ele>
        <time>2021-03-20T18:25:40Z</time>
      </trkpt>
      <trkpt lat="55.51458" lon="-4.11713">
        <ele>214.47</ele>
        <time>2021-03-20T18:25:45Z</time>
      </trkpt>
      <trkpt lat="55.51463" lon="-4.11731">
        <ele>214.46</ele>
        <time>2021-03-20T18:25:49Z</time>
      </trkpt>
      <trkpt lat="55.51472" lon="-4.11774">
        <ele>214</ele>
        <time>2021-03-20T18:25:54Z</time>
      </trkpt>
      <trkpt lat="55.51477" lon="-4.11809">
        <ele>213.17</ele>
        <time>2021-03-20T18:25:58Z</time>
      </trkpt>
      <trkpt lat="55.51506" lon="-4.12079">
        <ele>215.6</ele>
        <time>2021-03-20T18:26:03Z</time>
      </trkpt>
      <trkpt lat="55.51506" lon="-4.12103">
        <ele>215.66</ele>
        <time>2021-03-20T18:26:07Z</time>
      </trkpt>
      <trkpt lat="55.51497" lon="-4.12219">
        <ele>218.64</ele>
        <time>2021-03-20T18:26:12Z</time>
      </trkpt>
      <trkpt lat="55.51497" lon="-4.12244">
        <ele>219.59</ele>
        <time>2021-03-20T18:26:16Z</time>
      </trkpt>
      <trkpt lat="55.51508" lon="-4.12341">
        <ele>220.29</ele>
        <time>2021-03-20T18:26:21Z</time>
      </trkpt>
      <trkpt lat="55.51571" lon="-4.1286">
        <ele>221.15</ele>
        <time>2021-03-20T18:26:25Z</time>
      </trkpt>
      <trkpt lat="55.51594" lon="-4.13018">
        <ele>218</ele>
        <time>2021-03-20T18:26:29Z</time>
      </trkpt>
      <trkpt lat="55.51619" lon="-4.13174">
        <ele>217.01</ele>
        <time>2021-03-20T18:26:34Z</time>
      </trkpt>
      <trkpt lat="55.51623" lon="-4.13188">
        <ele>216.66</ele>
        <time>2021-03-20T18:26:38Z</time>
      </trkpt>
      <trkpt lat="55.51643" lon="-4.13227">
        <ele>216.97</ele>
        <time>2021-03-20T18:26:43Z</time>
      </trkpt>
      <trkpt lat="55.51786" lon="-4.13443">
        <ele>214.3</ele>
        <time>2021-03-20T18:26:47Z</time>
      </trkpt>
      <trkpt lat="55.51802" lon="-4.13478">
        <ele>214.13</ele>
        <time>2021-03-20T18:26:52Z</time>
      </trkpt>
      <trkpt lat="55.51809" lon="-4.13507">
        <ele>213.97</ele>
        <time>2021-03-20T18:26:56Z</time>
      </trkpt>
      <trkpt lat="55.51816" lon="-4.13555">
        <ele>213.64</ele>
        <time>2021-03-20T18:27:01Z</time>
      </trkpt>
      <trkpt lat="55.51816" lon="-4.13601">
        <ele>212.23</ele>
        <time>2021-03-20T18:27:05Z</time>
      </trkpt>
      <trkpt lat="55.5182" lon="-4.13657">
        <ele>211</ele>
        <time>2021-03-20T18:27:10Z</time>
      </trkpt>
      <trkpt lat="55.5182" lon="-4.13705">
        <ele>209.83</ele>
        <time>2021-03-20T18:27:14Z</time>
      </trkpt>
      <trkpt lat="55.51825" lon="-4.1375">
        <ele>208.71</ele>
        <time>2021-03-20T18:27:19Z</time>
      </trkpt>
      <trkpt lat="55.51826" lon="-4.13816">
        <ele>207.73</ele>
        <time>2021-03-20T18:27:23Z</time>
      </trkpt>
      <trkpt lat="55.5183" lon="-4.13852">
        <ele>207.3</ele>
        <time>2021-03-20T18:27:27Z</time>
      </trkpt>
      <trkpt lat="55.5183" lon="-4.13899">
        <ele>206.96</ele>
        <time>2021-03-20T18:27:32Z</time>
      </trkpt>
      <trkpt lat="55.51835" lon="-4.13946">
        <ele>206.96</ele>
        <time>2021-03-20T18:27:36Z</time>
      </trkpt>
      <trkpt lat="55.51835" lon="-4.14006">
        <ele>204.86</ele>
        <time>2021-03-20T18:27:41Z</time>
      </trkpt>
      <trkpt lat="55.5184" lon="-4.14046">
        <ele>204.23</ele>
        <time>2021-03-20T18:27:45Z</time>
      </trkpt>
      <trkpt lat="55.51841" lon="-4.14114">
        <ele>203.19</ele>
        <time>2021-03-20T18:27:50Z</time>
      </trkpt>
      <trkpt lat="55.51845" lon="-4.14143">
        <ele>202.8</ele>
        <time>2021-03-20T18:27:54Z</time>
      </trkpt>
      <trkpt lat="55.51845" lon="-4.14202">
        <ele>202.64</ele>
        <time>2021-03-20T18:27:59Z</time>
      </trkpt>
      <trkpt lat="55.51849" lon="-4.14241">
        <ele>203.16</ele>
        <time>2021-03-20T18:28:03Z</time>
      </trkpt>
      <trkpt lat="55.5185" lon="-4.14305">
        <ele>202.61</ele>
        <time>2021-03-20T18:28:08Z</time>
      </trkpt>
      <trkpt lat="55.51854" lon="-4.14333">
        <ele>202.73</ele>
        <time>2021-03-20T18:28:12Z</time>
      </trkpt>
      <trkpt lat="55.51855" lon="-4.14354">
        <ele>202.76</ele>
        <time>2021-03-20T18:28:16Z</time>
      </trkpt>
      <trkpt lat="55.51855" lon="-4.14555">
        <ele>204.31</ele>
        <time>2021-03-20T18:28:21Z</time>
      </trkpt>
      <trkpt lat="55.51883" lon="-4.14739">
        <ele>204.77</ele>
        <time>2021-03-20T18:28:25Z</time>
      </trkpt>
      <trkpt lat="55.51931" lon="-4.14964">
        <ele>203.79</ele>
        <time>2021-03-20T18:28:30Z</time>
      </trkpt>
      <trkpt lat="55.51937" lon="-4.1502">
        <ele>203.01</ele>
        <time>2021-03-20T18:28:34Z</time>
      </trkpt>
      <trkpt lat="55.51938" lon="-4.15099">
        <ele>202.26</ele>
        <time>2021-03-20T18:28:39Z</time>
      </trkpt>
      <trkpt lat="55.51943" lon="-4.15141">
        <ele>201.9</ele>
        <time>2021-03-20T18:28:43Z</time>
      </trkpt>
      <trkpt lat="55.5195" lon="-4.15182">
        <ele>201.66</ele>
        <time>2021-03-20T18:28:48Z</time>
      </trkpt>
      <trkpt lat="55.51972" lon="-4.1526">
        <ele>200.96</ele>
        <time>2021-03-20T18:28:52Z</time>
      </trkpt>
      <trkpt lat="55.52041" lon="-4.15469">
        <ele>201.53</ele>
        <time>2021-03-20T18:28:57Z</time>
      </trkpt>
      <trkpt lat="55.52052" lon="-4.15505">
        <ele>201.67</ele>
        <time>2021-03-20T18:29:01Z</time>
      </trkpt>
      <trkpt lat="55.52059" lon="-4.1554">
        <ele>200.57</ele>
        <time>2021-03-20T18:29:06Z</time>
      </trkpt>
      <trkpt lat="55.52064" lon="-4.15578">
        <ele>199.21</ele>
        <time>2021-03-20T18:29:10Z</time>
      </trkpt>
      <trkpt lat="55.52064" lon="-4.15627">
        <ele>197.76</ele>
        <time>2021-03-20T18:29:14Z</time>
      </trkpt>
      <trkpt lat="55.52069" lon="-4.15668">
        <ele>196.41</ele>
        <time>2021-03-20T18:29:19Z</time>
      </trkpt>
      <trkpt lat="55.52069" lon="-4.15724">
        <ele>195.5</ele>
        <time>2021-03-20T18:29:23Z</time>
      </trkpt>
      <trkpt lat="55.52073" lon="-4.15757">
        <ele>196.1</ele>
        <time>2021-03-20T18:29:28Z</time>
      </trkpt>
      <trkpt lat="55.52074" lon="-4.15806">
        <ele>197.64</ele>
        <time>2021-03-20T18:29:32Z</time>
      </trkpt>
      <trkpt lat="55.52078" lon="-4.15832">
        <ele>198.37</ele>
        <time>2021-03-20T18:29:37Z</time>
      </trkpt>
      <trkpt lat="55.52079" lon="-4.15889">
        <ele>197.5</ele>
        <time>2021-03-20T18:29:41Z</time>
      </trkpt>
      <trkpt lat="55.52083" lon="-4.15929">
        <ele>197.99</ele>
        <time>2021-03-20T18:29:46Z</time>
      </trkpt>
      <trkpt lat="55.52084" lon="-4.15976">
        <ele>197.01</ele>
        <time>2021-03-20T18:29:50Z</time>
      </trkpt>
      <trkpt lat="55.52088" lon="-4.16007">
        <ele>196.95</ele>
        <time>2021-03-20T18:29:55Z</time>
      </trkpt>
      <trkpt lat="55.52088" lon="-4.16058">
        <ele>196.29</ele>
        <time>2021-03-20T18:29:59Z</time>
      </trkpt>
      <trkpt lat="55.52093" lon="-4.16099">
        <ele>196.02</ele>
        <time>2021-03-20T18:30:04Z</time>
      </trkpt>
      <trkpt lat="55.52093" lon="-4.16134">
        <ele>196.02</ele>
        <time>2021-03-20T18:30:08Z</time>
      </trkpt>
      <trkpt lat="55.52097" lon="-4.16166">
        <ele>196.48</ele>
        <time>2021-03-20T18:30:12Z</time>
      </trkpt>
      <trkpt lat="55.52098" lon="-4.1621">
        <ele>197.04</ele>
        <time>2021-03-20T18:30:17Z</time>
      </trkpt>
      <trkpt lat="55.52103" lon="-4.16248">
        <ele>197.38</ele>
        <time>2021-03-20T18:30:21Z</time>
      </trkpt>
      <trkpt lat="55.52103" lon="-4.16286">
        <ele>197.1</ele>
        <time>2021-03-20T18:30:26Z</time>
      </trkpt>
      <trkpt lat="55.52108" lon="-4.16328">
        <ele>196.64</ele>
        <time>2021-03-20T18:30:30Z</time>
      </trkpt>
      <trkpt lat="55.52107" lon="-4.1644">
        <ele>197.58</ele>
        <time>2021-03-20T18:30:35Z</time>
      </trkpt>
      <trkpt lat="55.52104" lon="-4.16464">
        <ele>196.51</ele>
        <time>2021-03-20T18:30:39Z</time>
      </trkpt>
      <trkpt lat="55.52094" lon="-4.16499">
        <ele>194.75</ele>
        <time>2021-03-20T18:30:44Z</time>
      </trkpt>
      <trkpt lat="55.51997" lon="-4.16791">
        <ele>185.92</ele>
        <time>2021-03-20T18:30:48Z</time>
      </trkpt>
      <trkpt lat="55.51964" lon="-4.16904">
        <ele>181.16</ele>
        <time>2021-03-20T18:30:53Z</time>
      </trkpt>
      <trkpt lat="55.51915" lon="-4.17099">
        <ele>179</ele>
        <time>2021-03-20T18:30:57Z</time>
      </trkpt>
      <trkpt lat="55.51882" lon="-4.17249">
        <ele>178.74</ele>
        <time>2021-03-20T18:31:02Z</time>
      </trkpt>
      <trkpt lat="55.51826" lon="-4.17556">
        <ele>178.46</ele>
        <time>2021-03-20T18:31:06Z</time>
      </trkpt>
      <trkpt lat="55.51825" lon="-4.17572">
        <ele>178.22</ele>
        <time>2021-03-20T18:31:10Z</time>
      </trkpt>
      <trkpt lat="55.51826" lon="-4.17606">
        <ele>178.18</ele>
        <time>2021-03-20T18:31:15Z</time>
      </trkpt>
      <trkpt lat="55.51864" lon="-4.17856">
        <ele>177.41</ele>
        <time>2021-03-20T18:31:19Z</time>
      </trkpt>
      <trkpt lat="55.51893" lon="-4.18293">
        <ele>178.11</ele>
        <time>2021-03-20T18:31:24Z</time>
      </trkpt>
      <trkpt lat="55.51893" lon="-4.18394">
        <ele>180.9</ele>
        <time>2021-03-20T18:31:28Z</time>
      </trkpt>
      <trkpt lat="55.5188" lon="-4.18487">
        <ele>180.31</ele>
        <time>2021-03-20T18:31:33Z</time>
      </trkpt>
      <trkpt lat="55.51865" lon="-4.18556">
        <ele>177.84</ele>
        <time>2021-03-20T18:31:37Z</time>
      </trkpt>
      <trkpt lat="55.51848" lon="-4.18601">
        <ele>176.49</ele>
        <time>2021-03-20T18:31:42Z</time>
      </trkpt>
      <trkpt lat="55.51653" lon="-4.19042">
        <ele>175</ele>
        <time>2021-03-20T18:31:46Z</time>
      </trkpt>
      <trkpt lat="55.51595" lon="-4.19177">
        <ele>180.21</ele>
        <time>2021-03-20T18:31:51Z</time>
      </trkpt>
      <trkpt lat="55.51584" lon="-4.19218">
        <ele>181.83</ele>
        <time>2021-03-20T18:31:55Z</time>
      </trkpt>
      <trkpt lat="55.51579" lon="-4.19271">
        <ele>181.98</ele>
        <time>2021-03-20T18:31:59Z</time>
      </trkpt>
      <trkpt lat="55.51574" lon="-4.19507">
        <ele>188.39</ele>
        <time>2021-03-20T18:32:04Z</time>
      </trkpt>
      <trkpt lat="55.51568" lon="-4.19762">
        <ele>196.16</ele>
        <time>2021-03-20T18:32:08Z</time>
      </trkpt>
      <trkpt lat="55.51563" lon="-4.19802">
        <ele>197.27</ele>
        <time>2021-03-20T18:32:13Z</time>
      </trkpt>
      <trkpt lat="55.51549" lon="-4.19905">
        <ele>196.92</ele>
        <time>2021-03-20T18:32:17Z</time>
      </trkpt>
      <trkpt lat="55.51552" lon="-4.19969">
        <ele>197.27</ele>
        <time>2021-03-20T18:32:22Z</time>
      </trkpt>
      <trkpt lat="55.51562" lon="-4.2005">
        <ele>197.06</ele>
        <time>2021-03-20T18:32:26Z</time>
      </trkpt>
      <trkpt lat="55.5157" lon="-4.20099">
        <ele>197.52</ele>
        <time>2021-03-20T18:32:31Z</time>
      </trkpt>
      <trkpt lat="55.51641" lon="-4.20386">
        <ele>203</ele>
        <time>2021-03-20T18:32:35Z</time>
      </trkpt>
      <trkpt lat="55.51887" lon="-4.21365">
        <ele>209.12</ele>
        <time>2021-03-20T18:32:40Z</time>
      </trkpt>
      <trkpt lat="55.51899" lon="-4.21392">
        <ele>207.84</ele>
        <time>2021-03-20T18:32:44Z</time>
      </trkpt>
      <trkpt lat="55.51944" lon="-4.2145">
        <ele>206.2</ele>
        <time>2021-03-20T18:32:49Z</time>
      </trkpt>
      <trkpt lat="55.51956" lon="-4.21477">
        <ele>208.67</ele>
        <time>2021-03-20T18:32:53Z</time>
      </trkpt>
      <trkpt lat="55.51965" lon="-4.21513">
        <ele>211.1</ele>
        <time>2021-03-20T18:32:57Z</time>
      </trkpt>
      <trkpt lat="55.51968" lon="-4.21538">
        <ele>212.61</ele>
        <time>2021-03-20T18:33:02Z</time>
      </trkpt>
      <trkpt lat="55.51968" lon="-4.2157">
        <ele>213.74</ele>
        <time>2021-03-20T18:33:06Z</time>
      </trkpt>
      <trkpt lat="55.51963" lon="-4.21606">
        <ele>213.61</ele>
        <time>2021-03-20T18:33:11Z</time>
      </trkpt>
      <trkpt lat="55.51847" lon="-4.22361">
        <ele>224</ele>
        <time>2021-03-20T18:33:15Z</time>
      </trkpt>
      <trkpt lat="55.51844" lon="-4.22398">
        <ele>224</ele>
        <time>2021-03-20T18:33:20Z</time>
      </trkpt>
      <trkpt lat="55.51845" lon="-4.22433">
        <ele>224</ele>
        <time>2021-03-20T18:33:24Z</time>
      </trkpt>
      <trkpt lat="55.51877" lon="-4.22848">
        <ele>219</ele>
        <time>2021-03-20T18:33:29Z</time>
      </trkpt>
      <trkpt lat="55.51876" lon="-4.2288">
        <ele>219</ele>
        <time>2021-03-20T18:33:33Z</time>
      </trkpt>
      <trkpt lat="55.51871" lon="-4.22911">
        <ele>218.22</ele>
        <time>2021-03-20T18:33:38Z</time>
      </trkpt>
      <trkpt lat="55.51852" lon="-4.22992">
        <ele>215.19</ele>
        <time>2021-03-20T18:33:42Z</time>
      </trkpt>
      <trkpt lat="55.5178" lon="-4.23301">
        <ele>215.01</ele>
        <time>2021-03-20T18:33:47Z</time>
      </trkpt>
      <trkpt lat="55.51763" lon="-4.23369">
        <ele>214.54</ele>
        <time>2021-03-20T18:33:51Z</time>
      </trkpt>
      <trkpt lat="55.51582" lon="-4.23904">
        <ele>220.41</ele>
        <time>2021-03-20T18:33:55Z</time>
      </trkpt>
      <trkpt lat="55.51575" lon="-4.23936">
        <ele>220.6</ele>
        <time>2021-03-20T18:34:00Z</time>
      </trkpt>
      <trkpt lat="55.51571" lon="-4.23972">
        <ele>220.54</ele>
        <time>2021-03-20T18:34:04Z</time>
      </trkpt>
      <trkpt lat="55.51479" lon="-4.24974">
        <ele>209.26</ele>
        <time>2021-03-20T18:34:09Z</time>
      </trkpt>
      <trkpt lat="55.51478" lon="-4.25018">
        <ele>210.04</ele>
        <time>2021-03-20T18:34:13Z</time>
      </trkpt>
      <trkpt lat="55.5148" lon="-4.25093">
        <ele>209.77</ele>
        <time>2021-03-20T18:34:18Z</time>
      </trkpt>
      <trkpt lat="55.51535" lon="-4.26238">
        <ele>199.1</ele>
        <time>2021-03-20T18:34:22Z</time>
      </trkpt>
      <trkpt lat="55.51533" lon="-4.26301">
        <ele>198.47</ele>
        <time>2021-03-20T18:34:27Z</time>
      </trkpt>
      <trkpt lat="55.51402" lon="-4.27253">
        <ele>189.02</ele>
        <time>2021-03-20T18:34:31Z</time>
      </trkpt>
      <trkpt lat="55.51296" lon="-4.27729">
        <ele>165.56</ele>
        <time>2021-03-20T18:34:36Z</time>
      </trkpt>
      <trkpt lat="55.51282" lon="-4.27778">
        <ele>161.74</ele>
        <time>2021-03-20T18:34:40Z</time>
      </trkpt>
      <trkpt lat="55.5126" lon="-4.27814">
        <ele>157.96</ele>
        <time>2021-03-20T18:34:45Z</time>
      </trkpt>
      <trkpt lat="55.51106" lon="-4.28044">
        <ele>135.53</ele>
        <time>2021-03-20T18:34:49Z</time>
      </trkpt>
      <trkpt lat="55.51071" lon="-4.28113">
        <ele>131.45</ele>
        <time>2021-03-20T18:34:53Z</time>
      </trkpt>
      <trkpt lat="55.51059" lon="-4.2815">
        <ele>128.82</ele>
        <time>2021-03-20T18:34:58Z</time>
      </trkpt>
      <trkpt lat="55.5104" lon="-4.2822">
        <ele>127.85</ele>
        <time>2021-03-20T18:35:02Z</time>
      </trkpt>
      <trkpt lat="55.51038" lon="-4.28245">
        <ele>127.19</ele>
        <time>2021-03-20T18:35:07Z</time>
      </trkpt>
      <trkpt lat="55.51039" lon="-4.28553">
        <ele>118.4</ele>
        <time>2021-03-20T18:35:11Z</time>
      </trkpt>
      <trkpt lat="55.51037" lon="-4.28703">
        <ele>119.35</ele>
        <time>2021-03-20T18:35:16Z</time>
      </trkpt>
      <trkpt lat="55.51036" lon="-4.28733">
        <ele>119.18</ele>
        <time>2021-03-20T18:35:20Z</time>
      </trkpt>
      <trkpt lat="55.5104" lon="-4.28801">
        <ele>118.54</ele>
        <time>2021-03-20T18:35:25Z</time>
      </trkpt>
      <trkpt lat="55.50978" lon="-4.28808">
        <ele>119.61</ele>
        <time>2021-03-20T18:35:28Z</time>
      </trkpt>
      <trkpt lat="55.50956" lon="-4.28822">
        <ele>122.95</ele>
        <time>2021-03-20T18:35:32Z</time>
      </trkpt>
      <trkpt lat="55.50945" lon="-4.28854">
        <ele>124.18</ele>
        <time>2021-03-20T18:35:36Z</time>
      </trkpt>
      <trkpt lat="55.5093" lon="-4.28939">
        <ele>125.62</ele>
        <time>2021-03-20T18:35:40Z</time>
      </trkpt>
      <trkpt lat="55.50909" lon="-4.29021">
        <ele>128.47</ele>
        <time>2021-03-20T18:35:43Z</time>
      </trkpt>
      <trkpt lat="55.50891" lon="-4.29058">
        <ele>131.82</ele>
        <time>2021-03-20T18:35:47Z</time>
      </trkpt>
      <trkpt lat="55.50841" lon="-4.29117">
        <ele>135.7</ele>
        <time>2021-03-20T18:35:51Z</time>
      </trkpt>
      <trkpt lat="55.50833" lon="-4.29132">
        <ele>136.81</ele>
        <time>2021-03-20T18:35:55Z</time>
      </trkpt>
      <trkpt lat="55.50827" lon="-4.29155">
        <ele>137.45</ele>
        <time>2021-03-20T18:35:58Z</time>
      </trkpt>
      <trkpt lat="55.5083" lon="-4.2919">
        <ele>138.79</ele>
        <time>2021-03-20T18:36:02Z</time>
      </trkpt>
      <trkpt lat="55.50837" lon="-4.29215">
        <ele>139.52</ele>
        <time>2021-03-20T18:36:06Z</time>
      </trkpt>
      <trkpt lat="55.50886" lon="-4.29349">
        <ele>142.66</ele>
        <time>2021-03-20T18:36:09Z</time>
      </trkpt>
      <trkpt lat="55.50912" lon="-4.29407">
        <ele>143.54</ele>
        <time>2021-03-20T18:36:13Z</time>
      </trkpt>
      <trkpt lat="55.50935" lon="-4.29468">
        <ele>146.86</ele>
        <time>2021-03-20T18:36:17Z</time>
      </trkpt>
      <trkpt lat="55.50945" lon="-4.29516">
        <ele>148</ele>
        <time>2021-03-20T18:36:21Z</time>
      </trkpt>
      <trkpt lat="55.50934" lon="-4.29568">
        <ele>147.34</ele>
        <time>2021-03-20T18:36:24Z</time>
      </trkpt>
      <trkpt lat="55.50807" lon="-4.29813">
        <ele>149.05</ele>
        <time>2021-03-20T18:36:28Z</time>
      </trkpt>
      <trkpt lat="55.50784" lon="-4.29883">
        <ele>149.23</ele>
        <time>2021-03-20T18:36:32Z</time>
      </trkpt>
      <trkpt lat="55.51024" lon="-4.30075">
        <ele>149.04</ele>
        <time>2021-03-20T18:36:37Z</time>
      </trkpt>
      <trkpt lat="55.51097" lon="-4.30124">
        <ele>149.29</ele>
        <time>2021-03-20T18:36:41Z</time>
      </trkpt>
      <trkpt lat="55.51106" lon="-4.30123">
        <ele>147.96</ele>
        <time>2021-03-20T18:36:46Z</time>
      </trkpt>
      <trkpt lat="55.51121" lon="-4.30115">
        <ele>145.95</ele>
        <time>2021-03-20T18:36:51Z</time>
      </trkpt>
      <trkpt lat="55.51166" lon="-4.30067">
        <ele>139.87</ele>
        <time>2021-03-20T18:36:55Z</time>
      </trkpt>
      <trkpt lat="55.51189" lon="-4.30057">
        <ele>137.61</ele>
        <time>2021-03-20T18:37:00Z</time>
      </trkpt>
      <trkpt lat="55.51215" lon="-4.30058">
        <ele>130.88</ele>
        <time>2021-03-20T18:37:05Z</time>
      </trkpt>
      <trkpt lat="55.51252" lon="-4.30051">
        <ele>123.67</ele>
        <time>2021-03-20T18:37:10Z</time>
      </trkpt>
      <trkpt lat="55.51264" lon="-4.30037">
        <ele>122.65</ele>
        <time>2021-03-20T18:37:14Z</time>
      </trkpt>
      <trkpt lat="55.5128" lon="-4.3">
        <ele>121.07</ele>
        <time>2021-03-20T18:37:19Z</time>
      </trkpt>
      <trkpt lat="55.51294" lon="-4.2996">
        <ele>121.39</ele>
        <time>2021-03-20T18:37:24Z</time>
      </trkpt>
      <trkpt lat="55.51296" lon="-4.29935">
        <ele>120.74</ele>
        <time>2021-03-20T18:37:28Z</time>
      </trkpt>
      <trkpt lat="55.51289" lon="-4.29916">
        <ele>119.38</ele>
        <time>2021-03-20T18:37:33Z</time>
      </trkpt>
      <trkpt lat="55.51276" lon="-4.29898">
        <ele>117.62</ele>
        <time>2021-03-20T18:37:38Z</time>
      </trkpt>
      <trkpt lat="55.51258" lon="-4.29867">
        <ele>116.42</ele>
        <time>2021-03-20T18:37:42Z</time>
      </trkpt>
      <trkpt lat="55.51263" lon="-4.29852">
        <ele>116.16</ele>
        <time>2021-03-20T18:37:47Z</time>
      </trkpt>
      <trkpt lat="55.51295" lon="-4.29805">
        <ele>116.62</ele>
        <time>2021-03-20T18:37:52Z</time>
      </trkpt>
      <trkpt lat="55.51304" lon="-4.29808">
        <ele>116.93</ele>
        <time>2021-03-20T18:37:56Z</time>
      </trkpt>
      <trkpt lat="55.51355" lon="-4.29788">
        <ele>121.2</ele>
        <time>2021-03-20T18:38:00Z</time>
      </trkpt>
      <trkpt lat="55.51385" lon="-4.29785">
        <ele>124.67</ele>
        <time>2021-03-20T18:38:05Z</time>
      </trkpt>
      <trkpt lat="55.51415" lon="-4.29798">
        <ele>126.01</ele>
        <time>2021-03-20T18:38:09Z</time>
      </trkpt>
      <trkpt lat="55.51444" lon="-4.29841">
        <ele>124.09</ele>
        <time>2021-03-20T18:38:13Z</time>
      </trkpt>
      <trkpt lat="55.5145" lon="-4.29869">
        <ele>121.75</ele>
        <time>2021-03-20T18:38:17Z</time>
      </trkpt>
      <trkpt lat="55.51474" lon="-4.29948">
        <ele>122.44</ele>
        <time>2021-03-20T18:38:22Z</time>
      </trkpt>
      <trkpt lat="55.5149" lon="-4.29983">
        <ele>127.78</ele>
        <time>2021-03-20T18:38:26Z</time>
      </trkpt>
      <trkpt lat="55.51515" lon="-4.30001">
        <ele>132.01</ele>
        <time>2021-03-20T18:38:30Z</time>
      </trkpt>
      <trkpt lat="55.51556" lon="-4.30006">
        <ele>132.59</ele>
        <time>2021-03-20T18:38:34Z</time>
      </trkpt>
      <trkpt lat="55.51596" lon="-4.30026">
        <ele>133.98</ele>
        <time>2021-03-20T18:38:39Z</time>
      </trkpt>
      <trkpt lat="55.51635" lon="-4.30074">
        <ele>135.85</ele>
        <time>2021-03-20T18:38:43Z</time>
      </trkpt>
      <trkpt lat="55.51658" lon="-4.30119">
        <ele>137.05</ele>
        <time>2021-03-20T18:38:47Z</time>
      </trkpt>
      <trkpt lat="55.51671" lon="-4.30172">
        <ele>139.32</ele>
        <time>2021-03-20T18:38:51Z</time>
      </trkpt>
      <trkpt lat="55.51674" lon="-4.30234">
        <ele>140.55</ele>
        <time>2021-03-20T18:38:56Z</time>
      </trkpt>
      <trkpt lat="55.51664" lon="-4.3053">
        <ele>149.78</ele>
        <time>2021-03-20T18:39:00Z</time>
      </trkpt>
      <trkpt lat="55.51645" lon="-4.3073">
        <ele>149</ele>
        <time>2021-03-20T18:39:04Z</time>
      </trkpt>
      <trkpt lat="55.51642" lon="-4.30803">
        <ele>148.1</ele>
        <time>2021-03-20T18:39:08Z</time>
      </trkpt>
      <trkpt lat="55.51651" lon="-4.30857">
        <ele>147.91</ele>
        <time>2021-03-20T18:39:13Z</time>
      </trkpt>
      <trkpt lat="55.51706" lon="-4.31019">
        <ele>146.16</ele>
        <time>2021-03-20T18:39:17Z</time>
      </trkpt>
      <trkpt lat="55.51729" lon="-4.31098">
        <ele>146.24</ele>
        <time>2021-03-20T18:39:21Z</time>
      </trkpt>
      <trkpt lat="55.51745" lon="-4.3119">
        <ele>148.48</ele>
        <time>2021-03-20T18:39:25Z</time>
      </trkpt>
      <trkpt lat="55.51814" lon="-4.31921">
        <ele>149.21</ele>
        <time>2021-03-20T18:39:30Z</time>
      </trkpt>
      <trkpt lat="55.51877" lon="-4.32607">
        <ele>129</ele>
        <time>2021-03-20T18:39:34Z</time>
      </trkpt>
      <trkpt lat="55.51885" lon="-4.32642">
        <ele>128.87</ele>
        <time>2021-03-20T18:39:38Z</time>
      </trkpt>
      <trkpt lat="55.51898" lon="-4.32661">
        <ele>129.91</ele>
        <time>2021-03-20T18:39:42Z</time>
      </trkpt>
      <trkpt lat="55.51912" lon="-4.32669">
        <ele>131.58</ele>
        <time>2021-03-20T18:39:47Z</time>
      </trkpt>
      <trkpt lat="55.51924" lon="-4.32673">
        <ele>132.57</ele>
        <time>2021-03-20T18:39:51Z</time>
      </trkpt>
      <trkpt lat="55.51973" lon="-4.32674">
        <ele>134.54</ele>
        <time>2021-03-20T18:39:55Z</time>
      </trkpt>
      <trkpt lat="55.51984" lon="-4.32678">
        <ele>135.25</ele>
        <time>2021-03-20T18:39:59Z</time>
      </trkpt>
      <trkpt lat="55.51999" lon="-4.3269">
        <ele>136.64</ele>
        <time>2021-03-20T18:40:04Z</time>
      </trkpt>
      <trkpt lat="55.52013" lon="-4.3271">
        <ele>138.59</ele>
        <time>2021-03-20T18:40:08Z</time>
      </trkpt>
      <trkpt lat="55.52049" lon="-4.32775">
        <ele>146.44</ele>
        <time>2021-03-20T18:40:12Z</time>
      </trkpt>
      <trkpt lat="55.52078" lon="-4.32832">
        <ele>151.13</ele>
        <time>2021-03-20T18:40:16Z</time>
      </trkpt>
      <trkpt lat="55.5209" lon="-4.32861">
        <ele>151.99</ele>
        <time>2021-03-20T18:40:21Z</time>
      </trkpt>
      <trkpt lat="55.52096" lon="-4.32882">
        <ele>152</ele>
        <time>2021-03-20T18:40:25Z</time>
      </trkpt>
      <trkpt lat="55.52101" lon="-4.32905">
        <ele>152.6</ele>
        <time>2021-03-20T18:40:29Z</time>
      </trkpt>
      <trkpt lat="55.52104" lon="-4.32942">
        <ele>153</ele>
        <time>2021-03-20T18:40:33Z</time>
      </trkpt>
      <trkpt lat="55.52115" lon="-4.33354">
        <ele>159.87</ele>
        <time>2021-03-20T18:40:37Z</time>
      </trkpt>
      <trkpt lat="55.52118" lon="-4.33567">
        <ele>162.65</ele>
        <time>2021-03-20T18:40:42Z</time>
      </trkpt>
      <trkpt lat="55.52124" lon="-4.33738">
        <ele>163.47</ele>
        <time>2021-03-20T18:40:46Z</time>
      </trkpt>
      <trkpt lat="55.52123" lon="-4.33809">
        <ele>163.43</ele>
        <time>2021-03-20T18:40:50Z</time>
      </trkpt>
      <trkpt lat="55.52054" lon="-4.34327">
        <ele>169</ele>
        <time>2021-03-20T18:40:54Z</time>
      </trkpt>
      <trkpt lat="55.51892" lon="-4.35505">
        <ele>158.91</ele>
        <time>2021-03-20T18:40:59Z</time>
      </trkpt>
      <trkpt lat="55.51892" lon="-4.35547">
        <ele>159.74</ele>
        <time>2021-03-20T18:41:03Z</time>
      </trkpt>
      <trkpt lat="55.51898" lon="-4.35582">
        <ele>160.31</ele>
        <time>2021-03-20T18:41:07Z</time>
      </trkpt>
      <trkpt lat="55.51922" lon="-4.35659">
        <ele>161.18</ele>
        <time>2021-03-20T18:41:11Z</time>
      </trkpt>
      <trkpt lat="55.51935" lon="-4.35715">
        <ele>161.71</ele>
        <time>2021-03-20T18:41:16Z</time>
      </trkpt>
      <trkpt lat="55.51937" lon="-4.3576">
        <ele>162.23</ele>
        <time>2021-03-20T18:41:20Z</time>
      </trkpt>
      <trkpt lat="55.51928" lon="-4.35868">
        <ele>171.52</ele>
        <time>2021-03-20T18:41:24Z</time>
      </trkpt>
      <trkpt lat="55.51931" lon="-4.35902">
        <ele>174.35</ele>
        <time>2021-03-20T18:41:28Z</time>
      </trkpt>
      <trkpt lat="55.5196" lon="-4.36006">
        <ele>176.48</ele>
        <time>2021-03-20T18:41:33Z</time>
      </trkpt>
      <trkpt lat="55.51999" lon="-4.3616">
        <ele>187.17</ele>
        <time>2021-03-20T18:41:37Z</time>
      </trkpt>
      <trkpt lat="55.52082" lon="-4.36403">
        <ele>184.1</ele>
        <time>2021-03-20T18:41:41Z</time>
      </trkpt>
      <trkpt lat="55.52092" lon="-4.36478">
        <ele>188.09</ele>
        <time>2021-03-20T18:41:45Z</time>
      </trkpt>
      <trkpt lat="55.52094" lon="-4.36536">
        <ele>190.3</ele>
        <time>2021-03-20T18:41:50Z</time>
      </trkpt>
      <trkpt lat="55.52092" lon="-4.36577">
        <ele>191.18</ele>
        <time>2021-03-20T18:41:54Z</time>
      </trkpt>
      <trkpt lat="55.52087" lon="-4.36617">
        <ele>191.22</ele>
        <time>2021-03-20T18:41:58Z</time>
      </trkpt>
      <trkpt lat="55.52072" lon="-4.36655">
        <ele>190.82</ele>
        <time>2021-03-20T18:42:02Z</time>
      </trkpt>
      <trkpt lat="55.52051" lon="-4.36678">
        <ele>190.75</ele>
        <time>2021-03-20T18:42:07Z</time>
      </trkpt>
      <trkpt lat="55.52002" lon="-4.36713">
        <ele>190.35</ele>
        <time>2021-03-20T18:42:11Z</time>
      </trkpt>
      <trkpt lat="55.52072" lon="-4.36864">
        <ele>187.59</ele>
        <time>2021-03-20T18:42:20Z</time>
      </trkpt>
      <trkpt lat="55.52151" lon="-4.36818">
        <ele>185</ele>
        <time>2021-03-20T18:42:28Z</time>
      </trkpt>
      <trkpt lat="55.52207" lon="-4.36794">
        <ele>181.06</ele>
        <time>2021-03-20T18:42:37Z</time>
      </trkpt>
      <trkpt lat="55.52256" lon="-4.36824">
        <ele>175.02</ele>
        <time>2021-03-20T18:42:46Z</time>
      </trkpt>
      <trkpt lat="55.5229" lon="-4.3685">
        <ele>173.36</ele>
        <time>2021-03-20T18:42:54Z</time>
      </trkpt>
      <trkpt lat="55.52344" lon="-4.36908">
        <ele>170.5</ele>
        <time>2021-03-20T18:43:03Z</time>
      </trkpt>
      <trkpt lat="55.52365" lon="-4.36942">
        <ele>169.2</ele>
        <time>2021-03-20T18:43:11Z</time>
      </trkpt>
      <trkpt lat="55.52464" lon="-4.37181">
        <ele>160.67</ele>
        <time>2021-03-20T18:43:20Z</time>
      </trkpt>
      <trkpt lat="55.52432" lon="-4.37506">
        <ele>173.24</ele>
        <time>2021-03-20T18:43:29Z</time>
      </trkpt>
      <trkpt lat="55.52429" lon="-4.3756">
        <ele>172.4</ele>
        <time>2021-03-20T18:43:38Z</time>
      </trkpt>
      <trkpt lat="55.52429" lon="-4.37613">
        <ele>171.57</ele>
        <time>2021-03-20T18:43:47Z</time>
      </trkpt>
      <trkpt lat="55.52435" lon="-4.37649">
        <ele>172</ele>
        <time>2021-03-20T18:43:56Z</time>
      </trkpt>
      <trkpt lat="55.52554" lon="-4.37998">
        <ele>174.87</ele>
        <time>2021-03-20T18:44:05Z</time>
      </trkpt>
      <trkpt lat="55.52581" lon="-4.38081">
        <ele>176.91</ele>
        <time>2021-03-20T18:44:15Z</time>
      </trkpt>
      <trkpt lat="55.52591" lon="-4.38106">
        <ele>176.72</ele>
        <time>2021-03-20T18:44:24Z</time>
      </trkpt>
      <trkpt lat="55.52575" lon="-4.38146">
        <ele>177.71</ele>
        <time>2021-03-20T18:44:33Z</time>
      </trkpt>
      <trkpt lat="55.52476" lon="-4.38418">
        <ele>176.12</ele>
        <time>2021-03-20T18:44:42Z</time>
      </trkpt>
      <trkpt lat="55.52477" lon="-4.38437">
        <ele>176.18</ele>
        <time>2021-03-20T18:44:51Z</time>
      </trkpt>
      <trkpt lat="55.52499" lon="-4.38477">
        <ele>175.79</ele>
        <time>2021-03-20T18:45:00Z</time>
      </trkpt>
      <trkpt lat="55.52502" lon="-4.38495">
        <ele>175.18</ele>
        <time>2021-03-20T18:45:09Z</time>
      </trkpt>
      <trkpt lat="55.52473" lon="-4.38824">
        <ele>170.01</ele>
        <time>2021-03-20T18:45:18Z</time>
      </trkpt>
      <trkpt lat="55.52376" lon="-4.38812">
        <ele>166</ele>
        <time>2021-03-20T18:45:31Z</time>
      </trkpt>
      <trkpt lat="55.52215" lon="-4.38791">
        <ele>166</ele>
        <time>2021-03-20T18:45:44Z</time>
      </trkpt>
      <trkpt lat="55.52194" lon="-4.38851">
        <ele>165.37</ele>
        <time>2021-03-20T18:45:52Z</time>
      </trkpt>
      <trkpt lat="55.52208" lon="-4.38868">
        <ele>165</ele>
        <time>2021-03-20T18:45:58Z</time>
      </trkpt>
      <trkpt lat="55.52332" lon="-4.39058">
        <ele>164.86</ele>
        <time>2021-03-20T18:46:04Z</time>
      </trkpt>
      <trkpt lat="55.52416" lon="-4.39206">
        <ele>162.04</ele>
        <time>2021-03-20T18:46:11Z</time>
      </trkpt>
      <trkpt lat="55.5244" lon="-4.3924">
        <ele>161.35</ele>
        <time>2021-03-20T18:46:17Z</time>
      </trkpt>
      <trkpt lat="55.52466" lon="-4.39323">
        <ele>162.57</ele>
        <time>2021-03-20T18:46:23Z</time>
      </trkpt>
      <trkpt lat="55.52511" lon="-4.3948">
        <ele>164.41</ele>
        <time>2021-03-20T18:46:30Z</time>
      </trkpt>
      <trkpt lat="55.52647" lon="-4.39898">
        <ele>162.15</ele>
        <time>2021-03-20T18:46:36Z</time>
      </trkpt>
      <trkpt lat="55.52658" lon="-4.39942">
        <ele>163.02</ele>
        <time>2021-03-20T18:46:42Z</time>
      </trkpt>
      <trkpt lat="55.52666" lon="-4.39989">
        <ele>163.9</ele>
        <time>2021-03-20T18:46:48Z</time>
      </trkpt>
      <trkpt lat="55.52675" lon="-4.40078">
        <ele>161.62</ele>
        <time>2021-03-20T18:46:55Z</time>
      </trkpt>
      <trkpt lat="55.52684" lon="-4.40142">
        <ele>161.26</ele>
        <time>2021-03-20T18:47:01Z</time>
      </trkpt>
      <trkpt lat="55.52694" lon="-4.40199">
        <ele>160.83</ele>
        <time>2021-03-20T18:47:07Z</time>
      </trkpt>
      <trkpt lat="55.52787" lon="-4.40569">
        <ele>155.51</ele>
        <time>2021-03-20T18:47:14Z</time>
      </trkpt>
      <trkpt lat="55.52811" lon="-4.40645">
        <ele>157.38</ele>
        <time>2021-03-20T18:47:20Z</time>
      </trkpt>
      <trkpt lat="55.52849" lon="-4.4075">
        <ele>161.87</ele>
        <time>2021-03-20T18:47:26Z</time>
      </trkpt>
      <trkpt lat="55.52862" lon="-4.40797">
        <ele>163.33</ele>
        <time>2021-03-20T18:47:33Z</time>
      </trkpt>
      <trkpt lat="55.52882" lon="-4.40911">
        <ele>165.78</ele>
        <time>2021-03-20T18:47:39Z</time>
      </trkpt>
      <trkpt lat="55.529" lon="-4.40979">
        <ele>165.85</ele>
        <time>2021-03-20T18:47:45Z</time>
      </trkpt>
      <trkpt lat="55.52918" lon="-4.41042">
        <ele>164.88</ele>
        <time>2021-03-20T18:47:52Z</time>
      </trkpt>
      <trkpt lat="55.5294" lon="-4.41103">
        <ele>164.17</ele>
        <time>2021-03-20T18:47:58Z</time>
      </trkpt>
      <trkpt lat="55.53026" lon="-4.41305">
        <ele>166.12</ele>
        <time>2021-03-20T18:48:04Z</time>
      </trkpt>
      <trkpt lat="55.53071" lon="-4.41461">
        <ele>170.03</ele>
        <time>2021-03-20T18:48:11Z</time>
      </trkpt>
      <trkpt lat="55.53101" lon="-4.41553">
        <ele>171.29</ele>
        <time>2021-03-20T18:48:17Z</time>
      </trkpt>
      <trkpt lat="55.53107" lon="-4.41595">
        <ele>172.51</ele>
        <time>2021-03-20T18:48:23Z</time>
      </trkpt>
      <trkpt lat="55.53135" lon="-4.41971">
        <ele>174</ele>
        <time>2021-03-20T18:48:29Z</time>
      </trkpt>
      <trkpt lat="55.53139" lon="-4.42031">
        <ele>172.97</ele>
        <time>2021-03-20T18:48:36Z</time>
      </trkpt>
      <trkpt lat="55.53142" lon="-4.42133">
        <ele>170.29</ele>
        <time>2021-03-20T18:48:42Z</time>
      </trkpt>
      <trkpt lat="55.53145" lon="-4.42221">
        <ele>170</ele>
        <time>2021-03-20T18:48:48Z</time>
      </trkpt>
      <trkpt lat="55.53166" lon="-4.42491">
        <ele>165.04</ele>
        <time>2021-03-20T18:48:55Z</time>
      </trkpt>
      <trkpt lat="55.53171" lon="-4.426">
        <ele>161.93</ele>
        <time>2021-03-20T18:49:01Z</time>
      </trkpt>
      <trkpt lat="55.53171" lon="-4.42682">
        <ele>159.29</ele>
        <time>2021-03-20T18:49:07Z</time>
      </trkpt>
      <trkpt lat="55.53167" lon="-4.42758">
        <ele>156.7</ele>
        <time>2021-03-20T18:49:14Z</time>
      </trkpt>
      <trkpt lat="55.53137" lon="-4.43045">
        <ele>149.42</ele>
        <time>2021-03-20T18:49:20Z</time>
      </trkpt>
      <trkpt lat="55.53141" lon="-4.43102">
        <ele>148</ele>
        <time>2021-03-20T18:49:26Z</time>
      </trkpt>
      <trkpt lat="55.53173" lon="-4.43275">
        <ele>144.09</ele>
        <time>2021-03-20T18:49:33Z</time>
      </trkpt>
      <trkpt lat="55.53218" lon="-4.43528">
        <ele>141</ele>
        <time>2021-03-20T18:49:37Z</time>
      </trkpt>
      <trkpt lat="55.53224" lon="-4.43589">
        <ele>141.06</ele>
        <time>2021-03-20T18:49:41Z</time>
      </trkpt>
      <trkpt lat="55.53449" lon="-4.43812">
        <ele>134.91</ele>
        <time>2021-03-20T18:49:48Z</time>
      </trkpt>
      <trkpt lat="55.53822" lon="-4.44243">
        <ele>128.03</ele>
        <time>2021-03-20T18:49:54Z</time>
      </trkpt>
      <trkpt lat="55.53996" lon="-4.44439">
        <ele>121.5</ele>
        <time>2021-03-20T18:50:01Z</time>
      </trkpt>
      <trkpt lat="55.54029" lon="-4.44481">
        <ele>116.95</ele>
        <time>2021-03-20T18:50:08Z</time>
      </trkpt>
      <trkpt lat="55.54043" lon="-4.44504">
        <ele>116.44</ele>
        <time>2021-03-20T18:50:15Z</time>
      </trkpt>
      <trkpt lat="55.54052" lon="-4.44524">
        <ele>116.11</ele>
        <time>2021-03-20T18:50:21Z</time>
      </trkpt>
      <trkpt lat="55.5406" lon="-4.44547">
        <ele>115.86</ele>
        <time>2021-03-20T18:50:28Z</time>
      </trkpt>
      <trkpt lat="55.54063" lon="-4.44565">
        <ele>115.72</ele>
        <time>2021-03-20T18:50:35Z</time>
      </trkpt>
      <trkpt lat="55.54061" lon="-4.44585">
        <ele>115.81</ele>
        <time>2021-03-20T18:50:41Z</time>
      </trkpt>
      <trkpt lat="55.5402" lon="-4.4474">
        <ele>116</ele>
        <time>2021-03-20T18:50:48Z</time>
      </trkpt>
      <trkpt lat="55.54012" lon="-4.44777">
        <ele>116</ele>
        <time>2021-03-20T18:50:55Z</time>
      </trkpt>
      <trkpt lat="55.54011" lon="-4.44799">
        <ele>115.71</ele>
        <time>2021-03-20T18:51:01Z</time>
      </trkpt>
      <trkpt lat="55.54013" lon="-4.44818">
        <ele>115.54</ele>
        <time>2021-03-20T18:51:08Z</time>
      </trkpt>
      <trkpt lat="55.54023" lon="-4.44838">
        <ele>115.32</ele>
        <time>2021-03-20T18:51:15Z</time>
      </trkpt>
      <trkpt lat="55.54269" lon="-4.45205">
        <ele>118.36</ele>
        <time>2021-03-20T18:51:22Z</time>
      </trkpt>
      <trkpt lat="55.54285" lon="-4.45236">
        <ele>120.04</ele>
        <time>2021-03-20T18:51:28Z</time>
      </trkpt>
      <trkpt lat="55.54294" lon="-4.45265">
        <ele>121.16</ele>
        <time>2021-03-20T18:51:35Z</time>
      </trkpt>
      <trkpt lat="55.543" lon="-4.45299">
        <ele>122.36</ele>
        <time>2021-03-20T18:51:42Z</time>
      </trkpt>
      <trkpt lat="55.54305" lon="-4.45351">
        <ele>123.57</ele>
        <time>2021-03-20T18:51:48Z</time>
      </trkpt>
      <trkpt lat="55.54315" lon="-4.45531">
        <ele>124.34</ele>
        <time>2021-03-20T18:51:55Z</time>
      </trkpt>
      <trkpt lat="55.54326" lon="-4.4558">
        <ele>123.86</ele>
        <time>2021-03-20T18:52:02Z</time>
      </trkpt>
      <trkpt lat="55.54336" lon="-4.45609">
        <ele>124.09</ele>
        <time>2021-03-20T18:52:08Z</time>
      </trkpt>
      <trkpt lat="55.54371" lon="-4.4568">
        <ele>123.5</ele>
        <time>2021-03-20T18:52:15Z</time>
      </trkpt>
      <trkpt lat="55.54418" lon="-4.45748">
        <ele>120.01</ele>
        <time>2021-03-20T18:52:22Z</time>
      </trkpt>
      <trkpt lat="55.54469" lon="-4.45802">
        <ele>117.13</ele>
        <time>2021-03-20T18:52:29Z</time>
      </trkpt>
      <trkpt lat="55.54509" lon="-4.45838">
        <ele>114.53</ele>
        <time>2021-03-20T18:52:35Z</time>
      </trkpt>
      <trkpt lat="55.54546" lon="-4.4586">
        <ele>111.75</ele>
        <time>2021-03-20T18:52:42Z</time>
      </trkpt>
      <trkpt lat="55.54599" lon="-4.4588">
        <ele>107.86</ele>
        <time>2021-03-20T18:52:49Z</time>
      </trkpt>
      <trkpt lat="55.54634" lon="-4.45901">
        <ele>104.9</ele>
        <time>2021-03-20T18:52:55Z</time>
      </trkpt>
      <trkpt lat="55.55106" lon="-4.46305">
        <ele>89.45</ele>
        <time>2021-03-20T18:53:02Z</time>
      </trkpt>
      <trkpt lat="55.55072" lon="-4.46607">
        <ele>88.15</ele>
        <time>2021-03-20T18:53:09Z</time>
      </trkpt>
      <trkpt lat="55.55069" lon="-4.46819">
        <ele>88.75</ele>
        <time>2021-03-20T18:53:16Z</time>
      </trkpt>
      <trkpt lat="55.55057" lon="-4.46876">
        <ele>87.12</ele>
        <time>2021-03-20T18:53:23Z</time>
      </trkpt>
      <trkpt lat="55.55028" lon="-4.4695">
        <ele>87.03</ele>
        <time>2021-03-20T18:53:30Z</time>
      </trkpt>
      <trkpt lat="55.54988" lon="-4.47124">
        <ele>87.35</ele>
        <time>2021-03-20T18:53:37Z</time>
      </trkpt>
      <trkpt lat="55.54914" lon="-4.47273">
        <ele>87.65</ele>
        <time>2021-03-20T18:53:44Z</time>
      </trkpt>
      <trkpt lat="55.54889" lon="-4.47319">
        <ele>87</ele>
        <time>2021-03-20T18:53:51Z</time>
      </trkpt>
      <trkpt lat="55.54851" lon="-4.4751">
        <ele>87.42</ele>
        <time>2021-03-20T18:53:58Z</time>
      </trkpt>
      <trkpt lat="55.54824" lon="-4.47696">
        <ele>88.67</ele>
        <time>2021-03-20T18:54:05Z</time>
      </trkpt>
      <trkpt lat="55.54785" lon="-4.47848">
        <ele>90.77</ele>
        <time>2021-03-20T18:54:12Z</time>
      </trkpt>
      <trkpt lat="55.54613" lon="-4.48313">
        <ele>93.07</ele>
        <time>2021-03-20T18:54:18Z</time>
      </trkpt>
      <trkpt lat="55.54462" lon="-4.48715">
        <ele>101.75</ele>
        <time>2021-03-20T18:54:25Z</time>
      </trkpt>
      <trkpt lat="55.54671" lon="-4.49057">
        <ele>103.33</ele>
        <time>2021-03-20T18:54:31Z</time>
      </trkpt>
      <trkpt lat="55.54679" lon="-4.49076">
        <ele>103.58</ele>
        <time>2021-03-20T18:54:36Z</time>
      </trkpt>
      <trkpt lat="55.5469" lon="-4.49117">
        <ele>103.8</ele>
        <time>2021-03-20T18:54:41Z</time>
      </trkpt>
      <trkpt lat="55.54693" lon="-4.49137">
        <ele>103.89</ele>
        <time>2021-03-20T18:54:46Z</time>
      </trkpt>
      <trkpt lat="55.54697" lon="-4.49207">
        <ele>104.11</ele>
        <time>2021-03-20T18:54:51Z</time>
      </trkpt>
      <trkpt lat="55.54702" lon="-4.49248">
        <ele>104.94</ele>
        <time>2021-03-20T18:54:56Z</time>
      </trkpt>
      <trkpt lat="55.54578" lon="-4.49876">
        <ele>104</ele>
        <time>2021-03-20T18:55:01Z</time>
      </trkpt>
      <trkpt lat="55.54571" lon="-4.49923">
        <ele>104.56</ele>
        <time>2021-03-20T18:55:06Z</time>
      </trkpt>
      <trkpt lat="55.54567" lon="-4.4997">
        <ele>105.56</ele>
        <time>2021-03-20T18:55:11Z</time>
      </trkpt>
      <trkpt lat="55.54551" lon="-4.50259">
        <ele>107.84</ele>
        <time>2021-03-20T18:55:16Z</time>
      </trkpt>
      <trkpt lat="55.54539" lon="-4.50515">
        <ele>106.44</ele>
        <time>2021-03-20T18:55:21Z</time>
      </trkpt>
      <trkpt lat="55.54543" lon="-4.50666">
        <ele>103.47</ele>
        <time>2021-03-20T18:55:26Z</time>
      </trkpt>
      <trkpt lat="55.54542" lon="-4.50689">
        <ele>103.09</ele>
        <time>2021-03-20T18:55:32Z</time>
      </trkpt>
      <trkpt lat="55.54531" lon="-4.5075">
        <ele>102.01</ele>
        <time>2021-03-20T18:55:37Z</time>
      </trkpt>
      <trkpt lat="55.54528" lon="-4.50779">
        <ele>101.95</ele>
        <time>2021-03-20T18:55:42Z</time>
      </trkpt>
      <trkpt lat="55.54527" lon="-4.50801">
        <ele>101.14</ele>
        <time>2021-03-20T18:55:47Z</time>
      </trkpt>
      <trkpt lat="55.54528" lon="-4.50873">
        <ele>100</ele>
        <time>2021-03-20T18:55:52Z</time>
      </trkpt>
      <trkpt lat="55.54532" lon="-4.50905">
        <ele>99.56</ele>
        <time>2021-03-20T18:55:57Z</time>
      </trkpt>
      <trkpt lat="55.54542" lon="-4.50968">
        <ele>99.5</ele>
        <time>2021-03-20T18:56:02Z</time>
      </trkpt>
      <trkpt lat="55.5456" lon="-4.51047">
        <ele>99</ele>
        <time>2021-03-20T18:56:07Z</time>
      </trkpt>
      <trkpt lat="55.54561" lon="-4.51055">
        <ele>99</ele>
        <time>2021-03-20T18:56:12Z</time>
      </trkpt>
      <trkpt lat="55.54559" lon="-4.51062">
        <ele>99</ele>
        <time>2021-03-20T18:56:17Z</time>
      </trkpt>
      <trkpt lat="55.5457" lon="-4.51079">
        <ele>99</ele>
        <time>2021-03-20T18:56:20Z</time>
      </trkpt>
      <trkpt lat="55.54577" lon="-4.51093">
        <ele>99</ele>
        <time>2021-03-20T18:56:23Z</time>
      </trkpt>
      <trkpt lat="55.54586" lon="-4.51115">
        <ele>98.94</ele>
        <time>2021-03-20T18:56:25Z</time>
      </trkpt>
      <trkpt lat="55.54594" lon="-4.51141">
        <ele>98.37</ele>
        <time>2021-03-20T18:56:28Z</time>
      </trkpt>
      <trkpt lat="55.54852" lon="-4.52089">
        <ele>89</ele>
        <time>2021-03-20T18:56:31Z</time>
      </trkpt>
      <trkpt lat="55.54924" lon="-4.52367">
        <ele>90</ele>
        <time>2021-03-20T18:56:33Z</time>
      </trkpt>
      <trkpt lat="55.54929" lon="-4.52391">
        <ele>90.03</ele>
        <time>2021-03-20T18:56:36Z</time>
      </trkpt>
      <trkpt lat="55.54931" lon="-4.52428">
        <ele>90.52</ele>
        <time>2021-03-20T18:56:39Z</time>
      </trkpt>
      <trkpt lat="55.54931" lon="-4.52509">
        <ele>90.85</ele>
        <time>2021-03-20T18:56:41Z</time>
      </trkpt>
      <trkpt lat="55.54924" lon="-4.52636">
        <ele>88.48</ele>
        <time>2021-03-20T18:56:44Z</time>
      </trkpt>
      <trkpt lat="55.54924" lon="-4.52703">
        <ele>89.51</ele>
        <time>2021-03-20T18:56:47Z</time>
      </trkpt>
      <trkpt lat="55.54922" lon="-4.52752">
        <ele>89.17</ele>
        <time>2021-03-20T18:56:49Z</time>
      </trkpt>
      <trkpt lat="55.54921" lon="-4.52792">
        <ele>88.67</ele>
        <time>2021-03-20T18:56:52Z</time>
      </trkpt>
      <trkpt lat="55.54925" lon="-4.52849">
        <ele>88.13</ele>
        <time>2021-03-20T18:56:55Z</time>
      </trkpt>
      <trkpt lat="55.54939" lon="-4.52974">
        <ele>86</ele>
        <time>2021-03-20T18:56:57Z</time>
      </trkpt>
      <trkpt lat="55.54951" lon="-4.53055">
        <ele>86.24</ele>
        <time>2021-03-20T18:57:00Z</time>
      </trkpt>
      <trkpt lat="55.55025" lon="-4.53449">
        <ele>84.85</ele>
        <time>2021-03-20T18:57:03Z</time>
      </trkpt>
      <trkpt lat="55.55035" lon="-4.53488">
        <ele>84</ele>
        <time>2021-03-20T18:57:06Z</time>
      </trkpt>
      <trkpt lat="55.55053" lon="-4.53527">
        <ele>82.17</ele>
        <time>2021-03-20T18:57:08Z</time>
      </trkpt>
      <trkpt lat="55.55133" lon="-4.53655">
        <ele>85.55</ele>
        <time>2021-03-20T18:57:11Z</time>
      </trkpt>
      <trkpt lat="55.5519" lon="-4.53741">
        <ele>82.62</ele>
        <time>2021-03-20T18:57:14Z</time>
      </trkpt>
      <trkpt lat="55.55204" lon="-4.53757">
        <ele>81.92</ele>
        <time>2021-03-20T18:57:16Z</time>
      </trkpt>
      <trkpt lat="55.55217" lon="-4.53768">
        <ele>81.46</ele>
        <time>2021-03-20T18:57:19Z</time>
      </trkpt>
      <trkpt lat="55.5526" lon="-4.53785">
        <ele>81.75</ele>
        <time>2021-03-20T18:57:22Z</time>
      </trkpt>
      <trkpt lat="55.55282" lon="-4.53795">
        <ele>81.38</ele>
        <time>2021-03-20T18:57:24Z</time>
      </trkpt>
      <trkpt lat="55.55291" lon="-4.53803">
        <ele>81.1</ele>
        <time>2021-03-20T18:57:27Z</time>
      </trkpt>
      <trkpt lat="55.55316" lon="-4.53836">
        <ele>81.36</ele>
        <time>2021-03-20T18:57:30Z</time>
      </trkpt>
      <trkpt lat="55.55349" lon="-4.53893">
        <ele>81.92</ele>
        <time>2021-03-20T18:57:32Z</time>
      </trkpt>
      <trkpt lat="55.5536" lon="-4.53908">
        <ele>81.33</ele>
        <time>2021-03-20T18:57:35Z</time>
      </trkpt>
      <trkpt lat="55.55368" lon="-4.53915">
        <ele>80.84</ele>
        <time>2021-03-20T18:57:38Z</time>
      </trkpt>
      <trkpt lat="55.55383" lon="-4.53919">
        <ele>80.23</ele>
        <time>2021-03-20T18:57:40Z</time>
      </trkpt>
      <trkpt lat="55.55408" lon="-4.53921">
        <ele>80.7</ele>
        <time>2021-03-20T18:57:43Z</time>
      </trkpt>
      <trkpt lat="55.55416" lon="-4.53926">
        <ele>80.96</ele>
        <time>2021-03-20T18:57:46Z</time>
      </trkpt>
      <trkpt lat="55.55425" lon="-4.53936">
        <ele>81</ele>
        <time>2021-03-20T18:57:48Z</time>
      </trkpt>
      <trkpt lat="55.55552" lon="-4.54131">
        <ele>85.83</ele>
        <time>2021-03-20T18:57:51Z</time>
      </trkpt>
      <trkpt lat="55.55575" lon="-4.54174">
        <ele>86.76</ele>
        <time>2021-03-20T18:57:54Z</time>
      </trkpt>
      <trkpt lat="55.55582" lon="-4.54193">
        <ele>87</ele>
        <time>2021-03-20T18:57:57Z</time>
      </trkpt>
      <trkpt lat="55.55586" lon="-4.54213">
        <ele>87</ele>
        <time>2021-03-20T18:57:59Z</time>
      </trkpt>
      <trkpt lat="55.55583" lon="-4.54264">
        <ele>87.99</ele>
        <time>2021-03-20T18:58:02Z</time>
      </trkpt>
      <trkpt lat="55.55572" lon="-4.54284">
        <ele>87.69</ele>
        <time>2021-03-20T18:58:05Z</time>
      </trkpt>
      <trkpt lat="55.55557" lon="-4.5432">
        <ele>88</ele>
        <time>2021-03-20T18:58:08Z</time>
      </trkpt>
      <trkpt lat="55.55541" lon="-4.54365">
        <ele>88</ele>
        <time>2021-03-20T18:58:11Z</time>
      </trkpt>
      <trkpt lat="55.55539" lon="-4.54388">
        <ele>88</ele>
        <time>2021-03-20T18:58:14Z</time>
      </trkpt>
      <trkpt lat="55.5554" lon="-4.54404">
        <ele>87.46</ele>
        <time>2021-03-20T18:58:16Z</time>
      </trkpt>
      <trkpt lat="55.55544" lon="-4.54418">
        <ele>87</ele>
        <time>2021-03-20T18:58:19Z</time>
      </trkpt>
      <trkpt lat="55.55558" lon="-4.54448">
        <ele>87.31</ele>
        <time>2021-03-20T18:58:22Z</time>
      </trkpt>
      <trkpt lat="55.55615" lon="-4.5454">
        <ele>92.14</ele>
        <time>2021-03-20T18:58:25Z</time>
      </trkpt>
      <trkpt lat="55.55681" lon="-4.54655">
        <ele>93.98</ele>
        <time>2021-03-20T18:58:28Z</time>
      </trkpt>
      <trkpt lat="55.55692" lon="-4.5467">
        <ele>93.03</ele>
        <time>2021-03-20T18:58:31Z</time>
      </trkpt>
      <trkpt lat="55.55699" lon="-4.54675">
        <ele>92.38</ele>
        <time>2021-03-20T18:58:34Z</time>
      </trkpt>
      <trkpt lat="55.5571" lon="-4.54678">
        <ele>91.51</ele>
        <time>2021-03-20T18:58:37Z</time>
      </trkpt>
      <trkpt lat="55.55722" lon="-4.54675">
        <ele>90.73</ele>
        <time>2021-03-20T18:58:39Z</time>
      </trkpt>
      <trkpt lat="55.55735" lon="-4.54666">
        <ele>91</ele>
        <time>2021-03-20T18:58:42Z</time>
      </trkpt>
      <trkpt lat="55.55801" lon="-4.54605">
        <ele>90.84</ele>
        <time>2021-03-20T18:58:45Z</time>
      </trkpt>
      <trkpt lat="55.55821" lon="-4.546">
        <ele>92.11</ele>
        <time>2021-03-20T18:58:48Z</time>
      </trkpt>
      <trkpt lat="55.55829" lon="-4.54601">
        <ele>92.68</ele>
        <time>2021-03-20T18:58:49Z</time>
      </trkpt>
      <trkpt lat="55.55836" lon="-4.54595">
        <ele>93.29</ele>
        <time>2021-03-20T18:58:51Z</time>
      </trkpt>
      <trkpt lat="55.55846" lon="-4.546">
        <ele>94.41</ele>
        <time>2021-03-20T18:58:52Z</time>
      </trkpt>
      <trkpt lat="55.55878" lon="-4.54648">
        <ele>96.19</ele>
        <time>2021-03-20T18:58:54Z</time>
      </trkpt>
      <trkpt lat="55.55908" lon="-4.5471">
        <ele>96.14</ele>
        <time>2021-03-20T18:58:55Z</time>
      </trkpt>
      <trkpt lat="55.55919" lon="-4.54739">
        <ele>95.49</ele>
        <time>2021-03-20T18:58:57Z</time>
      </trkpt>
      <trkpt lat="55.5594" lon="-4.54807">
        <ele>95.82</ele>
        <time>2021-03-20T18:58:58Z</time>
      </trkpt>
      <trkpt lat="55.55949" lon="-4.54829">
        <ele>96</ele>
        <time>2021-03-20T18:59:00Z</time>
      </trkpt>
      <trkpt lat="55.55973" lon="-4.54865">
        <ele>95</ele>
        <time>2021-03-20T18:59:01Z</time>
      </trkpt>
      <trkpt lat="55.56015" lon="-4.54911">
        <ele>94.22</ele>
        <time>2021-03-20T18:59:03Z</time>
      </trkpt>
      <trkpt lat="55.56057" lon="-4.54965">
        <ele>88.68</ele>
        <time>2021-03-20T18:59:04Z</time>
      </trkpt>
      <trkpt lat="55.56087" lon="-4.55011">
        <ele>82.2</ele>
        <time>2021-03-20T18:59:06Z</time>
      </trkpt>
      <trkpt lat="55.56099" lon="-4.55033">
        <ele>80.71</ele>
        <time>2021-03-20T18:59:07Z</time>
      </trkpt>
      <trkpt lat="55.56107" lon="-4.55041">
        <ele>80.45</ele>
        <time>2021-03-20T18:59:09Z</time>
      </trkpt>
      <trkpt lat="55.56153" lon="-4.55037">
        <ele>81</ele>
        <time>2021-03-20T18:59:10Z</time>
      </trkpt>
      <trkpt lat="55.562" lon="-4.55026">
        <ele>80.87</ele>
        <time>2021-03-20T18:59:12Z</time>
      </trkpt>
      <trkpt lat="55.564" lon="-4.54906">
        <ele>78.58</ele>
        <time>2021-03-20T18:59:15Z</time>
      </trkpt>
      <trkpt lat="55.56586" lon="-4.54801">
        <ele>77.68</ele>
        <time>2021-03-20T18:59:19Z</time>
      </trkpt>
      <trkpt lat="55.56615" lon="-4.54787">
        <ele>76.97</ele>
        <time>2021-03-20T18:59:22Z</time>
      </trkpt>
      <trkpt lat="55.56625" lon="-4.54787">
        <ele>76.67</ele>
        <time>2021-03-20T18:59:26Z</time>
      </trkpt>
      <trkpt lat="55.56637" lon="-4.54791">
        <ele>76.06</ele>
        <time>2021-03-20T18:59:29Z</time>
      </trkpt>
      <trkpt lat="55.5666" lon="-4.54804">
        <ele>75.86</ele>
        <time>2021-03-20T18:59:33Z</time>
      </trkpt>
      <trkpt lat="55.56707" lon="-4.54844">
        <ele>75.14</ele>
        <time>2021-03-20T18:59:36Z</time>
      </trkpt>
      <trkpt lat="55.56761" lon="-4.54852">
        <ele>69.49</ele>
        <time>2021-03-20T18:59:40Z</time>
      </trkpt>
      <trkpt lat="55.5682" lon="-4.54856">
        <ele>62.48</ele>
        <time>2021-03-20T18:59:43Z</time>
      </trkpt>
      <trkpt lat="55.56996" lon="-4.54808">
        <ele>47.16</ele>
        <time>2021-03-20T18:59:47Z</time>
      </trkpt>
      <trkpt lat="55.57044" lon="-4.54791">
        <ele>45.47</ele>
        <time>2021-03-20T18:59:50Z</time>
      </trkpt>
      <trkpt lat="55.57066" lon="-4.54777">
        <ele>45.39</ele>
        <time>2021-03-20T18:59:53Z</time>
      </trkpt>
      <trkpt lat="55.57117" lon="-4.54732">
        <ele>46.85</ele>
        <time>2021-03-20T18:59:57Z</time>
      </trkpt>
      <trkpt lat="55.57131" lon="-4.54725">
        <ele>46.34</ele>
        <time>2021-03-20T19:00:00Z</time>
      </trkpt>
      <trkpt lat="55.5719" lon="-4.54703">
        <ele>47.83</ele>
        <time>2021-03-20T19:00:04Z</time>
      </trkpt>
      <trkpt lat="55.57236" lon="-4.5462">
        <ele>48.15</ele>
        <time>2021-03-20T19:00:07Z</time>
      </trkpt>
      <trkpt lat="55.57293" lon="-4.54488">
        <ele>47.47</ele>
        <time>2021-03-20T19:00:11Z</time>
      </trkpt>
      <trkpt lat="55.57358" lon="-4.54387">
        <ele>49</ele>
        <time>2021-03-20T19:00:14Z</time>
      </trkpt>
      <trkpt lat="55.57467" lon="-4.54252">
        <ele>45.55</ele>
        <time>2021-03-20T19:00:18Z</time>
      </trkpt>
      <trkpt lat="55.57558" lon="-4.54223">
        <ele>44.77</ele>
        <time>2021-03-20T19:00:21Z</time>
      </trkpt>
      <trkpt lat="55.57584" lon="-4.54278">
        <ele>41.96</ele>
        <time>2021-03-20T19:00:25Z</time>
      </trkpt>
      <trkpt lat="55.57638" lon="-4.54403">
        <ele>37.48</ele>
        <time>2021-03-20T19:00:28Z</time>
      </trkpt>
      <trkpt lat="55.57679" lon="-4.54473">
        <ele>34.44</ele>
        <time>2021-03-20T19:00:32Z</time>
      </trkpt>
      <trkpt lat="55.57711" lon="-4.54539">
        <ele>34.58</ele>
        <time>2021-03-20T19:00:35Z</time>
      </trkpt>
      <trkpt lat="55.57722" lon="-4.54553">
        <ele>34.99</ele>
        <time>2021-03-20T19:00:39Z</time>
      </trkpt>
      <trkpt lat="55.57785" lon="-4.54611">
        <ele>40.24</ele>
        <time>2021-03-20T19:00:43Z</time>
      </trkpt>
      <trkpt lat="55.57809" lon="-4.54643">
        <ele>41.89</ele>
        <time>2021-03-20T19:00:46Z</time>
      </trkpt>
      <trkpt lat="55.57897" lon="-4.54803">
        <ele>38.64</ele>
        <time>2021-03-20T19:00:50Z</time>
      </trkpt>
      <trkpt lat="55.57936" lon="-4.54856">
        <ele>38</ele>
        <time>2021-03-20T19:00:53Z</time>
      </trkpt>
      <trkpt lat="55.57966" lon="-4.54888">
        <ele>38</ele>
        <time>2021-03-20T19:00:57Z</time>
      </trkpt>
      <trkpt lat="55.57993" lon="-4.54924">
        <ele>38</ele>
        <time>2021-03-20T19:01:01Z</time>
      </trkpt>
      <trkpt lat="55.58047" lon="-4.55001">
        <ele>39.03</ele>
        <time>2021-03-20T19:01:04Z</time>
      </trkpt>
      <trkpt lat="55.58156" lon="-4.55182">
        <ele>33.27</ele>
        <time>2021-03-20T19:01:08Z</time>
      </trkpt>
      <trkpt lat="55.58169" lon="-4.55196">
        <ele>31.78</ele>
        <time>2021-03-20T19:01:11Z</time>
      </trkpt>
      <trkpt lat="55.58211" lon="-4.55222">
        <ele>28.83</ele>
        <time>2021-03-20T19:01:15Z</time>
      </trkpt>
      <trkpt lat="55.58236" lon="-4.55263">
        <ele>28.48</ele>
        <time>2021-03-20T19:01:18Z</time>
      </trkpt>
      <trkpt lat="55.5831" lon="-4.55468">
        <ele>31.14</ele>
        <time>2021-03-20T19:01:22Z</time>
      </trkpt>
      <trkpt lat="55.58325" lon="-4.55481">
        <ele>31.7</ele>
        <time>2021-03-20T19:01:26Z</time>
      </trkpt>
      <trkpt lat="55.58462" lon="-4.5555">
        <ele>34</ele>
        <time>2021-03-20T19:01:29Z</time>
      </trkpt>
      <trkpt lat="55.58802" lon="-4.55709">
        <ele>27.53</ele>
        <time>2021-03-20T19:01:33Z</time>
      </trkpt>
      <trkpt lat="55.58832" lon="-4.55601">
        <ele>26</ele>
        <time>2021-03-20T19:01:36Z</time>
      </trkpt>
      <trkpt lat="55.58849" lon="-4.5555">
        <ele>25.92</ele>
        <time>2021-03-20T19:01:39Z</time>
      </trkpt>
      <trkpt lat="55.5887" lon="-4.55506">
        <ele>25.46</ele>
        <time>2021-03-20T19:01:43Z</time>
      </trkpt>
      <trkpt lat="55.58897" lon="-4.55478">
        <ele>26</ele>
        <time>2021-03-20T19:01:46Z</time>
      </trkpt>
      <trkpt lat="55.58928" lon="-4.55455">
        <ele>26.15</ele>
        <time>2021-03-20T19:01:49Z</time>
      </trkpt>
      <trkpt lat="55.58994" lon="-4.55426">
        <ele>26</ele>
        <time>2021-03-20T19:01:53Z</time>
      </trkpt>
      <trkpt lat="55.59062" lon="-4.55402">
        <ele>26.24</ele>
        <time>2021-03-20T19:01:56Z</time>
      </trkpt>
      <trkpt lat="55.59129" lon="-4.55386">
        <ele>21.7</ele>
        <time>2021-03-20T19:01:59Z</time>
      </trkpt>
      <trkpt lat="55.59225" lon="-4.55372">
        <ele>17.09</ele>
        <time>2021-03-20T19:02:03Z</time>
      </trkpt>
      <trkpt lat="55.5924" lon="-4.55366">
        <ele>17.65</ele>
        <time>2021-03-20T19:02:06Z</time>
      </trkpt>
      <trkpt lat="55.59274" lon="-4.55335">
        <ele>18.76</ele>
        <time>2021-03-20T19:02:09Z</time>
      </trkpt>
      <trkpt lat="55.59295" lon="-4.55319">
        <ele>19.75</ele>
        <time>2021-03-20T19:02:13Z</time>
      </trkpt>
      <trkpt lat="55.5933" lon="-4.55296">
        <ele>22.31</ele>
        <time>2021-03-20T19:02:16Z</time>
      </trkpt>
      <trkpt lat="55.59346" lon="-4.55291">
        <ele>23.39</ele>
        <time>2021-03-20T19:02:19Z</time>
      </trkpt>
      <trkpt lat="55.5939" lon="-4.553">
        <ele>24.71</ele>
        <time>2021-03-20T19:02:22Z</time>
      </trkpt>
      <trkpt lat="55.59476" lon="-4.55349">
        <ele>25.13</ele>
        <time>2021-03-20T19:02:26Z</time>
      </trkpt>
      <trkpt lat="55.59491" lon="-4.55356">
        <ele>25.67</ele>
        <time>2021-03-20T19:02:29Z</time>
      </trkpt>
      <trkpt lat="55.59526" lon="-4.55356">
        <ele>26.94</ele>
        <time>2021-03-20T19:02:32Z</time>
      </trkpt>
      <trkpt lat="55.59543" lon="-4.55351">
        <ele>27.86</ele>
        <time>2021-03-20T19:02:36Z</time>
      </trkpt>
      <trkpt lat="55.59558" lon="-4.55339">
        <ele>28.31</ele>
        <time>2021-03-20T19:02:39Z</time>
      </trkpt>
      <trkpt lat="55.59571" lon="-4.55315">
        <ele>28.54</ele>
        <time>2021-03-20T19:02:42Z</time>
      </trkpt>
      <trkpt lat="55.59583" lon="-4.55329">
        <ele>28.98</ele>
        <time>2021-03-20T19:02:48Z</time>
      </trkpt>
      <trkpt lat="55.59749" lon="-4.55716">
        <ele>30.02</ele>
        <time>2021-03-20T19:02:53Z</time>
      </trkpt>
      <trkpt lat="55.5978" lon="-4.5577">
        <ele>30.07</ele>
        <time>2021-03-20T19:02:58Z</time>
      </trkpt>
      <trkpt lat="55.59821" lon="-4.55824">
        <ele>31.55</ele>
        <time>2021-03-20T19:03:04Z</time>
      </trkpt>
      <trkpt lat="55.59873" lon="-4.5587">
        <ele>32.42</ele>
        <time>2021-03-20T19:03:09Z</time>
      </trkpt>
      <trkpt lat="55.59937" lon="-4.55923">
        <ele>32.26</ele>
        <time>2021-03-20T19:03:14Z</time>
      </trkpt>
      <trkpt lat="55.5997" lon="-4.55956">
        <ele>30.14</ele>
        <time>2021-03-20T19:03:19Z</time>
      </trkpt>
      <trkpt lat="55.60019" lon="-4.56015">
        <ele>28.31</ele>
        <time>2021-03-20T19:03:25Z</time>
      </trkpt>
      <trkpt lat="55.60054" lon="-4.56072">
        <ele>27.04</ele>
        <time>2021-03-20T19:03:30Z</time>
      </trkpt>
      <trkpt lat="55.60082" lon="-4.56141">
        <ele>27</ele>
        <time>2021-03-20T19:03:35Z</time>
      </trkpt>
      <trkpt lat="55.60101" lon="-4.56197">
        <ele>27</ele>
        <time>2021-03-20T19:03:41Z</time>
      </trkpt>
      <trkpt lat="55.60222" lon="-4.56815">
        <ele>16.98</ele>
        <time>2021-03-20T19:03:46Z</time>
      </trkpt>
      <trkpt lat="55.60246" lon="-4.56952">
        <ele>20.58</ele>
        <time>2021-03-20T19:03:51Z</time>
      </trkpt>
      <trkpt lat="55.603" lon="-4.57199">
        <ele>25.05</ele>
        <time>2021-03-20T19:03:57Z</time>
      </trkpt>
      <trkpt lat="55.60315" lon="-4.5732">
        <ele>22.3</ele>
        <time>2021-03-20T19:04:02Z</time>
      </trkpt>
      <trkpt lat="55.60319" lon="-4.57344">
        <ele>21.8</ele>
        <time>2021-03-20T19:04:07Z</time>
      </trkpt>
      <trkpt lat="55.60334" lon="-4.57384">
        <ele>21</ele>
        <time>2021-03-20T19:04:13Z</time>
      </trkpt>
      <trkpt lat="55.60346" lon="-4.57406">
        <ele>21.9</ele>
        <time>2021-03-20T19:04:18Z</time>
      </trkpt>
      <trkpt lat="55.60378" lon="-4.57428">
        <ele>24.01</ele>
        <time>2021-03-20T19:04:23Z</time>
      </trkpt>
      <trkpt lat="55.60424" lon="-4.57436">
        <ele>26.5</ele>
        <time>2021-03-20T19:04:28Z</time>
      </trkpt>
      <trkpt lat="55.60522" lon="-4.57436">
        <ele>29.77</ele>
        <time>2021-03-20T19:04:34Z</time>
      </trkpt>
      <trkpt lat="55.60551" lon="-4.57439">
        <ele>30.85</ele>
        <time>2021-03-20T19:04:39Z</time>
      </trkpt>
      <trkpt lat="55.6057" lon="-4.57449">
        <ele>32.19</ele>
        <time>2021-03-20T19:04:44Z</time>
      </trkpt>
      <trkpt lat="55.60608" lon="-4.57478">
        <ele>35.77</ele>
        <time>2021-03-20T19:04:50Z</time>
      </trkpt>
      <trkpt lat="55.60645" lon="-4.57496">
        <ele>37.19</ele>
        <time>2021-03-20T19:04:55Z</time>
      </trkpt>
      <trkpt lat="55.6066" lon="-4.5751">
        <ele>38.11</ele>
        <time>2021-03-20T19:05:00Z</time>
      </trkpt>
      <trkpt lat="55.60711" lon="-4.57562">
        <ele>41.29</ele>
        <time>2021-03-20T19:05:06Z</time>
      </trkpt>
      <trkpt lat="55.60805" lon="-4.57589">
        <ele>39.04</ele>
        <time>2021-03-20T19:05:11Z</time>
      </trkpt>
      <trkpt lat="55.60974" lon="-4.576">
        <ele>32.95</ele>
        <time>2021-03-20T19:05:16Z</time>
      </trkpt>
      <trkpt lat="55.61012" lon="-4.5759">
        <ele>32</ele>
        <time>2021-03-20T19:05:21Z</time>
      </trkpt>
      <trkpt lat="55.61055" lon="-4.57564">
        <ele>31.02</ele>
        <time>2021-03-20T19:05:27Z</time>
      </trkpt>
      <trkpt lat="55.61089" lon="-4.57549">
        <ele>31.4</ele>
        <time>2021-03-20T19:05:32Z</time>
      </trkpt>
      <trkpt lat="55.61132" lon="-4.57561">
        <ele>35.12</ele>
        <time>2021-03-20T19:05:37Z</time>
      </trkpt>
      <trkpt lat="55.61136" lon="-4.57621">
        <ele>34.46</ele>
        <time>2021-03-20T19:05:45Z</time>
      </trkpt>
      <trkpt lat="55.61147" lon="-4.5767">
        <ele>32.89</ele>
        <time>2021-03-20T19:05:53Z</time>
      </trkpt>
      <trkpt lat="55.61382" lon="-4.58609">
        <ele>20</ele>
        <time>2021-03-20T19:06:01Z</time>
      </trkpt>
      <trkpt lat="55.61393" lon="-4.58685">
        <ele>21.5</ele>
        <time>2021-03-20T19:06:09Z</time>
      </trkpt>
      <trkpt lat="55.61395" lon="-4.58733">
        <ele>22.08</ele>
        <time>2021-03-20T19:06:17Z</time>
      </trkpt>
      <trkpt lat="55.61387" lon="-4.58841">
        <ele>22.95</ele>
        <time>2021-03-20T19:06:25Z</time>
      </trkpt>
      <trkpt lat="55.61489" lon="-4.58893">
        <ele>27.14</ele>
        <time>2021-03-20T19:06:41Z</time>
      </trkpt>
      <trkpt lat="55.61502" lon="-4.58903">
        <ele>27.45</ele>
        <time>2021-03-20T19:06:58Z</time>
      </trkpt>
      <trkpt lat="55.61552" lon="-4.58972">
        <ele>24.24</ele>
        <time>2021-03-20T19:07:14Z</time>
      </trkpt>
      <trkpt lat="55.61582" lon="-4.58998">
        <ele>23.03</ele>
        <time>2021-03-20T19:07:30Z</time>
      </trkpt>
      <trkpt lat="55.61613" lon="-4.59014">
        <ele>23</ele>
        <time>2021-03-20T19:07:47Z</time>
      </trkpt>
      <trkpt lat="55.61801" lon="-4.59045">
        <ele>26.82</ele>
        <time>2021-03-20T19:08:03Z</time>
      </trkpt>
      <trkpt lat="55.62177" lon="-4.59096">
        <ele>30.37</ele>
        <time>2021-03-20T19:08:19Z</time>
      </trkpt>
      <trkpt lat="55.62214" lon="-4.59117">
        <ele>30.79</ele>
        <time>2021-03-20T19:08:27Z</time>
      </trkpt>
      <trkpt lat="55.62317" lon="-4.59237">
        <ele>27.89</ele>
        <time>2021-03-20T19:08:35Z</time>
      </trkpt>
      <trkpt lat="55.62334" lon="-4.59249">
        <ele>28.05</ele>
        <time>2021-03-20T19:08:42Z</time>
      </trkpt>
      <trkpt lat="55.62541" lon="-4.59222">
        <ele>35</ele>
        <time>2021-03-20T19:08:50Z</time>
      </trkpt>
      <trkpt lat="55.62595" lon="-4.5921">
        <ele>33.58</ele>
        <time>2021-03-20T19:08:58Z</time>
      </trkpt>
      <trkpt lat="55.62683" lon="-4.59197">
        <ele>28.8</ele>
        <time>2021-03-20T19:09:05Z</time>
      </trkpt>
      <trkpt lat="55.62708" lon="-4.59192">
        <ele>27.01</ele>
        <time>2021-03-20T19:09:13Z</time>
      </trkpt>
      <trkpt lat="55.62742" lon="-4.59191">
        <ele>25.29</ele>
        <time>2021-03-20T19:09:21Z</time>
      </trkpt>
      <trkpt lat="55.62782" lon="-4.59171">
        <ele>24.84</ele>
        <time>2021-03-20T19:09:29Z</time>
      </trkpt>
      <trkpt lat="55.62803" lon="-4.59167">
        <ele>25</ele>
        <time>2021-03-20T19:09:36Z</time>
      </trkpt>
      <trkpt lat="55.6289" lon="-4.59218">
        <ele>24.04</ele>
        <time>2021-03-20T19:09:44Z</time>
      </trkpt>
      <trkpt lat="55.6297" lon="-4.59283">
        <ele>24.99</ele>
        <time>2021-03-20T19:09:52Z</time>
      </trkpt>
      <trkpt lat="55.62999" lon="-4.59326">
        <ele>25</ele>
        <time>2021-03-20T19:09:59Z</time>
      </trkpt>
      <trkpt lat="55.63035" lon="-4.59353">
        <ele>25.07</ele>
        <time>2021-03-20T19:10:07Z</time>
      </trkpt>
      <trkpt lat="55.63062" lon="-4.59367">
        <ele>25.44</ele>
        <time>2021-03-20T19:10:15Z</time>
      </trkpt>
      <trkpt lat="55.63088" lon="-4.59369">
        <ele>27.5</ele>
        <time>2021-03-20T19:10:23Z</time>
      </trkpt>
      <trkpt lat="55.63265" lon="-4.59347">
        <ele>34.51</ele>
        <time>2021-03-20T19:10:30Z</time>
      </trkpt>
      <trkpt lat="55.6333" lon="-4.59348">
        <ele>36.45</ele>
        <time>2021-03-20T19:10:38Z</time>
      </trkpt>
      <trkpt lat="55.63334" lon="-4.59429">
        <ele>36</ele>
        <time>2021-03-20T19:10:48Z</time>
      </trkpt>
      <trkpt lat="55.63342" lon="-4.59521">
        <ele>34.56</ele>
        <time>2021-03-20T19:10:58Z</time>
      </trkpt>
      <trkpt lat="55.63407" lon="-4.6004">
        <ele>40.92</ele>
        <time>2021-03-20T19:11:08Z</time>
      </trkpt>
      <trkpt lat="55.63416" lon="-4.60096">
        <ele>40.97</ele>
        <time>2021-03-20T19:11:18Z</time>
      </trkpt>
      <trkpt lat="55.63429" lon="-4.60139">
        <ele>40.45</ele>
        <time>2021-03-20T19:11:28Z</time>
      </trkpt>
      <trkpt lat="55.63444" lon="-4.6018">
        <ele>41.46</ele>
        <time>2021-03-20T19:11:38Z</time>
      </trkpt>
      <trkpt lat="55.63508" lon="-4.60325">
        <ele>42.73</ele>
        <time>2021-03-20T19:11:48Z</time>
      </trkpt>
      <trkpt lat="55.63538" lon="-4.60251">
        <ele>42.3</ele>
        <time>2021-03-20T19:11:51Z</time>
      </trkpt>
      <trkpt lat="55.63578" lon="-4.60174">
        <ele>42.54</ele>
        <time>2021-03-20T19:11:53Z</time>
      </trkpt>
      <trkpt lat="55.6365" lon="-4.60244">
        <ele>45.39</ele>
        <time>2021-03-20T19:11:59Z</time>
      </trkpt>
      <trkpt lat="55.63676" lon="-4.60274">
        <ele>45.27</ele>
        <time>2021-03-20T19:12:04Z</time>
      </trkpt>
      <trkpt lat="55.638" lon="-4.60436">
        <ele>38.27</ele>
        <time>2021-03-20T19:12:10Z</time>
      </trkpt>
      <trkpt lat="55.63836" lon="-4.60473">
        <ele>35</ele>
        <time>2021-03-20T19:12:15Z</time>
      </trkpt>
      <trkpt lat="55.64015" lon="-4.60586">
        <ele>45.14</ele>
        <time>2021-03-20T19:12:21Z</time>
      </trkpt>
      <trkpt lat="55.64044" lon="-4.60595">
        <ele>47.6</ele>
        <time>2021-03-20T19:12:26Z</time>
      </trkpt>
      <trkpt lat="55.64207" lon="-4.60598">
        <ele>42.55</ele>
        <time>2021-03-20T19:12:31Z</time>
      </trkpt>
      <trkpt lat="55.64216" lon="-4.60593">
        <ele>42.22</ele>
        <time>2021-03-20T19:12:37Z</time>
      </trkpt>
      <trkpt lat="55.64226" lon="-4.60561">
        <ele>41.56</ele>
        <time>2021-03-20T19:12:42Z</time>
      </trkpt>
      <trkpt lat="55.64239" lon="-4.60546">
        <ele>39.17</ele>
        <time>2021-03-20T19:12:48Z</time>
      </trkpt>
      <trkpt lat="55.64261" lon="-4.60537">
        <ele>37.82</ele>
        <time>2021-03-20T19:12:53Z</time>
      </trkpt>
      <trkpt lat="55.64274" lon="-4.6054">
        <ele>38.68</ele>
        <time>2021-03-20T19:12:59Z</time>
      </trkpt>
      <trkpt lat="55.64285" lon="-4.60548">
        <ele>40.19</ele>
        <time>2021-03-20T19:13:04Z</time>
      </trkpt>
      <trkpt lat="55.64322" lon="-4.60596">
        <ele>44.77</ele>
        <time>2021-03-20T19:13:10Z</time>
      </trkpt>
      <trkpt lat="55.64336" lon="-4.60603">
        <ele>46.06</ele>
        <time>2021-03-20T19:13:15Z</time>
      </trkpt>
      <trkpt lat="55.64353" lon="-4.60609">
        <ele>46.64</ele>
        <time>2021-03-20T19:13:21Z</time>
      </trkpt>
      <trkpt lat="55.64362" lon="-4.60615">
        <ele>46.96</ele>
        <time>2021-03-20T19:13:26Z</time>
      </trkpt>
      <trkpt lat="55.6437" lon="-4.60626">
        <ele>46.69</ele>
        <time>2021-03-20T19:13:32Z</time>
      </trkpt>
      <trkpt lat="55.6438" lon="-4.60656">
        <ele>46.31</ele>
        <time>2021-03-20T19:13:37Z</time>
      </trkpt>
      <trkpt lat="55.64376" lon="-4.60689">
        <ele>47.26</ele>
        <time>2021-03-20T19:13:41Z</time>
      </trkpt>
      <trkpt lat="55.64372" lon="-4.61066">
        <ele>44.86</ele>
        <time>2021-03-20T19:13:46Z</time>
      </trkpt>
      <trkpt lat="55.64365" lon="-4.61121">
        <ele>43.42</ele>
        <time>2021-03-20T19:13:50Z</time>
      </trkpt>
      <trkpt lat="55.64342" lon="-4.61218">
        <ele>39.35</ele>
        <time>2021-03-20T19:13:54Z</time>
      </trkpt>
      <trkpt lat="55.64327" lon="-4.61267">
        <ele>38.67</ele>
        <time>2021-03-20T19:13:59Z</time>
      </trkpt>
      <trkpt lat="55.64374" lon="-4.61535">
        <ele>45.07</ele>
        <time>2021-03-20T19:14:03Z</time>
      </trkpt>
      <trkpt lat="55.64375" lon="-4.61602">
        <ele>41.94</ele>
        <time>2021-03-20T19:14:07Z</time>
      </trkpt>
      <trkpt lat="55.64367" lon="-4.61645">
        <ele>39.38</ele>
        <time>2021-03-20T19:14:12Z</time>
      </trkpt>
      <trkpt lat="55.64356" lon="-4.61688">
        <ele>37.41</ele>
        <time>2021-03-20T19:14:16Z</time>
      </trkpt>
      <trkpt lat="55.64343" lon="-4.61713">
        <ele>36.95</ele>
        <time>2021-03-20T19:14:20Z</time>
      </trkpt>
      <trkpt lat="55.64336" lon="-4.61739">
        <ele>36.29</ele>
        <time>2021-03-20T19:14:25Z</time>
      </trkpt>
      <trkpt lat="55.64334" lon="-4.61757">
        <ele>35.98</ele>
        <time>2021-03-20T19:14:29Z</time>
      </trkpt>
      <trkpt lat="55.64334" lon="-4.61775">
        <ele>35.96</ele>
        <time>2021-03-20T19:14:33Z</time>
      </trkpt>
      <trkpt lat="55.64351" lon="-4.61865">
        <ele>34</ele>
        <time>2021-03-20T19:14:38Z</time>
      </trkpt>
      <trkpt lat="55.64351" lon="-4.61883">
        <ele>34</ele>
        <time>2021-03-20T19:14:42Z</time>
      </trkpt>
      <trkpt lat="55.64348" lon="-4.61901">
        <ele>33.58</ele>
        <time>2021-03-20T19:14:46Z</time>
      </trkpt>
      <trkpt lat="55.64338" lon="-4.61924">
        <ele>33</ele>
        <time>2021-03-20T19:14:51Z</time>
      </trkpt>
      <trkpt lat="55.64336" lon="-4.61935">
        <ele>33</ele>
        <time>2021-03-20T19:14:55Z</time>
      </trkpt>
      <trkpt lat="55.64335" lon="-4.61947">
        <ele>33</ele>
        <time>2021-03-20T19:14:59Z</time>
      </trkpt>
      <trkpt lat="55.64341" lon="-4.61978">
        <ele>33</ele>
        <time>2021-03-20T19:15:04Z</time>
      </trkpt>
      <trkpt lat="55.64365" lon="-4.62041">
        <ele>32</ele>
        <time>2021-03-20T19:15:08Z</time>
      </trkpt>
      <trkpt lat="55.64376" lon="-4.62084">
        <ele>31</ele>
        <time>2021-03-20T19:15:12Z</time>
      </trkpt>
      <trkpt lat="55.64376" lon="-4.62121">
        <ele>30.84</ele>
        <time>2021-03-20T19:15:17Z</time>
      </trkpt>
      <trkpt lat="55.64369" lon="-4.62157">
        <ele>30.29</ele>
        <time>2021-03-20T19:15:21Z</time>
      </trkpt>
      <trkpt lat="55.64363" lon="-4.62179">
        <ele>30.04</ele>
        <time>2021-03-20T19:15:25Z</time>
      </trkpt>
      <trkpt lat="55.64356" lon="-4.6225">
        <ele>30.38</ele>
        <time>2021-03-20T19:15:30Z</time>
      </trkpt>
      <trkpt lat="55.6436" lon="-4.62296">
        <ele>30.7</ele>
        <time>2021-03-20T19:15:34Z</time>
      </trkpt>
      <trkpt lat="55.64357" lon="-4.62433">
        <ele>28.49</ele>
        <time>2021-03-20T19:15:38Z</time>
      </trkpt>
      <trkpt lat="55.64351" lon="-4.62445">
        <ele>27.97</ele>
        <time>2021-03-20T19:15:44Z</time>
      </trkpt>
      <trkpt lat="55.64324" lon="-4.62517">
        <ele>26.52</ele>
        <time>2021-03-20T19:15:49Z</time>
      </trkpt>
      <trkpt lat="55.64293" lon="-4.62642">
        <ele>29.46</ele>
        <time>2021-03-20T19:15:55Z</time>
      </trkpt>
      <trkpt lat="55.64249" lon="-4.6278">
        <ele>29.97</ele>
        <time>2021-03-20T19:16:00Z</time>
      </trkpt>
      <trkpt lat="55.64224" lon="-4.62833">
        <ele>29.01</ele>
        <time>2021-03-20T19:16:06Z</time>
      </trkpt>
      <trkpt lat="55.64192" lon="-4.62864">
        <ele>29.08</ele>
        <time>2021-03-20T19:16:11Z</time>
      </trkpt>
      <trkpt lat="55.6416" lon="-4.62884">
        <ele>29.43</ele>
        <time>2021-03-20T19:16:17Z</time>
      </trkpt>
      <trkpt lat="55.64202" lon="-4.63077">
        <ele>25.24</ele>
        <time>2021-03-20T19:16:21Z</time>
      </trkpt>
      <trkpt lat="55.64216" lon="-4.63126">
        <ele>24.87</ele>
        <time>2021-03-20T19:16:26Z</time>
      </trkpt>
      <trkpt lat="55.64236" lon="-4.6318">
        <ele>24.99</ele>
        <time>2021-03-20T19:16:31Z</time>
      </trkpt>
      <trkpt lat="55.64254" lon="-4.63213">
        <ele>26.13</ele>
        <time>2021-03-20T19:16:36Z</time>
      </trkpt>
      <trkpt lat="55.6435" lon="-4.6329">
        <ele>29.19</ele>
        <time>2021-03-20T19:16:41Z</time>
      </trkpt>
      <trkpt lat="55.64355" lon="-4.63297">
        <ele>29.54</ele>
        <time>2021-03-20T19:16:46Z</time>
      </trkpt>
      <trkpt lat="55.64356" lon="-4.63308">
        <ele>29.64</ele>
        <time>2021-03-20T19:16:50Z</time>
      </trkpt>
      <trkpt lat="55.64357" lon="-4.6335">
        <ele>29.77</ele>
        <time>2021-03-20T19:16:55Z</time>
      </trkpt>
      <trkpt lat="55.6436" lon="-4.634">
        <ele>30.35</ele>
        <time>2021-03-20T19:17:00Z</time>
      </trkpt>
      <trkpt lat="55.64387" lon="-4.63498">
        <ele>30.94</ele>
        <time>2021-03-20T19:17:05Z</time>
      </trkpt>
      <trkpt lat="55.64385" lon="-4.63531">
        <ele>29.88</ele>
        <time>2021-03-20T19:17:10Z</time>
      </trkpt>
      <trkpt lat="55.64423" lon="-4.6354">
        <ele>30.21</ele>
        <time>2021-03-20T19:17:12Z</time>
      </trkpt>
      <trkpt lat="55.64467" lon="-4.63538">
        <ele>30.17</ele>
        <time>2021-03-20T19:17:14Z</time>
      </trkpt>
      <trkpt lat="55.64515" lon="-4.63524">
        <ele>28.93</ele>
        <time>2021-03-20T19:17:17Z</time>
      </trkpt>
      <trkpt lat="55.64538" lon="-4.63617">
        <ele>27.79</ele>
        <time>2021-03-20T19:17:20Z</time>
      </trkpt>
      <trkpt lat="55.64592" lon="-4.6372">
        <ele>24.69</ele>
        <time>2021-03-20T19:17:23Z</time>
      </trkpt>
      <trkpt lat="55.64685" lon="-4.64241">
        <ele>24.67</ele>
        <time>2021-03-20T19:17:27Z</time>
      </trkpt>
      <trkpt lat="55.64708" lon="-4.6429">
        <ele>25.26</ele>
        <time>2021-03-20T19:17:30Z</time>
      </trkpt>
      <trkpt lat="55.64847" lon="-4.6447">
        <ele>30.45</ele>
        <time>2021-03-20T19:17:34Z</time>
      </trkpt>
      <trkpt lat="55.64854" lon="-4.64481">
        <ele>30.73</ele>
        <time>2021-03-20T19:17:37Z</time>
      </trkpt>
      <trkpt lat="55.6488" lon="-4.64547">
        <ele>30.86</ele>
        <time>2021-03-20T19:17:40Z</time>
      </trkpt>
      <trkpt lat="55.64913" lon="-4.64617">
        <ele>29.57</ele>
        <time>2021-03-20T19:17:44Z</time>
      </trkpt>
      <trkpt lat="55.6499" lon="-4.64696">
        <ele>34.21</ele>
        <time>2021-03-20T19:17:47Z</time>
      </trkpt>
      <trkpt lat="55.65037" lon="-4.64723">
        <ele>32.29</ele>
        <time>2021-03-20T19:17:50Z</time>
      </trkpt>
      <trkpt lat="55.65172" lon="-4.64789">
        <ele>33.39</ele>
        <time>2021-03-20T19:17:54Z</time>
      </trkpt>
      <trkpt lat="55.65275" lon="-4.64964">
        <ele>25.41</ele>
        <time>2021-03-20T19:17:57Z</time>
      </trkpt>
      <trkpt lat="55.65437" lon="-4.65213">
        <ele>29</ele>
        <time>2021-03-20T19:18:00Z</time>
      </trkpt>
      <trkpt lat="55.65329" lon="-4.65438">
        <ele>28</ele>
        <time>2021-03-20T19:18:04Z</time>
      </trkpt>
      <trkpt lat="55.6531" lon="-4.65474">
        <ele>28</ele>
        <time>2021-03-20T19:18:07Z</time>
      </trkpt>
      <trkpt lat="55.65289" lon="-4.65489">
        <ele>28</ele>
        <time>2021-03-20T19:18:10Z</time>
      </trkpt>
      <trkpt lat="55.65271" lon="-4.65514">
        <ele>28.13</ele>
        <time>2021-03-20T19:18:14Z</time>
      </trkpt>
      <trkpt lat="55.65249" lon="-4.65561">
        <ele>27.99</ele>
        <time>2021-03-20T19:18:17Z</time>
      </trkpt>
      <trkpt lat="55.65224" lon="-4.65624">
        <ele>26.6</ele>
        <time>2021-03-20T19:18:20Z</time>
      </trkpt>
      <trkpt lat="55.65208" lon="-4.65689">
        <ele>25.2</ele>
        <time>2021-03-20T19:18:24Z</time>
      </trkpt>
      <trkpt lat="55.65209" lon="-4.65743">
        <ele>24.26</ele>
        <time>2021-03-20T19:18:27Z</time>
      </trkpt>
      <trkpt lat="55.65225" lon="-4.65798">
        <ele>22.39</ele>
        <time>2021-03-20T19:18:30Z</time>
      </trkpt>
      <trkpt lat="55.65268" lon="-4.65865">
        <ele>21.35</ele>
        <time>2021-03-20T19:18:34Z</time>
      </trkpt>
      <trkpt lat="55.65278" lon="-4.65907">
        <ele>21.66</ele>
        <time>2021-03-20T19:18:37Z</time>
      </trkpt>
      <trkpt lat="55.65274" lon="-4.66004">
        <ele>21.86</ele>
        <time>2021-03-20T19:18:40Z</time>
      </trkpt>
      <trkpt lat="55.65276" lon="-4.6606">
        <ele>20.85</ele>
        <time>2021-03-20T19:18:44Z</time>
      </trkpt>
      <trkpt lat="55.65281" lon="-4.66088">
        <ele>19.84</ele>
        <time>2021-03-20T19:18:47Z</time>
      </trkpt>
      <trkpt lat="55.65306" lon="-4.66163">
        <ele>18</ele>
        <time>2021-03-20T19:18:50Z</time>
      </trkpt>
      <trkpt lat="55.65308" lon="-4.66177">
        <ele>18.04</ele>
        <time>2021-03-20T19:18:54Z</time>
      </trkpt>
      <trkpt lat="55.65303" lon="-4.66214">
        <ele>17.92</ele>
        <time>2021-03-20T19:18:57Z</time>
      </trkpt>
      <trkpt lat="55.65308" lon="-4.66269">
        <ele>18.91</ele>
        <time>2021-03-20T19:19:00Z</time>
      </trkpt>
      <trkpt lat="55.65315" lon="-4.66314">
        <ele>19.77</ele>
        <time>2021-03-20T19:19:04Z</time>
      </trkpt>
      <trkpt lat="55.65321" lon="-4.66348">
        <ele>20.54</ele>
        <time>2021-03-20T19:19:07Z</time>
      </trkpt>
      <trkpt lat="55.6533" lon="-4.66382">
        <ele>21</ele>
        <time>2021-03-20T19:19:11Z</time>
      </trkpt>
      <trkpt lat="55.65338" lon="-4.66405">
        <ele>21</ele>
        <time>2021-03-20T19:19:14Z</time>
      </trkpt>
      <trkpt lat="55.65358" lon="-4.66435">
        <ele>21</ele>
        <time>2021-03-20T19:19:17Z</time>
      </trkpt>
      <trkpt lat="55.65493" lon="-4.6658">
        <ele>27.75</ele>
        <time>2021-03-20T19:19:21Z</time>
      </trkpt>
      <trkpt lat="55.65506" lon="-4.66598">
        <ele>28.23</ele>
        <time>2021-03-20T19:19:24Z</time>
      </trkpt>
      <trkpt lat="55.65516" lon="-4.66618">
        <ele>28.31</ele>
        <time>2021-03-20T19:19:27Z</time>
      </trkpt>
      <trkpt lat="55.6552" lon="-4.66639">
        <ele>27.74</ele>
        <time>2021-03-20T19:19:31Z</time>
      </trkpt>
      <trkpt lat="55.65522" lon="-4.66663">
        <ele>27.79</ele>
        <time>2021-03-20T19:19:34Z</time>
      </trkpt>
      <trkpt lat="55.65506" lon="-4.66794">
        <ele>25.61</ele>
        <time>2021-03-20T19:19:37Z</time>
      </trkpt>
      <trkpt lat="55.65501" lon="-4.6685">
        <ele>25.02</ele>
        <time>2021-03-20T19:19:41Z</time>
      </trkpt>
      <trkpt lat="55.65484" lon="-4.67244">
        <ele>29.19</ele>
        <time>2021-03-20T19:19:44Z</time>
      </trkpt>
      <trkpt lat="55.65438" lon="-4.67567">
        <ele>24.85</ele>
        <time>2021-03-20T19:19:47Z</time>
      </trkpt>
      <trkpt lat="55.65424" lon="-4.6783">
        <ele>25.75</ele>
        <time>2021-03-20T19:19:51Z</time>
      </trkpt>
      <trkpt lat="55.6543" lon="-4.68073">
        <ele>22.85</ele>
        <time>2021-03-20T19:19:54Z</time>
      </trkpt>
      <trkpt lat="55.65461" lon="-4.68071">
        <ele>24.01</ele>
        <time>2021-03-20T19:20:08Z</time>
      </trkpt>
      <trkpt lat="55.65901" lon="-4.67896">
        <ele>29.47</ele>
        <time>2021-03-20T19:20:22Z</time>
      </trkpt>
      <trkpt lat="55.65932" lon="-4.67866">
        <ele>30.18</ele>
        <time>2021-03-20T19:20:36Z</time>
      </trkpt>
      <trkpt lat="55.66077" lon="-4.67915">
        <ele>30.36</ele>
        <time>2021-03-20T19:20:50Z</time>
      </trkpt>
      <trkpt lat="55.66155" lon="-4.67894">
        <ele>31.38</ele>
        <time>2021-03-20T19:21:04Z</time>
      </trkpt>
      <trkpt lat="55.66172" lon="-4.67895">
        <ele>31.97</ele>
        <time>2021-03-20T19:21:18Z</time>
      </trkpt>
      <trkpt lat="55.6624" lon="-4.67937">
        <ele>32.91</ele>
        <time>2021-03-20T19:21:32Z</time>
      </trkpt>
      <trkpt lat="55.66255" lon="-4.67964">
        <ele>31.97</ele>
        <time>2021-03-20T19:21:46Z</time>
      </trkpt>
      <trkpt lat="55.66356" lon="-4.68263">
        <ele>28</ele>
        <time>2021-03-20T19:21:59Z</time>
      </trkpt>
      <trkpt lat="55.66387" lon="-4.68219">
        <ele>30.02</ele>
        <time>2021-03-20T19:22:01Z</time>
      </trkpt>
      <trkpt lat="55.66471" lon="-4.6838">
        <ele>34</ele>
        <time>2021-03-20T19:22:07Z</time>
      </trkpt>
      <trkpt lat="55.6648" lon="-4.68407">
        <ele>33.52</ele>
        <time>2021-03-20T19:22:12Z</time>
      </trkpt>
      <trkpt lat="55.66481" lon="-4.68439">
        <ele>33.31</ele>
        <time>2021-03-20T19:22:18Z</time>
      </trkpt>
      <trkpt lat="55.66474" lon="-4.68483">
        <ele>30.66</ele>
        <time>2021-03-20T19:22:24Z</time>
      </trkpt>
      <trkpt lat="55.66396" lon="-4.68712">
        <ele>28.26</ele>
        <time>2021-03-20T19:22:29Z</time>
      </trkpt>
      <trkpt lat="55.66397" lon="-4.6874">
        <ele>28.93</ele>
        <time>2021-03-20T19:22:35Z</time>
      </trkpt>
      <trkpt lat="55.66371" lon="-4.68824">
        <ele>29.35</ele>
        <time>2021-03-20T19:22:40Z</time>
      </trkpt>
      <trkpt lat="55.66367" lon="-4.68851">
        <ele>28.57</ele>
        <time>2021-03-20T19:22:46Z</time>
      </trkpt>
      <trkpt lat="55.66367" lon="-4.68925">
        <ele>27.15</ele>
        <time>2021-03-20T19:22:52Z</time>
      </trkpt>
      <trkpt lat="55.6636" lon="-4.6899">
        <ele>26.91</ele>
        <time>2021-03-20T19:22:57Z</time>
      </trkpt>
      <trkpt lat="55.6636" lon="-4.6905">
        <ele>25.95</ele>
        <time>2021-03-20T19:23:03Z</time>
      </trkpt>
      <trkpt lat="55.66432" lon="-4.69045">
        <ele>29.34</ele>
        <time>2021-03-20T19:23:08Z</time>
      </trkpt>
      <trkpt lat="55.66459" lon="-4.69056">
        <ele>29.99</ele>
        <time>2021-03-20T19:23:13Z</time>
      </trkpt>
      <trkpt lat="55.66605" lon="-4.69185">
        <ele>39.77</ele>
        <time>2021-03-20T19:23:19Z</time>
      </trkpt>
      <trkpt lat="55.6667" lon="-4.69265">
        <ele>42</ele>
        <time>2021-03-20T19:23:24Z</time>
      </trkpt>
      <trkpt lat="55.66698" lon="-4.69292">
        <ele>42.35</ele>
        <time>2021-03-20T19:23:29Z</time>
      </trkpt>
      <trkpt lat="55.66724" lon="-4.69295">
        <ele>40.82</ele>
        <time>2021-03-20T19:23:34Z</time>
      </trkpt>
      <trkpt lat="55.66808" lon="-4.6928">
        <ele>37.91</ele>
        <time>2021-03-20T19:23:40Z</time>
      </trkpt>
      <trkpt lat="55.6683" lon="-4.69288">
        <ele>37.64</ele>
        <time>2021-03-20T19:23:45Z</time>
      </trkpt>
      <trkpt lat="55.6688" lon="-4.6937">
        <ele>39.67</ele>
        <time>2021-03-20T19:23:50Z</time>
      </trkpt>
      <trkpt lat="55.66929" lon="-4.69416">
        <ele>37.57</ele>
        <time>2021-03-20T19:23:55Z</time>
      </trkpt>
      <trkpt lat="55.67035" lon="-4.69409">
        <ele>39.73</ele>
        <time>2021-03-20T19:24:00Z</time>
      </trkpt>
      <trkpt lat="55.67125" lon="-4.69377">
        <ele>43</ele>
        <time>2021-03-20T19:24:06Z</time>
      </trkpt>
      <trkpt lat="55.67176" lon="-4.6937">
        <ele>43.68</ele>
        <time>2021-03-20T19:24:11Z</time>
      </trkpt>
      <trkpt lat="55.67207" lon="-4.69355">
        <ele>42.66</ele>
        <time>2021-03-20T19:24:16Z</time>
      </trkpt>
      <trkpt lat="55.67234" lon="-4.69351">
        <ele>42.79</ele>
        <time>2021-03-20T19:24:21Z</time>
      </trkpt>
      <trkpt lat="55.6726" lon="-4.69354">
        <ele>43.26</ele>
        <time>2021-03-20T19:24:27Z</time>
      </trkpt>
      <trkpt lat="55.67312" lon="-4.69384">
        <ele>42.03</ele>
        <time>2021-03-20T19:24:32Z</time>
      </trkpt>
      <trkpt lat="55.67331" lon="-4.69426">
        <ele>37.9</ele>
        <time>2021-03-20T19:24:37Z</time>
      </trkpt>
      <trkpt lat="55.67381" lon="-4.69397">
        <ele>29.77</ele>
        <time>2021-03-20T19:24:42Z</time>
      </trkpt>
      <trkpt lat="55.67559" lon="-4.69407">
        <ele>26.56</ele>
        <time>2021-03-20T19:24:48Z</time>
      </trkpt>
      <trkpt lat="55.67626" lon="-4.69402">
        <ele>28.45</ele>
        <time>2021-03-20T19:24:53Z</time>
      </trkpt>
      <trkpt lat="55.67699" lon="-4.69383">
        <ele>25.87</ele>
        <time>2021-03-20T19:24:58Z</time>
      </trkpt>
      <trkpt lat="55.67733" lon="-4.69388">
        <ele>24.65</ele>
        <time>2021-03-20T19:25:03Z</time>
      </trkpt>
      <trkpt lat="55.67803" lon="-4.69419">
        <ele>23.9</ele>
        <time>2021-03-20T19:25:09Z</time>
      </trkpt>
      <trkpt lat="55.67981" lon="-4.69432">
        <ele>29</ele>
        <time>2021-03-20T19:25:14Z</time>
      </trkpt>
      <trkpt lat="55.68026" lon="-4.69497">
        <ele>28</ele>
        <time>2021-03-20T19:25:19Z</time>
      </trkpt>
      <trkpt lat="55.68032" lon="-4.69525">
        <ele>28.02</ele>
        <time>2021-03-20T19:25:25Z</time>
      </trkpt>
      <trkpt lat="55.68036" lon="-4.69594">
        <ele>27.28</ele>
        <time>2021-03-20T19:25:30Z</time>
      </trkpt>
      <trkpt lat="55.68031" lon="-4.69666">
        <ele>26</ele>
        <time>2021-03-20T19:25:36Z</time>
      </trkpt>
      <trkpt lat="55.68022" lon="-4.69697">
        <ele>26.4</ele>
        <time>2021-03-20T19:25:41Z</time>
      </trkpt>
      <trkpt lat="55.67985" lon="-4.69774">
        <ele>27.08</ele>
        <time>2021-03-20T19:25:46Z</time>
      </trkpt>
      <trkpt lat="55.67981" lon="-4.6984">
        <ele>26.93</ele>
        <time>2021-03-20T19:25:52Z</time>
      </trkpt>
      <trkpt lat="55.67973" lon="-4.69869">
        <ele>26.96</ele>
        <time>2021-03-20T19:25:57Z</time>
      </trkpt>
      <trkpt lat="55.67962" lon="-4.69891">
        <ele>26.91</ele>
        <time>2021-03-20T19:26:03Z</time>
      </trkpt>
      <trkpt lat="55.67932" lon="-4.6992">
        <ele>26</ele>
        <time>2021-03-20T19:26:08Z</time>
      </trkpt>
      <trkpt lat="55.67927" lon="-4.6995">
        <ele>26</ele>
        <time>2021-03-20T19:26:14Z</time>
      </trkpt>
      <trkpt lat="55.67918" lon="-4.70066">
        <ele>26</ele>
        <time>2021-03-20T19:26:19Z</time>
      </trkpt>
      <trkpt lat="55.67921" lon="-4.70097">
        <ele>26</ele>
        <time>2021-03-20T19:26:24Z</time>
      </trkpt>
      <trkpt lat="55.6794" lon="-4.70144">
        <ele>25.85</ele>
        <time>2021-03-20T19:26:30Z</time>
      </trkpt>
      <trkpt lat="55.67941" lon="-4.70167">
        <ele>25.88</ele>
        <time>2021-03-20T19:26:35Z</time>
      </trkpt>
      <trkpt lat="55.67922" lon="-4.70285">
        <ele>26.46</ele>
        <time>2021-03-20T19:26:41Z</time>
      </trkpt>
      <trkpt lat="55.67659" lon="-4.70943">
        <ele>27</ele>
        <time>2021-03-20T19:26:46Z</time>
      </trkpt>
      <trkpt lat="55.67656" lon="-4.70945">
        <ele>26.93</ele>
        <time>2021-03-20T19:26:52Z</time>
      </trkpt>
      <trkpt lat="55.67639" lon="-4.70944">
        <ele>27</ele>
        <time>2021-03-20T19:26:57Z</time>
      </trkpt>
      <trkpt lat="55.67574" lon="-4.70914">
        <ele>21.43</ele>
        <time>2021-03-20T19:27:02Z</time>
      </trkpt>
      <trkpt lat="55.67566" lon="-4.70921">
        <ele>20.61</ele>
        <time>2021-03-20T19:27:08Z</time>
      </trkpt>
      <trkpt lat="55.67561" lon="-4.70932">
        <ele>19.82</ele>
        <time>2021-03-20T19:27:13Z</time>
      </trkpt>
      <trkpt lat="55.67561" lon="-4.70943">
        <ele>19.47</ele>
        <time>2021-03-20T19:27:19Z</time>
      </trkpt>
      <trkpt lat="55.67586" lon="-4.71005">
        <ele>18.14</ele>
        <time>2021-03-20T19:27:24Z</time>
      </trkpt>
      <trkpt lat="55.67587" lon="-4.71048">
        <ele>16.52</ele>
        <time>2021-03-20T19:27:29Z</time>
      </trkpt>
      <trkpt lat="55.67586" lon="-4.7107">
        <ele>16.59</ele>
        <time>2021-03-20T19:27:35Z</time>
      </trkpt>
      <trkpt lat="55.67606" lon="-4.71169">
        <ele>16.47</ele>
        <time>2021-03-20T19:27:40Z</time>
      </trkpt>
      <trkpt lat="55.67628" lon="-4.71269">
        <ele>18.68</ele>
        <time>2021-03-20T19:27:46Z</time>
      </trkpt>
      <trkpt lat="55.67723" lon="-4.71315">
        <ele>22.06</ele>
        <time>2021-03-20T19:27:51Z</time>
      </trkpt>
      <trkpt lat="55.67714" lon="-4.71354">
        <ele>21.93</ele>
        <time>2021-03-20T19:27:59Z</time>
      </trkpt>
      <trkpt lat="55.67698" lon="-4.71382">
        <ele>22</ele>
        <time>2021-03-20T19:28:08Z</time>
      </trkpt>
      <trkpt lat="55.6769" lon="-4.71418">
        <ele>23</ele>
        <time>2021-03-20T19:28:16Z</time>
      </trkpt>
      <trkpt lat="55.67627" lon="-4.71563">
        <ele>29.56</ele>
        <time>2021-03-20T19:28:24Z</time>
      </trkpt>
      <trkpt lat="55.67594" lon="-4.7168">
        <ele>32.53</ele>
        <time>2021-03-20T19:28:33Z</time>
      </trkpt>
      <trkpt lat="55.67543" lon="-4.71699">
        <ele>35.88</ele>
        <time>2021-03-20T19:28:41Z</time>
      </trkpt>
      <trkpt lat="55.67522" lon="-4.7172">
        <ele>37.22</ele>
        <time>2021-03-20T19:28:49Z</time>
      </trkpt>
      <trkpt lat="55.67515" lon="-4.71744">
        <ele>37.05</ele>
        <time>2021-03-20T19:28:57Z</time>
      </trkpt>
      <trkpt lat="55.67487" lon="-4.72292">
        <ele>49.75</ele>
        <time>2021-03-20T19:29:06Z</time>
      </trkpt>
      <trkpt lat="55.67465" lon="-4.72284">
        <ele>49.57</ele>
        <time>2021-03-20T19:29:08Z</time>
      </trkpt>
      <trkpt lat="55.67459" lon="-4.72339">
        <ele>49</ele>
        <time>2021-03-20T19:29:23Z</time>
      </trkpt>
      <trkpt lat="55.67462" lon="-4.72503">
        <ele>52.4</ele>
        <time>2021-03-20T19:29:38Z</time>
      </trkpt>
      <trkpt lat="55.67499" lon="-4.72587">
        <ele>56.01</ele>
        <time>2021-03-20T19:29:53Z</time>
      </trkpt>
      <trkpt lat="55.67526" lon="-4.72635">
        <ele>58.79</ele>
        <time>2021-03-20T19:30:07Z</time>
      </trkpt>
      <trkpt lat="55.67709" lon="-4.73303">
        <ele>92.4</ele>
        <time>2021-03-20T19:30:22Z</time>
      </trkpt>
      <trkpt lat="55.67488" lon="-4.73513">
        <ele>80.27</ele>
        <time>2021-03-20T19:30:31Z</time>
      </trkpt>
      <trkpt lat="55.67464" lon="-4.73516">
        <ele>79.68</ele>
        <time>2021-03-20T19:30:41Z</time>
      </trkpt>
      <trkpt lat="55.67451" lon="-4.73525">
        <ele>79.25</ele>
        <time>2021-03-20T19:30:50Z</time>
      </trkpt>
      <trkpt lat="55.67443" lon="-4.73545">
        <ele>78.89</ele>
        <time>2021-03-20T19:30:59Z</time>
      </trkpt>
      <trkpt lat="55.67364" lon="-4.73593">
        <ele>74.77</ele>
        <time>2021-03-20T19:31:09Z</time>
      </trkpt>
      <trkpt lat="55.6728" lon="-4.73629">
        <ele>70.12</ele>
        <time>2021-03-20T19:31:18Z</time>
      </trkpt>
      <trkpt lat="55.67262" lon="-4.73629">
        <ele>69.43</ele>
        <time>2021-03-20T19:31:27Z</time>
      </trkpt>
      <trkpt lat="55.67233" lon="-4.73612">
        <ele>67.78</ele>
        <time>2021-03-20T19:31:37Z</time>
      </trkpt>
      <trkpt lat="55.672" lon="-4.73618">
        <ele>66.39</ele>
        <time>2021-03-20T19:31:46Z</time>
      </trkpt>
      <trkpt lat="55.67163" lon="-4.73604">
        <ele>67.61</ele>
        <time>2021-03-20T19:31:55Z</time>
      </trkpt>
      <trkpt lat="55.67039" lon="-4.73609">
        <ele>63.35</ele>
        <time>2021-03-20T19:32:05Z</time>
      </trkpt>
      <trkpt lat="55.66932" lon="-4.73676">
        <ele>57.02</ele>
        <time>2021-03-20T19:32:14Z</time>
      </trkpt>
      <trkpt lat="55.66722" lon="-4.73812">
        <ele>48</ele>
        <time>2021-03-20T19:32:23Z</time>
      </trkpt>
      <trkpt lat="55.66756" lon="-4.74092">
        <ele>59.24</ele>
        <time>2021-03-20T19:32:28Z</time>
      </trkpt>
      <trkpt lat="55.66762" lon="-4.74116">
        <ele>61.29</ele>
        <time>2021-03-20T19:32:32Z</time>
      </trkpt>
      <trkpt lat="55.6679" lon="-4.74135">
        <ele>65.92</ele>
        <time>2021-03-20T19:32:36Z</time>
      </trkpt>
      <trkpt lat="55.66794" lon="-4.7415">
        <ele>67.84</ele>
        <time>2021-03-20T19:32:40Z</time>
      </trkpt>
      <trkpt lat="55.66782" lon="-4.74173">
        <ele>67.99</ele>
        <time>2021-03-20T19:32:45Z</time>
      </trkpt>
      <trkpt lat="55.66768" lon="-4.74225">
        <ele>70.2</ele>
        <time>2021-03-20T19:32:49Z</time>
      </trkpt>
      <trkpt lat="55.66774" lon="-4.74237">
        <ele>72.09</ele>
        <time>2021-03-20T19:32:53Z</time>
      </trkpt>
      <trkpt lat="55.668" lon="-4.74242">
        <ele>75.84</ele>
        <time>2021-03-20T19:32:57Z</time>
      </trkpt>
      <trkpt lat="55.66819" lon="-4.74284">
        <ele>79.81</ele>
        <time>2021-03-20T19:33:02Z</time>
      </trkpt>
      <trkpt lat="55.66849" lon="-4.74314">
        <ele>82.89</ele>
        <time>2021-03-20T19:33:06Z</time>
      </trkpt>
      <trkpt lat="55.66873" lon="-4.74489">
        <ele>88.46</ele>
        <time>2021-03-20T19:33:17Z</time>
      </trkpt>
      <trkpt lat="55.66817" lon="-4.74528">
        <ele>86.21</ele>
        <time>2021-03-20T19:33:24Z</time>
      </trkpt>
      <trkpt lat="55.66791" lon="-4.74568">
        <ele>85.62</ele>
        <time>2021-03-20T19:33:31Z</time>
      </trkpt>
      <trkpt lat="55.66783" lon="-4.7462">
        <ele>87.53</ele>
        <time>2021-03-20T19:33:38Z</time>
      </trkpt>
      <trkpt lat="55.66769" lon="-4.7466">
        <ele>88.43</ele>
        <time>2021-03-20T19:33:44Z</time>
      </trkpt>
      <trkpt lat="55.66696" lon="-4.74709">
        <ele>89.53</ele>
        <time>2021-03-20T19:33:51Z</time>
      </trkpt>
      <trkpt lat="55.6665" lon="-4.74726">
        <ele>84.71</ele>
        <time>2021-03-20T19:33:58Z</time>
      </trkpt>
      <trkpt lat="55.66644" lon="-4.74737">
        <ele>84.31</ele>
        <time>2021-03-20T19:34:04Z</time>
      </trkpt>
      <trkpt lat="55.66655" lon="-4.74833">
        <ele>87.13</ele>
        <time>2021-03-20T19:34:11Z</time>
      </trkpt>
      <trkpt lat="55.66655" lon="-4.74867">
        <ele>86.13</ele>
        <time>2021-03-20T19:34:18Z</time>
      </trkpt>
      <trkpt lat="55.66645" lon="-4.74897">
        <ele>85.37</ele>
        <time>2021-03-20T19:34:24Z</time>
      </trkpt>
      <trkpt lat="55.66554" lon="-4.75115">
        <ele>83.97</ele>
        <time>2021-03-20T19:34:31Z</time>
      </trkpt>
      <trkpt lat="55.66546" lon="-4.75151">
        <ele>83.93</ele>
        <time>2021-03-20T19:34:38Z</time>
      </trkpt>
      <trkpt lat="55.66512" lon="-4.75252">
        <ele>82.92</ele>
        <time>2021-03-20T19:34:44Z</time>
      </trkpt>
      <trkpt lat="55.66512" lon="-4.75277">
        <ele>83.32</ele>
        <time>2021-03-20T19:34:51Z</time>
      </trkpt>
      <trkpt lat="55.66544" lon="-4.75422">
        <ele>84.46</ele>
        <time>2021-03-20T19:34:58Z</time>
      </trkpt>
      <trkpt lat="55.66606" lon="-4.75594">
        <ele>78.2</ele>
        <time>2021-03-20T19:35:05Z</time>
      </trkpt>
      <trkpt lat="55.6661" lon="-4.75613">
        <ele>78</ele>
        <time>2021-03-20T19:35:11Z</time>
      </trkpt>
      <trkpt lat="55.66608" lon="-4.75625">
        <ele>77.6</ele>
        <time>2021-03-20T19:35:18Z</time>
      </trkpt>
      <trkpt lat="55.66596" lon="-4.75644">
        <ele>77.46</ele>
        <time>2021-03-20T19:35:25Z</time>
      </trkpt>
      <trkpt lat="55.66566" lon="-4.75674">
        <ele>77.09</ele>
        <time>2021-03-20T19:35:31Z</time>
      </trkpt>
      <trkpt lat="55.66509" lon="-4.75702">
        <ele>73.63</ele>
        <time>2021-03-20T19:35:38Z</time>
      </trkpt>
      <trkpt lat="55.66467" lon="-4.75702">
        <ele>71.75</ele>
        <time>2021-03-20T19:35:45Z</time>
      </trkpt>
      <trkpt lat="55.66406" lon="-4.75737">
        <ele>70.47</ele>
        <time>2021-03-20T19:35:51Z</time>
      </trkpt>
      <trkpt lat="55.66369" lon="-4.75802">
        <ele>68.36</ele>
        <time>2021-03-20T19:35:58Z</time>
      </trkpt>
      <trkpt lat="55.66336" lon="-4.75888">
        <ele>70.97</ele>
        <time>2021-03-20T19:36:05Z</time>
      </trkpt>
      <trkpt lat="55.66298" lon="-4.75917">
        <ele>71.72</ele>
        <time>2021-03-20T19:36:12Z</time>
      </trkpt>
      <trkpt lat="55.66292" lon="-4.75943">
        <ele>72</ele>
        <time>2021-03-20T19:36:18Z</time>
      </trkpt>
      <trkpt lat="55.6629" lon="-4.76017">
        <ele>74.85</ele>
        <time>2021-03-20T19:36:25Z</time>
      </trkpt>
      <trkpt lat="55.66356" lon="-4.76593">
        <ele>77.82</ele>
        <time>2021-03-20T19:36:32Z</time>
      </trkpt>
      <trkpt lat="55.66364" lon="-4.76827">
        <ele>87.89</ele>
        <time>2021-03-20T19:36:38Z</time>
      </trkpt>
      <trkpt lat="55.66347" lon="-4.76828">
        <ele>87.3</ele>
        <time>2021-03-20T19:36:43Z</time>
      </trkpt>
      <trkpt lat="55.66298" lon="-4.76845">
        <ele>86.17</ele>
        <time>2021-03-20T19:36:47Z</time>
      </trkpt>
      <trkpt lat="55.66001" lon="-4.77024">
        <ele>85.74</ele>
        <time>2021-03-20T19:36:52Z</time>
      </trkpt>
      <trkpt lat="55.65902" lon="-4.77081">
        <ele>86.34</ele>
        <time>2021-03-20T19:36:57Z</time>
      </trkpt>
      <trkpt lat="55.65761" lon="-4.77147">
        <ele>89.24</ele>
        <time>2021-03-20T19:37:01Z</time>
      </trkpt>
      <trkpt lat="55.6572" lon="-4.77169">
        <ele>89.96</ele>
        <time>2021-03-20T19:37:06Z</time>
      </trkpt>
      <trkpt lat="55.65651" lon="-4.7721">
        <ele>87.58</ele>
        <time>2021-03-20T19:37:10Z</time>
      </trkpt>
      <trkpt lat="55.65535" lon="-4.77295">
        <ele>83.55</ele>
        <time>2021-03-20T19:37:15Z</time>
      </trkpt>
      <trkpt lat="55.65523" lon="-4.773">
        <ele>82.49</ele>
        <time>2021-03-20T19:37:19Z</time>
      </trkpt>
      <trkpt lat="55.65514" lon="-4.773">
        <ele>81.82</ele>
        <time>2021-03-20T19:37:24Z</time>
      </trkpt>
      <trkpt lat="55.65507" lon="-4.77296">
        <ele>81.17</ele>
        <time>2021-03-20T19:37:28Z</time>
      </trkpt>
      <trkpt lat="55.655" lon="-4.77288">
        <ele>80.36</ele>
        <time>2021-03-20T19:37:40Z</time>
      </trkpt>
      <trkpt lat="55.6549" lon="-4.77283">
        <ele>79.48</ele>
        <time>2021-03-20T19:37:51Z</time>
      </trkpt>
      <trkpt lat="55.65483" lon="-4.77284">
        <ele>79.02</ele>
        <time>2021-03-20T19:38:02Z</time>
      </trkpt>
      <trkpt lat="55.65471" lon="-4.77294">
        <ele>78.51</ele>
        <time>2021-03-20T19:38:13Z</time>
      </trkpt>
      <trkpt lat="55.65466" lon="-4.77303">
        <ele>78.49</ele>
        <time>2021-03-20T19:38:24Z</time>
      </trkpt>
      <trkpt lat="55.65452" lon="-4.77328">
        <ele>78.16</ele>
        <time>2021-03-20T19:38:35Z</time>
      </trkpt>
      <trkpt lat="55.65437" lon="-4.77347">
        <ele>78.72</ele>
        <time>2021-03-20T19:38:46Z</time>
      </trkpt>
      <trkpt lat="55.65386" lon="-4.77376">
        <ele>77.44</ele>
        <time>2021-03-20T19:38:57Z</time>
      </trkpt>
      <trkpt lat="55.65315" lon="-4.77464">
        <ele>78.57</ele>
        <time>2021-03-20T19:39:08Z</time>
      </trkpt>
      <trkpt lat="55.65259" lon="-4.77537">
        <ele>76.33</ele>
        <time>2021-03-20T19:39:19Z</time>
      </trkpt>
      <trkpt lat="55.65213" lon="-4.7759">
        <ele>74.66</ele>
        <time>2021-03-20T19:39:31Z</time>
      </trkpt>
      <trkpt lat="55.65189" lon="-4.77607">
        <ele>73.81</ele>
        <time>2021-03-20T19:39:42Z</time>
      </trkpt>
      <trkpt lat="55.65163" lon="-4.77619">
        <ele>72.47</ele>
        <time>2021-03-20T19:39:53Z</time>
      </trkpt>
      <trkpt lat="55.64729" lon="-4.7782">
        <ele>50.48</ele>
        <time>2021-03-20T19:40:04Z</time>
      </trkpt>
      <trkpt lat="55.64504" lon="-4.7793">
        <ele>41</ele>
        <time>2021-03-20T19:40:15Z</time>
      </trkpt>
      <trkpt lat="55.6423" lon="-4.7806">
        <ele>30.11</ele>
        <time>2021-03-20T19:40:26Z</time>
      </trkpt>
      <trkpt lat="55.63748" lon="-4.78297">
        <ele>15.94</ele>
        <time>2021-03-20T19:40:37Z</time>
      </trkpt>
      <trkpt lat="55.63558" lon="-4.78385">
        <ele>8.93</ele>
        <time>2021-03-20T19:40:48Z</time>
      </trkpt>
      <trkpt lat="55.63545" lon="-4.78386">
        <ele>9</ele>
        <time>2021-03-20T19:40:59Z</time>
      </trkpt>
      <trkpt lat="55.63526" lon="-4.7838">
        <ele>9</ele>
        <time>2021-03-20T19:41:11Z</time>
      </trkpt>
      <trkpt lat="55.63516" lon="-4.78364">
        <ele>9</ele>
        <time>2021-03-20T19:41:22Z</time>
      </trkpt>
      <trkpt lat="55.63495" lon="-4.7828">
        <ele>7.99</ele>
        <time>2021-03-20T19:41:33Z</time>
      </trkpt>
      <trkpt lat="55.63474" lon="-4.78238">
        <ele>8.03</ele>
        <time>2021-03-20T19:41:44Z</time>
      </trkpt>
      <trkpt lat="55.63439" lon="-4.78205">
        <ele>8</ele>
        <time>2021-03-20T19:41:55Z</time>
      </trkpt>
      <trkpt lat="55.63416" lon="-4.78189">
        <ele>8.18</ele>
        <time>2021-03-20T19:42:06Z</time>
      </trkpt>
      <trkpt lat="55.63378" lon="-4.78172">
        <ele>7.59</ele>
        <time>2021-03-20T19:42:17Z</time>
      </trkpt>
      <trkpt lat="55.63368" lon="-4.78255">
        <ele>8</ele>
        <time>2021-03-20T19:42:22Z</time>
      </trkpt>
      <trkpt lat="55.63364" lon="-4.7827">
        <ele>8</ele>
        <time>2021-03-20T19:42:27Z</time>
      </trkpt>
      <trkpt lat="55.6334" lon="-4.78319">
        <ele>8.76</ele>
        <time>2021-03-20T19:42:32Z</time>
      </trkpt>
      <trkpt lat="55.63339" lon="-4.78328">
        <ele>8.79</ele>
        <time>2021-03-20T19:42:37Z</time>
      </trkpt>
      <trkpt lat="55.6334" lon="-4.78346">
        <ele>8.43</ele>
        <time>2021-03-20T19:42:42Z</time>
      </trkpt>
      <trkpt lat="55.63358" lon="-4.78439">
        <ele>8</ele>
        <time>2021-03-20T19:42:47Z</time>
      </trkpt>
      <trkpt lat="55.63384" lon="-4.78564">
        <ele>6</ele>
        <time>2021-03-20T19:42:52Z</time>
      </trkpt>
      <trkpt lat="55.63424" lon="-4.78762">
        <ele>5</ele>
        <time>2021-03-20T19:42:57Z</time>
      </trkpt>
      <trkpt lat="55.63435" lon="-4.78785">
        <ele>5.16</ele>
        <time>2021-03-20T19:43:02Z</time>
      </trkpt>
      <trkpt lat="55.63454" lon="-4.78801">
        <ele>6.2</ele>
        <time>2021-03-20T19:43:07Z</time>
      </trkpt>
      <trkpt lat="55.6346" lon="-4.7881">
        <ele>6.58</ele>
        <time>2021-03-20T19:43:12Z</time>
      </trkpt>
      <trkpt lat="55.63593" lon="-4.7911">
        <ele>8</ele>
        <time>2021-03-20T19:43:18Z</time>
      </trkpt>
      <trkpt lat="55.63598" lon="-4.79143">
        <ele>7.52</ele>
        <time>2021-03-20T19:43:23Z</time>
      </trkpt>
      <trkpt lat="55.63591" lon="-4.79141">
        <ele>7.27</ele>
        <time>2021-03-20T19:43:25Z</time>
      </trkpt>
      <trkpt lat="55.63584" lon="-4.79145">
        <ele>7.01</ele>
        <time>2021-03-20T19:43:27Z</time>
      </trkpt>
      <trkpt lat="55.63578" lon="-4.79161">
        <ele>7.2</ele>
        <time>2021-03-20T19:43:29Z</time>
      </trkpt>
      <trkpt lat="55.63578" lon="-4.79175">
        <ele>7.13</ele>
        <time>2021-03-20T19:43:31Z</time>
      </trkpt>
      <trkpt lat="55.6358" lon="-4.79181">
        <ele>7.06</ele>
        <time>2021-03-20T19:43:33Z</time>
      </trkpt>
      <trkpt lat="55.63586" lon="-4.79191">
        <ele>7.1</ele>
        <time>2021-03-20T19:43:35Z</time>
      </trkpt>
      <trkpt lat="55.63609" lon="-4.79211">
        <ele>7.93</ele>
        <time>2021-03-20T19:43:37Z</time>
      </trkpt>
      <trkpt lat="55.63618" lon="-4.79222">
        <ele>8.24</ele>
        <time>2021-03-20T19:43:39Z</time>
      </trkpt>
      <trkpt lat="55.6386" lon="-4.79461">
        <ele>7.39</ele>
        <time>2021-03-20T19:43:41Z</time>
      </trkpt>
      <trkpt lat="55.63874" lon="-4.7948">
        <ele>7.46</ele>
        <time>2021-03-20T19:43:43Z</time>
      </trkpt>
      <trkpt lat="55.63887" lon="-4.79502">
        <ele>8.02</ele>
        <time>2021-03-20T19:43:45Z</time>
      </trkpt>
      <trkpt lat="55.63906" lon="-4.79549">
        <ele>9.6</ele>
        <time>2021-03-20T19:43:47Z</time>
      </trkpt>
      <trkpt lat="55.63918" lon="-4.79587">
        <ele>9</ele>
        <time>2021-03-20T19:43:49Z</time>
      </trkpt>
      <trkpt lat="55.6393" lon="-4.79649">
        <ele>7.62</ele>
        <time>2021-03-20T19:43:51Z</time>
      </trkpt>
      <trkpt lat="55.63938" lon="-4.79748">
        <ele>5.77</ele>
        <time>2021-03-20T19:43:53Z</time>
      </trkpt>
      <trkpt lat="55.63941" lon="-4.79825">
        <ele>5.74</ele>
        <time>2021-03-20T19:43:55Z</time>
      </trkpt>
      <trkpt lat="55.63939" lon="-4.7989">
        <ele>5.67</ele>
        <time>2021-03-20T19:43:57Z</time>
      </trkpt>
      <trkpt lat="55.63938" lon="-4.79898">
        <ele>5.83</ele>
        <time>2021-03-20T19:43:59Z</time>
      </trkpt>
      <trkpt lat="55.63933" lon="-4.79901">
        <ele>5.63</ele>
        <time>2021-03-20T19:44:02Z</time>
      </trkpt>
      <trkpt lat="55.63931" lon="-4.79912">
        <ele>5.83</ele>
        <time>2021-03-20T19:44:06Z</time>
      </trkpt>
      <trkpt lat="55.63931" lon="-4.79916">
        <ele>6.03</ele>
        <time>2021-03-20T19:44:10Z</time>
      </trkpt>
      <trkpt lat="55.63935" lon="-4.79923">
        <ele>6.3</ele>
        <time>2021-03-20T19:44:14Z</time>
      </trkpt>
      <trkpt lat="55.63954" lon="-4.79978">
        <ele>7.36</ele>
        <time>2021-03-20T19:44:18Z</time>
      </trkpt>
      <trkpt lat="55.63959" lon="-4.8">
        <ele>7.52</ele>
        <time>2021-03-20T19:44:22Z</time>
      </trkpt>
      <trkpt lat="55.63995" lon="-4.80132">
        <ele>7.06</ele>
        <time>2021-03-20T19:44:26Z</time>
      </trkpt>
      <trkpt lat="55.64017" lon="-4.80234">
        <ele>7.75</ele>
        <time>2021-03-20T19:44:30Z</time>
      </trkpt>
      <trkpt lat="55.64033" lon="-4.8033">
        <ele>6</ele>
        <time>2021-03-20T19:44:34Z</time>
      </trkpt>
      <trkpt lat="55.64038" lon="-4.80373">
        <ele>6</ele>
        <time>2021-03-20T19:44:38Z</time>
      </trkpt>
      <trkpt lat="55.64045" lon="-4.80454">
        <ele>5.25</ele>
        <time>2021-03-20T19:44:42Z</time>
      </trkpt>
      <trkpt lat="55.6405" lon="-4.8058">
        <ele>5.63</ele>
        <time>2021-03-20T19:44:46Z</time>
      </trkpt>
      <trkpt lat="55.6405" lon="-4.80639">
        <ele>5.79</ele>
        <time>2021-03-20T19:44:49Z</time>
      </trkpt>
      <trkpt lat="55.64046" lon="-4.80732">
        <ele>6.22</ele>
        <time>2021-03-20T19:44:53Z</time>
      </trkpt>
      <trkpt lat="55.64039" lon="-4.80813">
        <ele>6</ele>
        <time>2021-03-20T19:44:57Z</time>
      </trkpt>
      <trkpt lat="55.64019" lon="-4.80938">
        <ele>5.4</ele>
        <time>2021-03-20T19:45:01Z</time>
      </trkpt>
      <trkpt lat="55.64013" lon="-4.80967">
        <ele>4.56</ele>
        <time>2021-03-20T19:45:05Z</time>
      </trkpt>
      <trkpt lat="55.64001" lon="-4.80992">
        <ele>4.03</ele>
        <time>2021-03-20T19:45:09Z</time>
      </trkpt>
      <trkpt lat="55.63951" lon="-4.81045">
        <ele>4.46</ele>
        <time>2021-03-20T19:45:13Z</time>
      </trkpt>
    </trkseg>
  </trk>
  <trk>
    <name><![CDATA[J2-Ardrossan - Oban Youth Hostel, Oban]]></name>
    <trkseg>
      <trkpt lat="55.63951" lon="-4.81045">
        <ele>4.46</ele>
        <time>2021-03-19T18:53:48Z</time>
      </trkpt>
      <trkpt lat="55.63921" lon="-4.81082">
        <ele>5.11</ele>
        <time>2021-03-19T18:53:53Z</time>
      </trkpt>
      <trkpt lat="55.63917" lon="-4.81091">
        <ele>5.27</ele>
        <time>2021-03-19T18:53:58Z</time>
      </trkpt>
      <trkpt lat="55.63912" lon="-4.81112">
        <ele>5.83</ele>
        <time>2021-03-19T18:54:03Z</time>
      </trkpt>
      <trkpt lat="55.6391" lon="-4.81137">
        <ele>6.68</ele>
        <time>2021-03-19T18:54:08Z</time>
      </trkpt>
      <trkpt lat="55.63911" lon="-4.8115">
        <ele>6.78</ele>
        <time>2021-03-19T18:54:13Z</time>
      </trkpt>
      <trkpt lat="55.64008" lon="-4.81492">
        <ele>7</ele>
        <time>2021-03-19T18:54:18Z</time>
      </trkpt>
      <trkpt lat="55.63957" lon="-4.81538">
        <ele>5</ele>
        <time>2021-03-19T18:54:20Z</time>
      </trkpt>
      <trkpt lat="55.63949" lon="-4.81548">
        <ele>5</ele>
        <time>2021-03-19T18:54:22Z</time>
      </trkpt>
      <trkpt lat="55.6394" lon="-4.81565">
        <ele>5</ele>
        <time>2021-03-19T18:54:23Z</time>
      </trkpt>
      <trkpt lat="55.63938" lon="-4.81574">
        <ele>5</ele>
        <time>2021-03-19T18:54:25Z</time>
      </trkpt>
      <trkpt lat="55.63936" lon="-4.81622">
        <ele>4.74</ele>
        <time>2021-03-19T18:54:27Z</time>
      </trkpt>
      <trkpt lat="55.63931" lon="-4.81642">
        <ele>4.48</ele>
        <time>2021-03-19T18:54:29Z</time>
      </trkpt>
      <trkpt lat="55.63913" lon="-4.81689">
        <ele>4.32</ele>
        <time>2021-03-19T18:54:31Z</time>
      </trkpt>
      <trkpt lat="55.63905" lon="-4.81686">
        <ele>4.59</ele>
        <time>2021-03-19T18:54:33Z</time>
      </trkpt>
      <trkpt lat="55.63898" lon="-4.81692">
        <ele>4.68</ele>
        <time>2021-03-19T18:54:35Z</time>
      </trkpt>
      <trkpt lat="55.63896" lon="-4.81697">
        <ele>4.74</ele>
        <time>2021-03-19T18:54:36Z</time>
      </trkpt>
      <trkpt lat="55.63895" lon="-4.81703">
        <ele>4.78</ele>
        <time>2021-03-19T18:54:38Z</time>
      </trkpt>
      <trkpt lat="55.63896" lon="-4.81716">
        <ele>4.76</ele>
        <time>2021-03-19T18:54:40Z</time>
      </trkpt>
      <trkpt lat="55.639" lon="-4.81726">
        <ele>4.57</ele>
        <time>2021-03-19T18:54:41Z</time>
      </trkpt>
      <trkpt lat="55.63878" lon="-4.81802">
        <ele>4</ele>
        <time>2021-03-19T18:54:43Z</time>
      </trkpt>
      <trkpt lat="55.63875" lon="-4.81807">
        <ele>4</ele>
        <time>2021-03-19T18:54:45Z</time>
      </trkpt>
      <trkpt lat="55.63858" lon="-4.81825">
        <ele>4.1</ele>
        <time>2021-03-19T18:54:46Z</time>
      </trkpt>
      <trkpt lat="55.63852" lon="-4.8184">
        <ele>4.57</ele>
        <time>2021-03-19T18:54:48Z</time>
      </trkpt>
      <trkpt lat="55.63806" lon="-4.82098">
        <ele>5</ele>
        <time>2021-03-19T18:54:50Z</time>
      </trkpt>
      <trkpt lat="55.63806" lon="-4.82127">
        <ele>5</ele>
        <time>2021-03-19T18:54:51Z</time>
      </trkpt>
      <trkpt lat="55.63808" lon="-4.82155">
        <ele>5</ele>
        <time>2021-03-19T18:54:53Z</time>
      </trkpt>
      <trkpt lat="55.6381" lon="-4.82168">
        <ele>4.95</ele>
        <time>2021-03-19T18:54:55Z</time>
      </trkpt>
      <trkpt lat="55.63819" lon="-4.82185">
        <ele>4.65</ele>
        <time>2021-03-19T18:54:56Z</time>
      </trkpt>
      <trkpt lat="55.63839" lon="-4.82206">
        <ele>5</ele>
        <time>2021-03-19T18:54:58Z</time>
      </trkpt>
      <trkpt lat="55.6384" lon="-4.82217">
        <ele>5</ele>
        <time>2021-03-19T18:55:00Z</time>
      </trkpt>
      <trkpt lat="55.63952" lon="-4.8232">
        <ele>5</ele>
        <time>2021-03-19T18:55:17Z</time>
      </trkpt>
      <trkpt lat="55.63967" lon="-4.82351">
        <ele>4.36</ele>
        <time>2021-03-19T18:55:35Z</time>
      </trkpt>
      <trkpt lat="55.64018" lon="-4.82397">
        <ele>3.5</ele>
        <time>2021-03-19T18:55:52Z</time>
      </trkpt>
      <trkpt lat="55.64137" lon="-4.82586">
        <ele>3.56</ele>
        <time>2021-03-19T19:05:37Z</time>
      </trkpt>
      <trkpt lat="55.63393" lon="-4.85118">
        <ele>4.24</ele>
        <time>2021-03-19T19:15:22Z</time>
      </trkpt>
      <trkpt lat="55.60426" lon="-4.99672">
        <ele>8.21</ele>
        <time>2021-03-19T19:25:07Z</time>
      </trkpt>
      <trkpt lat="55.58302" lon="-5.12541">
        <ele>11.67</ele>
        <time>2021-03-19T19:34:52Z</time>
      </trkpt>
      <trkpt lat="55.57864" lon="-5.13626">
        <ele>11.97</ele>
        <time>2021-03-19T19:44:37Z</time>
      </trkpt>
      <trkpt lat="55.5774" lon="-5.13624">
        <ele>12</ele>
        <time>2021-03-19T19:54:22Z</time>
      </trkpt>
      <trkpt lat="55.577" lon="-5.13657">
        <ele>3.19</ele>
        <time>2021-03-19T20:04:07Z</time>
      </trkpt>
      <trkpt lat="55.5768" lon="-5.13665">
        <ele>0.49</ele>
        <time>2021-03-19T20:13:52Z</time>
      </trkpt>
      <trkpt lat="55.57656" lon="-5.13659">
        <ele>1.11</ele>
        <time>2021-03-19T20:23:37Z</time>
      </trkpt>
      <trkpt lat="55.5761" lon="-5.1366">
        <ele>5.3</ele>
        <time>2021-03-19T20:33:22Z</time>
      </trkpt>
      <trkpt lat="55.57613" lon="-5.13747">
        <ele>4.93</ele>
        <time>2021-03-19T20:33:28Z</time>
      </trkpt>
      <trkpt lat="55.57615" lon="-5.13763">
        <ele>4.53</ele>
        <time>2021-03-19T20:33:33Z</time>
      </trkpt>
      <trkpt lat="55.5762" lon="-5.1378">
        <ele>3.99</ele>
        <time>2021-03-19T20:33:38Z</time>
      </trkpt>
      <trkpt lat="55.57632" lon="-5.13812">
        <ele>3.24</ele>
        <time>2021-03-19T20:33:43Z</time>
      </trkpt>
      <trkpt lat="55.57637" lon="-5.13866">
        <ele>3.15</ele>
        <time>2021-03-19T20:33:49Z</time>
      </trkpt>
      <trkpt lat="55.57636" lon="-5.13902">
        <ele>3.81</ele>
        <time>2021-03-19T20:33:54Z</time>
      </trkpt>
      <trkpt lat="55.57633" lon="-5.13929">
        <ele>4.64</ele>
        <time>2021-03-19T20:33:59Z</time>
      </trkpt>
      <trkpt lat="55.57618" lon="-5.13973">
        <ele>6.27</ele>
        <time>2021-03-19T20:34:04Z</time>
      </trkpt>
      <trkpt lat="55.57605" lon="-5.13995">
        <ele>7.66</ele>
        <time>2021-03-19T20:34:10Z</time>
      </trkpt>
      <trkpt lat="55.57619" lon="-5.14041">
        <ele>7.13</ele>
        <time>2021-03-19T20:34:20Z</time>
      </trkpt>
      <trkpt lat="55.57648" lon="-5.14127">
        <ele>4.06</ele>
        <time>2021-03-19T20:34:31Z</time>
      </trkpt>
      <trkpt lat="55.57657" lon="-5.1416">
        <ele>3.72</ele>
        <time>2021-03-19T20:34:42Z</time>
      </trkpt>
      <trkpt lat="55.57664" lon="-5.14196">
        <ele>3.11</ele>
        <time>2021-03-19T20:34:53Z</time>
      </trkpt>
      <trkpt lat="55.57667" lon="-5.14218">
        <ele>3</ele>
        <time>2021-03-19T20:35:04Z</time>
      </trkpt>
      <trkpt lat="55.57673" lon="-5.14317">
        <ele>1</ele>
        <time>2021-03-19T20:35:15Z</time>
      </trkpt>
      <trkpt lat="55.57686" lon="-5.14419">
        <ele>2.03</ele>
        <time>2021-03-19T20:35:25Z</time>
      </trkpt>
      <trkpt lat="55.57758" lon="-5.14938">
        <ele>4.35</ele>
        <time>2021-03-19T20:35:36Z</time>
      </trkpt>
      <trkpt lat="55.5776" lon="-5.14978">
        <ele>3.64</ele>
        <time>2021-03-19T20:35:47Z</time>
      </trkpt>
      <trkpt lat="55.57733" lon="-5.15508">
        <ele>6.29</ele>
        <time>2021-03-19T20:35:58Z</time>
      </trkpt>
      <trkpt lat="55.57735" lon="-5.15531">
        <ele>7</ele>
        <time>2021-03-19T20:36:09Z</time>
      </trkpt>
      <trkpt lat="55.57749" lon="-5.15558">
        <ele>7</ele>
        <time>2021-03-19T20:36:20Z</time>
      </trkpt>
      <trkpt lat="55.57758" lon="-5.15565">
        <ele>6.72</ele>
        <time>2021-03-19T20:36:30Z</time>
      </trkpt>
      <trkpt lat="55.5805" lon="-5.15755">
        <ele>5.84</ele>
        <time>2021-03-19T20:36:41Z</time>
      </trkpt>
      <trkpt lat="55.5805" lon="-5.15755">
        <ele>5.84</ele>
        <time>2021-03-19T20:36:41Z</time>
      </trkpt>
      <trkpt lat="55.58159" lon="-5.15824">
        <ele>6.68</ele>
        <time>2021-03-19T20:36:48Z</time>
      </trkpt>
      <trkpt lat="55.5822" lon="-5.1587">
        <ele>9.03</ele>
        <time>2021-03-19T20:36:55Z</time>
      </trkpt>
      <trkpt lat="55.58293" lon="-5.16019">
        <ele>11.98</ele>
        <time>2021-03-19T20:37:02Z</time>
      </trkpt>
      <trkpt lat="55.58338" lon="-5.16151">
        <ele>12.3</ele>
        <time>2021-03-19T20:37:09Z</time>
      </trkpt>
      <trkpt lat="55.58347" lon="-5.16185">
        <ele>12.81</ele>
        <time>2021-03-19T20:37:16Z</time>
      </trkpt>
      <trkpt lat="55.58383" lon="-5.16331">
        <ele>10.44</ele>
        <time>2021-03-19T20:37:23Z</time>
      </trkpt>
      <trkpt lat="55.58409" lon="-5.16518">
        <ele>11.76</ele>
        <time>2021-03-19T20:37:30Z</time>
      </trkpt>
      <trkpt lat="55.58416" lon="-5.16587">
        <ele>12.31</ele>
        <time>2021-03-19T20:37:36Z</time>
      </trkpt>
      <trkpt lat="55.5842" lon="-5.16599">
        <ele>11.55</ele>
        <time>2021-03-19T20:37:43Z</time>
      </trkpt>
      <trkpt lat="55.58423" lon="-5.1671">
        <ele>12.66</ele>
        <time>2021-03-19T20:37:47Z</time>
      </trkpt>
      <trkpt lat="55.58421" lon="-5.16737">
        <ele>14.42</ele>
        <time>2021-03-19T20:37:50Z</time>
      </trkpt>
      <trkpt lat="55.58416" lon="-5.16769">
        <ele>17.38</ele>
        <time>2021-03-19T20:37:54Z</time>
      </trkpt>
      <trkpt lat="55.58404" lon="-5.16811">
        <ele>24.27</ele>
        <time>2021-03-19T20:37:57Z</time>
      </trkpt>
      <trkpt lat="55.58372" lon="-5.16878">
        <ele>37.92</ele>
        <time>2021-03-19T20:38:01Z</time>
      </trkpt>
      <trkpt lat="55.58353" lon="-5.16997">
        <ele>44.28</ele>
        <time>2021-03-19T20:38:04Z</time>
      </trkpt>
      <trkpt lat="55.58353" lon="-5.17009">
        <ele>44.46</ele>
        <time>2021-03-19T20:38:08Z</time>
      </trkpt>
      <trkpt lat="55.58371" lon="-5.17072">
        <ele>40.19</ele>
        <time>2021-03-19T20:38:11Z</time>
      </trkpt>
      <trkpt lat="55.58368" lon="-5.17097">
        <ele>41.19</ele>
        <time>2021-03-19T20:38:15Z</time>
      </trkpt>
      <trkpt lat="55.58334" lon="-5.17239">
        <ele>48.06</ele>
        <time>2021-03-19T20:38:18Z</time>
      </trkpt>
      <trkpt lat="55.58273" lon="-5.17476">
        <ele>56.49</ele>
        <time>2021-03-19T20:38:22Z</time>
      </trkpt>
      <trkpt lat="55.5822" lon="-5.17662">
        <ele>62.88</ele>
        <time>2021-03-19T20:38:25Z</time>
      </trkpt>
      <trkpt lat="55.58175" lon="-5.17804">
        <ele>69.74</ele>
        <time>2021-03-19T20:38:29Z</time>
      </trkpt>
      <trkpt lat="55.58115" lon="-5.17982">
        <ele>74.87</ele>
        <time>2021-03-19T20:38:32Z</time>
      </trkpt>
      <trkpt lat="55.58048" lon="-5.18167">
        <ele>83.3</ele>
        <time>2021-03-19T20:38:36Z</time>
      </trkpt>
      <trkpt lat="55.58018" lon="-5.18238">
        <ele>86.14</ele>
        <time>2021-03-19T20:38:39Z</time>
      </trkpt>
      <trkpt lat="55.58015" lon="-5.18253">
        <ele>86.31</ele>
        <time>2021-03-19T20:38:43Z</time>
      </trkpt>
      <trkpt lat="55.58011" lon="-5.18282">
        <ele>86.97</ele>
        <time>2021-03-19T20:38:46Z</time>
      </trkpt>
      <trkpt lat="55.58008" lon="-5.18297">
        <ele>87.94</ele>
        <time>2021-03-19T20:38:50Z</time>
      </trkpt>
      <trkpt lat="55.57968" lon="-5.18403">
        <ele>92.72</ele>
        <time>2021-03-19T20:38:53Z</time>
      </trkpt>
      <trkpt lat="55.57942" lon="-5.18498">
        <ele>93.74</ele>
        <time>2021-03-19T20:38:57Z</time>
      </trkpt>
      <trkpt lat="55.57931" lon="-5.18529">
        <ele>97.01</ele>
        <time>2021-03-19T20:39:00Z</time>
      </trkpt>
      <trkpt lat="55.57865" lon="-5.18679">
        <ele>100.76</ele>
        <time>2021-03-19T20:39:04Z</time>
      </trkpt>
      <trkpt lat="55.57855" lon="-5.18699">
        <ele>101.75</ele>
        <time>2021-03-19T20:39:07Z</time>
      </trkpt>
      <trkpt lat="55.57651" lon="-5.18971">
        <ele>122.29</ele>
        <time>2021-03-19T20:39:11Z</time>
      </trkpt>
      <trkpt lat="55.57623" lon="-5.19019">
        <ele>125.89</ele>
        <time>2021-03-19T20:39:14Z</time>
      </trkpt>
      <trkpt lat="55.57602" lon="-5.19052">
        <ele>128.64</ele>
        <time>2021-03-19T20:39:18Z</time>
      </trkpt>
      <trkpt lat="55.57599" lon="-5.19062">
        <ele>129.19</ele>
        <time>2021-03-19T20:39:21Z</time>
      </trkpt>
      <trkpt lat="55.57598" lon="-5.19077">
        <ele>129.45</ele>
        <time>2021-03-19T20:39:25Z</time>
      </trkpt>
      <trkpt lat="55.57598" lon="-5.19091">
        <ele>129.37</ele>
        <time>2021-03-19T20:39:28Z</time>
      </trkpt>
      <trkpt lat="55.57614" lon="-5.19203">
        <ele>128.7</ele>
        <time>2021-03-19T20:39:32Z</time>
      </trkpt>
      <trkpt lat="55.57619" lon="-5.19256">
        <ele>128.46</ele>
        <time>2021-03-19T20:39:35Z</time>
      </trkpt>
      <trkpt lat="55.57615" lon="-5.19319">
        <ele>128.92</ele>
        <time>2021-03-19T20:39:39Z</time>
      </trkpt>
      <trkpt lat="55.57617" lon="-5.19378">
        <ele>131.61</ele>
        <time>2021-03-19T20:39:42Z</time>
      </trkpt>
      <trkpt lat="55.57601" lon="-5.19934">
        <ele>165.37</ele>
        <time>2021-03-19T20:39:46Z</time>
      </trkpt>
      <trkpt lat="55.57589" lon="-5.20527">
        <ele>204.96</ele>
        <time>2021-03-19T20:39:49Z</time>
      </trkpt>
      <trkpt lat="55.57585" lon="-5.20558">
        <ele>206.76</ele>
        <time>2021-03-19T20:39:53Z</time>
      </trkpt>
      <trkpt lat="55.57533" lon="-5.20789">
        <ele>225.08</ele>
        <time>2021-03-19T20:39:56Z</time>
      </trkpt>
      <trkpt lat="55.57521" lon="-5.20828">
        <ele>228.63</ele>
        <time>2021-03-19T20:40:00Z</time>
      </trkpt>
      <trkpt lat="55.57511" lon="-5.20852">
        <ele>230.72</ele>
        <time>2021-03-19T20:40:03Z</time>
      </trkpt>
      <trkpt lat="55.57501" lon="-5.20868">
        <ele>231.96</ele>
        <time>2021-03-19T20:40:07Z</time>
      </trkpt>
      <trkpt lat="55.57447" lon="-5.20918">
        <ele>235</ele>
        <time>2021-03-19T20:40:10Z</time>
      </trkpt>
      <trkpt lat="55.57405" lon="-5.20963">
        <ele>233.32</ele>
        <time>2021-03-19T20:40:13Z</time>
      </trkpt>
      <trkpt lat="55.57383" lon="-5.20978">
        <ele>231.96</ele>
        <time>2021-03-19T20:40:17Z</time>
      </trkpt>
      <trkpt lat="55.57343" lon="-5.20992">
        <ele>231.27</ele>
        <time>2021-03-19T20:40:20Z</time>
      </trkpt>
      <trkpt lat="55.57304" lon="-5.21017">
        <ele>230.81</ele>
        <time>2021-03-19T20:40:24Z</time>
      </trkpt>
      <trkpt lat="55.57285" lon="-5.21034">
        <ele>229.59</ele>
        <time>2021-03-19T20:40:27Z</time>
      </trkpt>
      <trkpt lat="55.57258" lon="-5.21067">
        <ele>227.81</ele>
        <time>2021-03-19T20:40:31Z</time>
      </trkpt>
      <trkpt lat="55.57236" lon="-5.21099">
        <ele>227.39</ele>
        <time>2021-03-19T20:40:34Z</time>
      </trkpt>
      <trkpt lat="55.57201" lon="-5.21192">
        <ele>224.89</ele>
        <time>2021-03-19T20:40:38Z</time>
      </trkpt>
      <trkpt lat="55.57194" lon="-5.21214">
        <ele>223.94</ele>
        <time>2021-03-19T20:40:41Z</time>
      </trkpt>
      <trkpt lat="55.57187" lon="-5.2125">
        <ele>222.79</ele>
        <time>2021-03-19T20:40:45Z</time>
      </trkpt>
      <trkpt lat="55.57162" lon="-5.21358">
        <ele>222.29</ele>
        <time>2021-03-19T20:40:48Z</time>
      </trkpt>
      <trkpt lat="55.57134" lon="-5.21463">
        <ele>220.35</ele>
        <time>2021-03-19T20:40:52Z</time>
      </trkpt>
      <trkpt lat="55.57119" lon="-5.21526">
        <ele>219.34</ele>
        <time>2021-03-19T20:40:55Z</time>
      </trkpt>
      <trkpt lat="55.57114" lon="-5.2156">
        <ele>217.7</ele>
        <time>2021-03-19T20:40:59Z</time>
      </trkpt>
      <trkpt lat="55.57106" lon="-5.21657">
        <ele>214.5</ele>
        <time>2021-03-19T20:41:02Z</time>
      </trkpt>
      <trkpt lat="55.57105" lon="-5.21726">
        <ele>211.32</ele>
        <time>2021-03-19T20:41:06Z</time>
      </trkpt>
      <trkpt lat="55.57105" lon="-5.21834">
        <ele>205.98</ele>
        <time>2021-03-19T20:41:09Z</time>
      </trkpt>
      <trkpt lat="55.57095" lon="-5.21885">
        <ele>204.26</ele>
        <time>2021-03-19T20:41:13Z</time>
      </trkpt>
      <trkpt lat="55.57086" lon="-5.21918">
        <ele>201.93</ele>
        <time>2021-03-19T20:41:16Z</time>
      </trkpt>
      <trkpt lat="55.57076" lon="-5.21983">
        <ele>197.04</ele>
        <time>2021-03-19T20:41:20Z</time>
      </trkpt>
      <trkpt lat="55.57067" lon="-5.22022">
        <ele>194.52</ele>
        <time>2021-03-19T20:41:23Z</time>
      </trkpt>
      <trkpt lat="55.57045" lon="-5.22094">
        <ele>192.23</ele>
        <time>2021-03-19T20:41:27Z</time>
      </trkpt>
      <trkpt lat="55.57025" lon="-5.22143">
        <ele>192.16</ele>
        <time>2021-03-19T20:41:30Z</time>
      </trkpt>
      <trkpt lat="55.5699" lon="-5.22221">
        <ele>190.26</ele>
        <time>2021-03-19T20:41:34Z</time>
      </trkpt>
      <trkpt lat="55.56982" lon="-5.22232">
        <ele>190.59</ele>
        <time>2021-03-19T20:41:37Z</time>
      </trkpt>
      <trkpt lat="55.56969" lon="-5.22242">
        <ele>191.9</ele>
        <time>2021-03-19T20:41:41Z</time>
      </trkpt>
      <trkpt lat="55.56953" lon="-5.22248">
        <ele>194.42</ele>
        <time>2021-03-19T20:41:44Z</time>
      </trkpt>
      <trkpt lat="55.56948" lon="-5.22255">
        <ele>194.74</ele>
        <time>2021-03-19T20:41:48Z</time>
      </trkpt>
      <trkpt lat="55.56946" lon="-5.22264">
        <ele>194.21</ele>
        <time>2021-03-19T20:41:51Z</time>
      </trkpt>
      <trkpt lat="55.56945" lon="-5.22284">
        <ele>192.25</ele>
        <time>2021-03-19T20:41:55Z</time>
      </trkpt>
      <trkpt lat="55.56951" lon="-5.22327">
        <ele>187.24</ele>
        <time>2021-03-19T20:41:58Z</time>
      </trkpt>
      <trkpt lat="55.56953" lon="-5.22352">
        <ele>184.97</ele>
        <time>2021-03-19T20:42:02Z</time>
      </trkpt>
      <trkpt lat="55.56946" lon="-5.22449">
        <ele>180.4</ele>
        <time>2021-03-19T20:42:05Z</time>
      </trkpt>
      <trkpt lat="55.56951" lon="-5.22675">
        <ele>167.15</ele>
        <time>2021-03-19T20:42:09Z</time>
      </trkpt>
      <trkpt lat="55.56954" lon="-5.22867">
        <ele>157.45</ele>
        <time>2021-03-19T20:42:12Z</time>
      </trkpt>
      <trkpt lat="55.56951" lon="-5.22893">
        <ele>157.05</ele>
        <time>2021-03-19T20:42:16Z</time>
      </trkpt>
      <trkpt lat="55.56936" lon="-5.22959">
        <ele>155.27</ele>
        <time>2021-03-19T20:42:19Z</time>
      </trkpt>
      <trkpt lat="55.56936" lon="-5.22972">
        <ele>154.84</ele>
        <time>2021-03-19T20:42:23Z</time>
      </trkpt>
      <trkpt lat="55.56943" lon="-5.23036">
        <ele>151.13</ele>
        <time>2021-03-19T20:42:26Z</time>
      </trkpt>
      <trkpt lat="55.56943" lon="-5.23062">
        <ele>150.23</ele>
        <time>2021-03-19T20:42:30Z</time>
      </trkpt>
      <trkpt lat="55.56938" lon="-5.23122">
        <ele>149.09</ele>
        <time>2021-03-19T20:42:33Z</time>
      </trkpt>
      <trkpt lat="55.56936" lon="-5.23161">
        <ele>148.02</ele>
        <time>2021-03-19T20:42:37Z</time>
      </trkpt>
      <trkpt lat="55.56945" lon="-5.23362">
        <ele>135.93</ele>
        <time>2021-03-19T20:42:40Z</time>
      </trkpt>
      <trkpt lat="55.56945" lon="-5.23426">
        <ele>133.97</ele>
        <time>2021-03-19T20:42:44Z</time>
      </trkpt>
      <trkpt lat="55.56941" lon="-5.23483">
        <ele>133.73</ele>
        <time>2021-03-19T20:42:47Z</time>
      </trkpt>
      <trkpt lat="55.56942" lon="-5.235">
        <ele>132.72</ele>
        <time>2021-03-19T20:42:51Z</time>
      </trkpt>
      <trkpt lat="55.56951" lon="-5.23553">
        <ele>130.21</ele>
        <time>2021-03-19T20:42:54Z</time>
      </trkpt>
      <trkpt lat="55.56964" lon="-5.23691">
        <ele>121.46</ele>
        <time>2021-03-19T20:42:58Z</time>
      </trkpt>
      <trkpt lat="55.56972" lon="-5.2379">
        <ele>118.57</ele>
        <time>2021-03-19T20:43:01Z</time>
      </trkpt>
      <trkpt lat="55.56975" lon="-5.23912">
        <ele>111.54</ele>
        <time>2021-03-19T20:43:05Z</time>
      </trkpt>
      <trkpt lat="55.56974" lon="-5.23959">
        <ele>109.88</ele>
        <time>2021-03-19T20:43:08Z</time>
      </trkpt>
      <trkpt lat="55.56971" lon="-5.24035">
        <ele>109.74</ele>
        <time>2021-03-19T20:43:12Z</time>
      </trkpt>
      <trkpt lat="55.56967" lon="-5.24071">
        <ele>110.5</ele>
        <time>2021-03-19T20:43:15Z</time>
      </trkpt>
      <trkpt lat="55.56966" lon="-5.24131">
        <ele>108.57</ele>
        <time>2021-03-19T20:43:19Z</time>
      </trkpt>
      <trkpt lat="55.56962" lon="-5.24214">
        <ele>105.43</ele>
        <time>2021-03-19T20:43:22Z</time>
      </trkpt>
      <trkpt lat="55.56962" lon="-5.24413">
        <ele>96.79</ele>
        <time>2021-03-19T20:43:26Z</time>
      </trkpt>
      <trkpt lat="55.56958" lon="-5.24562">
        <ele>93.54</ele>
        <time>2021-03-19T20:43:29Z</time>
      </trkpt>
      <trkpt lat="55.56951" lon="-5.24655">
        <ele>92.7</ele>
        <time>2021-03-19T20:43:32Z</time>
      </trkpt>
      <trkpt lat="55.56947" lon="-5.24685">
        <ele>92.01</ele>
        <time>2021-03-19T20:43:36Z</time>
      </trkpt>
      <trkpt lat="55.56936" lon="-5.24732">
        <ele>92.45</ele>
        <time>2021-03-19T20:43:39Z</time>
      </trkpt>
      <trkpt lat="55.56916" lon="-5.24797">
        <ele>92.02</ele>
        <time>2021-03-19T20:43:43Z</time>
      </trkpt>
      <trkpt lat="55.56873" lon="-5.24894">
        <ele>89.08</ele>
        <time>2021-03-19T20:43:46Z</time>
      </trkpt>
      <trkpt lat="55.56857" lon="-5.24937">
        <ele>88.38</ele>
        <time>2021-03-19T20:43:50Z</time>
      </trkpt>
      <trkpt lat="55.56848" lon="-5.24969">
        <ele>88.11</ele>
        <time>2021-03-19T20:43:53Z</time>
      </trkpt>
      <trkpt lat="55.56808" lon="-5.25131">
        <ele>86.85</ele>
        <time>2021-03-19T20:43:57Z</time>
      </trkpt>
      <trkpt lat="55.56789" lon="-5.25217">
        <ele>87.04</ele>
        <time>2021-03-19T20:44:00Z</time>
      </trkpt>
      <trkpt lat="55.56611" lon="-5.25822">
        <ele>82.99</ele>
        <time>2021-03-19T20:44:04Z</time>
      </trkpt>
      <trkpt lat="55.56596" lon="-5.2587">
        <ele>83.11</ele>
        <time>2021-03-19T20:44:07Z</time>
      </trkpt>
      <trkpt lat="55.56553" lon="-5.25955">
        <ele>84.8</ele>
        <time>2021-03-19T20:44:11Z</time>
      </trkpt>
      <trkpt lat="55.56482" lon="-5.26123">
        <ele>81.86</ele>
        <time>2021-03-19T20:44:14Z</time>
      </trkpt>
      <trkpt lat="55.56454" lon="-5.26239">
        <ele>80.31</ele>
        <time>2021-03-19T20:44:18Z</time>
      </trkpt>
      <trkpt lat="55.56438" lon="-5.26317">
        <ele>78.5</ele>
        <time>2021-03-19T20:44:21Z</time>
      </trkpt>
      <trkpt lat="55.56405" lon="-5.26516">
        <ele>81.82</ele>
        <time>2021-03-19T20:44:25Z</time>
      </trkpt>
      <trkpt lat="55.56383" lon="-5.26664">
        <ele>83.61</ele>
        <time>2021-03-19T20:44:28Z</time>
      </trkpt>
      <trkpt lat="55.56312" lon="-5.2702">
        <ele>74.14</ele>
        <time>2021-03-19T20:44:32Z</time>
      </trkpt>
      <trkpt lat="55.56304" lon="-5.27046">
        <ele>73.56</ele>
        <time>2021-03-19T20:44:35Z</time>
      </trkpt>
      <trkpt lat="55.56274" lon="-5.27115">
        <ele>72.14</ele>
        <time>2021-03-19T20:44:39Z</time>
      </trkpt>
      <trkpt lat="55.56228" lon="-5.27215">
        <ele>69.1</ele>
        <time>2021-03-19T20:44:42Z</time>
      </trkpt>
      <trkpt lat="55.56166" lon="-5.27339">
        <ele>68.61</ele>
        <time>2021-03-19T20:44:46Z</time>
      </trkpt>
      <trkpt lat="55.56128" lon="-5.2741">
        <ele>68.76</ele>
        <time>2021-03-19T20:44:49Z</time>
      </trkpt>
      <trkpt lat="55.56083" lon="-5.27464">
        <ele>67.95</ele>
        <time>2021-03-19T20:44:53Z</time>
      </trkpt>
      <trkpt lat="55.56047" lon="-5.27499">
        <ele>68.41</ele>
        <time>2021-03-19T20:44:56Z</time>
      </trkpt>
      <trkpt lat="55.55907" lon="-5.2758">
        <ele>65.95</ele>
        <time>2021-03-19T20:45:00Z</time>
      </trkpt>
      <trkpt lat="55.55871" lon="-5.27609">
        <ele>65.53</ele>
        <time>2021-03-19T20:45:03Z</time>
      </trkpt>
      <trkpt lat="55.55856" lon="-5.27624">
        <ele>65.8</ele>
        <time>2021-03-19T20:45:07Z</time>
      </trkpt>
      <trkpt lat="55.55848" lon="-5.27635">
        <ele>65.69</ele>
        <time>2021-03-19T20:45:10Z</time>
      </trkpt>
      <trkpt lat="55.55796" lon="-5.2772">
        <ele>64.15</ele>
        <time>2021-03-19T20:45:14Z</time>
      </trkpt>
      <trkpt lat="55.55775" lon="-5.27753">
        <ele>65.42</ele>
        <time>2021-03-19T20:45:17Z</time>
      </trkpt>
      <trkpt lat="55.55715" lon="-5.27835">
        <ele>64.11</ele>
        <time>2021-03-19T20:45:21Z</time>
      </trkpt>
      <trkpt lat="55.55666" lon="-5.27888">
        <ele>64.07</ele>
        <time>2021-03-19T20:45:24Z</time>
      </trkpt>
      <trkpt lat="55.55606" lon="-5.27938">
        <ele>63.58</ele>
        <time>2021-03-19T20:45:28Z</time>
      </trkpt>
      <trkpt lat="55.55584" lon="-5.27975">
        <ele>63.96</ele>
        <time>2021-03-19T20:45:31Z</time>
      </trkpt>
      <trkpt lat="55.5556" lon="-5.28033">
        <ele>66.5</ele>
        <time>2021-03-19T20:45:35Z</time>
      </trkpt>
      <trkpt lat="55.55527" lon="-5.28097">
        <ele>67.57</ele>
        <time>2021-03-19T20:45:38Z</time>
      </trkpt>
      <trkpt lat="55.55504" lon="-5.2813">
        <ele>68</ele>
        <time>2021-03-19T20:45:42Z</time>
      </trkpt>
      <trkpt lat="55.55452" lon="-5.28185">
        <ele>71.47</ele>
        <time>2021-03-19T20:45:45Z</time>
      </trkpt>
      <trkpt lat="55.55425" lon="-5.28217">
        <ele>71.88</ele>
        <time>2021-03-19T20:45:49Z</time>
      </trkpt>
      <trkpt lat="55.55379" lon="-5.28296">
        <ele>70.53</ele>
        <time>2021-03-19T20:45:52Z</time>
      </trkpt>
      <trkpt lat="55.55369" lon="-5.28309">
        <ele>70.15</ele>
        <time>2021-03-19T20:45:56Z</time>
      </trkpt>
      <trkpt lat="55.55356" lon="-5.28317">
        <ele>70.17</ele>
        <time>2021-03-19T20:45:59Z</time>
      </trkpt>
      <trkpt lat="55.55342" lon="-5.28321">
        <ele>70.78</ele>
        <time>2021-03-19T20:46:03Z</time>
      </trkpt>
      <trkpt lat="55.55231" lon="-5.28331">
        <ele>76.17</ele>
        <time>2021-03-19T20:46:06Z</time>
      </trkpt>
      <trkpt lat="55.55128" lon="-5.28356">
        <ele>75.14</ele>
        <time>2021-03-19T20:46:10Z</time>
      </trkpt>
      <trkpt lat="55.55095" lon="-5.28368">
        <ele>76.1</ele>
        <time>2021-03-19T20:46:13Z</time>
      </trkpt>
      <trkpt lat="55.54976" lon="-5.28426">
        <ele>73.94</ele>
        <time>2021-03-19T20:46:17Z</time>
      </trkpt>
      <trkpt lat="55.54939" lon="-5.28456">
        <ele>72.53</ele>
        <time>2021-03-19T20:46:20Z</time>
      </trkpt>
      <trkpt lat="55.54867" lon="-5.28524">
        <ele>69.25</ele>
        <time>2021-03-19T20:46:24Z</time>
      </trkpt>
      <trkpt lat="55.54854" lon="-5.28534">
        <ele>69.23</ele>
        <time>2021-03-19T20:46:27Z</time>
      </trkpt>
      <trkpt lat="55.54839" lon="-5.28542">
        <ele>69.7</ele>
        <time>2021-03-19T20:46:31Z</time>
      </trkpt>
      <trkpt lat="55.5475" lon="-5.28575">
        <ele>69.28</ele>
        <time>2021-03-19T20:46:34Z</time>
      </trkpt>
      <trkpt lat="55.54713" lon="-5.28586">
        <ele>67.88</ele>
        <time>2021-03-19T20:46:38Z</time>
      </trkpt>
      <trkpt lat="55.54656" lon="-5.28598">
        <ele>67.56</ele>
        <time>2021-03-19T20:46:41Z</time>
      </trkpt>
      <trkpt lat="55.54641" lon="-5.28597">
        <ele>67.11</ele>
        <time>2021-03-19T20:46:44Z</time>
      </trkpt>
      <trkpt lat="55.54575" lon="-5.28581">
        <ele>65.18</ele>
        <time>2021-03-19T20:46:48Z</time>
      </trkpt>
      <trkpt lat="55.54483" lon="-5.28552">
        <ele>67.14</ele>
        <time>2021-03-19T20:46:51Z</time>
      </trkpt>
      <trkpt lat="55.54443" lon="-5.2855">
        <ele>68.19</ele>
        <time>2021-03-19T20:46:55Z</time>
      </trkpt>
      <trkpt lat="55.54412" lon="-5.28554">
        <ele>68.41</ele>
        <time>2021-03-19T20:46:58Z</time>
      </trkpt>
      <trkpt lat="55.54345" lon="-5.28572">
        <ele>70.06</ele>
        <time>2021-03-19T20:47:02Z</time>
      </trkpt>
      <trkpt lat="55.54262" lon="-5.28587">
        <ele>71.42</ele>
        <time>2021-03-19T20:47:05Z</time>
      </trkpt>
      <trkpt lat="55.54181" lon="-5.28623">
        <ele>72.06</ele>
        <time>2021-03-19T20:47:09Z</time>
      </trkpt>
      <trkpt lat="55.54105" lon="-5.28636">
        <ele>71.19</ele>
        <time>2021-03-19T20:47:12Z</time>
      </trkpt>
      <trkpt lat="55.53964" lon="-5.2867">
        <ele>69.87</ele>
        <time>2021-03-19T20:47:16Z</time>
      </trkpt>
      <trkpt lat="55.53919" lon="-5.28691">
        <ele>69.14</ele>
        <time>2021-03-19T20:47:19Z</time>
      </trkpt>
      <trkpt lat="55.53842" lon="-5.28731">
        <ele>66.69</ele>
        <time>2021-03-19T20:47:23Z</time>
      </trkpt>
      <trkpt lat="55.53814" lon="-5.2874">
        <ele>66.35</ele>
        <time>2021-03-19T20:47:26Z</time>
      </trkpt>
      <trkpt lat="55.53635" lon="-5.28746">
        <ele>63.27</ele>
        <time>2021-03-19T20:47:30Z</time>
      </trkpt>
      <trkpt lat="55.53556" lon="-5.28764">
        <ele>66.44</ele>
        <time>2021-03-19T20:47:33Z</time>
      </trkpt>
      <trkpt lat="55.53485" lon="-5.28777">
        <ele>65.04</ele>
        <time>2021-03-19T20:47:37Z</time>
      </trkpt>
      <trkpt lat="55.53317" lon="-5.28834">
        <ele>60.15</ele>
        <time>2021-03-19T20:47:40Z</time>
      </trkpt>
      <trkpt lat="55.5319" lon="-5.28909">
        <ele>59.88</ele>
        <time>2021-03-19T20:47:44Z</time>
      </trkpt>
      <trkpt lat="55.5313" lon="-5.29004">
        <ele>53.64</ele>
        <time>2021-03-19T20:47:47Z</time>
      </trkpt>
      <trkpt lat="55.53119" lon="-5.29017">
        <ele>53.49</ele>
        <time>2021-03-19T20:47:51Z</time>
      </trkpt>
      <trkpt lat="55.53072" lon="-5.29059">
        <ele>52.65</ele>
        <time>2021-03-19T20:47:54Z</time>
      </trkpt>
      <trkpt lat="55.53022" lon="-5.29092">
        <ele>51.94</ele>
        <time>2021-03-19T20:47:58Z</time>
      </trkpt>
      <trkpt lat="55.52957" lon="-5.29145">
        <ele>52.87</ele>
        <time>2021-03-19T20:48:01Z</time>
      </trkpt>
      <trkpt lat="55.5266" lon="-5.29394">
        <ele>55.24</ele>
        <time>2021-03-19T20:48:05Z</time>
      </trkpt>
      <trkpt lat="55.52612" lon="-5.29432">
        <ele>55.86</ele>
        <time>2021-03-19T20:48:08Z</time>
      </trkpt>
      <trkpt lat="55.52315" lon="-5.29619">
        <ele>57.52</ele>
        <time>2021-03-19T20:48:12Z</time>
      </trkpt>
      <trkpt lat="55.52249" lon="-5.29665">
        <ele>58.81</ele>
        <time>2021-03-19T20:48:15Z</time>
      </trkpt>
      <trkpt lat="55.52246" lon="-5.29668">
        <ele>58.35</ele>
        <time>2021-03-19T20:48:19Z</time>
      </trkpt>
      <trkpt lat="55.52229" lon="-5.29683">
        <ele>55.32</ele>
        <time>2021-03-19T20:48:22Z</time>
      </trkpt>
      <trkpt lat="55.5222" lon="-5.29695">
        <ele>54.18</ele>
        <time>2021-03-19T20:48:26Z</time>
      </trkpt>
      <trkpt lat="55.52214" lon="-5.29721">
        <ele>54.33</ele>
        <time>2021-03-19T20:48:29Z</time>
      </trkpt>
      <trkpt lat="55.52232" lon="-5.29969">
        <ele>46.12</ele>
        <time>2021-03-19T20:48:33Z</time>
      </trkpt>
      <trkpt lat="55.52231" lon="-5.29994">
        <ele>45.45</ele>
        <time>2021-03-19T20:48:36Z</time>
      </trkpt>
      <trkpt lat="55.52128" lon="-5.30422">
        <ele>36</ele>
        <time>2021-03-19T20:48:40Z</time>
      </trkpt>
      <trkpt lat="55.52092" lon="-5.30561">
        <ele>34.5</ele>
        <time>2021-03-19T20:48:43Z</time>
      </trkpt>
      <trkpt lat="55.52085" lon="-5.30577">
        <ele>34.17</ele>
        <time>2021-03-19T20:48:47Z</time>
      </trkpt>
      <trkpt lat="55.52073" lon="-5.30594">
        <ele>34.37</ele>
        <time>2021-03-19T20:48:50Z</time>
      </trkpt>
      <trkpt lat="55.52046" lon="-5.30624">
        <ele>34.53</ele>
        <time>2021-03-19T20:48:54Z</time>
      </trkpt>
      <trkpt lat="55.51863" lon="-5.30779">
        <ele>31.78</ele>
        <time>2021-03-19T20:48:57Z</time>
      </trkpt>
      <trkpt lat="55.51639" lon="-5.31026">
        <ele>29.99</ele>
        <time>2021-03-19T20:49:01Z</time>
      </trkpt>
      <trkpt lat="55.51607" lon="-5.31055">
        <ele>32.15</ele>
        <time>2021-03-19T20:49:04Z</time>
      </trkpt>
      <trkpt lat="55.51571" lon="-5.31081">
        <ele>32.5</ele>
        <time>2021-03-19T20:49:08Z</time>
      </trkpt>
      <trkpt lat="55.51422" lon="-5.31173">
        <ele>33.76</ele>
        <time>2021-03-19T20:49:11Z</time>
      </trkpt>
      <trkpt lat="55.51404" lon="-5.31186">
        <ele>33.74</ele>
        <time>2021-03-19T20:49:15Z</time>
      </trkpt>
      <trkpt lat="55.51371" lon="-5.31222">
        <ele>33.67</ele>
        <time>2021-03-19T20:49:18Z</time>
      </trkpt>
      <trkpt lat="55.51" lon="-5.3168">
        <ele>21.56</ele>
        <time>2021-03-19T20:49:22Z</time>
      </trkpt>
      <trkpt lat="55.50979" lon="-5.31702">
        <ele>22.23</ele>
        <time>2021-03-19T20:49:25Z</time>
      </trkpt>
      <trkpt lat="55.50963" lon="-5.31716">
        <ele>22.23</ele>
        <time>2021-03-19T20:49:29Z</time>
      </trkpt>
      <trkpt lat="55.50737" lon="-5.31864">
        <ele>18.61</ele>
        <time>2021-03-19T20:49:32Z</time>
      </trkpt>
      <trkpt lat="55.50737" lon="-5.31864">
        <ele>18.61</ele>
        <time>2021-03-19T20:49:32Z</time>
      </trkpt>
      <trkpt lat="55.50549" lon="-5.31988">
        <ele>19.14</ele>
        <time>2021-03-19T20:49:35Z</time>
      </trkpt>
      <trkpt lat="55.50512" lon="-5.3202">
        <ele>19.94</ele>
        <time>2021-03-19T20:49:37Z</time>
      </trkpt>
      <trkpt lat="55.50491" lon="-5.32055">
        <ele>19.67</ele>
        <time>2021-03-19T20:49:40Z</time>
      </trkpt>
      <trkpt lat="55.50477" lon="-5.32099">
        <ele>20.68</ele>
        <time>2021-03-19T20:49:42Z</time>
      </trkpt>
      <trkpt lat="55.50468" lon="-5.32134">
        <ele>20.33</ele>
        <time>2021-03-19T20:49:45Z</time>
      </trkpt>
      <trkpt lat="55.50455" lon="-5.32176">
        <ele>19.28</ele>
        <time>2021-03-19T20:49:47Z</time>
      </trkpt>
      <trkpt lat="55.50446" lon="-5.32196">
        <ele>18.88</ele>
        <time>2021-03-19T20:49:50Z</time>
      </trkpt>
      <trkpt lat="55.5037" lon="-5.32326">
        <ele>18.25</ele>
        <time>2021-03-19T20:49:52Z</time>
      </trkpt>
      <trkpt lat="55.50353" lon="-5.32351">
        <ele>17.07</ele>
        <time>2021-03-19T20:49:55Z</time>
      </trkpt>
      <trkpt lat="55.50353" lon="-5.3236">
        <ele>16.75</ele>
        <time>2021-03-19T20:50:00Z</time>
      </trkpt>
      <trkpt lat="55.50222" lon="-5.33022">
        <ele>11.99</ele>
        <time>2021-03-19T20:50:06Z</time>
      </trkpt>
      <trkpt lat="55.50175" lon="-5.33249">
        <ele>6.77</ele>
        <time>2021-03-19T20:50:11Z</time>
      </trkpt>
      <trkpt lat="55.50176" lon="-5.33266">
        <ele>6.11</ele>
        <time>2021-03-19T20:50:17Z</time>
      </trkpt>
      <trkpt lat="55.50178" lon="-5.33273">
        <ele>5.77</ele>
        <time>2021-03-19T20:50:22Z</time>
      </trkpt>
      <trkpt lat="55.50187" lon="-5.33282">
        <ele>5.11</ele>
        <time>2021-03-19T20:50:28Z</time>
      </trkpt>
      <trkpt lat="55.50193" lon="-5.33283">
        <ele>4.87</ele>
        <time>2021-03-19T20:50:33Z</time>
      </trkpt>
      <trkpt lat="55.502" lon="-5.33288">
        <ele>4.58</ele>
        <time>2021-03-19T20:50:38Z</time>
      </trkpt>
      <trkpt lat="55.50212" lon="-5.33308">
        <ele>4.62</ele>
        <time>2021-03-19T20:50:44Z</time>
      </trkpt>
      <trkpt lat="55.50216" lon="-5.3335">
        <ele>4.62</ele>
        <time>2021-03-19T20:50:49Z</time>
      </trkpt>
      <trkpt lat="55.50209" lon="-5.3347">
        <ele>4.03</ele>
        <time>2021-03-19T20:50:55Z</time>
      </trkpt>
      <trkpt lat="55.50211" lon="-5.33487">
        <ele>4.22</ele>
        <time>2021-03-19T20:51:00Z</time>
      </trkpt>
      <trkpt lat="55.50262" lon="-5.3361">
        <ele>5.24</ele>
        <time>2021-03-19T20:51:06Z</time>
      </trkpt>
      <trkpt lat="55.50266" lon="-5.33615">
        <ele>5.72</ele>
        <time>2021-03-19T20:51:11Z</time>
      </trkpt>
      <trkpt lat="55.50275" lon="-5.3362">
        <ele>7.07</ele>
        <time>2021-03-19T20:51:16Z</time>
      </trkpt>
      <trkpt lat="55.50349" lon="-5.33613">
        <ele>13.76</ele>
        <time>2021-03-19T20:51:22Z</time>
      </trkpt>
      <trkpt lat="55.50385" lon="-5.33618">
        <ele>17.73</ele>
        <time>2021-03-19T20:51:27Z</time>
      </trkpt>
      <trkpt lat="55.50385" lon="-5.33618">
        <ele>17.73</ele>
        <time>2021-03-19T20:51:27Z</time>
      </trkpt>
      <trkpt lat="55.50458" lon="-5.33624">
        <ele>20.39</ele>
        <time>2021-03-19T20:51:31Z</time>
      </trkpt>
      <trkpt lat="55.50476" lon="-5.33615">
        <ele>21.25</ele>
        <time>2021-03-19T20:51:34Z</time>
      </trkpt>
      <trkpt lat="55.50655" lon="-5.33444">
        <ele>23.57</ele>
        <time>2021-03-19T20:51:38Z</time>
      </trkpt>
      <trkpt lat="55.50744" lon="-5.33347">
        <ele>25.38</ele>
        <time>2021-03-19T20:51:42Z</time>
      </trkpt>
      <trkpt lat="55.50806" lon="-5.33276">
        <ele>26.01</ele>
        <time>2021-03-19T20:51:45Z</time>
      </trkpt>
      <trkpt lat="55.50832" lon="-5.33255">
        <ele>28.27</ele>
        <time>2021-03-19T20:51:49Z</time>
      </trkpt>
      <trkpt lat="55.50917" lon="-5.33198">
        <ele>31.31</ele>
        <time>2021-03-19T20:51:52Z</time>
      </trkpt>
      <trkpt lat="55.50958" lon="-5.33176">
        <ele>34.53</ele>
        <time>2021-03-19T20:51:56Z</time>
      </trkpt>
      <trkpt lat="55.51016" lon="-5.33154">
        <ele>38.04</ele>
        <time>2021-03-19T20:51:59Z</time>
      </trkpt>
      <trkpt lat="55.51043" lon="-5.3314">
        <ele>39.14</ele>
        <time>2021-03-19T20:52:03Z</time>
      </trkpt>
      <trkpt lat="55.51132" lon="-5.33065">
        <ele>41.96</ele>
        <time>2021-03-19T20:52:06Z</time>
      </trkpt>
      <trkpt lat="55.51161" lon="-5.33036">
        <ele>42.85</ele>
        <time>2021-03-19T20:52:10Z</time>
      </trkpt>
      <trkpt lat="55.51387" lon="-5.32742">
        <ele>32.04</ele>
        <time>2021-03-19T20:52:13Z</time>
      </trkpt>
      <trkpt lat="55.51405" lon="-5.32721">
        <ele>29.95</ele>
        <time>2021-03-19T20:52:17Z</time>
      </trkpt>
      <trkpt lat="55.5156" lon="-5.32626">
        <ele>24.11</ele>
        <time>2021-03-19T20:52:20Z</time>
      </trkpt>
      <trkpt lat="55.51626" lon="-5.32608">
        <ele>24.29</ele>
        <time>2021-03-19T20:52:24Z</time>
      </trkpt>
      <trkpt lat="55.51843" lon="-5.32563">
        <ele>20</ele>
        <time>2021-03-19T20:52:28Z</time>
      </trkpt>
      <trkpt lat="55.51864" lon="-5.3256">
        <ele>20</ele>
        <time>2021-03-19T20:52:31Z</time>
      </trkpt>
      <trkpt lat="55.5191" lon="-5.32564">
        <ele>19.46</ele>
        <time>2021-03-19T20:52:35Z</time>
      </trkpt>
      <trkpt lat="55.52013" lon="-5.32586">
        <ele>20.63</ele>
        <time>2021-03-19T20:52:38Z</time>
      </trkpt>
      <trkpt lat="55.52044" lon="-5.32597">
        <ele>21.05</ele>
        <time>2021-03-19T20:52:42Z</time>
      </trkpt>
      <trkpt lat="55.52058" lon="-5.32609">
        <ele>22</ele>
        <time>2021-03-19T20:52:45Z</time>
      </trkpt>
      <trkpt lat="55.52079" lon="-5.32649">
        <ele>24.2</ele>
        <time>2021-03-19T20:52:49Z</time>
      </trkpt>
      <trkpt lat="55.52101" lon="-5.3271">
        <ele>27.19</ele>
        <time>2021-03-19T20:52:52Z</time>
      </trkpt>
      <trkpt lat="55.52107" lon="-5.32715">
        <ele>27.59</ele>
        <time>2021-03-19T20:52:56Z</time>
      </trkpt>
      <trkpt lat="55.52115" lon="-5.3272">
        <ele>28.07</ele>
        <time>2021-03-19T20:52:59Z</time>
      </trkpt>
      <trkpt lat="55.5219" lon="-5.32743">
        <ele>32.29</ele>
        <time>2021-03-19T20:53:03Z</time>
      </trkpt>
      <trkpt lat="55.522" lon="-5.32748">
        <ele>33.01</ele>
        <time>2021-03-19T20:53:06Z</time>
      </trkpt>
      <trkpt lat="55.52222" lon="-5.32766">
        <ele>34.56</ele>
        <time>2021-03-19T20:53:10Z</time>
      </trkpt>
      <trkpt lat="55.52297" lon="-5.3284">
        <ele>39.08</ele>
        <time>2021-03-19T20:53:13Z</time>
      </trkpt>
      <trkpt lat="55.52329" lon="-5.32885">
        <ele>43.38</ele>
        <time>2021-03-19T20:53:17Z</time>
      </trkpt>
      <trkpt lat="55.52366" lon="-5.32918">
        <ele>45.08</ele>
        <time>2021-03-19T20:53:21Z</time>
      </trkpt>
      <trkpt lat="55.52408" lon="-5.32974">
        <ele>48.07</ele>
        <time>2021-03-19T20:53:24Z</time>
      </trkpt>
      <trkpt lat="55.52444" lon="-5.32999">
        <ele>48.95</ele>
        <time>2021-03-19T20:53:28Z</time>
      </trkpt>
      <trkpt lat="55.52506" lon="-5.33024">
        <ele>52.65</ele>
        <time>2021-03-19T20:53:31Z</time>
      </trkpt>
      <trkpt lat="55.52539" lon="-5.33033">
        <ele>53.79</ele>
        <time>2021-03-19T20:53:35Z</time>
      </trkpt>
      <trkpt lat="55.52586" lon="-5.33039">
        <ele>55.15</ele>
        <time>2021-03-19T20:53:38Z</time>
      </trkpt>
      <trkpt lat="55.527" lon="-5.3304">
        <ele>56.35</ele>
        <time>2021-03-19T20:53:42Z</time>
      </trkpt>
      <trkpt lat="55.52739" lon="-5.33053">
        <ele>58.27</ele>
        <time>2021-03-19T20:53:45Z</time>
      </trkpt>
      <trkpt lat="55.52774" lon="-5.33071">
        <ele>58.55</ele>
        <time>2021-03-19T20:53:49Z</time>
      </trkpt>
      <trkpt lat="55.52792" lon="-5.33085">
        <ele>57.64</ele>
        <time>2021-03-19T20:53:52Z</time>
      </trkpt>
      <trkpt lat="55.52851" lon="-5.33147">
        <ele>56.12</ele>
        <time>2021-03-19T20:53:56Z</time>
      </trkpt>
      <trkpt lat="55.52876" lon="-5.33166">
        <ele>54.4</ele>
        <time>2021-03-19T20:53:59Z</time>
      </trkpt>
      <trkpt lat="55.52943" lon="-5.3321">
        <ele>51.66</ele>
        <time>2021-03-19T20:54:03Z</time>
      </trkpt>
      <trkpt lat="55.52952" lon="-5.33213">
        <ele>51.39</ele>
        <time>2021-03-19T20:54:07Z</time>
      </trkpt>
      <trkpt lat="55.52993" lon="-5.33215">
        <ele>48.49</ele>
        <time>2021-03-19T20:54:10Z</time>
      </trkpt>
      <trkpt lat="55.53061" lon="-5.33215">
        <ele>45.35</ele>
        <time>2021-03-19T20:54:14Z</time>
      </trkpt>
      <trkpt lat="55.53224" lon="-5.33208">
        <ele>40.01</ele>
        <time>2021-03-19T20:54:17Z</time>
      </trkpt>
      <trkpt lat="55.53267" lon="-5.33216">
        <ele>38.67</ele>
        <time>2021-03-19T20:54:21Z</time>
      </trkpt>
      <trkpt lat="55.53299" lon="-5.33217">
        <ele>35.46</ele>
        <time>2021-03-19T20:54:24Z</time>
      </trkpt>
      <trkpt lat="55.53316" lon="-5.33215">
        <ele>34.01</ele>
        <time>2021-03-19T20:54:28Z</time>
      </trkpt>
      <trkpt lat="55.53487" lon="-5.33174">
        <ele>26.74</ele>
        <time>2021-03-19T20:54:31Z</time>
      </trkpt>
      <trkpt lat="55.53514" lon="-5.33173">
        <ele>26.11</ele>
        <time>2021-03-19T20:54:35Z</time>
      </trkpt>
      <trkpt lat="55.53522" lon="-5.33175">
        <ele>26.07</ele>
        <time>2021-03-19T20:54:38Z</time>
      </trkpt>
      <trkpt lat="55.53531" lon="-5.33183">
        <ele>25.88</ele>
        <time>2021-03-19T20:54:42Z</time>
      </trkpt>
      <trkpt lat="55.5369" lon="-5.33371">
        <ele>20.65</ele>
        <time>2021-03-19T20:54:45Z</time>
      </trkpt>
      <trkpt lat="55.53787" lon="-5.33479">
        <ele>19.68</ele>
        <time>2021-03-19T20:54:49Z</time>
      </trkpt>
      <trkpt lat="55.53822" lon="-5.33522">
        <ele>19</ele>
        <time>2021-03-19T20:54:53Z</time>
      </trkpt>
      <trkpt lat="55.53837" lon="-5.33548">
        <ele>18.85</ele>
        <time>2021-03-19T20:54:56Z</time>
      </trkpt>
      <trkpt lat="55.53854" lon="-5.33591">
        <ele>18</ele>
        <time>2021-03-19T20:55:00Z</time>
      </trkpt>
      <trkpt lat="55.53861" lon="-5.33602">
        <ele>18</ele>
        <time>2021-03-19T20:55:03Z</time>
      </trkpt>
      <trkpt lat="55.53917" lon="-5.33663">
        <ele>18</ele>
        <time>2021-03-19T20:55:07Z</time>
      </trkpt>
      <trkpt lat="55.53961" lon="-5.33729">
        <ele>17.41</ele>
        <time>2021-03-19T20:55:10Z</time>
      </trkpt>
      <trkpt lat="55.54006" lon="-5.33774">
        <ele>16.6</ele>
        <time>2021-03-19T20:55:14Z</time>
      </trkpt>
      <trkpt lat="55.54051" lon="-5.33813">
        <ele>14.32</ele>
        <time>2021-03-19T20:55:17Z</time>
      </trkpt>
      <trkpt lat="55.54075" lon="-5.33819">
        <ele>13.3</ele>
        <time>2021-03-19T20:55:21Z</time>
      </trkpt>
      <trkpt lat="55.54453" lon="-5.33813">
        <ele>8.59</ele>
        <time>2021-03-19T20:55:24Z</time>
      </trkpt>
      <trkpt lat="55.54576" lon="-5.33821">
        <ele>9.28</ele>
        <time>2021-03-19T20:55:28Z</time>
      </trkpt>
      <trkpt lat="55.54616" lon="-5.33815">
        <ele>7.84</ele>
        <time>2021-03-19T20:55:31Z</time>
      </trkpt>
      <trkpt lat="55.54637" lon="-5.33813">
        <ele>7.06</ele>
        <time>2021-03-19T20:55:35Z</time>
      </trkpt>
      <trkpt lat="55.54652" lon="-5.33818">
        <ele>7</ele>
        <time>2021-03-19T20:55:39Z</time>
      </trkpt>
      <trkpt lat="55.54677" lon="-5.3384">
        <ele>6.86</ele>
        <time>2021-03-19T20:55:42Z</time>
      </trkpt>
      <trkpt lat="55.54689" lon="-5.33847">
        <ele>6.68</ele>
        <time>2021-03-19T20:55:46Z</time>
      </trkpt>
      <trkpt lat="55.54701" lon="-5.33844">
        <ele>5.93</ele>
        <time>2021-03-19T20:55:49Z</time>
      </trkpt>
      <trkpt lat="55.5481" lon="-5.33786">
        <ele>5.05</ele>
        <time>2021-03-19T20:55:53Z</time>
      </trkpt>
      <trkpt lat="55.54832" lon="-5.33767">
        <ele>5</ele>
        <time>2021-03-19T20:55:56Z</time>
      </trkpt>
      <trkpt lat="55.54879" lon="-5.33719">
        <ele>5.13</ele>
        <time>2021-03-19T20:56:00Z</time>
      </trkpt>
      <trkpt lat="55.549" lon="-5.33706">
        <ele>5.16</ele>
        <time>2021-03-19T20:56:03Z</time>
      </trkpt>
      <trkpt lat="55.54913" lon="-5.33702">
        <ele>4.87</ele>
        <time>2021-03-19T20:56:07Z</time>
      </trkpt>
      <trkpt lat="55.54934" lon="-5.33703">
        <ele>4.07</ele>
        <time>2021-03-19T20:56:10Z</time>
      </trkpt>
      <trkpt lat="55.5495" lon="-5.33715">
        <ele>3.22</ele>
        <time>2021-03-19T20:56:14Z</time>
      </trkpt>
      <trkpt lat="55.54954" lon="-5.33722">
        <ele>3.01</ele>
        <time>2021-03-19T20:56:17Z</time>
      </trkpt>
      <trkpt lat="55.5496" lon="-5.33743">
        <ele>3.42</ele>
        <time>2021-03-19T20:56:21Z</time>
      </trkpt>
      <trkpt lat="55.5496" lon="-5.3377">
        <ele>3.56</ele>
        <time>2021-03-19T20:56:24Z</time>
      </trkpt>
      <trkpt lat="55.54955" lon="-5.33815">
        <ele>4.39</ele>
        <time>2021-03-19T20:56:28Z</time>
      </trkpt>
      <trkpt lat="55.54955" lon="-5.33864">
        <ele>4.38</ele>
        <time>2021-03-19T20:56:32Z</time>
      </trkpt>
      <trkpt lat="55.5496" lon="-5.33913">
        <ele>4.57</ele>
        <time>2021-03-19T20:56:35Z</time>
      </trkpt>
      <trkpt lat="55.54967" lon="-5.33936">
        <ele>4.82</ele>
        <time>2021-03-19T20:56:39Z</time>
      </trkpt>
      <trkpt lat="55.54975" lon="-5.33956">
        <ele>4.81</ele>
        <time>2021-03-19T20:56:42Z</time>
      </trkpt>
      <trkpt lat="55.5499" lon="-5.33982">
        <ele>5.05</ele>
        <time>2021-03-19T20:56:46Z</time>
      </trkpt>
      <trkpt lat="55.55062" lon="-5.34065">
        <ele>3.79</ele>
        <time>2021-03-19T20:56:49Z</time>
      </trkpt>
      <trkpt lat="55.55129" lon="-5.34128">
        <ele>3.67</ele>
        <time>2021-03-19T20:56:53Z</time>
      </trkpt>
      <trkpt lat="55.55179" lon="-5.34169">
        <ele>4.92</ele>
        <time>2021-03-19T20:56:56Z</time>
      </trkpt>
      <trkpt lat="55.55281" lon="-5.34235">
        <ele>2.56</ele>
        <time>2021-03-19T20:57:00Z</time>
      </trkpt>
      <trkpt lat="55.55289" lon="-5.34235">
        <ele>2.53</ele>
        <time>2021-03-19T20:57:03Z</time>
      </trkpt>
      <trkpt lat="55.55391" lon="-5.34222">
        <ele>3</ele>
        <time>2021-03-19T20:57:07Z</time>
      </trkpt>
      <trkpt lat="55.5544" lon="-5.34219">
        <ele>3.85</ele>
        <time>2021-03-19T20:57:10Z</time>
      </trkpt>
      <trkpt lat="55.55474" lon="-5.34226">
        <ele>3.8</ele>
        <time>2021-03-19T20:57:14Z</time>
      </trkpt>
      <trkpt lat="55.55533" lon="-5.3425">
        <ele>2</ele>
        <time>2021-03-19T20:57:18Z</time>
      </trkpt>
      <trkpt lat="55.55565" lon="-5.34268">
        <ele>2.34</ele>
        <time>2021-03-19T20:57:21Z</time>
      </trkpt>
      <trkpt lat="55.55581" lon="-5.34281">
        <ele>2.82</ele>
        <time>2021-03-19T20:57:25Z</time>
      </trkpt>
      <trkpt lat="55.55587" lon="-5.34289">
        <ele>2.6</ele>
        <time>2021-03-19T20:57:28Z</time>
      </trkpt>
      <trkpt lat="55.55608" lon="-5.34322">
        <ele>2</ele>
        <time>2021-03-19T20:57:32Z</time>
      </trkpt>
      <trkpt lat="55.55626" lon="-5.34339">
        <ele>1.79</ele>
        <time>2021-03-19T20:57:35Z</time>
      </trkpt>
      <trkpt lat="55.55687" lon="-5.34365">
        <ele>1.23</ele>
        <time>2021-03-19T20:57:39Z</time>
      </trkpt>
      <trkpt lat="55.55864" lon="-5.3446">
        <ele>2.56</ele>
        <time>2021-03-19T20:57:42Z</time>
      </trkpt>
      <trkpt lat="55.56117" lon="-5.34609">
        <ele>2.32</ele>
        <time>2021-03-19T20:57:46Z</time>
      </trkpt>
      <trkpt lat="55.56281" lon="-5.34699">
        <ele>2.1</ele>
        <time>2021-03-19T20:57:49Z</time>
      </trkpt>
      <trkpt lat="55.56471" lon="-5.34742">
        <ele>1.57</ele>
        <time>2021-03-19T20:57:53Z</time>
      </trkpt>
      <trkpt lat="55.56557" lon="-5.3478">
        <ele>1.93</ele>
        <time>2021-03-19T20:57:56Z</time>
      </trkpt>
      <trkpt lat="55.56619" lon="-5.34796">
        <ele>2.34</ele>
        <time>2021-03-19T20:58:00Z</time>
      </trkpt>
      <trkpt lat="55.56673" lon="-5.348">
        <ele>1.98</ele>
        <time>2021-03-19T20:58:04Z</time>
      </trkpt>
      <trkpt lat="55.56715" lon="-5.348">
        <ele>1.93</ele>
        <time>2021-03-19T20:58:07Z</time>
      </trkpt>
      <trkpt lat="55.56733" lon="-5.34797">
        <ele>1.93</ele>
        <time>2021-03-19T20:58:11Z</time>
      </trkpt>
      <trkpt lat="55.56756" lon="-5.34783">
        <ele>1.62</ele>
        <time>2021-03-19T20:58:14Z</time>
      </trkpt>
      <trkpt lat="55.5678" lon="-5.34757">
        <ele>1.74</ele>
        <time>2021-03-19T20:58:18Z</time>
      </trkpt>
      <trkpt lat="55.56796" lon="-5.34745">
        <ele>2.18</ele>
        <time>2021-03-19T20:58:21Z</time>
      </trkpt>
      <trkpt lat="55.56816" lon="-5.34735">
        <ele>2.54</ele>
        <time>2021-03-19T20:58:25Z</time>
      </trkpt>
      <trkpt lat="55.56845" lon="-5.34728">
        <ele>2.79</ele>
        <time>2021-03-19T20:58:28Z</time>
      </trkpt>
      <trkpt lat="55.56869" lon="-5.3473">
        <ele>3.2</ele>
        <time>2021-03-19T20:58:32Z</time>
      </trkpt>
      <trkpt lat="55.56909" lon="-5.34743">
        <ele>3.73</ele>
        <time>2021-03-19T20:58:35Z</time>
      </trkpt>
      <trkpt lat="55.56968" lon="-5.34767">
        <ele>3.24</ele>
        <time>2021-03-19T20:58:39Z</time>
      </trkpt>
      <trkpt lat="55.56984" lon="-5.34778">
        <ele>3.42</ele>
        <time>2021-03-19T20:58:42Z</time>
      </trkpt>
      <trkpt lat="55.57073" lon="-5.3485">
        <ele>1.4</ele>
        <time>2021-03-19T20:58:46Z</time>
      </trkpt>
      <trkpt lat="55.57094" lon="-5.34871">
        <ele>1.26</ele>
        <time>2021-03-19T20:58:50Z</time>
      </trkpt>
      <trkpt lat="55.57201" lon="-5.34996">
        <ele>2.13</ele>
        <time>2021-03-19T20:58:53Z</time>
      </trkpt>
      <trkpt lat="55.57232" lon="-5.35037">
        <ele>1.36</ele>
        <time>2021-03-19T20:58:57Z</time>
      </trkpt>
      <trkpt lat="55.57274" lon="-5.35113">
        <ele>2.64</ele>
        <time>2021-03-19T20:59:00Z</time>
      </trkpt>
      <trkpt lat="55.57316" lon="-5.35209">
        <ele>1.67</ele>
        <time>2021-03-19T20:59:04Z</time>
      </trkpt>
      <trkpt lat="55.57342" lon="-5.35258">
        <ele>1.31</ele>
        <time>2021-03-19T20:59:07Z</time>
      </trkpt>
      <trkpt lat="55.57358" lon="-5.35282">
        <ele>1.77</ele>
        <time>2021-03-19T20:59:11Z</time>
      </trkpt>
      <trkpt lat="55.57383" lon="-5.35307">
        <ele>1</ele>
        <time>2021-03-19T20:59:14Z</time>
      </trkpt>
      <trkpt lat="55.575" lon="-5.35419">
        <ele>1.93</ele>
        <time>2021-03-19T20:59:18Z</time>
      </trkpt>
      <trkpt lat="55.57535" lon="-5.35468">
        <ele>1.39</ele>
        <time>2021-03-19T20:59:21Z</time>
      </trkpt>
      <trkpt lat="55.57577" lon="-5.3554">
        <ele>1</ele>
        <time>2021-03-19T20:59:25Z</time>
      </trkpt>
      <trkpt lat="55.57596" lon="-5.35562">
        <ele>1.34</ele>
        <time>2021-03-19T20:59:28Z</time>
      </trkpt>
      <trkpt lat="55.57604" lon="-5.35569">
        <ele>1.38</ele>
        <time>2021-03-19T20:59:32Z</time>
      </trkpt>
      <trkpt lat="55.57619" lon="-5.35576">
        <ele>1.25</ele>
        <time>2021-03-19T20:59:35Z</time>
      </trkpt>
      <trkpt lat="55.57686" lon="-5.35585">
        <ele>0.93</ele>
        <time>2021-03-19T20:59:39Z</time>
      </trkpt>
      <trkpt lat="55.57702" lon="-5.35592">
        <ele>1.22</ele>
        <time>2021-03-19T20:59:43Z</time>
      </trkpt>
      <trkpt lat="55.57721" lon="-5.35609">
        <ele>2</ele>
        <time>2021-03-19T20:59:46Z</time>
      </trkpt>
      <trkpt lat="55.578" lon="-5.3571">
        <ele>1.68</ele>
        <time>2021-03-19T20:59:50Z</time>
      </trkpt>
      <trkpt lat="55.57816" lon="-5.35738">
        <ele>1.66</ele>
        <time>2021-03-19T20:59:53Z</time>
      </trkpt>
      <trkpt lat="55.57832" lon="-5.35775">
        <ele>1.93</ele>
        <time>2021-03-19T20:59:57Z</time>
      </trkpt>
      <trkpt lat="55.57856" lon="-5.3585">
        <ele>1.33</ele>
        <time>2021-03-19T21:00:00Z</time>
      </trkpt>
      <trkpt lat="55.57873" lon="-5.3588">
        <ele>1.41</ele>
        <time>2021-03-19T21:00:04Z</time>
      </trkpt>
      <trkpt lat="55.57885" lon="-5.35897">
        <ele>1.62</ele>
        <time>2021-03-19T21:00:07Z</time>
      </trkpt>
      <trkpt lat="55.57907" lon="-5.35916">
        <ele>1.04</ele>
        <time>2021-03-19T21:00:11Z</time>
      </trkpt>
      <trkpt lat="55.57926" lon="-5.35924">
        <ele>1.34</ele>
        <time>2021-03-19T21:00:14Z</time>
      </trkpt>
      <trkpt lat="55.57964" lon="-5.35915">
        <ele>2.05</ele>
        <time>2021-03-19T21:00:18Z</time>
      </trkpt>
      <trkpt lat="55.57974" lon="-5.35917">
        <ele>2</ele>
        <time>2021-03-19T21:00:21Z</time>
      </trkpt>
      <trkpt lat="55.57982" lon="-5.35921">
        <ele>2</ele>
        <time>2021-03-19T21:00:25Z</time>
      </trkpt>
      <trkpt lat="55.5799" lon="-5.35936">
        <ele>2</ele>
        <time>2021-03-19T21:00:29Z</time>
      </trkpt>
      <trkpt lat="55.58015" lon="-5.36004">
        <ele>2.63</ele>
        <time>2021-03-19T21:00:32Z</time>
      </trkpt>
      <trkpt lat="55.58016" lon="-5.36023">
        <ele>3.06</ele>
        <time>2021-03-19T21:00:36Z</time>
      </trkpt>
      <trkpt lat="55.58014" lon="-5.36035">
        <ele>3</ele>
        <time>2021-03-19T21:00:39Z</time>
      </trkpt>
      <trkpt lat="55.58003" lon="-5.3606">
        <ele>2.19</ele>
        <time>2021-03-19T21:00:43Z</time>
      </trkpt>
      <trkpt lat="55.57999" lon="-5.36074">
        <ele>1.91</ele>
        <time>2021-03-19T21:00:46Z</time>
      </trkpt>
      <trkpt lat="55.57997" lon="-5.36091">
        <ele>1.8</ele>
        <time>2021-03-19T21:00:50Z</time>
      </trkpt>
      <trkpt lat="55.58" lon="-5.36109">
        <ele>1.96</ele>
        <time>2021-03-19T21:00:53Z</time>
      </trkpt>
      <trkpt lat="55.58003" lon="-5.36124">
        <ele>1.81</ele>
        <time>2021-03-19T21:00:57Z</time>
      </trkpt>
      <trkpt lat="55.58031" lon="-5.36206">
        <ele>2.77</ele>
        <time>2021-03-19T21:01:00Z</time>
      </trkpt>
      <trkpt lat="55.58071" lon="-5.36313">
        <ele>2.12</ele>
        <time>2021-03-19T21:01:04Z</time>
      </trkpt>
      <trkpt lat="55.58137" lon="-5.36471">
        <ele>1.99</ele>
        <time>2021-03-19T21:01:07Z</time>
      </trkpt>
      <trkpt lat="55.58155" lon="-5.36506">
        <ele>2.03</ele>
        <time>2021-03-19T21:01:11Z</time>
      </trkpt>
      <trkpt lat="55.58195" lon="-5.36577">
        <ele>1.32</ele>
        <time>2021-03-19T21:01:15Z</time>
      </trkpt>
      <trkpt lat="55.58237" lon="-5.36638">
        <ele>2.06</ele>
        <time>2021-03-19T21:01:18Z</time>
      </trkpt>
      <trkpt lat="55.58258" lon="-5.36664">
        <ele>1.71</ele>
        <time>2021-03-19T21:01:22Z</time>
      </trkpt>
      <trkpt lat="55.58298" lon="-5.367">
        <ele>2.53</ele>
        <time>2021-03-19T21:01:25Z</time>
      </trkpt>
      <trkpt lat="55.58312" lon="-5.36723">
        <ele>2.63</ele>
        <time>2021-03-19T21:01:29Z</time>
      </trkpt>
      <trkpt lat="55.58348" lon="-5.36799">
        <ele>1.64</ele>
        <time>2021-03-19T21:01:32Z</time>
      </trkpt>
      <trkpt lat="55.58379" lon="-5.36855">
        <ele>1.07</ele>
        <time>2021-03-19T21:01:36Z</time>
      </trkpt>
      <trkpt lat="55.58421" lon="-5.36913">
        <ele>1.48</ele>
        <time>2021-03-19T21:01:39Z</time>
      </trkpt>
      <trkpt lat="55.58468" lon="-5.3697">
        <ele>2.01</ele>
        <time>2021-03-19T21:01:43Z</time>
      </trkpt>
      <trkpt lat="55.58522" lon="-5.37039">
        <ele>2.82</ele>
        <time>2021-03-19T21:01:46Z</time>
      </trkpt>
      <trkpt lat="55.58593" lon="-5.37144">
        <ele>2.4</ele>
        <time>2021-03-19T21:01:50Z</time>
      </trkpt>
      <trkpt lat="55.58609" lon="-5.37162">
        <ele>2.23</ele>
        <time>2021-03-19T21:01:53Z</time>
      </trkpt>
      <trkpt lat="55.58644" lon="-5.37192">
        <ele>3.26</ele>
        <time>2021-03-19T21:01:57Z</time>
      </trkpt>
      <trkpt lat="55.58692" lon="-5.37223">
        <ele>2.99</ele>
        <time>2021-03-19T21:02:01Z</time>
      </trkpt>
      <trkpt lat="55.58739" lon="-5.37243">
        <ele>4.73</ele>
        <time>2021-03-19T21:02:04Z</time>
      </trkpt>
      <trkpt lat="55.58763" lon="-5.37262">
        <ele>4.84</ele>
        <time>2021-03-19T21:02:08Z</time>
      </trkpt>
      <trkpt lat="55.58817" lon="-5.37312">
        <ele>4.91</ele>
        <time>2021-03-19T21:02:11Z</time>
      </trkpt>
      <trkpt lat="55.58889" lon="-5.37355">
        <ele>0.71</ele>
        <time>2021-03-19T21:02:15Z</time>
      </trkpt>
      <trkpt lat="55.5896" lon="-5.37411">
        <ele>3.06</ele>
        <time>2021-03-19T21:02:18Z</time>
      </trkpt>
      <trkpt lat="55.59043" lon="-5.37501">
        <ele>3.05</ele>
        <time>2021-03-19T21:02:22Z</time>
      </trkpt>
      <trkpt lat="55.5909" lon="-5.37557">
        <ele>1.87</ele>
        <time>2021-03-19T21:02:25Z</time>
      </trkpt>
      <trkpt lat="55.59156" lon="-5.37611">
        <ele>2.59</ele>
        <time>2021-03-19T21:02:29Z</time>
      </trkpt>
      <trkpt lat="55.59192" lon="-5.37653">
        <ele>2.76</ele>
        <time>2021-03-19T21:02:32Z</time>
      </trkpt>
      <trkpt lat="55.59255" lon="-5.37734">
        <ele>1.49</ele>
        <time>2021-03-19T21:02:36Z</time>
      </trkpt>
      <trkpt lat="55.59273" lon="-5.37751">
        <ele>2.6</ele>
        <time>2021-03-19T21:02:39Z</time>
      </trkpt>
      <trkpt lat="55.59388" lon="-5.37827">
        <ele>3.38</ele>
        <time>2021-03-19T21:02:43Z</time>
      </trkpt>
      <trkpt lat="55.59411" lon="-5.37837">
        <ele>3.53</ele>
        <time>2021-03-19T21:02:46Z</time>
      </trkpt>
      <trkpt lat="55.59458" lon="-5.3785">
        <ele>4.49</ele>
        <time>2021-03-19T21:02:50Z</time>
      </trkpt>
      <trkpt lat="55.59488" lon="-5.37863">
        <ele>5.34</ele>
        <time>2021-03-19T21:02:54Z</time>
      </trkpt>
      <trkpt lat="55.59554" lon="-5.37906">
        <ele>6.38</ele>
        <time>2021-03-19T21:02:57Z</time>
      </trkpt>
      <trkpt lat="55.59632" lon="-5.37972">
        <ele>4.59</ele>
        <time>2021-03-19T21:03:01Z</time>
      </trkpt>
      <trkpt lat="55.5966" lon="-5.37998">
        <ele>5.25</ele>
        <time>2021-03-19T21:03:04Z</time>
      </trkpt>
      <trkpt lat="55.59685" lon="-5.38029">
        <ele>4.85</ele>
        <time>2021-03-19T21:03:08Z</time>
      </trkpt>
      <trkpt lat="55.59761" lon="-5.38152">
        <ele>1.73</ele>
        <time>2021-03-19T21:03:11Z</time>
      </trkpt>
      <trkpt lat="55.59778" lon="-5.38168">
        <ele>1</ele>
        <time>2021-03-19T21:03:15Z</time>
      </trkpt>
      <trkpt lat="55.59815" lon="-5.38193">
        <ele>1.35</ele>
        <time>2021-03-19T21:03:18Z</time>
      </trkpt>
      <trkpt lat="55.5984" lon="-5.38217">
        <ele>1.42</ele>
        <time>2021-03-19T21:03:22Z</time>
      </trkpt>
      <trkpt lat="55.59856" lon="-5.38226">
        <ele>1.7</ele>
        <time>2021-03-19T21:03:25Z</time>
      </trkpt>
      <trkpt lat="55.59906" lon="-5.38244">
        <ele>2.37</ele>
        <time>2021-03-19T21:03:29Z</time>
      </trkpt>
      <trkpt lat="55.59973" lon="-5.38281">
        <ele>1.77</ele>
        <time>2021-03-19T21:03:32Z</time>
      </trkpt>
      <trkpt lat="55.6" lon="-5.38289">
        <ele>2.16</ele>
        <time>2021-03-19T21:03:36Z</time>
      </trkpt>
      <trkpt lat="55.60061" lon="-5.38299">
        <ele>2.24</ele>
        <time>2021-03-19T21:03:40Z</time>
      </trkpt>
      <trkpt lat="55.60083" lon="-5.38308">
        <ele>2.01</ele>
        <time>2021-03-19T21:03:43Z</time>
      </trkpt>
      <trkpt lat="55.60107" lon="-5.38321">
        <ele>3.2</ele>
        <time>2021-03-19T21:03:47Z</time>
      </trkpt>
      <trkpt lat="55.60148" lon="-5.38353">
        <ele>2.72</ele>
        <time>2021-03-19T21:03:50Z</time>
      </trkpt>
      <trkpt lat="55.60173" lon="-5.38385">
        <ele>1.77</ele>
        <time>2021-03-19T21:03:54Z</time>
      </trkpt>
      <trkpt lat="55.60209" lon="-5.3844">
        <ele>2.19</ele>
        <time>2021-03-19T21:03:57Z</time>
      </trkpt>
      <trkpt lat="55.60231" lon="-5.38464">
        <ele>2.01</ele>
        <time>2021-03-19T21:04:01Z</time>
      </trkpt>
      <trkpt lat="55.60331" lon="-5.38546">
        <ele>1.68</ele>
        <time>2021-03-19T21:04:04Z</time>
      </trkpt>
      <trkpt lat="55.6042" lon="-5.38604">
        <ele>3.01</ele>
        <time>2021-03-19T21:04:08Z</time>
      </trkpt>
      <trkpt lat="55.60482" lon="-5.38639">
        <ele>6.47</ele>
        <time>2021-03-19T21:04:11Z</time>
      </trkpt>
      <trkpt lat="55.60492" lon="-5.38647">
        <ele>6.6</ele>
        <time>2021-03-19T21:04:15Z</time>
      </trkpt>
      <trkpt lat="55.60517" lon="-5.38672">
        <ele>5.88</ele>
        <time>2021-03-19T21:04:18Z</time>
      </trkpt>
      <trkpt lat="55.60555" lon="-5.38724">
        <ele>3.83</ele>
        <time>2021-03-19T21:04:22Z</time>
      </trkpt>
      <trkpt lat="55.60649" lon="-5.38869">
        <ele>5.03</ele>
        <time>2021-03-19T21:04:26Z</time>
      </trkpt>
      <trkpt lat="55.60678" lon="-5.38923">
        <ele>4.18</ele>
        <time>2021-03-19T21:04:29Z</time>
      </trkpt>
      <trkpt lat="55.60708" lon="-5.38968">
        <ele>3.16</ele>
        <time>2021-03-19T21:04:33Z</time>
      </trkpt>
      <trkpt lat="55.60745" lon="-5.39005">
        <ele>1.82</ele>
        <time>2021-03-19T21:04:36Z</time>
      </trkpt>
      <trkpt lat="55.60754" lon="-5.39017">
        <ele>1.7</ele>
        <time>2021-03-19T21:04:40Z</time>
      </trkpt>
      <trkpt lat="55.60761" lon="-5.39031">
        <ele>1.74</ele>
        <time>2021-03-19T21:04:43Z</time>
      </trkpt>
      <trkpt lat="55.60783" lon="-5.39103">
        <ele>1.24</ele>
        <time>2021-03-19T21:04:47Z</time>
      </trkpt>
      <trkpt lat="55.60787" lon="-5.39113">
        <ele>1.29</ele>
        <time>2021-03-19T21:04:50Z</time>
      </trkpt>
      <trkpt lat="55.608" lon="-5.39132">
        <ele>1.64</ele>
        <time>2021-03-19T21:04:54Z</time>
      </trkpt>
      <trkpt lat="55.60832" lon="-5.39163">
        <ele>3.05</ele>
        <time>2021-03-19T21:04:57Z</time>
      </trkpt>
      <trkpt lat="55.6085" lon="-5.39185">
        <ele>3.82</ele>
        <time>2021-03-19T21:05:01Z</time>
      </trkpt>
      <trkpt lat="55.60856" lon="-5.39188">
        <ele>3.98</ele>
        <time>2021-03-19T21:05:04Z</time>
      </trkpt>
      <trkpt lat="55.60863" lon="-5.39189">
        <ele>4.33</ele>
        <time>2021-03-19T21:05:08Z</time>
      </trkpt>
      <trkpt lat="55.60879" lon="-5.39182">
        <ele>6.02</ele>
        <time>2021-03-19T21:05:12Z</time>
      </trkpt>
      <trkpt lat="55.60937" lon="-5.39149">
        <ele>15.51</ele>
        <time>2021-03-19T21:05:15Z</time>
      </trkpt>
      <trkpt lat="55.60944" lon="-5.39147">
        <ele>16.38</ele>
        <time>2021-03-19T21:05:19Z</time>
      </trkpt>
      <trkpt lat="55.60986" lon="-5.3915">
        <ele>20.87</ele>
        <time>2021-03-19T21:05:22Z</time>
      </trkpt>
      <trkpt lat="55.61045" lon="-5.39125">
        <ele>28.38</ele>
        <time>2021-03-19T21:05:26Z</time>
      </trkpt>
      <trkpt lat="55.61088" lon="-5.3912">
        <ele>31.23</ele>
        <time>2021-03-19T21:05:29Z</time>
      </trkpt>
      <trkpt lat="55.611" lon="-5.39125">
        <ele>31.86</ele>
        <time>2021-03-19T21:05:33Z</time>
      </trkpt>
      <trkpt lat="55.61113" lon="-5.39155">
        <ele>33.05</ele>
        <time>2021-03-19T21:05:36Z</time>
      </trkpt>
      <trkpt lat="55.61125" lon="-5.39177">
        <ele>33.11</ele>
        <time>2021-03-19T21:05:40Z</time>
      </trkpt>
      <trkpt lat="55.6113" lon="-5.39182">
        <ele>33.12</ele>
        <time>2021-03-19T21:05:43Z</time>
      </trkpt>
      <trkpt lat="55.61143" lon="-5.39188">
        <ele>33.24</ele>
        <time>2021-03-19T21:05:47Z</time>
      </trkpt>
      <trkpt lat="55.61156" lon="-5.39186">
        <ele>33.31</ele>
        <time>2021-03-19T21:05:50Z</time>
      </trkpt>
      <trkpt lat="55.61196" lon="-5.39154">
        <ele>35.54</ele>
        <time>2021-03-19T21:05:54Z</time>
      </trkpt>
      <trkpt lat="55.61225" lon="-5.39164">
        <ele>37.22</ele>
        <time>2021-03-19T21:05:57Z</time>
      </trkpt>
      <trkpt lat="55.61233" lon="-5.39162">
        <ele>37.62</ele>
        <time>2021-03-19T21:06:01Z</time>
      </trkpt>
      <trkpt lat="55.61264" lon="-5.39151">
        <ele>39.63</ele>
        <time>2021-03-19T21:06:05Z</time>
      </trkpt>
      <trkpt lat="55.61278" lon="-5.39152">
        <ele>40.07</ele>
        <time>2021-03-19T21:06:08Z</time>
      </trkpt>
      <trkpt lat="55.61304" lon="-5.39168">
        <ele>40.76</ele>
        <time>2021-03-19T21:06:12Z</time>
      </trkpt>
      <trkpt lat="55.61332" lon="-5.39199">
        <ele>41.55</ele>
        <time>2021-03-19T21:06:15Z</time>
      </trkpt>
      <trkpt lat="55.61357" lon="-5.39234">
        <ele>40.85</ele>
        <time>2021-03-19T21:06:19Z</time>
      </trkpt>
      <trkpt lat="55.61371" lon="-5.39259">
        <ele>40.37</ele>
        <time>2021-03-19T21:06:22Z</time>
      </trkpt>
      <trkpt lat="55.61388" lon="-5.39285">
        <ele>40.44</ele>
        <time>2021-03-19T21:06:26Z</time>
      </trkpt>
      <trkpt lat="55.61408" lon="-5.39301">
        <ele>40.69</ele>
        <time>2021-03-19T21:06:29Z</time>
      </trkpt>
      <trkpt lat="55.61465" lon="-5.39329">
        <ele>42.79</ele>
        <time>2021-03-19T21:06:33Z</time>
      </trkpt>
      <trkpt lat="55.61504" lon="-5.3934">
        <ele>44.83</ele>
        <time>2021-03-19T21:06:36Z</time>
      </trkpt>
      <trkpt lat="55.61564" lon="-5.39346">
        <ele>48.38</ele>
        <time>2021-03-19T21:06:40Z</time>
      </trkpt>
      <trkpt lat="55.61714" lon="-5.3938">
        <ele>53.31</ele>
        <time>2021-03-19T21:06:43Z</time>
      </trkpt>
      <trkpt lat="55.61741" lon="-5.39377">
        <ele>52.88</ele>
        <time>2021-03-19T21:06:47Z</time>
      </trkpt>
      <trkpt lat="55.6176" lon="-5.39383">
        <ele>51.85</ele>
        <time>2021-03-19T21:06:51Z</time>
      </trkpt>
      <trkpt lat="55.61808" lon="-5.39426">
        <ele>45.1</ele>
        <time>2021-03-19T21:06:54Z</time>
      </trkpt>
      <trkpt lat="55.61822" lon="-5.39435">
        <ele>43.47</ele>
        <time>2021-03-19T21:06:58Z</time>
      </trkpt>
      <trkpt lat="55.61835" lon="-5.39439">
        <ele>42.26</ele>
        <time>2021-03-19T21:07:01Z</time>
      </trkpt>
      <trkpt lat="55.61847" lon="-5.39436">
        <ele>41.1</ele>
        <time>2021-03-19T21:07:05Z</time>
      </trkpt>
      <trkpt lat="55.61862" lon="-5.39427">
        <ele>40.2</ele>
        <time>2021-03-19T21:07:08Z</time>
      </trkpt>
      <trkpt lat="55.61883" lon="-5.39404">
        <ele>39.98</ele>
        <time>2021-03-19T21:07:12Z</time>
      </trkpt>
      <trkpt lat="55.61891" lon="-5.39399">
        <ele>39.69</ele>
        <time>2021-03-19T21:07:15Z</time>
      </trkpt>
      <trkpt lat="55.61909" lon="-5.39393">
        <ele>38.38</ele>
        <time>2021-03-19T21:07:19Z</time>
      </trkpt>
      <trkpt lat="55.61951" lon="-5.39386">
        <ele>35.73</ele>
        <time>2021-03-19T21:07:22Z</time>
      </trkpt>
      <trkpt lat="55.62011" lon="-5.39388">
        <ele>30.42</ele>
        <time>2021-03-19T21:07:26Z</time>
      </trkpt>
      <trkpt lat="55.62081" lon="-5.39376">
        <ele>29.39</ele>
        <time>2021-03-19T21:07:29Z</time>
      </trkpt>
      <trkpt lat="55.62165" lon="-5.3938">
        <ele>27.4</ele>
        <time>2021-03-19T21:07:33Z</time>
      </trkpt>
      <trkpt lat="55.62319" lon="-5.39373">
        <ele>24.99</ele>
        <time>2021-03-19T21:07:37Z</time>
      </trkpt>
      <trkpt lat="55.62355" lon="-5.39364">
        <ele>24.7</ele>
        <time>2021-03-19T21:07:40Z</time>
      </trkpt>
      <trkpt lat="55.62397" lon="-5.39358">
        <ele>23.44</ele>
        <time>2021-03-19T21:07:44Z</time>
      </trkpt>
      <trkpt lat="55.62415" lon="-5.39352">
        <ele>24.01</ele>
        <time>2021-03-19T21:07:47Z</time>
      </trkpt>
      <trkpt lat="55.62527" lon="-5.39333">
        <ele>22.21</ele>
        <time>2021-03-19T21:07:51Z</time>
      </trkpt>
      <trkpt lat="55.62574" lon="-5.3931">
        <ele>20.25</ele>
        <time>2021-03-19T21:07:54Z</time>
      </trkpt>
      <trkpt lat="55.62626" lon="-5.39293">
        <ele>19.06</ele>
        <time>2021-03-19T21:07:58Z</time>
      </trkpt>
      <trkpt lat="55.62685" lon="-5.39293">
        <ele>15.02</ele>
        <time>2021-03-19T21:08:01Z</time>
      </trkpt>
      <trkpt lat="55.6269" lon="-5.39294">
        <ele>14.51</ele>
        <time>2021-03-19T21:08:05Z</time>
      </trkpt>
      <trkpt lat="55.62701" lon="-5.39301">
        <ele>13.17</ele>
        <time>2021-03-19T21:08:08Z</time>
      </trkpt>
      <trkpt lat="55.6272" lon="-5.39304">
        <ele>12.16</ele>
        <time>2021-03-19T21:08:12Z</time>
      </trkpt>
      <trkpt lat="55.62733" lon="-5.39298">
        <ele>11.52</ele>
        <time>2021-03-19T21:08:15Z</time>
      </trkpt>
      <trkpt lat="55.62774" lon="-5.39255">
        <ele>11.75</ele>
        <time>2021-03-19T21:08:19Z</time>
      </trkpt>
      <trkpt lat="55.62788" lon="-5.39245">
        <ele>11.78</ele>
        <time>2021-03-19T21:08:23Z</time>
      </trkpt>
      <trkpt lat="55.62856" lon="-5.39206">
        <ele>9.66</ele>
        <time>2021-03-19T21:08:26Z</time>
      </trkpt>
      <trkpt lat="55.62886" lon="-5.39186">
        <ele>9.72</ele>
        <time>2021-03-19T21:08:30Z</time>
      </trkpt>
      <trkpt lat="55.62898" lon="-5.39176">
        <ele>10.12</ele>
        <time>2021-03-19T21:08:33Z</time>
      </trkpt>
      <trkpt lat="55.62909" lon="-5.39162">
        <ele>10.64</ele>
        <time>2021-03-19T21:08:37Z</time>
      </trkpt>
      <trkpt lat="55.62939" lon="-5.39116">
        <ele>12.06</ele>
        <time>2021-03-19T21:08:40Z</time>
      </trkpt>
      <trkpt lat="55.62982" lon="-5.39066">
        <ele>13.03</ele>
        <time>2021-03-19T21:08:44Z</time>
      </trkpt>
      <trkpt lat="55.63008" lon="-5.39022">
        <ele>13.51</ele>
        <time>2021-03-19T21:08:47Z</time>
      </trkpt>
      <trkpt lat="55.63044" lon="-5.38971">
        <ele>15.43</ele>
        <time>2021-03-19T21:08:51Z</time>
      </trkpt>
      <trkpt lat="55.63103" lon="-5.38913">
        <ele>15.07</ele>
        <time>2021-03-19T21:08:54Z</time>
      </trkpt>
      <trkpt lat="55.63152" lon="-5.38862">
        <ele>12.1</ele>
        <time>2021-03-19T21:08:58Z</time>
      </trkpt>
      <trkpt lat="55.6331" lon="-5.38741">
        <ele>7.55</ele>
        <time>2021-03-19T21:09:01Z</time>
      </trkpt>
      <trkpt lat="55.63658" lon="-5.38518">
        <ele>3.02</ele>
        <time>2021-03-19T21:09:05Z</time>
      </trkpt>
      <trkpt lat="55.63756" lon="-5.38463">
        <ele>3.38</ele>
        <time>2021-03-19T21:09:08Z</time>
      </trkpt>
      <trkpt lat="55.63923" lon="-5.38387">
        <ele>2.88</ele>
        <time>2021-03-19T21:09:12Z</time>
      </trkpt>
      <trkpt lat="55.64045" lon="-5.38348">
        <ele>1.96</ele>
        <time>2021-03-19T21:09:16Z</time>
      </trkpt>
      <trkpt lat="55.64102" lon="-5.3831">
        <ele>3.68</ele>
        <time>2021-03-19T21:09:19Z</time>
      </trkpt>
      <trkpt lat="55.64145" lon="-5.38298">
        <ele>3.76</ele>
        <time>2021-03-19T21:09:23Z</time>
      </trkpt>
      <trkpt lat="55.6418" lon="-5.38293">
        <ele>4.87</ele>
        <time>2021-03-19T21:09:26Z</time>
      </trkpt>
      <trkpt lat="55.64246" lon="-5.38286">
        <ele>5.43</ele>
        <time>2021-03-19T21:09:30Z</time>
      </trkpt>
      <trkpt lat="55.64396" lon="-5.38304">
        <ele>3.1</ele>
        <time>2021-03-19T21:09:33Z</time>
      </trkpt>
      <trkpt lat="55.6446" lon="-5.38285">
        <ele>2.95</ele>
        <time>2021-03-19T21:09:37Z</time>
      </trkpt>
      <trkpt lat="55.64529" lon="-5.38242">
        <ele>3.49</ele>
        <time>2021-03-19T21:09:40Z</time>
      </trkpt>
      <trkpt lat="55.64555" lon="-5.38232">
        <ele>3.34</ele>
        <time>2021-03-19T21:09:44Z</time>
      </trkpt>
      <trkpt lat="55.64625" lon="-5.38217">
        <ele>3</ele>
        <time>2021-03-19T21:09:47Z</time>
      </trkpt>
      <trkpt lat="55.64755" lon="-5.38181">
        <ele>2.87</ele>
        <time>2021-03-19T21:09:51Z</time>
      </trkpt>
      <trkpt lat="55.64803" lon="-5.3817">
        <ele>1.95</ele>
        <time>2021-03-19T21:09:54Z</time>
      </trkpt>
      <trkpt lat="55.64878" lon="-5.38146">
        <ele>1.9</ele>
        <time>2021-03-19T21:09:58Z</time>
      </trkpt>
      <trkpt lat="55.64937" lon="-5.38132">
        <ele>2.61</ele>
        <time>2021-03-19T21:10:02Z</time>
      </trkpt>
      <trkpt lat="55.64993" lon="-5.38111">
        <ele>1.31</ele>
        <time>2021-03-19T21:10:05Z</time>
      </trkpt>
      <trkpt lat="55.65103" lon="-5.38099">
        <ele>1.06</ele>
        <time>2021-03-19T21:10:09Z</time>
      </trkpt>
      <trkpt lat="55.6515" lon="-5.38078">
        <ele>2.41</ele>
        <time>2021-03-19T21:10:12Z</time>
      </trkpt>
      <trkpt lat="55.65165" lon="-5.38073">
        <ele>2.73</ele>
        <time>2021-03-19T21:10:16Z</time>
      </trkpt>
      <trkpt lat="55.65212" lon="-5.38071">
        <ele>2.92</ele>
        <time>2021-03-19T21:10:19Z</time>
      </trkpt>
      <trkpt lat="55.65251" lon="-5.38076">
        <ele>1.52</ele>
        <time>2021-03-19T21:10:23Z</time>
      </trkpt>
      <trkpt lat="55.65347" lon="-5.38099">
        <ele>3.22</ele>
        <time>2021-03-19T21:10:26Z</time>
      </trkpt>
      <trkpt lat="55.65381" lon="-5.38104">
        <ele>1.75</ele>
        <time>2021-03-19T21:10:30Z</time>
      </trkpt>
      <trkpt lat="55.65401" lon="-5.38104">
        <ele>1.26</ele>
        <time>2021-03-19T21:10:33Z</time>
      </trkpt>
      <trkpt lat="55.65421" lon="-5.38099">
        <ele>1.59</ele>
        <time>2021-03-19T21:10:37Z</time>
      </trkpt>
      <trkpt lat="55.65488" lon="-5.38072">
        <ele>2.57</ele>
        <time>2021-03-19T21:10:40Z</time>
      </trkpt>
      <trkpt lat="55.65528" lon="-5.38052">
        <ele>2.28</ele>
        <time>2021-03-19T21:10:44Z</time>
      </trkpt>
      <trkpt lat="55.65573" lon="-5.3802">
        <ele>2.4</ele>
        <time>2021-03-19T21:10:48Z</time>
      </trkpt>
      <trkpt lat="55.65673" lon="-5.37976">
        <ele>5.35</ele>
        <time>2021-03-19T21:10:51Z</time>
      </trkpt>
      <trkpt lat="55.65716" lon="-5.37949">
        <ele>6.08</ele>
        <time>2021-03-19T21:10:55Z</time>
      </trkpt>
      <trkpt lat="55.65988" lon="-5.37809">
        <ele>3.12</ele>
        <time>2021-03-19T21:10:58Z</time>
      </trkpt>
      <trkpt lat="55.6601" lon="-5.37794">
        <ele>3.68</ele>
        <time>2021-03-19T21:11:02Z</time>
      </trkpt>
      <trkpt lat="55.66055" lon="-5.37753">
        <ele>5.59</ele>
        <time>2021-03-19T21:11:05Z</time>
      </trkpt>
      <trkpt lat="55.66082" lon="-5.37732">
        <ele>7.06</ele>
        <time>2021-03-19T21:11:09Z</time>
      </trkpt>
      <trkpt lat="55.66126" lon="-5.37713">
        <ele>3.86</ele>
        <time>2021-03-19T21:11:12Z</time>
      </trkpt>
      <trkpt lat="55.66141" lon="-5.37704">
        <ele>3.25</ele>
        <time>2021-03-19T21:11:16Z</time>
      </trkpt>
      <trkpt lat="55.66151" lon="-5.37694">
        <ele>3.61</ele>
        <time>2021-03-19T21:11:19Z</time>
      </trkpt>
      <trkpt lat="55.6618" lon="-5.37653">
        <ele>6.83</ele>
        <time>2021-03-19T21:11:23Z</time>
      </trkpt>
      <trkpt lat="55.66197" lon="-5.37639">
        <ele>7.79</ele>
        <time>2021-03-19T21:11:26Z</time>
      </trkpt>
      <trkpt lat="55.66284" lon="-5.37583">
        <ele>7.1</ele>
        <time>2021-03-19T21:11:30Z</time>
      </trkpt>
      <trkpt lat="55.66316" lon="-5.3756">
        <ele>6</ele>
        <time>2021-03-19T21:11:33Z</time>
      </trkpt>
      <trkpt lat="55.66442" lon="-5.37438">
        <ele>6.73</ele>
        <time>2021-03-19T21:11:37Z</time>
      </trkpt>
      <trkpt lat="55.66483" lon="-5.37411">
        <ele>4.63</ele>
        <time>2021-03-19T21:11:41Z</time>
      </trkpt>
      <trkpt lat="55.66562" lon="-5.37364">
        <ele>2.37</ele>
        <time>2021-03-19T21:11:44Z</time>
      </trkpt>
      <trkpt lat="55.66645" lon="-5.37321">
        <ele>2.07</ele>
        <time>2021-03-19T21:11:48Z</time>
      </trkpt>
      <trkpt lat="55.66688" lon="-5.37282">
        <ele>3.86</ele>
        <time>2021-03-19T21:11:51Z</time>
      </trkpt>
      <trkpt lat="55.6675" lon="-5.37248">
        <ele>2.15</ele>
        <time>2021-03-19T21:11:55Z</time>
      </trkpt>
      <trkpt lat="55.668" lon="-5.37198">
        <ele>3.96</ele>
        <time>2021-03-19T21:11:58Z</time>
      </trkpt>
      <trkpt lat="55.66818" lon="-5.37192">
        <ele>3.7</ele>
        <time>2021-03-19T21:12:02Z</time>
      </trkpt>
      <trkpt lat="55.66875" lon="-5.37189">
        <ele>1.88</ele>
        <time>2021-03-19T21:12:05Z</time>
      </trkpt>
      <trkpt lat="55.66915" lon="-5.37179">
        <ele>2.12</ele>
        <time>2021-03-19T21:12:09Z</time>
      </trkpt>
      <trkpt lat="55.66925" lon="-5.37181">
        <ele>2.26</ele>
        <time>2021-03-19T21:12:12Z</time>
      </trkpt>
      <trkpt lat="55.66943" lon="-5.3719">
        <ele>2.24</ele>
        <time>2021-03-19T21:12:16Z</time>
      </trkpt>
      <trkpt lat="55.66961" lon="-5.37192">
        <ele>2.18</ele>
        <time>2021-03-19T21:12:19Z</time>
      </trkpt>
      <trkpt lat="55.67014" lon="-5.37178">
        <ele>2.15</ele>
        <time>2021-03-19T21:12:23Z</time>
      </trkpt>
      <trkpt lat="55.6706" lon="-5.37178">
        <ele>1.49</ele>
        <time>2021-03-19T21:12:27Z</time>
      </trkpt>
      <trkpt lat="55.67087" lon="-5.37173">
        <ele>1</ele>
        <time>2021-03-19T21:12:30Z</time>
      </trkpt>
      <trkpt lat="55.67201" lon="-5.37102">
        <ele>2.42</ele>
        <time>2021-03-19T21:12:34Z</time>
      </trkpt>
      <trkpt lat="55.67235" lon="-5.37071">
        <ele>3.24</ele>
        <time>2021-03-19T21:12:37Z</time>
      </trkpt>
      <trkpt lat="55.67251" lon="-5.3706">
        <ele>2.76</ele>
        <time>2021-03-19T21:12:41Z</time>
      </trkpt>
      <trkpt lat="55.67299" lon="-5.37035">
        <ele>1.89</ele>
        <time>2021-03-19T21:12:44Z</time>
      </trkpt>
      <trkpt lat="55.67394" lon="-5.3693">
        <ele>5.95</ele>
        <time>2021-03-19T21:12:48Z</time>
      </trkpt>
      <trkpt lat="55.67428" lon="-5.36895">
        <ele>5.76</ele>
        <time>2021-03-19T21:12:51Z</time>
      </trkpt>
      <trkpt lat="55.67447" lon="-5.36869">
        <ele>7.89</ele>
        <time>2021-03-19T21:12:55Z</time>
      </trkpt>
      <trkpt lat="55.67469" lon="-5.36831">
        <ele>8.83</ele>
        <time>2021-03-19T21:12:58Z</time>
      </trkpt>
      <trkpt lat="55.67481" lon="-5.36817">
        <ele>8.68</ele>
        <time>2021-03-19T21:13:02Z</time>
      </trkpt>
      <trkpt lat="55.67506" lon="-5.36791">
        <ele>7.91</ele>
        <time>2021-03-19T21:13:05Z</time>
      </trkpt>
      <trkpt lat="55.6753" lon="-5.36773">
        <ele>7.51</ele>
        <time>2021-03-19T21:13:09Z</time>
      </trkpt>
      <trkpt lat="55.67553" lon="-5.36739">
        <ele>8.36</ele>
        <time>2021-03-19T21:13:13Z</time>
      </trkpt>
      <trkpt lat="55.67583" lon="-5.3671">
        <ele>7.69</ele>
        <time>2021-03-19T21:13:16Z</time>
      </trkpt>
      <trkpt lat="55.6759" lon="-5.36701">
        <ele>8.34</ele>
        <time>2021-03-19T21:13:20Z</time>
      </trkpt>
      <trkpt lat="55.67618" lon="-5.3665">
        <ele>10.45</ele>
        <time>2021-03-19T21:13:23Z</time>
      </trkpt>
      <trkpt lat="55.67639" lon="-5.36618">
        <ele>10.59</ele>
        <time>2021-03-19T21:13:27Z</time>
      </trkpt>
      <trkpt lat="55.67684" lon="-5.36547">
        <ele>12.13</ele>
        <time>2021-03-19T21:13:30Z</time>
      </trkpt>
      <trkpt lat="55.67713" lon="-5.36492">
        <ele>12.81</ele>
        <time>2021-03-19T21:13:34Z</time>
      </trkpt>
      <trkpt lat="55.67722" lon="-5.36483">
        <ele>10.65</ele>
        <time>2021-03-19T21:13:37Z</time>
      </trkpt>
      <trkpt lat="55.67769" lon="-5.36453">
        <ele>5.46</ele>
        <time>2021-03-19T21:13:41Z</time>
      </trkpt>
      <trkpt lat="55.67775" lon="-5.36448">
        <ele>5.2</ele>
        <time>2021-03-19T21:13:44Z</time>
      </trkpt>
      <trkpt lat="55.67794" lon="-5.36424">
        <ele>3.75</ele>
        <time>2021-03-19T21:13:48Z</time>
      </trkpt>
      <trkpt lat="55.67849" lon="-5.36331">
        <ele>5.55</ele>
        <time>2021-03-19T21:13:51Z</time>
      </trkpt>
      <trkpt lat="55.67876" lon="-5.36262">
        <ele>6.47</ele>
        <time>2021-03-19T21:13:55Z</time>
      </trkpt>
      <trkpt lat="55.6792" lon="-5.3617">
        <ele>7.55</ele>
        <time>2021-03-19T21:13:59Z</time>
      </trkpt>
      <trkpt lat="55.67942" lon="-5.36119">
        <ele>7.17</ele>
        <time>2021-03-19T21:14:02Z</time>
      </trkpt>
      <trkpt lat="55.67977" lon="-5.36019">
        <ele>4.7</ele>
        <time>2021-03-19T21:14:06Z</time>
      </trkpt>
      <trkpt lat="55.68003" lon="-5.35916">
        <ele>8.21</ele>
        <time>2021-03-19T21:14:09Z</time>
      </trkpt>
      <trkpt lat="55.68016" lon="-5.35877">
        <ele>10.21</ele>
        <time>2021-03-19T21:14:13Z</time>
      </trkpt>
      <trkpt lat="55.68063" lon="-5.35759">
        <ele>15.7</ele>
        <time>2021-03-19T21:14:16Z</time>
      </trkpt>
      <trkpt lat="55.68105" lon="-5.35662">
        <ele>11.97</ele>
        <time>2021-03-19T21:14:20Z</time>
      </trkpt>
      <trkpt lat="55.68196" lon="-5.35467">
        <ele>13.17</ele>
        <time>2021-03-19T21:14:23Z</time>
      </trkpt>
      <trkpt lat="55.6828" lon="-5.35327">
        <ele>11.47</ele>
        <time>2021-03-19T21:14:27Z</time>
      </trkpt>
      <trkpt lat="55.6829" lon="-5.35307">
        <ele>11.77</ele>
        <time>2021-03-19T21:14:30Z</time>
      </trkpt>
      <trkpt lat="55.68308" lon="-5.35255">
        <ele>14.03</ele>
        <time>2021-03-19T21:14:34Z</time>
      </trkpt>
      <trkpt lat="55.6833" lon="-5.35198">
        <ele>12.11</ele>
        <time>2021-03-19T21:14:37Z</time>
      </trkpt>
      <trkpt lat="55.68341" lon="-5.35159">
        <ele>14.51</ele>
        <time>2021-03-19T21:14:41Z</time>
      </trkpt>
      <trkpt lat="55.68354" lon="-5.35124">
        <ele>14.26</ele>
        <time>2021-03-19T21:14:44Z</time>
      </trkpt>
      <trkpt lat="55.6838" lon="-5.35015">
        <ele>17.94</ele>
        <time>2021-03-19T21:14:48Z</time>
      </trkpt>
      <trkpt lat="55.68398" lon="-5.34981">
        <ele>14.99</ele>
        <time>2021-03-19T21:14:52Z</time>
      </trkpt>
      <trkpt lat="55.68413" lon="-5.34925">
        <ele>16.19</ele>
        <time>2021-03-19T21:14:55Z</time>
      </trkpt>
      <trkpt lat="55.68418" lon="-5.34913">
        <ele>15.25</ele>
        <time>2021-03-19T21:14:59Z</time>
      </trkpt>
      <trkpt lat="55.68441" lon="-5.34871">
        <ele>11.05</ele>
        <time>2021-03-19T21:15:02Z</time>
      </trkpt>
      <trkpt lat="55.68447" lon="-5.34853">
        <ele>11.92</ele>
        <time>2021-03-19T21:15:06Z</time>
      </trkpt>
      <trkpt lat="55.68475" lon="-5.3473">
        <ele>13.58</ele>
        <time>2021-03-19T21:15:09Z</time>
      </trkpt>
      <trkpt lat="55.68508" lon="-5.34612">
        <ele>11.31</ele>
        <time>2021-03-19T21:15:13Z</time>
      </trkpt>
      <trkpt lat="55.68523" lon="-5.34571">
        <ele>9.26</ele>
        <time>2021-03-19T21:15:16Z</time>
      </trkpt>
      <trkpt lat="55.68534" lon="-5.34535">
        <ele>8.39</ele>
        <time>2021-03-19T21:15:20Z</time>
      </trkpt>
      <trkpt lat="55.68539" lon="-5.34511">
        <ele>9.13</ele>
        <time>2021-03-19T21:15:23Z</time>
      </trkpt>
      <trkpt lat="55.68549" lon="-5.34441">
        <ele>9</ele>
        <time>2021-03-19T21:15:27Z</time>
      </trkpt>
      <trkpt lat="55.68554" lon="-5.34357">
        <ele>10.26</ele>
        <time>2021-03-19T21:15:30Z</time>
      </trkpt>
      <trkpt lat="55.68557" lon="-5.34337">
        <ele>9.5</ele>
        <time>2021-03-19T21:15:34Z</time>
      </trkpt>
      <trkpt lat="55.68571" lon="-5.34273">
        <ele>8.32</ele>
        <time>2021-03-19T21:15:38Z</time>
      </trkpt>
      <trkpt lat="55.68599" lon="-5.34004">
        <ele>7.87</ele>
        <time>2021-03-19T21:15:41Z</time>
      </trkpt>
      <trkpt lat="55.68606" lon="-5.33956">
        <ele>7.59</ele>
        <time>2021-03-19T21:15:45Z</time>
      </trkpt>
      <trkpt lat="55.68652" lon="-5.33713">
        <ele>7.66</ele>
        <time>2021-03-19T21:15:48Z</time>
      </trkpt>
      <trkpt lat="55.68703" lon="-5.33471">
        <ele>10.45</ele>
        <time>2021-03-19T21:15:52Z</time>
      </trkpt>
      <trkpt lat="55.68738" lon="-5.33328">
        <ele>13.5</ele>
        <time>2021-03-19T21:15:55Z</time>
      </trkpt>
      <trkpt lat="55.68776" lon="-5.33191">
        <ele>8.4</ele>
        <time>2021-03-19T21:15:59Z</time>
      </trkpt>
      <trkpt lat="55.68808" lon="-5.33112">
        <ele>8.2</ele>
        <time>2021-03-19T21:16:02Z</time>
      </trkpt>
      <trkpt lat="55.68824" lon="-5.33059">
        <ele>6.43</ele>
        <time>2021-03-19T21:16:06Z</time>
      </trkpt>
      <trkpt lat="55.68827" lon="-5.33038">
        <ele>5.56</ele>
        <time>2021-03-19T21:16:09Z</time>
      </trkpt>
      <trkpt lat="55.68834" lon="-5.32884">
        <ele>3.97</ele>
        <time>2021-03-19T21:16:13Z</time>
      </trkpt>
      <trkpt lat="55.6884" lon="-5.32795">
        <ele>4.77</ele>
        <time>2021-03-19T21:16:16Z</time>
      </trkpt>
      <trkpt lat="55.68847" lon="-5.32766">
        <ele>4.56</ele>
        <time>2021-03-19T21:16:20Z</time>
      </trkpt>
      <trkpt lat="55.68871" lon="-5.32705">
        <ele>2.3</ele>
        <time>2021-03-19T21:16:24Z</time>
      </trkpt>
      <trkpt lat="55.689" lon="-5.32678">
        <ele>1.6</ele>
        <time>2021-03-19T21:16:27Z</time>
      </trkpt>
      <trkpt lat="55.68922" lon="-5.32665">
        <ele>2.19</ele>
        <time>2021-03-19T21:16:31Z</time>
      </trkpt>
      <trkpt lat="55.68931" lon="-5.32663">
        <ele>2.51</ele>
        <time>2021-03-19T21:16:34Z</time>
      </trkpt>
      <trkpt lat="55.6894" lon="-5.32665">
        <ele>2.82</ele>
        <time>2021-03-19T21:16:38Z</time>
      </trkpt>
      <trkpt lat="55.68991" lon="-5.32688">
        <ele>2.24</ele>
        <time>2021-03-19T21:16:41Z</time>
      </trkpt>
      <trkpt lat="55.69005" lon="-5.3269">
        <ele>2.34</ele>
        <time>2021-03-19T21:16:45Z</time>
      </trkpt>
      <trkpt lat="55.69386" lon="-5.32612">
        <ele>3.81</ele>
        <time>2021-03-19T21:16:48Z</time>
      </trkpt>
      <trkpt lat="55.69419" lon="-5.32612">
        <ele>3.97</ele>
        <time>2021-03-19T21:16:52Z</time>
      </trkpt>
      <trkpt lat="55.69432" lon="-5.32616">
        <ele>3.62</ele>
        <time>2021-03-19T21:16:55Z</time>
      </trkpt>
      <trkpt lat="55.69474" lon="-5.32642">
        <ele>2.96</ele>
        <time>2021-03-19T21:16:59Z</time>
      </trkpt>
      <trkpt lat="55.6951" lon="-5.32648">
        <ele>3.56</ele>
        <time>2021-03-19T21:17:02Z</time>
      </trkpt>
      <trkpt lat="55.69543" lon="-5.32645">
        <ele>3.04</ele>
        <time>2021-03-19T21:17:06Z</time>
      </trkpt>
      <trkpt lat="55.69574" lon="-5.32636">
        <ele>2.49</ele>
        <time>2021-03-19T21:17:10Z</time>
      </trkpt>
      <trkpt lat="55.69599" lon="-5.32625">
        <ele>1.95</ele>
        <time>2021-03-19T21:17:13Z</time>
      </trkpt>
      <trkpt lat="55.69643" lon="-5.326">
        <ele>3.12</ele>
        <time>2021-03-19T21:17:17Z</time>
      </trkpt>
      <trkpt lat="55.69712" lon="-5.32536">
        <ele>6.24</ele>
        <time>2021-03-19T21:17:20Z</time>
      </trkpt>
      <trkpt lat="55.6973" lon="-5.32523">
        <ele>7.3</ele>
        <time>2021-03-19T21:17:24Z</time>
      </trkpt>
      <trkpt lat="55.69741" lon="-5.32517">
        <ele>7.32</ele>
        <time>2021-03-19T21:17:27Z</time>
      </trkpt>
      <trkpt lat="55.69781" lon="-5.32507">
        <ele>6.91</ele>
        <time>2021-03-19T21:17:31Z</time>
      </trkpt>
      <trkpt lat="55.69829" lon="-5.32485">
        <ele>9.15</ele>
        <time>2021-03-19T21:17:34Z</time>
      </trkpt>
      <trkpt lat="55.69922" lon="-5.32422">
        <ele>12.25</ele>
        <time>2021-03-19T21:17:38Z</time>
      </trkpt>
      <trkpt lat="55.69999" lon="-5.32338">
        <ele>13.81</ele>
        <time>2021-03-19T21:17:41Z</time>
      </trkpt>
      <trkpt lat="55.70091" lon="-5.32253">
        <ele>8.39</ele>
        <time>2021-03-19T21:17:45Z</time>
      </trkpt>
      <trkpt lat="55.70256" lon="-5.32082">
        <ele>9.4</ele>
        <time>2021-03-19T21:17:48Z</time>
      </trkpt>
      <trkpt lat="55.70372" lon="-5.31943">
        <ele>4.39</ele>
        <time>2021-03-19T21:17:52Z</time>
      </trkpt>
      <trkpt lat="55.70423" lon="-5.31861">
        <ele>4.71</ele>
        <time>2021-03-19T21:17:55Z</time>
      </trkpt>
      <trkpt lat="55.70566" lon="-5.31641">
        <ele>2.23</ele>
        <time>2021-03-19T21:17:59Z</time>
      </trkpt>
      <trkpt lat="55.70591" lon="-5.31559">
        <ele>3.22</ele>
        <time>2021-03-19T21:18:03Z</time>
      </trkpt>
      <trkpt lat="55.70608" lon="-5.31475">
        <ele>6.02</ele>
        <time>2021-03-19T21:18:06Z</time>
      </trkpt>
      <trkpt lat="55.70621" lon="-5.3139">
        <ele>6.85</ele>
        <time>2021-03-19T21:18:10Z</time>
      </trkpt>
      <trkpt lat="55.7064" lon="-5.31241">
        <ele>8.37</ele>
        <time>2021-03-19T21:18:13Z</time>
      </trkpt>
      <trkpt lat="55.7064" lon="-5.31241">
        <ele>8.37</ele>
        <time>2021-03-19T21:18:13Z</time>
      </trkpt>
      <trkpt lat="55.70657" lon="-5.31114">
        <ele>9.88</ele>
        <time>2021-03-19T21:18:17Z</time>
      </trkpt>
      <trkpt lat="55.70679" lon="-5.30983">
        <ele>12.55</ele>
        <time>2021-03-19T21:18:21Z</time>
      </trkpt>
      <trkpt lat="55.70687" lon="-5.30907">
        <ele>13.11</ele>
        <time>2021-03-19T21:18:25Z</time>
      </trkpt>
      <trkpt lat="55.707" lon="-5.30838">
        <ele>11.03</ele>
        <time>2021-03-19T21:18:29Z</time>
      </trkpt>
      <trkpt lat="55.70716" lon="-5.30709">
        <ele>11.11</ele>
        <time>2021-03-19T21:18:33Z</time>
      </trkpt>
      <trkpt lat="55.70723" lon="-5.30679">
        <ele>8.83</ele>
        <time>2021-03-19T21:18:37Z</time>
      </trkpt>
      <trkpt lat="55.70745" lon="-5.30609">
        <ele>5.06</ele>
        <time>2021-03-19T21:18:41Z</time>
      </trkpt>
      <trkpt lat="55.70747" lon="-5.30583">
        <ele>5.19</ele>
        <time>2021-03-19T21:18:45Z</time>
      </trkpt>
      <trkpt lat="55.70746" lon="-5.30491">
        <ele>7.7</ele>
        <time>2021-03-19T21:18:48Z</time>
      </trkpt>
      <trkpt lat="55.70747" lon="-5.30457">
        <ele>7.05</ele>
        <time>2021-03-19T21:18:52Z</time>
      </trkpt>
      <trkpt lat="55.70752" lon="-5.30417">
        <ele>6.53</ele>
        <time>2021-03-19T21:18:56Z</time>
      </trkpt>
      <trkpt lat="55.70754" lon="-5.30383">
        <ele>8.12</ele>
        <time>2021-03-19T21:19:00Z</time>
      </trkpt>
      <trkpt lat="55.70749" lon="-5.30315">
        <ele>8.66</ele>
        <time>2021-03-19T21:19:04Z</time>
      </trkpt>
      <trkpt lat="55.70754" lon="-5.30232">
        <ele>4.97</ele>
        <time>2021-03-19T21:19:08Z</time>
      </trkpt>
      <trkpt lat="55.70753" lon="-5.30196">
        <ele>4.76</ele>
        <time>2021-03-19T21:19:12Z</time>
      </trkpt>
      <trkpt lat="55.7075" lon="-5.30168">
        <ele>4.03</ele>
        <time>2021-03-19T21:19:16Z</time>
      </trkpt>
      <trkpt lat="55.70728" lon="-5.30057">
        <ele>3.41</ele>
        <time>2021-03-19T21:19:20Z</time>
      </trkpt>
      <trkpt lat="55.70712" lon="-5.29959">
        <ele>2.58</ele>
        <time>2021-03-19T21:19:24Z</time>
      </trkpt>
      <trkpt lat="55.70707" lon="-5.29908">
        <ele>1.73</ele>
        <time>2021-03-19T21:19:27Z</time>
      </trkpt>
      <trkpt lat="55.70704" lon="-5.29894">
        <ele>1.22</ele>
        <time>2021-03-19T21:19:31Z</time>
      </trkpt>
      <trkpt lat="55.70693" lon="-5.29881">
        <ele>1.08</ele>
        <time>2021-03-19T21:19:35Z</time>
      </trkpt>
      <trkpt lat="55.70647" lon="-5.29865">
        <ele>2.82</ele>
        <time>2021-03-19T21:19:39Z</time>
      </trkpt>
      <trkpt lat="55.70642" lon="-5.29859">
        <ele>2.75</ele>
        <time>2021-03-19T21:19:43Z</time>
      </trkpt>
      <trkpt lat="55.70616" lon="-5.29801">
        <ele>1.58</ele>
        <time>2021-03-19T21:19:47Z</time>
      </trkpt>
      <trkpt lat="55.70568" lon="-5.29706">
        <ele>1.92</ele>
        <time>2021-03-19T21:19:51Z</time>
      </trkpt>
      <trkpt lat="55.70542" lon="-5.29638">
        <ele>2.96</ele>
        <time>2021-03-19T21:19:55Z</time>
      </trkpt>
      <trkpt lat="55.70505" lon="-5.29549">
        <ele>1.83</ele>
        <time>2021-03-19T21:19:59Z</time>
      </trkpt>
      <trkpt lat="55.70494" lon="-5.29512">
        <ele>3.14</ele>
        <time>2021-03-19T21:20:03Z</time>
      </trkpt>
      <trkpt lat="55.70481" lon="-5.29439">
        <ele>4.26</ele>
        <time>2021-03-19T21:20:07Z</time>
      </trkpt>
      <trkpt lat="55.70477" lon="-5.29423">
        <ele>4.53</ele>
        <time>2021-03-19T21:20:10Z</time>
      </trkpt>
      <trkpt lat="55.70395" lon="-5.29174">
        <ele>6.88</ele>
        <time>2021-03-19T21:20:14Z</time>
      </trkpt>
      <trkpt lat="55.70393" lon="-5.29124">
        <ele>5.13</ele>
        <time>2021-03-19T21:20:18Z</time>
      </trkpt>
      <trkpt lat="55.70401" lon="-5.29037">
        <ele>1.77</ele>
        <time>2021-03-19T21:20:22Z</time>
      </trkpt>
      <trkpt lat="55.70401" lon="-5.29018">
        <ele>1.37</ele>
        <time>2021-03-19T21:20:26Z</time>
      </trkpt>
      <trkpt lat="55.70398" lon="-5.28995">
        <ele>1</ele>
        <time>2021-03-19T21:20:30Z</time>
      </trkpt>
      <trkpt lat="55.70393" lon="-5.28974">
        <ele>1</ele>
        <time>2021-03-19T21:20:34Z</time>
      </trkpt>
      <trkpt lat="55.70354" lon="-5.28861">
        <ele>1.51</ele>
        <time>2021-03-19T21:20:38Z</time>
      </trkpt>
      <trkpt lat="55.70346" lon="-5.28846">
        <ele>1.52</ele>
        <time>2021-03-19T21:20:42Z</time>
      </trkpt>
      <trkpt lat="55.70329" lon="-5.2882">
        <ele>2.14</ele>
        <time>2021-03-19T21:20:46Z</time>
      </trkpt>
      <trkpt lat="55.70256" lon="-5.28743">
        <ele>6.77</ele>
        <time>2021-03-19T21:20:49Z</time>
      </trkpt>
      <trkpt lat="55.70233" lon="-5.28711">
        <ele>6.85</ele>
        <time>2021-03-19T21:20:53Z</time>
      </trkpt>
      <trkpt lat="55.70223" lon="-5.28688">
        <ele>6.53</ele>
        <time>2021-03-19T21:20:57Z</time>
      </trkpt>
      <trkpt lat="55.7018" lon="-5.28509">
        <ele>3.53</ele>
        <time>2021-03-19T21:21:01Z</time>
      </trkpt>
      <trkpt lat="55.70147" lon="-5.28363">
        <ele>3.69</ele>
        <time>2021-03-19T21:21:05Z</time>
      </trkpt>
      <trkpt lat="55.70082" lon="-5.28173">
        <ele>3.99</ele>
        <time>2021-03-19T21:21:09Z</time>
      </trkpt>
      <trkpt lat="55.69977" lon="-5.27903">
        <ele>8.31</ele>
        <time>2021-03-19T21:21:13Z</time>
      </trkpt>
      <trkpt lat="55.69917" lon="-5.27741">
        <ele>8.33</ele>
        <time>2021-03-19T21:21:17Z</time>
      </trkpt>
      <trkpt lat="55.69904" lon="-5.27711">
        <ele>9.84</ele>
        <time>2021-03-19T21:21:21Z</time>
      </trkpt>
      <trkpt lat="55.69844" lon="-5.27549">
        <ele>12</ele>
        <time>2021-03-19T21:21:25Z</time>
      </trkpt>
      <trkpt lat="55.69802" lon="-5.27431">
        <ele>15</ele>
        <time>2021-03-19T21:21:29Z</time>
      </trkpt>
      <trkpt lat="55.69792" lon="-5.27375">
        <ele>15.48</ele>
        <time>2021-03-19T21:21:32Z</time>
      </trkpt>
      <trkpt lat="55.69791" lon="-5.2735">
        <ele>15.12</ele>
        <time>2021-03-19T21:21:36Z</time>
      </trkpt>
      <trkpt lat="55.6979" lon="-5.27305">
        <ele>15</ele>
        <time>2021-03-19T21:21:40Z</time>
      </trkpt>
      <trkpt lat="55.69792" lon="-5.27258">
        <ele>16.36</ele>
        <time>2021-03-19T21:21:44Z</time>
      </trkpt>
      <trkpt lat="55.69801" lon="-5.2722">
        <ele>18.69</ele>
        <time>2021-03-19T21:21:48Z</time>
      </trkpt>
      <trkpt lat="55.69872" lon="-5.27024">
        <ele>30.22</ele>
        <time>2021-03-19T21:21:52Z</time>
      </trkpt>
      <trkpt lat="55.69878" lon="-5.27004">
        <ele>31.45</ele>
        <time>2021-03-19T21:21:56Z</time>
      </trkpt>
      <trkpt lat="55.69904" lon="-5.26836">
        <ele>39.23</ele>
        <time>2021-03-19T21:22:00Z</time>
      </trkpt>
      <trkpt lat="55.69911" lon="-5.26805">
        <ele>40.81</ele>
        <time>2021-03-19T21:22:04Z</time>
      </trkpt>
      <trkpt lat="55.69922" lon="-5.26782">
        <ele>41.62</ele>
        <time>2021-03-19T21:22:08Z</time>
      </trkpt>
      <trkpt lat="55.69965" lon="-5.26724">
        <ele>40.15</ele>
        <time>2021-03-19T21:22:11Z</time>
      </trkpt>
      <trkpt lat="55.6999" lon="-5.26683">
        <ele>43.92</ele>
        <time>2021-03-19T21:22:15Z</time>
      </trkpt>
      <trkpt lat="55.70008" lon="-5.26643">
        <ele>46.81</ele>
        <time>2021-03-19T21:22:19Z</time>
      </trkpt>
      <trkpt lat="55.70028" lon="-5.26586">
        <ele>48.76</ele>
        <time>2021-03-19T21:22:23Z</time>
      </trkpt>
      <trkpt lat="55.70035" lon="-5.26556">
        <ele>50.32</ele>
        <time>2021-03-19T21:22:27Z</time>
      </trkpt>
      <trkpt lat="55.70049" lon="-5.26463">
        <ele>54.67</ele>
        <time>2021-03-19T21:22:31Z</time>
      </trkpt>
      <trkpt lat="55.7007" lon="-5.26384">
        <ele>59.89</ele>
        <time>2021-03-19T21:22:35Z</time>
      </trkpt>
      <trkpt lat="55.70076" lon="-5.26354">
        <ele>61.3</ele>
        <time>2021-03-19T21:22:39Z</time>
      </trkpt>
      <trkpt lat="55.70084" lon="-5.26291">
        <ele>63.38</ele>
        <time>2021-03-19T21:22:43Z</time>
      </trkpt>
      <trkpt lat="55.70088" lon="-5.26203">
        <ele>64.04</ele>
        <time>2021-03-19T21:22:47Z</time>
      </trkpt>
      <trkpt lat="55.70085" lon="-5.2613">
        <ele>66.01</ele>
        <time>2021-03-19T21:22:50Z</time>
      </trkpt>
      <trkpt lat="55.70079" lon="-5.26058">
        <ele>68.83</ele>
        <time>2021-03-19T21:22:54Z</time>
      </trkpt>
      <trkpt lat="55.70063" lon="-5.25952">
        <ele>70.29</ele>
        <time>2021-03-19T21:22:58Z</time>
      </trkpt>
      <trkpt lat="55.70051" lon="-5.25892">
        <ele>70.89</ele>
        <time>2021-03-19T21:23:02Z</time>
      </trkpt>
      <trkpt lat="55.70037" lon="-5.25837">
        <ele>72.23</ele>
        <time>2021-03-19T21:23:06Z</time>
      </trkpt>
      <trkpt lat="55.70008" lon="-5.25758">
        <ele>72.45</ele>
        <time>2021-03-19T21:23:10Z</time>
      </trkpt>
      <trkpt lat="55.69971" lon="-5.25682">
        <ele>70.43</ele>
        <time>2021-03-19T21:23:14Z</time>
      </trkpt>
      <trkpt lat="55.69943" lon="-5.25633">
        <ele>69.53</ele>
        <time>2021-03-19T21:23:18Z</time>
      </trkpt>
      <trkpt lat="55.69916" lon="-5.2559">
        <ele>68.61</ele>
        <time>2021-03-19T21:23:22Z</time>
      </trkpt>
      <trkpt lat="55.69891" lon="-5.2554">
        <ele>68.61</ele>
        <time>2021-03-19T21:23:26Z</time>
      </trkpt>
      <trkpt lat="55.69875" lon="-5.25517">
        <ele>68.84</ele>
        <time>2021-03-19T21:23:30Z</time>
      </trkpt>
      <trkpt lat="55.69772" lon="-5.25444">
        <ele>74.88</ele>
        <time>2021-03-19T21:23:33Z</time>
      </trkpt>
      <trkpt lat="55.69718" lon="-5.25393">
        <ele>77.1</ele>
        <time>2021-03-19T21:23:37Z</time>
      </trkpt>
      <trkpt lat="55.6968" lon="-5.25362">
        <ele>78.21</ele>
        <time>2021-03-19T21:23:41Z</time>
      </trkpt>
      <trkpt lat="55.69659" lon="-5.25341">
        <ele>79.59</ele>
        <time>2021-03-19T21:23:45Z</time>
      </trkpt>
      <trkpt lat="55.69622" lon="-5.25299">
        <ele>82.31</ele>
        <time>2021-03-19T21:23:49Z</time>
      </trkpt>
      <trkpt lat="55.69599" lon="-5.2527">
        <ele>83.03</ele>
        <time>2021-03-19T21:23:53Z</time>
      </trkpt>
      <trkpt lat="55.69568" lon="-5.25221">
        <ele>83.7</ele>
        <time>2021-03-19T21:23:57Z</time>
      </trkpt>
      <trkpt lat="55.69531" lon="-5.25191">
        <ele>89</ele>
        <time>2021-03-19T21:24:01Z</time>
      </trkpt>
      <trkpt lat="55.69508" lon="-5.25165">
        <ele>91.15</ele>
        <time>2021-03-19T21:24:05Z</time>
      </trkpt>
      <trkpt lat="55.69389" lon="-5.24992">
        <ele>99.39</ele>
        <time>2021-03-19T21:24:09Z</time>
      </trkpt>
      <trkpt lat="55.69374" lon="-5.24967">
        <ele>101.21</ele>
        <time>2021-03-19T21:24:12Z</time>
      </trkpt>
      <trkpt lat="55.69358" lon="-5.24936">
        <ele>102.23</ele>
        <time>2021-03-19T21:24:16Z</time>
      </trkpt>
      <trkpt lat="55.69332" lon="-5.24869">
        <ele>101.78</ele>
        <time>2021-03-19T21:24:20Z</time>
      </trkpt>
      <trkpt lat="55.69313" lon="-5.24813">
        <ele>104.44</ele>
        <time>2021-03-19T21:24:24Z</time>
      </trkpt>
      <trkpt lat="55.69305" lon="-5.24799">
        <ele>105.68</ele>
        <time>2021-03-19T21:24:28Z</time>
      </trkpt>
      <trkpt lat="55.69299" lon="-5.24776">
        <ele>105.88</ele>
        <time>2021-03-19T21:24:32Z</time>
      </trkpt>
      <trkpt lat="55.69286" lon="-5.24696">
        <ele>108.9</ele>
        <time>2021-03-19T21:24:36Z</time>
      </trkpt>
      <trkpt lat="55.69272" lon="-5.2464">
        <ele>112.06</ele>
        <time>2021-03-19T21:24:40Z</time>
      </trkpt>
      <trkpt lat="55.69202" lon="-5.24315">
        <ele>134.41</ele>
        <time>2021-03-19T21:24:44Z</time>
      </trkpt>
      <trkpt lat="55.69175" lon="-5.2421">
        <ele>138.81</ele>
        <time>2021-03-19T21:24:48Z</time>
      </trkpt>
      <trkpt lat="55.69057" lon="-5.23827">
        <ele>157.43</ele>
        <time>2021-03-19T21:24:52Z</time>
      </trkpt>
      <trkpt lat="55.69008" lon="-5.23695">
        <ele>163.88</ele>
        <time>2021-03-19T21:24:55Z</time>
      </trkpt>
      <trkpt lat="55.68965" lon="-5.23554">
        <ele>172.15</ele>
        <time>2021-03-19T21:24:59Z</time>
      </trkpt>
      <trkpt lat="55.68875" lon="-5.23308">
        <ele>184.12</ele>
        <time>2021-03-19T21:25:03Z</time>
      </trkpt>
      <trkpt lat="55.68831" lon="-5.23138">
        <ele>188.59</ele>
        <time>2021-03-19T21:25:07Z</time>
      </trkpt>
      <trkpt lat="55.68737" lon="-5.22857">
        <ele>197.67</ele>
        <time>2021-03-19T21:25:11Z</time>
      </trkpt>
      <trkpt lat="55.68642" lon="-5.22647">
        <ele>199.82</ele>
        <time>2021-03-19T21:25:15Z</time>
      </trkpt>
      <trkpt lat="55.6859" lon="-5.22552">
        <ele>203</ele>
        <time>2021-03-19T21:25:19Z</time>
      </trkpt>
      <trkpt lat="55.68537" lon="-5.22465">
        <ele>202.81</ele>
        <time>2021-03-19T21:25:23Z</time>
      </trkpt>
      <trkpt lat="55.68387" lon="-5.22267">
        <ele>199.01</ele>
        <time>2021-03-19T21:25:27Z</time>
      </trkpt>
      <trkpt lat="55.68305" lon="-5.22121">
        <ele>193.19</ele>
        <time>2021-03-19T21:25:31Z</time>
      </trkpt>
      <trkpt lat="55.68224" lon="-5.22012">
        <ele>188.39</ele>
        <time>2021-03-19T21:25:34Z</time>
      </trkpt>
      <trkpt lat="55.68136" lon="-5.21872">
        <ele>180.75</ele>
        <time>2021-03-19T21:25:38Z</time>
      </trkpt>
      <trkpt lat="55.68047" lon="-5.21757">
        <ele>175.86</ele>
        <time>2021-03-19T21:25:42Z</time>
      </trkpt>
      <trkpt lat="55.67867" lon="-5.21483">
        <ele>163.91</ele>
        <time>2021-03-19T21:25:46Z</time>
      </trkpt>
      <trkpt lat="55.6785" lon="-5.21449">
        <ele>161.78</ele>
        <time>2021-03-19T21:25:50Z</time>
      </trkpt>
      <trkpt lat="55.67816" lon="-5.21327">
        <ele>158.29</ele>
        <time>2021-03-19T21:25:54Z</time>
      </trkpt>
      <trkpt lat="55.67764" lon="-5.21173">
        <ele>154.46</ele>
        <time>2021-03-19T21:25:58Z</time>
      </trkpt>
      <trkpt lat="55.67694" lon="-5.20957">
        <ele>141.91</ele>
        <time>2021-03-19T21:26:02Z</time>
      </trkpt>
      <trkpt lat="55.67681" lon="-5.20903">
        <ele>139.6</ele>
        <time>2021-03-19T21:26:06Z</time>
      </trkpt>
      <trkpt lat="55.67662" lon="-5.20855">
        <ele>136.32</ele>
        <time>2021-03-19T21:26:10Z</time>
      </trkpt>
      <trkpt lat="55.67639" lon="-5.20774">
        <ele>130.83</ele>
        <time>2021-03-19T21:26:14Z</time>
      </trkpt>
      <trkpt lat="55.6763" lon="-5.20725">
        <ele>126.89</ele>
        <time>2021-03-19T21:26:17Z</time>
      </trkpt>
      <trkpt lat="55.67613" lon="-5.20652">
        <ele>120.9</ele>
        <time>2021-03-19T21:26:21Z</time>
      </trkpt>
      <trkpt lat="55.67606" lon="-5.20575">
        <ele>117.1</ele>
        <time>2021-03-19T21:26:25Z</time>
      </trkpt>
      <trkpt lat="55.67599" lon="-5.20545">
        <ele>114.51</ele>
        <time>2021-03-19T21:26:29Z</time>
      </trkpt>
      <trkpt lat="55.67586" lon="-5.205">
        <ele>111.54</ele>
        <time>2021-03-19T21:26:33Z</time>
      </trkpt>
      <trkpt lat="55.67572" lon="-5.20437">
        <ele>108.94</ele>
        <time>2021-03-19T21:26:37Z</time>
      </trkpt>
      <trkpt lat="55.67553" lon="-5.20341">
        <ele>101.67</ele>
        <time>2021-03-19T21:26:41Z</time>
      </trkpt>
      <trkpt lat="55.67533" lon="-5.20264">
        <ele>95.11</ele>
        <time>2021-03-19T21:26:45Z</time>
      </trkpt>
      <trkpt lat="55.67517" lon="-5.20165">
        <ele>89.4</ele>
        <time>2021-03-19T21:26:49Z</time>
      </trkpt>
      <trkpt lat="55.67473" lon="-5.19939">
        <ele>78.25</ele>
        <time>2021-03-19T21:26:53Z</time>
      </trkpt>
      <trkpt lat="55.67467" lon="-5.19872">
        <ele>76.92</ele>
        <time>2021-03-19T21:26:56Z</time>
      </trkpt>
      <trkpt lat="55.67458" lon="-5.19838">
        <ele>75.42</ele>
        <time>2021-03-19T21:27:00Z</time>
      </trkpt>
      <trkpt lat="55.67426" lon="-5.19748">
        <ele>70.36</ele>
        <time>2021-03-19T21:27:04Z</time>
      </trkpt>
      <trkpt lat="55.67411" lon="-5.19702">
        <ele>69.37</ele>
        <time>2021-03-19T21:27:08Z</time>
      </trkpt>
      <trkpt lat="55.67399" lon="-5.19655">
        <ele>67.65</ele>
        <time>2021-03-19T21:27:12Z</time>
      </trkpt>
      <trkpt lat="55.67367" lon="-5.19418">
        <ele>56.68</ele>
        <time>2021-03-19T21:27:16Z</time>
      </trkpt>
      <trkpt lat="55.67361" lon="-5.19391">
        <ele>55.09</ele>
        <time>2021-03-19T21:27:20Z</time>
      </trkpt>
      <trkpt lat="55.67327" lon="-5.19281">
        <ele>51.12</ele>
        <time>2021-03-19T21:27:24Z</time>
      </trkpt>
      <trkpt lat="55.67323" lon="-5.19265">
        <ele>50.83</ele>
        <time>2021-03-19T21:27:28Z</time>
      </trkpt>
      <trkpt lat="55.67318" lon="-5.1923">
        <ele>49.74</ele>
        <time>2021-03-19T21:27:32Z</time>
      </trkpt>
      <trkpt lat="55.6731" lon="-5.18902">
        <ele>44.29</ele>
        <time>2021-03-19T21:27:35Z</time>
      </trkpt>
      <trkpt lat="55.67299" lon="-5.18834">
        <ele>45.46</ele>
        <time>2021-03-19T21:27:39Z</time>
      </trkpt>
      <trkpt lat="55.67297" lon="-5.18793">
        <ele>45.62</ele>
        <time>2021-03-19T21:27:43Z</time>
      </trkpt>
      <trkpt lat="55.67304" lon="-5.18622">
        <ele>40.07</ele>
        <time>2021-03-19T21:27:47Z</time>
      </trkpt>
      <trkpt lat="55.673" lon="-5.18523">
        <ele>39.72</ele>
        <time>2021-03-19T21:27:51Z</time>
      </trkpt>
      <trkpt lat="55.67272" lon="-5.18347">
        <ele>38.4</ele>
        <time>2021-03-19T21:27:55Z</time>
      </trkpt>
      <trkpt lat="55.6725" lon="-5.18178">
        <ele>37.43</ele>
        <time>2021-03-19T21:27:59Z</time>
      </trkpt>
      <trkpt lat="55.67194" lon="-5.17901">
        <ele>36.57</ele>
        <time>2021-03-19T21:28:03Z</time>
      </trkpt>
      <trkpt lat="55.67172" lon="-5.17755">
        <ele>36.32</ele>
        <time>2021-03-19T21:28:07Z</time>
      </trkpt>
      <trkpt lat="55.67143" lon="-5.17635">
        <ele>36.09</ele>
        <time>2021-03-19T21:28:11Z</time>
      </trkpt>
      <trkpt lat="55.67112" lon="-5.17471">
        <ele>38.5</ele>
        <time>2021-03-19T21:28:15Z</time>
      </trkpt>
      <trkpt lat="55.67037" lon="-5.17158">
        <ele>41.73</ele>
        <time>2021-03-19T21:28:18Z</time>
      </trkpt>
      <trkpt lat="55.66988" lon="-5.16979">
        <ele>44.23</ele>
        <time>2021-03-19T21:28:22Z</time>
      </trkpt>
      <trkpt lat="55.66955" lon="-5.16885">
        <ele>43.84</ele>
        <time>2021-03-19T21:28:26Z</time>
      </trkpt>
      <trkpt lat="55.66915" lon="-5.16816">
        <ele>44.65</ele>
        <time>2021-03-19T21:28:30Z</time>
      </trkpt>
      <trkpt lat="55.6689" lon="-5.16762">
        <ele>45.35</ele>
        <time>2021-03-19T21:28:34Z</time>
      </trkpt>
      <trkpt lat="55.66841" lon="-5.16591">
        <ele>48.03</ele>
        <time>2021-03-19T21:28:38Z</time>
      </trkpt>
      <trkpt lat="55.66804" lon="-5.16494">
        <ele>47</ele>
        <time>2021-03-19T21:28:42Z</time>
      </trkpt>
      <trkpt lat="55.66676" lon="-5.16268">
        <ele>38.18</ele>
        <time>2021-03-19T21:28:46Z</time>
      </trkpt>
      <trkpt lat="55.66646" lon="-5.16212">
        <ele>36.51</ele>
        <time>2021-03-19T21:28:50Z</time>
      </trkpt>
      <trkpt lat="55.66634" lon="-5.16182">
        <ele>35.73</ele>
        <time>2021-03-19T21:28:54Z</time>
      </trkpt>
      <trkpt lat="55.66591" lon="-5.16015">
        <ele>28.84</ele>
        <time>2021-03-19T21:28:57Z</time>
      </trkpt>
      <trkpt lat="55.66533" lon="-5.15863">
        <ele>26.71</ele>
        <time>2021-03-19T21:29:01Z</time>
      </trkpt>
      <trkpt lat="55.66501" lon="-5.15751">
        <ele>21.11</ele>
        <time>2021-03-19T21:29:05Z</time>
      </trkpt>
      <trkpt lat="55.66482" lon="-5.15703">
        <ele>19.5</ele>
        <time>2021-03-19T21:29:09Z</time>
      </trkpt>
      <trkpt lat="55.66456" lon="-5.15665">
        <ele>16.07</ele>
        <time>2021-03-19T21:29:13Z</time>
      </trkpt>
      <trkpt lat="55.66432" lon="-5.15636">
        <ele>12.78</ele>
        <time>2021-03-19T21:29:17Z</time>
      </trkpt>
      <trkpt lat="55.66403" lon="-5.15613">
        <ele>11.45</ele>
        <time>2021-03-19T21:29:21Z</time>
      </trkpt>
      <trkpt lat="55.6637" lon="-5.15595">
        <ele>8.64</ele>
        <time>2021-03-19T21:29:25Z</time>
      </trkpt>
      <trkpt lat="55.66355" lon="-5.15594">
        <ele>7.92</ele>
        <time>2021-03-19T21:29:29Z</time>
      </trkpt>
      <trkpt lat="55.66339" lon="-5.15605">
        <ele>7.4</ele>
        <time>2021-03-19T21:29:33Z</time>
      </trkpt>
      <trkpt lat="55.6633" lon="-5.15616">
        <ele>6.72</ele>
        <time>2021-03-19T21:29:37Z</time>
      </trkpt>
      <trkpt lat="55.66322" lon="-5.15633">
        <ele>6.11</ele>
        <time>2021-03-19T21:29:40Z</time>
      </trkpt>
      <trkpt lat="55.66316" lon="-5.15658">
        <ele>6</ele>
        <time>2021-03-19T21:29:44Z</time>
      </trkpt>
      <trkpt lat="55.66311" lon="-5.15676">
        <ele>6.27</ele>
        <time>2021-03-19T21:29:48Z</time>
      </trkpt>
      <trkpt lat="55.66307" lon="-5.15683">
        <ele>6.55</ele>
        <time>2021-03-19T21:29:52Z</time>
      </trkpt>
      <trkpt lat="55.66291" lon="-5.15684">
        <ele>6.61</ele>
        <time>2021-03-19T21:29:56Z</time>
      </trkpt>
      <trkpt lat="55.66272" lon="-5.15681">
        <ele>6.84</ele>
        <time>2021-03-19T21:30:00Z</time>
      </trkpt>
      <trkpt lat="55.66247" lon="-5.1567">
        <ele>7.27</ele>
        <time>2021-03-19T21:30:04Z</time>
      </trkpt>
      <trkpt lat="55.66228" lon="-5.15655">
        <ele>6.59</ele>
        <time>2021-03-19T21:30:08Z</time>
      </trkpt>
      <trkpt lat="55.66133" lon="-5.15518">
        <ele>2.85</ele>
        <time>2021-03-19T21:30:12Z</time>
      </trkpt>
      <trkpt lat="55.66047" lon="-5.15378">
        <ele>3.35</ele>
        <time>2021-03-19T21:30:16Z</time>
      </trkpt>
      <trkpt lat="55.65967" lon="-5.15227">
        <ele>2.77</ele>
        <time>2021-03-19T21:30:19Z</time>
      </trkpt>
      <trkpt lat="55.65908" lon="-5.15151">
        <ele>3.48</ele>
        <time>2021-03-19T21:30:23Z</time>
      </trkpt>
      <trkpt lat="55.6581" lon="-5.15049">
        <ele>2.65</ele>
        <time>2021-03-19T21:30:27Z</time>
      </trkpt>
      <trkpt lat="55.65697" lon="-5.14941">
        <ele>6.13</ele>
        <time>2021-03-19T21:30:31Z</time>
      </trkpt>
      <trkpt lat="55.65644" lon="-5.14913">
        <ele>8.14</ele>
        <time>2021-03-19T21:30:35Z</time>
      </trkpt>
      <trkpt lat="55.65363" lon="-5.14762">
        <ele>7.12</ele>
        <time>2021-03-19T21:30:39Z</time>
      </trkpt>
      <trkpt lat="55.65319" lon="-5.14744">
        <ele>8.23</ele>
        <time>2021-03-19T21:30:43Z</time>
      </trkpt>
      <trkpt lat="55.65265" lon="-5.14732">
        <ele>9.87</ele>
        <time>2021-03-19T21:30:47Z</time>
      </trkpt>
      <trkpt lat="55.65198" lon="-5.14702">
        <ele>11.27</ele>
        <time>2021-03-19T21:30:51Z</time>
      </trkpt>
      <trkpt lat="55.65172" lon="-5.1468">
        <ele>9.88</ele>
        <time>2021-03-19T21:30:55Z</time>
      </trkpt>
      <trkpt lat="55.65146" lon="-5.14654">
        <ele>10.91</ele>
        <time>2021-03-19T21:30:58Z</time>
      </trkpt>
      <trkpt lat="55.65125" lon="-5.14622">
        <ele>14.71</ele>
        <time>2021-03-19T21:31:02Z</time>
      </trkpt>
      <trkpt lat="55.65105" lon="-5.1458">
        <ele>16.47</ele>
        <time>2021-03-19T21:31:06Z</time>
      </trkpt>
      <trkpt lat="55.65093" lon="-5.14538">
        <ele>15.05</ele>
        <time>2021-03-19T21:31:10Z</time>
      </trkpt>
      <trkpt lat="55.65086" lon="-5.14493">
        <ele>9.89</ele>
        <time>2021-03-19T21:31:14Z</time>
      </trkpt>
      <trkpt lat="55.65077" lon="-5.1443">
        <ele>8.65</ele>
        <time>2021-03-19T21:31:18Z</time>
      </trkpt>
      <trkpt lat="55.65065" lon="-5.14392">
        <ele>6.64</ele>
        <time>2021-03-19T21:31:22Z</time>
      </trkpt>
      <trkpt lat="55.65057" lon="-5.14376">
        <ele>6.31</ele>
        <time>2021-03-19T21:31:26Z</time>
      </trkpt>
      <trkpt lat="55.65036" lon="-5.14342">
        <ele>5.28</ele>
        <time>2021-03-19T21:31:30Z</time>
      </trkpt>
      <trkpt lat="55.65001" lon="-5.14301">
        <ele>4.39</ele>
        <time>2021-03-19T21:31:34Z</time>
      </trkpt>
      <trkpt lat="55.6491" lon="-5.14247">
        <ele>5.89</ele>
        <time>2021-03-19T21:31:38Z</time>
      </trkpt>
      <trkpt lat="55.64857" lon="-5.1422">
        <ele>4.95</ele>
        <time>2021-03-19T21:31:41Z</time>
      </trkpt>
      <trkpt lat="55.64809" lon="-5.142">
        <ele>5.29</ele>
        <time>2021-03-19T21:31:45Z</time>
      </trkpt>
      <trkpt lat="55.64736" lon="-5.14178">
        <ele>6.12</ele>
        <time>2021-03-19T21:31:49Z</time>
      </trkpt>
      <trkpt lat="55.64663" lon="-5.14146">
        <ele>5.86</ele>
        <time>2021-03-19T21:31:53Z</time>
      </trkpt>
      <trkpt lat="55.64631" lon="-5.14135">
        <ele>5.93</ele>
        <time>2021-03-19T21:31:57Z</time>
      </trkpt>
      <trkpt lat="55.64598" lon="-5.1413">
        <ele>6.42</ele>
        <time>2021-03-19T21:32:01Z</time>
      </trkpt>
      <trkpt lat="55.64573" lon="-5.14121">
        <ele>5.92</ele>
        <time>2021-03-19T21:32:05Z</time>
      </trkpt>
      <trkpt lat="55.64559" lon="-5.1412">
        <ele>6.47</ele>
        <time>2021-03-19T21:32:09Z</time>
      </trkpt>
      <trkpt lat="55.64537" lon="-5.1413">
        <ele>10.19</ele>
        <time>2021-03-19T21:32:13Z</time>
      </trkpt>
      <trkpt lat="55.64528" lon="-5.1413">
        <ele>11.02</ele>
        <time>2021-03-19T21:32:17Z</time>
      </trkpt>
      <trkpt lat="55.64522" lon="-5.14126">
        <ele>11.22</ele>
        <time>2021-03-19T21:32:20Z</time>
      </trkpt>
      <trkpt lat="55.64517" lon="-5.14117">
        <ele>10.18</ele>
        <time>2021-03-19T21:32:24Z</time>
      </trkpt>
      <trkpt lat="55.64512" lon="-5.14093">
        <ele>7.76</ele>
        <time>2021-03-19T21:32:28Z</time>
      </trkpt>
      <trkpt lat="55.645" lon="-5.14076">
        <ele>6.7</ele>
        <time>2021-03-19T21:32:32Z</time>
      </trkpt>
      <trkpt lat="55.64441" lon="-5.14026">
        <ele>7.43</ele>
        <time>2021-03-19T21:32:36Z</time>
      </trkpt>
      <trkpt lat="55.64434" lon="-5.14017">
        <ele>7.31</ele>
        <time>2021-03-19T21:32:40Z</time>
      </trkpt>
      <trkpt lat="55.64427" lon="-5.13996">
        <ele>5.64</ele>
        <time>2021-03-19T21:32:44Z</time>
      </trkpt>
      <trkpt lat="55.64418" lon="-5.13959">
        <ele>3.95</ele>
        <time>2021-03-19T21:32:48Z</time>
      </trkpt>
      <trkpt lat="55.64411" lon="-5.13947">
        <ele>3.63</ele>
        <time>2021-03-19T21:32:52Z</time>
      </trkpt>
      <trkpt lat="55.6433" lon="-5.139">
        <ele>4.47</ele>
        <time>2021-03-19T21:32:56Z</time>
      </trkpt>
      <trkpt lat="55.6432" lon="-5.13897">
        <ele>4.97</ele>
        <time>2021-03-19T21:33:00Z</time>
      </trkpt>
      <trkpt lat="55.64205" lon="-5.13886">
        <ele>5.35</ele>
        <time>2021-03-19T21:33:03Z</time>
      </trkpt>
      <trkpt lat="55.64147" lon="-5.13894">
        <ele>6.58</ele>
        <time>2021-03-19T21:33:07Z</time>
      </trkpt>
      <trkpt lat="55.64134" lon="-5.13886">
        <ele>5.99</ele>
        <time>2021-03-19T21:33:11Z</time>
      </trkpt>
      <trkpt lat="55.64116" lon="-5.13865">
        <ele>5.12</ele>
        <time>2021-03-19T21:33:15Z</time>
      </trkpt>
      <trkpt lat="55.64105" lon="-5.13857">
        <ele>4.55</ele>
        <time>2021-03-19T21:33:19Z</time>
      </trkpt>
      <trkpt lat="55.64072" lon="-5.13844">
        <ele>4.03</ele>
        <time>2021-03-19T21:33:23Z</time>
      </trkpt>
      <trkpt lat="55.63932" lon="-5.13823">
        <ele>4.45</ele>
        <time>2021-03-19T21:33:27Z</time>
      </trkpt>
      <trkpt lat="55.63911" lon="-5.13823">
        <ele>4.41</ele>
        <time>2021-03-19T21:33:31Z</time>
      </trkpt>
      <trkpt lat="55.63884" lon="-5.1383">
        <ele>3.9</ele>
        <time>2021-03-19T21:33:35Z</time>
      </trkpt>
      <trkpt lat="55.63847" lon="-5.13844">
        <ele>4.36</ele>
        <time>2021-03-19T21:33:39Z</time>
      </trkpt>
      <trkpt lat="55.63812" lon="-5.13865">
        <ele>5.9</ele>
        <time>2021-03-19T21:33:42Z</time>
      </trkpt>
      <trkpt lat="55.638" lon="-5.13868">
        <ele>6.25</ele>
        <time>2021-03-19T21:33:46Z</time>
      </trkpt>
      <trkpt lat="55.6378" lon="-5.13871">
        <ele>6.36</ele>
        <time>2021-03-19T21:33:50Z</time>
      </trkpt>
      <trkpt lat="55.63672" lon="-5.1387">
        <ele>4.3</ele>
        <time>2021-03-19T21:33:54Z</time>
      </trkpt>
      <trkpt lat="55.63633" lon="-5.13864">
        <ele>5.29</ele>
        <time>2021-03-19T21:33:58Z</time>
      </trkpt>
      <trkpt lat="55.63531" lon="-5.13834">
        <ele>3.03</ele>
        <time>2021-03-19T21:34:02Z</time>
      </trkpt>
      <trkpt lat="55.63394" lon="-5.13776">
        <ele>3.94</ele>
        <time>2021-03-19T21:34:06Z</time>
      </trkpt>
      <trkpt lat="55.63353" lon="-5.13751">
        <ele>2.75</ele>
        <time>2021-03-19T21:34:10Z</time>
      </trkpt>
      <trkpt lat="55.63309" lon="-5.1374">
        <ele>2.17</ele>
        <time>2021-03-19T21:34:14Z</time>
      </trkpt>
      <trkpt lat="55.63247" lon="-5.1373">
        <ele>2.87</ele>
        <time>2021-03-19T21:34:18Z</time>
      </trkpt>
      <trkpt lat="55.63178" lon="-5.13742">
        <ele>2.4</ele>
        <time>2021-03-19T21:34:22Z</time>
      </trkpt>
      <trkpt lat="55.63141" lon="-5.13745">
        <ele>2.67</ele>
        <time>2021-03-19T21:34:25Z</time>
      </trkpt>
      <trkpt lat="55.63109" lon="-5.13737">
        <ele>3.17</ele>
        <time>2021-03-19T21:34:29Z</time>
      </trkpt>
      <trkpt lat="55.63079" lon="-5.13724">
        <ele>3.52</ele>
        <time>2021-03-19T21:34:33Z</time>
      </trkpt>
      <trkpt lat="55.62868" lon="-5.13691">
        <ele>5.67</ele>
        <time>2021-03-19T21:34:37Z</time>
      </trkpt>
      <trkpt lat="55.62816" lon="-5.13673">
        <ele>5.28</ele>
        <time>2021-03-19T21:34:41Z</time>
      </trkpt>
      <trkpt lat="55.62753" lon="-5.13641">
        <ele>5.07</ele>
        <time>2021-03-19T21:34:45Z</time>
      </trkpt>
      <trkpt lat="55.627" lon="-5.13607">
        <ele>5.47</ele>
        <time>2021-03-19T21:34:49Z</time>
      </trkpt>
      <trkpt lat="55.62659" lon="-5.13568">
        <ele>4.35</ele>
        <time>2021-03-19T21:34:53Z</time>
      </trkpt>
      <trkpt lat="55.62633" lon="-5.13551">
        <ele>4.26</ele>
        <time>2021-03-19T21:34:57Z</time>
      </trkpt>
      <trkpt lat="55.62501" lon="-5.1349">
        <ele>6.61</ele>
        <time>2021-03-19T21:35:01Z</time>
      </trkpt>
      <trkpt lat="55.62461" lon="-5.13468">
        <ele>6.05</ele>
        <time>2021-03-19T21:35:04Z</time>
      </trkpt>
      <trkpt lat="55.62443" lon="-5.13453">
        <ele>5.58</ele>
        <time>2021-03-19T21:35:08Z</time>
      </trkpt>
      <trkpt lat="55.62395" lon="-5.13401">
        <ele>2.85</ele>
        <time>2021-03-19T21:35:12Z</time>
      </trkpt>
      <trkpt lat="55.62373" lon="-5.13385">
        <ele>1.88</ele>
        <time>2021-03-19T21:35:16Z</time>
      </trkpt>
      <trkpt lat="55.62348" lon="-5.13378">
        <ele>1.8</ele>
        <time>2021-03-19T21:35:20Z</time>
      </trkpt>
      <trkpt lat="55.62215" lon="-5.13366">
        <ele>1.7</ele>
        <time>2021-03-19T21:35:24Z</time>
      </trkpt>
      <trkpt lat="55.62159" lon="-5.13337">
        <ele>2.52</ele>
        <time>2021-03-19T21:35:28Z</time>
      </trkpt>
      <trkpt lat="55.62107" lon="-5.13319">
        <ele>2.47</ele>
        <time>2021-03-19T21:35:32Z</time>
      </trkpt>
      <trkpt lat="55.618" lon="-5.13135">
        <ele>6.93</ele>
        <time>2021-03-19T21:35:36Z</time>
      </trkpt>
      <trkpt lat="55.61785" lon="-5.13121">
        <ele>6.15</ele>
        <time>2021-03-19T21:35:40Z</time>
      </trkpt>
      <trkpt lat="55.61723" lon="-5.13046">
        <ele>6.25</ele>
        <time>2021-03-19T21:35:43Z</time>
      </trkpt>
      <trkpt lat="55.61712" lon="-5.13038">
        <ele>7.28</ele>
        <time>2021-03-19T21:35:47Z</time>
      </trkpt>
      <trkpt lat="55.61676" lon="-5.1302">
        <ele>8.85</ele>
        <time>2021-03-19T21:35:51Z</time>
      </trkpt>
      <trkpt lat="55.61632" lon="-5.13005">
        <ele>8.58</ele>
        <time>2021-03-19T21:35:55Z</time>
      </trkpt>
      <trkpt lat="55.61527" lon="-5.12977">
        <ele>11.64</ele>
        <time>2021-03-19T21:35:59Z</time>
      </trkpt>
      <trkpt lat="55.61477" lon="-5.12957">
        <ele>7.35</ele>
        <time>2021-03-19T21:36:03Z</time>
      </trkpt>
      <trkpt lat="55.61354" lon="-5.12925">
        <ele>5.38</ele>
        <time>2021-03-19T21:36:07Z</time>
      </trkpt>
      <trkpt lat="55.61325" lon="-5.12916">
        <ele>2.97</ele>
        <time>2021-03-19T21:36:11Z</time>
      </trkpt>
      <trkpt lat="55.61263" lon="-5.12889">
        <ele>2.03</ele>
        <time>2021-03-19T21:36:15Z</time>
      </trkpt>
      <trkpt lat="55.61247" lon="-5.12887">
        <ele>1.87</ele>
        <time>2021-03-19T21:36:19Z</time>
      </trkpt>
      <trkpt lat="55.61213" lon="-5.12891">
        <ele>1.53</ele>
        <time>2021-03-19T21:36:23Z</time>
      </trkpt>
      <trkpt lat="55.60995" lon="-5.12938">
        <ele>7.38</ele>
        <time>2021-03-19T21:36:26Z</time>
      </trkpt>
      <trkpt lat="55.6093" lon="-5.12966">
        <ele>8.95</ele>
        <time>2021-03-19T21:36:30Z</time>
      </trkpt>
      <trkpt lat="55.60887" lon="-5.12978">
        <ele>9.75</ele>
        <time>2021-03-19T21:36:34Z</time>
      </trkpt>
      <trkpt lat="55.60867" lon="-5.12988">
        <ele>10.02</ele>
        <time>2021-03-19T21:36:38Z</time>
      </trkpt>
      <trkpt lat="55.60795" lon="-5.13049">
        <ele>9.29</ele>
        <time>2021-03-19T21:36:42Z</time>
      </trkpt>
      <trkpt lat="55.6076" lon="-5.1307">
        <ele>8.82</ele>
        <time>2021-03-19T21:36:46Z</time>
      </trkpt>
      <trkpt lat="55.60725" lon="-5.13077">
        <ele>7.3</ele>
        <time>2021-03-19T21:36:50Z</time>
      </trkpt>
      <trkpt lat="55.60693" lon="-5.13074">
        <ele>7.3</ele>
        <time>2021-03-19T21:36:54Z</time>
      </trkpt>
      <trkpt lat="55.60674" lon="-5.13068">
        <ele>7</ele>
        <time>2021-03-19T21:36:58Z</time>
      </trkpt>
      <trkpt lat="55.6066" lon="-5.13068">
        <ele>6.85</ele>
        <time>2021-03-19T21:37:02Z</time>
      </trkpt>
      <trkpt lat="55.6065" lon="-5.1307">
        <ele>6.72</ele>
        <time>2021-03-19T21:37:05Z</time>
      </trkpt>
      <trkpt lat="55.60626" lon="-5.13094">
        <ele>8.02</ele>
        <time>2021-03-19T21:37:09Z</time>
      </trkpt>
      <trkpt lat="55.60504" lon="-5.13229">
        <ele>10.73</ele>
        <time>2021-03-19T21:37:13Z</time>
      </trkpt>
      <trkpt lat="55.60481" lon="-5.13248">
        <ele>11.62</ele>
        <time>2021-03-19T21:37:17Z</time>
      </trkpt>
      <trkpt lat="55.60466" lon="-5.13257">
        <ele>11.57</ele>
        <time>2021-03-19T21:37:21Z</time>
      </trkpt>
      <trkpt lat="55.60397" lon="-5.1328">
        <ele>11.08</ele>
        <time>2021-03-19T21:37:25Z</time>
      </trkpt>
      <trkpt lat="55.60269" lon="-5.13312">
        <ele>14.02</ele>
        <time>2021-03-19T21:37:29Z</time>
      </trkpt>
      <trkpt lat="55.60242" lon="-5.13323">
        <ele>12.04</ele>
        <time>2021-03-19T21:37:33Z</time>
      </trkpt>
      <trkpt lat="55.60224" lon="-5.13338">
        <ele>11.64</ele>
        <time>2021-03-19T21:37:37Z</time>
      </trkpt>
      <trkpt lat="55.60207" lon="-5.13358">
        <ele>12.47</ele>
        <time>2021-03-19T21:37:41Z</time>
      </trkpt>
      <trkpt lat="55.6017" lon="-5.13412">
        <ele>13.14</ele>
        <time>2021-03-19T21:37:45Z</time>
      </trkpt>
      <trkpt lat="55.60126" lon="-5.13477">
        <ele>9.63</ele>
        <time>2021-03-19T21:37:48Z</time>
      </trkpt>
      <trkpt lat="55.60112" lon="-5.13503">
        <ele>9.44</ele>
        <time>2021-03-19T21:37:52Z</time>
      </trkpt>
      <trkpt lat="55.60106" lon="-5.13519">
        <ele>10.31</ele>
        <time>2021-03-19T21:37:56Z</time>
      </trkpt>
      <trkpt lat="55.60083" lon="-5.13607">
        <ele>13.74</ele>
        <time>2021-03-19T21:38:00Z</time>
      </trkpt>
      <trkpt lat="55.60076" lon="-5.13627">
        <ele>14.17</ele>
        <time>2021-03-19T21:38:04Z</time>
      </trkpt>
      <trkpt lat="55.60062" lon="-5.13658">
        <ele>14.01</ele>
        <time>2021-03-19T21:38:08Z</time>
      </trkpt>
      <trkpt lat="55.60029" lon="-5.13713">
        <ele>12.59</ele>
        <time>2021-03-19T21:38:12Z</time>
      </trkpt>
      <trkpt lat="55.59996" lon="-5.13787">
        <ele>12.02</ele>
        <time>2021-03-19T21:38:16Z</time>
      </trkpt>
      <trkpt lat="55.59973" lon="-5.1383">
        <ele>11.78</ele>
        <time>2021-03-19T21:38:20Z</time>
      </trkpt>
      <trkpt lat="55.5996" lon="-5.13849">
        <ele>10.95</ele>
        <time>2021-03-19T21:38:24Z</time>
      </trkpt>
      <trkpt lat="55.59917" lon="-5.139">
        <ele>6.43</ele>
        <time>2021-03-19T21:38:27Z</time>
      </trkpt>
      <trkpt lat="55.59888" lon="-5.13937">
        <ele>3.98</ele>
        <time>2021-03-19T21:38:31Z</time>
      </trkpt>
      <trkpt lat="55.5985" lon="-5.13997">
        <ele>3.95</ele>
        <time>2021-03-19T21:38:35Z</time>
      </trkpt>
      <trkpt lat="55.59792" lon="-5.1412">
        <ele>7.16</ele>
        <time>2021-03-19T21:38:39Z</time>
      </trkpt>
      <trkpt lat="55.59772" lon="-5.14167">
        <ele>8.39</ele>
        <time>2021-03-19T21:38:43Z</time>
      </trkpt>
      <trkpt lat="55.59765" lon="-5.14188">
        <ele>8.03</ele>
        <time>2021-03-19T21:38:47Z</time>
      </trkpt>
      <trkpt lat="55.59753" lon="-5.14253">
        <ele>5.36</ele>
        <time>2021-03-19T21:38:51Z</time>
      </trkpt>
      <trkpt lat="55.59733" lon="-5.14372">
        <ele>7.05</ele>
        <time>2021-03-19T21:38:55Z</time>
      </trkpt>
      <trkpt lat="55.59724" lon="-5.14408">
        <ele>9.82</ele>
        <time>2021-03-19T21:38:59Z</time>
      </trkpt>
      <trkpt lat="55.59715" lon="-5.14424">
        <ele>10.39</ele>
        <time>2021-03-19T21:39:03Z</time>
      </trkpt>
      <trkpt lat="55.59705" lon="-5.14435">
        <ele>9.49</ele>
        <time>2021-03-19T21:39:06Z</time>
      </trkpt>
      <trkpt lat="55.59546" lon="-5.14546">
        <ele>7.39</ele>
        <time>2021-03-19T21:39:10Z</time>
      </trkpt>
      <trkpt lat="55.59445" lon="-5.14554">
        <ele>4.95</ele>
        <time>2021-03-19T21:39:14Z</time>
      </trkpt>
      <trkpt lat="55.5941" lon="-5.14574">
        <ele>6.83</ele>
        <time>2021-03-19T21:39:18Z</time>
      </trkpt>
      <trkpt lat="55.5939" lon="-5.14593">
        <ele>8.07</ele>
        <time>2021-03-19T21:39:22Z</time>
      </trkpt>
      <trkpt lat="55.59323" lon="-5.14699">
        <ele>12.37</ele>
        <time>2021-03-19T21:39:26Z</time>
      </trkpt>
      <trkpt lat="55.59314" lon="-5.14717">
        <ele>12.21</ele>
        <time>2021-03-19T21:39:30Z</time>
      </trkpt>
      <trkpt lat="55.59314" lon="-5.14717">
        <ele>12.21</ele>
        <time>2021-03-19T21:39:30Z</time>
      </trkpt>
      <trkpt lat="55.59323" lon="-5.14699">
        <ele>12.37</ele>
        <time>2021-03-19T21:39:34Z</time>
      </trkpt>
      <trkpt lat="55.5939" lon="-5.14593">
        <ele>8.07</ele>
        <time>2021-03-19T21:39:38Z</time>
      </trkpt>
      <trkpt lat="55.5941" lon="-5.14574">
        <ele>6.83</ele>
        <time>2021-03-19T21:39:42Z</time>
      </trkpt>
      <trkpt lat="55.59445" lon="-5.14554">
        <ele>4.95</ele>
        <time>2021-03-19T21:39:46Z</time>
      </trkpt>
      <trkpt lat="55.59546" lon="-5.14546">
        <ele>7.39</ele>
        <time>2021-03-19T21:39:50Z</time>
      </trkpt>
      <trkpt lat="55.59705" lon="-5.14435">
        <ele>9.49</ele>
        <time>2021-03-19T21:39:54Z</time>
      </trkpt>
      <trkpt lat="55.59715" lon="-5.14424">
        <ele>10.39</ele>
        <time>2021-03-19T21:39:58Z</time>
      </trkpt>
      <trkpt lat="55.59724" lon="-5.14408">
        <ele>9.82</ele>
        <time>2021-03-19T21:40:02Z</time>
      </trkpt>
      <trkpt lat="55.59733" lon="-5.14372">
        <ele>7.05</ele>
        <time>2021-03-19T21:40:05Z</time>
      </trkpt>
      <trkpt lat="55.59753" lon="-5.14253">
        <ele>5.36</ele>
        <time>2021-03-19T21:40:09Z</time>
      </trkpt>
      <trkpt lat="55.59765" lon="-5.14188">
        <ele>8.03</ele>
        <time>2021-03-19T21:40:13Z</time>
      </trkpt>
      <trkpt lat="55.59772" lon="-5.14167">
        <ele>8.39</ele>
        <time>2021-03-19T21:40:17Z</time>
      </trkpt>
      <trkpt lat="55.59792" lon="-5.1412">
        <ele>7.16</ele>
        <time>2021-03-19T21:40:21Z</time>
      </trkpt>
      <trkpt lat="55.5985" lon="-5.13997">
        <ele>3.95</ele>
        <time>2021-03-19T21:40:25Z</time>
      </trkpt>
      <trkpt lat="55.59888" lon="-5.13937">
        <ele>3.98</ele>
        <time>2021-03-19T21:40:29Z</time>
      </trkpt>
      <trkpt lat="55.59917" lon="-5.139">
        <ele>6.43</ele>
        <time>2021-03-19T21:40:33Z</time>
      </trkpt>
      <trkpt lat="55.5996" lon="-5.13849">
        <ele>10.95</ele>
        <time>2021-03-19T21:40:37Z</time>
      </trkpt>
      <trkpt lat="55.59973" lon="-5.1383">
        <ele>11.78</ele>
        <time>2021-03-19T21:40:41Z</time>
      </trkpt>
      <trkpt lat="55.59996" lon="-5.13787">
        <ele>12.02</ele>
        <time>2021-03-19T21:40:45Z</time>
      </trkpt>
      <trkpt lat="55.60029" lon="-5.13713">
        <ele>12.59</ele>
        <time>2021-03-19T21:40:49Z</time>
      </trkpt>
      <trkpt lat="55.60062" lon="-5.13658">
        <ele>14.01</ele>
        <time>2021-03-19T21:40:53Z</time>
      </trkpt>
      <trkpt lat="55.60076" lon="-5.13627">
        <ele>14.17</ele>
        <time>2021-03-19T21:40:57Z</time>
      </trkpt>
      <trkpt lat="55.60083" lon="-5.13607">
        <ele>13.74</ele>
        <time>2021-03-19T21:41:01Z</time>
      </trkpt>
      <trkpt lat="55.60106" lon="-5.13519">
        <ele>10.31</ele>
        <time>2021-03-19T21:41:04Z</time>
      </trkpt>
      <trkpt lat="55.60112" lon="-5.13503">
        <ele>9.44</ele>
        <time>2021-03-19T21:41:08Z</time>
      </trkpt>
      <trkpt lat="55.60126" lon="-5.13477">
        <ele>9.63</ele>
        <time>2021-03-19T21:41:12Z</time>
      </trkpt>
      <trkpt lat="55.6017" lon="-5.13412">
        <ele>13.14</ele>
        <time>2021-03-19T21:41:16Z</time>
      </trkpt>
      <trkpt lat="55.60207" lon="-5.13358">
        <ele>12.47</ele>
        <time>2021-03-19T21:41:20Z</time>
      </trkpt>
      <trkpt lat="55.60224" lon="-5.13338">
        <ele>11.64</ele>
        <time>2021-03-19T21:41:24Z</time>
      </trkpt>
      <trkpt lat="55.60242" lon="-5.13323">
        <ele>12.04</ele>
        <time>2021-03-19T21:41:28Z</time>
      </trkpt>
      <trkpt lat="55.60269" lon="-5.13312">
        <ele>14.02</ele>
        <time>2021-03-19T21:41:32Z</time>
      </trkpt>
      <trkpt lat="55.60397" lon="-5.1328">
        <ele>11.08</ele>
        <time>2021-03-19T21:41:36Z</time>
      </trkpt>
      <trkpt lat="55.60466" lon="-5.13257">
        <ele>11.57</ele>
        <time>2021-03-19T21:41:40Z</time>
      </trkpt>
      <trkpt lat="55.60481" lon="-5.13248">
        <ele>11.62</ele>
        <time>2021-03-19T21:41:44Z</time>
      </trkpt>
      <trkpt lat="55.60504" lon="-5.13229">
        <ele>10.73</ele>
        <time>2021-03-19T21:41:48Z</time>
      </trkpt>
      <trkpt lat="55.60626" lon="-5.13094">
        <ele>8.02</ele>
        <time>2021-03-19T21:41:52Z</time>
      </trkpt>
      <trkpt lat="55.6065" lon="-5.1307">
        <ele>6.72</ele>
        <time>2021-03-19T21:41:56Z</time>
      </trkpt>
      <trkpt lat="55.6066" lon="-5.13068">
        <ele>6.85</ele>
        <time>2021-03-19T21:42:00Z</time>
      </trkpt>
      <trkpt lat="55.60674" lon="-5.13068">
        <ele>7</ele>
        <time>2021-03-19T21:42:03Z</time>
      </trkpt>
      <trkpt lat="55.60693" lon="-5.13074">
        <ele>7.3</ele>
        <time>2021-03-19T21:42:07Z</time>
      </trkpt>
      <trkpt lat="55.60725" lon="-5.13077">
        <ele>7.3</ele>
        <time>2021-03-19T21:42:11Z</time>
      </trkpt>
      <trkpt lat="55.6076" lon="-5.1307">
        <ele>8.82</ele>
        <time>2021-03-19T21:42:15Z</time>
      </trkpt>
      <trkpt lat="55.60795" lon="-5.13049">
        <ele>9.29</ele>
        <time>2021-03-19T21:42:19Z</time>
      </trkpt>
      <trkpt lat="55.60867" lon="-5.12988">
        <ele>10.02</ele>
        <time>2021-03-19T21:42:23Z</time>
      </trkpt>
      <trkpt lat="55.60887" lon="-5.12978">
        <ele>9.75</ele>
        <time>2021-03-19T21:42:27Z</time>
      </trkpt>
      <trkpt lat="55.6093" lon="-5.12966">
        <ele>8.95</ele>
        <time>2021-03-19T21:42:31Z</time>
      </trkpt>
      <trkpt lat="55.60995" lon="-5.12938">
        <ele>7.38</ele>
        <time>2021-03-19T21:42:35Z</time>
      </trkpt>
      <trkpt lat="55.61213" lon="-5.12891">
        <ele>1.53</ele>
        <time>2021-03-19T21:42:39Z</time>
      </trkpt>
      <trkpt lat="55.61247" lon="-5.12887">
        <ele>1.87</ele>
        <time>2021-03-19T21:42:43Z</time>
      </trkpt>
      <trkpt lat="55.61263" lon="-5.12889">
        <ele>2.03</ele>
        <time>2021-03-19T21:42:47Z</time>
      </trkpt>
      <trkpt lat="55.61325" lon="-5.12916">
        <ele>2.97</ele>
        <time>2021-03-19T21:42:51Z</time>
      </trkpt>
      <trkpt lat="55.61354" lon="-5.12925">
        <ele>5.38</ele>
        <time>2021-03-19T21:42:55Z</time>
      </trkpt>
      <trkpt lat="55.61477" lon="-5.12957">
        <ele>7.35</ele>
        <time>2021-03-19T21:42:59Z</time>
      </trkpt>
      <trkpt lat="55.61527" lon="-5.12977">
        <ele>11.64</ele>
        <time>2021-03-19T21:43:02Z</time>
      </trkpt>
      <trkpt lat="55.61632" lon="-5.13005">
        <ele>8.58</ele>
        <time>2021-03-19T21:43:06Z</time>
      </trkpt>
      <trkpt lat="55.61676" lon="-5.1302">
        <ele>8.85</ele>
        <time>2021-03-19T21:43:10Z</time>
      </trkpt>
      <trkpt lat="55.61712" lon="-5.13038">
        <ele>7.28</ele>
        <time>2021-03-19T21:43:14Z</time>
      </trkpt>
      <trkpt lat="55.61723" lon="-5.13046">
        <ele>6.25</ele>
        <time>2021-03-19T21:43:18Z</time>
      </trkpt>
      <trkpt lat="55.61785" lon="-5.13121">
        <ele>6.15</ele>
        <time>2021-03-19T21:43:22Z</time>
      </trkpt>
      <trkpt lat="55.618" lon="-5.13135">
        <ele>6.93</ele>
        <time>2021-03-19T21:43:26Z</time>
      </trkpt>
      <trkpt lat="55.62107" lon="-5.13319">
        <ele>2.47</ele>
        <time>2021-03-19T21:43:30Z</time>
      </trkpt>
      <trkpt lat="55.62159" lon="-5.13337">
        <ele>2.52</ele>
        <time>2021-03-19T21:43:34Z</time>
      </trkpt>
      <trkpt lat="55.62215" lon="-5.13366">
        <ele>1.7</ele>
        <time>2021-03-19T21:43:38Z</time>
      </trkpt>
      <trkpt lat="55.62348" lon="-5.13378">
        <ele>1.8</ele>
        <time>2021-03-19T21:43:42Z</time>
      </trkpt>
      <trkpt lat="55.62373" lon="-5.13385">
        <ele>1.88</ele>
        <time>2021-03-19T21:43:46Z</time>
      </trkpt>
      <trkpt lat="55.62395" lon="-5.13401">
        <ele>2.85</ele>
        <time>2021-03-19T21:43:50Z</time>
      </trkpt>
      <trkpt lat="55.62443" lon="-5.13453">
        <ele>5.58</ele>
        <time>2021-03-19T21:43:54Z</time>
      </trkpt>
      <trkpt lat="55.62461" lon="-5.13468">
        <ele>6.05</ele>
        <time>2021-03-19T21:43:58Z</time>
      </trkpt>
      <trkpt lat="55.62501" lon="-5.1349">
        <ele>6.61</ele>
        <time>2021-03-19T21:44:01Z</time>
      </trkpt>
      <trkpt lat="55.62633" lon="-5.13551">
        <ele>4.26</ele>
        <time>2021-03-19T21:44:05Z</time>
      </trkpt>
      <trkpt lat="55.62659" lon="-5.13568">
        <ele>4.35</ele>
        <time>2021-03-19T21:44:09Z</time>
      </trkpt>
      <trkpt lat="55.627" lon="-5.13607">
        <ele>5.47</ele>
        <time>2021-03-19T21:44:13Z</time>
      </trkpt>
      <trkpt lat="55.62753" lon="-5.13641">
        <ele>5.07</ele>
        <time>2021-03-19T21:44:17Z</time>
      </trkpt>
      <trkpt lat="55.62816" lon="-5.13673">
        <ele>5.28</ele>
        <time>2021-03-19T21:44:21Z</time>
      </trkpt>
      <trkpt lat="55.62868" lon="-5.13691">
        <ele>5.67</ele>
        <time>2021-03-19T21:44:25Z</time>
      </trkpt>
      <trkpt lat="55.63079" lon="-5.13724">
        <ele>3.52</ele>
        <time>2021-03-19T21:44:29Z</time>
      </trkpt>
      <trkpt lat="55.63109" lon="-5.13737">
        <ele>3.17</ele>
        <time>2021-03-19T21:44:33Z</time>
      </trkpt>
      <trkpt lat="55.63141" lon="-5.13745">
        <ele>2.67</ele>
        <time>2021-03-19T21:44:37Z</time>
      </trkpt>
      <trkpt lat="55.63178" lon="-5.13742">
        <ele>2.4</ele>
        <time>2021-03-19T21:44:41Z</time>
      </trkpt>
      <trkpt lat="55.63247" lon="-5.1373">
        <ele>2.87</ele>
        <time>2021-03-19T21:44:45Z</time>
      </trkpt>
      <trkpt lat="55.63309" lon="-5.1374">
        <ele>2.17</ele>
        <time>2021-03-19T21:44:49Z</time>
      </trkpt>
      <trkpt lat="55.63353" lon="-5.13751">
        <ele>2.75</ele>
        <time>2021-03-19T21:44:53Z</time>
      </trkpt>
      <trkpt lat="55.63394" lon="-5.13776">
        <ele>3.94</ele>
        <time>2021-03-19T21:44:57Z</time>
      </trkpt>
      <trkpt lat="55.63531" lon="-5.13834">
        <ele>3.03</ele>
        <time>2021-03-19T21:45:00Z</time>
      </trkpt>
      <trkpt lat="55.63633" lon="-5.13864">
        <ele>5.29</ele>
        <time>2021-03-19T21:45:04Z</time>
      </trkpt>
      <trkpt lat="55.63672" lon="-5.1387">
        <ele>4.3</ele>
        <time>2021-03-19T21:45:08Z</time>
      </trkpt>
      <trkpt lat="55.6378" lon="-5.13871">
        <ele>6.36</ele>
        <time>2021-03-19T21:45:12Z</time>
      </trkpt>
      <trkpt lat="55.638" lon="-5.13868">
        <ele>6.25</ele>
        <time>2021-03-19T21:45:16Z</time>
      </trkpt>
      <trkpt lat="55.63812" lon="-5.13865">
        <ele>5.9</ele>
        <time>2021-03-19T21:45:20Z</time>
      </trkpt>
      <trkpt lat="55.63847" lon="-5.13844">
        <ele>4.36</ele>
        <time>2021-03-19T21:45:24Z</time>
      </trkpt>
      <trkpt lat="55.63884" lon="-5.1383">
        <ele>3.9</ele>
        <time>2021-03-19T21:45:28Z</time>
      </trkpt>
      <trkpt lat="55.63911" lon="-5.13823">
        <ele>4.41</ele>
        <time>2021-03-19T21:45:32Z</time>
      </trkpt>
      <trkpt lat="55.63932" lon="-5.13823">
        <ele>4.45</ele>
        <time>2021-03-19T21:45:36Z</time>
      </trkpt>
      <trkpt lat="55.64072" lon="-5.13844">
        <ele>4.03</ele>
        <time>2021-03-19T21:45:40Z</time>
      </trkpt>
      <trkpt lat="55.64105" lon="-5.13857">
        <ele>4.55</ele>
        <time>2021-03-19T21:45:44Z</time>
      </trkpt>
      <trkpt lat="55.64116" lon="-5.13865">
        <ele>5.12</ele>
        <time>2021-03-19T21:45:48Z</time>
      </trkpt>
      <trkpt lat="55.64134" lon="-5.13886">
        <ele>5.99</ele>
        <time>2021-03-19T21:45:52Z</time>
      </trkpt>
      <trkpt lat="55.64147" lon="-5.13894">
        <ele>6.58</ele>
        <time>2021-03-19T21:45:56Z</time>
      </trkpt>
      <trkpt lat="55.64205" lon="-5.13886">
        <ele>5.35</ele>
        <time>2021-03-19T21:45:59Z</time>
      </trkpt>
      <trkpt lat="55.6432" lon="-5.13897">
        <ele>4.97</ele>
        <time>2021-03-19T21:46:03Z</time>
      </trkpt>
      <trkpt lat="55.6433" lon="-5.139">
        <ele>4.47</ele>
        <time>2021-03-19T21:46:07Z</time>
      </trkpt>
      <trkpt lat="55.64411" lon="-5.13947">
        <ele>3.63</ele>
        <time>2021-03-19T21:46:11Z</time>
      </trkpt>
      <trkpt lat="55.64418" lon="-5.13959">
        <ele>3.95</ele>
        <time>2021-03-19T21:46:15Z</time>
      </trkpt>
      <trkpt lat="55.64427" lon="-5.13996">
        <ele>5.64</ele>
        <time>2021-03-19T21:46:19Z</time>
      </trkpt>
      <trkpt lat="55.64434" lon="-5.14017">
        <ele>7.31</ele>
        <time>2021-03-19T21:46:23Z</time>
      </trkpt>
      <trkpt lat="55.64441" lon="-5.14026">
        <ele>7.43</ele>
        <time>2021-03-19T21:46:27Z</time>
      </trkpt>
      <trkpt lat="55.645" lon="-5.14076">
        <ele>6.7</ele>
        <time>2021-03-19T21:46:31Z</time>
      </trkpt>
      <trkpt lat="55.64512" lon="-5.14093">
        <ele>7.76</ele>
        <time>2021-03-19T21:46:35Z</time>
      </trkpt>
      <trkpt lat="55.64517" lon="-5.14117">
        <ele>10.18</ele>
        <time>2021-03-19T21:46:39Z</time>
      </trkpt>
      <trkpt lat="55.64522" lon="-5.14126">
        <ele>11.22</ele>
        <time>2021-03-19T21:46:43Z</time>
      </trkpt>
      <trkpt lat="55.64528" lon="-5.1413">
        <ele>11.02</ele>
        <time>2021-03-19T21:46:47Z</time>
      </trkpt>
      <trkpt lat="55.64537" lon="-5.1413">
        <ele>10.19</ele>
        <time>2021-03-19T21:46:51Z</time>
      </trkpt>
      <trkpt lat="55.64559" lon="-5.1412">
        <ele>6.47</ele>
        <time>2021-03-19T21:46:55Z</time>
      </trkpt>
      <trkpt lat="55.64573" lon="-5.14121">
        <ele>5.92</ele>
        <time>2021-03-19T21:46:58Z</time>
      </trkpt>
      <trkpt lat="55.64598" lon="-5.1413">
        <ele>6.42</ele>
        <time>2021-03-19T21:47:02Z</time>
      </trkpt>
      <trkpt lat="55.64631" lon="-5.14135">
        <ele>5.93</ele>
        <time>2021-03-19T21:47:06Z</time>
      </trkpt>
      <trkpt lat="55.64663" lon="-5.14146">
        <ele>5.86</ele>
        <time>2021-03-19T21:47:10Z</time>
      </trkpt>
      <trkpt lat="55.64736" lon="-5.14178">
        <ele>6.12</ele>
        <time>2021-03-19T21:47:14Z</time>
      </trkpt>
      <trkpt lat="55.64809" lon="-5.142">
        <ele>5.29</ele>
        <time>2021-03-19T21:47:18Z</time>
      </trkpt>
      <trkpt lat="55.64857" lon="-5.1422">
        <ele>4.95</ele>
        <time>2021-03-19T21:47:22Z</time>
      </trkpt>
      <trkpt lat="55.6491" lon="-5.14247">
        <ele>5.89</ele>
        <time>2021-03-19T21:47:26Z</time>
      </trkpt>
      <trkpt lat="55.65001" lon="-5.14301">
        <ele>4.39</ele>
        <time>2021-03-19T21:47:30Z</time>
      </trkpt>
      <trkpt lat="55.65036" lon="-5.14342">
        <ele>5.28</ele>
        <time>2021-03-19T21:47:34Z</time>
      </trkpt>
      <trkpt lat="55.65057" lon="-5.14376">
        <ele>6.31</ele>
        <time>2021-03-19T21:47:38Z</time>
      </trkpt>
      <trkpt lat="55.65065" lon="-5.14392">
        <ele>6.64</ele>
        <time>2021-03-19T21:47:42Z</time>
      </trkpt>
      <trkpt lat="55.65077" lon="-5.1443">
        <ele>8.65</ele>
        <time>2021-03-19T21:47:46Z</time>
      </trkpt>
      <trkpt lat="55.65086" lon="-5.14493">
        <ele>9.89</ele>
        <time>2021-03-19T21:47:50Z</time>
      </trkpt>
      <trkpt lat="55.65093" lon="-5.14538">
        <ele>15.05</ele>
        <time>2021-03-19T21:47:54Z</time>
      </trkpt>
      <trkpt lat="55.65105" lon="-5.1458">
        <ele>16.47</ele>
        <time>2021-03-19T21:47:57Z</time>
      </trkpt>
      <trkpt lat="55.65125" lon="-5.14622">
        <ele>14.71</ele>
        <time>2021-03-19T21:48:01Z</time>
      </trkpt>
      <trkpt lat="55.65146" lon="-5.14654">
        <ele>10.91</ele>
        <time>2021-03-19T21:48:05Z</time>
      </trkpt>
      <trkpt lat="55.65172" lon="-5.1468">
        <ele>9.88</ele>
        <time>2021-03-19T21:48:09Z</time>
      </trkpt>
      <trkpt lat="55.65198" lon="-5.14702">
        <ele>11.27</ele>
        <time>2021-03-19T21:48:13Z</time>
      </trkpt>
      <trkpt lat="55.65265" lon="-5.14732">
        <ele>9.87</ele>
        <time>2021-03-19T21:48:17Z</time>
      </trkpt>
      <trkpt lat="55.65319" lon="-5.14744">
        <ele>8.23</ele>
        <time>2021-03-19T21:48:21Z</time>
      </trkpt>
      <trkpt lat="55.65363" lon="-5.14762">
        <ele>7.12</ele>
        <time>2021-03-19T21:48:25Z</time>
      </trkpt>
      <trkpt lat="55.65644" lon="-5.14913">
        <ele>8.14</ele>
        <time>2021-03-19T21:48:29Z</time>
      </trkpt>
      <trkpt lat="55.65697" lon="-5.14941">
        <ele>6.13</ele>
        <time>2021-03-19T21:48:33Z</time>
      </trkpt>
      <trkpt lat="55.6581" lon="-5.15049">
        <ele>2.65</ele>
        <time>2021-03-19T21:48:37Z</time>
      </trkpt>
      <trkpt lat="55.65908" lon="-5.15151">
        <ele>3.48</ele>
        <time>2021-03-19T21:48:41Z</time>
      </trkpt>
      <trkpt lat="55.65967" lon="-5.15227">
        <ele>2.77</ele>
        <time>2021-03-19T21:48:45Z</time>
      </trkpt>
      <trkpt lat="55.66047" lon="-5.15378">
        <ele>3.35</ele>
        <time>2021-03-19T21:48:49Z</time>
      </trkpt>
      <trkpt lat="55.66133" lon="-5.15518">
        <ele>2.85</ele>
        <time>2021-03-19T21:48:53Z</time>
      </trkpt>
      <trkpt lat="55.66228" lon="-5.15655">
        <ele>6.59</ele>
        <time>2021-03-19T21:48:56Z</time>
      </trkpt>
      <trkpt lat="55.66247" lon="-5.1567">
        <ele>7.27</ele>
        <time>2021-03-19T21:49:00Z</time>
      </trkpt>
      <trkpt lat="55.66272" lon="-5.15681">
        <ele>6.84</ele>
        <time>2021-03-19T21:49:04Z</time>
      </trkpt>
      <trkpt lat="55.66291" lon="-5.15684">
        <ele>6.61</ele>
        <time>2021-03-19T21:49:08Z</time>
      </trkpt>
      <trkpt lat="55.66307" lon="-5.15683">
        <ele>6.55</ele>
        <time>2021-03-19T21:49:12Z</time>
      </trkpt>
      <trkpt lat="55.66311" lon="-5.15676">
        <ele>6.27</ele>
        <time>2021-03-19T21:49:16Z</time>
      </trkpt>
      <trkpt lat="55.66316" lon="-5.15658">
        <ele>6</ele>
        <time>2021-03-19T21:49:20Z</time>
      </trkpt>
      <trkpt lat="55.66322" lon="-5.15633">
        <ele>6.11</ele>
        <time>2021-03-19T21:49:24Z</time>
      </trkpt>
      <trkpt lat="55.6633" lon="-5.15616">
        <ele>6.72</ele>
        <time>2021-03-19T21:49:28Z</time>
      </trkpt>
      <trkpt lat="55.66339" lon="-5.15605">
        <ele>7.4</ele>
        <time>2021-03-19T21:49:32Z</time>
      </trkpt>
      <trkpt lat="55.66355" lon="-5.15594">
        <ele>7.92</ele>
        <time>2021-03-19T21:49:36Z</time>
      </trkpt>
      <trkpt lat="55.6637" lon="-5.15595">
        <ele>8.64</ele>
        <time>2021-03-19T21:49:40Z</time>
      </trkpt>
      <trkpt lat="55.66403" lon="-5.15613">
        <ele>11.45</ele>
        <time>2021-03-19T21:49:44Z</time>
      </trkpt>
      <trkpt lat="55.66432" lon="-5.15636">
        <ele>12.78</ele>
        <time>2021-03-19T21:49:48Z</time>
      </trkpt>
      <trkpt lat="55.66456" lon="-5.15665">
        <ele>16.07</ele>
        <time>2021-03-19T21:49:52Z</time>
      </trkpt>
      <trkpt lat="55.66482" lon="-5.15703">
        <ele>19.5</ele>
        <time>2021-03-19T21:49:55Z</time>
      </trkpt>
      <trkpt lat="55.66501" lon="-5.15751">
        <ele>21.11</ele>
        <time>2021-03-19T21:49:59Z</time>
      </trkpt>
      <trkpt lat="55.66533" lon="-5.15863">
        <ele>26.71</ele>
        <time>2021-03-19T21:50:03Z</time>
      </trkpt>
      <trkpt lat="55.66591" lon="-5.16015">
        <ele>28.84</ele>
        <time>2021-03-19T21:50:07Z</time>
      </trkpt>
      <trkpt lat="55.66634" lon="-5.16182">
        <ele>35.73</ele>
        <time>2021-03-19T21:50:11Z</time>
      </trkpt>
      <trkpt lat="55.66646" lon="-5.16212">
        <ele>36.51</ele>
        <time>2021-03-19T21:50:15Z</time>
      </trkpt>
      <trkpt lat="55.66676" lon="-5.16268">
        <ele>38.18</ele>
        <time>2021-03-19T21:50:19Z</time>
      </trkpt>
      <trkpt lat="55.66804" lon="-5.16494">
        <ele>47</ele>
        <time>2021-03-19T21:50:23Z</time>
      </trkpt>
      <trkpt lat="55.66841" lon="-5.16591">
        <ele>48.03</ele>
        <time>2021-03-19T21:50:27Z</time>
      </trkpt>
      <trkpt lat="55.6689" lon="-5.16762">
        <ele>45.35</ele>
        <time>2021-03-19T21:50:31Z</time>
      </trkpt>
      <trkpt lat="55.66915" lon="-5.16816">
        <ele>44.65</ele>
        <time>2021-03-19T21:50:35Z</time>
      </trkpt>
      <trkpt lat="55.66955" lon="-5.16885">
        <ele>43.84</ele>
        <time>2021-03-19T21:50:39Z</time>
      </trkpt>
      <trkpt lat="55.66988" lon="-5.16979">
        <ele>44.23</ele>
        <time>2021-03-19T21:50:43Z</time>
      </trkpt>
      <trkpt lat="55.67037" lon="-5.17158">
        <ele>41.73</ele>
        <time>2021-03-19T21:50:47Z</time>
      </trkpt>
      <trkpt lat="55.67112" lon="-5.17471">
        <ele>38.5</ele>
        <time>2021-03-19T21:50:51Z</time>
      </trkpt>
      <trkpt lat="55.67143" lon="-5.17635">
        <ele>36.09</ele>
        <time>2021-03-19T21:50:54Z</time>
      </trkpt>
      <trkpt lat="55.67172" lon="-5.17755">
        <ele>36.32</ele>
        <time>2021-03-19T21:50:58Z</time>
      </trkpt>
      <trkpt lat="55.67194" lon="-5.17901">
        <ele>36.57</ele>
        <time>2021-03-19T21:51:02Z</time>
      </trkpt>
      <trkpt lat="55.6725" lon="-5.18178">
        <ele>37.43</ele>
        <time>2021-03-19T21:51:06Z</time>
      </trkpt>
      <trkpt lat="55.67272" lon="-5.18347">
        <ele>38.4</ele>
        <time>2021-03-19T21:51:10Z</time>
      </trkpt>
      <trkpt lat="55.673" lon="-5.18523">
        <ele>39.72</ele>
        <time>2021-03-19T21:51:14Z</time>
      </trkpt>
      <trkpt lat="55.67304" lon="-5.18622">
        <ele>40.07</ele>
        <time>2021-03-19T21:51:18Z</time>
      </trkpt>
      <trkpt lat="55.67297" lon="-5.18793">
        <ele>45.62</ele>
        <time>2021-03-19T21:51:22Z</time>
      </trkpt>
      <trkpt lat="55.67299" lon="-5.18834">
        <ele>45.46</ele>
        <time>2021-03-19T21:51:26Z</time>
      </trkpt>
      <trkpt lat="55.6731" lon="-5.18902">
        <ele>44.29</ele>
        <time>2021-03-19T21:51:30Z</time>
      </trkpt>
      <trkpt lat="55.67318" lon="-5.1923">
        <ele>49.74</ele>
        <time>2021-03-19T21:51:34Z</time>
      </trkpt>
      <trkpt lat="55.67323" lon="-5.19265">
        <ele>50.83</ele>
        <time>2021-03-19T21:51:38Z</time>
      </trkpt>
      <trkpt lat="55.67327" lon="-5.19281">
        <ele>51.12</ele>
        <time>2021-03-19T21:51:42Z</time>
      </trkpt>
      <trkpt lat="55.67361" lon="-5.19391">
        <ele>55.09</ele>
        <time>2021-03-19T21:51:46Z</time>
      </trkpt>
      <trkpt lat="55.67367" lon="-5.19418">
        <ele>56.68</ele>
        <time>2021-03-19T21:51:50Z</time>
      </trkpt>
      <trkpt lat="55.67399" lon="-5.19655">
        <ele>67.65</ele>
        <time>2021-03-19T21:51:53Z</time>
      </trkpt>
      <trkpt lat="55.67411" lon="-5.19702">
        <ele>69.37</ele>
        <time>2021-03-19T21:51:57Z</time>
      </trkpt>
      <trkpt lat="55.67426" lon="-5.19748">
        <ele>70.36</ele>
        <time>2021-03-19T21:52:01Z</time>
      </trkpt>
      <trkpt lat="55.67458" lon="-5.19838">
        <ele>75.42</ele>
        <time>2021-03-19T21:52:05Z</time>
      </trkpt>
      <trkpt lat="55.67467" lon="-5.19872">
        <ele>76.92</ele>
        <time>2021-03-19T21:52:09Z</time>
      </trkpt>
      <trkpt lat="55.67473" lon="-5.19939">
        <ele>78.25</ele>
        <time>2021-03-19T21:52:13Z</time>
      </trkpt>
      <trkpt lat="55.67517" lon="-5.20165">
        <ele>89.4</ele>
        <time>2021-03-19T21:52:17Z</time>
      </trkpt>
      <trkpt lat="55.67533" lon="-5.20264">
        <ele>95.11</ele>
        <time>2021-03-19T21:52:21Z</time>
      </trkpt>
      <trkpt lat="55.67553" lon="-5.20341">
        <ele>101.67</ele>
        <time>2021-03-19T21:52:25Z</time>
      </trkpt>
      <trkpt lat="55.67572" lon="-5.20437">
        <ele>108.94</ele>
        <time>2021-03-19T21:52:29Z</time>
      </trkpt>
      <trkpt lat="55.67586" lon="-5.205">
        <ele>111.54</ele>
        <time>2021-03-19T21:52:33Z</time>
      </trkpt>
      <trkpt lat="55.67599" lon="-5.20545">
        <ele>114.51</ele>
        <time>2021-03-19T21:52:37Z</time>
      </trkpt>
      <trkpt lat="55.67606" lon="-5.20575">
        <ele>117.1</ele>
        <time>2021-03-19T21:52:41Z</time>
      </trkpt>
      <trkpt lat="55.67613" lon="-5.20652">
        <ele>120.9</ele>
        <time>2021-03-19T21:52:45Z</time>
      </trkpt>
      <trkpt lat="55.6763" lon="-5.20725">
        <ele>126.89</ele>
        <time>2021-03-19T21:52:49Z</time>
      </trkpt>
      <trkpt lat="55.67639" lon="-5.20774">
        <ele>130.83</ele>
        <time>2021-03-19T21:52:52Z</time>
      </trkpt>
      <trkpt lat="55.67662" lon="-5.20855">
        <ele>136.32</ele>
        <time>2021-03-19T21:52:56Z</time>
      </trkpt>
      <trkpt lat="55.67681" lon="-5.20903">
        <ele>139.6</ele>
        <time>2021-03-19T21:53:00Z</time>
      </trkpt>
      <trkpt lat="55.67694" lon="-5.20957">
        <ele>141.91</ele>
        <time>2021-03-19T21:53:04Z</time>
      </trkpt>
      <trkpt lat="55.67764" lon="-5.21173">
        <ele>154.46</ele>
        <time>2021-03-19T21:53:08Z</time>
      </trkpt>
      <trkpt lat="55.67816" lon="-5.21327">
        <ele>158.29</ele>
        <time>2021-03-19T21:53:12Z</time>
      </trkpt>
      <trkpt lat="55.6785" lon="-5.21449">
        <ele>161.78</ele>
        <time>2021-03-19T21:53:16Z</time>
      </trkpt>
      <trkpt lat="55.67867" lon="-5.21483">
        <ele>163.91</ele>
        <time>2021-03-19T21:53:20Z</time>
      </trkpt>
      <trkpt lat="55.68047" lon="-5.21757">
        <ele>175.86</ele>
        <time>2021-03-19T21:53:24Z</time>
      </trkpt>
      <trkpt lat="55.68136" lon="-5.21872">
        <ele>180.75</ele>
        <time>2021-03-19T21:53:28Z</time>
      </trkpt>
      <trkpt lat="55.68224" lon="-5.22012">
        <ele>188.39</ele>
        <time>2021-03-19T21:53:32Z</time>
      </trkpt>
      <trkpt lat="55.68305" lon="-5.22121">
        <ele>193.19</ele>
        <time>2021-03-19T21:53:36Z</time>
      </trkpt>
      <trkpt lat="55.68387" lon="-5.22267">
        <ele>199.01</ele>
        <time>2021-03-19T21:53:40Z</time>
      </trkpt>
      <trkpt lat="55.68537" lon="-5.22465">
        <ele>202.81</ele>
        <time>2021-03-19T21:53:44Z</time>
      </trkpt>
      <trkpt lat="55.6859" lon="-5.22552">
        <ele>203</ele>
        <time>2021-03-19T21:53:47Z</time>
      </trkpt>
      <trkpt lat="55.68642" lon="-5.22647">
        <ele>199.82</ele>
        <time>2021-03-19T21:53:51Z</time>
      </trkpt>
      <trkpt lat="55.68737" lon="-5.22857">
        <ele>197.67</ele>
        <time>2021-03-19T21:53:55Z</time>
      </trkpt>
      <trkpt lat="55.68831" lon="-5.23138">
        <ele>188.59</ele>
        <time>2021-03-19T21:53:59Z</time>
      </trkpt>
      <trkpt lat="55.68875" lon="-5.23308">
        <ele>184.12</ele>
        <time>2021-03-19T21:54:03Z</time>
      </trkpt>
      <trkpt lat="55.68965" lon="-5.23554">
        <ele>172.15</ele>
        <time>2021-03-19T21:54:07Z</time>
      </trkpt>
      <trkpt lat="55.69008" lon="-5.23695">
        <ele>163.88</ele>
        <time>2021-03-19T21:54:11Z</time>
      </trkpt>
      <trkpt lat="55.69057" lon="-5.23827">
        <ele>157.43</ele>
        <time>2021-03-19T21:54:15Z</time>
      </trkpt>
      <trkpt lat="55.69175" lon="-5.2421">
        <ele>138.81</ele>
        <time>2021-03-19T21:54:19Z</time>
      </trkpt>
      <trkpt lat="55.69202" lon="-5.24315">
        <ele>134.41</ele>
        <time>2021-03-19T21:54:23Z</time>
      </trkpt>
      <trkpt lat="55.69272" lon="-5.2464">
        <ele>112.06</ele>
        <time>2021-03-19T21:54:27Z</time>
      </trkpt>
      <trkpt lat="55.69286" lon="-5.24696">
        <ele>108.9</ele>
        <time>2021-03-19T21:54:31Z</time>
      </trkpt>
      <trkpt lat="55.69299" lon="-5.24776">
        <ele>105.88</ele>
        <time>2021-03-19T21:54:35Z</time>
      </trkpt>
      <trkpt lat="55.69305" lon="-5.24799">
        <ele>105.68</ele>
        <time>2021-03-19T21:54:39Z</time>
      </trkpt>
      <trkpt lat="55.69313" lon="-5.24813">
        <ele>104.44</ele>
        <time>2021-03-19T21:54:43Z</time>
      </trkpt>
      <trkpt lat="55.69332" lon="-5.24869">
        <ele>101.78</ele>
        <time>2021-03-19T21:54:46Z</time>
      </trkpt>
      <trkpt lat="55.69358" lon="-5.24936">
        <ele>102.23</ele>
        <time>2021-03-19T21:54:50Z</time>
      </trkpt>
      <trkpt lat="55.69374" lon="-5.24967">
        <ele>101.21</ele>
        <time>2021-03-19T21:54:54Z</time>
      </trkpt>
      <trkpt lat="55.69389" lon="-5.24992">
        <ele>99.39</ele>
        <time>2021-03-19T21:54:58Z</time>
      </trkpt>
      <trkpt lat="55.69508" lon="-5.25165">
        <ele>91.15</ele>
        <time>2021-03-19T21:55:02Z</time>
      </trkpt>
      <trkpt lat="55.69531" lon="-5.25191">
        <ele>89</ele>
        <time>2021-03-19T21:55:06Z</time>
      </trkpt>
      <trkpt lat="55.69568" lon="-5.25221">
        <ele>83.7</ele>
        <time>2021-03-19T21:55:10Z</time>
      </trkpt>
      <trkpt lat="55.69599" lon="-5.2527">
        <ele>83.03</ele>
        <time>2021-03-19T21:55:14Z</time>
      </trkpt>
      <trkpt lat="55.69622" lon="-5.25299">
        <ele>82.31</ele>
        <time>2021-03-19T21:55:18Z</time>
      </trkpt>
      <trkpt lat="55.69659" lon="-5.25341">
        <ele>79.59</ele>
        <time>2021-03-19T21:55:22Z</time>
      </trkpt>
      <trkpt lat="55.6968" lon="-5.25362">
        <ele>78.21</ele>
        <time>2021-03-19T21:55:26Z</time>
      </trkpt>
      <trkpt lat="55.69718" lon="-5.25393">
        <ele>77.1</ele>
        <time>2021-03-19T21:55:30Z</time>
      </trkpt>
      <trkpt lat="55.69772" lon="-5.25444">
        <ele>74.88</ele>
        <time>2021-03-19T21:55:34Z</time>
      </trkpt>
      <trkpt lat="55.69875" lon="-5.25517">
        <ele>68.84</ele>
        <time>2021-03-19T21:55:38Z</time>
      </trkpt>
      <trkpt lat="55.69891" lon="-5.2554">
        <ele>68.61</ele>
        <time>2021-03-19T21:55:42Z</time>
      </trkpt>
      <trkpt lat="55.69916" lon="-5.2559">
        <ele>68.61</ele>
        <time>2021-03-19T21:55:45Z</time>
      </trkpt>
      <trkpt lat="55.69943" lon="-5.25633">
        <ele>69.53</ele>
        <time>2021-03-19T21:55:49Z</time>
      </trkpt>
      <trkpt lat="55.69971" lon="-5.25682">
        <ele>70.43</ele>
        <time>2021-03-19T21:55:53Z</time>
      </trkpt>
      <trkpt lat="55.70008" lon="-5.25758">
        <ele>72.45</ele>
        <time>2021-03-19T21:55:57Z</time>
      </trkpt>
      <trkpt lat="55.70037" lon="-5.25837">
        <ele>72.23</ele>
        <time>2021-03-19T21:56:01Z</time>
      </trkpt>
      <trkpt lat="55.70051" lon="-5.25892">
        <ele>70.89</ele>
        <time>2021-03-19T21:56:05Z</time>
      </trkpt>
      <trkpt lat="55.70063" lon="-5.25952">
        <ele>70.29</ele>
        <time>2021-03-19T21:56:09Z</time>
      </trkpt>
      <trkpt lat="55.70079" lon="-5.26058">
        <ele>68.83</ele>
        <time>2021-03-19T21:56:13Z</time>
      </trkpt>
      <trkpt lat="55.70085" lon="-5.2613">
        <ele>66.01</ele>
        <time>2021-03-19T21:56:17Z</time>
      </trkpt>
      <trkpt lat="55.70088" lon="-5.26203">
        <ele>64.04</ele>
        <time>2021-03-19T21:56:21Z</time>
      </trkpt>
      <trkpt lat="55.70084" lon="-5.26291">
        <ele>63.38</ele>
        <time>2021-03-19T21:56:25Z</time>
      </trkpt>
      <trkpt lat="55.70076" lon="-5.26354">
        <ele>61.3</ele>
        <time>2021-03-19T21:56:29Z</time>
      </trkpt>
      <trkpt lat="55.7007" lon="-5.26384">
        <ele>59.89</ele>
        <time>2021-03-19T21:56:33Z</time>
      </trkpt>
      <trkpt lat="55.70049" lon="-5.26463">
        <ele>54.67</ele>
        <time>2021-03-19T21:56:37Z</time>
      </trkpt>
      <trkpt lat="55.70035" lon="-5.26556">
        <ele>50.32</ele>
        <time>2021-03-19T21:56:41Z</time>
      </trkpt>
      <trkpt lat="55.70028" lon="-5.26586">
        <ele>48.76</ele>
        <time>2021-03-19T21:56:44Z</time>
      </trkpt>
      <trkpt lat="55.70008" lon="-5.26643">
        <ele>46.81</ele>
        <time>2021-03-19T21:56:48Z</time>
      </trkpt>
      <trkpt lat="55.6999" lon="-5.26683">
        <ele>43.92</ele>
        <time>2021-03-19T21:56:52Z</time>
      </trkpt>
      <trkpt lat="55.69965" lon="-5.26724">
        <ele>40.15</ele>
        <time>2021-03-19T21:56:56Z</time>
      </trkpt>
      <trkpt lat="55.69922" lon="-5.26782">
        <ele>41.62</ele>
        <time>2021-03-19T21:57:00Z</time>
      </trkpt>
      <trkpt lat="55.69911" lon="-5.26805">
        <ele>40.81</ele>
        <time>2021-03-19T21:57:04Z</time>
      </trkpt>
      <trkpt lat="55.69904" lon="-5.26836">
        <ele>39.23</ele>
        <time>2021-03-19T21:57:08Z</time>
      </trkpt>
      <trkpt lat="55.69878" lon="-5.27004">
        <ele>31.45</ele>
        <time>2021-03-19T21:57:12Z</time>
      </trkpt>
      <trkpt lat="55.69872" lon="-5.27024">
        <ele>30.22</ele>
        <time>2021-03-19T21:57:16Z</time>
      </trkpt>
      <trkpt lat="55.69801" lon="-5.2722">
        <ele>18.69</ele>
        <time>2021-03-19T21:57:20Z</time>
      </trkpt>
      <trkpt lat="55.69792" lon="-5.27258">
        <ele>16.36</ele>
        <time>2021-03-19T21:57:24Z</time>
      </trkpt>
      <trkpt lat="55.6979" lon="-5.27305">
        <ele>15</ele>
        <time>2021-03-19T21:57:28Z</time>
      </trkpt>
      <trkpt lat="55.69791" lon="-5.2735">
        <ele>15.12</ele>
        <time>2021-03-19T21:57:32Z</time>
      </trkpt>
      <trkpt lat="55.69792" lon="-5.27375">
        <ele>15.48</ele>
        <time>2021-03-19T21:57:36Z</time>
      </trkpt>
      <trkpt lat="55.69802" lon="-5.27431">
        <ele>15</ele>
        <time>2021-03-19T21:57:40Z</time>
      </trkpt>
      <trkpt lat="55.69844" lon="-5.27549">
        <ele>12</ele>
        <time>2021-03-19T21:57:43Z</time>
      </trkpt>
      <trkpt lat="55.69904" lon="-5.27711">
        <ele>9.84</ele>
        <time>2021-03-19T21:57:47Z</time>
      </trkpt>
      <trkpt lat="55.69917" lon="-5.27741">
        <ele>8.33</ele>
        <time>2021-03-19T21:57:51Z</time>
      </trkpt>
      <trkpt lat="55.69977" lon="-5.27903">
        <ele>8.31</ele>
        <time>2021-03-19T21:57:55Z</time>
      </trkpt>
      <trkpt lat="55.70082" lon="-5.28173">
        <ele>3.99</ele>
        <time>2021-03-19T21:57:59Z</time>
      </trkpt>
      <trkpt lat="55.70147" lon="-5.28363">
        <ele>3.69</ele>
        <time>2021-03-19T21:58:03Z</time>
      </trkpt>
      <trkpt lat="55.7018" lon="-5.28509">
        <ele>3.53</ele>
        <time>2021-03-19T21:58:07Z</time>
      </trkpt>
      <trkpt lat="55.70223" lon="-5.28688">
        <ele>6.53</ele>
        <time>2021-03-19T21:58:11Z</time>
      </trkpt>
      <trkpt lat="55.70233" lon="-5.28711">
        <ele>6.85</ele>
        <time>2021-03-19T21:58:15Z</time>
      </trkpt>
      <trkpt lat="55.70256" lon="-5.28743">
        <ele>6.77</ele>
        <time>2021-03-19T21:58:19Z</time>
      </trkpt>
      <trkpt lat="55.70329" lon="-5.2882">
        <ele>2.14</ele>
        <time>2021-03-19T21:58:23Z</time>
      </trkpt>
      <trkpt lat="55.70346" lon="-5.28846">
        <ele>1.52</ele>
        <time>2021-03-19T21:58:27Z</time>
      </trkpt>
      <trkpt lat="55.70354" lon="-5.28861">
        <ele>1.51</ele>
        <time>2021-03-19T21:58:31Z</time>
      </trkpt>
      <trkpt lat="55.70393" lon="-5.28974">
        <ele>1</ele>
        <time>2021-03-19T21:58:35Z</time>
      </trkpt>
      <trkpt lat="55.70398" lon="-5.28995">
        <ele>1</ele>
        <time>2021-03-19T21:58:39Z</time>
      </trkpt>
      <trkpt lat="55.70401" lon="-5.29018">
        <ele>1.37</ele>
        <time>2021-03-19T21:58:42Z</time>
      </trkpt>
      <trkpt lat="55.70401" lon="-5.29037">
        <ele>1.77</ele>
        <time>2021-03-19T21:58:46Z</time>
      </trkpt>
      <trkpt lat="55.70393" lon="-5.29124">
        <ele>5.13</ele>
        <time>2021-03-19T21:58:50Z</time>
      </trkpt>
      <trkpt lat="55.70395" lon="-5.29174">
        <ele>6.88</ele>
        <time>2021-03-19T21:58:54Z</time>
      </trkpt>
      <trkpt lat="55.70477" lon="-5.29423">
        <ele>4.53</ele>
        <time>2021-03-19T21:58:58Z</time>
      </trkpt>
      <trkpt lat="55.70481" lon="-5.29439">
        <ele>4.26</ele>
        <time>2021-03-19T21:59:02Z</time>
      </trkpt>
      <trkpt lat="55.70494" lon="-5.29512">
        <ele>3.14</ele>
        <time>2021-03-19T21:59:06Z</time>
      </trkpt>
      <trkpt lat="55.70505" lon="-5.29549">
        <ele>1.83</ele>
        <time>2021-03-19T21:59:10Z</time>
      </trkpt>
      <trkpt lat="55.70525" lon="-5.29598">
        <ele>2.4</ele>
        <time>2021-03-19T21:59:14Z</time>
      </trkpt>
      <trkpt lat="55.70525" lon="-5.29598">
        <ele>2.4</ele>
        <time>2021-03-19T21:59:14Z</time>
      </trkpt>
      <trkpt lat="55.70568" lon="-5.29706">
        <ele>1.92</ele>
        <time>2021-03-19T21:59:18Z</time>
      </trkpt>
      <trkpt lat="55.70616" lon="-5.29801">
        <ele>1.58</ele>
        <time>2021-03-19T21:59:23Z</time>
      </trkpt>
      <trkpt lat="55.70642" lon="-5.29859">
        <ele>2.75</ele>
        <time>2021-03-19T21:59:27Z</time>
      </trkpt>
      <trkpt lat="55.70647" lon="-5.29865">
        <ele>2.82</ele>
        <time>2021-03-19T21:59:31Z</time>
      </trkpt>
      <trkpt lat="55.70693" lon="-5.29881">
        <ele>1.08</ele>
        <time>2021-03-19T21:59:35Z</time>
      </trkpt>
      <trkpt lat="55.70704" lon="-5.29894">
        <ele>1.22</ele>
        <time>2021-03-19T21:59:40Z</time>
      </trkpt>
      <trkpt lat="55.70707" lon="-5.29908">
        <ele>1.73</ele>
        <time>2021-03-19T21:59:44Z</time>
      </trkpt>
      <trkpt lat="55.70712" lon="-5.29959">
        <ele>2.58</ele>
        <time>2021-03-19T21:59:48Z</time>
      </trkpt>
      <trkpt lat="55.70728" lon="-5.30057">
        <ele>3.41</ele>
        <time>2021-03-19T21:59:53Z</time>
      </trkpt>
      <trkpt lat="55.7075" lon="-5.30168">
        <ele>4.03</ele>
        <time>2021-03-19T21:59:57Z</time>
      </trkpt>
      <trkpt lat="55.70788" lon="-5.30143">
        <ele>5.48</ele>
        <time>2021-03-19T22:00:06Z</time>
      </trkpt>
      <trkpt lat="55.70804" lon="-5.30122">
        <ele>5.47</ele>
        <time>2021-03-19T22:04:31Z</time>
      </trkpt>
      <trkpt lat="55.70823" lon="-5.30104">
        <ele>5.45</ele>
        <time>2021-03-19T22:08:56Z</time>
      </trkpt>
      <trkpt lat="55.70859" lon="-5.30105">
        <ele>5.44</ele>
        <time>2021-03-19T22:13:21Z</time>
      </trkpt>
      <trkpt lat="55.70885" lon="-5.30135">
        <ele>5.43</ele>
        <time>2021-03-19T22:17:46Z</time>
      </trkpt>
      <trkpt lat="55.71661" lon="-5.31517">
        <ele>4.65</ele>
        <time>2021-03-19T22:22:11Z</time>
      </trkpt>
      <trkpt lat="55.72435" lon="-5.33109">
        <ele>3.74</ele>
        <time>2021-03-19T22:26:36Z</time>
      </trkpt>
      <trkpt lat="55.72793" lon="-5.3406">
        <ele>3.22</ele>
        <time>2021-03-19T22:31:01Z</time>
      </trkpt>
      <trkpt lat="55.73192" lon="-5.34942">
        <ele>2.73</ele>
        <time>2021-03-19T22:35:26Z</time>
      </trkpt>
      <trkpt lat="55.73321" lon="-5.3526">
        <ele>2.55</ele>
        <time>2021-03-19T22:39:51Z</time>
      </trkpt>
      <trkpt lat="55.74051" lon="-5.36882">
        <ele>1.64</ele>
        <time>2021-03-19T22:44:16Z</time>
      </trkpt>
      <trkpt lat="55.7422" lon="-5.37305">
        <ele>1.41</ele>
        <time>2021-03-19T22:48:41Z</time>
      </trkpt>
      <trkpt lat="55.74516" lon="-5.37967">
        <ele>1.04</ele>
        <time>2021-03-19T22:53:06Z</time>
      </trkpt>
      <trkpt lat="55.74598" lon="-5.38097">
        <ele>0.96</ele>
        <time>2021-03-19T22:57:31Z</time>
      </trkpt>
      <trkpt lat="55.7472" lon="-5.38367">
        <ele>0.81</ele>
        <time>2021-03-19T23:01:56Z</time>
      </trkpt>
      <trkpt lat="55.74783" lon="-5.38537">
        <ele>0.73</ele>
        <time>2021-03-19T23:06:21Z</time>
      </trkpt>
      <trkpt lat="55.74863" lon="-5.38715">
        <ele>0.64</ele>
        <time>2021-03-19T23:10:46Z</time>
      </trkpt>
      <trkpt lat="55.74912" lon="-5.38779">
        <ele>0.61</ele>
        <time>2021-03-19T23:15:11Z</time>
      </trkpt>
      <trkpt lat="55.7496" lon="-5.38808">
        <ele>0.59</ele>
        <time>2021-03-19T23:19:36Z</time>
      </trkpt>
      <trkpt lat="55.75067" lon="-5.38786">
        <ele>0.53</ele>
        <time>2021-03-19T23:24:01Z</time>
      </trkpt>
      <trkpt lat="55.75117" lon="-5.38771">
        <ele>1.65</ele>
        <time>2021-03-19T23:28:26Z</time>
      </trkpt>
      <trkpt lat="55.75125" lon="-5.3879">
        <ele>2.51</ele>
        <time>2021-03-19T23:32:51Z</time>
      </trkpt>
      <trkpt lat="55.75132" lon="-5.38813">
        <ele>2.73</ele>
        <time>2021-03-19T23:37:16Z</time>
      </trkpt>
      <trkpt lat="55.75142" lon="-5.38817">
        <ele>3.43</ele>
        <time>2021-03-19T23:41:41Z</time>
      </trkpt>
      <trkpt lat="55.75179" lon="-5.38935">
        <ele>8.02</ele>
        <time>2021-03-19T23:41:45Z</time>
      </trkpt>
      <trkpt lat="55.75185" lon="-5.38949">
        <ele>8.11</ele>
        <time>2021-03-19T23:41:48Z</time>
      </trkpt>
      <trkpt lat="55.75201" lon="-5.38977">
        <ele>8.18</ele>
        <time>2021-03-19T23:41:52Z</time>
      </trkpt>
      <trkpt lat="55.75402" lon="-5.39208">
        <ele>13.44</ele>
        <time>2021-03-19T23:41:55Z</time>
      </trkpt>
      <trkpt lat="55.75424" lon="-5.39249">
        <ele>12.88</ele>
        <time>2021-03-19T23:41:58Z</time>
      </trkpt>
      <trkpt lat="55.7545" lon="-5.39321">
        <ele>9.35</ele>
        <time>2021-03-19T23:42:02Z</time>
      </trkpt>
      <trkpt lat="55.75456" lon="-5.39334">
        <ele>8.81</ele>
        <time>2021-03-19T23:42:05Z</time>
      </trkpt>
      <trkpt lat="55.75594" lon="-5.39491">
        <ele>13.77</ele>
        <time>2021-03-19T23:42:09Z</time>
      </trkpt>
      <trkpt lat="55.75618" lon="-5.39473">
        <ele>17.43</ele>
        <time>2021-03-19T23:42:14Z</time>
      </trkpt>
      <trkpt lat="55.75627" lon="-5.39468">
        <ele>18.45</ele>
        <time>2021-03-19T23:42:19Z</time>
      </trkpt>
      <trkpt lat="55.75652" lon="-5.39465">
        <ele>20.45</ele>
        <time>2021-03-19T23:42:24Z</time>
      </trkpt>
      <trkpt lat="55.75753" lon="-5.39462">
        <ele>27.74</ele>
        <time>2021-03-19T23:42:29Z</time>
      </trkpt>
      <trkpt lat="55.75777" lon="-5.39466">
        <ele>27.43</ele>
        <time>2021-03-19T23:42:34Z</time>
      </trkpt>
      <trkpt lat="55.7581" lon="-5.39479">
        <ele>29.16</ele>
        <time>2021-03-19T23:42:39Z</time>
      </trkpt>
      <trkpt lat="55.75846" lon="-5.39507">
        <ele>33.78</ele>
        <time>2021-03-19T23:42:44Z</time>
      </trkpt>
      <trkpt lat="55.75906" lon="-5.39566">
        <ele>35.51</ele>
        <time>2021-03-19T23:42:49Z</time>
      </trkpt>
      <trkpt lat="55.76023" lon="-5.3969">
        <ele>42.61</ele>
        <time>2021-03-19T23:42:54Z</time>
      </trkpt>
      <trkpt lat="55.76117" lon="-5.39773">
        <ele>46.03</ele>
        <time>2021-03-19T23:42:59Z</time>
      </trkpt>
      <trkpt lat="55.76359" lon="-5.39938">
        <ele>55.53</ele>
        <time>2021-03-19T23:43:04Z</time>
      </trkpt>
      <trkpt lat="55.76409" lon="-5.39984">
        <ele>53.36</ele>
        <time>2021-03-19T23:43:09Z</time>
      </trkpt>
      <trkpt lat="55.76511" lon="-5.40055">
        <ele>55.31</ele>
        <time>2021-03-19T23:43:15Z</time>
      </trkpt>
      <trkpt lat="55.76539" lon="-5.40125">
        <ele>54.14</ele>
        <time>2021-03-19T23:43:20Z</time>
      </trkpt>
      <trkpt lat="55.76576" lon="-5.40187">
        <ele>53.95</ele>
        <time>2021-03-19T23:43:25Z</time>
      </trkpt>
      <trkpt lat="55.76694" lon="-5.40272">
        <ele>48.6</ele>
        <time>2021-03-19T23:43:30Z</time>
      </trkpt>
      <trkpt lat="55.7672" lon="-5.40286">
        <ele>45.64</ele>
        <time>2021-03-19T23:43:35Z</time>
      </trkpt>
      <trkpt lat="55.76741" lon="-5.40295">
        <ele>43.72</ele>
        <time>2021-03-19T23:43:40Z</time>
      </trkpt>
      <trkpt lat="55.76757" lon="-5.40297">
        <ele>43.02</ele>
        <time>2021-03-19T23:43:45Z</time>
      </trkpt>
      <trkpt lat="55.7679" lon="-5.40296">
        <ele>42.58</ele>
        <time>2021-03-19T23:43:50Z</time>
      </trkpt>
      <trkpt lat="55.76855" lon="-5.40321">
        <ele>41.4</ele>
        <time>2021-03-19T23:43:55Z</time>
      </trkpt>
      <trkpt lat="55.76865" lon="-5.40328">
        <ele>40.82</ele>
        <time>2021-03-19T23:44:00Z</time>
      </trkpt>
      <trkpt lat="55.76873" lon="-5.40339">
        <ele>39.77</ele>
        <time>2021-03-19T23:44:05Z</time>
      </trkpt>
      <trkpt lat="55.7688" lon="-5.40353">
        <ele>38.58</ele>
        <time>2021-03-19T23:44:10Z</time>
      </trkpt>
      <trkpt lat="55.76908" lon="-5.40424">
        <ele>34.93</ele>
        <time>2021-03-19T23:44:15Z</time>
      </trkpt>
      <trkpt lat="55.76926" lon="-5.40449">
        <ele>34.87</ele>
        <time>2021-03-19T23:44:20Z</time>
      </trkpt>
      <trkpt lat="55.76935" lon="-5.40466">
        <ele>35.22</ele>
        <time>2021-03-19T23:44:25Z</time>
      </trkpt>
      <trkpt lat="55.77019" lon="-5.40652">
        <ele>37.73</ele>
        <time>2021-03-19T23:44:30Z</time>
      </trkpt>
      <trkpt lat="55.7712" lon="-5.40886">
        <ele>44.44</ele>
        <time>2021-03-19T23:44:35Z</time>
      </trkpt>
      <trkpt lat="55.77367" lon="-5.41492">
        <ele>67.67</ele>
        <time>2021-03-19T23:44:40Z</time>
      </trkpt>
      <trkpt lat="55.77405" lon="-5.41547">
        <ele>70.34</ele>
        <time>2021-03-19T23:44:46Z</time>
      </trkpt>
      <trkpt lat="55.77447" lon="-5.41592">
        <ele>72.15</ele>
        <time>2021-03-19T23:44:51Z</time>
      </trkpt>
      <trkpt lat="55.77564" lon="-5.41686">
        <ele>80.09</ele>
        <time>2021-03-19T23:44:56Z</time>
      </trkpt>
      <trkpt lat="55.77573" lon="-5.4169">
        <ele>80.58</ele>
        <time>2021-03-19T23:45:01Z</time>
      </trkpt>
      <trkpt lat="55.7761" lon="-5.41683">
        <ele>84.43</ele>
        <time>2021-03-19T23:45:06Z</time>
      </trkpt>
      <trkpt lat="55.7762" lon="-5.4169">
        <ele>86.12</ele>
        <time>2021-03-19T23:45:11Z</time>
      </trkpt>
      <trkpt lat="55.77623" lon="-5.41715">
        <ele>87.12</ele>
        <time>2021-03-19T23:45:16Z</time>
      </trkpt>
      <trkpt lat="55.77618" lon="-5.41749">
        <ele>87.68</ele>
        <time>2021-03-19T23:45:21Z</time>
      </trkpt>
      <trkpt lat="55.77618" lon="-5.41799">
        <ele>89.65</ele>
        <time>2021-03-19T23:45:26Z</time>
      </trkpt>
      <trkpt lat="55.77725" lon="-5.42223">
        <ele>108.28</ele>
        <time>2021-03-19T23:45:31Z</time>
      </trkpt>
      <trkpt lat="55.77996" lon="-5.43128">
        <ele>126.14</ele>
        <time>2021-03-19T23:45:36Z</time>
      </trkpt>
      <trkpt lat="55.78133" lon="-5.43544">
        <ele>128.72</ele>
        <time>2021-03-19T23:45:41Z</time>
      </trkpt>
      <trkpt lat="55.7816" lon="-5.43609">
        <ele>129.38</ele>
        <time>2021-03-19T23:45:46Z</time>
      </trkpt>
      <trkpt lat="55.78251" lon="-5.43741">
        <ele>127.47</ele>
        <time>2021-03-19T23:45:51Z</time>
      </trkpt>
      <trkpt lat="55.78544" lon="-5.441">
        <ele>121.59</ele>
        <time>2021-03-19T23:45:56Z</time>
      </trkpt>
      <trkpt lat="55.78977" lon="-5.44668">
        <ele>122.62</ele>
        <time>2021-03-19T23:46:01Z</time>
      </trkpt>
      <trkpt lat="55.79109" lon="-5.44827">
        <ele>122.11</ele>
        <time>2021-03-19T23:46:06Z</time>
      </trkpt>
      <trkpt lat="55.79261" lon="-5.45073">
        <ele>122.62</ele>
        <time>2021-03-19T23:46:11Z</time>
      </trkpt>
      <trkpt lat="55.79597" lon="-5.45485">
        <ele>102.33</ele>
        <time>2021-03-19T23:46:17Z</time>
      </trkpt>
      <trkpt lat="55.79605" lon="-5.45512">
        <ele>100.94</ele>
        <time>2021-03-19T23:46:22Z</time>
      </trkpt>
      <trkpt lat="55.79612" lon="-5.45621">
        <ele>96.81</ele>
        <time>2021-03-19T23:46:27Z</time>
      </trkpt>
      <trkpt lat="55.79651" lon="-5.45826">
        <ele>83.6</ele>
        <time>2021-03-19T23:46:32Z</time>
      </trkpt>
      <trkpt lat="55.79656" lon="-5.46068">
        <ele>67.72</ele>
        <time>2021-03-19T23:46:37Z</time>
      </trkpt>
      <trkpt lat="55.79682" lon="-5.46205">
        <ele>59.94</ele>
        <time>2021-03-19T23:46:42Z</time>
      </trkpt>
      <trkpt lat="55.79721" lon="-5.46323">
        <ele>52.4</ele>
        <time>2021-03-19T23:46:47Z</time>
      </trkpt>
      <trkpt lat="55.79724" lon="-5.4648">
        <ele>49.08</ele>
        <time>2021-03-19T23:46:52Z</time>
      </trkpt>
      <trkpt lat="55.79732" lon="-5.46539">
        <ele>47.59</ele>
        <time>2021-03-19T23:46:57Z</time>
      </trkpt>
      <trkpt lat="55.79813" lon="-5.46747">
        <ele>34.92</ele>
        <time>2021-03-19T23:47:02Z</time>
      </trkpt>
      <trkpt lat="55.79837" lon="-5.46792">
        <ele>32.36</ele>
        <time>2021-03-19T23:47:07Z</time>
      </trkpt>
      <trkpt lat="55.7986" lon="-5.46868">
        <ele>29.77</ele>
        <time>2021-03-19T23:47:12Z</time>
      </trkpt>
      <trkpt lat="55.80042" lon="-5.47328">
        <ele>11.97</ele>
        <time>2021-03-19T23:47:17Z</time>
      </trkpt>
      <trkpt lat="55.80119" lon="-5.47528">
        <ele>8.43</ele>
        <time>2021-03-19T23:47:22Z</time>
      </trkpt>
      <trkpt lat="55.80177" lon="-5.47518">
        <ele>6.99</ele>
        <time>2021-03-19T23:47:26Z</time>
      </trkpt>
      <trkpt lat="55.802" lon="-5.47523">
        <ele>6.34</ele>
        <time>2021-03-19T23:47:30Z</time>
      </trkpt>
      <trkpt lat="55.8022" lon="-5.47533">
        <ele>6.92</ele>
        <time>2021-03-19T23:47:34Z</time>
      </trkpt>
      <trkpt lat="55.80238" lon="-5.47546">
        <ele>7</ele>
        <time>2021-03-19T23:47:37Z</time>
      </trkpt>
      <trkpt lat="55.80266" lon="-5.47579">
        <ele>7.33</ele>
        <time>2021-03-19T23:47:41Z</time>
      </trkpt>
      <trkpt lat="55.80278" lon="-5.476">
        <ele>8.03</ele>
        <time>2021-03-19T23:47:45Z</time>
      </trkpt>
      <trkpt lat="55.80328" lon="-5.47727">
        <ele>5.79</ele>
        <time>2021-03-19T23:47:49Z</time>
      </trkpt>
      <trkpt lat="55.8035" lon="-5.47762">
        <ele>6.59</ele>
        <time>2021-03-19T23:47:52Z</time>
      </trkpt>
      <trkpt lat="55.80378" lon="-5.47792">
        <ele>6.76</ele>
        <time>2021-03-19T23:47:56Z</time>
      </trkpt>
      <trkpt lat="55.80405" lon="-5.47807">
        <ele>5.96</ele>
        <time>2021-03-19T23:48:00Z</time>
      </trkpt>
      <trkpt lat="55.80428" lon="-5.47811">
        <ele>5.41</ele>
        <time>2021-03-19T23:48:04Z</time>
      </trkpt>
      <trkpt lat="55.80445" lon="-5.47809">
        <ele>4.88</ele>
        <time>2021-03-19T23:48:08Z</time>
      </trkpt>
      <trkpt lat="55.80584" lon="-5.47768">
        <ele>3.66</ele>
        <time>2021-03-19T23:48:11Z</time>
      </trkpt>
      <trkpt lat="55.8064" lon="-5.4775">
        <ele>6.95</ele>
        <time>2021-03-19T23:48:15Z</time>
      </trkpt>
      <trkpt lat="55.80665" lon="-5.4774">
        <ele>6.41</ele>
        <time>2021-03-19T23:48:19Z</time>
      </trkpt>
      <trkpt lat="55.80686" lon="-5.47725">
        <ele>5.44</ele>
        <time>2021-03-19T23:48:23Z</time>
      </trkpt>
      <trkpt lat="55.8079" lon="-5.4763">
        <ele>9.75</ele>
        <time>2021-03-19T23:48:26Z</time>
      </trkpt>
      <trkpt lat="55.80807" lon="-5.47609">
        <ele>11.33</ele>
        <time>2021-03-19T23:48:30Z</time>
      </trkpt>
      <trkpt lat="55.80831" lon="-5.47576">
        <ele>14.98</ele>
        <time>2021-03-19T23:48:34Z</time>
      </trkpt>
      <trkpt lat="55.80858" lon="-5.47525">
        <ele>16.77</ele>
        <time>2021-03-19T23:48:38Z</time>
      </trkpt>
      <trkpt lat="55.80911" lon="-5.4739">
        <ele>18.58</ele>
        <time>2021-03-19T23:48:42Z</time>
      </trkpt>
      <trkpt lat="55.81005" lon="-5.47173">
        <ele>19.63</ele>
        <time>2021-03-19T23:48:45Z</time>
      </trkpt>
      <trkpt lat="55.8103" lon="-5.47128">
        <ele>20.24</ele>
        <time>2021-03-19T23:48:49Z</time>
      </trkpt>
      <trkpt lat="55.81056" lon="-5.47093">
        <ele>17.97</ele>
        <time>2021-03-19T23:48:53Z</time>
      </trkpt>
      <trkpt lat="55.81074" lon="-5.47076">
        <ele>17.4</ele>
        <time>2021-03-19T23:48:57Z</time>
      </trkpt>
      <trkpt lat="55.81116" lon="-5.47049">
        <ele>16.23</ele>
        <time>2021-03-19T23:49:00Z</time>
      </trkpt>
      <trkpt lat="55.81179" lon="-5.47017">
        <ele>14.54</ele>
        <time>2021-03-19T23:49:04Z</time>
      </trkpt>
      <trkpt lat="55.81217" lon="-5.46994">
        <ele>12.64</ele>
        <time>2021-03-19T23:49:08Z</time>
      </trkpt>
      <trkpt lat="55.8125" lon="-5.46966">
        <ele>11</ele>
        <time>2021-03-19T23:49:12Z</time>
      </trkpt>
      <trkpt lat="55.81271" lon="-5.46943">
        <ele>11.1</ele>
        <time>2021-03-19T23:49:16Z</time>
      </trkpt>
      <trkpt lat="55.81345" lon="-5.46835">
        <ele>14.48</ele>
        <time>2021-03-19T23:49:19Z</time>
      </trkpt>
      <trkpt lat="55.81373" lon="-5.46805">
        <ele>15.01</ele>
        <time>2021-03-19T23:49:23Z</time>
      </trkpt>
      <trkpt lat="55.81398" lon="-5.46785">
        <ele>14.18</ele>
        <time>2021-03-19T23:49:27Z</time>
      </trkpt>
      <trkpt lat="55.81431" lon="-5.46766">
        <ele>12.95</ele>
        <time>2021-03-19T23:49:31Z</time>
      </trkpt>
      <trkpt lat="55.81547" lon="-5.46724">
        <ele>8.91</ele>
        <time>2021-03-19T23:49:34Z</time>
      </trkpt>
      <trkpt lat="55.816" lon="-5.467">
        <ele>10.31</ele>
        <time>2021-03-19T23:49:38Z</time>
      </trkpt>
      <trkpt lat="55.81636" lon="-5.46678">
        <ele>11.49</ele>
        <time>2021-03-19T23:49:42Z</time>
      </trkpt>
      <trkpt lat="55.81709" lon="-5.46616">
        <ele>10.61</ele>
        <time>2021-03-19T23:49:46Z</time>
      </trkpt>
      <trkpt lat="55.81735" lon="-5.46602">
        <ele>9.19</ele>
        <time>2021-03-19T23:49:50Z</time>
      </trkpt>
      <trkpt lat="55.81797" lon="-5.4658">
        <ele>3.81</ele>
        <time>2021-03-19T23:49:53Z</time>
      </trkpt>
      <trkpt lat="55.8198" lon="-5.46525">
        <ele>4.46</ele>
        <time>2021-03-19T23:49:57Z</time>
      </trkpt>
      <trkpt lat="55.82008" lon="-5.46515">
        <ele>5.48</ele>
        <time>2021-03-19T23:50:01Z</time>
      </trkpt>
      <trkpt lat="55.82029" lon="-5.46503">
        <ele>5.86</ele>
        <time>2021-03-19T23:50:05Z</time>
      </trkpt>
      <trkpt lat="55.82064" lon="-5.46473">
        <ele>5.97</ele>
        <time>2021-03-19T23:50:08Z</time>
      </trkpt>
      <trkpt lat="55.82079" lon="-5.46456">
        <ele>6.67</ele>
        <time>2021-03-19T23:50:12Z</time>
      </trkpt>
      <trkpt lat="55.82149" lon="-5.46351">
        <ele>7.35</ele>
        <time>2021-03-19T23:50:16Z</time>
      </trkpt>
      <trkpt lat="55.82167" lon="-5.46331">
        <ele>8</ele>
        <time>2021-03-19T23:50:20Z</time>
      </trkpt>
      <trkpt lat="55.82192" lon="-5.4631">
        <ele>8.78</ele>
        <time>2021-03-19T23:50:24Z</time>
      </trkpt>
      <trkpt lat="55.82254" lon="-5.46281">
        <ele>14.79</ele>
        <time>2021-03-19T23:50:27Z</time>
      </trkpt>
      <trkpt lat="55.82278" lon="-5.46265">
        <ele>16.46</ele>
        <time>2021-03-19T23:50:31Z</time>
      </trkpt>
      <trkpt lat="55.82493" lon="-5.46096">
        <ele>21.08</ele>
        <time>2021-03-19T23:50:35Z</time>
      </trkpt>
      <trkpt lat="55.82512" lon="-5.46086">
        <ele>19.67</ele>
        <time>2021-03-19T23:50:39Z</time>
      </trkpt>
      <trkpt lat="55.82663" lon="-5.46053">
        <ele>17.3</ele>
        <time>2021-03-19T23:50:42Z</time>
      </trkpt>
      <trkpt lat="55.82684" lon="-5.46045">
        <ele>17.14</ele>
        <time>2021-03-19T23:50:46Z</time>
      </trkpt>
      <trkpt lat="55.8271" lon="-5.46028">
        <ele>16.83</ele>
        <time>2021-03-19T23:50:50Z</time>
      </trkpt>
      <trkpt lat="55.82741" lon="-5.45992">
        <ele>14.99</ele>
        <time>2021-03-19T23:50:54Z</time>
      </trkpt>
      <trkpt lat="55.82749" lon="-5.45978">
        <ele>13.93</ele>
        <time>2021-03-19T23:50:58Z</time>
      </trkpt>
      <trkpt lat="55.82758" lon="-5.45959">
        <ele>13.6</ele>
        <time>2021-03-19T23:51:01Z</time>
      </trkpt>
      <trkpt lat="55.82788" lon="-5.4587">
        <ele>11.48</ele>
        <time>2021-03-19T23:51:05Z</time>
      </trkpt>
      <trkpt lat="55.82802" lon="-5.45838">
        <ele>8.66</ele>
        <time>2021-03-19T23:51:09Z</time>
      </trkpt>
      <trkpt lat="55.82827" lon="-5.45791">
        <ele>5.68</ele>
        <time>2021-03-19T23:51:13Z</time>
      </trkpt>
      <trkpt lat="55.82844" lon="-5.45767">
        <ele>4.62</ele>
        <time>2021-03-19T23:51:16Z</time>
      </trkpt>
      <trkpt lat="55.82875" lon="-5.45735">
        <ele>4.05</ele>
        <time>2021-03-19T23:51:20Z</time>
      </trkpt>
      <trkpt lat="55.82939" lon="-5.45685">
        <ele>5.98</ele>
        <time>2021-03-19T23:51:24Z</time>
      </trkpt>
      <trkpt lat="55.83282" lon="-5.45428">
        <ele>7.72</ele>
        <time>2021-03-19T23:51:28Z</time>
      </trkpt>
      <trkpt lat="55.8335" lon="-5.45384">
        <ele>11.07</ele>
        <time>2021-03-19T23:51:32Z</time>
      </trkpt>
      <trkpt lat="55.83405" lon="-5.45338">
        <ele>11.1</ele>
        <time>2021-03-19T23:51:35Z</time>
      </trkpt>
      <trkpt lat="55.83415" lon="-5.45326">
        <ele>11.54</ele>
        <time>2021-03-19T23:51:39Z</time>
      </trkpt>
      <trkpt lat="55.83425" lon="-5.45309">
        <ele>12.77</ele>
        <time>2021-03-19T23:51:43Z</time>
      </trkpt>
      <trkpt lat="55.83451" lon="-5.45261">
        <ele>14.21</ele>
        <time>2021-03-19T23:51:47Z</time>
      </trkpt>
      <trkpt lat="55.83546" lon="-5.45063">
        <ele>10.85</ele>
        <time>2021-03-19T23:51:50Z</time>
      </trkpt>
      <trkpt lat="55.83579" lon="-5.44992">
        <ele>12.59</ele>
        <time>2021-03-19T23:51:54Z</time>
      </trkpt>
      <trkpt lat="55.83696" lon="-5.44723">
        <ele>7.7</ele>
        <time>2021-03-19T23:51:58Z</time>
      </trkpt>
      <trkpt lat="55.83717" lon="-5.44687">
        <ele>4.99</ele>
        <time>2021-03-19T23:52:02Z</time>
      </trkpt>
      <trkpt lat="55.83733" lon="-5.44667">
        <ele>5.39</ele>
        <time>2021-03-19T23:52:06Z</time>
      </trkpt>
      <trkpt lat="55.8376" lon="-5.44643">
        <ele>6</ele>
        <time>2021-03-19T23:52:09Z</time>
      </trkpt>
      <trkpt lat="55.83779" lon="-5.44633">
        <ele>6.06</ele>
        <time>2021-03-19T23:52:13Z</time>
      </trkpt>
      <trkpt lat="55.8382" lon="-5.44625">
        <ele>9.59</ele>
        <time>2021-03-19T23:52:17Z</time>
      </trkpt>
      <trkpt lat="55.83897" lon="-5.4464">
        <ele>14.67</ele>
        <time>2021-03-19T23:52:21Z</time>
      </trkpt>
      <trkpt lat="55.83923" lon="-5.44641">
        <ele>14.16</ele>
        <time>2021-03-19T23:52:24Z</time>
      </trkpt>
      <trkpt lat="55.83944" lon="-5.44633">
        <ele>15.43</ele>
        <time>2021-03-19T23:52:28Z</time>
      </trkpt>
      <trkpt lat="55.83973" lon="-5.44612">
        <ele>15.93</ele>
        <time>2021-03-19T23:52:32Z</time>
      </trkpt>
      <trkpt lat="55.84016" lon="-5.44591">
        <ele>14.99</ele>
        <time>2021-03-19T23:52:36Z</time>
      </trkpt>
      <trkpt lat="55.84032" lon="-5.44589">
        <ele>14.26</ele>
        <time>2021-03-19T23:52:40Z</time>
      </trkpt>
      <trkpt lat="55.8406" lon="-5.44594">
        <ele>12.06</ele>
        <time>2021-03-19T23:52:43Z</time>
      </trkpt>
      <trkpt lat="55.84145" lon="-5.44614">
        <ele>3.89</ele>
        <time>2021-03-19T23:52:47Z</time>
      </trkpt>
      <trkpt lat="55.84268" lon="-5.44677">
        <ele>9.64</ele>
        <time>2021-03-19T23:52:51Z</time>
      </trkpt>
      <trkpt lat="55.84292" lon="-5.44682">
        <ele>8.83</ele>
        <time>2021-03-19T23:52:55Z</time>
      </trkpt>
      <trkpt lat="55.84309" lon="-5.4468">
        <ele>8.35</ele>
        <time>2021-03-19T23:52:58Z</time>
      </trkpt>
      <trkpt lat="55.84367" lon="-5.44656">
        <ele>8.28</ele>
        <time>2021-03-19T23:53:02Z</time>
      </trkpt>
      <trkpt lat="55.8449" lon="-5.44598">
        <ele>13.27</ele>
        <time>2021-03-19T23:53:06Z</time>
      </trkpt>
      <trkpt lat="55.8453" lon="-5.44572">
        <ele>13.41</ele>
        <time>2021-03-19T23:53:10Z</time>
      </trkpt>
      <trkpt lat="55.84627" lon="-5.44485">
        <ele>15.03</ele>
        <time>2021-03-19T23:53:14Z</time>
      </trkpt>
      <trkpt lat="55.84662" lon="-5.44459">
        <ele>15.8</ele>
        <time>2021-03-19T23:53:17Z</time>
      </trkpt>
      <trkpt lat="55.84852" lon="-5.44342">
        <ele>26.78</ele>
        <time>2021-03-19T23:53:21Z</time>
      </trkpt>
      <trkpt lat="55.85036" lon="-5.44225">
        <ele>37.04</ele>
        <time>2021-03-19T23:53:25Z</time>
      </trkpt>
      <trkpt lat="55.85134" lon="-5.44156">
        <ele>39.45</ele>
        <time>2021-03-19T23:53:29Z</time>
      </trkpt>
      <trkpt lat="55.85205" lon="-5.44104">
        <ele>36.55</ele>
        <time>2021-03-19T23:53:32Z</time>
      </trkpt>
      <trkpt lat="55.85264" lon="-5.44068">
        <ele>32.89</ele>
        <time>2021-03-19T23:53:36Z</time>
      </trkpt>
      <trkpt lat="55.85346" lon="-5.44059">
        <ele>22.69</ele>
        <time>2021-03-19T23:53:40Z</time>
      </trkpt>
      <trkpt lat="55.85375" lon="-5.4405">
        <ele>19.18</ele>
        <time>2021-03-19T23:53:44Z</time>
      </trkpt>
      <trkpt lat="55.854" lon="-5.44038">
        <ele>15.8</ele>
        <time>2021-03-19T23:53:48Z</time>
      </trkpt>
      <trkpt lat="55.85427" lon="-5.44016">
        <ele>11.29</ele>
        <time>2021-03-19T23:53:51Z</time>
      </trkpt>
      <trkpt lat="55.85454" lon="-5.43986">
        <ele>7.6</ele>
        <time>2021-03-19T23:53:55Z</time>
      </trkpt>
      <trkpt lat="55.85477" lon="-5.43952">
        <ele>4.46</ele>
        <time>2021-03-19T23:53:59Z</time>
      </trkpt>
      <trkpt lat="55.85496" lon="-5.43913">
        <ele>2.53</ele>
        <time>2021-03-19T23:54:03Z</time>
      </trkpt>
      <trkpt lat="55.85513" lon="-5.43871">
        <ele>2.04</ele>
        <time>2021-03-19T23:54:06Z</time>
      </trkpt>
      <trkpt lat="55.85528" lon="-5.43826">
        <ele>0.8</ele>
        <time>2021-03-19T23:54:10Z</time>
      </trkpt>
      <trkpt lat="55.85542" lon="-5.43791">
        <ele>3.98</ele>
        <time>2021-03-19T23:54:14Z</time>
      </trkpt>
      <trkpt lat="55.85559" lon="-5.43759">
        <ele>7.61</ele>
        <time>2021-03-19T23:54:18Z</time>
      </trkpt>
      <trkpt lat="55.85628" lon="-5.43671">
        <ele>7.74</ele>
        <time>2021-03-19T23:54:22Z</time>
      </trkpt>
      <trkpt lat="55.85648" lon="-5.43641">
        <ele>6.81</ele>
        <time>2021-03-19T23:54:25Z</time>
      </trkpt>
      <trkpt lat="55.85659" lon="-5.43618">
        <ele>5.8</ele>
        <time>2021-03-19T23:54:29Z</time>
      </trkpt>
      <trkpt lat="55.85785" lon="-5.43232">
        <ele>8.17</ele>
        <time>2021-03-19T23:54:33Z</time>
      </trkpt>
      <trkpt lat="55.85881" lon="-5.42923">
        <ele>16.09</ele>
        <time>2021-03-19T23:54:37Z</time>
      </trkpt>
      <trkpt lat="55.85915" lon="-5.42806">
        <ele>19.24</ele>
        <time>2021-03-19T23:54:40Z</time>
      </trkpt>
      <trkpt lat="55.8594" lon="-5.42709">
        <ele>21.14</ele>
        <time>2021-03-19T23:54:44Z</time>
      </trkpt>
      <trkpt lat="55.85975" lon="-5.42618">
        <ele>21.54</ele>
        <time>2021-03-19T23:54:48Z</time>
      </trkpt>
      <trkpt lat="55.8603" lon="-5.42422">
        <ele>17.52</ele>
        <time>2021-03-19T23:54:52Z</time>
      </trkpt>
      <trkpt lat="55.86051" lon="-5.42354">
        <ele>12.97</ele>
        <time>2021-03-19T23:54:56Z</time>
      </trkpt>
      <trkpt lat="55.86188" lon="-5.41978">
        <ele>15.23</ele>
        <time>2021-03-19T23:54:59Z</time>
      </trkpt>
      <trkpt lat="55.86215" lon="-5.41912">
        <ele>14.69</ele>
        <time>2021-03-19T23:55:03Z</time>
      </trkpt>
      <trkpt lat="55.86294" lon="-5.41754">
        <ele>14.79</ele>
        <time>2021-03-19T23:55:07Z</time>
      </trkpt>
      <trkpt lat="55.86318" lon="-5.41701">
        <ele>13.25</ele>
        <time>2021-03-19T23:55:11Z</time>
      </trkpt>
      <trkpt lat="55.86326" lon="-5.41668">
        <ele>11.31</ele>
        <time>2021-03-19T23:55:14Z</time>
      </trkpt>
      <trkpt lat="55.86336" lon="-5.41559">
        <ele>6.12</ele>
        <time>2021-03-19T23:55:18Z</time>
      </trkpt>
      <trkpt lat="55.8634" lon="-5.41538">
        <ele>5.86</ele>
        <time>2021-03-19T23:55:22Z</time>
      </trkpt>
      <trkpt lat="55.86345" lon="-5.41528">
        <ele>5.58</ele>
        <time>2021-03-19T23:55:26Z</time>
      </trkpt>
      <trkpt lat="55.8638" lon="-5.41522">
        <ele>6</ele>
        <time>2021-03-19T23:55:29Z</time>
      </trkpt>
      <trkpt lat="55.8644" lon="-5.41491">
        <ele>8.85</ele>
        <time>2021-03-19T23:55:33Z</time>
      </trkpt>
      <trkpt lat="55.86542" lon="-5.41447">
        <ele>11.64</ele>
        <time>2021-03-19T23:55:37Z</time>
      </trkpt>
      <trkpt lat="55.86601" lon="-5.41419">
        <ele>14.76</ele>
        <time>2021-03-19T23:55:41Z</time>
      </trkpt>
      <trkpt lat="55.86601" lon="-5.41406">
        <ele>12.94</ele>
        <time>2021-03-19T23:55:45Z</time>
      </trkpt>
      <trkpt lat="55.86617" lon="-5.41341">
        <ele>9.22</ele>
        <time>2021-03-19T23:55:50Z</time>
      </trkpt>
      <trkpt lat="55.86634" lon="-5.41303">
        <ele>9.28</ele>
        <time>2021-03-19T23:55:54Z</time>
      </trkpt>
      <trkpt lat="55.86649" lon="-5.41282">
        <ele>9.61</ele>
        <time>2021-03-19T23:55:58Z</time>
      </trkpt>
      <trkpt lat="55.86649" lon="-5.41282">
        <ele>9.61</ele>
        <time>2021-03-19T23:55:58Z</time>
      </trkpt>
      <trkpt lat="55.86634" lon="-5.41303">
        <ele>9.28</ele>
        <time>2021-03-19T23:56:03Z</time>
      </trkpt>
      <trkpt lat="55.86617" lon="-5.41341">
        <ele>9.22</ele>
        <time>2021-03-19T23:56:07Z</time>
      </trkpt>
      <trkpt lat="55.86601" lon="-5.41406">
        <ele>12.94</ele>
        <time>2021-03-19T23:56:11Z</time>
      </trkpt>
      <trkpt lat="55.86601" lon="-5.41419">
        <ele>14.76</ele>
        <time>2021-03-19T23:56:16Z</time>
      </trkpt>
      <trkpt lat="55.86771" lon="-5.41305">
        <ele>24.47</ele>
        <time>2021-03-19T23:56:19Z</time>
      </trkpt>
      <trkpt lat="55.86792" lon="-5.41294">
        <ele>25</ele>
        <time>2021-03-19T23:56:23Z</time>
      </trkpt>
      <trkpt lat="55.8682" lon="-5.41286">
        <ele>26.82</ele>
        <time>2021-03-19T23:56:27Z</time>
      </trkpt>
      <trkpt lat="55.86856" lon="-5.41271">
        <ele>29.23</ele>
        <time>2021-03-19T23:56:30Z</time>
      </trkpt>
      <trkpt lat="55.86886" lon="-5.41245">
        <ele>30.47</ele>
        <time>2021-03-19T23:56:34Z</time>
      </trkpt>
      <trkpt lat="55.86952" lon="-5.41171">
        <ele>32.68</ele>
        <time>2021-03-19T23:56:38Z</time>
      </trkpt>
      <trkpt lat="55.86974" lon="-5.41155">
        <ele>35.41</ele>
        <time>2021-03-19T23:56:42Z</time>
      </trkpt>
      <trkpt lat="55.87011" lon="-5.41128">
        <ele>38.36</ele>
        <time>2021-03-19T23:56:45Z</time>
      </trkpt>
      <trkpt lat="55.8715" lon="-5.41046">
        <ele>47.59</ele>
        <time>2021-03-19T23:56:49Z</time>
      </trkpt>
      <trkpt lat="55.87268" lon="-5.4099">
        <ele>47.9</ele>
        <time>2021-03-19T23:56:53Z</time>
      </trkpt>
      <trkpt lat="55.87443" lon="-5.40921">
        <ele>50</ele>
        <time>2021-03-19T23:56:57Z</time>
      </trkpt>
      <trkpt lat="55.87528" lon="-5.40907">
        <ele>49.56</ele>
        <time>2021-03-19T23:57:00Z</time>
      </trkpt>
      <trkpt lat="55.87561" lon="-5.40911">
        <ele>52.31</ele>
        <time>2021-03-19T23:57:04Z</time>
      </trkpt>
      <trkpt lat="55.87601" lon="-5.40932">
        <ele>54.03</ele>
        <time>2021-03-19T23:57:08Z</time>
      </trkpt>
      <trkpt lat="55.87627" lon="-5.40955">
        <ele>53.25</ele>
        <time>2021-03-19T23:57:11Z</time>
      </trkpt>
      <trkpt lat="55.87688" lon="-5.41025">
        <ele>50.12</ele>
        <time>2021-03-19T23:57:15Z</time>
      </trkpt>
      <trkpt lat="55.87727" lon="-5.41051">
        <ele>50.44</ele>
        <time>2021-03-19T23:57:19Z</time>
      </trkpt>
      <trkpt lat="55.87807" lon="-5.4109">
        <ele>52.11</ele>
        <time>2021-03-19T23:57:23Z</time>
      </trkpt>
      <trkpt lat="55.87914" lon="-5.41231">
        <ele>58.84</ele>
        <time>2021-03-19T23:57:26Z</time>
      </trkpt>
      <trkpt lat="55.87947" lon="-5.41286">
        <ele>56.5</ele>
        <time>2021-03-19T23:57:30Z</time>
      </trkpt>
      <trkpt lat="55.87969" lon="-5.41346">
        <ele>57.78</ele>
        <time>2021-03-19T23:57:34Z</time>
      </trkpt>
      <trkpt lat="55.87983" lon="-5.41403">
        <ele>60.08</ele>
        <time>2021-03-19T23:57:38Z</time>
      </trkpt>
      <trkpt lat="55.87988" lon="-5.41472">
        <ele>62.1</ele>
        <time>2021-03-19T23:57:41Z</time>
      </trkpt>
      <trkpt lat="55.87985" lon="-5.41525">
        <ele>62.25</ele>
        <time>2021-03-19T23:57:45Z</time>
      </trkpt>
      <trkpt lat="55.87978" lon="-5.41583">
        <ele>63.18</ele>
        <time>2021-03-19T23:57:49Z</time>
      </trkpt>
      <trkpt lat="55.87979" lon="-5.41648">
        <ele>64.08</ele>
        <time>2021-03-19T23:57:52Z</time>
      </trkpt>
      <trkpt lat="55.87987" lon="-5.41706">
        <ele>64.12</ele>
        <time>2021-03-19T23:57:56Z</time>
      </trkpt>
      <trkpt lat="55.88006" lon="-5.4178">
        <ele>65.54</ele>
        <time>2021-03-19T23:58:00Z</time>
      </trkpt>
      <trkpt lat="55.88025" lon="-5.41839">
        <ele>67.46</ele>
        <time>2021-03-19T23:58:04Z</time>
      </trkpt>
      <trkpt lat="55.8807" lon="-5.41947">
        <ele>70.58</ele>
        <time>2021-03-19T23:58:07Z</time>
      </trkpt>
      <trkpt lat="55.88094" lon="-5.42024">
        <ele>70.68</ele>
        <time>2021-03-19T23:58:11Z</time>
      </trkpt>
      <trkpt lat="55.88152" lon="-5.4225">
        <ele>56.7</ele>
        <time>2021-03-19T23:58:15Z</time>
      </trkpt>
      <trkpt lat="55.88165" lon="-5.4229">
        <ele>52.8</ele>
        <time>2021-03-19T23:58:19Z</time>
      </trkpt>
      <trkpt lat="55.88178" lon="-5.42316">
        <ele>51.19</ele>
        <time>2021-03-19T23:58:22Z</time>
      </trkpt>
      <trkpt lat="55.88191" lon="-5.42329">
        <ele>50.28</ele>
        <time>2021-03-19T23:58:26Z</time>
      </trkpt>
      <trkpt lat="55.88201" lon="-5.42338">
        <ele>49.68</ele>
        <time>2021-03-19T23:58:30Z</time>
      </trkpt>
      <trkpt lat="55.88218" lon="-5.42346">
        <ele>48.76</ele>
        <time>2021-03-19T23:58:33Z</time>
      </trkpt>
      <trkpt lat="55.88233" lon="-5.42345">
        <ele>48.01</ele>
        <time>2021-03-19T23:58:37Z</time>
      </trkpt>
      <trkpt lat="55.88255" lon="-5.42337">
        <ele>46.96</ele>
        <time>2021-03-19T23:58:41Z</time>
      </trkpt>
      <trkpt lat="55.8837" lon="-5.42283">
        <ele>42.62</ele>
        <time>2021-03-19T23:58:45Z</time>
      </trkpt>
      <trkpt lat="55.88488" lon="-5.42238">
        <ele>39.89</ele>
        <time>2021-03-19T23:58:48Z</time>
      </trkpt>
      <trkpt lat="55.88563" lon="-5.42235">
        <ele>44.96</ele>
        <time>2021-03-19T23:58:52Z</time>
      </trkpt>
      <trkpt lat="55.8864" lon="-5.42223">
        <ele>47.15</ele>
        <time>2021-03-19T23:58:56Z</time>
      </trkpt>
      <trkpt lat="55.88662" lon="-5.42214">
        <ele>50.29</ele>
        <time>2021-03-19T23:59:00Z</time>
      </trkpt>
      <trkpt lat="55.88714" lon="-5.42182">
        <ele>59.3</ele>
        <time>2021-03-19T23:59:03Z</time>
      </trkpt>
      <trkpt lat="55.88833" lon="-5.42045">
        <ele>59.81</ele>
        <time>2021-03-19T23:59:07Z</time>
      </trkpt>
      <trkpt lat="55.88896" lon="-5.42006">
        <ele>55.08</ele>
        <time>2021-03-19T23:59:11Z</time>
      </trkpt>
      <trkpt lat="55.89016" lon="-5.41996">
        <ele>61.56</ele>
        <time>2021-03-19T23:59:14Z</time>
      </trkpt>
      <trkpt lat="55.89079" lon="-5.42002">
        <ele>60.5</ele>
        <time>2021-03-19T23:59:18Z</time>
      </trkpt>
      <trkpt lat="55.89126" lon="-5.42025">
        <ele>61.88</ele>
        <time>2021-03-19T23:59:22Z</time>
      </trkpt>
      <trkpt lat="55.89154" lon="-5.4205">
        <ele>62.37</ele>
        <time>2021-03-19T23:59:26Z</time>
      </trkpt>
      <trkpt lat="55.89245" lon="-5.42125">
        <ele>64.01</ele>
        <time>2021-03-19T23:59:29Z</time>
      </trkpt>
      <trkpt lat="55.89392" lon="-5.42155">
        <ele>63.14</ele>
        <time>2021-03-19T23:59:33Z</time>
      </trkpt>
      <trkpt lat="55.89442" lon="-5.42158">
        <ele>65.97</ele>
        <time>2021-03-19T23:59:37Z</time>
      </trkpt>
      <trkpt lat="55.89485" lon="-5.42136">
        <ele>66.39</ele>
        <time>2021-03-19T23:59:41Z</time>
      </trkpt>
      <trkpt lat="55.89524" lon="-5.4211">
        <ele>62.58</ele>
        <time>2021-03-19T23:59:44Z</time>
      </trkpt>
      <trkpt lat="55.89569" lon="-5.42097">
        <ele>61.45</ele>
        <time>2021-03-19T23:59:48Z</time>
      </trkpt>
      <trkpt lat="55.89591" lon="-5.421">
        <ele>62.32</ele>
        <time>2021-03-19T23:59:52Z</time>
      </trkpt>
      <trkpt lat="55.89616" lon="-5.42106">
        <ele>62.87</ele>
        <time>2021-03-19T23:59:55Z</time>
      </trkpt>
      <trkpt lat="55.89663" lon="-5.42123">
        <ele>61.47</ele>
        <time>2021-03-19T23:59:59Z</time>
      </trkpt>
      <trkpt lat="55.89704" lon="-5.42156">
        <ele>62.51</ele>
        <time>2021-03-20T00:00:03Z</time>
      </trkpt>
      <trkpt lat="55.89763" lon="-5.42216">
        <ele>59.27</ele>
        <time>2021-03-20T00:00:07Z</time>
      </trkpt>
      <trkpt lat="55.89832" lon="-5.42249">
        <ele>56.98</ele>
        <time>2021-03-20T00:00:10Z</time>
      </trkpt>
      <trkpt lat="55.89861" lon="-5.42248">
        <ele>55.7</ele>
        <time>2021-03-20T00:00:14Z</time>
      </trkpt>
      <trkpt lat="55.89905" lon="-5.42234">
        <ele>50.07</ele>
        <time>2021-03-20T00:00:18Z</time>
      </trkpt>
      <trkpt lat="55.89948" lon="-5.42238">
        <ele>48.82</ele>
        <time>2021-03-20T00:00:22Z</time>
      </trkpt>
      <trkpt lat="55.89991" lon="-5.4226">
        <ele>49.54</ele>
        <time>2021-03-20T00:00:25Z</time>
      </trkpt>
      <trkpt lat="55.90016" lon="-5.42283">
        <ele>50.74</ele>
        <time>2021-03-20T00:00:29Z</time>
      </trkpt>
      <trkpt lat="55.90057" lon="-5.42293">
        <ele>48.35</ele>
        <time>2021-03-20T00:00:33Z</time>
      </trkpt>
      <trkpt lat="55.90102" lon="-5.42282">
        <ele>47.4</ele>
        <time>2021-03-20T00:00:37Z</time>
      </trkpt>
      <trkpt lat="55.9019" lon="-5.42228">
        <ele>44.82</ele>
        <time>2021-03-20T00:00:40Z</time>
      </trkpt>
      <trkpt lat="55.90356" lon="-5.42117">
        <ele>35.44</ele>
        <time>2021-03-20T00:00:44Z</time>
      </trkpt>
      <trkpt lat="55.90428" lon="-5.42089">
        <ele>35.08</ele>
        <time>2021-03-20T00:00:48Z</time>
      </trkpt>
      <trkpt lat="55.90469" lon="-5.42089">
        <ele>33.19</ele>
        <time>2021-03-20T00:00:51Z</time>
      </trkpt>
      <trkpt lat="55.90565" lon="-5.421">
        <ele>25.02</ele>
        <time>2021-03-20T00:00:55Z</time>
      </trkpt>
      <trkpt lat="55.90627" lon="-5.42104">
        <ele>20.76</ele>
        <time>2021-03-20T00:00:59Z</time>
      </trkpt>
      <trkpt lat="55.90689" lon="-5.42099">
        <ele>21.08</ele>
        <time>2021-03-20T00:01:03Z</time>
      </trkpt>
      <trkpt lat="55.90738" lon="-5.42091">
        <ele>20.39</ele>
        <time>2021-03-20T00:01:06Z</time>
      </trkpt>
      <trkpt lat="55.90785" lon="-5.42093">
        <ele>17.25</ele>
        <time>2021-03-20T00:01:10Z</time>
      </trkpt>
      <trkpt lat="55.90881" lon="-5.42124">
        <ele>16.36</ele>
        <time>2021-03-20T00:01:14Z</time>
      </trkpt>
      <trkpt lat="55.90956" lon="-5.42145">
        <ele>12.28</ele>
        <time>2021-03-20T00:01:18Z</time>
      </trkpt>
      <trkpt lat="55.91116" lon="-5.42135">
        <ele>7.25</ele>
        <time>2021-03-20T00:01:21Z</time>
      </trkpt>
      <trkpt lat="55.91153" lon="-5.4211">
        <ele>5.49</ele>
        <time>2021-03-20T00:01:25Z</time>
      </trkpt>
      <trkpt lat="55.91179" lon="-5.42077">
        <ele>4.53</ele>
        <time>2021-03-20T00:01:29Z</time>
      </trkpt>
      <trkpt lat="55.91197" lon="-5.42064">
        <ele>3.7</ele>
        <time>2021-03-20T00:01:32Z</time>
      </trkpt>
      <trkpt lat="55.91222" lon="-5.42051">
        <ele>3.83</ele>
        <time>2021-03-20T00:01:36Z</time>
      </trkpt>
      <trkpt lat="55.9127" lon="-5.42047">
        <ele>2.49</ele>
        <time>2021-03-20T00:01:40Z</time>
      </trkpt>
      <trkpt lat="55.91297" lon="-5.42059">
        <ele>2.65</ele>
        <time>2021-03-20T00:01:44Z</time>
      </trkpt>
      <trkpt lat="55.91423" lon="-5.42167">
        <ele>2.89</ele>
        <time>2021-03-20T00:01:47Z</time>
      </trkpt>
      <trkpt lat="55.91521" lon="-5.42226">
        <ele>7</ele>
        <time>2021-03-20T00:01:51Z</time>
      </trkpt>
      <trkpt lat="55.91646" lon="-5.42292">
        <ele>15.88</ele>
        <time>2021-03-20T00:01:55Z</time>
      </trkpt>
      <trkpt lat="55.91743" lon="-5.42303">
        <ele>21.72</ele>
        <time>2021-03-20T00:01:59Z</time>
      </trkpt>
      <trkpt lat="55.9187" lon="-5.42288">
        <ele>20.37</ele>
        <time>2021-03-20T00:02:02Z</time>
      </trkpt>
      <trkpt lat="55.91918" lon="-5.42279">
        <ele>18.83</ele>
        <time>2021-03-20T00:02:06Z</time>
      </trkpt>
      <trkpt lat="55.91918" lon="-5.42279">
        <ele>18.83</ele>
        <time>2021-03-20T00:02:06Z</time>
      </trkpt>
      <trkpt lat="55.91962" lon="-5.4227">
        <ele>17.28</ele>
        <time>2021-03-20T00:02:10Z</time>
      </trkpt>
      <trkpt lat="55.92163" lon="-5.42336">
        <ele>14.47</ele>
        <time>2021-03-20T00:02:15Z</time>
      </trkpt>
      <trkpt lat="55.92201" lon="-5.42367">
        <ele>12.39</ele>
        <time>2021-03-20T00:02:19Z</time>
      </trkpt>
      <trkpt lat="55.92385" lon="-5.42492">
        <ele>4.78</ele>
        <time>2021-03-20T00:02:24Z</time>
      </trkpt>
      <trkpt lat="55.92626" lon="-5.42534">
        <ele>6.7</ele>
        <time>2021-03-20T00:02:28Z</time>
      </trkpt>
      <trkpt lat="55.92704" lon="-5.42542">
        <ele>10.42</ele>
        <time>2021-03-20T00:02:33Z</time>
      </trkpt>
      <trkpt lat="55.92745" lon="-5.42533">
        <ele>11.04</ele>
        <time>2021-03-20T00:02:37Z</time>
      </trkpt>
      <trkpt lat="55.92926" lon="-5.42475">
        <ele>14.15</ele>
        <time>2021-03-20T00:02:42Z</time>
      </trkpt>
      <trkpt lat="55.93012" lon="-5.4246">
        <ele>8.23</ele>
        <time>2021-03-20T00:02:46Z</time>
      </trkpt>
      <trkpt lat="55.93158" lon="-5.42499">
        <ele>9.86</ele>
        <time>2021-03-20T00:02:51Z</time>
      </trkpt>
      <trkpt lat="55.93344" lon="-5.42625">
        <ele>15.3</ele>
        <time>2021-03-20T00:02:55Z</time>
      </trkpt>
      <trkpt lat="55.93508" lon="-5.42793">
        <ele>17.35</ele>
        <time>2021-03-20T00:03:00Z</time>
      </trkpt>
      <trkpt lat="55.93689" lon="-5.42836">
        <ele>14.31</ele>
        <time>2021-03-20T00:03:04Z</time>
      </trkpt>
      <trkpt lat="55.938" lon="-5.42843">
        <ele>16.99</ele>
        <time>2021-03-20T00:03:08Z</time>
      </trkpt>
      <trkpt lat="55.93892" lon="-5.42861">
        <ele>15.75</ele>
        <time>2021-03-20T00:03:13Z</time>
      </trkpt>
      <trkpt lat="55.9392" lon="-5.42864">
        <ele>14.01</ele>
        <time>2021-03-20T00:03:17Z</time>
      </trkpt>
      <trkpt lat="55.93981" lon="-5.42908">
        <ele>10.86</ele>
        <time>2021-03-20T00:03:22Z</time>
      </trkpt>
      <trkpt lat="55.94001" lon="-5.42915">
        <ele>9.82</ele>
        <time>2021-03-20T00:03:26Z</time>
      </trkpt>
      <trkpt lat="55.94169" lon="-5.42958">
        <ele>11.87</ele>
        <time>2021-03-20T00:03:31Z</time>
      </trkpt>
      <trkpt lat="55.94234" lon="-5.42953">
        <ele>11.91</ele>
        <time>2021-03-20T00:03:35Z</time>
      </trkpt>
      <trkpt lat="55.94401" lon="-5.42926">
        <ele>15.22</ele>
        <time>2021-03-20T00:03:40Z</time>
      </trkpt>
      <trkpt lat="55.94454" lon="-5.42895">
        <ele>12.27</ele>
        <time>2021-03-20T00:03:44Z</time>
      </trkpt>
      <trkpt lat="55.94469" lon="-5.42892">
        <ele>12.59</ele>
        <time>2021-03-20T00:03:49Z</time>
      </trkpt>
      <trkpt lat="55.94539" lon="-5.42905">
        <ele>15.9</ele>
        <time>2021-03-20T00:03:53Z</time>
      </trkpt>
      <trkpt lat="55.94587" lon="-5.42901">
        <ele>11.08</ele>
        <time>2021-03-20T00:03:58Z</time>
      </trkpt>
      <trkpt lat="55.94689" lon="-5.42929">
        <ele>19.35</ele>
        <time>2021-03-20T00:04:02Z</time>
      </trkpt>
      <trkpt lat="55.94783" lon="-5.4294">
        <ele>13.63</ele>
        <time>2021-03-20T00:04:06Z</time>
      </trkpt>
      <trkpt lat="55.94882" lon="-5.43002">
        <ele>12.53</ele>
        <time>2021-03-20T00:04:11Z</time>
      </trkpt>
      <trkpt lat="55.94943" lon="-5.43028">
        <ele>11.12</ele>
        <time>2021-03-20T00:04:15Z</time>
      </trkpt>
      <trkpt lat="55.94956" lon="-5.43036">
        <ele>11.32</ele>
        <time>2021-03-20T00:04:20Z</time>
      </trkpt>
      <trkpt lat="55.951" lon="-5.43172">
        <ele>15.81</ele>
        <time>2021-03-20T00:04:24Z</time>
      </trkpt>
      <trkpt lat="55.95239" lon="-5.43226">
        <ele>11.96</ele>
        <time>2021-03-20T00:04:29Z</time>
      </trkpt>
      <trkpt lat="55.95289" lon="-5.43266">
        <ele>12.27</ele>
        <time>2021-03-20T00:04:33Z</time>
      </trkpt>
      <trkpt lat="55.95347" lon="-5.43345">
        <ele>14.38</ele>
        <time>2021-03-20T00:04:38Z</time>
      </trkpt>
      <trkpt lat="55.95383" lon="-5.43372">
        <ele>14.38</ele>
        <time>2021-03-20T00:04:42Z</time>
      </trkpt>
      <trkpt lat="55.95455" lon="-5.43472">
        <ele>14.15</ele>
        <time>2021-03-20T00:04:47Z</time>
      </trkpt>
      <trkpt lat="55.9549" lon="-5.43581">
        <ele>10.82</ele>
        <time>2021-03-20T00:04:51Z</time>
      </trkpt>
      <trkpt lat="55.95553" lon="-5.43707">
        <ele>6.5</ele>
        <time>2021-03-20T00:04:56Z</time>
      </trkpt>
      <trkpt lat="55.95581" lon="-5.43774">
        <ele>7.21</ele>
        <time>2021-03-20T00:05:00Z</time>
      </trkpt>
      <trkpt lat="55.95597" lon="-5.43821">
        <ele>7.36</ele>
        <time>2021-03-20T00:05:04Z</time>
      </trkpt>
      <trkpt lat="55.95721" lon="-5.44403">
        <ele>5.63</ele>
        <time>2021-03-20T00:05:09Z</time>
      </trkpt>
      <trkpt lat="55.95732" lon="-5.44436">
        <ele>6.02</ele>
        <time>2021-03-20T00:05:13Z</time>
      </trkpt>
      <trkpt lat="55.95759" lon="-5.44499">
        <ele>7.61</ele>
        <time>2021-03-20T00:05:18Z</time>
      </trkpt>
      <trkpt lat="55.95787" lon="-5.44536">
        <ele>7.52</ele>
        <time>2021-03-20T00:05:22Z</time>
      </trkpt>
      <trkpt lat="55.95816" lon="-5.44565">
        <ele>7.2</ele>
        <time>2021-03-20T00:05:27Z</time>
      </trkpt>
      <trkpt lat="55.95849" lon="-5.44587">
        <ele>7.13</ele>
        <time>2021-03-20T00:05:31Z</time>
      </trkpt>
      <trkpt lat="55.96027" lon="-5.44664">
        <ele>9.81</ele>
        <time>2021-03-20T00:05:36Z</time>
      </trkpt>
      <trkpt lat="55.96045" lon="-5.44664">
        <ele>11.07</ele>
        <time>2021-03-20T00:05:40Z</time>
      </trkpt>
      <trkpt lat="55.9613" lon="-5.44642">
        <ele>8.84</ele>
        <time>2021-03-20T00:05:45Z</time>
      </trkpt>
      <trkpt lat="55.96206" lon="-5.44626">
        <ele>11.7</ele>
        <time>2021-03-20T00:05:49Z</time>
      </trkpt>
      <trkpt lat="55.96228" lon="-5.44624">
        <ele>11.96</ele>
        <time>2021-03-20T00:05:53Z</time>
      </trkpt>
      <trkpt lat="55.96386" lon="-5.44661">
        <ele>10.05</ele>
        <time>2021-03-20T00:05:58Z</time>
      </trkpt>
      <trkpt lat="55.96456" lon="-5.44698">
        <ele>9.42</ele>
        <time>2021-03-20T00:06:02Z</time>
      </trkpt>
      <trkpt lat="55.96531" lon="-5.44786">
        <ele>5.57</ele>
        <time>2021-03-20T00:06:07Z</time>
      </trkpt>
      <trkpt lat="55.96764" lon="-5.44866">
        <ele>5.43</ele>
        <time>2021-03-20T00:06:11Z</time>
      </trkpt>
      <trkpt lat="55.96858" lon="-5.44901">
        <ele>8.84</ele>
        <time>2021-03-20T00:06:16Z</time>
      </trkpt>
      <trkpt lat="55.97088" lon="-5.45041">
        <ele>9.78</ele>
        <time>2021-03-20T00:06:20Z</time>
      </trkpt>
      <trkpt lat="55.97131" lon="-5.45081">
        <ele>8.78</ele>
        <time>2021-03-20T00:06:25Z</time>
      </trkpt>
      <trkpt lat="55.97161" lon="-5.45116">
        <ele>9.41</ele>
        <time>2021-03-20T00:06:29Z</time>
      </trkpt>
      <trkpt lat="55.97187" lon="-5.45131">
        <ele>8.6</ele>
        <time>2021-03-20T00:06:34Z</time>
      </trkpt>
      <trkpt lat="55.97218" lon="-5.45128">
        <ele>6.39</ele>
        <time>2021-03-20T00:06:38Z</time>
      </trkpt>
      <trkpt lat="55.9724" lon="-5.4511">
        <ele>5.59</ele>
        <time>2021-03-20T00:06:43Z</time>
      </trkpt>
      <trkpt lat="55.9732" lon="-5.45019">
        <ele>6.87</ele>
        <time>2021-03-20T00:06:47Z</time>
      </trkpt>
      <trkpt lat="55.97358" lon="-5.44981">
        <ele>7.97</ele>
        <time>2021-03-20T00:06:51Z</time>
      </trkpt>
      <trkpt lat="55.97413" lon="-5.44943">
        <ele>13.38</ele>
        <time>2021-03-20T00:06:56Z</time>
      </trkpt>
      <trkpt lat="55.97463" lon="-5.44922">
        <ele>15.73</ele>
        <time>2021-03-20T00:07:00Z</time>
      </trkpt>
      <trkpt lat="55.97497" lon="-5.44917">
        <ele>15.11</ele>
        <time>2021-03-20T00:07:05Z</time>
      </trkpt>
      <trkpt lat="55.9762" lon="-5.44928">
        <ele>5.42</ele>
        <time>2021-03-20T00:07:09Z</time>
      </trkpt>
      <trkpt lat="55.97663" lon="-5.44927">
        <ele>4.5</ele>
        <time>2021-03-20T00:07:14Z</time>
      </trkpt>
      <trkpt lat="55.97711" lon="-5.44916">
        <ele>3.39</ele>
        <time>2021-03-20T00:07:18Z</time>
      </trkpt>
      <trkpt lat="55.97763" lon="-5.44894">
        <ele>2.65</ele>
        <time>2021-03-20T00:07:23Z</time>
      </trkpt>
      <trkpt lat="55.97835" lon="-5.44852">
        <ele>1.79</ele>
        <time>2021-03-20T00:07:27Z</time>
      </trkpt>
      <trkpt lat="55.97899" lon="-5.44805">
        <ele>2.32</ele>
        <time>2021-03-20T00:07:32Z</time>
      </trkpt>
      <trkpt lat="55.97995" lon="-5.44729">
        <ele>7.02</ele>
        <time>2021-03-20T00:07:36Z</time>
      </trkpt>
      <trkpt lat="55.98121" lon="-5.44658">
        <ele>10.34</ele>
        <time>2021-03-20T00:07:41Z</time>
      </trkpt>
      <trkpt lat="55.98224" lon="-5.4462">
        <ele>8.31</ele>
        <time>2021-03-20T00:07:45Z</time>
      </trkpt>
      <trkpt lat="55.98291" lon="-5.44617">
        <ele>8.16</ele>
        <time>2021-03-20T00:07:49Z</time>
      </trkpt>
      <trkpt lat="55.9839" lon="-5.4462">
        <ele>3.97</ele>
        <time>2021-03-20T00:07:54Z</time>
      </trkpt>
      <trkpt lat="55.98524" lon="-5.44675">
        <ele>4.21</ele>
        <time>2021-03-20T00:07:58Z</time>
      </trkpt>
      <trkpt lat="55.98617" lon="-5.44685">
        <ele>6.63</ele>
        <time>2021-03-20T00:08:03Z</time>
      </trkpt>
      <trkpt lat="55.98647" lon="-5.4468">
        <ele>7.3</ele>
        <time>2021-03-20T00:08:07Z</time>
      </trkpt>
      <trkpt lat="55.98686" lon="-5.44666">
        <ele>4.96</ele>
        <time>2021-03-20T00:08:12Z</time>
      </trkpt>
      <trkpt lat="55.98733" lon="-5.44636">
        <ele>4.78</ele>
        <time>2021-03-20T00:08:16Z</time>
      </trkpt>
      <trkpt lat="55.98805" lon="-5.44637">
        <ele>3.91</ele>
        <time>2021-03-20T00:08:21Z</time>
      </trkpt>
      <trkpt lat="55.98823" lon="-5.44635">
        <ele>3.69</ele>
        <time>2021-03-20T00:08:25Z</time>
      </trkpt>
      <trkpt lat="55.98867" lon="-5.4462">
        <ele>4.42</ele>
        <time>2021-03-20T00:08:30Z</time>
      </trkpt>
      <trkpt lat="55.98931" lon="-5.44577">
        <ele>7.37</ele>
        <time>2021-03-20T00:08:34Z</time>
      </trkpt>
      <trkpt lat="55.98957" lon="-5.44567">
        <ele>8.1</ele>
        <time>2021-03-20T00:08:39Z</time>
      </trkpt>
      <trkpt lat="55.98982" lon="-5.44564">
        <ele>8.53</ele>
        <time>2021-03-20T00:08:43Z</time>
      </trkpt>
      <trkpt lat="55.99011" lon="-5.4457">
        <ele>7.22</ele>
        <time>2021-03-20T00:08:47Z</time>
      </trkpt>
      <trkpt lat="55.9903" lon="-5.44582">
        <ele>5.73</ele>
        <time>2021-03-20T00:08:52Z</time>
      </trkpt>
      <trkpt lat="55.99063" lon="-5.44607">
        <ele>4.56</ele>
        <time>2021-03-20T00:08:56Z</time>
      </trkpt>
      <trkpt lat="55.9915" lon="-5.44679">
        <ele>3.02</ele>
        <time>2021-03-20T00:09:01Z</time>
      </trkpt>
      <trkpt lat="55.99235" lon="-5.44769">
        <ele>7.14</ele>
        <time>2021-03-20T00:09:05Z</time>
      </trkpt>
      <trkpt lat="55.99259" lon="-5.44788">
        <ele>9.25</ele>
        <time>2021-03-20T00:09:10Z</time>
      </trkpt>
      <trkpt lat="55.99287" lon="-5.44797">
        <ele>12.28</ele>
        <time>2021-03-20T00:09:14Z</time>
      </trkpt>
      <trkpt lat="55.99306" lon="-5.448">
        <ele>14.59</ele>
        <time>2021-03-20T00:09:19Z</time>
      </trkpt>
      <trkpt lat="55.99485" lon="-5.44749">
        <ele>9.71</ele>
        <time>2021-03-20T00:09:23Z</time>
      </trkpt>
      <trkpt lat="55.99518" lon="-5.44749">
        <ele>9.47</ele>
        <time>2021-03-20T00:09:28Z</time>
      </trkpt>
      <trkpt lat="55.99553" lon="-5.44759">
        <ele>10.73</ele>
        <time>2021-03-20T00:09:32Z</time>
      </trkpt>
      <trkpt lat="55.99654" lon="-5.44807">
        <ele>4.92</ele>
        <time>2021-03-20T00:09:36Z</time>
      </trkpt>
      <trkpt lat="55.99703" lon="-5.44837">
        <ele>4.34</ele>
        <time>2021-03-20T00:09:41Z</time>
      </trkpt>
      <trkpt lat="55.99751" lon="-5.44861">
        <ele>5.86</ele>
        <time>2021-03-20T00:09:45Z</time>
      </trkpt>
      <trkpt lat="55.99885" lon="-5.4488">
        <ele>7.86</ele>
        <time>2021-03-20T00:09:50Z</time>
      </trkpt>
      <trkpt lat="55.99927" lon="-5.44879">
        <ele>8.96</ele>
        <time>2021-03-20T00:09:54Z</time>
      </trkpt>
      <trkpt lat="55.99957" lon="-5.44857">
        <ele>7.82</ele>
        <time>2021-03-20T00:09:59Z</time>
      </trkpt>
      <trkpt lat="56.00036" lon="-5.44772">
        <ele>10.85</ele>
        <time>2021-03-20T00:10:03Z</time>
      </trkpt>
      <trkpt lat="56.00081" lon="-5.44742">
        <ele>11.69</ele>
        <time>2021-03-20T00:10:08Z</time>
      </trkpt>
      <trkpt lat="56.0013" lon="-5.44749">
        <ele>13.53</ele>
        <time>2021-03-20T00:10:12Z</time>
      </trkpt>
      <trkpt lat="56.00174" lon="-5.44768">
        <ele>14.19</ele>
        <time>2021-03-20T00:10:17Z</time>
      </trkpt>
      <trkpt lat="56.00261" lon="-5.44815">
        <ele>7.09</ele>
        <time>2021-03-20T00:10:21Z</time>
      </trkpt>
      <trkpt lat="56.00316" lon="-5.44872">
        <ele>6.45</ele>
        <time>2021-03-20T00:10:26Z</time>
      </trkpt>
      <trkpt lat="56.00342" lon="-5.44913">
        <ele>6.76</ele>
        <time>2021-03-20T00:10:30Z</time>
      </trkpt>
      <trkpt lat="56.00581" lon="-5.45055">
        <ele>2.9</ele>
        <time>2021-03-20T00:10:34Z</time>
      </trkpt>
      <trkpt lat="56.00615" lon="-5.45063">
        <ele>4.64</ele>
        <time>2021-03-20T00:10:39Z</time>
      </trkpt>
      <trkpt lat="56.00661" lon="-5.45061">
        <ele>5.03</ele>
        <time>2021-03-20T00:10:43Z</time>
      </trkpt>
      <trkpt lat="56.00734" lon="-5.45051">
        <ele>4.65</ele>
        <time>2021-03-20T00:10:48Z</time>
      </trkpt>
      <trkpt lat="56.00756" lon="-5.45052">
        <ele>4.53</ele>
        <time>2021-03-20T00:10:52Z</time>
      </trkpt>
      <trkpt lat="56.00786" lon="-5.45064">
        <ele>5.01</ele>
        <time>2021-03-20T00:10:57Z</time>
      </trkpt>
      <trkpt lat="56.00804" lon="-5.45066">
        <ele>5.5</ele>
        <time>2021-03-20T00:11:01Z</time>
      </trkpt>
      <trkpt lat="56.00823" lon="-5.45065">
        <ele>7.24</ele>
        <time>2021-03-20T00:11:06Z</time>
      </trkpt>
      <trkpt lat="56.00977" lon="-5.44967">
        <ele>7.72</ele>
        <time>2021-03-20T00:11:10Z</time>
      </trkpt>
      <trkpt lat="56.01022" lon="-5.44943">
        <ele>4.33</ele>
        <time>2021-03-20T00:11:15Z</time>
      </trkpt>
      <trkpt lat="56.01042" lon="-5.44972">
        <ele>11.44</ele>
        <time>2021-03-20T00:11:18Z</time>
      </trkpt>
      <trkpt lat="56.0107" lon="-5.44986">
        <ele>15.98</ele>
        <time>2021-03-20T00:11:21Z</time>
      </trkpt>
      <trkpt lat="56.01103" lon="-5.4499">
        <ele>16.34</ele>
        <time>2021-03-20T00:11:25Z</time>
      </trkpt>
      <trkpt lat="56.01153" lon="-5.44987">
        <ele>15.32</ele>
        <time>2021-03-20T00:11:28Z</time>
      </trkpt>
      <trkpt lat="56.01176" lon="-5.44976">
        <ele>16.55</ele>
        <time>2021-03-20T00:11:31Z</time>
      </trkpt>
      <trkpt lat="56.01178" lon="-5.44918">
        <ele>13.67</ele>
        <time>2021-03-20T00:11:34Z</time>
      </trkpt>
      <trkpt lat="56.01175" lon="-5.44901">
        <ele>12.98</ele>
        <time>2021-03-20T00:11:36Z</time>
      </trkpt>
      <trkpt lat="56.01306" lon="-5.44914">
        <ele>21.91</ele>
        <time>2021-03-20T00:11:46Z</time>
      </trkpt>
      <trkpt lat="56.01377" lon="-5.44946">
        <ele>22.05</ele>
        <time>2021-03-20T00:11:57Z</time>
      </trkpt>
      <trkpt lat="56.01407" lon="-5.4486">
        <ele>12.02</ele>
        <time>2021-03-20T00:12:02Z</time>
      </trkpt>
      <trkpt lat="56.01421" lon="-5.44849">
        <ele>9</ele>
        <time>2021-03-20T00:12:07Z</time>
      </trkpt>
      <trkpt lat="56.0144" lon="-5.44851">
        <ele>8.44</ele>
        <time>2021-03-20T00:12:12Z</time>
      </trkpt>
      <trkpt lat="56.01501" lon="-5.44893">
        <ele>10.4</ele>
        <time>2021-03-20T00:12:17Z</time>
      </trkpt>
      <trkpt lat="56.01596" lon="-5.44949">
        <ele>12.47</ele>
        <time>2021-03-20T00:12:21Z</time>
      </trkpt>
      <trkpt lat="56.01626" lon="-5.44954">
        <ele>12.99</ele>
        <time>2021-03-20T00:12:26Z</time>
      </trkpt>
      <trkpt lat="56.01678" lon="-5.44957">
        <ele>11.38</ele>
        <time>2021-03-20T00:12:31Z</time>
      </trkpt>
      <trkpt lat="56.0168" lon="-5.44919">
        <ele>9.04</ele>
        <time>2021-03-20T00:12:34Z</time>
      </trkpt>
      <trkpt lat="56.01687" lon="-5.44915">
        <ele>8.94</ele>
        <time>2021-03-20T00:12:35Z</time>
      </trkpt>
      <trkpt lat="56.01708" lon="-5.44915">
        <ele>9.43</ele>
        <time>2021-03-20T00:12:37Z</time>
      </trkpt>
      <trkpt lat="56.01718" lon="-5.44911">
        <ele>9.64</ele>
        <time>2021-03-20T00:12:38Z</time>
      </trkpt>
      <trkpt lat="56.01739" lon="-5.44894">
        <ele>9.29</ele>
        <time>2021-03-20T00:12:40Z</time>
      </trkpt>
      <trkpt lat="56.01742" lon="-5.44888">
        <ele>8.99</ele>
        <time>2021-03-20T00:12:41Z</time>
      </trkpt>
      <trkpt lat="56.01742" lon="-5.44875">
        <ele>8.85</ele>
        <time>2021-03-20T00:12:42Z</time>
      </trkpt>
      <trkpt lat="56.01735" lon="-5.44828">
        <ele>7.24</ele>
        <time>2021-03-20T00:12:44Z</time>
      </trkpt>
      <trkpt lat="56.01792" lon="-5.44793">
        <ele>5.09</ele>
        <time>2021-03-20T00:12:49Z</time>
      </trkpt>
      <trkpt lat="56.01836" lon="-5.44776">
        <ele>4.93</ele>
        <time>2021-03-20T00:12:54Z</time>
      </trkpt>
      <trkpt lat="56.02028" lon="-5.44713">
        <ele>5.66</ele>
        <time>2021-03-20T00:12:59Z</time>
      </trkpt>
      <trkpt lat="56.02195" lon="-5.44661">
        <ele>8.79</ele>
        <time>2021-03-20T00:13:04Z</time>
      </trkpt>
      <trkpt lat="56.02263" lon="-5.44652">
        <ele>8.47</ele>
        <time>2021-03-20T00:13:08Z</time>
      </trkpt>
      <trkpt lat="56.02305" lon="-5.4465">
        <ele>8.39</ele>
        <time>2021-03-20T00:13:13Z</time>
      </trkpt>
      <trkpt lat="56.02344" lon="-5.44645">
        <ele>8.51</ele>
        <time>2021-03-20T00:13:18Z</time>
      </trkpt>
      <trkpt lat="56.02382" lon="-5.44635">
        <ele>8.97</ele>
        <time>2021-03-20T00:13:23Z</time>
      </trkpt>
      <trkpt lat="56.02449" lon="-5.44607">
        <ele>4.84</ele>
        <time>2021-03-20T00:13:28Z</time>
      </trkpt>
      <trkpt lat="56.02497" lon="-5.44581">
        <ele>5.74</ele>
        <time>2021-03-20T00:13:33Z</time>
      </trkpt>
      <trkpt lat="56.02556" lon="-5.44544">
        <ele>7.57</ele>
        <time>2021-03-20T00:13:38Z</time>
      </trkpt>
      <trkpt lat="56.02583" lon="-5.44535">
        <ele>6.28</ele>
        <time>2021-03-20T00:13:43Z</time>
      </trkpt>
      <trkpt lat="56.02657" lon="-5.44519">
        <ele>4.99</ele>
        <time>2021-03-20T00:13:48Z</time>
      </trkpt>
      <trkpt lat="56.02682" lon="-5.44509">
        <ele>5.34</ele>
        <time>2021-03-20T00:13:53Z</time>
      </trkpt>
      <trkpt lat="56.02708" lon="-5.44492">
        <ele>5.53</ele>
        <time>2021-03-20T00:13:58Z</time>
      </trkpt>
      <trkpt lat="56.02736" lon="-5.44463">
        <ele>5.35</ele>
        <time>2021-03-20T00:14:02Z</time>
      </trkpt>
      <trkpt lat="56.02788" lon="-5.44399">
        <ele>5.14</ele>
        <time>2021-03-20T00:14:07Z</time>
      </trkpt>
      <trkpt lat="56.02812" lon="-5.44373">
        <ele>6.09</ele>
        <time>2021-03-20T00:14:12Z</time>
      </trkpt>
      <trkpt lat="56.02857" lon="-5.44343">
        <ele>5.66</ele>
        <time>2021-03-20T00:14:17Z</time>
      </trkpt>
      <trkpt lat="56.02887" lon="-5.44334">
        <ele>3.14</ele>
        <time>2021-03-20T00:14:22Z</time>
      </trkpt>
      <trkpt lat="56.0298" lon="-5.44316">
        <ele>4.01</ele>
        <time>2021-03-20T00:14:27Z</time>
      </trkpt>
      <trkpt lat="56.0301" lon="-5.44307">
        <ele>3</ele>
        <time>2021-03-20T00:14:32Z</time>
      </trkpt>
      <trkpt lat="56.03094" lon="-5.44269">
        <ele>3.72</ele>
        <time>2021-03-20T00:14:37Z</time>
      </trkpt>
      <trkpt lat="56.03148" lon="-5.44256">
        <ele>4.41</ele>
        <time>2021-03-20T00:14:42Z</time>
      </trkpt>
      <trkpt lat="56.03243" lon="-5.44242">
        <ele>7.67</ele>
        <time>2021-03-20T00:14:47Z</time>
      </trkpt>
      <trkpt lat="56.03325" lon="-5.44247">
        <ele>8.53</ele>
        <time>2021-03-20T00:14:52Z</time>
      </trkpt>
      <trkpt lat="56.03402" lon="-5.4426">
        <ele>9.43</ele>
        <time>2021-03-20T00:14:56Z</time>
      </trkpt>
      <trkpt lat="56.03446" lon="-5.4426">
        <ele>8.79</ele>
        <time>2021-03-20T00:15:01Z</time>
      </trkpt>
      <trkpt lat="56.03496" lon="-5.44254">
        <ele>10.31</ele>
        <time>2021-03-20T00:15:06Z</time>
      </trkpt>
      <trkpt lat="56.03603" lon="-5.44236">
        <ele>9.62</ele>
        <time>2021-03-20T00:15:11Z</time>
      </trkpt>
      <trkpt lat="56.03639" lon="-5.44228">
        <ele>12.41</ele>
        <time>2021-03-20T00:15:16Z</time>
      </trkpt>
      <trkpt lat="56.037" lon="-5.44195">
        <ele>7.86</ele>
        <time>2021-03-20T00:15:21Z</time>
      </trkpt>
      <trkpt lat="56.0373" lon="-5.44174">
        <ele>4.85</ele>
        <time>2021-03-20T00:15:26Z</time>
      </trkpt>
      <trkpt lat="56.03748" lon="-5.44149">
        <ele>4</ele>
        <time>2021-03-20T00:15:31Z</time>
      </trkpt>
      <trkpt lat="56.03759" lon="-5.44155">
        <ele>4.52</ele>
        <time>2021-03-20T00:15:36Z</time>
      </trkpt>
      <trkpt lat="56.03768" lon="-5.44156">
        <ele>5.06</ele>
        <time>2021-03-20T00:15:40Z</time>
      </trkpt>
      <trkpt lat="56.03792" lon="-5.44149">
        <ele>6.35</ele>
        <time>2021-03-20T00:15:45Z</time>
      </trkpt>
      <trkpt lat="56.03871" lon="-5.44104">
        <ele>8.27</ele>
        <time>2021-03-20T00:15:50Z</time>
      </trkpt>
      <trkpt lat="56.03979" lon="-5.44037">
        <ele>9.54</ele>
        <time>2021-03-20T00:15:55Z</time>
      </trkpt>
      <trkpt lat="56.04031" lon="-5.44017">
        <ele>8.99</ele>
        <time>2021-03-20T00:15:59Z</time>
      </trkpt>
      <trkpt lat="56.04083" lon="-5.44012">
        <ele>8.71</ele>
        <time>2021-03-20T00:16:04Z</time>
      </trkpt>
      <trkpt lat="56.04132" lon="-5.4402">
        <ele>9.56</ele>
        <time>2021-03-20T00:16:09Z</time>
      </trkpt>
      <trkpt lat="56.04178" lon="-5.44034">
        <ele>11.02</ele>
        <time>2021-03-20T00:16:14Z</time>
      </trkpt>
      <trkpt lat="56.04221" lon="-5.44054">
        <ele>14.89</ele>
        <time>2021-03-20T00:16:18Z</time>
      </trkpt>
      <trkpt lat="56.0427" lon="-5.44089">
        <ele>9.11</ele>
        <time>2021-03-20T00:16:23Z</time>
      </trkpt>
      <trkpt lat="56.04424" lon="-5.44224">
        <ele>7.9</ele>
        <time>2021-03-20T00:16:28Z</time>
      </trkpt>
      <trkpt lat="56.04582" lon="-5.44371">
        <ele>5.34</ele>
        <time>2021-03-20T00:16:33Z</time>
      </trkpt>
      <trkpt lat="56.04847" lon="-5.44621">
        <ele>6.57</ele>
        <time>2021-03-20T00:16:37Z</time>
      </trkpt>
      <trkpt lat="56.0489" lon="-5.44668">
        <ele>7.02</ele>
        <time>2021-03-20T00:16:42Z</time>
      </trkpt>
      <trkpt lat="56.05053" lon="-5.44854">
        <ele>5</ele>
        <time>2021-03-20T00:16:47Z</time>
      </trkpt>
      <trkpt lat="56.05076" lon="-5.44888">
        <ele>5.74</ele>
        <time>2021-03-20T00:16:52Z</time>
      </trkpt>
      <trkpt lat="56.05318" lon="-5.45367">
        <ele>5</ele>
        <time>2021-03-20T00:16:56Z</time>
      </trkpt>
      <trkpt lat="56.05351" lon="-5.45422">
        <ele>5</ele>
        <time>2021-03-20T00:17:01Z</time>
      </trkpt>
      <trkpt lat="56.05527" lon="-5.45668">
        <ele>4.08</ele>
        <time>2021-03-20T00:17:06Z</time>
      </trkpt>
      <trkpt lat="56.05794" lon="-5.4605">
        <ele>6</ele>
        <time>2021-03-20T00:17:11Z</time>
      </trkpt>
      <trkpt lat="56.05815" lon="-5.46088">
        <ele>6</ele>
        <time>2021-03-20T00:17:15Z</time>
      </trkpt>
      <trkpt lat="56.05823" lon="-5.46109">
        <ele>6</ele>
        <time>2021-03-20T00:17:20Z</time>
      </trkpt>
      <trkpt lat="56.05967" lon="-5.46598">
        <ele>5.2</ele>
        <time>2021-03-20T00:17:25Z</time>
      </trkpt>
      <trkpt lat="56.0599" lon="-5.46669">
        <ele>5.68</ele>
        <time>2021-03-20T00:17:30Z</time>
      </trkpt>
      <trkpt lat="56.06003" lon="-5.46699">
        <ele>6</ele>
        <time>2021-03-20T00:17:34Z</time>
      </trkpt>
      <trkpt lat="56.06015" lon="-5.46719">
        <ele>6</ele>
        <time>2021-03-20T00:17:39Z</time>
      </trkpt>
      <trkpt lat="56.06066" lon="-5.46754">
        <ele>7.75</ele>
        <time>2021-03-20T00:17:44Z</time>
      </trkpt>
      <trkpt lat="56.06092" lon="-5.46762">
        <ele>9.32</ele>
        <time>2021-03-20T00:17:49Z</time>
      </trkpt>
      <trkpt lat="56.06103" lon="-5.46761">
        <ele>9.7</ele>
        <time>2021-03-20T00:17:53Z</time>
      </trkpt>
      <trkpt lat="56.06131" lon="-5.46744">
        <ele>10</ele>
        <time>2021-03-20T00:17:58Z</time>
      </trkpt>
      <trkpt lat="56.06151" lon="-5.46727">
        <ele>10.52</ele>
        <time>2021-03-20T00:18:03Z</time>
      </trkpt>
      <trkpt lat="56.06261" lon="-5.46627">
        <ele>11.57</ele>
        <time>2021-03-20T00:18:08Z</time>
      </trkpt>
      <trkpt lat="56.06284" lon="-5.46608">
        <ele>12.13</ele>
        <time>2021-03-20T00:18:12Z</time>
      </trkpt>
      <trkpt lat="56.06331" lon="-5.46584">
        <ele>12.01</ele>
        <time>2021-03-20T00:18:17Z</time>
      </trkpt>
      <trkpt lat="56.0641" lon="-5.46551">
        <ele>12.2</ele>
        <time>2021-03-20T00:18:22Z</time>
      </trkpt>
      <trkpt lat="56.0651" lon="-5.46515">
        <ele>17.94</ele>
        <time>2021-03-20T00:18:27Z</time>
      </trkpt>
      <trkpt lat="56.06576" lon="-5.46482">
        <ele>26.99</ele>
        <time>2021-03-20T00:18:31Z</time>
      </trkpt>
      <trkpt lat="56.06609" lon="-5.46458">
        <ele>29.35</ele>
        <time>2021-03-20T00:18:36Z</time>
      </trkpt>
      <trkpt lat="56.06676" lon="-5.46401">
        <ele>30.95</ele>
        <time>2021-03-20T00:18:41Z</time>
      </trkpt>
      <trkpt lat="56.06783" lon="-5.46307">
        <ele>35.37</ele>
        <time>2021-03-20T00:18:46Z</time>
      </trkpt>
      <trkpt lat="56.06879" lon="-5.46216">
        <ele>37.72</ele>
        <time>2021-03-20T00:18:50Z</time>
      </trkpt>
      <trkpt lat="56.06918" lon="-5.46183">
        <ele>38.55</ele>
        <time>2021-03-20T00:18:55Z</time>
      </trkpt>
      <trkpt lat="56.06946" lon="-5.46154">
        <ele>35.96</ele>
        <time>2021-03-20T00:19:00Z</time>
      </trkpt>
      <trkpt lat="56.06991" lon="-5.46093">
        <ele>31.36</ele>
        <time>2021-03-20T00:19:05Z</time>
      </trkpt>
      <trkpt lat="56.0701" lon="-5.46058">
        <ele>29.33</ele>
        <time>2021-03-20T00:19:09Z</time>
      </trkpt>
      <trkpt lat="56.07045" lon="-5.45988">
        <ele>26.65</ele>
        <time>2021-03-20T00:19:14Z</time>
      </trkpt>
      <trkpt lat="56.07091" lon="-5.45889">
        <ele>22.72</ele>
        <time>2021-03-20T00:19:19Z</time>
      </trkpt>
      <trkpt lat="56.07126" lon="-5.45831">
        <ele>21.95</ele>
        <time>2021-03-20T00:19:24Z</time>
      </trkpt>
      <trkpt lat="56.07157" lon="-5.45787">
        <ele>20.1</ele>
        <time>2021-03-20T00:19:29Z</time>
      </trkpt>
      <trkpt lat="56.07207" lon="-5.45738">
        <ele>20.89</ele>
        <time>2021-03-20T00:19:33Z</time>
      </trkpt>
      <trkpt lat="56.0723" lon="-5.45719">
        <ele>21.84</ele>
        <time>2021-03-20T00:19:38Z</time>
      </trkpt>
      <trkpt lat="56.07259" lon="-5.457">
        <ele>22.26</ele>
        <time>2021-03-20T00:19:43Z</time>
      </trkpt>
      <trkpt lat="56.07373" lon="-5.45643">
        <ele>21</ele>
        <time>2021-03-20T00:19:48Z</time>
      </trkpt>
      <trkpt lat="56.07427" lon="-5.45603">
        <ele>19.53</ele>
        <time>2021-03-20T00:19:52Z</time>
      </trkpt>
      <trkpt lat="56.07465" lon="-5.45568">
        <ele>18.18</ele>
        <time>2021-03-20T00:19:57Z</time>
      </trkpt>
      <trkpt lat="56.07479" lon="-5.45549">
        <ele>17.76</ele>
        <time>2021-03-20T00:20:02Z</time>
      </trkpt>
      <trkpt lat="56.07503" lon="-5.4552">
        <ele>16.91</ele>
        <time>2021-03-20T00:20:07Z</time>
      </trkpt>
      <trkpt lat="56.07615" lon="-5.45362">
        <ele>10.68</ele>
        <time>2021-03-20T00:20:11Z</time>
      </trkpt>
      <trkpt lat="56.07657" lon="-5.45324">
        <ele>9.49</ele>
        <time>2021-03-20T00:20:16Z</time>
      </trkpt>
      <trkpt lat="56.07687" lon="-5.45303">
        <ele>9.09</ele>
        <time>2021-03-20T00:20:21Z</time>
      </trkpt>
      <trkpt lat="56.07717" lon="-5.45287">
        <ele>8.85</ele>
        <time>2021-03-20T00:20:26Z</time>
      </trkpt>
      <trkpt lat="56.07763" lon="-5.45272">
        <ele>6.52</ele>
        <time>2021-03-20T00:20:30Z</time>
      </trkpt>
      <trkpt lat="56.07804" lon="-5.45267">
        <ele>6</ele>
        <time>2021-03-20T00:20:35Z</time>
      </trkpt>
      <trkpt lat="56.07903" lon="-5.4527">
        <ele>8.5</ele>
        <time>2021-03-20T00:20:40Z</time>
      </trkpt>
      <trkpt lat="56.07991" lon="-5.45276">
        <ele>7.34</ele>
        <time>2021-03-20T00:20:45Z</time>
      </trkpt>
      <trkpt lat="56.08026" lon="-5.45285">
        <ele>7.7</ele>
        <time>2021-03-20T00:20:49Z</time>
      </trkpt>
      <trkpt lat="56.08059" lon="-5.45298">
        <ele>7.4</ele>
        <time>2021-03-20T00:20:54Z</time>
      </trkpt>
      <trkpt lat="56.08096" lon="-5.45322">
        <ele>8</ele>
        <time>2021-03-20T00:20:59Z</time>
      </trkpt>
      <trkpt lat="56.08143" lon="-5.45366">
        <ele>8</ele>
        <time>2021-03-20T00:21:04Z</time>
      </trkpt>
      <trkpt lat="56.08168" lon="-5.45394">
        <ele>8.05</ele>
        <time>2021-03-20T00:21:08Z</time>
      </trkpt>
      <trkpt lat="56.08211" lon="-5.45454">
        <ele>8.23</ele>
        <time>2021-03-20T00:21:13Z</time>
      </trkpt>
      <trkpt lat="56.0823" lon="-5.4549">
        <ele>8.56</ele>
        <time>2021-03-20T00:21:18Z</time>
      </trkpt>
      <trkpt lat="56.08254" lon="-5.45542">
        <ele>10.16</ele>
        <time>2021-03-20T00:21:23Z</time>
      </trkpt>
      <trkpt lat="56.08459" lon="-5.46071">
        <ele>12.43</ele>
        <time>2021-03-20T00:21:27Z</time>
      </trkpt>
      <trkpt lat="56.08569" lon="-5.46287">
        <ele>12.2</ele>
        <time>2021-03-20T00:21:32Z</time>
      </trkpt>
      <trkpt lat="56.08569" lon="-5.46287">
        <ele>12.2</ele>
        <time>2021-03-20T00:21:32Z</time>
      </trkpt>
      <trkpt lat="56.08825" lon="-5.46796">
        <ele>14.06</ele>
        <time>2021-03-20T00:21:37Z</time>
      </trkpt>
      <trkpt lat="56.08842" lon="-5.46824">
        <ele>10.73</ele>
        <time>2021-03-20T00:21:42Z</time>
      </trkpt>
      <trkpt lat="56.08975" lon="-5.46985">
        <ele>8</ele>
        <time>2021-03-20T00:21:47Z</time>
      </trkpt>
      <trkpt lat="56.09164" lon="-5.47205">
        <ele>10.46</ele>
        <time>2021-03-20T00:21:53Z</time>
      </trkpt>
      <trkpt lat="56.09199" lon="-5.47244">
        <ele>9.64</ele>
        <time>2021-03-20T00:21:58Z</time>
      </trkpt>
      <trkpt lat="56.09242" lon="-5.47285">
        <ele>9.14</ele>
        <time>2021-03-20T00:22:03Z</time>
      </trkpt>
      <trkpt lat="56.09278" lon="-5.47316">
        <ele>10</ele>
        <time>2021-03-20T00:22:08Z</time>
      </trkpt>
      <trkpt lat="56.09323" lon="-5.47346">
        <ele>11.28</ele>
        <time>2021-03-20T00:22:13Z</time>
      </trkpt>
      <trkpt lat="56.09389" lon="-5.47379">
        <ele>10.02</ele>
        <time>2021-03-20T00:22:18Z</time>
      </trkpt>
      <trkpt lat="56.09645" lon="-5.47483">
        <ele>9.78</ele>
        <time>2021-03-20T00:22:23Z</time>
      </trkpt>
      <trkpt lat="56.10093" lon="-5.47671">
        <ele>13.52</ele>
        <time>2021-03-20T00:22:28Z</time>
      </trkpt>
      <trkpt lat="56.10129" lon="-5.47683">
        <ele>14.99</ele>
        <time>2021-03-20T00:22:33Z</time>
      </trkpt>
      <trkpt lat="56.10167" lon="-5.4769">
        <ele>15.43</ele>
        <time>2021-03-20T00:22:38Z</time>
      </trkpt>
      <trkpt lat="56.10263" lon="-5.4769">
        <ele>18.16</ele>
        <time>2021-03-20T00:22:44Z</time>
      </trkpt>
      <trkpt lat="56.10359" lon="-5.47665">
        <ele>21.58</ele>
        <time>2021-03-20T00:22:49Z</time>
      </trkpt>
      <trkpt lat="56.10409" lon="-5.47664">
        <ele>19.6</ele>
        <time>2021-03-20T00:22:54Z</time>
      </trkpt>
      <trkpt lat="56.10423" lon="-5.47667">
        <ele>19.21</ele>
        <time>2021-03-20T00:22:59Z</time>
      </trkpt>
      <trkpt lat="56.10435" lon="-5.47674">
        <ele>19.14</ele>
        <time>2021-03-20T00:23:04Z</time>
      </trkpt>
      <trkpt lat="56.10511" lon="-5.47734">
        <ele>21.18</ele>
        <time>2021-03-20T00:23:09Z</time>
      </trkpt>
      <trkpt lat="56.10538" lon="-5.47749">
        <ele>20.42</ele>
        <time>2021-03-20T00:23:14Z</time>
      </trkpt>
      <trkpt lat="56.10619" lon="-5.47788">
        <ele>20.71</ele>
        <time>2021-03-20T00:23:19Z</time>
      </trkpt>
      <trkpt lat="56.10664" lon="-5.47817">
        <ele>23.44</ele>
        <time>2021-03-20T00:23:24Z</time>
      </trkpt>
      <trkpt lat="56.10688" lon="-5.47838">
        <ele>23.61</ele>
        <time>2021-03-20T00:23:29Z</time>
      </trkpt>
      <trkpt lat="56.10799" lon="-5.47943">
        <ele>24.76</ele>
        <time>2021-03-20T00:23:35Z</time>
      </trkpt>
      <trkpt lat="56.10877" lon="-5.4801">
        <ele>29.52</ele>
        <time>2021-03-20T00:23:40Z</time>
      </trkpt>
      <trkpt lat="56.11302" lon="-5.48388">
        <ele>31.77</ele>
        <time>2021-03-20T00:23:45Z</time>
      </trkpt>
      <trkpt lat="56.11446" lon="-5.48584">
        <ele>36.21</ele>
        <time>2021-03-20T00:23:50Z</time>
      </trkpt>
      <trkpt lat="56.11546" lon="-5.48709">
        <ele>37.17</ele>
        <time>2021-03-20T00:23:55Z</time>
      </trkpt>
      <trkpt lat="56.11561" lon="-5.48732">
        <ele>35.52</ele>
        <time>2021-03-20T00:24:00Z</time>
      </trkpt>
      <trkpt lat="56.11594" lon="-5.48796">
        <ele>33.42</ele>
        <time>2021-03-20T00:24:05Z</time>
      </trkpt>
      <trkpt lat="56.11612" lon="-5.48842">
        <ele>32.68</ele>
        <time>2021-03-20T00:24:10Z</time>
      </trkpt>
      <trkpt lat="56.11662" lon="-5.48989">
        <ele>30.81</ele>
        <time>2021-03-20T00:24:15Z</time>
      </trkpt>
      <trkpt lat="56.11689" lon="-5.49043">
        <ele>30.76</ele>
        <time>2021-03-20T00:24:20Z</time>
      </trkpt>
      <trkpt lat="56.11716" lon="-5.49085">
        <ele>30.9</ele>
        <time>2021-03-20T00:24:26Z</time>
      </trkpt>
      <trkpt lat="56.11747" lon="-5.49129">
        <ele>30.69</ele>
        <time>2021-03-20T00:24:31Z</time>
      </trkpt>
      <trkpt lat="56.1178" lon="-5.49159">
        <ele>29.96</ele>
        <time>2021-03-20T00:24:36Z</time>
      </trkpt>
      <trkpt lat="56.11813" lon="-5.49173">
        <ele>29.15</ele>
        <time>2021-03-20T00:24:41Z</time>
      </trkpt>
      <trkpt lat="56.12037" lon="-5.49199">
        <ele>24.94</ele>
        <time>2021-03-20T00:24:46Z</time>
      </trkpt>
      <trkpt lat="56.12097" lon="-5.49208">
        <ele>23.12</ele>
        <time>2021-03-20T00:24:51Z</time>
      </trkpt>
      <trkpt lat="56.12132" lon="-5.49218">
        <ele>22.22</ele>
        <time>2021-03-20T00:24:56Z</time>
      </trkpt>
      <trkpt lat="56.12158" lon="-5.49223">
        <ele>22.67</ele>
        <time>2021-03-20T00:25:01Z</time>
      </trkpt>
      <trkpt lat="56.12177" lon="-5.49223">
        <ele>22.97</ele>
        <time>2021-03-20T00:25:06Z</time>
      </trkpt>
      <trkpt lat="56.12196" lon="-5.49218">
        <ele>23.36</ele>
        <time>2021-03-20T00:25:11Z</time>
      </trkpt>
      <trkpt lat="56.12213" lon="-5.49209">
        <ele>23.49</ele>
        <time>2021-03-20T00:25:17Z</time>
      </trkpt>
      <trkpt lat="56.12241" lon="-5.49186">
        <ele>24.07</ele>
        <time>2021-03-20T00:25:22Z</time>
      </trkpt>
      <trkpt lat="56.12288" lon="-5.49131">
        <ele>23.52</ele>
        <time>2021-03-20T00:25:27Z</time>
      </trkpt>
      <trkpt lat="56.12486" lon="-5.48924">
        <ele>29.53</ele>
        <time>2021-03-20T00:25:32Z</time>
      </trkpt>
      <trkpt lat="56.12538" lon="-5.48879">
        <ele>29.3</ele>
        <time>2021-03-20T00:25:37Z</time>
      </trkpt>
      <trkpt lat="56.1259" lon="-5.4884">
        <ele>29.57</ele>
        <time>2021-03-20T00:25:42Z</time>
      </trkpt>
      <trkpt lat="56.12708" lon="-5.48766">
        <ele>31.37</ele>
        <time>2021-03-20T00:25:47Z</time>
      </trkpt>
      <trkpt lat="56.1276" lon="-5.48729">
        <ele>32.06</ele>
        <time>2021-03-20T00:25:52Z</time>
      </trkpt>
      <trkpt lat="56.12888" lon="-5.48649">
        <ele>36.28</ele>
        <time>2021-03-20T00:25:57Z</time>
      </trkpt>
      <trkpt lat="56.12888" lon="-5.48649">
        <ele>36.28</ele>
        <time>2021-03-20T00:25:57Z</time>
      </trkpt>
      <trkpt lat="56.12989" lon="-5.48587">
        <ele>38.6</ele>
        <time>2021-03-20T00:26:01Z</time>
      </trkpt>
      <trkpt lat="56.13018" lon="-5.48564">
        <ele>37.02</ele>
        <time>2021-03-20T00:26:05Z</time>
      </trkpt>
      <trkpt lat="56.13046" lon="-5.48537">
        <ele>37.19</ele>
        <time>2021-03-20T00:26:09Z</time>
      </trkpt>
      <trkpt lat="56.13161" lon="-5.48415">
        <ele>37.32</ele>
        <time>2021-03-20T00:26:13Z</time>
      </trkpt>
      <trkpt lat="56.13177" lon="-5.48401">
        <ele>36.67</ele>
        <time>2021-03-20T00:26:16Z</time>
      </trkpt>
      <trkpt lat="56.13204" lon="-5.48385">
        <ele>35.71</ele>
        <time>2021-03-20T00:26:20Z</time>
      </trkpt>
      <trkpt lat="56.13227" lon="-5.48378">
        <ele>35.04</ele>
        <time>2021-03-20T00:26:24Z</time>
      </trkpt>
      <trkpt lat="56.13237" lon="-5.48378">
        <ele>35.63</ele>
        <time>2021-03-20T00:26:28Z</time>
      </trkpt>
      <trkpt lat="56.13245" lon="-5.48381">
        <ele>35.97</ele>
        <time>2021-03-20T00:26:32Z</time>
      </trkpt>
      <trkpt lat="56.13253" lon="-5.4839">
        <ele>36.24</ele>
        <time>2021-03-20T00:26:36Z</time>
      </trkpt>
      <trkpt lat="56.13268" lon="-5.4842">
        <ele>37.59</ele>
        <time>2021-03-20T00:26:39Z</time>
      </trkpt>
      <trkpt lat="56.13306" lon="-5.48549">
        <ele>42.98</ele>
        <time>2021-03-20T00:26:43Z</time>
      </trkpt>
      <trkpt lat="56.13312" lon="-5.4856">
        <ele>42.62</ele>
        <time>2021-03-20T00:26:47Z</time>
      </trkpt>
      <trkpt lat="56.13353" lon="-5.48612">
        <ele>41.97</ele>
        <time>2021-03-20T00:26:51Z</time>
      </trkpt>
      <trkpt lat="56.13394" lon="-5.48662">
        <ele>38.3</ele>
        <time>2021-03-20T00:26:55Z</time>
      </trkpt>
      <trkpt lat="56.13399" lon="-5.48666">
        <ele>37.52</ele>
        <time>2021-03-20T00:26:59Z</time>
      </trkpt>
      <trkpt lat="56.13411" lon="-5.48667">
        <ele>35.83</ele>
        <time>2021-03-20T00:27:02Z</time>
      </trkpt>
      <trkpt lat="56.13421" lon="-5.48665">
        <ele>34.6</ele>
        <time>2021-03-20T00:27:06Z</time>
      </trkpt>
      <trkpt lat="56.13474" lon="-5.48633">
        <ele>32.64</ele>
        <time>2021-03-20T00:27:10Z</time>
      </trkpt>
      <trkpt lat="56.13513" lon="-5.48615">
        <ele>30.77</ele>
        <time>2021-03-20T00:27:14Z</time>
      </trkpt>
      <trkpt lat="56.13532" lon="-5.48612">
        <ele>28.77</ele>
        <time>2021-03-20T00:27:18Z</time>
      </trkpt>
      <trkpt lat="56.13595" lon="-5.48614">
        <ele>25.47</ele>
        <time>2021-03-20T00:27:22Z</time>
      </trkpt>
      <trkpt lat="56.13608" lon="-5.48612">
        <ele>25.06</ele>
        <time>2021-03-20T00:27:25Z</time>
      </trkpt>
      <trkpt lat="56.1362" lon="-5.48607">
        <ele>25.18</ele>
        <time>2021-03-20T00:27:29Z</time>
      </trkpt>
      <trkpt lat="56.13659" lon="-5.48577">
        <ele>27.47</ele>
        <time>2021-03-20T00:27:33Z</time>
      </trkpt>
      <trkpt lat="56.13739" lon="-5.48508">
        <ele>26.12</ele>
        <time>2021-03-20T00:27:37Z</time>
      </trkpt>
      <trkpt lat="56.13761" lon="-5.48492">
        <ele>26.38</ele>
        <time>2021-03-20T00:27:41Z</time>
      </trkpt>
      <trkpt lat="56.13795" lon="-5.4847">
        <ele>26.5</ele>
        <time>2021-03-20T00:27:45Z</time>
      </trkpt>
      <trkpt lat="56.13941" lon="-5.48389">
        <ele>27.92</ele>
        <time>2021-03-20T00:27:48Z</time>
      </trkpt>
      <trkpt lat="56.13985" lon="-5.4836">
        <ele>29.12</ele>
        <time>2021-03-20T00:27:52Z</time>
      </trkpt>
      <trkpt lat="56.14045" lon="-5.48314">
        <ele>29.59</ele>
        <time>2021-03-20T00:27:56Z</time>
      </trkpt>
      <trkpt lat="56.14223" lon="-5.48154">
        <ele>30.81</ele>
        <time>2021-03-20T00:28:00Z</time>
      </trkpt>
      <trkpt lat="56.14243" lon="-5.4814">
        <ele>30.66</ele>
        <time>2021-03-20T00:28:04Z</time>
      </trkpt>
      <trkpt lat="56.1436" lon="-5.48077">
        <ele>29.24</ele>
        <time>2021-03-20T00:28:08Z</time>
      </trkpt>
      <trkpt lat="56.14425" lon="-5.48033">
        <ele>31.9</ele>
        <time>2021-03-20T00:28:12Z</time>
      </trkpt>
      <trkpt lat="56.14446" lon="-5.48022">
        <ele>31.1</ele>
        <time>2021-03-20T00:28:15Z</time>
      </trkpt>
      <trkpt lat="56.14575" lon="-5.47991">
        <ele>27.63</ele>
        <time>2021-03-20T00:28:19Z</time>
      </trkpt>
      <trkpt lat="56.14604" lon="-5.47971">
        <ele>27.32</ele>
        <time>2021-03-20T00:28:23Z</time>
      </trkpt>
      <trkpt lat="56.14766" lon="-5.47834">
        <ele>39.65</ele>
        <time>2021-03-20T00:28:27Z</time>
      </trkpt>
      <trkpt lat="56.14823" lon="-5.47772">
        <ele>36.06</ele>
        <time>2021-03-20T00:28:31Z</time>
      </trkpt>
      <trkpt lat="56.14956" lon="-5.47646">
        <ele>41.74</ele>
        <time>2021-03-20T00:28:35Z</time>
      </trkpt>
      <trkpt lat="56.15037" lon="-5.47562">
        <ele>41.92</ele>
        <time>2021-03-20T00:28:38Z</time>
      </trkpt>
      <trkpt lat="56.15092" lon="-5.47516">
        <ele>37.18</ele>
        <time>2021-03-20T00:28:42Z</time>
      </trkpt>
      <trkpt lat="56.15105" lon="-5.47512">
        <ele>35.89</ele>
        <time>2021-03-20T00:28:46Z</time>
      </trkpt>
      <trkpt lat="56.15124" lon="-5.47513">
        <ele>34.59</ele>
        <time>2021-03-20T00:28:50Z</time>
      </trkpt>
      <trkpt lat="56.15148" lon="-5.47494">
        <ele>33.9</ele>
        <time>2021-03-20T00:28:52Z</time>
      </trkpt>
      <trkpt lat="56.15156" lon="-5.47484">
        <ele>34.21</ele>
        <time>2021-03-20T00:28:54Z</time>
      </trkpt>
      <trkpt lat="56.15179" lon="-5.4744">
        <ele>36.01</ele>
        <time>2021-03-20T00:28:57Z</time>
      </trkpt>
      <trkpt lat="56.15195" lon="-5.47414">
        <ele>38.48</ele>
        <time>2021-03-20T00:28:59Z</time>
      </trkpt>
      <trkpt lat="56.15213" lon="-5.47398">
        <ele>38.67</ele>
        <time>2021-03-20T00:29:01Z</time>
      </trkpt>
      <trkpt lat="56.15268" lon="-5.47343">
        <ele>45.3</ele>
        <time>2021-03-20T00:29:03Z</time>
      </trkpt>
      <trkpt lat="56.15306" lon="-5.47297">
        <ele>45.01</ele>
        <time>2021-03-20T00:29:06Z</time>
      </trkpt>
      <trkpt lat="56.15333" lon="-5.4723">
        <ele>41.62</ele>
        <time>2021-03-20T00:29:08Z</time>
      </trkpt>
      <trkpt lat="56.15346" lon="-5.47144">
        <ele>42.28</ele>
        <time>2021-03-20T00:29:10Z</time>
      </trkpt>
      <trkpt lat="56.15344" lon="-5.46719">
        <ele>39.97</ele>
        <time>2021-03-20T00:29:12Z</time>
      </trkpt>
      <trkpt lat="56.15352" lon="-5.46666">
        <ele>40.75</ele>
        <time>2021-03-20T00:29:15Z</time>
      </trkpt>
      <trkpt lat="56.15377" lon="-5.46602">
        <ele>42.14</ele>
        <time>2021-03-20T00:29:17Z</time>
      </trkpt>
      <trkpt lat="56.15389" lon="-5.46555">
        <ele>43.06</ele>
        <time>2021-03-20T00:29:19Z</time>
      </trkpt>
      <trkpt lat="56.15391" lon="-5.46502">
        <ele>43.94</ele>
        <time>2021-03-20T00:29:21Z</time>
      </trkpt>
      <trkpt lat="56.15385" lon="-5.46399">
        <ele>43.99</ele>
        <time>2021-03-20T00:29:24Z</time>
      </trkpt>
      <trkpt lat="56.15377" lon="-5.46334">
        <ele>42.29</ele>
        <time>2021-03-20T00:29:26Z</time>
      </trkpt>
      <trkpt lat="56.15366" lon="-5.4628">
        <ele>43.06</ele>
        <time>2021-03-20T00:29:28Z</time>
      </trkpt>
      <trkpt lat="56.15351" lon="-5.46244">
        <ele>45.68</ele>
        <time>2021-03-20T00:29:30Z</time>
      </trkpt>
      <trkpt lat="56.15328" lon="-5.46202">
        <ele>47.06</ele>
        <time>2021-03-20T00:29:33Z</time>
      </trkpt>
      <trkpt lat="56.15291" lon="-5.46157">
        <ele>49.19</ele>
        <time>2021-03-20T00:29:35Z</time>
      </trkpt>
      <trkpt lat="56.15268" lon="-5.46108">
        <ele>47.84</ele>
        <time>2021-03-20T00:29:37Z</time>
      </trkpt>
      <trkpt lat="56.15233" lon="-5.45995">
        <ele>49.58</ele>
        <time>2021-03-20T00:29:39Z</time>
      </trkpt>
      <trkpt lat="56.15231" lon="-5.4595">
        <ele>47.96</ele>
        <time>2021-03-20T00:29:42Z</time>
      </trkpt>
      <trkpt lat="56.15238" lon="-5.45879">
        <ele>45.83</ele>
        <time>2021-03-20T00:29:44Z</time>
      </trkpt>
      <trkpt lat="56.15257" lon="-5.45825">
        <ele>45.31</ele>
        <time>2021-03-20T00:29:46Z</time>
      </trkpt>
      <trkpt lat="56.15374" lon="-5.45506">
        <ele>46.63</ele>
        <time>2021-03-20T00:29:48Z</time>
      </trkpt>
      <trkpt lat="56.15419" lon="-5.45402">
        <ele>46.44</ele>
        <time>2021-03-20T00:29:51Z</time>
      </trkpt>
      <trkpt lat="56.15447" lon="-5.45363">
        <ele>46.84</ele>
        <time>2021-03-20T00:29:53Z</time>
      </trkpt>
      <trkpt lat="56.15569" lon="-5.45258">
        <ele>44.87</ele>
        <time>2021-03-20T00:29:55Z</time>
      </trkpt>
      <trkpt lat="56.15668" lon="-5.45181">
        <ele>45.43</ele>
        <time>2021-03-20T00:29:57Z</time>
      </trkpt>
      <trkpt lat="56.15695" lon="-5.45152">
        <ele>44.98</ele>
        <time>2021-03-20T00:30:00Z</time>
      </trkpt>
      <trkpt lat="56.15735" lon="-5.45089">
        <ele>44.34</ele>
        <time>2021-03-20T00:30:02Z</time>
      </trkpt>
      <trkpt lat="56.15892" lon="-5.44797">
        <ele>44.19</ele>
        <time>2021-03-20T00:30:04Z</time>
      </trkpt>
      <trkpt lat="56.15938" lon="-5.44751">
        <ele>44.22</ele>
        <time>2021-03-20T00:30:06Z</time>
      </trkpt>
      <trkpt lat="56.15974" lon="-5.44724">
        <ele>44.84</ele>
        <time>2021-03-20T00:30:09Z</time>
      </trkpt>
      <trkpt lat="56.16018" lon="-5.44703">
        <ele>43.83</ele>
        <time>2021-03-20T00:30:11Z</time>
      </trkpt>
      <trkpt lat="56.1604" lon="-5.44684">
        <ele>44.78</ele>
        <time>2021-03-20T00:30:13Z</time>
      </trkpt>
      <trkpt lat="56.16137" lon="-5.44575">
        <ele>47.1</ele>
        <time>2021-03-20T00:30:15Z</time>
      </trkpt>
      <trkpt lat="56.16152" lon="-5.44533">
        <ele>47.35</ele>
        <time>2021-03-20T00:30:18Z</time>
      </trkpt>
      <trkpt lat="56.16162" lon="-5.44469">
        <ele>50.6</ele>
        <time>2021-03-20T00:30:20Z</time>
      </trkpt>
      <trkpt lat="56.16165" lon="-5.44378">
        <ele>49.09</ele>
        <time>2021-03-20T00:30:22Z</time>
      </trkpt>
      <trkpt lat="56.16171" lon="-5.44305">
        <ele>48.14</ele>
        <time>2021-03-20T00:30:24Z</time>
      </trkpt>
      <trkpt lat="56.16184" lon="-5.44259">
        <ele>49.66</ele>
        <time>2021-03-20T00:30:27Z</time>
      </trkpt>
      <trkpt lat="56.16246" lon="-5.44161">
        <ele>47.1</ele>
        <time>2021-03-20T00:30:29Z</time>
      </trkpt>
      <trkpt lat="56.16412" lon="-5.44">
        <ele>41</ele>
        <time>2021-03-20T00:30:31Z</time>
      </trkpt>
      <trkpt lat="56.16444" lon="-5.43966">
        <ele>39.55</ele>
        <time>2021-03-20T00:30:33Z</time>
      </trkpt>
      <trkpt lat="56.16459" lon="-5.43946">
        <ele>38.64</ele>
        <time>2021-03-20T00:30:36Z</time>
      </trkpt>
      <trkpt lat="56.1647" lon="-5.43921">
        <ele>38.91</ele>
        <time>2021-03-20T00:30:38Z</time>
      </trkpt>
      <trkpt lat="56.16486" lon="-5.43871">
        <ele>40.98</ele>
        <time>2021-03-20T00:30:40Z</time>
      </trkpt>
      <trkpt lat="56.16498" lon="-5.43846">
        <ele>41.92</ele>
        <time>2021-03-20T00:30:42Z</time>
      </trkpt>
      <trkpt lat="56.16547" lon="-5.43815">
        <ele>44.9</ele>
        <time>2021-03-20T00:30:45Z</time>
      </trkpt>
      <trkpt lat="56.16587" lon="-5.43811">
        <ele>45.07</ele>
        <time>2021-03-20T00:30:47Z</time>
      </trkpt>
      <trkpt lat="56.16607" lon="-5.43817">
        <ele>44.56</ele>
        <time>2021-03-20T00:30:49Z</time>
      </trkpt>
      <trkpt lat="56.16653" lon="-5.43845">
        <ele>44.31</ele>
        <time>2021-03-20T00:30:51Z</time>
      </trkpt>
      <trkpt lat="56.16673" lon="-5.43846">
        <ele>43.72</ele>
        <time>2021-03-20T00:30:54Z</time>
      </trkpt>
      <trkpt lat="56.16707" lon="-5.43833">
        <ele>41.99</ele>
        <time>2021-03-20T00:30:56Z</time>
      </trkpt>
      <trkpt lat="56.16737" lon="-5.43825">
        <ele>43.32</ele>
        <time>2021-03-20T00:30:58Z</time>
      </trkpt>
      <trkpt lat="56.1677" lon="-5.43827">
        <ele>47.63</ele>
        <time>2021-03-20T00:31:00Z</time>
      </trkpt>
      <trkpt lat="56.16847" lon="-5.43839">
        <ele>39.87</ele>
        <time>2021-03-20T00:31:03Z</time>
      </trkpt>
      <trkpt lat="56.1699" lon="-5.43877">
        <ele>49.03</ele>
        <time>2021-03-20T00:31:05Z</time>
      </trkpt>
      <trkpt lat="56.17117" lon="-5.43877">
        <ele>52.57</ele>
        <time>2021-03-20T00:31:07Z</time>
      </trkpt>
      <trkpt lat="56.17145" lon="-5.4388">
        <ele>51.56</ele>
        <time>2021-03-20T00:31:09Z</time>
      </trkpt>
      <trkpt lat="56.17181" lon="-5.43891">
        <ele>50.76</ele>
        <time>2021-03-20T00:31:12Z</time>
      </trkpt>
      <trkpt lat="56.17211" lon="-5.43892">
        <ele>52.99</ele>
        <time>2021-03-20T00:31:14Z</time>
      </trkpt>
      <trkpt lat="56.17222" lon="-5.43888">
        <ele>53.92</ele>
        <time>2021-03-20T00:31:16Z</time>
      </trkpt>
      <trkpt lat="56.17238" lon="-5.43875">
        <ele>53.49</ele>
        <time>2021-03-20T00:31:18Z</time>
      </trkpt>
      <trkpt lat="56.17341" lon="-5.43769">
        <ele>51.67</ele>
        <time>2021-03-20T00:31:21Z</time>
      </trkpt>
      <trkpt lat="56.17411" lon="-5.43702">
        <ele>49.69</ele>
        <time>2021-03-20T00:31:23Z</time>
      </trkpt>
      <trkpt lat="56.1753" lon="-5.43605">
        <ele>44.08</ele>
        <time>2021-03-20T00:31:25Z</time>
      </trkpt>
      <trkpt lat="56.17558" lon="-5.43583">
        <ele>45.08</ele>
        <time>2021-03-20T00:31:27Z</time>
      </trkpt>
      <trkpt lat="56.17587" lon="-5.43564">
        <ele>44.76</ele>
        <time>2021-03-20T00:31:30Z</time>
      </trkpt>
      <trkpt lat="56.17674" lon="-5.4353">
        <ele>45.07</ele>
        <time>2021-03-20T00:31:32Z</time>
      </trkpt>
      <trkpt lat="56.17678" lon="-5.43522">
        <ele>44.66</ele>
        <time>2021-03-20T00:31:34Z</time>
      </trkpt>
      <trkpt lat="56.17675" lon="-5.43475">
        <ele>43.31</ele>
        <time>2021-03-20T00:31:36Z</time>
      </trkpt>
      <trkpt lat="56.17671" lon="-5.43452">
        <ele>43.15</ele>
        <time>2021-03-20T00:31:39Z</time>
      </trkpt>
      <trkpt lat="56.17669" lon="-5.43413">
        <ele>44.23</ele>
        <time>2021-03-20T00:31:41Z</time>
      </trkpt>
      <trkpt lat="56.17665" lon="-5.43386">
        <ele>45.25</ele>
        <time>2021-03-20T00:31:43Z</time>
      </trkpt>
      <trkpt lat="56.17659" lon="-5.43367">
        <ele>46.67</ele>
        <time>2021-03-20T00:31:45Z</time>
      </trkpt>
      <trkpt lat="56.17644" lon="-5.43327">
        <ele>49</ele>
        <time>2021-03-20T00:31:48Z</time>
      </trkpt>
      <trkpt lat="56.17637" lon="-5.43298">
        <ele>49.09</ele>
        <time>2021-03-20T00:31:50Z</time>
      </trkpt>
      <trkpt lat="56.17635" lon="-5.43273">
        <ele>49</ele>
        <time>2021-03-20T00:31:52Z</time>
      </trkpt>
      <trkpt lat="56.17633" lon="-5.43141">
        <ele>46.63</ele>
        <time>2021-03-20T00:31:54Z</time>
      </trkpt>
      <trkpt lat="56.17636" lon="-5.43113">
        <ele>45.76</ele>
        <time>2021-03-20T00:31:57Z</time>
      </trkpt>
      <trkpt lat="56.17646" lon="-5.43075">
        <ele>47.83</ele>
        <time>2021-03-20T00:31:59Z</time>
      </trkpt>
      <trkpt lat="56.17647" lon="-5.43043">
        <ele>48.26</ele>
        <time>2021-03-20T00:32:01Z</time>
      </trkpt>
      <trkpt lat="56.17646" lon="-5.42988">
        <ele>48.33</ele>
        <time>2021-03-20T00:32:03Z</time>
      </trkpt>
      <trkpt lat="56.1765" lon="-5.42958">
        <ele>49.75</ele>
        <time>2021-03-20T00:32:06Z</time>
      </trkpt>
      <trkpt lat="56.17664" lon="-5.42913">
        <ele>52.04</ele>
        <time>2021-03-20T00:32:08Z</time>
      </trkpt>
      <trkpt lat="56.17682" lon="-5.42869">
        <ele>53.33</ele>
        <time>2021-03-20T00:32:10Z</time>
      </trkpt>
      <trkpt lat="56.17695" lon="-5.42842">
        <ele>52.97</ele>
        <time>2021-03-20T00:32:12Z</time>
      </trkpt>
      <trkpt lat="56.17699" lon="-5.42823">
        <ele>53.03</ele>
        <time>2021-03-20T00:32:15Z</time>
      </trkpt>
      <trkpt lat="56.17709" lon="-5.42733">
        <ele>54.73</ele>
        <time>2021-03-20T00:32:17Z</time>
      </trkpt>
      <trkpt lat="56.17707" lon="-5.4262">
        <ele>54.3</ele>
        <time>2021-03-20T00:32:19Z</time>
      </trkpt>
      <trkpt lat="56.17722" lon="-5.42548">
        <ele>52.26</ele>
        <time>2021-03-20T00:32:21Z</time>
      </trkpt>
      <trkpt lat="56.17731" lon="-5.42513">
        <ele>52.22</ele>
        <time>2021-03-20T00:32:24Z</time>
      </trkpt>
      <trkpt lat="56.17743" lon="-5.42483">
        <ele>52.45</ele>
        <time>2021-03-20T00:32:26Z</time>
      </trkpt>
      <trkpt lat="56.17768" lon="-5.42437">
        <ele>52.9</ele>
        <time>2021-03-20T00:32:28Z</time>
      </trkpt>
      <trkpt lat="56.17782" lon="-5.42426">
        <ele>53.06</ele>
        <time>2021-03-20T00:32:30Z</time>
      </trkpt>
      <trkpt lat="56.17809" lon="-5.42414">
        <ele>53.32</ele>
        <time>2021-03-20T00:32:33Z</time>
      </trkpt>
      <trkpt lat="56.17825" lon="-5.42402">
        <ele>55.03</ele>
        <time>2021-03-20T00:32:35Z</time>
      </trkpt>
      <trkpt lat="56.17888" lon="-5.42331">
        <ele>59.31</ele>
        <time>2021-03-20T00:32:37Z</time>
      </trkpt>
      <trkpt lat="56.17902" lon="-5.42306">
        <ele>58.64</ele>
        <time>2021-03-20T00:32:39Z</time>
      </trkpt>
      <trkpt lat="56.17913" lon="-5.4228">
        <ele>57.71</ele>
        <time>2021-03-20T00:32:42Z</time>
      </trkpt>
      <trkpt lat="56.17943" lon="-5.42189">
        <ele>55.55</ele>
        <time>2021-03-20T00:32:44Z</time>
      </trkpt>
      <trkpt lat="56.17967" lon="-5.42058">
        <ele>58.94</ele>
        <time>2021-03-20T00:32:46Z</time>
      </trkpt>
      <trkpt lat="56.17978" lon="-5.4199">
        <ele>59.42</ele>
        <time>2021-03-20T00:32:48Z</time>
      </trkpt>
      <trkpt lat="56.17987" lon="-5.41874">
        <ele>53.06</ele>
        <time>2021-03-20T00:32:51Z</time>
      </trkpt>
      <trkpt lat="56.17986" lon="-5.41845">
        <ele>51.54</ele>
        <time>2021-03-20T00:32:53Z</time>
      </trkpt>
      <trkpt lat="56.17978" lon="-5.41811">
        <ele>53.07</ele>
        <time>2021-03-20T00:32:55Z</time>
      </trkpt>
      <trkpt lat="56.17969" lon="-5.41788">
        <ele>54.76</ele>
        <time>2021-03-20T00:32:57Z</time>
      </trkpt>
      <trkpt lat="56.17943" lon="-5.41748">
        <ele>56.09</ele>
        <time>2021-03-20T00:33:00Z</time>
      </trkpt>
      <trkpt lat="56.17932" lon="-5.41713">
        <ele>56.35</ele>
        <time>2021-03-20T00:33:02Z</time>
      </trkpt>
      <trkpt lat="56.17929" lon="-5.4169">
        <ele>56.85</ele>
        <time>2021-03-20T00:33:04Z</time>
      </trkpt>
      <trkpt lat="56.17929" lon="-5.41667">
        <ele>57.7</ele>
        <time>2021-03-20T00:33:06Z</time>
      </trkpt>
      <trkpt lat="56.17938" lon="-5.41568">
        <ele>56.63</ele>
        <time>2021-03-20T00:33:09Z</time>
      </trkpt>
      <trkpt lat="56.17943" lon="-5.41542">
        <ele>57.29</ele>
        <time>2021-03-20T00:33:11Z</time>
      </trkpt>
      <trkpt lat="56.17958" lon="-5.4148">
        <ele>56.11</ele>
        <time>2021-03-20T00:33:13Z</time>
      </trkpt>
      <trkpt lat="56.17963" lon="-5.41445">
        <ele>54.46</ele>
        <time>2021-03-20T00:33:15Z</time>
      </trkpt>
      <trkpt lat="56.17961" lon="-5.41403">
        <ele>53.42</ele>
        <time>2021-03-20T00:33:18Z</time>
      </trkpt>
      <trkpt lat="56.17953" lon="-5.41336">
        <ele>54.52</ele>
        <time>2021-03-20T00:33:20Z</time>
      </trkpt>
      <trkpt lat="56.17947" lon="-5.41301">
        <ele>56.69</ele>
        <time>2021-03-20T00:33:22Z</time>
      </trkpt>
      <trkpt lat="56.17925" lon="-5.41185">
        <ele>63.15</ele>
        <time>2021-03-20T00:33:24Z</time>
      </trkpt>
      <trkpt lat="56.17923" lon="-5.41123">
        <ele>62.08</ele>
        <time>2021-03-20T00:33:27Z</time>
      </trkpt>
      <trkpt lat="56.17929" lon="-5.4101">
        <ele>57.79</ele>
        <time>2021-03-20T00:33:29Z</time>
      </trkpt>
      <trkpt lat="56.17936" lon="-5.40964">
        <ele>55.79</ele>
        <time>2021-03-20T00:33:31Z</time>
      </trkpt>
      <trkpt lat="56.17955" lon="-5.40868">
        <ele>49.92</ele>
        <time>2021-03-20T00:33:33Z</time>
      </trkpt>
      <trkpt lat="56.17972" lon="-5.40814">
        <ele>49.67</ele>
        <time>2021-03-20T00:33:36Z</time>
      </trkpt>
      <trkpt lat="56.17999" lon="-5.4076">
        <ele>50.59</ele>
        <time>2021-03-20T00:33:38Z</time>
      </trkpt>
      <trkpt lat="56.18056" lon="-5.40661">
        <ele>49.07</ele>
        <time>2021-03-20T00:33:40Z</time>
      </trkpt>
      <trkpt lat="56.18061" lon="-5.40648">
        <ele>48.79</ele>
        <time>2021-03-20T00:33:43Z</time>
      </trkpt>
      <trkpt lat="56.18061" lon="-5.40622">
        <ele>50.17</ele>
        <time>2021-03-20T00:33:45Z</time>
      </trkpt>
      <trkpt lat="56.1804" lon="-5.40508">
        <ele>54.46</ele>
        <time>2021-03-20T00:33:47Z</time>
      </trkpt>
      <trkpt lat="56.18029" lon="-5.40407">
        <ele>51.52</ele>
        <time>2021-03-20T00:33:49Z</time>
      </trkpt>
      <trkpt lat="56.18022" lon="-5.40256">
        <ele>54</ele>
        <time>2021-03-20T00:33:52Z</time>
      </trkpt>
      <trkpt lat="56.18023" lon="-5.40179">
        <ele>51.15</ele>
        <time>2021-03-20T00:33:54Z</time>
      </trkpt>
      <trkpt lat="56.18029" lon="-5.40142">
        <ele>49.84</ele>
        <time>2021-03-20T00:33:56Z</time>
      </trkpt>
      <trkpt lat="56.18038" lon="-5.40095">
        <ele>47.52</ele>
        <time>2021-03-20T00:33:58Z</time>
      </trkpt>
      <trkpt lat="56.18068" lon="-5.39959">
        <ele>43.99</ele>
        <time>2021-03-20T00:34:01Z</time>
      </trkpt>
      <trkpt lat="56.18074" lon="-5.39909">
        <ele>43.09</ele>
        <time>2021-03-20T00:34:03Z</time>
      </trkpt>
      <trkpt lat="56.18085" lon="-5.39771">
        <ele>42.85</ele>
        <time>2021-03-20T00:34:05Z</time>
      </trkpt>
      <trkpt lat="56.18097" lon="-5.39702">
        <ele>44.16</ele>
        <time>2021-03-20T00:34:07Z</time>
      </trkpt>
      <trkpt lat="56.18102" lon="-5.39682">
        <ele>44.88</ele>
        <time>2021-03-20T00:34:10Z</time>
      </trkpt>
      <trkpt lat="56.18128" lon="-5.39614">
        <ele>44.11</ele>
        <time>2021-03-20T00:34:12Z</time>
      </trkpt>
      <trkpt lat="56.18187" lon="-5.39438">
        <ele>36.82</ele>
        <time>2021-03-20T00:34:14Z</time>
      </trkpt>
      <trkpt lat="56.18215" lon="-5.39349">
        <ele>42.61</ele>
        <time>2021-03-20T00:34:16Z</time>
      </trkpt>
      <trkpt lat="56.1823" lon="-5.39299">
        <ele>44.06</ele>
        <time>2021-03-20T00:34:19Z</time>
      </trkpt>
      <trkpt lat="56.18239" lon="-5.39258">
        <ele>44.62</ele>
        <time>2021-03-20T00:34:21Z</time>
      </trkpt>
      <trkpt lat="56.18254" lon="-5.39153">
        <ele>49.47</ele>
        <time>2021-03-20T00:34:23Z</time>
      </trkpt>
      <trkpt lat="56.1826" lon="-5.39105">
        <ele>53.24</ele>
        <time>2021-03-20T00:34:25Z</time>
      </trkpt>
      <trkpt lat="56.18263" lon="-5.39053">
        <ele>52.65</ele>
        <time>2021-03-20T00:34:28Z</time>
      </trkpt>
      <trkpt lat="56.18262" lon="-5.38997">
        <ele>51.17</ele>
        <time>2021-03-20T00:34:30Z</time>
      </trkpt>
      <trkpt lat="56.18255" lon="-5.38957">
        <ele>48.96</ele>
        <time>2021-03-20T00:34:32Z</time>
      </trkpt>
      <trkpt lat="56.18246" lon="-5.38921">
        <ele>47.31</ele>
        <time>2021-03-20T00:34:34Z</time>
      </trkpt>
      <trkpt lat="56.18242" lon="-5.38895">
        <ele>45.75</ele>
        <time>2021-03-20T00:34:37Z</time>
      </trkpt>
      <trkpt lat="56.1824" lon="-5.38868">
        <ele>45.38</ele>
        <time>2021-03-20T00:34:39Z</time>
      </trkpt>
      <trkpt lat="56.1824" lon="-5.38844">
        <ele>45.77</ele>
        <time>2021-03-20T00:34:41Z</time>
      </trkpt>
      <trkpt lat="56.18251" lon="-5.3875">
        <ele>45.01</ele>
        <time>2021-03-20T00:34:43Z</time>
      </trkpt>
      <trkpt lat="56.18256" lon="-5.38715">
        <ele>43.98</ele>
        <time>2021-03-20T00:34:46Z</time>
      </trkpt>
      <trkpt lat="56.18307" lon="-5.3851">
        <ele>39.35</ele>
        <time>2021-03-20T00:34:48Z</time>
      </trkpt>
      <trkpt lat="56.18364" lon="-5.38304">
        <ele>46.75</ele>
        <time>2021-03-20T00:34:50Z</time>
      </trkpt>
      <trkpt lat="56.18384" lon="-5.38257">
        <ele>46.47</ele>
        <time>2021-03-20T00:34:52Z</time>
      </trkpt>
      <trkpt lat="56.18541" lon="-5.37973">
        <ele>46.44</ele>
        <time>2021-03-20T00:34:55Z</time>
      </trkpt>
      <trkpt lat="56.1856" lon="-5.37917">
        <ele>47.32</ele>
        <time>2021-03-20T00:34:57Z</time>
      </trkpt>
      <trkpt lat="56.18577" lon="-5.37881">
        <ele>46.17</ele>
        <time>2021-03-20T00:34:59Z</time>
      </trkpt>
      <trkpt lat="56.18595" lon="-5.37856">
        <ele>45.11</ele>
        <time>2021-03-20T00:35:01Z</time>
      </trkpt>
      <trkpt lat="56.18688" lon="-5.37731">
        <ele>44.53</ele>
        <time>2021-03-20T00:35:04Z</time>
      </trkpt>
      <trkpt lat="56.18731" lon="-5.37665">
        <ele>45.75</ele>
        <time>2021-03-20T00:35:06Z</time>
      </trkpt>
      <trkpt lat="56.18769" lon="-5.37597">
        <ele>45.79</ele>
        <time>2021-03-20T00:35:08Z</time>
      </trkpt>
      <trkpt lat="56.18804" lon="-5.37503">
        <ele>43.34</ele>
        <time>2021-03-20T00:35:10Z</time>
      </trkpt>
      <trkpt lat="56.18866" lon="-5.37347">
        <ele>45.1</ele>
        <time>2021-03-20T00:35:13Z</time>
      </trkpt>
      <trkpt lat="56.18897" lon="-5.37264">
        <ele>44.49</ele>
        <time>2021-03-20T00:35:15Z</time>
      </trkpt>
      <trkpt lat="56.18909" lon="-5.37215">
        <ele>44.12</ele>
        <time>2021-03-20T00:35:17Z</time>
      </trkpt>
      <trkpt lat="56.18918" lon="-5.37137">
        <ele>43.96</ele>
        <time>2021-03-20T00:35:19Z</time>
      </trkpt>
      <trkpt lat="56.18923" lon="-5.37103">
        <ele>43.53</ele>
        <time>2021-03-20T00:35:22Z</time>
      </trkpt>
      <trkpt lat="56.18934" lon="-5.37059">
        <ele>45.18</ele>
        <time>2021-03-20T00:35:24Z</time>
      </trkpt>
      <trkpt lat="56.18944" lon="-5.3703">
        <ele>46.9</ele>
        <time>2021-03-20T00:35:26Z</time>
      </trkpt>
      <trkpt lat="56.18955" lon="-5.37009">
        <ele>44.19</ele>
        <time>2021-03-20T00:35:28Z</time>
      </trkpt>
      <trkpt lat="56.18968" lon="-5.36994">
        <ele>44.08</ele>
        <time>2021-03-20T00:35:31Z</time>
      </trkpt>
      <trkpt lat="56.18978" lon="-5.36978">
        <ele>44.15</ele>
        <time>2021-03-20T00:35:33Z</time>
      </trkpt>
      <trkpt lat="56.19017" lon="-5.36896">
        <ele>48.85</ele>
        <time>2021-03-20T00:35:35Z</time>
      </trkpt>
      <trkpt lat="56.1904" lon="-5.36845">
        <ele>47.8</ele>
        <time>2021-03-20T00:35:37Z</time>
      </trkpt>
      <trkpt lat="56.19095" lon="-5.3674">
        <ele>45.26</ele>
        <time>2021-03-20T00:35:40Z</time>
      </trkpt>
      <trkpt lat="56.19119" lon="-5.36672">
        <ele>44.35</ele>
        <time>2021-03-20T00:35:42Z</time>
      </trkpt>
      <trkpt lat="56.19133" lon="-5.366">
        <ele>47.91</ele>
        <time>2021-03-20T00:35:44Z</time>
      </trkpt>
      <trkpt lat="56.19148" lon="-5.36505">
        <ele>47.47</ele>
        <time>2021-03-20T00:35:46Z</time>
      </trkpt>
      <trkpt lat="56.19154" lon="-5.36481">
        <ele>50.28</ele>
        <time>2021-03-20T00:35:49Z</time>
      </trkpt>
      <trkpt lat="56.1917" lon="-5.36438">
        <ele>45.48</ele>
        <time>2021-03-20T00:35:51Z</time>
      </trkpt>
      <trkpt lat="56.19197" lon="-5.36389">
        <ele>44.21</ele>
        <time>2021-03-20T00:35:53Z</time>
      </trkpt>
      <trkpt lat="56.19223" lon="-5.36351">
        <ele>47.51</ele>
        <time>2021-03-20T00:35:55Z</time>
      </trkpt>
      <trkpt lat="56.19242" lon="-5.3632">
        <ele>45.05</ele>
        <time>2021-03-20T00:35:58Z</time>
      </trkpt>
      <trkpt lat="56.19262" lon="-5.36265">
        <ele>44.89</ele>
        <time>2021-03-20T00:36:00Z</time>
      </trkpt>
      <trkpt lat="56.19277" lon="-5.36191">
        <ele>46.59</ele>
        <time>2021-03-20T00:36:02Z</time>
      </trkpt>
      <trkpt lat="56.19293" lon="-5.36121">
        <ele>48.71</ele>
        <time>2021-03-20T00:36:04Z</time>
      </trkpt>
      <trkpt lat="56.19318" lon="-5.36048">
        <ele>50.39</ele>
        <time>2021-03-20T00:36:07Z</time>
      </trkpt>
      <trkpt lat="56.19334" lon="-5.36011">
        <ele>47.87</ele>
        <time>2021-03-20T00:36:09Z</time>
      </trkpt>
      <trkpt lat="56.19355" lon="-5.35956">
        <ele>48.53</ele>
        <time>2021-03-20T00:36:11Z</time>
      </trkpt>
      <trkpt lat="56.19396" lon="-5.35865">
        <ele>52.63</ele>
        <time>2021-03-20T00:36:13Z</time>
      </trkpt>
      <trkpt lat="56.19413" lon="-5.35843">
        <ele>50.27</ele>
        <time>2021-03-20T00:36:16Z</time>
      </trkpt>
      <trkpt lat="56.19446" lon="-5.35772">
        <ele>49.27</ele>
        <time>2021-03-20T00:36:18Z</time>
      </trkpt>
      <trkpt lat="56.19484" lon="-5.3566">
        <ele>49.37</ele>
        <time>2021-03-20T00:36:20Z</time>
      </trkpt>
      <trkpt lat="56.19525" lon="-5.3555">
        <ele>50.12</ele>
        <time>2021-03-20T00:36:22Z</time>
      </trkpt>
      <trkpt lat="56.19533" lon="-5.35526">
        <ele>50.24</ele>
        <time>2021-03-20T00:36:25Z</time>
      </trkpt>
      <trkpt lat="56.19548" lon="-5.35451">
        <ele>50.16</ele>
        <time>2021-03-20T00:36:27Z</time>
      </trkpt>
      <trkpt lat="56.19573" lon="-5.35358">
        <ele>47.64</ele>
        <time>2021-03-20T00:36:29Z</time>
      </trkpt>
      <trkpt lat="56.19602" lon="-5.35274">
        <ele>47.85</ele>
        <time>2021-03-20T00:36:31Z</time>
      </trkpt>
      <trkpt lat="56.1964" lon="-5.35192">
        <ele>50.4</ele>
        <time>2021-03-20T00:36:34Z</time>
      </trkpt>
      <trkpt lat="56.19643" lon="-5.35166">
        <ele>54.65</ele>
        <time>2021-03-20T00:36:36Z</time>
      </trkpt>
      <trkpt lat="56.19647" lon="-5.35105">
        <ele>61.39</ele>
        <time>2021-03-20T00:36:38Z</time>
      </trkpt>
      <trkpt lat="56.19651" lon="-5.35074">
        <ele>61.96</ele>
        <time>2021-03-20T00:36:40Z</time>
      </trkpt>
      <trkpt lat="56.19672" lon="-5.35024">
        <ele>54.27</ele>
        <time>2021-03-20T00:36:43Z</time>
      </trkpt>
      <trkpt lat="56.19701" lon="-5.34968">
        <ele>49.55</ele>
        <time>2021-03-20T00:36:45Z</time>
      </trkpt>
      <trkpt lat="56.19764" lon="-5.34867">
        <ele>48.67</ele>
        <time>2021-03-20T00:36:47Z</time>
      </trkpt>
      <trkpt lat="56.1978" lon="-5.34839">
        <ele>49.9</ele>
        <time>2021-03-20T00:36:49Z</time>
      </trkpt>
      <trkpt lat="56.19795" lon="-5.34806">
        <ele>50.37</ele>
        <time>2021-03-20T00:36:52Z</time>
      </trkpt>
      <trkpt lat="56.19837" lon="-5.34678">
        <ele>52.24</ele>
        <time>2021-03-20T00:36:54Z</time>
      </trkpt>
      <trkpt lat="56.1988" lon="-5.34541">
        <ele>47.59</ele>
        <time>2021-03-20T00:36:56Z</time>
      </trkpt>
      <trkpt lat="56.19903" lon="-5.34458">
        <ele>53.46</ele>
        <time>2021-03-20T00:36:58Z</time>
      </trkpt>
      <trkpt lat="56.19925" lon="-5.34403">
        <ele>56.85</ele>
        <time>2021-03-20T00:37:01Z</time>
      </trkpt>
      <trkpt lat="56.19949" lon="-5.34351">
        <ele>60.6</ele>
        <time>2021-03-20T00:37:03Z</time>
      </trkpt>
      <trkpt lat="56.19969" lon="-5.34319">
        <ele>58.31</ele>
        <time>2021-03-20T00:37:05Z</time>
      </trkpt>
      <trkpt lat="56.19982" lon="-5.3429">
        <ele>58.67</ele>
        <time>2021-03-20T00:37:07Z</time>
      </trkpt>
      <trkpt lat="56.19987" lon="-5.34268">
        <ele>58.36</ele>
        <time>2021-03-20T00:37:10Z</time>
      </trkpt>
      <trkpt lat="56.19989" lon="-5.34244">
        <ele>60.26</ele>
        <time>2021-03-20T00:37:12Z</time>
      </trkpt>
      <trkpt lat="56.20003" lon="-5.34145">
        <ele>61.01</ele>
        <time>2021-03-20T00:37:14Z</time>
      </trkpt>
      <trkpt lat="56.20012" lon="-5.34114">
        <ele>58.16</ele>
        <time>2021-03-20T00:37:16Z</time>
      </trkpt>
      <trkpt lat="56.20025" lon="-5.34076">
        <ele>52.1</ele>
        <time>2021-03-20T00:37:19Z</time>
      </trkpt>
      <trkpt lat="56.20068" lon="-5.33979">
        <ele>49.31</ele>
        <time>2021-03-20T00:37:21Z</time>
      </trkpt>
      <trkpt lat="56.20114" lon="-5.33826">
        <ele>61.01</ele>
        <time>2021-03-20T00:37:23Z</time>
      </trkpt>
      <trkpt lat="56.20126" lon="-5.33794">
        <ele>61.08</ele>
        <time>2021-03-20T00:37:25Z</time>
      </trkpt>
      <trkpt lat="56.20161" lon="-5.33726">
        <ele>57.63</ele>
        <time>2021-03-20T00:37:28Z</time>
      </trkpt>
      <trkpt lat="56.20201" lon="-5.33671">
        <ele>53.18</ele>
        <time>2021-03-20T00:37:30Z</time>
      </trkpt>
      <trkpt lat="56.20232" lon="-5.33623">
        <ele>54.39</ele>
        <time>2021-03-20T00:37:32Z</time>
      </trkpt>
      <trkpt lat="56.20255" lon="-5.33558">
        <ele>54.56</ele>
        <time>2021-03-20T00:37:34Z</time>
      </trkpt>
      <trkpt lat="56.20327" lon="-5.33337">
        <ele>52.45</ele>
        <time>2021-03-20T00:37:37Z</time>
      </trkpt>
      <trkpt lat="56.20348" lon="-5.33245">
        <ele>53.34</ele>
        <time>2021-03-20T00:37:39Z</time>
      </trkpt>
      <trkpt lat="56.20353" lon="-5.33227">
        <ele>53.98</ele>
        <time>2021-03-20T00:37:41Z</time>
      </trkpt>
      <trkpt lat="56.20361" lon="-5.33208">
        <ele>55.01</ele>
        <time>2021-03-20T00:37:43Z</time>
      </trkpt>
      <trkpt lat="56.20382" lon="-5.33174">
        <ele>55.8</ele>
        <time>2021-03-20T00:37:46Z</time>
      </trkpt>
      <trkpt lat="56.20451" lon="-5.33023">
        <ele>60.99</ele>
        <time>2021-03-20T00:37:48Z</time>
      </trkpt>
      <trkpt lat="56.2048" lon="-5.32972">
        <ele>59.15</ele>
        <time>2021-03-20T00:37:50Z</time>
      </trkpt>
      <trkpt lat="56.20502" lon="-5.32927">
        <ele>58.14</ele>
        <time>2021-03-20T00:37:52Z</time>
      </trkpt>
      <trkpt lat="56.20523" lon="-5.32893">
        <ele>56.03</ele>
        <time>2021-03-20T00:37:55Z</time>
      </trkpt>
      <trkpt lat="56.20579" lon="-5.3282">
        <ele>54.17</ele>
        <time>2021-03-20T00:37:57Z</time>
      </trkpt>
      <trkpt lat="56.20598" lon="-5.328">
        <ele>53.76</ele>
        <time>2021-03-20T00:37:59Z</time>
      </trkpt>
      <trkpt lat="56.20614" lon="-5.32775">
        <ele>56.17</ele>
        <time>2021-03-20T00:38:01Z</time>
      </trkpt>
      <trkpt lat="56.2064" lon="-5.32741">
        <ele>54.67</ele>
        <time>2021-03-20T00:38:04Z</time>
      </trkpt>
      <trkpt lat="56.20655" lon="-5.32718">
        <ele>52.84</ele>
        <time>2021-03-20T00:38:06Z</time>
      </trkpt>
      <trkpt lat="56.20682" lon="-5.32669">
        <ele>54.25</ele>
        <time>2021-03-20T00:38:08Z</time>
      </trkpt>
      <trkpt lat="56.20697" lon="-5.32619">
        <ele>55.51</ele>
        <time>2021-03-20T00:38:10Z</time>
      </trkpt>
      <trkpt lat="56.20706" lon="-5.32566">
        <ele>57.14</ele>
        <time>2021-03-20T00:38:13Z</time>
      </trkpt>
      <trkpt lat="56.20724" lon="-5.32513">
        <ele>57.12</ele>
        <time>2021-03-20T00:38:15Z</time>
      </trkpt>
      <trkpt lat="56.20754" lon="-5.32474">
        <ele>51.58</ele>
        <time>2021-03-20T00:38:17Z</time>
      </trkpt>
      <trkpt lat="56.20771" lon="-5.32449">
        <ele>49.76</ele>
        <time>2021-03-20T00:38:19Z</time>
      </trkpt>
      <trkpt lat="56.20807" lon="-5.32388">
        <ele>48.18</ele>
        <time>2021-03-20T00:38:22Z</time>
      </trkpt>
      <trkpt lat="56.20822" lon="-5.32359">
        <ele>52.44</ele>
        <time>2021-03-20T00:38:24Z</time>
      </trkpt>
      <trkpt lat="56.20834" lon="-5.3233">
        <ele>49.36</ele>
        <time>2021-03-20T00:38:26Z</time>
      </trkpt>
      <trkpt lat="56.20841" lon="-5.32302">
        <ele>51</ele>
        <time>2021-03-20T00:38:28Z</time>
      </trkpt>
      <trkpt lat="56.20852" lon="-5.32203">
        <ele>55.43</ele>
        <time>2021-03-20T00:38:31Z</time>
      </trkpt>
      <trkpt lat="56.20859" lon="-5.32178">
        <ele>54.7</ele>
        <time>2021-03-20T00:38:33Z</time>
      </trkpt>
      <trkpt lat="56.20868" lon="-5.32159">
        <ele>54.88</ele>
        <time>2021-03-20T00:38:35Z</time>
      </trkpt>
      <trkpt lat="56.20944" lon="-5.32094">
        <ele>49.28</ele>
        <time>2021-03-20T00:38:37Z</time>
      </trkpt>
      <trkpt lat="56.2095" lon="-5.32088">
        <ele>50.52</ele>
        <time>2021-03-20T00:38:40Z</time>
      </trkpt>
      <trkpt lat="56.20958" lon="-5.32075">
        <ele>51.67</ele>
        <time>2021-03-20T00:38:42Z</time>
      </trkpt>
      <trkpt lat="56.20964" lon="-5.32062">
        <ele>50.74</ele>
        <time>2021-03-20T00:38:44Z</time>
      </trkpt>
      <trkpt lat="56.20972" lon="-5.3203">
        <ele>52.59</ele>
        <time>2021-03-20T00:38:46Z</time>
      </trkpt>
      <trkpt lat="56.2098" lon="-5.32011">
        <ele>54.8</ele>
        <time>2021-03-20T00:38:49Z</time>
      </trkpt>
      <trkpt lat="56.20991" lon="-5.31987">
        <ele>52.09</ele>
        <time>2021-03-20T00:38:51Z</time>
      </trkpt>
      <trkpt lat="56.21012" lon="-5.31959">
        <ele>50.94</ele>
        <time>2021-03-20T00:38:53Z</time>
      </trkpt>
      <trkpt lat="56.21031" lon="-5.31897">
        <ele>49.09</ele>
        <time>2021-03-20T00:38:55Z</time>
      </trkpt>
      <trkpt lat="56.21071" lon="-5.31842">
        <ele>48.29</ele>
        <time>2021-03-20T00:38:58Z</time>
      </trkpt>
      <trkpt lat="56.21078" lon="-5.3183">
        <ele>47.3</ele>
        <time>2021-03-20T00:39:00Z</time>
      </trkpt>
      <trkpt lat="56.21092" lon="-5.31792">
        <ele>47.93</ele>
        <time>2021-03-20T00:39:02Z</time>
      </trkpt>
      <trkpt lat="56.21147" lon="-5.31676">
        <ele>47.47</ele>
        <time>2021-03-20T00:39:04Z</time>
      </trkpt>
      <trkpt lat="56.212" lon="-5.31602">
        <ele>46.55</ele>
        <time>2021-03-20T00:39:07Z</time>
      </trkpt>
      <trkpt lat="56.21239" lon="-5.31533">
        <ele>46.34</ele>
        <time>2021-03-20T00:39:09Z</time>
      </trkpt>
      <trkpt lat="56.21251" lon="-5.31507">
        <ele>44.75</ele>
        <time>2021-03-20T00:39:11Z</time>
      </trkpt>
      <trkpt lat="56.21256" lon="-5.31492">
        <ele>44.94</ele>
        <time>2021-03-20T00:39:13Z</time>
      </trkpt>
      <trkpt lat="56.21258" lon="-5.31462">
        <ele>47.64</ele>
        <time>2021-03-20T00:39:16Z</time>
      </trkpt>
      <trkpt lat="56.21259" lon="-5.3139">
        <ele>50.62</ele>
        <time>2021-03-20T00:39:18Z</time>
      </trkpt>
      <trkpt lat="56.21274" lon="-5.3131">
        <ele>47.98</ele>
        <time>2021-03-20T00:39:20Z</time>
      </trkpt>
      <trkpt lat="56.21318" lon="-5.31181">
        <ele>50.1</ele>
        <time>2021-03-20T00:39:22Z</time>
      </trkpt>
      <trkpt lat="56.21339" lon="-5.31129">
        <ele>47.45</ele>
        <time>2021-03-20T00:39:25Z</time>
      </trkpt>
      <trkpt lat="56.21363" lon="-5.31079">
        <ele>51.39</ele>
        <time>2021-03-20T00:39:27Z</time>
      </trkpt>
      <trkpt lat="56.21412" lon="-5.30988">
        <ele>48.58</ele>
        <time>2021-03-20T00:39:29Z</time>
      </trkpt>
      <trkpt lat="56.21429" lon="-5.3095">
        <ele>51.59</ele>
        <time>2021-03-20T00:39:31Z</time>
      </trkpt>
      <trkpt lat="56.21462" lon="-5.30866">
        <ele>51.1</ele>
        <time>2021-03-20T00:39:34Z</time>
      </trkpt>
      <trkpt lat="56.21495" lon="-5.30791">
        <ele>51.56</ele>
        <time>2021-03-20T00:39:36Z</time>
      </trkpt>
      <trkpt lat="56.21531" lon="-5.30722">
        <ele>52.04</ele>
        <time>2021-03-20T00:39:38Z</time>
      </trkpt>
      <trkpt lat="56.21558" lon="-5.3065">
        <ele>43.04</ele>
        <time>2021-03-20T00:39:40Z</time>
      </trkpt>
      <trkpt lat="56.21582" lon="-5.30592">
        <ele>44.62</ele>
        <time>2021-03-20T00:39:43Z</time>
      </trkpt>
      <trkpt lat="56.21603" lon="-5.30531">
        <ele>43.88</ele>
        <time>2021-03-20T00:39:45Z</time>
      </trkpt>
      <trkpt lat="56.21615" lon="-5.30489">
        <ele>44.09</ele>
        <time>2021-03-20T00:39:47Z</time>
      </trkpt>
      <trkpt lat="56.21633" lon="-5.30407">
        <ele>43.44</ele>
        <time>2021-03-20T00:39:49Z</time>
      </trkpt>
      <trkpt lat="56.21667" lon="-5.30197">
        <ele>41.8</ele>
        <time>2021-03-20T00:39:52Z</time>
      </trkpt>
      <trkpt lat="56.217" lon="-5.30094">
        <ele>43.84</ele>
        <time>2021-03-20T00:39:54Z</time>
      </trkpt>
      <trkpt lat="56.2176" lon="-5.29877">
        <ele>40</ele>
        <time>2021-03-20T00:39:56Z</time>
      </trkpt>
      <trkpt lat="56.21783" lon="-5.29785">
        <ele>40.59</ele>
        <time>2021-03-20T00:39:58Z</time>
      </trkpt>
      <trkpt lat="56.21806" lon="-5.29709">
        <ele>40</ele>
        <time>2021-03-20T00:40:01Z</time>
      </trkpt>
      <trkpt lat="56.21812" lon="-5.29696">
        <ele>40</ele>
        <time>2021-03-20T00:40:03Z</time>
      </trkpt>
      <trkpt lat="56.21891" lon="-5.29589">
        <ele>39.8</ele>
        <time>2021-03-20T00:40:05Z</time>
      </trkpt>
      <trkpt lat="56.22065" lon="-5.29361">
        <ele>48.04</ele>
        <time>2021-03-20T00:40:07Z</time>
      </trkpt>
      <trkpt lat="56.22142" lon="-5.29252">
        <ele>57.91</ele>
        <time>2021-03-20T00:40:10Z</time>
      </trkpt>
      <trkpt lat="56.22209" lon="-5.29142">
        <ele>54.2</ele>
        <time>2021-03-20T00:40:12Z</time>
      </trkpt>
      <trkpt lat="56.22238" lon="-5.29087">
        <ele>56</ele>
        <time>2021-03-20T00:40:14Z</time>
      </trkpt>
      <trkpt lat="56.22409" lon="-5.28798">
        <ele>64.7</ele>
        <time>2021-03-20T00:40:16Z</time>
      </trkpt>
      <trkpt lat="56.22458" lon="-5.28733">
        <ele>64.7</ele>
        <time>2021-03-20T00:40:19Z</time>
      </trkpt>
      <trkpt lat="56.22506" lon="-5.28673">
        <ele>68.33</ele>
        <time>2021-03-20T00:40:21Z</time>
      </trkpt>
      <trkpt lat="56.22539" lon="-5.28641">
        <ele>68.76</ele>
        <time>2021-03-20T00:40:23Z</time>
      </trkpt>
      <trkpt lat="56.22565" lon="-5.28618">
        <ele>66.63</ele>
        <time>2021-03-20T00:40:25Z</time>
      </trkpt>
      <trkpt lat="56.2262" lon="-5.28584">
        <ele>63</ele>
        <time>2021-03-20T00:40:28Z</time>
      </trkpt>
      <trkpt lat="56.22752" lon="-5.28507">
        <ele>59.33</ele>
        <time>2021-03-20T00:40:30Z</time>
      </trkpt>
      <trkpt lat="56.22876" lon="-5.28431">
        <ele>55.63</ele>
        <time>2021-03-20T00:40:32Z</time>
      </trkpt>
      <trkpt lat="56.22909" lon="-5.28401">
        <ele>54.64</ele>
        <time>2021-03-20T00:40:34Z</time>
      </trkpt>
      <trkpt lat="56.22961" lon="-5.28339">
        <ele>52.83</ele>
        <time>2021-03-20T00:40:37Z</time>
      </trkpt>
      <trkpt lat="56.23004" lon="-5.28297">
        <ele>56.21</ele>
        <time>2021-03-20T00:40:39Z</time>
      </trkpt>
      <trkpt lat="56.23061" lon="-5.28245">
        <ele>56.29</ele>
        <time>2021-03-20T00:40:41Z</time>
      </trkpt>
      <trkpt lat="56.2309" lon="-5.2821">
        <ele>55.01</ele>
        <time>2021-03-20T00:40:43Z</time>
      </trkpt>
      <trkpt lat="56.23155" lon="-5.28146">
        <ele>55.14</ele>
        <time>2021-03-20T00:40:46Z</time>
      </trkpt>
      <trkpt lat="56.23215" lon="-5.28091">
        <ele>57.18</ele>
        <time>2021-03-20T00:40:48Z</time>
      </trkpt>
      <trkpt lat="56.23267" lon="-5.2804">
        <ele>51.52</ele>
        <time>2021-03-20T00:40:50Z</time>
      </trkpt>
      <trkpt lat="56.2331" lon="-5.2798">
        <ele>49.26</ele>
        <time>2021-03-20T00:40:52Z</time>
      </trkpt>
      <trkpt lat="56.2333" lon="-5.27959">
        <ele>50.12</ele>
        <time>2021-03-20T00:40:55Z</time>
      </trkpt>
      <trkpt lat="56.2335" lon="-5.27942">
        <ele>51.13</ele>
        <time>2021-03-20T00:40:57Z</time>
      </trkpt>
      <trkpt lat="56.23364" lon="-5.27935">
        <ele>51.45</ele>
        <time>2021-03-20T00:40:59Z</time>
      </trkpt>
      <trkpt lat="56.23377" lon="-5.27932">
        <ele>52.02</ele>
        <time>2021-03-20T00:41:01Z</time>
      </trkpt>
      <trkpt lat="56.23386" lon="-5.27928">
        <ele>52.47</ele>
        <time>2021-03-20T00:41:04Z</time>
      </trkpt>
      <trkpt lat="56.23398" lon="-5.27903">
        <ele>53.82</ele>
        <time>2021-03-20T00:41:06Z</time>
      </trkpt>
      <trkpt lat="56.23424" lon="-5.27856">
        <ele>56.01</ele>
        <time>2021-03-20T00:41:08Z</time>
      </trkpt>
      <trkpt lat="56.23461" lon="-5.27799">
        <ele>61.31</ele>
        <time>2021-03-20T00:41:10Z</time>
      </trkpt>
      <trkpt lat="56.2347" lon="-5.27783">
        <ele>61.95</ele>
        <time>2021-03-20T00:41:13Z</time>
      </trkpt>
      <trkpt lat="56.23494" lon="-5.27711">
        <ele>65.85</ele>
        <time>2021-03-20T00:41:15Z</time>
      </trkpt>
      <trkpt lat="56.23525" lon="-5.27653">
        <ele>70.36</ele>
        <time>2021-03-20T00:41:17Z</time>
      </trkpt>
      <trkpt lat="56.23542" lon="-5.27623">
        <ele>71.5</ele>
        <time>2021-03-20T00:41:19Z</time>
      </trkpt>
      <trkpt lat="56.23561" lon="-5.27598">
        <ele>71.77</ele>
        <time>2021-03-20T00:41:22Z</time>
      </trkpt>
      <trkpt lat="56.23591" lon="-5.27563">
        <ele>72.8</ele>
        <time>2021-03-20T00:41:24Z</time>
      </trkpt>
      <trkpt lat="56.23604" lon="-5.27542">
        <ele>72.38</ele>
        <time>2021-03-20T00:41:26Z</time>
      </trkpt>
      <trkpt lat="56.23648" lon="-5.27456">
        <ele>68.13</ele>
        <time>2021-03-20T00:41:28Z</time>
      </trkpt>
      <trkpt lat="56.23666" lon="-5.27431">
        <ele>66.06</ele>
        <time>2021-03-20T00:41:31Z</time>
      </trkpt>
      <trkpt lat="56.23807" lon="-5.27309">
        <ele>64.45</ele>
        <time>2021-03-20T00:41:33Z</time>
      </trkpt>
      <trkpt lat="56.23835" lon="-5.27278">
        <ele>62.83</ele>
        <time>2021-03-20T00:41:35Z</time>
      </trkpt>
      <trkpt lat="56.23857" lon="-5.27249">
        <ele>61.19</ele>
        <time>2021-03-20T00:41:37Z</time>
      </trkpt>
      <trkpt lat="56.23874" lon="-5.27218">
        <ele>60.37</ele>
        <time>2021-03-20T00:41:40Z</time>
      </trkpt>
      <trkpt lat="56.23888" lon="-5.27184">
        <ele>61.38</ele>
        <time>2021-03-20T00:41:42Z</time>
      </trkpt>
      <trkpt lat="56.23903" lon="-5.27154">
        <ele>62.78</ele>
        <time>2021-03-20T00:41:44Z</time>
      </trkpt>
      <trkpt lat="56.23939" lon="-5.27109">
        <ele>61.74</ele>
        <time>2021-03-20T00:41:46Z</time>
      </trkpt>
      <trkpt lat="56.23998" lon="-5.27051">
        <ele>62.65</ele>
        <time>2021-03-20T00:41:49Z</time>
      </trkpt>
      <trkpt lat="56.24028" lon="-5.2701">
        <ele>63.59</ele>
        <time>2021-03-20T00:41:51Z</time>
      </trkpt>
      <trkpt lat="56.24124" lon="-5.26853">
        <ele>51.44</ele>
        <time>2021-03-20T00:41:53Z</time>
      </trkpt>
      <trkpt lat="56.24198" lon="-5.26747">
        <ele>55.3</ele>
        <time>2021-03-20T00:41:55Z</time>
      </trkpt>
      <trkpt lat="56.24228" lon="-5.26717">
        <ele>56</ele>
        <time>2021-03-20T00:41:58Z</time>
      </trkpt>
      <trkpt lat="56.24262" lon="-5.26699">
        <ele>55.17</ele>
        <time>2021-03-20T00:42:00Z</time>
      </trkpt>
      <trkpt lat="56.24292" lon="-5.26695">
        <ele>51.48</ele>
        <time>2021-03-20T00:42:02Z</time>
      </trkpt>
      <trkpt lat="56.24355" lon="-5.26713">
        <ele>46.23</ele>
        <time>2021-03-20T00:42:04Z</time>
      </trkpt>
      <trkpt lat="56.24373" lon="-5.26707">
        <ele>45.56</ele>
        <time>2021-03-20T00:42:07Z</time>
      </trkpt>
      <trkpt lat="56.24382" lon="-5.26702">
        <ele>45.24</ele>
        <time>2021-03-20T00:42:09Z</time>
      </trkpt>
      <trkpt lat="56.2439" lon="-5.26689">
        <ele>44.91</ele>
        <time>2021-03-20T00:42:11Z</time>
      </trkpt>
      <trkpt lat="56.24421" lon="-5.26625">
        <ele>46.58</ele>
        <time>2021-03-20T00:42:13Z</time>
      </trkpt>
      <trkpt lat="56.24454" lon="-5.26571">
        <ele>48.32</ele>
        <time>2021-03-20T00:42:16Z</time>
      </trkpt>
      <trkpt lat="56.2448" lon="-5.26532">
        <ele>44.06</ele>
        <time>2021-03-20T00:42:18Z</time>
      </trkpt>
      <trkpt lat="56.24497" lon="-5.26521">
        <ele>46.49</ele>
        <time>2021-03-20T00:42:20Z</time>
      </trkpt>
      <trkpt lat="56.24513" lon="-5.26517">
        <ele>48.85</ele>
        <time>2021-03-20T00:42:22Z</time>
      </trkpt>
      <trkpt lat="56.24529" lon="-5.26518">
        <ele>51.19</ele>
        <time>2021-03-20T00:42:25Z</time>
      </trkpt>
      <trkpt lat="56.24543" lon="-5.26523">
        <ele>53.19</ele>
        <time>2021-03-20T00:42:27Z</time>
      </trkpt>
      <trkpt lat="56.24557" lon="-5.26533">
        <ele>55.06</ele>
        <time>2021-03-20T00:42:29Z</time>
      </trkpt>
      <trkpt lat="56.24583" lon="-5.26562">
        <ele>43.5</ele>
        <time>2021-03-20T00:42:31Z</time>
      </trkpt>
      <trkpt lat="56.24595" lon="-5.26584">
        <ele>46.62</ele>
        <time>2021-03-20T00:42:34Z</time>
      </trkpt>
      <trkpt lat="56.24601" lon="-5.26606">
        <ele>49.22</ele>
        <time>2021-03-20T00:42:36Z</time>
      </trkpt>
      <trkpt lat="56.24604" lon="-5.2662">
        <ele>50.69</ele>
        <time>2021-03-20T00:42:38Z</time>
      </trkpt>
      <trkpt lat="56.24605" lon="-5.26642">
        <ele>52.6</ele>
        <time>2021-03-20T00:42:40Z</time>
      </trkpt>
      <trkpt lat="56.24572" lon="-5.26832">
        <ele>50.62</ele>
        <time>2021-03-20T00:42:43Z</time>
      </trkpt>
      <trkpt lat="56.24571" lon="-5.2685">
        <ele>49.51</ele>
        <time>2021-03-20T00:42:45Z</time>
      </trkpt>
      <trkpt lat="56.24572" lon="-5.26866">
        <ele>48.84</ele>
        <time>2021-03-20T00:42:47Z</time>
      </trkpt>
      <trkpt lat="56.24591" lon="-5.26963">
        <ele>51.49</ele>
        <time>2021-03-20T00:42:49Z</time>
      </trkpt>
      <trkpt lat="56.24592" lon="-5.26977">
        <ele>51.57</ele>
        <time>2021-03-20T00:42:52Z</time>
      </trkpt>
      <trkpt lat="56.2459" lon="-5.2701">
        <ele>50.44</ele>
        <time>2021-03-20T00:42:54Z</time>
      </trkpt>
      <trkpt lat="56.2459" lon="-5.27041">
        <ele>48.64</ele>
        <time>2021-03-20T00:42:56Z</time>
      </trkpt>
      <trkpt lat="56.24593" lon="-5.27053">
        <ele>48.56</ele>
        <time>2021-03-20T00:42:59Z</time>
      </trkpt>
      <trkpt lat="56.24598" lon="-5.27062">
        <ele>47.6</ele>
        <time>2021-03-20T00:43:01Z</time>
      </trkpt>
      <trkpt lat="56.2461" lon="-5.2707">
        <ele>47.26</ele>
        <time>2021-03-20T00:43:03Z</time>
      </trkpt>
      <trkpt lat="56.2464" lon="-5.27062">
        <ele>52.07</ele>
        <time>2021-03-20T00:43:05Z</time>
      </trkpt>
      <trkpt lat="56.24657" lon="-5.27063">
        <ele>51.97</ele>
        <time>2021-03-20T00:43:08Z</time>
      </trkpt>
      <trkpt lat="56.24749" lon="-5.27088">
        <ele>45.63</ele>
        <time>2021-03-20T00:43:10Z</time>
      </trkpt>
      <trkpt lat="56.24799" lon="-5.27098">
        <ele>42.06</ele>
        <time>2021-03-20T00:43:12Z</time>
      </trkpt>
      <trkpt lat="56.24811" lon="-5.27096">
        <ele>41.91</ele>
        <time>2021-03-20T00:43:14Z</time>
      </trkpt>
      <trkpt lat="56.24894" lon="-5.27053">
        <ele>40.16</ele>
        <time>2021-03-20T00:43:17Z</time>
      </trkpt>
      <trkpt lat="56.24917" lon="-5.2705">
        <ele>40.38</ele>
        <time>2021-03-20T00:43:19Z</time>
      </trkpt>
      <trkpt lat="56.24929" lon="-5.27053">
        <ele>40.17</ele>
        <time>2021-03-20T00:43:21Z</time>
      </trkpt>
      <trkpt lat="56.24977" lon="-5.27075">
        <ele>39.96</ele>
        <time>2021-03-20T00:43:23Z</time>
      </trkpt>
      <trkpt lat="56.25" lon="-5.27081">
        <ele>41.14</ele>
        <time>2021-03-20T00:43:26Z</time>
      </trkpt>
      <trkpt lat="56.25092" lon="-5.27081">
        <ele>43.44</ele>
        <time>2021-03-20T00:43:28Z</time>
      </trkpt>
      <trkpt lat="56.252" lon="-5.27049">
        <ele>47.29</ele>
        <time>2021-03-20T00:43:30Z</time>
      </trkpt>
      <trkpt lat="56.25219" lon="-5.27038">
        <ele>47.98</ele>
        <time>2021-03-20T00:43:32Z</time>
      </trkpt>
      <trkpt lat="56.25229" lon="-5.27028">
        <ele>47.28</ele>
        <time>2021-03-20T00:43:35Z</time>
      </trkpt>
      <trkpt lat="56.25238" lon="-5.27015">
        <ele>48.11</ele>
        <time>2021-03-20T00:43:37Z</time>
      </trkpt>
      <trkpt lat="56.25253" lon="-5.26982">
        <ele>51.69</ele>
        <time>2021-03-20T00:43:39Z</time>
      </trkpt>
      <trkpt lat="56.2528" lon="-5.26942">
        <ele>49.92</ele>
        <time>2021-03-20T00:43:41Z</time>
      </trkpt>
      <trkpt lat="56.25343" lon="-5.2688">
        <ele>46.02</ele>
        <time>2021-03-20T00:43:44Z</time>
      </trkpt>
      <trkpt lat="56.25364" lon="-5.26868">
        <ele>44.75</ele>
        <time>2021-03-20T00:43:46Z</time>
      </trkpt>
      <trkpt lat="56.25404" lon="-5.26858">
        <ele>45.19</ele>
        <time>2021-03-20T00:43:48Z</time>
      </trkpt>
      <trkpt lat="56.25457" lon="-5.26852">
        <ele>45.48</ele>
        <time>2021-03-20T00:43:50Z</time>
      </trkpt>
      <trkpt lat="56.25469" lon="-5.26847">
        <ele>45.97</ele>
        <time>2021-03-20T00:43:53Z</time>
      </trkpt>
      <trkpt lat="56.25484" lon="-5.2683">
        <ele>45.86</ele>
        <time>2021-03-20T00:43:55Z</time>
      </trkpt>
      <trkpt lat="56.25494" lon="-5.26812">
        <ele>46.01</ele>
        <time>2021-03-20T00:43:57Z</time>
      </trkpt>
      <trkpt lat="56.25522" lon="-5.26744">
        <ele>47.83</ele>
        <time>2021-03-20T00:43:59Z</time>
      </trkpt>
      <trkpt lat="56.25546" lon="-5.26695">
        <ele>48.68</ele>
        <time>2021-03-20T00:44:02Z</time>
      </trkpt>
      <trkpt lat="56.25594" lon="-5.26613">
        <ele>51.31</ele>
        <time>2021-03-20T00:44:04Z</time>
      </trkpt>
      <trkpt lat="56.25623" lon="-5.26536">
        <ele>50.72</ele>
        <time>2021-03-20T00:44:06Z</time>
      </trkpt>
      <trkpt lat="56.25649" lon="-5.26485">
        <ele>51.35</ele>
        <time>2021-03-20T00:44:08Z</time>
      </trkpt>
      <trkpt lat="56.25655" lon="-5.26468">
        <ele>51.5</ele>
        <time>2021-03-20T00:44:11Z</time>
      </trkpt>
      <trkpt lat="56.25673" lon="-5.26406">
        <ele>54.95</ele>
        <time>2021-03-20T00:44:13Z</time>
      </trkpt>
      <trkpt lat="56.25678" lon="-5.26397">
        <ele>55.08</ele>
        <time>2021-03-20T00:44:15Z</time>
      </trkpt>
      <trkpt lat="56.25689" lon="-5.26387">
        <ele>54.22</ele>
        <time>2021-03-20T00:44:17Z</time>
      </trkpt>
      <trkpt lat="56.25727" lon="-5.2636">
        <ele>48.62</ele>
        <time>2021-03-20T00:44:20Z</time>
      </trkpt>
      <trkpt lat="56.25766" lon="-5.26294">
        <ele>49.01</ele>
        <time>2021-03-20T00:44:22Z</time>
      </trkpt>
      <trkpt lat="56.25801" lon="-5.26216">
        <ele>47.01</ele>
        <time>2021-03-20T00:44:24Z</time>
      </trkpt>
      <trkpt lat="56.25817" lon="-5.26193">
        <ele>38.24</ele>
        <time>2021-03-20T00:44:26Z</time>
      </trkpt>
      <trkpt lat="56.25856" lon="-5.2615">
        <ele>43.93</ele>
        <time>2021-03-20T00:44:29Z</time>
      </trkpt>
      <trkpt lat="56.25933" lon="-5.26081">
        <ele>39.8</ele>
        <time>2021-03-20T00:44:31Z</time>
      </trkpt>
      <trkpt lat="56.25964" lon="-5.26062">
        <ele>39.71</ele>
        <time>2021-03-20T00:44:33Z</time>
      </trkpt>
      <trkpt lat="56.25992" lon="-5.26049">
        <ele>41.49</ele>
        <time>2021-03-20T00:44:35Z</time>
      </trkpt>
      <trkpt lat="56.26034" lon="-5.26037">
        <ele>42</ele>
        <time>2021-03-20T00:44:38Z</time>
      </trkpt>
      <trkpt lat="56.26048" lon="-5.26023">
        <ele>42.17</ele>
        <time>2021-03-20T00:44:40Z</time>
      </trkpt>
      <trkpt lat="56.26088" lon="-5.25966">
        <ele>46.11</ele>
        <time>2021-03-20T00:44:42Z</time>
      </trkpt>
      <trkpt lat="56.26117" lon="-5.25942">
        <ele>47.04</ele>
        <time>2021-03-20T00:44:44Z</time>
      </trkpt>
      <trkpt lat="56.26173" lon="-5.25925">
        <ele>50.42</ele>
        <time>2021-03-20T00:44:47Z</time>
      </trkpt>
      <trkpt lat="56.26226" lon="-5.25898">
        <ele>53.49</ele>
        <time>2021-03-20T00:44:49Z</time>
      </trkpt>
      <trkpt lat="56.26239" lon="-5.25882">
        <ele>55.08</ele>
        <time>2021-03-20T00:44:51Z</time>
      </trkpt>
      <trkpt lat="56.26315" lon="-5.25742">
        <ele>57.78</ele>
        <time>2021-03-20T00:44:53Z</time>
      </trkpt>
      <trkpt lat="56.26325" lon="-5.25728">
        <ele>56.36</ele>
        <time>2021-03-20T00:44:56Z</time>
      </trkpt>
      <trkpt lat="56.26334" lon="-5.2572">
        <ele>54.98</ele>
        <time>2021-03-20T00:44:58Z</time>
      </trkpt>
      <trkpt lat="56.26351" lon="-5.25712">
        <ele>52.16</ele>
        <time>2021-03-20T00:45:00Z</time>
      </trkpt>
      <trkpt lat="56.26393" lon="-5.25698">
        <ele>46.88</ele>
        <time>2021-03-20T00:45:02Z</time>
      </trkpt>
      <trkpt lat="56.26407" lon="-5.25688">
        <ele>47.39</ele>
        <time>2021-03-20T00:45:05Z</time>
      </trkpt>
      <trkpt lat="56.26433" lon="-5.25654">
        <ele>49.47</ele>
        <time>2021-03-20T00:45:07Z</time>
      </trkpt>
      <trkpt lat="56.26494" lon="-5.25556">
        <ele>52.9</ele>
        <time>2021-03-20T00:45:09Z</time>
      </trkpt>
      <trkpt lat="56.26548" lon="-5.25474">
        <ele>52.71</ele>
        <time>2021-03-20T00:45:11Z</time>
      </trkpt>
      <trkpt lat="56.2664" lon="-5.25331">
        <ele>47.25</ele>
        <time>2021-03-20T00:45:14Z</time>
      </trkpt>
      <trkpt lat="56.2668" lon="-5.25288">
        <ele>48.79</ele>
        <time>2021-03-20T00:45:16Z</time>
      </trkpt>
      <trkpt lat="56.26695" lon="-5.25268">
        <ele>48.99</ele>
        <time>2021-03-20T00:45:18Z</time>
      </trkpt>
      <trkpt lat="56.26711" lon="-5.25239">
        <ele>49.33</ele>
        <time>2021-03-20T00:45:20Z</time>
      </trkpt>
      <trkpt lat="56.26738" lon="-5.2518">
        <ele>51.67</ele>
        <time>2021-03-20T00:45:23Z</time>
      </trkpt>
      <trkpt lat="56.26797" lon="-5.25038">
        <ele>53.17</ele>
        <time>2021-03-20T00:45:25Z</time>
      </trkpt>
      <trkpt lat="56.26816" lon="-5.24989">
        <ele>49.83</ele>
        <time>2021-03-20T00:45:27Z</time>
      </trkpt>
      <trkpt lat="56.26833" lon="-5.24933">
        <ele>49.47</ele>
        <time>2021-03-20T00:45:29Z</time>
      </trkpt>
      <trkpt lat="56.26842" lon="-5.24894">
        <ele>49.24</ele>
        <time>2021-03-20T00:45:32Z</time>
      </trkpt>
      <trkpt lat="56.26869" lon="-5.24704">
        <ele>59.7</ele>
        <time>2021-03-20T00:45:34Z</time>
      </trkpt>
      <trkpt lat="56.26874" lon="-5.2465">
        <ele>61.09</ele>
        <time>2021-03-20T00:45:36Z</time>
      </trkpt>
      <trkpt lat="56.26879" lon="-5.24551">
        <ele>60.1</ele>
        <time>2021-03-20T00:45:38Z</time>
      </trkpt>
      <trkpt lat="56.26888" lon="-5.2444">
        <ele>58.22</ele>
        <time>2021-03-20T00:45:41Z</time>
      </trkpt>
      <trkpt lat="56.269" lon="-5.24387">
        <ele>58.15</ele>
        <time>2021-03-20T00:45:43Z</time>
      </trkpt>
      <trkpt lat="56.26928" lon="-5.24304">
        <ele>59.67</ele>
        <time>2021-03-20T00:45:45Z</time>
      </trkpt>
      <trkpt lat="56.26947" lon="-5.24255">
        <ele>60.58</ele>
        <time>2021-03-20T00:45:47Z</time>
      </trkpt>
      <trkpt lat="56.26956" lon="-5.2424">
        <ele>59.92</ele>
        <time>2021-03-20T00:45:50Z</time>
      </trkpt>
      <trkpt lat="56.27004" lon="-5.24203">
        <ele>54.62</ele>
        <time>2021-03-20T00:45:52Z</time>
      </trkpt>
      <trkpt lat="56.27016" lon="-5.24188">
        <ele>56.06</ele>
        <time>2021-03-20T00:45:54Z</time>
      </trkpt>
      <trkpt lat="56.27081" lon="-5.24081">
        <ele>44.87</ele>
        <time>2021-03-20T00:45:56Z</time>
      </trkpt>
      <trkpt lat="56.27121" lon="-5.24024">
        <ele>42.93</ele>
        <time>2021-03-20T00:45:59Z</time>
      </trkpt>
      <trkpt lat="56.27136" lon="-5.23999">
        <ele>44.16</ele>
        <time>2021-03-20T00:46:01Z</time>
      </trkpt>
      <trkpt lat="56.27147" lon="-5.23975">
        <ele>44.06</ele>
        <time>2021-03-20T00:46:03Z</time>
      </trkpt>
      <trkpt lat="56.27162" lon="-5.23931">
        <ele>43.62</ele>
        <time>2021-03-20T00:46:05Z</time>
      </trkpt>
      <trkpt lat="56.2717" lon="-5.23915">
        <ele>42.7</ele>
        <time>2021-03-20T00:46:08Z</time>
      </trkpt>
      <trkpt lat="56.27192" lon="-5.23874">
        <ele>41.67</ele>
        <time>2021-03-20T00:46:10Z</time>
      </trkpt>
      <trkpt lat="56.27219" lon="-5.23833">
        <ele>40.32</ele>
        <time>2021-03-20T00:46:12Z</time>
      </trkpt>
      <trkpt lat="56.27231" lon="-5.2382">
        <ele>40.05</ele>
        <time>2021-03-20T00:46:14Z</time>
      </trkpt>
      <trkpt lat="56.27259" lon="-5.23797">
        <ele>38.97</ele>
        <time>2021-03-20T00:46:17Z</time>
      </trkpt>
      <trkpt lat="56.2729" lon="-5.23784">
        <ele>38.77</ele>
        <time>2021-03-20T00:46:19Z</time>
      </trkpt>
      <trkpt lat="56.27388" lon="-5.23753">
        <ele>41.98</ele>
        <time>2021-03-20T00:46:21Z</time>
      </trkpt>
      <trkpt lat="56.27504" lon="-5.23751">
        <ele>45.7</ele>
        <time>2021-03-20T00:46:23Z</time>
      </trkpt>
      <trkpt lat="56.27564" lon="-5.23773">
        <ele>43.9</ele>
        <time>2021-03-20T00:46:26Z</time>
      </trkpt>
      <trkpt lat="56.27581" lon="-5.23769">
        <ele>43.71</ele>
        <time>2021-03-20T00:46:28Z</time>
      </trkpt>
      <trkpt lat="56.27592" lon="-5.23759">
        <ele>43.44</ele>
        <time>2021-03-20T00:46:30Z</time>
      </trkpt>
      <trkpt lat="56.27612" lon="-5.2372">
        <ele>44.2</ele>
        <time>2021-03-20T00:46:32Z</time>
      </trkpt>
      <trkpt lat="56.27637" lon="-5.23691">
        <ele>43.83</ele>
        <time>2021-03-20T00:46:35Z</time>
      </trkpt>
      <trkpt lat="56.27651" lon="-5.23664">
        <ele>46.87</ele>
        <time>2021-03-20T00:46:37Z</time>
      </trkpt>
      <trkpt lat="56.27679" lon="-5.23651">
        <ele>46.82</ele>
        <time>2021-03-20T00:46:39Z</time>
      </trkpt>
      <trkpt lat="56.27702" lon="-5.23576">
        <ele>51.69</ele>
        <time>2021-03-20T00:46:41Z</time>
      </trkpt>
      <trkpt lat="56.2772" lon="-5.23538">
        <ele>52.51</ele>
        <time>2021-03-20T00:46:44Z</time>
      </trkpt>
      <trkpt lat="56.27786" lon="-5.23507">
        <ele>47.87</ele>
        <time>2021-03-20T00:46:46Z</time>
      </trkpt>
      <trkpt lat="56.27806" lon="-5.23505">
        <ele>46.6</ele>
        <time>2021-03-20T00:46:48Z</time>
      </trkpt>
      <trkpt lat="56.2782" lon="-5.23493">
        <ele>47.13</ele>
        <time>2021-03-20T00:46:50Z</time>
      </trkpt>
      <trkpt lat="56.2786" lon="-5.23429">
        <ele>49.82</ele>
        <time>2021-03-20T00:46:53Z</time>
      </trkpt>
      <trkpt lat="56.27939" lon="-5.23314">
        <ele>51.22</ele>
        <time>2021-03-20T00:46:55Z</time>
      </trkpt>
      <trkpt lat="56.27988" lon="-5.2321">
        <ele>51.83</ele>
        <time>2021-03-20T00:46:57Z</time>
      </trkpt>
      <trkpt lat="56.28047" lon="-5.23124">
        <ele>53.91</ele>
        <time>2021-03-20T00:46:59Z</time>
      </trkpt>
      <trkpt lat="56.28063" lon="-5.23089">
        <ele>54.62</ele>
        <time>2021-03-20T00:47:02Z</time>
      </trkpt>
      <trkpt lat="56.28114" lon="-5.23013">
        <ele>52.66</ele>
        <time>2021-03-20T00:47:04Z</time>
      </trkpt>
      <trkpt lat="56.28148" lon="-5.22946">
        <ele>50.2</ele>
        <time>2021-03-20T00:47:06Z</time>
      </trkpt>
      <trkpt lat="56.2817" lon="-5.2293">
        <ele>47.09</ele>
        <time>2021-03-20T00:47:08Z</time>
      </trkpt>
      <trkpt lat="56.28259" lon="-5.22897">
        <ele>45.17</ele>
        <time>2021-03-20T00:47:11Z</time>
      </trkpt>
      <trkpt lat="56.28289" lon="-5.2285">
        <ele>45.82</ele>
        <time>2021-03-20T00:47:13Z</time>
      </trkpt>
      <trkpt lat="56.28308" lon="-5.22796">
        <ele>48.04</ele>
        <time>2021-03-20T00:47:15Z</time>
      </trkpt>
      <trkpt lat="56.28338" lon="-5.22728">
        <ele>47.7</ele>
        <time>2021-03-20T00:47:17Z</time>
      </trkpt>
      <trkpt lat="56.28364" lon="-5.22697">
        <ele>45.98</ele>
        <time>2021-03-20T00:47:20Z</time>
      </trkpt>
      <trkpt lat="56.2839" lon="-5.22662">
        <ele>45.66</ele>
        <time>2021-03-20T00:47:22Z</time>
      </trkpt>
      <trkpt lat="56.28411" lon="-5.22623">
        <ele>45.58</ele>
        <time>2021-03-20T00:47:24Z</time>
      </trkpt>
      <trkpt lat="56.28554" lon="-5.22565">
        <ele>39.42</ele>
        <time>2021-03-20T00:47:26Z</time>
      </trkpt>
      <trkpt lat="56.28595" lon="-5.22542">
        <ele>39.19</ele>
        <time>2021-03-20T00:47:29Z</time>
      </trkpt>
      <trkpt lat="56.28612" lon="-5.22525">
        <ele>40.15</ele>
        <time>2021-03-20T00:47:31Z</time>
      </trkpt>
      <trkpt lat="56.28659" lon="-5.22459">
        <ele>41.29</ele>
        <time>2021-03-20T00:47:33Z</time>
      </trkpt>
      <trkpt lat="56.2869" lon="-5.22444">
        <ele>40.17</ele>
        <time>2021-03-20T00:47:35Z</time>
      </trkpt>
      <trkpt lat="56.28746" lon="-5.22436">
        <ele>40.17</ele>
        <time>2021-03-20T00:47:38Z</time>
      </trkpt>
      <trkpt lat="56.28774" lon="-5.22411">
        <ele>42.26</ele>
        <time>2021-03-20T00:47:40Z</time>
      </trkpt>
      <trkpt lat="56.28807" lon="-5.22365">
        <ele>44.65</ele>
        <time>2021-03-20T00:47:42Z</time>
      </trkpt>
      <trkpt lat="56.28834" lon="-5.22343">
        <ele>45.3</ele>
        <time>2021-03-20T00:47:44Z</time>
      </trkpt>
      <trkpt lat="56.28899" lon="-5.22343">
        <ele>40.52</ele>
        <time>2021-03-20T00:47:47Z</time>
      </trkpt>
      <trkpt lat="56.28918" lon="-5.22338">
        <ele>39.62</ele>
        <time>2021-03-20T00:47:49Z</time>
      </trkpt>
      <trkpt lat="56.28951" lon="-5.22321">
        <ele>38.44</ele>
        <time>2021-03-20T00:47:51Z</time>
      </trkpt>
      <trkpt lat="56.28987" lon="-5.2228">
        <ele>40.34</ele>
        <time>2021-03-20T00:47:53Z</time>
      </trkpt>
      <trkpt lat="56.29033" lon="-5.2219">
        <ele>43.15</ele>
        <time>2021-03-20T00:47:56Z</time>
      </trkpt>
      <trkpt lat="56.29053" lon="-5.22169">
        <ele>43.93</ele>
        <time>2021-03-20T00:47:58Z</time>
      </trkpt>
      <trkpt lat="56.29104" lon="-5.22137">
        <ele>46.17</ele>
        <time>2021-03-20T00:48:00Z</time>
      </trkpt>
      <trkpt lat="56.29257" lon="-5.21962">
        <ele>53.08</ele>
        <time>2021-03-20T00:48:02Z</time>
      </trkpt>
      <trkpt lat="56.29313" lon="-5.21907">
        <ele>52.74</ele>
        <time>2021-03-20T00:48:05Z</time>
      </trkpt>
      <trkpt lat="56.29382" lon="-5.21921">
        <ele>45.16</ele>
        <time>2021-03-20T00:48:07Z</time>
      </trkpt>
      <trkpt lat="56.2945" lon="-5.21943">
        <ele>40.62</ele>
        <time>2021-03-20T00:48:09Z</time>
      </trkpt>
      <trkpt lat="56.2949" lon="-5.2195">
        <ele>38.53</ele>
        <time>2021-03-20T00:48:11Z</time>
      </trkpt>
      <trkpt lat="56.29521" lon="-5.21935">
        <ele>38.26</ele>
        <time>2021-03-20T00:48:14Z</time>
      </trkpt>
      <trkpt lat="56.29562" lon="-5.21894">
        <ele>40.84</ele>
        <time>2021-03-20T00:48:16Z</time>
      </trkpt>
      <trkpt lat="56.29587" lon="-5.21874">
        <ele>41</ele>
        <time>2021-03-20T00:48:18Z</time>
      </trkpt>
      <trkpt lat="56.29609" lon="-5.21865">
        <ele>41</ele>
        <time>2021-03-20T00:48:20Z</time>
      </trkpt>
      <trkpt lat="56.29634" lon="-5.21849">
        <ele>40.18</ele>
        <time>2021-03-20T00:48:23Z</time>
      </trkpt>
      <trkpt lat="56.2967" lon="-5.21811">
        <ele>40</ele>
        <time>2021-03-20T00:48:25Z</time>
      </trkpt>
      <trkpt lat="56.29695" lon="-5.21799">
        <ele>40.01</ele>
        <time>2021-03-20T00:48:27Z</time>
      </trkpt>
      <trkpt lat="56.29736" lon="-5.2179">
        <ele>40.14</ele>
        <time>2021-03-20T00:48:29Z</time>
      </trkpt>
      <trkpt lat="56.29783" lon="-5.21758">
        <ele>40.6</ele>
        <time>2021-03-20T00:48:32Z</time>
      </trkpt>
      <trkpt lat="56.29951" lon="-5.2163">
        <ele>41.31</ele>
        <time>2021-03-20T00:48:34Z</time>
      </trkpt>
      <trkpt lat="56.29982" lon="-5.21604">
        <ele>40.84</ele>
        <time>2021-03-20T00:48:36Z</time>
      </trkpt>
      <trkpt lat="56.30012" lon="-5.21573">
        <ele>41.33</ele>
        <time>2021-03-20T00:48:38Z</time>
      </trkpt>
      <trkpt lat="56.30026" lon="-5.21571">
        <ele>40.98</ele>
        <time>2021-03-20T00:48:41Z</time>
      </trkpt>
      <trkpt lat="56.30143" lon="-5.21617">
        <ele>38.92</ele>
        <time>2021-03-20T00:48:43Z</time>
      </trkpt>
      <trkpt lat="56.30166" lon="-5.21639">
        <ele>38.96</ele>
        <time>2021-03-20T00:48:45Z</time>
      </trkpt>
      <trkpt lat="56.3024" lon="-5.2179">
        <ele>40.99</ele>
        <time>2021-03-20T00:48:47Z</time>
      </trkpt>
      <trkpt lat="56.30265" lon="-5.21821">
        <ele>42.89</ele>
        <time>2021-03-20T00:48:50Z</time>
      </trkpt>
      <trkpt lat="56.30304" lon="-5.21851">
        <ele>43.72</ele>
        <time>2021-03-20T00:48:52Z</time>
      </trkpt>
      <trkpt lat="56.30325" lon="-5.21851">
        <ele>43.74</ele>
        <time>2021-03-20T00:48:54Z</time>
      </trkpt>
      <trkpt lat="56.30351" lon="-5.21864">
        <ele>41.57</ele>
        <time>2021-03-20T00:48:56Z</time>
      </trkpt>
      <trkpt lat="56.30379" lon="-5.21892">
        <ele>39.88</ele>
        <time>2021-03-20T00:48:59Z</time>
      </trkpt>
      <trkpt lat="56.30405" lon="-5.21931">
        <ele>39.05</ele>
        <time>2021-03-20T00:49:01Z</time>
      </trkpt>
      <trkpt lat="56.30438" lon="-5.21996">
        <ele>40.5</ele>
        <time>2021-03-20T00:49:03Z</time>
      </trkpt>
      <trkpt lat="56.30488" lon="-5.22107">
        <ele>40.21</ele>
        <time>2021-03-20T00:49:05Z</time>
      </trkpt>
      <trkpt lat="56.30509" lon="-5.22142">
        <ele>40.54</ele>
        <time>2021-03-20T00:49:08Z</time>
      </trkpt>
      <trkpt lat="56.30539" lon="-5.2218">
        <ele>42.09</ele>
        <time>2021-03-20T00:49:10Z</time>
      </trkpt>
      <trkpt lat="56.30555" lon="-5.22192">
        <ele>42.99</ele>
        <time>2021-03-20T00:49:12Z</time>
      </trkpt>
      <trkpt lat="56.30584" lon="-5.22187">
        <ele>41.99</ele>
        <time>2021-03-20T00:49:14Z</time>
      </trkpt>
      <trkpt lat="56.3061" lon="-5.22176">
        <ele>41.68</ele>
        <time>2021-03-20T00:49:17Z</time>
      </trkpt>
      <trkpt lat="56.30677" lon="-5.22131">
        <ele>41.37</ele>
        <time>2021-03-20T00:49:19Z</time>
      </trkpt>
      <trkpt lat="56.30696" lon="-5.22128">
        <ele>41.86</ele>
        <time>2021-03-20T00:49:21Z</time>
      </trkpt>
      <trkpt lat="56.3074" lon="-5.22147">
        <ele>42.59</ele>
        <time>2021-03-20T00:49:23Z</time>
      </trkpt>
      <trkpt lat="56.30765" lon="-5.22148">
        <ele>43.38</ele>
        <time>2021-03-20T00:49:26Z</time>
      </trkpt>
      <trkpt lat="56.30793" lon="-5.22141">
        <ele>44</ele>
        <time>2021-03-20T00:49:28Z</time>
      </trkpt>
      <trkpt lat="56.30881" lon="-5.22098">
        <ele>41.42</ele>
        <time>2021-03-20T00:49:30Z</time>
      </trkpt>
      <trkpt lat="56.30911" lon="-5.22091">
        <ele>40.51</ele>
        <time>2021-03-20T00:49:32Z</time>
      </trkpt>
      <trkpt lat="56.30939" lon="-5.2208">
        <ele>40.71</ele>
        <time>2021-03-20T00:49:35Z</time>
      </trkpt>
      <trkpt lat="56.30967" lon="-5.2206">
        <ele>42.73</ele>
        <time>2021-03-20T00:49:37Z</time>
      </trkpt>
      <trkpt lat="56.31032" lon="-5.21994">
        <ele>41.55</ele>
        <time>2021-03-20T00:49:39Z</time>
      </trkpt>
      <trkpt lat="56.31063" lon="-5.21968">
        <ele>43.2</ele>
        <time>2021-03-20T00:49:41Z</time>
      </trkpt>
      <trkpt lat="56.31083" lon="-5.21958">
        <ele>44.03</ele>
        <time>2021-03-20T00:49:44Z</time>
      </trkpt>
      <trkpt lat="56.31111" lon="-5.21953">
        <ele>43.37</ele>
        <time>2021-03-20T00:49:46Z</time>
      </trkpt>
      <trkpt lat="56.31165" lon="-5.21972">
        <ele>41.09</ele>
        <time>2021-03-20T00:49:48Z</time>
      </trkpt>
      <trkpt lat="56.31186" lon="-5.21967">
        <ele>42.07</ele>
        <time>2021-03-20T00:49:50Z</time>
      </trkpt>
      <trkpt lat="56.31251" lon="-5.2196">
        <ele>44.97</ele>
        <time>2021-03-20T00:49:53Z</time>
      </trkpt>
      <trkpt lat="56.31309" lon="-5.21936">
        <ele>49.18</ele>
        <time>2021-03-20T00:49:55Z</time>
      </trkpt>
      <trkpt lat="56.31339" lon="-5.21913">
        <ele>49.14</ele>
        <time>2021-03-20T00:49:57Z</time>
      </trkpt>
      <trkpt lat="56.31401" lon="-5.21843">
        <ele>52.67</ele>
        <time>2021-03-20T00:49:59Z</time>
      </trkpt>
      <trkpt lat="56.31421" lon="-5.21801">
        <ele>53.5</ele>
        <time>2021-03-20T00:50:02Z</time>
      </trkpt>
      <trkpt lat="56.31434" lon="-5.21777">
        <ele>53.09</ele>
        <time>2021-03-20T00:50:04Z</time>
      </trkpt>
      <trkpt lat="56.31449" lon="-5.21759">
        <ele>53.35</ele>
        <time>2021-03-20T00:50:06Z</time>
      </trkpt>
      <trkpt lat="56.31485" lon="-5.21762">
        <ele>47.8</ele>
        <time>2021-03-20T00:50:08Z</time>
      </trkpt>
      <trkpt lat="56.31516" lon="-5.21744">
        <ele>48.26</ele>
        <time>2021-03-20T00:50:11Z</time>
      </trkpt>
      <trkpt lat="56.31585" lon="-5.21649">
        <ele>49.47</ele>
        <time>2021-03-20T00:50:13Z</time>
      </trkpt>
      <trkpt lat="56.31597" lon="-5.21627">
        <ele>52.57</ele>
        <time>2021-03-20T00:50:15Z</time>
      </trkpt>
      <trkpt lat="56.31647" lon="-5.21573">
        <ele>53.04</ele>
        <time>2021-03-20T00:50:17Z</time>
      </trkpt>
      <trkpt lat="56.31662" lon="-5.21546">
        <ele>47.74</ele>
        <time>2021-03-20T00:50:20Z</time>
      </trkpt>
      <trkpt lat="56.31677" lon="-5.21501">
        <ele>52.55</ele>
        <time>2021-03-20T00:50:22Z</time>
      </trkpt>
      <trkpt lat="56.31717" lon="-5.21406">
        <ele>55.57</ele>
        <time>2021-03-20T00:50:24Z</time>
      </trkpt>
      <trkpt lat="56.31778" lon="-5.21225">
        <ele>65.57</ele>
        <time>2021-03-20T00:50:26Z</time>
      </trkpt>
      <trkpt lat="56.3184" lon="-5.21086">
        <ele>54.71</ele>
        <time>2021-03-20T00:50:29Z</time>
      </trkpt>
      <trkpt lat="56.31895" lon="-5.20938">
        <ele>55.88</ele>
        <time>2021-03-20T00:50:31Z</time>
      </trkpt>
      <trkpt lat="56.31973" lon="-5.20743">
        <ele>50.31</ele>
        <time>2021-03-20T00:50:33Z</time>
      </trkpt>
      <trkpt lat="56.32029" lon="-5.20624">
        <ele>48.57</ele>
        <time>2021-03-20T00:50:35Z</time>
      </trkpt>
      <trkpt lat="56.32075" lon="-5.20469">
        <ele>47.7</ele>
        <time>2021-03-20T00:50:38Z</time>
      </trkpt>
      <trkpt lat="56.32088" lon="-5.20387">
        <ele>50.06</ele>
        <time>2021-03-20T00:50:40Z</time>
      </trkpt>
      <trkpt lat="56.32111" lon="-5.20318">
        <ele>49.65</ele>
        <time>2021-03-20T00:50:42Z</time>
      </trkpt>
      <trkpt lat="56.32218" lon="-5.20112">
        <ele>48.06</ele>
        <time>2021-03-20T00:50:44Z</time>
      </trkpt>
      <trkpt lat="56.32428" lon="-5.1961">
        <ele>58.08</ele>
        <time>2021-03-20T00:50:47Z</time>
      </trkpt>
      <trkpt lat="56.325" lon="-5.19444">
        <ele>51.27</ele>
        <time>2021-03-20T00:50:49Z</time>
      </trkpt>
      <trkpt lat="56.32614" lon="-5.19168">
        <ele>45.14</ele>
        <time>2021-03-20T00:50:51Z</time>
      </trkpt>
      <trkpt lat="56.32647" lon="-5.19042">
        <ele>48.97</ele>
        <time>2021-03-20T00:50:53Z</time>
      </trkpt>
      <trkpt lat="56.32696" lon="-5.18923">
        <ele>45.02</ele>
        <time>2021-03-20T00:50:56Z</time>
      </trkpt>
      <trkpt lat="56.32726" lon="-5.18809">
        <ele>49.03</ele>
        <time>2021-03-20T00:50:58Z</time>
      </trkpt>
      <trkpt lat="56.32767" lon="-5.18757">
        <ele>46.7</ele>
        <time>2021-03-20T00:51:00Z</time>
      </trkpt>
      <trkpt lat="56.32819" lon="-5.18704">
        <ele>47.79</ele>
        <time>2021-03-20T00:51:02Z</time>
      </trkpt>
      <trkpt lat="56.3284" lon="-5.1868">
        <ele>46.97</ele>
        <time>2021-03-20T00:51:05Z</time>
      </trkpt>
      <trkpt lat="56.32902" lon="-5.18563">
        <ele>48.01</ele>
        <time>2021-03-20T00:51:07Z</time>
      </trkpt>
      <trkpt lat="56.32946" lon="-5.18465">
        <ele>47.64</ele>
        <time>2021-03-20T00:51:09Z</time>
      </trkpt>
      <trkpt lat="56.33013" lon="-5.18351">
        <ele>49.25</ele>
        <time>2021-03-20T00:51:11Z</time>
      </trkpt>
      <trkpt lat="56.33069" lon="-5.18244">
        <ele>49.02</ele>
        <time>2021-03-20T00:51:14Z</time>
      </trkpt>
      <trkpt lat="56.33087" lon="-5.18202">
        <ele>47.95</ele>
        <time>2021-03-20T00:51:16Z</time>
      </trkpt>
      <trkpt lat="56.33109" lon="-5.18163">
        <ele>50.43</ele>
        <time>2021-03-20T00:51:18Z</time>
      </trkpt>
      <trkpt lat="56.33144" lon="-5.18112">
        <ele>47.99</ele>
        <time>2021-03-20T00:51:20Z</time>
      </trkpt>
      <trkpt lat="56.33166" lon="-5.18084">
        <ele>45.15</ele>
        <time>2021-03-20T00:51:23Z</time>
      </trkpt>
      <trkpt lat="56.33281" lon="-5.17875">
        <ele>51.68</ele>
        <time>2021-03-20T00:51:25Z</time>
      </trkpt>
      <trkpt lat="56.33306" lon="-5.17814">
        <ele>51.6</ele>
        <time>2021-03-20T00:51:27Z</time>
      </trkpt>
      <trkpt lat="56.33323" lon="-5.17764">
        <ele>50.53</ele>
        <time>2021-03-20T00:51:29Z</time>
      </trkpt>
      <trkpt lat="56.33328" lon="-5.17724">
        <ele>52.19</ele>
        <time>2021-03-20T00:51:32Z</time>
      </trkpt>
      <trkpt lat="56.33334" lon="-5.17691">
        <ele>53.25</ele>
        <time>2021-03-20T00:51:34Z</time>
      </trkpt>
      <trkpt lat="56.33352" lon="-5.17648">
        <ele>53.49</ele>
        <time>2021-03-20T00:51:36Z</time>
      </trkpt>
      <trkpt lat="56.33377" lon="-5.17599">
        <ele>54.1</ele>
        <time>2021-03-20T00:51:38Z</time>
      </trkpt>
      <trkpt lat="56.3339" lon="-5.17536">
        <ele>57.53</ele>
        <time>2021-03-20T00:51:41Z</time>
      </trkpt>
      <trkpt lat="56.33407" lon="-5.17473">
        <ele>55.03</ele>
        <time>2021-03-20T00:51:43Z</time>
      </trkpt>
      <trkpt lat="56.33419" lon="-5.17424">
        <ele>54.43</ele>
        <time>2021-03-20T00:51:45Z</time>
      </trkpt>
      <trkpt lat="56.33428" lon="-5.17322">
        <ele>57.04</ele>
        <time>2021-03-20T00:51:47Z</time>
      </trkpt>
      <trkpt lat="56.33439" lon="-5.17272">
        <ele>55.2</ele>
        <time>2021-03-20T00:51:50Z</time>
      </trkpt>
      <trkpt lat="56.33479" lon="-5.17176">
        <ele>59.3</ele>
        <time>2021-03-20T00:51:52Z</time>
      </trkpt>
      <trkpt lat="56.33505" lon="-5.17108">
        <ele>65.6</ele>
        <time>2021-03-20T00:51:54Z</time>
      </trkpt>
      <trkpt lat="56.3353" lon="-5.17024">
        <ele>68.26</ele>
        <time>2021-03-20T00:51:56Z</time>
      </trkpt>
      <trkpt lat="56.33543" lon="-5.16966">
        <ele>69.76</ele>
        <time>2021-03-20T00:51:59Z</time>
      </trkpt>
      <trkpt lat="56.33561" lon="-5.16892">
        <ele>69.91</ele>
        <time>2021-03-20T00:52:01Z</time>
      </trkpt>
      <trkpt lat="56.33576" lon="-5.16852">
        <ele>69.58</ele>
        <time>2021-03-20T00:52:03Z</time>
      </trkpt>
      <trkpt lat="56.33599" lon="-5.1682">
        <ele>69.37</ele>
        <time>2021-03-20T00:52:05Z</time>
      </trkpt>
      <trkpt lat="56.33692" lon="-5.16727">
        <ele>60</ele>
        <time>2021-03-20T00:52:08Z</time>
      </trkpt>
      <trkpt lat="56.33738" lon="-5.16687">
        <ele>57.12</ele>
        <time>2021-03-20T00:52:10Z</time>
      </trkpt>
      <trkpt lat="56.33757" lon="-5.16668">
        <ele>56.18</ele>
        <time>2021-03-20T00:52:12Z</time>
      </trkpt>
      <trkpt lat="56.33769" lon="-5.16647">
        <ele>54.59</ele>
        <time>2021-03-20T00:52:14Z</time>
      </trkpt>
      <trkpt lat="56.3378" lon="-5.16617">
        <ele>54.04</ele>
        <time>2021-03-20T00:52:17Z</time>
      </trkpt>
      <trkpt lat="56.33799" lon="-5.16556">
        <ele>54</ele>
        <time>2021-03-20T00:52:19Z</time>
      </trkpt>
      <trkpt lat="56.33813" lon="-5.16538">
        <ele>52.42</ele>
        <time>2021-03-20T00:52:21Z</time>
      </trkpt>
      <trkpt lat="56.33826" lon="-5.16511">
        <ele>53.06</ele>
        <time>2021-03-20T00:52:24Z</time>
      </trkpt>
      <trkpt lat="56.33855" lon="-5.16427">
        <ele>48.44</ele>
        <time>2021-03-20T00:52:26Z</time>
      </trkpt>
      <trkpt lat="56.3387" lon="-5.16376">
        <ele>47.95</ele>
        <time>2021-03-20T00:52:28Z</time>
      </trkpt>
      <trkpt lat="56.33883" lon="-5.16193">
        <ele>44.89</ele>
        <time>2021-03-20T00:52:30Z</time>
      </trkpt>
      <trkpt lat="56.33927" lon="-5.15955">
        <ele>46.9</ele>
        <time>2021-03-20T00:52:33Z</time>
      </trkpt>
      <trkpt lat="56.33947" lon="-5.15836">
        <ele>46.36</ele>
        <time>2021-03-20T00:52:35Z</time>
      </trkpt>
      <trkpt lat="56.33992" lon="-5.15713">
        <ele>46.83</ele>
        <time>2021-03-20T00:52:37Z</time>
      </trkpt>
      <trkpt lat="56.34009" lon="-5.15656">
        <ele>48</ele>
        <time>2021-03-20T00:52:39Z</time>
      </trkpt>
      <trkpt lat="56.34038" lon="-5.15476">
        <ele>51.2</ele>
        <time>2021-03-20T00:52:42Z</time>
      </trkpt>
      <trkpt lat="56.34095" lon="-5.15154">
        <ele>46</ele>
        <time>2021-03-20T00:52:44Z</time>
      </trkpt>
      <trkpt lat="56.34106" lon="-5.15102">
        <ele>48.2</ele>
        <time>2021-03-20T00:52:46Z</time>
      </trkpt>
      <trkpt lat="56.34124" lon="-5.14991">
        <ele>45.2</ele>
        <time>2021-03-20T00:52:48Z</time>
      </trkpt>
      <trkpt lat="56.34136" lon="-5.14931">
        <ele>43.79</ele>
        <time>2021-03-20T00:52:51Z</time>
      </trkpt>
      <trkpt lat="56.34143" lon="-5.14879">
        <ele>46.04</ele>
        <time>2021-03-20T00:52:53Z</time>
      </trkpt>
      <trkpt lat="56.3416" lon="-5.14804">
        <ele>46.19</ele>
        <time>2021-03-20T00:52:55Z</time>
      </trkpt>
      <trkpt lat="56.34197" lon="-5.14595">
        <ele>51.72</ele>
        <time>2021-03-20T00:52:57Z</time>
      </trkpt>
      <trkpt lat="56.3422" lon="-5.14424">
        <ele>46.15</ele>
        <time>2021-03-20T00:53:00Z</time>
      </trkpt>
      <trkpt lat="56.3425" lon="-5.14334">
        <ele>46.08</ele>
        <time>2021-03-20T00:53:02Z</time>
      </trkpt>
      <trkpt lat="56.34267" lon="-5.14243">
        <ele>45.37</ele>
        <time>2021-03-20T00:53:04Z</time>
      </trkpt>
      <trkpt lat="56.34279" lon="-5.14157">
        <ele>43.31</ele>
        <time>2021-03-20T00:53:06Z</time>
      </trkpt>
      <trkpt lat="56.34279" lon="-5.14056">
        <ele>44.96</ele>
        <time>2021-03-20T00:53:09Z</time>
      </trkpt>
      <trkpt lat="56.34286" lon="-5.13968">
        <ele>47.01</ele>
        <time>2021-03-20T00:53:11Z</time>
      </trkpt>
      <trkpt lat="56.34282" lon="-5.13898">
        <ele>52.48</ele>
        <time>2021-03-20T00:53:13Z</time>
      </trkpt>
      <trkpt lat="56.34271" lon="-5.13818">
        <ele>52.24</ele>
        <time>2021-03-20T00:53:15Z</time>
      </trkpt>
      <trkpt lat="56.34238" lon="-5.13652">
        <ele>57.52</ele>
        <time>2021-03-20T00:53:18Z</time>
      </trkpt>
      <trkpt lat="56.34235" lon="-5.13514">
        <ele>57.98</ele>
        <time>2021-03-20T00:53:20Z</time>
      </trkpt>
      <trkpt lat="56.34224" lon="-5.13436">
        <ele>58.81</ele>
        <time>2021-03-20T00:53:22Z</time>
      </trkpt>
      <trkpt lat="56.34193" lon="-5.13245">
        <ele>57.51</ele>
        <time>2021-03-20T00:53:24Z</time>
      </trkpt>
      <trkpt lat="56.34185" lon="-5.13156">
        <ele>59.25</ele>
        <time>2021-03-20T00:53:27Z</time>
      </trkpt>
      <trkpt lat="56.34181" lon="-5.13026">
        <ele>63.23</ele>
        <time>2021-03-20T00:53:29Z</time>
      </trkpt>
      <trkpt lat="56.3419" lon="-5.12969">
        <ele>67.74</ele>
        <time>2021-03-20T00:53:31Z</time>
      </trkpt>
      <trkpt lat="56.34213" lon="-5.12879">
        <ele>75.58</ele>
        <time>2021-03-20T00:53:33Z</time>
      </trkpt>
      <trkpt lat="56.34229" lon="-5.12825">
        <ele>77.53</ele>
        <time>2021-03-20T00:53:36Z</time>
      </trkpt>
      <trkpt lat="56.34238" lon="-5.12783">
        <ele>79.68</ele>
        <time>2021-03-20T00:53:38Z</time>
      </trkpt>
      <trkpt lat="56.3425" lon="-5.12685">
        <ele>86.54</ele>
        <time>2021-03-20T00:53:40Z</time>
      </trkpt>
      <trkpt lat="56.34259" lon="-5.12636">
        <ele>87.71</ele>
        <time>2021-03-20T00:53:42Z</time>
      </trkpt>
      <trkpt lat="56.34265" lon="-5.12597">
        <ele>89.24</ele>
        <time>2021-03-20T00:53:45Z</time>
      </trkpt>
      <trkpt lat="56.34269" lon="-5.12558">
        <ele>93.43</ele>
        <time>2021-03-20T00:53:47Z</time>
      </trkpt>
      <trkpt lat="56.34275" lon="-5.12533">
        <ele>94.48</ele>
        <time>2021-03-20T00:53:49Z</time>
      </trkpt>
      <trkpt lat="56.34309" lon="-5.12416">
        <ele>98.19</ele>
        <time>2021-03-20T00:53:51Z</time>
      </trkpt>
      <trkpt lat="56.34313" lon="-5.12394">
        <ele>100.08</ele>
        <time>2021-03-20T00:53:54Z</time>
      </trkpt>
      <trkpt lat="56.34367" lon="-5.12224">
        <ele>108.28</ele>
        <time>2021-03-20T00:53:56Z</time>
      </trkpt>
      <trkpt lat="56.34385" lon="-5.12147">
        <ele>110.42</ele>
        <time>2021-03-20T00:53:58Z</time>
      </trkpt>
      <trkpt lat="56.34429" lon="-5.11928">
        <ele>117.02</ele>
        <time>2021-03-20T00:54:00Z</time>
      </trkpt>
      <trkpt lat="56.34467" lon="-5.11715">
        <ele>123.24</ele>
        <time>2021-03-20T00:54:03Z</time>
      </trkpt>
      <trkpt lat="56.34479" lon="-5.11684">
        <ele>123.89</ele>
        <time>2021-03-20T00:54:05Z</time>
      </trkpt>
      <trkpt lat="56.345" lon="-5.11652">
        <ele>123.48</ele>
        <time>2021-03-20T00:54:07Z</time>
      </trkpt>
      <trkpt lat="56.34515" lon="-5.11594">
        <ele>125.31</ele>
        <time>2021-03-20T00:54:09Z</time>
      </trkpt>
      <trkpt lat="56.34524" lon="-5.11549">
        <ele>127.71</ele>
        <time>2021-03-20T00:54:12Z</time>
      </trkpt>
      <trkpt lat="56.34536" lon="-5.11474">
        <ele>132.25</ele>
        <time>2021-03-20T00:54:14Z</time>
      </trkpt>
      <trkpt lat="56.34543" lon="-5.11417">
        <ele>135.53</ele>
        <time>2021-03-20T00:54:16Z</time>
      </trkpt>
      <trkpt lat="56.34537" lon="-5.11364">
        <ele>137.6</ele>
        <time>2021-03-20T00:54:18Z</time>
      </trkpt>
      <trkpt lat="56.34527" lon="-5.11323">
        <ele>137.86</ele>
        <time>2021-03-20T00:54:21Z</time>
      </trkpt>
      <trkpt lat="56.34528" lon="-5.11297">
        <ele>137.7</ele>
        <time>2021-03-20T00:54:23Z</time>
      </trkpt>
      <trkpt lat="56.34532" lon="-5.11274">
        <ele>137.15</ele>
        <time>2021-03-20T00:54:25Z</time>
      </trkpt>
      <trkpt lat="56.34541" lon="-5.11238">
        <ele>136.49</ele>
        <time>2021-03-20T00:54:27Z</time>
      </trkpt>
      <trkpt lat="56.34568" lon="-5.1119">
        <ele>134.57</ele>
        <time>2021-03-20T00:54:30Z</time>
      </trkpt>
      <trkpt lat="56.34632" lon="-5.11063">
        <ele>124.55</ele>
        <time>2021-03-20T00:54:32Z</time>
      </trkpt>
      <trkpt lat="56.34672" lon="-5.10875">
        <ele>114.2</ele>
        <time>2021-03-20T00:54:34Z</time>
      </trkpt>
      <trkpt lat="56.34688" lon="-5.1084">
        <ele>112.45</ele>
        <time>2021-03-20T00:54:36Z</time>
      </trkpt>
      <trkpt lat="56.34706" lon="-5.10818">
        <ele>109.45</ele>
        <time>2021-03-20T00:54:39Z</time>
      </trkpt>
      <trkpt lat="56.3471" lon="-5.10779">
        <ele>106.94</ele>
        <time>2021-03-20T00:54:41Z</time>
      </trkpt>
      <trkpt lat="56.34697" lon="-5.10731">
        <ele>104.63</ele>
        <time>2021-03-20T00:54:43Z</time>
      </trkpt>
      <trkpt lat="56.34665" lon="-5.10638">
        <ele>99.9</ele>
        <time>2021-03-20T00:54:45Z</time>
      </trkpt>
      <trkpt lat="56.34628" lon="-5.10477">
        <ele>99.41</ele>
        <time>2021-03-20T00:54:48Z</time>
      </trkpt>
      <trkpt lat="56.34592" lon="-5.10405">
        <ele>98.28</ele>
        <time>2021-03-20T00:54:50Z</time>
      </trkpt>
      <trkpt lat="56.34584" lon="-5.10353">
        <ele>97.68</ele>
        <time>2021-03-20T00:54:52Z</time>
      </trkpt>
      <trkpt lat="56.34569" lon="-5.10215">
        <ele>93.6</ele>
        <time>2021-03-20T00:54:54Z</time>
      </trkpt>
      <trkpt lat="56.34539" lon="-5.10125">
        <ele>88.89</ele>
        <time>2021-03-20T00:54:57Z</time>
      </trkpt>
      <trkpt lat="56.34538" lon="-5.10045">
        <ele>92.2</ele>
        <time>2021-03-20T00:54:59Z</time>
      </trkpt>
      <trkpt lat="56.34548" lon="-5.10013">
        <ele>94.13</ele>
        <time>2021-03-20T00:55:01Z</time>
      </trkpt>
      <trkpt lat="56.34606" lon="-5.09941">
        <ele>88.52</ele>
        <time>2021-03-20T00:55:03Z</time>
      </trkpt>
      <trkpt lat="56.34652" lon="-5.09859">
        <ele>85.89</ele>
        <time>2021-03-20T00:55:06Z</time>
      </trkpt>
      <trkpt lat="56.34684" lon="-5.09815">
        <ele>84.12</ele>
        <time>2021-03-20T00:55:08Z</time>
      </trkpt>
      <trkpt lat="56.34708" lon="-5.09792">
        <ele>82.76</ele>
        <time>2021-03-20T00:55:10Z</time>
      </trkpt>
      <trkpt lat="56.34824" lon="-5.09632">
        <ele>74.28</ele>
        <time>2021-03-20T00:55:12Z</time>
      </trkpt>
      <trkpt lat="56.34863" lon="-5.0957">
        <ele>72.04</ele>
        <time>2021-03-20T00:55:15Z</time>
      </trkpt>
      <trkpt lat="56.34878" lon="-5.09526">
        <ele>71.36</ele>
        <time>2021-03-20T00:55:17Z</time>
      </trkpt>
      <trkpt lat="56.34909" lon="-5.09129">
        <ele>81.47</ele>
        <time>2021-03-20T00:55:19Z</time>
      </trkpt>
      <trkpt lat="56.34926" lon="-5.09024">
        <ele>84.8</ele>
        <time>2021-03-20T00:55:21Z</time>
      </trkpt>
      <trkpt lat="56.34983" lon="-5.08714">
        <ele>84.86</ele>
        <time>2021-03-20T00:55:24Z</time>
      </trkpt>
      <trkpt lat="56.3499" lon="-5.08681">
        <ele>84.86</ele>
        <time>2021-03-20T00:55:26Z</time>
      </trkpt>
      <trkpt lat="56.35012" lon="-5.08635">
        <ele>81.71</ele>
        <time>2021-03-20T00:55:28Z</time>
      </trkpt>
      <trkpt lat="56.35025" lon="-5.08592">
        <ele>81.25</ele>
        <time>2021-03-20T00:55:30Z</time>
      </trkpt>
      <trkpt lat="56.35051" lon="-5.08534">
        <ele>79.46</ele>
        <time>2021-03-20T00:55:33Z</time>
      </trkpt>
      <trkpt lat="56.35056" lon="-5.08505">
        <ele>80.62</ele>
        <time>2021-03-20T00:55:35Z</time>
      </trkpt>
      <trkpt lat="56.35041" lon="-5.08222">
        <ele>85.6</ele>
        <time>2021-03-20T00:55:37Z</time>
      </trkpt>
      <trkpt lat="56.35058" lon="-5.08176">
        <ele>87.17</ele>
        <time>2021-03-20T00:55:40Z</time>
      </trkpt>
      <trkpt lat="56.35091" lon="-5.08197">
        <ele>82.4</ele>
        <time>2021-03-20T00:55:41Z</time>
      </trkpt>
      <trkpt lat="56.35196" lon="-5.0821">
        <ele>70.96</ele>
        <time>2021-03-20T00:55:42Z</time>
      </trkpt>
      <trkpt lat="56.35205" lon="-5.08219">
        <ele>70.6</ele>
        <time>2021-03-20T00:55:43Z</time>
      </trkpt>
      <trkpt lat="56.35225" lon="-5.08253">
        <ele>71</ele>
        <time>2021-03-20T00:55:44Z</time>
      </trkpt>
      <trkpt lat="56.35232" lon="-5.0826">
        <ele>71.01</ele>
        <time>2021-03-20T00:55:45Z</time>
      </trkpt>
      <trkpt lat="56.35248" lon="-5.0826">
        <ele>70.44</ele>
        <time>2021-03-20T00:55:47Z</time>
      </trkpt>
      <trkpt lat="56.35262" lon="-5.08245">
        <ele>69.89</ele>
        <time>2021-03-20T00:55:48Z</time>
      </trkpt>
      <trkpt lat="56.35288" lon="-5.0819">
        <ele>71.15</ele>
        <time>2021-03-20T00:55:49Z</time>
      </trkpt>
      <trkpt lat="56.35315" lon="-5.08018">
        <ele>76.8</ele>
        <time>2021-03-20T00:55:50Z</time>
      </trkpt>
      <trkpt lat="56.35319" lon="-5.07996">
        <ele>77.97</ele>
        <time>2021-03-20T00:55:51Z</time>
      </trkpt>
      <trkpt lat="56.35325" lon="-5.07986">
        <ele>78.38</ele>
        <time>2021-03-20T00:55:52Z</time>
      </trkpt>
      <trkpt lat="56.35331" lon="-5.07981">
        <ele>78.81</ele>
        <time>2021-03-20T00:55:53Z</time>
      </trkpt>
      <trkpt lat="56.35338" lon="-5.07981">
        <ele>79.46</ele>
        <time>2021-03-20T00:55:54Z</time>
      </trkpt>
      <trkpt lat="56.3538" lon="-5.07997">
        <ele>81.15</ele>
        <time>2021-03-20T00:55:55Z</time>
      </trkpt>
      <trkpt lat="56.35401" lon="-5.07995">
        <ele>80.91</ele>
        <time>2021-03-20T00:55:57Z</time>
      </trkpt>
      <trkpt lat="56.35411" lon="-5.07988">
        <ele>81.09</ele>
        <time>2021-03-20T00:55:58Z</time>
      </trkpt>
      <trkpt lat="56.35424" lon="-5.07971">
        <ele>81.59</ele>
        <time>2021-03-20T00:55:59Z</time>
      </trkpt>
      <trkpt lat="56.35435" lon="-5.07956">
        <ele>82.5</ele>
        <time>2021-03-20T00:56:00Z</time>
      </trkpt>
      <trkpt lat="56.3545" lon="-5.07928">
        <ele>83.62</ele>
        <time>2021-03-20T00:56:01Z</time>
      </trkpt>
      <trkpt lat="56.35468" lon="-5.07882">
        <ele>85.69</ele>
        <time>2021-03-20T00:56:02Z</time>
      </trkpt>
      <trkpt lat="56.35472" lon="-5.07865">
        <ele>85.94</ele>
        <time>2021-03-20T00:56:03Z</time>
      </trkpt>
      <trkpt lat="56.35473" lon="-5.07846">
        <ele>87.02</ele>
        <time>2021-03-20T00:56:04Z</time>
      </trkpt>
      <trkpt lat="56.35473" lon="-5.07832">
        <ele>88</ele>
        <time>2021-03-20T00:56:05Z</time>
      </trkpt>
      <trkpt lat="56.35469" lon="-5.07811">
        <ele>88.99</ele>
        <time>2021-03-20T00:56:07Z</time>
      </trkpt>
      <trkpt lat="56.35461" lon="-5.07796">
        <ele>90.36</ele>
        <time>2021-03-20T00:56:08Z</time>
      </trkpt>
      <trkpt lat="56.35475" lon="-5.07769">
        <ele>91.13</ele>
        <time>2021-03-20T00:56:11Z</time>
      </trkpt>
      <trkpt lat="56.35529" lon="-5.07642">
        <ele>96.68</ele>
        <time>2021-03-20T00:56:14Z</time>
      </trkpt>
      <trkpt lat="56.35546" lon="-5.07613">
        <ele>99.82</ele>
        <time>2021-03-20T00:56:17Z</time>
      </trkpt>
      <trkpt lat="56.35564" lon="-5.07595">
        <ele>102</ele>
        <time>2021-03-20T00:56:21Z</time>
      </trkpt>
      <trkpt lat="56.35602" lon="-5.07568">
        <ele>101.29</ele>
        <time>2021-03-20T00:56:24Z</time>
      </trkpt>
      <trkpt lat="56.35633" lon="-5.07539">
        <ele>99.27</ele>
        <time>2021-03-20T00:56:27Z</time>
      </trkpt>
      <trkpt lat="56.35651" lon="-5.07513">
        <ele>97.91</ele>
        <time>2021-03-20T00:56:30Z</time>
      </trkpt>
      <trkpt lat="56.35677" lon="-5.07469">
        <ele>97.21</ele>
        <time>2021-03-20T00:56:34Z</time>
      </trkpt>
      <trkpt lat="56.35696" lon="-5.07441">
        <ele>96.2</ele>
        <time>2021-03-20T00:56:37Z</time>
      </trkpt>
      <trkpt lat="56.3576" lon="-5.07365">
        <ele>92.47</ele>
        <time>2021-03-20T00:56:40Z</time>
      </trkpt>
      <trkpt lat="56.35777" lon="-5.07339">
        <ele>94.43</ele>
        <time>2021-03-20T00:56:44Z</time>
      </trkpt>
      <trkpt lat="56.35791" lon="-5.07312">
        <ele>94.42</ele>
        <time>2021-03-20T00:56:47Z</time>
      </trkpt>
      <trkpt lat="56.35818" lon="-5.07255">
        <ele>93.28</ele>
        <time>2021-03-20T00:56:50Z</time>
      </trkpt>
      <trkpt lat="56.35846" lon="-5.07205">
        <ele>90.63</ele>
        <time>2021-03-20T00:56:53Z</time>
      </trkpt>
      <trkpt lat="56.35861" lon="-5.07185">
        <ele>89.38</ele>
        <time>2021-03-20T00:56:57Z</time>
      </trkpt>
      <trkpt lat="56.35984" lon="-5.07049">
        <ele>90.63</ele>
        <time>2021-03-20T00:57:00Z</time>
      </trkpt>
      <trkpt lat="56.36101" lon="-5.06898">
        <ele>85.64</ele>
        <time>2021-03-20T00:57:03Z</time>
      </trkpt>
      <trkpt lat="56.36145" lon="-5.06836">
        <ele>77.42</ele>
        <time>2021-03-20T00:57:06Z</time>
      </trkpt>
      <trkpt lat="56.36178" lon="-5.06783">
        <ele>74.54</ele>
        <time>2021-03-20T00:57:10Z</time>
      </trkpt>
      <trkpt lat="56.36203" lon="-5.06735">
        <ele>72.88</ele>
        <time>2021-03-20T00:57:13Z</time>
      </trkpt>
      <trkpt lat="56.36284" lon="-5.06545">
        <ele>70.65</ele>
        <time>2021-03-20T00:57:16Z</time>
      </trkpt>
      <trkpt lat="56.36348" lon="-5.0644">
        <ele>67.24</ele>
        <time>2021-03-20T00:57:19Z</time>
      </trkpt>
      <trkpt lat="56.36361" lon="-5.06415">
        <ele>65.1</ele>
        <time>2021-03-20T00:57:23Z</time>
      </trkpt>
      <trkpt lat="56.36374" lon="-5.06379">
        <ele>62.42</ele>
        <time>2021-03-20T00:57:26Z</time>
      </trkpt>
      <trkpt lat="56.36439" lon="-5.06168">
        <ele>49.43</ele>
        <time>2021-03-20T00:57:29Z</time>
      </trkpt>
      <trkpt lat="56.36451" lon="-5.06117">
        <ele>49.17</ele>
        <time>2021-03-20T00:57:33Z</time>
      </trkpt>
      <trkpt lat="56.36464" lon="-5.06038">
        <ele>48.68</ele>
        <time>2021-03-20T00:57:36Z</time>
      </trkpt>
      <trkpt lat="56.36484" lon="-5.05959">
        <ele>45.82</ele>
        <time>2021-03-20T00:57:39Z</time>
      </trkpt>
      <trkpt lat="56.36497" lon="-5.05929">
        <ele>45.04</ele>
        <time>2021-03-20T00:57:42Z</time>
      </trkpt>
      <trkpt lat="56.36507" lon="-5.05912">
        <ele>44.69</ele>
        <time>2021-03-20T00:57:46Z</time>
      </trkpt>
      <trkpt lat="56.36519" lon="-5.05897">
        <ele>44.38</ele>
        <time>2021-03-20T00:57:49Z</time>
      </trkpt>
      <trkpt lat="56.36543" lon="-5.05878">
        <ele>44.4</ele>
        <time>2021-03-20T00:57:52Z</time>
      </trkpt>
      <trkpt lat="56.36558" lon="-5.0587">
        <ele>44.75</ele>
        <time>2021-03-20T00:57:55Z</time>
      </trkpt>
      <trkpt lat="56.36574" lon="-5.05867">
        <ele>45.43</ele>
        <time>2021-03-20T00:57:59Z</time>
      </trkpt>
      <trkpt lat="56.36671" lon="-5.05859">
        <ele>48.29</ele>
        <time>2021-03-20T00:58:02Z</time>
      </trkpt>
      <trkpt lat="56.36734" lon="-5.0586">
        <ele>48.49</ele>
        <time>2021-03-20T00:58:05Z</time>
      </trkpt>
      <trkpt lat="56.36754" lon="-5.05866">
        <ele>48.62</ele>
        <time>2021-03-20T00:58:08Z</time>
      </trkpt>
      <trkpt lat="56.3677" lon="-5.05876">
        <ele>47.94</ele>
        <time>2021-03-20T00:58:12Z</time>
      </trkpt>
      <trkpt lat="56.3683" lon="-5.05925">
        <ele>48.83</ele>
        <time>2021-03-20T00:58:15Z</time>
      </trkpt>
      <trkpt lat="56.36916" lon="-5.05999">
        <ele>51.99</ele>
        <time>2021-03-20T00:58:18Z</time>
      </trkpt>
      <trkpt lat="56.36941" lon="-5.06018">
        <ele>53.09</ele>
        <time>2021-03-20T00:58:21Z</time>
      </trkpt>
      <trkpt lat="56.36959" lon="-5.06026">
        <ele>54.07</ele>
        <time>2021-03-20T00:58:25Z</time>
      </trkpt>
      <trkpt lat="56.36974" lon="-5.0603">
        <ele>54.91</ele>
        <time>2021-03-20T00:58:28Z</time>
      </trkpt>
      <trkpt lat="56.37008" lon="-5.06023">
        <ele>54.5</ele>
        <time>2021-03-20T00:58:31Z</time>
      </trkpt>
      <trkpt lat="56.37023" lon="-5.06013">
        <ele>54.11</ele>
        <time>2021-03-20T00:58:35Z</time>
      </trkpt>
      <trkpt lat="56.37042" lon="-5.05991">
        <ele>52.54</ele>
        <time>2021-03-20T00:58:38Z</time>
      </trkpt>
      <trkpt lat="56.37105" lon="-5.05883">
        <ele>55.14</ele>
        <time>2021-03-20T00:58:41Z</time>
      </trkpt>
      <trkpt lat="56.3712" lon="-5.05853">
        <ele>54.53</ele>
        <time>2021-03-20T00:58:44Z</time>
      </trkpt>
      <trkpt lat="56.37204" lon="-5.05597">
        <ele>57.6</ele>
        <time>2021-03-20T00:58:48Z</time>
      </trkpt>
      <trkpt lat="56.37304" lon="-5.05226">
        <ele>55.16</ele>
        <time>2021-03-20T00:58:51Z</time>
      </trkpt>
      <trkpt lat="56.37322" lon="-5.05139">
        <ele>55.58</ele>
        <time>2021-03-20T00:58:54Z</time>
      </trkpt>
      <trkpt lat="56.37359" lon="-5.04906">
        <ele>61.23</ele>
        <time>2021-03-20T00:58:57Z</time>
      </trkpt>
      <trkpt lat="56.37366" lon="-5.04874">
        <ele>62.36</ele>
        <time>2021-03-20T00:59:01Z</time>
      </trkpt>
      <trkpt lat="56.37385" lon="-5.04818">
        <ele>63.69</ele>
        <time>2021-03-20T00:59:04Z</time>
      </trkpt>
      <trkpt lat="56.37395" lon="-5.04798">
        <ele>64.1</ele>
        <time>2021-03-20T00:59:07Z</time>
      </trkpt>
      <trkpt lat="56.37408" lon="-5.04776">
        <ele>64.35</ele>
        <time>2021-03-20T00:59:10Z</time>
      </trkpt>
      <trkpt lat="56.37426" lon="-5.04755">
        <ele>63.88</ele>
        <time>2021-03-20T00:59:14Z</time>
      </trkpt>
      <trkpt lat="56.37454" lon="-5.04729">
        <ele>64.28</ele>
        <time>2021-03-20T00:59:17Z</time>
      </trkpt>
      <trkpt lat="56.37686" lon="-5.04558">
        <ele>54.21</ele>
        <time>2021-03-20T00:59:20Z</time>
      </trkpt>
      <trkpt lat="56.37933" lon="-5.04365">
        <ele>40.42</ele>
        <time>2021-03-20T00:59:24Z</time>
      </trkpt>
      <trkpt lat="56.37964" lon="-5.04334">
        <ele>39.99</ele>
        <time>2021-03-20T00:59:27Z</time>
      </trkpt>
      <trkpt lat="56.37984" lon="-5.04305">
        <ele>39.58</ele>
        <time>2021-03-20T00:59:30Z</time>
      </trkpt>
      <trkpt lat="56.38002" lon="-5.04267">
        <ele>40</ele>
        <time>2021-03-20T00:59:33Z</time>
      </trkpt>
      <trkpt lat="56.3802" lon="-5.04223">
        <ele>40</ele>
        <time>2021-03-20T00:59:37Z</time>
      </trkpt>
      <trkpt lat="56.38048" lon="-5.04142">
        <ele>40.72</ele>
        <time>2021-03-20T00:59:40Z</time>
      </trkpt>
      <trkpt lat="56.38087" lon="-5.04052">
        <ele>41</ele>
        <time>2021-03-20T00:59:43Z</time>
      </trkpt>
      <trkpt lat="56.38123" lon="-5.03997">
        <ele>42.53</ele>
        <time>2021-03-20T00:59:46Z</time>
      </trkpt>
      <trkpt lat="56.38153" lon="-5.03959">
        <ele>45.52</ele>
        <time>2021-03-20T00:59:50Z</time>
      </trkpt>
      <trkpt lat="56.38186" lon="-5.03928">
        <ele>51.94</ele>
        <time>2021-03-20T00:59:53Z</time>
      </trkpt>
      <trkpt lat="56.38227" lon="-5.039">
        <ele>56.69</ele>
        <time>2021-03-20T00:59:56Z</time>
      </trkpt>
      <trkpt lat="56.38395" lon="-5.03844">
        <ele>48.76</ele>
        <time>2021-03-20T00:59:59Z</time>
      </trkpt>
      <trkpt lat="56.3843" lon="-5.03823">
        <ele>45.06</ele>
        <time>2021-03-20T01:00:03Z</time>
      </trkpt>
      <trkpt lat="56.38496" lon="-5.03777">
        <ele>44.19</ele>
        <time>2021-03-20T01:00:06Z</time>
      </trkpt>
      <trkpt lat="56.38528" lon="-5.03766">
        <ele>43.86</ele>
        <time>2021-03-20T01:00:09Z</time>
      </trkpt>
      <trkpt lat="56.3856" lon="-5.03769">
        <ele>43.48</ele>
        <time>2021-03-20T01:00:13Z</time>
      </trkpt>
      <trkpt lat="56.38582" lon="-5.03785">
        <ele>43.85</ele>
        <time>2021-03-20T01:00:16Z</time>
      </trkpt>
      <trkpt lat="56.386" lon="-5.03805">
        <ele>47.06</ele>
        <time>2021-03-20T01:00:19Z</time>
      </trkpt>
      <trkpt lat="56.38643" lon="-5.03903">
        <ele>53.1</ele>
        <time>2021-03-20T01:00:22Z</time>
      </trkpt>
      <trkpt lat="56.38668" lon="-5.0395">
        <ele>55.9</ele>
        <time>2021-03-20T01:00:26Z</time>
      </trkpt>
      <trkpt lat="56.38697" lon="-5.03984">
        <ele>56.76</ele>
        <time>2021-03-20T01:00:29Z</time>
      </trkpt>
      <trkpt lat="56.38759" lon="-5.04029">
        <ele>58.31</ele>
        <time>2021-03-20T01:00:32Z</time>
      </trkpt>
      <trkpt lat="56.38811" lon="-5.04095">
        <ele>61.34</ele>
        <time>2021-03-20T01:00:35Z</time>
      </trkpt>
      <trkpt lat="56.38869" lon="-5.042">
        <ele>59.67</ele>
        <time>2021-03-20T01:00:39Z</time>
      </trkpt>
      <trkpt lat="56.38953" lon="-5.04371">
        <ele>55.35</ele>
        <time>2021-03-20T01:00:42Z</time>
      </trkpt>
      <trkpt lat="56.38991" lon="-5.0441">
        <ele>60.39</ele>
        <time>2021-03-20T01:00:45Z</time>
      </trkpt>
      <trkpt lat="56.39013" lon="-5.04426">
        <ele>62.98</ele>
        <time>2021-03-20T01:00:48Z</time>
      </trkpt>
      <trkpt lat="56.39038" lon="-5.04439">
        <ele>64.58</ele>
        <time>2021-03-20T01:00:52Z</time>
      </trkpt>
      <trkpt lat="56.39078" lon="-5.04442">
        <ele>62.48</ele>
        <time>2021-03-20T01:00:55Z</time>
      </trkpt>
      <trkpt lat="56.39107" lon="-5.04437">
        <ele>60.02</ele>
        <time>2021-03-20T01:00:58Z</time>
      </trkpt>
      <trkpt lat="56.39145" lon="-5.04412">
        <ele>59.67</ele>
        <time>2021-03-20T01:01:01Z</time>
      </trkpt>
      <trkpt lat="56.39175" lon="-5.04373">
        <ele>58.72</ele>
        <time>2021-03-20T01:01:05Z</time>
      </trkpt>
      <trkpt lat="56.39245" lon="-5.04235">
        <ele>54.65</ele>
        <time>2021-03-20T01:01:08Z</time>
      </trkpt>
      <trkpt lat="56.39298" lon="-5.04124">
        <ele>52.8</ele>
        <time>2021-03-20T01:01:11Z</time>
      </trkpt>
      <trkpt lat="56.39339" lon="-5.0406">
        <ele>47.74</ele>
        <time>2021-03-20T01:01:15Z</time>
      </trkpt>
      <trkpt lat="56.39393" lon="-5.04005">
        <ele>50.94</ele>
        <time>2021-03-20T01:01:18Z</time>
      </trkpt>
      <trkpt lat="56.39523" lon="-5.03943">
        <ele>56.13</ele>
        <time>2021-03-20T01:01:21Z</time>
      </trkpt>
      <trkpt lat="56.39604" lon="-5.03896">
        <ele>55.38</ele>
        <time>2021-03-20T01:01:24Z</time>
      </trkpt>
      <trkpt lat="56.39655" lon="-5.03847">
        <ele>52.03</ele>
        <time>2021-03-20T01:01:28Z</time>
      </trkpt>
      <trkpt lat="56.39697" lon="-5.03774">
        <ele>56.65</ele>
        <time>2021-03-20T01:01:31Z</time>
      </trkpt>
      <trkpt lat="56.39845" lon="-5.03389">
        <ele>42.4</ele>
        <time>2021-03-20T01:01:34Z</time>
      </trkpt>
      <trkpt lat="56.39867" lon="-5.03296">
        <ele>45.11</ele>
        <time>2021-03-20T01:01:37Z</time>
      </trkpt>
      <trkpt lat="56.39879" lon="-5.03201">
        <ele>48.61</ele>
        <time>2021-03-20T01:01:41Z</time>
      </trkpt>
      <trkpt lat="56.39875" lon="-5.02968">
        <ele>48.66</ele>
        <time>2021-03-20T01:01:44Z</time>
      </trkpt>
      <trkpt lat="56.39881" lon="-5.02887">
        <ele>52.45</ele>
        <time>2021-03-20T01:01:47Z</time>
      </trkpt>
      <trkpt lat="56.39907" lon="-5.02769">
        <ele>54.82</ele>
        <time>2021-03-20T01:01:50Z</time>
      </trkpt>
      <trkpt lat="56.39998" lon="-5.0245">
        <ele>49.15</ele>
        <time>2021-03-20T01:01:54Z</time>
      </trkpt>
      <trkpt lat="56.40116" lon="-5.02014">
        <ele>56.73</ele>
        <time>2021-03-20T01:01:57Z</time>
      </trkpt>
      <trkpt lat="56.40155" lon="-5.01923">
        <ele>56.76</ele>
        <time>2021-03-20T01:02:00Z</time>
      </trkpt>
      <trkpt lat="56.40214" lon="-5.01826">
        <ele>56.39</ele>
        <time>2021-03-20T01:02:04Z</time>
      </trkpt>
      <trkpt lat="56.40235" lon="-5.01781">
        <ele>56.36</ele>
        <time>2021-03-20T01:02:07Z</time>
      </trkpt>
      <trkpt lat="56.40254" lon="-5.01737">
        <ele>56.48</ele>
        <time>2021-03-20T01:02:10Z</time>
      </trkpt>
      <trkpt lat="56.40282" lon="-5.01651">
        <ele>55</ele>
        <time>2021-03-20T01:02:13Z</time>
      </trkpt>
      <trkpt lat="56.40311" lon="-5.01545">
        <ele>55.46</ele>
        <time>2021-03-20T01:02:17Z</time>
      </trkpt>
      <trkpt lat="56.4034" lon="-5.01469">
        <ele>51.41</ele>
        <time>2021-03-20T01:02:20Z</time>
      </trkpt>
      <trkpt lat="56.40358" lon="-5.01431">
        <ele>49.19</ele>
        <time>2021-03-20T01:02:23Z</time>
      </trkpt>
      <trkpt lat="56.40381" lon="-5.01393">
        <ele>47.55</ele>
        <time>2021-03-20T01:02:26Z</time>
      </trkpt>
      <trkpt lat="56.40464" lon="-5.01279">
        <ele>46.56</ele>
        <time>2021-03-20T01:02:30Z</time>
      </trkpt>
      <trkpt lat="56.40495" lon="-5.01243">
        <ele>43.53</ele>
        <time>2021-03-20T01:02:33Z</time>
      </trkpt>
      <trkpt lat="56.40516" lon="-5.01235">
        <ele>41.84</ele>
        <time>2021-03-20T01:02:36Z</time>
      </trkpt>
      <trkpt lat="56.40546" lon="-5.01237">
        <ele>40.33</ele>
        <time>2021-03-20T01:02:39Z</time>
      </trkpt>
      <trkpt lat="56.40554" lon="-5.0123">
        <ele>40.04</ele>
        <time>2021-03-20T01:02:43Z</time>
      </trkpt>
      <trkpt lat="56.40673" lon="-5.01564">
        <ele>39</ele>
        <time>2021-03-20T01:02:47Z</time>
      </trkpt>
      <trkpt lat="56.40724" lon="-5.01669">
        <ele>39</ele>
        <time>2021-03-20T01:02:52Z</time>
      </trkpt>
      <trkpt lat="56.40939" lon="-5.02078">
        <ele>40.2</ele>
        <time>2021-03-20T01:02:56Z</time>
      </trkpt>
      <trkpt lat="56.4098" lon="-5.02159">
        <ele>37.74</ele>
        <time>2021-03-20T01:03:00Z</time>
      </trkpt>
      <trkpt lat="56.41003" lon="-5.02217">
        <ele>38</ele>
        <time>2021-03-20T01:03:05Z</time>
      </trkpt>
      <trkpt lat="56.41012" lon="-5.02247">
        <ele>38.4</ele>
        <time>2021-03-20T01:03:09Z</time>
      </trkpt>
      <trkpt lat="56.41028" lon="-5.0231">
        <ele>39</ele>
        <time>2021-03-20T01:03:14Z</time>
      </trkpt>
      <trkpt lat="56.41038" lon="-5.0237">
        <ele>38</ele>
        <time>2021-03-20T01:03:18Z</time>
      </trkpt>
      <trkpt lat="56.41042" lon="-5.0241">
        <ele>38</ele>
        <time>2021-03-20T01:03:22Z</time>
      </trkpt>
      <trkpt lat="56.41045" lon="-5.02472">
        <ele>38</ele>
        <time>2021-03-20T01:03:27Z</time>
      </trkpt>
      <trkpt lat="56.41051" lon="-5.02777">
        <ele>46.82</ele>
        <time>2021-03-20T01:03:31Z</time>
      </trkpt>
      <trkpt lat="56.41049" lon="-5.02817">
        <ele>46.75</ele>
        <time>2021-03-20T01:03:36Z</time>
      </trkpt>
      <trkpt lat="56.41045" lon="-5.02845">
        <ele>47.03</ele>
        <time>2021-03-20T01:03:40Z</time>
      </trkpt>
      <trkpt lat="56.41034" lon="-5.02893">
        <ele>47.56</ele>
        <time>2021-03-20T01:03:44Z</time>
      </trkpt>
      <trkpt lat="56.41016" lon="-5.02941">
        <ele>48.44</ele>
        <time>2021-03-20T01:03:49Z</time>
      </trkpt>
      <trkpt lat="56.40961" lon="-5.03028">
        <ele>50.6</ele>
        <time>2021-03-20T01:03:53Z</time>
      </trkpt>
      <trkpt lat="56.40912" lon="-5.03096">
        <ele>50.36</ele>
        <time>2021-03-20T01:03:58Z</time>
      </trkpt>
      <trkpt lat="56.40891" lon="-5.03121">
        <ele>50.74</ele>
        <time>2021-03-20T01:04:02Z</time>
      </trkpt>
      <trkpt lat="56.40879" lon="-5.03134">
        <ele>51.65</ele>
        <time>2021-03-20T01:04:06Z</time>
      </trkpt>
      <trkpt lat="56.40831" lon="-5.03173">
        <ele>53.55</ele>
        <time>2021-03-20T01:04:11Z</time>
      </trkpt>
      <trkpt lat="56.40678" lon="-5.03369">
        <ele>59.64</ele>
        <time>2021-03-20T01:04:15Z</time>
      </trkpt>
      <trkpt lat="56.40594" lon="-5.03463">
        <ele>55.81</ele>
        <time>2021-03-20T01:04:20Z</time>
      </trkpt>
      <trkpt lat="56.40582" lon="-5.0348">
        <ele>55.17</ele>
        <time>2021-03-20T01:04:24Z</time>
      </trkpt>
      <trkpt lat="56.40544" lon="-5.03548">
        <ele>57.51</ele>
        <time>2021-03-20T01:04:28Z</time>
      </trkpt>
      <trkpt lat="56.40522" lon="-5.03579">
        <ele>58.93</ele>
        <time>2021-03-20T01:04:33Z</time>
      </trkpt>
      <trkpt lat="56.40495" lon="-5.03603">
        <ele>59.07</ele>
        <time>2021-03-20T01:04:37Z</time>
      </trkpt>
      <trkpt lat="56.40457" lon="-5.03628">
        <ele>58.32</ele>
        <time>2021-03-20T01:04:42Z</time>
      </trkpt>
      <trkpt lat="56.40447" lon="-5.03635">
        <ele>58.52</ele>
        <time>2021-03-20T01:04:46Z</time>
      </trkpt>
      <trkpt lat="56.40432" lon="-5.03652">
        <ele>59.73</ele>
        <time>2021-03-20T01:04:50Z</time>
      </trkpt>
      <trkpt lat="56.40418" lon="-5.03679">
        <ele>61.47</ele>
        <time>2021-03-20T01:04:55Z</time>
      </trkpt>
      <trkpt lat="56.40407" lon="-5.03713">
        <ele>61.97</ele>
        <time>2021-03-20T01:04:59Z</time>
      </trkpt>
      <trkpt lat="56.40399" lon="-5.03772">
        <ele>59.22</ele>
        <time>2021-03-20T01:05:04Z</time>
      </trkpt>
      <trkpt lat="56.40389" lon="-5.03886">
        <ele>60.88</ele>
        <time>2021-03-20T01:05:08Z</time>
      </trkpt>
      <trkpt lat="56.40384" lon="-5.03922">
        <ele>62.32</ele>
        <time>2021-03-20T01:05:12Z</time>
      </trkpt>
      <trkpt lat="56.40326" lon="-5.04166">
        <ele>68.38</ele>
        <time>2021-03-20T01:05:17Z</time>
      </trkpt>
      <trkpt lat="56.4031" lon="-5.04213">
        <ele>70.97</ele>
        <time>2021-03-20T01:05:21Z</time>
      </trkpt>
      <trkpt lat="56.403" lon="-5.04233">
        <ele>71.36</ele>
        <time>2021-03-20T01:05:26Z</time>
      </trkpt>
      <trkpt lat="56.4029" lon="-5.04249">
        <ele>71.13</ele>
        <time>2021-03-20T01:05:30Z</time>
      </trkpt>
      <trkpt lat="56.40264" lon="-5.04277">
        <ele>68.56</ele>
        <time>2021-03-20T01:05:34Z</time>
      </trkpt>
      <trkpt lat="56.40253" lon="-5.04285">
        <ele>67.25</ele>
        <time>2021-03-20T01:05:39Z</time>
      </trkpt>
      <trkpt lat="56.40216" lon="-5.04301">
        <ele>62.02</ele>
        <time>2021-03-20T01:05:43Z</time>
      </trkpt>
      <trkpt lat="56.40197" lon="-5.04318">
        <ele>60.73</ele>
        <time>2021-03-20T01:05:48Z</time>
      </trkpt>
      <trkpt lat="56.40182" lon="-5.04337">
        <ele>59.35</ele>
        <time>2021-03-20T01:05:52Z</time>
      </trkpt>
      <trkpt lat="56.40172" lon="-5.04355">
        <ele>58.7</ele>
        <time>2021-03-20T01:05:56Z</time>
      </trkpt>
      <trkpt lat="56.40155" lon="-5.04395">
        <ele>56.41</ele>
        <time>2021-03-20T01:06:01Z</time>
      </trkpt>
      <trkpt lat="56.40132" lon="-5.04433">
        <ele>54.46</ele>
        <time>2021-03-20T01:06:05Z</time>
      </trkpt>
      <trkpt lat="56.40082" lon="-5.04471">
        <ele>49.76</ele>
        <time>2021-03-20T01:06:09Z</time>
      </trkpt>
      <trkpt lat="56.4007" lon="-5.04488">
        <ele>49.16</ele>
        <time>2021-03-20T01:06:14Z</time>
      </trkpt>
      <trkpt lat="56.40036" lon="-5.04554">
        <ele>49.72</ele>
        <time>2021-03-20T01:06:18Z</time>
      </trkpt>
      <trkpt lat="56.39995" lon="-5.04612">
        <ele>51.31</ele>
        <time>2021-03-20T01:06:23Z</time>
      </trkpt>
      <trkpt lat="56.39967" lon="-5.0465">
        <ele>48.68</ele>
        <time>2021-03-20T01:06:27Z</time>
      </trkpt>
      <trkpt lat="56.39946" lon="-5.04699">
        <ele>47.69</ele>
        <time>2021-03-20T01:06:31Z</time>
      </trkpt>
      <trkpt lat="56.39911" lon="-5.04803">
        <ele>49.79</ele>
        <time>2021-03-20T01:06:36Z</time>
      </trkpt>
      <trkpt lat="56.39892" lon="-5.04847">
        <ele>51.99</ele>
        <time>2021-03-20T01:06:40Z</time>
      </trkpt>
      <trkpt lat="56.39836" lon="-5.04925">
        <ele>49.27</ele>
        <time>2021-03-20T01:06:45Z</time>
      </trkpt>
      <trkpt lat="56.39774" lon="-5.05024">
        <ele>51.92</ele>
        <time>2021-03-20T01:06:49Z</time>
      </trkpt>
      <trkpt lat="56.39719" lon="-5.05096">
        <ele>51.72</ele>
        <time>2021-03-20T01:06:53Z</time>
      </trkpt>
      <trkpt lat="56.39689" lon="-5.05143">
        <ele>47.58</ele>
        <time>2021-03-20T01:06:58Z</time>
      </trkpt>
      <trkpt lat="56.3966" lon="-5.05202">
        <ele>49.02</ele>
        <time>2021-03-20T01:07:02Z</time>
      </trkpt>
      <trkpt lat="56.3964" lon="-5.05233">
        <ele>49.42</ele>
        <time>2021-03-20T01:07:07Z</time>
      </trkpt>
      <trkpt lat="56.39629" lon="-5.05258">
        <ele>50.7</ele>
        <time>2021-03-20T01:07:11Z</time>
      </trkpt>
      <trkpt lat="56.39608" lon="-5.05325">
        <ele>54.07</ele>
        <time>2021-03-20T01:07:15Z</time>
      </trkpt>
      <trkpt lat="56.39591" lon="-5.05387">
        <ele>60.51</ele>
        <time>2021-03-20T01:07:20Z</time>
      </trkpt>
      <trkpt lat="56.39551" lon="-5.05486">
        <ele>65.92</ele>
        <time>2021-03-20T01:07:24Z</time>
      </trkpt>
      <trkpt lat="56.39541" lon="-5.05505">
        <ele>67.02</ele>
        <time>2021-03-20T01:07:29Z</time>
      </trkpt>
      <trkpt lat="56.39506" lon="-5.05555">
        <ele>65.94</ele>
        <time>2021-03-20T01:07:33Z</time>
      </trkpt>
      <trkpt lat="56.39442" lon="-5.05662">
        <ele>69.07</ele>
        <time>2021-03-20T01:07:37Z</time>
      </trkpt>
      <trkpt lat="56.39246" lon="-5.05955">
        <ele>66.46</ele>
        <time>2021-03-20T01:07:42Z</time>
      </trkpt>
      <trkpt lat="56.39205" lon="-5.06036">
        <ele>64.69</ele>
        <time>2021-03-20T01:07:46Z</time>
      </trkpt>
      <trkpt lat="56.38977" lon="-5.06531">
        <ele>55.4</ele>
        <time>2021-03-20T01:07:51Z</time>
      </trkpt>
      <trkpt lat="56.38952" lon="-5.06601">
        <ele>52.86</ele>
        <time>2021-03-20T01:07:55Z</time>
      </trkpt>
      <trkpt lat="56.38922" lon="-5.06716">
        <ele>52.94</ele>
        <time>2021-03-20T01:07:59Z</time>
      </trkpt>
      <trkpt lat="56.38922" lon="-5.06716">
        <ele>52.94</ele>
        <time>2021-03-20T01:07:59Z</time>
      </trkpt>
      <trkpt lat="56.38919" lon="-5.06729">
        <ele>53.65</ele>
        <time>2021-03-20T01:08:04Z</time>
      </trkpt>
      <trkpt lat="56.38909" lon="-5.06757">
        <ele>52.43</ele>
        <time>2021-03-20T01:08:09Z</time>
      </trkpt>
      <trkpt lat="56.389" lon="-5.0677">
        <ele>50.36</ele>
        <time>2021-03-20T01:08:13Z</time>
      </trkpt>
      <trkpt lat="56.38878" lon="-5.06796">
        <ele>45.95</ele>
        <time>2021-03-20T01:08:18Z</time>
      </trkpt>
      <trkpt lat="56.3887" lon="-5.06819">
        <ele>44.63</ele>
        <time>2021-03-20T01:08:22Z</time>
      </trkpt>
      <trkpt lat="56.38857" lon="-5.06931">
        <ele>46.29</ele>
        <time>2021-03-20T01:08:27Z</time>
      </trkpt>
      <trkpt lat="56.38829" lon="-5.07097">
        <ele>47.38</ele>
        <time>2021-03-20T01:08:31Z</time>
      </trkpt>
      <trkpt lat="56.3882" lon="-5.07133">
        <ele>46.96</ele>
        <time>2021-03-20T01:08:36Z</time>
      </trkpt>
      <trkpt lat="56.38801" lon="-5.07184">
        <ele>44.8</ele>
        <time>2021-03-20T01:08:41Z</time>
      </trkpt>
      <trkpt lat="56.38794" lon="-5.0721">
        <ele>45.25</ele>
        <time>2021-03-20T01:08:45Z</time>
      </trkpt>
      <trkpt lat="56.38782" lon="-5.07267">
        <ele>44.64</ele>
        <time>2021-03-20T01:08:50Z</time>
      </trkpt>
      <trkpt lat="56.38703" lon="-5.07719">
        <ele>48.22</ele>
        <time>2021-03-20T01:08:54Z</time>
      </trkpt>
      <trkpt lat="56.38695" lon="-5.07777">
        <ele>47.27</ele>
        <time>2021-03-20T01:08:59Z</time>
      </trkpt>
      <trkpt lat="56.38681" lon="-5.07917">
        <ele>54.48</ele>
        <time>2021-03-20T01:09:03Z</time>
      </trkpt>
      <trkpt lat="56.38678" lon="-5.08006">
        <ele>51.32</ele>
        <time>2021-03-20T01:09:08Z</time>
      </trkpt>
      <trkpt lat="56.38685" lon="-5.08554">
        <ele>48.02</ele>
        <time>2021-03-20T01:09:13Z</time>
      </trkpt>
      <trkpt lat="56.3869" lon="-5.08637">
        <ele>47.64</ele>
        <time>2021-03-20T01:09:17Z</time>
      </trkpt>
      <trkpt lat="56.38703" lon="-5.08741">
        <ele>47.24</ele>
        <time>2021-03-20T01:09:22Z</time>
      </trkpt>
      <trkpt lat="56.38713" lon="-5.08791">
        <ele>47.52</ele>
        <time>2021-03-20T01:09:26Z</time>
      </trkpt>
      <trkpt lat="56.38722" lon="-5.0883">
        <ele>47.1</ele>
        <time>2021-03-20T01:09:31Z</time>
      </trkpt>
      <trkpt lat="56.38746" lon="-5.0892">
        <ele>47.03</ele>
        <time>2021-03-20T01:09:35Z</time>
      </trkpt>
      <trkpt lat="56.38765" lon="-5.08981">
        <ele>50.67</ele>
        <time>2021-03-20T01:09:40Z</time>
      </trkpt>
      <trkpt lat="56.38799" lon="-5.09081">
        <ele>52.86</ele>
        <time>2021-03-20T01:09:44Z</time>
      </trkpt>
      <trkpt lat="56.38841" lon="-5.09191">
        <ele>53.42</ele>
        <time>2021-03-20T01:09:49Z</time>
      </trkpt>
      <trkpt lat="56.38864" lon="-5.09255">
        <ele>54.65</ele>
        <time>2021-03-20T01:09:54Z</time>
      </trkpt>
      <trkpt lat="56.38891" lon="-5.09351">
        <ele>58.68</ele>
        <time>2021-03-20T01:09:58Z</time>
      </trkpt>
      <trkpt lat="56.38912" lon="-5.09417">
        <ele>51.08</ele>
        <time>2021-03-20T01:10:03Z</time>
      </trkpt>
      <trkpt lat="56.39008" lon="-5.09673">
        <ele>54.62</ele>
        <time>2021-03-20T01:10:07Z</time>
      </trkpt>
      <trkpt lat="56.39033" lon="-5.09748">
        <ele>53.37</ele>
        <time>2021-03-20T01:10:12Z</time>
      </trkpt>
      <trkpt lat="56.39055" lon="-5.09878">
        <ele>52.45</ele>
        <time>2021-03-20T01:10:16Z</time>
      </trkpt>
      <trkpt lat="56.39081" lon="-5.0998">
        <ele>56.12</ele>
        <time>2021-03-20T01:10:21Z</time>
      </trkpt>
      <trkpt lat="56.39097" lon="-5.10072">
        <ele>55.81</ele>
        <time>2021-03-20T01:10:26Z</time>
      </trkpt>
      <trkpt lat="56.39112" lon="-5.1028">
        <ele>47.48</ele>
        <time>2021-03-20T01:10:30Z</time>
      </trkpt>
      <trkpt lat="56.39139" lon="-5.10466">
        <ele>48.94</ele>
        <time>2021-03-20T01:10:35Z</time>
      </trkpt>
      <trkpt lat="56.3916" lon="-5.10579">
        <ele>49.08</ele>
        <time>2021-03-20T01:10:39Z</time>
      </trkpt>
      <trkpt lat="56.39243" lon="-5.10792">
        <ele>54.3</ele>
        <time>2021-03-20T01:10:44Z</time>
      </trkpt>
      <trkpt lat="56.39298" lon="-5.10983">
        <ele>53.77</ele>
        <time>2021-03-20T01:10:48Z</time>
      </trkpt>
      <trkpt lat="56.39362" lon="-5.11185">
        <ele>49.21</ele>
        <time>2021-03-20T01:10:53Z</time>
      </trkpt>
      <trkpt lat="56.39426" lon="-5.1146">
        <ele>47.08</ele>
        <time>2021-03-20T01:10:58Z</time>
      </trkpt>
      <trkpt lat="56.39455" lon="-5.11575">
        <ele>42.48</ele>
        <time>2021-03-20T01:11:02Z</time>
      </trkpt>
      <trkpt lat="56.39469" lon="-5.11624">
        <ele>44.06</ele>
        <time>2021-03-20T01:11:07Z</time>
      </trkpt>
      <trkpt lat="56.39516" lon="-5.11744">
        <ele>45.62</ele>
        <time>2021-03-20T01:11:11Z</time>
      </trkpt>
      <trkpt lat="56.39527" lon="-5.11788">
        <ele>46.87</ele>
        <time>2021-03-20T01:11:16Z</time>
      </trkpt>
      <trkpt lat="56.39533" lon="-5.11825">
        <ele>49.06</ele>
        <time>2021-03-20T01:11:20Z</time>
      </trkpt>
      <trkpt lat="56.39546" lon="-5.11984">
        <ele>57.43</ele>
        <time>2021-03-20T01:11:25Z</time>
      </trkpt>
      <trkpt lat="56.39551" lon="-5.1215">
        <ele>51.52</ele>
        <time>2021-03-20T01:11:29Z</time>
      </trkpt>
      <trkpt lat="56.3956" lon="-5.1222">
        <ele>64.94</ele>
        <time>2021-03-20T01:11:34Z</time>
      </trkpt>
      <trkpt lat="56.39597" lon="-5.12414">
        <ele>57.89</ele>
        <time>2021-03-20T01:11:39Z</time>
      </trkpt>
      <trkpt lat="56.3963" lon="-5.12566">
        <ele>49.26</ele>
        <time>2021-03-20T01:11:43Z</time>
      </trkpt>
      <trkpt lat="56.39678" lon="-5.12735">
        <ele>47.39</ele>
        <time>2021-03-20T01:11:48Z</time>
      </trkpt>
      <trkpt lat="56.3972" lon="-5.12853">
        <ele>49.01</ele>
        <time>2021-03-20T01:11:52Z</time>
      </trkpt>
      <trkpt lat="56.39772" lon="-5.1299">
        <ele>55.44</ele>
        <time>2021-03-20T01:11:57Z</time>
      </trkpt>
      <trkpt lat="56.39838" lon="-5.1323">
        <ele>57.83</ele>
        <time>2021-03-20T01:12:01Z</time>
      </trkpt>
      <trkpt lat="56.39849" lon="-5.13309">
        <ele>62.11</ele>
        <time>2021-03-20T01:12:06Z</time>
      </trkpt>
      <trkpt lat="56.39855" lon="-5.13504">
        <ele>50.6</ele>
        <time>2021-03-20T01:12:11Z</time>
      </trkpt>
      <trkpt lat="56.39874" lon="-5.13642">
        <ele>46.43</ele>
        <time>2021-03-20T01:12:15Z</time>
      </trkpt>
      <trkpt lat="56.39879" lon="-5.13799">
        <ele>41.68</ele>
        <time>2021-03-20T01:12:20Z</time>
      </trkpt>
      <trkpt lat="56.39895" lon="-5.13885">
        <ele>39.57</ele>
        <time>2021-03-20T01:12:24Z</time>
      </trkpt>
      <trkpt lat="56.39947" lon="-5.14058">
        <ele>44.7</ele>
        <time>2021-03-20T01:12:29Z</time>
      </trkpt>
      <trkpt lat="56.39957" lon="-5.14109">
        <ele>45.96</ele>
        <time>2021-03-20T01:12:33Z</time>
      </trkpt>
      <trkpt lat="56.39997" lon="-5.14432">
        <ele>40.63</ele>
        <time>2021-03-20T01:12:38Z</time>
      </trkpt>
      <trkpt lat="56.40004" lon="-5.14464">
        <ele>42.83</ele>
        <time>2021-03-20T01:12:43Z</time>
      </trkpt>
      <trkpt lat="56.40034" lon="-5.14567">
        <ele>45.03</ele>
        <time>2021-03-20T01:12:47Z</time>
      </trkpt>
      <trkpt lat="56.40069" lon="-5.14721">
        <ele>44.41</ele>
        <time>2021-03-20T01:12:52Z</time>
      </trkpt>
      <trkpt lat="56.40083" lon="-5.14774">
        <ele>44.13</ele>
        <time>2021-03-20T01:12:56Z</time>
      </trkpt>
      <trkpt lat="56.40134" lon="-5.14903">
        <ele>42.85</ele>
        <time>2021-03-20T01:13:01Z</time>
      </trkpt>
      <trkpt lat="56.40151" lon="-5.14955">
        <ele>41.54</ele>
        <time>2021-03-20T01:13:05Z</time>
      </trkpt>
      <trkpt lat="56.40163" lon="-5.15011">
        <ele>42.09</ele>
        <time>2021-03-20T01:13:10Z</time>
      </trkpt>
      <trkpt lat="56.40182" lon="-5.15121">
        <ele>41.44</ele>
        <time>2021-03-20T01:13:14Z</time>
      </trkpt>
      <trkpt lat="56.4028" lon="-5.15392">
        <ele>45.08</ele>
        <time>2021-03-20T01:13:19Z</time>
      </trkpt>
      <trkpt lat="56.40367" lon="-5.15571">
        <ele>43.91</ele>
        <time>2021-03-20T01:13:24Z</time>
      </trkpt>
      <trkpt lat="56.40409" lon="-5.15661">
        <ele>45.65</ele>
        <time>2021-03-20T01:13:28Z</time>
      </trkpt>
      <trkpt lat="56.40458" lon="-5.15781">
        <ele>44.88</ele>
        <time>2021-03-20T01:13:33Z</time>
      </trkpt>
      <trkpt lat="56.40503" lon="-5.15935">
        <ele>45.6</ele>
        <time>2021-03-20T01:13:37Z</time>
      </trkpt>
      <trkpt lat="56.40689" lon="-5.16277">
        <ele>43.33</ele>
        <time>2021-03-20T01:13:42Z</time>
      </trkpt>
      <trkpt lat="56.40843" lon="-5.16584">
        <ele>42.99</ele>
        <time>2021-03-20T01:13:46Z</time>
      </trkpt>
      <trkpt lat="56.40887" lon="-5.1667">
        <ele>44.36</ele>
        <time>2021-03-20T01:13:51Z</time>
      </trkpt>
      <trkpt lat="56.41121" lon="-5.17075">
        <ele>40.32</ele>
        <time>2021-03-20T01:13:56Z</time>
      </trkpt>
      <trkpt lat="56.41237" lon="-5.17252">
        <ele>40.87</ele>
        <time>2021-03-20T01:14:00Z</time>
      </trkpt>
      <trkpt lat="56.41273" lon="-5.17312">
        <ele>43.02</ele>
        <time>2021-03-20T01:14:05Z</time>
      </trkpt>
      <trkpt lat="56.41305" lon="-5.17415">
        <ele>39.04</ele>
        <time>2021-03-20T01:14:09Z</time>
      </trkpt>
      <trkpt lat="56.41331" lon="-5.1757">
        <ele>37.55</ele>
        <time>2021-03-20T01:14:14Z</time>
      </trkpt>
      <trkpt lat="56.41447" lon="-5.17931">
        <ele>44.23</ele>
        <time>2021-03-20T01:14:18Z</time>
      </trkpt>
      <trkpt lat="56.41549" lon="-5.18174">
        <ele>43.43</ele>
        <time>2021-03-20T01:14:23Z</time>
      </trkpt>
      <trkpt lat="56.41611" lon="-5.18434">
        <ele>44.96</ele>
        <time>2021-03-20T01:14:28Z</time>
      </trkpt>
      <trkpt lat="56.41691" lon="-5.18686">
        <ele>33.59</ele>
        <time>2021-03-20T01:14:32Z</time>
      </trkpt>
      <trkpt lat="56.41776" lon="-5.18938">
        <ele>27.95</ele>
        <time>2021-03-20T01:14:37Z</time>
      </trkpt>
      <trkpt lat="56.41833" lon="-5.19086">
        <ele>26.88</ele>
        <time>2021-03-20T01:14:41Z</time>
      </trkpt>
      <trkpt lat="56.4185" lon="-5.19123">
        <ele>26.5</ele>
        <time>2021-03-20T01:14:46Z</time>
      </trkpt>
      <trkpt lat="56.41865" lon="-5.19148">
        <ele>26</ele>
        <time>2021-03-20T01:14:50Z</time>
      </trkpt>
      <trkpt lat="56.41932" lon="-5.19218">
        <ele>25.07</ele>
        <time>2021-03-20T01:14:55Z</time>
      </trkpt>
      <trkpt lat="56.41949" lon="-5.19244">
        <ele>24.4</ele>
        <time>2021-03-20T01:14:59Z</time>
      </trkpt>
      <trkpt lat="56.41962" lon="-5.19268">
        <ele>24.62</ele>
        <time>2021-03-20T01:15:04Z</time>
      </trkpt>
      <trkpt lat="56.41983" lon="-5.19329">
        <ele>24.39</ele>
        <time>2021-03-20T01:15:09Z</time>
      </trkpt>
      <trkpt lat="56.41994" lon="-5.19383">
        <ele>22.21</ele>
        <time>2021-03-20T01:15:13Z</time>
      </trkpt>
      <trkpt lat="56.42013" lon="-5.1952">
        <ele>28.72</ele>
        <time>2021-03-20T01:15:18Z</time>
      </trkpt>
      <trkpt lat="56.42023" lon="-5.19562">
        <ele>31.79</ele>
        <time>2021-03-20T01:15:22Z</time>
      </trkpt>
      <trkpt lat="56.42036" lon="-5.19606">
        <ele>33.54</ele>
        <time>2021-03-20T01:15:27Z</time>
      </trkpt>
      <trkpt lat="56.42097" lon="-5.19749">
        <ele>39.43</ele>
        <time>2021-03-20T01:15:31Z</time>
      </trkpt>
      <trkpt lat="56.42115" lon="-5.19826">
        <ele>40.72</ele>
        <time>2021-03-20T01:15:36Z</time>
      </trkpt>
      <trkpt lat="56.42132" lon="-5.19928">
        <ele>43.6</ele>
        <time>2021-03-20T01:15:41Z</time>
      </trkpt>
      <trkpt lat="56.42148" lon="-5.20015">
        <ele>43.9</ele>
        <time>2021-03-20T01:15:45Z</time>
      </trkpt>
      <trkpt lat="56.42167" lon="-5.20096">
        <ele>44.86</ele>
        <time>2021-03-20T01:15:50Z</time>
      </trkpt>
      <trkpt lat="56.42211" lon="-5.2017">
        <ele>47.72</ele>
        <time>2021-03-20T01:15:54Z</time>
      </trkpt>
      <trkpt lat="56.42259" lon="-5.20215">
        <ele>50.03</ele>
        <time>2021-03-20T01:15:59Z</time>
      </trkpt>
      <trkpt lat="56.4232" lon="-5.20242">
        <ele>46.56</ele>
        <time>2021-03-20T01:16:03Z</time>
      </trkpt>
      <trkpt lat="56.42365" lon="-5.20301">
        <ele>48.2</ele>
        <time>2021-03-20T01:16:08Z</time>
      </trkpt>
      <trkpt lat="56.42507" lon="-5.20521">
        <ele>47.83</ele>
        <time>2021-03-20T01:16:13Z</time>
      </trkpt>
      <trkpt lat="56.42589" lon="-5.20694">
        <ele>52.46</ele>
        <time>2021-03-20T01:16:17Z</time>
      </trkpt>
      <trkpt lat="56.42613" lon="-5.20735">
        <ele>51.06</ele>
        <time>2021-03-20T01:16:22Z</time>
      </trkpt>
      <trkpt lat="56.42632" lon="-5.20762">
        <ele>50.49</ele>
        <time>2021-03-20T01:16:26Z</time>
      </trkpt>
      <trkpt lat="56.42665" lon="-5.20799">
        <ele>48.4</ele>
        <time>2021-03-20T01:16:31Z</time>
      </trkpt>
      <trkpt lat="56.427" lon="-5.20824">
        <ele>45.76</ele>
        <time>2021-03-20T01:16:35Z</time>
      </trkpt>
      <trkpt lat="56.42868" lon="-5.20904">
        <ele>33.49</ele>
        <time>2021-03-20T01:16:40Z</time>
      </trkpt>
      <trkpt lat="56.42925" lon="-5.20959">
        <ele>29.51</ele>
        <time>2021-03-20T01:16:44Z</time>
      </trkpt>
      <trkpt lat="56.4298" lon="-5.21051">
        <ele>28.94</ele>
        <time>2021-03-20T01:16:49Z</time>
      </trkpt>
      <trkpt lat="56.43025" lon="-5.21167">
        <ele>24.74</ele>
        <time>2021-03-20T01:16:54Z</time>
      </trkpt>
      <trkpt lat="56.43182" lon="-5.21684">
        <ele>24.61</ele>
        <time>2021-03-20T01:16:58Z</time>
      </trkpt>
      <trkpt lat="56.43198" lon="-5.2175">
        <ele>27.65</ele>
        <time>2021-03-20T01:17:03Z</time>
      </trkpt>
      <trkpt lat="56.43198" lon="-5.21819">
        <ele>29.74</ele>
        <time>2021-03-20T01:17:07Z</time>
      </trkpt>
      <trkpt lat="56.43194" lon="-5.21862">
        <ele>28.98</ele>
        <time>2021-03-20T01:17:12Z</time>
      </trkpt>
      <trkpt lat="56.43184" lon="-5.21899">
        <ele>27.63</ele>
        <time>2021-03-20T01:17:16Z</time>
      </trkpt>
      <trkpt lat="56.43129" lon="-5.22076">
        <ele>25.94</ele>
        <time>2021-03-20T01:17:21Z</time>
      </trkpt>
      <trkpt lat="56.43072" lon="-5.22205">
        <ele>22.39</ele>
        <time>2021-03-20T01:17:26Z</time>
      </trkpt>
      <trkpt lat="56.42976" lon="-5.22294">
        <ele>21.72</ele>
        <time>2021-03-20T01:17:30Z</time>
      </trkpt>
      <trkpt lat="56.42868" lon="-5.22375">
        <ele>21.06</ele>
        <time>2021-03-20T01:17:35Z</time>
      </trkpt>
      <trkpt lat="56.42772" lon="-5.22514">
        <ele>21.62</ele>
        <time>2021-03-20T01:17:39Z</time>
      </trkpt>
      <trkpt lat="56.42693" lon="-5.22635">
        <ele>21.6</ele>
        <time>2021-03-20T01:17:44Z</time>
      </trkpt>
      <trkpt lat="56.42647" lon="-5.22712">
        <ele>20.84</ele>
        <time>2021-03-20T01:17:48Z</time>
      </trkpt>
      <trkpt lat="56.42629" lon="-5.22755">
        <ele>20.59</ele>
        <time>2021-03-20T01:17:53Z</time>
      </trkpt>
      <trkpt lat="56.42618" lon="-5.22793">
        <ele>20.65</ele>
        <time>2021-03-20T01:17:58Z</time>
      </trkpt>
      <trkpt lat="56.42615" lon="-5.22813">
        <ele>20.37</ele>
        <time>2021-03-20T01:18:02Z</time>
      </trkpt>
      <trkpt lat="56.42611" lon="-5.22875">
        <ele>20</ele>
        <time>2021-03-20T01:18:07Z</time>
      </trkpt>
      <trkpt lat="56.42613" lon="-5.22941">
        <ele>19.15</ele>
        <time>2021-03-20T01:18:11Z</time>
      </trkpt>
      <trkpt lat="56.42629" lon="-5.23077">
        <ele>20.69</ele>
        <time>2021-03-20T01:18:16Z</time>
      </trkpt>
      <trkpt lat="56.42648" lon="-5.23201">
        <ele>20.07</ele>
        <time>2021-03-20T01:18:20Z</time>
      </trkpt>
      <trkpt lat="56.4265" lon="-5.23218">
        <ele>19.58</ele>
        <time>2021-03-20T01:18:25Z</time>
      </trkpt>
      <trkpt lat="56.42665" lon="-5.23273">
        <ele>19.36</ele>
        <time>2021-03-20T01:18:29Z</time>
      </trkpt>
      <trkpt lat="56.42665" lon="-5.23273">
        <ele>19.36</ele>
        <time>2021-03-20T01:18:29Z</time>
      </trkpt>
      <trkpt lat="56.42677" lon="-5.23315">
        <ele>19.36</ele>
        <time>2021-03-20T01:18:35Z</time>
      </trkpt>
      <trkpt lat="56.42855" lon="-5.23816">
        <ele>24.77</ele>
        <time>2021-03-20T01:18:40Z</time>
      </trkpt>
      <trkpt lat="56.4289" lon="-5.23909">
        <ele>22.29</ele>
        <time>2021-03-20T01:18:46Z</time>
      </trkpt>
      <trkpt lat="56.42948" lon="-5.2405">
        <ele>20.87</ele>
        <time>2021-03-20T01:18:51Z</time>
      </trkpt>
      <trkpt lat="56.42981" lon="-5.24139">
        <ele>20</ele>
        <time>2021-03-20T01:18:57Z</time>
      </trkpt>
      <trkpt lat="56.43026" lon="-5.24266">
        <ele>20.18</ele>
        <time>2021-03-20T01:19:02Z</time>
      </trkpt>
      <trkpt lat="56.43037" lon="-5.24308">
        <ele>19.35</ele>
        <time>2021-03-20T01:19:08Z</time>
      </trkpt>
      <trkpt lat="56.43052" lon="-5.24425">
        <ele>18.13</ele>
        <time>2021-03-20T01:19:13Z</time>
      </trkpt>
      <trkpt lat="56.4306" lon="-5.24462">
        <ele>18.63</ele>
        <time>2021-03-20T01:19:18Z</time>
      </trkpt>
      <trkpt lat="56.43078" lon="-5.24519">
        <ele>19.68</ele>
        <time>2021-03-20T01:19:24Z</time>
      </trkpt>
      <trkpt lat="56.43115" lon="-5.24603">
        <ele>20</ele>
        <time>2021-03-20T01:19:29Z</time>
      </trkpt>
      <trkpt lat="56.43126" lon="-5.24632">
        <ele>19.59</ele>
        <time>2021-03-20T01:19:35Z</time>
      </trkpt>
      <trkpt lat="56.43147" lon="-5.24698">
        <ele>17.72</ele>
        <time>2021-03-20T01:19:40Z</time>
      </trkpt>
      <trkpt lat="56.43161" lon="-5.24772">
        <ele>15.56</ele>
        <time>2021-03-20T01:19:46Z</time>
      </trkpt>
      <trkpt lat="56.43197" lon="-5.24981">
        <ele>11.9</ele>
        <time>2021-03-20T01:19:51Z</time>
      </trkpt>
      <trkpt lat="56.43275" lon="-5.25202">
        <ele>13.68</ele>
        <time>2021-03-20T01:19:57Z</time>
      </trkpt>
      <trkpt lat="56.43314" lon="-5.25352">
        <ele>13.04</ele>
        <time>2021-03-20T01:20:02Z</time>
      </trkpt>
      <trkpt lat="56.43348" lon="-5.25482">
        <ele>19.46</ele>
        <time>2021-03-20T01:20:07Z</time>
      </trkpt>
      <trkpt lat="56.43374" lon="-5.25545">
        <ele>22.67</ele>
        <time>2021-03-20T01:20:13Z</time>
      </trkpt>
      <trkpt lat="56.43414" lon="-5.25597">
        <ele>22.29</ele>
        <time>2021-03-20T01:20:18Z</time>
      </trkpt>
      <trkpt lat="56.43498" lon="-5.25688">
        <ele>26.82</ele>
        <time>2021-03-20T01:20:24Z</time>
      </trkpt>
      <trkpt lat="56.43585" lon="-5.25828">
        <ele>28.76</ele>
        <time>2021-03-20T01:20:29Z</time>
      </trkpt>
      <trkpt lat="56.43604" lon="-5.25878">
        <ele>30.88</ele>
        <time>2021-03-20T01:20:35Z</time>
      </trkpt>
      <trkpt lat="56.43618" lon="-5.25937">
        <ele>32.73</ele>
        <time>2021-03-20T01:20:40Z</time>
      </trkpt>
      <trkpt lat="56.43678" lon="-5.26471">
        <ele>31.58</ele>
        <time>2021-03-20T01:20:46Z</time>
      </trkpt>
      <trkpt lat="56.43697" lon="-5.26626">
        <ele>35.65</ele>
        <time>2021-03-20T01:20:51Z</time>
      </trkpt>
      <trkpt lat="56.43706" lon="-5.26684">
        <ele>35.37</ele>
        <time>2021-03-20T01:20:56Z</time>
      </trkpt>
      <trkpt lat="56.43727" lon="-5.26779">
        <ele>36.92</ele>
        <time>2021-03-20T01:21:02Z</time>
      </trkpt>
      <trkpt lat="56.43737" lon="-5.26812">
        <ele>37.97</ele>
        <time>2021-03-20T01:21:07Z</time>
      </trkpt>
      <trkpt lat="56.4375" lon="-5.26841">
        <ele>39.24</ele>
        <time>2021-03-20T01:21:13Z</time>
      </trkpt>
      <trkpt lat="56.43768" lon="-5.26867">
        <ele>37.64</ele>
        <time>2021-03-20T01:21:18Z</time>
      </trkpt>
      <trkpt lat="56.43847" lon="-5.26964">
        <ele>35.15</ele>
        <time>2021-03-20T01:21:24Z</time>
      </trkpt>
      <trkpt lat="56.43869" lon="-5.26994">
        <ele>36.54</ele>
        <time>2021-03-20T01:21:29Z</time>
      </trkpt>
      <trkpt lat="56.43877" lon="-5.27018">
        <ele>35.84</ele>
        <time>2021-03-20T01:21:35Z</time>
      </trkpt>
      <trkpt lat="56.43883" lon="-5.27049">
        <ele>34.81</ele>
        <time>2021-03-20T01:21:40Z</time>
      </trkpt>
      <trkpt lat="56.43884" lon="-5.27089">
        <ele>32.42</ele>
        <time>2021-03-20T01:21:46Z</time>
      </trkpt>
      <trkpt lat="56.43873" lon="-5.27203">
        <ele>33.48</ele>
        <time>2021-03-20T01:21:51Z</time>
      </trkpt>
      <trkpt lat="56.43864" lon="-5.27247">
        <ele>35.33</ele>
        <time>2021-03-20T01:21:56Z</time>
      </trkpt>
      <trkpt lat="56.43862" lon="-5.27288">
        <ele>36.58</ele>
        <time>2021-03-20T01:22:02Z</time>
      </trkpt>
      <trkpt lat="56.43865" lon="-5.27322">
        <ele>37.71</ele>
        <time>2021-03-20T01:22:07Z</time>
      </trkpt>
      <trkpt lat="56.43874" lon="-5.27352">
        <ele>40.39</ele>
        <time>2021-03-20T01:22:13Z</time>
      </trkpt>
      <trkpt lat="56.43889" lon="-5.27387">
        <ele>42</ele>
        <time>2021-03-20T01:22:18Z</time>
      </trkpt>
      <trkpt lat="56.439" lon="-5.27402">
        <ele>44.18</ele>
        <time>2021-03-20T01:22:24Z</time>
      </trkpt>
      <trkpt lat="56.4394" lon="-5.27431">
        <ele>46.42</ele>
        <time>2021-03-20T01:22:29Z</time>
      </trkpt>
      <trkpt lat="56.43968" lon="-5.27455">
        <ele>46.1</ele>
        <time>2021-03-20T01:22:35Z</time>
      </trkpt>
      <trkpt lat="56.44018" lon="-5.2751">
        <ele>39.32</ele>
        <time>2021-03-20T01:22:40Z</time>
      </trkpt>
      <trkpt lat="56.44061" lon="-5.27543">
        <ele>30.82</ele>
        <time>2021-03-20T01:22:45Z</time>
      </trkpt>
      <trkpt lat="56.44127" lon="-5.27579">
        <ele>31.11</ele>
        <time>2021-03-20T01:22:51Z</time>
      </trkpt>
      <trkpt lat="56.44147" lon="-5.27595">
        <ele>30.16</ele>
        <time>2021-03-20T01:22:56Z</time>
      </trkpt>
      <trkpt lat="56.44162" lon="-5.27612">
        <ele>28.99</ele>
        <time>2021-03-20T01:23:02Z</time>
      </trkpt>
      <trkpt lat="56.44179" lon="-5.27639">
        <ele>31.81</ele>
        <time>2021-03-20T01:23:07Z</time>
      </trkpt>
      <trkpt lat="56.44195" lon="-5.27681">
        <ele>35.98</ele>
        <time>2021-03-20T01:23:13Z</time>
      </trkpt>
      <trkpt lat="56.44217" lon="-5.27741">
        <ele>35.01</ele>
        <time>2021-03-20T01:23:18Z</time>
      </trkpt>
      <trkpt lat="56.44259" lon="-5.27872">
        <ele>29.61</ele>
        <time>2021-03-20T01:23:24Z</time>
      </trkpt>
      <trkpt lat="56.44274" lon="-5.27965">
        <ele>29.79</ele>
        <time>2021-03-20T01:23:29Z</time>
      </trkpt>
      <trkpt lat="56.44277" lon="-5.2801">
        <ele>30.36</ele>
        <time>2021-03-20T01:23:34Z</time>
      </trkpt>
      <trkpt lat="56.44275" lon="-5.28057">
        <ele>30.94</ele>
        <time>2021-03-20T01:23:40Z</time>
      </trkpt>
      <trkpt lat="56.4427" lon="-5.28099">
        <ele>30</ele>
        <time>2021-03-20T01:23:45Z</time>
      </trkpt>
      <trkpt lat="56.44205" lon="-5.28459">
        <ele>28.51</ele>
        <time>2021-03-20T01:23:51Z</time>
      </trkpt>
      <trkpt lat="56.4419" lon="-5.28503">
        <ele>28.1</ele>
        <time>2021-03-20T01:23:56Z</time>
      </trkpt>
      <trkpt lat="56.44017" lon="-5.2884">
        <ele>23.33</ele>
        <time>2021-03-20T01:24:02Z</time>
      </trkpt>
      <trkpt lat="56.43981" lon="-5.2892">
        <ele>21.93</ele>
        <time>2021-03-20T01:24:07Z</time>
      </trkpt>
      <trkpt lat="56.43969" lon="-5.28999">
        <ele>22.24</ele>
        <time>2021-03-20T01:24:13Z</time>
      </trkpt>
      <trkpt lat="56.4398" lon="-5.2934">
        <ele>22.42</ele>
        <time>2021-03-20T01:24:18Z</time>
      </trkpt>
      <trkpt lat="56.43996" lon="-5.29517">
        <ele>24.67</ele>
        <time>2021-03-20T01:24:23Z</time>
      </trkpt>
      <trkpt lat="56.44167" lon="-5.30466">
        <ele>50.49</ele>
        <time>2021-03-20T01:24:29Z</time>
      </trkpt>
      <trkpt lat="56.4422" lon="-5.30728">
        <ele>45.31</ele>
        <time>2021-03-20T01:24:34Z</time>
      </trkpt>
      <trkpt lat="56.4427" lon="-5.30943">
        <ele>46.05</ele>
        <time>2021-03-20T01:24:40Z</time>
      </trkpt>
      <trkpt lat="56.44318" lon="-5.31136">
        <ele>40.6</ele>
        <time>2021-03-20T01:24:45Z</time>
      </trkpt>
      <trkpt lat="56.44371" lon="-5.3133">
        <ele>37.01</ele>
        <time>2021-03-20T01:24:51Z</time>
      </trkpt>
      <trkpt lat="56.44524" lon="-5.31799">
        <ele>30.69</ele>
        <time>2021-03-20T01:24:56Z</time>
      </trkpt>
      <trkpt lat="56.4469" lon="-5.32067">
        <ele>27.56</ele>
        <time>2021-03-20T01:25:02Z</time>
      </trkpt>
      <trkpt lat="56.44727" lon="-5.32141">
        <ele>27.66</ele>
        <time>2021-03-20T01:25:07Z</time>
      </trkpt>
      <trkpt lat="56.44812" lon="-5.32351">
        <ele>18.32</ele>
        <time>2021-03-20T01:25:12Z</time>
      </trkpt>
      <trkpt lat="56.44829" lon="-5.32398">
        <ele>14.95</ele>
        <time>2021-03-20T01:25:18Z</time>
      </trkpt>
      <trkpt lat="56.44805" lon="-5.32661">
        <ele>7.22</ele>
        <time>2021-03-20T01:25:36Z</time>
      </trkpt>
      <trkpt lat="56.448" lon="-5.32682">
        <ele>8.54</ele>
        <time>2021-03-20T01:25:55Z</time>
      </trkpt>
      <trkpt lat="56.44805" lon="-5.32695">
        <ele>8.04</ele>
        <time>2021-03-20T01:26:04Z</time>
      </trkpt>
      <trkpt lat="56.44821" lon="-5.32715">
        <ele>7.43</ele>
        <time>2021-03-20T01:26:13Z</time>
      </trkpt>
      <trkpt lat="56.44856" lon="-5.32751">
        <ele>7.59</ele>
        <time>2021-03-20T01:26:22Z</time>
      </trkpt>
      <trkpt lat="56.4487" lon="-5.32778">
        <ele>6.75</ele>
        <time>2021-03-20T01:26:31Z</time>
      </trkpt>
      <trkpt lat="56.44895" lon="-5.32846">
        <ele>5.41</ele>
        <time>2021-03-20T01:26:41Z</time>
      </trkpt>
      <trkpt lat="56.44929" lon="-5.32933">
        <ele>4.72</ele>
        <time>2021-03-20T01:26:50Z</time>
      </trkpt>
      <trkpt lat="56.44937" lon="-5.32969">
        <ele>5.4</ele>
        <time>2021-03-20T01:26:59Z</time>
      </trkpt>
      <trkpt lat="56.44953" lon="-5.33055">
        <ele>6.66</ele>
        <time>2021-03-20T01:27:08Z</time>
      </trkpt>
      <trkpt lat="56.44968" lon="-5.33094">
        <ele>7.15</ele>
        <time>2021-03-20T01:27:17Z</time>
      </trkpt>
      <trkpt lat="56.4497" lon="-5.33107">
        <ele>7.07</ele>
        <time>2021-03-20T01:27:26Z</time>
      </trkpt>
      <trkpt lat="56.4497" lon="-5.33107">
        <ele>7.07</ele>
        <time>2021-03-20T01:27:26Z</time>
      </trkpt>
      <trkpt lat="56.44968" lon="-5.33094">
        <ele>7.15</ele>
        <time>2021-03-20T01:27:36Z</time>
      </trkpt>
      <trkpt lat="56.44953" lon="-5.33055">
        <ele>6.66</ele>
        <time>2021-03-20T01:27:45Z</time>
      </trkpt>
      <trkpt lat="56.44937" lon="-5.32969">
        <ele>5.4</ele>
        <time>2021-03-20T01:27:54Z</time>
      </trkpt>
      <trkpt lat="56.44929" lon="-5.32933">
        <ele>4.72</ele>
        <time>2021-03-20T01:28:03Z</time>
      </trkpt>
      <trkpt lat="56.44895" lon="-5.32846">
        <ele>5.41</ele>
        <time>2021-03-20T01:28:12Z</time>
      </trkpt>
      <trkpt lat="56.4487" lon="-5.32778">
        <ele>6.75</ele>
        <time>2021-03-20T01:28:21Z</time>
      </trkpt>
      <trkpt lat="56.44856" lon="-5.32751">
        <ele>7.59</ele>
        <time>2021-03-20T01:28:31Z</time>
      </trkpt>
      <trkpt lat="56.44821" lon="-5.32715">
        <ele>7.43</ele>
        <time>2021-03-20T01:28:40Z</time>
      </trkpt>
      <trkpt lat="56.44805" lon="-5.32695">
        <ele>8.04</ele>
        <time>2021-03-20T01:28:49Z</time>
      </trkpt>
      <trkpt lat="56.448" lon="-5.32682">
        <ele>8.54</ele>
        <time>2021-03-20T01:28:58Z</time>
      </trkpt>
      <trkpt lat="56.44805" lon="-5.32661">
        <ele>7.22</ele>
        <time>2021-03-20T01:29:17Z</time>
      </trkpt>
      <trkpt lat="56.44829" lon="-5.32398">
        <ele>14.95</ele>
        <time>2021-03-20T01:29:35Z</time>
      </trkpt>
      <trkpt lat="56.44841" lon="-5.32428">
        <ele>11.81</ele>
        <time>2021-03-20T01:29:39Z</time>
      </trkpt>
      <trkpt lat="56.44966" lon="-5.32772">
        <ele>3.79</ele>
        <time>2021-03-20T01:29:44Z</time>
      </trkpt>
      <trkpt lat="56.4498" lon="-5.32822">
        <ele>3</ele>
        <time>2021-03-20T01:29:48Z</time>
      </trkpt>
      <trkpt lat="56.44997" lon="-5.32895">
        <ele>0.79</ele>
        <time>2021-03-20T01:29:53Z</time>
      </trkpt>
      <trkpt lat="56.45015" lon="-5.32964">
        <ele>0.86</ele>
        <time>2021-03-20T01:29:57Z</time>
      </trkpt>
      <trkpt lat="56.45031" lon="-5.33007">
        <ele>1</ele>
        <time>2021-03-20T01:30:02Z</time>
      </trkpt>
      <trkpt lat="56.45052" lon="-5.3305">
        <ele>1</ele>
        <time>2021-03-20T01:30:06Z</time>
      </trkpt>
      <trkpt lat="56.45075" lon="-5.33083">
        <ele>3.68</ele>
        <time>2021-03-20T01:30:11Z</time>
      </trkpt>
      <trkpt lat="56.45183" lon="-5.33169">
        <ele>3.56</ele>
        <time>2021-03-20T01:30:15Z</time>
      </trkpt>
      <trkpt lat="56.45212" lon="-5.33199">
        <ele>5.35</ele>
        <time>2021-03-20T01:30:20Z</time>
      </trkpt>
      <trkpt lat="56.4524" lon="-5.33254">
        <ele>6.69</ele>
        <time>2021-03-20T01:30:24Z</time>
      </trkpt>
      <trkpt lat="56.45252" lon="-5.33306">
        <ele>6.74</ele>
        <time>2021-03-20T01:30:28Z</time>
      </trkpt>
      <trkpt lat="56.45259" lon="-5.33384">
        <ele>7.08</ele>
        <time>2021-03-20T01:30:33Z</time>
      </trkpt>
      <trkpt lat="56.45254" lon="-5.33444">
        <ele>4.7</ele>
        <time>2021-03-20T01:30:37Z</time>
      </trkpt>
      <trkpt lat="56.45218" lon="-5.3357">
        <ele>10.95</ele>
        <time>2021-03-20T01:30:42Z</time>
      </trkpt>
      <trkpt lat="56.45205" lon="-5.33652">
        <ele>15.08</ele>
        <time>2021-03-20T01:30:46Z</time>
      </trkpt>
      <trkpt lat="56.45202" lon="-5.33771">
        <ele>12.67</ele>
        <time>2021-03-20T01:30:51Z</time>
      </trkpt>
      <trkpt lat="56.45209" lon="-5.33832">
        <ele>11.42</ele>
        <time>2021-03-20T01:30:55Z</time>
      </trkpt>
      <trkpt lat="56.45222" lon="-5.3388">
        <ele>10.61</ele>
        <time>2021-03-20T01:31:00Z</time>
      </trkpt>
      <trkpt lat="56.45252" lon="-5.33918">
        <ele>9.85</ele>
        <time>2021-03-20T01:31:04Z</time>
      </trkpt>
      <trkpt lat="56.45293" lon="-5.33942">
        <ele>6.22</ele>
        <time>2021-03-20T01:31:09Z</time>
      </trkpt>
      <trkpt lat="56.45448" lon="-5.3397">
        <ele>1.8</ele>
        <time>2021-03-20T01:31:13Z</time>
      </trkpt>
      <trkpt lat="56.45511" lon="-5.33997">
        <ele>1</ele>
        <time>2021-03-20T01:31:18Z</time>
      </trkpt>
      <trkpt lat="56.45558" lon="-5.34038">
        <ele>5.62</ele>
        <time>2021-03-20T01:31:22Z</time>
      </trkpt>
      <trkpt lat="56.45612" lon="-5.34118">
        <ele>8.59</ele>
        <time>2021-03-20T01:31:26Z</time>
      </trkpt>
      <trkpt lat="56.45735" lon="-5.34366">
        <ele>15.28</ele>
        <time>2021-03-20T01:31:31Z</time>
      </trkpt>
      <trkpt lat="56.45774" lon="-5.34546">
        <ele>9.18</ele>
        <time>2021-03-20T01:31:35Z</time>
      </trkpt>
      <trkpt lat="56.458" lon="-5.34648">
        <ele>5.44</ele>
        <time>2021-03-20T01:31:40Z</time>
      </trkpt>
      <trkpt lat="56.45848" lon="-5.34744">
        <ele>8.54</ele>
        <time>2021-03-20T01:31:44Z</time>
      </trkpt>
      <trkpt lat="56.45905" lon="-5.34806">
        <ele>6.44</ele>
        <time>2021-03-20T01:31:49Z</time>
      </trkpt>
      <trkpt lat="56.4593" lon="-5.34867">
        <ele>8.4</ele>
        <time>2021-03-20T01:31:53Z</time>
      </trkpt>
      <trkpt lat="56.45939" lon="-5.34942">
        <ele>9.43</ele>
        <time>2021-03-20T01:31:58Z</time>
      </trkpt>
      <trkpt lat="56.45941" lon="-5.3499">
        <ele>7.34</ele>
        <time>2021-03-20T01:32:02Z</time>
      </trkpt>
      <trkpt lat="56.45932" lon="-5.35049">
        <ele>8.42</ele>
        <time>2021-03-20T01:32:07Z</time>
      </trkpt>
      <trkpt lat="56.45816" lon="-5.35396">
        <ele>12.08</ele>
        <time>2021-03-20T01:32:11Z</time>
      </trkpt>
      <trkpt lat="56.45707" lon="-5.35629">
        <ele>11.02</ele>
        <time>2021-03-20T01:32:16Z</time>
      </trkpt>
      <trkpt lat="56.45606" lon="-5.35914">
        <ele>9.3</ele>
        <time>2021-03-20T01:32:20Z</time>
      </trkpt>
      <trkpt lat="56.45587" lon="-5.35996">
        <ele>10.54</ele>
        <time>2021-03-20T01:32:24Z</time>
      </trkpt>
      <trkpt lat="56.45575" lon="-5.36149">
        <ele>5.39</ele>
        <time>2021-03-20T01:32:29Z</time>
      </trkpt>
      <trkpt lat="56.45547" lon="-5.36281">
        <ele>5.51</ele>
        <time>2021-03-20T01:32:33Z</time>
      </trkpt>
      <trkpt lat="56.45456" lon="-5.36499">
        <ele>8.27</ele>
        <time>2021-03-20T01:32:38Z</time>
      </trkpt>
      <trkpt lat="56.45439" lon="-5.36553">
        <ele>8.17</ele>
        <time>2021-03-20T01:32:42Z</time>
      </trkpt>
      <trkpt lat="56.45429" lon="-5.36631">
        <ele>10.02</ele>
        <time>2021-03-20T01:32:47Z</time>
      </trkpt>
      <trkpt lat="56.45445" lon="-5.36842">
        <ele>9.69</ele>
        <time>2021-03-20T01:32:51Z</time>
      </trkpt>
      <trkpt lat="56.45462" lon="-5.36938">
        <ele>8.23</ele>
        <time>2021-03-20T01:32:56Z</time>
      </trkpt>
      <trkpt lat="56.45473" lon="-5.3703">
        <ele>15.01</ele>
        <time>2021-03-20T01:33:00Z</time>
      </trkpt>
      <trkpt lat="56.45475" lon="-5.37109">
        <ele>13.27</ele>
        <time>2021-03-20T01:33:05Z</time>
      </trkpt>
      <trkpt lat="56.45467" lon="-5.37192">
        <ele>9.69</ele>
        <time>2021-03-20T01:33:09Z</time>
      </trkpt>
      <trkpt lat="56.45439" lon="-5.37341">
        <ele>8.1</ele>
        <time>2021-03-20T01:33:13Z</time>
      </trkpt>
      <trkpt lat="56.45401" lon="-5.37459">
        <ele>7.42</ele>
        <time>2021-03-20T01:33:18Z</time>
      </trkpt>
      <trkpt lat="56.45393" lon="-5.37493">
        <ele>7.7</ele>
        <time>2021-03-20T01:33:22Z</time>
      </trkpt>
      <trkpt lat="56.45387" lon="-5.37538">
        <ele>9.06</ele>
        <time>2021-03-20T01:33:27Z</time>
      </trkpt>
      <trkpt lat="56.45383" lon="-5.37647">
        <ele>5.59</ele>
        <time>2021-03-20T01:33:31Z</time>
      </trkpt>
      <trkpt lat="56.4538" lon="-5.37783">
        <ele>3.12</ele>
        <time>2021-03-20T01:33:36Z</time>
      </trkpt>
      <trkpt lat="56.45381" lon="-5.3787">
        <ele>3.81</ele>
        <time>2021-03-20T01:33:40Z</time>
      </trkpt>
      <trkpt lat="56.45362" lon="-5.38135">
        <ele>12.78</ele>
        <time>2021-03-20T01:33:45Z</time>
      </trkpt>
      <trkpt lat="56.45364" lon="-5.38218">
        <ele>12.67</ele>
        <time>2021-03-20T01:33:49Z</time>
      </trkpt>
      <trkpt lat="56.45359" lon="-5.38222">
        <ele>13.27</ele>
        <time>2021-03-20T01:33:54Z</time>
      </trkpt>
      <trkpt lat="56.45352" lon="-5.38222">
        <ele>13.94</ele>
        <time>2021-03-20T01:33:58Z</time>
      </trkpt>
      <trkpt lat="56.45348" lon="-5.38228">
        <ele>14.26</ele>
        <time>2021-03-20T01:34:03Z</time>
      </trkpt>
      <trkpt lat="56.45282" lon="-5.38492">
        <ele>8.14</ele>
        <time>2021-03-20T01:34:07Z</time>
      </trkpt>
      <trkpt lat="56.45271" lon="-5.38558">
        <ele>8.82</ele>
        <time>2021-03-20T01:34:12Z</time>
      </trkpt>
      <trkpt lat="56.45272" lon="-5.38566">
        <ele>9.15</ele>
        <time>2021-03-20T01:34:17Z</time>
      </trkpt>
      <trkpt lat="56.45291" lon="-5.38589">
        <ele>11.6</ele>
        <time>2021-03-20T01:34:21Z</time>
      </trkpt>
      <trkpt lat="56.45305" lon="-5.38583">
        <ele>11.98</ele>
        <time>2021-03-20T01:34:27Z</time>
      </trkpt>
      <trkpt lat="56.45335" lon="-5.38579">
        <ele>11.3</ele>
        <time>2021-03-20T01:34:32Z</time>
      </trkpt>
      <trkpt lat="56.45382" lon="-5.38576">
        <ele>8.42</ele>
        <time>2021-03-20T01:34:37Z</time>
      </trkpt>
      <trkpt lat="56.45454" lon="-5.38587">
        <ele>4.83</ele>
        <time>2021-03-20T01:34:43Z</time>
      </trkpt>
      <trkpt lat="56.45468" lon="-5.38635">
        <ele>5.58</ele>
        <time>2021-03-20T01:34:48Z</time>
      </trkpt>
      <trkpt lat="56.45473" lon="-5.38673">
        <ele>7.01</ele>
        <time>2021-03-20T01:34:54Z</time>
      </trkpt>
      <trkpt lat="56.45475" lon="-5.38737">
        <ele>7.94</ele>
        <time>2021-03-20T01:34:59Z</time>
      </trkpt>
      <trkpt lat="56.45481" lon="-5.38802">
        <ele>8.64</ele>
        <time>2021-03-20T01:35:04Z</time>
      </trkpt>
      <trkpt lat="56.45508" lon="-5.3895">
        <ele>12.18</ele>
        <time>2021-03-20T01:35:10Z</time>
      </trkpt>
      <trkpt lat="56.4551" lon="-5.39002">
        <ele>11.44</ele>
        <time>2021-03-20T01:35:15Z</time>
      </trkpt>
      <trkpt lat="56.45509" lon="-5.3904">
        <ele>11.17</ele>
        <time>2021-03-20T01:35:20Z</time>
      </trkpt>
      <trkpt lat="56.45487" lon="-5.39196">
        <ele>5.39</ele>
        <time>2021-03-20T01:35:26Z</time>
      </trkpt>
      <trkpt lat="56.45476" lon="-5.39354">
        <ele>3.8</ele>
        <time>2021-03-20T01:35:31Z</time>
      </trkpt>
      <trkpt lat="56.45469" lon="-5.39396">
        <ele>3.05</ele>
        <time>2021-03-20T01:35:36Z</time>
      </trkpt>
      <trkpt lat="56.45461" lon="-5.39416">
        <ele>2.82</ele>
        <time>2021-03-20T01:35:42Z</time>
      </trkpt>
      <trkpt lat="56.45446" lon="-5.39442">
        <ele>2.98</ele>
        <time>2021-03-20T01:35:47Z</time>
      </trkpt>
      <trkpt lat="56.45395" lon="-5.39489">
        <ele>3.81</ele>
        <time>2021-03-20T01:35:52Z</time>
      </trkpt>
      <trkpt lat="56.45342" lon="-5.39545">
        <ele>4.36</ele>
        <time>2021-03-20T01:35:58Z</time>
      </trkpt>
      <trkpt lat="56.45297" lon="-5.39597">
        <ele>2.91</ele>
        <time>2021-03-20T01:36:03Z</time>
      </trkpt>
      <trkpt lat="56.45248" lon="-5.39659">
        <ele>5.81</ele>
        <time>2021-03-20T01:36:09Z</time>
      </trkpt>
      <trkpt lat="56.45225" lon="-5.39708">
        <ele>3.81</ele>
        <time>2021-03-20T01:36:14Z</time>
      </trkpt>
      <trkpt lat="56.45179" lon="-5.39837">
        <ele>9.18</ele>
        <time>2021-03-20T01:36:19Z</time>
      </trkpt>
      <trkpt lat="56.45165" lon="-5.3987">
        <ele>10.13</ele>
        <time>2021-03-20T01:36:25Z</time>
      </trkpt>
      <trkpt lat="56.45104" lon="-5.40074">
        <ele>19.89</ele>
        <time>2021-03-20T01:36:30Z</time>
      </trkpt>
      <trkpt lat="56.45087" lon="-5.40141">
        <ele>21</ele>
        <time>2021-03-20T01:36:35Z</time>
      </trkpt>
      <trkpt lat="56.45075" lon="-5.40223">
        <ele>23.65</ele>
        <time>2021-03-20T01:36:41Z</time>
      </trkpt>
      <trkpt lat="56.45071" lon="-5.40278">
        <ele>24.44</ele>
        <time>2021-03-20T01:36:46Z</time>
      </trkpt>
      <trkpt lat="56.45073" lon="-5.40328">
        <ele>24</ele>
        <time>2021-03-20T01:36:51Z</time>
      </trkpt>
      <trkpt lat="56.45082" lon="-5.4044">
        <ele>21.17</ele>
        <time>2021-03-20T01:36:57Z</time>
      </trkpt>
      <trkpt lat="56.45082" lon="-5.40489">
        <ele>17.84</ele>
        <time>2021-03-20T01:37:02Z</time>
      </trkpt>
      <trkpt lat="56.45077" lon="-5.40538">
        <ele>13.41</ele>
        <time>2021-03-20T01:37:08Z</time>
      </trkpt>
      <trkpt lat="56.4506" lon="-5.40663">
        <ele>4.52</ele>
        <time>2021-03-20T01:37:13Z</time>
      </trkpt>
      <trkpt lat="56.44998" lon="-5.41021">
        <ele>5.74</ele>
        <time>2021-03-20T01:37:18Z</time>
      </trkpt>
      <trkpt lat="56.44968" lon="-5.41399">
        <ele>3.2</ele>
        <time>2021-03-20T01:37:24Z</time>
      </trkpt>
      <trkpt lat="56.4492" lon="-5.41963">
        <ele>4.6</ele>
        <time>2021-03-20T01:37:29Z</time>
      </trkpt>
      <trkpt lat="56.44919" lon="-5.42028">
        <ele>5.91</ele>
        <time>2021-03-20T01:37:34Z</time>
      </trkpt>
      <trkpt lat="56.44922" lon="-5.42056">
        <ele>5.82</ele>
        <time>2021-03-20T01:37:40Z</time>
      </trkpt>
      <trkpt lat="56.44935" lon="-5.42118">
        <ele>6.35</ele>
        <time>2021-03-20T01:37:45Z</time>
      </trkpt>
      <trkpt lat="56.44959" lon="-5.42184">
        <ele>6.11</ele>
        <time>2021-03-20T01:37:50Z</time>
      </trkpt>
      <trkpt lat="56.44997" lon="-5.42265">
        <ele>6.93</ele>
        <time>2021-03-20T01:37:56Z</time>
      </trkpt>
      <trkpt lat="56.45019" lon="-5.42335">
        <ele>8.04</ele>
        <time>2021-03-20T01:38:01Z</time>
      </trkpt>
      <trkpt lat="56.45024" lon="-5.42371">
        <ele>8.27</ele>
        <time>2021-03-20T01:38:07Z</time>
      </trkpt>
      <trkpt lat="56.45025" lon="-5.4243">
        <ele>8.49</ele>
        <time>2021-03-20T01:38:12Z</time>
      </trkpt>
      <trkpt lat="56.4502" lon="-5.42519">
        <ele>6.11</ele>
        <time>2021-03-20T01:38:17Z</time>
      </trkpt>
      <trkpt lat="56.45003" lon="-5.42738">
        <ele>6.05</ele>
        <time>2021-03-20T01:38:23Z</time>
      </trkpt>
      <trkpt lat="56.44998" lon="-5.42695">
        <ele>7.27</ele>
        <time>2021-03-20T01:38:28Z</time>
      </trkpt>
      <trkpt lat="56.44981" lon="-5.42725">
        <ele>8.83</ele>
        <time>2021-03-20T01:38:34Z</time>
      </trkpt>
      <trkpt lat="56.44981" lon="-5.42725">
        <ele>8.83</ele>
        <time>2021-03-20T01:38:34Z</time>
      </trkpt>
      <trkpt lat="56.44998" lon="-5.42695">
        <ele>7.27</ele>
        <time>2021-03-20T01:38:39Z</time>
      </trkpt>
      <trkpt lat="56.45003" lon="-5.42738">
        <ele>6.05</ele>
        <time>2021-03-20T01:38:45Z</time>
      </trkpt>
      <trkpt lat="56.4499" lon="-5.42825">
        <ele>6.76</ele>
        <time>2021-03-20T01:38:48Z</time>
      </trkpt>
      <trkpt lat="56.44939" lon="-5.43018">
        <ele>14.92</ele>
        <time>2021-03-20T01:38:51Z</time>
      </trkpt>
      <trkpt lat="56.44849" lon="-5.43177">
        <ele>15.51</ele>
        <time>2021-03-20T01:38:54Z</time>
      </trkpt>
      <trkpt lat="56.44771" lon="-5.43301">
        <ele>11.41</ele>
        <time>2021-03-20T01:38:57Z</time>
      </trkpt>
      <trkpt lat="56.44689" lon="-5.4353">
        <ele>14.93</ele>
        <time>2021-03-20T01:39:00Z</time>
      </trkpt>
      <trkpt lat="56.44653" lon="-5.43621">
        <ele>13.55</ele>
        <time>2021-03-20T01:39:04Z</time>
      </trkpt>
      <trkpt lat="56.44587" lon="-5.43805">
        <ele>14.47</ele>
        <time>2021-03-20T01:39:07Z</time>
      </trkpt>
      <trkpt lat="56.44485" lon="-5.44015">
        <ele>16.49</ele>
        <time>2021-03-20T01:39:10Z</time>
      </trkpt>
      <trkpt lat="56.44444" lon="-5.44116">
        <ele>19.81</ele>
        <time>2021-03-20T01:39:13Z</time>
      </trkpt>
      <trkpt lat="56.44383" lon="-5.44242">
        <ele>20.73</ele>
        <time>2021-03-20T01:39:16Z</time>
      </trkpt>
      <trkpt lat="56.4435" lon="-5.44296">
        <ele>17.92</ele>
        <time>2021-03-20T01:39:19Z</time>
      </trkpt>
      <trkpt lat="56.44256" lon="-5.44403">
        <ele>16.91</ele>
        <time>2021-03-20T01:39:22Z</time>
      </trkpt>
      <trkpt lat="56.44146" lon="-5.44536">
        <ele>11.64</ele>
        <time>2021-03-20T01:39:25Z</time>
      </trkpt>
      <trkpt lat="56.44125" lon="-5.44571">
        <ele>9.39</ele>
        <time>2021-03-20T01:39:28Z</time>
      </trkpt>
      <trkpt lat="56.44106" lon="-5.4465">
        <ele>8.59</ele>
        <time>2021-03-20T01:39:32Z</time>
      </trkpt>
      <trkpt lat="56.44098" lon="-5.44732">
        <ele>10.06</ele>
        <time>2021-03-20T01:39:35Z</time>
      </trkpt>
      <trkpt lat="56.44091" lon="-5.44782">
        <ele>9.67</ele>
        <time>2021-03-20T01:39:38Z</time>
      </trkpt>
      <trkpt lat="56.44077" lon="-5.44831">
        <ele>8.36</ele>
        <time>2021-03-20T01:39:41Z</time>
      </trkpt>
      <trkpt lat="56.44047" lon="-5.4489">
        <ele>8.52</ele>
        <time>2021-03-20T01:39:44Z</time>
      </trkpt>
      <trkpt lat="56.44011" lon="-5.44916">
        <ele>11.33</ele>
        <time>2021-03-20T01:39:47Z</time>
      </trkpt>
      <trkpt lat="56.43943" lon="-5.44953">
        <ele>14.23</ele>
        <time>2021-03-20T01:39:50Z</time>
      </trkpt>
      <trkpt lat="56.43888" lon="-5.45004">
        <ele>14.7</ele>
        <time>2021-03-20T01:39:53Z</time>
      </trkpt>
      <trkpt lat="56.43767" lon="-5.4508">
        <ele>22.63</ele>
        <time>2021-03-20T01:39:57Z</time>
      </trkpt>
      <trkpt lat="56.43735" lon="-5.45111">
        <ele>21.75</ele>
        <time>2021-03-20T01:40:00Z</time>
      </trkpt>
      <trkpt lat="56.43694" lon="-5.4517">
        <ele>21.75</ele>
        <time>2021-03-20T01:40:03Z</time>
      </trkpt>
      <trkpt lat="56.4367" lon="-5.45201">
        <ele>22.78</ele>
        <time>2021-03-20T01:40:06Z</time>
      </trkpt>
      <trkpt lat="56.43645" lon="-5.45215">
        <ele>22.56</ele>
        <time>2021-03-20T01:40:09Z</time>
      </trkpt>
      <trkpt lat="56.43621" lon="-5.45225">
        <ele>22.44</ele>
        <time>2021-03-20T01:40:12Z</time>
      </trkpt>
      <trkpt lat="56.43542" lon="-5.4524">
        <ele>25.25</ele>
        <time>2021-03-20T01:40:15Z</time>
      </trkpt>
      <trkpt lat="56.43464" lon="-5.45275">
        <ele>28.64</ele>
        <time>2021-03-20T01:40:18Z</time>
      </trkpt>
      <trkpt lat="56.43418" lon="-5.4531">
        <ele>31.13</ele>
        <time>2021-03-20T01:40:21Z</time>
      </trkpt>
      <trkpt lat="56.43376" lon="-5.45358">
        <ele>34.2</ele>
        <time>2021-03-20T01:40:25Z</time>
      </trkpt>
      <trkpt lat="56.43322" lon="-5.45401">
        <ele>37.63</ele>
        <time>2021-03-20T01:40:28Z</time>
      </trkpt>
      <trkpt lat="56.43246" lon="-5.4543">
        <ele>42.44</ele>
        <time>2021-03-20T01:40:31Z</time>
      </trkpt>
      <trkpt lat="56.43221" lon="-5.45451">
        <ele>44.16</ele>
        <time>2021-03-20T01:40:34Z</time>
      </trkpt>
      <trkpt lat="56.43197" lon="-5.45477">
        <ele>45.63</ele>
        <time>2021-03-20T01:40:37Z</time>
      </trkpt>
      <trkpt lat="56.43177" lon="-5.45509">
        <ele>47.04</ele>
        <time>2021-03-20T01:40:40Z</time>
      </trkpt>
      <trkpt lat="56.43158" lon="-5.45546">
        <ele>49.08</ele>
        <time>2021-03-20T01:40:43Z</time>
      </trkpt>
      <trkpt lat="56.43114" lon="-5.45655">
        <ele>46.6</ele>
        <time>2021-03-20T01:40:46Z</time>
      </trkpt>
      <trkpt lat="56.43086" lon="-5.45735">
        <ele>49.13</ele>
        <time>2021-03-20T01:40:50Z</time>
      </trkpt>
      <trkpt lat="56.43061" lon="-5.45817">
        <ele>53.87</ele>
        <time>2021-03-20T01:40:53Z</time>
      </trkpt>
      <trkpt lat="56.43046" lon="-5.45857">
        <ele>56.62</ele>
        <time>2021-03-20T01:40:56Z</time>
      </trkpt>
      <trkpt lat="56.4303" lon="-5.45893">
        <ele>56.85</ele>
        <time>2021-03-20T01:40:59Z</time>
      </trkpt>
      <trkpt lat="56.42997" lon="-5.45946">
        <ele>54.89</ele>
        <time>2021-03-20T01:41:02Z</time>
      </trkpt>
      <trkpt lat="56.42959" lon="-5.45985">
        <ele>52.12</ele>
        <time>2021-03-20T01:41:05Z</time>
      </trkpt>
      <trkpt lat="56.42836" lon="-5.46056">
        <ele>50.91</ele>
        <time>2021-03-20T01:41:08Z</time>
      </trkpt>
      <trkpt lat="56.42808" lon="-5.46076">
        <ele>51.25</ele>
        <time>2021-03-20T01:41:11Z</time>
      </trkpt>
      <trkpt lat="56.42789" lon="-5.46099">
        <ele>51</ele>
        <time>2021-03-20T01:41:14Z</time>
      </trkpt>
      <trkpt lat="56.42755" lon="-5.4615">
        <ele>51.8</ele>
        <time>2021-03-20T01:41:18Z</time>
      </trkpt>
      <trkpt lat="56.42738" lon="-5.46194">
        <ele>51.43</ele>
        <time>2021-03-20T01:41:21Z</time>
      </trkpt>
      <trkpt lat="56.42717" lon="-5.463">
        <ele>51.37</ele>
        <time>2021-03-20T01:41:24Z</time>
      </trkpt>
      <trkpt lat="56.42701" lon="-5.46361">
        <ele>51</ele>
        <time>2021-03-20T01:41:27Z</time>
      </trkpt>
      <trkpt lat="56.42684" lon="-5.46409">
        <ele>52.38</ele>
        <time>2021-03-20T01:41:30Z</time>
      </trkpt>
      <trkpt lat="56.4265" lon="-5.46471">
        <ele>54.45</ele>
        <time>2021-03-20T01:41:33Z</time>
      </trkpt>
      <trkpt lat="56.42612" lon="-5.46527">
        <ele>54.01</ele>
        <time>2021-03-20T01:41:36Z</time>
      </trkpt>
      <trkpt lat="56.42594" lon="-5.46567">
        <ele>52.44</ele>
        <time>2021-03-20T01:41:39Z</time>
      </trkpt>
      <trkpt lat="56.42546" lon="-5.46689">
        <ele>53.85</ele>
        <time>2021-03-20T01:41:42Z</time>
      </trkpt>
      <trkpt lat="56.42533" lon="-5.46717">
        <ele>55.17</ele>
        <time>2021-03-20T01:41:46Z</time>
      </trkpt>
      <trkpt lat="56.42505" lon="-5.46766">
        <ele>53.48</ele>
        <time>2021-03-20T01:41:49Z</time>
      </trkpt>
      <trkpt lat="56.42465" lon="-5.46828">
        <ele>52.83</ele>
        <time>2021-03-20T01:41:52Z</time>
      </trkpt>
      <trkpt lat="56.42453" lon="-5.46846">
        <ele>52.28</ele>
        <time>2021-03-20T01:41:55Z</time>
      </trkpt>
      <trkpt lat="56.42426" lon="-5.46873">
        <ele>52.32</ele>
        <time>2021-03-20T01:41:58Z</time>
      </trkpt>
      <trkpt lat="56.42386" lon="-5.46896">
        <ele>53.35</ele>
        <time>2021-03-20T01:42:01Z</time>
      </trkpt>
      <trkpt lat="56.42346" lon="-5.46901">
        <ele>54.88</ele>
        <time>2021-03-20T01:42:04Z</time>
      </trkpt>
      <trkpt lat="56.42313" lon="-5.46891">
        <ele>55.18</ele>
        <time>2021-03-20T01:42:07Z</time>
      </trkpt>
      <trkpt lat="56.42275" lon="-5.46871">
        <ele>55.04</ele>
        <time>2021-03-20T01:42:11Z</time>
      </trkpt>
      <trkpt lat="56.42241" lon="-5.46846">
        <ele>52.84</ele>
        <time>2021-03-20T01:42:14Z</time>
      </trkpt>
      <trkpt lat="56.42227" lon="-5.46855">
        <ele>50.61</ele>
        <time>2021-03-20T01:42:16Z</time>
      </trkpt>
      <trkpt lat="56.4221" lon="-5.46871">
        <ele>48.24</ele>
        <time>2021-03-20T01:42:18Z</time>
      </trkpt>
      <trkpt lat="56.42197" lon="-5.46887">
        <ele>46.34</ele>
        <time>2021-03-20T01:42:21Z</time>
      </trkpt>
      <trkpt lat="56.42184" lon="-5.46915">
        <ele>42.16</ele>
        <time>2021-03-20T01:42:23Z</time>
      </trkpt>
      <trkpt lat="56.42185" lon="-5.46971">
        <ele>39.99</ele>
        <time>2021-03-20T01:42:29Z</time>
      </trkpt>
      <trkpt lat="56.42181" lon="-5.47004">
        <ele>38.65</ele>
        <time>2021-03-20T01:42:34Z</time>
      </trkpt>
      <trkpt lat="56.42158" lon="-5.47049">
        <ele>35.06</ele>
        <time>2021-03-20T01:42:40Z</time>
      </trkpt>
      <trkpt lat="56.4213" lon="-5.47102">
        <ele>35.65</ele>
        <time>2021-03-20T01:42:46Z</time>
      </trkpt>
      <trkpt lat="56.42078" lon="-5.47159">
        <ele>35.38</ele>
        <time>2021-03-20T01:42:52Z</time>
      </trkpt>
      <trkpt lat="56.42041" lon="-5.47206">
        <ele>32.76</ele>
        <time>2021-03-20T01:42:57Z</time>
      </trkpt>
      <trkpt lat="56.41977" lon="-5.47294">
        <ele>24.41</ele>
        <time>2021-03-20T01:43:03Z</time>
      </trkpt>
      <trkpt lat="56.41948" lon="-5.47406">
        <ele>22.45</ele>
        <time>2021-03-20T01:43:09Z</time>
      </trkpt>
      <trkpt lat="56.41933" lon="-5.47437">
        <ele>20.71</ele>
        <time>2021-03-20T01:43:14Z</time>
      </trkpt>
      <trkpt lat="56.41904" lon="-5.47455">
        <ele>15.3</ele>
        <time>2021-03-20T01:43:20Z</time>
      </trkpt>
      <trkpt lat="56.41902" lon="-5.47451">
        <ele>14.59</ele>
        <time>2021-03-20T01:43:22Z</time>
      </trkpt>
      <trkpt lat="56.41899" lon="-5.47451">
        <ele>13.73</ele>
        <time>2021-03-20T01:43:24Z</time>
      </trkpt>
      <trkpt lat="56.41897" lon="-5.47457">
        <ele>13.52</ele>
        <time>2021-03-20T01:43:25Z</time>
      </trkpt>
      <trkpt lat="56.419" lon="-5.47463">
        <ele>14.4</ele>
        <time>2021-03-20T01:43:27Z</time>
      </trkpt>
      <trkpt lat="56.41874" lon="-5.47519">
        <ele>10.06</ele>
        <time>2021-03-20T01:43:29Z</time>
      </trkpt>
      <trkpt lat="56.41868" lon="-5.47532">
        <ele>8.94</ele>
        <time>2021-03-20T01:43:31Z</time>
      </trkpt>
      <trkpt lat="56.41844" lon="-5.47569">
        <ele>6.26</ele>
        <time>2021-03-20T01:43:33Z</time>
      </trkpt>
      <trkpt lat="56.41843" lon="-5.47564">
        <ele>6.41</ele>
        <time>2021-03-20T01:43:35Z</time>
      </trkpt>
      <trkpt lat="56.4184" lon="-5.47557">
        <ele>6.42</ele>
        <time>2021-03-20T01:43:37Z</time>
      </trkpt>
      <trkpt lat="56.41834" lon="-5.47554">
        <ele>6.12</ele>
        <time>2021-03-20T01:43:40Z</time>
      </trkpt>
      <trkpt lat="56.41827" lon="-5.47559">
        <ele>5.65</ele>
        <time>2021-03-20T01:43:42Z</time>
      </trkpt>
      <trkpt lat="56.41825" lon="-5.4757">
        <ele>5.18</ele>
        <time>2021-03-20T01:43:45Z</time>
      </trkpt>
      <trkpt lat="56.41828" lon="-5.47583">
        <ele>4.82</ele>
        <time>2021-03-20T01:43:47Z</time>
      </trkpt>
      <trkpt lat="56.41835" lon="-5.47587">
        <ele>5.01</ele>
        <time>2021-03-20T01:43:49Z</time>
      </trkpt>
      <trkpt lat="56.4184" lon="-5.47611">
        <ele>4.68</ele>
        <time>2021-03-20T01:43:52Z</time>
      </trkpt>
      <trkpt lat="56.41862" lon="-5.47683">
        <ele>6.07</ele>
        <time>2021-03-20T01:43:54Z</time>
      </trkpt>
      <trkpt lat="56.41866" lon="-5.47706">
        <ele>6.36</ele>
        <time>2021-03-20T01:43:56Z</time>
      </trkpt>
      <trkpt lat="56.41874" lon="-5.47782">
        <ele>6.04</ele>
        <time>2021-03-20T01:43:59Z</time>
      </trkpt>
      <trkpt lat="56.41896" lon="-5.47854">
        <ele>4.75</ele>
        <time>2021-03-20T01:44:01Z</time>
      </trkpt>
      <trkpt lat="56.41918" lon="-5.47911">
        <ele>5.26</ele>
        <time>2021-03-20T01:44:03Z</time>
      </trkpt>
      <trkpt lat="56.41931" lon="-5.4794">
        <ele>5.62</ele>
        <time>2021-03-20T01:44:06Z</time>
      </trkpt>
      <trkpt lat="56.41982" lon="-5.48038">
        <ele>7.3</ele>
        <time>2021-03-20T01:44:08Z</time>
      </trkpt>
    </trkseg>
  </trk>
  <trk>
    <name><![CDATA[J03 - Oban Youth Hostel, Oban - Bishops Walk, Baile Mòr]]></name>
    <trkseg>
      <trkpt lat="56.41982" lon="-5.48039">
        <ele>7.3</ele>
        <time>2021-03-20T14:20:18Z</time>
      </trkpt>
      <trkpt lat="56.41931" lon="-5.4794">
        <ele>5.62</ele>
        <time>2021-03-20T14:20:22Z</time>
      </trkpt>
      <trkpt lat="56.41918" lon="-5.47911">
        <ele>5.26</ele>
        <time>2021-03-20T14:20:26Z</time>
      </trkpt>
      <trkpt lat="56.41896" lon="-5.47854">
        <ele>4.75</ele>
        <time>2021-03-20T14:20:29Z</time>
      </trkpt>
      <trkpt lat="56.41874" lon="-5.47782">
        <ele>6.04</ele>
        <time>2021-03-20T14:20:33Z</time>
      </trkpt>
      <trkpt lat="56.41866" lon="-5.47706">
        <ele>6.36</ele>
        <time>2021-03-20T14:20:37Z</time>
      </trkpt>
      <trkpt lat="56.41862" lon="-5.47683">
        <ele>6.07</ele>
        <time>2021-03-20T14:20:40Z</time>
      </trkpt>
      <trkpt lat="56.4184" lon="-5.47611">
        <ele>4.68</ele>
        <time>2021-03-20T14:20:44Z</time>
      </trkpt>
      <trkpt lat="56.41835" lon="-5.47587">
        <ele>5.01</ele>
        <time>2021-03-20T14:20:48Z</time>
      </trkpt>
      <trkpt lat="56.41841" lon="-5.47583">
        <ele>5.51</ele>
        <time>2021-03-20T14:20:50Z</time>
      </trkpt>
      <trkpt lat="56.41843" lon="-5.47576">
        <ele>5.99</ele>
        <time>2021-03-20T14:20:53Z</time>
      </trkpt>
      <trkpt lat="56.41844" lon="-5.47569">
        <ele>6.26</ele>
        <time>2021-03-20T14:20:55Z</time>
      </trkpt>
      <trkpt lat="56.41868" lon="-5.47532">
        <ele>8.94</ele>
        <time>2021-03-20T14:20:58Z</time>
      </trkpt>
      <trkpt lat="56.419" lon="-5.47463">
        <ele>14.4</ele>
        <time>2021-03-20T14:21:00Z</time>
      </trkpt>
      <trkpt lat="56.41904" lon="-5.47461">
        <ele>15.29</ele>
        <time>2021-03-20T14:21:06Z</time>
      </trkpt>
      <trkpt lat="56.41904" lon="-5.47455">
        <ele>15.3</ele>
        <time>2021-03-20T14:21:13Z</time>
      </trkpt>
      <trkpt lat="56.41902" lon="-5.47451">
        <ele>14.59</ele>
        <time>2021-03-20T14:21:19Z</time>
      </trkpt>
      <trkpt lat="56.41899" lon="-5.47451">
        <ele>13.73</ele>
        <time>2021-03-20T14:21:25Z</time>
      </trkpt>
      <trkpt lat="56.41732" lon="-5.47316">
        <ele>9.76</ele>
        <time>2021-03-20T14:21:31Z</time>
      </trkpt>
      <trkpt lat="56.41693" lon="-5.47324">
        <ele>8.74</ele>
        <time>2021-03-20T14:21:37Z</time>
      </trkpt>
      <trkpt lat="56.41651" lon="-5.47314">
        <ele>9.4</ele>
        <time>2021-03-20T14:21:44Z</time>
      </trkpt>
      <trkpt lat="56.41555" lon="-5.47282">
        <ele>10.69</ele>
        <time>2021-03-20T14:21:50Z</time>
      </trkpt>
      <trkpt lat="56.41491" lon="-5.47263">
        <ele>7.85</ele>
        <time>2021-03-20T14:21:56Z</time>
      </trkpt>
      <trkpt lat="56.41458" lon="-5.47256">
        <ele>6.78</ele>
        <time>2021-03-20T14:22:02Z</time>
      </trkpt>
      <trkpt lat="56.41416" lon="-5.47239">
        <ele>7.39</ele>
        <time>2021-03-20T14:22:08Z</time>
      </trkpt>
      <trkpt lat="56.41429" lon="-5.47106">
        <ele>11.19</ele>
        <time>2021-03-20T14:22:20Z</time>
      </trkpt>
      <trkpt lat="56.4134" lon="-5.47075">
        <ele>7.25</ele>
        <time>2021-03-20T14:22:37Z</time>
      </trkpt>
      <trkpt lat="56.41332" lon="-5.4709">
        <ele>6.95</ele>
        <time>2021-03-20T14:22:39Z</time>
      </trkpt>
      <trkpt lat="56.41321" lon="-5.47102">
        <ele>6.56</ele>
        <time>2021-03-20T14:22:42Z</time>
      </trkpt>
      <trkpt lat="56.41305" lon="-5.4711">
        <ele>5.97</ele>
        <time>2021-03-20T14:22:44Z</time>
      </trkpt>
      <trkpt lat="56.41297" lon="-5.47093">
        <ele>5.68</ele>
        <time>2021-03-20T14:22:49Z</time>
      </trkpt>
      <trkpt lat="56.41274" lon="-5.47072">
        <ele>5.69</ele>
        <time>2021-03-20T14:22:53Z</time>
      </trkpt>
      <trkpt lat="56.41261" lon="-5.47066">
        <ele>6.82</ele>
        <time>2021-03-20T14:22:58Z</time>
      </trkpt>
      <trkpt lat="56.41244" lon="-5.47063">
        <ele>8.18</ele>
        <time>2021-03-20T14:23:02Z</time>
      </trkpt>
      <trkpt lat="56.41225" lon="-5.47066">
        <ele>9.43</ele>
        <time>2021-03-20T14:23:07Z</time>
      </trkpt>
      <trkpt lat="56.41166" lon="-5.47089">
        <ele>6.99</ele>
        <time>2021-03-20T14:23:12Z</time>
      </trkpt>
      <trkpt lat="56.41152" lon="-5.47065">
        <ele>6.14</ele>
        <time>2021-03-20T14:23:18Z</time>
      </trkpt>
      <trkpt lat="56.41072" lon="-5.46982">
        <ele>7.24</ele>
        <time>2021-03-20T14:23:24Z</time>
      </trkpt>
      <trkpt lat="56.41043" lon="-5.46975">
        <ele>5.97</ele>
        <time>2021-03-20T14:23:30Z</time>
      </trkpt>
      <trkpt lat="56.41043" lon="-5.46956">
        <ele>6.95</ele>
        <time>2021-03-20T14:23:34Z</time>
      </trkpt>
      <trkpt lat="56.4103" lon="-5.46933">
        <ele>7.08</ele>
        <time>2021-03-20T14:23:37Z</time>
      </trkpt>
      <trkpt lat="56.40981" lon="-5.46859">
        <ele>9.42</ele>
        <time>2021-03-20T14:23:41Z</time>
      </trkpt>
      <trkpt lat="56.4097" lon="-5.46838">
        <ele>9.57</ele>
        <time>2021-03-20T14:23:45Z</time>
      </trkpt>
      <trkpt lat="56.40961" lon="-5.46815">
        <ele>10.49</ele>
        <time>2021-03-20T14:23:48Z</time>
      </trkpt>
      <trkpt lat="56.40955" lon="-5.46789">
        <ele>12.21</ele>
        <time>2021-03-20T14:23:52Z</time>
      </trkpt>
      <trkpt lat="56.4095" lon="-5.46754">
        <ele>14.65</ele>
        <time>2021-03-20T14:23:55Z</time>
      </trkpt>
      <trkpt lat="56.40949" lon="-5.46714">
        <ele>18.4</ele>
        <time>2021-03-20T14:23:59Z</time>
      </trkpt>
      <trkpt lat="56.40954" lon="-5.46656">
        <ele>22.63</ele>
        <time>2021-03-20T14:24:03Z</time>
      </trkpt>
      <trkpt lat="56.40966" lon="-5.46585">
        <ele>27.25</ele>
        <time>2021-03-20T14:24:06Z</time>
      </trkpt>
      <trkpt lat="56.40995" lon="-5.46499">
        <ele>29.33</ele>
        <time>2021-03-20T14:24:10Z</time>
      </trkpt>
      <trkpt lat="56.41056" lon="-5.46385">
        <ele>29.84</ele>
        <time>2021-03-20T14:24:14Z</time>
      </trkpt>
      <trkpt lat="56.41115" lon="-5.46239">
        <ele>25.88</ele>
        <time>2021-03-20T14:24:17Z</time>
      </trkpt>
      <trkpt lat="56.41153" lon="-5.46127">
        <ele>24.67</ele>
        <time>2021-03-20T14:24:21Z</time>
      </trkpt>
      <trkpt lat="56.41179" lon="-5.45984">
        <ele>26.03</ele>
        <time>2021-03-20T14:24:24Z</time>
      </trkpt>
      <trkpt lat="56.41194" lon="-5.45912">
        <ele>25.64</ele>
        <time>2021-03-20T14:24:28Z</time>
      </trkpt>
      <trkpt lat="56.4122" lon="-5.45844">
        <ele>24.32</ele>
        <time>2021-03-20T14:24:32Z</time>
      </trkpt>
      <trkpt lat="56.41372" lon="-5.45537">
        <ele>33.6</ele>
        <time>2021-03-20T14:24:35Z</time>
      </trkpt>
      <trkpt lat="56.41404" lon="-5.4548">
        <ele>34.24</ele>
        <time>2021-03-20T14:24:39Z</time>
      </trkpt>
      <trkpt lat="56.41409" lon="-5.4541">
        <ele>33.96</ele>
        <time>2021-03-20T14:24:43Z</time>
      </trkpt>
      <trkpt lat="56.41413" lon="-5.45379">
        <ele>35.24</ele>
        <time>2021-03-20T14:24:46Z</time>
      </trkpt>
      <trkpt lat="56.41471" lon="-5.45282">
        <ele>39.15</ele>
        <time>2021-03-20T14:24:50Z</time>
      </trkpt>
      <trkpt lat="56.41556" lon="-5.45207">
        <ele>42.49</ele>
        <time>2021-03-20T14:24:53Z</time>
      </trkpt>
      <trkpt lat="56.41561" lon="-5.45193">
        <ele>42.56</ele>
        <time>2021-03-20T14:24:57Z</time>
      </trkpt>
      <trkpt lat="56.41565" lon="-5.45168">
        <ele>42.07</ele>
        <time>2021-03-20T14:25:01Z</time>
      </trkpt>
      <trkpt lat="56.41567" lon="-5.45134">
        <ele>41.63</ele>
        <time>2021-03-20T14:25:04Z</time>
      </trkpt>
      <trkpt lat="56.41563" lon="-5.45117">
        <ele>40.73</ele>
        <time>2021-03-20T14:25:08Z</time>
      </trkpt>
      <trkpt lat="56.41552" lon="-5.4509">
        <ele>39.74</ele>
        <time>2021-03-20T14:25:12Z</time>
      </trkpt>
      <trkpt lat="56.41509" lon="-5.45018">
        <ele>39.2</ele>
        <time>2021-03-20T14:25:15Z</time>
      </trkpt>
      <trkpt lat="56.41469" lon="-5.44901">
        <ele>38.48</ele>
        <time>2021-03-20T14:25:19Z</time>
      </trkpt>
      <trkpt lat="56.4145" lon="-5.4486">
        <ele>36.74</ele>
        <time>2021-03-20T14:25:22Z</time>
      </trkpt>
      <trkpt lat="56.41443" lon="-5.44831">
        <ele>35.15</ele>
        <time>2021-03-20T14:25:26Z</time>
      </trkpt>
      <trkpt lat="56.4144" lon="-5.4481">
        <ele>36.01</ele>
        <time>2021-03-20T14:25:30Z</time>
      </trkpt>
      <trkpt lat="56.41428" lon="-5.44774">
        <ele>38.79</ele>
        <time>2021-03-20T14:25:33Z</time>
      </trkpt>
      <trkpt lat="56.41417" lon="-5.44747">
        <ele>43.4</ele>
        <time>2021-03-20T14:25:37Z</time>
      </trkpt>
      <trkpt lat="56.41389" lon="-5.44701">
        <ele>50.12</ele>
        <time>2021-03-20T14:25:41Z</time>
      </trkpt>
      <trkpt lat="56.41328" lon="-5.4466">
        <ele>53.88</ele>
        <time>2021-03-20T14:25:44Z</time>
      </trkpt>
      <trkpt lat="56.41302" lon="-5.44618">
        <ele>58.44</ele>
        <time>2021-03-20T14:25:48Z</time>
      </trkpt>
      <trkpt lat="56.41296" lon="-5.44606">
        <ele>59.92</ele>
        <time>2021-03-20T14:25:51Z</time>
      </trkpt>
      <trkpt lat="56.41295" lon="-5.44593">
        <ele>61.55</ele>
        <time>2021-03-20T14:25:55Z</time>
      </trkpt>
      <trkpt lat="56.413" lon="-5.44585">
        <ele>62.23</ele>
        <time>2021-03-20T14:25:59Z</time>
      </trkpt>
      <trkpt lat="56.41338" lon="-5.44589">
        <ele>60.44</ele>
        <time>2021-03-20T14:26:02Z</time>
      </trkpt>
      <trkpt lat="56.41353" lon="-5.44589">
        <ele>60.02</ele>
        <time>2021-03-20T14:26:06Z</time>
      </trkpt>
      <trkpt lat="56.41361" lon="-5.44585">
        <ele>59.95</ele>
        <time>2021-03-20T14:26:10Z</time>
      </trkpt>
      <trkpt lat="56.41367" lon="-5.44572">
        <ele>61.27</ele>
        <time>2021-03-20T14:26:13Z</time>
      </trkpt>
      <trkpt lat="56.4137" lon="-5.44551">
        <ele>63.1</ele>
        <time>2021-03-20T14:26:17Z</time>
      </trkpt>
      <trkpt lat="56.41371" lon="-5.44533">
        <ele>64.91</ele>
        <time>2021-03-20T14:26:20Z</time>
      </trkpt>
      <trkpt lat="56.41371" lon="-5.44516">
        <ele>66.45</ele>
        <time>2021-03-20T14:26:24Z</time>
      </trkpt>
      <trkpt lat="56.41366" lon="-5.445">
        <ele>67.96</ele>
        <time>2021-03-20T14:26:28Z</time>
      </trkpt>
      <trkpt lat="56.4135" lon="-5.44475">
        <ele>71.49</ele>
        <time>2021-03-20T14:26:31Z</time>
      </trkpt>
      <trkpt lat="56.41344" lon="-5.44454">
        <ele>74.57</ele>
        <time>2021-03-20T14:26:35Z</time>
      </trkpt>
      <trkpt lat="56.41344" lon="-5.44438">
        <ele>76.08</ele>
        <time>2021-03-20T14:26:39Z</time>
      </trkpt>
      <trkpt lat="56.41347" lon="-5.44428">
        <ele>76.1</ele>
        <time>2021-03-20T14:26:42Z</time>
      </trkpt>
      <trkpt lat="56.41352" lon="-5.44394">
        <ele>76.81</ele>
        <time>2021-03-20T14:26:46Z</time>
      </trkpt>
      <trkpt lat="56.41353" lon="-5.44347">
        <ele>78.97</ele>
        <time>2021-03-20T14:26:49Z</time>
      </trkpt>
      <trkpt lat="56.41329" lon="-5.44271">
        <ele>88.97</ele>
        <time>2021-03-20T14:26:53Z</time>
      </trkpt>
      <trkpt lat="56.4134" lon="-5.44206">
        <ele>89.13</ele>
        <time>2021-03-20T14:26:57Z</time>
      </trkpt>
      <trkpt lat="56.41355" lon="-5.44149">
        <ele>85.65</ele>
        <time>2021-03-20T14:27:00Z</time>
      </trkpt>
      <trkpt lat="56.41351" lon="-5.44094">
        <ele>86.01</ele>
        <time>2021-03-20T14:27:04Z</time>
      </trkpt>
      <trkpt lat="56.41327" lon="-5.44032">
        <ele>88.75</ele>
        <time>2021-03-20T14:27:08Z</time>
      </trkpt>
      <trkpt lat="56.41302" lon="-5.43885">
        <ele>93.7</ele>
        <time>2021-03-20T14:27:11Z</time>
      </trkpt>
      <trkpt lat="56.41294" lon="-5.43814">
        <ele>99.29</ele>
        <time>2021-03-20T14:27:15Z</time>
      </trkpt>
      <trkpt lat="56.41258" lon="-5.43687">
        <ele>108.81</ele>
        <time>2021-03-20T14:27:18Z</time>
      </trkpt>
      <trkpt lat="56.41205" lon="-5.43628">
        <ele>115.43</ele>
        <time>2021-03-20T14:27:22Z</time>
      </trkpt>
      <trkpt lat="56.41137" lon="-5.43613">
        <ele>112.66</ele>
        <time>2021-03-20T14:27:26Z</time>
      </trkpt>
      <trkpt lat="56.41116" lon="-5.436">
        <ele>108.83</ele>
        <time>2021-03-20T14:27:29Z</time>
      </trkpt>
      <trkpt lat="56.41096" lon="-5.43524">
        <ele>104.05</ele>
        <time>2021-03-20T14:27:33Z</time>
      </trkpt>
      <trkpt lat="56.41077" lon="-5.43497">
        <ele>100.02</ele>
        <time>2021-03-20T14:27:37Z</time>
      </trkpt>
      <trkpt lat="56.41047" lon="-5.43472">
        <ele>96.38</ele>
        <time>2021-03-20T14:27:40Z</time>
      </trkpt>
      <trkpt lat="56.41033" lon="-5.43348">
        <ele>98.78</ele>
        <time>2021-03-20T14:27:44Z</time>
      </trkpt>
      <trkpt lat="56.41025" lon="-5.43209">
        <ele>92.33</ele>
        <time>2021-03-20T14:27:47Z</time>
      </trkpt>
      <trkpt lat="56.41026" lon="-5.43181">
        <ele>92.23</ele>
        <time>2021-03-20T14:27:51Z</time>
      </trkpt>
      <trkpt lat="56.41061" lon="-5.4307">
        <ele>88.09</ele>
        <time>2021-03-20T14:27:55Z</time>
      </trkpt>
      <trkpt lat="56.4111" lon="-5.42923">
        <ele>85.55</ele>
        <time>2021-03-20T14:27:58Z</time>
      </trkpt>
      <trkpt lat="56.41147" lon="-5.4288">
        <ele>86.13</ele>
        <time>2021-03-20T14:28:02Z</time>
      </trkpt>
      <trkpt lat="56.41196" lon="-5.42783">
        <ele>81.07</ele>
        <time>2021-03-20T14:28:06Z</time>
      </trkpt>
      <trkpt lat="56.41214" lon="-5.42714">
        <ele>77.63</ele>
        <time>2021-03-20T14:28:09Z</time>
      </trkpt>
      <trkpt lat="56.41217" lon="-5.42662">
        <ele>76.46</ele>
        <time>2021-03-20T14:28:13Z</time>
      </trkpt>
      <trkpt lat="56.41227" lon="-5.42616">
        <ele>76.36</ele>
        <time>2021-03-20T14:28:16Z</time>
      </trkpt>
      <trkpt lat="56.41223" lon="-5.42533">
        <ele>75.23</ele>
        <time>2021-03-20T14:28:20Z</time>
      </trkpt>
      <trkpt lat="56.4124" lon="-5.42473">
        <ele>74.28</ele>
        <time>2021-03-20T14:28:24Z</time>
      </trkpt>
      <trkpt lat="56.41294" lon="-5.42388">
        <ele>68.73</ele>
        <time>2021-03-20T14:28:27Z</time>
      </trkpt>
      <trkpt lat="56.41272" lon="-5.42212">
        <ele>59</ele>
        <time>2021-03-20T14:28:31Z</time>
      </trkpt>
      <trkpt lat="56.41301" lon="-5.42205">
        <ele>59.84</ele>
        <time>2021-03-20T14:28:34Z</time>
      </trkpt>
      <trkpt lat="56.41326" lon="-5.42203">
        <ele>59.27</ele>
        <time>2021-03-20T14:28:37Z</time>
      </trkpt>
      <trkpt lat="56.41405" lon="-5.42204">
        <ele>49.74</ele>
        <time>2021-03-20T14:28:41Z</time>
      </trkpt>
      <trkpt lat="56.41467" lon="-5.422">
        <ele>48.21</ele>
        <time>2021-03-20T14:28:44Z</time>
      </trkpt>
      <trkpt lat="56.41527" lon="-5.4218">
        <ele>47.36</ele>
        <time>2021-03-20T14:28:47Z</time>
      </trkpt>
      <trkpt lat="56.4157" lon="-5.42156">
        <ele>48.08</ele>
        <time>2021-03-20T14:28:50Z</time>
      </trkpt>
      <trkpt lat="56.41596" lon="-5.42138">
        <ele>47.8</ele>
        <time>2021-03-20T14:28:53Z</time>
      </trkpt>
      <trkpt lat="56.41669" lon="-5.42039">
        <ele>39.96</ele>
        <time>2021-03-20T14:28:57Z</time>
      </trkpt>
      <trkpt lat="56.41696" lon="-5.41998">
        <ele>39.03</ele>
        <time>2021-03-20T14:29:00Z</time>
      </trkpt>
      <trkpt lat="56.41726" lon="-5.41942">
        <ele>40.24</ele>
        <time>2021-03-20T14:29:03Z</time>
      </trkpt>
      <trkpt lat="56.41786" lon="-5.41786">
        <ele>44.2</ele>
        <time>2021-03-20T14:29:06Z</time>
      </trkpt>
      <trkpt lat="56.41818" lon="-5.41698">
        <ele>47.81</ele>
        <time>2021-03-20T14:29:10Z</time>
      </trkpt>
      <trkpt lat="56.41916" lon="-5.41508">
        <ele>50.48</ele>
        <time>2021-03-20T14:29:13Z</time>
      </trkpt>
      <trkpt lat="56.41932" lon="-5.4147">
        <ele>49.49</ele>
        <time>2021-03-20T14:29:16Z</time>
      </trkpt>
      <trkpt lat="56.41979" lon="-5.41327">
        <ele>46.76</ele>
        <time>2021-03-20T14:29:19Z</time>
      </trkpt>
      <trkpt lat="56.42031" lon="-5.41095">
        <ele>47.75</ele>
        <time>2021-03-20T14:29:22Z</time>
      </trkpt>
      <trkpt lat="56.42042" lon="-5.41073">
        <ele>48.87</ele>
        <time>2021-03-20T14:29:26Z</time>
      </trkpt>
      <trkpt lat="56.42067" lon="-5.41043">
        <ele>52.37</ele>
        <time>2021-03-20T14:29:29Z</time>
      </trkpt>
      <trkpt lat="56.42089" lon="-5.41027">
        <ele>55.83</ele>
        <time>2021-03-20T14:29:32Z</time>
      </trkpt>
      <trkpt lat="56.42119" lon="-5.41035">
        <ele>60.03</ele>
        <time>2021-03-20T14:29:35Z</time>
      </trkpt>
      <trkpt lat="56.42205" lon="-5.4108">
        <ele>58.77</ele>
        <time>2021-03-20T14:29:39Z</time>
      </trkpt>
      <trkpt lat="56.42234" lon="-5.4106">
        <ele>54.22</ele>
        <time>2021-03-20T14:29:42Z</time>
      </trkpt>
      <trkpt lat="56.42317" lon="-5.40935">
        <ele>46.96</ele>
        <time>2021-03-20T14:29:45Z</time>
      </trkpt>
      <trkpt lat="56.42402" lon="-5.40819">
        <ele>46.1</ele>
        <time>2021-03-20T14:29:48Z</time>
      </trkpt>
      <trkpt lat="56.4244" lon="-5.40784">
        <ele>44.41</ele>
        <time>2021-03-20T14:29:51Z</time>
      </trkpt>
      <trkpt lat="56.42497" lon="-5.4075">
        <ele>45.86</ele>
        <time>2021-03-20T14:29:55Z</time>
      </trkpt>
      <trkpt lat="56.42531" lon="-5.40751">
        <ele>46.18</ele>
        <time>2021-03-20T14:29:58Z</time>
      </trkpt>
      <trkpt lat="56.4255" lon="-5.40742">
        <ele>46.19</ele>
        <time>2021-03-20T14:30:01Z</time>
      </trkpt>
      <trkpt lat="56.42598" lon="-5.40709">
        <ele>49.62</ele>
        <time>2021-03-20T14:30:04Z</time>
      </trkpt>
      <trkpt lat="56.4266" lon="-5.4066">
        <ele>53.23</ele>
        <time>2021-03-20T14:30:08Z</time>
      </trkpt>
      <trkpt lat="56.42958" lon="-5.40487">
        <ele>45.96</ele>
        <time>2021-03-20T14:30:12Z</time>
      </trkpt>
      <trkpt lat="56.43022" lon="-5.4039">
        <ele>49.87</ele>
        <time>2021-03-20T14:30:17Z</time>
      </trkpt>
      <trkpt lat="56.43058" lon="-5.40331">
        <ele>47.87</ele>
        <time>2021-03-20T14:30:21Z</time>
      </trkpt>
      <trkpt lat="56.43298" lon="-5.40091">
        <ele>38.31</ele>
        <time>2021-03-20T14:30:26Z</time>
      </trkpt>
      <trkpt lat="56.43494" lon="-5.39953">
        <ele>43.29</ele>
        <time>2021-03-20T14:30:31Z</time>
      </trkpt>
      <trkpt lat="56.43583" lon="-5.39929">
        <ele>41.15</ele>
        <time>2021-03-20T14:30:35Z</time>
      </trkpt>
      <trkpt lat="56.43697" lon="-5.39921">
        <ele>38.82</ele>
        <time>2021-03-20T14:30:40Z</time>
      </trkpt>
      <trkpt lat="56.43753" lon="-5.39862">
        <ele>37.23</ele>
        <time>2021-03-20T14:30:45Z</time>
      </trkpt>
      <trkpt lat="56.43807" lon="-5.39818">
        <ele>35.42</ele>
        <time>2021-03-20T14:30:49Z</time>
      </trkpt>
      <trkpt lat="56.4392" lon="-5.39754">
        <ele>36.01</ele>
        <time>2021-03-20T14:30:54Z</time>
      </trkpt>
      <trkpt lat="56.43982" lon="-5.39706">
        <ele>32.08</ele>
        <time>2021-03-20T14:30:59Z</time>
      </trkpt>
      <trkpt lat="56.44025" lon="-5.39667">
        <ele>25.34</ele>
        <time>2021-03-20T14:31:03Z</time>
      </trkpt>
      <trkpt lat="56.44052" lon="-5.3963">
        <ele>24.31</ele>
        <time>2021-03-20T14:31:08Z</time>
      </trkpt>
      <trkpt lat="56.44115" lon="-5.39517">
        <ele>22.33</ele>
        <time>2021-03-20T14:31:13Z</time>
      </trkpt>
      <trkpt lat="56.44173" lon="-5.39515">
        <ele>23.47</ele>
        <time>2021-03-20T14:31:17Z</time>
      </trkpt>
      <trkpt lat="56.44183" lon="-5.39505">
        <ele>22.46</ele>
        <time>2021-03-20T14:31:22Z</time>
      </trkpt>
      <trkpt lat="56.44208" lon="-5.39499">
        <ele>21.94</ele>
        <time>2021-03-20T14:31:27Z</time>
      </trkpt>
      <trkpt lat="56.4423" lon="-5.39502">
        <ele>21.56</ele>
        <time>2021-03-20T14:31:31Z</time>
      </trkpt>
      <trkpt lat="56.44253" lon="-5.39509">
        <ele>20.7</ele>
        <time>2021-03-20T14:31:36Z</time>
      </trkpt>
      <trkpt lat="56.44341" lon="-5.39505">
        <ele>16.85</ele>
        <time>2021-03-20T14:31:40Z</time>
      </trkpt>
      <trkpt lat="56.44366" lon="-5.39495">
        <ele>14.65</ele>
        <time>2021-03-20T14:31:45Z</time>
      </trkpt>
      <trkpt lat="56.44376" lon="-5.39488">
        <ele>13.93</ele>
        <time>2021-03-20T14:31:50Z</time>
      </trkpt>
      <trkpt lat="56.44554" lon="-5.39351">
        <ele>10.6</ele>
        <time>2021-03-20T14:31:54Z</time>
      </trkpt>
      <trkpt lat="56.44856" lon="-5.38975">
        <ele>14.73</ele>
        <time>2021-03-20T14:31:59Z</time>
      </trkpt>
      <trkpt lat="56.44879" lon="-5.38949">
        <ele>15.27</ele>
        <time>2021-03-20T14:32:04Z</time>
      </trkpt>
      <trkpt lat="56.45015" lon="-5.38897">
        <ele>12.13</ele>
        <time>2021-03-20T14:32:08Z</time>
      </trkpt>
      <trkpt lat="56.45049" lon="-5.38892">
        <ele>15.54</ele>
        <time>2021-03-20T14:32:13Z</time>
      </trkpt>
      <trkpt lat="56.45077" lon="-5.38902">
        <ele>19.28</ele>
        <time>2021-03-20T14:32:18Z</time>
      </trkpt>
      <trkpt lat="56.45109" lon="-5.38933">
        <ele>21.97</ele>
        <time>2021-03-20T14:32:22Z</time>
      </trkpt>
      <trkpt lat="56.45141" lon="-5.38967">
        <ele>21.18</ele>
        <time>2021-03-20T14:32:27Z</time>
      </trkpt>
      <trkpt lat="56.45243" lon="-5.39109">
        <ele>18.25</ele>
        <time>2021-03-20T14:32:32Z</time>
      </trkpt>
      <trkpt lat="56.45251" lon="-5.39122">
        <ele>18.01</ele>
        <time>2021-03-20T14:32:36Z</time>
      </trkpt>
      <trkpt lat="56.45263" lon="-5.39159">
        <ele>17.66</ele>
        <time>2021-03-20T14:32:41Z</time>
      </trkpt>
      <trkpt lat="56.45281" lon="-5.39185">
        <ele>16.36</ele>
        <time>2021-03-20T14:32:45Z</time>
      </trkpt>
      <trkpt lat="56.45293" lon="-5.39198">
        <ele>15.86</ele>
        <time>2021-03-20T14:32:50Z</time>
      </trkpt>
      <trkpt lat="56.45322" lon="-5.3923">
        <ele>14.7</ele>
        <time>2021-03-20T14:32:55Z</time>
      </trkpt>
      <trkpt lat="56.4536" lon="-5.39258">
        <ele>12.74</ele>
        <time>2021-03-20T14:32:59Z</time>
      </trkpt>
      <trkpt lat="56.45364" lon="-5.3922">
        <ele>14.94</ele>
        <time>2021-03-20T14:33:07Z</time>
      </trkpt>
      <trkpt lat="56.45371" lon="-5.39185">
        <ele>16.59</ele>
        <time>2021-03-20T14:33:14Z</time>
      </trkpt>
      <trkpt lat="56.45379" lon="-5.39155">
        <ele>17.48</ele>
        <time>2021-03-20T14:33:21Z</time>
      </trkpt>
      <trkpt lat="56.45394" lon="-5.39121">
        <ele>17.75</ele>
        <time>2021-03-20T14:33:28Z</time>
      </trkpt>
      <trkpt lat="56.4541" lon="-5.39098">
        <ele>17.11</ele>
        <time>2021-03-20T14:33:35Z</time>
      </trkpt>
      <trkpt lat="56.45423" lon="-5.39085">
        <ele>16.48</ele>
        <time>2021-03-20T14:33:42Z</time>
      </trkpt>
      <trkpt lat="56.45437" lon="-5.39079">
        <ele>15.8</ele>
        <time>2021-03-20T14:33:49Z</time>
      </trkpt>
      <trkpt lat="56.45454" lon="-5.3908">
        <ele>14.54</ele>
        <time>2021-03-20T14:33:56Z</time>
      </trkpt>
      <trkpt lat="56.45475" lon="-5.39085">
        <ele>12.81</ele>
        <time>2021-03-20T14:34:04Z</time>
      </trkpt>
      <trkpt lat="56.45769" lon="-5.3921">
        <ele>6.37</ele>
        <time>2021-03-20T14:34:11Z</time>
      </trkpt>
      <trkpt lat="56.45889" lon="-5.39227">
        <ele>11.82</ele>
        <time>2021-03-20T14:34:18Z</time>
      </trkpt>
      <trkpt lat="56.45891" lon="-5.39168">
        <ele>11.04</ele>
        <time>2021-03-20T14:34:23Z</time>
      </trkpt>
      <trkpt lat="56.459" lon="-5.39135">
        <ele>10.91</ele>
        <time>2021-03-20T14:34:27Z</time>
      </trkpt>
      <trkpt lat="56.45942" lon="-5.39055">
        <ele>11.82</ele>
        <time>2021-03-20T14:34:32Z</time>
      </trkpt>
      <trkpt lat="56.45946" lon="-5.39032">
        <ele>12.14</ele>
        <time>2021-03-20T14:34:37Z</time>
      </trkpt>
      <trkpt lat="56.4596" lon="-5.38927">
        <ele>10.38</ele>
        <time>2021-03-20T14:34:42Z</time>
      </trkpt>
      <trkpt lat="56.45968" lon="-5.38896">
        <ele>10.69</ele>
        <time>2021-03-20T14:34:46Z</time>
      </trkpt>
      <trkpt lat="56.46015" lon="-5.38763">
        <ele>10.06</ele>
        <time>2021-03-20T14:34:51Z</time>
      </trkpt>
      <trkpt lat="56.46026" lon="-5.38693">
        <ele>10.7</ele>
        <time>2021-03-20T14:34:56Z</time>
      </trkpt>
      <trkpt lat="56.46028" lon="-5.38645">
        <ele>9.98</ele>
        <time>2021-03-20T14:35:01Z</time>
      </trkpt>
      <trkpt lat="56.46026" lon="-5.38554">
        <ele>11.87</ele>
        <time>2021-03-20T14:35:05Z</time>
      </trkpt>
      <trkpt lat="56.46023" lon="-5.38528">
        <ele>12.52</ele>
        <time>2021-03-20T14:35:10Z</time>
      </trkpt>
      <trkpt lat="56.45913" lon="-5.37954">
        <ele>17.27</ele>
        <time>2021-03-20T14:35:15Z</time>
      </trkpt>
      <trkpt lat="56.45908" lon="-5.37918">
        <ele>17.09</ele>
        <time>2021-03-20T14:35:20Z</time>
      </trkpt>
      <trkpt lat="56.459" lon="-5.37784">
        <ele>14.62</ele>
        <time>2021-03-20T14:35:24Z</time>
      </trkpt>
      <trkpt lat="56.45888" lon="-5.37668">
        <ele>15.92</ele>
        <time>2021-03-20T14:35:29Z</time>
      </trkpt>
      <trkpt lat="56.45886" lon="-5.37627">
        <ele>15.66</ele>
        <time>2021-03-20T14:35:34Z</time>
      </trkpt>
      <trkpt lat="56.45889" lon="-5.37581">
        <ele>15.97</ele>
        <time>2021-03-20T14:35:39Z</time>
      </trkpt>
      <trkpt lat="56.45901" lon="-5.37466">
        <ele>16.93</ele>
        <time>2021-03-20T14:35:44Z</time>
      </trkpt>
      <trkpt lat="56.45901" lon="-5.37429">
        <ele>16.73</ele>
        <time>2021-03-20T14:35:48Z</time>
      </trkpt>
      <trkpt lat="56.45895" lon="-5.37391">
        <ele>14.69</ele>
        <time>2021-03-20T14:35:53Z</time>
      </trkpt>
      <trkpt lat="56.4589" lon="-5.37317">
        <ele>12.22</ele>
        <time>2021-03-20T14:35:58Z</time>
      </trkpt>
      <trkpt lat="56.45908" lon="-5.37083">
        <ele>15.69</ele>
        <time>2021-03-20T14:36:03Z</time>
      </trkpt>
      <trkpt lat="56.45914" lon="-5.37016">
        <ele>15.15</ele>
        <time>2021-03-20T14:36:07Z</time>
      </trkpt>
      <trkpt lat="56.45931" lon="-5.369">
        <ele>14.77</ele>
        <time>2021-03-20T14:36:12Z</time>
      </trkpt>
      <trkpt lat="56.45943" lon="-5.36868">
        <ele>16.95</ele>
        <time>2021-03-20T14:36:17Z</time>
      </trkpt>
      <trkpt lat="56.4596" lon="-5.36837">
        <ele>18.41</ele>
        <time>2021-03-20T14:36:22Z</time>
      </trkpt>
      <trkpt lat="56.45989" lon="-5.36793">
        <ele>19.82</ele>
        <time>2021-03-20T14:36:26Z</time>
      </trkpt>
      <trkpt lat="56.46007" lon="-5.36776">
        <ele>20</ele>
        <time>2021-03-20T14:36:31Z</time>
      </trkpt>
      <trkpt lat="56.46031" lon="-5.3676">
        <ele>20.11</ele>
        <time>2021-03-20T14:36:36Z</time>
      </trkpt>
      <trkpt lat="56.46123" lon="-5.36727">
        <ele>23.17</ele>
        <time>2021-03-20T14:36:41Z</time>
      </trkpt>
      <trkpt lat="56.46342" lon="-5.36663">
        <ele>21.76</ele>
        <time>2021-03-20T14:36:46Z</time>
      </trkpt>
      <trkpt lat="56.46404" lon="-5.3667">
        <ele>23.13</ele>
        <time>2021-03-20T14:36:50Z</time>
      </trkpt>
      <trkpt lat="56.46423" lon="-5.36662">
        <ele>22.73</ele>
        <time>2021-03-20T14:36:55Z</time>
      </trkpt>
      <trkpt lat="56.46438" lon="-5.36644">
        <ele>21.99</ele>
        <time>2021-03-20T14:37:00Z</time>
      </trkpt>
      <trkpt lat="56.46455" lon="-5.36611">
        <ele>21.53</ele>
        <time>2021-03-20T14:37:05Z</time>
      </trkpt>
      <trkpt lat="56.46486" lon="-5.36508">
        <ele>21.38</ele>
        <time>2021-03-20T14:37:09Z</time>
      </trkpt>
      <trkpt lat="56.46507" lon="-5.36411">
        <ele>20.38</ele>
        <time>2021-03-20T14:37:14Z</time>
      </trkpt>
      <trkpt lat="56.46523" lon="-5.36395">
        <ele>23.09</ele>
        <time>2021-03-20T14:37:19Z</time>
      </trkpt>
      <trkpt lat="56.4654" lon="-5.36392">
        <ele>24.52</ele>
        <time>2021-03-20T14:37:24Z</time>
      </trkpt>
      <trkpt lat="56.46596" lon="-5.36404">
        <ele>22.66</ele>
        <time>2021-03-20T14:37:28Z</time>
      </trkpt>
      <trkpt lat="56.46649" lon="-5.36428">
        <ele>21.18</ele>
        <time>2021-03-20T14:37:33Z</time>
      </trkpt>
      <trkpt lat="56.46712" lon="-5.3649">
        <ele>22.27</ele>
        <time>2021-03-20T14:37:38Z</time>
      </trkpt>
      <trkpt lat="56.46747" lon="-5.36512">
        <ele>22.56</ele>
        <time>2021-03-20T14:37:43Z</time>
      </trkpt>
      <trkpt lat="56.46821" lon="-5.36524">
        <ele>21.73</ele>
        <time>2021-03-20T14:37:47Z</time>
      </trkpt>
      <trkpt lat="56.47014" lon="-5.36517">
        <ele>21.41</ele>
        <time>2021-03-20T14:37:52Z</time>
      </trkpt>
      <trkpt lat="56.47121" lon="-5.36491">
        <ele>22.8</ele>
        <time>2021-03-20T14:37:57Z</time>
      </trkpt>
      <trkpt lat="56.47143" lon="-5.36474">
        <ele>23.16</ele>
        <time>2021-03-20T14:38:02Z</time>
      </trkpt>
      <trkpt lat="56.47187" lon="-5.36412">
        <ele>24.48</ele>
        <time>2021-03-20T14:38:07Z</time>
      </trkpt>
      <trkpt lat="56.47194" lon="-5.36396">
        <ele>24.98</ele>
        <time>2021-03-20T14:38:11Z</time>
      </trkpt>
      <trkpt lat="56.47196" lon="-5.3638">
        <ele>25</ele>
        <time>2021-03-20T14:38:16Z</time>
      </trkpt>
      <trkpt lat="56.47193" lon="-5.3637">
        <ele>24.87</ele>
        <time>2021-03-20T14:38:19Z</time>
      </trkpt>
      <trkpt lat="56.47178" lon="-5.3635">
        <ele>23.42</ele>
        <time>2021-03-20T14:38:22Z</time>
      </trkpt>
      <trkpt lat="56.47124" lon="-5.36295">
        <ele>17.71</ele>
        <time>2021-03-20T14:38:25Z</time>
      </trkpt>
      <trkpt lat="56.47116" lon="-5.36265">
        <ele>16.1</ele>
        <time>2021-03-20T14:38:28Z</time>
      </trkpt>
      <trkpt lat="56.47136" lon="-5.36172">
        <ele>15.04</ele>
        <time>2021-03-20T14:38:31Z</time>
      </trkpt>
      <trkpt lat="56.4714" lon="-5.36127">
        <ele>13.74</ele>
        <time>2021-03-20T14:38:34Z</time>
      </trkpt>
      <trkpt lat="56.4714" lon="-5.3608">
        <ele>12.03</ele>
        <time>2021-03-20T14:38:36Z</time>
      </trkpt>
      <trkpt lat="56.47126" lon="-5.36012">
        <ele>8.02</ele>
        <time>2021-03-20T14:38:39Z</time>
      </trkpt>
      <trkpt lat="56.47107" lon="-5.35903">
        <ele>8.06</ele>
        <time>2021-03-20T14:38:42Z</time>
      </trkpt>
      <trkpt lat="56.47103" lon="-5.3586">
        <ele>7.88</ele>
        <time>2021-03-20T14:38:45Z</time>
      </trkpt>
      <trkpt lat="56.47104" lon="-5.35806">
        <ele>7.78</ele>
        <time>2021-03-20T14:38:48Z</time>
      </trkpt>
      <trkpt lat="56.47116" lon="-5.35674">
        <ele>6.87</ele>
        <time>2021-03-20T14:38:51Z</time>
      </trkpt>
      <trkpt lat="56.47117" lon="-5.35633">
        <ele>6.97</ele>
        <time>2021-03-20T14:38:54Z</time>
      </trkpt>
      <trkpt lat="56.47106" lon="-5.35554">
        <ele>6</ele>
        <time>2021-03-20T14:38:57Z</time>
      </trkpt>
      <trkpt lat="56.47103" lon="-5.35496">
        <ele>6.69</ele>
        <time>2021-03-20T14:39:00Z</time>
      </trkpt>
      <trkpt lat="56.47098" lon="-5.35462">
        <ele>6.74</ele>
        <time>2021-03-20T14:39:03Z</time>
      </trkpt>
      <trkpt lat="56.47049" lon="-5.35356">
        <ele>3.43</ele>
        <time>2021-03-20T14:39:06Z</time>
      </trkpt>
      <trkpt lat="56.47042" lon="-5.35323">
        <ele>3.29</ele>
        <time>2021-03-20T14:39:09Z</time>
      </trkpt>
      <trkpt lat="56.47058" lon="-5.35234">
        <ele>5.1</ele>
        <time>2021-03-20T14:39:11Z</time>
      </trkpt>
      <trkpt lat="56.47067" lon="-5.35073">
        <ele>7.66</ele>
        <time>2021-03-20T14:39:14Z</time>
      </trkpt>
      <trkpt lat="56.47073" lon="-5.3505">
        <ele>8.16</ele>
        <time>2021-03-20T14:39:17Z</time>
      </trkpt>
      <trkpt lat="56.47129" lon="-5.34945">
        <ele>7.66</ele>
        <time>2021-03-20T14:39:20Z</time>
      </trkpt>
      <trkpt lat="56.47148" lon="-5.34897">
        <ele>7.9</ele>
        <time>2021-03-20T14:39:23Z</time>
      </trkpt>
      <trkpt lat="56.47167" lon="-5.34821">
        <ele>8.08</ele>
        <time>2021-03-20T14:39:26Z</time>
      </trkpt>
      <trkpt lat="56.47179" lon="-5.34746">
        <ele>9.73</ele>
        <time>2021-03-20T14:39:29Z</time>
      </trkpt>
      <trkpt lat="56.47181" lon="-5.34671">
        <ele>7.46</ele>
        <time>2021-03-20T14:39:32Z</time>
      </trkpt>
      <trkpt lat="56.47178" lon="-5.34574">
        <ele>4.93</ele>
        <time>2021-03-20T14:39:35Z</time>
      </trkpt>
      <trkpt lat="56.47173" lon="-5.3452">
        <ele>7.16</ele>
        <time>2021-03-20T14:39:38Z</time>
      </trkpt>
      <trkpt lat="56.47143" lon="-5.34455">
        <ele>6.68</ele>
        <time>2021-03-20T14:39:41Z</time>
      </trkpt>
      <trkpt lat="56.47133" lon="-5.34416">
        <ele>7.4</ele>
        <time>2021-03-20T14:39:44Z</time>
      </trkpt>
      <trkpt lat="56.47131" lon="-5.34375">
        <ele>7.55</ele>
        <time>2021-03-20T14:39:46Z</time>
      </trkpt>
      <trkpt lat="56.47143" lon="-5.34273">
        <ele>4.45</ele>
        <time>2021-03-20T14:39:49Z</time>
      </trkpt>
      <trkpt lat="56.47143" lon="-5.34223">
        <ele>4.54</ele>
        <time>2021-03-20T14:39:52Z</time>
      </trkpt>
      <trkpt lat="56.47123" lon="-5.34008">
        <ele>9.99</ele>
        <time>2021-03-20T14:39:55Z</time>
      </trkpt>
      <trkpt lat="56.47112" lon="-5.33939">
        <ele>5.28</ele>
        <time>2021-03-20T14:39:58Z</time>
      </trkpt>
      <trkpt lat="56.47091" lon="-5.33886">
        <ele>4.9</ele>
        <time>2021-03-20T14:40:01Z</time>
      </trkpt>
      <trkpt lat="56.47065" lon="-5.33836">
        <ele>4.59</ele>
        <time>2021-03-20T14:40:04Z</time>
      </trkpt>
      <trkpt lat="56.4704" lon="-5.33768">
        <ele>5.16</ele>
        <time>2021-03-20T14:40:07Z</time>
      </trkpt>
      <trkpt lat="56.4702" lon="-5.33751">
        <ele>5.35</ele>
        <time>2021-03-20T14:40:10Z</time>
      </trkpt>
      <trkpt lat="56.46983" lon="-5.33736">
        <ele>5.89</ele>
        <time>2021-03-20T14:40:13Z</time>
      </trkpt>
      <trkpt lat="56.46934" lon="-5.33688">
        <ele>5.87</ele>
        <time>2021-03-20T14:40:16Z</time>
      </trkpt>
      <trkpt lat="56.46907" lon="-5.33655">
        <ele>4.53</ele>
        <time>2021-03-20T14:40:19Z</time>
      </trkpt>
      <trkpt lat="56.46885" lon="-5.33615">
        <ele>4.3</ele>
        <time>2021-03-20T14:40:21Z</time>
      </trkpt>
      <trkpt lat="56.46859" lon="-5.33541">
        <ele>4.38</ele>
        <time>2021-03-20T14:40:24Z</time>
      </trkpt>
      <trkpt lat="56.46821" lon="-5.33467">
        <ele>5.46</ele>
        <time>2021-03-20T14:40:27Z</time>
      </trkpt>
      <trkpt lat="56.46685" lon="-5.33321">
        <ele>6.09</ele>
        <time>2021-03-20T14:40:30Z</time>
      </trkpt>
      <trkpt lat="56.4663" lon="-5.33235">
        <ele>5.35</ele>
        <time>2021-03-20T14:40:33Z</time>
      </trkpt>
      <trkpt lat="56.4663" lon="-5.33201">
        <ele>5.35</ele>
        <time>2021-03-20T14:40:36Z</time>
      </trkpt>
      <trkpt lat="56.46634" lon="-5.33132">
        <ele>5.61</ele>
        <time>2021-03-20T14:40:39Z</time>
      </trkpt>
      <trkpt lat="56.46629" lon="-5.33092">
        <ele>5.26</ele>
        <time>2021-03-20T14:40:42Z</time>
      </trkpt>
      <trkpt lat="56.46597" lon="-5.32977">
        <ele>5.42</ele>
        <time>2021-03-20T14:40:45Z</time>
      </trkpt>
      <trkpt lat="56.46588" lon="-5.32934">
        <ele>5.33</ele>
        <time>2021-03-20T14:40:48Z</time>
      </trkpt>
      <trkpt lat="56.46589" lon="-5.32888">
        <ele>5.57</ele>
        <time>2021-03-20T14:40:51Z</time>
      </trkpt>
      <trkpt lat="56.46614" lon="-5.3284">
        <ele>5.68</ele>
        <time>2021-03-20T14:40:54Z</time>
      </trkpt>
      <trkpt lat="56.46634" lon="-5.32791">
        <ele>3.76</ele>
        <time>2021-03-20T14:40:56Z</time>
      </trkpt>
      <trkpt lat="56.46659" lon="-5.32692">
        <ele>4.08</ele>
        <time>2021-03-20T14:40:59Z</time>
      </trkpt>
      <trkpt lat="56.46674" lon="-5.32591">
        <ele>2.93</ele>
        <time>2021-03-20T14:41:02Z</time>
      </trkpt>
      <trkpt lat="56.46676" lon="-5.32514">
        <ele>3.84</ele>
        <time>2021-03-20T14:41:05Z</time>
      </trkpt>
      <trkpt lat="56.46668" lon="-5.32452">
        <ele>3.02</ele>
        <time>2021-03-20T14:41:08Z</time>
      </trkpt>
      <trkpt lat="56.46643" lon="-5.32394">
        <ele>2.8</ele>
        <time>2021-03-20T14:41:11Z</time>
      </trkpt>
      <trkpt lat="56.46574" lon="-5.32285">
        <ele>3.48</ele>
        <time>2021-03-20T14:41:14Z</time>
      </trkpt>
      <trkpt lat="56.46527" lon="-5.32232">
        <ele>3.62</ele>
        <time>2021-03-20T14:41:17Z</time>
      </trkpt>
      <trkpt lat="56.46506" lon="-5.32202">
        <ele>3.97</ele>
        <time>2021-03-20T14:41:20Z</time>
      </trkpt>
      <trkpt lat="56.46486" lon="-5.3216">
        <ele>6.26</ele>
        <time>2021-03-20T14:41:23Z</time>
      </trkpt>
      <trkpt lat="56.46378" lon="-5.31883">
        <ele>1.72</ele>
        <time>2021-03-20T14:41:26Z</time>
      </trkpt>
      <trkpt lat="56.46376" lon="-5.31846">
        <ele>2.7</ele>
        <time>2021-03-20T14:41:29Z</time>
      </trkpt>
      <trkpt lat="56.46416" lon="-5.31719">
        <ele>5.91</ele>
        <time>2021-03-20T14:41:31Z</time>
      </trkpt>
      <trkpt lat="56.46419" lon="-5.31671">
        <ele>6.32</ele>
        <time>2021-03-20T14:41:34Z</time>
      </trkpt>
      <trkpt lat="56.46417" lon="-5.31625">
        <ele>4.81</ele>
        <time>2021-03-20T14:41:37Z</time>
      </trkpt>
      <trkpt lat="56.46392" lon="-5.31515">
        <ele>3.54</ele>
        <time>2021-03-20T14:41:40Z</time>
      </trkpt>
      <trkpt lat="56.46369" lon="-5.31359">
        <ele>1</ele>
        <time>2021-03-20T14:41:43Z</time>
      </trkpt>
      <trkpt lat="56.46345" lon="-5.31292">
        <ele>1.58</ele>
        <time>2021-03-20T14:41:46Z</time>
      </trkpt>
      <trkpt lat="56.46315" lon="-5.31131">
        <ele>1.63</ele>
        <time>2021-03-20T14:41:49Z</time>
      </trkpt>
      <trkpt lat="56.46311" lon="-5.31084">
        <ele>2.2</ele>
        <time>2021-03-20T14:41:52Z</time>
      </trkpt>
      <trkpt lat="56.46317" lon="-5.31038">
        <ele>2.84</ele>
        <time>2021-03-20T14:41:55Z</time>
      </trkpt>
      <trkpt lat="56.46328" lon="-5.30996">
        <ele>2.64</ele>
        <time>2021-03-20T14:41:58Z</time>
      </trkpt>
      <trkpt lat="56.46367" lon="-5.30904">
        <ele>4.51</ele>
        <time>2021-03-20T14:42:01Z</time>
      </trkpt>
      <trkpt lat="56.46372" lon="-5.30854">
        <ele>4.7</ele>
        <time>2021-03-20T14:42:04Z</time>
      </trkpt>
      <trkpt lat="56.46339" lon="-5.30655">
        <ele>5.22</ele>
        <time>2021-03-20T14:42:06Z</time>
      </trkpt>
      <trkpt lat="56.46295" lon="-5.30563">
        <ele>3.18</ele>
        <time>2021-03-20T14:42:09Z</time>
      </trkpt>
      <trkpt lat="56.46294" lon="-5.3054">
        <ele>2.98</ele>
        <time>2021-03-20T14:42:12Z</time>
      </trkpt>
      <trkpt lat="56.46315" lon="-5.30448">
        <ele>4.52</ele>
        <time>2021-03-20T14:42:15Z</time>
      </trkpt>
      <trkpt lat="56.46337" lon="-5.30314">
        <ele>7.16</ele>
        <time>2021-03-20T14:42:18Z</time>
      </trkpt>
      <trkpt lat="56.46347" lon="-5.3024">
        <ele>6.01</ele>
        <time>2021-03-20T14:42:21Z</time>
      </trkpt>
      <trkpt lat="56.46348" lon="-5.30076">
        <ele>4</ele>
        <time>2021-03-20T14:42:24Z</time>
      </trkpt>
      <trkpt lat="56.46344" lon="-5.29846">
        <ele>3.54</ele>
        <time>2021-03-20T14:42:27Z</time>
      </trkpt>
      <trkpt lat="56.46339" lon="-5.29787">
        <ele>4.66</ele>
        <time>2021-03-20T14:42:30Z</time>
      </trkpt>
      <trkpt lat="56.46329" lon="-5.29762">
        <ele>4.71</ele>
        <time>2021-03-20T14:42:33Z</time>
      </trkpt>
      <trkpt lat="56.46317" lon="-5.29743">
        <ele>3.79</ele>
        <time>2021-03-20T14:42:36Z</time>
      </trkpt>
      <trkpt lat="56.46303" lon="-5.2973">
        <ele>2.89</ele>
        <time>2021-03-20T14:42:39Z</time>
      </trkpt>
      <trkpt lat="56.46283" lon="-5.29714">
        <ele>2.49</ele>
        <time>2021-03-20T14:42:41Z</time>
      </trkpt>
      <trkpt lat="56.46266" lon="-5.29695">
        <ele>2.55</ele>
        <time>2021-03-20T14:42:44Z</time>
      </trkpt>
      <trkpt lat="56.46159" lon="-5.29417">
        <ele>4.42</ele>
        <time>2021-03-20T14:42:47Z</time>
      </trkpt>
      <trkpt lat="56.46159" lon="-5.29396">
        <ele>3.91</ele>
        <time>2021-03-20T14:42:50Z</time>
      </trkpt>
      <trkpt lat="56.46217" lon="-5.29204">
        <ele>5.93</ele>
        <time>2021-03-20T14:42:53Z</time>
      </trkpt>
      <trkpt lat="56.46222" lon="-5.29132">
        <ele>7.03</ele>
        <time>2021-03-20T14:42:56Z</time>
      </trkpt>
      <trkpt lat="56.46223" lon="-5.29072">
        <ele>7.43</ele>
        <time>2021-03-20T14:42:59Z</time>
      </trkpt>
      <trkpt lat="56.46213" lon="-5.29024">
        <ele>8.73</ele>
        <time>2021-03-20T14:43:02Z</time>
      </trkpt>
      <trkpt lat="56.4619" lon="-5.28964">
        <ele>6.77</ele>
        <time>2021-03-20T14:43:05Z</time>
      </trkpt>
      <trkpt lat="56.46188" lon="-5.28946">
        <ele>7.27</ele>
        <time>2021-03-20T14:43:08Z</time>
      </trkpt>
      <trkpt lat="56.46193" lon="-5.28919">
        <ele>10.63</ele>
        <time>2021-03-20T14:43:11Z</time>
      </trkpt>
      <trkpt lat="56.46287" lon="-5.28801">
        <ele>22.97</ele>
        <time>2021-03-20T14:43:14Z</time>
      </trkpt>
      <trkpt lat="56.46293" lon="-5.28774">
        <ele>26.22</ele>
        <time>2021-03-20T14:43:16Z</time>
      </trkpt>
      <trkpt lat="56.46279" lon="-5.28729">
        <ele>30.47</ele>
        <time>2021-03-20T14:43:19Z</time>
      </trkpt>
      <trkpt lat="56.4626" lon="-5.28702">
        <ele>28.32</ele>
        <time>2021-03-20T14:43:22Z</time>
      </trkpt>
      <trkpt lat="56.46254" lon="-5.28684">
        <ele>26.75</ele>
        <time>2021-03-20T14:43:25Z</time>
      </trkpt>
      <trkpt lat="56.46253" lon="-5.28613">
        <ele>25.43</ele>
        <time>2021-03-20T14:43:28Z</time>
      </trkpt>
      <trkpt lat="56.46228" lon="-5.28468">
        <ele>24.64</ele>
        <time>2021-03-20T14:43:31Z</time>
      </trkpt>
      <trkpt lat="56.46227" lon="-5.28413">
        <ele>22.58</ele>
        <time>2021-03-20T14:43:34Z</time>
      </trkpt>
      <trkpt lat="56.46249" lon="-5.28359">
        <ele>19.84</ele>
        <time>2021-03-20T14:43:37Z</time>
      </trkpt>
      <trkpt lat="56.46268" lon="-5.28289">
        <ele>17.15</ele>
        <time>2021-03-20T14:43:40Z</time>
      </trkpt>
      <trkpt lat="56.4634" lon="-5.27996">
        <ele>8.24</ele>
        <time>2021-03-20T14:43:43Z</time>
      </trkpt>
      <trkpt lat="56.46377" lon="-5.27935">
        <ele>7.46</ele>
        <time>2021-03-20T14:43:46Z</time>
      </trkpt>
      <trkpt lat="56.46477" lon="-5.27761">
        <ele>12.01</ele>
        <time>2021-03-20T14:43:48Z</time>
      </trkpt>
      <trkpt lat="56.46631" lon="-5.2733">
        <ele>18.61</ele>
        <time>2021-03-20T14:43:51Z</time>
      </trkpt>
      <trkpt lat="56.46631" lon="-5.27271">
        <ele>19.51</ele>
        <time>2021-03-20T14:43:54Z</time>
      </trkpt>
      <trkpt lat="56.46648" lon="-5.27186">
        <ele>20.37</ele>
        <time>2021-03-20T14:43:57Z</time>
      </trkpt>
      <trkpt lat="56.4669" lon="-5.27095">
        <ele>24.13</ele>
        <time>2021-03-20T14:44:00Z</time>
      </trkpt>
      <trkpt lat="56.46717" lon="-5.27061">
        <ele>25.68</ele>
        <time>2021-03-20T14:44:03Z</time>
      </trkpt>
      <trkpt lat="56.4678" lon="-5.27015">
        <ele>30.35</ele>
        <time>2021-03-20T14:44:06Z</time>
      </trkpt>
      <trkpt lat="56.46851" lon="-5.27021">
        <ele>37.34</ele>
        <time>2021-03-20T14:44:09Z</time>
      </trkpt>
      <trkpt lat="56.46883" lon="-5.26992">
        <ele>36.74</ele>
        <time>2021-03-20T14:44:12Z</time>
      </trkpt>
      <trkpt lat="56.46898" lon="-5.2699">
        <ele>38.24</ele>
        <time>2021-03-20T14:44:15Z</time>
      </trkpt>
      <trkpt lat="56.46927" lon="-5.27002">
        <ele>42.01</ele>
        <time>2021-03-20T14:44:17Z</time>
      </trkpt>
      <trkpt lat="56.46969" lon="-5.27054">
        <ele>49.75</ele>
        <time>2021-03-20T14:44:21Z</time>
      </trkpt>
      <trkpt lat="56.47001" lon="-5.27087">
        <ele>55.4</ele>
        <time>2021-03-20T14:44:24Z</time>
      </trkpt>
      <trkpt lat="56.47135" lon="-5.27176">
        <ele>64.75</ele>
        <time>2021-03-20T14:44:28Z</time>
      </trkpt>
      <trkpt lat="56.4725" lon="-5.27227">
        <ele>78.86</ele>
        <time>2021-03-20T14:44:31Z</time>
      </trkpt>
      <trkpt lat="56.4729" lon="-5.27261">
        <ele>83.13</ele>
        <time>2021-03-20T14:44:35Z</time>
      </trkpt>
      <trkpt lat="56.47359" lon="-5.27341">
        <ele>92.06</ele>
        <time>2021-03-20T14:44:39Z</time>
      </trkpt>
      <trkpt lat="56.47461" lon="-5.27476">
        <ele>106.46</ele>
        <time>2021-03-20T14:44:42Z</time>
      </trkpt>
      <trkpt lat="56.47485" lon="-5.27497">
        <ele>109.08</ele>
        <time>2021-03-20T14:44:46Z</time>
      </trkpt>
      <trkpt lat="56.47503" lon="-5.27498">
        <ele>109.97</ele>
        <time>2021-03-20T14:44:49Z</time>
      </trkpt>
      <trkpt lat="56.47525" lon="-5.27496">
        <ele>111.35</ele>
        <time>2021-03-20T14:44:53Z</time>
      </trkpt>
      <trkpt lat="56.47596" lon="-5.27464">
        <ele>115.23</ele>
        <time>2021-03-20T14:44:56Z</time>
      </trkpt>
      <trkpt lat="56.47812" lon="-5.2747">
        <ele>141.54</ele>
        <time>2021-03-20T14:45:00Z</time>
      </trkpt>
      <trkpt lat="56.47836" lon="-5.27461">
        <ele>143.25</ele>
        <time>2021-03-20T14:45:04Z</time>
      </trkpt>
      <trkpt lat="56.4786" lon="-5.27443">
        <ele>145.43</ele>
        <time>2021-03-20T14:45:07Z</time>
      </trkpt>
      <trkpt lat="56.47892" lon="-5.27399">
        <ele>149.69</ele>
        <time>2021-03-20T14:45:11Z</time>
      </trkpt>
      <trkpt lat="56.47936" lon="-5.27349">
        <ele>153.91</ele>
        <time>2021-03-20T14:45:14Z</time>
      </trkpt>
      <trkpt lat="56.4795" lon="-5.27344">
        <ele>155.35</ele>
        <time>2021-03-20T14:45:18Z</time>
      </trkpt>
      <trkpt lat="56.48051" lon="-5.27381">
        <ele>166.46</ele>
        <time>2021-03-20T14:45:21Z</time>
      </trkpt>
      <trkpt lat="56.48111" lon="-5.27411">
        <ele>167.41</ele>
        <time>2021-03-20T14:45:25Z</time>
      </trkpt>
      <trkpt lat="56.48183" lon="-5.27457">
        <ele>167.6</ele>
        <time>2021-03-20T14:45:29Z</time>
      </trkpt>
      <trkpt lat="56.48489" lon="-5.27671">
        <ele>166.01</ele>
        <time>2021-03-20T14:45:32Z</time>
      </trkpt>
      <trkpt lat="56.4865" lon="-5.27741">
        <ele>161.49</ele>
        <time>2021-03-20T14:45:36Z</time>
      </trkpt>
      <trkpt lat="56.48698" lon="-5.27768">
        <ele>158.33</ele>
        <time>2021-03-20T14:45:39Z</time>
      </trkpt>
      <trkpt lat="56.48732" lon="-5.27795">
        <ele>158.19</ele>
        <time>2021-03-20T14:45:43Z</time>
      </trkpt>
      <trkpt lat="56.48797" lon="-5.27891">
        <ele>157.4</ele>
        <time>2021-03-20T14:45:46Z</time>
      </trkpt>
      <trkpt lat="56.48879" lon="-5.27962">
        <ele>155.68</ele>
        <time>2021-03-20T14:45:50Z</time>
      </trkpt>
      <trkpt lat="56.49125" lon="-5.28151">
        <ele>150.95</ele>
        <time>2021-03-20T14:45:54Z</time>
      </trkpt>
      <trkpt lat="56.49241" lon="-5.28252">
        <ele>152.01</ele>
        <time>2021-03-20T14:45:57Z</time>
      </trkpt>
      <trkpt lat="56.4928" lon="-5.28294">
        <ele>150.16</ele>
        <time>2021-03-20T14:46:01Z</time>
      </trkpt>
      <trkpt lat="56.49313" lon="-5.28338">
        <ele>150.14</ele>
        <time>2021-03-20T14:46:04Z</time>
      </trkpt>
      <trkpt lat="56.49341" lon="-5.28368">
        <ele>149.82</ele>
        <time>2021-03-20T14:46:08Z</time>
      </trkpt>
      <trkpt lat="56.4937" lon="-5.28409">
        <ele>150.02</ele>
        <time>2021-03-20T14:46:11Z</time>
      </trkpt>
      <trkpt lat="56.4941" lon="-5.28458">
        <ele>149.18</ele>
        <time>2021-03-20T14:46:15Z</time>
      </trkpt>
      <trkpt lat="56.49519" lon="-5.28577">
        <ele>149.76</ele>
        <time>2021-03-20T14:46:19Z</time>
      </trkpt>
      <trkpt lat="56.49684" lon="-5.28812">
        <ele>145.64</ele>
        <time>2021-03-20T14:46:22Z</time>
      </trkpt>
      <trkpt lat="56.49747" lon="-5.28857">
        <ele>141.18</ele>
        <time>2021-03-20T14:46:26Z</time>
      </trkpt>
      <trkpt lat="56.49774" lon="-5.28894">
        <ele>140.67</ele>
        <time>2021-03-20T14:46:29Z</time>
      </trkpt>
      <trkpt lat="56.49801" lon="-5.28952">
        <ele>140.67</ele>
        <time>2021-03-20T14:46:33Z</time>
      </trkpt>
      <trkpt lat="56.49846" lon="-5.29066">
        <ele>142.96</ele>
        <time>2021-03-20T14:46:36Z</time>
      </trkpt>
      <trkpt lat="56.49902" lon="-5.29167">
        <ele>141.92</ele>
        <time>2021-03-20T14:46:40Z</time>
      </trkpt>
      <trkpt lat="56.49936" lon="-5.29264">
        <ele>136.75</ele>
        <time>2021-03-20T14:46:44Z</time>
      </trkpt>
      <trkpt lat="56.49992" lon="-5.29437">
        <ele>133.7</ele>
        <time>2021-03-20T14:46:47Z</time>
      </trkpt>
      <trkpt lat="56.50041" lon="-5.29547">
        <ele>133.74</ele>
        <time>2021-03-20T14:46:51Z</time>
      </trkpt>
      <trkpt lat="56.50058" lon="-5.29577">
        <ele>135.19</ele>
        <time>2021-03-20T14:46:54Z</time>
      </trkpt>
      <trkpt lat="56.5008" lon="-5.29605">
        <ele>136.08</ele>
        <time>2021-03-20T14:46:58Z</time>
      </trkpt>
      <trkpt lat="56.50195" lon="-5.29707">
        <ele>137</ele>
        <time>2021-03-20T14:47:02Z</time>
      </trkpt>
      <trkpt lat="56.50224" lon="-5.2975">
        <ele>137</ele>
        <time>2021-03-20T14:47:05Z</time>
      </trkpt>
      <trkpt lat="56.50323" lon="-5.29902">
        <ele>133.53</ele>
        <time>2021-03-20T14:47:09Z</time>
      </trkpt>
      <trkpt lat="56.50336" lon="-5.29943">
        <ele>133.01</ele>
        <time>2021-03-20T14:47:12Z</time>
      </trkpt>
      <trkpt lat="56.50339" lon="-5.29976">
        <ele>134.72</ele>
        <time>2021-03-20T14:47:16Z</time>
      </trkpt>
      <trkpt lat="56.50364" lon="-5.30027">
        <ele>133.78</ele>
        <time>2021-03-20T14:47:19Z</time>
      </trkpt>
      <trkpt lat="56.50388" lon="-5.30056">
        <ele>132.22</ele>
        <time>2021-03-20T14:47:23Z</time>
      </trkpt>
      <trkpt lat="56.50425" lon="-5.3009">
        <ele>136.04</ele>
        <time>2021-03-20T14:47:27Z</time>
      </trkpt>
      <trkpt lat="56.5044" lon="-5.30099">
        <ele>137.77</ele>
        <time>2021-03-20T14:47:30Z</time>
      </trkpt>
      <trkpt lat="56.50472" lon="-5.30106">
        <ele>138.99</ele>
        <time>2021-03-20T14:47:34Z</time>
      </trkpt>
      <trkpt lat="56.50514" lon="-5.3012">
        <ele>141.27</ele>
        <time>2021-03-20T14:47:37Z</time>
      </trkpt>
      <trkpt lat="56.50568" lon="-5.30156">
        <ele>147.25</ele>
        <time>2021-03-20T14:47:41Z</time>
      </trkpt>
      <trkpt lat="56.5071" lon="-5.30286">
        <ele>155.44</ele>
        <time>2021-03-20T14:47:44Z</time>
      </trkpt>
      <trkpt lat="56.50775" lon="-5.30352">
        <ele>149.66</ele>
        <time>2021-03-20T14:47:48Z</time>
      </trkpt>
      <trkpt lat="56.50839" lon="-5.30454">
        <ele>146.86</ele>
        <time>2021-03-20T14:47:52Z</time>
      </trkpt>
      <trkpt lat="56.50952" lon="-5.30568">
        <ele>127.11</ele>
        <time>2021-03-20T14:47:55Z</time>
      </trkpt>
      <trkpt lat="56.50971" lon="-5.30638">
        <ele>125.34</ele>
        <time>2021-03-20T14:47:59Z</time>
      </trkpt>
      <trkpt lat="56.51017" lon="-5.30723">
        <ele>115.31</ele>
        <time>2021-03-20T14:48:02Z</time>
      </trkpt>
      <trkpt lat="56.51027" lon="-5.30768">
        <ele>112.13</ele>
        <time>2021-03-20T14:48:06Z</time>
      </trkpt>
      <trkpt lat="56.51121" lon="-5.30955">
        <ele>101.72</ele>
        <time>2021-03-20T14:48:09Z</time>
      </trkpt>
      <trkpt lat="56.51131" lon="-5.31016">
        <ele>94.91</ele>
        <time>2021-03-20T14:48:13Z</time>
      </trkpt>
      <trkpt lat="56.51145" lon="-5.31049">
        <ele>91.2</ele>
        <time>2021-03-20T14:48:17Z</time>
      </trkpt>
      <trkpt lat="56.51193" lon="-5.31106">
        <ele>86.12</ele>
        <time>2021-03-20T14:48:20Z</time>
      </trkpt>
      <trkpt lat="56.5126" lon="-5.31179">
        <ele>80.71</ele>
        <time>2021-03-20T14:48:24Z</time>
      </trkpt>
      <trkpt lat="56.51342" lon="-5.31343">
        <ele>72.93</ele>
        <time>2021-03-20T14:48:27Z</time>
      </trkpt>
      <trkpt lat="56.51369" lon="-5.31393">
        <ele>71.19</ele>
        <time>2021-03-20T14:48:31Z</time>
      </trkpt>
      <trkpt lat="56.51387" lon="-5.31449">
        <ele>68.5</ele>
        <time>2021-03-20T14:48:34Z</time>
      </trkpt>
      <trkpt lat="56.51405" lon="-5.3146">
        <ele>66.47</ele>
        <time>2021-03-20T14:48:38Z</time>
      </trkpt>
      <trkpt lat="56.51423" lon="-5.31465">
        <ele>63.6</ele>
        <time>2021-03-20T14:48:42Z</time>
      </trkpt>
      <trkpt lat="56.51458" lon="-5.31468">
        <ele>57.69</ele>
        <time>2021-03-20T14:48:45Z</time>
      </trkpt>
      <trkpt lat="56.51502" lon="-5.31461">
        <ele>54.32</ele>
        <time>2021-03-20T14:48:49Z</time>
      </trkpt>
      <trkpt lat="56.51562" lon="-5.31433">
        <ele>53.2</ele>
        <time>2021-03-20T14:48:52Z</time>
      </trkpt>
      <trkpt lat="56.51601" lon="-5.31419">
        <ele>51.73</ele>
        <time>2021-03-20T14:48:56Z</time>
      </trkpt>
      <trkpt lat="56.51623" lon="-5.3142">
        <ele>49.73</ele>
        <time>2021-03-20T14:48:59Z</time>
      </trkpt>
      <trkpt lat="56.51645" lon="-5.31436">
        <ele>47.32</ele>
        <time>2021-03-20T14:49:03Z</time>
      </trkpt>
      <trkpt lat="56.51668" lon="-5.31476">
        <ele>46</ele>
        <time>2021-03-20T14:49:07Z</time>
      </trkpt>
      <trkpt lat="56.51694" lon="-5.31526">
        <ele>46</ele>
        <time>2021-03-20T14:49:10Z</time>
      </trkpt>
      <trkpt lat="56.51722" lon="-5.31616">
        <ele>44.83</ele>
        <time>2021-03-20T14:49:14Z</time>
      </trkpt>
      <trkpt lat="56.51744" lon="-5.31703">
        <ele>40.06</ele>
        <time>2021-03-20T14:49:17Z</time>
      </trkpt>
      <trkpt lat="56.51756" lon="-5.31726">
        <ele>38.64</ele>
        <time>2021-03-20T14:49:21Z</time>
      </trkpt>
      <trkpt lat="56.51767" lon="-5.31735">
        <ele>37.93</ele>
        <time>2021-03-20T14:49:24Z</time>
      </trkpt>
      <trkpt lat="56.518" lon="-5.31743">
        <ele>36.43</ele>
        <time>2021-03-20T14:49:28Z</time>
      </trkpt>
      <trkpt lat="56.51822" lon="-5.31768">
        <ele>34.8</ele>
        <time>2021-03-20T14:49:32Z</time>
      </trkpt>
      <trkpt lat="56.51842" lon="-5.31799">
        <ele>34.47</ele>
        <time>2021-03-20T14:49:35Z</time>
      </trkpt>
      <trkpt lat="56.51894" lon="-5.31986">
        <ele>30.67</ele>
        <time>2021-03-20T14:49:39Z</time>
      </trkpt>
      <trkpt lat="56.5192" lon="-5.32046">
        <ele>29.87</ele>
        <time>2021-03-20T14:49:42Z</time>
      </trkpt>
      <trkpt lat="56.51954" lon="-5.32113">
        <ele>29.74</ele>
        <time>2021-03-20T14:49:46Z</time>
      </trkpt>
      <trkpt lat="56.51967" lon="-5.32123">
        <ele>27.95</ele>
        <time>2021-03-20T14:49:49Z</time>
      </trkpt>
      <trkpt lat="56.52007" lon="-5.32124">
        <ele>21.09</ele>
        <time>2021-03-20T14:49:53Z</time>
      </trkpt>
      <trkpt lat="56.52026" lon="-5.32088">
        <ele>17.37</ele>
        <time>2021-03-20T14:49:57Z</time>
      </trkpt>
      <trkpt lat="56.52143" lon="-5.31921">
        <ele>16.55</ele>
        <time>2021-03-20T14:50:00Z</time>
      </trkpt>
      <trkpt lat="56.5217" lon="-5.31926">
        <ele>14.65</ele>
        <time>2021-03-20T14:50:04Z</time>
      </trkpt>
      <trkpt lat="56.52174" lon="-5.31867">
        <ele>16.57</ele>
        <time>2021-03-20T14:50:06Z</time>
      </trkpt>
      <trkpt lat="56.52181" lon="-5.31803">
        <ele>17.56</ele>
        <time>2021-03-20T14:50:09Z</time>
      </trkpt>
      <trkpt lat="56.52195" lon="-5.31747">
        <ele>17.9</ele>
        <time>2021-03-20T14:50:12Z</time>
      </trkpt>
      <trkpt lat="56.5221" lon="-5.31698">
        <ele>16.51</ele>
        <time>2021-03-20T14:50:14Z</time>
      </trkpt>
      <trkpt lat="56.52246" lon="-5.31625">
        <ele>14.57</ele>
        <time>2021-03-20T14:50:17Z</time>
      </trkpt>
      <trkpt lat="56.52273" lon="-5.3159">
        <ele>15</ele>
        <time>2021-03-20T14:50:20Z</time>
      </trkpt>
      <trkpt lat="56.52371" lon="-5.31485">
        <ele>15.35</ele>
        <time>2021-03-20T14:50:22Z</time>
      </trkpt>
      <trkpt lat="56.52592" lon="-5.31232">
        <ele>12.66</ele>
        <time>2021-03-20T14:50:25Z</time>
      </trkpt>
      <trkpt lat="56.52639" lon="-5.31182">
        <ele>13.44</ele>
        <time>2021-03-20T14:50:28Z</time>
      </trkpt>
      <trkpt lat="56.52698" lon="-5.31137">
        <ele>12.94</ele>
        <time>2021-03-20T14:50:30Z</time>
      </trkpt>
      <trkpt lat="56.52762" lon="-5.31112">
        <ele>9.58</ele>
        <time>2021-03-20T14:50:33Z</time>
      </trkpt>
      <trkpt lat="56.52818" lon="-5.31099">
        <ele>8.54</ele>
        <time>2021-03-20T14:50:35Z</time>
      </trkpt>
      <trkpt lat="56.52845" lon="-5.31082">
        <ele>7.6</ele>
        <time>2021-03-20T14:50:38Z</time>
      </trkpt>
      <trkpt lat="56.52872" lon="-5.31058">
        <ele>7.49</ele>
        <time>2021-03-20T14:50:41Z</time>
      </trkpt>
      <trkpt lat="56.52894" lon="-5.31023">
        <ele>8</ele>
        <time>2021-03-20T14:50:43Z</time>
      </trkpt>
      <trkpt lat="56.52931" lon="-5.30941">
        <ele>13.77</ele>
        <time>2021-03-20T14:50:46Z</time>
      </trkpt>
      <trkpt lat="56.52954" lon="-5.30897">
        <ele>17.72</ele>
        <time>2021-03-20T14:50:49Z</time>
      </trkpt>
      <trkpt lat="56.52978" lon="-5.30866">
        <ele>20.5</ele>
        <time>2021-03-20T14:50:51Z</time>
      </trkpt>
      <trkpt lat="56.53008" lon="-5.30842">
        <ele>21.12</ele>
        <time>2021-03-20T14:50:54Z</time>
      </trkpt>
      <trkpt lat="56.53106" lon="-5.3079">
        <ele>21.03</ele>
        <time>2021-03-20T14:50:57Z</time>
      </trkpt>
      <trkpt lat="56.53148" lon="-5.30772">
        <ele>20.69</ele>
        <time>2021-03-20T14:50:59Z</time>
      </trkpt>
      <trkpt lat="56.53186" lon="-5.30772">
        <ele>17.4</ele>
        <time>2021-03-20T14:51:02Z</time>
      </trkpt>
      <trkpt lat="56.53254" lon="-5.30798">
        <ele>11.12</ele>
        <time>2021-03-20T14:51:05Z</time>
      </trkpt>
      <trkpt lat="56.53272" lon="-5.30798">
        <ele>9.73</ele>
        <time>2021-03-20T14:51:07Z</time>
      </trkpt>
      <trkpt lat="56.53291" lon="-5.30791">
        <ele>9.55</ele>
        <time>2021-03-20T14:51:10Z</time>
      </trkpt>
      <trkpt lat="56.53308" lon="-5.30777">
        <ele>7.28</ele>
        <time>2021-03-20T14:51:13Z</time>
      </trkpt>
      <trkpt lat="56.53329" lon="-5.30751">
        <ele>10.23</ele>
        <time>2021-03-20T14:51:15Z</time>
      </trkpt>
      <trkpt lat="56.53365" lon="-5.30674">
        <ele>10.75</ele>
        <time>2021-03-20T14:51:18Z</time>
      </trkpt>
      <trkpt lat="56.53384" lon="-5.30641">
        <ele>8.23</ele>
        <time>2021-03-20T14:51:20Z</time>
      </trkpt>
      <trkpt lat="56.53406" lon="-5.30613">
        <ele>6.17</ele>
        <time>2021-03-20T14:51:23Z</time>
      </trkpt>
      <trkpt lat="56.53451" lon="-5.30577">
        <ele>3.91</ele>
        <time>2021-03-20T14:51:26Z</time>
      </trkpt>
      <trkpt lat="56.53465" lon="-5.3056">
        <ele>5.66</ele>
        <time>2021-03-20T14:51:28Z</time>
      </trkpt>
      <trkpt lat="56.53497" lon="-5.30512">
        <ele>11.66</ele>
        <time>2021-03-20T14:51:31Z</time>
      </trkpt>
      <trkpt lat="56.53542" lon="-5.30435">
        <ele>17.68</ele>
        <time>2021-03-20T14:51:34Z</time>
      </trkpt>
      <trkpt lat="56.53572" lon="-5.30398">
        <ele>20.35</ele>
        <time>2021-03-20T14:51:36Z</time>
      </trkpt>
      <trkpt lat="56.53593" lon="-5.30391">
        <ele>20.86</ele>
        <time>2021-03-20T14:51:39Z</time>
      </trkpt>
      <trkpt lat="56.53612" lon="-5.30392">
        <ele>20.78</ele>
        <time>2021-03-20T14:51:42Z</time>
      </trkpt>
      <trkpt lat="56.53676" lon="-5.30407">
        <ele>16.48</ele>
        <time>2021-03-20T14:51:44Z</time>
      </trkpt>
      <trkpt lat="56.53718" lon="-5.30407">
        <ele>13.18</ele>
        <time>2021-03-20T14:51:47Z</time>
      </trkpt>
      <trkpt lat="56.53779" lon="-5.30399">
        <ele>9.45</ele>
        <time>2021-03-20T14:51:50Z</time>
      </trkpt>
      <trkpt lat="56.53838" lon="-5.30381">
        <ele>11.04</ele>
        <time>2021-03-20T14:51:52Z</time>
      </trkpt>
      <trkpt lat="56.54028" lon="-5.30357">
        <ele>5.57</ele>
        <time>2021-03-20T14:51:55Z</time>
      </trkpt>
      <trkpt lat="56.54062" lon="-5.30345">
        <ele>7.2</ele>
        <time>2021-03-20T14:51:58Z</time>
      </trkpt>
      <trkpt lat="56.54087" lon="-5.30323">
        <ele>6.24</ele>
        <time>2021-03-20T14:52:00Z</time>
      </trkpt>
      <trkpt lat="56.54119" lon="-5.3027">
        <ele>8.5</ele>
        <time>2021-03-20T14:52:03Z</time>
      </trkpt>
      <trkpt lat="56.54162" lon="-5.3021">
        <ele>9.67</ele>
        <time>2021-03-20T14:52:05Z</time>
      </trkpt>
      <trkpt lat="56.54187" lon="-5.30157">
        <ele>7.57</ele>
        <time>2021-03-20T14:52:08Z</time>
      </trkpt>
      <trkpt lat="56.54206" lon="-5.30094">
        <ele>7.05</ele>
        <time>2021-03-20T14:52:11Z</time>
      </trkpt>
      <trkpt lat="56.54218" lon="-5.30034">
        <ele>6.81</ele>
        <time>2021-03-20T14:52:13Z</time>
      </trkpt>
      <trkpt lat="56.54238" lon="-5.29865">
        <ele>8.3</ele>
        <time>2021-03-20T14:52:16Z</time>
      </trkpt>
      <trkpt lat="56.54243" lon="-5.29788">
        <ele>5.34</ele>
        <time>2021-03-20T14:52:19Z</time>
      </trkpt>
      <trkpt lat="56.54255" lon="-5.29732">
        <ele>4.72</ele>
        <time>2021-03-20T14:52:21Z</time>
      </trkpt>
      <trkpt lat="56.54267" lon="-5.29708">
        <ele>4.15</ele>
        <time>2021-03-20T14:52:24Z</time>
      </trkpt>
      <trkpt lat="56.54288" lon="-5.29682">
        <ele>5.1</ele>
        <time>2021-03-20T14:52:27Z</time>
      </trkpt>
      <trkpt lat="56.54331" lon="-5.29644">
        <ele>14.15</ele>
        <time>2021-03-20T14:52:29Z</time>
      </trkpt>
      <trkpt lat="56.54359" lon="-5.29604">
        <ele>14.51</ele>
        <time>2021-03-20T14:52:32Z</time>
      </trkpt>
      <trkpt lat="56.54375" lon="-5.29568">
        <ele>9.25</ele>
        <time>2021-03-20T14:52:35Z</time>
      </trkpt>
      <trkpt lat="56.54386" lon="-5.29529">
        <ele>5.57</ele>
        <time>2021-03-20T14:52:37Z</time>
      </trkpt>
      <trkpt lat="56.54411" lon="-5.29352">
        <ele>13.08</ele>
        <time>2021-03-20T14:52:40Z</time>
      </trkpt>
      <trkpt lat="56.54419" lon="-5.2932">
        <ele>12.75</ele>
        <time>2021-03-20T14:52:43Z</time>
      </trkpt>
      <trkpt lat="56.54426" lon="-5.29323">
        <ele>10.41</ele>
        <time>2021-03-20T14:52:44Z</time>
      </trkpt>
      <trkpt lat="56.54433" lon="-5.29317">
        <ele>9.06</ele>
        <time>2021-03-20T14:52:46Z</time>
      </trkpt>
      <trkpt lat="56.54435" lon="-5.2931">
        <ele>8.79</ele>
        <time>2021-03-20T14:52:48Z</time>
      </trkpt>
      <trkpt lat="56.54435" lon="-5.29303">
        <ele>9.12</ele>
        <time>2021-03-20T14:52:50Z</time>
      </trkpt>
      <trkpt lat="56.54433" lon="-5.29293">
        <ele>10.66</ele>
        <time>2021-03-20T14:52:52Z</time>
      </trkpt>
      <trkpt lat="56.54451" lon="-5.29263">
        <ele>7.6</ele>
        <time>2021-03-20T14:52:54Z</time>
      </trkpt>
      <trkpt lat="56.54482" lon="-5.29204">
        <ele>6.54</ele>
        <time>2021-03-20T14:52:55Z</time>
      </trkpt>
      <trkpt lat="56.54514" lon="-5.29153">
        <ele>7</ele>
        <time>2021-03-20T14:52:57Z</time>
      </trkpt>
      <trkpt lat="56.54549" lon="-5.29115">
        <ele>7.2</ele>
        <time>2021-03-20T14:52:59Z</time>
      </trkpt>
      <trkpt lat="56.54585" lon="-5.29092">
        <ele>7</ele>
        <time>2021-03-20T14:53:01Z</time>
      </trkpt>
      <trkpt lat="56.54658" lon="-5.29069">
        <ele>7.13</ele>
        <time>2021-03-20T14:53:03Z</time>
      </trkpt>
      <trkpt lat="56.54813" lon="-5.29038">
        <ele>4.54</ele>
        <time>2021-03-20T14:53:05Z</time>
      </trkpt>
      <trkpt lat="56.5485" lon="-5.29038">
        <ele>14.71</ele>
        <time>2021-03-20T14:53:06Z</time>
      </trkpt>
      <trkpt lat="56.54878" lon="-5.29045">
        <ele>18.58</ele>
        <time>2021-03-20T14:53:08Z</time>
      </trkpt>
      <trkpt lat="56.54906" lon="-5.29058">
        <ele>18.16</ele>
        <time>2021-03-20T14:53:10Z</time>
      </trkpt>
      <trkpt lat="56.54933" lon="-5.29077">
        <ele>14.95</ele>
        <time>2021-03-20T14:53:12Z</time>
      </trkpt>
      <trkpt lat="56.54957" lon="-5.29105">
        <ele>11.95</ele>
        <time>2021-03-20T14:53:14Z</time>
      </trkpt>
      <trkpt lat="56.54975" lon="-5.29131">
        <ele>10.4</ele>
        <time>2021-03-20T14:53:16Z</time>
      </trkpt>
      <trkpt lat="56.55" lon="-5.29176">
        <ele>10.62</ele>
        <time>2021-03-20T14:53:17Z</time>
      </trkpt>
      <trkpt lat="56.55013" lon="-5.29213">
        <ele>12.23</ele>
        <time>2021-03-20T14:53:19Z</time>
      </trkpt>
      <trkpt lat="56.55018" lon="-5.2924">
        <ele>13.59</ele>
        <time>2021-03-20T14:53:21Z</time>
      </trkpt>
      <trkpt lat="56.55013" lon="-5.29251">
        <ele>12.8</ele>
        <time>2021-03-20T14:53:26Z</time>
      </trkpt>
      <trkpt lat="56.55013" lon="-5.29265">
        <ele>13.05</ele>
        <time>2021-03-20T14:53:30Z</time>
      </trkpt>
      <trkpt lat="56.54993" lon="-5.293">
        <ele>9.52</ele>
        <time>2021-03-20T14:53:35Z</time>
      </trkpt>
      <trkpt lat="56.54977" lon="-5.2935">
        <ele>7.66</ele>
        <time>2021-03-20T14:53:40Z</time>
      </trkpt>
      <trkpt lat="56.54966" lon="-5.29421">
        <ele>8.68</ele>
        <time>2021-03-20T14:53:44Z</time>
      </trkpt>
      <trkpt lat="56.54956" lon="-5.29528">
        <ele>9.7</ele>
        <time>2021-03-20T14:53:49Z</time>
      </trkpt>
      <trkpt lat="56.549" lon="-5.29691">
        <ele>5.09</ele>
        <time>2021-03-20T14:53:54Z</time>
      </trkpt>
      <trkpt lat="56.54898" lon="-5.29727">
        <ele>5.14</ele>
        <time>2021-03-20T14:53:58Z</time>
      </trkpt>
      <trkpt lat="56.54901" lon="-5.29764">
        <ele>5.09</ele>
        <time>2021-03-20T14:54:03Z</time>
      </trkpt>
      <trkpt lat="56.54908" lon="-5.29796">
        <ele>5.36</ele>
        <time>2021-03-20T14:54:08Z</time>
      </trkpt>
      <trkpt lat="56.5492" lon="-5.29821">
        <ele>5.69</ele>
        <time>2021-03-20T14:54:12Z</time>
      </trkpt>
      <trkpt lat="56.54933" lon="-5.29839">
        <ele>5.81</ele>
        <time>2021-03-20T14:54:17Z</time>
      </trkpt>
      <trkpt lat="56.54947" lon="-5.29851">
        <ele>5.66</ele>
        <time>2021-03-20T14:54:22Z</time>
      </trkpt>
      <trkpt lat="56.54965" lon="-5.29855">
        <ele>4.89</ele>
        <time>2021-03-20T14:54:26Z</time>
      </trkpt>
      <trkpt lat="56.55012" lon="-5.29856">
        <ele>6.27</ele>
        <time>2021-03-20T14:54:31Z</time>
      </trkpt>
      <trkpt lat="56.55024" lon="-5.29863">
        <ele>6.58</ele>
        <time>2021-03-20T14:54:36Z</time>
      </trkpt>
      <trkpt lat="56.55042" lon="-5.29883">
        <ele>6.32</ele>
        <time>2021-03-20T14:54:40Z</time>
      </trkpt>
      <trkpt lat="56.55096" lon="-5.30005">
        <ele>6.01</ele>
        <time>2021-03-20T14:54:45Z</time>
      </trkpt>
      <trkpt lat="56.55135" lon="-5.30113">
        <ele>6.84</ele>
        <time>2021-03-20T14:54:50Z</time>
      </trkpt>
      <trkpt lat="56.55142" lon="-5.30145">
        <ele>7.11</ele>
        <time>2021-03-20T14:54:54Z</time>
      </trkpt>
      <trkpt lat="56.55145" lon="-5.30202">
        <ele>8.29</ele>
        <time>2021-03-20T14:54:59Z</time>
      </trkpt>
      <trkpt lat="56.55133" lon="-5.30376">
        <ele>4.57</ele>
        <time>2021-03-20T14:55:04Z</time>
      </trkpt>
      <trkpt lat="56.55132" lon="-5.30434">
        <ele>5.18</ele>
        <time>2021-03-20T14:55:08Z</time>
      </trkpt>
      <trkpt lat="56.55134" lon="-5.30531">
        <ele>8.36</ele>
        <time>2021-03-20T14:55:13Z</time>
      </trkpt>
      <trkpt lat="56.55156" lon="-5.31093">
        <ele>16.47</ele>
        <time>2021-03-20T14:55:17Z</time>
      </trkpt>
      <trkpt lat="56.55162" lon="-5.3116">
        <ele>17.44</ele>
        <time>2021-03-20T14:55:22Z</time>
      </trkpt>
      <trkpt lat="56.55178" lon="-5.31296">
        <ele>20.61</ele>
        <time>2021-03-20T14:55:27Z</time>
      </trkpt>
      <trkpt lat="56.55183" lon="-5.31367">
        <ele>22.15</ele>
        <time>2021-03-20T14:55:31Z</time>
      </trkpt>
      <trkpt lat="56.55182" lon="-5.31438">
        <ele>21.67</ele>
        <time>2021-03-20T14:55:36Z</time>
      </trkpt>
      <trkpt lat="56.55179" lon="-5.31495">
        <ele>20.73</ele>
        <time>2021-03-20T14:55:41Z</time>
      </trkpt>
      <trkpt lat="56.55156" lon="-5.31676">
        <ele>19.79</ele>
        <time>2021-03-20T14:55:45Z</time>
      </trkpt>
      <trkpt lat="56.55154" lon="-5.31716">
        <ele>19.61</ele>
        <time>2021-03-20T14:55:50Z</time>
      </trkpt>
      <trkpt lat="56.55154" lon="-5.31749">
        <ele>19.26</ele>
        <time>2021-03-20T14:55:55Z</time>
      </trkpt>
      <trkpt lat="56.55158" lon="-5.31792">
        <ele>19.34</ele>
        <time>2021-03-20T14:55:59Z</time>
      </trkpt>
      <trkpt lat="56.55193" lon="-5.31996">
        <ele>21.07</ele>
        <time>2021-03-20T14:56:04Z</time>
      </trkpt>
      <trkpt lat="56.55206" lon="-5.32057">
        <ele>19.8</ele>
        <time>2021-03-20T14:56:09Z</time>
      </trkpt>
      <trkpt lat="56.55265" lon="-5.32255">
        <ele>17.55</ele>
        <time>2021-03-20T14:56:13Z</time>
      </trkpt>
      <trkpt lat="56.55292" lon="-5.32352">
        <ele>18.15</ele>
        <time>2021-03-20T14:56:18Z</time>
      </trkpt>
      <trkpt lat="56.5531" lon="-5.3243">
        <ele>17.76</ele>
        <time>2021-03-20T14:56:23Z</time>
      </trkpt>
      <trkpt lat="56.55328" lon="-5.32518">
        <ele>16.82</ele>
        <time>2021-03-20T14:56:27Z</time>
      </trkpt>
      <trkpt lat="56.5538" lon="-5.32812">
        <ele>20.67</ele>
        <time>2021-03-20T14:56:32Z</time>
      </trkpt>
      <trkpt lat="56.5546" lon="-5.33097">
        <ele>27.57</ele>
        <time>2021-03-20T14:56:37Z</time>
      </trkpt>
      <trkpt lat="56.55536" lon="-5.33444">
        <ele>32.31</ele>
        <time>2021-03-20T14:56:41Z</time>
      </trkpt>
      <trkpt lat="56.55644" lon="-5.34043">
        <ele>28.45</ele>
        <time>2021-03-20T14:56:46Z</time>
      </trkpt>
      <trkpt lat="56.55698" lon="-5.3446">
        <ele>26.44</ele>
        <time>2021-03-20T14:56:51Z</time>
      </trkpt>
      <trkpt lat="56.55729" lon="-5.34652">
        <ele>17.5</ele>
        <time>2021-03-20T14:56:55Z</time>
      </trkpt>
      <trkpt lat="56.55833" lon="-5.35237">
        <ele>29.52</ele>
        <time>2021-03-20T14:57:00Z</time>
      </trkpt>
      <trkpt lat="56.55861" lon="-5.35333">
        <ele>30.99</ele>
        <time>2021-03-20T14:57:05Z</time>
      </trkpt>
      <trkpt lat="56.55889" lon="-5.3539">
        <ele>31.09</ele>
        <time>2021-03-20T14:57:09Z</time>
      </trkpt>
      <trkpt lat="56.56" lon="-5.35627">
        <ele>16.59</ele>
        <time>2021-03-20T14:57:14Z</time>
      </trkpt>
      <trkpt lat="56.56054" lon="-5.3571">
        <ele>15.61</ele>
        <time>2021-03-20T14:57:19Z</time>
      </trkpt>
      <trkpt lat="56.56109" lon="-5.3578">
        <ele>16.33</ele>
        <time>2021-03-20T14:57:23Z</time>
      </trkpt>
      <trkpt lat="56.56163" lon="-5.35828">
        <ele>17.74</ele>
        <time>2021-03-20T14:57:28Z</time>
      </trkpt>
      <trkpt lat="56.56192" lon="-5.35841">
        <ele>15.43</ele>
        <time>2021-03-20T14:57:33Z</time>
      </trkpt>
      <trkpt lat="56.56219" lon="-5.35843">
        <ele>12.08</ele>
        <time>2021-03-20T14:57:37Z</time>
      </trkpt>
      <trkpt lat="56.56279" lon="-5.35822">
        <ele>6</ele>
        <time>2021-03-20T14:57:42Z</time>
      </trkpt>
      <trkpt lat="56.56372" lon="-5.35782">
        <ele>5.08</ele>
        <time>2021-03-20T14:57:46Z</time>
      </trkpt>
      <trkpt lat="56.56399" lon="-5.35775">
        <ele>5</ele>
        <time>2021-03-20T14:57:51Z</time>
      </trkpt>
      <trkpt lat="56.5643" lon="-5.35775">
        <ele>5.93</ele>
        <time>2021-03-20T14:57:56Z</time>
      </trkpt>
      <trkpt lat="56.56466" lon="-5.35784">
        <ele>7.53</ele>
        <time>2021-03-20T14:58:00Z</time>
      </trkpt>
      <trkpt lat="56.56517" lon="-5.35821">
        <ele>9.39</ele>
        <time>2021-03-20T14:58:05Z</time>
      </trkpt>
      <trkpt lat="56.56547" lon="-5.3586">
        <ele>10.38</ele>
        <time>2021-03-20T14:58:10Z</time>
      </trkpt>
      <trkpt lat="56.56571" lon="-5.35908">
        <ele>11.83</ele>
        <time>2021-03-20T14:58:14Z</time>
      </trkpt>
      <trkpt lat="56.56593" lon="-5.35977">
        <ele>13.35</ele>
        <time>2021-03-20T14:58:19Z</time>
      </trkpt>
      <trkpt lat="56.56629" lon="-5.36163">
        <ele>12.63</ele>
        <time>2021-03-20T14:58:24Z</time>
      </trkpt>
      <trkpt lat="56.56642" lon="-5.36217">
        <ele>11.39</ele>
        <time>2021-03-20T14:58:28Z</time>
      </trkpt>
      <trkpt lat="56.56661" lon="-5.36264">
        <ele>11.81</ele>
        <time>2021-03-20T14:58:33Z</time>
      </trkpt>
      <trkpt lat="56.56693" lon="-5.36334">
        <ele>11.93</ele>
        <time>2021-03-20T14:58:38Z</time>
      </trkpt>
      <trkpt lat="56.56757" lon="-5.3646">
        <ele>15.72</ele>
        <time>2021-03-20T14:58:42Z</time>
      </trkpt>
      <trkpt lat="56.56805" lon="-5.36562">
        <ele>15.71</ele>
        <time>2021-03-20T14:58:47Z</time>
      </trkpt>
      <trkpt lat="56.56874" lon="-5.3667">
        <ele>14.87</ele>
        <time>2021-03-20T14:58:52Z</time>
      </trkpt>
      <trkpt lat="56.5692" lon="-5.36738">
        <ele>13.57</ele>
        <time>2021-03-20T14:58:56Z</time>
      </trkpt>
      <trkpt lat="56.5695" lon="-5.36785">
        <ele>14.29</ele>
        <time>2021-03-20T14:59:01Z</time>
      </trkpt>
      <trkpt lat="56.56986" lon="-5.36872">
        <ele>14.62</ele>
        <time>2021-03-20T14:59:06Z</time>
      </trkpt>
      <trkpt lat="56.57048" lon="-5.37055">
        <ele>14</ele>
        <time>2021-03-20T14:59:10Z</time>
      </trkpt>
      <trkpt lat="56.57068" lon="-5.3716">
        <ele>17.27</ele>
        <time>2021-03-20T14:59:15Z</time>
      </trkpt>
      <trkpt lat="56.57112" lon="-5.37495">
        <ele>20.23</ele>
        <time>2021-03-20T14:59:20Z</time>
      </trkpt>
      <trkpt lat="56.57133" lon="-5.37637">
        <ele>19.99</ele>
        <time>2021-03-20T14:59:24Z</time>
      </trkpt>
      <trkpt lat="56.57161" lon="-5.37728">
        <ele>20.28</ele>
        <time>2021-03-20T14:59:29Z</time>
      </trkpt>
      <trkpt lat="56.57228" lon="-5.37906">
        <ele>19.07</ele>
        <time>2021-03-20T14:59:34Z</time>
      </trkpt>
      <trkpt lat="56.57243" lon="-5.37932">
        <ele>18.55</ele>
        <time>2021-03-20T14:59:38Z</time>
      </trkpt>
      <trkpt lat="56.57265" lon="-5.37937">
        <ele>20.02</ele>
        <time>2021-03-20T14:59:43Z</time>
      </trkpt>
      <trkpt lat="56.57282" lon="-5.37936">
        <ele>21.29</ele>
        <time>2021-03-20T14:59:48Z</time>
      </trkpt>
      <trkpt lat="56.57463" lon="-5.37896">
        <ele>41.15</ele>
        <time>2021-03-20T14:59:52Z</time>
      </trkpt>
      <trkpt lat="56.57513" lon="-5.37866">
        <ele>44.64</ele>
        <time>2021-03-20T14:59:57Z</time>
      </trkpt>
      <trkpt lat="56.57605" lon="-5.37812">
        <ele>50.79</ele>
        <time>2021-03-20T15:00:02Z</time>
      </trkpt>
      <trkpt lat="56.57731" lon="-5.3771">
        <ele>54.85</ele>
        <time>2021-03-20T15:00:06Z</time>
      </trkpt>
      <trkpt lat="56.57764" lon="-5.37658">
        <ele>55.3</ele>
        <time>2021-03-20T15:00:11Z</time>
      </trkpt>
      <trkpt lat="56.5778" lon="-5.37599">
        <ele>57.01</ele>
        <time>2021-03-20T15:00:15Z</time>
      </trkpt>
      <trkpt lat="56.57801" lon="-5.3755">
        <ele>57.38</ele>
        <time>2021-03-20T15:00:20Z</time>
      </trkpt>
      <trkpt lat="56.57825" lon="-5.37519">
        <ele>58.62</ele>
        <time>2021-03-20T15:00:25Z</time>
      </trkpt>
      <trkpt lat="56.57857" lon="-5.37491">
        <ele>60.04</ele>
        <time>2021-03-20T15:00:29Z</time>
      </trkpt>
      <trkpt lat="56.57922" lon="-5.3746">
        <ele>57.03</ele>
        <time>2021-03-20T15:00:34Z</time>
      </trkpt>
      <trkpt lat="56.58027" lon="-5.37439">
        <ele>51.8</ele>
        <time>2021-03-20T15:00:39Z</time>
      </trkpt>
      <trkpt lat="56.58196" lon="-5.37391">
        <ele>36.59</ele>
        <time>2021-03-20T15:00:43Z</time>
      </trkpt>
      <trkpt lat="56.58257" lon="-5.37359">
        <ele>34.04</ele>
        <time>2021-03-20T15:00:48Z</time>
      </trkpt>
      <trkpt lat="56.58297" lon="-5.37325">
        <ele>29.84</ele>
        <time>2021-03-20T15:00:53Z</time>
      </trkpt>
      <trkpt lat="56.58349" lon="-5.37253">
        <ele>27.87</ele>
        <time>2021-03-20T15:00:57Z</time>
      </trkpt>
      <trkpt lat="56.58455" lon="-5.37158">
        <ele>22.76</ele>
        <time>2021-03-20T15:01:02Z</time>
      </trkpt>
      <trkpt lat="56.58499" lon="-5.37098">
        <ele>25.42</ele>
        <time>2021-03-20T15:01:07Z</time>
      </trkpt>
      <trkpt lat="56.58529" lon="-5.37068">
        <ele>24.15</ele>
        <time>2021-03-20T15:01:11Z</time>
      </trkpt>
      <trkpt lat="56.58569" lon="-5.3706">
        <ele>19.9</ele>
        <time>2021-03-20T15:01:16Z</time>
      </trkpt>
      <trkpt lat="56.58592" lon="-5.37066">
        <ele>18.13</ele>
        <time>2021-03-20T15:01:21Z</time>
      </trkpt>
      <trkpt lat="56.58605" lon="-5.37083">
        <ele>17.58</ele>
        <time>2021-03-20T15:01:25Z</time>
      </trkpt>
      <trkpt lat="56.58619" lon="-5.37131">
        <ele>17.11</ele>
        <time>2021-03-20T15:01:30Z</time>
      </trkpt>
      <trkpt lat="56.58631" lon="-5.372">
        <ele>15.22</ele>
        <time>2021-03-20T15:01:35Z</time>
      </trkpt>
      <trkpt lat="56.5865" lon="-5.37268">
        <ele>13.72</ele>
        <time>2021-03-20T15:01:39Z</time>
      </trkpt>
      <trkpt lat="56.58717" lon="-5.37403">
        <ele>4.76</ele>
        <time>2021-03-20T15:01:44Z</time>
      </trkpt>
      <trkpt lat="56.58745" lon="-5.37429">
        <ele>2.3</ele>
        <time>2021-03-20T15:01:49Z</time>
      </trkpt>
      <trkpt lat="56.58778" lon="-5.37425">
        <ele>2</ele>
        <time>2021-03-20T15:01:53Z</time>
      </trkpt>
      <trkpt lat="56.58896" lon="-5.37353">
        <ele>3.57</ele>
        <time>2021-03-20T15:01:58Z</time>
      </trkpt>
      <trkpt lat="56.58982" lon="-5.37281">
        <ele>6.73</ele>
        <time>2021-03-20T15:02:03Z</time>
      </trkpt>
      <trkpt lat="56.59041" lon="-5.37221">
        <ele>6.62</ele>
        <time>2021-03-20T15:02:07Z</time>
      </trkpt>
      <trkpt lat="56.59231" lon="-5.3698">
        <ele>13.47</ele>
        <time>2021-03-20T15:02:12Z</time>
      </trkpt>
      <trkpt lat="56.59312" lon="-5.36891">
        <ele>14.69</ele>
        <time>2021-03-20T15:02:17Z</time>
      </trkpt>
      <trkpt lat="56.59378" lon="-5.36785">
        <ele>17.02</ele>
        <time>2021-03-20T15:02:21Z</time>
      </trkpt>
      <trkpt lat="56.59439" lon="-5.36666">
        <ele>22.69</ele>
        <time>2021-03-20T15:02:26Z</time>
      </trkpt>
      <trkpt lat="56.59473" lon="-5.36613">
        <ele>23.46</ele>
        <time>2021-03-20T15:02:31Z</time>
      </trkpt>
      <trkpt lat="56.59576" lon="-5.36467">
        <ele>23.25</ele>
        <time>2021-03-20T15:02:35Z</time>
      </trkpt>
      <trkpt lat="56.59621" lon="-5.36415">
        <ele>17.98</ele>
        <time>2021-03-20T15:02:40Z</time>
      </trkpt>
      <trkpt lat="56.5965" lon="-5.36388">
        <ele>9.01</ele>
        <time>2021-03-20T15:02:44Z</time>
      </trkpt>
      <trkpt lat="56.59648" lon="-5.36361">
        <ele>14.69</ele>
        <time>2021-03-20T15:02:49Z</time>
      </trkpt>
      <trkpt lat="56.59662" lon="-5.36313">
        <ele>21.02</ele>
        <time>2021-03-20T15:02:53Z</time>
      </trkpt>
      <trkpt lat="56.59719" lon="-5.36192">
        <ele>27.04</ele>
        <time>2021-03-20T15:02:58Z</time>
      </trkpt>
      <trkpt lat="56.59736" lon="-5.36167">
        <ele>28.4</ele>
        <time>2021-03-20T15:03:02Z</time>
      </trkpt>
      <trkpt lat="56.60008" lon="-5.36026">
        <ele>17.9</ele>
        <time>2021-03-20T15:03:07Z</time>
      </trkpt>
      <trkpt lat="56.60061" lon="-5.35996">
        <ele>18.6</ele>
        <time>2021-03-20T15:03:11Z</time>
      </trkpt>
      <trkpt lat="56.6018" lon="-5.35882">
        <ele>12.92</ele>
        <time>2021-03-20T15:03:16Z</time>
      </trkpt>
      <trkpt lat="56.60203" lon="-5.35844">
        <ele>13.54</ele>
        <time>2021-03-20T15:03:20Z</time>
      </trkpt>
      <trkpt lat="56.60294" lon="-5.35617">
        <ele>26.91</ele>
        <time>2021-03-20T15:03:24Z</time>
      </trkpt>
      <trkpt lat="56.60417" lon="-5.35508">
        <ele>21.16</ele>
        <time>2021-03-20T15:03:29Z</time>
      </trkpt>
      <trkpt lat="56.60455" lon="-5.35487">
        <ele>19.27</ele>
        <time>2021-03-20T15:03:33Z</time>
      </trkpt>
      <trkpt lat="56.60586" lon="-5.35449">
        <ele>9.56</ele>
        <time>2021-03-20T15:03:38Z</time>
      </trkpt>
      <trkpt lat="56.60592" lon="-5.3545">
        <ele>8.96</ele>
        <time>2021-03-20T15:03:42Z</time>
      </trkpt>
      <trkpt lat="56.60605" lon="-5.35471">
        <ele>7.47</ele>
        <time>2021-03-20T15:03:47Z</time>
      </trkpt>
      <trkpt lat="56.60653" lon="-5.3539">
        <ele>5.5</ele>
        <time>2021-03-20T15:03:52Z</time>
      </trkpt>
      <trkpt lat="56.60708" lon="-5.35286">
        <ele>5.1</ele>
        <time>2021-03-20T15:03:58Z</time>
      </trkpt>
      <trkpt lat="56.60834" lon="-5.35058">
        <ele>6.76</ele>
        <time>2021-03-20T15:04:03Z</time>
      </trkpt>
      <trkpt lat="56.60929" lon="-5.34875">
        <ele>10.47</ele>
        <time>2021-03-20T15:04:09Z</time>
      </trkpt>
      <trkpt lat="56.61089" lon="-5.34526">
        <ele>5.37</ele>
        <time>2021-03-20T15:04:14Z</time>
      </trkpt>
      <trkpt lat="56.61208" lon="-5.3432">
        <ele>14.67</ele>
        <time>2021-03-20T15:04:20Z</time>
      </trkpt>
      <trkpt lat="56.61291" lon="-5.34185">
        <ele>13.76</ele>
        <time>2021-03-20T15:04:25Z</time>
      </trkpt>
      <trkpt lat="56.61348" lon="-5.34106">
        <ele>10.7</ele>
        <time>2021-03-20T15:04:31Z</time>
      </trkpt>
      <trkpt lat="56.61431" lon="-5.33978">
        <ele>20.55</ele>
        <time>2021-03-20T15:04:36Z</time>
      </trkpt>
      <trkpt lat="56.61491" lon="-5.33869">
        <ele>12.2</ele>
        <time>2021-03-20T15:04:42Z</time>
      </trkpt>
      <trkpt lat="56.61543" lon="-5.33766">
        <ele>12.01</ele>
        <time>2021-03-20T15:04:47Z</time>
      </trkpt>
      <trkpt lat="56.61629" lon="-5.3357">
        <ele>12.7</ele>
        <time>2021-03-20T15:04:53Z</time>
      </trkpt>
      <trkpt lat="56.61709" lon="-5.33352">
        <ele>9.69</ele>
        <time>2021-03-20T15:04:58Z</time>
      </trkpt>
      <trkpt lat="56.61793" lon="-5.33092">
        <ele>30.6</ele>
        <time>2021-03-20T15:05:04Z</time>
      </trkpt>
      <trkpt lat="56.61879" lon="-5.32886">
        <ele>13.93</ele>
        <time>2021-03-20T15:05:09Z</time>
      </trkpt>
      <trkpt lat="56.62134" lon="-5.32302">
        <ele>15.11</ele>
        <time>2021-03-20T15:05:14Z</time>
      </trkpt>
      <trkpt lat="56.62186" lon="-5.32167">
        <ele>15.81</ele>
        <time>2021-03-20T15:05:20Z</time>
      </trkpt>
      <trkpt lat="56.62255" lon="-5.31959">
        <ele>17.4</ele>
        <time>2021-03-20T15:05:25Z</time>
      </trkpt>
      <trkpt lat="56.62359" lon="-5.31753">
        <ele>15.56</ele>
        <time>2021-03-20T15:05:31Z</time>
      </trkpt>
      <trkpt lat="56.62377" lon="-5.31723">
        <ele>13.66</ele>
        <time>2021-03-20T15:05:36Z</time>
      </trkpt>
      <trkpt lat="56.62408" lon="-5.31687">
        <ele>12.18</ele>
        <time>2021-03-20T15:05:42Z</time>
      </trkpt>
      <trkpt lat="56.62496" lon="-5.31615">
        <ele>6.03</ele>
        <time>2021-03-20T15:05:47Z</time>
      </trkpt>
      <trkpt lat="56.62735" lon="-5.31384">
        <ele>5.56</ele>
        <time>2021-03-20T15:05:53Z</time>
      </trkpt>
      <trkpt lat="56.62807" lon="-5.31311">
        <ele>13.45</ele>
        <time>2021-03-20T15:05:58Z</time>
      </trkpt>
      <trkpt lat="56.62839" lon="-5.31275">
        <ele>16.64</ele>
        <time>2021-03-20T15:06:04Z</time>
      </trkpt>
      <trkpt lat="56.6287" lon="-5.31227">
        <ele>17.75</ele>
        <time>2021-03-20T15:06:09Z</time>
      </trkpt>
      <trkpt lat="56.62958" lon="-5.31075">
        <ele>24.23</ele>
        <time>2021-03-20T15:06:15Z</time>
      </trkpt>
      <trkpt lat="56.63099" lon="-5.30841">
        <ele>22.53</ele>
        <time>2021-03-20T15:06:20Z</time>
      </trkpt>
      <trkpt lat="56.63251" lon="-5.30572">
        <ele>26.37</ele>
        <time>2021-03-20T15:06:26Z</time>
      </trkpt>
      <trkpt lat="56.63342" lon="-5.30385">
        <ele>20.68</ele>
        <time>2021-03-20T15:06:31Z</time>
      </trkpt>
      <trkpt lat="56.63381" lon="-5.30298">
        <ele>22.4</ele>
        <time>2021-03-20T15:06:37Z</time>
      </trkpt>
      <trkpt lat="56.63491" lon="-5.30063">
        <ele>22.83</ele>
        <time>2021-03-20T15:06:42Z</time>
      </trkpt>
      <trkpt lat="56.63545" lon="-5.2994">
        <ele>22.75</ele>
        <time>2021-03-20T15:06:48Z</time>
      </trkpt>
      <trkpt lat="56.63577" lon="-5.2986">
        <ele>22.26</ele>
        <time>2021-03-20T15:06:53Z</time>
      </trkpt>
      <trkpt lat="56.63653" lon="-5.29649">
        <ele>23.55</ele>
        <time>2021-03-20T15:06:59Z</time>
      </trkpt>
      <trkpt lat="56.63666" lon="-5.29601">
        <ele>22.75</ele>
        <time>2021-03-20T15:07:04Z</time>
      </trkpt>
      <trkpt lat="56.6367" lon="-5.29567">
        <ele>22.28</ele>
        <time>2021-03-20T15:07:10Z</time>
      </trkpt>
      <trkpt lat="56.63671" lon="-5.29536">
        <ele>21.23</ele>
        <time>2021-03-20T15:07:15Z</time>
      </trkpt>
      <trkpt lat="56.63666" lon="-5.29497">
        <ele>18.99</ele>
        <time>2021-03-20T15:07:21Z</time>
      </trkpt>
      <trkpt lat="56.63659" lon="-5.29468">
        <ele>18.57</ele>
        <time>2021-03-20T15:07:26Z</time>
      </trkpt>
      <trkpt lat="56.63631" lon="-5.29377">
        <ele>16.11</ele>
        <time>2021-03-20T15:07:32Z</time>
      </trkpt>
      <trkpt lat="56.63622" lon="-5.29329">
        <ele>15.06</ele>
        <time>2021-03-20T15:07:37Z</time>
      </trkpt>
      <trkpt lat="56.63617" lon="-5.29297">
        <ele>17.62</ele>
        <time>2021-03-20T15:07:43Z</time>
      </trkpt>
      <trkpt lat="56.63617" lon="-5.29258">
        <ele>20.43</ele>
        <time>2021-03-20T15:07:48Z</time>
      </trkpt>
      <trkpt lat="56.63623" lon="-5.29201">
        <ele>22.34</ele>
        <time>2021-03-20T15:07:54Z</time>
      </trkpt>
      <trkpt lat="56.63637" lon="-5.2911">
        <ele>20.67</ele>
        <time>2021-03-20T15:07:59Z</time>
      </trkpt>
      <trkpt lat="56.63648" lon="-5.29013">
        <ele>18.93</ele>
        <time>2021-03-20T15:08:05Z</time>
      </trkpt>
      <trkpt lat="56.63648" lon="-5.28878">
        <ele>18.34</ele>
        <time>2021-03-20T15:08:10Z</time>
      </trkpt>
      <trkpt lat="56.6365" lon="-5.28854">
        <ele>18.12</ele>
        <time>2021-03-20T15:08:16Z</time>
      </trkpt>
      <trkpt lat="56.63654" lon="-5.28825">
        <ele>17.56</ele>
        <time>2021-03-20T15:08:21Z</time>
      </trkpt>
      <trkpt lat="56.6366" lon="-5.28804">
        <ele>17.76</ele>
        <time>2021-03-20T15:08:26Z</time>
      </trkpt>
      <trkpt lat="56.63669" lon="-5.28781">
        <ele>17.91</ele>
        <time>2021-03-20T15:08:32Z</time>
      </trkpt>
      <trkpt lat="56.63682" lon="-5.2876">
        <ele>17.44</ele>
        <time>2021-03-20T15:08:37Z</time>
      </trkpt>
      <trkpt lat="56.63719" lon="-5.2872">
        <ele>17</ele>
        <time>2021-03-20T15:08:43Z</time>
      </trkpt>
      <trkpt lat="56.63748" lon="-5.28701">
        <ele>16.06</ele>
        <time>2021-03-20T15:08:48Z</time>
      </trkpt>
      <trkpt lat="56.63777" lon="-5.28696">
        <ele>16.97</ele>
        <time>2021-03-20T15:08:54Z</time>
      </trkpt>
      <trkpt lat="56.63828" lon="-5.28683">
        <ele>15.83</ele>
        <time>2021-03-20T15:08:59Z</time>
      </trkpt>
      <trkpt lat="56.63928" lon="-5.28619">
        <ele>17.17</ele>
        <time>2021-03-20T15:09:05Z</time>
      </trkpt>
      <trkpt lat="56.63974" lon="-5.28585">
        <ele>17.05</ele>
        <time>2021-03-20T15:09:10Z</time>
      </trkpt>
      <trkpt lat="56.64" lon="-5.28555">
        <ele>18.98</ele>
        <time>2021-03-20T15:09:16Z</time>
      </trkpt>
      <trkpt lat="56.64021" lon="-5.28521">
        <ele>19.51</ele>
        <time>2021-03-20T15:09:21Z</time>
      </trkpt>
      <trkpt lat="56.64045" lon="-5.2847">
        <ele>17.92</ele>
        <time>2021-03-20T15:09:27Z</time>
      </trkpt>
      <trkpt lat="56.64118" lon="-5.28252">
        <ele>15.78</ele>
        <time>2021-03-20T15:09:32Z</time>
      </trkpt>
      <trkpt lat="56.642" lon="-5.28054">
        <ele>26.81</ele>
        <time>2021-03-20T15:09:38Z</time>
      </trkpt>
      <trkpt lat="56.64221" lon="-5.27984">
        <ele>26.2</ele>
        <time>2021-03-20T15:09:43Z</time>
      </trkpt>
      <trkpt lat="56.64239" lon="-5.27862">
        <ele>25.51</ele>
        <time>2021-03-20T15:09:49Z</time>
      </trkpt>
      <trkpt lat="56.64247" lon="-5.27826">
        <ele>24.4</ele>
        <time>2021-03-20T15:09:54Z</time>
      </trkpt>
      <trkpt lat="56.64271" lon="-5.27768">
        <ele>25.18</ele>
        <time>2021-03-20T15:10:00Z</time>
      </trkpt>
      <trkpt lat="56.64282" lon="-5.27756">
        <ele>25.9</ele>
        <time>2021-03-20T15:10:05Z</time>
      </trkpt>
      <trkpt lat="56.6437" lon="-5.27684">
        <ele>26.27</ele>
        <time>2021-03-20T15:10:11Z</time>
      </trkpt>
      <trkpt lat="56.64442" lon="-5.27643">
        <ele>28.46</ele>
        <time>2021-03-20T15:10:16Z</time>
      </trkpt>
      <trkpt lat="56.64543" lon="-5.27593">
        <ele>33.29</ele>
        <time>2021-03-20T15:10:22Z</time>
      </trkpt>
      <trkpt lat="56.64595" lon="-5.27534">
        <ele>35.72</ele>
        <time>2021-03-20T15:10:27Z</time>
      </trkpt>
      <trkpt lat="56.64718" lon="-5.27327">
        <ele>36.61</ele>
        <time>2021-03-20T15:10:33Z</time>
      </trkpt>
      <trkpt lat="56.6486" lon="-5.2714">
        <ele>38</ele>
        <time>2021-03-20T15:10:38Z</time>
      </trkpt>
      <trkpt lat="56.64969" lon="-5.26988">
        <ele>33.45</ele>
        <time>2021-03-20T15:10:44Z</time>
      </trkpt>
      <trkpt lat="56.65097" lon="-5.26806">
        <ele>38.99</ele>
        <time>2021-03-20T15:10:49Z</time>
      </trkpt>
      <trkpt lat="56.65117" lon="-5.2678">
        <ele>39.01</ele>
        <time>2021-03-20T15:10:55Z</time>
      </trkpt>
      <trkpt lat="56.65259" lon="-5.26567">
        <ele>43.3</ele>
        <time>2021-03-20T15:11:00Z</time>
      </trkpt>
      <trkpt lat="56.65401" lon="-5.26299">
        <ele>40.76</ele>
        <time>2021-03-20T15:11:06Z</time>
      </trkpt>
      <trkpt lat="56.65485" lon="-5.26161">
        <ele>37.65</ele>
        <time>2021-03-20T15:11:11Z</time>
      </trkpt>
      <trkpt lat="56.65584" lon="-5.26036">
        <ele>36.71</ele>
        <time>2021-03-20T15:11:17Z</time>
      </trkpt>
      <trkpt lat="56.65584" lon="-5.26036">
        <ele>36.71</ele>
        <time>2021-03-20T15:11:17Z</time>
      </trkpt>
      <trkpt lat="56.65775" lon="-5.2579">
        <ele>27.2</ele>
        <time>2021-03-20T15:11:20Z</time>
      </trkpt>
      <trkpt lat="56.65838" lon="-5.25722">
        <ele>26.68</ele>
        <time>2021-03-20T15:11:24Z</time>
      </trkpt>
      <trkpt lat="56.6598" lon="-5.25587">
        <ele>25.24</ele>
        <time>2021-03-20T15:11:27Z</time>
      </trkpt>
      <trkpt lat="56.66007" lon="-5.25566">
        <ele>24.86</ele>
        <time>2021-03-20T15:11:31Z</time>
      </trkpt>
      <trkpt lat="56.66034" lon="-5.25549">
        <ele>24.25</ele>
        <time>2021-03-20T15:11:34Z</time>
      </trkpt>
      <trkpt lat="56.66055" lon="-5.25539">
        <ele>23.81</ele>
        <time>2021-03-20T15:11:37Z</time>
      </trkpt>
      <trkpt lat="56.66083" lon="-5.25532">
        <ele>22.6</ele>
        <time>2021-03-20T15:11:41Z</time>
      </trkpt>
      <trkpt lat="56.66215" lon="-5.25524">
        <ele>24.33</ele>
        <time>2021-03-20T15:11:44Z</time>
      </trkpt>
      <trkpt lat="56.66237" lon="-5.25518">
        <ele>25.22</ele>
        <time>2021-03-20T15:11:48Z</time>
      </trkpt>
      <trkpt lat="56.66291" lon="-5.25495">
        <ele>27.07</ele>
        <time>2021-03-20T15:11:51Z</time>
      </trkpt>
      <trkpt lat="56.66322" lon="-5.25473">
        <ele>24.18</ele>
        <time>2021-03-20T15:11:55Z</time>
      </trkpt>
      <trkpt lat="56.66359" lon="-5.2544">
        <ele>21.36</ele>
        <time>2021-03-20T15:11:58Z</time>
      </trkpt>
      <trkpt lat="56.66388" lon="-5.25408">
        <ele>19.73</ele>
        <time>2021-03-20T15:12:02Z</time>
      </trkpt>
      <trkpt lat="56.66436" lon="-5.25344">
        <ele>17.57</ele>
        <time>2021-03-20T15:12:05Z</time>
      </trkpt>
      <trkpt lat="56.66467" lon="-5.25298">
        <ele>14.44</ele>
        <time>2021-03-20T15:12:09Z</time>
      </trkpt>
      <trkpt lat="56.66495" lon="-5.25266">
        <ele>12.16</ele>
        <time>2021-03-20T15:12:12Z</time>
      </trkpt>
      <trkpt lat="56.66559" lon="-5.25208">
        <ele>8.01</ele>
        <time>2021-03-20T15:12:16Z</time>
      </trkpt>
      <trkpt lat="56.66632" lon="-5.2514">
        <ele>5.44</ele>
        <time>2021-03-20T15:12:19Z</time>
      </trkpt>
      <trkpt lat="56.6667" lon="-5.25113">
        <ele>6.11</ele>
        <time>2021-03-20T15:12:23Z</time>
      </trkpt>
      <trkpt lat="56.6669" lon="-5.25104">
        <ele>7.38</ele>
        <time>2021-03-20T15:12:26Z</time>
      </trkpt>
      <trkpt lat="56.66717" lon="-5.251">
        <ele>7.02</ele>
        <time>2021-03-20T15:12:30Z</time>
      </trkpt>
      <trkpt lat="56.66784" lon="-5.25101">
        <ele>5.01</ele>
        <time>2021-03-20T15:12:33Z</time>
      </trkpt>
      <trkpt lat="56.66814" lon="-5.25089">
        <ele>6.22</ele>
        <time>2021-03-20T15:12:37Z</time>
      </trkpt>
      <trkpt lat="56.66884" lon="-5.25051">
        <ele>7.94</ele>
        <time>2021-03-20T15:12:40Z</time>
      </trkpt>
      <trkpt lat="56.66924" lon="-5.25014">
        <ele>7.62</ele>
        <time>2021-03-20T15:12:44Z</time>
      </trkpt>
      <trkpt lat="56.66947" lon="-5.24979">
        <ele>6.66</ele>
        <time>2021-03-20T15:12:47Z</time>
      </trkpt>
      <trkpt lat="56.66993" lon="-5.24895">
        <ele>9.3</ele>
        <time>2021-03-20T15:12:51Z</time>
      </trkpt>
      <trkpt lat="56.67007" lon="-5.24876">
        <ele>10.47</ele>
        <time>2021-03-20T15:12:54Z</time>
      </trkpt>
      <trkpt lat="56.67046" lon="-5.2484">
        <ele>12.14</ele>
        <time>2021-03-20T15:12:58Z</time>
      </trkpt>
      <trkpt lat="56.67058" lon="-5.24832">
        <ele>12.1</ele>
        <time>2021-03-20T15:13:01Z</time>
      </trkpt>
      <trkpt lat="56.6709" lon="-5.24823">
        <ele>13.53</ele>
        <time>2021-03-20T15:13:04Z</time>
      </trkpt>
      <trkpt lat="56.6715" lon="-5.24822">
        <ele>13.87</ele>
        <time>2021-03-20T15:13:08Z</time>
      </trkpt>
      <trkpt lat="56.67192" lon="-5.24811">
        <ele>13.63</ele>
        <time>2021-03-20T15:13:11Z</time>
      </trkpt>
      <trkpt lat="56.67225" lon="-5.24795">
        <ele>12.66</ele>
        <time>2021-03-20T15:13:15Z</time>
      </trkpt>
      <trkpt lat="56.67258" lon="-5.24767">
        <ele>12.69</ele>
        <time>2021-03-20T15:13:18Z</time>
      </trkpt>
      <trkpt lat="56.67301" lon="-5.24715">
        <ele>14.73</ele>
        <time>2021-03-20T15:13:22Z</time>
      </trkpt>
      <trkpt lat="56.67335" lon="-5.24651">
        <ele>12.82</ele>
        <time>2021-03-20T15:13:25Z</time>
      </trkpt>
      <trkpt lat="56.67387" lon="-5.24529">
        <ele>10.21</ele>
        <time>2021-03-20T15:13:29Z</time>
      </trkpt>
      <trkpt lat="56.67421" lon="-5.24439">
        <ele>7.64</ele>
        <time>2021-03-20T15:13:32Z</time>
      </trkpt>
      <trkpt lat="56.67455" lon="-5.24317">
        <ele>7.5</ele>
        <time>2021-03-20T15:13:36Z</time>
      </trkpt>
      <trkpt lat="56.67476" lon="-5.24263">
        <ele>8.26</ele>
        <time>2021-03-20T15:13:39Z</time>
      </trkpt>
      <trkpt lat="56.67509" lon="-5.24202">
        <ele>11.15</ele>
        <time>2021-03-20T15:13:43Z</time>
      </trkpt>
      <trkpt lat="56.67533" lon="-5.2417">
        <ele>11.64</ele>
        <time>2021-03-20T15:13:46Z</time>
      </trkpt>
      <trkpt lat="56.67661" lon="-5.24036">
        <ele>7.96</ele>
        <time>2021-03-20T15:13:50Z</time>
      </trkpt>
      <trkpt lat="56.67752" lon="-5.23905">
        <ele>10.97</ele>
        <time>2021-03-20T15:13:53Z</time>
      </trkpt>
      <trkpt lat="56.67792" lon="-5.23845">
        <ele>11.89</ele>
        <time>2021-03-20T15:13:57Z</time>
      </trkpt>
      <trkpt lat="56.67847" lon="-5.23758">
        <ele>14</ele>
        <time>2021-03-20T15:14:00Z</time>
      </trkpt>
      <trkpt lat="56.68051" lon="-5.23224">
        <ele>11.6</ele>
        <time>2021-03-20T15:14:04Z</time>
      </trkpt>
      <trkpt lat="56.68133" lon="-5.23065">
        <ele>8.41</ele>
        <time>2021-03-20T15:14:07Z</time>
      </trkpt>
      <trkpt lat="56.68203" lon="-5.22955">
        <ele>5.3</ele>
        <time>2021-03-20T15:14:11Z</time>
      </trkpt>
      <trkpt lat="56.68423" lon="-5.22706">
        <ele>12.17</ele>
        <time>2021-03-20T15:14:14Z</time>
      </trkpt>
      <trkpt lat="56.68489" lon="-5.22595">
        <ele>14.16</ele>
        <time>2021-03-20T15:14:18Z</time>
      </trkpt>
      <trkpt lat="56.68556" lon="-5.22453">
        <ele>13.07</ele>
        <time>2021-03-20T15:14:21Z</time>
      </trkpt>
      <trkpt lat="56.68593" lon="-5.22314">
        <ele>17.16</ele>
        <time>2021-03-20T15:14:25Z</time>
      </trkpt>
      <trkpt lat="56.68611" lon="-5.22175">
        <ele>20</ele>
        <time>2021-03-20T15:14:28Z</time>
      </trkpt>
      <trkpt lat="56.68617" lon="-5.22012">
        <ele>10.74</ele>
        <time>2021-03-20T15:14:31Z</time>
      </trkpt>
      <trkpt lat="56.68631" lon="-5.2171">
        <ele>11.95</ele>
        <time>2021-03-20T15:14:35Z</time>
      </trkpt>
      <trkpt lat="56.68641" lon="-5.21578">
        <ele>16.45</ele>
        <time>2021-03-20T15:14:38Z</time>
      </trkpt>
      <trkpt lat="56.68657" lon="-5.21474">
        <ele>19.14</ele>
        <time>2021-03-20T15:14:42Z</time>
      </trkpt>
      <trkpt lat="56.68663" lon="-5.21409">
        <ele>7.34</ele>
        <time>2021-03-20T15:14:45Z</time>
      </trkpt>
      <trkpt lat="56.68664" lon="-5.21355">
        <ele>5.69</ele>
        <time>2021-03-20T15:14:49Z</time>
      </trkpt>
      <trkpt lat="56.6866" lon="-5.21295">
        <ele>6.19</ele>
        <time>2021-03-20T15:14:52Z</time>
      </trkpt>
      <trkpt lat="56.68654" lon="-5.21243">
        <ele>7.59</ele>
        <time>2021-03-20T15:14:56Z</time>
      </trkpt>
      <trkpt lat="56.68642" lon="-5.21189">
        <ele>11.19</ele>
        <time>2021-03-20T15:14:59Z</time>
      </trkpt>
      <trkpt lat="56.68616" lon="-5.21088">
        <ele>18.92</ele>
        <time>2021-03-20T15:15:03Z</time>
      </trkpt>
      <trkpt lat="56.68608" lon="-5.21048">
        <ele>20.72</ele>
        <time>2021-03-20T15:15:06Z</time>
      </trkpt>
      <trkpt lat="56.68605" lon="-5.2101">
        <ele>25.81</ele>
        <time>2021-03-20T15:15:10Z</time>
      </trkpt>
      <trkpt lat="56.68606" lon="-5.20968">
        <ele>26.01</ele>
        <time>2021-03-20T15:15:13Z</time>
      </trkpt>
      <trkpt lat="56.68613" lon="-5.20892">
        <ele>14.74</ele>
        <time>2021-03-20T15:15:17Z</time>
      </trkpt>
      <trkpt lat="56.68616" lon="-5.20853">
        <ele>14.64</ele>
        <time>2021-03-20T15:15:20Z</time>
      </trkpt>
      <trkpt lat="56.68615" lon="-5.20811">
        <ele>13.7</ele>
        <time>2021-03-20T15:15:24Z</time>
      </trkpt>
      <trkpt lat="56.68603" lon="-5.20588">
        <ele>23.94</ele>
        <time>2021-03-20T15:15:27Z</time>
      </trkpt>
      <trkpt lat="56.68603" lon="-5.20477">
        <ele>23.17</ele>
        <time>2021-03-20T15:15:31Z</time>
      </trkpt>
      <trkpt lat="56.68611" lon="-5.20334">
        <ele>22</ele>
        <time>2021-03-20T15:15:34Z</time>
      </trkpt>
      <trkpt lat="56.6861" lon="-5.20222">
        <ele>20.09</ele>
        <time>2021-03-20T15:15:38Z</time>
      </trkpt>
      <trkpt lat="56.68601" lon="-5.20128">
        <ele>18.26</ele>
        <time>2021-03-20T15:15:41Z</time>
      </trkpt>
      <trkpt lat="56.68575" lon="-5.19928">
        <ele>12.56</ele>
        <time>2021-03-20T15:15:45Z</time>
      </trkpt>
      <trkpt lat="56.6857" lon="-5.1982">
        <ele>8.42</ele>
        <time>2021-03-20T15:15:48Z</time>
      </trkpt>
      <trkpt lat="56.68571" lon="-5.19666">
        <ele>7.74</ele>
        <time>2021-03-20T15:15:52Z</time>
      </trkpt>
      <trkpt lat="56.68587" lon="-5.1947">
        <ele>8.3</ele>
        <time>2021-03-20T15:15:55Z</time>
      </trkpt>
      <trkpt lat="56.68597" lon="-5.19386">
        <ele>5.55</ele>
        <time>2021-03-20T15:15:58Z</time>
      </trkpt>
      <trkpt lat="56.68602" lon="-5.19352">
        <ele>5.06</ele>
        <time>2021-03-20T15:16:02Z</time>
      </trkpt>
      <trkpt lat="56.68613" lon="-5.19318">
        <ele>4.88</ele>
        <time>2021-03-20T15:16:05Z</time>
      </trkpt>
      <trkpt lat="56.68667" lon="-5.19204">
        <ele>2.97</ele>
        <time>2021-03-20T15:16:09Z</time>
      </trkpt>
      <trkpt lat="56.68681" lon="-5.19169">
        <ele>2.38</ele>
        <time>2021-03-20T15:16:12Z</time>
      </trkpt>
      <trkpt lat="56.68689" lon="-5.19139">
        <ele>2.56</ele>
        <time>2021-03-20T15:16:16Z</time>
      </trkpt>
      <trkpt lat="56.68697" lon="-5.19091">
        <ele>3.53</ele>
        <time>2021-03-20T15:16:19Z</time>
      </trkpt>
      <trkpt lat="56.68701" lon="-5.18907">
        <ele>4.23</ele>
        <time>2021-03-20T15:16:23Z</time>
      </trkpt>
      <trkpt lat="56.68702" lon="-5.18832">
        <ele>3.74</ele>
        <time>2021-03-20T15:16:26Z</time>
      </trkpt>
      <trkpt lat="56.68706" lon="-5.18751">
        <ele>4.58</ele>
        <time>2021-03-20T15:16:30Z</time>
      </trkpt>
      <trkpt lat="56.68714" lon="-5.18701">
        <ele>5.29</ele>
        <time>2021-03-20T15:16:33Z</time>
      </trkpt>
      <trkpt lat="56.68729" lon="-5.18638">
        <ele>4.75</ele>
        <time>2021-03-20T15:16:37Z</time>
      </trkpt>
      <trkpt lat="56.68747" lon="-5.18579">
        <ele>4.37</ele>
        <time>2021-03-20T15:16:40Z</time>
      </trkpt>
      <trkpt lat="56.68774" lon="-5.18511">
        <ele>4.12</ele>
        <time>2021-03-20T15:16:44Z</time>
      </trkpt>
      <trkpt lat="56.68782" lon="-5.18473">
        <ele>3.99</ele>
        <time>2021-03-20T15:16:47Z</time>
      </trkpt>
      <trkpt lat="56.68783" lon="-5.18438">
        <ele>4.85</ele>
        <time>2021-03-20T15:16:51Z</time>
      </trkpt>
      <trkpt lat="56.68781" lon="-5.18399">
        <ele>5.56</ele>
        <time>2021-03-20T15:16:54Z</time>
      </trkpt>
      <trkpt lat="56.68782" lon="-5.18344">
        <ele>7.2</ele>
        <time>2021-03-20T15:16:58Z</time>
      </trkpt>
      <trkpt lat="56.68792" lon="-5.18278">
        <ele>7.43</ele>
        <time>2021-03-20T15:17:01Z</time>
      </trkpt>
      <trkpt lat="56.68793" lon="-5.1825">
        <ele>7.34</ele>
        <time>2021-03-20T15:17:05Z</time>
      </trkpt>
      <trkpt lat="56.68789" lon="-5.18207">
        <ele>7.81</ele>
        <time>2021-03-20T15:17:08Z</time>
      </trkpt>
      <trkpt lat="56.68743" lon="-5.18018">
        <ele>11.53</ele>
        <time>2021-03-20T15:17:12Z</time>
      </trkpt>
      <trkpt lat="56.68736" lon="-5.17994">
        <ele>11.84</ele>
        <time>2021-03-20T15:17:15Z</time>
      </trkpt>
      <trkpt lat="56.68719" lon="-5.17948">
        <ele>10.69</ele>
        <time>2021-03-20T15:17:19Z</time>
      </trkpt>
      <trkpt lat="56.68698" lon="-5.17898">
        <ele>10.17</ele>
        <time>2021-03-20T15:17:22Z</time>
      </trkpt>
      <trkpt lat="56.68686" lon="-5.17866">
        <ele>9.77</ele>
        <time>2021-03-20T15:17:25Z</time>
      </trkpt>
      <trkpt lat="56.68669" lon="-5.17807">
        <ele>8.97</ele>
        <time>2021-03-20T15:17:29Z</time>
      </trkpt>
      <trkpt lat="56.68625" lon="-5.17631">
        <ele>8.31</ele>
        <time>2021-03-20T15:17:32Z</time>
      </trkpt>
      <trkpt lat="56.68604" lon="-5.17558">
        <ele>8.35</ele>
        <time>2021-03-20T15:17:36Z</time>
      </trkpt>
      <trkpt lat="56.68574" lon="-5.17491">
        <ele>11.33</ele>
        <time>2021-03-20T15:17:39Z</time>
      </trkpt>
      <trkpt lat="56.68532" lon="-5.1743">
        <ele>12.83</ele>
        <time>2021-03-20T15:17:43Z</time>
      </trkpt>
      <trkpt lat="56.68516" lon="-5.17413">
        <ele>13.29</ele>
        <time>2021-03-20T15:17:46Z</time>
      </trkpt>
      <trkpt lat="56.68503" lon="-5.17404">
        <ele>13.45</ele>
        <time>2021-03-20T15:17:50Z</time>
      </trkpt>
      <trkpt lat="56.68494" lon="-5.17402">
        <ele>13.47</ele>
        <time>2021-03-20T15:17:53Z</time>
      </trkpt>
      <trkpt lat="56.68471" lon="-5.17387">
        <ele>13.13</ele>
        <time>2021-03-20T15:17:57Z</time>
      </trkpt>
      <trkpt lat="56.68465" lon="-5.1738">
        <ele>14.01</ele>
        <time>2021-03-20T15:18:01Z</time>
      </trkpt>
      <trkpt lat="56.6846" lon="-5.17379">
        <ele>14.79</ele>
        <time>2021-03-20T15:18:05Z</time>
      </trkpt>
      <trkpt lat="56.68454" lon="-5.17382">
        <ele>15.63</ele>
        <time>2021-03-20T15:18:10Z</time>
      </trkpt>
      <trkpt lat="56.68446" lon="-5.17394">
        <ele>16.91</ele>
        <time>2021-03-20T15:18:14Z</time>
      </trkpt>
      <trkpt lat="56.68445" lon="-5.17404">
        <ele>17.53</ele>
        <time>2021-03-20T15:18:18Z</time>
      </trkpt>
      <trkpt lat="56.68445" lon="-5.17414">
        <ele>17.86</ele>
        <time>2021-03-20T15:18:22Z</time>
      </trkpt>
      <trkpt lat="56.68446" lon="-5.17422">
        <ele>17.75</ele>
        <time>2021-03-20T15:18:26Z</time>
      </trkpt>
      <trkpt lat="56.68466" lon="-5.17471">
        <ele>15.83</ele>
        <time>2021-03-20T15:18:31Z</time>
      </trkpt>
      <trkpt lat="56.68545" lon="-5.17925">
        <ele>17.49</ele>
        <time>2021-03-20T15:18:35Z</time>
      </trkpt>
      <trkpt lat="56.68557" lon="-5.1798">
        <ele>18.27</ele>
        <time>2021-03-20T15:18:39Z</time>
      </trkpt>
      <trkpt lat="56.68576" lon="-5.18042">
        <ele>20.38</ele>
        <time>2021-03-20T15:18:43Z</time>
      </trkpt>
      <trkpt lat="56.68595" lon="-5.18091">
        <ele>21</ele>
        <time>2021-03-20T15:18:48Z</time>
      </trkpt>
      <trkpt lat="56.68625" lon="-5.18141">
        <ele>22.54</ele>
        <time>2021-03-20T15:18:52Z</time>
      </trkpt>
      <trkpt lat="56.68655" lon="-5.1818">
        <ele>25.57</ele>
        <time>2021-03-20T15:18:56Z</time>
      </trkpt>
      <trkpt lat="56.68685" lon="-5.18208">
        <ele>28.31</ele>
        <time>2021-03-20T15:19:00Z</time>
      </trkpt>
      <trkpt lat="56.68725" lon="-5.18228">
        <ele>26.67</ele>
        <time>2021-03-20T15:19:04Z</time>
      </trkpt>
      <trkpt lat="56.68773" lon="-5.18233">
        <ele>11.33</ele>
        <time>2021-03-20T15:19:09Z</time>
      </trkpt>
      <trkpt lat="56.6904" lon="-5.18237">
        <ele>8.84</ele>
        <time>2021-03-20T15:19:13Z</time>
      </trkpt>
      <trkpt lat="56.69243" lon="-5.18239">
        <ele>12.39</ele>
        <time>2021-03-20T15:19:17Z</time>
      </trkpt>
      <trkpt lat="56.69328" lon="-5.1823">
        <ele>11.94</ele>
        <time>2021-03-20T15:19:21Z</time>
      </trkpt>
      <trkpt lat="56.69449" lon="-5.18206">
        <ele>12.83</ele>
        <time>2021-03-20T15:19:25Z</time>
      </trkpt>
      <trkpt lat="56.69521" lon="-5.18186">
        <ele>11.46</ele>
        <time>2021-03-20T15:19:30Z</time>
      </trkpt>
      <trkpt lat="56.69627" lon="-5.18162">
        <ele>11</ele>
        <time>2021-03-20T15:19:34Z</time>
      </trkpt>
      <trkpt lat="56.6966" lon="-5.18159">
        <ele>11.75</ele>
        <time>2021-03-20T15:19:38Z</time>
      </trkpt>
      <trkpt lat="56.6971" lon="-5.18163">
        <ele>13.57</ele>
        <time>2021-03-20T15:19:42Z</time>
      </trkpt>
      <trkpt lat="56.69758" lon="-5.18173">
        <ele>12.79</ele>
        <time>2021-03-20T15:19:47Z</time>
      </trkpt>
      <trkpt lat="56.69786" lon="-5.18183">
        <ele>12.51</ele>
        <time>2021-03-20T15:19:51Z</time>
      </trkpt>
      <trkpt lat="56.69826" lon="-5.18201">
        <ele>12.49</ele>
        <time>2021-03-20T15:19:55Z</time>
      </trkpt>
      <trkpt lat="56.69872" lon="-5.18231">
        <ele>12.5</ele>
        <time>2021-03-20T15:19:59Z</time>
      </trkpt>
      <trkpt lat="56.69985" lon="-5.18323">
        <ele>12.76</ele>
        <time>2021-03-20T15:20:03Z</time>
      </trkpt>
      <trkpt lat="56.70006" lon="-5.18353">
        <ele>13.52</ele>
        <time>2021-03-20T15:20:08Z</time>
      </trkpt>
      <trkpt lat="56.70023" lon="-5.18388">
        <ele>13.4</ele>
        <time>2021-03-20T15:20:12Z</time>
      </trkpt>
      <trkpt lat="56.7003" lon="-5.18411">
        <ele>12.96</ele>
        <time>2021-03-20T15:20:16Z</time>
      </trkpt>
      <trkpt lat="56.70034" lon="-5.18435">
        <ele>13.39</ele>
        <time>2021-03-20T15:20:20Z</time>
      </trkpt>
      <trkpt lat="56.70041" lon="-5.18507">
        <ele>14</ele>
        <time>2021-03-20T15:20:25Z</time>
      </trkpt>
      <trkpt lat="56.70048" lon="-5.18736">
        <ele>14.95</ele>
        <time>2021-03-20T15:20:29Z</time>
      </trkpt>
      <trkpt lat="56.7006" lon="-5.18928">
        <ele>20.2</ele>
        <time>2021-03-20T15:20:33Z</time>
      </trkpt>
      <trkpt lat="56.70061" lon="-5.18977">
        <ele>19.64</ele>
        <time>2021-03-20T15:20:37Z</time>
      </trkpt>
      <trkpt lat="56.7006" lon="-5.19009">
        <ele>19</ele>
        <time>2021-03-20T15:20:41Z</time>
      </trkpt>
      <trkpt lat="56.70054" lon="-5.19054">
        <ele>16.66</ele>
        <time>2021-03-20T15:20:46Z</time>
      </trkpt>
      <trkpt lat="56.7004" lon="-5.19138">
        <ele>13.28</ele>
        <time>2021-03-20T15:20:50Z</time>
      </trkpt>
      <trkpt lat="56.70036" lon="-5.19204">
        <ele>10.19</ele>
        <time>2021-03-20T15:20:54Z</time>
      </trkpt>
      <trkpt lat="56.7003" lon="-5.19577">
        <ele>14.74</ele>
        <time>2021-03-20T15:20:58Z</time>
      </trkpt>
      <trkpt lat="56.70031" lon="-5.19618">
        <ele>13.61</ele>
        <time>2021-03-20T15:21:03Z</time>
      </trkpt>
      <trkpt lat="56.70038" lon="-5.19674">
        <ele>14.43</ele>
        <time>2021-03-20T15:21:07Z</time>
      </trkpt>
      <trkpt lat="56.70082" lon="-5.19868">
        <ele>9.32</ele>
        <time>2021-03-20T15:21:11Z</time>
      </trkpt>
      <trkpt lat="56.70146" lon="-5.20175">
        <ele>4.92</ele>
        <time>2021-03-20T15:21:15Z</time>
      </trkpt>
      <trkpt lat="56.70183" lon="-5.20342">
        <ele>7.55</ele>
        <time>2021-03-20T15:21:19Z</time>
      </trkpt>
      <trkpt lat="56.70199" lon="-5.20396">
        <ele>6.35</ele>
        <time>2021-03-20T15:21:24Z</time>
      </trkpt>
      <trkpt lat="56.70227" lon="-5.20474">
        <ele>9.97</ele>
        <time>2021-03-20T15:21:28Z</time>
      </trkpt>
      <trkpt lat="56.7024" lon="-5.20514">
        <ele>12.91</ele>
        <time>2021-03-20T15:21:32Z</time>
      </trkpt>
      <trkpt lat="56.70247" lon="-5.2055">
        <ele>13.64</ele>
        <time>2021-03-20T15:21:36Z</time>
      </trkpt>
      <trkpt lat="56.70252" lon="-5.20608">
        <ele>15.65</ele>
        <time>2021-03-20T15:21:40Z</time>
      </trkpt>
      <trkpt lat="56.70249" lon="-5.20664">
        <ele>21.43</ele>
        <time>2021-03-20T15:21:45Z</time>
      </trkpt>
      <trkpt lat="56.70246" lon="-5.20692">
        <ele>23.69</ele>
        <time>2021-03-20T15:21:49Z</time>
      </trkpt>
      <trkpt lat="56.70228" lon="-5.2078">
        <ele>21.23</ele>
        <time>2021-03-20T15:21:53Z</time>
      </trkpt>
      <trkpt lat="56.70224" lon="-5.20824">
        <ele>18.67</ele>
        <time>2021-03-20T15:21:57Z</time>
      </trkpt>
      <trkpt lat="56.70223" lon="-5.20863">
        <ele>16.48</ele>
        <time>2021-03-20T15:22:02Z</time>
      </trkpt>
      <trkpt lat="56.70233" lon="-5.21027">
        <ele>13.37</ele>
        <time>2021-03-20T15:22:06Z</time>
      </trkpt>
      <trkpt lat="56.70228" lon="-5.2113">
        <ele>9.61</ele>
        <time>2021-03-20T15:22:10Z</time>
      </trkpt>
      <trkpt lat="56.70229" lon="-5.21162">
        <ele>9.94</ele>
        <time>2021-03-20T15:22:14Z</time>
      </trkpt>
      <trkpt lat="56.70261" lon="-5.21532">
        <ele>14.83</ele>
        <time>2021-03-20T15:22:18Z</time>
      </trkpt>
      <trkpt lat="56.70272" lon="-5.21643">
        <ele>10.66</ele>
        <time>2021-03-20T15:22:23Z</time>
      </trkpt>
      <trkpt lat="56.70275" lon="-5.21686">
        <ele>8.51</ele>
        <time>2021-03-20T15:22:27Z</time>
      </trkpt>
      <trkpt lat="56.70276" lon="-5.21901">
        <ele>9.21</ele>
        <time>2021-03-20T15:22:31Z</time>
      </trkpt>
      <trkpt lat="56.70279" lon="-5.21936">
        <ele>9.35</ele>
        <time>2021-03-20T15:22:35Z</time>
      </trkpt>
      <trkpt lat="56.70282" lon="-5.21967">
        <ele>10.89</ele>
        <time>2021-03-20T15:22:40Z</time>
      </trkpt>
      <trkpt lat="56.7031" lon="-5.22128">
        <ele>14.49</ele>
        <time>2021-03-20T15:22:44Z</time>
      </trkpt>
      <trkpt lat="56.70313" lon="-5.22198">
        <ele>17.78</ele>
        <time>2021-03-20T15:22:48Z</time>
      </trkpt>
      <trkpt lat="56.70312" lon="-5.22247">
        <ele>20.07</ele>
        <time>2021-03-20T15:22:52Z</time>
      </trkpt>
      <trkpt lat="56.70283" lon="-5.22506">
        <ele>18.73</ele>
        <time>2021-03-20T15:22:56Z</time>
      </trkpt>
      <trkpt lat="56.70281" lon="-5.22559">
        <ele>17.3</ele>
        <time>2021-03-20T15:23:01Z</time>
      </trkpt>
      <trkpt lat="56.70284" lon="-5.22604">
        <ele>16.74</ele>
        <time>2021-03-20T15:23:05Z</time>
      </trkpt>
      <trkpt lat="56.7032" lon="-5.22848">
        <ele>16.75</ele>
        <time>2021-03-20T15:23:09Z</time>
      </trkpt>
      <trkpt lat="56.70331" lon="-5.2289">
        <ele>16.7</ele>
        <time>2021-03-20T15:23:13Z</time>
      </trkpt>
      <trkpt lat="56.70346" lon="-5.22921">
        <ele>16.3</ele>
        <time>2021-03-20T15:23:17Z</time>
      </trkpt>
      <trkpt lat="56.70369" lon="-5.22951">
        <ele>16.27</ele>
        <time>2021-03-20T15:23:22Z</time>
      </trkpt>
      <trkpt lat="56.70561" lon="-5.23143">
        <ele>18.84</ele>
        <time>2021-03-20T15:23:26Z</time>
      </trkpt>
      <trkpt lat="56.70585" lon="-5.23163">
        <ele>18.18</ele>
        <time>2021-03-20T15:23:30Z</time>
      </trkpt>
      <trkpt lat="56.7061" lon="-5.23176">
        <ele>18.97</ele>
        <time>2021-03-20T15:23:34Z</time>
      </trkpt>
      <trkpt lat="56.70627" lon="-5.23181">
        <ele>19.58</ele>
        <time>2021-03-20T15:23:39Z</time>
      </trkpt>
      <trkpt lat="56.70644" lon="-5.23182">
        <ele>20.19</ele>
        <time>2021-03-20T15:23:43Z</time>
      </trkpt>
      <trkpt lat="56.70659" lon="-5.23178">
        <ele>20.72</ele>
        <time>2021-03-20T15:23:47Z</time>
      </trkpt>
      <trkpt lat="56.70683" lon="-5.23168">
        <ele>21.03</ele>
        <time>2021-03-20T15:23:51Z</time>
      </trkpt>
      <trkpt lat="56.7072" lon="-5.23143">
        <ele>20.14</ele>
        <time>2021-03-20T15:23:55Z</time>
      </trkpt>
      <trkpt lat="56.70758" lon="-5.23114">
        <ele>20.02</ele>
        <time>2021-03-20T15:24:00Z</time>
      </trkpt>
      <trkpt lat="56.70788" lon="-5.23085">
        <ele>19.64</ele>
        <time>2021-03-20T15:24:04Z</time>
      </trkpt>
      <trkpt lat="56.70868" lon="-5.22998">
        <ele>19.48</ele>
        <time>2021-03-20T15:24:08Z</time>
      </trkpt>
      <trkpt lat="56.7092" lon="-5.2294">
        <ele>22.3</ele>
        <time>2021-03-20T15:24:12Z</time>
      </trkpt>
      <trkpt lat="56.7092" lon="-5.2294">
        <ele>22.3</ele>
        <time>2021-03-20T15:24:12Z</time>
      </trkpt>
      <trkpt lat="56.70972" lon="-5.22894">
        <ele>22.51</ele>
        <time>2021-03-20T15:24:15Z</time>
      </trkpt>
      <trkpt lat="56.7104" lon="-5.2285">
        <ele>25.04</ele>
        <time>2021-03-20T15:24:18Z</time>
      </trkpt>
      <trkpt lat="56.71157" lon="-5.22795">
        <ele>29.42</ele>
        <time>2021-03-20T15:24:21Z</time>
      </trkpt>
      <trkpt lat="56.7118" lon="-5.22781">
        <ele>28.91</ele>
        <time>2021-03-20T15:24:24Z</time>
      </trkpt>
      <trkpt lat="56.712" lon="-5.22764">
        <ele>27.63</ele>
        <time>2021-03-20T15:24:27Z</time>
      </trkpt>
      <trkpt lat="56.71267" lon="-5.22693">
        <ele>24.14</ele>
        <time>2021-03-20T15:24:30Z</time>
      </trkpt>
      <trkpt lat="56.71284" lon="-5.22678">
        <ele>24.13</ele>
        <time>2021-03-20T15:24:33Z</time>
      </trkpt>
      <trkpt lat="56.71299" lon="-5.2267">
        <ele>24.06</ele>
        <time>2021-03-20T15:24:36Z</time>
      </trkpt>
      <trkpt lat="56.71318" lon="-5.22665">
        <ele>24.73</ele>
        <time>2021-03-20T15:24:38Z</time>
      </trkpt>
      <trkpt lat="56.71425" lon="-5.22662">
        <ele>21.83</ele>
        <time>2021-03-20T15:24:41Z</time>
      </trkpt>
      <trkpt lat="56.71437" lon="-5.22664">
        <ele>20.64</ele>
        <time>2021-03-20T15:24:44Z</time>
      </trkpt>
      <trkpt lat="56.71457" lon="-5.22674">
        <ele>20.36</ele>
        <time>2021-03-20T15:24:47Z</time>
      </trkpt>
      <trkpt lat="56.71466" lon="-5.22682">
        <ele>20.65</ele>
        <time>2021-03-20T15:24:50Z</time>
      </trkpt>
      <trkpt lat="56.71485" lon="-5.22714">
        <ele>20.63</ele>
        <time>2021-03-20T15:24:53Z</time>
      </trkpt>
      <trkpt lat="56.71493" lon="-5.22733">
        <ele>20.51</ele>
        <time>2021-03-20T15:24:56Z</time>
      </trkpt>
      <trkpt lat="56.71516" lon="-5.22827">
        <ele>18.29</ele>
        <time>2021-03-20T15:24:59Z</time>
      </trkpt>
      <trkpt lat="56.71523" lon="-5.22851">
        <ele>16.89</ele>
        <time>2021-03-20T15:25:02Z</time>
      </trkpt>
      <trkpt lat="56.71532" lon="-5.22872">
        <ele>15.94</ele>
        <time>2021-03-20T15:25:05Z</time>
      </trkpt>
      <trkpt lat="56.71735" lon="-5.23208">
        <ele>19</ele>
        <time>2021-03-20T15:25:07Z</time>
      </trkpt>
      <trkpt lat="56.71753" lon="-5.23229">
        <ele>18.96</ele>
        <time>2021-03-20T15:25:10Z</time>
      </trkpt>
      <trkpt lat="56.7178" lon="-5.2325">
        <ele>20.19</ele>
        <time>2021-03-20T15:25:13Z</time>
      </trkpt>
      <trkpt lat="56.71798" lon="-5.23256">
        <ele>21.27</ele>
        <time>2021-03-20T15:25:16Z</time>
      </trkpt>
      <trkpt lat="56.71815" lon="-5.23259">
        <ele>22.03</ele>
        <time>2021-03-20T15:25:19Z</time>
      </trkpt>
      <trkpt lat="56.71831" lon="-5.23257">
        <ele>22.67</ele>
        <time>2021-03-20T15:25:22Z</time>
      </trkpt>
      <trkpt lat="56.71858" lon="-5.23242">
        <ele>24.49</ele>
        <time>2021-03-20T15:25:25Z</time>
      </trkpt>
      <trkpt lat="56.71882" lon="-5.23223">
        <ele>24.47</ele>
        <time>2021-03-20T15:25:28Z</time>
      </trkpt>
      <trkpt lat="56.71952" lon="-5.23148">
        <ele>25.73</ele>
        <time>2021-03-20T15:25:31Z</time>
      </trkpt>
      <trkpt lat="56.71966" lon="-5.23137">
        <ele>26.41</ele>
        <time>2021-03-20T15:25:34Z</time>
      </trkpt>
      <trkpt lat="56.71982" lon="-5.2313">
        <ele>26.23</ele>
        <time>2021-03-20T15:25:37Z</time>
      </trkpt>
      <trkpt lat="56.71996" lon="-5.23128">
        <ele>25.43</ele>
        <time>2021-03-20T15:25:39Z</time>
      </trkpt>
      <trkpt lat="56.72014" lon="-5.23133">
        <ele>23.6</ele>
        <time>2021-03-20T15:25:42Z</time>
      </trkpt>
      <trkpt lat="56.72036" lon="-5.23148">
        <ele>21.45</ele>
        <time>2021-03-20T15:25:45Z</time>
      </trkpt>
      <trkpt lat="56.72102" lon="-5.23204">
        <ele>20.46</ele>
        <time>2021-03-20T15:25:48Z</time>
      </trkpt>
      <trkpt lat="56.72118" lon="-5.23214">
        <ele>19.03</ele>
        <time>2021-03-20T15:25:51Z</time>
      </trkpt>
      <trkpt lat="56.72147" lon="-5.23227">
        <ele>17.52</ele>
        <time>2021-03-20T15:25:54Z</time>
      </trkpt>
      <trkpt lat="56.72184" lon="-5.23226">
        <ele>18.81</ele>
        <time>2021-03-20T15:25:57Z</time>
      </trkpt>
      <trkpt lat="56.72225" lon="-5.2323">
        <ele>18.88</ele>
        <time>2021-03-20T15:26:00Z</time>
      </trkpt>
      <trkpt lat="56.72236" lon="-5.23233">
        <ele>18.11</ele>
        <time>2021-03-20T15:26:03Z</time>
      </trkpt>
      <trkpt lat="56.72234" lon="-5.23249">
        <ele>16.18</ele>
        <time>2021-03-20T15:26:20Z</time>
      </trkpt>
      <trkpt lat="56.72229" lon="-5.23258">
        <ele>15.23</ele>
        <time>2021-03-20T15:26:38Z</time>
      </trkpt>
      <trkpt lat="56.72223" lon="-5.23261">
        <ele>14.86</ele>
        <time>2021-03-20T15:26:55Z</time>
      </trkpt>
      <trkpt lat="56.72181" lon="-5.23254">
        <ele>15.07</ele>
        <time>2021-03-20T15:27:13Z</time>
      </trkpt>
      <trkpt lat="56.72168" lon="-5.23258">
        <ele>14.13</ele>
        <time>2021-03-20T15:27:30Z</time>
      </trkpt>
      <trkpt lat="56.7215" lon="-5.23283">
        <ele>11.73</ele>
        <time>2021-03-20T15:27:47Z</time>
      </trkpt>
      <trkpt lat="56.72141" lon="-5.23321">
        <ele>10.3</ele>
        <time>2021-03-20T15:28:05Z</time>
      </trkpt>
      <trkpt lat="56.72138" lon="-5.23348">
        <ele>10.06</ele>
        <time>2021-03-20T15:28:22Z</time>
      </trkpt>
      <trkpt lat="56.72138" lon="-5.23364">
        <ele>10.05</ele>
        <time>2021-03-20T15:28:40Z</time>
      </trkpt>
      <trkpt lat="56.72146" lon="-5.23426">
        <ele>8.25</ele>
        <time>2021-03-20T15:28:57Z</time>
      </trkpt>
      <trkpt lat="56.72147" lon="-5.23551">
        <ele>1</ele>
        <time>2021-03-20T15:29:15Z</time>
      </trkpt>
      <trkpt lat="56.72164" lon="-5.23603">
        <ele>1.32</ele>
        <time>2021-03-20T15:29:32Z</time>
      </trkpt>
      <trkpt lat="56.72172" lon="-5.23635">
        <ele>1.51</ele>
        <time>2021-03-20T15:29:50Z</time>
      </trkpt>
      <trkpt lat="56.72224" lon="-5.23763">
        <ele>2.29</ele>
        <time>2021-03-20T15:30:07Z</time>
      </trkpt>
      <trkpt lat="56.72267" lon="-5.23863">
        <ele>2.91</ele>
        <time>2021-03-20T15:30:25Z</time>
      </trkpt>
      <trkpt lat="56.7228" lon="-5.23908">
        <ele>3.17</ele>
        <time>2021-03-20T15:30:42Z</time>
      </trkpt>
      <trkpt lat="56.72295" lon="-5.23988">
        <ele>3.62</ele>
        <time>2021-03-20T15:30:59Z</time>
      </trkpt>
      <trkpt lat="56.72303" lon="-5.24075">
        <ele>4.11</ele>
        <time>2021-03-20T15:31:17Z</time>
      </trkpt>
      <trkpt lat="56.72304" lon="-5.24119">
        <ele>4.36</ele>
        <time>2021-03-20T15:31:34Z</time>
      </trkpt>
      <trkpt lat="56.72302" lon="-5.24158">
        <ele>4.58</ele>
        <time>2021-03-20T15:31:52Z</time>
      </trkpt>
      <trkpt lat="56.72292" lon="-5.2423">
        <ele>5</ele>
        <time>2021-03-20T15:32:09Z</time>
      </trkpt>
      <trkpt lat="56.72282" lon="-5.24287">
        <ele>0.44</ele>
        <time>2021-03-20T15:32:27Z</time>
      </trkpt>
      <trkpt lat="56.72275" lon="-5.24286">
        <ele>0.53</ele>
        <time>2021-03-20T15:32:44Z</time>
      </trkpt>
      <trkpt lat="56.72262" lon="-5.24364">
        <ele>5.18</ele>
        <time>2021-03-20T15:33:02Z</time>
      </trkpt>
      <trkpt lat="56.72234" lon="-5.24316">
        <ele>6.79</ele>
        <time>2021-03-20T15:33:03Z</time>
      </trkpt>
      <trkpt lat="56.72202" lon="-5.24291">
        <ele>6.46</ele>
        <time>2021-03-20T15:33:05Z</time>
      </trkpt>
      <trkpt lat="56.72176" lon="-5.24284">
        <ele>6.38</ele>
        <time>2021-03-20T15:33:07Z</time>
      </trkpt>
      <trkpt lat="56.72118" lon="-5.24282">
        <ele>3.79</ele>
        <time>2021-03-20T15:33:09Z</time>
      </trkpt>
      <trkpt lat="56.72101" lon="-5.24286">
        <ele>3.24</ele>
        <time>2021-03-20T15:33:11Z</time>
      </trkpt>
      <trkpt lat="56.72083" lon="-5.24295">
        <ele>3.24</ele>
        <time>2021-03-20T15:33:12Z</time>
      </trkpt>
      <trkpt lat="56.7207" lon="-5.24306">
        <ele>3.52</ele>
        <time>2021-03-20T15:33:14Z</time>
      </trkpt>
      <trkpt lat="56.72052" lon="-5.24324">
        <ele>3.49</ele>
        <time>2021-03-20T15:33:16Z</time>
      </trkpt>
      <trkpt lat="56.72036" lon="-5.24348">
        <ele>3.48</ele>
        <time>2021-03-20T15:33:18Z</time>
      </trkpt>
      <trkpt lat="56.72019" lon="-5.24384">
        <ele>4.2</ele>
        <time>2021-03-20T15:33:20Z</time>
      </trkpt>
      <trkpt lat="56.7201" lon="-5.24413">
        <ele>4.58</ele>
        <time>2021-03-20T15:33:21Z</time>
      </trkpt>
      <trkpt lat="56.72002" lon="-5.2445">
        <ele>4.91</ele>
        <time>2021-03-20T15:33:23Z</time>
      </trkpt>
      <trkpt lat="56.71997" lon="-5.24488">
        <ele>3.9</ele>
        <time>2021-03-20T15:33:25Z</time>
      </trkpt>
      <trkpt lat="56.71996" lon="-5.24526">
        <ele>2.92</ele>
        <time>2021-03-20T15:33:27Z</time>
      </trkpt>
      <trkpt lat="56.71997" lon="-5.24644">
        <ele>1.98</ele>
        <time>2021-03-20T15:33:29Z</time>
      </trkpt>
      <trkpt lat="56.71995" lon="-5.24683">
        <ele>3.74</ele>
        <time>2021-03-20T15:33:30Z</time>
      </trkpt>
      <trkpt lat="56.7199" lon="-5.24724">
        <ele>5.26</ele>
        <time>2021-03-20T15:33:32Z</time>
      </trkpt>
      <trkpt lat="56.71966" lon="-5.24844">
        <ele>7.54</ele>
        <time>2021-03-20T15:33:34Z</time>
      </trkpt>
      <trkpt lat="56.71939" lon="-5.25039">
        <ele>9.36</ele>
        <time>2021-03-20T15:33:36Z</time>
      </trkpt>
      <trkpt lat="56.71925" lon="-5.25089">
        <ele>7.15</ele>
        <time>2021-03-20T15:33:37Z</time>
      </trkpt>
      <trkpt lat="56.71894" lon="-5.25179">
        <ele>5.29</ele>
        <time>2021-03-20T15:33:39Z</time>
      </trkpt>
      <trkpt lat="56.71903" lon="-5.25208">
        <ele>5.51</ele>
        <time>2021-03-20T15:33:45Z</time>
      </trkpt>
      <trkpt lat="56.71901" lon="-5.25307">
        <ele>4.43</ele>
        <time>2021-03-20T15:33:50Z</time>
      </trkpt>
      <trkpt lat="56.71921" lon="-5.25892">
        <ele>7.14</ele>
        <time>2021-03-20T15:33:55Z</time>
      </trkpt>
      <trkpt lat="56.71941" lon="-5.25977">
        <ele>8.86</ele>
        <time>2021-03-20T15:34:00Z</time>
      </trkpt>
      <trkpt lat="56.71962" lon="-5.26019">
        <ele>10.29</ele>
        <time>2021-03-20T15:34:06Z</time>
      </trkpt>
      <trkpt lat="56.71965" lon="-5.26094">
        <ele>11.44</ele>
        <time>2021-03-20T15:34:11Z</time>
      </trkpt>
      <trkpt lat="56.71961" lon="-5.26236">
        <ele>13.74</ele>
        <time>2021-03-20T15:34:16Z</time>
      </trkpt>
      <trkpt lat="56.71922" lon="-5.26332">
        <ele>14.81</ele>
        <time>2021-03-20T15:34:21Z</time>
      </trkpt>
      <trkpt lat="56.71882" lon="-5.26444">
        <ele>12.95</ele>
        <time>2021-03-20T15:34:27Z</time>
      </trkpt>
      <trkpt lat="56.71847" lon="-5.26642">
        <ele>11.93</ele>
        <time>2021-03-20T15:34:32Z</time>
      </trkpt>
      <trkpt lat="56.71843" lon="-5.2669">
        <ele>13.05</ele>
        <time>2021-03-20T15:34:37Z</time>
      </trkpt>
      <trkpt lat="56.71753" lon="-5.26819">
        <ele>13.7</ele>
        <time>2021-03-20T15:34:42Z</time>
      </trkpt>
      <trkpt lat="56.7145" lon="-5.27145">
        <ele>12</ele>
        <time>2021-03-20T15:34:48Z</time>
      </trkpt>
      <trkpt lat="56.71443" lon="-5.27148">
        <ele>11.9</ele>
        <time>2021-03-20T15:34:53Z</time>
      </trkpt>
      <trkpt lat="56.71422" lon="-5.27147">
        <ele>10.6</ele>
        <time>2021-03-20T15:34:58Z</time>
      </trkpt>
      <trkpt lat="56.71413" lon="-5.27198">
        <ele>11.57</ele>
        <time>2021-03-20T15:35:02Z</time>
      </trkpt>
      <trkpt lat="56.71394" lon="-5.27276">
        <ele>10.19</ele>
        <time>2021-03-20T15:35:05Z</time>
      </trkpt>
      <trkpt lat="56.71383" lon="-5.27308">
        <ele>9.78</ele>
        <time>2021-03-20T15:35:09Z</time>
      </trkpt>
      <trkpt lat="56.71364" lon="-5.27344">
        <ele>9.5</ele>
        <time>2021-03-20T15:35:13Z</time>
      </trkpt>
      <trkpt lat="56.7134" lon="-5.27381">
        <ele>11.23</ele>
        <time>2021-03-20T15:35:16Z</time>
      </trkpt>
      <trkpt lat="56.71219" lon="-5.27526">
        <ele>13.68</ele>
        <time>2021-03-20T15:35:20Z</time>
      </trkpt>
      <trkpt lat="56.71195" lon="-5.27558">
        <ele>14.09</ele>
        <time>2021-03-20T15:35:24Z</time>
      </trkpt>
      <trkpt lat="56.71167" lon="-5.27606">
        <ele>14.82</ele>
        <time>2021-03-20T15:35:27Z</time>
      </trkpt>
      <trkpt lat="56.71139" lon="-5.27675">
        <ele>15.31</ele>
        <time>2021-03-20T15:35:31Z</time>
      </trkpt>
      <trkpt lat="56.71126" lon="-5.27723">
        <ele>15.1</ele>
        <time>2021-03-20T15:35:34Z</time>
      </trkpt>
      <trkpt lat="56.71117" lon="-5.27765">
        <ele>15.41</ele>
        <time>2021-03-20T15:35:38Z</time>
      </trkpt>
      <trkpt lat="56.71044" lon="-5.28235">
        <ele>14.04</ele>
        <time>2021-03-20T15:35:42Z</time>
      </trkpt>
      <trkpt lat="56.71039" lon="-5.28309">
        <ele>15.88</ele>
        <time>2021-03-20T15:35:45Z</time>
      </trkpt>
      <trkpt lat="56.71041" lon="-5.2839">
        <ele>15.87</ele>
        <time>2021-03-20T15:35:49Z</time>
      </trkpt>
      <trkpt lat="56.71044" lon="-5.28423">
        <ele>14.91</ele>
        <time>2021-03-20T15:35:53Z</time>
      </trkpt>
      <trkpt lat="56.71056" lon="-5.28499">
        <ele>13.09</ele>
        <time>2021-03-20T15:35:56Z</time>
      </trkpt>
      <trkpt lat="56.71116" lon="-5.28696">
        <ele>12.11</ele>
        <time>2021-03-20T15:36:00Z</time>
      </trkpt>
      <trkpt lat="56.7132" lon="-5.2949">
        <ele>12.55</ele>
        <time>2021-03-20T15:36:03Z</time>
      </trkpt>
      <trkpt lat="56.71328" lon="-5.29526">
        <ele>12.52</ele>
        <time>2021-03-20T15:36:07Z</time>
      </trkpt>
      <trkpt lat="56.71339" lon="-5.29587">
        <ele>11.9</ele>
        <time>2021-03-20T15:36:11Z</time>
      </trkpt>
      <trkpt lat="56.71342" lon="-5.2965">
        <ele>10.32</ele>
        <time>2021-03-20T15:36:14Z</time>
      </trkpt>
      <trkpt lat="56.7134" lon="-5.2968">
        <ele>9.35</ele>
        <time>2021-03-20T15:36:18Z</time>
      </trkpt>
      <trkpt lat="56.71335" lon="-5.29719">
        <ele>8.29</ele>
        <time>2021-03-20T15:36:21Z</time>
      </trkpt>
      <trkpt lat="56.71321" lon="-5.29782">
        <ele>5.94</ele>
        <time>2021-03-20T15:36:25Z</time>
      </trkpt>
      <trkpt lat="56.71303" lon="-5.29843">
        <ele>3.56</ele>
        <time>2021-03-20T15:36:29Z</time>
      </trkpt>
      <trkpt lat="56.71286" lon="-5.29915">
        <ele>2.95</ele>
        <time>2021-03-20T15:36:32Z</time>
      </trkpt>
      <trkpt lat="56.71275" lon="-5.2997">
        <ele>3.01</ele>
        <time>2021-03-20T15:36:36Z</time>
      </trkpt>
      <trkpt lat="56.71266" lon="-5.30079">
        <ele>3.83</ele>
        <time>2021-03-20T15:36:40Z</time>
      </trkpt>
      <trkpt lat="56.71262" lon="-5.30202">
        <ele>5</ele>
        <time>2021-03-20T15:36:43Z</time>
      </trkpt>
      <trkpt lat="56.71252" lon="-5.30276">
        <ele>5</ele>
        <time>2021-03-20T15:36:47Z</time>
      </trkpt>
      <trkpt lat="56.71205" lon="-5.30397">
        <ele>8.28</ele>
        <time>2021-03-20T15:36:50Z</time>
      </trkpt>
      <trkpt lat="56.71127" lon="-5.30532">
        <ele>12.16</ele>
        <time>2021-03-20T15:36:54Z</time>
      </trkpt>
      <trkpt lat="56.71099" lon="-5.30576">
        <ele>11.9</ele>
        <time>2021-03-20T15:36:58Z</time>
      </trkpt>
      <trkpt lat="56.71069" lon="-5.30609">
        <ele>10.32</ele>
        <time>2021-03-20T15:37:01Z</time>
      </trkpt>
      <trkpt lat="56.71045" lon="-5.30632">
        <ele>10.47</ele>
        <time>2021-03-20T15:37:05Z</time>
      </trkpt>
      <trkpt lat="56.70949" lon="-5.30693">
        <ele>15.19</ele>
        <time>2021-03-20T15:37:09Z</time>
      </trkpt>
      <trkpt lat="56.70933" lon="-5.30708">
        <ele>14.69</ele>
        <time>2021-03-20T15:37:12Z</time>
      </trkpt>
      <trkpt lat="56.70905" lon="-5.30743">
        <ele>14.74</ele>
        <time>2021-03-20T15:37:16Z</time>
      </trkpt>
      <trkpt lat="56.70895" lon="-5.3076">
        <ele>15.52</ele>
        <time>2021-03-20T15:37:19Z</time>
      </trkpt>
      <trkpt lat="56.70886" lon="-5.30775">
        <ele>16.09</ele>
        <time>2021-03-20T15:37:23Z</time>
      </trkpt>
      <trkpt lat="56.70855" lon="-5.30844">
        <ele>18.47</ele>
        <time>2021-03-20T15:37:27Z</time>
      </trkpt>
      <trkpt lat="56.70844" lon="-5.30862">
        <ele>15.87</ele>
        <time>2021-03-20T15:37:30Z</time>
      </trkpt>
      <trkpt lat="56.7081" lon="-5.30904">
        <ele>12</ele>
        <time>2021-03-20T15:37:34Z</time>
      </trkpt>
      <trkpt lat="56.70782" lon="-5.30934">
        <ele>14.96</ele>
        <time>2021-03-20T15:37:38Z</time>
      </trkpt>
      <trkpt lat="56.70754" lon="-5.30973">
        <ele>14.06</ele>
        <time>2021-03-20T15:37:41Z</time>
      </trkpt>
      <trkpt lat="56.70731" lon="-5.3101">
        <ele>15.9</ele>
        <time>2021-03-20T15:37:45Z</time>
      </trkpt>
      <trkpt lat="56.70655" lon="-5.31157">
        <ele>23.1</ele>
        <time>2021-03-20T15:37:48Z</time>
      </trkpt>
      <trkpt lat="56.70627" lon="-5.31227">
        <ele>18.76</ele>
        <time>2021-03-20T15:37:52Z</time>
      </trkpt>
      <trkpt lat="56.70602" lon="-5.313">
        <ele>20.21</ele>
        <time>2021-03-20T15:37:56Z</time>
      </trkpt>
      <trkpt lat="56.70589" lon="-5.31331">
        <ele>20.09</ele>
        <time>2021-03-20T15:37:59Z</time>
      </trkpt>
      <trkpt lat="56.70578" lon="-5.31353">
        <ele>18.67</ele>
        <time>2021-03-20T15:38:03Z</time>
      </trkpt>
      <trkpt lat="56.70564" lon="-5.31374">
        <ele>15.84</ele>
        <time>2021-03-20T15:38:07Z</time>
      </trkpt>
      <trkpt lat="56.70544" lon="-5.31396">
        <ele>15.07</ele>
        <time>2021-03-20T15:38:10Z</time>
      </trkpt>
      <trkpt lat="56.70525" lon="-5.31411">
        <ele>18.44</ele>
        <time>2021-03-20T15:38:14Z</time>
      </trkpt>
      <trkpt lat="56.7046" lon="-5.31447">
        <ele>23.45</ele>
        <time>2021-03-20T15:38:17Z</time>
      </trkpt>
      <trkpt lat="56.70429" lon="-5.31471">
        <ele>21.68</ele>
        <time>2021-03-20T15:38:21Z</time>
      </trkpt>
      <trkpt lat="56.70385" lon="-5.31523">
        <ele>16.34</ele>
        <time>2021-03-20T15:38:25Z</time>
      </trkpt>
      <trkpt lat="56.70343" lon="-5.3158">
        <ele>15.72</ele>
        <time>2021-03-20T15:38:28Z</time>
      </trkpt>
      <trkpt lat="56.70316" lon="-5.31635">
        <ele>18.77</ele>
        <time>2021-03-20T15:38:32Z</time>
      </trkpt>
      <trkpt lat="56.70198" lon="-5.31905">
        <ele>13.03</ele>
        <time>2021-03-20T15:38:36Z</time>
      </trkpt>
      <trkpt lat="56.70185" lon="-5.31931">
        <ele>13.25</ele>
        <time>2021-03-20T15:38:39Z</time>
      </trkpt>
      <trkpt lat="56.70166" lon="-5.31963">
        <ele>14.96</ele>
        <time>2021-03-20T15:38:43Z</time>
      </trkpt>
      <trkpt lat="56.70148" lon="-5.31988">
        <ele>16</ele>
        <time>2021-03-20T15:38:46Z</time>
      </trkpt>
      <trkpt lat="56.70126" lon="-5.32015">
        <ele>16.92</ele>
        <time>2021-03-20T15:38:50Z</time>
      </trkpt>
      <trkpt lat="56.70078" lon="-5.32051">
        <ele>18.34</ele>
        <time>2021-03-20T15:38:54Z</time>
      </trkpt>
      <trkpt lat="56.69886" lon="-5.32161">
        <ele>15.55</ele>
        <time>2021-03-20T15:38:57Z</time>
      </trkpt>
      <trkpt lat="56.69826" lon="-5.32196">
        <ele>15.37</ele>
        <time>2021-03-20T15:39:01Z</time>
      </trkpt>
      <trkpt lat="56.69807" lon="-5.32209">
        <ele>15.3</ele>
        <time>2021-03-20T15:39:05Z</time>
      </trkpt>
      <trkpt lat="56.69793" lon="-5.32223">
        <ele>15.26</ele>
        <time>2021-03-20T15:39:08Z</time>
      </trkpt>
      <trkpt lat="56.69778" lon="-5.32242">
        <ele>14.42</ele>
        <time>2021-03-20T15:39:12Z</time>
      </trkpt>
      <trkpt lat="56.69756" lon="-5.3228">
        <ele>14.82</ele>
        <time>2021-03-20T15:39:15Z</time>
      </trkpt>
      <trkpt lat="56.6974" lon="-5.32325">
        <ele>14.51</ele>
        <time>2021-03-20T15:39:19Z</time>
      </trkpt>
      <trkpt lat="56.69732" lon="-5.32356">
        <ele>14.23</ele>
        <time>2021-03-20T15:39:23Z</time>
      </trkpt>
      <trkpt lat="56.69726" lon="-5.32389">
        <ele>13.91</ele>
        <time>2021-03-20T15:39:26Z</time>
      </trkpt>
      <trkpt lat="56.69714" lon="-5.32467">
        <ele>14.16</ele>
        <time>2021-03-20T15:39:30Z</time>
      </trkpt>
      <trkpt lat="56.69669" lon="-5.32823">
        <ele>10.42</ele>
        <time>2021-03-20T15:39:34Z</time>
      </trkpt>
      <trkpt lat="56.69657" lon="-5.32902">
        <ele>13.65</ele>
        <time>2021-03-20T15:39:37Z</time>
      </trkpt>
      <trkpt lat="56.69648" lon="-5.32943">
        <ele>15.5</ele>
        <time>2021-03-20T15:39:41Z</time>
      </trkpt>
      <trkpt lat="56.69627" lon="-5.33008">
        <ele>16.34</ele>
        <time>2021-03-20T15:39:44Z</time>
      </trkpt>
      <trkpt lat="56.69401" lon="-5.3354">
        <ele>16.32</ele>
        <time>2021-03-20T15:39:48Z</time>
      </trkpt>
      <trkpt lat="56.6938" lon="-5.33582">
        <ele>16.65</ele>
        <time>2021-03-20T15:39:52Z</time>
      </trkpt>
      <trkpt lat="56.69346" lon="-5.33629">
        <ele>13.62</ele>
        <time>2021-03-20T15:39:55Z</time>
      </trkpt>
      <trkpt lat="56.69265" lon="-5.33715">
        <ele>6.38</ele>
        <time>2021-03-20T15:39:59Z</time>
      </trkpt>
      <trkpt lat="56.69228" lon="-5.33763">
        <ele>7.01</ele>
        <time>2021-03-20T15:40:03Z</time>
      </trkpt>
      <trkpt lat="56.68621" lon="-5.34901">
        <ele>16.59</ele>
        <time>2021-03-20T15:40:06Z</time>
      </trkpt>
      <trkpt lat="56.68601" lon="-5.34949">
        <ele>16.15</ele>
        <time>2021-03-20T15:40:10Z</time>
      </trkpt>
      <trkpt lat="56.68581" lon="-5.35004">
        <ele>18.25</ele>
        <time>2021-03-20T15:40:13Z</time>
      </trkpt>
      <trkpt lat="56.6857" lon="-5.35043">
        <ele>21.54</ele>
        <time>2021-03-20T15:40:17Z</time>
      </trkpt>
      <trkpt lat="56.68552" lon="-5.35113">
        <ele>24.45</ele>
        <time>2021-03-20T15:40:21Z</time>
      </trkpt>
      <trkpt lat="56.68467" lon="-5.35604">
        <ele>13</ele>
        <time>2021-03-20T15:40:24Z</time>
      </trkpt>
      <trkpt lat="56.68453" lon="-5.35663">
        <ele>11.84</ele>
        <time>2021-03-20T15:40:28Z</time>
      </trkpt>
      <trkpt lat="56.6844" lon="-5.35709">
        <ele>10.28</ele>
        <time>2021-03-20T15:40:32Z</time>
      </trkpt>
      <trkpt lat="56.68409" lon="-5.35787">
        <ele>7.99</ele>
        <time>2021-03-20T15:40:35Z</time>
      </trkpt>
      <trkpt lat="56.6811" lon="-5.36466">
        <ele>14.42</ele>
        <time>2021-03-20T15:40:39Z</time>
      </trkpt>
      <trkpt lat="56.68083" lon="-5.36538">
        <ele>14.33</ele>
        <time>2021-03-20T15:40:42Z</time>
      </trkpt>
      <trkpt lat="56.68075" lon="-5.36577">
        <ele>14.21</ele>
        <time>2021-03-20T15:40:46Z</time>
      </trkpt>
      <trkpt lat="56.68047" lon="-5.36741">
        <ele>14.7</ele>
        <time>2021-03-20T15:40:50Z</time>
      </trkpt>
      <trkpt lat="56.68018" lon="-5.36925">
        <ele>12.65</ele>
        <time>2021-03-20T15:40:53Z</time>
      </trkpt>
      <trkpt lat="56.68015" lon="-5.36956">
        <ele>12.55</ele>
        <time>2021-03-20T15:40:57Z</time>
      </trkpt>
      <trkpt lat="56.68013" lon="-5.37012">
        <ele>12.46</ele>
        <time>2021-03-20T15:41:01Z</time>
      </trkpt>
      <trkpt lat="56.68013" lon="-5.37062">
        <ele>12.08</ele>
        <time>2021-03-20T15:41:04Z</time>
      </trkpt>
      <trkpt lat="56.6802" lon="-5.37353">
        <ele>15.89</ele>
        <time>2021-03-20T15:41:08Z</time>
      </trkpt>
      <trkpt lat="56.68028" lon="-5.37441">
        <ele>16.11</ele>
        <time>2021-03-20T15:41:12Z</time>
      </trkpt>
      <trkpt lat="56.68019" lon="-5.37447">
        <ele>15.02</ele>
        <time>2021-03-20T15:41:13Z</time>
      </trkpt>
      <trkpt lat="56.6801" lon="-5.37465">
        <ele>13.8</ele>
        <time>2021-03-20T15:41:15Z</time>
      </trkpt>
      <trkpt lat="56.67991" lon="-5.37512">
        <ele>12.37</ele>
        <time>2021-03-20T15:41:17Z</time>
      </trkpt>
      <trkpt lat="56.67973" lon="-5.37546">
        <ele>12</ele>
        <time>2021-03-20T15:41:19Z</time>
      </trkpt>
      <trkpt lat="56.6794" lon="-5.37595">
        <ele>12.14</ele>
        <time>2021-03-20T15:41:21Z</time>
      </trkpt>
      <trkpt lat="56.67922" lon="-5.37613">
        <ele>12.81</ele>
        <time>2021-03-20T15:41:23Z</time>
      </trkpt>
      <trkpt lat="56.67878" lon="-5.37666">
        <ele>11.61</ele>
        <time>2021-03-20T15:41:25Z</time>
      </trkpt>
      <trkpt lat="56.67839" lon="-5.37698">
        <ele>11</ele>
        <time>2021-03-20T15:41:27Z</time>
      </trkpt>
      <trkpt lat="56.67798" lon="-5.37721">
        <ele>11.98</ele>
        <time>2021-03-20T15:41:29Z</time>
      </trkpt>
      <trkpt lat="56.67708" lon="-5.37742">
        <ele>16.62</ele>
        <time>2021-03-20T15:41:31Z</time>
      </trkpt>
      <trkpt lat="56.67693" lon="-5.3775">
        <ele>17.02</ele>
        <time>2021-03-20T15:41:33Z</time>
      </trkpt>
      <trkpt lat="56.67685" lon="-5.37762">
        <ele>17.86</ele>
        <time>2021-03-20T15:41:34Z</time>
      </trkpt>
      <trkpt lat="56.67674" lon="-5.37789">
        <ele>20.33</ele>
        <time>2021-03-20T15:41:36Z</time>
      </trkpt>
      <trkpt lat="56.6765" lon="-5.37882">
        <ele>27.74</ele>
        <time>2021-03-20T15:41:38Z</time>
      </trkpt>
      <trkpt lat="56.67635" lon="-5.37967">
        <ele>33.82</ele>
        <time>2021-03-20T15:41:40Z</time>
      </trkpt>
      <trkpt lat="56.67627" lon="-5.38001">
        <ele>35.49</ele>
        <time>2021-03-20T15:41:42Z</time>
      </trkpt>
      <trkpt lat="56.67605" lon="-5.38067">
        <ele>40.93</ele>
        <time>2021-03-20T15:41:44Z</time>
      </trkpt>
      <trkpt lat="56.67594" lon="-5.38088">
        <ele>42.85</ele>
        <time>2021-03-20T15:41:46Z</time>
      </trkpt>
      <trkpt lat="56.6757" lon="-5.38114">
        <ele>44.94</ele>
        <time>2021-03-20T15:41:48Z</time>
      </trkpt>
      <trkpt lat="56.67561" lon="-5.38135">
        <ele>47.64</ele>
        <time>2021-03-20T15:41:50Z</time>
      </trkpt>
      <trkpt lat="56.67546" lon="-5.38164">
        <ele>50.71</ele>
        <time>2021-03-20T15:41:52Z</time>
      </trkpt>
      <trkpt lat="56.6751" lon="-5.3822">
        <ele>57.79</ele>
        <time>2021-03-20T15:41:54Z</time>
      </trkpt>
      <trkpt lat="56.67442" lon="-5.38367">
        <ele>60.9</ele>
        <time>2021-03-20T15:41:56Z</time>
      </trkpt>
      <trkpt lat="56.67433" lon="-5.38447">
        <ele>57.95</ele>
        <time>2021-03-20T15:41:57Z</time>
      </trkpt>
      <trkpt lat="56.67432" lon="-5.38487">
        <ele>55.57</ele>
        <time>2021-03-20T15:41:59Z</time>
      </trkpt>
      <trkpt lat="56.67439" lon="-5.38574">
        <ele>53.04</ele>
        <time>2021-03-20T15:42:01Z</time>
      </trkpt>
      <trkpt lat="56.6744" lon="-5.38624">
        <ele>52.84</ele>
        <time>2021-03-20T15:42:03Z</time>
      </trkpt>
      <trkpt lat="56.67439" lon="-5.38679">
        <ele>53.16</ele>
        <time>2021-03-20T15:42:05Z</time>
      </trkpt>
      <trkpt lat="56.67436" lon="-5.38732">
        <ele>53.74</ele>
        <time>2021-03-20T15:42:07Z</time>
      </trkpt>
      <trkpt lat="56.67431" lon="-5.3876">
        <ele>54.03</ele>
        <time>2021-03-20T15:42:09Z</time>
      </trkpt>
      <trkpt lat="56.674" lon="-5.38843">
        <ele>54.6</ele>
        <time>2021-03-20T15:42:11Z</time>
      </trkpt>
      <trkpt lat="56.67382" lon="-5.38882">
        <ele>55.21</ele>
        <time>2021-03-20T15:42:13Z</time>
      </trkpt>
      <trkpt lat="56.67366" lon="-5.38905">
        <ele>56.15</ele>
        <time>2021-03-20T15:42:15Z</time>
      </trkpt>
      <trkpt lat="56.67345" lon="-5.38923">
        <ele>56.81</ele>
        <time>2021-03-20T15:42:17Z</time>
      </trkpt>
      <trkpt lat="56.67294" lon="-5.39003">
        <ele>57.01</ele>
        <time>2021-03-20T15:42:19Z</time>
      </trkpt>
      <trkpt lat="56.67249" lon="-5.39086">
        <ele>58.14</ele>
        <time>2021-03-20T15:42:20Z</time>
      </trkpt>
      <trkpt lat="56.67192" lon="-5.39172">
        <ele>56.24</ele>
        <time>2021-03-20T15:42:22Z</time>
      </trkpt>
      <trkpt lat="56.67119" lon="-5.3925">
        <ele>58.26</ele>
        <time>2021-03-20T15:42:24Z</time>
      </trkpt>
      <trkpt lat="56.67012" lon="-5.39381">
        <ele>61.26</ele>
        <time>2021-03-20T15:42:26Z</time>
      </trkpt>
      <trkpt lat="56.66964" lon="-5.39446">
        <ele>63.56</ele>
        <time>2021-03-20T15:42:28Z</time>
      </trkpt>
      <trkpt lat="56.66892" lon="-5.39566">
        <ele>65.88</ele>
        <time>2021-03-20T15:42:30Z</time>
      </trkpt>
      <trkpt lat="56.66871" lon="-5.39617">
        <ele>65.11</ele>
        <time>2021-03-20T15:42:32Z</time>
      </trkpt>
      <trkpt lat="56.66846" lon="-5.39725">
        <ele>60.35</ele>
        <time>2021-03-20T15:42:34Z</time>
      </trkpt>
      <trkpt lat="56.66819" lon="-5.3986">
        <ele>56.93</ele>
        <time>2021-03-20T15:42:36Z</time>
      </trkpt>
      <trkpt lat="56.66805" lon="-5.39908">
        <ele>56.59</ele>
        <time>2021-03-20T15:42:38Z</time>
      </trkpt>
      <trkpt lat="56.66794" lon="-5.39934">
        <ele>56.13</ele>
        <time>2021-03-20T15:42:40Z</time>
      </trkpt>
      <trkpt lat="56.66698" lon="-5.40105">
        <ele>53.24</ele>
        <time>2021-03-20T15:42:41Z</time>
      </trkpt>
      <trkpt lat="56.66686" lon="-5.40136">
        <ele>53.91</ele>
        <time>2021-03-20T15:42:43Z</time>
      </trkpt>
      <trkpt lat="56.66664" lon="-5.40223">
        <ele>54.82</ele>
        <time>2021-03-20T15:42:45Z</time>
      </trkpt>
      <trkpt lat="56.66657" lon="-5.40238">
        <ele>55.42</ele>
        <time>2021-03-20T15:42:47Z</time>
      </trkpt>
      <trkpt lat="56.66644" lon="-5.40253">
        <ele>55.56</ele>
        <time>2021-03-20T15:42:49Z</time>
      </trkpt>
      <trkpt lat="56.66618" lon="-5.40272">
        <ele>55.21</ele>
        <time>2021-03-20T15:42:51Z</time>
      </trkpt>
      <trkpt lat="56.66601" lon="-5.4028">
        <ele>54.8</ele>
        <time>2021-03-20T15:42:53Z</time>
      </trkpt>
      <trkpt lat="56.66572" lon="-5.40286">
        <ele>54.19</ele>
        <time>2021-03-20T15:42:55Z</time>
      </trkpt>
      <trkpt lat="56.66554" lon="-5.40294">
        <ele>54.2</ele>
        <time>2021-03-20T15:42:57Z</time>
      </trkpt>
      <trkpt lat="56.66541" lon="-5.40308">
        <ele>55.09</ele>
        <time>2021-03-20T15:42:59Z</time>
      </trkpt>
      <trkpt lat="56.66504" lon="-5.40359">
        <ele>58.86</ele>
        <time>2021-03-20T15:43:01Z</time>
      </trkpt>
      <trkpt lat="56.66487" lon="-5.40374">
        <ele>59.94</ele>
        <time>2021-03-20T15:43:03Z</time>
      </trkpt>
      <trkpt lat="56.66469" lon="-5.40387">
        <ele>60.82</ele>
        <time>2021-03-20T15:43:04Z</time>
      </trkpt>
      <trkpt lat="56.6641" lon="-5.40406">
        <ele>62.47</ele>
        <time>2021-03-20T15:43:06Z</time>
      </trkpt>
      <trkpt lat="56.66395" lon="-5.40414">
        <ele>63.58</ele>
        <time>2021-03-20T15:43:08Z</time>
      </trkpt>
      <trkpt lat="56.66377" lon="-5.4043">
        <ele>65.17</ele>
        <time>2021-03-20T15:43:10Z</time>
      </trkpt>
      <trkpt lat="56.66326" lon="-5.40486">
        <ele>69.36</ele>
        <time>2021-03-20T15:43:12Z</time>
      </trkpt>
      <trkpt lat="56.66292" lon="-5.40516">
        <ele>69.86</ele>
        <time>2021-03-20T15:43:14Z</time>
      </trkpt>
      <trkpt lat="56.66116" lon="-5.40639">
        <ele>58.53</ele>
        <time>2021-03-20T15:43:16Z</time>
      </trkpt>
      <trkpt lat="56.66075" lon="-5.4066">
        <ele>55.61</ele>
        <time>2021-03-20T15:43:18Z</time>
      </trkpt>
      <trkpt lat="56.6603" lon="-5.40669">
        <ele>51.54</ele>
        <time>2021-03-20T15:43:20Z</time>
      </trkpt>
      <trkpt lat="56.66022" lon="-5.40678">
        <ele>52.22</ele>
        <time>2021-03-20T15:43:22Z</time>
      </trkpt>
      <trkpt lat="56.66009" lon="-5.4071">
        <ele>54.75</ele>
        <time>2021-03-20T15:43:24Z</time>
      </trkpt>
      <trkpt lat="56.6595" lon="-5.40775">
        <ele>53.63</ele>
        <time>2021-03-20T15:43:25Z</time>
      </trkpt>
      <trkpt lat="56.6592" lon="-5.40802">
        <ele>49.6</ele>
        <time>2021-03-20T15:43:27Z</time>
      </trkpt>
      <trkpt lat="56.65905" lon="-5.40823">
        <ele>47.66</ele>
        <time>2021-03-20T15:43:29Z</time>
      </trkpt>
      <trkpt lat="56.6588" lon="-5.40865">
        <ele>45.53</ele>
        <time>2021-03-20T15:43:31Z</time>
      </trkpt>
      <trkpt lat="56.65853" lon="-5.40901">
        <ele>41.31</ele>
        <time>2021-03-20T15:43:33Z</time>
      </trkpt>
      <trkpt lat="56.65835" lon="-5.40921">
        <ele>38.73</ele>
        <time>2021-03-20T15:43:35Z</time>
      </trkpt>
      <trkpt lat="56.65795" lon="-5.40942">
        <ele>31.28</ele>
        <time>2021-03-20T15:43:37Z</time>
      </trkpt>
      <trkpt lat="56.65788" lon="-5.40949">
        <ele>30.77</ele>
        <time>2021-03-20T15:43:39Z</time>
      </trkpt>
      <trkpt lat="56.65752" lon="-5.41011">
        <ele>31.01</ele>
        <time>2021-03-20T15:43:41Z</time>
      </trkpt>
      <trkpt lat="56.65729" lon="-5.41037">
        <ele>29.27</ele>
        <time>2021-03-20T15:43:43Z</time>
      </trkpt>
      <trkpt lat="56.65702" lon="-5.41087">
        <ele>28</ele>
        <time>2021-03-20T15:43:45Z</time>
      </trkpt>
      <trkpt lat="56.65693" lon="-5.41093">
        <ele>27.53</ele>
        <time>2021-03-20T15:43:47Z</time>
      </trkpt>
      <trkpt lat="56.65676" lon="-5.41098">
        <ele>26.02</ele>
        <time>2021-03-20T15:43:48Z</time>
      </trkpt>
      <trkpt lat="56.6565" lon="-5.41101">
        <ele>23.69</ele>
        <time>2021-03-20T15:43:50Z</time>
      </trkpt>
      <trkpt lat="56.65632" lon="-5.41118">
        <ele>22.95</ele>
        <time>2021-03-20T15:43:52Z</time>
      </trkpt>
      <trkpt lat="56.65613" lon="-5.41141">
        <ele>23.47</ele>
        <time>2021-03-20T15:43:54Z</time>
      </trkpt>
      <trkpt lat="56.65602" lon="-5.41163">
        <ele>23.98</ele>
        <time>2021-03-20T15:43:56Z</time>
      </trkpt>
      <trkpt lat="56.65587" lon="-5.41197">
        <ele>23.82</ele>
        <time>2021-03-20T15:43:58Z</time>
      </trkpt>
      <trkpt lat="56.65573" lon="-5.41221">
        <ele>22.47</ele>
        <time>2021-03-20T15:44:00Z</time>
      </trkpt>
      <trkpt lat="56.65561" lon="-5.41241">
        <ele>22.03</ele>
        <time>2021-03-20T15:44:02Z</time>
      </trkpt>
      <trkpt lat="56.6553" lon="-5.41278">
        <ele>20.27</ele>
        <time>2021-03-20T15:44:04Z</time>
      </trkpt>
      <trkpt lat="56.65521" lon="-5.41299">
        <ele>20.6</ele>
        <time>2021-03-20T15:44:06Z</time>
      </trkpt>
      <trkpt lat="56.655" lon="-5.41377">
        <ele>19.55</ele>
        <time>2021-03-20T15:44:08Z</time>
      </trkpt>
      <trkpt lat="56.65479" lon="-5.41436">
        <ele>20.14</ele>
        <time>2021-03-20T15:44:10Z</time>
      </trkpt>
      <trkpt lat="56.65437" lon="-5.41492">
        <ele>18.47</ele>
        <time>2021-03-20T15:44:11Z</time>
      </trkpt>
      <trkpt lat="56.65412" lon="-5.4152">
        <ele>17.8</ele>
        <time>2021-03-20T15:44:13Z</time>
      </trkpt>
      <trkpt lat="56.65389" lon="-5.41535">
        <ele>19.52</ele>
        <time>2021-03-20T15:44:15Z</time>
      </trkpt>
      <trkpt lat="56.65371" lon="-5.4154">
        <ele>22.76</ele>
        <time>2021-03-20T15:44:17Z</time>
      </trkpt>
      <trkpt lat="56.65357" lon="-5.41536">
        <ele>24.44</ele>
        <time>2021-03-20T15:44:19Z</time>
      </trkpt>
      <trkpt lat="56.65348" lon="-5.41524">
        <ele>25.14</ele>
        <time>2021-03-20T15:44:21Z</time>
      </trkpt>
      <trkpt lat="56.6534" lon="-5.41508">
        <ele>25.15</ele>
        <time>2021-03-20T15:44:23Z</time>
      </trkpt>
      <trkpt lat="56.6532" lon="-5.41426">
        <ele>20.87</ele>
        <time>2021-03-20T15:44:25Z</time>
      </trkpt>
      <trkpt lat="56.65314" lon="-5.41413">
        <ele>20.33</ele>
        <time>2021-03-20T15:44:27Z</time>
      </trkpt>
      <trkpt lat="56.65263" lon="-5.41379">
        <ele>26.32</ele>
        <time>2021-03-20T15:44:29Z</time>
      </trkpt>
      <trkpt lat="56.65236" lon="-5.41371">
        <ele>28.94</ele>
        <time>2021-03-20T15:44:31Z</time>
      </trkpt>
      <trkpt lat="56.65214" lon="-5.41355">
        <ele>27.83</ele>
        <time>2021-03-20T15:44:32Z</time>
      </trkpt>
      <trkpt lat="56.6519" lon="-5.41322">
        <ele>22.18</ele>
        <time>2021-03-20T15:44:34Z</time>
      </trkpt>
      <trkpt lat="56.65182" lon="-5.41321">
        <ele>21.78</ele>
        <time>2021-03-20T15:44:36Z</time>
      </trkpt>
      <trkpt lat="56.6517" lon="-5.41325">
        <ele>21.57</ele>
        <time>2021-03-20T15:44:38Z</time>
      </trkpt>
      <trkpt lat="56.65157" lon="-5.41335">
        <ele>21.56</ele>
        <time>2021-03-20T15:44:40Z</time>
      </trkpt>
      <trkpt lat="56.65129" lon="-5.41363">
        <ele>22.82</ele>
        <time>2021-03-20T15:44:42Z</time>
      </trkpt>
      <trkpt lat="56.65073" lon="-5.41429">
        <ele>20.81</ele>
        <time>2021-03-20T15:44:44Z</time>
      </trkpt>
      <trkpt lat="56.6505" lon="-5.41465">
        <ele>22.18</ele>
        <time>2021-03-20T15:44:46Z</time>
      </trkpt>
      <trkpt lat="56.65008" lon="-5.41564">
        <ele>23.72</ele>
        <time>2021-03-20T15:44:48Z</time>
      </trkpt>
      <trkpt lat="56.64955" lon="-5.4163">
        <ele>21.27</ele>
        <time>2021-03-20T15:44:50Z</time>
      </trkpt>
      <trkpt lat="56.64944" lon="-5.41647">
        <ele>20.28</ele>
        <time>2021-03-20T15:44:52Z</time>
      </trkpt>
      <trkpt lat="56.64927" lon="-5.41691">
        <ele>18.1</ele>
        <time>2021-03-20T15:44:54Z</time>
      </trkpt>
      <trkpt lat="56.6492" lon="-5.41717">
        <ele>17.45</ele>
        <time>2021-03-20T15:44:55Z</time>
      </trkpt>
      <trkpt lat="56.64891" lon="-5.41776">
        <ele>17.35</ele>
        <time>2021-03-20T15:44:57Z</time>
      </trkpt>
      <trkpt lat="56.6486" lon="-5.41828">
        <ele>18.32</ele>
        <time>2021-03-20T15:44:59Z</time>
      </trkpt>
      <trkpt lat="56.64837" lon="-5.41846">
        <ele>16.44</ele>
        <time>2021-03-20T15:45:01Z</time>
      </trkpt>
      <trkpt lat="56.64829" lon="-5.41883">
        <ele>20</ele>
        <time>2021-03-20T15:45:03Z</time>
      </trkpt>
      <trkpt lat="56.64813" lon="-5.41913">
        <ele>20.27</ele>
        <time>2021-03-20T15:45:05Z</time>
      </trkpt>
      <trkpt lat="56.64779" lon="-5.41991">
        <ele>23.96</ele>
        <time>2021-03-20T15:45:07Z</time>
      </trkpt>
      <trkpt lat="56.64702" lon="-5.42136">
        <ele>19.11</ele>
        <time>2021-03-20T15:45:09Z</time>
      </trkpt>
      <trkpt lat="56.64683" lon="-5.42186">
        <ele>16.42</ele>
        <time>2021-03-20T15:45:11Z</time>
      </trkpt>
      <trkpt lat="56.64661" lon="-5.42392">
        <ele>21.42</ele>
        <time>2021-03-20T15:45:13Z</time>
      </trkpt>
      <trkpt lat="56.64652" lon="-5.42462">
        <ele>22.62</ele>
        <time>2021-03-20T15:45:15Z</time>
      </trkpt>
      <trkpt lat="56.64646" lon="-5.42528">
        <ele>21.89</ele>
        <time>2021-03-20T15:45:17Z</time>
      </trkpt>
      <trkpt lat="56.64628" lon="-5.42628">
        <ele>21.25</ele>
        <time>2021-03-20T15:45:18Z</time>
      </trkpt>
      <trkpt lat="56.64622" lon="-5.42672">
        <ele>22.5</ele>
        <time>2021-03-20T15:45:20Z</time>
      </trkpt>
      <trkpt lat="56.64619" lon="-5.42723">
        <ele>23.62</ele>
        <time>2021-03-20T15:45:22Z</time>
      </trkpt>
      <trkpt lat="56.64626" lon="-5.4297">
        <ele>19.07</ele>
        <time>2021-03-20T15:45:24Z</time>
      </trkpt>
      <trkpt lat="56.64626" lon="-5.42989">
        <ele>18.38</ele>
        <time>2021-03-20T15:45:26Z</time>
      </trkpt>
      <trkpt lat="56.64623" lon="-5.43011">
        <ele>17.94</ele>
        <time>2021-03-20T15:45:28Z</time>
      </trkpt>
      <trkpt lat="56.6462" lon="-5.43025">
        <ele>17.69</ele>
        <time>2021-03-20T15:45:30Z</time>
      </trkpt>
      <trkpt lat="56.64613" lon="-5.43046">
        <ele>17.12</ele>
        <time>2021-03-20T15:45:32Z</time>
      </trkpt>
      <trkpt lat="56.64575" lon="-5.43139">
        <ele>16.99</ele>
        <time>2021-03-20T15:45:34Z</time>
      </trkpt>
      <trkpt lat="56.64553" lon="-5.43203">
        <ele>17</ele>
        <time>2021-03-20T15:45:36Z</time>
      </trkpt>
      <trkpt lat="56.64529" lon="-5.43258">
        <ele>17.07</ele>
        <time>2021-03-20T15:45:38Z</time>
      </trkpt>
      <trkpt lat="56.64517" lon="-5.43277">
        <ele>16.6</ele>
        <time>2021-03-20T15:45:39Z</time>
      </trkpt>
      <trkpt lat="56.64501" lon="-5.43293">
        <ele>16.6</ele>
        <time>2021-03-20T15:45:41Z</time>
      </trkpt>
      <trkpt lat="56.64379" lon="-5.43405">
        <ele>19.4</ele>
        <time>2021-03-20T15:45:43Z</time>
      </trkpt>
      <trkpt lat="56.64209" lon="-5.43553">
        <ele>7.98</ele>
        <time>2021-03-20T15:45:45Z</time>
      </trkpt>
      <trkpt lat="56.64118" lon="-5.43621">
        <ele>5.09</ele>
        <time>2021-03-20T15:45:47Z</time>
      </trkpt>
      <trkpt lat="56.63938" lon="-5.43794">
        <ele>5.09</ele>
        <time>2021-03-20T15:45:49Z</time>
      </trkpt>
      <trkpt lat="56.6391" lon="-5.43827">
        <ele>5.12</ele>
        <time>2021-03-20T15:45:51Z</time>
      </trkpt>
      <trkpt lat="56.63888" lon="-5.43876">
        <ele>7.99</ele>
        <time>2021-03-20T15:45:53Z</time>
      </trkpt>
      <trkpt lat="56.63819" lon="-5.43998">
        <ele>6.43</ele>
        <time>2021-03-20T15:45:55Z</time>
      </trkpt>
      <trkpt lat="56.63795" lon="-5.44053">
        <ele>6.7</ele>
        <time>2021-03-20T15:45:57Z</time>
      </trkpt>
      <trkpt lat="56.63772" lon="-5.44119">
        <ele>6.97</ele>
        <time>2021-03-20T15:45:59Z</time>
      </trkpt>
      <trkpt lat="56.6375" lon="-5.44171">
        <ele>7.3</ele>
        <time>2021-03-20T15:46:01Z</time>
      </trkpt>
      <trkpt lat="56.63708" lon="-5.44235">
        <ele>8.34</ele>
        <time>2021-03-20T15:46:02Z</time>
      </trkpt>
      <trkpt lat="56.63673" lon="-5.44263">
        <ele>7.17</ele>
        <time>2021-03-20T15:46:04Z</time>
      </trkpt>
      <trkpt lat="56.63598" lon="-5.44309">
        <ele>7.84</ele>
        <time>2021-03-20T15:46:06Z</time>
      </trkpt>
      <trkpt lat="56.63548" lon="-5.44345">
        <ele>6.49</ele>
        <time>2021-03-20T15:46:08Z</time>
      </trkpt>
      <trkpt lat="56.6349" lon="-5.44401">
        <ele>6.35</ele>
        <time>2021-03-20T15:46:10Z</time>
      </trkpt>
      <trkpt lat="56.63454" lon="-5.44431">
        <ele>5.02</ele>
        <time>2021-03-20T15:46:12Z</time>
      </trkpt>
      <trkpt lat="56.63427" lon="-5.44439">
        <ele>4.15</ele>
        <time>2021-03-20T15:46:14Z</time>
      </trkpt>
      <trkpt lat="56.63397" lon="-5.44436">
        <ele>3.97</ele>
        <time>2021-03-20T15:46:16Z</time>
      </trkpt>
      <trkpt lat="56.63397" lon="-5.44436">
        <ele>3.97</ele>
        <time>2021-03-20T15:46:16Z</time>
      </trkpt>
      <trkpt lat="56.63385" lon="-5.44435">
        <ele>3.8</ele>
        <time>2021-03-20T15:46:19Z</time>
      </trkpt>
      <trkpt lat="56.63366" lon="-5.44443">
        <ele>4.8</ele>
        <time>2021-03-20T15:46:21Z</time>
      </trkpt>
      <trkpt lat="56.63331" lon="-5.44484">
        <ele>5.86</ele>
        <time>2021-03-20T15:46:24Z</time>
      </trkpt>
      <trkpt lat="56.63302" lon="-5.44528">
        <ele>4.75</ele>
        <time>2021-03-20T15:46:26Z</time>
      </trkpt>
      <trkpt lat="56.63242" lon="-5.4466">
        <ele>5.14</ele>
        <time>2021-03-20T15:46:29Z</time>
      </trkpt>
      <trkpt lat="56.63176" lon="-5.44829">
        <ele>11.12</ele>
        <time>2021-03-20T15:46:31Z</time>
      </trkpt>
      <trkpt lat="56.63154" lon="-5.44866">
        <ele>14.87</ele>
        <time>2021-03-20T15:46:34Z</time>
      </trkpt>
      <trkpt lat="56.63123" lon="-5.4489">
        <ele>11.77</ele>
        <time>2021-03-20T15:46:37Z</time>
      </trkpt>
      <trkpt lat="56.63083" lon="-5.44928">
        <ele>13.67</ele>
        <time>2021-03-20T15:46:39Z</time>
      </trkpt>
      <trkpt lat="56.63004" lon="-5.45012">
        <ele>16.5</ele>
        <time>2021-03-20T15:46:42Z</time>
      </trkpt>
      <trkpt lat="56.62959" lon="-5.45066">
        <ele>17.85</ele>
        <time>2021-03-20T15:46:44Z</time>
      </trkpt>
      <trkpt lat="56.62911" lon="-5.45085">
        <ele>13.26</ele>
        <time>2021-03-20T15:46:47Z</time>
      </trkpt>
      <trkpt lat="56.62849" lon="-5.45224">
        <ele>26.78</ele>
        <time>2021-03-20T15:46:49Z</time>
      </trkpt>
      <trkpt lat="56.62823" lon="-5.45247">
        <ele>24.65</ele>
        <time>2021-03-20T15:46:52Z</time>
      </trkpt>
      <trkpt lat="56.6276" lon="-5.45257">
        <ele>10.7</ele>
        <time>2021-03-20T15:46:55Z</time>
      </trkpt>
      <trkpt lat="56.62716" lon="-5.45288">
        <ele>7.92</ele>
        <time>2021-03-20T15:46:57Z</time>
      </trkpt>
      <trkpt lat="56.62665" lon="-5.45315">
        <ele>6.23</ele>
        <time>2021-03-20T15:47:00Z</time>
      </trkpt>
      <trkpt lat="56.62626" lon="-5.45364">
        <ele>6.18</ele>
        <time>2021-03-20T15:47:02Z</time>
      </trkpt>
      <trkpt lat="56.62582" lon="-5.45459">
        <ele>7.45</ele>
        <time>2021-03-20T15:47:05Z</time>
      </trkpt>
      <trkpt lat="56.62537" lon="-5.45511">
        <ele>6.19</ele>
        <time>2021-03-20T15:47:07Z</time>
      </trkpt>
      <trkpt lat="56.62496" lon="-5.45573">
        <ele>6.13</ele>
        <time>2021-03-20T15:47:10Z</time>
      </trkpt>
      <trkpt lat="56.62468" lon="-5.45683">
        <ele>13.71</ele>
        <time>2021-03-20T15:47:13Z</time>
      </trkpt>
      <trkpt lat="56.62419" lon="-5.45787">
        <ele>24.36</ele>
        <time>2021-03-20T15:47:15Z</time>
      </trkpt>
      <trkpt lat="56.62381" lon="-5.45824">
        <ele>19.34</ele>
        <time>2021-03-20T15:47:18Z</time>
      </trkpt>
      <trkpt lat="56.6234" lon="-5.45892">
        <ele>21.65</ele>
        <time>2021-03-20T15:47:20Z</time>
      </trkpt>
      <trkpt lat="56.62261" lon="-5.45965">
        <ele>13.86</ele>
        <time>2021-03-20T15:47:23Z</time>
      </trkpt>
      <trkpt lat="56.6222" lon="-5.46023">
        <ele>11.14</ele>
        <time>2021-03-20T15:47:25Z</time>
      </trkpt>
      <trkpt lat="56.62185" lon="-5.46106">
        <ele>26.97</ele>
        <time>2021-03-20T15:47:28Z</time>
      </trkpt>
      <trkpt lat="56.62142" lon="-5.46198">
        <ele>33.23</ele>
        <time>2021-03-20T15:47:30Z</time>
      </trkpt>
      <trkpt lat="56.62084" lon="-5.4631">
        <ele>27.83</ele>
        <time>2021-03-20T15:47:33Z</time>
      </trkpt>
      <trkpt lat="56.62047" lon="-5.46349">
        <ele>23.11</ele>
        <time>2021-03-20T15:47:36Z</time>
      </trkpt>
      <trkpt lat="56.62019" lon="-5.46392">
        <ele>18.16</ele>
        <time>2021-03-20T15:47:38Z</time>
      </trkpt>
      <trkpt lat="56.61985" lon="-5.46482">
        <ele>20.69</ele>
        <time>2021-03-20T15:47:41Z</time>
      </trkpt>
      <trkpt lat="56.61869" lon="-5.4665">
        <ele>10.85</ele>
        <time>2021-03-20T15:47:43Z</time>
      </trkpt>
      <trkpt lat="56.61738" lon="-5.46829">
        <ele>13.45</ele>
        <time>2021-03-20T15:47:46Z</time>
      </trkpt>
      <trkpt lat="56.61592" lon="-5.4699">
        <ele>8.91</ele>
        <time>2021-03-20T15:47:48Z</time>
      </trkpt>
      <trkpt lat="56.6157" lon="-5.47043">
        <ele>8.91</ele>
        <time>2021-03-20T15:47:51Z</time>
      </trkpt>
      <trkpt lat="56.61513" lon="-5.47258">
        <ele>14.18</ele>
        <time>2021-03-20T15:47:54Z</time>
      </trkpt>
      <trkpt lat="56.61505" lon="-5.47317">
        <ele>11.61</ele>
        <time>2021-03-20T15:47:56Z</time>
      </trkpt>
      <trkpt lat="56.61508" lon="-5.47373">
        <ele>9.95</ele>
        <time>2021-03-20T15:47:59Z</time>
      </trkpt>
      <trkpt lat="56.61527" lon="-5.47444">
        <ele>7.87</ele>
        <time>2021-03-20T15:48:01Z</time>
      </trkpt>
      <trkpt lat="56.6153" lon="-5.47513">
        <ele>5.02</ele>
        <time>2021-03-20T15:48:04Z</time>
      </trkpt>
      <trkpt lat="56.61539" lon="-5.47557">
        <ele>6</ele>
        <time>2021-03-20T15:48:06Z</time>
      </trkpt>
      <trkpt lat="56.61571" lon="-5.47634">
        <ele>7.34</ele>
        <time>2021-03-20T15:48:09Z</time>
      </trkpt>
      <trkpt lat="56.61592" lon="-5.47669">
        <ele>9.93</ele>
        <time>2021-03-20T15:48:12Z</time>
      </trkpt>
      <trkpt lat="56.61611" lon="-5.47708">
        <ele>11.97</ele>
        <time>2021-03-20T15:48:14Z</time>
      </trkpt>
      <trkpt lat="56.61641" lon="-5.4784">
        <ele>9.63</ele>
        <time>2021-03-20T15:48:17Z</time>
      </trkpt>
      <trkpt lat="56.61658" lon="-5.47869">
        <ele>8.21</ele>
        <time>2021-03-20T15:48:19Z</time>
      </trkpt>
      <trkpt lat="56.61685" lon="-5.47887">
        <ele>7.15</ele>
        <time>2021-03-20T15:48:22Z</time>
      </trkpt>
      <trkpt lat="56.61818" lon="-5.47906">
        <ele>6.38</ele>
        <time>2021-03-20T15:48:24Z</time>
      </trkpt>
      <trkpt lat="56.61849" lon="-5.47897">
        <ele>6.7</ele>
        <time>2021-03-20T15:48:27Z</time>
      </trkpt>
      <trkpt lat="56.61913" lon="-5.47837">
        <ele>7.01</ele>
        <time>2021-03-20T15:48:30Z</time>
      </trkpt>
      <trkpt lat="56.62063" lon="-5.47762">
        <ele>11.99</ele>
        <time>2021-03-20T15:48:32Z</time>
      </trkpt>
      <trkpt lat="56.62075" lon="-5.47761">
        <ele>11.77</ele>
        <time>2021-03-20T15:48:35Z</time>
      </trkpt>
      <trkpt lat="56.62079" lon="-5.47763">
        <ele>11.6</ele>
        <time>2021-03-20T15:48:37Z</time>
      </trkpt>
      <trkpt lat="56.62082" lon="-5.47769">
        <ele>11.34</ele>
        <time>2021-03-20T15:48:40Z</time>
      </trkpt>
      <trkpt lat="56.62083" lon="-5.47777">
        <ele>11.02</ele>
        <time>2021-03-20T15:48:42Z</time>
      </trkpt>
      <trkpt lat="56.62088" lon="-5.47986">
        <ele>9</ele>
        <time>2021-03-20T15:48:45Z</time>
      </trkpt>
      <trkpt lat="56.62094" lon="-5.48154">
        <ele>12.33</ele>
        <time>2021-03-20T15:48:48Z</time>
      </trkpt>
      <trkpt lat="56.62092" lon="-5.48167">
        <ele>12.32</ele>
        <time>2021-03-20T15:48:50Z</time>
      </trkpt>
      <trkpt lat="56.62087" lon="-5.48178">
        <ele>12.72</ele>
        <time>2021-03-20T15:48:53Z</time>
      </trkpt>
      <trkpt lat="56.62043" lon="-5.48222">
        <ele>11.11</ele>
        <time>2021-03-20T15:48:55Z</time>
      </trkpt>
      <trkpt lat="56.62024" lon="-5.48234">
        <ele>9.94</ele>
        <time>2021-03-20T15:48:58Z</time>
      </trkpt>
      <trkpt lat="56.62014" lon="-5.48244">
        <ele>10.3</ele>
        <time>2021-03-20T15:49:00Z</time>
      </trkpt>
      <trkpt lat="56.61978" lon="-5.48302">
        <ele>12.3</ele>
        <time>2021-03-20T15:49:03Z</time>
      </trkpt>
      <trkpt lat="56.6191" lon="-5.48379">
        <ele>19.6</ele>
        <time>2021-03-20T15:49:06Z</time>
      </trkpt>
      <trkpt lat="56.61791" lon="-5.48447">
        <ele>19.16</ele>
        <time>2021-03-20T15:49:08Z</time>
      </trkpt>
      <trkpt lat="56.61718" lon="-5.48504">
        <ele>26</ele>
        <time>2021-03-20T15:49:11Z</time>
      </trkpt>
      <trkpt lat="56.61697" lon="-5.48532">
        <ele>27.6</ele>
        <time>2021-03-20T15:49:13Z</time>
      </trkpt>
      <trkpt lat="56.61683" lon="-5.48574">
        <ele>31.14</ele>
        <time>2021-03-20T15:49:16Z</time>
      </trkpt>
      <trkpt lat="56.61663" lon="-5.48607">
        <ele>27.4</ele>
        <time>2021-03-20T15:49:18Z</time>
      </trkpt>
      <trkpt lat="56.61654" lon="-5.4863">
        <ele>26.88</ele>
        <time>2021-03-20T15:49:21Z</time>
      </trkpt>
      <trkpt lat="56.61651" lon="-5.48683">
        <ele>34.34</ele>
        <time>2021-03-20T15:49:24Z</time>
      </trkpt>
      <trkpt lat="56.61648" lon="-5.48701">
        <ele>36.2</ele>
        <time>2021-03-20T15:49:26Z</time>
      </trkpt>
      <trkpt lat="56.61631" lon="-5.48737">
        <ele>35.01</ele>
        <time>2021-03-20T15:49:29Z</time>
      </trkpt>
      <trkpt lat="56.61619" lon="-5.4877">
        <ele>34.51</ele>
        <time>2021-03-20T15:49:31Z</time>
      </trkpt>
      <trkpt lat="56.6159" lon="-5.48871">
        <ele>40.89</ele>
        <time>2021-03-20T15:49:34Z</time>
      </trkpt>
      <trkpt lat="56.61577" lon="-5.48893">
        <ele>41.05</ele>
        <time>2021-03-20T15:49:36Z</time>
      </trkpt>
      <trkpt lat="56.61537" lon="-5.48911">
        <ele>33.89</ele>
        <time>2021-03-20T15:49:39Z</time>
      </trkpt>
      <trkpt lat="56.61511" lon="-5.48936">
        <ele>33.56</ele>
        <time>2021-03-20T15:49:42Z</time>
      </trkpt>
      <trkpt lat="56.61498" lon="-5.48954">
        <ele>33.73</ele>
        <time>2021-03-20T15:49:44Z</time>
      </trkpt>
      <trkpt lat="56.61485" lon="-5.48986">
        <ele>37.08</ele>
        <time>2021-03-20T15:49:47Z</time>
      </trkpt>
      <trkpt lat="56.6148" lon="-5.49018">
        <ele>39.85</ele>
        <time>2021-03-20T15:49:49Z</time>
      </trkpt>
      <trkpt lat="56.61475" lon="-5.49113">
        <ele>42.88</ele>
        <time>2021-03-20T15:49:52Z</time>
      </trkpt>
      <trkpt lat="56.61504" lon="-5.49246">
        <ele>43.21</ele>
        <time>2021-03-20T15:49:54Z</time>
      </trkpt>
      <trkpt lat="56.61532" lon="-5.49329">
        <ele>43.42</ele>
        <time>2021-03-20T15:49:57Z</time>
      </trkpt>
      <trkpt lat="56.61538" lon="-5.49409">
        <ele>38.73</ele>
        <time>2021-03-20T15:49:59Z</time>
      </trkpt>
      <trkpt lat="56.61576" lon="-5.49562">
        <ele>35.7</ele>
        <time>2021-03-20T15:50:02Z</time>
      </trkpt>
      <trkpt lat="56.6162" lon="-5.49665">
        <ele>38.73</ele>
        <time>2021-03-20T15:50:05Z</time>
      </trkpt>
      <trkpt lat="56.61676" lon="-5.49828">
        <ele>39.36</ele>
        <time>2021-03-20T15:50:07Z</time>
      </trkpt>
      <trkpt lat="56.61722" lon="-5.49997">
        <ele>39.25</ele>
        <time>2021-03-20T15:50:10Z</time>
      </trkpt>
      <trkpt lat="56.61723" lon="-5.50066">
        <ele>37.09</ele>
        <time>2021-03-20T15:50:12Z</time>
      </trkpt>
      <trkpt lat="56.61737" lon="-5.50147">
        <ele>37.81</ele>
        <time>2021-03-20T15:50:15Z</time>
      </trkpt>
      <trkpt lat="56.6179" lon="-5.50321">
        <ele>43.05</ele>
        <time>2021-03-20T15:50:17Z</time>
      </trkpt>
      <trkpt lat="56.61859" lon="-5.50631">
        <ele>36.87</ele>
        <time>2021-03-20T15:50:20Z</time>
      </trkpt>
      <trkpt lat="56.61896" lon="-5.5077">
        <ele>42.78</ele>
        <time>2021-03-20T15:50:23Z</time>
      </trkpt>
      <trkpt lat="56.61903" lon="-5.50851">
        <ele>40.23</ele>
        <time>2021-03-20T15:50:25Z</time>
      </trkpt>
      <trkpt lat="56.61923" lon="-5.50961">
        <ele>39.92</ele>
        <time>2021-03-20T15:50:28Z</time>
      </trkpt>
      <trkpt lat="56.61948" lon="-5.51036">
        <ele>44.34</ele>
        <time>2021-03-20T15:50:30Z</time>
      </trkpt>
      <trkpt lat="56.61954" lon="-5.51064">
        <ele>45.95</ele>
        <time>2021-03-20T15:50:33Z</time>
      </trkpt>
      <trkpt lat="56.61958" lon="-5.51115">
        <ele>44.94</ele>
        <time>2021-03-20T15:50:35Z</time>
      </trkpt>
      <trkpt lat="56.61977" lon="-5.51191">
        <ele>48.41</ele>
        <time>2021-03-20T15:50:38Z</time>
      </trkpt>
      <trkpt lat="56.61981" lon="-5.51239">
        <ele>48.35</ele>
        <time>2021-03-20T15:50:41Z</time>
      </trkpt>
      <trkpt lat="56.61974" lon="-5.51298">
        <ele>41.21</ele>
        <time>2021-03-20T15:50:43Z</time>
      </trkpt>
      <trkpt lat="56.61975" lon="-5.5132">
        <ele>40.73</ele>
        <time>2021-03-20T15:50:46Z</time>
      </trkpt>
      <trkpt lat="56.61992" lon="-5.51397">
        <ele>44.1</ele>
        <time>2021-03-20T15:50:48Z</time>
      </trkpt>
      <trkpt lat="56.61997" lon="-5.51427">
        <ele>45.11</ele>
        <time>2021-03-20T15:50:51Z</time>
      </trkpt>
      <trkpt lat="56.62001" lon="-5.5152">
        <ele>46.14</ele>
        <time>2021-03-20T15:50:53Z</time>
      </trkpt>
      <trkpt lat="56.62024" lon="-5.51691">
        <ele>47.23</ele>
        <time>2021-03-20T15:50:56Z</time>
      </trkpt>
      <trkpt lat="56.62012" lon="-5.51758">
        <ele>48.56</ele>
        <time>2021-03-20T15:50:59Z</time>
      </trkpt>
      <trkpt lat="56.62015" lon="-5.51846">
        <ele>48.44</ele>
        <time>2021-03-20T15:51:01Z</time>
      </trkpt>
      <trkpt lat="56.62025" lon="-5.5193">
        <ele>49.9</ele>
        <time>2021-03-20T15:51:04Z</time>
      </trkpt>
      <trkpt lat="56.62042" lon="-5.52024">
        <ele>53.8</ele>
        <time>2021-03-20T15:51:06Z</time>
      </trkpt>
      <trkpt lat="56.6205" lon="-5.52041">
        <ele>55.17</ele>
        <time>2021-03-20T15:51:09Z</time>
      </trkpt>
      <trkpt lat="56.62094" lon="-5.5211">
        <ele>58.98</ele>
        <time>2021-03-20T15:51:11Z</time>
      </trkpt>
      <trkpt lat="56.62103" lon="-5.5213">
        <ele>60.13</ele>
        <time>2021-03-20T15:51:14Z</time>
      </trkpt>
      <trkpt lat="56.62112" lon="-5.52209">
        <ele>65.07</ele>
        <time>2021-03-20T15:51:17Z</time>
      </trkpt>
      <trkpt lat="56.62151" lon="-5.52352">
        <ele>71.05</ele>
        <time>2021-03-20T15:51:19Z</time>
      </trkpt>
      <trkpt lat="56.62162" lon="-5.52373">
        <ele>71.28</ele>
        <time>2021-03-20T15:51:22Z</time>
      </trkpt>
      <trkpt lat="56.62208" lon="-5.52454">
        <ele>71.84</ele>
        <time>2021-03-20T15:51:24Z</time>
      </trkpt>
      <trkpt lat="56.62237" lon="-5.52563">
        <ele>67.63</ele>
        <time>2021-03-20T15:51:27Z</time>
      </trkpt>
      <trkpt lat="56.62251" lon="-5.52588">
        <ele>65.97</ele>
        <time>2021-03-20T15:51:29Z</time>
      </trkpt>
      <trkpt lat="56.62262" lon="-5.52604">
        <ele>64.9</ele>
        <time>2021-03-20T15:51:32Z</time>
      </trkpt>
      <trkpt lat="56.62321" lon="-5.52639">
        <ele>60.99</ele>
        <time>2021-03-20T15:51:35Z</time>
      </trkpt>
      <trkpt lat="56.62328" lon="-5.52654">
        <ele>60.45</ele>
        <time>2021-03-20T15:51:37Z</time>
      </trkpt>
      <trkpt lat="56.62332" lon="-5.52703">
        <ele>61.22</ele>
        <time>2021-03-20T15:51:40Z</time>
      </trkpt>
      <trkpt lat="56.6236" lon="-5.52825">
        <ele>66.26</ele>
        <time>2021-03-20T15:51:42Z</time>
      </trkpt>
      <trkpt lat="56.62413" lon="-5.52986">
        <ele>67.46</ele>
        <time>2021-03-20T15:51:45Z</time>
      </trkpt>
      <trkpt lat="56.62431" lon="-5.53057">
        <ele>65.9</ele>
        <time>2021-03-20T15:51:47Z</time>
      </trkpt>
      <trkpt lat="56.62457" lon="-5.53126">
        <ele>64.69</ele>
        <time>2021-03-20T15:51:50Z</time>
      </trkpt>
      <trkpt lat="56.62464" lon="-5.53158">
        <ele>61.78</ele>
        <time>2021-03-20T15:51:53Z</time>
      </trkpt>
      <trkpt lat="56.62525" lon="-5.53221">
        <ele>57.72</ele>
        <time>2021-03-20T15:51:55Z</time>
      </trkpt>
      <trkpt lat="56.62539" lon="-5.53241">
        <ele>56.09</ele>
        <time>2021-03-20T15:51:58Z</time>
      </trkpt>
      <trkpt lat="56.62549" lon="-5.53244">
        <ele>56.76</ele>
        <time>2021-03-20T15:52:00Z</time>
      </trkpt>
      <trkpt lat="56.62569" lon="-5.53236">
        <ele>62.31</ele>
        <time>2021-03-20T15:52:03Z</time>
      </trkpt>
      <trkpt lat="56.6258" lon="-5.53237">
        <ele>64.48</ele>
        <time>2021-03-20T15:52:05Z</time>
      </trkpt>
      <trkpt lat="56.62602" lon="-5.53269">
        <ele>64.18</ele>
        <time>2021-03-20T15:52:08Z</time>
      </trkpt>
      <trkpt lat="56.62636" lon="-5.53334">
        <ele>64.94</ele>
        <time>2021-03-20T15:52:11Z</time>
      </trkpt>
      <trkpt lat="56.62653" lon="-5.53378">
        <ele>63.16</ele>
        <time>2021-03-20T15:52:13Z</time>
      </trkpt>
      <trkpt lat="56.62675" lon="-5.53454">
        <ele>60.85</ele>
        <time>2021-03-20T15:52:16Z</time>
      </trkpt>
      <trkpt lat="56.62695" lon="-5.5349">
        <ele>65.52</ele>
        <time>2021-03-20T15:52:18Z</time>
      </trkpt>
      <trkpt lat="56.62704" lon="-5.53515">
        <ele>68.64</ele>
        <time>2021-03-20T15:52:21Z</time>
      </trkpt>
      <trkpt lat="56.62705" lon="-5.53535">
        <ele>69.25</ele>
        <time>2021-03-20T15:52:23Z</time>
      </trkpt>
      <trkpt lat="56.62695" lon="-5.53605">
        <ele>66.38</ele>
        <time>2021-03-20T15:52:26Z</time>
      </trkpt>
      <trkpt lat="56.62695" lon="-5.53626">
        <ele>65.54</ele>
        <time>2021-03-20T15:52:28Z</time>
      </trkpt>
      <trkpt lat="56.62704" lon="-5.5369">
        <ele>66.79</ele>
        <time>2021-03-20T15:52:31Z</time>
      </trkpt>
      <trkpt lat="56.6271" lon="-5.53727">
        <ele>67.91</ele>
        <time>2021-03-20T15:52:34Z</time>
      </trkpt>
      <trkpt lat="56.6272" lon="-5.53758">
        <ele>68.58</ele>
        <time>2021-03-20T15:52:36Z</time>
      </trkpt>
      <trkpt lat="56.62748" lon="-5.53838">
        <ele>68.34</ele>
        <time>2021-03-20T15:52:39Z</time>
      </trkpt>
      <trkpt lat="56.62754" lon="-5.53895">
        <ele>65.97</ele>
        <time>2021-03-20T15:52:41Z</time>
      </trkpt>
      <trkpt lat="56.62805" lon="-5.54002">
        <ele>70.8</ele>
        <time>2021-03-20T15:52:44Z</time>
      </trkpt>
      <trkpt lat="56.62826" lon="-5.54036">
        <ele>70.89</ele>
        <time>2021-03-20T15:52:46Z</time>
      </trkpt>
      <trkpt lat="56.62847" lon="-5.54056">
        <ele>72.48</ele>
        <time>2021-03-20T15:52:49Z</time>
      </trkpt>
      <trkpt lat="56.62855" lon="-5.54083">
        <ele>72.55</ele>
        <time>2021-03-20T15:52:52Z</time>
      </trkpt>
      <trkpt lat="56.62855" lon="-5.54267">
        <ele>76.11</ele>
        <time>2021-03-20T15:52:54Z</time>
      </trkpt>
      <trkpt lat="56.62849" lon="-5.54397">
        <ele>73.44</ele>
        <time>2021-03-20T15:52:57Z</time>
      </trkpt>
      <trkpt lat="56.62856" lon="-5.54489">
        <ele>71.54</ele>
        <time>2021-03-20T15:52:59Z</time>
      </trkpt>
      <trkpt lat="56.62864" lon="-5.54539">
        <ele>70.97</ele>
        <time>2021-03-20T15:53:02Z</time>
      </trkpt>
      <trkpt lat="56.62874" lon="-5.54679">
        <ele>69.22</ele>
        <time>2021-03-20T15:53:04Z</time>
      </trkpt>
      <trkpt lat="56.62886" lon="-5.54729">
        <ele>69.14</ele>
        <time>2021-03-20T15:53:07Z</time>
      </trkpt>
      <trkpt lat="56.62904" lon="-5.54777">
        <ele>69</ele>
        <time>2021-03-20T15:53:10Z</time>
      </trkpt>
      <trkpt lat="56.62941" lon="-5.5484">
        <ele>69.19</ele>
        <time>2021-03-20T15:53:12Z</time>
      </trkpt>
      <trkpt lat="56.62967" lon="-5.54917">
        <ele>70.8</ele>
        <time>2021-03-20T15:53:15Z</time>
      </trkpt>
      <trkpt lat="56.6304" lon="-5.55154">
        <ele>74.8</ele>
        <time>2021-03-20T15:53:17Z</time>
      </trkpt>
      <trkpt lat="56.63078" lon="-5.55328">
        <ele>80.43</ele>
        <time>2021-03-20T15:53:20Z</time>
      </trkpt>
      <trkpt lat="56.6309" lon="-5.55377">
        <ele>81.1</ele>
        <time>2021-03-20T15:53:22Z</time>
      </trkpt>
      <trkpt lat="56.63125" lon="-5.55454">
        <ele>85.01</ele>
        <time>2021-03-20T15:53:25Z</time>
      </trkpt>
      <trkpt lat="56.63139" lon="-5.55498">
        <ele>86.15</ele>
        <time>2021-03-20T15:53:28Z</time>
      </trkpt>
      <trkpt lat="56.63158" lon="-5.55539">
        <ele>89.85</ele>
        <time>2021-03-20T15:53:30Z</time>
      </trkpt>
      <trkpt lat="56.63183" lon="-5.55613">
        <ele>96.43</ele>
        <time>2021-03-20T15:53:33Z</time>
      </trkpt>
      <trkpt lat="56.63185" lon="-5.55637">
        <ele>98.15</ele>
        <time>2021-03-20T15:53:35Z</time>
      </trkpt>
      <trkpt lat="56.63182" lon="-5.55676">
        <ele>98.19</ele>
        <time>2021-03-20T15:53:38Z</time>
      </trkpt>
      <trkpt lat="56.63194" lon="-5.55738">
        <ele>102.41</ele>
        <time>2021-03-20T15:53:40Z</time>
      </trkpt>
      <trkpt lat="56.63213" lon="-5.55821">
        <ele>106.78</ele>
        <time>2021-03-20T15:53:43Z</time>
      </trkpt>
      <trkpt lat="56.63273" lon="-5.56018">
        <ele>114.11</ele>
        <time>2021-03-20T15:53:46Z</time>
      </trkpt>
      <trkpt lat="56.63273" lon="-5.56095">
        <ele>112.39</ele>
        <time>2021-03-20T15:53:48Z</time>
      </trkpt>
      <trkpt lat="56.633" lon="-5.56177">
        <ele>115.36</ele>
        <time>2021-03-20T15:53:51Z</time>
      </trkpt>
      <trkpt lat="56.6331" lon="-5.56341">
        <ele>118.04</ele>
        <time>2021-03-20T15:53:53Z</time>
      </trkpt>
      <trkpt lat="56.6335" lon="-5.56447">
        <ele>122.89</ele>
        <time>2021-03-20T15:53:56Z</time>
      </trkpt>
      <trkpt lat="56.63358" lon="-5.56497">
        <ele>123.7</ele>
        <time>2021-03-20T15:53:58Z</time>
      </trkpt>
      <trkpt lat="56.63393" lon="-5.56585">
        <ele>129.06</ele>
        <time>2021-03-20T15:54:01Z</time>
      </trkpt>
      <trkpt lat="56.63409" lon="-5.56646">
        <ele>129.96</ele>
        <time>2021-03-20T15:54:04Z</time>
      </trkpt>
      <trkpt lat="56.63489" lon="-5.56853">
        <ele>142.38</ele>
        <time>2021-03-20T15:54:06Z</time>
      </trkpt>
      <trkpt lat="56.63497" lon="-5.56886">
        <ele>142.07</ele>
        <time>2021-03-20T15:54:09Z</time>
      </trkpt>
      <trkpt lat="56.63554" lon="-5.57023">
        <ele>147.04</ele>
        <time>2021-03-20T15:54:11Z</time>
      </trkpt>
      <trkpt lat="56.63563" lon="-5.5705">
        <ele>147.55</ele>
        <time>2021-03-20T15:54:14Z</time>
      </trkpt>
      <trkpt lat="56.63569" lon="-5.57089">
        <ele>149.07</ele>
        <time>2021-03-20T15:54:16Z</time>
      </trkpt>
      <trkpt lat="56.63592" lon="-5.57143">
        <ele>150.58</ele>
        <time>2021-03-20T15:54:19Z</time>
      </trkpt>
      <trkpt lat="56.63605" lon="-5.57194">
        <ele>151.76</ele>
        <time>2021-03-20T15:54:22Z</time>
      </trkpt>
      <trkpt lat="56.63622" lon="-5.57279">
        <ele>153.43</ele>
        <time>2021-03-20T15:54:24Z</time>
      </trkpt>
      <trkpt lat="56.63622" lon="-5.57328">
        <ele>154.38</ele>
        <time>2021-03-20T15:54:27Z</time>
      </trkpt>
      <trkpt lat="56.63628" lon="-5.57363">
        <ele>154.62</ele>
        <time>2021-03-20T15:54:29Z</time>
      </trkpt>
      <trkpt lat="56.63647" lon="-5.57404">
        <ele>155.73</ele>
        <time>2021-03-20T15:54:32Z</time>
      </trkpt>
      <trkpt lat="56.63655" lon="-5.5743">
        <ele>156.17</ele>
        <time>2021-03-20T15:54:34Z</time>
      </trkpt>
      <trkpt lat="56.63655" lon="-5.57534">
        <ele>157.27</ele>
        <time>2021-03-20T15:54:37Z</time>
      </trkpt>
      <trkpt lat="56.63658" lon="-5.57654">
        <ele>159.38</ele>
        <time>2021-03-20T15:54:40Z</time>
      </trkpt>
      <trkpt lat="56.63668" lon="-5.57705">
        <ele>158.71</ele>
        <time>2021-03-20T15:54:42Z</time>
      </trkpt>
      <trkpt lat="56.63678" lon="-5.57734">
        <ele>157.91</ele>
        <time>2021-03-20T15:54:45Z</time>
      </trkpt>
      <trkpt lat="56.63704" lon="-5.57784">
        <ele>157.87</ele>
        <time>2021-03-20T15:54:47Z</time>
      </trkpt>
      <trkpt lat="56.63718" lon="-5.57798">
        <ele>158.79</ele>
        <time>2021-03-20T15:54:50Z</time>
      </trkpt>
      <trkpt lat="56.6381" lon="-5.57884">
        <ele>158.17</ele>
        <time>2021-03-20T15:54:52Z</time>
      </trkpt>
      <trkpt lat="56.63828" lon="-5.57909">
        <ele>158.09</ele>
        <time>2021-03-20T15:54:55Z</time>
      </trkpt>
      <trkpt lat="56.63847" lon="-5.57955">
        <ele>157.62</ele>
        <time>2021-03-20T15:54:57Z</time>
      </trkpt>
      <trkpt lat="56.63876" lon="-5.58048">
        <ele>159.06</ele>
        <time>2021-03-20T15:55:00Z</time>
      </trkpt>
      <trkpt lat="56.63897" lon="-5.58131">
        <ele>160.91</ele>
        <time>2021-03-20T15:55:03Z</time>
      </trkpt>
      <trkpt lat="56.63926" lon="-5.58255">
        <ele>162.24</ele>
        <time>2021-03-20T15:55:05Z</time>
      </trkpt>
      <trkpt lat="56.63942" lon="-5.58375">
        <ele>160.17</ele>
        <time>2021-03-20T15:55:08Z</time>
      </trkpt>
      <trkpt lat="56.63946" lon="-5.58436">
        <ele>160.21</ele>
        <time>2021-03-20T15:55:10Z</time>
      </trkpt>
      <trkpt lat="56.63951" lon="-5.58597">
        <ele>159.35</ele>
        <time>2021-03-20T15:55:13Z</time>
      </trkpt>
      <trkpt lat="56.63954" lon="-5.58649">
        <ele>159.06</ele>
        <time>2021-03-20T15:55:15Z</time>
      </trkpt>
      <trkpt lat="56.63971" lon="-5.5878">
        <ele>156.88</ele>
        <time>2021-03-20T15:55:18Z</time>
      </trkpt>
      <trkpt lat="56.63992" lon="-5.58871">
        <ele>160.01</ele>
        <time>2021-03-20T15:55:21Z</time>
      </trkpt>
      <trkpt lat="56.64031" lon="-5.58997">
        <ele>163.49</ele>
        <time>2021-03-20T15:55:23Z</time>
      </trkpt>
      <trkpt lat="56.64039" lon="-5.59041">
        <ele>163.76</ele>
        <time>2021-03-20T15:55:26Z</time>
      </trkpt>
      <trkpt lat="56.64043" lon="-5.59078">
        <ele>164.19</ele>
        <time>2021-03-20T15:55:28Z</time>
      </trkpt>
      <trkpt lat="56.64041" lon="-5.59119">
        <ele>163.58</ele>
        <time>2021-03-20T15:55:31Z</time>
      </trkpt>
      <trkpt lat="56.63969" lon="-5.59749">
        <ele>153.87</ele>
        <time>2021-03-20T15:55:33Z</time>
      </trkpt>
      <trkpt lat="56.63966" lon="-5.59832">
        <ele>154.99</ele>
        <time>2021-03-20T15:55:36Z</time>
      </trkpt>
      <trkpt lat="56.63968" lon="-5.59884">
        <ele>156.13</ele>
        <time>2021-03-20T15:55:39Z</time>
      </trkpt>
      <trkpt lat="56.63977" lon="-5.59988">
        <ele>159.58</ele>
        <time>2021-03-20T15:55:41Z</time>
      </trkpt>
      <trkpt lat="56.63978" lon="-5.60062">
        <ele>163.08</ele>
        <time>2021-03-20T15:55:44Z</time>
      </trkpt>
      <trkpt lat="56.63985" lon="-5.60112">
        <ele>166.14</ele>
        <time>2021-03-20T15:55:46Z</time>
      </trkpt>
      <trkpt lat="56.63985" lon="-5.60135">
        <ele>167.33</ele>
        <time>2021-03-20T15:55:49Z</time>
      </trkpt>
      <trkpt lat="56.63981" lon="-5.60158">
        <ele>168.59</ele>
        <time>2021-03-20T15:55:51Z</time>
      </trkpt>
      <trkpt lat="56.6396" lon="-5.60234">
        <ele>169.34</ele>
        <time>2021-03-20T15:55:54Z</time>
      </trkpt>
      <trkpt lat="56.63943" lon="-5.60317">
        <ele>168.88</ele>
        <time>2021-03-20T15:55:57Z</time>
      </trkpt>
      <trkpt lat="56.63938" lon="-5.60356">
        <ele>168.34</ele>
        <time>2021-03-20T15:55:59Z</time>
      </trkpt>
      <trkpt lat="56.63938" lon="-5.60389">
        <ele>168.34</ele>
        <time>2021-03-20T15:56:02Z</time>
      </trkpt>
      <trkpt lat="56.63944" lon="-5.60442">
        <ele>169.99</ele>
        <time>2021-03-20T15:56:04Z</time>
      </trkpt>
      <trkpt lat="56.63945" lon="-5.60503">
        <ele>170.02</ele>
        <time>2021-03-20T15:56:07Z</time>
      </trkpt>
      <trkpt lat="56.63941" lon="-5.60553">
        <ele>169.59</ele>
        <time>2021-03-20T15:56:09Z</time>
      </trkpt>
      <trkpt lat="56.63934" lon="-5.60596">
        <ele>169.84</ele>
        <time>2021-03-20T15:56:12Z</time>
      </trkpt>
      <trkpt lat="56.63924" lon="-5.60642">
        <ele>169.88</ele>
        <time>2021-03-20T15:56:15Z</time>
      </trkpt>
      <trkpt lat="56.63922" lon="-5.607">
        <ele>170.38</ele>
        <time>2021-03-20T15:56:17Z</time>
      </trkpt>
      <trkpt lat="56.63917" lon="-5.60754">
        <ele>171.19</ele>
        <time>2021-03-20T15:56:20Z</time>
      </trkpt>
      <trkpt lat="56.63908" lon="-5.60815">
        <ele>171.39</ele>
        <time>2021-03-20T15:56:22Z</time>
      </trkpt>
      <trkpt lat="56.63898" lon="-5.60865">
        <ele>170.97</ele>
        <time>2021-03-20T15:56:25Z</time>
      </trkpt>
      <trkpt lat="56.63882" lon="-5.60982">
        <ele>171.23</ele>
        <time>2021-03-20T15:56:27Z</time>
      </trkpt>
      <trkpt lat="56.63877" lon="-5.61051">
        <ele>170.17</ele>
        <time>2021-03-20T15:56:30Z</time>
      </trkpt>
      <trkpt lat="56.63876" lon="-5.6115">
        <ele>170.08</ele>
        <time>2021-03-20T15:56:33Z</time>
      </trkpt>
      <trkpt lat="56.63877" lon="-5.61526">
        <ele>169.64</ele>
        <time>2021-03-20T15:56:35Z</time>
      </trkpt>
      <trkpt lat="56.63875" lon="-5.61572">
        <ele>169.18</ele>
        <time>2021-03-20T15:56:38Z</time>
      </trkpt>
      <trkpt lat="56.63855" lon="-5.61704">
        <ele>166</ele>
        <time>2021-03-20T15:56:40Z</time>
      </trkpt>
      <trkpt lat="56.6385" lon="-5.6175">
        <ele>164.99</ele>
        <time>2021-03-20T15:56:43Z</time>
      </trkpt>
      <trkpt lat="56.63828" lon="-5.61818">
        <ele>163.7</ele>
        <time>2021-03-20T15:56:45Z</time>
      </trkpt>
      <trkpt lat="56.63821" lon="-5.61859">
        <ele>162.15</ele>
        <time>2021-03-20T15:56:48Z</time>
      </trkpt>
      <trkpt lat="56.63823" lon="-5.61893">
        <ele>162.07</ele>
        <time>2021-03-20T15:56:51Z</time>
      </trkpt>
      <trkpt lat="56.63826" lon="-5.61908">
        <ele>163.16</ele>
        <time>2021-03-20T15:56:53Z</time>
      </trkpt>
      <trkpt lat="56.6383" lon="-5.61924">
        <ele>164.62</ele>
        <time>2021-03-20T15:56:56Z</time>
      </trkpt>
      <trkpt lat="56.63832" lon="-5.61941">
        <ele>165.61</ele>
        <time>2021-03-20T15:56:58Z</time>
      </trkpt>
      <trkpt lat="56.63804" lon="-5.62012">
        <ele>162.51</ele>
        <time>2021-03-20T15:57:02Z</time>
      </trkpt>
      <trkpt lat="56.63789" lon="-5.62079">
        <ele>162.14</ele>
        <time>2021-03-20T15:57:07Z</time>
      </trkpt>
      <trkpt lat="56.63786" lon="-5.62121">
        <ele>162.77</ele>
        <time>2021-03-20T15:57:11Z</time>
      </trkpt>
      <trkpt lat="56.63781" lon="-5.62216">
        <ele>167.03</ele>
        <time>2021-03-20T15:57:15Z</time>
      </trkpt>
      <trkpt lat="56.63781" lon="-5.62302">
        <ele>171.82</ele>
        <time>2021-03-20T15:57:19Z</time>
      </trkpt>
      <trkpt lat="56.63791" lon="-5.62426">
        <ele>173.32</ele>
        <time>2021-03-20T15:57:23Z</time>
      </trkpt>
      <trkpt lat="56.63795" lon="-5.62519">
        <ele>175.15</ele>
        <time>2021-03-20T15:57:27Z</time>
      </trkpt>
      <trkpt lat="56.63796" lon="-5.62597">
        <ele>176.1</ele>
        <time>2021-03-20T15:57:32Z</time>
      </trkpt>
      <trkpt lat="56.6379" lon="-5.62751">
        <ele>180.54</ele>
        <time>2021-03-20T15:57:36Z</time>
      </trkpt>
      <trkpt lat="56.6379" lon="-5.62814">
        <ele>180.5</ele>
        <time>2021-03-20T15:57:40Z</time>
      </trkpt>
      <trkpt lat="56.63792" lon="-5.62867">
        <ele>181.2</ele>
        <time>2021-03-20T15:57:44Z</time>
      </trkpt>
      <trkpt lat="56.63812" lon="-5.63185">
        <ele>188.67</ele>
        <time>2021-03-20T15:57:48Z</time>
      </trkpt>
      <trkpt lat="56.63813" lon="-5.63234">
        <ele>188.05</ele>
        <time>2021-03-20T15:57:52Z</time>
      </trkpt>
      <trkpt lat="56.63807" lon="-5.63458">
        <ele>187.68</ele>
        <time>2021-03-20T15:57:56Z</time>
      </trkpt>
      <trkpt lat="56.63798" lon="-5.6368">
        <ele>188.88</ele>
        <time>2021-03-20T15:58:01Z</time>
      </trkpt>
      <trkpt lat="56.63787" lon="-5.63744">
        <ele>188.8</ele>
        <time>2021-03-20T15:58:05Z</time>
      </trkpt>
      <trkpt lat="56.63767" lon="-5.63811">
        <ele>188.52</ele>
        <time>2021-03-20T15:58:09Z</time>
      </trkpt>
      <trkpt lat="56.63741" lon="-5.63888">
        <ele>187.12</ele>
        <time>2021-03-20T15:58:13Z</time>
      </trkpt>
      <trkpt lat="56.63565" lon="-5.6437">
        <ele>188.27</ele>
        <time>2021-03-20T15:58:17Z</time>
      </trkpt>
      <trkpt lat="56.63473" lon="-5.64619">
        <ele>198.57</ele>
        <time>2021-03-20T15:58:21Z</time>
      </trkpt>
      <trkpt lat="56.63454" lon="-5.64665">
        <ele>198.4</ele>
        <time>2021-03-20T15:58:26Z</time>
      </trkpt>
      <trkpt lat="56.63427" lon="-5.64715">
        <ele>198.25</ele>
        <time>2021-03-20T15:58:30Z</time>
      </trkpt>
      <trkpt lat="56.63314" lon="-5.64897">
        <ele>203.3</ele>
        <time>2021-03-20T15:58:34Z</time>
      </trkpt>
      <trkpt lat="56.63274" lon="-5.64946">
        <ele>205.84</ele>
        <time>2021-03-20T15:58:38Z</time>
      </trkpt>
      <trkpt lat="56.63239" lon="-5.64967">
        <ele>203.8</ele>
        <time>2021-03-20T15:58:42Z</time>
      </trkpt>
      <trkpt lat="56.63032" lon="-5.65018">
        <ele>183.91</ele>
        <time>2021-03-20T15:58:46Z</time>
      </trkpt>
      <trkpt lat="56.62933" lon="-5.65034">
        <ele>172.18</ele>
        <time>2021-03-20T15:58:50Z</time>
      </trkpt>
      <trkpt lat="56.62538" lon="-5.65116">
        <ele>171.54</ele>
        <time>2021-03-20T15:58:55Z</time>
      </trkpt>
      <trkpt lat="56.62297" lon="-5.65295">
        <ele>172.59</ele>
        <time>2021-03-20T15:58:59Z</time>
      </trkpt>
      <trkpt lat="56.62273" lon="-5.6533">
        <ele>172.13</ele>
        <time>2021-03-20T15:59:03Z</time>
      </trkpt>
      <trkpt lat="56.6225" lon="-5.65378">
        <ele>172.24</ele>
        <time>2021-03-20T15:59:07Z</time>
      </trkpt>
      <trkpt lat="56.62194" lon="-5.65557">
        <ele>174.04</ele>
        <time>2021-03-20T15:59:11Z</time>
      </trkpt>
      <trkpt lat="56.62176" lon="-5.65595">
        <ele>172.81</ele>
        <time>2021-03-20T15:59:15Z</time>
      </trkpt>
      <trkpt lat="56.6216" lon="-5.6562">
        <ele>171.74</ele>
        <time>2021-03-20T15:59:20Z</time>
      </trkpt>
      <trkpt lat="56.62142" lon="-5.65639">
        <ele>171.3</ele>
        <time>2021-03-20T15:59:24Z</time>
      </trkpt>
      <trkpt lat="56.62115" lon="-5.65661">
        <ele>172.56</ele>
        <time>2021-03-20T15:59:28Z</time>
      </trkpt>
      <trkpt lat="56.61779" lon="-5.65893">
        <ele>159.02</ele>
        <time>2021-03-20T15:59:32Z</time>
      </trkpt>
      <trkpt lat="56.61756" lon="-5.65913">
        <ele>158.57</ele>
        <time>2021-03-20T15:59:36Z</time>
      </trkpt>
      <trkpt lat="56.61736" lon="-5.65933">
        <ele>156.32</ele>
        <time>2021-03-20T15:59:40Z</time>
      </trkpt>
      <trkpt lat="56.6157" lon="-5.66171">
        <ele>150.2</ele>
        <time>2021-03-20T15:59:44Z</time>
      </trkpt>
      <trkpt lat="56.61521" lon="-5.66239">
        <ele>148.51</ele>
        <time>2021-03-20T15:59:49Z</time>
      </trkpt>
      <trkpt lat="56.61498" lon="-5.66262">
        <ele>145.91</ele>
        <time>2021-03-20T15:59:53Z</time>
      </trkpt>
      <trkpt lat="56.61404" lon="-5.66331">
        <ele>144.34</ele>
        <time>2021-03-20T15:59:57Z</time>
      </trkpt>
      <trkpt lat="56.61317" lon="-5.66387">
        <ele>144.01</ele>
        <time>2021-03-20T16:00:01Z</time>
      </trkpt>
      <trkpt lat="56.61216" lon="-5.66423">
        <ele>140.24</ele>
        <time>2021-03-20T16:00:05Z</time>
      </trkpt>
      <trkpt lat="56.61149" lon="-5.66457">
        <ele>137.48</ele>
        <time>2021-03-20T16:00:09Z</time>
      </trkpt>
      <trkpt lat="56.61099" lon="-5.66517">
        <ele>135.72</ele>
        <time>2021-03-20T16:00:14Z</time>
      </trkpt>
      <trkpt lat="56.61069" lon="-5.66545">
        <ele>133.47</ele>
        <time>2021-03-20T16:00:18Z</time>
      </trkpt>
      <trkpt lat="56.61043" lon="-5.66561">
        <ele>133.27</ele>
        <time>2021-03-20T16:00:22Z</time>
      </trkpt>
      <trkpt lat="56.60806" lon="-5.66632">
        <ele>126.2</ele>
        <time>2021-03-20T16:00:26Z</time>
      </trkpt>
      <trkpt lat="56.60699" lon="-5.66677">
        <ele>122.68</ele>
        <time>2021-03-20T16:00:30Z</time>
      </trkpt>
      <trkpt lat="56.6063" lon="-5.66712">
        <ele>120.3</ele>
        <time>2021-03-20T16:00:34Z</time>
      </trkpt>
      <trkpt lat="56.60286" lon="-5.66872">
        <ele>110.5</ele>
        <time>2021-03-20T16:00:38Z</time>
      </trkpt>
      <trkpt lat="56.60257" lon="-5.66889">
        <ele>110.55</ele>
        <time>2021-03-20T16:00:43Z</time>
      </trkpt>
      <trkpt lat="56.60109" lon="-5.66998">
        <ele>101.57</ele>
        <time>2021-03-20T16:00:47Z</time>
      </trkpt>
      <trkpt lat="56.60076" lon="-5.67017">
        <ele>99.95</ele>
        <time>2021-03-20T16:00:51Z</time>
      </trkpt>
      <trkpt lat="56.59917" lon="-5.67094">
        <ele>97.56</ele>
        <time>2021-03-20T16:00:55Z</time>
      </trkpt>
      <trkpt lat="56.59788" lon="-5.67144">
        <ele>98.35</ele>
        <time>2021-03-20T16:00:59Z</time>
      </trkpt>
      <trkpt lat="56.59724" lon="-5.67166">
        <ele>93.17</ele>
        <time>2021-03-20T16:01:03Z</time>
      </trkpt>
      <trkpt lat="56.59701" lon="-5.67179">
        <ele>91.73</ele>
        <time>2021-03-20T16:01:08Z</time>
      </trkpt>
      <trkpt lat="56.59534" lon="-5.6734">
        <ele>86.03</ele>
        <time>2021-03-20T16:01:12Z</time>
      </trkpt>
      <trkpt lat="56.59423" lon="-5.67538">
        <ele>83.4</ele>
        <time>2021-03-20T16:01:16Z</time>
      </trkpt>
      <trkpt lat="56.59353" lon="-5.67719">
        <ele>83.93</ele>
        <time>2021-03-20T16:01:20Z</time>
      </trkpt>
      <trkpt lat="56.59322" lon="-5.67784">
        <ele>83.61</ele>
        <time>2021-03-20T16:01:24Z</time>
      </trkpt>
      <trkpt lat="56.59302" lon="-5.67822">
        <ele>85.63</ele>
        <time>2021-03-20T16:01:28Z</time>
      </trkpt>
      <trkpt lat="56.59284" lon="-5.67848">
        <ele>86.74</ele>
        <time>2021-03-20T16:01:32Z</time>
      </trkpt>
      <trkpt lat="56.59261" lon="-5.67873">
        <ele>86.6</ele>
        <time>2021-03-20T16:01:37Z</time>
      </trkpt>
      <trkpt lat="56.59192" lon="-5.67927">
        <ele>81.79</ele>
        <time>2021-03-20T16:01:41Z</time>
      </trkpt>
      <trkpt lat="56.5916" lon="-5.6797">
        <ele>81.72</ele>
        <time>2021-03-20T16:01:45Z</time>
      </trkpt>
      <trkpt lat="56.59077" lon="-5.68109">
        <ele>79.5</ele>
        <time>2021-03-20T16:01:49Z</time>
      </trkpt>
      <trkpt lat="56.59048" lon="-5.68165">
        <ele>76.56</ele>
        <time>2021-03-20T16:01:53Z</time>
      </trkpt>
      <trkpt lat="56.59038" lon="-5.68191">
        <ele>76.49</ele>
        <time>2021-03-20T16:01:57Z</time>
      </trkpt>
      <trkpt lat="56.59029" lon="-5.68221">
        <ele>77.12</ele>
        <time>2021-03-20T16:02:02Z</time>
      </trkpt>
      <trkpt lat="56.59019" lon="-5.68275">
        <ele>77.06</ele>
        <time>2021-03-20T16:02:06Z</time>
      </trkpt>
      <trkpt lat="56.59013" lon="-5.68347">
        <ele>75.31</ele>
        <time>2021-03-20T16:02:10Z</time>
      </trkpt>
      <trkpt lat="56.59009" lon="-5.68425">
        <ele>73.64</ele>
        <time>2021-03-20T16:02:14Z</time>
      </trkpt>
      <trkpt lat="56.59009" lon="-5.6849">
        <ele>74.6</ele>
        <time>2021-03-20T16:02:18Z</time>
      </trkpt>
      <trkpt lat="56.59024" lon="-5.68647">
        <ele>82.39</ele>
        <time>2021-03-20T16:02:22Z</time>
      </trkpt>
      <trkpt lat="56.59025" lon="-5.68686">
        <ele>83.29</ele>
        <time>2021-03-20T16:02:27Z</time>
      </trkpt>
      <trkpt lat="56.59023" lon="-5.68736">
        <ele>84.79</ele>
        <time>2021-03-20T16:02:31Z</time>
      </trkpt>
      <trkpt lat="56.5899" lon="-5.68921">
        <ele>83.95</ele>
        <time>2021-03-20T16:02:35Z</time>
      </trkpt>
      <trkpt lat="56.58951" lon="-5.69211">
        <ele>85.24</ele>
        <time>2021-03-20T16:02:39Z</time>
      </trkpt>
      <trkpt lat="56.58943" lon="-5.69251">
        <ele>85.69</ele>
        <time>2021-03-20T16:02:43Z</time>
      </trkpt>
      <trkpt lat="56.58933" lon="-5.69287">
        <ele>85.24</ele>
        <time>2021-03-20T16:02:47Z</time>
      </trkpt>
      <trkpt lat="56.58897" lon="-5.69385">
        <ele>81.89</ele>
        <time>2021-03-20T16:02:51Z</time>
      </trkpt>
      <trkpt lat="56.58882" lon="-5.69441">
        <ele>77.81</ele>
        <time>2021-03-20T16:02:56Z</time>
      </trkpt>
      <trkpt lat="56.58876" lon="-5.69476">
        <ele>74.51</ele>
        <time>2021-03-20T16:03:00Z</time>
      </trkpt>
      <trkpt lat="56.58873" lon="-5.69509">
        <ele>72.53</ele>
        <time>2021-03-20T16:03:04Z</time>
      </trkpt>
      <trkpt lat="56.58872" lon="-5.69554">
        <ele>69.63</ele>
        <time>2021-03-20T16:03:08Z</time>
      </trkpt>
      <trkpt lat="56.58876" lon="-5.69598">
        <ele>66.59</ele>
        <time>2021-03-20T16:03:12Z</time>
      </trkpt>
      <trkpt lat="56.58888" lon="-5.69657">
        <ele>62.95</ele>
        <time>2021-03-20T16:03:16Z</time>
      </trkpt>
      <trkpt lat="56.58924" lon="-5.69772">
        <ele>53.21</ele>
        <time>2021-03-20T16:03:21Z</time>
      </trkpt>
      <trkpt lat="56.58933" lon="-5.69809">
        <ele>52.25</ele>
        <time>2021-03-20T16:03:25Z</time>
      </trkpt>
      <trkpt lat="56.5894" lon="-5.69856">
        <ele>53.16</ele>
        <time>2021-03-20T16:03:29Z</time>
      </trkpt>
      <trkpt lat="56.58942" lon="-5.69902">
        <ele>54.1</ele>
        <time>2021-03-20T16:03:33Z</time>
      </trkpt>
      <trkpt lat="56.5894" lon="-5.6995">
        <ele>55.17</ele>
        <time>2021-03-20T16:03:37Z</time>
      </trkpt>
      <trkpt lat="56.58931" lon="-5.70039">
        <ele>54.03</ele>
        <time>2021-03-20T16:03:41Z</time>
      </trkpt>
      <trkpt lat="56.58928" lon="-5.70082">
        <ele>54.17</ele>
        <time>2021-03-20T16:03:45Z</time>
      </trkpt>
      <trkpt lat="56.58928" lon="-5.70128">
        <ele>52.71</ele>
        <time>2021-03-20T16:03:50Z</time>
      </trkpt>
      <trkpt lat="56.58934" lon="-5.70184">
        <ele>48.32</ele>
        <time>2021-03-20T16:03:54Z</time>
      </trkpt>
      <trkpt lat="56.58942" lon="-5.70219">
        <ele>46</ele>
        <time>2021-03-20T16:03:58Z</time>
      </trkpt>
      <trkpt lat="56.58994" lon="-5.70392">
        <ele>38.19</ele>
        <time>2021-03-20T16:04:02Z</time>
      </trkpt>
      <trkpt lat="56.59009" lon="-5.70457">
        <ele>36.81</ele>
        <time>2021-03-20T16:04:06Z</time>
      </trkpt>
      <trkpt lat="56.59048" lon="-5.70717">
        <ele>28.86</ele>
        <time>2021-03-20T16:04:10Z</time>
      </trkpt>
      <trkpt lat="56.59097" lon="-5.71024">
        <ele>31.12</ele>
        <time>2021-03-20T16:04:15Z</time>
      </trkpt>
      <trkpt lat="56.59113" lon="-5.71154">
        <ele>36.08</ele>
        <time>2021-03-20T16:04:19Z</time>
      </trkpt>
      <trkpt lat="56.5912" lon="-5.71366">
        <ele>41.61</ele>
        <time>2021-03-20T16:04:23Z</time>
      </trkpt>
      <trkpt lat="56.59121" lon="-5.71454">
        <ele>41.53</ele>
        <time>2021-03-20T16:04:27Z</time>
      </trkpt>
      <trkpt lat="56.59118" lon="-5.71531">
        <ele>39.17</ele>
        <time>2021-03-20T16:04:31Z</time>
      </trkpt>
      <trkpt lat="56.59113" lon="-5.71593">
        <ele>36.64</ele>
        <time>2021-03-20T16:04:35Z</time>
      </trkpt>
      <trkpt lat="56.5908" lon="-5.7191">
        <ele>30.94</ele>
        <time>2021-03-20T16:04:39Z</time>
      </trkpt>
      <trkpt lat="56.59075" lon="-5.71981">
        <ele>28.74</ele>
        <time>2021-03-20T16:04:44Z</time>
      </trkpt>
      <trkpt lat="56.59076" lon="-5.72023">
        <ele>27.03</ele>
        <time>2021-03-20T16:04:48Z</time>
      </trkpt>
      <trkpt lat="56.59087" lon="-5.72177">
        <ele>25</ele>
        <time>2021-03-20T16:04:52Z</time>
      </trkpt>
      <trkpt lat="56.59088" lon="-5.72261">
        <ele>26.12</ele>
        <time>2021-03-20T16:04:56Z</time>
      </trkpt>
      <trkpt lat="56.59084" lon="-5.72329">
        <ele>25.2</ele>
        <time>2021-03-20T16:05:00Z</time>
      </trkpt>
      <trkpt lat="56.59064" lon="-5.72508">
        <ele>26.37</ele>
        <time>2021-03-20T16:05:04Z</time>
      </trkpt>
      <trkpt lat="56.59031" lon="-5.72779">
        <ele>28.86</ele>
        <time>2021-03-20T16:05:09Z</time>
      </trkpt>
      <trkpt lat="56.58998" lon="-5.72981">
        <ele>26.65</ele>
        <time>2021-03-20T16:05:13Z</time>
      </trkpt>
      <trkpt lat="56.58996" lon="-5.73019">
        <ele>25.79</ele>
        <time>2021-03-20T16:05:17Z</time>
      </trkpt>
      <trkpt lat="56.58997" lon="-5.73061">
        <ele>24.64</ele>
        <time>2021-03-20T16:05:21Z</time>
      </trkpt>
      <trkpt lat="56.59002" lon="-5.73102">
        <ele>24.18</ele>
        <time>2021-03-20T16:05:25Z</time>
      </trkpt>
      <trkpt lat="56.59014" lon="-5.73151">
        <ele>23.07</ele>
        <time>2021-03-20T16:05:29Z</time>
      </trkpt>
      <trkpt lat="56.59062" lon="-5.73279">
        <ele>19.61</ele>
        <time>2021-03-20T16:05:33Z</time>
      </trkpt>
      <trkpt lat="56.59076" lon="-5.73326">
        <ele>18.91</ele>
        <time>2021-03-20T16:05:38Z</time>
      </trkpt>
      <trkpt lat="56.59086" lon="-5.73379">
        <ele>18.42</ele>
        <time>2021-03-20T16:05:42Z</time>
      </trkpt>
      <trkpt lat="56.59095" lon="-5.73539">
        <ele>18.83</ele>
        <time>2021-03-20T16:05:46Z</time>
      </trkpt>
      <trkpt lat="56.591" lon="-5.73581">
        <ele>19.57</ele>
        <time>2021-03-20T16:05:50Z</time>
      </trkpt>
      <trkpt lat="56.59123" lon="-5.73694">
        <ele>19.83</ele>
        <time>2021-03-20T16:05:54Z</time>
      </trkpt>
      <trkpt lat="56.5913" lon="-5.73763">
        <ele>21.64</ele>
        <time>2021-03-20T16:05:58Z</time>
      </trkpt>
      <trkpt lat="56.5913" lon="-5.73811">
        <ele>23.91</ele>
        <time>2021-03-20T16:06:03Z</time>
      </trkpt>
      <trkpt lat="56.59128" lon="-5.73854">
        <ele>25.64</ele>
        <time>2021-03-20T16:06:07Z</time>
      </trkpt>
      <trkpt lat="56.59123" lon="-5.73897">
        <ele>26.08</ele>
        <time>2021-03-20T16:06:11Z</time>
      </trkpt>
      <trkpt lat="56.59111" lon="-5.73954">
        <ele>26.75</ele>
        <time>2021-03-20T16:06:15Z</time>
      </trkpt>
      <trkpt lat="56.59101" lon="-5.73994">
        <ele>27.99</ele>
        <time>2021-03-20T16:06:19Z</time>
      </trkpt>
      <trkpt lat="56.59087" lon="-5.74028">
        <ele>29.27</ele>
        <time>2021-03-20T16:06:23Z</time>
      </trkpt>
      <trkpt lat="56.59018" lon="-5.74169">
        <ele>34.94</ele>
        <time>2021-03-20T16:06:28Z</time>
      </trkpt>
      <trkpt lat="56.5884" lon="-5.74426">
        <ele>22.08</ele>
        <time>2021-03-20T16:06:32Z</time>
      </trkpt>
      <trkpt lat="56.58795" lon="-5.74479">
        <ele>22.53</ele>
        <time>2021-03-20T16:06:36Z</time>
      </trkpt>
      <trkpt lat="56.58747" lon="-5.74517">
        <ele>20.39</ele>
        <time>2021-03-20T16:06:40Z</time>
      </trkpt>
      <trkpt lat="56.58701" lon="-5.74537">
        <ele>17.41</ele>
        <time>2021-03-20T16:06:44Z</time>
      </trkpt>
      <trkpt lat="56.58564" lon="-5.74564">
        <ele>14.21</ele>
        <time>2021-03-20T16:06:48Z</time>
      </trkpt>
      <trkpt lat="56.58488" lon="-5.74619">
        <ele>15.84</ele>
        <time>2021-03-20T16:06:52Z</time>
      </trkpt>
      <trkpt lat="56.5839" lon="-5.74722">
        <ele>21.85</ele>
        <time>2021-03-20T16:06:57Z</time>
      </trkpt>
      <trkpt lat="56.58355" lon="-5.74767">
        <ele>24.09</ele>
        <time>2021-03-20T16:07:01Z</time>
      </trkpt>
      <trkpt lat="56.58275" lon="-5.7489">
        <ele>19.84</ele>
        <time>2021-03-20T16:07:05Z</time>
      </trkpt>
      <trkpt lat="56.58238" lon="-5.74927">
        <ele>17.2</ele>
        <time>2021-03-20T16:07:09Z</time>
      </trkpt>
      <trkpt lat="56.58196" lon="-5.74959">
        <ele>15.51</ele>
        <time>2021-03-20T16:07:13Z</time>
      </trkpt>
      <trkpt lat="56.58032" lon="-5.75026">
        <ele>11.2</ele>
        <time>2021-03-20T16:07:17Z</time>
      </trkpt>
      <trkpt lat="56.58" lon="-5.75047">
        <ele>10.01</ele>
        <time>2021-03-20T16:07:22Z</time>
      </trkpt>
      <trkpt lat="56.57958" lon="-5.75093">
        <ele>10</ele>
        <time>2021-03-20T16:07:26Z</time>
      </trkpt>
      <trkpt lat="56.57914" lon="-5.75166">
        <ele>8.9</ele>
        <time>2021-03-20T16:07:30Z</time>
      </trkpt>
      <trkpt lat="56.57871" lon="-5.7526">
        <ele>12.7</ele>
        <time>2021-03-20T16:07:34Z</time>
      </trkpt>
      <trkpt lat="56.57844" lon="-5.75309">
        <ele>14.74</ele>
        <time>2021-03-20T16:07:38Z</time>
      </trkpt>
      <trkpt lat="56.57809" lon="-5.75353">
        <ele>16.72</ele>
        <time>2021-03-20T16:07:42Z</time>
      </trkpt>
      <trkpt lat="56.57787" lon="-5.75374">
        <ele>17.78</ele>
        <time>2021-03-20T16:07:46Z</time>
      </trkpt>
      <trkpt lat="56.57742" lon="-5.75408">
        <ele>19.48</ele>
        <time>2021-03-20T16:07:51Z</time>
      </trkpt>
      <trkpt lat="56.57723" lon="-5.75416">
        <ele>19.03</ele>
        <time>2021-03-20T16:07:55Z</time>
      </trkpt>
      <trkpt lat="56.57689" lon="-5.75425">
        <ele>20.4</ele>
        <time>2021-03-20T16:07:59Z</time>
      </trkpt>
      <trkpt lat="56.57662" lon="-5.75427">
        <ele>22.16</ele>
        <time>2021-03-20T16:08:03Z</time>
      </trkpt>
      <trkpt lat="56.57638" lon="-5.75425">
        <ele>23.08</ele>
        <time>2021-03-20T16:08:07Z</time>
      </trkpt>
      <trkpt lat="56.57572" lon="-5.75398">
        <ele>28.75</ele>
        <time>2021-03-20T16:08:11Z</time>
      </trkpt>
      <trkpt lat="56.57458" lon="-5.75337">
        <ele>35.98</ele>
        <time>2021-03-20T16:08:16Z</time>
      </trkpt>
      <trkpt lat="56.57309" lon="-5.75342">
        <ele>35.82</ele>
        <time>2021-03-20T16:08:20Z</time>
      </trkpt>
      <trkpt lat="56.57204" lon="-5.75342">
        <ele>35.91</ele>
        <time>2021-03-20T16:08:24Z</time>
      </trkpt>
      <trkpt lat="56.57082" lon="-5.75348">
        <ele>34.53</ele>
        <time>2021-03-20T16:08:28Z</time>
      </trkpt>
      <trkpt lat="56.56765" lon="-5.75355">
        <ele>45.29</ele>
        <time>2021-03-20T16:08:32Z</time>
      </trkpt>
      <trkpt lat="56.56705" lon="-5.75374">
        <ele>52.49</ele>
        <time>2021-03-20T16:08:36Z</time>
      </trkpt>
      <trkpt lat="56.56685" lon="-5.75387">
        <ele>54.97</ele>
        <time>2021-03-20T16:08:40Z</time>
      </trkpt>
      <trkpt lat="56.56663" lon="-5.75407">
        <ele>58.57</ele>
        <time>2021-03-20T16:08:45Z</time>
      </trkpt>
      <trkpt lat="56.56623" lon="-5.75453">
        <ele>62.66</ele>
        <time>2021-03-20T16:08:49Z</time>
      </trkpt>
      <trkpt lat="56.5658" lon="-5.75527">
        <ele>63.17</ele>
        <time>2021-03-20T16:08:53Z</time>
      </trkpt>
      <trkpt lat="56.56556" lon="-5.75591">
        <ele>65.93</ele>
        <time>2021-03-20T16:08:57Z</time>
      </trkpt>
      <trkpt lat="56.56533" lon="-5.7567">
        <ele>67.61</ele>
        <time>2021-03-20T16:09:01Z</time>
      </trkpt>
      <trkpt lat="56.56514" lon="-5.75759">
        <ele>73.98</ele>
        <time>2021-03-20T16:09:05Z</time>
      </trkpt>
      <trkpt lat="56.5649" lon="-5.75835">
        <ele>76.07</ele>
        <time>2021-03-20T16:09:10Z</time>
      </trkpt>
      <trkpt lat="56.56475" lon="-5.75866">
        <ele>79.07</ele>
        <time>2021-03-20T16:09:14Z</time>
      </trkpt>
      <trkpt lat="56.56415" lon="-5.75948">
        <ele>85.45</ele>
        <time>2021-03-20T16:09:18Z</time>
      </trkpt>
      <trkpt lat="56.56371" lon="-5.75978">
        <ele>85.5</ele>
        <time>2021-03-20T16:09:22Z</time>
      </trkpt>
      <trkpt lat="56.56322" lon="-5.75998">
        <ele>88.05</ele>
        <time>2021-03-20T16:09:26Z</time>
      </trkpt>
      <trkpt lat="56.56258" lon="-5.76006">
        <ele>93.29</ele>
        <time>2021-03-20T16:09:30Z</time>
      </trkpt>
      <trkpt lat="56.56204" lon="-5.76004">
        <ele>94.44</ele>
        <time>2021-03-20T16:09:34Z</time>
      </trkpt>
      <trkpt lat="56.5614" lon="-5.76023">
        <ele>91.91</ele>
        <time>2021-03-20T16:09:39Z</time>
      </trkpt>
      <trkpt lat="56.56112" lon="-5.76038">
        <ele>91.39</ele>
        <time>2021-03-20T16:09:43Z</time>
      </trkpt>
      <trkpt lat="56.56057" lon="-5.76087">
        <ele>90.13</ele>
        <time>2021-03-20T16:09:47Z</time>
      </trkpt>
      <trkpt lat="56.56061" lon="-5.76141">
        <ele>92.52</ele>
        <time>2021-03-20T16:09:53Z</time>
      </trkpt>
      <trkpt lat="56.56057" lon="-5.76159">
        <ele>93.52</ele>
        <time>2021-03-20T16:09:59Z</time>
      </trkpt>
      <trkpt lat="56.56057" lon="-5.76159">
        <ele>93.52</ele>
        <time>2021-03-20T16:09:59Z</time>
      </trkpt>
      <trkpt lat="56.56061" lon="-5.76141">
        <ele>92.52</ele>
        <time>2021-03-20T16:10:06Z</time>
      </trkpt>
      <trkpt lat="56.56057" lon="-5.76087">
        <ele>90.13</ele>
        <time>2021-03-20T16:10:12Z</time>
      </trkpt>
      <trkpt lat="56.56031" lon="-5.76124">
        <ele>86.46</ele>
        <time>2021-03-20T16:10:20Z</time>
      </trkpt>
      <trkpt lat="56.56002" lon="-5.76177">
        <ele>85.89</ele>
        <time>2021-03-20T16:10:29Z</time>
      </trkpt>
      <trkpt lat="56.55931" lon="-5.76332">
        <ele>92.43</ele>
        <time>2021-03-20T16:10:37Z</time>
      </trkpt>
      <trkpt lat="56.55883" lon="-5.76409">
        <ele>93.05</ele>
        <time>2021-03-20T16:10:46Z</time>
      </trkpt>
      <trkpt lat="56.55748" lon="-5.7655">
        <ele>96.24</ele>
        <time>2021-03-20T16:10:54Z</time>
      </trkpt>
      <trkpt lat="56.55663" lon="-5.76643">
        <ele>98.7</ele>
        <time>2021-03-20T16:11:02Z</time>
      </trkpt>
      <trkpt lat="56.55645" lon="-5.76667">
        <ele>97.2</ele>
        <time>2021-03-20T16:11:11Z</time>
      </trkpt>
      <trkpt lat="56.55509" lon="-5.76911">
        <ele>105.88</ele>
        <time>2021-03-20T16:11:19Z</time>
      </trkpt>
      <trkpt lat="56.55488" lon="-5.76944">
        <ele>105.6</ele>
        <time>2021-03-20T16:11:28Z</time>
      </trkpt>
      <trkpt lat="56.55455" lon="-5.76978">
        <ele>105.05</ele>
        <time>2021-03-20T16:11:36Z</time>
      </trkpt>
      <trkpt lat="56.5519" lon="-5.77191">
        <ele>98.51</ele>
        <time>2021-03-20T16:11:44Z</time>
      </trkpt>
      <trkpt lat="56.55138" lon="-5.77226">
        <ele>100.3</ele>
        <time>2021-03-20T16:11:53Z</time>
      </trkpt>
      <trkpt lat="56.54991" lon="-5.7726">
        <ele>104.11</ele>
        <time>2021-03-20T16:12:01Z</time>
      </trkpt>
      <trkpt lat="56.54786" lon="-5.77287">
        <ele>104.72</ele>
        <time>2021-03-20T16:12:10Z</time>
      </trkpt>
      <trkpt lat="56.54678" lon="-5.77361">
        <ele>94.09</ele>
        <time>2021-03-20T16:12:18Z</time>
      </trkpt>
      <trkpt lat="56.54543" lon="-5.77473">
        <ele>86.13</ele>
        <time>2021-03-20T16:12:27Z</time>
      </trkpt>
      <trkpt lat="56.54494" lon="-5.7752">
        <ele>82.36</ele>
        <time>2021-03-20T16:12:35Z</time>
      </trkpt>
      <trkpt lat="56.54426" lon="-5.7761">
        <ele>79.24</ele>
        <time>2021-03-20T16:12:43Z</time>
      </trkpt>
      <trkpt lat="56.54362" lon="-5.77716">
        <ele>74.93</ele>
        <time>2021-03-20T16:12:52Z</time>
      </trkpt>
      <trkpt lat="56.54338" lon="-5.77752">
        <ele>72.76</ele>
        <time>2021-03-20T16:13:00Z</time>
      </trkpt>
      <trkpt lat="56.54321" lon="-5.77775">
        <ele>71.61</ele>
        <time>2021-03-20T16:13:09Z</time>
      </trkpt>
      <trkpt lat="56.5428" lon="-5.77815">
        <ele>69.19</ele>
        <time>2021-03-20T16:13:17Z</time>
      </trkpt>
      <trkpt lat="56.54168" lon="-5.77865">
        <ele>65</ele>
        <time>2021-03-20T16:13:25Z</time>
      </trkpt>
      <trkpt lat="56.54106" lon="-5.77889">
        <ele>59.64</ele>
        <time>2021-03-20T16:13:34Z</time>
      </trkpt>
      <trkpt lat="56.54062" lon="-5.77901">
        <ele>57.77</ele>
        <time>2021-03-20T16:13:42Z</time>
      </trkpt>
      <trkpt lat="56.54023" lon="-5.77903">
        <ele>55.14</ele>
        <time>2021-03-20T16:13:51Z</time>
      </trkpt>
      <trkpt lat="56.54006" lon="-5.77897">
        <ele>53.75</ele>
        <time>2021-03-20T16:13:59Z</time>
      </trkpt>
      <trkpt lat="56.53983" lon="-5.77894">
        <ele>51.33</ele>
        <time>2021-03-20T16:14:07Z</time>
      </trkpt>
      <trkpt lat="56.53927" lon="-5.7786">
        <ele>44.69</ele>
        <time>2021-03-20T16:14:16Z</time>
      </trkpt>
      <trkpt lat="56.53877" lon="-5.77818">
        <ele>41.62</ele>
        <time>2021-03-20T16:14:24Z</time>
      </trkpt>
      <trkpt lat="56.53773" lon="-5.77743">
        <ele>28.55</ele>
        <time>2021-03-20T16:14:33Z</time>
      </trkpt>
      <trkpt lat="56.53716" lon="-5.77724">
        <ele>24.62</ele>
        <time>2021-03-20T16:14:41Z</time>
      </trkpt>
      <trkpt lat="56.53645" lon="-5.77686">
        <ele>17.35</ele>
        <time>2021-03-20T16:14:49Z</time>
      </trkpt>
      <trkpt lat="56.53631" lon="-5.77673">
        <ele>15.8</ele>
        <time>2021-03-20T16:14:58Z</time>
      </trkpt>
      <trkpt lat="56.53611" lon="-5.77663">
        <ele>14.7</ele>
        <time>2021-03-20T16:15:06Z</time>
      </trkpt>
      <trkpt lat="56.53558" lon="-5.77651">
        <ele>14.4</ele>
        <time>2021-03-20T16:15:15Z</time>
      </trkpt>
      <trkpt lat="56.535" lon="-5.77643">
        <ele>14.63</ele>
        <time>2021-03-20T16:15:23Z</time>
      </trkpt>
      <trkpt lat="56.53507" lon="-5.77602">
        <ele>8.85</ele>
        <time>2021-03-20T16:16:04Z</time>
      </trkpt>
      <trkpt lat="56.53517" lon="-5.77592">
        <ele>8.48</ele>
        <time>2021-03-20T16:16:45Z</time>
      </trkpt>
      <trkpt lat="56.53527" lon="-5.77593">
        <ele>8.71</ele>
        <time>2021-03-20T16:17:26Z</time>
      </trkpt>
      <trkpt lat="56.53549" lon="-5.77619">
        <ele>10.94</ele>
        <time>2021-03-20T16:18:07Z</time>
      </trkpt>
      <trkpt lat="56.53567" lon="-5.77623">
        <ele>11.7</ele>
        <time>2021-03-20T16:18:48Z</time>
      </trkpt>
      <trkpt lat="56.53593" lon="-5.77613">
        <ele>10.85</ele>
        <time>2021-03-20T16:19:29Z</time>
      </trkpt>
      <trkpt lat="56.53615" lon="-5.77603">
        <ele>9.26</ele>
        <time>2021-03-20T16:20:10Z</time>
      </trkpt>
      <trkpt lat="56.53635" lon="-5.7758">
        <ele>6.89</ele>
        <time>2021-03-20T16:20:51Z</time>
      </trkpt>
      <trkpt lat="56.53667" lon="-5.77531">
        <ele>3.98</ele>
        <time>2021-03-20T16:21:32Z</time>
      </trkpt>
      <trkpt lat="56.53689" lon="-5.77496">
        <ele>4</ele>
        <time>2021-03-20T16:22:13Z</time>
      </trkpt>
      <trkpt lat="56.53684" lon="-5.77437">
        <ele>4.02</ele>
        <time>2021-03-20T16:22:54Z</time>
      </trkpt>
      <trkpt lat="56.53631" lon="-5.77392">
        <ele>4.03</ele>
        <time>2021-03-20T16:23:35Z</time>
      </trkpt>
      <trkpt lat="56.53571" lon="-5.77383">
        <ele>4.04</ele>
        <time>2021-03-20T16:24:16Z</time>
      </trkpt>
      <trkpt lat="56.53134" lon="-5.7746">
        <ele>4.16</ele>
        <time>2021-03-20T16:24:57Z</time>
      </trkpt>
      <trkpt lat="56.51635" lon="-5.81089">
        <ele>5.39</ele>
        <time>2021-03-20T16:25:38Z</time>
      </trkpt>
      <trkpt lat="56.515" lon="-5.81013">
        <ele>5.45</ele>
        <time>2021-03-20T16:26:19Z</time>
      </trkpt>
      <trkpt lat="56.51465" lon="-5.80991">
        <ele>4</ele>
        <time>2021-03-20T16:27:00Z</time>
      </trkpt>
      <trkpt lat="56.51401" lon="-5.8094">
        <ele>7.65</ele>
        <time>2021-03-20T16:27:41Z</time>
      </trkpt>
      <trkpt lat="56.51387" lon="-5.80917">
        <ele>9.29</ele>
        <time>2021-03-20T16:28:22Z</time>
      </trkpt>
      <trkpt lat="56.51379" lon="-5.80897">
        <ele>10.6</ele>
        <time>2021-03-20T16:29:03Z</time>
      </trkpt>
      <trkpt lat="56.51373" lon="-5.80866">
        <ele>11.32</ele>
        <time>2021-03-20T16:29:44Z</time>
      </trkpt>
      <trkpt lat="56.51372" lon="-5.80831">
        <ele>11.41</ele>
        <time>2021-03-20T16:30:26Z</time>
      </trkpt>
      <trkpt lat="56.51395" lon="-5.80696">
        <ele>8.42</ele>
        <time>2021-03-20T16:31:07Z</time>
      </trkpt>
      <trkpt lat="56.51398" lon="-5.80656">
        <ele>7.03</ele>
        <time>2021-03-20T16:31:48Z</time>
      </trkpt>
      <trkpt lat="56.51397" lon="-5.80614">
        <ele>7.14</ele>
        <time>2021-03-20T16:32:29Z</time>
      </trkpt>
      <trkpt lat="56.51393" lon="-5.80585">
        <ele>6.68</ele>
        <time>2021-03-20T16:33:10Z</time>
      </trkpt>
      <trkpt lat="56.51347" lon="-5.80415">
        <ele>8.56</ele>
        <time>2021-03-20T16:33:51Z</time>
      </trkpt>
      <trkpt lat="56.51326" lon="-5.80319">
        <ele>11</ele>
        <time>2021-03-20T16:34:32Z</time>
      </trkpt>
      <trkpt lat="56.51311" lon="-5.80275">
        <ele>11.8</ele>
        <time>2021-03-20T16:35:13Z</time>
      </trkpt>
      <trkpt lat="56.51295" lon="-5.80244">
        <ele>12.95</ele>
        <time>2021-03-20T16:35:54Z</time>
      </trkpt>
      <trkpt lat="56.51282" lon="-5.80224">
        <ele>14.65</ele>
        <time>2021-03-20T16:36:35Z</time>
      </trkpt>
      <trkpt lat="56.51272" lon="-5.80213">
        <ele>15.46</ele>
        <time>2021-03-20T16:37:16Z</time>
      </trkpt>
      <trkpt lat="56.51251" lon="-5.80197">
        <ele>16</ele>
        <time>2021-03-20T16:37:57Z</time>
      </trkpt>
      <trkpt lat="56.51229" lon="-5.80186">
        <ele>17.86</ele>
        <time>2021-03-20T16:38:38Z</time>
      </trkpt>
      <trkpt lat="56.51086" lon="-5.80159">
        <ele>29.79</ele>
        <time>2021-03-20T16:39:19Z</time>
      </trkpt>
      <trkpt lat="56.51011" lon="-5.80167">
        <ele>30.42</ele>
        <time>2021-03-20T16:40:00Z</time>
      </trkpt>
      <trkpt lat="56.50927" lon="-5.80195">
        <ele>29.38</ele>
        <time>2021-03-20T16:40:41Z</time>
      </trkpt>
      <trkpt lat="56.5076" lon="-5.80277">
        <ele>28.65</ele>
        <time>2021-03-20T16:41:22Z</time>
      </trkpt>
      <trkpt lat="56.50574" lon="-5.80339">
        <ele>36.01</ele>
        <time>2021-03-20T16:42:03Z</time>
      </trkpt>
      <trkpt lat="56.50591" lon="-5.80545">
        <ele>33.44</ele>
        <time>2021-03-20T16:42:12Z</time>
      </trkpt>
      <trkpt lat="56.50586" lon="-5.80731">
        <ele>33.42</ele>
        <time>2021-03-20T16:42:21Z</time>
      </trkpt>
      <trkpt lat="56.50505" lon="-5.81539">
        <ele>15.07</ele>
        <time>2021-03-20T16:42:30Z</time>
      </trkpt>
      <trkpt lat="56.50502" lon="-5.8159">
        <ele>16.66</ele>
        <time>2021-03-20T16:42:39Z</time>
      </trkpt>
      <trkpt lat="56.50502" lon="-5.8159">
        <ele>16.66</ele>
        <time>2021-03-20T16:42:39Z</time>
      </trkpt>
      <trkpt lat="56.50493" lon="-5.81784">
        <ele>18.25</ele>
        <time>2021-03-20T16:42:46Z</time>
      </trkpt>
      <trkpt lat="56.505" lon="-5.81971">
        <ele>17.02</ele>
        <time>2021-03-20T16:42:54Z</time>
      </trkpt>
      <trkpt lat="56.50521" lon="-5.82216">
        <ele>13.63</ele>
        <time>2021-03-20T16:43:02Z</time>
      </trkpt>
      <trkpt lat="56.50571" lon="-5.82459">
        <ele>7.07</ele>
        <time>2021-03-20T16:43:10Z</time>
      </trkpt>
      <trkpt lat="56.5066" lon="-5.82781">
        <ele>8.17</ele>
        <time>2021-03-20T16:43:18Z</time>
      </trkpt>
      <trkpt lat="56.50689" lon="-5.82923">
        <ele>9</ele>
        <time>2021-03-20T16:43:25Z</time>
      </trkpt>
      <trkpt lat="56.50741" lon="-5.83206">
        <ele>7.95</ele>
        <time>2021-03-20T16:43:33Z</time>
      </trkpt>
      <trkpt lat="56.50781" lon="-5.83389">
        <ele>4.9</ele>
        <time>2021-03-20T16:43:41Z</time>
      </trkpt>
      <trkpt lat="56.50891" lon="-5.83781">
        <ele>1.11</ele>
        <time>2021-03-20T16:43:49Z</time>
      </trkpt>
      <trkpt lat="56.50935" lon="-5.83875">
        <ele>3.5</ele>
        <time>2021-03-20T16:43:57Z</time>
      </trkpt>
      <trkpt lat="56.50998" lon="-5.83961">
        <ele>8.87</ele>
        <time>2021-03-20T16:44:04Z</time>
      </trkpt>
      <trkpt lat="56.51069" lon="-5.84017">
        <ele>10.84</ele>
        <time>2021-03-20T16:44:12Z</time>
      </trkpt>
      <trkpt lat="56.51232" lon="-5.84058">
        <ele>10.59</ele>
        <time>2021-03-20T16:44:20Z</time>
      </trkpt>
      <trkpt lat="56.51329" lon="-5.84112">
        <ele>10.46</ele>
        <time>2021-03-20T16:44:28Z</time>
      </trkpt>
      <trkpt lat="56.51404" lon="-5.842">
        <ele>8.68</ele>
        <time>2021-03-20T16:44:35Z</time>
      </trkpt>
      <trkpt lat="56.51485" lon="-5.84356">
        <ele>11.59</ele>
        <time>2021-03-20T16:44:43Z</time>
      </trkpt>
      <trkpt lat="56.51595" lon="-5.84605">
        <ele>11.29</ele>
        <time>2021-03-20T16:44:51Z</time>
      </trkpt>
      <trkpt lat="56.51947" lon="-5.85169">
        <ele>7.89</ele>
        <time>2021-03-20T16:44:59Z</time>
      </trkpt>
      <trkpt lat="56.51994" lon="-5.85277">
        <ele>6.65</ele>
        <time>2021-03-20T16:45:07Z</time>
      </trkpt>
      <trkpt lat="56.52019" lon="-5.85381">
        <ele>7.76</ele>
        <time>2021-03-20T16:45:14Z</time>
      </trkpt>
      <trkpt lat="56.52033" lon="-5.85493">
        <ele>8.72</ele>
        <time>2021-03-20T16:45:22Z</time>
      </trkpt>
      <trkpt lat="56.52035" lon="-5.8561">
        <ele>7.65</ele>
        <time>2021-03-20T16:45:30Z</time>
      </trkpt>
      <trkpt lat="56.52025" lon="-5.85859">
        <ele>5.35</ele>
        <time>2021-03-20T16:45:38Z</time>
      </trkpt>
      <trkpt lat="56.52028" lon="-5.85954">
        <ele>6.34</ele>
        <time>2021-03-20T16:45:46Z</time>
      </trkpt>
      <trkpt lat="56.5204" lon="-5.86066">
        <ele>6.91</ele>
        <time>2021-03-20T16:45:53Z</time>
      </trkpt>
      <trkpt lat="56.52065" lon="-5.86239">
        <ele>4.83</ele>
        <time>2021-03-20T16:46:01Z</time>
      </trkpt>
      <trkpt lat="56.52073" lon="-5.8637">
        <ele>6.14</ele>
        <time>2021-03-20T16:46:09Z</time>
      </trkpt>
      <trkpt lat="56.52069" lon="-5.86516">
        <ele>7.33</ele>
        <time>2021-03-20T16:46:17Z</time>
      </trkpt>
      <trkpt lat="56.52014" lon="-5.87233">
        <ele>8.37</ele>
        <time>2021-03-20T16:46:24Z</time>
      </trkpt>
      <trkpt lat="56.52007" lon="-5.87533">
        <ele>5.99</ele>
        <time>2021-03-20T16:46:32Z</time>
      </trkpt>
      <trkpt lat="56.5204" lon="-5.8792">
        <ele>15.95</ele>
        <time>2021-03-20T16:46:40Z</time>
      </trkpt>
      <trkpt lat="56.52044" lon="-5.8804">
        <ele>7.02</ele>
        <time>2021-03-20T16:46:48Z</time>
      </trkpt>
      <trkpt lat="56.52099" lon="-5.88724">
        <ele>5.18</ele>
        <time>2021-03-20T16:46:56Z</time>
      </trkpt>
      <trkpt lat="56.52101" lon="-5.88823">
        <ele>3.82</ele>
        <time>2021-03-20T16:47:03Z</time>
      </trkpt>
      <trkpt lat="56.52099" lon="-5.88932">
        <ele>4.12</ele>
        <time>2021-03-20T16:47:11Z</time>
      </trkpt>
      <trkpt lat="56.52092" lon="-5.89019">
        <ele>5.7</ele>
        <time>2021-03-20T16:47:19Z</time>
      </trkpt>
      <trkpt lat="56.52078" lon="-5.89127">
        <ele>6.44</ele>
        <time>2021-03-20T16:47:27Z</time>
      </trkpt>
      <trkpt lat="56.52037" lon="-5.89304">
        <ele>7.39</ele>
        <time>2021-03-20T16:47:35Z</time>
      </trkpt>
      <trkpt lat="56.51705" lon="-5.90491">
        <ele>11.63</ele>
        <time>2021-03-20T16:47:42Z</time>
      </trkpt>
      <trkpt lat="56.51637" lon="-5.90699">
        <ele>12.98</ele>
        <time>2021-03-20T16:47:50Z</time>
      </trkpt>
      <trkpt lat="56.51544" lon="-5.90946">
        <ele>13.44</ele>
        <time>2021-03-20T16:47:58Z</time>
      </trkpt>
      <trkpt lat="56.51523" lon="-5.91">
        <ele>15.36</ele>
        <time>2021-03-20T16:48:06Z</time>
      </trkpt>
      <trkpt lat="56.51504" lon="-5.9108">
        <ele>17.01</ele>
        <time>2021-03-20T16:48:13Z</time>
      </trkpt>
      <trkpt lat="56.51495" lon="-5.91142">
        <ele>17.56</ele>
        <time>2021-03-20T16:48:21Z</time>
      </trkpt>
      <trkpt lat="56.51482" lon="-5.91335">
        <ele>16.33</ele>
        <time>2021-03-20T16:48:29Z</time>
      </trkpt>
      <trkpt lat="56.51461" lon="-5.91567">
        <ele>14.83</ele>
        <time>2021-03-20T16:48:37Z</time>
      </trkpt>
      <trkpt lat="56.51412" lon="-5.92175">
        <ele>12.05</ele>
        <time>2021-03-20T16:48:45Z</time>
      </trkpt>
      <trkpt lat="56.51417" lon="-5.92526">
        <ele>14.98</ele>
        <time>2021-03-20T16:48:52Z</time>
      </trkpt>
      <trkpt lat="56.51451" lon="-5.92804">
        <ele>19.52</ele>
        <time>2021-03-20T16:49:00Z</time>
      </trkpt>
      <trkpt lat="56.51481" lon="-5.92989">
        <ele>16.49</ele>
        <time>2021-03-20T16:49:08Z</time>
      </trkpt>
      <trkpt lat="56.51512" lon="-5.93149">
        <ele>15.29</ele>
        <time>2021-03-20T16:49:16Z</time>
      </trkpt>
      <trkpt lat="56.5159" lon="-5.93405">
        <ele>12.91</ele>
        <time>2021-03-20T16:49:24Z</time>
      </trkpt>
      <trkpt lat="56.51636" lon="-5.93575">
        <ele>13.37</ele>
        <time>2021-03-20T16:49:31Z</time>
      </trkpt>
      <trkpt lat="56.51667" lon="-5.93734">
        <ele>12.39</ele>
        <time>2021-03-20T16:49:39Z</time>
      </trkpt>
      <trkpt lat="56.51698" lon="-5.93943">
        <ele>11.06</ele>
        <time>2021-03-20T16:49:47Z</time>
      </trkpt>
      <trkpt lat="56.51713" lon="-5.94128">
        <ele>9</ele>
        <time>2021-03-20T16:49:55Z</time>
      </trkpt>
      <trkpt lat="56.51721" lon="-5.94318">
        <ele>11</ele>
        <time>2021-03-20T16:50:02Z</time>
      </trkpt>
      <trkpt lat="56.5171" lon="-5.94603">
        <ele>11.72</ele>
        <time>2021-03-20T16:50:10Z</time>
      </trkpt>
      <trkpt lat="56.51709" lon="-5.94678">
        <ele>12.59</ele>
        <time>2021-03-20T16:50:18Z</time>
      </trkpt>
      <trkpt lat="56.51713" lon="-5.94766">
        <ele>9.63</ele>
        <time>2021-03-20T16:50:26Z</time>
      </trkpt>
      <trkpt lat="56.51719" lon="-5.94817">
        <ele>8.13</ele>
        <time>2021-03-20T16:50:34Z</time>
      </trkpt>
      <trkpt lat="56.51698" lon="-5.94832">
        <ele>8.88</ele>
        <time>2021-03-20T16:50:38Z</time>
      </trkpt>
      <trkpt lat="56.51676" lon="-5.94827">
        <ele>9.67</ele>
        <time>2021-03-20T16:50:41Z</time>
      </trkpt>
      <trkpt lat="56.51546" lon="-5.94734">
        <ele>12</ele>
        <time>2021-03-20T16:50:45Z</time>
      </trkpt>
      <trkpt lat="56.51499" lon="-5.94707">
        <ele>11.05</ele>
        <time>2021-03-20T16:50:49Z</time>
      </trkpt>
      <trkpt lat="56.51441" lon="-5.9469">
        <ele>13.16</ele>
        <time>2021-03-20T16:50:53Z</time>
      </trkpt>
      <trkpt lat="56.51378" lon="-5.94677">
        <ele>12.63</ele>
        <time>2021-03-20T16:50:57Z</time>
      </trkpt>
      <trkpt lat="56.51352" lon="-5.94674">
        <ele>12.75</ele>
        <time>2021-03-20T16:51:01Z</time>
      </trkpt>
      <trkpt lat="56.51343" lon="-5.94676">
        <ele>12.66</ele>
        <time>2021-03-20T16:51:05Z</time>
      </trkpt>
      <trkpt lat="56.51304" lon="-5.94703">
        <ele>13.06</ele>
        <time>2021-03-20T16:51:08Z</time>
      </trkpt>
      <trkpt lat="56.51169" lon="-5.9481">
        <ele>12</ele>
        <time>2021-03-20T16:51:12Z</time>
      </trkpt>
      <trkpt lat="56.51036" lon="-5.9491">
        <ele>14.64</ele>
        <time>2021-03-20T16:51:16Z</time>
      </trkpt>
      <trkpt lat="56.51021" lon="-5.9493">
        <ele>15.25</ele>
        <time>2021-03-20T16:51:20Z</time>
      </trkpt>
      <trkpt lat="56.51001" lon="-5.95026">
        <ele>20.77</ele>
        <time>2021-03-20T16:51:24Z</time>
      </trkpt>
      <trkpt lat="56.50991" lon="-5.95097">
        <ele>23.32</ele>
        <time>2021-03-20T16:51:28Z</time>
      </trkpt>
      <trkpt lat="56.50993" lon="-5.95151">
        <ele>24.61</ele>
        <time>2021-03-20T16:51:32Z</time>
      </trkpt>
      <trkpt lat="56.51002" lon="-5.95184">
        <ele>26.27</ele>
        <time>2021-03-20T16:51:36Z</time>
      </trkpt>
      <trkpt lat="56.5107" lon="-5.95333">
        <ele>32.01</ele>
        <time>2021-03-20T16:51:39Z</time>
      </trkpt>
      <trkpt lat="56.51081" lon="-5.95363">
        <ele>33.1</ele>
        <time>2021-03-20T16:51:43Z</time>
      </trkpt>
      <trkpt lat="56.51085" lon="-5.95399">
        <ele>32.96</ele>
        <time>2021-03-20T16:51:47Z</time>
      </trkpt>
      <trkpt lat="56.51084" lon="-5.95428">
        <ele>33</ele>
        <time>2021-03-20T16:51:51Z</time>
      </trkpt>
      <trkpt lat="56.51078" lon="-5.95453">
        <ele>34.19</ele>
        <time>2021-03-20T16:51:55Z</time>
      </trkpt>
      <trkpt lat="56.51006" lon="-5.95664">
        <ele>42.9</ele>
        <time>2021-03-20T16:51:59Z</time>
      </trkpt>
      <trkpt lat="56.50973" lon="-5.95731">
        <ele>44.85</ele>
        <time>2021-03-20T16:52:03Z</time>
      </trkpt>
      <trkpt lat="56.50923" lon="-5.95826">
        <ele>41.12</ele>
        <time>2021-03-20T16:52:06Z</time>
      </trkpt>
      <trkpt lat="56.50896" lon="-5.95861">
        <ele>39.77</ele>
        <time>2021-03-20T16:52:10Z</time>
      </trkpt>
      <trkpt lat="56.50842" lon="-5.95918">
        <ele>41.4</ele>
        <time>2021-03-20T16:52:14Z</time>
      </trkpt>
      <trkpt lat="56.5082" lon="-5.95943">
        <ele>42.94</ele>
        <time>2021-03-20T16:52:18Z</time>
      </trkpt>
      <trkpt lat="56.50806" lon="-5.95975">
        <ele>42.84</ele>
        <time>2021-03-20T16:52:22Z</time>
      </trkpt>
      <trkpt lat="56.50797" lon="-5.9602">
        <ele>41.06</ele>
        <time>2021-03-20T16:52:26Z</time>
      </trkpt>
      <trkpt lat="56.5078" lon="-5.96146">
        <ele>35.67</ele>
        <time>2021-03-20T16:52:30Z</time>
      </trkpt>
      <trkpt lat="56.50769" lon="-5.96192">
        <ele>33.76</ele>
        <time>2021-03-20T16:52:34Z</time>
      </trkpt>
      <trkpt lat="56.50591" lon="-5.96676">
        <ele>22</ele>
        <time>2021-03-20T16:52:37Z</time>
      </trkpt>
      <trkpt lat="56.50572" lon="-5.96722">
        <ele>22.42</ele>
        <time>2021-03-20T16:52:41Z</time>
      </trkpt>
      <trkpt lat="56.50551" lon="-5.9676">
        <ele>23</ele>
        <time>2021-03-20T16:52:45Z</time>
      </trkpt>
      <trkpt lat="56.49825" lon="-5.977">
        <ele>20.71</ele>
        <time>2021-03-20T16:52:49Z</time>
      </trkpt>
      <trkpt lat="56.49792" lon="-5.97746">
        <ele>19.1</ele>
        <time>2021-03-20T16:52:53Z</time>
      </trkpt>
      <trkpt lat="56.49764" lon="-5.97802">
        <ele>16.59</ele>
        <time>2021-03-20T16:52:57Z</time>
      </trkpt>
      <trkpt lat="56.49729" lon="-5.97903">
        <ele>16.12</ele>
        <time>2021-03-20T16:53:01Z</time>
      </trkpt>
      <trkpt lat="56.49645" lon="-5.98199">
        <ele>12.44</ele>
        <time>2021-03-20T16:53:04Z</time>
      </trkpt>
      <trkpt lat="56.49406" lon="-5.98736">
        <ele>10.49</ele>
        <time>2021-03-20T16:53:08Z</time>
      </trkpt>
      <trkpt lat="56.49382" lon="-5.98758">
        <ele>10</ele>
        <time>2021-03-20T16:53:12Z</time>
      </trkpt>
      <trkpt lat="56.49306" lon="-5.98815">
        <ele>10.95</ele>
        <time>2021-03-20T16:53:16Z</time>
      </trkpt>
      <trkpt lat="56.49198" lon="-5.98884">
        <ele>12.08</ele>
        <time>2021-03-20T16:53:20Z</time>
      </trkpt>
      <trkpt lat="56.49074" lon="-5.98932">
        <ele>12</ele>
        <time>2021-03-20T16:53:24Z</time>
      </trkpt>
      <trkpt lat="56.49067" lon="-5.98933">
        <ele>12</ele>
        <time>2021-03-20T16:53:28Z</time>
      </trkpt>
      <trkpt lat="56.49038" lon="-5.98945">
        <ele>12.63</ele>
        <time>2021-03-20T16:53:31Z</time>
      </trkpt>
      <trkpt lat="56.48859" lon="-5.99005">
        <ele>13.75</ele>
        <time>2021-03-20T16:53:35Z</time>
      </trkpt>
      <trkpt lat="56.48795" lon="-5.99025">
        <ele>12.96</ele>
        <time>2021-03-20T16:53:39Z</time>
      </trkpt>
      <trkpt lat="56.48621" lon="-5.99051">
        <ele>12.3</ele>
        <time>2021-03-20T16:53:43Z</time>
      </trkpt>
      <trkpt lat="56.48563" lon="-5.99051">
        <ele>12.74</ele>
        <time>2021-03-20T16:53:47Z</time>
      </trkpt>
      <trkpt lat="56.48504" lon="-5.99043">
        <ele>15.69</ele>
        <time>2021-03-20T16:53:51Z</time>
      </trkpt>
      <trkpt lat="56.48383" lon="-5.99">
        <ele>12.33</ele>
        <time>2021-03-20T16:53:55Z</time>
      </trkpt>
      <trkpt lat="56.48147" lon="-5.98908">
        <ele>12.64</ele>
        <time>2021-03-20T16:53:59Z</time>
      </trkpt>
      <trkpt lat="56.48016" lon="-5.98889">
        <ele>14.59</ele>
        <time>2021-03-20T16:54:02Z</time>
      </trkpt>
      <trkpt lat="56.47976" lon="-5.98875">
        <ele>13.22</ele>
        <time>2021-03-20T16:54:06Z</time>
      </trkpt>
      <trkpt lat="56.47923" lon="-5.98814">
        <ele>13.92</ele>
        <time>2021-03-20T16:54:10Z</time>
      </trkpt>
      <trkpt lat="56.47909" lon="-5.98785">
        <ele>14.46</ele>
        <time>2021-03-20T16:54:14Z</time>
      </trkpt>
      <trkpt lat="56.47897" lon="-5.98751">
        <ele>15.28</ele>
        <time>2021-03-20T16:54:18Z</time>
      </trkpt>
      <trkpt lat="56.47882" lon="-5.98693">
        <ele>15.79</ele>
        <time>2021-03-20T16:54:22Z</time>
      </trkpt>
      <trkpt lat="56.47876" lon="-5.98678">
        <ele>15.86</ele>
        <time>2021-03-20T16:54:26Z</time>
      </trkpt>
      <trkpt lat="56.47861" lon="-5.98672">
        <ele>15.03</ele>
        <time>2021-03-20T16:54:29Z</time>
      </trkpt>
      <trkpt lat="56.47824" lon="-5.98663">
        <ele>16.62</ele>
        <time>2021-03-20T16:54:33Z</time>
      </trkpt>
      <trkpt lat="56.4781" lon="-5.98671">
        <ele>17.73</ele>
        <time>2021-03-20T16:54:37Z</time>
      </trkpt>
      <trkpt lat="56.47794" lon="-5.98694">
        <ele>18.01</ele>
        <time>2021-03-20T16:54:41Z</time>
      </trkpt>
      <trkpt lat="56.47757" lon="-5.98708">
        <ele>18</ele>
        <time>2021-03-20T16:54:45Z</time>
      </trkpt>
      <trkpt lat="56.47729" lon="-5.9871">
        <ele>18.76</ele>
        <time>2021-03-20T16:54:49Z</time>
      </trkpt>
      <trkpt lat="56.47725" lon="-5.98715">
        <ele>18.9</ele>
        <time>2021-03-20T16:54:53Z</time>
      </trkpt>
      <trkpt lat="56.47724" lon="-5.98743">
        <ele>19.58</ele>
        <time>2021-03-20T16:54:57Z</time>
      </trkpt>
      <trkpt lat="56.47777" lon="-5.98967">
        <ele>27.52</ele>
        <time>2021-03-20T16:55:00Z</time>
      </trkpt>
      <trkpt lat="56.47804" lon="-5.99047">
        <ele>29.65</ele>
        <time>2021-03-20T16:55:04Z</time>
      </trkpt>
      <trkpt lat="56.47816" lon="-5.99066">
        <ele>29.3</ele>
        <time>2021-03-20T16:55:08Z</time>
      </trkpt>
      <trkpt lat="56.47864" lon="-5.99187">
        <ele>30.87</ele>
        <time>2021-03-20T16:55:12Z</time>
      </trkpt>
      <trkpt lat="56.47874" lon="-5.99217">
        <ele>29.07</ele>
        <time>2021-03-20T16:55:16Z</time>
      </trkpt>
      <trkpt lat="56.47879" lon="-5.99252">
        <ele>25.99</ele>
        <time>2021-03-20T16:55:20Z</time>
      </trkpt>
      <trkpt lat="56.47888" lon="-5.99384">
        <ele>20.12</ele>
        <time>2021-03-20T16:55:24Z</time>
      </trkpt>
      <trkpt lat="56.47887" lon="-5.9949">
        <ele>19.09</ele>
        <time>2021-03-20T16:55:27Z</time>
      </trkpt>
      <trkpt lat="56.47866" lon="-5.9978">
        <ele>11.66</ele>
        <time>2021-03-20T16:55:31Z</time>
      </trkpt>
      <trkpt lat="56.4786" lon="-5.99815">
        <ele>12.1</ele>
        <time>2021-03-20T16:55:35Z</time>
      </trkpt>
      <trkpt lat="56.47855" lon="-5.99832">
        <ele>12.48</ele>
        <time>2021-03-20T16:55:39Z</time>
      </trkpt>
      <trkpt lat="56.47804" lon="-5.99961">
        <ele>10.93</ele>
        <time>2021-03-20T16:55:43Z</time>
      </trkpt>
      <trkpt lat="56.47789" lon="-6.0001">
        <ele>9.94</ele>
        <time>2021-03-20T16:55:47Z</time>
      </trkpt>
      <trkpt lat="56.47789" lon="-6.0001">
        <ele>9.94</ele>
        <time>2021-03-20T16:55:47Z</time>
      </trkpt>
      <trkpt lat="56.4778" lon="-6.00051">
        <ele>8.99</ele>
        <time>2021-03-20T16:55:49Z</time>
      </trkpt>
      <trkpt lat="56.47775" lon="-6.00102">
        <ele>8.41</ele>
        <time>2021-03-20T16:55:52Z</time>
      </trkpt>
      <trkpt lat="56.47772" lon="-6.00151">
        <ele>7.96</ele>
        <time>2021-03-20T16:55:54Z</time>
      </trkpt>
      <trkpt lat="56.47772" lon="-6.00259">
        <ele>6.05</ele>
        <time>2021-03-20T16:55:57Z</time>
      </trkpt>
      <trkpt lat="56.4777" lon="-6.00297">
        <ele>6.21</ele>
        <time>2021-03-20T16:56:00Z</time>
      </trkpt>
      <trkpt lat="56.47751" lon="-6.00435">
        <ele>4.24</ele>
        <time>2021-03-20T16:56:02Z</time>
      </trkpt>
      <trkpt lat="56.4773" lon="-6.00616">
        <ele>3.71</ele>
        <time>2021-03-20T16:56:05Z</time>
      </trkpt>
      <trkpt lat="56.47725" lon="-6.00695">
        <ele>4</ele>
        <time>2021-03-20T16:56:07Z</time>
      </trkpt>
      <trkpt lat="56.47719" lon="-6.00734">
        <ele>4.21</ele>
        <time>2021-03-20T16:56:10Z</time>
      </trkpt>
      <trkpt lat="56.47708" lon="-6.00781">
        <ele>4.91</ele>
        <time>2021-03-20T16:56:12Z</time>
      </trkpt>
      <trkpt lat="56.47695" lon="-6.00824">
        <ele>4.31</ele>
        <time>2021-03-20T16:56:15Z</time>
      </trkpt>
      <trkpt lat="56.47683" lon="-6.00849">
        <ele>3.87</ele>
        <time>2021-03-20T16:56:17Z</time>
      </trkpt>
      <trkpt lat="56.47665" lon="-6.00864">
        <ele>4.1</ele>
        <time>2021-03-20T16:56:20Z</time>
      </trkpt>
      <trkpt lat="56.47534" lon="-6.00922">
        <ele>4.8</ele>
        <time>2021-03-20T16:56:22Z</time>
      </trkpt>
      <trkpt lat="56.47462" lon="-6.00957">
        <ele>5.66</ele>
        <time>2021-03-20T16:56:25Z</time>
      </trkpt>
      <trkpt lat="56.47446" lon="-6.0097">
        <ele>5.2</ele>
        <time>2021-03-20T16:56:27Z</time>
      </trkpt>
      <trkpt lat="56.47399" lon="-6.01015">
        <ele>6.86</ele>
        <time>2021-03-20T16:56:30Z</time>
      </trkpt>
      <trkpt lat="56.47392" lon="-6.01025">
        <ele>6.9</ele>
        <time>2021-03-20T16:56:32Z</time>
      </trkpt>
      <trkpt lat="56.47386" lon="-6.01038">
        <ele>6.68</ele>
        <time>2021-03-20T16:56:35Z</time>
      </trkpt>
      <trkpt lat="56.47352" lon="-6.01134">
        <ele>5.25</ele>
        <time>2021-03-20T16:56:37Z</time>
      </trkpt>
      <trkpt lat="56.47343" lon="-6.01152">
        <ele>5.45</ele>
        <time>2021-03-20T16:56:40Z</time>
      </trkpt>
      <trkpt lat="56.47333" lon="-6.01168">
        <ele>5.93</ele>
        <time>2021-03-20T16:56:43Z</time>
      </trkpt>
      <trkpt lat="56.4732" lon="-6.01185">
        <ele>5.62</ele>
        <time>2021-03-20T16:56:45Z</time>
      </trkpt>
      <trkpt lat="56.47289" lon="-6.01216">
        <ele>5.64</ele>
        <time>2021-03-20T16:56:48Z</time>
      </trkpt>
      <trkpt lat="56.47227" lon="-6.01266">
        <ele>5.64</ele>
        <time>2021-03-20T16:56:50Z</time>
      </trkpt>
      <trkpt lat="56.47204" lon="-6.01281">
        <ele>6.14</ele>
        <time>2021-03-20T16:56:53Z</time>
      </trkpt>
      <trkpt lat="56.47188" lon="-6.01294">
        <ele>6.78</ele>
        <time>2021-03-20T16:56:55Z</time>
      </trkpt>
      <trkpt lat="56.47176" lon="-6.01313">
        <ele>7.43</ele>
        <time>2021-03-20T16:56:58Z</time>
      </trkpt>
      <trkpt lat="56.47167" lon="-6.01336">
        <ele>7.9</ele>
        <time>2021-03-20T16:57:00Z</time>
      </trkpt>
      <trkpt lat="56.47157" lon="-6.01375">
        <ele>7.03</ele>
        <time>2021-03-20T16:57:03Z</time>
      </trkpt>
      <trkpt lat="56.47153" lon="-6.01387">
        <ele>6.61</ele>
        <time>2021-03-20T16:57:05Z</time>
      </trkpt>
      <trkpt lat="56.47148" lon="-6.01395">
        <ele>7.49</ele>
        <time>2021-03-20T16:57:08Z</time>
      </trkpt>
      <trkpt lat="56.47124" lon="-6.01409">
        <ele>8.63</ele>
        <time>2021-03-20T16:57:10Z</time>
      </trkpt>
      <trkpt lat="56.4711" lon="-6.0142">
        <ele>5.81</ele>
        <time>2021-03-20T16:57:13Z</time>
      </trkpt>
      <trkpt lat="56.4708" lon="-6.01456">
        <ele>4.71</ele>
        <time>2021-03-20T16:57:15Z</time>
      </trkpt>
      <trkpt lat="56.47039" lon="-6.01514">
        <ele>4.64</ele>
        <time>2021-03-20T16:57:18Z</time>
      </trkpt>
      <trkpt lat="56.47015" lon="-6.01557">
        <ele>4.25</ele>
        <time>2021-03-20T16:57:21Z</time>
      </trkpt>
      <trkpt lat="56.47004" lon="-6.01575">
        <ele>4.29</ele>
        <time>2021-03-20T16:57:23Z</time>
      </trkpt>
      <trkpt lat="56.46974" lon="-6.01614">
        <ele>4.63</ele>
        <time>2021-03-20T16:57:26Z</time>
      </trkpt>
      <trkpt lat="56.46949" lon="-6.01634">
        <ele>6.97</ele>
        <time>2021-03-20T16:57:28Z</time>
      </trkpt>
      <trkpt lat="56.46903" lon="-6.01662">
        <ele>8.1</ele>
        <time>2021-03-20T16:57:31Z</time>
      </trkpt>
      <trkpt lat="56.46799" lon="-6.01717">
        <ele>7.02</ele>
        <time>2021-03-20T16:57:33Z</time>
      </trkpt>
      <trkpt lat="56.46787" lon="-6.01727">
        <ele>7.82</ele>
        <time>2021-03-20T16:57:36Z</time>
      </trkpt>
      <trkpt lat="56.46778" lon="-6.01742">
        <ele>7.84</ele>
        <time>2021-03-20T16:57:38Z</time>
      </trkpt>
      <trkpt lat="56.4676" lon="-6.01789">
        <ele>7.22</ele>
        <time>2021-03-20T16:57:41Z</time>
      </trkpt>
      <trkpt lat="56.46753" lon="-6.01817">
        <ele>5.94</ele>
        <time>2021-03-20T16:57:43Z</time>
      </trkpt>
      <trkpt lat="56.4674" lon="-6.01876">
        <ele>5.39</ele>
        <time>2021-03-20T16:57:46Z</time>
      </trkpt>
      <trkpt lat="56.46733" lon="-6.01902">
        <ele>5.11</ele>
        <time>2021-03-20T16:57:48Z</time>
      </trkpt>
      <trkpt lat="56.46682" lon="-6.02032">
        <ele>6.14</ele>
        <time>2021-03-20T16:57:51Z</time>
      </trkpt>
      <trkpt lat="56.46675" lon="-6.02053">
        <ele>6.82</ele>
        <time>2021-03-20T16:57:53Z</time>
      </trkpt>
      <trkpt lat="56.4667" lon="-6.02077">
        <ele>6.76</ele>
        <time>2021-03-20T16:57:56Z</time>
      </trkpt>
      <trkpt lat="56.46665" lon="-6.02278">
        <ele>4.29</ele>
        <time>2021-03-20T16:57:58Z</time>
      </trkpt>
      <trkpt lat="56.46649" lon="-6.02413">
        <ele>3.66</ele>
        <time>2021-03-20T16:58:01Z</time>
      </trkpt>
      <trkpt lat="56.46646" lon="-6.02449">
        <ele>3.73</ele>
        <time>2021-03-20T16:58:04Z</time>
      </trkpt>
      <trkpt lat="56.46633" lon="-6.02719">
        <ele>4.2</ele>
        <time>2021-03-20T16:58:06Z</time>
      </trkpt>
      <trkpt lat="56.46629" lon="-6.02752">
        <ele>3.71</ele>
        <time>2021-03-20T16:58:09Z</time>
      </trkpt>
      <trkpt lat="56.46623" lon="-6.02781">
        <ele>4.05</ele>
        <time>2021-03-20T16:58:11Z</time>
      </trkpt>
      <trkpt lat="56.46562" lon="-6.02976">
        <ele>3</ele>
        <time>2021-03-20T16:58:14Z</time>
      </trkpt>
      <trkpt lat="56.46549" lon="-6.03041">
        <ele>3.67</ele>
        <time>2021-03-20T16:58:16Z</time>
      </trkpt>
      <trkpt lat="56.46545" lon="-6.03057">
        <ele>4.22</ele>
        <time>2021-03-20T16:58:19Z</time>
      </trkpt>
      <trkpt lat="56.46502" lon="-6.03133">
        <ele>6.13</ele>
        <time>2021-03-20T16:58:21Z</time>
      </trkpt>
      <trkpt lat="56.46489" lon="-6.03149">
        <ele>5.86</ele>
        <time>2021-03-20T16:58:24Z</time>
      </trkpt>
      <trkpt lat="56.46476" lon="-6.03161">
        <ele>5.3</ele>
        <time>2021-03-20T16:58:26Z</time>
      </trkpt>
      <trkpt lat="56.46401" lon="-6.03213">
        <ele>4.57</ele>
        <time>2021-03-20T16:58:29Z</time>
      </trkpt>
      <trkpt lat="56.46387" lon="-6.03226">
        <ele>4.87</ele>
        <time>2021-03-20T16:58:31Z</time>
      </trkpt>
      <trkpt lat="56.46359" lon="-6.03284">
        <ele>5</ele>
        <time>2021-03-20T16:58:34Z</time>
      </trkpt>
      <trkpt lat="56.46331" lon="-6.03349">
        <ele>4.45</ele>
        <time>2021-03-20T16:58:36Z</time>
      </trkpt>
      <trkpt lat="56.4632" lon="-6.03378">
        <ele>4</ele>
        <time>2021-03-20T16:58:39Z</time>
      </trkpt>
      <trkpt lat="56.46304" lon="-6.03434">
        <ele>4.07</ele>
        <time>2021-03-20T16:58:41Z</time>
      </trkpt>
      <trkpt lat="56.46298" lon="-6.03469">
        <ele>4.5</ele>
        <time>2021-03-20T16:58:44Z</time>
      </trkpt>
      <trkpt lat="56.46288" lon="-6.03562">
        <ele>6.33</ele>
        <time>2021-03-20T16:58:47Z</time>
      </trkpt>
      <trkpt lat="56.46284" lon="-6.03591">
        <ele>6.77</ele>
        <time>2021-03-20T16:58:49Z</time>
      </trkpt>
      <trkpt lat="56.46236" lon="-6.03809">
        <ele>8.51</ele>
        <time>2021-03-20T16:58:52Z</time>
      </trkpt>
      <trkpt lat="56.46198" lon="-6.03952">
        <ele>8.82</ele>
        <time>2021-03-20T16:58:54Z</time>
      </trkpt>
      <trkpt lat="56.46168" lon="-6.04047">
        <ele>9.93</ele>
        <time>2021-03-20T16:58:57Z</time>
      </trkpt>
      <trkpt lat="56.46135" lon="-6.04136">
        <ele>10.14</ele>
        <time>2021-03-20T16:58:59Z</time>
      </trkpt>
      <trkpt lat="56.46057" lon="-6.043">
        <ele>4.16</ele>
        <time>2021-03-20T16:59:02Z</time>
      </trkpt>
      <trkpt lat="56.45985" lon="-6.04423">
        <ele>5.87</ele>
        <time>2021-03-20T16:59:04Z</time>
      </trkpt>
      <trkpt lat="56.45934" lon="-6.04524">
        <ele>6.68</ele>
        <time>2021-03-20T16:59:07Z</time>
      </trkpt>
      <trkpt lat="56.45917" lon="-6.04548">
        <ele>6.25</ele>
        <time>2021-03-20T16:59:09Z</time>
      </trkpt>
      <trkpt lat="56.45886" lon="-6.04588">
        <ele>5.95</ele>
        <time>2021-03-20T16:59:12Z</time>
      </trkpt>
      <trkpt lat="56.4584" lon="-6.04638">
        <ele>5.57</ele>
        <time>2021-03-20T16:59:14Z</time>
      </trkpt>
      <trkpt lat="56.45823" lon="-6.04661">
        <ele>5.65</ele>
        <time>2021-03-20T16:59:17Z</time>
      </trkpt>
      <trkpt lat="56.45795" lon="-6.04707">
        <ele>3.91</ele>
        <time>2021-03-20T16:59:19Z</time>
      </trkpt>
      <trkpt lat="56.45764" lon="-6.04745">
        <ele>3.68</ele>
        <time>2021-03-20T16:59:22Z</time>
      </trkpt>
      <trkpt lat="56.45699" lon="-6.04816">
        <ele>4.38</ele>
        <time>2021-03-20T16:59:25Z</time>
      </trkpt>
      <trkpt lat="56.45666" lon="-6.04847">
        <ele>5.54</ele>
        <time>2021-03-20T16:59:27Z</time>
      </trkpt>
      <trkpt lat="56.45602" lon="-6.04901">
        <ele>3.76</ele>
        <time>2021-03-20T16:59:30Z</time>
      </trkpt>
      <trkpt lat="56.45563" lon="-6.04926">
        <ele>4.14</ele>
        <time>2021-03-20T16:59:32Z</time>
      </trkpt>
      <trkpt lat="56.45467" lon="-6.04958">
        <ele>5.16</ele>
        <time>2021-03-20T16:59:35Z</time>
      </trkpt>
      <trkpt lat="56.45446" lon="-6.04972">
        <ele>4.98</ele>
        <time>2021-03-20T16:59:37Z</time>
      </trkpt>
      <trkpt lat="56.45439" lon="-6.04979">
        <ele>5.11</ele>
        <time>2021-03-20T16:59:40Z</time>
      </trkpt>
      <trkpt lat="56.45433" lon="-6.04991">
        <ele>5.16</ele>
        <time>2021-03-20T16:59:42Z</time>
      </trkpt>
      <trkpt lat="56.4542" lon="-6.05023">
        <ele>4.84</ele>
        <time>2021-03-20T16:59:45Z</time>
      </trkpt>
      <trkpt lat="56.45377" lon="-6.05151">
        <ele>9.57</ele>
        <time>2021-03-20T16:59:47Z</time>
      </trkpt>
      <trkpt lat="56.45364" lon="-6.05176">
        <ele>8.35</ele>
        <time>2021-03-20T16:59:50Z</time>
      </trkpt>
      <trkpt lat="56.45313" lon="-6.05211">
        <ele>5.27</ele>
        <time>2021-03-20T16:59:52Z</time>
      </trkpt>
      <trkpt lat="56.45273" lon="-6.05245">
        <ele>5.03</ele>
        <time>2021-03-20T16:59:55Z</time>
      </trkpt>
      <trkpt lat="56.45261" lon="-6.0526">
        <ele>4.72</ele>
        <time>2021-03-20T16:59:57Z</time>
      </trkpt>
      <trkpt lat="56.45201" lon="-6.05348">
        <ele>5.46</ele>
        <time>2021-03-20T17:00:00Z</time>
      </trkpt>
      <trkpt lat="56.45137" lon="-6.05431">
        <ele>7.98</ele>
        <time>2021-03-20T17:00:02Z</time>
      </trkpt>
      <trkpt lat="56.45131" lon="-6.05445">
        <ele>8.65</ele>
        <time>2021-03-20T17:00:05Z</time>
      </trkpt>
      <trkpt lat="56.45125" lon="-6.05461">
        <ele>8.88</ele>
        <time>2021-03-20T17:00:08Z</time>
      </trkpt>
      <trkpt lat="56.45122" lon="-6.05488">
        <ele>7.72</ele>
        <time>2021-03-20T17:00:10Z</time>
      </trkpt>
      <trkpt lat="56.45117" lon="-6.0556">
        <ele>5.24</ele>
        <time>2021-03-20T17:00:13Z</time>
      </trkpt>
      <trkpt lat="56.45108" lon="-6.05628">
        <ele>4.28</ele>
        <time>2021-03-20T17:00:15Z</time>
      </trkpt>
      <trkpt lat="56.45104" lon="-6.05742">
        <ele>8.04</ele>
        <time>2021-03-20T17:00:18Z</time>
      </trkpt>
      <trkpt lat="56.45084" lon="-6.05854">
        <ele>5.5</ele>
        <time>2021-03-20T17:00:20Z</time>
      </trkpt>
      <trkpt lat="56.45045" lon="-6.06113">
        <ele>2.64</ele>
        <time>2021-03-20T17:00:23Z</time>
      </trkpt>
      <trkpt lat="56.45034" lon="-6.06168">
        <ele>3.63</ele>
        <time>2021-03-20T17:00:25Z</time>
      </trkpt>
      <trkpt lat="56.45026" lon="-6.06191">
        <ele>2.41</ele>
        <time>2021-03-20T17:00:28Z</time>
      </trkpt>
      <trkpt lat="56.45017" lon="-6.06213">
        <ele>3.64</ele>
        <time>2021-03-20T17:00:30Z</time>
      </trkpt>
      <trkpt lat="56.44991" lon="-6.06261">
        <ele>4.56</ele>
        <time>2021-03-20T17:00:33Z</time>
      </trkpt>
      <trkpt lat="56.44969" lon="-6.06313">
        <ele>5.11</ele>
        <time>2021-03-20T17:00:35Z</time>
      </trkpt>
      <trkpt lat="56.44947" lon="-6.06369">
        <ele>4.51</ele>
        <time>2021-03-20T17:00:38Z</time>
      </trkpt>
      <trkpt lat="56.44942" lon="-6.0639">
        <ele>4.58</ele>
        <time>2021-03-20T17:00:40Z</time>
      </trkpt>
      <trkpt lat="56.44938" lon="-6.06415">
        <ele>4.25</ele>
        <time>2021-03-20T17:00:43Z</time>
      </trkpt>
      <trkpt lat="56.44932" lon="-6.06496">
        <ele>3.37</ele>
        <time>2021-03-20T17:00:46Z</time>
      </trkpt>
      <trkpt lat="56.44917" lon="-6.06602">
        <ele>4.02</ele>
        <time>2021-03-20T17:00:48Z</time>
      </trkpt>
      <trkpt lat="56.44913" lon="-6.06643">
        <ele>7.61</ele>
        <time>2021-03-20T17:00:51Z</time>
      </trkpt>
      <trkpt lat="56.44908" lon="-6.06726">
        <ele>5.66</ele>
        <time>2021-03-20T17:00:53Z</time>
      </trkpt>
      <trkpt lat="56.44904" lon="-6.06766">
        <ele>4.76</ele>
        <time>2021-03-20T17:00:56Z</time>
      </trkpt>
      <trkpt lat="56.44885" lon="-6.06831">
        <ele>4.26</ele>
        <time>2021-03-20T17:00:58Z</time>
      </trkpt>
      <trkpt lat="56.4478" lon="-6.07138">
        <ele>3.84</ele>
        <time>2021-03-20T17:01:01Z</time>
      </trkpt>
      <trkpt lat="56.44778" lon="-6.07155">
        <ele>4.02</ele>
        <time>2021-03-20T17:01:03Z</time>
      </trkpt>
      <trkpt lat="56.44777" lon="-6.0717">
        <ele>4.17</ele>
        <time>2021-03-20T17:01:06Z</time>
      </trkpt>
      <trkpt lat="56.44779" lon="-6.0719">
        <ele>4.73</ele>
        <time>2021-03-20T17:01:08Z</time>
      </trkpt>
      <trkpt lat="56.44811" lon="-6.07313">
        <ele>3.82</ele>
        <time>2021-03-20T17:01:11Z</time>
      </trkpt>
      <trkpt lat="56.44813" lon="-6.07344">
        <ele>3.37</ele>
        <time>2021-03-20T17:01:13Z</time>
      </trkpt>
      <trkpt lat="56.4481" lon="-6.07375">
        <ele>2.83</ele>
        <time>2021-03-20T17:01:16Z</time>
      </trkpt>
      <trkpt lat="56.44772" lon="-6.07666">
        <ele>4.05</ele>
        <time>2021-03-20T17:01:18Z</time>
      </trkpt>
      <trkpt lat="56.44757" lon="-6.07815">
        <ele>1.74</ele>
        <time>2021-03-20T17:01:21Z</time>
      </trkpt>
      <trkpt lat="56.44753" lon="-6.07886">
        <ele>2.81</ele>
        <time>2021-03-20T17:01:23Z</time>
      </trkpt>
      <trkpt lat="56.44763" lon="-6.07949">
        <ele>2.8</ele>
        <time>2021-03-20T17:01:26Z</time>
      </trkpt>
      <trkpt lat="56.44803" lon="-6.08147">
        <ele>25.4</ele>
        <time>2021-03-20T17:01:29Z</time>
      </trkpt>
      <trkpt lat="56.44804" lon="-6.08166">
        <ele>27</ele>
        <time>2021-03-20T17:01:31Z</time>
      </trkpt>
      <trkpt lat="56.44805" lon="-6.08186">
        <ele>28.26</ele>
        <time>2021-03-20T17:01:34Z</time>
      </trkpt>
      <trkpt lat="56.44792" lon="-6.08321">
        <ele>13.68</ele>
        <time>2021-03-20T17:01:36Z</time>
      </trkpt>
      <trkpt lat="56.44785" lon="-6.08443">
        <ele>8.49</ele>
        <time>2021-03-20T17:01:39Z</time>
      </trkpt>
      <trkpt lat="56.44786" lon="-6.08465">
        <ele>9.86</ele>
        <time>2021-03-20T17:01:41Z</time>
      </trkpt>
      <trkpt lat="56.44789" lon="-6.08483">
        <ele>9.34</ele>
        <time>2021-03-20T17:01:44Z</time>
      </trkpt>
      <trkpt lat="56.44817" lon="-6.08574">
        <ele>8.06</ele>
        <time>2021-03-20T17:01:46Z</time>
      </trkpt>
      <trkpt lat="56.44826" lon="-6.08609">
        <ele>11.74</ele>
        <time>2021-03-20T17:01:49Z</time>
      </trkpt>
      <trkpt lat="56.44833" lon="-6.08647">
        <ele>14.19</ele>
        <time>2021-03-20T17:01:51Z</time>
      </trkpt>
      <trkpt lat="56.44856" lon="-6.08792">
        <ele>12.01</ele>
        <time>2021-03-20T17:01:54Z</time>
      </trkpt>
      <trkpt lat="56.44858" lon="-6.08817">
        <ele>13.24</ele>
        <time>2021-03-20T17:01:56Z</time>
      </trkpt>
      <trkpt lat="56.44864" lon="-6.08943">
        <ele>8.74</ele>
        <time>2021-03-20T17:01:59Z</time>
      </trkpt>
      <trkpt lat="56.44868" lon="-6.09013">
        <ele>9.94</ele>
        <time>2021-03-20T17:02:01Z</time>
      </trkpt>
      <trkpt lat="56.44875" lon="-6.09046">
        <ele>8.82</ele>
        <time>2021-03-20T17:02:04Z</time>
      </trkpt>
      <trkpt lat="56.44884" lon="-6.09079">
        <ele>6.62</ele>
        <time>2021-03-20T17:02:07Z</time>
      </trkpt>
      <trkpt lat="56.44907" lon="-6.09146">
        <ele>5.13</ele>
        <time>2021-03-20T17:02:09Z</time>
      </trkpt>
      <trkpt lat="56.4493" lon="-6.09231">
        <ele>13.04</ele>
        <time>2021-03-20T17:02:12Z</time>
      </trkpt>
      <trkpt lat="56.44934" lon="-6.09268">
        <ele>9.05</ele>
        <time>2021-03-20T17:02:14Z</time>
      </trkpt>
      <trkpt lat="56.44939" lon="-6.09338">
        <ele>5.06</ele>
        <time>2021-03-20T17:02:17Z</time>
      </trkpt>
      <trkpt lat="56.44951" lon="-6.09547">
        <ele>8.24</ele>
        <time>2021-03-20T17:02:19Z</time>
      </trkpt>
      <trkpt lat="56.44956" lon="-6.0958">
        <ele>8.49</ele>
        <time>2021-03-20T17:02:22Z</time>
      </trkpt>
      <trkpt lat="56.44963" lon="-6.09609">
        <ele>7.1</ele>
        <time>2021-03-20T17:02:24Z</time>
      </trkpt>
      <trkpt lat="56.44992" lon="-6.09694">
        <ele>4.95</ele>
        <time>2021-03-20T17:02:27Z</time>
      </trkpt>
      <trkpt lat="56.4506" lon="-6.09865">
        <ele>5.43</ele>
        <time>2021-03-20T17:02:29Z</time>
      </trkpt>
      <trkpt lat="56.45064" lon="-6.09881">
        <ele>5.23</ele>
        <time>2021-03-20T17:02:32Z</time>
      </trkpt>
      <trkpt lat="56.45063" lon="-6.09923">
        <ele>5.3</ele>
        <time>2021-03-20T17:02:34Z</time>
      </trkpt>
      <trkpt lat="56.45059" lon="-6.09963">
        <ele>7.49</ele>
        <time>2021-03-20T17:02:37Z</time>
      </trkpt>
      <trkpt lat="56.4505" lon="-6.10019">
        <ele>14.91</ele>
        <time>2021-03-20T17:02:39Z</time>
      </trkpt>
      <trkpt lat="56.45052" lon="-6.10064">
        <ele>15.62</ele>
        <time>2021-03-20T17:02:42Z</time>
      </trkpt>
      <trkpt lat="56.45052" lon="-6.1011">
        <ele>18.59</ele>
        <time>2021-03-20T17:02:44Z</time>
      </trkpt>
      <trkpt lat="56.45043" lon="-6.10155">
        <ele>24.13</ele>
        <time>2021-03-20T17:02:47Z</time>
      </trkpt>
      <trkpt lat="56.45043" lon="-6.10181">
        <ele>21.43</ele>
        <time>2021-03-20T17:02:50Z</time>
      </trkpt>
      <trkpt lat="56.45046" lon="-6.10216">
        <ele>12.84</ele>
        <time>2021-03-20T17:02:52Z</time>
      </trkpt>
      <trkpt lat="56.45051" lon="-6.10323">
        <ele>7.35</ele>
        <time>2021-03-20T17:02:55Z</time>
      </trkpt>
      <trkpt lat="56.4505" lon="-6.10365">
        <ele>7.43</ele>
        <time>2021-03-20T17:02:57Z</time>
      </trkpt>
      <trkpt lat="56.45059" lon="-6.10437">
        <ele>2.11</ele>
        <time>2021-03-20T17:03:00Z</time>
      </trkpt>
      <trkpt lat="56.45066" lon="-6.10565">
        <ele>17.24</ele>
        <time>2021-03-20T17:03:02Z</time>
      </trkpt>
      <trkpt lat="56.45067" lon="-6.10629">
        <ele>15.21</ele>
        <time>2021-03-20T17:03:05Z</time>
      </trkpt>
      <trkpt lat="56.45065" lon="-6.10671">
        <ele>12.32</ele>
        <time>2021-03-20T17:03:07Z</time>
      </trkpt>
      <trkpt lat="56.45058" lon="-6.10729">
        <ele>11.48</ele>
        <time>2021-03-20T17:03:10Z</time>
      </trkpt>
      <trkpt lat="56.45058" lon="-6.10832">
        <ele>9.71</ele>
        <time>2021-03-20T17:03:12Z</time>
      </trkpt>
      <trkpt lat="56.4506" lon="-6.10885">
        <ele>10.51</ele>
        <time>2021-03-20T17:03:15Z</time>
      </trkpt>
      <trkpt lat="56.45071" lon="-6.11038">
        <ele>12.67</ele>
        <time>2021-03-20T17:03:17Z</time>
      </trkpt>
      <trkpt lat="56.45089" lon="-6.11129">
        <ele>13.06</ele>
        <time>2021-03-20T17:03:20Z</time>
      </trkpt>
      <trkpt lat="56.45091" lon="-6.11149">
        <ele>14.21</ele>
        <time>2021-03-20T17:03:22Z</time>
      </trkpt>
      <trkpt lat="56.45097" lon="-6.11262">
        <ele>11.77</ele>
        <time>2021-03-20T17:03:25Z</time>
      </trkpt>
      <trkpt lat="56.45099" lon="-6.11569">
        <ele>7.95</ele>
        <time>2021-03-20T17:03:27Z</time>
      </trkpt>
      <trkpt lat="56.45109" lon="-6.11692">
        <ele>5.62</ele>
        <time>2021-03-20T17:03:30Z</time>
      </trkpt>
      <trkpt lat="56.45123" lon="-6.11788">
        <ele>15.78</ele>
        <time>2021-03-20T17:03:33Z</time>
      </trkpt>
      <trkpt lat="56.45123" lon="-6.11846">
        <ele>15.5</ele>
        <time>2021-03-20T17:03:35Z</time>
      </trkpt>
      <trkpt lat="56.45119" lon="-6.11881">
        <ele>12.77</ele>
        <time>2021-03-20T17:03:38Z</time>
      </trkpt>
      <trkpt lat="56.45112" lon="-6.11925">
        <ele>6.84</ele>
        <time>2021-03-20T17:03:40Z</time>
      </trkpt>
      <trkpt lat="56.45085" lon="-6.12008">
        <ele>8.13</ele>
        <time>2021-03-20T17:03:43Z</time>
      </trkpt>
      <trkpt lat="56.45074" lon="-6.12047">
        <ele>9.03</ele>
        <time>2021-03-20T17:03:45Z</time>
      </trkpt>
      <trkpt lat="56.45069" lon="-6.12067">
        <ele>9.13</ele>
        <time>2021-03-20T17:03:48Z</time>
      </trkpt>
      <trkpt lat="56.45063" lon="-6.1211">
        <ele>10.81</ele>
        <time>2021-03-20T17:03:50Z</time>
      </trkpt>
      <trkpt lat="56.45058" lon="-6.12178">
        <ele>10.48</ele>
        <time>2021-03-20T17:03:53Z</time>
      </trkpt>
      <trkpt lat="56.45024" lon="-6.12399">
        <ele>11.93</ele>
        <time>2021-03-20T17:03:55Z</time>
      </trkpt>
      <trkpt lat="56.45011" lon="-6.12451">
        <ele>11.58</ele>
        <time>2021-03-20T17:03:58Z</time>
      </trkpt>
      <trkpt lat="56.44995" lon="-6.125">
        <ele>9.95</ele>
        <time>2021-03-20T17:04:00Z</time>
      </trkpt>
      <trkpt lat="56.44973" lon="-6.12556">
        <ele>9.92</ele>
        <time>2021-03-20T17:04:03Z</time>
      </trkpt>
      <trkpt lat="56.44947" lon="-6.12605">
        <ele>10.61</ele>
        <time>2021-03-20T17:04:05Z</time>
      </trkpt>
      <trkpt lat="56.44918" lon="-6.12653">
        <ele>10.2</ele>
        <time>2021-03-20T17:04:08Z</time>
      </trkpt>
      <trkpt lat="56.44888" lon="-6.1269">
        <ele>10.89</ele>
        <time>2021-03-20T17:04:11Z</time>
      </trkpt>
      <trkpt lat="56.4484" lon="-6.1276">
        <ele>10.16</ele>
        <time>2021-03-20T17:04:13Z</time>
      </trkpt>
      <trkpt lat="56.4483" lon="-6.1277">
        <ele>9.47</ele>
        <time>2021-03-20T17:04:16Z</time>
      </trkpt>
      <trkpt lat="56.44801" lon="-6.12791">
        <ele>8.26</ele>
        <time>2021-03-20T17:04:18Z</time>
      </trkpt>
      <trkpt lat="56.44685" lon="-6.12847">
        <ele>7.26</ele>
        <time>2021-03-20T17:04:21Z</time>
      </trkpt>
      <trkpt lat="56.44655" lon="-6.12857">
        <ele>7.49</ele>
        <time>2021-03-20T17:04:23Z</time>
      </trkpt>
      <trkpt lat="56.44555" lon="-6.1287">
        <ele>6.07</ele>
        <time>2021-03-20T17:04:26Z</time>
      </trkpt>
      <trkpt lat="56.44474" lon="-6.12875">
        <ele>4.51</ele>
        <time>2021-03-20T17:04:28Z</time>
      </trkpt>
      <trkpt lat="56.44455" lon="-6.12879">
        <ele>3.69</ele>
        <time>2021-03-20T17:04:31Z</time>
      </trkpt>
      <trkpt lat="56.44434" lon="-6.12889">
        <ele>2.8</ele>
        <time>2021-03-20T17:04:33Z</time>
      </trkpt>
      <trkpt lat="56.44391" lon="-6.12916">
        <ele>22.13</ele>
        <time>2021-03-20T17:04:36Z</time>
      </trkpt>
      <trkpt lat="56.44195" lon="-6.13073">
        <ele>12.41</ele>
        <time>2021-03-20T17:04:38Z</time>
      </trkpt>
      <trkpt lat="56.44108" lon="-6.13133">
        <ele>7.04</ele>
        <time>2021-03-20T17:04:41Z</time>
      </trkpt>
      <trkpt lat="56.44031" lon="-6.13177">
        <ele>4.15</ele>
        <time>2021-03-20T17:04:43Z</time>
      </trkpt>
      <trkpt lat="56.43914" lon="-6.13235">
        <ele>6.36</ele>
        <time>2021-03-20T17:04:46Z</time>
      </trkpt>
      <trkpt lat="56.43601" lon="-6.13377">
        <ele>15.42</ele>
        <time>2021-03-20T17:04:48Z</time>
      </trkpt>
      <trkpt lat="56.43549" lon="-6.13397">
        <ele>16.84</ele>
        <time>2021-03-20T17:04:51Z</time>
      </trkpt>
      <trkpt lat="56.43473" lon="-6.1342">
        <ele>20.88</ele>
        <time>2021-03-20T17:04:54Z</time>
      </trkpt>
      <trkpt lat="56.43381" lon="-6.1344">
        <ele>29.36</ele>
        <time>2021-03-20T17:04:56Z</time>
      </trkpt>
      <trkpt lat="56.43349" lon="-6.13441">
        <ele>33.47</ele>
        <time>2021-03-20T17:04:59Z</time>
      </trkpt>
      <trkpt lat="56.43286" lon="-6.1343">
        <ele>39.2</ele>
        <time>2021-03-20T17:05:01Z</time>
      </trkpt>
      <trkpt lat="56.43196" lon="-6.13405">
        <ele>43.36</ele>
        <time>2021-03-20T17:05:04Z</time>
      </trkpt>
      <trkpt lat="56.43162" lon="-6.13387">
        <ele>42.05</ele>
        <time>2021-03-20T17:05:06Z</time>
      </trkpt>
      <trkpt lat="56.4307" lon="-6.13324">
        <ele>41.54</ele>
        <time>2021-03-20T17:05:09Z</time>
      </trkpt>
      <trkpt lat="56.43036" lon="-6.13306">
        <ele>41.94</ele>
        <time>2021-03-20T17:05:11Z</time>
      </trkpt>
      <trkpt lat="56.43" lon="-6.13298">
        <ele>43.84</ele>
        <time>2021-03-20T17:05:14Z</time>
      </trkpt>
      <trkpt lat="56.42963" lon="-6.133">
        <ele>46.06</ele>
        <time>2021-03-20T17:05:16Z</time>
      </trkpt>
      <trkpt lat="56.42932" lon="-6.13307">
        <ele>46.32</ele>
        <time>2021-03-20T17:05:19Z</time>
      </trkpt>
      <trkpt lat="56.42873" lon="-6.13327">
        <ele>47.05</ele>
        <time>2021-03-20T17:05:21Z</time>
      </trkpt>
      <trkpt lat="56.42843" lon="-6.1334">
        <ele>46.94</ele>
        <time>2021-03-20T17:05:24Z</time>
      </trkpt>
      <trkpt lat="56.42825" lon="-6.13355">
        <ele>47.19</ele>
        <time>2021-03-20T17:05:26Z</time>
      </trkpt>
      <trkpt lat="56.42812" lon="-6.1337">
        <ele>48</ele>
        <time>2021-03-20T17:05:29Z</time>
      </trkpt>
      <trkpt lat="56.42786" lon="-6.13419">
        <ele>47.38</ele>
        <time>2021-03-20T17:05:32Z</time>
      </trkpt>
      <trkpt lat="56.42759" lon="-6.13446">
        <ele>47.83</ele>
        <time>2021-03-20T17:05:34Z</time>
      </trkpt>
      <trkpt lat="56.42749" lon="-6.13467">
        <ele>46.94</ele>
        <time>2021-03-20T17:05:37Z</time>
      </trkpt>
      <trkpt lat="56.42712" lon="-6.13565">
        <ele>47.49</ele>
        <time>2021-03-20T17:05:39Z</time>
      </trkpt>
      <trkpt lat="56.42666" lon="-6.13638">
        <ele>50.32</ele>
        <time>2021-03-20T17:05:42Z</time>
      </trkpt>
      <trkpt lat="56.42645" lon="-6.13658">
        <ele>49.82</ele>
        <time>2021-03-20T17:05:44Z</time>
      </trkpt>
      <trkpt lat="56.42637" lon="-6.13662">
        <ele>50.04</ele>
        <time>2021-03-20T17:05:47Z</time>
      </trkpt>
      <trkpt lat="56.42628" lon="-6.13662">
        <ele>50.53</ele>
        <time>2021-03-20T17:05:49Z</time>
      </trkpt>
      <trkpt lat="56.42614" lon="-6.13653">
        <ele>52.4</ele>
        <time>2021-03-20T17:05:52Z</time>
      </trkpt>
      <trkpt lat="56.42599" lon="-6.1364">
        <ele>52.6</ele>
        <time>2021-03-20T17:05:54Z</time>
      </trkpt>
      <trkpt lat="56.42592" lon="-6.13626">
        <ele>52.99</ele>
        <time>2021-03-20T17:05:57Z</time>
      </trkpt>
      <trkpt lat="56.4259" lon="-6.13618">
        <ele>53.49</ele>
        <time>2021-03-20T17:05:59Z</time>
      </trkpt>
      <trkpt lat="56.4259" lon="-6.13529">
        <ele>60.96</ele>
        <time>2021-03-20T17:06:02Z</time>
      </trkpt>
      <trkpt lat="56.42587" lon="-6.13472">
        <ele>66.58</ele>
        <time>2021-03-20T17:06:04Z</time>
      </trkpt>
      <trkpt lat="56.42582" lon="-6.13448">
        <ele>68.36</ele>
        <time>2021-03-20T17:06:07Z</time>
      </trkpt>
      <trkpt lat="56.42573" lon="-6.13433">
        <ele>68.18</ele>
        <time>2021-03-20T17:06:09Z</time>
      </trkpt>
      <trkpt lat="56.42562" lon="-6.13431">
        <ele>66.86</ele>
        <time>2021-03-20T17:06:12Z</time>
      </trkpt>
      <trkpt lat="56.42549" lon="-6.13435">
        <ele>65.02</ele>
        <time>2021-03-20T17:06:15Z</time>
      </trkpt>
      <trkpt lat="56.42529" lon="-6.13446">
        <ele>61.86</ele>
        <time>2021-03-20T17:06:17Z</time>
      </trkpt>
      <trkpt lat="56.42451" lon="-6.13472">
        <ele>66.13</ele>
        <time>2021-03-20T17:06:20Z</time>
      </trkpt>
      <trkpt lat="56.42411" lon="-6.13492">
        <ele>65.76</ele>
        <time>2021-03-20T17:06:22Z</time>
      </trkpt>
      <trkpt lat="56.42404" lon="-6.13493">
        <ele>66.31</ele>
        <time>2021-03-20T17:06:25Z</time>
      </trkpt>
      <trkpt lat="56.4239" lon="-6.13489">
        <ele>68.77</ele>
        <time>2021-03-20T17:06:27Z</time>
      </trkpt>
      <trkpt lat="56.42335" lon="-6.1346">
        <ele>68.95</ele>
        <time>2021-03-20T17:06:30Z</time>
      </trkpt>
      <trkpt lat="56.42328" lon="-6.13453">
        <ele>68.6</ele>
        <time>2021-03-20T17:06:32Z</time>
      </trkpt>
      <trkpt lat="56.42323" lon="-6.13442">
        <ele>68.91</ele>
        <time>2021-03-20T17:06:35Z</time>
      </trkpt>
      <trkpt lat="56.42319" lon="-6.13426">
        <ele>69.25</ele>
        <time>2021-03-20T17:06:37Z</time>
      </trkpt>
      <trkpt lat="56.42315" lon="-6.13371">
        <ele>72.61</ele>
        <time>2021-03-20T17:06:40Z</time>
      </trkpt>
      <trkpt lat="56.42311" lon="-6.13284">
        <ele>75.15</ele>
        <time>2021-03-20T17:06:42Z</time>
      </trkpt>
      <trkpt lat="56.42314" lon="-6.1319">
        <ele>78.86</ele>
        <time>2021-03-20T17:06:45Z</time>
      </trkpt>
      <trkpt lat="56.42312" lon="-6.13174">
        <ele>79.13</ele>
        <time>2021-03-20T17:06:47Z</time>
      </trkpt>
      <trkpt lat="56.42303" lon="-6.13129">
        <ele>80.63</ele>
        <time>2021-03-20T17:06:50Z</time>
      </trkpt>
      <trkpt lat="56.42296" lon="-6.13103">
        <ele>82.34</ele>
        <time>2021-03-20T17:06:53Z</time>
      </trkpt>
      <trkpt lat="56.42287" lon="-6.13079">
        <ele>84.24</ele>
        <time>2021-03-20T17:06:55Z</time>
      </trkpt>
      <trkpt lat="56.42274" lon="-6.13054">
        <ele>85.76</ele>
        <time>2021-03-20T17:06:58Z</time>
      </trkpt>
      <trkpt lat="56.42259" lon="-6.1304">
        <ele>87.04</ele>
        <time>2021-03-20T17:07:00Z</time>
      </trkpt>
      <trkpt lat="56.42231" lon="-6.13026">
        <ele>85.95</ele>
        <time>2021-03-20T17:07:03Z</time>
      </trkpt>
      <trkpt lat="56.42203" lon="-6.13016">
        <ele>87.07</ele>
        <time>2021-03-20T17:07:05Z</time>
      </trkpt>
      <trkpt lat="56.42147" lon="-6.13">
        <ele>94.26</ele>
        <time>2021-03-20T17:07:08Z</time>
      </trkpt>
      <trkpt lat="56.42064" lon="-6.12965">
        <ele>107.72</ele>
        <time>2021-03-20T17:07:10Z</time>
      </trkpt>
      <trkpt lat="56.42024" lon="-6.12952">
        <ele>105.57</ele>
        <time>2021-03-20T17:07:13Z</time>
      </trkpt>
      <trkpt lat="56.42002" lon="-6.12938">
        <ele>102.29</ele>
        <time>2021-03-20T17:07:15Z</time>
      </trkpt>
      <trkpt lat="56.41955" lon="-6.12891">
        <ele>104.4</ele>
        <time>2021-03-20T17:07:18Z</time>
      </trkpt>
      <trkpt lat="56.4192" lon="-6.12852">
        <ele>111.74</ele>
        <time>2021-03-20T17:07:20Z</time>
      </trkpt>
      <trkpt lat="56.41851" lon="-6.12768">
        <ele>120.6</ele>
        <time>2021-03-20T17:07:23Z</time>
      </trkpt>
      <trkpt lat="56.41819" lon="-6.1272">
        <ele>123.71</ele>
        <time>2021-03-20T17:07:25Z</time>
      </trkpt>
      <trkpt lat="56.41755" lon="-6.12617">
        <ele>127.25</ele>
        <time>2021-03-20T17:07:28Z</time>
      </trkpt>
      <trkpt lat="56.41722" lon="-6.12569">
        <ele>131.07</ele>
        <time>2021-03-20T17:07:30Z</time>
      </trkpt>
      <trkpt lat="56.41637" lon="-6.12454">
        <ele>133.9</ele>
        <time>2021-03-20T17:07:33Z</time>
      </trkpt>
      <trkpt lat="56.41577" lon="-6.1236">
        <ele>138.24</ele>
        <time>2021-03-20T17:07:36Z</time>
      </trkpt>
      <trkpt lat="56.41534" lon="-6.12297">
        <ele>140.75</ele>
        <time>2021-03-20T17:07:38Z</time>
      </trkpt>
      <trkpt lat="56.41511" lon="-6.12259">
        <ele>141.21</ele>
        <time>2021-03-20T17:07:41Z</time>
      </trkpt>
      <trkpt lat="56.41469" lon="-6.12183">
        <ele>140.95</ele>
        <time>2021-03-20T17:07:43Z</time>
      </trkpt>
      <trkpt lat="56.41443" lon="-6.12131">
        <ele>142.36</ele>
        <time>2021-03-20T17:07:46Z</time>
      </trkpt>
      <trkpt lat="56.41424" lon="-6.12084">
        <ele>142.52</ele>
        <time>2021-03-20T17:07:48Z</time>
      </trkpt>
      <trkpt lat="56.41368" lon="-6.11927">
        <ele>143.13</ele>
        <time>2021-03-20T17:07:51Z</time>
      </trkpt>
      <trkpt lat="56.41347" lon="-6.11854">
        <ele>143.5</ele>
        <time>2021-03-20T17:07:53Z</time>
      </trkpt>
      <trkpt lat="56.41329" lon="-6.1178">
        <ele>143.25</ele>
        <time>2021-03-20T17:07:56Z</time>
      </trkpt>
      <trkpt lat="56.41304" lon="-6.11669">
        <ele>142.64</ele>
        <time>2021-03-20T17:07:58Z</time>
      </trkpt>
      <trkpt lat="56.41152" lon="-6.10967">
        <ele>146.11</ele>
        <time>2021-03-20T17:08:01Z</time>
      </trkpt>
      <trkpt lat="56.41101" lon="-6.10793">
        <ele>144.91</ele>
        <time>2021-03-20T17:08:03Z</time>
      </trkpt>
      <trkpt lat="56.41075" lon="-6.10721">
        <ele>143.41</ele>
        <time>2021-03-20T17:08:06Z</time>
      </trkpt>
      <trkpt lat="56.41047" lon="-6.10655">
        <ele>143.66</ele>
        <time>2021-03-20T17:08:08Z</time>
      </trkpt>
      <trkpt lat="56.41013" lon="-6.10588">
        <ele>142.21</ele>
        <time>2021-03-20T17:08:11Z</time>
      </trkpt>
      <trkpt lat="56.40993" lon="-6.10553">
        <ele>141.62</ele>
        <time>2021-03-20T17:08:14Z</time>
      </trkpt>
      <trkpt lat="56.40949" lon="-6.10501">
        <ele>141.44</ele>
        <time>2021-03-20T17:08:16Z</time>
      </trkpt>
      <trkpt lat="56.40726" lon="-6.10253">
        <ele>131.28</ele>
        <time>2021-03-20T17:08:19Z</time>
      </trkpt>
      <trkpt lat="56.40686" lon="-6.10206">
        <ele>130.66</ele>
        <time>2021-03-20T17:08:21Z</time>
      </trkpt>
      <trkpt lat="56.40652" lon="-6.10151">
        <ele>128.87</ele>
        <time>2021-03-20T17:08:24Z</time>
      </trkpt>
      <trkpt lat="56.40591" lon="-6.10023">
        <ele>128.4</ele>
        <time>2021-03-20T17:08:26Z</time>
      </trkpt>
      <trkpt lat="56.40425" lon="-6.09606">
        <ele>116.84</ele>
        <time>2021-03-20T17:08:29Z</time>
      </trkpt>
      <trkpt lat="56.40402" lon="-6.09551">
        <ele>112.87</ele>
        <time>2021-03-20T17:08:31Z</time>
      </trkpt>
      <trkpt lat="56.40368" lon="-6.09482">
        <ele>110.21</ele>
        <time>2021-03-20T17:08:34Z</time>
      </trkpt>
      <trkpt lat="56.40259" lon="-6.09337">
        <ele>111.42</ele>
        <time>2021-03-20T17:08:36Z</time>
      </trkpt>
      <trkpt lat="56.40037" lon="-6.09059">
        <ele>94.77</ele>
        <time>2021-03-20T17:08:39Z</time>
      </trkpt>
      <trkpt lat="56.39964" lon="-6.08944">
        <ele>91.42</ele>
        <time>2021-03-20T17:08:41Z</time>
      </trkpt>
      <trkpt lat="56.39728" lon="-6.08469">
        <ele>69.74</ele>
        <time>2021-03-20T17:08:44Z</time>
      </trkpt>
      <trkpt lat="56.39502" lon="-6.08019">
        <ele>59.53</ele>
        <time>2021-03-20T17:08:46Z</time>
      </trkpt>
      <trkpt lat="56.39384" lon="-6.07807">
        <ele>52.04</ele>
        <time>2021-03-20T17:08:49Z</time>
      </trkpt>
      <trkpt lat="56.39304" lon="-6.07689">
        <ele>43.22</ele>
        <time>2021-03-20T17:08:51Z</time>
      </trkpt>
      <trkpt lat="56.38957" lon="-6.07217">
        <ele>38.24</ele>
        <time>2021-03-20T17:08:54Z</time>
      </trkpt>
      <trkpt lat="56.38897" lon="-6.07146">
        <ele>36.38</ele>
        <time>2021-03-20T17:08:57Z</time>
      </trkpt>
      <trkpt lat="56.38717" lon="-6.06987">
        <ele>33.23</ele>
        <time>2021-03-20T17:08:59Z</time>
      </trkpt>
      <trkpt lat="56.38618" lon="-6.06847">
        <ele>29.2</ele>
        <time>2021-03-20T17:09:02Z</time>
      </trkpt>
      <trkpt lat="56.38582" lon="-6.06823">
        <ele>28.58</ele>
        <time>2021-03-20T17:09:04Z</time>
      </trkpt>
      <trkpt lat="56.38543" lon="-6.06826">
        <ele>23.83</ele>
        <time>2021-03-20T17:09:07Z</time>
      </trkpt>
      <trkpt lat="56.38513" lon="-6.06817">
        <ele>20.72</ele>
        <time>2021-03-20T17:09:09Z</time>
      </trkpt>
      <trkpt lat="56.38477" lon="-6.06788">
        <ele>19.56</ele>
        <time>2021-03-20T17:09:12Z</time>
      </trkpt>
      <trkpt lat="56.38448" lon="-6.0679">
        <ele>15.64</ele>
        <time>2021-03-20T17:09:14Z</time>
      </trkpt>
      <trkpt lat="56.38421" lon="-6.06779">
        <ele>14.22</ele>
        <time>2021-03-20T17:09:17Z</time>
      </trkpt>
      <trkpt lat="56.38399" lon="-6.0674">
        <ele>14.77</ele>
        <time>2021-03-20T17:09:19Z</time>
      </trkpt>
      <trkpt lat="56.3835" lon="-6.06619">
        <ele>12.26</ele>
        <time>2021-03-20T17:09:22Z</time>
      </trkpt>
      <trkpt lat="56.38317" lon="-6.06504">
        <ele>9.77</ele>
        <time>2021-03-20T17:09:24Z</time>
      </trkpt>
      <trkpt lat="56.38244" lon="-6.06232">
        <ele>11.75</ele>
        <time>2021-03-20T17:09:27Z</time>
      </trkpt>
      <trkpt lat="56.38236" lon="-6.06156">
        <ele>12.82</ele>
        <time>2021-03-20T17:09:29Z</time>
      </trkpt>
      <trkpt lat="56.38219" lon="-6.06093">
        <ele>9.62</ele>
        <time>2021-03-20T17:09:32Z</time>
      </trkpt>
      <trkpt lat="56.38209" lon="-6.06022">
        <ele>9.78</ele>
        <time>2021-03-20T17:09:34Z</time>
      </trkpt>
      <trkpt lat="56.38203" lon="-6.06006">
        <ele>9.74</ele>
        <time>2021-03-20T17:09:37Z</time>
      </trkpt>
      <trkpt lat="56.38189" lon="-6.05982">
        <ele>9.25</ele>
        <time>2021-03-20T17:09:40Z</time>
      </trkpt>
      <trkpt lat="56.38168" lon="-6.05931">
        <ele>9.57</ele>
        <time>2021-03-20T17:09:42Z</time>
      </trkpt>
      <trkpt lat="56.38163" lon="-6.05912">
        <ele>9.91</ele>
        <time>2021-03-20T17:09:45Z</time>
      </trkpt>
      <trkpt lat="56.38154" lon="-6.05763">
        <ele>12.55</ele>
        <time>2021-03-20T17:09:47Z</time>
      </trkpt>
      <trkpt lat="56.38133" lon="-6.05651">
        <ele>11.8</ele>
        <time>2021-03-20T17:09:50Z</time>
      </trkpt>
      <trkpt lat="56.38101" lon="-6.05525">
        <ele>9.55</ele>
        <time>2021-03-20T17:09:52Z</time>
      </trkpt>
      <trkpt lat="56.381" lon="-6.05496">
        <ele>9.25</ele>
        <time>2021-03-20T17:09:55Z</time>
      </trkpt>
      <trkpt lat="56.38102" lon="-6.05473">
        <ele>9.01</ele>
        <time>2021-03-20T17:09:57Z</time>
      </trkpt>
      <trkpt lat="56.38107" lon="-6.05448">
        <ele>7.98</ele>
        <time>2021-03-20T17:10:00Z</time>
      </trkpt>
      <trkpt lat="56.38186" lon="-6.05216">
        <ele>8.15</ele>
        <time>2021-03-20T17:10:02Z</time>
      </trkpt>
      <trkpt lat="56.38207" lon="-6.05168">
        <ele>6.13</ele>
        <time>2021-03-20T17:10:05Z</time>
      </trkpt>
      <trkpt lat="56.38281" lon="-6.05122">
        <ele>8.76</ele>
        <time>2021-03-20T17:10:07Z</time>
      </trkpt>
      <trkpt lat="56.38293" lon="-6.05105">
        <ele>7.68</ele>
        <time>2021-03-20T17:10:10Z</time>
      </trkpt>
      <trkpt lat="56.38328" lon="-6.04982">
        <ele>4.29</ele>
        <time>2021-03-20T17:10:12Z</time>
      </trkpt>
      <trkpt lat="56.38413" lon="-6.04816">
        <ele>5.07</ele>
        <time>2021-03-20T17:10:15Z</time>
      </trkpt>
      <trkpt lat="56.38476" lon="-6.0473">
        <ele>4.88</ele>
        <time>2021-03-20T17:10:18Z</time>
      </trkpt>
      <trkpt lat="56.38544" lon="-6.04621">
        <ele>6.47</ele>
        <time>2021-03-20T17:10:20Z</time>
      </trkpt>
      <trkpt lat="56.38604" lon="-6.04553">
        <ele>8.21</ele>
        <time>2021-03-20T17:10:23Z</time>
      </trkpt>
      <trkpt lat="56.38646" lon="-6.04494">
        <ele>9.17</ele>
        <time>2021-03-20T17:10:25Z</time>
      </trkpt>
      <trkpt lat="56.38774" lon="-6.04318">
        <ele>19.2</ele>
        <time>2021-03-20T17:10:28Z</time>
      </trkpt>
      <trkpt lat="56.38827" lon="-6.04212">
        <ele>15.75</ele>
        <time>2021-03-20T17:10:30Z</time>
      </trkpt>
      <trkpt lat="56.38983" lon="-6.03951">
        <ele>11.62</ele>
        <time>2021-03-20T17:10:33Z</time>
      </trkpt>
      <trkpt lat="56.39035" lon="-6.0383">
        <ele>9.43</ele>
        <time>2021-03-20T17:10:35Z</time>
      </trkpt>
      <trkpt lat="56.39069" lon="-6.03698">
        <ele>7.45</ele>
        <time>2021-03-20T17:10:38Z</time>
      </trkpt>
      <trkpt lat="56.39189" lon="-6.0351">
        <ele>8.6</ele>
        <time>2021-03-20T17:10:40Z</time>
      </trkpt>
      <trkpt lat="56.3924" lon="-6.03334">
        <ele>4.69</ele>
        <time>2021-03-20T17:10:43Z</time>
      </trkpt>
      <trkpt lat="56.3933" lon="-6.03036">
        <ele>7.84</ele>
        <time>2021-03-20T17:10:45Z</time>
      </trkpt>
      <trkpt lat="56.39356" lon="-6.02928">
        <ele>7.2</ele>
        <time>2021-03-20T17:10:48Z</time>
      </trkpt>
      <trkpt lat="56.39363" lon="-6.02812">
        <ele>6.3</ele>
        <time>2021-03-20T17:10:50Z</time>
      </trkpt>
      <trkpt lat="56.39389" lon="-6.02703">
        <ele>7.36</ele>
        <time>2021-03-20T17:10:53Z</time>
      </trkpt>
      <trkpt lat="56.39419" lon="-6.02521">
        <ele>7.05</ele>
        <time>2021-03-20T17:10:55Z</time>
      </trkpt>
      <trkpt lat="56.39433" lon="-6.02458">
        <ele>8.1</ele>
        <time>2021-03-20T17:10:58Z</time>
      </trkpt>
      <trkpt lat="56.3946" lon="-6.02362">
        <ele>10.31</ele>
        <time>2021-03-20T17:11:01Z</time>
      </trkpt>
      <trkpt lat="56.39479" lon="-6.02283">
        <ele>11.02</ele>
        <time>2021-03-20T17:11:03Z</time>
      </trkpt>
      <trkpt lat="56.39482" lon="-6.02204">
        <ele>9.42</ele>
        <time>2021-03-20T17:11:06Z</time>
      </trkpt>
      <trkpt lat="56.3948" lon="-6.02139">
        <ele>7.94</ele>
        <time>2021-03-20T17:11:08Z</time>
      </trkpt>
      <trkpt lat="56.39471" lon="-6.02074">
        <ele>5.27</ele>
        <time>2021-03-20T17:11:11Z</time>
      </trkpt>
      <trkpt lat="56.39435" lon="-6.01974">
        <ele>4.88</ele>
        <time>2021-03-20T17:11:13Z</time>
      </trkpt>
      <trkpt lat="56.39405" lon="-6.01912">
        <ele>6.47</ele>
        <time>2021-03-20T17:11:16Z</time>
      </trkpt>
      <trkpt lat="56.39341" lon="-6.01859">
        <ele>12.72</ele>
        <time>2021-03-20T17:11:18Z</time>
      </trkpt>
      <trkpt lat="56.39319" lon="-6.01831">
        <ele>6.13</ele>
        <time>2021-03-20T17:11:21Z</time>
      </trkpt>
      <trkpt lat="56.39274" lon="-6.01757">
        <ele>7.11</ele>
        <time>2021-03-20T17:11:23Z</time>
      </trkpt>
      <trkpt lat="56.39202" lon="-6.0158">
        <ele>5.89</ele>
        <time>2021-03-20T17:11:26Z</time>
      </trkpt>
      <trkpt lat="56.39186" lon="-6.01524">
        <ele>5.98</ele>
        <time>2021-03-20T17:11:28Z</time>
      </trkpt>
      <trkpt lat="56.39172" lon="-6.01384">
        <ele>7.2</ele>
        <time>2021-03-20T17:11:31Z</time>
      </trkpt>
      <trkpt lat="56.3917" lon="-6.01257">
        <ele>7.26</ele>
        <time>2021-03-20T17:11:33Z</time>
      </trkpt>
      <trkpt lat="56.39173" lon="-6.01176">
        <ele>7.57</ele>
        <time>2021-03-20T17:11:36Z</time>
      </trkpt>
      <trkpt lat="56.39181" lon="-6.01105">
        <ele>7.22</ele>
        <time>2021-03-20T17:11:39Z</time>
      </trkpt>
      <trkpt lat="56.39195" lon="-6.0104">
        <ele>5.07</ele>
        <time>2021-03-20T17:11:41Z</time>
      </trkpt>
      <trkpt lat="56.39286" lon="-6.00825">
        <ele>7.8</ele>
        <time>2021-03-20T17:11:44Z</time>
      </trkpt>
      <trkpt lat="56.39348" lon="-6.0064">
        <ele>4.62</ele>
        <time>2021-03-20T17:11:46Z</time>
      </trkpt>
      <trkpt lat="56.39372" lon="-6.00574">
        <ele>5.22</ele>
        <time>2021-03-20T17:11:49Z</time>
      </trkpt>
      <trkpt lat="56.39386" lon="-6.00503">
        <ele>3.94</ele>
        <time>2021-03-20T17:11:51Z</time>
      </trkpt>
      <trkpt lat="56.39395" lon="-6.00428">
        <ele>3.2</ele>
        <time>2021-03-20T17:11:54Z</time>
      </trkpt>
      <trkpt lat="56.39396" lon="-6.0036">
        <ele>3.54</ele>
        <time>2021-03-20T17:11:56Z</time>
      </trkpt>
      <trkpt lat="56.39383" lon="-6.00299">
        <ele>4.62</ele>
        <time>2021-03-20T17:11:59Z</time>
      </trkpt>
      <trkpt lat="56.39337" lon="-6.00212">
        <ele>2.79</ele>
        <time>2021-03-20T17:12:01Z</time>
      </trkpt>
      <trkpt lat="56.39304" lon="-6.00177">
        <ele>1.63</ele>
        <time>2021-03-20T17:12:04Z</time>
      </trkpt>
      <trkpt lat="56.39271" lon="-6.00161">
        <ele>1.75</ele>
        <time>2021-03-20T17:12:06Z</time>
      </trkpt>
      <trkpt lat="56.39089" lon="-5.9999">
        <ele>4.91</ele>
        <time>2021-03-20T17:12:09Z</time>
      </trkpt>
      <trkpt lat="56.39023" lon="-5.99924">
        <ele>6.43</ele>
        <time>2021-03-20T17:12:11Z</time>
      </trkpt>
      <trkpt lat="56.38993" lon="-5.9988">
        <ele>5.54</ele>
        <time>2021-03-20T17:12:14Z</time>
      </trkpt>
      <trkpt lat="56.38947" lon="-5.99774">
        <ele>3.48</ele>
        <time>2021-03-20T17:12:16Z</time>
      </trkpt>
      <trkpt lat="56.38924" lon="-5.99727">
        <ele>2.84</ele>
        <time>2021-03-20T17:12:19Z</time>
      </trkpt>
      <trkpt lat="56.38913" lon="-5.99685">
        <ele>3.16</ele>
        <time>2021-03-20T17:12:22Z</time>
      </trkpt>
      <trkpt lat="56.38921" lon="-5.99641">
        <ele>4.46</ele>
        <time>2021-03-20T17:12:24Z</time>
      </trkpt>
      <trkpt lat="56.3892" lon="-5.99587">
        <ele>4.34</ele>
        <time>2021-03-20T17:12:27Z</time>
      </trkpt>
      <trkpt lat="56.38911" lon="-5.99531">
        <ele>4.78</ele>
        <time>2021-03-20T17:12:29Z</time>
      </trkpt>
      <trkpt lat="56.38905" lon="-5.99425">
        <ele>4.13</ele>
        <time>2021-03-20T17:12:32Z</time>
      </trkpt>
      <trkpt lat="56.38911" lon="-5.99378">
        <ele>3.3</ele>
        <time>2021-03-20T17:12:34Z</time>
      </trkpt>
      <trkpt lat="56.38933" lon="-5.99342">
        <ele>3.49</ele>
        <time>2021-03-20T17:12:37Z</time>
      </trkpt>
      <trkpt lat="56.3895" lon="-5.99288">
        <ele>4.44</ele>
        <time>2021-03-20T17:12:39Z</time>
      </trkpt>
      <trkpt lat="56.38975" lon="-5.99174">
        <ele>5.24</ele>
        <time>2021-03-20T17:12:42Z</time>
      </trkpt>
      <trkpt lat="56.38995" lon="-5.9911">
        <ele>5.81</ele>
        <time>2021-03-20T17:12:44Z</time>
      </trkpt>
      <trkpt lat="56.39007" lon="-5.99091">
        <ele>6.26</ele>
        <time>2021-03-20T17:12:47Z</time>
      </trkpt>
      <trkpt lat="56.39054" lon="-5.99042">
        <ele>5.53</ele>
        <time>2021-03-20T17:12:49Z</time>
      </trkpt>
      <trkpt lat="56.39069" lon="-5.99023">
        <ele>5.32</ele>
        <time>2021-03-20T17:12:52Z</time>
      </trkpt>
      <trkpt lat="56.39083" lon="-5.99001">
        <ele>5.01</ele>
        <time>2021-03-20T17:12:54Z</time>
      </trkpt>
      <trkpt lat="56.39109" lon="-5.98948">
        <ele>5.96</ele>
        <time>2021-03-20T17:12:57Z</time>
      </trkpt>
      <trkpt lat="56.39127" lon="-5.98898">
        <ele>5.88</ele>
        <time>2021-03-20T17:13:00Z</time>
      </trkpt>
      <trkpt lat="56.39135" lon="-5.98854">
        <ele>5.62</ele>
        <time>2021-03-20T17:13:02Z</time>
      </trkpt>
      <trkpt lat="56.39138" lon="-5.98801">
        <ele>4.99</ele>
        <time>2021-03-20T17:13:05Z</time>
      </trkpt>
      <trkpt lat="56.39138" lon="-5.98747">
        <ele>4.86</ele>
        <time>2021-03-20T17:13:07Z</time>
      </trkpt>
      <trkpt lat="56.39135" lon="-5.98288">
        <ele>3.47</ele>
        <time>2021-03-20T17:13:10Z</time>
      </trkpt>
      <trkpt lat="56.39132" lon="-5.98208">
        <ele>4</ele>
        <time>2021-03-20T17:13:12Z</time>
      </trkpt>
      <trkpt lat="56.39129" lon="-5.9817">
        <ele>4</ele>
        <time>2021-03-20T17:13:15Z</time>
      </trkpt>
      <trkpt lat="56.39114" lon="-5.98083">
        <ele>4</ele>
        <time>2021-03-20T17:13:17Z</time>
      </trkpt>
      <trkpt lat="56.39109" lon="-5.98045">
        <ele>4.92</ele>
        <time>2021-03-20T17:13:20Z</time>
      </trkpt>
      <trkpt lat="56.39108" lon="-5.97973">
        <ele>5</ele>
        <time>2021-03-20T17:13:22Z</time>
      </trkpt>
      <trkpt lat="56.39114" lon="-5.9793">
        <ele>5</ele>
        <time>2021-03-20T17:13:25Z</time>
      </trkpt>
      <trkpt lat="56.39128" lon="-5.97855">
        <ele>5.22</ele>
        <time>2021-03-20T17:13:27Z</time>
      </trkpt>
      <trkpt lat="56.39131" lon="-5.97822">
        <ele>6.31</ele>
        <time>2021-03-20T17:13:30Z</time>
      </trkpt>
      <trkpt lat="56.39133" lon="-5.97784">
        <ele>7.39</ele>
        <time>2021-03-20T17:13:32Z</time>
      </trkpt>
      <trkpt lat="56.39132" lon="-5.97755">
        <ele>7.53</ele>
        <time>2021-03-20T17:13:35Z</time>
      </trkpt>
      <trkpt lat="56.39127" lon="-5.97697">
        <ele>6.57</ele>
        <time>2021-03-20T17:13:38Z</time>
      </trkpt>
      <trkpt lat="56.38732" lon="-5.9784">
        <ele>7.51</ele>
        <time>2021-03-20T17:13:41Z</time>
      </trkpt>
      <trkpt lat="56.38633" lon="-5.97847">
        <ele>7.8</ele>
        <time>2021-03-20T17:13:44Z</time>
      </trkpt>
      <trkpt lat="56.38612" lon="-5.97852">
        <ele>6.71</ele>
        <time>2021-03-20T17:13:47Z</time>
      </trkpt>
      <trkpt lat="56.38595" lon="-5.97858">
        <ele>5.61</ele>
        <time>2021-03-20T17:13:50Z</time>
      </trkpt>
      <trkpt lat="56.38575" lon="-5.97872">
        <ele>4.62</ele>
        <time>2021-03-20T17:13:53Z</time>
      </trkpt>
      <trkpt lat="56.38558" lon="-5.97887">
        <ele>4.06</ele>
        <time>2021-03-20T17:13:56Z</time>
      </trkpt>
      <trkpt lat="56.38526" lon="-5.97933">
        <ele>4</ele>
        <time>2021-03-20T17:14:00Z</time>
      </trkpt>
      <trkpt lat="56.38382" lon="-5.98181">
        <ele>2.88</ele>
        <time>2021-03-20T17:14:03Z</time>
      </trkpt>
      <trkpt lat="56.3836" lon="-5.9824">
        <ele>1.38</ele>
        <time>2021-03-20T17:14:06Z</time>
      </trkpt>
      <trkpt lat="56.38344" lon="-5.98301">
        <ele>1.94</ele>
        <time>2021-03-20T17:14:09Z</time>
      </trkpt>
      <trkpt lat="56.38338" lon="-5.9834">
        <ele>2.23</ele>
        <time>2021-03-20T17:14:12Z</time>
      </trkpt>
      <trkpt lat="56.38334" lon="-5.98398">
        <ele>3.34</ele>
        <time>2021-03-20T17:14:15Z</time>
      </trkpt>
      <trkpt lat="56.38334" lon="-5.98493">
        <ele>4</ele>
        <time>2021-03-20T17:14:18Z</time>
      </trkpt>
      <trkpt lat="56.38338" lon="-5.98714">
        <ele>3</ele>
        <time>2021-03-20T17:14:21Z</time>
      </trkpt>
      <trkpt lat="56.38338" lon="-5.98806">
        <ele>1.83</ele>
        <time>2021-03-20T17:14:25Z</time>
      </trkpt>
      <trkpt lat="56.38331" lon="-5.9889">
        <ele>2.08</ele>
        <time>2021-03-20T17:14:28Z</time>
      </trkpt>
      <trkpt lat="56.38305" lon="-5.98999">
        <ele>2</ele>
        <time>2021-03-20T17:14:31Z</time>
      </trkpt>
      <trkpt lat="56.38266" lon="-5.99174">
        <ele>2.67</ele>
        <time>2021-03-20T17:14:34Z</time>
      </trkpt>
      <trkpt lat="56.38263" lon="-5.99229">
        <ele>3.89</ele>
        <time>2021-03-20T17:14:37Z</time>
      </trkpt>
      <trkpt lat="56.38264" lon="-5.99285">
        <ele>3.62</ele>
        <time>2021-03-20T17:14:40Z</time>
      </trkpt>
      <trkpt lat="56.38271" lon="-5.99326">
        <ele>3.49</ele>
        <time>2021-03-20T17:14:43Z</time>
      </trkpt>
      <trkpt lat="56.38283" lon="-5.99417">
        <ele>5.53</ele>
        <time>2021-03-20T17:14:46Z</time>
      </trkpt>
      <trkpt lat="56.38284" lon="-5.99461">
        <ele>6.3</ele>
        <time>2021-03-20T17:14:50Z</time>
      </trkpt>
      <trkpt lat="56.3828" lon="-5.99642">
        <ele>10.9</ele>
        <time>2021-03-20T17:14:53Z</time>
      </trkpt>
      <trkpt lat="56.38266" lon="-5.9977">
        <ele>7.57</ele>
        <time>2021-03-20T17:14:56Z</time>
      </trkpt>
      <trkpt lat="56.38256" lon="-5.99826">
        <ele>6.22</ele>
        <time>2021-03-20T17:14:59Z</time>
      </trkpt>
      <trkpt lat="56.38233" lon="-5.99888">
        <ele>4.66</ele>
        <time>2021-03-20T17:15:02Z</time>
      </trkpt>
      <trkpt lat="56.38123" lon="-6.00106">
        <ele>4</ele>
        <time>2021-03-20T17:15:05Z</time>
      </trkpt>
      <trkpt lat="56.38097" lon="-6.00126">
        <ele>4.25</ele>
        <time>2021-03-20T17:15:08Z</time>
      </trkpt>
      <trkpt lat="56.38052" lon="-6.00149">
        <ele>4.2</ele>
        <time>2021-03-20T17:15:11Z</time>
      </trkpt>
      <trkpt lat="56.37994" lon="-6.00167">
        <ele>6.44</ele>
        <time>2021-03-20T17:15:14Z</time>
      </trkpt>
      <trkpt lat="56.37977" lon="-6.00178">
        <ele>6.92</ele>
        <time>2021-03-20T17:15:18Z</time>
      </trkpt>
      <trkpt lat="56.37955" lon="-6.00187">
        <ele>7.75</ele>
        <time>2021-03-20T17:15:21Z</time>
      </trkpt>
      <trkpt lat="56.37931" lon="-6.00204">
        <ele>7.95</ele>
        <time>2021-03-20T17:15:24Z</time>
      </trkpt>
      <trkpt lat="56.3792" lon="-6.00217">
        <ele>7.38</ele>
        <time>2021-03-20T17:15:27Z</time>
      </trkpt>
      <trkpt lat="56.37855" lon="-6.00264">
        <ele>6.87</ele>
        <time>2021-03-20T17:15:30Z</time>
      </trkpt>
      <trkpt lat="56.3779" lon="-6.00297">
        <ele>7.26</ele>
        <time>2021-03-20T17:15:33Z</time>
      </trkpt>
      <trkpt lat="56.37688" lon="-6.00385">
        <ele>5.12</ele>
        <time>2021-03-20T17:15:36Z</time>
      </trkpt>
      <trkpt lat="56.37603" lon="-6.00478">
        <ele>6.07</ele>
        <time>2021-03-20T17:15:39Z</time>
      </trkpt>
      <trkpt lat="56.37578" lon="-6.00489">
        <ele>6.51</ele>
        <time>2021-03-20T17:15:43Z</time>
      </trkpt>
      <trkpt lat="56.37551" lon="-6.00514">
        <ele>5.58</ele>
        <time>2021-03-20T17:15:46Z</time>
      </trkpt>
      <trkpt lat="56.3754" lon="-6.00529">
        <ele>5.61</ele>
        <time>2021-03-20T17:15:49Z</time>
      </trkpt>
      <trkpt lat="56.37528" lon="-6.00549">
        <ele>4.64</ele>
        <time>2021-03-20T17:15:52Z</time>
      </trkpt>
      <trkpt lat="56.37509" lon="-6.00599">
        <ele>5.28</ele>
        <time>2021-03-20T17:15:55Z</time>
      </trkpt>
      <trkpt lat="56.37491" lon="-6.00653">
        <ele>5.81</ele>
        <time>2021-03-20T17:15:58Z</time>
      </trkpt>
      <trkpt lat="56.37451" lon="-6.00743">
        <ele>3.43</ele>
        <time>2021-03-20T17:16:01Z</time>
      </trkpt>
      <trkpt lat="56.37433" lon="-6.00794">
        <ele>4.74</ele>
        <time>2021-03-20T17:16:04Z</time>
      </trkpt>
      <trkpt lat="56.3741" lon="-6.00831">
        <ele>2.56</ele>
        <time>2021-03-20T17:16:08Z</time>
      </trkpt>
      <trkpt lat="56.37386" lon="-6.00858">
        <ele>2.76</ele>
        <time>2021-03-20T17:16:11Z</time>
      </trkpt>
      <trkpt lat="56.37375" lon="-6.00882">
        <ele>3.82</ele>
        <time>2021-03-20T17:16:14Z</time>
      </trkpt>
      <trkpt lat="56.37365" lon="-6.00927">
        <ele>3.26</ele>
        <time>2021-03-20T17:16:17Z</time>
      </trkpt>
      <trkpt lat="56.37332" lon="-6.00965">
        <ele>5.31</ele>
        <time>2021-03-20T17:16:20Z</time>
      </trkpt>
      <trkpt lat="56.37237" lon="-6.01058">
        <ele>4.28</ele>
        <time>2021-03-20T17:16:23Z</time>
      </trkpt>
      <trkpt lat="56.37189" lon="-6.01128">
        <ele>3.71</ele>
        <time>2021-03-20T17:16:26Z</time>
      </trkpt>
      <trkpt lat="56.37148" lon="-6.0124">
        <ele>4.89</ele>
        <time>2021-03-20T17:16:29Z</time>
      </trkpt>
      <trkpt lat="56.37114" lon="-6.01285">
        <ele>5.98</ele>
        <time>2021-03-20T17:16:33Z</time>
      </trkpt>
      <trkpt lat="56.36829" lon="-6.01512">
        <ele>4.96</ele>
        <time>2021-03-20T17:16:36Z</time>
      </trkpt>
      <trkpt lat="56.3678" lon="-6.0156">
        <ele>4.48</ele>
        <time>2021-03-20T17:16:39Z</time>
      </trkpt>
      <trkpt lat="56.36748" lon="-6.01594">
        <ele>4.72</ele>
        <time>2021-03-20T17:16:42Z</time>
      </trkpt>
      <trkpt lat="56.36683" lon="-6.01669">
        <ele>6.83</ele>
        <time>2021-03-20T17:16:45Z</time>
      </trkpt>
      <trkpt lat="56.36599" lon="-6.0178">
        <ele>1.95</ele>
        <time>2021-03-20T17:16:48Z</time>
      </trkpt>
      <trkpt lat="56.36583" lon="-6.01797">
        <ele>2.3</ele>
        <time>2021-03-20T17:16:51Z</time>
      </trkpt>
      <trkpt lat="56.36536" lon="-6.0184">
        <ele>1.91</ele>
        <time>2021-03-20T17:16:54Z</time>
      </trkpt>
      <trkpt lat="56.36523" lon="-6.01848">
        <ele>1.64</ele>
        <time>2021-03-20T17:16:57Z</time>
      </trkpt>
      <trkpt lat="56.36494" lon="-6.01855">
        <ele>2.42</ele>
        <time>2021-03-20T17:17:01Z</time>
      </trkpt>
      <trkpt lat="56.36484" lon="-6.01865">
        <ele>2.5</ele>
        <time>2021-03-20T17:17:04Z</time>
      </trkpt>
      <trkpt lat="56.36474" lon="-6.01884">
        <ele>2.18</ele>
        <time>2021-03-20T17:17:07Z</time>
      </trkpt>
      <trkpt lat="56.36466" lon="-6.01907">
        <ele>3.03</ele>
        <time>2021-03-20T17:17:10Z</time>
      </trkpt>
      <trkpt lat="56.36461" lon="-6.01928">
        <ele>3.55</ele>
        <time>2021-03-20T17:17:13Z</time>
      </trkpt>
      <trkpt lat="56.36461" lon="-6.01965">
        <ele>2.92</ele>
        <time>2021-03-20T17:17:16Z</time>
      </trkpt>
      <trkpt lat="56.36432" lon="-6.02218">
        <ele>12.09</ele>
        <time>2021-03-20T17:17:19Z</time>
      </trkpt>
      <trkpt lat="56.36433" lon="-6.0228">
        <ele>13.67</ele>
        <time>2021-03-20T17:17:22Z</time>
      </trkpt>
      <trkpt lat="56.36436" lon="-6.02305">
        <ele>14.77</ele>
        <time>2021-03-20T17:17:26Z</time>
      </trkpt>
      <trkpt lat="56.36435" lon="-6.02336">
        <ele>13.75</ele>
        <time>2021-03-20T17:17:29Z</time>
      </trkpt>
      <trkpt lat="56.36428" lon="-6.02393">
        <ele>9.59</ele>
        <time>2021-03-20T17:17:32Z</time>
      </trkpt>
      <trkpt lat="56.36412" lon="-6.02451">
        <ele>3.95</ele>
        <time>2021-03-20T17:17:35Z</time>
      </trkpt>
      <trkpt lat="56.364" lon="-6.02541">
        <ele>11.74</ele>
        <time>2021-03-20T17:17:38Z</time>
      </trkpt>
      <trkpt lat="56.364" lon="-6.02686">
        <ele>10.25</ele>
        <time>2021-03-20T17:17:41Z</time>
      </trkpt>
      <trkpt lat="56.36399" lon="-6.02726">
        <ele>9.76</ele>
        <time>2021-03-20T17:17:44Z</time>
      </trkpt>
      <trkpt lat="56.36389" lon="-6.02775">
        <ele>7.07</ele>
        <time>2021-03-20T17:17:47Z</time>
      </trkpt>
      <trkpt lat="56.36376" lon="-6.02808">
        <ele>9.19</ele>
        <time>2021-03-20T17:17:51Z</time>
      </trkpt>
      <trkpt lat="56.36357" lon="-6.02878">
        <ele>12.37</ele>
        <time>2021-03-20T17:17:54Z</time>
      </trkpt>
      <trkpt lat="56.36339" lon="-6.02989">
        <ele>13.39</ele>
        <time>2021-03-20T17:17:57Z</time>
      </trkpt>
      <trkpt lat="56.36298" lon="-6.03286">
        <ele>11.14</ele>
        <time>2021-03-20T17:18:00Z</time>
      </trkpt>
      <trkpt lat="56.3628" lon="-6.0336">
        <ele>11.66</ele>
        <time>2021-03-20T17:18:03Z</time>
      </trkpt>
      <trkpt lat="56.36236" lon="-6.03722">
        <ele>4.54</ele>
        <time>2021-03-20T17:18:06Z</time>
      </trkpt>
      <trkpt lat="56.36227" lon="-6.03778">
        <ele>3.68</ele>
        <time>2021-03-20T17:18:09Z</time>
      </trkpt>
      <trkpt lat="56.36212" lon="-6.03848">
        <ele>4.88</ele>
        <time>2021-03-20T17:18:12Z</time>
      </trkpt>
      <trkpt lat="56.36187" lon="-6.03925">
        <ele>6.51</ele>
        <time>2021-03-20T17:18:16Z</time>
      </trkpt>
      <trkpt lat="56.36127" lon="-6.04145">
        <ele>4.93</ele>
        <time>2021-03-20T17:18:19Z</time>
      </trkpt>
      <trkpt lat="56.36119" lon="-6.04162">
        <ele>4.73</ele>
        <time>2021-03-20T17:18:22Z</time>
      </trkpt>
      <trkpt lat="56.36039" lon="-6.04269">
        <ele>6.11</ele>
        <time>2021-03-20T17:18:25Z</time>
      </trkpt>
      <trkpt lat="56.36004" lon="-6.04327">
        <ele>7.77</ele>
        <time>2021-03-20T17:18:28Z</time>
      </trkpt>
      <trkpt lat="56.35994" lon="-6.04357">
        <ele>8.39</ele>
        <time>2021-03-20T17:18:31Z</time>
      </trkpt>
      <trkpt lat="56.35988" lon="-6.04391">
        <ele>9.65</ele>
        <time>2021-03-20T17:18:34Z</time>
      </trkpt>
      <trkpt lat="56.35978" lon="-6.04542">
        <ele>10.99</ele>
        <time>2021-03-20T17:18:37Z</time>
      </trkpt>
      <trkpt lat="56.35962" lon="-6.0474">
        <ele>10.23</ele>
        <time>2021-03-20T17:18:40Z</time>
      </trkpt>
      <trkpt lat="56.35937" lon="-6.04973">
        <ele>5.8</ele>
        <time>2021-03-20T17:18:44Z</time>
      </trkpt>
      <trkpt lat="56.35926" lon="-6.05015">
        <ele>8.92</ele>
        <time>2021-03-20T17:18:47Z</time>
      </trkpt>
      <trkpt lat="56.3586" lon="-6.05241">
        <ele>11.35</ele>
        <time>2021-03-20T17:18:50Z</time>
      </trkpt>
      <trkpt lat="56.35829" lon="-6.05391">
        <ele>7.11</ele>
        <time>2021-03-20T17:18:53Z</time>
      </trkpt>
      <trkpt lat="56.35822" lon="-6.05437">
        <ele>14.16</ele>
        <time>2021-03-20T17:18:56Z</time>
      </trkpt>
      <trkpt lat="56.3578" lon="-6.05592">
        <ele>16.35</ele>
        <time>2021-03-20T17:18:59Z</time>
      </trkpt>
      <trkpt lat="56.35744" lon="-6.05772">
        <ele>7.92</ele>
        <time>2021-03-20T17:19:02Z</time>
      </trkpt>
      <trkpt lat="56.35701" lon="-6.05949">
        <ele>6.23</ele>
        <time>2021-03-20T17:19:05Z</time>
      </trkpt>
      <trkpt lat="56.35689" lon="-6.06013">
        <ele>8.27</ele>
        <time>2021-03-20T17:19:09Z</time>
      </trkpt>
      <trkpt lat="56.3568" lon="-6.06079">
        <ele>11.41</ele>
        <time>2021-03-20T17:19:12Z</time>
      </trkpt>
      <trkpt lat="56.35677" lon="-6.06126">
        <ele>12.03</ele>
        <time>2021-03-20T17:19:15Z</time>
      </trkpt>
      <trkpt lat="56.35671" lon="-6.06171">
        <ele>12.26</ele>
        <time>2021-03-20T17:19:18Z</time>
      </trkpt>
      <trkpt lat="56.35443" lon="-6.07203">
        <ele>15.05</ele>
        <time>2021-03-20T17:19:21Z</time>
      </trkpt>
      <trkpt lat="56.35421" lon="-6.0728">
        <ele>12.26</ele>
        <time>2021-03-20T17:19:24Z</time>
      </trkpt>
      <trkpt lat="56.35399" lon="-6.07348">
        <ele>9.82</ele>
        <time>2021-03-20T17:19:27Z</time>
      </trkpt>
      <trkpt lat="56.35368" lon="-6.07428">
        <ele>7.59</ele>
        <time>2021-03-20T17:19:30Z</time>
      </trkpt>
      <trkpt lat="56.35354" lon="-6.07453">
        <ele>6.68</ele>
        <time>2021-03-20T17:19:34Z</time>
      </trkpt>
      <trkpt lat="56.35315" lon="-6.07492">
        <ele>8.39</ele>
        <time>2021-03-20T17:19:37Z</time>
      </trkpt>
      <trkpt lat="56.3531" lon="-6.07561">
        <ele>10.12</ele>
        <time>2021-03-20T17:19:40Z</time>
      </trkpt>
      <trkpt lat="56.35291" lon="-6.07702">
        <ele>11.56</ele>
        <time>2021-03-20T17:19:43Z</time>
      </trkpt>
      <trkpt lat="56.35284" lon="-6.07772">
        <ele>11.83</ele>
        <time>2021-03-20T17:19:46Z</time>
      </trkpt>
      <trkpt lat="56.35272" lon="-6.07873">
        <ele>11.92</ele>
        <time>2021-03-20T17:19:49Z</time>
      </trkpt>
      <trkpt lat="56.35269" lon="-6.07927">
        <ele>12.56</ele>
        <time>2021-03-20T17:19:52Z</time>
      </trkpt>
      <trkpt lat="56.35269" lon="-6.07972">
        <ele>12.95</ele>
        <time>2021-03-20T17:19:55Z</time>
      </trkpt>
      <trkpt lat="56.35261" lon="-6.08084">
        <ele>13.44</ele>
        <time>2021-03-20T17:19:59Z</time>
      </trkpt>
      <trkpt lat="56.35241" lon="-6.0816">
        <ele>11.33</ele>
        <time>2021-03-20T17:20:02Z</time>
      </trkpt>
      <trkpt lat="56.35159" lon="-6.08391">
        <ele>10.53</ele>
        <time>2021-03-20T17:20:05Z</time>
      </trkpt>
      <trkpt lat="56.35104" lon="-6.08521">
        <ele>16.58</ele>
        <time>2021-03-20T17:20:08Z</time>
      </trkpt>
      <trkpt lat="56.3506" lon="-6.0861">
        <ele>18.16</ele>
        <time>2021-03-20T17:20:11Z</time>
      </trkpt>
      <trkpt lat="56.35044" lon="-6.08634">
        <ele>16.37</ele>
        <time>2021-03-20T17:20:14Z</time>
      </trkpt>
      <trkpt lat="56.35029" lon="-6.08651">
        <ele>14.61</ele>
        <time>2021-03-20T17:20:17Z</time>
      </trkpt>
      <trkpt lat="56.34965" lon="-6.08662">
        <ele>11.12</ele>
        <time>2021-03-20T17:20:20Z</time>
      </trkpt>
      <trkpt lat="56.34946" lon="-6.08673">
        <ele>12.18</ele>
        <time>2021-03-20T17:20:23Z</time>
      </trkpt>
      <trkpt lat="56.34928" lon="-6.08693">
        <ele>11.94</ele>
        <time>2021-03-20T17:20:27Z</time>
      </trkpt>
      <trkpt lat="56.34909" lon="-6.08727">
        <ele>11.36</ele>
        <time>2021-03-20T17:20:30Z</time>
      </trkpt>
      <trkpt lat="56.34875" lon="-6.08791">
        <ele>7.31</ele>
        <time>2021-03-20T17:20:33Z</time>
      </trkpt>
      <trkpt lat="56.34854" lon="-6.0882">
        <ele>6.76</ele>
        <time>2021-03-20T17:20:36Z</time>
      </trkpt>
      <trkpt lat="56.34841" lon="-6.08828">
        <ele>7.57</ele>
        <time>2021-03-20T17:20:39Z</time>
      </trkpt>
      <trkpt lat="56.34812" lon="-6.08836">
        <ele>8.52</ele>
        <time>2021-03-20T17:20:42Z</time>
      </trkpt>
      <trkpt lat="56.34731" lon="-6.08844">
        <ele>5.55</ele>
        <time>2021-03-20T17:20:45Z</time>
      </trkpt>
      <trkpt lat="56.34712" lon="-6.08853">
        <ele>5.23</ele>
        <time>2021-03-20T17:20:48Z</time>
      </trkpt>
      <trkpt lat="56.34693" lon="-6.08869">
        <ele>5.82</ele>
        <time>2021-03-20T17:20:52Z</time>
      </trkpt>
      <trkpt lat="56.34665" lon="-6.08909">
        <ele>5.66</ele>
        <time>2021-03-20T17:20:55Z</time>
      </trkpt>
      <trkpt lat="56.34628" lon="-6.08979">
        <ele>3.92</ele>
        <time>2021-03-20T17:20:58Z</time>
      </trkpt>
      <trkpt lat="56.34604" lon="-6.09049">
        <ele>4.5</ele>
        <time>2021-03-20T17:21:01Z</time>
      </trkpt>
      <trkpt lat="56.34594" lon="-6.0909">
        <ele>4.24</ele>
        <time>2021-03-20T17:21:04Z</time>
      </trkpt>
      <trkpt lat="56.34576" lon="-6.0918">
        <ele>4.72</ele>
        <time>2021-03-20T17:21:07Z</time>
      </trkpt>
      <trkpt lat="56.34562" lon="-6.09276">
        <ele>6.14</ele>
        <time>2021-03-20T17:21:10Z</time>
      </trkpt>
      <trkpt lat="56.34523" lon="-6.09464">
        <ele>2.96</ele>
        <time>2021-03-20T17:21:13Z</time>
      </trkpt>
      <trkpt lat="56.34518" lon="-6.09499">
        <ele>2.8</ele>
        <time>2021-03-20T17:21:17Z</time>
      </trkpt>
      <trkpt lat="56.34512" lon="-6.09567">
        <ele>3.66</ele>
        <time>2021-03-20T17:21:20Z</time>
      </trkpt>
      <trkpt lat="56.34507" lon="-6.09655">
        <ele>3.28</ele>
        <time>2021-03-20T17:21:23Z</time>
      </trkpt>
      <trkpt lat="56.34507" lon="-6.09687">
        <ele>3.43</ele>
        <time>2021-03-20T17:21:26Z</time>
      </trkpt>
      <trkpt lat="56.34501" lon="-6.09783">
        <ele>4.97</ele>
        <time>2021-03-20T17:21:29Z</time>
      </trkpt>
      <trkpt lat="56.34495" lon="-6.0983">
        <ele>5.19</ele>
        <time>2021-03-20T17:21:32Z</time>
      </trkpt>
      <trkpt lat="56.34486" lon="-6.09864">
        <ele>4.44</ele>
        <time>2021-03-20T17:21:35Z</time>
      </trkpt>
      <trkpt lat="56.34475" lon="-6.09897">
        <ele>3.72</ele>
        <time>2021-03-20T17:21:38Z</time>
      </trkpt>
      <trkpt lat="56.34463" lon="-6.0992">
        <ele>3.55</ele>
        <time>2021-03-20T17:21:41Z</time>
      </trkpt>
      <trkpt lat="56.3426" lon="-6.10218">
        <ele>5.81</ele>
        <time>2021-03-20T17:21:45Z</time>
      </trkpt>
      <trkpt lat="56.3423" lon="-6.10269">
        <ele>4.82</ele>
        <time>2021-03-20T17:21:48Z</time>
      </trkpt>
      <trkpt lat="56.34211" lon="-6.10317">
        <ele>7.23</ele>
        <time>2021-03-20T17:21:51Z</time>
      </trkpt>
      <trkpt lat="56.34199" lon="-6.10367">
        <ele>10.62</ele>
        <time>2021-03-20T17:21:54Z</time>
      </trkpt>
      <trkpt lat="56.34196" lon="-6.10406">
        <ele>12.33</ele>
        <time>2021-03-20T17:21:57Z</time>
      </trkpt>
      <trkpt lat="56.34198" lon="-6.10447">
        <ele>13.7</ele>
        <time>2021-03-20T17:22:00Z</time>
      </trkpt>
      <trkpt lat="56.34206" lon="-6.10491">
        <ele>16.32</ele>
        <time>2021-03-20T17:22:03Z</time>
      </trkpt>
      <trkpt lat="56.34217" lon="-6.10534">
        <ele>17.41</ele>
        <time>2021-03-20T17:22:06Z</time>
      </trkpt>
      <trkpt lat="56.34283" lon="-6.10691">
        <ele>15.89</ele>
        <time>2021-03-20T17:22:10Z</time>
      </trkpt>
      <trkpt lat="56.3435" lon="-6.10843">
        <ele>16.07</ele>
        <time>2021-03-20T17:22:13Z</time>
      </trkpt>
      <trkpt lat="56.34376" lon="-6.10931">
        <ele>14.93</ele>
        <time>2021-03-20T17:22:16Z</time>
      </trkpt>
      <trkpt lat="56.34382" lon="-6.11006">
        <ele>15.29</ele>
        <time>2021-03-20T17:22:19Z</time>
      </trkpt>
      <trkpt lat="56.3438" lon="-6.11046">
        <ele>12.65</ele>
        <time>2021-03-20T17:22:22Z</time>
      </trkpt>
      <trkpt lat="56.34378" lon="-6.11064">
        <ele>11.37</ele>
        <time>2021-03-20T17:22:25Z</time>
      </trkpt>
      <trkpt lat="56.34364" lon="-6.1113">
        <ele>8.76</ele>
        <time>2021-03-20T17:22:28Z</time>
      </trkpt>
      <trkpt lat="56.34351" lon="-6.11202">
        <ele>9.07</ele>
        <time>2021-03-20T17:22:31Z</time>
      </trkpt>
      <trkpt lat="56.34342" lon="-6.11274">
        <ele>10.02</ele>
        <time>2021-03-20T17:22:35Z</time>
      </trkpt>
      <trkpt lat="56.34339" lon="-6.1141">
        <ele>9.55</ele>
        <time>2021-03-20T17:22:38Z</time>
      </trkpt>
      <trkpt lat="56.34344" lon="-6.11488">
        <ele>8.25</ele>
        <time>2021-03-20T17:22:41Z</time>
      </trkpt>
      <trkpt lat="56.34359" lon="-6.11621">
        <ele>7.74</ele>
        <time>2021-03-20T17:22:44Z</time>
      </trkpt>
      <trkpt lat="56.34368" lon="-6.12022">
        <ele>9.9</ele>
        <time>2021-03-20T17:22:47Z</time>
      </trkpt>
      <trkpt lat="56.34367" lon="-6.12073">
        <ele>11.78</ele>
        <time>2021-03-20T17:22:50Z</time>
      </trkpt>
      <trkpt lat="56.34363" lon="-6.12117">
        <ele>13.89</ele>
        <time>2021-03-20T17:22:53Z</time>
      </trkpt>
      <trkpt lat="56.34358" lon="-6.12142">
        <ele>15.54</ele>
        <time>2021-03-20T17:22:56Z</time>
      </trkpt>
      <trkpt lat="56.3434" lon="-6.12202">
        <ele>17.82</ele>
        <time>2021-03-20T17:23:00Z</time>
      </trkpt>
      <trkpt lat="56.34322" lon="-6.12236">
        <ele>20.42</ele>
        <time>2021-03-20T17:23:03Z</time>
      </trkpt>
      <trkpt lat="56.34242" lon="-6.12349">
        <ele>28.84</ele>
        <time>2021-03-20T17:23:06Z</time>
      </trkpt>
      <trkpt lat="56.34146" lon="-6.12501">
        <ele>29.74</ele>
        <time>2021-03-20T17:23:09Z</time>
      </trkpt>
      <trkpt lat="56.3408" lon="-6.12617">
        <ele>29.81</ele>
        <time>2021-03-20T17:23:12Z</time>
      </trkpt>
      <trkpt lat="56.34016" lon="-6.1274">
        <ele>23.58</ele>
        <time>2021-03-20T17:23:15Z</time>
      </trkpt>
      <trkpt lat="56.33998" lon="-6.1278">
        <ele>23.07</ele>
        <time>2021-03-20T17:23:18Z</time>
      </trkpt>
      <trkpt lat="56.33984" lon="-6.12823">
        <ele>22.5</ele>
        <time>2021-03-20T17:23:21Z</time>
      </trkpt>
      <trkpt lat="56.33976" lon="-6.12866">
        <ele>22.6</ele>
        <time>2021-03-20T17:23:24Z</time>
      </trkpt>
      <trkpt lat="56.33974" lon="-6.12913">
        <ele>23.71</ele>
        <time>2021-03-20T17:23:28Z</time>
      </trkpt>
      <trkpt lat="56.3398" lon="-6.13157">
        <ele>18.56</ele>
        <time>2021-03-20T17:23:31Z</time>
      </trkpt>
      <trkpt lat="56.33989" lon="-6.13395">
        <ele>9.78</ele>
        <time>2021-03-20T17:23:34Z</time>
      </trkpt>
      <trkpt lat="56.33992" lon="-6.13537">
        <ele>5.89</ele>
        <time>2021-03-20T17:23:37Z</time>
      </trkpt>
      <trkpt lat="56.33986" lon="-6.13606">
        <ele>6.56</ele>
        <time>2021-03-20T17:23:40Z</time>
      </trkpt>
      <trkpt lat="56.33972" lon="-6.13667">
        <ele>9</ele>
        <time>2021-03-20T17:23:43Z</time>
      </trkpt>
      <trkpt lat="56.33919" lon="-6.13834">
        <ele>17.6</ele>
        <time>2021-03-20T17:23:46Z</time>
      </trkpt>
      <trkpt lat="56.33904" lon="-6.13875">
        <ele>17.7</ele>
        <time>2021-03-20T17:23:49Z</time>
      </trkpt>
      <trkpt lat="56.33883" lon="-6.13911">
        <ele>17.66</ele>
        <time>2021-03-20T17:23:53Z</time>
      </trkpt>
      <trkpt lat="56.33861" lon="-6.13935">
        <ele>18.35</ele>
        <time>2021-03-20T17:23:56Z</time>
      </trkpt>
      <trkpt lat="56.33835" lon="-6.13949">
        <ele>17.67</ele>
        <time>2021-03-20T17:23:59Z</time>
      </trkpt>
      <trkpt lat="56.33805" lon="-6.13954">
        <ele>16.94</ele>
        <time>2021-03-20T17:24:02Z</time>
      </trkpt>
      <trkpt lat="56.33746" lon="-6.13955">
        <ele>15.82</ele>
        <time>2021-03-20T17:24:05Z</time>
      </trkpt>
      <trkpt lat="56.33717" lon="-6.13959">
        <ele>15.45</ele>
        <time>2021-03-20T17:24:08Z</time>
      </trkpt>
      <trkpt lat="56.33689" lon="-6.13974">
        <ele>17.32</ele>
        <time>2021-03-20T17:24:11Z</time>
      </trkpt>
      <trkpt lat="56.33657" lon="-6.14014">
        <ele>18.27</ele>
        <time>2021-03-20T17:24:14Z</time>
      </trkpt>
      <trkpt lat="56.33642" lon="-6.14045">
        <ele>18.96</ele>
        <time>2021-03-20T17:24:18Z</time>
      </trkpt>
      <trkpt lat="56.33629" lon="-6.14088">
        <ele>20.81</ele>
        <time>2021-03-20T17:24:21Z</time>
      </trkpt>
      <trkpt lat="56.33596" lon="-6.14219">
        <ele>26.73</ele>
        <time>2021-03-20T17:24:24Z</time>
      </trkpt>
      <trkpt lat="56.33589" lon="-6.14263">
        <ele>26.34</ele>
        <time>2021-03-20T17:24:27Z</time>
      </trkpt>
      <trkpt lat="56.33586" lon="-6.14309">
        <ele>26.32</ele>
        <time>2021-03-20T17:24:30Z</time>
      </trkpt>
      <trkpt lat="56.33587" lon="-6.14353">
        <ele>26.89</ele>
        <time>2021-03-20T17:24:33Z</time>
      </trkpt>
      <trkpt lat="56.33592" lon="-6.14399">
        <ele>27.13</ele>
        <time>2021-03-20T17:24:36Z</time>
      </trkpt>
      <trkpt lat="56.33607" lon="-6.14449">
        <ele>27.13</ele>
        <time>2021-03-20T17:24:39Z</time>
      </trkpt>
      <trkpt lat="56.33657" lon="-6.14595">
        <ele>27.19</ele>
        <time>2021-03-20T17:24:43Z</time>
      </trkpt>
      <trkpt lat="56.33663" lon="-6.14624">
        <ele>27.26</ele>
        <time>2021-03-20T17:24:46Z</time>
      </trkpt>
      <trkpt lat="56.33668" lon="-6.14673">
        <ele>26.78</ele>
        <time>2021-03-20T17:24:49Z</time>
      </trkpt>
      <trkpt lat="56.33668" lon="-6.14713">
        <ele>27.57</ele>
        <time>2021-03-20T17:24:52Z</time>
      </trkpt>
      <trkpt lat="56.3366" lon="-6.14784">
        <ele>28.48</ele>
        <time>2021-03-20T17:24:55Z</time>
      </trkpt>
      <trkpt lat="56.33626" lon="-6.14998">
        <ele>28.68</ele>
        <time>2021-03-20T17:24:58Z</time>
      </trkpt>
      <trkpt lat="56.33622" lon="-6.1504">
        <ele>28.62</ele>
        <time>2021-03-20T17:25:01Z</time>
      </trkpt>
      <trkpt lat="56.33622" lon="-6.15084">
        <ele>29.71</ele>
        <time>2021-03-20T17:25:04Z</time>
      </trkpt>
      <trkpt lat="56.33625" lon="-6.15134">
        <ele>31.2</ele>
        <time>2021-03-20T17:25:07Z</time>
      </trkpt>
      <trkpt lat="56.33649" lon="-6.15393">
        <ele>31.5</ele>
        <time>2021-03-20T17:25:11Z</time>
      </trkpt>
      <trkpt lat="56.33656" lon="-6.15529">
        <ele>28.64</ele>
        <time>2021-03-20T17:25:14Z</time>
      </trkpt>
      <trkpt lat="56.33654" lon="-6.15566">
        <ele>28.45</ele>
        <time>2021-03-20T17:25:17Z</time>
      </trkpt>
      <trkpt lat="56.33642" lon="-6.15654">
        <ele>28.88</ele>
        <time>2021-03-20T17:25:20Z</time>
      </trkpt>
      <trkpt lat="56.33633" lon="-6.15746">
        <ele>31.28</ele>
        <time>2021-03-20T17:25:23Z</time>
      </trkpt>
      <trkpt lat="56.33631" lon="-6.15794">
        <ele>32.03</ele>
        <time>2021-03-20T17:25:26Z</time>
      </trkpt>
      <trkpt lat="56.33632" lon="-6.15843">
        <ele>31.53</ele>
        <time>2021-03-20T17:25:29Z</time>
      </trkpt>
      <trkpt lat="56.33633" lon="-6.1589">
        <ele>30.83</ele>
        <time>2021-03-20T17:25:32Z</time>
      </trkpt>
      <trkpt lat="56.33638" lon="-6.15942">
        <ele>28.46</ele>
        <time>2021-03-20T17:25:36Z</time>
      </trkpt>
      <trkpt lat="56.33638" lon="-6.16007">
        <ele>28.26</ele>
        <time>2021-03-20T17:25:39Z</time>
      </trkpt>
      <trkpt lat="56.33622" lon="-6.16271">
        <ele>30.63</ele>
        <time>2021-03-20T17:25:42Z</time>
      </trkpt>
      <trkpt lat="56.33615" lon="-6.16329">
        <ele>30.33</ele>
        <time>2021-03-20T17:25:45Z</time>
      </trkpt>
      <trkpt lat="56.33611" lon="-6.16383">
        <ele>30.02</ele>
        <time>2021-03-20T17:25:48Z</time>
      </trkpt>
      <trkpt lat="56.33603" lon="-6.16419">
        <ele>29.52</ele>
        <time>2021-03-20T17:25:51Z</time>
      </trkpt>
      <trkpt lat="56.33482" lon="-6.16709">
        <ele>24.89</ele>
        <time>2021-03-20T17:25:54Z</time>
      </trkpt>
      <trkpt lat="56.33466" lon="-6.16755">
        <ele>22.92</ele>
        <time>2021-03-20T17:25:57Z</time>
      </trkpt>
      <trkpt lat="56.33453" lon="-6.16803">
        <ele>21.32</ele>
        <time>2021-03-20T17:26:01Z</time>
      </trkpt>
      <trkpt lat="56.33442" lon="-6.16851">
        <ele>19.76</ele>
        <time>2021-03-20T17:26:04Z</time>
      </trkpt>
      <trkpt lat="56.3343" lon="-6.16969">
        <ele>16.18</ele>
        <time>2021-03-20T17:26:07Z</time>
      </trkpt>
      <trkpt lat="56.33395" lon="-6.17112">
        <ele>15.92</ele>
        <time>2021-03-20T17:26:10Z</time>
      </trkpt>
      <trkpt lat="56.33363" lon="-6.17264">
        <ele>13.29</ele>
        <time>2021-03-20T17:26:13Z</time>
      </trkpt>
      <trkpt lat="56.33295" lon="-6.17557">
        <ele>16.13</ele>
        <time>2021-03-20T17:26:16Z</time>
      </trkpt>
      <trkpt lat="56.33144" lon="-6.18272">
        <ele>32.44</ele>
        <time>2021-03-20T17:26:19Z</time>
      </trkpt>
      <trkpt lat="56.33071" lon="-6.1874">
        <ele>31.15</ele>
        <time>2021-03-20T17:26:22Z</time>
      </trkpt>
      <trkpt lat="56.33066" lon="-6.18849">
        <ele>33.49</ele>
        <time>2021-03-20T17:26:26Z</time>
      </trkpt>
      <trkpt lat="56.33088" lon="-6.19045">
        <ele>36.37</ele>
        <time>2021-03-20T17:26:29Z</time>
      </trkpt>
      <trkpt lat="56.33087" lon="-6.19109">
        <ele>38.12</ele>
        <time>2021-03-20T17:26:32Z</time>
      </trkpt>
      <trkpt lat="56.33083" lon="-6.19168">
        <ele>40.12</ele>
        <time>2021-03-20T17:26:35Z</time>
      </trkpt>
      <trkpt lat="56.33006" lon="-6.19575">
        <ele>43.26</ele>
        <time>2021-03-20T17:26:38Z</time>
      </trkpt>
      <trkpt lat="56.32991" lon="-6.19629">
        <ele>44.5</ele>
        <time>2021-03-20T17:26:41Z</time>
      </trkpt>
      <trkpt lat="56.32975" lon="-6.19673">
        <ele>44.33</ele>
        <time>2021-03-20T17:26:44Z</time>
      </trkpt>
      <trkpt lat="56.32829" lon="-6.19948">
        <ele>33.9</ele>
        <time>2021-03-20T17:26:47Z</time>
      </trkpt>
      <trkpt lat="56.3284" lon="-6.19985">
        <ele>32.45</ele>
        <time>2021-03-20T17:26:50Z</time>
      </trkpt>
      <trkpt lat="56.32844" lon="-6.20047">
        <ele>29.94</ele>
        <time>2021-03-20T17:26:53Z</time>
      </trkpt>
      <trkpt lat="56.32856" lon="-6.20079">
        <ele>28.41</ele>
        <time>2021-03-20T17:26:56Z</time>
      </trkpt>
      <trkpt lat="56.32874" lon="-6.20096">
        <ele>26.65</ele>
        <time>2021-03-20T17:26:59Z</time>
      </trkpt>
      <trkpt lat="56.32938" lon="-6.20131">
        <ele>21.72</ele>
        <time>2021-03-20T17:27:02Z</time>
      </trkpt>
      <trkpt lat="56.32967" lon="-6.20142">
        <ele>20.08</ele>
        <time>2021-03-20T17:27:05Z</time>
      </trkpt>
      <trkpt lat="56.32997" lon="-6.20121">
        <ele>19.75</ele>
        <time>2021-03-20T17:27:08Z</time>
      </trkpt>
      <trkpt lat="56.33011" lon="-6.20077">
        <ele>20.24</ele>
        <time>2021-03-20T17:27:11Z</time>
      </trkpt>
      <trkpt lat="56.33015" lon="-6.2007">
        <ele>20.48</ele>
        <time>2021-03-20T17:27:14Z</time>
      </trkpt>
      <trkpt lat="56.33026" lon="-6.2007">
        <ele>20.48</ele>
        <time>2021-03-20T17:27:17Z</time>
      </trkpt>
      <trkpt lat="56.33046" lon="-6.20077">
        <ele>19.58</ele>
        <time>2021-03-20T17:27:20Z</time>
      </trkpt>
      <trkpt lat="56.33058" lon="-6.20076">
        <ele>19.15</ele>
        <time>2021-03-20T17:27:24Z</time>
      </trkpt>
      <trkpt lat="56.33063" lon="-6.20072">
        <ele>19.13</ele>
        <time>2021-03-20T17:27:27Z</time>
      </trkpt>
      <trkpt lat="56.33071" lon="-6.20057">
        <ele>19.38</ele>
        <time>2021-03-20T17:27:30Z</time>
      </trkpt>
      <trkpt lat="56.33079" lon="-6.20036">
        <ele>19.84</ele>
        <time>2021-03-20T17:27:33Z</time>
      </trkpt>
      <trkpt lat="56.3309" lon="-6.20021">
        <ele>20.45</ele>
        <time>2021-03-20T17:27:36Z</time>
      </trkpt>
      <trkpt lat="56.33101" lon="-6.2001">
        <ele>20.86</ele>
        <time>2021-03-20T17:27:39Z</time>
      </trkpt>
      <trkpt lat="56.33142" lon="-6.19989">
        <ele>21.31</ele>
        <time>2021-03-20T17:27:42Z</time>
      </trkpt>
      <trkpt lat="56.33182" lon="-6.19953">
        <ele>20.08</ele>
        <time>2021-03-20T17:27:45Z</time>
      </trkpt>
      <trkpt lat="56.33319" lon="-6.20067">
        <ele>14.43</ele>
        <time>2021-03-20T17:27:48Z</time>
      </trkpt>
      <trkpt lat="56.33332" lon="-6.20074">
        <ele>13.77</ele>
        <time>2021-03-20T17:27:51Z</time>
      </trkpt>
      <trkpt lat="56.33335" lon="-6.20084">
        <ele>13.78</ele>
        <time>2021-03-20T17:27:54Z</time>
      </trkpt>
      <trkpt lat="56.33342" lon="-6.20129">
        <ele>13.73</ele>
        <time>2021-03-20T17:27:57Z</time>
      </trkpt>
      <trkpt lat="56.3334" lon="-6.20182">
        <ele>14.39</ele>
        <time>2021-03-20T17:28:00Z</time>
      </trkpt>
      <trkpt lat="56.33347" lon="-6.20254">
        <ele>15</ele>
        <time>2021-03-20T17:28:03Z</time>
      </trkpt>
      <trkpt lat="56.33357" lon="-6.20301">
        <ele>15.23</ele>
        <time>2021-03-20T17:28:07Z</time>
      </trkpt>
      <trkpt lat="56.3337" lon="-6.20324">
        <ele>14.74</ele>
        <time>2021-03-20T17:28:10Z</time>
      </trkpt>
      <trkpt lat="56.33389" lon="-6.20379">
        <ele>13.95</ele>
        <time>2021-03-20T17:28:13Z</time>
      </trkpt>
      <trkpt lat="56.33407" lon="-6.2042">
        <ele>12.08</ele>
        <time>2021-03-20T17:28:16Z</time>
      </trkpt>
      <trkpt lat="56.33406" lon="-6.20436">
        <ele>12.16</ele>
        <time>2021-03-20T17:28:19Z</time>
      </trkpt>
      <trkpt lat="56.33344" lon="-6.20539">
        <ele>14.37</ele>
        <time>2021-03-20T17:28:22Z</time>
      </trkpt>
      <trkpt lat="56.33339" lon="-6.20544">
        <ele>14.33</ele>
        <time>2021-03-20T17:28:25Z</time>
      </trkpt>
      <trkpt lat="56.33295" lon="-6.2057">
        <ele>14.34</ele>
        <time>2021-03-20T17:28:28Z</time>
      </trkpt>
      <trkpt lat="56.33281" lon="-6.20584">
        <ele>13.85</ele>
        <time>2021-03-20T17:28:31Z</time>
      </trkpt>
      <trkpt lat="56.33264" lon="-6.2061">
        <ele>12.57</ele>
        <time>2021-03-20T17:28:34Z</time>
      </trkpt>
      <trkpt lat="56.33256" lon="-6.20632">
        <ele>11.3</ele>
        <time>2021-03-20T17:28:37Z</time>
      </trkpt>
      <trkpt lat="56.33246" lon="-6.2067">
        <ele>10.51</ele>
        <time>2021-03-20T17:28:40Z</time>
      </trkpt>
      <trkpt lat="56.33229" lon="-6.2074">
        <ele>9.89</ele>
        <time>2021-03-20T17:28:43Z</time>
      </trkpt>
      <trkpt lat="56.33223" lon="-6.2076">
        <ele>9.6</ele>
        <time>2021-03-20T17:28:46Z</time>
      </trkpt>
      <trkpt lat="56.33216" lon="-6.20774">
        <ele>9.17</ele>
        <time>2021-03-20T17:28:49Z</time>
      </trkpt>
      <trkpt lat="56.33194" lon="-6.20803">
        <ele>8.11</ele>
        <time>2021-03-20T17:28:53Z</time>
      </trkpt>
      <trkpt lat="56.33148" lon="-6.20824">
        <ele>9.01</ele>
        <time>2021-03-20T17:28:56Z</time>
      </trkpt>
      <trkpt lat="56.33141" lon="-6.20829">
        <ele>9.07</ele>
        <time>2021-03-20T17:28:59Z</time>
      </trkpt>
      <trkpt lat="56.33131" lon="-6.20844">
        <ele>7.93</ele>
        <time>2021-03-20T17:29:02Z</time>
      </trkpt>
      <trkpt lat="56.33123" lon="-6.20868">
        <ele>6.09</ele>
        <time>2021-03-20T17:29:05Z</time>
      </trkpt>
      <trkpt lat="56.33095" lon="-6.2106">
        <ele>8.03</ele>
        <time>2021-03-20T17:29:08Z</time>
      </trkpt>
      <trkpt lat="56.33092" lon="-6.21088">
        <ele>9.96</ele>
        <time>2021-03-20T17:29:11Z</time>
      </trkpt>
      <trkpt lat="56.33086" lon="-6.21104">
        <ele>11.4</ele>
        <time>2021-03-20T17:29:14Z</time>
      </trkpt>
      <trkpt lat="56.33075" lon="-6.21126">
        <ele>13.27</ele>
        <time>2021-03-20T17:29:17Z</time>
      </trkpt>
      <trkpt lat="56.33062" lon="-6.21136">
        <ele>14.49</ele>
        <time>2021-03-20T17:29:20Z</time>
      </trkpt>
      <trkpt lat="56.33045" lon="-6.21138">
        <ele>14.6</ele>
        <time>2021-03-20T17:29:23Z</time>
      </trkpt>
      <trkpt lat="56.33035" lon="-6.21146">
        <ele>14.27</ele>
        <time>2021-03-20T17:29:26Z</time>
      </trkpt>
      <trkpt lat="56.33032" lon="-6.21159">
        <ele>14.16</ele>
        <time>2021-03-20T17:29:29Z</time>
      </trkpt>
      <trkpt lat="56.33012" lon="-6.21348">
        <ele>12.06</ele>
        <time>2021-03-20T17:29:32Z</time>
      </trkpt>
      <trkpt lat="56.33004" lon="-6.21399">
        <ele>13.2</ele>
        <time>2021-03-20T17:29:36Z</time>
      </trkpt>
      <trkpt lat="56.32993" lon="-6.21432">
        <ele>14.15</ele>
        <time>2021-03-20T17:29:39Z</time>
      </trkpt>
      <trkpt lat="56.32984" lon="-6.21475">
        <ele>15.05</ele>
        <time>2021-03-20T17:29:42Z</time>
      </trkpt>
      <trkpt lat="56.32978" lon="-6.21493">
        <ele>15.16</ele>
        <time>2021-03-20T17:29:45Z</time>
      </trkpt>
      <trkpt lat="56.32971" lon="-6.21504">
        <ele>15.11</ele>
        <time>2021-03-20T17:29:48Z</time>
      </trkpt>
      <trkpt lat="56.32957" lon="-6.21541">
        <ele>15.71</ele>
        <time>2021-03-20T17:29:51Z</time>
      </trkpt>
      <trkpt lat="56.32951" lon="-6.21573">
        <ele>16</ele>
        <time>2021-03-20T17:29:54Z</time>
      </trkpt>
      <trkpt lat="56.32955" lon="-6.21611">
        <ele>16</ele>
        <time>2021-03-20T17:29:57Z</time>
      </trkpt>
      <trkpt lat="56.32992" lon="-6.21816">
        <ele>17.7</ele>
        <time>2021-03-20T17:30:00Z</time>
      </trkpt>
      <trkpt lat="56.33" lon="-6.21884">
        <ele>18.99</ele>
        <time>2021-03-20T17:30:03Z</time>
      </trkpt>
      <trkpt lat="56.33001" lon="-6.21983">
        <ele>19</ele>
        <time>2021-03-20T17:30:06Z</time>
      </trkpt>
      <trkpt lat="56.32972" lon="-6.22277">
        <ele>19</ele>
        <time>2021-03-20T17:30:09Z</time>
      </trkpt>
      <trkpt lat="56.32957" lon="-6.22347">
        <ele>17.79</ele>
        <time>2021-03-20T17:30:12Z</time>
      </trkpt>
      <trkpt lat="56.32929" lon="-6.22429">
        <ele>18</ele>
        <time>2021-03-20T17:30:15Z</time>
      </trkpt>
      <trkpt lat="56.32916" lon="-6.22457">
        <ele>17.56</ele>
        <time>2021-03-20T17:30:19Z</time>
      </trkpt>
      <trkpt lat="56.32882" lon="-6.22502">
        <ele>17.17</ele>
        <time>2021-03-20T17:30:22Z</time>
      </trkpt>
      <trkpt lat="56.32875" lon="-6.22517">
        <ele>16.9</ele>
        <time>2021-03-20T17:30:25Z</time>
      </trkpt>
      <trkpt lat="56.32871" lon="-6.22541">
        <ele>16.64</ele>
        <time>2021-03-20T17:30:28Z</time>
      </trkpt>
      <trkpt lat="56.32871" lon="-6.2257">
        <ele>16.63</ele>
        <time>2021-03-20T17:30:31Z</time>
      </trkpt>
      <trkpt lat="56.32884" lon="-6.22709">
        <ele>15.18</ele>
        <time>2021-03-20T17:30:34Z</time>
      </trkpt>
      <trkpt lat="56.32907" lon="-6.22848">
        <ele>15.19</ele>
        <time>2021-03-20T17:30:37Z</time>
      </trkpt>
      <trkpt lat="56.32907" lon="-6.22848">
        <ele>15.19</ele>
        <time>2021-03-20T17:30:37Z</time>
      </trkpt>
      <trkpt lat="56.32931" lon="-6.22996">
        <ele>15.4</ele>
        <time>2021-03-20T17:30:42Z</time>
      </trkpt>
      <trkpt lat="56.32957" lon="-6.23197">
        <ele>16.68</ele>
        <time>2021-03-20T17:30:48Z</time>
      </trkpt>
      <trkpt lat="56.32957" lon="-6.23223">
        <ele>16.55</ele>
        <time>2021-03-20T17:30:53Z</time>
      </trkpt>
      <trkpt lat="56.32952" lon="-6.23244">
        <ele>16.41</ele>
        <time>2021-03-20T17:30:58Z</time>
      </trkpt>
      <trkpt lat="56.32939" lon="-6.23261">
        <ele>17.01</ele>
        <time>2021-03-20T17:31:04Z</time>
      </trkpt>
      <trkpt lat="56.32644" lon="-6.23589">
        <ele>10.62</ele>
        <time>2021-03-20T17:31:09Z</time>
      </trkpt>
      <trkpt lat="56.32558" lon="-6.23726">
        <ele>11.72</ele>
        <time>2021-03-20T17:31:14Z</time>
      </trkpt>
      <trkpt lat="56.32506" lon="-6.23779">
        <ele>13.51</ele>
        <time>2021-03-20T17:31:20Z</time>
      </trkpt>
      <trkpt lat="56.32467" lon="-6.23816">
        <ele>14.81</ele>
        <time>2021-03-20T17:31:25Z</time>
      </trkpt>
      <trkpt lat="56.32445" lon="-6.23826">
        <ele>15.25</ele>
        <time>2021-03-20T17:31:30Z</time>
      </trkpt>
      <trkpt lat="56.32401" lon="-6.23831">
        <ele>15.1</ele>
        <time>2021-03-20T17:31:36Z</time>
      </trkpt>
      <trkpt lat="56.32166" lon="-6.23789">
        <ele>6.59</ele>
        <time>2021-03-20T17:31:41Z</time>
      </trkpt>
      <trkpt lat="56.32096" lon="-6.23764">
        <ele>5.44</ele>
        <time>2021-03-20T17:31:46Z</time>
      </trkpt>
      <trkpt lat="56.32062" lon="-6.23738">
        <ele>4.69</ele>
        <time>2021-03-20T17:31:52Z</time>
      </trkpt>
      <trkpt lat="56.31959" lon="-6.23734">
        <ele>5.39</ele>
        <time>2021-03-20T17:31:57Z</time>
      </trkpt>
      <trkpt lat="56.31937" lon="-6.23735">
        <ele>4.74</ele>
        <time>2021-03-20T17:32:03Z</time>
      </trkpt>
      <trkpt lat="56.31924" lon="-6.23722">
        <ele>3.81</ele>
        <time>2021-03-20T17:32:08Z</time>
      </trkpt>
      <trkpt lat="56.31883" lon="-6.23607">
        <ele>3.74</ele>
        <time>2021-03-20T17:32:13Z</time>
      </trkpt>
      <trkpt lat="56.31844" lon="-6.23486">
        <ele>4.68</ele>
        <time>2021-03-20T17:32:19Z</time>
      </trkpt>
      <trkpt lat="56.31824" lon="-6.23442">
        <ele>4.04</ele>
        <time>2021-03-20T17:32:24Z</time>
      </trkpt>
      <trkpt lat="56.3181" lon="-6.23419">
        <ele>3.45</ele>
        <time>2021-03-20T17:32:29Z</time>
      </trkpt>
      <trkpt lat="56.31802" lon="-6.23395">
        <ele>4.38</ele>
        <time>2021-03-20T17:32:35Z</time>
      </trkpt>
      <trkpt lat="56.31791" lon="-6.23336">
        <ele>5.32</ele>
        <time>2021-03-20T17:32:40Z</time>
      </trkpt>
      <trkpt lat="56.31748" lon="-6.23152">
        <ele>5</ele>
        <time>2021-03-20T17:32:45Z</time>
      </trkpt>
      <trkpt lat="56.31738" lon="-6.23126">
        <ele>6.3</ele>
        <time>2021-03-20T17:32:51Z</time>
      </trkpt>
      <trkpt lat="56.3173" lon="-6.2313">
        <ele>5.67</ele>
        <time>2021-03-20T17:32:52Z</time>
      </trkpt>
      <trkpt lat="56.31705" lon="-6.23172">
        <ele>5.95</ele>
        <time>2021-03-20T17:32:54Z</time>
      </trkpt>
      <trkpt lat="56.31714" lon="-6.23225">
        <ele>5.15</ele>
        <time>2021-03-20T17:32:56Z</time>
      </trkpt>
      <trkpt lat="56.3172" lon="-6.23303">
        <ele>2.57</ele>
        <time>2021-03-20T17:32:58Z</time>
      </trkpt>
      <trkpt lat="56.31719" lon="-6.23355">
        <ele>1.52</ele>
        <time>2021-03-20T17:33:00Z</time>
      </trkpt>
      <trkpt lat="56.3171" lon="-6.23385">
        <ele>1.52</ele>
        <time>2021-03-20T17:33:02Z</time>
      </trkpt>
      <trkpt lat="56.31698" lon="-6.23394">
        <ele>2.51</ele>
        <time>2021-03-20T17:33:04Z</time>
      </trkpt>
      <trkpt lat="56.31657" lon="-6.23389">
        <ele>3.38</ele>
        <time>2021-03-20T17:33:06Z</time>
      </trkpt>
      <trkpt lat="56.31646" lon="-6.23391">
        <ele>3.78</ele>
        <time>2021-03-20T17:33:08Z</time>
      </trkpt>
      <trkpt lat="56.31628" lon="-6.23414">
        <ele>3.89</ele>
        <time>2021-03-20T17:33:11Z</time>
      </trkpt>
      <trkpt lat="56.31616" lon="-6.23448">
        <ele>3.66</ele>
        <time>2021-03-20T17:33:13Z</time>
      </trkpt>
      <trkpt lat="56.31604" lon="-6.23501">
        <ele>3.03</ele>
        <time>2021-03-20T17:33:15Z</time>
      </trkpt>
      <trkpt lat="56.31565" lon="-6.2365">
        <ele>3.58</ele>
        <time>2021-03-20T17:33:17Z</time>
      </trkpt>
      <trkpt lat="56.31563" lon="-6.23686">
        <ele>4.65</ele>
        <time>2021-03-20T17:33:19Z</time>
      </trkpt>
      <trkpt lat="56.31565" lon="-6.23719">
        <ele>5.51</ele>
        <time>2021-03-20T17:33:21Z</time>
      </trkpt>
      <trkpt lat="56.31576" lon="-6.23755">
        <ele>7.12</ele>
        <time>2021-03-20T17:33:23Z</time>
      </trkpt>
      <trkpt lat="56.31589" lon="-6.2378">
        <ele>7.61</ele>
        <time>2021-03-20T17:33:25Z</time>
      </trkpt>
      <trkpt lat="56.31754" lon="-6.24024">
        <ele>10.58</ele>
        <time>2021-03-20T17:33:27Z</time>
      </trkpt>
      <trkpt lat="56.31785" lon="-6.24079">
        <ele>8.65</ele>
        <time>2021-03-20T17:33:29Z</time>
      </trkpt>
      <trkpt lat="56.31841" lon="-6.24219">
        <ele>10.89</ele>
        <time>2021-03-20T17:33:31Z</time>
      </trkpt>
      <trkpt lat="56.31884" lon="-6.24335">
        <ele>13.86</ele>
        <time>2021-03-20T17:33:33Z</time>
      </trkpt>
      <trkpt lat="56.319" lon="-6.24391">
        <ele>12.06</ele>
        <time>2021-03-20T17:33:35Z</time>
      </trkpt>
      <trkpt lat="56.31907" lon="-6.24446">
        <ele>10.72</ele>
        <time>2021-03-20T17:33:37Z</time>
      </trkpt>
      <trkpt lat="56.31907" lon="-6.24516">
        <ele>11.52</ele>
        <time>2021-03-20T17:33:40Z</time>
      </trkpt>
      <trkpt lat="56.31903" lon="-6.24534">
        <ele>12.67</ele>
        <time>2021-03-20T17:33:42Z</time>
      </trkpt>
      <trkpt lat="56.31886" lon="-6.24573">
        <ele>16.27</ele>
        <time>2021-03-20T17:33:44Z</time>
      </trkpt>
      <trkpt lat="56.3187" lon="-6.24621">
        <ele>11.15</ele>
        <time>2021-03-20T17:33:46Z</time>
      </trkpt>
      <trkpt lat="56.31858" lon="-6.2468">
        <ele>3.38</ele>
        <time>2021-03-20T17:33:48Z</time>
      </trkpt>
      <trkpt lat="56.31853" lon="-6.24714">
        <ele>3.65</ele>
        <time>2021-03-20T17:33:50Z</time>
      </trkpt>
      <trkpt lat="56.31853" lon="-6.24714">
        <ele>3.65</ele>
        <time>2021-03-20T17:33:50Z</time>
      </trkpt>
      <trkpt lat="56.31848" lon="-6.24746">
        <ele>3.93</ele>
        <time>2021-03-20T17:33:54Z</time>
      </trkpt>
      <trkpt lat="56.31841" lon="-6.24776">
        <ele>4.21</ele>
        <time>2021-03-20T17:33:58Z</time>
      </trkpt>
      <trkpt lat="56.31832" lon="-6.248">
        <ele>5.9</ele>
        <time>2021-03-20T17:34:02Z</time>
      </trkpt>
      <trkpt lat="56.31807" lon="-6.24839">
        <ele>8.35</ele>
        <time>2021-03-20T17:34:06Z</time>
      </trkpt>
      <trkpt lat="56.31791" lon="-6.24856">
        <ele>11.25</ele>
        <time>2021-03-20T17:34:10Z</time>
      </trkpt>
      <trkpt lat="56.31774" lon="-6.24864">
        <ele>13.68</ele>
        <time>2021-03-20T17:34:14Z</time>
      </trkpt>
      <trkpt lat="56.31719" lon="-6.24861">
        <ele>21.23</ele>
        <time>2021-03-20T17:34:18Z</time>
      </trkpt>
      <trkpt lat="56.31702" lon="-6.24866">
        <ele>22.49</ele>
        <time>2021-03-20T17:34:22Z</time>
      </trkpt>
      <trkpt lat="56.31673" lon="-6.24892">
        <ele>23.9</ele>
        <time>2021-03-20T17:34:26Z</time>
      </trkpt>
      <trkpt lat="56.3166" lon="-6.24908">
        <ele>24.6</ele>
        <time>2021-03-20T17:34:30Z</time>
      </trkpt>
      <trkpt lat="56.31647" lon="-6.24927">
        <ele>24.42</ele>
        <time>2021-03-20T17:34:34Z</time>
      </trkpt>
      <trkpt lat="56.31631" lon="-6.2496">
        <ele>25.42</ele>
        <time>2021-03-20T17:34:38Z</time>
      </trkpt>
      <trkpt lat="56.31597" lon="-6.25">
        <ele>28</ele>
        <time>2021-03-20T17:34:42Z</time>
      </trkpt>
      <trkpt lat="56.31522" lon="-6.25067">
        <ele>30.78</ele>
        <time>2021-03-20T17:34:46Z</time>
      </trkpt>
      <trkpt lat="56.31448" lon="-6.25126">
        <ele>33.21</ele>
        <time>2021-03-20T17:34:50Z</time>
      </trkpt>
      <trkpt lat="56.31418" lon="-6.25158">
        <ele>32.81</ele>
        <time>2021-03-20T17:34:54Z</time>
      </trkpt>
      <trkpt lat="56.31406" lon="-6.25175">
        <ele>32.91</ele>
        <time>2021-03-20T17:34:58Z</time>
      </trkpt>
      <trkpt lat="56.31392" lon="-6.25214">
        <ele>33.1</ele>
        <time>2021-03-20T17:35:02Z</time>
      </trkpt>
      <trkpt lat="56.31385" lon="-6.25274">
        <ele>33</ele>
        <time>2021-03-20T17:35:06Z</time>
      </trkpt>
      <trkpt lat="56.31389" lon="-6.25314">
        <ele>33.01</ele>
        <time>2021-03-20T17:35:10Z</time>
      </trkpt>
      <trkpt lat="56.31412" lon="-6.25432">
        <ele>36.07</ele>
        <time>2021-03-20T17:35:14Z</time>
      </trkpt>
      <trkpt lat="56.31434" lon="-6.25482">
        <ele>39.56</ele>
        <time>2021-03-20T17:35:18Z</time>
      </trkpt>
      <trkpt lat="56.31471" lon="-6.25538">
        <ele>43.36</ele>
        <time>2021-03-20T17:35:22Z</time>
      </trkpt>
      <trkpt lat="56.31506" lon="-6.25576">
        <ele>43.5</ele>
        <time>2021-03-20T17:35:26Z</time>
      </trkpt>
      <trkpt lat="56.31551" lon="-6.25618">
        <ele>43.41</ele>
        <time>2021-03-20T17:35:30Z</time>
      </trkpt>
      <trkpt lat="56.31582" lon="-6.25659">
        <ele>42.12</ele>
        <time>2021-03-20T17:35:34Z</time>
      </trkpt>
      <trkpt lat="56.31605" lon="-6.25716">
        <ele>39.6</ele>
        <time>2021-03-20T17:35:38Z</time>
      </trkpt>
      <trkpt lat="56.31629" lon="-6.25792">
        <ele>37.66</ele>
        <time>2021-03-20T17:35:42Z</time>
      </trkpt>
      <trkpt lat="56.31652" lon="-6.25882">
        <ele>34.76</ele>
        <time>2021-03-20T17:35:46Z</time>
      </trkpt>
      <trkpt lat="56.3171" lon="-6.26192">
        <ele>18.89</ele>
        <time>2021-03-20T17:35:50Z</time>
      </trkpt>
      <trkpt lat="56.31734" lon="-6.26354">
        <ele>14.31</ele>
        <time>2021-03-20T17:35:54Z</time>
      </trkpt>
      <trkpt lat="56.31732" lon="-6.26425">
        <ele>15.27</ele>
        <time>2021-03-20T17:35:58Z</time>
      </trkpt>
      <trkpt lat="56.31705" lon="-6.26909">
        <ele>10.88</ele>
        <time>2021-03-20T17:36:02Z</time>
      </trkpt>
      <trkpt lat="56.31708" lon="-6.27008">
        <ele>9.13</ele>
        <time>2021-03-20T17:36:06Z</time>
      </trkpt>
      <trkpt lat="56.3172" lon="-6.27102">
        <ele>10.92</ele>
        <time>2021-03-20T17:36:10Z</time>
      </trkpt>
      <trkpt lat="56.31736" lon="-6.27181">
        <ele>15.29</ele>
        <time>2021-03-20T17:36:14Z</time>
      </trkpt>
      <trkpt lat="56.31812" lon="-6.27441">
        <ele>24.75</ele>
        <time>2021-03-20T17:36:18Z</time>
      </trkpt>
      <trkpt lat="56.31835" lon="-6.27509">
        <ele>25.92</ele>
        <time>2021-03-20T17:36:21Z</time>
      </trkpt>
      <trkpt lat="56.31856" lon="-6.27596">
        <ele>25</ele>
        <time>2021-03-20T17:36:25Z</time>
      </trkpt>
      <trkpt lat="56.31928" lon="-6.27963">
        <ele>23.25</ele>
        <time>2021-03-20T17:36:29Z</time>
      </trkpt>
      <trkpt lat="56.31941" lon="-6.28043">
        <ele>24.62</ele>
        <time>2021-03-20T17:36:33Z</time>
      </trkpt>
      <trkpt lat="56.31954" lon="-6.28104">
        <ele>25</ele>
        <time>2021-03-20T17:36:37Z</time>
      </trkpt>
      <trkpt lat="56.32007" lon="-6.28313">
        <ele>24.81</ele>
        <time>2021-03-20T17:36:41Z</time>
      </trkpt>
      <trkpt lat="56.32028" lon="-6.2841">
        <ele>22.27</ele>
        <time>2021-03-20T17:36:45Z</time>
      </trkpt>
      <trkpt lat="56.32055" lon="-6.28568">
        <ele>18.52</ele>
        <time>2021-03-20T17:36:49Z</time>
      </trkpt>
      <trkpt lat="56.32072" lon="-6.28648">
        <ele>17.85</ele>
        <time>2021-03-20T17:36:53Z</time>
      </trkpt>
      <trkpt lat="56.321" lon="-6.28732">
        <ele>18.52</ele>
        <time>2021-03-20T17:36:57Z</time>
      </trkpt>
      <trkpt lat="56.3219" lon="-6.28952">
        <ele>18.23</ele>
        <time>2021-03-20T17:37:01Z</time>
      </trkpt>
      <trkpt lat="56.32247" lon="-6.29107">
        <ele>19.27</ele>
        <time>2021-03-20T17:37:05Z</time>
      </trkpt>
      <trkpt lat="56.32337" lon="-6.2942">
        <ele>19.65</ele>
        <time>2021-03-20T17:37:09Z</time>
      </trkpt>
      <trkpt lat="56.3237" lon="-6.29546">
        <ele>17</ele>
        <time>2021-03-20T17:37:13Z</time>
      </trkpt>
      <trkpt lat="56.32391" lon="-6.29648">
        <ele>14.64</ele>
        <time>2021-03-20T17:37:17Z</time>
      </trkpt>
      <trkpt lat="56.32422" lon="-6.29906">
        <ele>12.07</ele>
        <time>2021-03-20T17:37:21Z</time>
      </trkpt>
      <trkpt lat="56.32471" lon="-6.30341">
        <ele>13.82</ele>
        <time>2021-03-20T17:37:25Z</time>
      </trkpt>
      <trkpt lat="56.32479" lon="-6.30433">
        <ele>12.77</ele>
        <time>2021-03-20T17:37:29Z</time>
      </trkpt>
      <trkpt lat="56.32481" lon="-6.30523">
        <ele>13.67</ele>
        <time>2021-03-20T17:37:33Z</time>
      </trkpt>
      <trkpt lat="56.32478" lon="-6.30613">
        <ele>13.72</ele>
        <time>2021-03-20T17:37:37Z</time>
      </trkpt>
      <trkpt lat="56.32457" lon="-6.3098">
        <ele>18.1</ele>
        <time>2021-03-20T17:37:41Z</time>
      </trkpt>
      <trkpt lat="56.3248" lon="-6.3233">
        <ele>26.46</ele>
        <time>2021-03-20T17:37:45Z</time>
      </trkpt>
      <trkpt lat="56.32475" lon="-6.32416">
        <ele>26.03</ele>
        <time>2021-03-20T17:37:49Z</time>
      </trkpt>
      <trkpt lat="56.32457" lon="-6.32492">
        <ele>24.23</ele>
        <time>2021-03-20T17:37:53Z</time>
      </trkpt>
      <trkpt lat="56.32415" lon="-6.32651">
        <ele>19</ele>
        <time>2021-03-20T17:37:57Z</time>
      </trkpt>
      <trkpt lat="56.32409" lon="-6.32691">
        <ele>18.37</ele>
        <time>2021-03-20T17:38:01Z</time>
      </trkpt>
      <trkpt lat="56.32404" lon="-6.32734">
        <ele>18.44</ele>
        <time>2021-03-20T17:38:05Z</time>
      </trkpt>
      <trkpt lat="56.32406" lon="-6.32777">
        <ele>18.39</ele>
        <time>2021-03-20T17:38:09Z</time>
      </trkpt>
      <trkpt lat="56.32422" lon="-6.32927">
        <ele>21.8</ele>
        <time>2021-03-20T17:38:13Z</time>
      </trkpt>
      <trkpt lat="56.32465" lon="-6.33263">
        <ele>21</ele>
        <time>2021-03-20T17:38:17Z</time>
      </trkpt>
      <trkpt lat="56.32472" lon="-6.33337">
        <ele>20.14</ele>
        <time>2021-03-20T17:38:21Z</time>
      </trkpt>
      <trkpt lat="56.32484" lon="-6.33556">
        <ele>19.41</ele>
        <time>2021-03-20T17:38:25Z</time>
      </trkpt>
      <trkpt lat="56.32508" lon="-6.33843">
        <ele>16.22</ele>
        <time>2021-03-20T17:38:29Z</time>
      </trkpt>
      <trkpt lat="56.32509" lon="-6.33931">
        <ele>14.31</ele>
        <time>2021-03-20T17:38:33Z</time>
      </trkpt>
      <trkpt lat="56.32504" lon="-6.34438">
        <ele>14.16</ele>
        <time>2021-03-20T17:38:37Z</time>
      </trkpt>
      <trkpt lat="56.32506" lon="-6.34503">
        <ele>13.11</ele>
        <time>2021-03-20T17:38:41Z</time>
      </trkpt>
      <trkpt lat="56.32513" lon="-6.34699">
        <ele>14</ele>
        <time>2021-03-20T17:38:45Z</time>
      </trkpt>
      <trkpt lat="56.32513" lon="-6.34732">
        <ele>14.16</ele>
        <time>2021-03-20T17:38:49Z</time>
      </trkpt>
      <trkpt lat="56.3251" lon="-6.34778">
        <ele>14.37</ele>
        <time>2021-03-20T17:38:53Z</time>
      </trkpt>
      <trkpt lat="56.32502" lon="-6.34863">
        <ele>14.06</ele>
        <time>2021-03-20T17:38:57Z</time>
      </trkpt>
      <trkpt lat="56.32483" lon="-6.35012">
        <ele>16.44</ele>
        <time>2021-03-20T17:39:01Z</time>
      </trkpt>
      <trkpt lat="56.32472" lon="-6.35078">
        <ele>16.19</ele>
        <time>2021-03-20T17:39:05Z</time>
      </trkpt>
      <trkpt lat="56.32406" lon="-6.35427">
        <ele>17.61</ele>
        <time>2021-03-20T17:39:09Z</time>
      </trkpt>
      <trkpt lat="56.32395" lon="-6.35497">
        <ele>18</ele>
        <time>2021-03-20T17:39:13Z</time>
      </trkpt>
      <trkpt lat="56.32389" lon="-6.35554">
        <ele>17</ele>
        <time>2021-03-20T17:39:17Z</time>
      </trkpt>
      <trkpt lat="56.3238" lon="-6.35694">
        <ele>15.69</ele>
        <time>2021-03-20T17:39:21Z</time>
      </trkpt>
      <trkpt lat="56.32386" lon="-6.35779">
        <ele>14.94</ele>
        <time>2021-03-20T17:39:25Z</time>
      </trkpt>
      <trkpt lat="56.32398" lon="-6.35883">
        <ele>15</ele>
        <time>2021-03-20T17:39:29Z</time>
      </trkpt>
      <trkpt lat="56.32406" lon="-6.35927">
        <ele>15</ele>
        <time>2021-03-20T17:39:33Z</time>
      </trkpt>
      <trkpt lat="56.32417" lon="-6.35977">
        <ele>15</ele>
        <time>2021-03-20T17:39:37Z</time>
      </trkpt>
      <trkpt lat="56.32457" lon="-6.3614">
        <ele>16.08</ele>
        <time>2021-03-20T17:39:41Z</time>
      </trkpt>
      <trkpt lat="56.32474" lon="-6.36223">
        <ele>15.89</ele>
        <time>2021-03-20T17:39:45Z</time>
      </trkpt>
      <trkpt lat="56.32478" lon="-6.36263">
        <ele>16.16</ele>
        <time>2021-03-20T17:39:49Z</time>
      </trkpt>
      <trkpt lat="56.32489" lon="-6.36435">
        <ele>16.15</ele>
        <time>2021-03-20T17:39:53Z</time>
      </trkpt>
      <trkpt lat="56.32495" lon="-6.36501">
        <ele>15.3</ele>
        <time>2021-03-20T17:39:57Z</time>
      </trkpt>
      <trkpt lat="56.32525" lon="-6.36685">
        <ele>7.75</ele>
        <time>2021-03-20T17:40:01Z</time>
      </trkpt>
      <trkpt lat="56.32529" lon="-6.36738">
        <ele>6.84</ele>
        <time>2021-03-20T17:40:05Z</time>
      </trkpt>
      <trkpt lat="56.32532" lon="-6.36896">
        <ele>6.18</ele>
        <time>2021-03-20T17:40:09Z</time>
      </trkpt>
      <trkpt lat="56.32532" lon="-6.36896">
        <ele>6.18</ele>
        <time>2021-03-20T17:40:09Z</time>
      </trkpt>
      <trkpt lat="56.32532" lon="-6.36928">
        <ele>5.52</ele>
        <time>2021-03-20T17:40:11Z</time>
      </trkpt>
      <trkpt lat="56.32534" lon="-6.3694">
        <ele>5.3</ele>
        <time>2021-03-20T17:40:14Z</time>
      </trkpt>
      <trkpt lat="56.32542" lon="-6.36956">
        <ele>4.7</ele>
        <time>2021-03-20T17:40:16Z</time>
      </trkpt>
      <trkpt lat="56.3259" lon="-6.37021">
        <ele>1.77</ele>
        <time>2021-03-20T17:40:18Z</time>
      </trkpt>
      <trkpt lat="56.3259" lon="-6.37021">
        <ele>1.77</ele>
        <time>2021-03-20T17:40:18Z</time>
      </trkpt>
      <trkpt lat="56.3259" lon="-6.37021">
        <ele>1.77</ele>
        <time>2021-03-20T17:40:18Z</time>
      </trkpt>
      <trkpt lat="56.3259" lon="-6.37021">
        <ele>1.77</ele>
        <time>2021-03-20T17:40:18Z</time>
      </trkpt>
      <trkpt lat="56.32542" lon="-6.36956">
        <ele>4.7</ele>
        <time>2021-03-20T17:40:21Z</time>
      </trkpt>
      <trkpt lat="56.32534" lon="-6.3694">
        <ele>5.3</ele>
        <time>2021-03-20T17:40:24Z</time>
      </trkpt>
      <trkpt lat="56.32532" lon="-6.36928">
        <ele>5.52</ele>
        <time>2021-03-20T17:40:27Z</time>
      </trkpt>
      <trkpt lat="56.32529" lon="-6.36738">
        <ele>6.84</ele>
        <time>2021-03-20T17:40:30Z</time>
      </trkpt>
      <trkpt lat="56.32525" lon="-6.36685">
        <ele>7.75</ele>
        <time>2021-03-20T17:40:33Z</time>
      </trkpt>
      <trkpt lat="56.32495" lon="-6.36501">
        <ele>15.3</ele>
        <time>2021-03-20T17:40:37Z</time>
      </trkpt>
      <trkpt lat="56.32489" lon="-6.36435">
        <ele>16.15</ele>
        <time>2021-03-20T17:40:40Z</time>
      </trkpt>
      <trkpt lat="56.32478" lon="-6.36263">
        <ele>16.16</ele>
        <time>2021-03-20T17:40:43Z</time>
      </trkpt>
      <trkpt lat="56.32474" lon="-6.36223">
        <ele>15.89</ele>
        <time>2021-03-20T17:40:46Z</time>
      </trkpt>
      <trkpt lat="56.32457" lon="-6.3614">
        <ele>16.08</ele>
        <time>2021-03-20T17:40:49Z</time>
      </trkpt>
      <trkpt lat="56.32417" lon="-6.35977">
        <ele>15</ele>
        <time>2021-03-20T17:40:52Z</time>
      </trkpt>
      <trkpt lat="56.32406" lon="-6.35927">
        <ele>15</ele>
        <time>2021-03-20T17:40:55Z</time>
      </trkpt>
      <trkpt lat="56.32398" lon="-6.35883">
        <ele>15</ele>
        <time>2021-03-20T17:40:58Z</time>
      </trkpt>
      <trkpt lat="56.32386" lon="-6.35779">
        <ele>14.94</ele>
        <time>2021-03-20T17:41:01Z</time>
      </trkpt>
      <trkpt lat="56.32397" lon="-6.35772">
        <ele>15.29</ele>
        <time>2021-03-20T17:41:10Z</time>
      </trkpt>
      <trkpt lat="56.3241" lon="-6.35732">
        <ele>16.44</ele>
        <time>2021-03-20T17:41:20Z</time>
      </trkpt>
      <trkpt lat="56.32417" lon="-6.35719">
        <ele>17.02</ele>
        <time>2021-03-20T17:41:29Z</time>
      </trkpt>
      <trkpt lat="56.32453" lon="-6.35698">
        <ele>18</ele>
        <time>2021-03-20T17:41:39Z</time>
      </trkpt>
      <trkpt lat="56.32486" lon="-6.35666">
        <ele>18</ele>
        <time>2021-03-20T17:41:48Z</time>
      </trkpt>
      <trkpt lat="56.32532" lon="-6.35642">
        <ele>16.84</ele>
        <time>2021-03-20T17:41:58Z</time>
      </trkpt>
      <trkpt lat="56.32566" lon="-6.35643">
        <ele>15.23</ele>
        <time>2021-03-20T17:42:07Z</time>
      </trkpt>
      <trkpt lat="56.32587" lon="-6.35633">
        <ele>14.22</ele>
        <time>2021-03-20T17:42:17Z</time>
      </trkpt>
      <trkpt lat="56.32612" lon="-6.35611">
        <ele>15</ele>
        <time>2021-03-20T17:42:26Z</time>
      </trkpt>
      <trkpt lat="56.32627" lon="-6.35604">
        <ele>15</ele>
        <time>2021-03-20T17:42:36Z</time>
      </trkpt>
      <trkpt lat="56.32646" lon="-6.35605">
        <ele>15.27</ele>
        <time>2021-03-20T17:42:45Z</time>
      </trkpt>
      <trkpt lat="56.32661" lon="-6.35623">
        <ele>15.37</ele>
        <time>2021-03-20T17:42:55Z</time>
      </trkpt>
      <trkpt lat="56.32795" lon="-6.35855">
        <ele>21.26</ele>
        <time>2021-03-20T17:43:04Z</time>
      </trkpt>
      <trkpt lat="56.32801" lon="-6.35875">
        <ele>21.7</ele>
        <time>2021-03-20T17:43:14Z</time>
      </trkpt>
      <trkpt lat="56.32805" lon="-6.35908">
        <ele>22.69</ele>
        <time>2021-03-20T17:43:23Z</time>
      </trkpt>
      <trkpt lat="56.32809" lon="-6.35921">
        <ele>23.24</ele>
        <time>2021-03-20T17:43:32Z</time>
      </trkpt>
      <trkpt lat="56.32841" lon="-6.35965">
        <ele>27.27</ele>
        <time>2021-03-20T17:43:42Z</time>
      </trkpt>
      <trkpt lat="56.32855" lon="-6.35973">
        <ele>28.56</ele>
        <time>2021-03-20T17:43:51Z</time>
      </trkpt>
      <trkpt lat="56.32866" lon="-6.35984">
        <ele>30</ele>
        <time>2021-03-20T17:44:01Z</time>
      </trkpt>
      <trkpt lat="56.32898" lon="-6.36041">
        <ele>36.13</ele>
        <time>2021-03-20T17:44:10Z</time>
      </trkpt>
      <trkpt lat="56.32904" lon="-6.36055">
        <ele>37.69</ele>
        <time>2021-03-20T17:44:20Z</time>
      </trkpt>
      <trkpt lat="56.32908" lon="-6.36073">
        <ele>38.65</ele>
        <time>2021-03-20T17:44:29Z</time>
      </trkpt>
      <trkpt lat="56.32913" lon="-6.36084">
        <ele>40.08</ele>
        <time>2021-03-20T17:44:39Z</time>
      </trkpt>
      <trkpt lat="56.32922" lon="-6.36084">
        <ele>42.07</ele>
        <time>2021-03-20T17:44:48Z</time>
      </trkpt>
      <trkpt lat="56.32937" lon="-6.36071">
        <ele>44.59</ele>
        <time>2021-03-20T17:44:58Z</time>
      </trkpt>
      <trkpt lat="56.32957" lon="-6.36072">
        <ele>47.89</ele>
        <time>2021-03-20T17:45:07Z</time>
      </trkpt>
      <trkpt lat="56.32981" lon="-6.36086">
        <ele>52.41</ele>
        <time>2021-03-20T17:45:17Z</time>
      </trkpt>
      <trkpt lat="56.33027" lon="-6.36131">
        <ele>59.37</ele>
        <time>2021-03-20T17:45:26Z</time>
      </trkpt>
      <trkpt lat="56.33042" lon="-6.36139">
        <ele>59.52</ele>
        <time>2021-03-20T17:45:36Z</time>
      </trkpt>
      <trkpt lat="56.33045" lon="-6.36126">
        <ele>58.46</ele>
        <time>2021-03-20T17:45:59Z</time>
      </trkpt>
      <trkpt lat="56.33055" lon="-6.36114">
        <ele>57.22</ele>
        <time>2021-03-20T17:46:22Z</time>
      </trkpt>
      <trkpt lat="56.33079" lon="-6.36108">
        <ele>55.4</ele>
        <time>2021-03-20T17:46:46Z</time>
      </trkpt>
      <trkpt lat="56.3309" lon="-6.36115">
        <ele>54.62</ele>
        <time>2021-03-20T17:47:09Z</time>
      </trkpt>
      <trkpt lat="56.33101" lon="-6.3613">
        <ele>53.56</ele>
        <time>2021-03-20T17:47:32Z</time>
      </trkpt>
      <trkpt lat="56.33143" lon="-6.3617">
        <ele>45.44</ele>
        <time>2021-03-20T17:47:56Z</time>
      </trkpt>
      <trkpt lat="56.33147" lon="-6.36184">
        <ele>44.25</ele>
        <time>2021-03-20T17:48:19Z</time>
      </trkpt>
      <trkpt lat="56.33134" lon="-6.36248">
        <ele>45.29</ele>
        <time>2021-03-20T17:48:42Z</time>
      </trkpt>
      <trkpt lat="56.33141" lon="-6.36281">
        <ele>43.6</ele>
        <time>2021-03-20T17:49:06Z</time>
      </trkpt>
      <trkpt lat="56.3314" lon="-6.36295">
        <ele>43.24</ele>
        <time>2021-03-20T17:49:29Z</time>
      </trkpt>
      <trkpt lat="56.33146" lon="-6.3631">
        <ele>41.99</ele>
        <time>2021-03-20T17:49:52Z</time>
      </trkpt>
      <trkpt lat="56.33161" lon="-6.3633">
        <ele>39.89</ele>
        <time>2021-03-20T17:50:16Z</time>
      </trkpt>
      <trkpt lat="56.33176" lon="-6.36391">
        <ele>37.34</ele>
        <time>2021-03-20T17:50:39Z</time>
      </trkpt>
      <trkpt lat="56.33226" lon="-6.36569">
        <ele>22.35</ele>
        <time>2021-03-20T17:51:02Z</time>
      </trkpt>
      <trkpt lat="56.33244" lon="-6.36623">
        <ele>15.11</ele>
        <time>2021-03-20T17:51:26Z</time>
      </trkpt>
      <trkpt lat="56.33256" lon="-6.36669">
        <ele>11.81</ele>
        <time>2021-03-20T17:51:49Z</time>
      </trkpt>
      <trkpt lat="56.33266" lon="-6.367">
        <ele>8.98</ele>
        <time>2021-03-20T17:52:12Z</time>
      </trkpt>
      <trkpt lat="56.33271" lon="-6.36731">
        <ele>6.64</ele>
        <time>2021-03-20T17:52:35Z</time>
      </trkpt>
      <trkpt lat="56.33271" lon="-6.36769">
        <ele>3.9</ele>
        <time>2021-03-20T17:52:59Z</time>
      </trkpt>
      <trkpt lat="56.33267" lon="-6.36793">
        <ele>2.85</ele>
        <time>2021-03-20T17:53:22Z</time>
      </trkpt>
      <trkpt lat="56.33267" lon="-6.36793">
        <ele>2.85</ele>
        <time>2021-03-20T17:53:22Z</time>
      </trkpt>
    </trkseg>
  </trk>
  <trk>
    <name><![CDATA[J04 - Fionnphort Ferry Terminal, Fionnphort - Portree]]></name>
    <trkseg>
      <trkpt lat="56.32588" lon="-6.37018">
        <ele>3.23</ele>
        <time>2021-03-20T14:19:32Z</time>
      </trkpt>
      <trkpt lat="56.32542" lon="-6.36956">
        <ele>4.7</ele>
        <time>2021-03-20T14:19:36Z</time>
      </trkpt>
      <trkpt lat="56.32534" lon="-6.3694">
        <ele>5.3</ele>
        <time>2021-03-20T14:19:41Z</time>
      </trkpt>
      <trkpt lat="56.32532" lon="-6.36928">
        <ele>5.52</ele>
        <time>2021-03-20T14:19:45Z</time>
      </trkpt>
      <trkpt lat="56.32529" lon="-6.36738">
        <ele>6.84</ele>
        <time>2021-03-20T14:19:50Z</time>
      </trkpt>
      <trkpt lat="56.32525" lon="-6.36685">
        <ele>7.75</ele>
        <time>2021-03-20T14:19:54Z</time>
      </trkpt>
      <trkpt lat="56.32495" lon="-6.36501">
        <ele>15.3</ele>
        <time>2021-03-20T14:19:59Z</time>
      </trkpt>
      <trkpt lat="56.32489" lon="-6.36435">
        <ele>16.15</ele>
        <time>2021-03-20T14:20:03Z</time>
      </trkpt>
      <trkpt lat="56.32478" lon="-6.36263">
        <ele>16.16</ele>
        <time>2021-03-20T14:20:08Z</time>
      </trkpt>
      <trkpt lat="56.32474" lon="-6.36223">
        <ele>15.89</ele>
        <time>2021-03-20T14:20:12Z</time>
      </trkpt>
      <trkpt lat="56.32457" lon="-6.3614">
        <ele>16.08</ele>
        <time>2021-03-20T14:20:17Z</time>
      </trkpt>
      <trkpt lat="56.32417" lon="-6.35977">
        <ele>15</ele>
        <time>2021-03-20T14:20:21Z</time>
      </trkpt>
      <trkpt lat="56.32406" lon="-6.35927">
        <ele>15</ele>
        <time>2021-03-20T14:20:26Z</time>
      </trkpt>
      <trkpt lat="56.32398" lon="-6.35883">
        <ele>15</ele>
        <time>2021-03-20T14:20:31Z</time>
      </trkpt>
      <trkpt lat="56.32386" lon="-6.35779">
        <ele>14.94</ele>
        <time>2021-03-20T14:20:35Z</time>
      </trkpt>
      <trkpt lat="56.3238" lon="-6.35694">
        <ele>15.69</ele>
        <time>2021-03-20T14:20:40Z</time>
      </trkpt>
      <trkpt lat="56.32389" lon="-6.35554">
        <ele>17</ele>
        <time>2021-03-20T14:20:44Z</time>
      </trkpt>
      <trkpt lat="56.32395" lon="-6.35497">
        <ele>18</ele>
        <time>2021-03-20T14:20:49Z</time>
      </trkpt>
      <trkpt lat="56.32406" lon="-6.35427">
        <ele>17.61</ele>
        <time>2021-03-20T14:20:53Z</time>
      </trkpt>
      <trkpt lat="56.32472" lon="-6.35078">
        <ele>16.19</ele>
        <time>2021-03-20T14:20:58Z</time>
      </trkpt>
      <trkpt lat="56.32483" lon="-6.35012">
        <ele>16.44</ele>
        <time>2021-03-20T14:21:02Z</time>
      </trkpt>
      <trkpt lat="56.32502" lon="-6.34863">
        <ele>14.06</ele>
        <time>2021-03-20T14:21:07Z</time>
      </trkpt>
      <trkpt lat="56.3251" lon="-6.34778">
        <ele>14.37</ele>
        <time>2021-03-20T14:21:11Z</time>
      </trkpt>
      <trkpt lat="56.32513" lon="-6.34732">
        <ele>14.16</ele>
        <time>2021-03-20T14:21:16Z</time>
      </trkpt>
      <trkpt lat="56.32513" lon="-6.34699">
        <ele>14</ele>
        <time>2021-03-20T14:21:20Z</time>
      </trkpt>
      <trkpt lat="56.32506" lon="-6.34503">
        <ele>13.11</ele>
        <time>2021-03-20T14:21:25Z</time>
      </trkpt>
      <trkpt lat="56.32504" lon="-6.34438">
        <ele>14.16</ele>
        <time>2021-03-20T14:21:29Z</time>
      </trkpt>
      <trkpt lat="56.32509" lon="-6.33931">
        <ele>14.31</ele>
        <time>2021-03-20T14:21:34Z</time>
      </trkpt>
      <trkpt lat="56.32508" lon="-6.33843">
        <ele>16.22</ele>
        <time>2021-03-20T14:21:38Z</time>
      </trkpt>
      <trkpt lat="56.32484" lon="-6.33556">
        <ele>19.41</ele>
        <time>2021-03-20T14:21:43Z</time>
      </trkpt>
      <trkpt lat="56.32472" lon="-6.33337">
        <ele>20.14</ele>
        <time>2021-03-20T14:21:47Z</time>
      </trkpt>
      <trkpt lat="56.32465" lon="-6.33263">
        <ele>21</ele>
        <time>2021-03-20T14:21:52Z</time>
      </trkpt>
      <trkpt lat="56.32422" lon="-6.32927">
        <ele>21.8</ele>
        <time>2021-03-20T14:21:57Z</time>
      </trkpt>
      <trkpt lat="56.32406" lon="-6.32777">
        <ele>18.39</ele>
        <time>2021-03-20T14:22:01Z</time>
      </trkpt>
      <trkpt lat="56.32404" lon="-6.32734">
        <ele>18.44</ele>
        <time>2021-03-20T14:22:06Z</time>
      </trkpt>
      <trkpt lat="56.32409" lon="-6.32691">
        <ele>18.37</ele>
        <time>2021-03-20T14:22:10Z</time>
      </trkpt>
      <trkpt lat="56.32415" lon="-6.32651">
        <ele>19</ele>
        <time>2021-03-20T14:22:15Z</time>
      </trkpt>
      <trkpt lat="56.32457" lon="-6.32492">
        <ele>24.23</ele>
        <time>2021-03-20T14:22:19Z</time>
      </trkpt>
      <trkpt lat="56.32475" lon="-6.32416">
        <ele>26.03</ele>
        <time>2021-03-20T14:22:24Z</time>
      </trkpt>
      <trkpt lat="56.3248" lon="-6.3233">
        <ele>26.46</ele>
        <time>2021-03-20T14:22:28Z</time>
      </trkpt>
      <trkpt lat="56.32457" lon="-6.3098">
        <ele>18.1</ele>
        <time>2021-03-20T14:22:33Z</time>
      </trkpt>
      <trkpt lat="56.32478" lon="-6.30613">
        <ele>13.72</ele>
        <time>2021-03-20T14:22:37Z</time>
      </trkpt>
      <trkpt lat="56.32481" lon="-6.30523">
        <ele>13.67</ele>
        <time>2021-03-20T14:22:42Z</time>
      </trkpt>
      <trkpt lat="56.32479" lon="-6.30433">
        <ele>12.77</ele>
        <time>2021-03-20T14:22:46Z</time>
      </trkpt>
      <trkpt lat="56.32471" lon="-6.30341">
        <ele>13.82</ele>
        <time>2021-03-20T14:22:51Z</time>
      </trkpt>
      <trkpt lat="56.32422" lon="-6.29906">
        <ele>12.07</ele>
        <time>2021-03-20T14:22:55Z</time>
      </trkpt>
      <trkpt lat="56.32391" lon="-6.29648">
        <ele>14.64</ele>
        <time>2021-03-20T14:23:00Z</time>
      </trkpt>
      <trkpt lat="56.3237" lon="-6.29546">
        <ele>17</ele>
        <time>2021-03-20T14:23:04Z</time>
      </trkpt>
      <trkpt lat="56.32337" lon="-6.2942">
        <ele>19.65</ele>
        <time>2021-03-20T14:23:09Z</time>
      </trkpt>
      <trkpt lat="56.32247" lon="-6.29107">
        <ele>19.27</ele>
        <time>2021-03-20T14:23:13Z</time>
      </trkpt>
      <trkpt lat="56.3219" lon="-6.28952">
        <ele>18.23</ele>
        <time>2021-03-20T14:23:18Z</time>
      </trkpt>
      <trkpt lat="56.321" lon="-6.28732">
        <ele>18.52</ele>
        <time>2021-03-20T14:23:22Z</time>
      </trkpt>
      <trkpt lat="56.32072" lon="-6.28648">
        <ele>17.85</ele>
        <time>2021-03-20T14:23:27Z</time>
      </trkpt>
      <trkpt lat="56.32055" lon="-6.28568">
        <ele>18.52</ele>
        <time>2021-03-20T14:23:32Z</time>
      </trkpt>
      <trkpt lat="56.32028" lon="-6.2841">
        <ele>22.27</ele>
        <time>2021-03-20T14:23:36Z</time>
      </trkpt>
      <trkpt lat="56.32007" lon="-6.28313">
        <ele>24.81</ele>
        <time>2021-03-20T14:23:41Z</time>
      </trkpt>
      <trkpt lat="56.31954" lon="-6.28104">
        <ele>25</ele>
        <time>2021-03-20T14:23:45Z</time>
      </trkpt>
      <trkpt lat="56.31941" lon="-6.28043">
        <ele>24.62</ele>
        <time>2021-03-20T14:23:50Z</time>
      </trkpt>
      <trkpt lat="56.31928" lon="-6.27963">
        <ele>23.25</ele>
        <time>2021-03-20T14:23:54Z</time>
      </trkpt>
      <trkpt lat="56.31856" lon="-6.27596">
        <ele>25</ele>
        <time>2021-03-20T14:23:59Z</time>
      </trkpt>
      <trkpt lat="56.31835" lon="-6.27509">
        <ele>25.92</ele>
        <time>2021-03-20T14:24:03Z</time>
      </trkpt>
      <trkpt lat="56.31812" lon="-6.27441">
        <ele>24.75</ele>
        <time>2021-03-20T14:24:08Z</time>
      </trkpt>
      <trkpt lat="56.31736" lon="-6.27181">
        <ele>15.29</ele>
        <time>2021-03-20T14:24:12Z</time>
      </trkpt>
      <trkpt lat="56.3172" lon="-6.27102">
        <ele>10.92</ele>
        <time>2021-03-20T14:24:17Z</time>
      </trkpt>
      <trkpt lat="56.31708" lon="-6.27008">
        <ele>9.13</ele>
        <time>2021-03-20T14:24:21Z</time>
      </trkpt>
      <trkpt lat="56.31705" lon="-6.26909">
        <ele>10.88</ele>
        <time>2021-03-20T14:24:26Z</time>
      </trkpt>
      <trkpt lat="56.31732" lon="-6.26425">
        <ele>15.27</ele>
        <time>2021-03-20T14:24:30Z</time>
      </trkpt>
      <trkpt lat="56.31734" lon="-6.26354">
        <ele>14.31</ele>
        <time>2021-03-20T14:24:35Z</time>
      </trkpt>
      <trkpt lat="56.3171" lon="-6.26192">
        <ele>18.89</ele>
        <time>2021-03-20T14:24:39Z</time>
      </trkpt>
      <trkpt lat="56.31652" lon="-6.25882">
        <ele>34.76</ele>
        <time>2021-03-20T14:24:44Z</time>
      </trkpt>
      <trkpt lat="56.31629" lon="-6.25792">
        <ele>37.66</ele>
        <time>2021-03-20T14:24:48Z</time>
      </trkpt>
      <trkpt lat="56.31605" lon="-6.25716">
        <ele>39.6</ele>
        <time>2021-03-20T14:24:53Z</time>
      </trkpt>
      <trkpt lat="56.31582" lon="-6.25659">
        <ele>42.12</ele>
        <time>2021-03-20T14:24:58Z</time>
      </trkpt>
      <trkpt lat="56.31551" lon="-6.25618">
        <ele>43.41</ele>
        <time>2021-03-20T14:25:02Z</time>
      </trkpt>
      <trkpt lat="56.31506" lon="-6.25576">
        <ele>43.5</ele>
        <time>2021-03-20T14:25:07Z</time>
      </trkpt>
      <trkpt lat="56.31471" lon="-6.25538">
        <ele>43.36</ele>
        <time>2021-03-20T14:25:11Z</time>
      </trkpt>
      <trkpt lat="56.31434" lon="-6.25482">
        <ele>39.56</ele>
        <time>2021-03-20T14:25:16Z</time>
      </trkpt>
      <trkpt lat="56.31412" lon="-6.25432">
        <ele>36.07</ele>
        <time>2021-03-20T14:25:20Z</time>
      </trkpt>
      <trkpt lat="56.31389" lon="-6.25314">
        <ele>33.01</ele>
        <time>2021-03-20T14:25:25Z</time>
      </trkpt>
      <trkpt lat="56.31385" lon="-6.25274">
        <ele>33</ele>
        <time>2021-03-20T14:25:29Z</time>
      </trkpt>
      <trkpt lat="56.31363" lon="-6.25146">
        <ele>31.27</ele>
        <time>2021-03-20T14:25:36Z</time>
      </trkpt>
      <trkpt lat="56.31366" lon="-6.24927">
        <ele>24.69</ele>
        <time>2021-03-20T14:25:43Z</time>
      </trkpt>
      <trkpt lat="56.3136" lon="-6.24884">
        <ele>28.35</ele>
        <time>2021-03-20T14:25:49Z</time>
      </trkpt>
      <trkpt lat="56.31308" lon="-6.24786">
        <ele>32.48</ele>
        <time>2021-03-20T14:25:56Z</time>
      </trkpt>
      <trkpt lat="56.31298" lon="-6.2476">
        <ele>33.81</ele>
        <time>2021-03-20T14:26:03Z</time>
      </trkpt>
      <trkpt lat="56.3127" lon="-6.24638">
        <ele>39.24</ele>
        <time>2021-03-20T14:26:09Z</time>
      </trkpt>
      <trkpt lat="56.31269" lon="-6.24613">
        <ele>39.98</ele>
        <time>2021-03-20T14:26:16Z</time>
      </trkpt>
      <trkpt lat="56.31274" lon="-6.24591">
        <ele>40.6</ele>
        <time>2021-03-20T14:26:23Z</time>
      </trkpt>
      <trkpt lat="56.31295" lon="-6.24535">
        <ele>43.42</ele>
        <time>2021-03-20T14:26:29Z</time>
      </trkpt>
      <trkpt lat="56.31448" lon="-6.24153">
        <ele>43</ele>
        <time>2021-03-20T14:26:36Z</time>
      </trkpt>
      <trkpt lat="56.31473" lon="-6.24063">
        <ele>42.22</ele>
        <time>2021-03-20T14:26:43Z</time>
      </trkpt>
      <trkpt lat="56.3148" lon="-6.24033">
        <ele>39.81</ele>
        <time>2021-03-20T14:26:49Z</time>
      </trkpt>
      <trkpt lat="56.31483" lon="-6.24002">
        <ele>37.01</ele>
        <time>2021-03-20T14:26:56Z</time>
      </trkpt>
      <trkpt lat="56.31481" lon="-6.23823">
        <ele>24.71</ele>
        <time>2021-03-20T14:27:03Z</time>
      </trkpt>
      <trkpt lat="56.31486" lon="-6.23613">
        <ele>17.01</ele>
        <time>2021-03-20T14:27:09Z</time>
      </trkpt>
      <trkpt lat="56.3149" lon="-6.23583">
        <ele>16.54</ele>
        <time>2021-03-20T14:27:16Z</time>
      </trkpt>
      <trkpt lat="56.31506" lon="-6.23559">
        <ele>15.06</ele>
        <time>2021-03-20T14:27:23Z</time>
      </trkpt>
      <trkpt lat="56.31548" lon="-6.23529">
        <ele>8.57</ele>
        <time>2021-03-20T14:27:29Z</time>
      </trkpt>
      <trkpt lat="56.3157" lon="-6.23536">
        <ele>5.2</ele>
        <time>2021-03-20T14:27:36Z</time>
      </trkpt>
      <trkpt lat="56.31599" lon="-6.23518">
        <ele>5.98</ele>
        <time>2021-03-20T14:27:43Z</time>
      </trkpt>
      <trkpt lat="56.31616" lon="-6.23448">
        <ele>3.66</ele>
        <time>2021-03-20T14:27:46Z</time>
      </trkpt>
      <trkpt lat="56.31628" lon="-6.23414">
        <ele>3.89</ele>
        <time>2021-03-20T14:27:49Z</time>
      </trkpt>
      <trkpt lat="56.31646" lon="-6.23391">
        <ele>3.78</ele>
        <time>2021-03-20T14:27:52Z</time>
      </trkpt>
      <trkpt lat="56.31657" lon="-6.23389">
        <ele>3.38</ele>
        <time>2021-03-20T14:27:55Z</time>
      </trkpt>
      <trkpt lat="56.31698" lon="-6.23394">
        <ele>2.51</ele>
        <time>2021-03-20T14:27:58Z</time>
      </trkpt>
      <trkpt lat="56.3171" lon="-6.23385">
        <ele>1.52</ele>
        <time>2021-03-20T14:28:01Z</time>
      </trkpt>
      <trkpt lat="56.31719" lon="-6.23355">
        <ele>1.52</ele>
        <time>2021-03-20T14:28:05Z</time>
      </trkpt>
      <trkpt lat="56.3172" lon="-6.23303">
        <ele>2.57</ele>
        <time>2021-03-20T14:28:08Z</time>
      </trkpt>
      <trkpt lat="56.31714" lon="-6.23225">
        <ele>5.15</ele>
        <time>2021-03-20T14:28:11Z</time>
      </trkpt>
      <trkpt lat="56.31705" lon="-6.23172">
        <ele>5.95</ele>
        <time>2021-03-20T14:28:14Z</time>
      </trkpt>
      <trkpt lat="56.31684" lon="-6.23107">
        <ele>6.7</ele>
        <time>2021-03-20T14:28:17Z</time>
      </trkpt>
      <trkpt lat="56.31659" lon="-6.23048">
        <ele>6.77</ele>
        <time>2021-03-20T14:28:20Z</time>
      </trkpt>
      <trkpt lat="56.31632" lon="-6.2297">
        <ele>8.54</ele>
        <time>2021-03-20T14:28:23Z</time>
      </trkpt>
      <trkpt lat="56.3159" lon="-6.22806">
        <ele>12.47</ele>
        <time>2021-03-20T14:28:27Z</time>
      </trkpt>
      <trkpt lat="56.31578" lon="-6.22755">
        <ele>14.27</ele>
        <time>2021-03-20T14:28:30Z</time>
      </trkpt>
      <trkpt lat="56.31569" lon="-6.22704">
        <ele>15.15</ele>
        <time>2021-03-20T14:28:33Z</time>
      </trkpt>
      <trkpt lat="56.31564" lon="-6.22655">
        <ele>16.15</ele>
        <time>2021-03-20T14:28:36Z</time>
      </trkpt>
      <trkpt lat="56.31561" lon="-6.22609">
        <ele>16.71</ele>
        <time>2021-03-20T14:28:39Z</time>
      </trkpt>
      <trkpt lat="56.31565" lon="-6.22538">
        <ele>17.98</ele>
        <time>2021-03-20T14:28:42Z</time>
      </trkpt>
      <trkpt lat="56.31569" lon="-6.22495">
        <ele>19.4</ele>
        <time>2021-03-20T14:28:46Z</time>
      </trkpt>
      <trkpt lat="56.31575" lon="-6.22452">
        <ele>20.84</ele>
        <time>2021-03-20T14:28:49Z</time>
      </trkpt>
      <trkpt lat="56.3159" lon="-6.22394">
        <ele>22.29</ele>
        <time>2021-03-20T14:28:52Z</time>
      </trkpt>
      <trkpt lat="56.31627" lon="-6.22307">
        <ele>23.56</ele>
        <time>2021-03-20T14:28:55Z</time>
      </trkpt>
      <trkpt lat="56.3166" lon="-6.22241">
        <ele>23</ele>
        <time>2021-03-20T14:28:58Z</time>
      </trkpt>
      <trkpt lat="56.31694" lon="-6.22179">
        <ele>22.44</ele>
        <time>2021-03-20T14:29:01Z</time>
      </trkpt>
      <trkpt lat="56.3173" lon="-6.22126">
        <ele>23.13</ele>
        <time>2021-03-20T14:29:04Z</time>
      </trkpt>
      <trkpt lat="56.31961" lon="-6.21826">
        <ele>26.42</ele>
        <time>2021-03-20T14:29:08Z</time>
      </trkpt>
      <trkpt lat="56.32099" lon="-6.21641">
        <ele>21.39</ele>
        <time>2021-03-20T14:29:11Z</time>
      </trkpt>
      <trkpt lat="56.32136" lon="-6.21577">
        <ele>23.56</ele>
        <time>2021-03-20T14:29:14Z</time>
      </trkpt>
      <trkpt lat="56.32163" lon="-6.21507">
        <ele>26.54</ele>
        <time>2021-03-20T14:29:17Z</time>
      </trkpt>
      <trkpt lat="56.32179" lon="-6.21451">
        <ele>28.33</ele>
        <time>2021-03-20T14:29:20Z</time>
      </trkpt>
      <trkpt lat="56.32259" lon="-6.2112">
        <ele>30.37</ele>
        <time>2021-03-20T14:29:23Z</time>
      </trkpt>
      <trkpt lat="56.32284" lon="-6.21033">
        <ele>26.77</ele>
        <time>2021-03-20T14:29:26Z</time>
      </trkpt>
      <trkpt lat="56.32353" lon="-6.20873">
        <ele>26.48</ele>
        <time>2021-03-20T14:29:30Z</time>
      </trkpt>
      <trkpt lat="56.32431" lon="-6.20695">
        <ele>25.94</ele>
        <time>2021-03-20T14:29:33Z</time>
      </trkpt>
      <trkpt lat="56.32643" lon="-6.20321">
        <ele>30.82</ele>
        <time>2021-03-20T14:29:36Z</time>
      </trkpt>
      <trkpt lat="56.32714" lon="-6.20185">
        <ele>35.63</ele>
        <time>2021-03-20T14:29:39Z</time>
      </trkpt>
      <trkpt lat="56.32754" lon="-6.20085">
        <ele>37.33</ele>
        <time>2021-03-20T14:29:42Z</time>
      </trkpt>
      <trkpt lat="56.32804" lon="-6.19983">
        <ele>34.16</ele>
        <time>2021-03-20T14:29:45Z</time>
      </trkpt>
      <trkpt lat="56.32829" lon="-6.19948">
        <ele>33.9</ele>
        <time>2021-03-20T14:29:49Z</time>
      </trkpt>
      <trkpt lat="56.32975" lon="-6.19673">
        <ele>44.33</ele>
        <time>2021-03-20T14:29:52Z</time>
      </trkpt>
      <trkpt lat="56.32991" lon="-6.19629">
        <ele>44.5</ele>
        <time>2021-03-20T14:29:55Z</time>
      </trkpt>
      <trkpt lat="56.33006" lon="-6.19575">
        <ele>43.26</ele>
        <time>2021-03-20T14:29:58Z</time>
      </trkpt>
      <trkpt lat="56.33083" lon="-6.19168">
        <ele>40.12</ele>
        <time>2021-03-20T14:30:01Z</time>
      </trkpt>
      <trkpt lat="56.33087" lon="-6.19109">
        <ele>38.12</ele>
        <time>2021-03-20T14:30:04Z</time>
      </trkpt>
      <trkpt lat="56.33088" lon="-6.19045">
        <ele>36.37</ele>
        <time>2021-03-20T14:30:07Z</time>
      </trkpt>
      <trkpt lat="56.33066" lon="-6.18849">
        <ele>33.49</ele>
        <time>2021-03-20T14:30:11Z</time>
      </trkpt>
      <trkpt lat="56.33071" lon="-6.1874">
        <ele>31.15</ele>
        <time>2021-03-20T14:30:14Z</time>
      </trkpt>
      <trkpt lat="56.33144" lon="-6.18272">
        <ele>32.44</ele>
        <time>2021-03-20T14:30:17Z</time>
      </trkpt>
      <trkpt lat="56.33295" lon="-6.17557">
        <ele>16.13</ele>
        <time>2021-03-20T14:30:20Z</time>
      </trkpt>
      <trkpt lat="56.33363" lon="-6.17264">
        <ele>13.29</ele>
        <time>2021-03-20T14:30:23Z</time>
      </trkpt>
      <trkpt lat="56.33395" lon="-6.17112">
        <ele>15.92</ele>
        <time>2021-03-20T14:30:26Z</time>
      </trkpt>
      <trkpt lat="56.3343" lon="-6.16969">
        <ele>16.18</ele>
        <time>2021-03-20T14:30:30Z</time>
      </trkpt>
      <trkpt lat="56.33442" lon="-6.16851">
        <ele>19.76</ele>
        <time>2021-03-20T14:30:33Z</time>
      </trkpt>
      <trkpt lat="56.33453" lon="-6.16803">
        <ele>21.32</ele>
        <time>2021-03-20T14:30:36Z</time>
      </trkpt>
      <trkpt lat="56.33466" lon="-6.16755">
        <ele>22.92</ele>
        <time>2021-03-20T14:30:39Z</time>
      </trkpt>
      <trkpt lat="56.33482" lon="-6.16709">
        <ele>24.89</ele>
        <time>2021-03-20T14:30:42Z</time>
      </trkpt>
      <trkpt lat="56.33603" lon="-6.16419">
        <ele>29.52</ele>
        <time>2021-03-20T14:30:45Z</time>
      </trkpt>
      <trkpt lat="56.33611" lon="-6.16383">
        <ele>30.02</ele>
        <time>2021-03-20T14:30:48Z</time>
      </trkpt>
      <trkpt lat="56.33615" lon="-6.16329">
        <ele>30.33</ele>
        <time>2021-03-20T14:30:52Z</time>
      </trkpt>
      <trkpt lat="56.33622" lon="-6.16271">
        <ele>30.63</ele>
        <time>2021-03-20T14:30:55Z</time>
      </trkpt>
      <trkpt lat="56.33638" lon="-6.16007">
        <ele>28.26</ele>
        <time>2021-03-20T14:30:58Z</time>
      </trkpt>
      <trkpt lat="56.33638" lon="-6.15942">
        <ele>28.46</ele>
        <time>2021-03-20T14:31:01Z</time>
      </trkpt>
      <trkpt lat="56.33633" lon="-6.1589">
        <ele>30.83</ele>
        <time>2021-03-20T14:31:04Z</time>
      </trkpt>
      <trkpt lat="56.33632" lon="-6.15843">
        <ele>31.53</ele>
        <time>2021-03-20T14:31:07Z</time>
      </trkpt>
      <trkpt lat="56.33631" lon="-6.15794">
        <ele>32.03</ele>
        <time>2021-03-20T14:31:10Z</time>
      </trkpt>
      <trkpt lat="56.33633" lon="-6.15746">
        <ele>31.28</ele>
        <time>2021-03-20T14:31:14Z</time>
      </trkpt>
      <trkpt lat="56.33642" lon="-6.15654">
        <ele>28.88</ele>
        <time>2021-03-20T14:31:17Z</time>
      </trkpt>
      <trkpt lat="56.33654" lon="-6.15566">
        <ele>28.45</ele>
        <time>2021-03-20T14:31:20Z</time>
      </trkpt>
      <trkpt lat="56.33656" lon="-6.15529">
        <ele>28.64</ele>
        <time>2021-03-20T14:31:23Z</time>
      </trkpt>
      <trkpt lat="56.33649" lon="-6.15393">
        <ele>31.5</ele>
        <time>2021-03-20T14:31:26Z</time>
      </trkpt>
      <trkpt lat="56.33625" lon="-6.15134">
        <ele>31.2</ele>
        <time>2021-03-20T14:31:29Z</time>
      </trkpt>
      <trkpt lat="56.33622" lon="-6.15084">
        <ele>29.71</ele>
        <time>2021-03-20T14:31:33Z</time>
      </trkpt>
      <trkpt lat="56.33622" lon="-6.1504">
        <ele>28.62</ele>
        <time>2021-03-20T14:31:36Z</time>
      </trkpt>
      <trkpt lat="56.33626" lon="-6.14998">
        <ele>28.68</ele>
        <time>2021-03-20T14:31:39Z</time>
      </trkpt>
      <trkpt lat="56.3366" lon="-6.14784">
        <ele>28.48</ele>
        <time>2021-03-20T14:31:42Z</time>
      </trkpt>
      <trkpt lat="56.33668" lon="-6.14713">
        <ele>27.57</ele>
        <time>2021-03-20T14:31:45Z</time>
      </trkpt>
      <trkpt lat="56.33668" lon="-6.14673">
        <ele>26.78</ele>
        <time>2021-03-20T14:31:48Z</time>
      </trkpt>
      <trkpt lat="56.33663" lon="-6.14624">
        <ele>27.26</ele>
        <time>2021-03-20T14:31:51Z</time>
      </trkpt>
      <trkpt lat="56.33657" lon="-6.14595">
        <ele>27.19</ele>
        <time>2021-03-20T14:31:55Z</time>
      </trkpt>
      <trkpt lat="56.33607" lon="-6.14449">
        <ele>27.13</ele>
        <time>2021-03-20T14:31:58Z</time>
      </trkpt>
      <trkpt lat="56.33592" lon="-6.14399">
        <ele>27.13</ele>
        <time>2021-03-20T14:32:01Z</time>
      </trkpt>
      <trkpt lat="56.33587" lon="-6.14353">
        <ele>26.89</ele>
        <time>2021-03-20T14:32:04Z</time>
      </trkpt>
      <trkpt lat="56.33586" lon="-6.14309">
        <ele>26.32</ele>
        <time>2021-03-20T14:32:07Z</time>
      </trkpt>
      <trkpt lat="56.33589" lon="-6.14263">
        <ele>26.34</ele>
        <time>2021-03-20T14:32:10Z</time>
      </trkpt>
      <trkpt lat="56.33596" lon="-6.14219">
        <ele>26.73</ele>
        <time>2021-03-20T14:32:14Z</time>
      </trkpt>
      <trkpt lat="56.33629" lon="-6.14088">
        <ele>20.81</ele>
        <time>2021-03-20T14:32:17Z</time>
      </trkpt>
      <trkpt lat="56.33642" lon="-6.14045">
        <ele>18.96</ele>
        <time>2021-03-20T14:32:20Z</time>
      </trkpt>
      <trkpt lat="56.33657" lon="-6.14014">
        <ele>18.27</ele>
        <time>2021-03-20T14:32:23Z</time>
      </trkpt>
      <trkpt lat="56.33689" lon="-6.13974">
        <ele>17.32</ele>
        <time>2021-03-20T14:32:26Z</time>
      </trkpt>
      <trkpt lat="56.33717" lon="-6.13959">
        <ele>15.45</ele>
        <time>2021-03-20T14:32:29Z</time>
      </trkpt>
      <trkpt lat="56.33746" lon="-6.13955">
        <ele>15.82</ele>
        <time>2021-03-20T14:32:32Z</time>
      </trkpt>
      <trkpt lat="56.33805" lon="-6.13954">
        <ele>16.94</ele>
        <time>2021-03-20T14:32:36Z</time>
      </trkpt>
      <trkpt lat="56.33835" lon="-6.13949">
        <ele>17.67</ele>
        <time>2021-03-20T14:32:39Z</time>
      </trkpt>
      <trkpt lat="56.33861" lon="-6.13935">
        <ele>18.35</ele>
        <time>2021-03-20T14:32:42Z</time>
      </trkpt>
      <trkpt lat="56.33883" lon="-6.13911">
        <ele>17.66</ele>
        <time>2021-03-20T14:32:45Z</time>
      </trkpt>
      <trkpt lat="56.33904" lon="-6.13875">
        <ele>17.7</ele>
        <time>2021-03-20T14:32:48Z</time>
      </trkpt>
      <trkpt lat="56.33919" lon="-6.13834">
        <ele>17.6</ele>
        <time>2021-03-20T14:32:51Z</time>
      </trkpt>
      <trkpt lat="56.33972" lon="-6.13667">
        <ele>9</ele>
        <time>2021-03-20T14:32:54Z</time>
      </trkpt>
      <trkpt lat="56.33986" lon="-6.13606">
        <ele>6.56</ele>
        <time>2021-03-20T14:32:58Z</time>
      </trkpt>
      <trkpt lat="56.33992" lon="-6.13537">
        <ele>5.89</ele>
        <time>2021-03-20T14:33:01Z</time>
      </trkpt>
      <trkpt lat="56.33989" lon="-6.13395">
        <ele>9.78</ele>
        <time>2021-03-20T14:33:04Z</time>
      </trkpt>
      <trkpt lat="56.3398" lon="-6.13157">
        <ele>18.56</ele>
        <time>2021-03-20T14:33:07Z</time>
      </trkpt>
      <trkpt lat="56.33974" lon="-6.12913">
        <ele>23.71</ele>
        <time>2021-03-20T14:33:10Z</time>
      </trkpt>
      <trkpt lat="56.33976" lon="-6.12866">
        <ele>22.6</ele>
        <time>2021-03-20T14:33:13Z</time>
      </trkpt>
      <trkpt lat="56.33984" lon="-6.12823">
        <ele>22.5</ele>
        <time>2021-03-20T14:33:17Z</time>
      </trkpt>
      <trkpt lat="56.33998" lon="-6.1278">
        <ele>23.07</ele>
        <time>2021-03-20T14:33:20Z</time>
      </trkpt>
      <trkpt lat="56.34016" lon="-6.1274">
        <ele>23.58</ele>
        <time>2021-03-20T14:33:23Z</time>
      </trkpt>
      <trkpt lat="56.3408" lon="-6.12617">
        <ele>29.81</ele>
        <time>2021-03-20T14:33:26Z</time>
      </trkpt>
      <trkpt lat="56.34146" lon="-6.12501">
        <ele>29.74</ele>
        <time>2021-03-20T14:33:29Z</time>
      </trkpt>
      <trkpt lat="56.34242" lon="-6.12349">
        <ele>28.84</ele>
        <time>2021-03-20T14:33:32Z</time>
      </trkpt>
      <trkpt lat="56.34322" lon="-6.12236">
        <ele>20.42</ele>
        <time>2021-03-20T14:33:35Z</time>
      </trkpt>
      <trkpt lat="56.3434" lon="-6.12202">
        <ele>17.82</ele>
        <time>2021-03-20T14:33:39Z</time>
      </trkpt>
      <trkpt lat="56.34358" lon="-6.12142">
        <ele>15.54</ele>
        <time>2021-03-20T14:33:42Z</time>
      </trkpt>
      <trkpt lat="56.34363" lon="-6.12117">
        <ele>13.89</ele>
        <time>2021-03-20T14:33:45Z</time>
      </trkpt>
      <trkpt lat="56.34367" lon="-6.12073">
        <ele>11.78</ele>
        <time>2021-03-20T14:33:48Z</time>
      </trkpt>
      <trkpt lat="56.34368" lon="-6.12022">
        <ele>9.9</ele>
        <time>2021-03-20T14:33:51Z</time>
      </trkpt>
      <trkpt lat="56.34359" lon="-6.11621">
        <ele>7.74</ele>
        <time>2021-03-20T14:33:54Z</time>
      </trkpt>
      <trkpt lat="56.34344" lon="-6.11488">
        <ele>8.25</ele>
        <time>2021-03-20T14:33:57Z</time>
      </trkpt>
      <trkpt lat="56.34339" lon="-6.1141">
        <ele>9.55</ele>
        <time>2021-03-20T14:34:01Z</time>
      </trkpt>
      <trkpt lat="56.34342" lon="-6.11274">
        <ele>10.02</ele>
        <time>2021-03-20T14:34:04Z</time>
      </trkpt>
      <trkpt lat="56.34351" lon="-6.11202">
        <ele>9.07</ele>
        <time>2021-03-20T14:34:07Z</time>
      </trkpt>
      <trkpt lat="56.34364" lon="-6.1113">
        <ele>8.76</ele>
        <time>2021-03-20T14:34:10Z</time>
      </trkpt>
      <trkpt lat="56.34378" lon="-6.11064">
        <ele>11.37</ele>
        <time>2021-03-20T14:34:13Z</time>
      </trkpt>
      <trkpt lat="56.3438" lon="-6.11046">
        <ele>12.65</ele>
        <time>2021-03-20T14:34:16Z</time>
      </trkpt>
      <trkpt lat="56.34382" lon="-6.11006">
        <ele>15.29</ele>
        <time>2021-03-20T14:34:20Z</time>
      </trkpt>
      <trkpt lat="56.34376" lon="-6.10931">
        <ele>14.93</ele>
        <time>2021-03-20T14:34:23Z</time>
      </trkpt>
      <trkpt lat="56.3435" lon="-6.10843">
        <ele>16.07</ele>
        <time>2021-03-20T14:34:26Z</time>
      </trkpt>
      <trkpt lat="56.34283" lon="-6.10691">
        <ele>15.89</ele>
        <time>2021-03-20T14:34:29Z</time>
      </trkpt>
      <trkpt lat="56.34217" lon="-6.10534">
        <ele>17.41</ele>
        <time>2021-03-20T14:34:32Z</time>
      </trkpt>
      <trkpt lat="56.34206" lon="-6.10491">
        <ele>16.32</ele>
        <time>2021-03-20T14:34:35Z</time>
      </trkpt>
      <trkpt lat="56.34198" lon="-6.10447">
        <ele>13.7</ele>
        <time>2021-03-20T14:34:38Z</time>
      </trkpt>
      <trkpt lat="56.34196" lon="-6.10406">
        <ele>12.33</ele>
        <time>2021-03-20T14:34:42Z</time>
      </trkpt>
      <trkpt lat="56.34199" lon="-6.10367">
        <ele>10.62</ele>
        <time>2021-03-20T14:34:45Z</time>
      </trkpt>
      <trkpt lat="56.34211" lon="-6.10317">
        <ele>7.23</ele>
        <time>2021-03-20T14:34:48Z</time>
      </trkpt>
      <trkpt lat="56.3423" lon="-6.10269">
        <ele>4.82</ele>
        <time>2021-03-20T14:34:51Z</time>
      </trkpt>
      <trkpt lat="56.3426" lon="-6.10218">
        <ele>5.81</ele>
        <time>2021-03-20T14:34:54Z</time>
      </trkpt>
      <trkpt lat="56.34463" lon="-6.0992">
        <ele>3.55</ele>
        <time>2021-03-20T14:34:57Z</time>
      </trkpt>
      <trkpt lat="56.34475" lon="-6.09897">
        <ele>3.72</ele>
        <time>2021-03-20T14:35:01Z</time>
      </trkpt>
      <trkpt lat="56.34486" lon="-6.09864">
        <ele>4.44</ele>
        <time>2021-03-20T14:35:04Z</time>
      </trkpt>
      <trkpt lat="56.34495" lon="-6.0983">
        <ele>5.19</ele>
        <time>2021-03-20T14:35:07Z</time>
      </trkpt>
      <trkpt lat="56.34501" lon="-6.09783">
        <ele>4.97</ele>
        <time>2021-03-20T14:35:10Z</time>
      </trkpt>
      <trkpt lat="56.34507" lon="-6.09687">
        <ele>3.43</ele>
        <time>2021-03-20T14:35:13Z</time>
      </trkpt>
      <trkpt lat="56.34507" lon="-6.09655">
        <ele>3.28</ele>
        <time>2021-03-20T14:35:16Z</time>
      </trkpt>
      <trkpt lat="56.34512" lon="-6.09567">
        <ele>3.66</ele>
        <time>2021-03-20T14:35:19Z</time>
      </trkpt>
      <trkpt lat="56.34518" lon="-6.09499">
        <ele>2.8</ele>
        <time>2021-03-20T14:35:23Z</time>
      </trkpt>
      <trkpt lat="56.34523" lon="-6.09464">
        <ele>2.96</ele>
        <time>2021-03-20T14:35:26Z</time>
      </trkpt>
      <trkpt lat="56.34562" lon="-6.09276">
        <ele>6.14</ele>
        <time>2021-03-20T14:35:29Z</time>
      </trkpt>
      <trkpt lat="56.34576" lon="-6.0918">
        <ele>4.72</ele>
        <time>2021-03-20T14:35:32Z</time>
      </trkpt>
      <trkpt lat="56.34594" lon="-6.0909">
        <ele>4.24</ele>
        <time>2021-03-20T14:35:35Z</time>
      </trkpt>
      <trkpt lat="56.34604" lon="-6.09049">
        <ele>4.5</ele>
        <time>2021-03-20T14:35:38Z</time>
      </trkpt>
      <trkpt lat="56.34628" lon="-6.08979">
        <ele>3.92</ele>
        <time>2021-03-20T14:35:41Z</time>
      </trkpt>
      <trkpt lat="56.34665" lon="-6.08909">
        <ele>5.66</ele>
        <time>2021-03-20T14:35:45Z</time>
      </trkpt>
      <trkpt lat="56.34693" lon="-6.08869">
        <ele>5.82</ele>
        <time>2021-03-20T14:35:48Z</time>
      </trkpt>
      <trkpt lat="56.34712" lon="-6.08853">
        <ele>5.23</ele>
        <time>2021-03-20T14:35:51Z</time>
      </trkpt>
      <trkpt lat="56.34731" lon="-6.08844">
        <ele>5.55</ele>
        <time>2021-03-20T14:35:54Z</time>
      </trkpt>
      <trkpt lat="56.34812" lon="-6.08836">
        <ele>8.52</ele>
        <time>2021-03-20T14:35:57Z</time>
      </trkpt>
      <trkpt lat="56.34841" lon="-6.08828">
        <ele>7.57</ele>
        <time>2021-03-20T14:36:00Z</time>
      </trkpt>
      <trkpt lat="56.34854" lon="-6.0882">
        <ele>6.76</ele>
        <time>2021-03-20T14:36:04Z</time>
      </trkpt>
      <trkpt lat="56.34875" lon="-6.08791">
        <ele>7.31</ele>
        <time>2021-03-20T14:36:07Z</time>
      </trkpt>
      <trkpt lat="56.34909" lon="-6.08727">
        <ele>11.36</ele>
        <time>2021-03-20T14:36:10Z</time>
      </trkpt>
      <trkpt lat="56.34928" lon="-6.08693">
        <ele>11.94</ele>
        <time>2021-03-20T14:36:13Z</time>
      </trkpt>
      <trkpt lat="56.34946" lon="-6.08673">
        <ele>12.18</ele>
        <time>2021-03-20T14:36:16Z</time>
      </trkpt>
      <trkpt lat="56.34965" lon="-6.08662">
        <ele>11.12</ele>
        <time>2021-03-20T14:36:19Z</time>
      </trkpt>
      <trkpt lat="56.35029" lon="-6.08651">
        <ele>14.61</ele>
        <time>2021-03-20T14:36:22Z</time>
      </trkpt>
      <trkpt lat="56.35044" lon="-6.08634">
        <ele>16.37</ele>
        <time>2021-03-20T14:36:26Z</time>
      </trkpt>
      <trkpt lat="56.3506" lon="-6.0861">
        <ele>18.16</ele>
        <time>2021-03-20T14:36:29Z</time>
      </trkpt>
      <trkpt lat="56.35104" lon="-6.08521">
        <ele>16.58</ele>
        <time>2021-03-20T14:36:32Z</time>
      </trkpt>
      <trkpt lat="56.35159" lon="-6.08391">
        <ele>10.53</ele>
        <time>2021-03-20T14:36:35Z</time>
      </trkpt>
      <trkpt lat="56.35241" lon="-6.0816">
        <ele>11.33</ele>
        <time>2021-03-20T14:36:38Z</time>
      </trkpt>
      <trkpt lat="56.35261" lon="-6.08084">
        <ele>13.44</ele>
        <time>2021-03-20T14:36:41Z</time>
      </trkpt>
      <trkpt lat="56.35269" lon="-6.07972">
        <ele>12.95</ele>
        <time>2021-03-20T14:36:44Z</time>
      </trkpt>
      <trkpt lat="56.35269" lon="-6.07927">
        <ele>12.56</ele>
        <time>2021-03-20T14:36:48Z</time>
      </trkpt>
      <trkpt lat="56.35272" lon="-6.07873">
        <ele>11.92</ele>
        <time>2021-03-20T14:36:51Z</time>
      </trkpt>
      <trkpt lat="56.35284" lon="-6.07772">
        <ele>11.83</ele>
        <time>2021-03-20T14:36:54Z</time>
      </trkpt>
      <trkpt lat="56.35291" lon="-6.07702">
        <ele>11.56</ele>
        <time>2021-03-20T14:36:57Z</time>
      </trkpt>
      <trkpt lat="56.3531" lon="-6.07561">
        <ele>10.12</ele>
        <time>2021-03-20T14:37:00Z</time>
      </trkpt>
      <trkpt lat="56.35315" lon="-6.07492">
        <ele>8.39</ele>
        <time>2021-03-20T14:37:03Z</time>
      </trkpt>
      <trkpt lat="56.35354" lon="-6.07453">
        <ele>6.68</ele>
        <time>2021-03-20T14:37:07Z</time>
      </trkpt>
      <trkpt lat="56.35368" lon="-6.07428">
        <ele>7.59</ele>
        <time>2021-03-20T14:37:10Z</time>
      </trkpt>
      <trkpt lat="56.35399" lon="-6.07348">
        <ele>9.82</ele>
        <time>2021-03-20T14:37:13Z</time>
      </trkpt>
      <trkpt lat="56.35421" lon="-6.0728">
        <ele>12.26</ele>
        <time>2021-03-20T14:37:16Z</time>
      </trkpt>
      <trkpt lat="56.35443" lon="-6.07203">
        <ele>15.05</ele>
        <time>2021-03-20T14:37:19Z</time>
      </trkpt>
      <trkpt lat="56.35671" lon="-6.06171">
        <ele>12.26</ele>
        <time>2021-03-20T14:37:22Z</time>
      </trkpt>
      <trkpt lat="56.35677" lon="-6.06126">
        <ele>12.03</ele>
        <time>2021-03-20T14:37:25Z</time>
      </trkpt>
      <trkpt lat="56.3568" lon="-6.06079">
        <ele>11.41</ele>
        <time>2021-03-20T14:37:29Z</time>
      </trkpt>
      <trkpt lat="56.35689" lon="-6.06013">
        <ele>8.27</ele>
        <time>2021-03-20T14:37:32Z</time>
      </trkpt>
      <trkpt lat="56.35701" lon="-6.05949">
        <ele>6.23</ele>
        <time>2021-03-20T14:37:35Z</time>
      </trkpt>
      <trkpt lat="56.35744" lon="-6.05772">
        <ele>7.92</ele>
        <time>2021-03-20T14:37:38Z</time>
      </trkpt>
      <trkpt lat="56.3578" lon="-6.05592">
        <ele>16.35</ele>
        <time>2021-03-20T14:37:41Z</time>
      </trkpt>
      <trkpt lat="56.35822" lon="-6.05437">
        <ele>14.16</ele>
        <time>2021-03-20T14:37:44Z</time>
      </trkpt>
      <trkpt lat="56.35829" lon="-6.05391">
        <ele>7.11</ele>
        <time>2021-03-20T14:37:48Z</time>
      </trkpt>
      <trkpt lat="56.3586" lon="-6.05241">
        <ele>11.35</ele>
        <time>2021-03-20T14:37:51Z</time>
      </trkpt>
      <trkpt lat="56.35926" lon="-6.05015">
        <ele>8.92</ele>
        <time>2021-03-20T14:37:54Z</time>
      </trkpt>
      <trkpt lat="56.35937" lon="-6.04973">
        <ele>5.8</ele>
        <time>2021-03-20T14:37:57Z</time>
      </trkpt>
      <trkpt lat="56.35962" lon="-6.0474">
        <ele>10.23</ele>
        <time>2021-03-20T14:38:00Z</time>
      </trkpt>
      <trkpt lat="56.35978" lon="-6.04542">
        <ele>10.99</ele>
        <time>2021-03-20T14:38:03Z</time>
      </trkpt>
      <trkpt lat="56.35988" lon="-6.04391">
        <ele>9.65</ele>
        <time>2021-03-20T14:38:06Z</time>
      </trkpt>
      <trkpt lat="56.35994" lon="-6.04357">
        <ele>8.39</ele>
        <time>2021-03-20T14:38:10Z</time>
      </trkpt>
      <trkpt lat="56.36004" lon="-6.04327">
        <ele>7.77</ele>
        <time>2021-03-20T14:38:13Z</time>
      </trkpt>
      <trkpt lat="56.36039" lon="-6.04269">
        <ele>6.11</ele>
        <time>2021-03-20T14:38:16Z</time>
      </trkpt>
      <trkpt lat="56.36119" lon="-6.04162">
        <ele>4.73</ele>
        <time>2021-03-20T14:38:19Z</time>
      </trkpt>
      <trkpt lat="56.36127" lon="-6.04145">
        <ele>4.93</ele>
        <time>2021-03-20T14:38:22Z</time>
      </trkpt>
      <trkpt lat="56.36187" lon="-6.03925">
        <ele>6.51</ele>
        <time>2021-03-20T14:38:25Z</time>
      </trkpt>
      <trkpt lat="56.36212" lon="-6.03848">
        <ele>4.88</ele>
        <time>2021-03-20T14:38:28Z</time>
      </trkpt>
      <trkpt lat="56.36227" lon="-6.03778">
        <ele>3.68</ele>
        <time>2021-03-20T14:38:32Z</time>
      </trkpt>
      <trkpt lat="56.36236" lon="-6.03722">
        <ele>4.54</ele>
        <time>2021-03-20T14:38:35Z</time>
      </trkpt>
      <trkpt lat="56.3628" lon="-6.0336">
        <ele>11.66</ele>
        <time>2021-03-20T14:38:38Z</time>
      </trkpt>
      <trkpt lat="56.36298" lon="-6.03286">
        <ele>11.14</ele>
        <time>2021-03-20T14:38:41Z</time>
      </trkpt>
      <trkpt lat="56.36339" lon="-6.02989">
        <ele>13.39</ele>
        <time>2021-03-20T14:38:44Z</time>
      </trkpt>
      <trkpt lat="56.36357" lon="-6.02878">
        <ele>12.37</ele>
        <time>2021-03-20T14:38:47Z</time>
      </trkpt>
      <trkpt lat="56.36376" lon="-6.02808">
        <ele>9.19</ele>
        <time>2021-03-20T14:38:51Z</time>
      </trkpt>
      <trkpt lat="56.36389" lon="-6.02775">
        <ele>7.07</ele>
        <time>2021-03-20T14:38:54Z</time>
      </trkpt>
      <trkpt lat="56.36399" lon="-6.02726">
        <ele>9.76</ele>
        <time>2021-03-20T14:38:57Z</time>
      </trkpt>
      <trkpt lat="56.364" lon="-6.02686">
        <ele>10.25</ele>
        <time>2021-03-20T14:39:00Z</time>
      </trkpt>
      <trkpt lat="56.364" lon="-6.02541">
        <ele>11.74</ele>
        <time>2021-03-20T14:39:03Z</time>
      </trkpt>
      <trkpt lat="56.36412" lon="-6.02451">
        <ele>3.95</ele>
        <time>2021-03-20T14:39:06Z</time>
      </trkpt>
      <trkpt lat="56.36428" lon="-6.02393">
        <ele>9.59</ele>
        <time>2021-03-20T14:39:09Z</time>
      </trkpt>
      <trkpt lat="56.36435" lon="-6.02336">
        <ele>13.75</ele>
        <time>2021-03-20T14:39:13Z</time>
      </trkpt>
      <trkpt lat="56.36436" lon="-6.02305">
        <ele>14.77</ele>
        <time>2021-03-20T14:39:16Z</time>
      </trkpt>
      <trkpt lat="56.36433" lon="-6.0228">
        <ele>13.67</ele>
        <time>2021-03-20T14:39:19Z</time>
      </trkpt>
      <trkpt lat="56.36432" lon="-6.02218">
        <ele>12.09</ele>
        <time>2021-03-20T14:39:22Z</time>
      </trkpt>
      <trkpt lat="56.36461" lon="-6.01965">
        <ele>2.92</ele>
        <time>2021-03-20T14:39:25Z</time>
      </trkpt>
      <trkpt lat="56.36461" lon="-6.01928">
        <ele>3.55</ele>
        <time>2021-03-20T14:39:28Z</time>
      </trkpt>
      <trkpt lat="56.36466" lon="-6.01907">
        <ele>3.03</ele>
        <time>2021-03-20T14:39:31Z</time>
      </trkpt>
      <trkpt lat="56.36474" lon="-6.01884">
        <ele>2.18</ele>
        <time>2021-03-20T14:39:35Z</time>
      </trkpt>
      <trkpt lat="56.36484" lon="-6.01865">
        <ele>2.5</ele>
        <time>2021-03-20T14:39:38Z</time>
      </trkpt>
      <trkpt lat="56.36494" lon="-6.01855">
        <ele>2.42</ele>
        <time>2021-03-20T14:39:41Z</time>
      </trkpt>
      <trkpt lat="56.36523" lon="-6.01848">
        <ele>1.64</ele>
        <time>2021-03-20T14:39:44Z</time>
      </trkpt>
      <trkpt lat="56.36536" lon="-6.0184">
        <ele>1.91</ele>
        <time>2021-03-20T14:39:47Z</time>
      </trkpt>
      <trkpt lat="56.36583" lon="-6.01797">
        <ele>2.3</ele>
        <time>2021-03-20T14:39:50Z</time>
      </trkpt>
      <trkpt lat="56.36599" lon="-6.0178">
        <ele>1.95</ele>
        <time>2021-03-20T14:39:54Z</time>
      </trkpt>
      <trkpt lat="56.36683" lon="-6.01669">
        <ele>6.83</ele>
        <time>2021-03-20T14:39:57Z</time>
      </trkpt>
      <trkpt lat="56.36748" lon="-6.01594">
        <ele>4.72</ele>
        <time>2021-03-20T14:40:00Z</time>
      </trkpt>
      <trkpt lat="56.3678" lon="-6.0156">
        <ele>4.48</ele>
        <time>2021-03-20T14:40:03Z</time>
      </trkpt>
      <trkpt lat="56.36829" lon="-6.01512">
        <ele>4.96</ele>
        <time>2021-03-20T14:40:06Z</time>
      </trkpt>
      <trkpt lat="56.37114" lon="-6.01285">
        <ele>5.98</ele>
        <time>2021-03-20T14:40:09Z</time>
      </trkpt>
      <trkpt lat="56.37148" lon="-6.0124">
        <ele>4.89</ele>
        <time>2021-03-20T14:40:12Z</time>
      </trkpt>
      <trkpt lat="56.37189" lon="-6.01128">
        <ele>3.71</ele>
        <time>2021-03-20T14:40:16Z</time>
      </trkpt>
      <trkpt lat="56.37237" lon="-6.01058">
        <ele>4.28</ele>
        <time>2021-03-20T14:40:19Z</time>
      </trkpt>
      <trkpt lat="56.37332" lon="-6.00965">
        <ele>5.31</ele>
        <time>2021-03-20T14:40:22Z</time>
      </trkpt>
      <trkpt lat="56.37365" lon="-6.00927">
        <ele>3.26</ele>
        <time>2021-03-20T14:40:25Z</time>
      </trkpt>
      <trkpt lat="56.37375" lon="-6.00882">
        <ele>3.82</ele>
        <time>2021-03-20T14:40:28Z</time>
      </trkpt>
      <trkpt lat="56.37386" lon="-6.00858">
        <ele>2.76</ele>
        <time>2021-03-20T14:40:31Z</time>
      </trkpt>
      <trkpt lat="56.3741" lon="-6.00831">
        <ele>2.56</ele>
        <time>2021-03-20T14:40:35Z</time>
      </trkpt>
      <trkpt lat="56.37433" lon="-6.00794">
        <ele>4.74</ele>
        <time>2021-03-20T14:40:38Z</time>
      </trkpt>
      <trkpt lat="56.37451" lon="-6.00743">
        <ele>3.43</ele>
        <time>2021-03-20T14:40:41Z</time>
      </trkpt>
      <trkpt lat="56.37491" lon="-6.00653">
        <ele>5.81</ele>
        <time>2021-03-20T14:40:44Z</time>
      </trkpt>
      <trkpt lat="56.37509" lon="-6.00599">
        <ele>5.28</ele>
        <time>2021-03-20T14:40:47Z</time>
      </trkpt>
      <trkpt lat="56.37528" lon="-6.00549">
        <ele>4.64</ele>
        <time>2021-03-20T14:40:50Z</time>
      </trkpt>
      <trkpt lat="56.3754" lon="-6.00529">
        <ele>5.61</ele>
        <time>2021-03-20T14:40:53Z</time>
      </trkpt>
      <trkpt lat="56.37551" lon="-6.00514">
        <ele>5.58</ele>
        <time>2021-03-20T14:40:57Z</time>
      </trkpt>
      <trkpt lat="56.37578" lon="-6.00489">
        <ele>6.51</ele>
        <time>2021-03-20T14:41:00Z</time>
      </trkpt>
      <trkpt lat="56.37603" lon="-6.00478">
        <ele>6.07</ele>
        <time>2021-03-20T14:41:03Z</time>
      </trkpt>
      <trkpt lat="56.37688" lon="-6.00385">
        <ele>5.12</ele>
        <time>2021-03-20T14:41:06Z</time>
      </trkpt>
      <trkpt lat="56.3779" lon="-6.00297">
        <ele>7.26</ele>
        <time>2021-03-20T14:41:09Z</time>
      </trkpt>
      <trkpt lat="56.37855" lon="-6.00264">
        <ele>6.87</ele>
        <time>2021-03-20T14:41:12Z</time>
      </trkpt>
      <trkpt lat="56.3792" lon="-6.00217">
        <ele>7.38</ele>
        <time>2021-03-20T14:41:15Z</time>
      </trkpt>
      <trkpt lat="56.37931" lon="-6.00204">
        <ele>7.95</ele>
        <time>2021-03-20T14:41:19Z</time>
      </trkpt>
      <trkpt lat="56.37955" lon="-6.00187">
        <ele>7.75</ele>
        <time>2021-03-20T14:41:22Z</time>
      </trkpt>
      <trkpt lat="56.37977" lon="-6.00178">
        <ele>6.92</ele>
        <time>2021-03-20T14:41:25Z</time>
      </trkpt>
      <trkpt lat="56.37994" lon="-6.00167">
        <ele>6.44</ele>
        <time>2021-03-20T14:41:28Z</time>
      </trkpt>
      <trkpt lat="56.38052" lon="-6.00149">
        <ele>4.2</ele>
        <time>2021-03-20T14:41:31Z</time>
      </trkpt>
      <trkpt lat="56.38097" lon="-6.00126">
        <ele>4.25</ele>
        <time>2021-03-20T14:41:34Z</time>
      </trkpt>
      <trkpt lat="56.38123" lon="-6.00106">
        <ele>4</ele>
        <time>2021-03-20T14:41:38Z</time>
      </trkpt>
      <trkpt lat="56.38233" lon="-5.99888">
        <ele>4.66</ele>
        <time>2021-03-20T14:41:41Z</time>
      </trkpt>
      <trkpt lat="56.38256" lon="-5.99826">
        <ele>6.22</ele>
        <time>2021-03-20T14:41:44Z</time>
      </trkpt>
      <trkpt lat="56.38266" lon="-5.9977">
        <ele>7.57</ele>
        <time>2021-03-20T14:41:47Z</time>
      </trkpt>
      <trkpt lat="56.3828" lon="-5.99642">
        <ele>10.9</ele>
        <time>2021-03-20T14:41:50Z</time>
      </trkpt>
      <trkpt lat="56.38284" lon="-5.99461">
        <ele>6.3</ele>
        <time>2021-03-20T14:41:53Z</time>
      </trkpt>
      <trkpt lat="56.38283" lon="-5.99417">
        <ele>5.53</ele>
        <time>2021-03-20T14:41:56Z</time>
      </trkpt>
      <trkpt lat="56.38271" lon="-5.99326">
        <ele>3.49</ele>
        <time>2021-03-20T14:42:00Z</time>
      </trkpt>
      <trkpt lat="56.38264" lon="-5.99285">
        <ele>3.62</ele>
        <time>2021-03-20T14:42:03Z</time>
      </trkpt>
      <trkpt lat="56.38263" lon="-5.99229">
        <ele>3.89</ele>
        <time>2021-03-20T14:42:06Z</time>
      </trkpt>
      <trkpt lat="56.38266" lon="-5.99174">
        <ele>2.67</ele>
        <time>2021-03-20T14:42:09Z</time>
      </trkpt>
      <trkpt lat="56.38305" lon="-5.98999">
        <ele>2</ele>
        <time>2021-03-20T14:42:12Z</time>
      </trkpt>
      <trkpt lat="56.38331" lon="-5.9889">
        <ele>2.08</ele>
        <time>2021-03-20T14:42:15Z</time>
      </trkpt>
      <trkpt lat="56.38338" lon="-5.98806">
        <ele>1.83</ele>
        <time>2021-03-20T14:42:18Z</time>
      </trkpt>
      <trkpt lat="56.38338" lon="-5.98714">
        <ele>3</ele>
        <time>2021-03-20T14:42:22Z</time>
      </trkpt>
      <trkpt lat="56.38334" lon="-5.98493">
        <ele>4</ele>
        <time>2021-03-20T14:42:25Z</time>
      </trkpt>
      <trkpt lat="56.38334" lon="-5.98398">
        <ele>3.34</ele>
        <time>2021-03-20T14:42:28Z</time>
      </trkpt>
      <trkpt lat="56.38338" lon="-5.9834">
        <ele>2.23</ele>
        <time>2021-03-20T14:42:31Z</time>
      </trkpt>
      <trkpt lat="56.38344" lon="-5.98301">
        <ele>1.94</ele>
        <time>2021-03-20T14:42:34Z</time>
      </trkpt>
      <trkpt lat="56.3836" lon="-5.9824">
        <ele>1.38</ele>
        <time>2021-03-20T14:42:37Z</time>
      </trkpt>
      <trkpt lat="56.38382" lon="-5.98181">
        <ele>2.88</ele>
        <time>2021-03-20T14:42:41Z</time>
      </trkpt>
      <trkpt lat="56.38526" lon="-5.97933">
        <ele>4</ele>
        <time>2021-03-20T14:42:44Z</time>
      </trkpt>
      <trkpt lat="56.38558" lon="-5.97887">
        <ele>4.06</ele>
        <time>2021-03-20T14:42:47Z</time>
      </trkpt>
      <trkpt lat="56.38575" lon="-5.97872">
        <ele>4.62</ele>
        <time>2021-03-20T14:42:50Z</time>
      </trkpt>
      <trkpt lat="56.38595" lon="-5.97858">
        <ele>5.61</ele>
        <time>2021-03-20T14:42:53Z</time>
      </trkpt>
      <trkpt lat="56.38612" lon="-5.97852">
        <ele>6.71</ele>
        <time>2021-03-20T14:42:56Z</time>
      </trkpt>
      <trkpt lat="56.38633" lon="-5.97847">
        <ele>7.8</ele>
        <time>2021-03-20T14:42:59Z</time>
      </trkpt>
      <trkpt lat="56.38732" lon="-5.9784">
        <ele>7.51</ele>
        <time>2021-03-20T14:43:03Z</time>
      </trkpt>
      <trkpt lat="56.39127" lon="-5.97697">
        <ele>6.57</ele>
        <time>2021-03-20T14:43:06Z</time>
      </trkpt>
      <trkpt lat="56.39132" lon="-5.97755">
        <ele>7.53</ele>
        <time>2021-03-20T14:43:09Z</time>
      </trkpt>
      <trkpt lat="56.39133" lon="-5.97784">
        <ele>7.39</ele>
        <time>2021-03-20T14:43:12Z</time>
      </trkpt>
      <trkpt lat="56.39131" lon="-5.97822">
        <ele>6.31</ele>
        <time>2021-03-20T14:43:15Z</time>
      </trkpt>
      <trkpt lat="56.39128" lon="-5.97855">
        <ele>5.22</ele>
        <time>2021-03-20T14:43:18Z</time>
      </trkpt>
      <trkpt lat="56.39114" lon="-5.9793">
        <ele>5</ele>
        <time>2021-03-20T14:43:22Z</time>
      </trkpt>
      <trkpt lat="56.39108" lon="-5.97973">
        <ele>5</ele>
        <time>2021-03-20T14:43:25Z</time>
      </trkpt>
      <trkpt lat="56.39109" lon="-5.98045">
        <ele>4.92</ele>
        <time>2021-03-20T14:43:28Z</time>
      </trkpt>
      <trkpt lat="56.39114" lon="-5.98083">
        <ele>4</ele>
        <time>2021-03-20T14:43:31Z</time>
      </trkpt>
      <trkpt lat="56.39129" lon="-5.9817">
        <ele>4</ele>
        <time>2021-03-20T14:43:34Z</time>
      </trkpt>
      <trkpt lat="56.39132" lon="-5.98208">
        <ele>4</ele>
        <time>2021-03-20T14:43:37Z</time>
      </trkpt>
      <trkpt lat="56.39135" lon="-5.98288">
        <ele>3.47</ele>
        <time>2021-03-20T14:43:40Z</time>
      </trkpt>
      <trkpt lat="56.39138" lon="-5.98747">
        <ele>4.86</ele>
        <time>2021-03-20T14:43:44Z</time>
      </trkpt>
      <trkpt lat="56.39138" lon="-5.98801">
        <ele>4.99</ele>
        <time>2021-03-20T14:43:47Z</time>
      </trkpt>
      <trkpt lat="56.39135" lon="-5.98854">
        <ele>5.62</ele>
        <time>2021-03-20T14:43:50Z</time>
      </trkpt>
      <trkpt lat="56.39127" lon="-5.98898">
        <ele>5.88</ele>
        <time>2021-03-20T14:43:53Z</time>
      </trkpt>
      <trkpt lat="56.39109" lon="-5.98948">
        <ele>5.96</ele>
        <time>2021-03-20T14:43:56Z</time>
      </trkpt>
      <trkpt lat="56.39083" lon="-5.99001">
        <ele>5.01</ele>
        <time>2021-03-20T14:43:59Z</time>
      </trkpt>
      <trkpt lat="56.39069" lon="-5.99023">
        <ele>5.32</ele>
        <time>2021-03-20T14:44:02Z</time>
      </trkpt>
      <trkpt lat="56.39054" lon="-5.99042">
        <ele>5.53</ele>
        <time>2021-03-20T14:44:06Z</time>
      </trkpt>
      <trkpt lat="56.39007" lon="-5.99091">
        <ele>6.26</ele>
        <time>2021-03-20T14:44:09Z</time>
      </trkpt>
      <trkpt lat="56.38995" lon="-5.9911">
        <ele>5.81</ele>
        <time>2021-03-20T14:44:12Z</time>
      </trkpt>
      <trkpt lat="56.38975" lon="-5.99174">
        <ele>5.24</ele>
        <time>2021-03-20T14:44:15Z</time>
      </trkpt>
      <trkpt lat="56.3895" lon="-5.99288">
        <ele>4.44</ele>
        <time>2021-03-20T14:44:18Z</time>
      </trkpt>
      <trkpt lat="56.38933" lon="-5.99342">
        <ele>3.49</ele>
        <time>2021-03-20T14:44:21Z</time>
      </trkpt>
      <trkpt lat="56.38911" lon="-5.99378">
        <ele>3.3</ele>
        <time>2021-03-20T14:44:24Z</time>
      </trkpt>
      <trkpt lat="56.38905" lon="-5.99425">
        <ele>4.13</ele>
        <time>2021-03-20T14:44:28Z</time>
      </trkpt>
      <trkpt lat="56.38911" lon="-5.99531">
        <ele>4.78</ele>
        <time>2021-03-20T14:44:31Z</time>
      </trkpt>
      <trkpt lat="56.3892" lon="-5.99587">
        <ele>4.34</ele>
        <time>2021-03-20T14:44:34Z</time>
      </trkpt>
      <trkpt lat="56.38921" lon="-5.99641">
        <ele>4.46</ele>
        <time>2021-03-20T14:44:37Z</time>
      </trkpt>
      <trkpt lat="56.38913" lon="-5.99685">
        <ele>3.16</ele>
        <time>2021-03-20T14:44:40Z</time>
      </trkpt>
      <trkpt lat="56.38924" lon="-5.99727">
        <ele>2.84</ele>
        <time>2021-03-20T14:44:43Z</time>
      </trkpt>
      <trkpt lat="56.38947" lon="-5.99774">
        <ele>3.48</ele>
        <time>2021-03-20T14:44:46Z</time>
      </trkpt>
      <trkpt lat="56.38993" lon="-5.9988">
        <ele>5.54</ele>
        <time>2021-03-20T14:44:50Z</time>
      </trkpt>
      <trkpt lat="56.39023" lon="-5.99924">
        <ele>6.43</ele>
        <time>2021-03-20T14:44:53Z</time>
      </trkpt>
      <trkpt lat="56.39089" lon="-5.9999">
        <ele>4.91</ele>
        <time>2021-03-20T14:44:56Z</time>
      </trkpt>
      <trkpt lat="56.39271" lon="-6.00161">
        <ele>1.75</ele>
        <time>2021-03-20T14:44:59Z</time>
      </trkpt>
      <trkpt lat="56.39304" lon="-6.00177">
        <ele>1.63</ele>
        <time>2021-03-20T14:45:02Z</time>
      </trkpt>
      <trkpt lat="56.39337" lon="-6.00212">
        <ele>2.79</ele>
        <time>2021-03-20T14:45:05Z</time>
      </trkpt>
      <trkpt lat="56.39383" lon="-6.00299">
        <ele>4.62</ele>
        <time>2021-03-20T14:45:09Z</time>
      </trkpt>
      <trkpt lat="56.39396" lon="-6.0036">
        <ele>3.54</ele>
        <time>2021-03-20T14:45:12Z</time>
      </trkpt>
      <trkpt lat="56.39395" lon="-6.00428">
        <ele>3.2</ele>
        <time>2021-03-20T14:45:15Z</time>
      </trkpt>
      <trkpt lat="56.39386" lon="-6.00503">
        <ele>3.94</ele>
        <time>2021-03-20T14:45:18Z</time>
      </trkpt>
      <trkpt lat="56.39372" lon="-6.00574">
        <ele>5.22</ele>
        <time>2021-03-20T14:45:21Z</time>
      </trkpt>
      <trkpt lat="56.39348" lon="-6.0064">
        <ele>4.62</ele>
        <time>2021-03-20T14:45:24Z</time>
      </trkpt>
      <trkpt lat="56.39286" lon="-6.00825">
        <ele>7.8</ele>
        <time>2021-03-20T14:45:27Z</time>
      </trkpt>
      <trkpt lat="56.39195" lon="-6.0104">
        <ele>5.07</ele>
        <time>2021-03-20T14:45:31Z</time>
      </trkpt>
      <trkpt lat="56.39181" lon="-6.01105">
        <ele>7.22</ele>
        <time>2021-03-20T14:45:34Z</time>
      </trkpt>
      <trkpt lat="56.39173" lon="-6.01176">
        <ele>7.57</ele>
        <time>2021-03-20T14:45:37Z</time>
      </trkpt>
      <trkpt lat="56.3917" lon="-6.01257">
        <ele>7.26</ele>
        <time>2021-03-20T14:45:40Z</time>
      </trkpt>
      <trkpt lat="56.39172" lon="-6.01384">
        <ele>7.2</ele>
        <time>2021-03-20T14:45:43Z</time>
      </trkpt>
      <trkpt lat="56.39186" lon="-6.01524">
        <ele>5.98</ele>
        <time>2021-03-20T14:45:46Z</time>
      </trkpt>
      <trkpt lat="56.39202" lon="-6.0158">
        <ele>5.89</ele>
        <time>2021-03-20T14:45:49Z</time>
      </trkpt>
      <trkpt lat="56.39274" lon="-6.01757">
        <ele>7.11</ele>
        <time>2021-03-20T14:45:53Z</time>
      </trkpt>
      <trkpt lat="56.39319" lon="-6.01831">
        <ele>6.13</ele>
        <time>2021-03-20T14:45:56Z</time>
      </trkpt>
      <trkpt lat="56.39341" lon="-6.01859">
        <ele>12.72</ele>
        <time>2021-03-20T14:45:59Z</time>
      </trkpt>
      <trkpt lat="56.39405" lon="-6.01912">
        <ele>6.47</ele>
        <time>2021-03-20T14:46:02Z</time>
      </trkpt>
      <trkpt lat="56.39435" lon="-6.01974">
        <ele>4.88</ele>
        <time>2021-03-20T14:46:05Z</time>
      </trkpt>
      <trkpt lat="56.39471" lon="-6.02074">
        <ele>5.27</ele>
        <time>2021-03-20T14:46:08Z</time>
      </trkpt>
      <trkpt lat="56.3948" lon="-6.02139">
        <ele>7.94</ele>
        <time>2021-03-20T14:46:11Z</time>
      </trkpt>
      <trkpt lat="56.39482" lon="-6.02204">
        <ele>9.42</ele>
        <time>2021-03-20T14:46:15Z</time>
      </trkpt>
      <trkpt lat="56.39479" lon="-6.02283">
        <ele>11.02</ele>
        <time>2021-03-20T14:46:18Z</time>
      </trkpt>
      <trkpt lat="56.3946" lon="-6.02362">
        <ele>10.31</ele>
        <time>2021-03-20T14:46:21Z</time>
      </trkpt>
      <trkpt lat="56.39433" lon="-6.02458">
        <ele>8.1</ele>
        <time>2021-03-20T14:46:24Z</time>
      </trkpt>
      <trkpt lat="56.39419" lon="-6.02521">
        <ele>7.05</ele>
        <time>2021-03-20T14:46:27Z</time>
      </trkpt>
      <trkpt lat="56.39389" lon="-6.02703">
        <ele>7.36</ele>
        <time>2021-03-20T14:46:30Z</time>
      </trkpt>
      <trkpt lat="56.39363" lon="-6.02812">
        <ele>6.3</ele>
        <time>2021-03-20T14:46:34Z</time>
      </trkpt>
      <trkpt lat="56.39356" lon="-6.02928">
        <ele>7.2</ele>
        <time>2021-03-20T14:46:37Z</time>
      </trkpt>
      <trkpt lat="56.3933" lon="-6.03036">
        <ele>7.84</ele>
        <time>2021-03-20T14:46:40Z</time>
      </trkpt>
      <trkpt lat="56.3924" lon="-6.03334">
        <ele>4.69</ele>
        <time>2021-03-20T14:46:43Z</time>
      </trkpt>
      <trkpt lat="56.39189" lon="-6.0351">
        <ele>8.6</ele>
        <time>2021-03-20T14:46:46Z</time>
      </trkpt>
      <trkpt lat="56.39069" lon="-6.03698">
        <ele>7.45</ele>
        <time>2021-03-20T14:46:49Z</time>
      </trkpt>
      <trkpt lat="56.39035" lon="-6.0383">
        <ele>9.43</ele>
        <time>2021-03-20T14:46:52Z</time>
      </trkpt>
      <trkpt lat="56.38983" lon="-6.03951">
        <ele>11.62</ele>
        <time>2021-03-20T14:46:56Z</time>
      </trkpt>
      <trkpt lat="56.38827" lon="-6.04212">
        <ele>15.75</ele>
        <time>2021-03-20T14:46:59Z</time>
      </trkpt>
      <trkpt lat="56.38774" lon="-6.04318">
        <ele>19.2</ele>
        <time>2021-03-20T14:47:02Z</time>
      </trkpt>
      <trkpt lat="56.38646" lon="-6.04494">
        <ele>9.17</ele>
        <time>2021-03-20T14:47:05Z</time>
      </trkpt>
      <trkpt lat="56.38604" lon="-6.04553">
        <ele>8.21</ele>
        <time>2021-03-20T14:47:08Z</time>
      </trkpt>
      <trkpt lat="56.38544" lon="-6.04621">
        <ele>6.47</ele>
        <time>2021-03-20T14:47:11Z</time>
      </trkpt>
      <trkpt lat="56.38476" lon="-6.0473">
        <ele>4.88</ele>
        <time>2021-03-20T14:47:14Z</time>
      </trkpt>
      <trkpt lat="56.38413" lon="-6.04816">
        <ele>5.07</ele>
        <time>2021-03-20T14:47:18Z</time>
      </trkpt>
      <trkpt lat="56.38328" lon="-6.04982">
        <ele>4.29</ele>
        <time>2021-03-20T14:47:21Z</time>
      </trkpt>
      <trkpt lat="56.38293" lon="-6.05105">
        <ele>7.68</ele>
        <time>2021-03-20T14:47:24Z</time>
      </trkpt>
      <trkpt lat="56.38281" lon="-6.05122">
        <ele>8.76</ele>
        <time>2021-03-20T14:47:27Z</time>
      </trkpt>
      <trkpt lat="56.38207" lon="-6.05168">
        <ele>6.13</ele>
        <time>2021-03-20T14:47:30Z</time>
      </trkpt>
      <trkpt lat="56.38186" lon="-6.05216">
        <ele>8.15</ele>
        <time>2021-03-20T14:47:33Z</time>
      </trkpt>
      <trkpt lat="56.38107" lon="-6.05448">
        <ele>7.98</ele>
        <time>2021-03-20T14:47:36Z</time>
      </trkpt>
      <trkpt lat="56.38102" lon="-6.05473">
        <ele>9.01</ele>
        <time>2021-03-20T14:47:40Z</time>
      </trkpt>
      <trkpt lat="56.381" lon="-6.05496">
        <ele>9.25</ele>
        <time>2021-03-20T14:47:43Z</time>
      </trkpt>
      <trkpt lat="56.38101" lon="-6.05525">
        <ele>9.55</ele>
        <time>2021-03-20T14:47:46Z</time>
      </trkpt>
      <trkpt lat="56.38133" lon="-6.05651">
        <ele>11.8</ele>
        <time>2021-03-20T14:47:49Z</time>
      </trkpt>
      <trkpt lat="56.38154" lon="-6.05763">
        <ele>12.55</ele>
        <time>2021-03-20T14:47:52Z</time>
      </trkpt>
      <trkpt lat="56.38163" lon="-6.05912">
        <ele>9.91</ele>
        <time>2021-03-20T14:47:55Z</time>
      </trkpt>
      <trkpt lat="56.38168" lon="-6.05931">
        <ele>9.57</ele>
        <time>2021-03-20T14:47:59Z</time>
      </trkpt>
      <trkpt lat="56.38189" lon="-6.05982">
        <ele>9.25</ele>
        <time>2021-03-20T14:48:02Z</time>
      </trkpt>
      <trkpt lat="56.38203" lon="-6.06006">
        <ele>9.74</ele>
        <time>2021-03-20T14:48:05Z</time>
      </trkpt>
      <trkpt lat="56.38209" lon="-6.06022">
        <ele>9.78</ele>
        <time>2021-03-20T14:48:08Z</time>
      </trkpt>
      <trkpt lat="56.38219" lon="-6.06093">
        <ele>9.62</ele>
        <time>2021-03-20T14:48:11Z</time>
      </trkpt>
      <trkpt lat="56.38236" lon="-6.06156">
        <ele>12.82</ele>
        <time>2021-03-20T14:48:14Z</time>
      </trkpt>
      <trkpt lat="56.38244" lon="-6.06232">
        <ele>11.75</ele>
        <time>2021-03-20T14:48:17Z</time>
      </trkpt>
      <trkpt lat="56.38317" lon="-6.06504">
        <ele>9.77</ele>
        <time>2021-03-20T14:48:21Z</time>
      </trkpt>
      <trkpt lat="56.3835" lon="-6.06619">
        <ele>12.26</ele>
        <time>2021-03-20T14:48:24Z</time>
      </trkpt>
      <trkpt lat="56.38399" lon="-6.0674">
        <ele>14.77</ele>
        <time>2021-03-20T14:48:27Z</time>
      </trkpt>
      <trkpt lat="56.38421" lon="-6.06779">
        <ele>14.22</ele>
        <time>2021-03-20T14:48:30Z</time>
      </trkpt>
      <trkpt lat="56.38448" lon="-6.0679">
        <ele>15.64</ele>
        <time>2021-03-20T14:48:33Z</time>
      </trkpt>
      <trkpt lat="56.38477" lon="-6.06788">
        <ele>19.56</ele>
        <time>2021-03-20T14:48:36Z</time>
      </trkpt>
      <trkpt lat="56.38513" lon="-6.06817">
        <ele>20.72</ele>
        <time>2021-03-20T14:48:39Z</time>
      </trkpt>
      <trkpt lat="56.38543" lon="-6.06826">
        <ele>23.83</ele>
        <time>2021-03-20T14:48:43Z</time>
      </trkpt>
      <trkpt lat="56.38582" lon="-6.06823">
        <ele>28.58</ele>
        <time>2021-03-20T14:48:46Z</time>
      </trkpt>
      <trkpt lat="56.38618" lon="-6.06847">
        <ele>29.2</ele>
        <time>2021-03-20T14:48:49Z</time>
      </trkpt>
      <trkpt lat="56.38717" lon="-6.06987">
        <ele>33.23</ele>
        <time>2021-03-20T14:48:52Z</time>
      </trkpt>
      <trkpt lat="56.38897" lon="-6.07146">
        <ele>36.38</ele>
        <time>2021-03-20T14:48:55Z</time>
      </trkpt>
      <trkpt lat="56.38957" lon="-6.07217">
        <ele>38.24</ele>
        <time>2021-03-20T14:48:58Z</time>
      </trkpt>
      <trkpt lat="56.39296" lon="-6.07677">
        <ele>41.15</ele>
        <time>2021-03-20T14:49:01Z</time>
      </trkpt>
      <trkpt lat="56.39384" lon="-6.07807">
        <ele>52.04</ele>
        <time>2021-03-20T14:49:05Z</time>
      </trkpt>
      <trkpt lat="56.39502" lon="-6.08019">
        <ele>59.53</ele>
        <time>2021-03-20T14:49:08Z</time>
      </trkpt>
      <trkpt lat="56.3979" lon="-6.08595">
        <ele>78.95</ele>
        <time>2021-03-20T14:49:11Z</time>
      </trkpt>
      <trkpt lat="56.3979" lon="-6.08595">
        <ele>78.95</ele>
        <time>2021-03-20T14:49:11Z</time>
      </trkpt>
      <trkpt lat="56.39957" lon="-6.08933">
        <ele>91.52</ele>
        <time>2021-03-20T14:49:13Z</time>
      </trkpt>
      <trkpt lat="56.40037" lon="-6.09059">
        <ele>94.77</ele>
        <time>2021-03-20T14:49:16Z</time>
      </trkpt>
      <trkpt lat="56.40259" lon="-6.09337">
        <ele>111.42</ele>
        <time>2021-03-20T14:49:18Z</time>
      </trkpt>
      <trkpt lat="56.40368" lon="-6.09482">
        <ele>110.21</ele>
        <time>2021-03-20T14:49:20Z</time>
      </trkpt>
      <trkpt lat="56.40402" lon="-6.09551">
        <ele>112.87</ele>
        <time>2021-03-20T14:49:23Z</time>
      </trkpt>
      <trkpt lat="56.40425" lon="-6.09606">
        <ele>116.84</ele>
        <time>2021-03-20T14:49:25Z</time>
      </trkpt>
      <trkpt lat="56.40591" lon="-6.10023">
        <ele>128.4</ele>
        <time>2021-03-20T14:49:27Z</time>
      </trkpt>
      <trkpt lat="56.40652" lon="-6.10151">
        <ele>128.87</ele>
        <time>2021-03-20T14:49:30Z</time>
      </trkpt>
      <trkpt lat="56.40686" lon="-6.10206">
        <ele>130.66</ele>
        <time>2021-03-20T14:49:32Z</time>
      </trkpt>
      <trkpt lat="56.40726" lon="-6.10253">
        <ele>131.28</ele>
        <time>2021-03-20T14:49:34Z</time>
      </trkpt>
      <trkpt lat="56.40949" lon="-6.10501">
        <ele>141.44</ele>
        <time>2021-03-20T14:49:37Z</time>
      </trkpt>
      <trkpt lat="56.40993" lon="-6.10553">
        <ele>141.62</ele>
        <time>2021-03-20T14:49:39Z</time>
      </trkpt>
      <trkpt lat="56.41013" lon="-6.10588">
        <ele>142.21</ele>
        <time>2021-03-20T14:49:41Z</time>
      </trkpt>
      <trkpt lat="56.41047" lon="-6.10655">
        <ele>143.66</ele>
        <time>2021-03-20T14:49:44Z</time>
      </trkpt>
      <trkpt lat="56.41075" lon="-6.10721">
        <ele>143.41</ele>
        <time>2021-03-20T14:49:46Z</time>
      </trkpt>
      <trkpt lat="56.41101" lon="-6.10793">
        <ele>144.91</ele>
        <time>2021-03-20T14:49:48Z</time>
      </trkpt>
      <trkpt lat="56.41152" lon="-6.10967">
        <ele>146.11</ele>
        <time>2021-03-20T14:49:51Z</time>
      </trkpt>
      <trkpt lat="56.41304" lon="-6.11669">
        <ele>142.64</ele>
        <time>2021-03-20T14:49:53Z</time>
      </trkpt>
      <trkpt lat="56.41329" lon="-6.1178">
        <ele>143.25</ele>
        <time>2021-03-20T14:49:55Z</time>
      </trkpt>
      <trkpt lat="56.41347" lon="-6.11854">
        <ele>143.5</ele>
        <time>2021-03-20T14:49:58Z</time>
      </trkpt>
      <trkpt lat="56.41368" lon="-6.11927">
        <ele>143.13</ele>
        <time>2021-03-20T14:50:00Z</time>
      </trkpt>
      <trkpt lat="56.41424" lon="-6.12084">
        <ele>142.52</ele>
        <time>2021-03-20T14:50:02Z</time>
      </trkpt>
      <trkpt lat="56.41443" lon="-6.12131">
        <ele>142.36</ele>
        <time>2021-03-20T14:50:05Z</time>
      </trkpt>
      <trkpt lat="56.41469" lon="-6.12183">
        <ele>140.95</ele>
        <time>2021-03-20T14:50:07Z</time>
      </trkpt>
      <trkpt lat="56.41511" lon="-6.12259">
        <ele>141.21</ele>
        <time>2021-03-20T14:50:09Z</time>
      </trkpt>
      <trkpt lat="56.41534" lon="-6.12297">
        <ele>140.75</ele>
        <time>2021-03-20T14:50:12Z</time>
      </trkpt>
      <trkpt lat="56.41577" lon="-6.1236">
        <ele>138.24</ele>
        <time>2021-03-20T14:50:14Z</time>
      </trkpt>
      <trkpt lat="56.41637" lon="-6.12454">
        <ele>133.9</ele>
        <time>2021-03-20T14:50:16Z</time>
      </trkpt>
      <trkpt lat="56.41722" lon="-6.12569">
        <ele>131.07</ele>
        <time>2021-03-20T14:50:19Z</time>
      </trkpt>
      <trkpt lat="56.41755" lon="-6.12617">
        <ele>127.25</ele>
        <time>2021-03-20T14:50:21Z</time>
      </trkpt>
      <trkpt lat="56.41819" lon="-6.1272">
        <ele>123.71</ele>
        <time>2021-03-20T14:50:23Z</time>
      </trkpt>
      <trkpt lat="56.41851" lon="-6.12768">
        <ele>120.6</ele>
        <time>2021-03-20T14:50:26Z</time>
      </trkpt>
      <trkpt lat="56.4192" lon="-6.12852">
        <ele>111.74</ele>
        <time>2021-03-20T14:50:28Z</time>
      </trkpt>
      <trkpt lat="56.41955" lon="-6.12891">
        <ele>104.4</ele>
        <time>2021-03-20T14:50:30Z</time>
      </trkpt>
      <trkpt lat="56.42002" lon="-6.12938">
        <ele>102.29</ele>
        <time>2021-03-20T14:50:33Z</time>
      </trkpt>
      <trkpt lat="56.42024" lon="-6.12952">
        <ele>105.57</ele>
        <time>2021-03-20T14:50:35Z</time>
      </trkpt>
      <trkpt lat="56.42064" lon="-6.12965">
        <ele>107.72</ele>
        <time>2021-03-20T14:50:37Z</time>
      </trkpt>
      <trkpt lat="56.42147" lon="-6.13">
        <ele>94.26</ele>
        <time>2021-03-20T14:50:40Z</time>
      </trkpt>
      <trkpt lat="56.42203" lon="-6.13016">
        <ele>87.07</ele>
        <time>2021-03-20T14:50:42Z</time>
      </trkpt>
      <trkpt lat="56.42231" lon="-6.13026">
        <ele>85.95</ele>
        <time>2021-03-20T14:50:44Z</time>
      </trkpt>
      <trkpt lat="56.42259" lon="-6.1304">
        <ele>87.04</ele>
        <time>2021-03-20T14:50:47Z</time>
      </trkpt>
      <trkpt lat="56.42274" lon="-6.13054">
        <ele>85.76</ele>
        <time>2021-03-20T14:50:49Z</time>
      </trkpt>
      <trkpt lat="56.42287" lon="-6.13079">
        <ele>84.24</ele>
        <time>2021-03-20T14:50:51Z</time>
      </trkpt>
      <trkpt lat="56.42296" lon="-6.13103">
        <ele>82.34</ele>
        <time>2021-03-20T14:50:54Z</time>
      </trkpt>
      <trkpt lat="56.42303" lon="-6.13129">
        <ele>80.63</ele>
        <time>2021-03-20T14:50:56Z</time>
      </trkpt>
      <trkpt lat="56.42312" lon="-6.13174">
        <ele>79.13</ele>
        <time>2021-03-20T14:50:58Z</time>
      </trkpt>
      <trkpt lat="56.42314" lon="-6.1319">
        <ele>78.86</ele>
        <time>2021-03-20T14:51:01Z</time>
      </trkpt>
      <trkpt lat="56.42311" lon="-6.13284">
        <ele>75.15</ele>
        <time>2021-03-20T14:51:03Z</time>
      </trkpt>
      <trkpt lat="56.42315" lon="-6.13371">
        <ele>72.61</ele>
        <time>2021-03-20T14:51:05Z</time>
      </trkpt>
      <trkpt lat="56.42319" lon="-6.13426">
        <ele>69.25</ele>
        <time>2021-03-20T14:51:08Z</time>
      </trkpt>
      <trkpt lat="56.42323" lon="-6.13442">
        <ele>68.91</ele>
        <time>2021-03-20T14:51:10Z</time>
      </trkpt>
      <trkpt lat="56.42328" lon="-6.13453">
        <ele>68.6</ele>
        <time>2021-03-20T14:51:12Z</time>
      </trkpt>
      <trkpt lat="56.42335" lon="-6.1346">
        <ele>68.95</ele>
        <time>2021-03-20T14:51:15Z</time>
      </trkpt>
      <trkpt lat="56.4239" lon="-6.13489">
        <ele>68.77</ele>
        <time>2021-03-20T14:51:17Z</time>
      </trkpt>
      <trkpt lat="56.42404" lon="-6.13493">
        <ele>66.31</ele>
        <time>2021-03-20T14:51:19Z</time>
      </trkpt>
      <trkpt lat="56.42411" lon="-6.13492">
        <ele>65.76</ele>
        <time>2021-03-20T14:51:22Z</time>
      </trkpt>
      <trkpt lat="56.42451" lon="-6.13472">
        <ele>66.13</ele>
        <time>2021-03-20T14:51:24Z</time>
      </trkpt>
      <trkpt lat="56.42529" lon="-6.13446">
        <ele>61.86</ele>
        <time>2021-03-20T14:51:26Z</time>
      </trkpt>
      <trkpt lat="56.42549" lon="-6.13435">
        <ele>65.02</ele>
        <time>2021-03-20T14:51:29Z</time>
      </trkpt>
      <trkpt lat="56.42562" lon="-6.13431">
        <ele>66.86</ele>
        <time>2021-03-20T14:51:31Z</time>
      </trkpt>
      <trkpt lat="56.42573" lon="-6.13433">
        <ele>68.18</ele>
        <time>2021-03-20T14:51:33Z</time>
      </trkpt>
      <trkpt lat="56.42582" lon="-6.13448">
        <ele>68.36</ele>
        <time>2021-03-20T14:51:36Z</time>
      </trkpt>
      <trkpt lat="56.42587" lon="-6.13472">
        <ele>66.58</ele>
        <time>2021-03-20T14:51:38Z</time>
      </trkpt>
      <trkpt lat="56.4259" lon="-6.13529">
        <ele>60.96</ele>
        <time>2021-03-20T14:51:40Z</time>
      </trkpt>
      <trkpt lat="56.4259" lon="-6.13618">
        <ele>53.49</ele>
        <time>2021-03-20T14:51:43Z</time>
      </trkpt>
      <trkpt lat="56.42592" lon="-6.13626">
        <ele>52.99</ele>
        <time>2021-03-20T14:51:45Z</time>
      </trkpt>
      <trkpt lat="56.42599" lon="-6.1364">
        <ele>52.6</ele>
        <time>2021-03-20T14:51:47Z</time>
      </trkpt>
      <trkpt lat="56.42614" lon="-6.13653">
        <ele>52.4</ele>
        <time>2021-03-20T14:51:50Z</time>
      </trkpt>
      <trkpt lat="56.42628" lon="-6.13662">
        <ele>50.53</ele>
        <time>2021-03-20T14:51:52Z</time>
      </trkpt>
      <trkpt lat="56.42637" lon="-6.13662">
        <ele>50.04</ele>
        <time>2021-03-20T14:51:54Z</time>
      </trkpt>
      <trkpt lat="56.42645" lon="-6.13658">
        <ele>49.82</ele>
        <time>2021-03-20T14:51:57Z</time>
      </trkpt>
      <trkpt lat="56.42666" lon="-6.13638">
        <ele>50.32</ele>
        <time>2021-03-20T14:51:59Z</time>
      </trkpt>
      <trkpt lat="56.42712" lon="-6.13565">
        <ele>47.49</ele>
        <time>2021-03-20T14:52:01Z</time>
      </trkpt>
      <trkpt lat="56.42749" lon="-6.13467">
        <ele>46.94</ele>
        <time>2021-03-20T14:52:04Z</time>
      </trkpt>
      <trkpt lat="56.42759" lon="-6.13446">
        <ele>47.83</ele>
        <time>2021-03-20T14:52:06Z</time>
      </trkpt>
      <trkpt lat="56.42786" lon="-6.13419">
        <ele>47.38</ele>
        <time>2021-03-20T14:52:08Z</time>
      </trkpt>
      <trkpt lat="56.42812" lon="-6.1337">
        <ele>48</ele>
        <time>2021-03-20T14:52:11Z</time>
      </trkpt>
      <trkpt lat="56.42825" lon="-6.13355">
        <ele>47.19</ele>
        <time>2021-03-20T14:52:13Z</time>
      </trkpt>
      <trkpt lat="56.42843" lon="-6.1334">
        <ele>46.94</ele>
        <time>2021-03-20T14:52:15Z</time>
      </trkpt>
      <trkpt lat="56.42873" lon="-6.13327">
        <ele>47.05</ele>
        <time>2021-03-20T14:52:18Z</time>
      </trkpt>
      <trkpt lat="56.42932" lon="-6.13307">
        <ele>46.32</ele>
        <time>2021-03-20T14:52:20Z</time>
      </trkpt>
      <trkpt lat="56.42963" lon="-6.133">
        <ele>46.06</ele>
        <time>2021-03-20T14:52:22Z</time>
      </trkpt>
      <trkpt lat="56.43" lon="-6.13298">
        <ele>43.84</ele>
        <time>2021-03-20T14:52:25Z</time>
      </trkpt>
      <trkpt lat="56.43036" lon="-6.13306">
        <ele>41.94</ele>
        <time>2021-03-20T14:52:27Z</time>
      </trkpt>
      <trkpt lat="56.4307" lon="-6.13324">
        <ele>41.54</ele>
        <time>2021-03-20T14:52:29Z</time>
      </trkpt>
      <trkpt lat="56.43162" lon="-6.13387">
        <ele>42.05</ele>
        <time>2021-03-20T14:52:32Z</time>
      </trkpt>
      <trkpt lat="56.43196" lon="-6.13405">
        <ele>43.36</ele>
        <time>2021-03-20T14:52:34Z</time>
      </trkpt>
      <trkpt lat="56.43286" lon="-6.1343">
        <ele>39.2</ele>
        <time>2021-03-20T14:52:36Z</time>
      </trkpt>
      <trkpt lat="56.43349" lon="-6.13441">
        <ele>33.47</ele>
        <time>2021-03-20T14:52:39Z</time>
      </trkpt>
      <trkpt lat="56.43381" lon="-6.1344">
        <ele>29.36</ele>
        <time>2021-03-20T14:52:41Z</time>
      </trkpt>
      <trkpt lat="56.43473" lon="-6.1342">
        <ele>20.88</ele>
        <time>2021-03-20T14:52:43Z</time>
      </trkpt>
      <trkpt lat="56.43549" lon="-6.13397">
        <ele>16.84</ele>
        <time>2021-03-20T14:52:46Z</time>
      </trkpt>
      <trkpt lat="56.43601" lon="-6.13377">
        <ele>15.42</ele>
        <time>2021-03-20T14:52:48Z</time>
      </trkpt>
      <trkpt lat="56.43914" lon="-6.13235">
        <ele>6.36</ele>
        <time>2021-03-20T14:52:50Z</time>
      </trkpt>
      <trkpt lat="56.44031" lon="-6.13177">
        <ele>4.15</ele>
        <time>2021-03-20T14:52:53Z</time>
      </trkpt>
      <trkpt lat="56.44108" lon="-6.13133">
        <ele>7.04</ele>
        <time>2021-03-20T14:52:55Z</time>
      </trkpt>
      <trkpt lat="56.44195" lon="-6.13073">
        <ele>12.41</ele>
        <time>2021-03-20T14:52:57Z</time>
      </trkpt>
      <trkpt lat="56.44391" lon="-6.12916">
        <ele>22.13</ele>
        <time>2021-03-20T14:53:00Z</time>
      </trkpt>
      <trkpt lat="56.44434" lon="-6.12889">
        <ele>2.8</ele>
        <time>2021-03-20T14:53:02Z</time>
      </trkpt>
      <trkpt lat="56.44455" lon="-6.12879">
        <ele>3.69</ele>
        <time>2021-03-20T14:53:04Z</time>
      </trkpt>
      <trkpt lat="56.44474" lon="-6.12875">
        <ele>4.51</ele>
        <time>2021-03-20T14:53:07Z</time>
      </trkpt>
      <trkpt lat="56.44555" lon="-6.1287">
        <ele>6.07</ele>
        <time>2021-03-20T14:53:09Z</time>
      </trkpt>
      <trkpt lat="56.44655" lon="-6.12857">
        <ele>7.49</ele>
        <time>2021-03-20T14:53:11Z</time>
      </trkpt>
      <trkpt lat="56.44685" lon="-6.12847">
        <ele>7.26</ele>
        <time>2021-03-20T14:53:14Z</time>
      </trkpt>
      <trkpt lat="56.44801" lon="-6.12791">
        <ele>8.26</ele>
        <time>2021-03-20T14:53:16Z</time>
      </trkpt>
      <trkpt lat="56.4483" lon="-6.1277">
        <ele>9.47</ele>
        <time>2021-03-20T14:53:18Z</time>
      </trkpt>
      <trkpt lat="56.4484" lon="-6.1276">
        <ele>10.16</ele>
        <time>2021-03-20T14:53:21Z</time>
      </trkpt>
      <trkpt lat="56.44888" lon="-6.1269">
        <ele>10.89</ele>
        <time>2021-03-20T14:53:23Z</time>
      </trkpt>
      <trkpt lat="56.44918" lon="-6.12653">
        <ele>10.2</ele>
        <time>2021-03-20T14:53:25Z</time>
      </trkpt>
      <trkpt lat="56.44947" lon="-6.12605">
        <ele>10.61</ele>
        <time>2021-03-20T14:53:28Z</time>
      </trkpt>
      <trkpt lat="56.44973" lon="-6.12556">
        <ele>9.92</ele>
        <time>2021-03-20T14:53:30Z</time>
      </trkpt>
      <trkpt lat="56.44995" lon="-6.125">
        <ele>9.95</ele>
        <time>2021-03-20T14:53:32Z</time>
      </trkpt>
      <trkpt lat="56.45011" lon="-6.12451">
        <ele>11.58</ele>
        <time>2021-03-20T14:53:35Z</time>
      </trkpt>
      <trkpt lat="56.45024" lon="-6.12399">
        <ele>11.93</ele>
        <time>2021-03-20T14:53:37Z</time>
      </trkpt>
      <trkpt lat="56.45058" lon="-6.12178">
        <ele>10.48</ele>
        <time>2021-03-20T14:53:39Z</time>
      </trkpt>
      <trkpt lat="56.45063" lon="-6.1211">
        <ele>10.81</ele>
        <time>2021-03-20T14:53:42Z</time>
      </trkpt>
      <trkpt lat="56.45069" lon="-6.12067">
        <ele>9.13</ele>
        <time>2021-03-20T14:53:44Z</time>
      </trkpt>
      <trkpt lat="56.45074" lon="-6.12047">
        <ele>9.03</ele>
        <time>2021-03-20T14:53:46Z</time>
      </trkpt>
      <trkpt lat="56.45085" lon="-6.12008">
        <ele>8.13</ele>
        <time>2021-03-20T14:53:49Z</time>
      </trkpt>
      <trkpt lat="56.45112" lon="-6.11925">
        <ele>6.84</ele>
        <time>2021-03-20T14:53:51Z</time>
      </trkpt>
      <trkpt lat="56.45119" lon="-6.11881">
        <ele>12.77</ele>
        <time>2021-03-20T14:53:53Z</time>
      </trkpt>
      <trkpt lat="56.45123" lon="-6.11846">
        <ele>15.5</ele>
        <time>2021-03-20T14:53:56Z</time>
      </trkpt>
      <trkpt lat="56.45123" lon="-6.11788">
        <ele>15.78</ele>
        <time>2021-03-20T14:53:58Z</time>
      </trkpt>
      <trkpt lat="56.45109" lon="-6.11692">
        <ele>5.62</ele>
        <time>2021-03-20T14:54:00Z</time>
      </trkpt>
      <trkpt lat="56.45099" lon="-6.11569">
        <ele>7.95</ele>
        <time>2021-03-20T14:54:03Z</time>
      </trkpt>
      <trkpt lat="56.45097" lon="-6.11262">
        <ele>11.77</ele>
        <time>2021-03-20T14:54:05Z</time>
      </trkpt>
      <trkpt lat="56.45091" lon="-6.11149">
        <ele>14.21</ele>
        <time>2021-03-20T14:54:07Z</time>
      </trkpt>
      <trkpt lat="56.45089" lon="-6.11129">
        <ele>13.06</ele>
        <time>2021-03-20T14:54:10Z</time>
      </trkpt>
      <trkpt lat="56.45071" lon="-6.11038">
        <ele>12.67</ele>
        <time>2021-03-20T14:54:12Z</time>
      </trkpt>
      <trkpt lat="56.4506" lon="-6.10885">
        <ele>10.51</ele>
        <time>2021-03-20T14:54:14Z</time>
      </trkpt>
      <trkpt lat="56.45058" lon="-6.10832">
        <ele>9.71</ele>
        <time>2021-03-20T14:54:17Z</time>
      </trkpt>
      <trkpt lat="56.45058" lon="-6.10729">
        <ele>11.48</ele>
        <time>2021-03-20T14:54:19Z</time>
      </trkpt>
      <trkpt lat="56.45065" lon="-6.10671">
        <ele>12.32</ele>
        <time>2021-03-20T14:54:21Z</time>
      </trkpt>
      <trkpt lat="56.45067" lon="-6.10629">
        <ele>15.21</ele>
        <time>2021-03-20T14:54:24Z</time>
      </trkpt>
      <trkpt lat="56.45066" lon="-6.10565">
        <ele>17.24</ele>
        <time>2021-03-20T14:54:26Z</time>
      </trkpt>
      <trkpt lat="56.45059" lon="-6.10437">
        <ele>2.11</ele>
        <time>2021-03-20T14:54:28Z</time>
      </trkpt>
      <trkpt lat="56.4505" lon="-6.10365">
        <ele>7.43</ele>
        <time>2021-03-20T14:54:31Z</time>
      </trkpt>
      <trkpt lat="56.45051" lon="-6.10323">
        <ele>7.35</ele>
        <time>2021-03-20T14:54:33Z</time>
      </trkpt>
      <trkpt lat="56.45046" lon="-6.10216">
        <ele>12.84</ele>
        <time>2021-03-20T14:54:35Z</time>
      </trkpt>
      <trkpt lat="56.45043" lon="-6.10181">
        <ele>21.43</ele>
        <time>2021-03-20T14:54:38Z</time>
      </trkpt>
      <trkpt lat="56.45043" lon="-6.10155">
        <ele>24.13</ele>
        <time>2021-03-20T14:54:40Z</time>
      </trkpt>
      <trkpt lat="56.45052" lon="-6.1011">
        <ele>18.59</ele>
        <time>2021-03-20T14:54:42Z</time>
      </trkpt>
      <trkpt lat="56.45052" lon="-6.10064">
        <ele>15.62</ele>
        <time>2021-03-20T14:54:44Z</time>
      </trkpt>
      <trkpt lat="56.4505" lon="-6.10019">
        <ele>14.91</ele>
        <time>2021-03-20T14:54:47Z</time>
      </trkpt>
      <trkpt lat="56.45059" lon="-6.09963">
        <ele>7.49</ele>
        <time>2021-03-20T14:54:49Z</time>
      </trkpt>
      <trkpt lat="56.45063" lon="-6.09923">
        <ele>5.3</ele>
        <time>2021-03-20T14:54:51Z</time>
      </trkpt>
      <trkpt lat="56.45064" lon="-6.09881">
        <ele>5.23</ele>
        <time>2021-03-20T14:54:54Z</time>
      </trkpt>
      <trkpt lat="56.4506" lon="-6.09865">
        <ele>5.43</ele>
        <time>2021-03-20T14:54:56Z</time>
      </trkpt>
      <trkpt lat="56.44992" lon="-6.09694">
        <ele>4.95</ele>
        <time>2021-03-20T14:54:58Z</time>
      </trkpt>
      <trkpt lat="56.44963" lon="-6.09609">
        <ele>7.1</ele>
        <time>2021-03-20T14:55:01Z</time>
      </trkpt>
      <trkpt lat="56.44956" lon="-6.0958">
        <ele>8.49</ele>
        <time>2021-03-20T14:55:03Z</time>
      </trkpt>
      <trkpt lat="56.44951" lon="-6.09547">
        <ele>8.24</ele>
        <time>2021-03-20T14:55:05Z</time>
      </trkpt>
      <trkpt lat="56.44939" lon="-6.09338">
        <ele>5.06</ele>
        <time>2021-03-20T14:55:08Z</time>
      </trkpt>
      <trkpt lat="56.44934" lon="-6.09268">
        <ele>9.05</ele>
        <time>2021-03-20T14:55:10Z</time>
      </trkpt>
      <trkpt lat="56.4493" lon="-6.09231">
        <ele>13.04</ele>
        <time>2021-03-20T14:55:12Z</time>
      </trkpt>
      <trkpt lat="56.44907" lon="-6.09146">
        <ele>5.13</ele>
        <time>2021-03-20T14:55:15Z</time>
      </trkpt>
      <trkpt lat="56.44884" lon="-6.09079">
        <ele>6.62</ele>
        <time>2021-03-20T14:55:17Z</time>
      </trkpt>
      <trkpt lat="56.44875" lon="-6.09046">
        <ele>8.82</ele>
        <time>2021-03-20T14:55:19Z</time>
      </trkpt>
      <trkpt lat="56.44868" lon="-6.09013">
        <ele>9.94</ele>
        <time>2021-03-20T14:55:22Z</time>
      </trkpt>
      <trkpt lat="56.44864" lon="-6.08943">
        <ele>8.74</ele>
        <time>2021-03-20T14:55:24Z</time>
      </trkpt>
      <trkpt lat="56.44858" lon="-6.08817">
        <ele>13.24</ele>
        <time>2021-03-20T14:55:26Z</time>
      </trkpt>
      <trkpt lat="56.44856" lon="-6.08792">
        <ele>12.01</ele>
        <time>2021-03-20T14:55:29Z</time>
      </trkpt>
      <trkpt lat="56.44833" lon="-6.08647">
        <ele>14.19</ele>
        <time>2021-03-20T14:55:31Z</time>
      </trkpt>
      <trkpt lat="56.44826" lon="-6.08609">
        <ele>11.74</ele>
        <time>2021-03-20T14:55:33Z</time>
      </trkpt>
      <trkpt lat="56.44817" lon="-6.08574">
        <ele>8.06</ele>
        <time>2021-03-20T14:55:36Z</time>
      </trkpt>
      <trkpt lat="56.44789" lon="-6.08483">
        <ele>9.34</ele>
        <time>2021-03-20T14:55:38Z</time>
      </trkpt>
      <trkpt lat="56.44786" lon="-6.08465">
        <ele>9.86</ele>
        <time>2021-03-20T14:55:40Z</time>
      </trkpt>
      <trkpt lat="56.44785" lon="-6.08443">
        <ele>8.49</ele>
        <time>2021-03-20T14:55:43Z</time>
      </trkpt>
      <trkpt lat="56.44792" lon="-6.08321">
        <ele>13.68</ele>
        <time>2021-03-20T14:55:45Z</time>
      </trkpt>
      <trkpt lat="56.44805" lon="-6.08186">
        <ele>28.26</ele>
        <time>2021-03-20T14:55:47Z</time>
      </trkpt>
      <trkpt lat="56.44804" lon="-6.08166">
        <ele>27</ele>
        <time>2021-03-20T14:55:50Z</time>
      </trkpt>
      <trkpt lat="56.44803" lon="-6.08147">
        <ele>25.4</ele>
        <time>2021-03-20T14:55:52Z</time>
      </trkpt>
      <trkpt lat="56.44763" lon="-6.07949">
        <ele>2.8</ele>
        <time>2021-03-20T14:55:54Z</time>
      </trkpt>
      <trkpt lat="56.44753" lon="-6.07886">
        <ele>2.81</ele>
        <time>2021-03-20T14:55:57Z</time>
      </trkpt>
      <trkpt lat="56.44757" lon="-6.07815">
        <ele>1.74</ele>
        <time>2021-03-20T14:55:59Z</time>
      </trkpt>
      <trkpt lat="56.44772" lon="-6.07666">
        <ele>4.05</ele>
        <time>2021-03-20T14:56:01Z</time>
      </trkpt>
      <trkpt lat="56.4481" lon="-6.07375">
        <ele>2.83</ele>
        <time>2021-03-20T14:56:04Z</time>
      </trkpt>
      <trkpt lat="56.44813" lon="-6.07344">
        <ele>3.37</ele>
        <time>2021-03-20T14:56:06Z</time>
      </trkpt>
      <trkpt lat="56.44811" lon="-6.07313">
        <ele>3.82</ele>
        <time>2021-03-20T14:56:08Z</time>
      </trkpt>
      <trkpt lat="56.44779" lon="-6.0719">
        <ele>4.73</ele>
        <time>2021-03-20T14:56:11Z</time>
      </trkpt>
      <trkpt lat="56.44777" lon="-6.0717">
        <ele>4.17</ele>
        <time>2021-03-20T14:56:13Z</time>
      </trkpt>
      <trkpt lat="56.44778" lon="-6.07155">
        <ele>4.02</ele>
        <time>2021-03-20T14:56:15Z</time>
      </trkpt>
      <trkpt lat="56.4478" lon="-6.07138">
        <ele>3.84</ele>
        <time>2021-03-20T14:56:18Z</time>
      </trkpt>
      <trkpt lat="56.44885" lon="-6.06831">
        <ele>4.26</ele>
        <time>2021-03-20T14:56:20Z</time>
      </trkpt>
      <trkpt lat="56.44904" lon="-6.06766">
        <ele>4.76</ele>
        <time>2021-03-20T14:56:22Z</time>
      </trkpt>
      <trkpt lat="56.44908" lon="-6.06726">
        <ele>5.66</ele>
        <time>2021-03-20T14:56:25Z</time>
      </trkpt>
      <trkpt lat="56.44913" lon="-6.06643">
        <ele>7.61</ele>
        <time>2021-03-20T14:56:27Z</time>
      </trkpt>
      <trkpt lat="56.44917" lon="-6.06602">
        <ele>4.02</ele>
        <time>2021-03-20T14:56:29Z</time>
      </trkpt>
      <trkpt lat="56.44932" lon="-6.06496">
        <ele>3.37</ele>
        <time>2021-03-20T14:56:32Z</time>
      </trkpt>
      <trkpt lat="56.44938" lon="-6.06415">
        <ele>4.25</ele>
        <time>2021-03-20T14:56:34Z</time>
      </trkpt>
      <trkpt lat="56.44942" lon="-6.0639">
        <ele>4.58</ele>
        <time>2021-03-20T14:56:36Z</time>
      </trkpt>
      <trkpt lat="56.44947" lon="-6.06369">
        <ele>4.51</ele>
        <time>2021-03-20T14:56:39Z</time>
      </trkpt>
      <trkpt lat="56.44969" lon="-6.06313">
        <ele>5.11</ele>
        <time>2021-03-20T14:56:41Z</time>
      </trkpt>
      <trkpt lat="56.44991" lon="-6.06261">
        <ele>4.56</ele>
        <time>2021-03-20T14:56:43Z</time>
      </trkpt>
      <trkpt lat="56.45017" lon="-6.06213">
        <ele>3.64</ele>
        <time>2021-03-20T14:56:46Z</time>
      </trkpt>
      <trkpt lat="56.45026" lon="-6.06191">
        <ele>2.41</ele>
        <time>2021-03-20T14:56:48Z</time>
      </trkpt>
      <trkpt lat="56.45034" lon="-6.06168">
        <ele>3.63</ele>
        <time>2021-03-20T14:56:50Z</time>
      </trkpt>
      <trkpt lat="56.45045" lon="-6.06113">
        <ele>2.64</ele>
        <time>2021-03-20T14:56:53Z</time>
      </trkpt>
      <trkpt lat="56.45084" lon="-6.05854">
        <ele>5.5</ele>
        <time>2021-03-20T14:56:55Z</time>
      </trkpt>
      <trkpt lat="56.45104" lon="-6.05742">
        <ele>8.04</ele>
        <time>2021-03-20T14:56:57Z</time>
      </trkpt>
      <trkpt lat="56.45108" lon="-6.05628">
        <ele>4.28</ele>
        <time>2021-03-20T14:57:00Z</time>
      </trkpt>
      <trkpt lat="56.45117" lon="-6.0556">
        <ele>5.24</ele>
        <time>2021-03-20T14:57:02Z</time>
      </trkpt>
      <trkpt lat="56.45122" lon="-6.05488">
        <ele>7.72</ele>
        <time>2021-03-20T14:57:04Z</time>
      </trkpt>
      <trkpt lat="56.45125" lon="-6.05461">
        <ele>8.88</ele>
        <time>2021-03-20T14:57:07Z</time>
      </trkpt>
      <trkpt lat="56.45131" lon="-6.05445">
        <ele>8.65</ele>
        <time>2021-03-20T14:57:09Z</time>
      </trkpt>
      <trkpt lat="56.45137" lon="-6.05431">
        <ele>7.98</ele>
        <time>2021-03-20T14:57:11Z</time>
      </trkpt>
      <trkpt lat="56.45201" lon="-6.05348">
        <ele>5.46</ele>
        <time>2021-03-20T14:57:14Z</time>
      </trkpt>
      <trkpt lat="56.45261" lon="-6.0526">
        <ele>4.72</ele>
        <time>2021-03-20T14:57:16Z</time>
      </trkpt>
      <trkpt lat="56.45273" lon="-6.05245">
        <ele>5.03</ele>
        <time>2021-03-20T14:57:18Z</time>
      </trkpt>
      <trkpt lat="56.45313" lon="-6.05211">
        <ele>5.27</ele>
        <time>2021-03-20T14:57:21Z</time>
      </trkpt>
      <trkpt lat="56.45364" lon="-6.05176">
        <ele>8.35</ele>
        <time>2021-03-20T14:57:23Z</time>
      </trkpt>
      <trkpt lat="56.45377" lon="-6.05151">
        <ele>9.57</ele>
        <time>2021-03-20T14:57:25Z</time>
      </trkpt>
      <trkpt lat="56.45384" lon="-6.05133">
        <ele>10.07</ele>
        <time>2021-03-20T14:57:28Z</time>
      </trkpt>
      <trkpt lat="56.4542" lon="-6.05023">
        <ele>4.84</ele>
        <time>2021-03-20T14:57:30Z</time>
      </trkpt>
      <trkpt lat="56.45433" lon="-6.04991">
        <ele>5.16</ele>
        <time>2021-03-20T14:57:32Z</time>
      </trkpt>
      <trkpt lat="56.45439" lon="-6.04979">
        <ele>5.11</ele>
        <time>2021-03-20T14:57:35Z</time>
      </trkpt>
      <trkpt lat="56.45446" lon="-6.04972">
        <ele>4.98</ele>
        <time>2021-03-20T14:57:37Z</time>
      </trkpt>
      <trkpt lat="56.45467" lon="-6.04958">
        <ele>5.16</ele>
        <time>2021-03-20T14:57:39Z</time>
      </trkpt>
      <trkpt lat="56.45563" lon="-6.04926">
        <ele>4.14</ele>
        <time>2021-03-20T14:57:42Z</time>
      </trkpt>
      <trkpt lat="56.45602" lon="-6.04901">
        <ele>3.76</ele>
        <time>2021-03-20T14:57:44Z</time>
      </trkpt>
      <trkpt lat="56.45666" lon="-6.04847">
        <ele>5.54</ele>
        <time>2021-03-20T14:57:46Z</time>
      </trkpt>
      <trkpt lat="56.45699" lon="-6.04816">
        <ele>4.38</ele>
        <time>2021-03-20T14:57:49Z</time>
      </trkpt>
      <trkpt lat="56.45764" lon="-6.04745">
        <ele>3.68</ele>
        <time>2021-03-20T14:57:51Z</time>
      </trkpt>
      <trkpt lat="56.45795" lon="-6.04707">
        <ele>3.91</ele>
        <time>2021-03-20T14:57:53Z</time>
      </trkpt>
      <trkpt lat="56.45823" lon="-6.04661">
        <ele>5.65</ele>
        <time>2021-03-20T14:57:56Z</time>
      </trkpt>
      <trkpt lat="56.4584" lon="-6.04638">
        <ele>5.57</ele>
        <time>2021-03-20T14:57:58Z</time>
      </trkpt>
      <trkpt lat="56.45886" lon="-6.04588">
        <ele>5.95</ele>
        <time>2021-03-20T14:58:00Z</time>
      </trkpt>
      <trkpt lat="56.45917" lon="-6.04548">
        <ele>6.25</ele>
        <time>2021-03-20T14:58:03Z</time>
      </trkpt>
      <trkpt lat="56.45934" lon="-6.04524">
        <ele>6.68</ele>
        <time>2021-03-20T14:58:05Z</time>
      </trkpt>
      <trkpt lat="56.45985" lon="-6.04423">
        <ele>5.87</ele>
        <time>2021-03-20T14:58:07Z</time>
      </trkpt>
      <trkpt lat="56.46057" lon="-6.043">
        <ele>4.16</ele>
        <time>2021-03-20T14:58:10Z</time>
      </trkpt>
      <trkpt lat="56.46135" lon="-6.04136">
        <ele>10.14</ele>
        <time>2021-03-20T14:58:12Z</time>
      </trkpt>
      <trkpt lat="56.46168" lon="-6.04047">
        <ele>9.93</ele>
        <time>2021-03-20T14:58:14Z</time>
      </trkpt>
      <trkpt lat="56.46198" lon="-6.03952">
        <ele>8.82</ele>
        <time>2021-03-20T14:58:17Z</time>
      </trkpt>
      <trkpt lat="56.46236" lon="-6.03809">
        <ele>8.51</ele>
        <time>2021-03-20T14:58:19Z</time>
      </trkpt>
      <trkpt lat="56.46284" lon="-6.03591">
        <ele>6.77</ele>
        <time>2021-03-20T14:58:21Z</time>
      </trkpt>
      <trkpt lat="56.46288" lon="-6.03562">
        <ele>6.33</ele>
        <time>2021-03-20T14:58:24Z</time>
      </trkpt>
      <trkpt lat="56.46298" lon="-6.03469">
        <ele>4.5</ele>
        <time>2021-03-20T14:58:26Z</time>
      </trkpt>
      <trkpt lat="56.46304" lon="-6.03434">
        <ele>4.07</ele>
        <time>2021-03-20T14:58:28Z</time>
      </trkpt>
      <trkpt lat="56.4632" lon="-6.03378">
        <ele>4</ele>
        <time>2021-03-20T14:58:31Z</time>
      </trkpt>
      <trkpt lat="56.46331" lon="-6.03349">
        <ele>4.45</ele>
        <time>2021-03-20T14:58:33Z</time>
      </trkpt>
      <trkpt lat="56.46359" lon="-6.03284">
        <ele>5</ele>
        <time>2021-03-20T14:58:35Z</time>
      </trkpt>
      <trkpt lat="56.46387" lon="-6.03226">
        <ele>4.87</ele>
        <time>2021-03-20T14:58:38Z</time>
      </trkpt>
      <trkpt lat="56.46401" lon="-6.03213">
        <ele>4.57</ele>
        <time>2021-03-20T14:58:40Z</time>
      </trkpt>
      <trkpt lat="56.46476" lon="-6.03161">
        <ele>5.3</ele>
        <time>2021-03-20T14:58:42Z</time>
      </trkpt>
      <trkpt lat="56.46489" lon="-6.03149">
        <ele>5.86</ele>
        <time>2021-03-20T14:58:45Z</time>
      </trkpt>
      <trkpt lat="56.46502" lon="-6.03133">
        <ele>6.13</ele>
        <time>2021-03-20T14:58:47Z</time>
      </trkpt>
      <trkpt lat="56.46545" lon="-6.03057">
        <ele>4.22</ele>
        <time>2021-03-20T14:58:49Z</time>
      </trkpt>
      <trkpt lat="56.46549" lon="-6.03041">
        <ele>3.67</ele>
        <time>2021-03-20T14:58:52Z</time>
      </trkpt>
      <trkpt lat="56.46562" lon="-6.02976">
        <ele>3</ele>
        <time>2021-03-20T14:58:54Z</time>
      </trkpt>
      <trkpt lat="56.46623" lon="-6.02781">
        <ele>4.05</ele>
        <time>2021-03-20T14:58:56Z</time>
      </trkpt>
      <trkpt lat="56.46629" lon="-6.02752">
        <ele>3.71</ele>
        <time>2021-03-20T14:58:59Z</time>
      </trkpt>
      <trkpt lat="56.46633" lon="-6.02719">
        <ele>4.2</ele>
        <time>2021-03-20T14:59:01Z</time>
      </trkpt>
      <trkpt lat="56.46646" lon="-6.02449">
        <ele>3.73</ele>
        <time>2021-03-20T14:59:03Z</time>
      </trkpt>
      <trkpt lat="56.46649" lon="-6.02413">
        <ele>3.66</ele>
        <time>2021-03-20T14:59:06Z</time>
      </trkpt>
      <trkpt lat="56.46665" lon="-6.02278">
        <ele>4.29</ele>
        <time>2021-03-20T14:59:08Z</time>
      </trkpt>
      <trkpt lat="56.4667" lon="-6.02077">
        <ele>6.76</ele>
        <time>2021-03-20T14:59:10Z</time>
      </trkpt>
      <trkpt lat="56.46675" lon="-6.02053">
        <ele>6.82</ele>
        <time>2021-03-20T14:59:13Z</time>
      </trkpt>
      <trkpt lat="56.46682" lon="-6.02032">
        <ele>6.14</ele>
        <time>2021-03-20T14:59:15Z</time>
      </trkpt>
      <trkpt lat="56.46733" lon="-6.01902">
        <ele>5.11</ele>
        <time>2021-03-20T14:59:17Z</time>
      </trkpt>
      <trkpt lat="56.4674" lon="-6.01876">
        <ele>5.39</ele>
        <time>2021-03-20T14:59:20Z</time>
      </trkpt>
      <trkpt lat="56.46753" lon="-6.01817">
        <ele>5.94</ele>
        <time>2021-03-20T14:59:22Z</time>
      </trkpt>
      <trkpt lat="56.4676" lon="-6.01789">
        <ele>7.22</ele>
        <time>2021-03-20T14:59:24Z</time>
      </trkpt>
      <trkpt lat="56.46778" lon="-6.01742">
        <ele>7.84</ele>
        <time>2021-03-20T14:59:27Z</time>
      </trkpt>
      <trkpt lat="56.46787" lon="-6.01727">
        <ele>7.82</ele>
        <time>2021-03-20T14:59:29Z</time>
      </trkpt>
      <trkpt lat="56.46799" lon="-6.01717">
        <ele>7.02</ele>
        <time>2021-03-20T14:59:31Z</time>
      </trkpt>
      <trkpt lat="56.46903" lon="-6.01662">
        <ele>8.1</ele>
        <time>2021-03-20T14:59:34Z</time>
      </trkpt>
      <trkpt lat="56.46949" lon="-6.01634">
        <ele>6.97</ele>
        <time>2021-03-20T14:59:36Z</time>
      </trkpt>
      <trkpt lat="56.46974" lon="-6.01614">
        <ele>4.63</ele>
        <time>2021-03-20T14:59:38Z</time>
      </trkpt>
      <trkpt lat="56.47004" lon="-6.01575">
        <ele>4.29</ele>
        <time>2021-03-20T14:59:41Z</time>
      </trkpt>
      <trkpt lat="56.47015" lon="-6.01557">
        <ele>4.25</ele>
        <time>2021-03-20T14:59:43Z</time>
      </trkpt>
      <trkpt lat="56.47039" lon="-6.01514">
        <ele>4.64</ele>
        <time>2021-03-20T14:59:45Z</time>
      </trkpt>
      <trkpt lat="56.4708" lon="-6.01456">
        <ele>4.71</ele>
        <time>2021-03-20T14:59:48Z</time>
      </trkpt>
      <trkpt lat="56.4711" lon="-6.0142">
        <ele>5.81</ele>
        <time>2021-03-20T14:59:50Z</time>
      </trkpt>
      <trkpt lat="56.47124" lon="-6.01409">
        <ele>8.63</ele>
        <time>2021-03-20T14:59:52Z</time>
      </trkpt>
      <trkpt lat="56.47148" lon="-6.01395">
        <ele>7.49</ele>
        <time>2021-03-20T14:59:55Z</time>
      </trkpt>
      <trkpt lat="56.47153" lon="-6.01387">
        <ele>6.61</ele>
        <time>2021-03-20T14:59:57Z</time>
      </trkpt>
      <trkpt lat="56.47157" lon="-6.01375">
        <ele>7.03</ele>
        <time>2021-03-20T14:59:59Z</time>
      </trkpt>
      <trkpt lat="56.47167" lon="-6.01336">
        <ele>7.9</ele>
        <time>2021-03-20T15:00:02Z</time>
      </trkpt>
      <trkpt lat="56.47176" lon="-6.01313">
        <ele>7.43</ele>
        <time>2021-03-20T15:00:04Z</time>
      </trkpt>
      <trkpt lat="56.47188" lon="-6.01294">
        <ele>6.78</ele>
        <time>2021-03-20T15:00:06Z</time>
      </trkpt>
      <trkpt lat="56.47204" lon="-6.01281">
        <ele>6.14</ele>
        <time>2021-03-20T15:00:09Z</time>
      </trkpt>
      <trkpt lat="56.47227" lon="-6.01266">
        <ele>5.64</ele>
        <time>2021-03-20T15:00:11Z</time>
      </trkpt>
      <trkpt lat="56.47289" lon="-6.01216">
        <ele>5.64</ele>
        <time>2021-03-20T15:00:13Z</time>
      </trkpt>
      <trkpt lat="56.4732" lon="-6.01185">
        <ele>5.62</ele>
        <time>2021-03-20T15:00:16Z</time>
      </trkpt>
      <trkpt lat="56.47333" lon="-6.01168">
        <ele>5.93</ele>
        <time>2021-03-20T15:00:18Z</time>
      </trkpt>
      <trkpt lat="56.47343" lon="-6.01152">
        <ele>5.45</ele>
        <time>2021-03-20T15:00:20Z</time>
      </trkpt>
      <trkpt lat="56.47352" lon="-6.01134">
        <ele>5.25</ele>
        <time>2021-03-20T15:00:23Z</time>
      </trkpt>
      <trkpt lat="56.47386" lon="-6.01038">
        <ele>6.68</ele>
        <time>2021-03-20T15:00:25Z</time>
      </trkpt>
      <trkpt lat="56.47392" lon="-6.01025">
        <ele>6.9</ele>
        <time>2021-03-20T15:00:27Z</time>
      </trkpt>
      <trkpt lat="56.47399" lon="-6.01015">
        <ele>6.86</ele>
        <time>2021-03-20T15:00:30Z</time>
      </trkpt>
      <trkpt lat="56.47446" lon="-6.0097">
        <ele>5.2</ele>
        <time>2021-03-20T15:00:32Z</time>
      </trkpt>
      <trkpt lat="56.47462" lon="-6.00957">
        <ele>5.66</ele>
        <time>2021-03-20T15:00:34Z</time>
      </trkpt>
      <trkpt lat="56.47534" lon="-6.00922">
        <ele>4.8</ele>
        <time>2021-03-20T15:00:37Z</time>
      </trkpt>
      <trkpt lat="56.47665" lon="-6.00864">
        <ele>4.1</ele>
        <time>2021-03-20T15:00:39Z</time>
      </trkpt>
      <trkpt lat="56.47683" lon="-6.00849">
        <ele>3.87</ele>
        <time>2021-03-20T15:00:41Z</time>
      </trkpt>
      <trkpt lat="56.47695" lon="-6.00824">
        <ele>4.31</ele>
        <time>2021-03-20T15:00:44Z</time>
      </trkpt>
      <trkpt lat="56.47708" lon="-6.00781">
        <ele>4.91</ele>
        <time>2021-03-20T15:00:46Z</time>
      </trkpt>
      <trkpt lat="56.47719" lon="-6.00734">
        <ele>4.21</ele>
        <time>2021-03-20T15:00:48Z</time>
      </trkpt>
      <trkpt lat="56.47725" lon="-6.00695">
        <ele>4</ele>
        <time>2021-03-20T15:00:51Z</time>
      </trkpt>
      <trkpt lat="56.4773" lon="-6.00616">
        <ele>3.71</ele>
        <time>2021-03-20T15:00:53Z</time>
      </trkpt>
      <trkpt lat="56.47751" lon="-6.00435">
        <ele>4.24</ele>
        <time>2021-03-20T15:00:55Z</time>
      </trkpt>
      <trkpt lat="56.4777" lon="-6.00297">
        <ele>6.21</ele>
        <time>2021-03-20T15:00:58Z</time>
      </trkpt>
      <trkpt lat="56.47772" lon="-6.00259">
        <ele>6.05</ele>
        <time>2021-03-20T15:01:00Z</time>
      </trkpt>
      <trkpt lat="56.47772" lon="-6.00151">
        <ele>7.96</ele>
        <time>2021-03-20T15:01:02Z</time>
      </trkpt>
      <trkpt lat="56.47775" lon="-6.00102">
        <ele>8.41</ele>
        <time>2021-03-20T15:01:05Z</time>
      </trkpt>
      <trkpt lat="56.4778" lon="-6.00051">
        <ele>8.99</ele>
        <time>2021-03-20T15:01:07Z</time>
      </trkpt>
      <trkpt lat="56.47786" lon="-6.0002">
        <ele>9.7</ele>
        <time>2021-03-20T15:01:09Z</time>
      </trkpt>
      <trkpt lat="56.47793" lon="-5.99992">
        <ele>10.18</ele>
        <time>2021-03-20T15:01:12Z</time>
      </trkpt>
      <trkpt lat="56.47804" lon="-5.99961">
        <ele>10.93</ele>
        <time>2021-03-20T15:01:14Z</time>
      </trkpt>
      <trkpt lat="56.47855" lon="-5.99832">
        <ele>12.48</ele>
        <time>2021-03-20T15:01:16Z</time>
      </trkpt>
      <trkpt lat="56.4786" lon="-5.99815">
        <ele>12.1</ele>
        <time>2021-03-20T15:01:19Z</time>
      </trkpt>
      <trkpt lat="56.47866" lon="-5.9978">
        <ele>11.66</ele>
        <time>2021-03-20T15:01:21Z</time>
      </trkpt>
      <trkpt lat="56.47884" lon="-5.99547">
        <ele>16.69</ele>
        <time>2021-03-20T15:01:23Z</time>
      </trkpt>
      <trkpt lat="56.47887" lon="-5.9949">
        <ele>19.09</ele>
        <time>2021-03-20T15:01:26Z</time>
      </trkpt>
      <trkpt lat="56.47888" lon="-5.99432">
        <ele>20.09</ele>
        <time>2021-03-20T15:01:28Z</time>
      </trkpt>
      <trkpt lat="56.47888" lon="-5.99384">
        <ele>20.12</ele>
        <time>2021-03-20T15:01:30Z</time>
      </trkpt>
      <trkpt lat="56.47886" lon="-5.99342">
        <ele>19.85</ele>
        <time>2021-03-20T15:01:33Z</time>
      </trkpt>
      <trkpt lat="56.47879" lon="-5.99252">
        <ele>25.99</ele>
        <time>2021-03-20T15:01:35Z</time>
      </trkpt>
      <trkpt lat="56.47874" lon="-5.99217">
        <ele>29.07</ele>
        <time>2021-03-20T15:01:37Z</time>
      </trkpt>
      <trkpt lat="56.47864" lon="-5.99187">
        <ele>30.87</ele>
        <time>2021-03-20T15:01:40Z</time>
      </trkpt>
      <trkpt lat="56.47816" lon="-5.99066">
        <ele>29.3</ele>
        <time>2021-03-20T15:01:42Z</time>
      </trkpt>
      <trkpt lat="56.47804" lon="-5.99047">
        <ele>29.65</ele>
        <time>2021-03-20T15:01:44Z</time>
      </trkpt>
      <trkpt lat="56.47777" lon="-5.98967">
        <ele>27.52</ele>
        <time>2021-03-20T15:01:47Z</time>
      </trkpt>
      <trkpt lat="56.47724" lon="-5.98743">
        <ele>19.58</ele>
        <time>2021-03-20T15:01:49Z</time>
      </trkpt>
      <trkpt lat="56.47725" lon="-5.98715">
        <ele>18.9</ele>
        <time>2021-03-20T15:01:51Z</time>
      </trkpt>
      <trkpt lat="56.47729" lon="-5.9871">
        <ele>18.76</ele>
        <time>2021-03-20T15:01:54Z</time>
      </trkpt>
      <trkpt lat="56.47757" lon="-5.98708">
        <ele>18</ele>
        <time>2021-03-20T15:01:56Z</time>
      </trkpt>
      <trkpt lat="56.47794" lon="-5.98694">
        <ele>18.01</ele>
        <time>2021-03-20T15:01:58Z</time>
      </trkpt>
      <trkpt lat="56.4781" lon="-5.98671">
        <ele>17.73</ele>
        <time>2021-03-20T15:02:01Z</time>
      </trkpt>
      <trkpt lat="56.47824" lon="-5.98663">
        <ele>16.62</ele>
        <time>2021-03-20T15:02:03Z</time>
      </trkpt>
      <trkpt lat="56.47861" lon="-5.98672">
        <ele>15.03</ele>
        <time>2021-03-20T15:02:05Z</time>
      </trkpt>
      <trkpt lat="56.47876" lon="-5.98678">
        <ele>15.86</ele>
        <time>2021-03-20T15:02:08Z</time>
      </trkpt>
      <trkpt lat="56.47882" lon="-5.98693">
        <ele>15.79</ele>
        <time>2021-03-20T15:02:10Z</time>
      </trkpt>
      <trkpt lat="56.47897" lon="-5.98751">
        <ele>15.28</ele>
        <time>2021-03-20T15:02:12Z</time>
      </trkpt>
      <trkpt lat="56.47909" lon="-5.98785">
        <ele>14.46</ele>
        <time>2021-03-20T15:02:15Z</time>
      </trkpt>
      <trkpt lat="56.47923" lon="-5.98814">
        <ele>13.92</ele>
        <time>2021-03-20T15:02:17Z</time>
      </trkpt>
      <trkpt lat="56.47976" lon="-5.98875">
        <ele>13.22</ele>
        <time>2021-03-20T15:02:19Z</time>
      </trkpt>
      <trkpt lat="56.48016" lon="-5.98889">
        <ele>14.59</ele>
        <time>2021-03-20T15:02:22Z</time>
      </trkpt>
      <trkpt lat="56.48147" lon="-5.98908">
        <ele>12.64</ele>
        <time>2021-03-20T15:02:24Z</time>
      </trkpt>
      <trkpt lat="56.48383" lon="-5.99">
        <ele>12.33</ele>
        <time>2021-03-20T15:02:26Z</time>
      </trkpt>
      <trkpt lat="56.48504" lon="-5.99043">
        <ele>15.69</ele>
        <time>2021-03-20T15:02:29Z</time>
      </trkpt>
      <trkpt lat="56.48563" lon="-5.99051">
        <ele>12.74</ele>
        <time>2021-03-20T15:02:31Z</time>
      </trkpt>
      <trkpt lat="56.48621" lon="-5.99051">
        <ele>12.3</ele>
        <time>2021-03-20T15:02:33Z</time>
      </trkpt>
      <trkpt lat="56.48795" lon="-5.99025">
        <ele>12.96</ele>
        <time>2021-03-20T15:02:36Z</time>
      </trkpt>
      <trkpt lat="56.48859" lon="-5.99005">
        <ele>13.75</ele>
        <time>2021-03-20T15:02:38Z</time>
      </trkpt>
      <trkpt lat="56.49038" lon="-5.98945">
        <ele>12.63</ele>
        <time>2021-03-20T15:02:40Z</time>
      </trkpt>
      <trkpt lat="56.49067" lon="-5.98933">
        <ele>12</ele>
        <time>2021-03-20T15:02:43Z</time>
      </trkpt>
      <trkpt lat="56.49074" lon="-5.98932">
        <ele>12</ele>
        <time>2021-03-20T15:02:45Z</time>
      </trkpt>
      <trkpt lat="56.49198" lon="-5.98884">
        <ele>12.08</ele>
        <time>2021-03-20T15:02:47Z</time>
      </trkpt>
      <trkpt lat="56.49306" lon="-5.98815">
        <ele>10.95</ele>
        <time>2021-03-20T15:02:50Z</time>
      </trkpt>
      <trkpt lat="56.49382" lon="-5.98758">
        <ele>10</ele>
        <time>2021-03-20T15:02:52Z</time>
      </trkpt>
      <trkpt lat="56.49406" lon="-5.98736">
        <ele>10.49</ele>
        <time>2021-03-20T15:02:54Z</time>
      </trkpt>
      <trkpt lat="56.49645" lon="-5.98199">
        <ele>12.44</ele>
        <time>2021-03-20T15:02:59Z</time>
      </trkpt>
      <trkpt lat="56.49729" lon="-5.97903">
        <ele>16.12</ele>
        <time>2021-03-20T15:03:04Z</time>
      </trkpt>
      <trkpt lat="56.49764" lon="-5.97802">
        <ele>16.59</ele>
        <time>2021-03-20T15:03:09Z</time>
      </trkpt>
      <trkpt lat="56.49792" lon="-5.97746">
        <ele>19.1</ele>
        <time>2021-03-20T15:03:14Z</time>
      </trkpt>
      <trkpt lat="56.49825" lon="-5.977">
        <ele>20.71</ele>
        <time>2021-03-20T15:03:19Z</time>
      </trkpt>
      <trkpt lat="56.50551" lon="-5.9676">
        <ele>23</ele>
        <time>2021-03-20T15:03:24Z</time>
      </trkpt>
      <trkpt lat="56.50572" lon="-5.96722">
        <ele>22.42</ele>
        <time>2021-03-20T15:03:29Z</time>
      </trkpt>
      <trkpt lat="56.50591" lon="-5.96676">
        <ele>22</ele>
        <time>2021-03-20T15:03:33Z</time>
      </trkpt>
      <trkpt lat="56.50769" lon="-5.96192">
        <ele>33.76</ele>
        <time>2021-03-20T15:03:38Z</time>
      </trkpt>
      <trkpt lat="56.5078" lon="-5.96146">
        <ele>35.67</ele>
        <time>2021-03-20T15:03:43Z</time>
      </trkpt>
      <trkpt lat="56.50797" lon="-5.9602">
        <ele>41.06</ele>
        <time>2021-03-20T15:03:48Z</time>
      </trkpt>
      <trkpt lat="56.50806" lon="-5.95975">
        <ele>42.84</ele>
        <time>2021-03-20T15:03:53Z</time>
      </trkpt>
      <trkpt lat="56.5082" lon="-5.95943">
        <ele>42.94</ele>
        <time>2021-03-20T15:03:58Z</time>
      </trkpt>
      <trkpt lat="56.50842" lon="-5.95918">
        <ele>41.4</ele>
        <time>2021-03-20T15:04:03Z</time>
      </trkpt>
      <trkpt lat="56.50896" lon="-5.95861">
        <ele>39.77</ele>
        <time>2021-03-20T15:04:08Z</time>
      </trkpt>
      <trkpt lat="56.50923" lon="-5.95826">
        <ele>41.12</ele>
        <time>2021-03-20T15:04:13Z</time>
      </trkpt>
      <trkpt lat="56.50973" lon="-5.95731">
        <ele>44.85</ele>
        <time>2021-03-20T15:04:17Z</time>
      </trkpt>
      <trkpt lat="56.51006" lon="-5.95664">
        <ele>42.9</ele>
        <time>2021-03-20T15:04:22Z</time>
      </trkpt>
      <trkpt lat="56.51078" lon="-5.95453">
        <ele>34.19</ele>
        <time>2021-03-20T15:04:27Z</time>
      </trkpt>
      <trkpt lat="56.51084" lon="-5.95428">
        <ele>33</ele>
        <time>2021-03-20T15:04:32Z</time>
      </trkpt>
      <trkpt lat="56.51085" lon="-5.95399">
        <ele>32.96</ele>
        <time>2021-03-20T15:04:37Z</time>
      </trkpt>
      <trkpt lat="56.51081" lon="-5.95363">
        <ele>33.1</ele>
        <time>2021-03-20T15:04:42Z</time>
      </trkpt>
      <trkpt lat="56.5107" lon="-5.95333">
        <ele>32.01</ele>
        <time>2021-03-20T15:04:47Z</time>
      </trkpt>
      <trkpt lat="56.51002" lon="-5.95184">
        <ele>26.27</ele>
        <time>2021-03-20T15:04:52Z</time>
      </trkpt>
      <trkpt lat="56.50993" lon="-5.95151">
        <ele>24.61</ele>
        <time>2021-03-20T15:04:57Z</time>
      </trkpt>
      <trkpt lat="56.50991" lon="-5.95097">
        <ele>23.32</ele>
        <time>2021-03-20T15:05:01Z</time>
      </trkpt>
      <trkpt lat="56.51001" lon="-5.95026">
        <ele>20.77</ele>
        <time>2021-03-20T15:05:06Z</time>
      </trkpt>
      <trkpt lat="56.51021" lon="-5.9493">
        <ele>15.25</ele>
        <time>2021-03-20T15:05:11Z</time>
      </trkpt>
      <trkpt lat="56.51036" lon="-5.9491">
        <ele>14.64</ele>
        <time>2021-03-20T15:05:16Z</time>
      </trkpt>
      <trkpt lat="56.51169" lon="-5.9481">
        <ele>12</ele>
        <time>2021-03-20T15:05:21Z</time>
      </trkpt>
      <trkpt lat="56.51304" lon="-5.94703">
        <ele>13.06</ele>
        <time>2021-03-20T15:05:26Z</time>
      </trkpt>
      <trkpt lat="56.51343" lon="-5.94676">
        <ele>12.66</ele>
        <time>2021-03-20T15:05:31Z</time>
      </trkpt>
      <trkpt lat="56.51352" lon="-5.94674">
        <ele>12.75</ele>
        <time>2021-03-20T15:05:36Z</time>
      </trkpt>
      <trkpt lat="56.51378" lon="-5.94677">
        <ele>12.63</ele>
        <time>2021-03-20T15:05:41Z</time>
      </trkpt>
      <trkpt lat="56.51441" lon="-5.9469">
        <ele>13.16</ele>
        <time>2021-03-20T15:05:45Z</time>
      </trkpt>
      <trkpt lat="56.51499" lon="-5.94707">
        <ele>11.05</ele>
        <time>2021-03-20T15:05:50Z</time>
      </trkpt>
      <trkpt lat="56.51546" lon="-5.94734">
        <ele>12</ele>
        <time>2021-03-20T15:05:55Z</time>
      </trkpt>
      <trkpt lat="56.51676" lon="-5.94827">
        <ele>9.67</ele>
        <time>2021-03-20T15:06:00Z</time>
      </trkpt>
      <trkpt lat="56.51698" lon="-5.94832">
        <ele>8.88</ele>
        <time>2021-03-20T15:06:05Z</time>
      </trkpt>
      <trkpt lat="56.51719" lon="-5.94817">
        <ele>8.13</ele>
        <time>2021-03-20T15:06:10Z</time>
      </trkpt>
      <trkpt lat="56.5173" lon="-5.94865">
        <ele>8.18</ele>
        <time>2021-03-20T15:06:14Z</time>
      </trkpt>
      <trkpt lat="56.51748" lon="-5.94918">
        <ele>7.25</ele>
        <time>2021-03-20T15:06:17Z</time>
      </trkpt>
      <trkpt lat="56.51753" lon="-5.94945">
        <ele>6.64</ele>
        <time>2021-03-20T15:06:21Z</time>
      </trkpt>
      <trkpt lat="56.51754" lon="-5.95018">
        <ele>7.73</ele>
        <time>2021-03-20T15:06:25Z</time>
      </trkpt>
      <trkpt lat="56.51764" lon="-5.95073">
        <ele>9.6</ele>
        <time>2021-03-20T15:06:28Z</time>
      </trkpt>
      <trkpt lat="56.5178" lon="-5.95122">
        <ele>11.66</ele>
        <time>2021-03-20T15:06:32Z</time>
      </trkpt>
      <trkpt lat="56.51796" lon="-5.95154">
        <ele>10.98</ele>
        <time>2021-03-20T15:06:36Z</time>
      </trkpt>
      <trkpt lat="56.51925" lon="-5.95255">
        <ele>16.08</ele>
        <time>2021-03-20T15:06:39Z</time>
      </trkpt>
      <trkpt lat="56.51973" lon="-5.95296">
        <ele>16.65</ele>
        <time>2021-03-20T15:06:43Z</time>
      </trkpt>
      <trkpt lat="56.52009" lon="-5.95339">
        <ele>12.17</ele>
        <time>2021-03-20T15:06:47Z</time>
      </trkpt>
      <trkpt lat="56.52025" lon="-5.95367">
        <ele>13.83</ele>
        <time>2021-03-20T15:06:50Z</time>
      </trkpt>
      <trkpt lat="56.52048" lon="-5.95393">
        <ele>15.49</ele>
        <time>2021-03-20T15:06:54Z</time>
      </trkpt>
      <trkpt lat="56.52128" lon="-5.95461">
        <ele>13.53</ele>
        <time>2021-03-20T15:06:58Z</time>
      </trkpt>
      <trkpt lat="56.52167" lon="-5.95506">
        <ele>14.08</ele>
        <time>2021-03-20T15:07:01Z</time>
      </trkpt>
      <trkpt lat="56.52213" lon="-5.9558">
        <ele>12.23</ele>
        <time>2021-03-20T15:07:05Z</time>
      </trkpt>
      <trkpt lat="56.5232" lon="-5.95734">
        <ele>11.14</ele>
        <time>2021-03-20T15:07:08Z</time>
      </trkpt>
      <trkpt lat="56.52385" lon="-5.95796">
        <ele>9.32</ele>
        <time>2021-03-20T15:07:12Z</time>
      </trkpt>
      <trkpt lat="56.52472" lon="-5.95865">
        <ele>9.68</ele>
        <time>2021-03-20T15:07:16Z</time>
      </trkpt>
      <trkpt lat="56.52532" lon="-5.95907">
        <ele>6.82</ele>
        <time>2021-03-20T15:07:19Z</time>
      </trkpt>
      <trkpt lat="56.52581" lon="-5.95931">
        <ele>8.74</ele>
        <time>2021-03-20T15:07:23Z</time>
      </trkpt>
      <trkpt lat="56.52581" lon="-5.95931">
        <ele>8.74</ele>
        <time>2021-03-20T15:07:23Z</time>
      </trkpt>
      <trkpt lat="56.52619" lon="-5.95954">
        <ele>9.59</ele>
        <time>2021-03-20T15:07:28Z</time>
      </trkpt>
      <trkpt lat="56.52767" lon="-5.96122">
        <ele>7.62</ele>
        <time>2021-03-20T15:07:33Z</time>
      </trkpt>
      <trkpt lat="56.52844" lon="-5.96213">
        <ele>9.24</ele>
        <time>2021-03-20T15:07:38Z</time>
      </trkpt>
      <trkpt lat="56.52888" lon="-5.9627">
        <ele>7.56</ele>
        <time>2021-03-20T15:07:43Z</time>
      </trkpt>
      <trkpt lat="56.52952" lon="-5.96368">
        <ele>5.61</ele>
        <time>2021-03-20T15:07:48Z</time>
      </trkpt>
      <trkpt lat="56.52981" lon="-5.96418">
        <ele>4.84</ele>
        <time>2021-03-20T15:07:53Z</time>
      </trkpt>
      <trkpt lat="56.52999" lon="-5.96469">
        <ele>3.14</ele>
        <time>2021-03-20T15:07:58Z</time>
      </trkpt>
      <trkpt lat="56.53011" lon="-5.96541">
        <ele>4.38</ele>
        <time>2021-03-20T15:08:03Z</time>
      </trkpt>
      <trkpt lat="56.53006" lon="-5.96624">
        <ele>6.11</ele>
        <time>2021-03-20T15:08:08Z</time>
      </trkpt>
      <trkpt lat="56.53008" lon="-5.9669">
        <ele>7.11</ele>
        <time>2021-03-20T15:08:13Z</time>
      </trkpt>
      <trkpt lat="56.53025" lon="-5.96964">
        <ele>9.42</ele>
        <time>2021-03-20T15:08:18Z</time>
      </trkpt>
      <trkpt lat="56.5306" lon="-5.97214">
        <ele>6.25</ele>
        <time>2021-03-20T15:08:23Z</time>
      </trkpt>
      <trkpt lat="56.53076" lon="-5.97375">
        <ele>5.78</ele>
        <time>2021-03-20T15:08:28Z</time>
      </trkpt>
      <trkpt lat="56.53105" lon="-5.97522">
        <ele>7.39</ele>
        <time>2021-03-20T15:08:34Z</time>
      </trkpt>
      <trkpt lat="56.53119" lon="-5.97564">
        <ele>6.63</ele>
        <time>2021-03-20T15:08:39Z</time>
      </trkpt>
      <trkpt lat="56.53127" lon="-5.97577">
        <ele>6</ele>
        <time>2021-03-20T15:08:44Z</time>
      </trkpt>
      <trkpt lat="56.53153" lon="-5.97602">
        <ele>5.5</ele>
        <time>2021-03-20T15:08:49Z</time>
      </trkpt>
      <trkpt lat="56.53205" lon="-5.97643">
        <ele>9.43</ele>
        <time>2021-03-20T15:08:54Z</time>
      </trkpt>
      <trkpt lat="56.53263" lon="-5.97694">
        <ele>17.39</ele>
        <time>2021-03-20T15:08:59Z</time>
      </trkpt>
      <trkpt lat="56.53296" lon="-5.97731">
        <ele>20.52</ele>
        <time>2021-03-20T15:09:04Z</time>
      </trkpt>
      <trkpt lat="56.53371" lon="-5.97831">
        <ele>26.11</ele>
        <time>2021-03-20T15:09:09Z</time>
      </trkpt>
      <trkpt lat="56.53394" lon="-5.97855">
        <ele>26.75</ele>
        <time>2021-03-20T15:09:14Z</time>
      </trkpt>
      <trkpt lat="56.53834" lon="-5.98078">
        <ele>52.12</ele>
        <time>2021-03-20T15:09:19Z</time>
      </trkpt>
      <trkpt lat="56.5386" lon="-5.98096">
        <ele>54.48</ele>
        <time>2021-03-20T15:09:24Z</time>
      </trkpt>
      <trkpt lat="56.53923" lon="-5.98159">
        <ele>59.26</ele>
        <time>2021-03-20T15:09:29Z</time>
      </trkpt>
      <trkpt lat="56.53947" lon="-5.98171">
        <ele>60.83</ele>
        <time>2021-03-20T15:09:34Z</time>
      </trkpt>
      <trkpt lat="56.54042" lon="-5.98189">
        <ele>64.88</ele>
        <time>2021-03-20T15:09:39Z</time>
      </trkpt>
      <trkpt lat="56.54061" lon="-5.9818">
        <ele>66.08</ele>
        <time>2021-03-20T15:09:44Z</time>
      </trkpt>
      <trkpt lat="56.54082" lon="-5.98149">
        <ele>67.65</ele>
        <time>2021-03-20T15:09:49Z</time>
      </trkpt>
      <trkpt lat="56.54107" lon="-5.98085">
        <ele>69.29</ele>
        <time>2021-03-20T15:09:54Z</time>
      </trkpt>
      <trkpt lat="56.54142" lon="-5.97933">
        <ele>63.19</ele>
        <time>2021-03-20T15:09:59Z</time>
      </trkpt>
      <trkpt lat="56.54157" lon="-5.9789">
        <ele>62.06</ele>
        <time>2021-03-20T15:10:04Z</time>
      </trkpt>
      <trkpt lat="56.54185" lon="-5.97849">
        <ele>60.29</ele>
        <time>2021-03-20T15:10:09Z</time>
      </trkpt>
      <trkpt lat="56.54225" lon="-5.97818">
        <ele>55.71</ele>
        <time>2021-03-20T15:10:14Z</time>
      </trkpt>
      <trkpt lat="56.54393" lon="-5.97733">
        <ele>49.12</ele>
        <time>2021-03-20T15:10:19Z</time>
      </trkpt>
      <trkpt lat="56.54418" lon="-5.97703">
        <ele>50.5</ele>
        <time>2021-03-20T15:10:24Z</time>
      </trkpt>
      <trkpt lat="56.54476" lon="-5.97614">
        <ele>50.58</ele>
        <time>2021-03-20T15:10:29Z</time>
      </trkpt>
      <trkpt lat="56.54505" lon="-5.97584">
        <ele>47.48</ele>
        <time>2021-03-20T15:10:34Z</time>
      </trkpt>
      <trkpt lat="56.54538" lon="-5.97574">
        <ele>48.34</ele>
        <time>2021-03-20T15:10:39Z</time>
      </trkpt>
      <trkpt lat="56.54656" lon="-5.97594">
        <ele>49.16</ele>
        <time>2021-03-20T15:10:44Z</time>
      </trkpt>
      <trkpt lat="56.54701" lon="-5.97592">
        <ele>45.48</ele>
        <time>2021-03-20T15:10:49Z</time>
      </trkpt>
      <trkpt lat="56.54805" lon="-5.97538">
        <ele>39.84</ele>
        <time>2021-03-20T15:10:54Z</time>
      </trkpt>
      <trkpt lat="56.54846" lon="-5.97538">
        <ele>40.1</ele>
        <time>2021-03-20T15:10:59Z</time>
      </trkpt>
      <trkpt lat="56.55028" lon="-5.97618">
        <ele>42.19</ele>
        <time>2021-03-20T15:11:04Z</time>
      </trkpt>
      <trkpt lat="56.55087" lon="-5.9765">
        <ele>45.5</ele>
        <time>2021-03-20T15:11:09Z</time>
      </trkpt>
      <trkpt lat="56.55124" lon="-5.97683">
        <ele>48.39</ele>
        <time>2021-03-20T15:11:14Z</time>
      </trkpt>
      <trkpt lat="56.55239" lon="-5.97773">
        <ele>53.62</ele>
        <time>2021-03-20T15:11:19Z</time>
      </trkpt>
      <trkpt lat="56.55304" lon="-5.97804">
        <ele>52</ele>
        <time>2021-03-20T15:11:24Z</time>
      </trkpt>
      <trkpt lat="56.55318" lon="-5.97827">
        <ele>52.2</ele>
        <time>2021-03-20T15:11:29Z</time>
      </trkpt>
      <trkpt lat="56.55377" lon="-5.9795">
        <ele>53.14</ele>
        <time>2021-03-20T15:11:34Z</time>
      </trkpt>
      <trkpt lat="56.55646" lon="-5.98411">
        <ele>49.97</ele>
        <time>2021-03-20T15:11:39Z</time>
      </trkpt>
      <trkpt lat="56.55702" lon="-5.98494">
        <ele>51.25</ele>
        <time>2021-03-20T15:11:44Z</time>
      </trkpt>
      <trkpt lat="56.55761" lon="-5.98574">
        <ele>55.98</ele>
        <time>2021-03-20T15:11:49Z</time>
      </trkpt>
      <trkpt lat="56.55925" lon="-5.9872">
        <ele>47.33</ele>
        <time>2021-03-20T15:11:54Z</time>
      </trkpt>
      <trkpt lat="56.56027" lon="-5.98805">
        <ele>40.04</ele>
        <time>2021-03-20T15:11:59Z</time>
      </trkpt>
      <trkpt lat="56.56126" lon="-5.98924">
        <ele>38.12</ele>
        <time>2021-03-20T15:12:05Z</time>
      </trkpt>
      <trkpt lat="56.56175" lon="-5.98975">
        <ele>37.98</ele>
        <time>2021-03-20T15:12:10Z</time>
      </trkpt>
      <trkpt lat="56.56452" lon="-5.9917">
        <ele>28.3</ele>
        <time>2021-03-20T15:12:15Z</time>
      </trkpt>
      <trkpt lat="56.56499" lon="-5.99191">
        <ele>24.86</ele>
        <time>2021-03-20T15:12:20Z</time>
      </trkpt>
      <trkpt lat="56.56547" lon="-5.992">
        <ele>22.85</ele>
        <time>2021-03-20T15:12:25Z</time>
      </trkpt>
      <trkpt lat="56.5659" lon="-5.99226">
        <ele>22.08</ele>
        <time>2021-03-20T15:12:30Z</time>
      </trkpt>
      <trkpt lat="56.56668" lon="-5.99319">
        <ele>22.9</ele>
        <time>2021-03-20T15:12:35Z</time>
      </trkpt>
      <trkpt lat="56.57064" lon="-5.99675">
        <ele>30.62</ele>
        <time>2021-03-20T15:12:40Z</time>
      </trkpt>
      <trkpt lat="56.57092" lon="-5.99705">
        <ele>32.68</ele>
        <time>2021-03-20T15:12:45Z</time>
      </trkpt>
      <trkpt lat="56.57118" lon="-5.99746">
        <ele>35.23</ele>
        <time>2021-03-20T15:12:50Z</time>
      </trkpt>
      <trkpt lat="56.57178" lon="-5.99894">
        <ele>40.99</ele>
        <time>2021-03-20T15:12:55Z</time>
      </trkpt>
      <trkpt lat="56.57259" lon="-6.0006">
        <ele>43.55</ele>
        <time>2021-03-20T15:13:00Z</time>
      </trkpt>
      <trkpt lat="56.57296" lon="-6.00123">
        <ele>45.17</ele>
        <time>2021-03-20T15:13:05Z</time>
      </trkpt>
      <trkpt lat="56.57342" lon="-6.00173">
        <ele>47.48</ele>
        <time>2021-03-20T15:13:10Z</time>
      </trkpt>
      <trkpt lat="56.57376" lon="-6.00193">
        <ele>49.4</ele>
        <time>2021-03-20T15:13:15Z</time>
      </trkpt>
      <trkpt lat="56.57442" lon="-6.0019">
        <ele>56.14</ele>
        <time>2021-03-20T15:13:20Z</time>
      </trkpt>
      <trkpt lat="56.57517" lon="-6.002">
        <ele>58.51</ele>
        <time>2021-03-20T15:13:25Z</time>
      </trkpt>
      <trkpt lat="56.57552" lon="-6.00224">
        <ele>58.63</ele>
        <time>2021-03-20T15:13:30Z</time>
      </trkpt>
      <trkpt lat="56.57625" lon="-6.00295">
        <ele>63.78</ele>
        <time>2021-03-20T15:13:35Z</time>
      </trkpt>
      <trkpt lat="56.57712" lon="-6.00405">
        <ele>67.61</ele>
        <time>2021-03-20T15:13:40Z</time>
      </trkpt>
      <trkpt lat="56.57849" lon="-6.00548">
        <ele>72.44</ele>
        <time>2021-03-20T15:13:45Z</time>
      </trkpt>
      <trkpt lat="56.57884" lon="-6.0059">
        <ele>73.88</ele>
        <time>2021-03-20T15:13:50Z</time>
      </trkpt>
      <trkpt lat="56.5792" lon="-6.00643">
        <ele>76.04</ele>
        <time>2021-03-20T15:13:55Z</time>
      </trkpt>
      <trkpt lat="56.57951" lon="-6.00704">
        <ele>78.41</ele>
        <time>2021-03-20T15:14:00Z</time>
      </trkpt>
      <trkpt lat="56.58012" lon="-6.00895">
        <ele>83.85</ele>
        <time>2021-03-20T15:14:05Z</time>
      </trkpt>
      <trkpt lat="56.58029" lon="-6.00951">
        <ele>86.29</ele>
        <time>2021-03-20T15:14:10Z</time>
      </trkpt>
      <trkpt lat="56.5804" lon="-6.01013">
        <ele>87.93</ele>
        <time>2021-03-20T15:14:15Z</time>
      </trkpt>
      <trkpt lat="56.58055" lon="-6.01049">
        <ele>88.59</ele>
        <time>2021-03-20T15:14:20Z</time>
      </trkpt>
      <trkpt lat="56.58078" lon="-6.01067">
        <ele>88.57</ele>
        <time>2021-03-20T15:14:25Z</time>
      </trkpt>
      <trkpt lat="56.58219" lon="-6.01071">
        <ele>99.83</ele>
        <time>2021-03-20T15:14:30Z</time>
      </trkpt>
      <trkpt lat="56.58252" lon="-6.01097">
        <ele>103.96</ele>
        <time>2021-03-20T15:14:35Z</time>
      </trkpt>
      <trkpt lat="56.58282" lon="-6.01164">
        <ele>108.79</ele>
        <time>2021-03-20T15:14:40Z</time>
      </trkpt>
      <trkpt lat="56.58318" lon="-6.01224">
        <ele>112.76</ele>
        <time>2021-03-20T15:14:45Z</time>
      </trkpt>
      <trkpt lat="56.58375" lon="-6.01299">
        <ele>119.01</ele>
        <time>2021-03-20T15:14:50Z</time>
      </trkpt>
      <trkpt lat="56.58415" lon="-6.01343">
        <ele>120.75</ele>
        <time>2021-03-20T15:14:55Z</time>
      </trkpt>
      <trkpt lat="56.58455" lon="-6.01365">
        <ele>122.98</ele>
        <time>2021-03-20T15:15:00Z</time>
      </trkpt>
      <trkpt lat="56.58598" lon="-6.01388">
        <ele>133.94</ele>
        <time>2021-03-20T15:15:05Z</time>
      </trkpt>
      <trkpt lat="56.58638" lon="-6.01409">
        <ele>136.23</ele>
        <time>2021-03-20T15:15:10Z</time>
      </trkpt>
      <trkpt lat="56.58678" lon="-6.01438">
        <ele>137.45</ele>
        <time>2021-03-20T15:15:15Z</time>
      </trkpt>
      <trkpt lat="56.5896" lon="-6.0173">
        <ele>140.55</ele>
        <time>2021-03-20T15:15:20Z</time>
      </trkpt>
      <trkpt lat="56.59037" lon="-6.01806">
        <ele>138.01</ele>
        <time>2021-03-20T15:15:25Z</time>
      </trkpt>
      <trkpt lat="56.5922" lon="-6.01926">
        <ele>137.12</ele>
        <time>2021-03-20T15:15:30Z</time>
      </trkpt>
      <trkpt lat="56.59657" lon="-6.02323">
        <ele>106.61</ele>
        <time>2021-03-20T15:15:36Z</time>
      </trkpt>
      <trkpt lat="56.5975" lon="-6.02414">
        <ele>107.65</ele>
        <time>2021-03-20T15:15:41Z</time>
      </trkpt>
      <trkpt lat="56.59829" lon="-6.02527">
        <ele>111.96</ele>
        <time>2021-03-20T15:15:46Z</time>
      </trkpt>
      <trkpt lat="56.59894" lon="-6.02676">
        <ele>114.84</ele>
        <time>2021-03-20T15:15:51Z</time>
      </trkpt>
      <trkpt lat="56.59983" lon="-6.02994">
        <ele>115.85</ele>
        <time>2021-03-20T15:15:56Z</time>
      </trkpt>
      <trkpt lat="56.60094" lon="-6.03402">
        <ele>106.69</ele>
        <time>2021-03-20T15:16:01Z</time>
      </trkpt>
      <trkpt lat="56.60139" lon="-6.03547">
        <ele>95.33</ele>
        <time>2021-03-20T15:16:06Z</time>
      </trkpt>
      <trkpt lat="56.60203" lon="-6.03677">
        <ele>91.94</ele>
        <time>2021-03-20T15:16:11Z</time>
      </trkpt>
      <trkpt lat="56.60586" lon="-6.04285">
        <ele>83.65</ele>
        <time>2021-03-20T15:16:16Z</time>
      </trkpt>
      <trkpt lat="56.60632" lon="-6.04396">
        <ele>85.48</ele>
        <time>2021-03-20T15:16:21Z</time>
      </trkpt>
      <trkpt lat="56.60665" lon="-6.04531">
        <ele>82.5</ele>
        <time>2021-03-20T15:16:26Z</time>
      </trkpt>
      <trkpt lat="56.60705" lon="-6.04868">
        <ele>70.44</ele>
        <time>2021-03-20T15:16:31Z</time>
      </trkpt>
      <trkpt lat="56.60719" lon="-6.04933">
        <ele>68.22</ele>
        <time>2021-03-20T15:16:36Z</time>
      </trkpt>
      <trkpt lat="56.60731" lon="-6.04988">
        <ele>68.54</ele>
        <time>2021-03-20T15:16:41Z</time>
      </trkpt>
      <trkpt lat="56.60764" lon="-6.05085">
        <ele>71.03</ele>
        <time>2021-03-20T15:16:46Z</time>
      </trkpt>
      <trkpt lat="56.60858" lon="-6.05238">
        <ele>74.79</ele>
        <time>2021-03-20T15:16:51Z</time>
      </trkpt>
      <trkpt lat="56.61046" lon="-6.05558">
        <ele>78.03</ele>
        <time>2021-03-20T15:16:56Z</time>
      </trkpt>
      <trkpt lat="56.61116" lon="-6.05753">
        <ele>68.81</ele>
        <time>2021-03-20T15:17:01Z</time>
      </trkpt>
      <trkpt lat="56.61159" lon="-6.05986">
        <ele>66.62</ele>
        <time>2021-03-20T15:17:06Z</time>
      </trkpt>
      <trkpt lat="56.61172" lon="-6.06095">
        <ele>68.39</ele>
        <time>2021-03-20T15:17:11Z</time>
      </trkpt>
      <trkpt lat="56.61179" lon="-6.06167">
        <ele>68.26</ele>
        <time>2021-03-20T15:17:16Z</time>
      </trkpt>
      <trkpt lat="56.61179" lon="-6.06167">
        <ele>68.26</ele>
        <time>2021-03-20T15:17:16Z</time>
      </trkpt>
      <trkpt lat="56.61208" lon="-6.06436">
        <ele>63.46</ele>
        <time>2021-03-20T15:17:20Z</time>
      </trkpt>
      <trkpt lat="56.61217" lon="-6.06514">
        <ele>64.57</ele>
        <time>2021-03-20T15:17:24Z</time>
      </trkpt>
      <trkpt lat="56.61235" lon="-6.06612">
        <ele>66.18</ele>
        <time>2021-03-20T15:17:28Z</time>
      </trkpt>
      <trkpt lat="56.61258" lon="-6.06709">
        <ele>64.69</ele>
        <time>2021-03-20T15:17:32Z</time>
      </trkpt>
      <trkpt lat="56.61283" lon="-6.06786">
        <ele>64.28</ele>
        <time>2021-03-20T15:17:37Z</time>
      </trkpt>
      <trkpt lat="56.61313" lon="-6.06852">
        <ele>63.94</ele>
        <time>2021-03-20T15:17:41Z</time>
      </trkpt>
      <trkpt lat="56.61352" lon="-6.06921">
        <ele>62.7</ele>
        <time>2021-03-20T15:17:45Z</time>
      </trkpt>
      <trkpt lat="56.61419" lon="-6.07013">
        <ele>62.89</ele>
        <time>2021-03-20T15:17:49Z</time>
      </trkpt>
      <trkpt lat="56.6145" lon="-6.07046">
        <ele>63.48</ele>
        <time>2021-03-20T15:17:53Z</time>
      </trkpt>
      <trkpt lat="56.61512" lon="-6.07103">
        <ele>64.71</ele>
        <time>2021-03-20T15:17:57Z</time>
      </trkpt>
      <trkpt lat="56.61564" lon="-6.07138">
        <ele>63.67</ele>
        <time>2021-03-20T15:18:01Z</time>
      </trkpt>
      <trkpt lat="56.61577" lon="-6.07144">
        <ele>63.41</ele>
        <time>2021-03-20T15:18:05Z</time>
      </trkpt>
      <trkpt lat="56.61687" lon="-6.07177">
        <ele>57.9</ele>
        <time>2021-03-20T15:18:09Z</time>
      </trkpt>
      <trkpt lat="56.61721" lon="-6.07201">
        <ele>56.64</ele>
        <time>2021-03-20T15:18:14Z</time>
      </trkpt>
      <trkpt lat="56.61784" lon="-6.07283">
        <ele>54.5</ele>
        <time>2021-03-20T15:18:18Z</time>
      </trkpt>
      <trkpt lat="56.61805" lon="-6.073">
        <ele>52.04</ele>
        <time>2021-03-20T15:18:22Z</time>
      </trkpt>
      <trkpt lat="56.61818" lon="-6.07303">
        <ele>51.17</ele>
        <time>2021-03-20T15:18:26Z</time>
      </trkpt>
      <trkpt lat="56.61832" lon="-6.07298">
        <ele>50.36</ele>
        <time>2021-03-20T15:18:30Z</time>
      </trkpt>
      <trkpt lat="56.61835" lon="-6.07304">
        <ele>50.06</ele>
        <time>2021-03-20T15:18:32Z</time>
      </trkpt>
      <trkpt lat="56.61838" lon="-6.07304">
        <ele>50.06</ele>
        <time>2021-03-20T15:18:34Z</time>
      </trkpt>
      <trkpt lat="56.61841" lon="-6.07296">
        <ele>50.25</ele>
        <time>2021-03-20T15:18:36Z</time>
      </trkpt>
      <trkpt lat="56.6184" lon="-6.0729">
        <ele>50.43</ele>
        <time>2021-03-20T15:18:38Z</time>
      </trkpt>
      <trkpt lat="56.61837" lon="-6.07286">
        <ele>50.6</ele>
        <time>2021-03-20T15:18:39Z</time>
      </trkpt>
      <trkpt lat="56.61846" lon="-6.07214">
        <ele>50.08</ele>
        <time>2021-03-20T15:18:41Z</time>
      </trkpt>
      <trkpt lat="56.61854" lon="-6.07169">
        <ele>48.87</ele>
        <time>2021-03-20T15:18:43Z</time>
      </trkpt>
      <trkpt lat="56.61868" lon="-6.07122">
        <ele>47.95</ele>
        <time>2021-03-20T15:18:45Z</time>
      </trkpt>
      <trkpt lat="56.61876" lon="-6.07104">
        <ele>47.35</ele>
        <time>2021-03-20T15:18:47Z</time>
      </trkpt>
      <trkpt lat="56.61904" lon="-6.07081">
        <ele>44.48</ele>
        <time>2021-03-20T15:18:49Z</time>
      </trkpt>
      <trkpt lat="56.61934" lon="-6.07072">
        <ele>41.18</ele>
        <time>2021-03-20T15:18:51Z</time>
      </trkpt>
      <trkpt lat="56.62014" lon="-6.07105">
        <ele>33.91</ele>
        <time>2021-03-20T15:18:53Z</time>
      </trkpt>
      <trkpt lat="56.62034" lon="-6.07101">
        <ele>30.06</ele>
        <time>2021-03-20T15:18:54Z</time>
      </trkpt>
      <trkpt lat="56.62062" lon="-6.07083">
        <ele>21.76</ele>
        <time>2021-03-20T15:18:56Z</time>
      </trkpt>
      <trkpt lat="56.62091" lon="-6.07051">
        <ele>15.3</ele>
        <time>2021-03-20T15:18:58Z</time>
      </trkpt>
      <trkpt lat="56.6211" lon="-6.07033">
        <ele>14.64</ele>
        <time>2021-03-20T15:19:00Z</time>
      </trkpt>
      <trkpt lat="56.62124" lon="-6.07014">
        <ele>13.95</ele>
        <time>2021-03-20T15:19:02Z</time>
      </trkpt>
      <trkpt lat="56.62243" lon="-6.06901">
        <ele>11.06</ele>
        <time>2021-03-20T15:19:04Z</time>
      </trkpt>
      <trkpt lat="56.62272" lon="-6.06844">
        <ele>7.8</ele>
        <time>2021-03-20T15:19:06Z</time>
      </trkpt>
      <trkpt lat="56.62291" lon="-6.06812">
        <ele>8.94</ele>
        <time>2021-03-20T15:19:08Z</time>
      </trkpt>
      <trkpt lat="56.62317" lon="-6.06741">
        <ele>11.64</ele>
        <time>2021-03-20T15:19:10Z</time>
      </trkpt>
      <trkpt lat="56.62319" lon="-6.06732">
        <ele>11.41</ele>
        <time>2021-03-20T15:19:11Z</time>
      </trkpt>
      <trkpt lat="56.62298" lon="-6.06598">
        <ele>8.71</ele>
        <time>2021-03-20T15:19:13Z</time>
      </trkpt>
      <trkpt lat="56.62311" lon="-6.06479">
        <ele>8.61</ele>
        <time>2021-03-20T15:19:15Z</time>
      </trkpt>
      <trkpt lat="56.62319" lon="-6.06458">
        <ele>8.36</ele>
        <time>2021-03-20T15:19:17Z</time>
      </trkpt>
      <trkpt lat="56.62324" lon="-6.06422">
        <ele>7.29</ele>
        <time>2021-03-20T15:19:19Z</time>
      </trkpt>
      <trkpt lat="56.62347" lon="-6.06299">
        <ele>10.04</ele>
        <time>2021-03-20T15:20:25Z</time>
      </trkpt>
      <trkpt lat="56.6242" lon="-6.06038">
        <ele>9.73</ele>
        <time>2021-03-20T15:21:30Z</time>
      </trkpt>
      <trkpt lat="56.62482" lon="-6.05916">
        <ele>9.58</ele>
        <time>2021-03-20T15:22:36Z</time>
      </trkpt>
      <trkpt lat="56.62562" lon="-6.05832">
        <ele>9.47</ele>
        <time>2021-03-20T15:23:42Z</time>
      </trkpt>
      <trkpt lat="56.62657" lon="-6.05713">
        <ele>9.32</ele>
        <time>2021-03-20T15:24:47Z</time>
      </trkpt>
      <trkpt lat="56.62772" lon="-6.05659">
        <ele>9.2</ele>
        <time>2021-03-20T15:25:53Z</time>
      </trkpt>
      <trkpt lat="56.63036" lon="-6.05698">
        <ele>9.03</ele>
        <time>2021-03-20T15:26:58Z</time>
      </trkpt>
      <trkpt lat="56.6313" lon="-6.05701">
        <ele>8.95</ele>
        <time>2021-03-20T15:28:04Z</time>
      </trkpt>
      <trkpt lat="56.63258" lon="-6.05687">
        <ele>8.83</ele>
        <time>2021-03-20T15:29:10Z</time>
      </trkpt>
      <trkpt lat="56.63332" lon="-6.05705">
        <ele>8.77</ele>
        <time>2021-03-20T15:30:15Z</time>
      </trkpt>
      <trkpt lat="56.63453" lon="-6.05698">
        <ele>8.65</ele>
        <time>2021-03-20T15:31:21Z</time>
      </trkpt>
      <trkpt lat="56.63543" lon="-6.05745">
        <ele>8.58</ele>
        <time>2021-03-20T15:32:26Z</time>
      </trkpt>
      <trkpt lat="56.66059" lon="-6.0713">
        <ele>5.63</ele>
        <time>2021-03-20T15:33:32Z</time>
      </trkpt>
      <trkpt lat="56.68087" lon="-6.08453">
        <ele>2.88</ele>
        <time>2021-03-20T15:34:38Z</time>
      </trkpt>
      <trkpt lat="56.6832" lon="-6.08651">
        <ele>2.53</ele>
        <time>2021-03-20T15:35:43Z</time>
      </trkpt>
      <trkpt lat="56.68542" lon="-6.08875">
        <ele>2.17</ele>
        <time>2021-03-20T15:36:49Z</time>
      </trkpt>
      <trkpt lat="56.68726" lon="-6.09096">
        <ele>1.84</ele>
        <time>2021-03-20T15:37:55Z</time>
      </trkpt>
      <trkpt lat="56.6883" lon="-6.09255">
        <ele>1.62</ele>
        <time>2021-03-20T15:39:00Z</time>
      </trkpt>
      <trkpt lat="56.68858" lon="-6.093">
        <ele>1.56</ele>
        <time>2021-03-20T15:40:06Z</time>
      </trkpt>
      <trkpt lat="56.68878" lon="-6.09418">
        <ele>1.42</ele>
        <time>2021-03-20T15:41:11Z</time>
      </trkpt>
      <trkpt lat="56.68874" lon="-6.09473">
        <ele>3.01</ele>
        <time>2021-03-20T15:42:17Z</time>
      </trkpt>
      <trkpt lat="56.68869" lon="-6.09497">
        <ele>3.65</ele>
        <time>2021-03-20T15:43:23Z</time>
      </trkpt>
      <trkpt lat="56.6887" lon="-6.09518">
        <ele>4.32</ele>
        <time>2021-03-20T15:44:28Z</time>
      </trkpt>
      <trkpt lat="56.68875" lon="-6.09535">
        <ele>4.64</ele>
        <time>2021-03-20T15:45:34Z</time>
      </trkpt>
      <trkpt lat="56.68924" lon="-6.09601">
        <ele>4.45</ele>
        <time>2021-03-20T15:46:40Z</time>
      </trkpt>
      <trkpt lat="56.68961" lon="-6.09619">
        <ele>4.89</ele>
        <time>2021-03-20T15:47:45Z</time>
      </trkpt>
      <trkpt lat="56.68977" lon="-6.09622">
        <ele>5.75</ele>
        <time>2021-03-20T15:48:51Z</time>
      </trkpt>
      <trkpt lat="56.69018" lon="-6.09603">
        <ele>8.66</ele>
        <time>2021-03-20T15:49:56Z</time>
      </trkpt>
      <trkpt lat="56.69029" lon="-6.09594">
        <ele>9.49</ele>
        <time>2021-03-20T15:51:02Z</time>
      </trkpt>
      <trkpt lat="56.69054" lon="-6.09567">
        <ele>10.27</ele>
        <time>2021-03-20T15:52:08Z</time>
      </trkpt>
      <trkpt lat="56.69073" lon="-6.09538">
        <ele>9.38</ele>
        <time>2021-03-20T15:53:13Z</time>
      </trkpt>
      <trkpt lat="56.69106" lon="-6.0948">
        <ele>9.63</ele>
        <time>2021-03-20T15:54:19Z</time>
      </trkpt>
      <trkpt lat="56.69121" lon="-6.09458">
        <ele>10.22</ele>
        <time>2021-03-20T15:55:24Z</time>
      </trkpt>
      <trkpt lat="56.69138" lon="-6.09437">
        <ele>11.94</ele>
        <time>2021-03-20T15:56:30Z</time>
      </trkpt>
      <trkpt lat="56.69149" lon="-6.0943">
        <ele>12.55</ele>
        <time>2021-03-20T15:57:36Z</time>
      </trkpt>
      <trkpt lat="56.69162" lon="-6.09431">
        <ele>13.24</ele>
        <time>2021-03-20T15:58:41Z</time>
      </trkpt>
      <trkpt lat="56.69199" lon="-6.09451">
        <ele>15.1</ele>
        <time>2021-03-20T15:59:47Z</time>
      </trkpt>
      <trkpt lat="56.69317" lon="-6.09525">
        <ele>16.65</ele>
        <time>2021-03-20T16:00:53Z</time>
      </trkpt>
      <trkpt lat="56.69339" lon="-6.09545">
        <ele>16.77</ele>
        <time>2021-03-20T16:01:58Z</time>
      </trkpt>
      <trkpt lat="56.69358" lon="-6.09569">
        <ele>16.87</ele>
        <time>2021-03-20T16:03:04Z</time>
      </trkpt>
      <trkpt lat="56.69411" lon="-6.09672">
        <ele>14.63</ele>
        <time>2021-03-20T16:04:09Z</time>
      </trkpt>
      <trkpt lat="56.69446" lon="-6.09746">
        <ele>14.29</ele>
        <time>2021-03-20T16:05:15Z</time>
      </trkpt>
      <trkpt lat="56.69473" lon="-6.0981">
        <ele>15.08</ele>
        <time>2021-03-20T16:06:21Z</time>
      </trkpt>
      <trkpt lat="56.69505" lon="-6.09899">
        <ele>12.84</ele>
        <time>2021-03-20T16:07:26Z</time>
      </trkpt>
      <trkpt lat="56.69515" lon="-6.09917">
        <ele>12.51</ele>
        <time>2021-03-20T16:08:32Z</time>
      </trkpt>
      <trkpt lat="56.6955" lon="-6.09966">
        <ele>11.24</ele>
        <time>2021-03-20T16:09:38Z</time>
      </trkpt>
      <trkpt lat="56.6969" lon="-6.10084">
        <ele>12.85</ele>
        <time>2021-03-20T16:10:43Z</time>
      </trkpt>
      <trkpt lat="56.69713" lon="-6.1013">
        <ele>14.36</ele>
        <time>2021-03-20T16:11:49Z</time>
      </trkpt>
      <trkpt lat="56.69728" lon="-6.10164">
        <ele>15.42</ele>
        <time>2021-03-20T16:12:54Z</time>
      </trkpt>
      <trkpt lat="56.69756" lon="-6.10278">
        <ele>13.22</ele>
        <time>2021-03-20T16:14:00Z</time>
      </trkpt>
      <trkpt lat="56.69774" lon="-6.10308">
        <ele>13.7</ele>
        <time>2021-03-20T16:15:06Z</time>
      </trkpt>
      <trkpt lat="56.69795" lon="-6.1033">
        <ele>14.6</ele>
        <time>2021-03-20T16:16:11Z</time>
      </trkpt>
      <trkpt lat="56.69821" lon="-6.10044">
        <ele>19</ele>
        <time>2021-03-20T16:16:21Z</time>
      </trkpt>
      <trkpt lat="56.69826" lon="-6.09952">
        <ele>18.55</ele>
        <time>2021-03-20T16:16:30Z</time>
      </trkpt>
      <trkpt lat="56.69827" lon="-6.0989">
        <ele>20.73</ele>
        <time>2021-03-20T16:16:40Z</time>
      </trkpt>
      <trkpt lat="56.69829" lon="-6.09852">
        <ele>21.35</ele>
        <time>2021-03-20T16:16:49Z</time>
      </trkpt>
      <trkpt lat="56.69863" lon="-6.09553">
        <ele>34.07</ele>
        <time>2021-03-20T16:16:59Z</time>
      </trkpt>
      <trkpt lat="56.699" lon="-6.09114">
        <ele>38.53</ele>
        <time>2021-03-20T16:17:08Z</time>
      </trkpt>
      <trkpt lat="56.69939" lon="-6.08756">
        <ele>35.62</ele>
        <time>2021-03-20T16:17:18Z</time>
      </trkpt>
      <trkpt lat="56.69959" lon="-6.08546">
        <ele>35.48</ele>
        <time>2021-03-20T16:17:27Z</time>
      </trkpt>
      <trkpt lat="56.69969" lon="-6.08423">
        <ele>35</ele>
        <time>2021-03-20T16:17:37Z</time>
      </trkpt>
      <trkpt lat="56.69987" lon="-6.08159">
        <ele>36.72</ele>
        <time>2021-03-20T16:17:46Z</time>
      </trkpt>
      <trkpt lat="56.69987" lon="-6.08159">
        <ele>36.72</ele>
        <time>2021-03-20T16:17:46Z</time>
      </trkpt>
      <trkpt lat="56.70005" lon="-6.07855">
        <ele>38.6</ele>
        <time>2021-03-20T16:17:49Z</time>
      </trkpt>
      <trkpt lat="56.70018" lon="-6.07733">
        <ele>41.89</ele>
        <time>2021-03-20T16:17:51Z</time>
      </trkpt>
      <trkpt lat="56.70073" lon="-6.07517">
        <ele>43.28</ele>
        <time>2021-03-20T16:17:53Z</time>
      </trkpt>
      <trkpt lat="56.70151" lon="-6.07292">
        <ele>46.52</ele>
        <time>2021-03-20T16:17:55Z</time>
      </trkpt>
      <trkpt lat="56.7024" lon="-6.07094">
        <ele>51.4</ele>
        <time>2021-03-20T16:17:58Z</time>
      </trkpt>
      <trkpt lat="56.70293" lon="-6.06952">
        <ele>57.54</ele>
        <time>2021-03-20T16:18:00Z</time>
      </trkpt>
      <trkpt lat="56.70339" lon="-6.06816">
        <ele>58.57</ele>
        <time>2021-03-20T16:18:02Z</time>
      </trkpt>
      <trkpt lat="56.70369" lon="-6.06778">
        <ele>58.58</ele>
        <time>2021-03-20T16:18:04Z</time>
      </trkpt>
      <trkpt lat="56.70399" lon="-6.06758">
        <ele>60.35</ele>
        <time>2021-03-20T16:18:07Z</time>
      </trkpt>
      <trkpt lat="56.70439" lon="-6.06766">
        <ele>63.38</ele>
        <time>2021-03-20T16:18:09Z</time>
      </trkpt>
      <trkpt lat="56.70472" lon="-6.06786">
        <ele>64.58</ele>
        <time>2021-03-20T16:18:11Z</time>
      </trkpt>
      <trkpt lat="56.70531" lon="-6.06853">
        <ele>68.69</ele>
        <time>2021-03-20T16:18:13Z</time>
      </trkpt>
      <trkpt lat="56.7059" lon="-6.06904">
        <ele>70.1</ele>
        <time>2021-03-20T16:18:16Z</time>
      </trkpt>
      <trkpt lat="56.70633" lon="-6.06911">
        <ele>71.33</ele>
        <time>2021-03-20T16:18:18Z</time>
      </trkpt>
      <trkpt lat="56.70716" lon="-6.06882">
        <ele>74.04</ele>
        <time>2021-03-20T16:18:20Z</time>
      </trkpt>
      <trkpt lat="56.70768" lon="-6.06857">
        <ele>77.96</ele>
        <time>2021-03-20T16:18:22Z</time>
      </trkpt>
      <trkpt lat="56.70808" lon="-6.06845">
        <ele>76.72</ele>
        <time>2021-03-20T16:18:25Z</time>
      </trkpt>
      <trkpt lat="56.7085" lon="-6.06838">
        <ele>74.52</ele>
        <time>2021-03-20T16:18:27Z</time>
      </trkpt>
      <trkpt lat="56.70887" lon="-6.06809">
        <ele>76.92</ele>
        <time>2021-03-20T16:18:29Z</time>
      </trkpt>
      <trkpt lat="56.70933" lon="-6.06746">
        <ele>77.54</ele>
        <time>2021-03-20T16:18:31Z</time>
      </trkpt>
      <trkpt lat="56.71033" lon="-6.06647">
        <ele>82.13</ele>
        <time>2021-03-20T16:18:34Z</time>
      </trkpt>
      <trkpt lat="56.71084" lon="-6.06624">
        <ele>86.49</ele>
        <time>2021-03-20T16:18:36Z</time>
      </trkpt>
      <trkpt lat="56.71125" lon="-6.06583">
        <ele>86.49</ele>
        <time>2021-03-20T16:18:38Z</time>
      </trkpt>
      <trkpt lat="56.71155" lon="-6.06589">
        <ele>88.14</ele>
        <time>2021-03-20T16:18:40Z</time>
      </trkpt>
      <trkpt lat="56.71184" lon="-6.06576">
        <ele>88.43</ele>
        <time>2021-03-20T16:18:42Z</time>
      </trkpt>
      <trkpt lat="56.7123" lon="-6.0651">
        <ele>87.37</ele>
        <time>2021-03-20T16:18:45Z</time>
      </trkpt>
      <trkpt lat="56.71297" lon="-6.06429">
        <ele>92.05</ele>
        <time>2021-03-20T16:18:47Z</time>
      </trkpt>
      <trkpt lat="56.71373" lon="-6.06354">
        <ele>101.57</ele>
        <time>2021-03-20T16:18:49Z</time>
      </trkpt>
      <trkpt lat="56.71406" lon="-6.06328">
        <ele>103.21</ele>
        <time>2021-03-20T16:18:51Z</time>
      </trkpt>
      <trkpt lat="56.7144" lon="-6.06279">
        <ele>104.7</ele>
        <time>2021-03-20T16:18:54Z</time>
      </trkpt>
      <trkpt lat="56.71504" lon="-6.06163">
        <ele>110.43</ele>
        <time>2021-03-20T16:18:56Z</time>
      </trkpt>
      <trkpt lat="56.71538" lon="-6.06086">
        <ele>113.71</ele>
        <time>2021-03-20T16:18:58Z</time>
      </trkpt>
      <trkpt lat="56.71568" lon="-6.06053">
        <ele>114.82</ele>
        <time>2021-03-20T16:19:00Z</time>
      </trkpt>
      <trkpt lat="56.71675" lon="-6.06017">
        <ele>122.21</ele>
        <time>2021-03-20T16:19:03Z</time>
      </trkpt>
      <trkpt lat="56.71706" lon="-6.05992">
        <ele>124.42</ele>
        <time>2021-03-20T16:19:05Z</time>
      </trkpt>
      <trkpt lat="56.71737" lon="-6.05954">
        <ele>127.03</ele>
        <time>2021-03-20T16:19:07Z</time>
      </trkpt>
      <trkpt lat="56.7176" lon="-6.05894">
        <ele>129.06</ele>
        <time>2021-03-20T16:19:09Z</time>
      </trkpt>
      <trkpt lat="56.71767" lon="-6.05847">
        <ele>129.55</ele>
        <time>2021-03-20T16:19:12Z</time>
      </trkpt>
      <trkpt lat="56.71767" lon="-6.05731">
        <ele>129.69</ele>
        <time>2021-03-20T16:19:14Z</time>
      </trkpt>
      <trkpt lat="56.71758" lon="-6.05631">
        <ele>128.49</ele>
        <time>2021-03-20T16:19:16Z</time>
      </trkpt>
      <trkpt lat="56.71767" lon="-6.05575">
        <ele>129.61</ele>
        <time>2021-03-20T16:19:18Z</time>
      </trkpt>
      <trkpt lat="56.71863" lon="-6.05428">
        <ele>136.13</ele>
        <time>2021-03-20T16:19:21Z</time>
      </trkpt>
      <trkpt lat="56.71922" lon="-6.05325">
        <ele>141.66</ele>
        <time>2021-03-20T16:19:23Z</time>
      </trkpt>
      <trkpt lat="56.71948" lon="-6.05232">
        <ele>144.77</ele>
        <time>2021-03-20T16:19:25Z</time>
      </trkpt>
      <trkpt lat="56.72032" lon="-6.05027">
        <ele>151.16</ele>
        <time>2021-03-20T16:19:27Z</time>
      </trkpt>
      <trkpt lat="56.72107" lon="-6.04934">
        <ele>152</ele>
        <time>2021-03-20T16:19:30Z</time>
      </trkpt>
      <trkpt lat="56.72307" lon="-6.04703">
        <ele>144.56</ele>
        <time>2021-03-20T16:19:32Z</time>
      </trkpt>
      <trkpt lat="56.72388" lon="-6.04659">
        <ele>136.43</ele>
        <time>2021-03-20T16:19:34Z</time>
      </trkpt>
      <trkpt lat="56.72434" lon="-6.04625">
        <ele>132.91</ele>
        <time>2021-03-20T16:19:36Z</time>
      </trkpt>
      <trkpt lat="56.72445" lon="-6.04611">
        <ele>131.97</ele>
        <time>2021-03-20T16:19:39Z</time>
      </trkpt>
      <trkpt lat="56.72468" lon="-6.04347">
        <ele>126.27</ele>
        <time>2021-03-20T16:19:41Z</time>
      </trkpt>
      <trkpt lat="56.72495" lon="-6.04126">
        <ele>123.07</ele>
        <time>2021-03-20T16:19:43Z</time>
      </trkpt>
      <trkpt lat="56.72484" lon="-6.03963">
        <ele>123.74</ele>
        <time>2021-03-20T16:19:45Z</time>
      </trkpt>
      <trkpt lat="56.72489" lon="-6.03943">
        <ele>122.2</ele>
        <time>2021-03-20T16:19:48Z</time>
      </trkpt>
      <trkpt lat="56.72495" lon="-6.03898">
        <ele>123.07</ele>
        <time>2021-03-20T16:19:50Z</time>
      </trkpt>
      <trkpt lat="56.7255" lon="-6.03824">
        <ele>128.17</ele>
        <time>2021-03-20T16:19:52Z</time>
      </trkpt>
      <trkpt lat="56.72668" lon="-6.03713">
        <ele>131.29</ele>
        <time>2021-03-20T16:19:54Z</time>
      </trkpt>
      <trkpt lat="56.72694" lon="-6.03695">
        <ele>132.02</ele>
        <time>2021-03-20T16:19:57Z</time>
      </trkpt>
      <trkpt lat="56.72788" lon="-6.03662">
        <ele>125.59</ele>
        <time>2021-03-20T16:19:59Z</time>
      </trkpt>
      <trkpt lat="56.72815" lon="-6.03631">
        <ele>124.96</ele>
        <time>2021-03-20T16:20:01Z</time>
      </trkpt>
      <trkpt lat="56.72825" lon="-6.03578">
        <ele>125.21</ele>
        <time>2021-03-20T16:20:03Z</time>
      </trkpt>
      <trkpt lat="56.72814" lon="-6.03499">
        <ele>127.57</ele>
        <time>2021-03-20T16:20:06Z</time>
      </trkpt>
      <trkpt lat="56.728" lon="-6.03433">
        <ele>131.54</ele>
        <time>2021-03-20T16:20:08Z</time>
      </trkpt>
      <trkpt lat="56.72801" lon="-6.03317">
        <ele>131.88</ele>
        <time>2021-03-20T16:20:10Z</time>
      </trkpt>
      <trkpt lat="56.72813" lon="-6.0322">
        <ele>135.03</ele>
        <time>2021-03-20T16:20:12Z</time>
      </trkpt>
      <trkpt lat="56.72823" lon="-6.0317">
        <ele>136.17</ele>
        <time>2021-03-20T16:20:15Z</time>
      </trkpt>
      <trkpt lat="56.72824" lon="-6.03109">
        <ele>135.21</ele>
        <time>2021-03-20T16:20:17Z</time>
      </trkpt>
      <trkpt lat="56.72795" lon="-6.02965">
        <ele>133.77</ele>
        <time>2021-03-20T16:20:19Z</time>
      </trkpt>
      <trkpt lat="56.72774" lon="-6.02876">
        <ele>132.71</ele>
        <time>2021-03-20T16:20:21Z</time>
      </trkpt>
      <trkpt lat="56.72709" lon="-6.02782">
        <ele>135.17</ele>
        <time>2021-03-20T16:20:24Z</time>
      </trkpt>
      <trkpt lat="56.72634" lon="-6.02658">
        <ele>135.77</ele>
        <time>2021-03-20T16:20:26Z</time>
      </trkpt>
      <trkpt lat="56.72548" lon="-6.02526">
        <ele>132.93</ele>
        <time>2021-03-20T16:20:28Z</time>
      </trkpt>
      <trkpt lat="56.7252" lon="-6.02501">
        <ele>130.95</ele>
        <time>2021-03-20T16:20:30Z</time>
      </trkpt>
      <trkpt lat="56.72486" lon="-6.02482">
        <ele>132.87</ele>
        <time>2021-03-20T16:20:33Z</time>
      </trkpt>
      <trkpt lat="56.72456" lon="-6.02453">
        <ele>131.82</ele>
        <time>2021-03-20T16:20:35Z</time>
      </trkpt>
      <trkpt lat="56.72401" lon="-6.02409">
        <ele>132.36</ele>
        <time>2021-03-20T16:20:37Z</time>
      </trkpt>
      <trkpt lat="56.72316" lon="-6.02401">
        <ele>137.77</ele>
        <time>2021-03-20T16:20:39Z</time>
      </trkpt>
      <trkpt lat="56.723" lon="-6.02391">
        <ele>136.81</ele>
        <time>2021-03-20T16:20:42Z</time>
      </trkpt>
      <trkpt lat="56.72278" lon="-6.02352">
        <ele>132.68</ele>
        <time>2021-03-20T16:20:44Z</time>
      </trkpt>
      <trkpt lat="56.72255" lon="-6.02306">
        <ele>129.48</ele>
        <time>2021-03-20T16:20:46Z</time>
      </trkpt>
      <trkpt lat="56.72196" lon="-6.02272">
        <ele>131.54</ele>
        <time>2021-03-20T16:20:48Z</time>
      </trkpt>
      <trkpt lat="56.7216" lon="-6.02246">
        <ele>133.07</ele>
        <time>2021-03-20T16:20:51Z</time>
      </trkpt>
      <trkpt lat="56.72109" lon="-6.02132">
        <ele>127.46</ele>
        <time>2021-03-20T16:20:53Z</time>
      </trkpt>
      <trkpt lat="56.72089" lon="-6.02112">
        <ele>126.68</ele>
        <time>2021-03-20T16:20:55Z</time>
      </trkpt>
      <trkpt lat="56.72057" lon="-6.02115">
        <ele>129.44</ele>
        <time>2021-03-20T16:20:57Z</time>
      </trkpt>
      <trkpt lat="56.71996" lon="-6.0209">
        <ele>127.65</ele>
        <time>2021-03-20T16:21:00Z</time>
      </trkpt>
      <trkpt lat="56.71847" lon="-6.02045">
        <ele>129.51</ele>
        <time>2021-03-20T16:21:02Z</time>
      </trkpt>
      <trkpt lat="56.71804" lon="-6.02049">
        <ele>130.63</ele>
        <time>2021-03-20T16:21:04Z</time>
      </trkpt>
      <trkpt lat="56.71703" lon="-6.01995">
        <ele>131.74</ele>
        <time>2021-03-20T16:21:06Z</time>
      </trkpt>
      <trkpt lat="56.71638" lon="-6.01976">
        <ele>134.12</ele>
        <time>2021-03-20T16:21:09Z</time>
      </trkpt>
      <trkpt lat="56.71619" lon="-6.0196">
        <ele>133.09</ele>
        <time>2021-03-20T16:21:11Z</time>
      </trkpt>
      <trkpt lat="56.71602" lon="-6.01929">
        <ele>132.11</ele>
        <time>2021-03-20T16:21:13Z</time>
      </trkpt>
      <trkpt lat="56.71594" lon="-6.01895">
        <ele>131.44</ele>
        <time>2021-03-20T16:21:15Z</time>
      </trkpt>
      <trkpt lat="56.71573" lon="-6.01784">
        <ele>131.32</ele>
        <time>2021-03-20T16:21:18Z</time>
      </trkpt>
      <trkpt lat="56.71553" lon="-6.01713">
        <ele>129.24</ele>
        <time>2021-03-20T16:21:20Z</time>
      </trkpt>
      <trkpt lat="56.7153" lon="-6.01686">
        <ele>127.91</ele>
        <time>2021-03-20T16:21:22Z</time>
      </trkpt>
      <trkpt lat="56.71487" lon="-6.0166">
        <ele>129.8</ele>
        <time>2021-03-20T16:21:24Z</time>
      </trkpt>
      <trkpt lat="56.71479" lon="-6.01642">
        <ele>130.26</ele>
        <time>2021-03-20T16:21:27Z</time>
      </trkpt>
      <trkpt lat="56.71475" lon="-6.01623">
        <ele>130.17</ele>
        <time>2021-03-20T16:21:29Z</time>
      </trkpt>
      <trkpt lat="56.71469" lon="-6.0154">
        <ele>130.26</ele>
        <time>2021-03-20T16:21:31Z</time>
      </trkpt>
      <trkpt lat="56.71445" lon="-6.01392">
        <ele>132.08</ele>
        <time>2021-03-20T16:21:33Z</time>
      </trkpt>
      <trkpt lat="56.71438" lon="-6.01361">
        <ele>131.25</ele>
        <time>2021-03-20T16:21:36Z</time>
      </trkpt>
      <trkpt lat="56.71426" lon="-6.01335">
        <ele>130.46</ele>
        <time>2021-03-20T16:21:38Z</time>
      </trkpt>
      <trkpt lat="56.71399" lon="-6.01285">
        <ele>130.99</ele>
        <time>2021-03-20T16:21:40Z</time>
      </trkpt>
      <trkpt lat="56.7138" lon="-6.01241">
        <ele>130.13</ele>
        <time>2021-03-20T16:21:42Z</time>
      </trkpt>
      <trkpt lat="56.7133" lon="-6.01177">
        <ele>132.59</ele>
        <time>2021-03-20T16:21:45Z</time>
      </trkpt>
      <trkpt lat="56.71232" lon="-6.01073">
        <ele>133.41</ele>
        <time>2021-03-20T16:21:47Z</time>
      </trkpt>
      <trkpt lat="56.71192" lon="-6.01045">
        <ele>133.64</ele>
        <time>2021-03-20T16:21:49Z</time>
      </trkpt>
      <trkpt lat="56.71181" lon="-6.0103">
        <ele>132.22</ele>
        <time>2021-03-20T16:21:51Z</time>
      </trkpt>
      <trkpt lat="56.71165" lon="-6.00964">
        <ele>129.02</ele>
        <time>2021-03-20T16:21:54Z</time>
      </trkpt>
      <trkpt lat="56.71156" lon="-6.00944">
        <ele>129.55</ele>
        <time>2021-03-20T16:21:56Z</time>
      </trkpt>
      <trkpt lat="56.71127" lon="-6.00908">
        <ele>133.59</ele>
        <time>2021-03-20T16:21:58Z</time>
      </trkpt>
      <trkpt lat="56.71103" lon="-6.00869">
        <ele>135.95</ele>
        <time>2021-03-20T16:22:00Z</time>
      </trkpt>
      <trkpt lat="56.71084" lon="-6.00834">
        <ele>134.08</ele>
        <time>2021-03-20T16:22:03Z</time>
      </trkpt>
      <trkpt lat="56.71067" lon="-6.00799">
        <ele>134.19</ele>
        <time>2021-03-20T16:22:05Z</time>
      </trkpt>
      <trkpt lat="56.71049" lon="-6.00754">
        <ele>133.8</ele>
        <time>2021-03-20T16:22:07Z</time>
      </trkpt>
      <trkpt lat="56.7103" lon="-6.0072">
        <ele>136.77</ele>
        <time>2021-03-20T16:22:09Z</time>
      </trkpt>
      <trkpt lat="56.70992" lon="-6.00674">
        <ele>143.1</ele>
        <time>2021-03-20T16:22:12Z</time>
      </trkpt>
      <trkpt lat="56.70961" lon="-6.00632">
        <ele>146.55</ele>
        <time>2021-03-20T16:22:14Z</time>
      </trkpt>
      <trkpt lat="56.70933" lon="-6.00603">
        <ele>149.26</ele>
        <time>2021-03-20T16:22:16Z</time>
      </trkpt>
      <trkpt lat="56.70869" lon="-6.00563">
        <ele>153.8</ele>
        <time>2021-03-20T16:22:18Z</time>
      </trkpt>
      <trkpt lat="56.70816" lon="-6.00511">
        <ele>157.23</ele>
        <time>2021-03-20T16:22:21Z</time>
      </trkpt>
      <trkpt lat="56.70766" lon="-6.00482">
        <ele>162.84</ele>
        <time>2021-03-20T16:22:23Z</time>
      </trkpt>
      <trkpt lat="56.70718" lon="-6.00441">
        <ele>163.07</ele>
        <time>2021-03-20T16:22:25Z</time>
      </trkpt>
      <trkpt lat="56.70653" lon="-6.00401">
        <ele>164.8</ele>
        <time>2021-03-20T16:22:27Z</time>
      </trkpt>
      <trkpt lat="56.70573" lon="-6.00331">
        <ele>171.3</ele>
        <time>2021-03-20T16:22:30Z</time>
      </trkpt>
      <trkpt lat="56.70483" lon="-6.0027">
        <ele>174.13</ele>
        <time>2021-03-20T16:22:32Z</time>
      </trkpt>
      <trkpt lat="56.70431" lon="-6.00229">
        <ele>171.3</ele>
        <time>2021-03-20T16:22:34Z</time>
      </trkpt>
      <trkpt lat="56.70386" lon="-6.00204">
        <ele>167.04</ele>
        <time>2021-03-20T16:22:36Z</time>
      </trkpt>
      <trkpt lat="56.70359" lon="-6.00206">
        <ele>163.73</ele>
        <time>2021-03-20T16:22:39Z</time>
      </trkpt>
      <trkpt lat="56.70352" lon="-6.00212">
        <ele>162.61</ele>
        <time>2021-03-20T16:22:41Z</time>
      </trkpt>
      <trkpt lat="56.70336" lon="-6.00233">
        <ele>161.53</ele>
        <time>2021-03-20T16:22:43Z</time>
      </trkpt>
      <trkpt lat="56.70329" lon="-6.00239">
        <ele>161.39</ele>
        <time>2021-03-20T16:22:45Z</time>
      </trkpt>
      <trkpt lat="56.70319" lon="-6.00241">
        <ele>160.82</ele>
        <time>2021-03-20T16:22:48Z</time>
      </trkpt>
      <trkpt lat="56.70304" lon="-6.00238">
        <ele>159.27</ele>
        <time>2021-03-20T16:22:50Z</time>
      </trkpt>
      <trkpt lat="56.70183" lon="-6.00187">
        <ele>150.57</ele>
        <time>2021-03-20T16:22:52Z</time>
      </trkpt>
      <trkpt lat="56.70122" lon="-6.00169">
        <ele>146.03</ele>
        <time>2021-03-20T16:22:54Z</time>
      </trkpt>
      <trkpt lat="56.70038" lon="-6.00129">
        <ele>139.47</ele>
        <time>2021-03-20T16:22:57Z</time>
      </trkpt>
      <trkpt lat="56.70015" lon="-6.00125">
        <ele>137.37</ele>
        <time>2021-03-20T16:22:59Z</time>
      </trkpt>
      <trkpt lat="56.69929" lon="-6.00131">
        <ele>130.79</ele>
        <time>2021-03-20T16:23:01Z</time>
      </trkpt>
      <trkpt lat="56.6987" lon="-6.00139">
        <ele>127.32</ele>
        <time>2021-03-20T16:23:03Z</time>
      </trkpt>
      <trkpt lat="56.69828" lon="-6.00138">
        <ele>124.7</ele>
        <time>2021-03-20T16:23:06Z</time>
      </trkpt>
      <trkpt lat="56.69706" lon="-6.00123">
        <ele>118.85</ele>
        <time>2021-03-20T16:23:08Z</time>
      </trkpt>
      <trkpt lat="56.69556" lon="-6.00109">
        <ele>109.84</ele>
        <time>2021-03-20T16:23:10Z</time>
      </trkpt>
      <trkpt lat="56.69524" lon="-6.00102">
        <ele>108.18</ele>
        <time>2021-03-20T16:23:12Z</time>
      </trkpt>
      <trkpt lat="56.69505" lon="-6.00086">
        <ele>106.38</ele>
        <time>2021-03-20T16:23:15Z</time>
      </trkpt>
      <trkpt lat="56.69494" lon="-6.00067">
        <ele>104.84</ele>
        <time>2021-03-20T16:23:17Z</time>
      </trkpt>
      <trkpt lat="56.69458" lon="-5.99974">
        <ele>103</ele>
        <time>2021-03-20T16:23:19Z</time>
      </trkpt>
      <trkpt lat="56.69421" lon="-5.99867">
        <ele>103.85</ele>
        <time>2021-03-20T16:23:21Z</time>
      </trkpt>
      <trkpt lat="56.69411" lon="-5.99832">
        <ele>104.39</ele>
        <time>2021-03-20T16:23:23Z</time>
      </trkpt>
      <trkpt lat="56.69402" lon="-5.99766">
        <ele>105.08</ele>
        <time>2021-03-20T16:23:26Z</time>
      </trkpt>
      <trkpt lat="56.69399" lon="-5.99582">
        <ele>106.92</ele>
        <time>2021-03-20T16:23:28Z</time>
      </trkpt>
      <trkpt lat="56.69395" lon="-5.99512">
        <ele>108.72</ele>
        <time>2021-03-20T16:23:30Z</time>
      </trkpt>
      <trkpt lat="56.69391" lon="-5.99473">
        <ele>108.82</ele>
        <time>2021-03-20T16:23:32Z</time>
      </trkpt>
      <trkpt lat="56.69387" lon="-5.9946">
        <ele>108.6</ele>
        <time>2021-03-20T16:23:35Z</time>
      </trkpt>
      <trkpt lat="56.69381" lon="-5.99451">
        <ele>108.32</ele>
        <time>2021-03-20T16:23:37Z</time>
      </trkpt>
      <trkpt lat="56.69373" lon="-5.99447">
        <ele>108.14</ele>
        <time>2021-03-20T16:23:39Z</time>
      </trkpt>
      <trkpt lat="56.69364" lon="-5.99447">
        <ele>108.16</ele>
        <time>2021-03-20T16:23:41Z</time>
      </trkpt>
      <trkpt lat="56.69343" lon="-5.99453">
        <ele>106.85</ele>
        <time>2021-03-20T16:23:44Z</time>
      </trkpt>
      <trkpt lat="56.69322" lon="-5.99451">
        <ele>105.25</ele>
        <time>2021-03-20T16:23:46Z</time>
      </trkpt>
      <trkpt lat="56.69306" lon="-5.9944">
        <ele>103.53</ele>
        <time>2021-03-20T16:23:48Z</time>
      </trkpt>
      <trkpt lat="56.69274" lon="-5.99398">
        <ele>100.14</ele>
        <time>2021-03-20T16:23:50Z</time>
      </trkpt>
      <trkpt lat="56.69187" lon="-5.99316">
        <ele>94.32</ele>
        <time>2021-03-20T16:23:53Z</time>
      </trkpt>
      <trkpt lat="56.6915" lon="-5.99251">
        <ele>86.44</ele>
        <time>2021-03-20T16:23:55Z</time>
      </trkpt>
      <trkpt lat="56.69115" lon="-5.99182">
        <ele>86.17</ele>
        <time>2021-03-20T16:23:57Z</time>
      </trkpt>
      <trkpt lat="56.69044" lon="-5.98999">
        <ele>86.75</ele>
        <time>2021-03-20T16:23:59Z</time>
      </trkpt>
      <trkpt lat="56.69036" lon="-5.98955">
        <ele>86.06</ele>
        <time>2021-03-20T16:24:02Z</time>
      </trkpt>
      <trkpt lat="56.69028" lon="-5.98898">
        <ele>86.68</ele>
        <time>2021-03-20T16:24:04Z</time>
      </trkpt>
      <trkpt lat="56.69022" lon="-5.98877">
        <ele>86.78</ele>
        <time>2021-03-20T16:24:06Z</time>
      </trkpt>
      <trkpt lat="56.68955" lon="-5.98703">
        <ele>83.26</ele>
        <time>2021-03-20T16:24:08Z</time>
      </trkpt>
      <trkpt lat="56.68948" lon="-5.98684">
        <ele>83.36</ele>
        <time>2021-03-20T16:24:11Z</time>
      </trkpt>
      <trkpt lat="56.68939" lon="-5.98632">
        <ele>86.23</ele>
        <time>2021-03-20T16:24:13Z</time>
      </trkpt>
      <trkpt lat="56.68934" lon="-5.98618">
        <ele>86.82</ele>
        <time>2021-03-20T16:24:15Z</time>
      </trkpt>
      <trkpt lat="56.68907" lon="-5.98557">
        <ele>86.08</ele>
        <time>2021-03-20T16:24:17Z</time>
      </trkpt>
      <trkpt lat="56.68879" lon="-5.98523">
        <ele>81.53</ele>
        <time>2021-03-20T16:24:20Z</time>
      </trkpt>
      <trkpt lat="56.68851" lon="-5.98467">
        <ele>81.47</ele>
        <time>2021-03-20T16:24:22Z</time>
      </trkpt>
      <trkpt lat="56.68829" lon="-5.98429">
        <ele>79.35</ele>
        <time>2021-03-20T16:24:24Z</time>
      </trkpt>
      <trkpt lat="56.68748" lon="-5.98255">
        <ele>78.97</ele>
        <time>2021-03-20T16:24:26Z</time>
      </trkpt>
      <trkpt lat="56.68714" lon="-5.98197">
        <ele>77.33</ele>
        <time>2021-03-20T16:24:29Z</time>
      </trkpt>
      <trkpt lat="56.68697" lon="-5.98174">
        <ele>75.26</ele>
        <time>2021-03-20T16:24:31Z</time>
      </trkpt>
      <trkpt lat="56.68673" lon="-5.98148">
        <ele>74.59</ele>
        <time>2021-03-20T16:24:33Z</time>
      </trkpt>
      <trkpt lat="56.6866" lon="-5.98137">
        <ele>74.63</ele>
        <time>2021-03-20T16:24:35Z</time>
      </trkpt>
      <trkpt lat="56.68648" lon="-5.98131">
        <ele>74.8</ele>
        <time>2021-03-20T16:24:38Z</time>
      </trkpt>
      <trkpt lat="56.6863" lon="-5.98127">
        <ele>73.88</ele>
        <time>2021-03-20T16:24:40Z</time>
      </trkpt>
      <trkpt lat="56.68593" lon="-5.98131">
        <ele>68.22</ele>
        <time>2021-03-20T16:24:42Z</time>
      </trkpt>
      <trkpt lat="56.68582" lon="-5.98129">
        <ele>67.76</ele>
        <time>2021-03-20T16:24:44Z</time>
      </trkpt>
      <trkpt lat="56.68542" lon="-5.9811">
        <ele>71.45</ele>
        <time>2021-03-20T16:24:47Z</time>
      </trkpt>
      <trkpt lat="56.68495" lon="-5.98108">
        <ele>69.18</ele>
        <time>2021-03-20T16:24:49Z</time>
      </trkpt>
      <trkpt lat="56.68445" lon="-5.98125">
        <ele>62.64</ele>
        <time>2021-03-20T16:24:51Z</time>
      </trkpt>
      <trkpt lat="56.68416" lon="-5.98124">
        <ele>63.33</ele>
        <time>2021-03-20T16:24:53Z</time>
      </trkpt>
      <trkpt lat="56.68375" lon="-5.98118">
        <ele>66.91</ele>
        <time>2021-03-20T16:24:56Z</time>
      </trkpt>
      <trkpt lat="56.68319" lon="-5.9814">
        <ele>60.73</ele>
        <time>2021-03-20T16:24:58Z</time>
      </trkpt>
      <trkpt lat="56.68289" lon="-5.98141">
        <ele>62.26</ele>
        <time>2021-03-20T16:25:00Z</time>
      </trkpt>
      <trkpt lat="56.68268" lon="-5.9813">
        <ele>63.65</ele>
        <time>2021-03-20T16:25:02Z</time>
      </trkpt>
      <trkpt lat="56.68245" lon="-5.98085">
        <ele>67.85</ele>
        <time>2021-03-20T16:25:05Z</time>
      </trkpt>
      <trkpt lat="56.68205" lon="-5.97943">
        <ele>71.9</ele>
        <time>2021-03-20T16:25:07Z</time>
      </trkpt>
      <trkpt lat="56.68184" lon="-5.97842">
        <ele>73.59</ele>
        <time>2021-03-20T16:25:09Z</time>
      </trkpt>
      <trkpt lat="56.68163" lon="-5.97717">
        <ele>69.87</ele>
        <time>2021-03-20T16:25:11Z</time>
      </trkpt>
      <trkpt lat="56.68139" lon="-5.97587">
        <ele>67.02</ele>
        <time>2021-03-20T16:25:14Z</time>
      </trkpt>
      <trkpt lat="56.68137" lon="-5.97564">
        <ele>66.9</ele>
        <time>2021-03-20T16:25:16Z</time>
      </trkpt>
      <trkpt lat="56.68138" lon="-5.97542">
        <ele>66.42</ele>
        <time>2021-03-20T16:25:18Z</time>
      </trkpt>
      <trkpt lat="56.68142" lon="-5.97528">
        <ele>66.16</ele>
        <time>2021-03-20T16:25:20Z</time>
      </trkpt>
      <trkpt lat="56.68148" lon="-5.97517">
        <ele>65.72</ele>
        <time>2021-03-20T16:25:23Z</time>
      </trkpt>
      <trkpt lat="56.68158" lon="-5.97512">
        <ele>65.83</ele>
        <time>2021-03-20T16:25:25Z</time>
      </trkpt>
      <trkpt lat="56.68169" lon="-5.97512">
        <ele>66.44</ele>
        <time>2021-03-20T16:25:27Z</time>
      </trkpt>
      <trkpt lat="56.6822" lon="-5.97523">
        <ele>71.8</ele>
        <time>2021-03-20T16:25:29Z</time>
      </trkpt>
      <trkpt lat="56.68244" lon="-5.97516">
        <ele>70.92</ele>
        <time>2021-03-20T16:25:32Z</time>
      </trkpt>
      <trkpt lat="56.68262" lon="-5.97505">
        <ele>69.66</ele>
        <time>2021-03-20T16:25:34Z</time>
      </trkpt>
      <trkpt lat="56.68279" lon="-5.97492">
        <ele>67.56</ele>
        <time>2021-03-20T16:25:36Z</time>
      </trkpt>
      <trkpt lat="56.68292" lon="-5.97477">
        <ele>65.63</ele>
        <time>2021-03-20T16:25:38Z</time>
      </trkpt>
      <trkpt lat="56.68352" lon="-5.97371">
        <ele>56.12</ele>
        <time>2021-03-20T16:25:41Z</time>
      </trkpt>
      <trkpt lat="56.68394" lon="-5.97243">
        <ele>42.49</ele>
        <time>2021-03-20T16:25:43Z</time>
      </trkpt>
      <trkpt lat="56.68407" lon="-5.97167">
        <ele>36.55</ele>
        <time>2021-03-20T16:25:45Z</time>
      </trkpt>
      <trkpt lat="56.68399" lon="-5.97124">
        <ele>31.17</ele>
        <time>2021-03-20T16:25:47Z</time>
      </trkpt>
      <trkpt lat="56.68371" lon="-5.97051">
        <ele>25.87</ele>
        <time>2021-03-20T16:25:50Z</time>
      </trkpt>
      <trkpt lat="56.6836" lon="-5.96977">
        <ele>25.81</ele>
        <time>2021-03-20T16:25:52Z</time>
      </trkpt>
      <trkpt lat="56.68353" lon="-5.96875">
        <ele>24.88</ele>
        <time>2021-03-20T16:25:54Z</time>
      </trkpt>
      <trkpt lat="56.68357" lon="-5.96786">
        <ele>22.17</ele>
        <time>2021-03-20T16:25:56Z</time>
      </trkpt>
      <trkpt lat="56.68391" lon="-5.96655">
        <ele>26.29</ele>
        <time>2021-03-20T16:25:59Z</time>
      </trkpt>
      <trkpt lat="56.68398" lon="-5.96292">
        <ele>10.86</ele>
        <time>2021-03-20T16:26:01Z</time>
      </trkpt>
      <trkpt lat="56.68405" lon="-5.96251">
        <ele>9.77</ele>
        <time>2021-03-20T16:26:03Z</time>
      </trkpt>
      <trkpt lat="56.68417" lon="-5.96221">
        <ele>8.99</ele>
        <time>2021-03-20T16:26:05Z</time>
      </trkpt>
      <trkpt lat="56.68441" lon="-5.96181">
        <ele>10.16</ele>
        <time>2021-03-20T16:26:08Z</time>
      </trkpt>
      <trkpt lat="56.6848" lon="-5.96141">
        <ele>10.73</ele>
        <time>2021-03-20T16:26:10Z</time>
      </trkpt>
      <trkpt lat="56.6851" lon="-5.96117">
        <ele>10.31</ele>
        <time>2021-03-20T16:26:12Z</time>
      </trkpt>
      <trkpt lat="56.6854" lon="-5.9611">
        <ele>11.36</ele>
        <time>2021-03-20T16:26:14Z</time>
      </trkpt>
      <trkpt lat="56.68553" lon="-5.96103">
        <ele>11.3</ele>
        <time>2021-03-20T16:26:17Z</time>
      </trkpt>
      <trkpt lat="56.68562" lon="-5.96088">
        <ele>10.56</ele>
        <time>2021-03-20T16:26:19Z</time>
      </trkpt>
      <trkpt lat="56.68573" lon="-5.96061">
        <ele>8.65</ele>
        <time>2021-03-20T16:26:21Z</time>
      </trkpt>
      <trkpt lat="56.68582" lon="-5.96031">
        <ele>7.19</ele>
        <time>2021-03-20T16:26:23Z</time>
      </trkpt>
      <trkpt lat="56.68591" lon="-5.95942">
        <ele>6.88</ele>
        <time>2021-03-20T16:26:26Z</time>
      </trkpt>
      <trkpt lat="56.6859" lon="-5.95853">
        <ele>7.35</ele>
        <time>2021-03-20T16:26:28Z</time>
      </trkpt>
      <trkpt lat="56.68576" lon="-5.95742">
        <ele>6</ele>
        <time>2021-03-20T16:26:30Z</time>
      </trkpt>
      <trkpt lat="56.68568" lon="-5.95705">
        <ele>7.33</ele>
        <time>2021-03-20T16:26:32Z</time>
      </trkpt>
      <trkpt lat="56.68559" lon="-5.95674">
        <ele>8.75</ele>
        <time>2021-03-20T16:26:35Z</time>
      </trkpt>
      <trkpt lat="56.68525" lon="-5.95607">
        <ele>10.12</ele>
        <time>2021-03-20T16:26:37Z</time>
      </trkpt>
      <trkpt lat="56.68521" lon="-5.95594">
        <ele>10.46</ele>
        <time>2021-03-20T16:26:39Z</time>
      </trkpt>
      <trkpt lat="56.68515" lon="-5.95566">
        <ele>11.15</ele>
        <time>2021-03-20T16:26:41Z</time>
      </trkpt>
      <trkpt lat="56.685" lon="-5.9542">
        <ele>12.1</ele>
        <time>2021-03-20T16:26:44Z</time>
      </trkpt>
      <trkpt lat="56.68501" lon="-5.95387">
        <ele>10.93</ele>
        <time>2021-03-20T16:26:46Z</time>
      </trkpt>
      <trkpt lat="56.68508" lon="-5.95371">
        <ele>10.19</ele>
        <time>2021-03-20T16:26:48Z</time>
      </trkpt>
      <trkpt lat="56.6856" lon="-5.95275">
        <ele>5.91</ele>
        <time>2021-03-20T16:26:50Z</time>
      </trkpt>
      <trkpt lat="56.6862" lon="-5.95122">
        <ele>7.99</ele>
        <time>2021-03-20T16:26:53Z</time>
      </trkpt>
      <trkpt lat="56.68638" lon="-5.95028">
        <ele>8.92</ele>
        <time>2021-03-20T16:26:55Z</time>
      </trkpt>
      <trkpt lat="56.68649" lon="-5.94992">
        <ele>8.07</ele>
        <time>2021-03-20T16:26:57Z</time>
      </trkpt>
      <trkpt lat="56.68662" lon="-5.94972">
        <ele>8.48</ele>
        <time>2021-03-20T16:26:59Z</time>
      </trkpt>
      <trkpt lat="56.68695" lon="-5.94935">
        <ele>8.39</ele>
        <time>2021-03-20T16:27:02Z</time>
      </trkpt>
      <trkpt lat="56.68709" lon="-5.94916">
        <ele>8.46</ele>
        <time>2021-03-20T16:27:04Z</time>
      </trkpt>
      <trkpt lat="56.68719" lon="-5.94886">
        <ele>6.6</ele>
        <time>2021-03-20T16:27:06Z</time>
      </trkpt>
      <trkpt lat="56.68755" lon="-5.94745">
        <ele>6.18</ele>
        <time>2021-03-20T16:27:08Z</time>
      </trkpt>
      <trkpt lat="56.6879" lon="-5.94699">
        <ele>6.09</ele>
        <time>2021-03-20T16:27:11Z</time>
      </trkpt>
      <trkpt lat="56.68882" lon="-5.94646">
        <ele>7.18</ele>
        <time>2021-03-20T16:27:13Z</time>
      </trkpt>
      <trkpt lat="56.68944" lon="-5.94576">
        <ele>11.28</ele>
        <time>2021-03-20T16:27:15Z</time>
      </trkpt>
      <trkpt lat="56.68972" lon="-5.94533">
        <ele>13.1</ele>
        <time>2021-03-20T16:27:17Z</time>
      </trkpt>
      <trkpt lat="56.68994" lon="-5.94512">
        <ele>15</ele>
        <time>2021-03-20T16:27:20Z</time>
      </trkpt>
      <trkpt lat="56.69" lon="-5.945">
        <ele>14.93</ele>
        <time>2021-03-20T16:27:22Z</time>
      </trkpt>
      <trkpt lat="56.6902" lon="-5.94441">
        <ele>14.9</ele>
        <time>2021-03-20T16:27:24Z</time>
      </trkpt>
      <trkpt lat="56.69024" lon="-5.94433">
        <ele>14.85</ele>
        <time>2021-03-20T16:27:26Z</time>
      </trkpt>
      <trkpt lat="56.69036" lon="-5.94423">
        <ele>15</ele>
        <time>2021-03-20T16:27:29Z</time>
      </trkpt>
      <trkpt lat="56.69088" lon="-5.9439">
        <ele>15.43</ele>
        <time>2021-03-20T16:27:31Z</time>
      </trkpt>
      <trkpt lat="56.691" lon="-5.94378">
        <ele>15.38</ele>
        <time>2021-03-20T16:27:33Z</time>
      </trkpt>
      <trkpt lat="56.69114" lon="-5.94351">
        <ele>14.65</ele>
        <time>2021-03-20T16:27:35Z</time>
      </trkpt>
      <trkpt lat="56.69143" lon="-5.9427">
        <ele>14.79</ele>
        <time>2021-03-20T16:27:38Z</time>
      </trkpt>
      <trkpt lat="56.69148" lon="-5.94246">
        <ele>16.4</ele>
        <time>2021-03-20T16:27:40Z</time>
      </trkpt>
      <trkpt lat="56.69147" lon="-5.94215">
        <ele>17.33</ele>
        <time>2021-03-20T16:27:42Z</time>
      </trkpt>
      <trkpt lat="56.69138" lon="-5.94189">
        <ele>17.1</ele>
        <time>2021-03-20T16:27:44Z</time>
      </trkpt>
      <trkpt lat="56.69045" lon="-5.93962">
        <ele>14.48</ele>
        <time>2021-03-20T16:27:47Z</time>
      </trkpt>
      <trkpt lat="56.68967" lon="-5.93828">
        <ele>17.2</ele>
        <time>2021-03-20T16:27:49Z</time>
      </trkpt>
      <trkpt lat="56.68918" lon="-5.93762">
        <ele>19.44</ele>
        <time>2021-03-20T16:27:51Z</time>
      </trkpt>
      <trkpt lat="56.68813" lon="-5.93679">
        <ele>21.05</ele>
        <time>2021-03-20T16:27:53Z</time>
      </trkpt>
      <trkpt lat="56.68767" lon="-5.93621">
        <ele>21.03</ele>
        <time>2021-03-20T16:27:56Z</time>
      </trkpt>
      <trkpt lat="56.68747" lon="-5.9359">
        <ele>19.64</ele>
        <time>2021-03-20T16:27:58Z</time>
      </trkpt>
      <trkpt lat="56.68736" lon="-5.93558">
        <ele>20.22</ele>
        <time>2021-03-20T16:28:00Z</time>
      </trkpt>
      <trkpt lat="56.68737" lon="-5.9353">
        <ele>21.74</ele>
        <time>2021-03-20T16:28:02Z</time>
      </trkpt>
      <trkpt lat="56.68746" lon="-5.93495">
        <ele>25.07</ele>
        <time>2021-03-20T16:28:04Z</time>
      </trkpt>
      <trkpt lat="56.68746" lon="-5.93448">
        <ele>27.08</ele>
        <time>2021-03-20T16:28:07Z</time>
      </trkpt>
      <trkpt lat="56.68736" lon="-5.934">
        <ele>26.35</ele>
        <time>2021-03-20T16:28:09Z</time>
      </trkpt>
      <trkpt lat="56.68592" lon="-5.93168">
        <ele>26.29</ele>
        <time>2021-03-20T16:28:11Z</time>
      </trkpt>
      <trkpt lat="56.68522" lon="-5.93013">
        <ele>30.05</ele>
        <time>2021-03-20T16:28:13Z</time>
      </trkpt>
      <trkpt lat="56.68512" lon="-5.92969">
        <ele>31.94</ele>
        <time>2021-03-20T16:28:16Z</time>
      </trkpt>
      <trkpt lat="56.68497" lon="-5.92924">
        <ele>32.83</ele>
        <time>2021-03-20T16:28:18Z</time>
      </trkpt>
      <trkpt lat="56.68452" lon="-5.92837">
        <ele>25.39</ele>
        <time>2021-03-20T16:28:20Z</time>
      </trkpt>
      <trkpt lat="56.68406" lon="-5.92762">
        <ele>19.7</ele>
        <time>2021-03-20T16:28:22Z</time>
      </trkpt>
      <trkpt lat="56.68352" lon="-5.9271">
        <ele>18.4</ele>
        <time>2021-03-20T16:28:25Z</time>
      </trkpt>
      <trkpt lat="56.68304" lon="-5.92679">
        <ele>19.07</ele>
        <time>2021-03-20T16:28:27Z</time>
      </trkpt>
      <trkpt lat="56.68161" lon="-5.92669">
        <ele>10.4</ele>
        <time>2021-03-20T16:28:29Z</time>
      </trkpt>
      <trkpt lat="56.68107" lon="-5.92642">
        <ele>11.37</ele>
        <time>2021-03-20T16:28:31Z</time>
      </trkpt>
      <trkpt lat="56.6805" lon="-5.92592">
        <ele>13.88</ele>
        <time>2021-03-20T16:28:34Z</time>
      </trkpt>
      <trkpt lat="56.67977" lon="-5.92507">
        <ele>23.29</ele>
        <time>2021-03-20T16:28:36Z</time>
      </trkpt>
      <trkpt lat="56.67834" lon="-5.92248">
        <ele>28.98</ele>
        <time>2021-03-20T16:28:38Z</time>
      </trkpt>
      <trkpt lat="56.67803" lon="-5.92134">
        <ele>22.6</ele>
        <time>2021-03-20T16:28:40Z</time>
      </trkpt>
      <trkpt lat="56.67771" lon="-5.92049">
        <ele>18.43</ele>
        <time>2021-03-20T16:28:43Z</time>
      </trkpt>
      <trkpt lat="56.67764" lon="-5.91996">
        <ele>19.55</ele>
        <time>2021-03-20T16:28:45Z</time>
      </trkpt>
      <trkpt lat="56.67751" lon="-5.91924">
        <ele>17.63</ele>
        <time>2021-03-20T16:28:47Z</time>
      </trkpt>
      <trkpt lat="56.67755" lon="-5.91852">
        <ele>15.11</ele>
        <time>2021-03-20T16:28:49Z</time>
      </trkpt>
      <trkpt lat="56.67752" lon="-5.91817">
        <ele>12.63</ele>
        <time>2021-03-20T16:28:52Z</time>
      </trkpt>
      <trkpt lat="56.67735" lon="-5.91711">
        <ele>15.31</ele>
        <time>2021-03-20T16:28:54Z</time>
      </trkpt>
      <trkpt lat="56.67729" lon="-5.91568">
        <ele>18.46</ele>
        <time>2021-03-20T16:28:56Z</time>
      </trkpt>
      <trkpt lat="56.6773" lon="-5.91514">
        <ele>18.09</ele>
        <time>2021-03-20T16:28:58Z</time>
      </trkpt>
      <trkpt lat="56.67696" lon="-5.91305">
        <ele>13.37</ele>
        <time>2021-03-20T16:29:01Z</time>
      </trkpt>
      <trkpt lat="56.67696" lon="-5.91273">
        <ele>12.35</ele>
        <time>2021-03-20T16:29:03Z</time>
      </trkpt>
      <trkpt lat="56.67706" lon="-5.91212">
        <ele>14.63</ele>
        <time>2021-03-20T16:29:05Z</time>
      </trkpt>
      <trkpt lat="56.67709" lon="-5.9117">
        <ele>16.03</ele>
        <time>2021-03-20T16:29:07Z</time>
      </trkpt>
      <trkpt lat="56.67703" lon="-5.91107">
        <ele>18.85</ele>
        <time>2021-03-20T16:29:10Z</time>
      </trkpt>
      <trkpt lat="56.67699" lon="-5.9104">
        <ele>22</ele>
        <time>2021-03-20T16:29:12Z</time>
      </trkpt>
      <trkpt lat="56.677" lon="-5.90978">
        <ele>22.35</ele>
        <time>2021-03-20T16:29:14Z</time>
      </trkpt>
      <trkpt lat="56.67702" lon="-5.90954">
        <ele>21.64</ele>
        <time>2021-03-20T16:29:16Z</time>
      </trkpt>
      <trkpt lat="56.67718" lon="-5.90912">
        <ele>19.32</ele>
        <time>2021-03-20T16:29:19Z</time>
      </trkpt>
      <trkpt lat="56.67744" lon="-5.9086">
        <ele>17.2</ele>
        <time>2021-03-20T16:29:21Z</time>
      </trkpt>
      <trkpt lat="56.67782" lon="-5.90798">
        <ele>15.92</ele>
        <time>2021-03-20T16:29:23Z</time>
      </trkpt>
      <trkpt lat="56.67843" lon="-5.90752">
        <ele>19.67</ele>
        <time>2021-03-20T16:29:25Z</time>
      </trkpt>
      <trkpt lat="56.67913" lon="-5.90693">
        <ele>16.41</ele>
        <time>2021-03-20T16:29:28Z</time>
      </trkpt>
      <trkpt lat="56.67995" lon="-5.90509">
        <ele>11.79</ele>
        <time>2021-03-20T16:29:30Z</time>
      </trkpt>
      <trkpt lat="56.68009" lon="-5.90491">
        <ele>12.76</ele>
        <time>2021-03-20T16:29:32Z</time>
      </trkpt>
      <trkpt lat="56.68019" lon="-5.90472">
        <ele>13.8</ele>
        <time>2021-03-20T16:29:34Z</time>
      </trkpt>
      <trkpt lat="56.68026" lon="-5.90456">
        <ele>14.08</ele>
        <time>2021-03-20T16:29:37Z</time>
      </trkpt>
      <trkpt lat="56.68027" lon="-5.90438">
        <ele>13.88</ele>
        <time>2021-03-20T16:29:39Z</time>
      </trkpt>
      <trkpt lat="56.68025" lon="-5.90423">
        <ele>13.54</ele>
        <time>2021-03-20T16:29:41Z</time>
      </trkpt>
      <trkpt lat="56.68013" lon="-5.90388">
        <ele>10.26</ele>
        <time>2021-03-20T16:29:43Z</time>
      </trkpt>
      <trkpt lat="56.67966" lon="-5.90309">
        <ele>5.76</ele>
        <time>2021-03-20T16:29:46Z</time>
      </trkpt>
      <trkpt lat="56.67953" lon="-5.90292">
        <ele>5.79</ele>
        <time>2021-03-20T16:29:48Z</time>
      </trkpt>
      <trkpt lat="56.67921" lon="-5.9026">
        <ele>5.68</ele>
        <time>2021-03-20T16:29:50Z</time>
      </trkpt>
      <trkpt lat="56.67913" lon="-5.9025">
        <ele>5.87</ele>
        <time>2021-03-20T16:29:52Z</time>
      </trkpt>
      <trkpt lat="56.67905" lon="-5.90235">
        <ele>6.1</ele>
        <time>2021-03-20T16:29:55Z</time>
      </trkpt>
      <trkpt lat="56.67886" lon="-5.90195">
        <ele>6.96</ele>
        <time>2021-03-20T16:29:57Z</time>
      </trkpt>
      <trkpt lat="56.67874" lon="-5.9018">
        <ele>8.04</ele>
        <time>2021-03-20T16:29:59Z</time>
      </trkpt>
      <trkpt lat="56.67862" lon="-5.90168">
        <ele>8.9</ele>
        <time>2021-03-20T16:30:01Z</time>
      </trkpt>
      <trkpt lat="56.67851" lon="-5.90161">
        <ele>9.76</ele>
        <time>2021-03-20T16:30:04Z</time>
      </trkpt>
      <trkpt lat="56.67833" lon="-5.90154">
        <ele>11.02</ele>
        <time>2021-03-20T16:30:06Z</time>
      </trkpt>
      <trkpt lat="56.67812" lon="-5.90149">
        <ele>13.6</ele>
        <time>2021-03-20T16:30:08Z</time>
      </trkpt>
      <trkpt lat="56.67789" lon="-5.90139">
        <ele>15.62</ele>
        <time>2021-03-20T16:30:10Z</time>
      </trkpt>
      <trkpt lat="56.67779" lon="-5.90131">
        <ele>16.26</ele>
        <time>2021-03-20T16:30:13Z</time>
      </trkpt>
      <trkpt lat="56.67765" lon="-5.90105">
        <ele>16.09</ele>
        <time>2021-03-20T16:30:15Z</time>
      </trkpt>
      <trkpt lat="56.67752" lon="-5.90063">
        <ele>15.85</ele>
        <time>2021-03-20T16:30:17Z</time>
      </trkpt>
      <trkpt lat="56.67747" lon="-5.90038">
        <ele>16</ele>
        <time>2021-03-20T16:30:19Z</time>
      </trkpt>
      <trkpt lat="56.67741" lon="-5.89961">
        <ele>16.71</ele>
        <time>2021-03-20T16:30:22Z</time>
      </trkpt>
      <trkpt lat="56.6774" lon="-5.89929">
        <ele>16.36</ele>
        <time>2021-03-20T16:30:24Z</time>
      </trkpt>
      <trkpt lat="56.67732" lon="-5.89865">
        <ele>18.2</ele>
        <time>2021-03-20T16:30:26Z</time>
      </trkpt>
      <trkpt lat="56.67732" lon="-5.89843">
        <ele>18.76</ele>
        <time>2021-03-20T16:30:28Z</time>
      </trkpt>
      <trkpt lat="56.67735" lon="-5.89689">
        <ele>17.36</ele>
        <time>2021-03-20T16:30:31Z</time>
      </trkpt>
      <trkpt lat="56.67735" lon="-5.8937">
        <ele>13.82</ele>
        <time>2021-03-20T16:30:33Z</time>
      </trkpt>
      <trkpt lat="56.67737" lon="-5.89228">
        <ele>14.07</ele>
        <time>2021-03-20T16:30:35Z</time>
      </trkpt>
      <trkpt lat="56.67731" lon="-5.88834">
        <ele>11.28</ele>
        <time>2021-03-20T16:30:37Z</time>
      </trkpt>
      <trkpt lat="56.67733" lon="-5.88793">
        <ele>11.62</ele>
        <time>2021-03-20T16:30:40Z</time>
      </trkpt>
      <trkpt lat="56.67737" lon="-5.88763">
        <ele>12.06</ele>
        <time>2021-03-20T16:30:42Z</time>
      </trkpt>
      <trkpt lat="56.67765" lon="-5.88652">
        <ele>17.73</ele>
        <time>2021-03-20T16:30:44Z</time>
      </trkpt>
      <trkpt lat="56.67793" lon="-5.88559">
        <ele>24.82</ele>
        <time>2021-03-20T16:30:46Z</time>
      </trkpt>
      <trkpt lat="56.67811" lon="-5.88389">
        <ele>25.64</ele>
        <time>2021-03-20T16:30:49Z</time>
      </trkpt>
      <trkpt lat="56.67818" lon="-5.88325">
        <ele>31.17</ele>
        <time>2021-03-20T16:30:51Z</time>
      </trkpt>
      <trkpt lat="56.67811" lon="-5.88259">
        <ele>37.47</ele>
        <time>2021-03-20T16:30:53Z</time>
      </trkpt>
      <trkpt lat="56.67794" lon="-5.88148">
        <ele>47.69</ele>
        <time>2021-03-20T16:30:55Z</time>
      </trkpt>
      <trkpt lat="56.67792" lon="-5.88079">
        <ele>48.28</ele>
        <time>2021-03-20T16:30:58Z</time>
      </trkpt>
      <trkpt lat="56.6779" lon="-5.87884">
        <ele>32.09</ele>
        <time>2021-03-20T16:31:00Z</time>
      </trkpt>
      <trkpt lat="56.67785" lon="-5.87841">
        <ele>29.26</ele>
        <time>2021-03-20T16:31:02Z</time>
      </trkpt>
      <trkpt lat="56.67773" lon="-5.87791">
        <ele>25.38</ele>
        <time>2021-03-20T16:31:04Z</time>
      </trkpt>
      <trkpt lat="56.6777" lon="-5.87748">
        <ele>23.82</ele>
        <time>2021-03-20T16:31:07Z</time>
      </trkpt>
      <trkpt lat="56.67773" lon="-5.87701">
        <ele>23.42</ele>
        <time>2021-03-20T16:31:09Z</time>
      </trkpt>
      <trkpt lat="56.67773" lon="-5.87632">
        <ele>24.15</ele>
        <time>2021-03-20T16:31:11Z</time>
      </trkpt>
      <trkpt lat="56.67769" lon="-5.87605">
        <ele>25.34</ele>
        <time>2021-03-20T16:31:13Z</time>
      </trkpt>
      <trkpt lat="56.67755" lon="-5.87575">
        <ele>23.62</ele>
        <time>2021-03-20T16:31:16Z</time>
      </trkpt>
      <trkpt lat="56.6774" lon="-5.87549">
        <ele>21.44</ele>
        <time>2021-03-20T16:31:18Z</time>
      </trkpt>
      <trkpt lat="56.6773" lon="-5.87522">
        <ele>20.31</ele>
        <time>2021-03-20T16:31:20Z</time>
      </trkpt>
      <trkpt lat="56.67725" lon="-5.87481">
        <ele>19.69</ele>
        <time>2021-03-20T16:31:22Z</time>
      </trkpt>
      <trkpt lat="56.67722" lon="-5.87405">
        <ele>14.6</ele>
        <time>2021-03-20T16:31:25Z</time>
      </trkpt>
      <trkpt lat="56.67724" lon="-5.87359">
        <ele>12.47</ele>
        <time>2021-03-20T16:31:27Z</time>
      </trkpt>
      <trkpt lat="56.67731" lon="-5.87321">
        <ele>13.49</ele>
        <time>2021-03-20T16:31:29Z</time>
      </trkpt>
      <trkpt lat="56.67748" lon="-5.87293">
        <ele>15.97</ele>
        <time>2021-03-20T16:31:31Z</time>
      </trkpt>
      <trkpt lat="56.67778" lon="-5.87275">
        <ele>24.4</ele>
        <time>2021-03-20T16:31:34Z</time>
      </trkpt>
      <trkpt lat="56.67819" lon="-5.87259">
        <ele>29.55</ele>
        <time>2021-03-20T16:31:36Z</time>
      </trkpt>
      <trkpt lat="56.67836" lon="-5.87247">
        <ele>29.75</ele>
        <time>2021-03-20T16:31:38Z</time>
      </trkpt>
      <trkpt lat="56.67845" lon="-5.8723">
        <ele>27.59</ele>
        <time>2021-03-20T16:31:40Z</time>
      </trkpt>
      <trkpt lat="56.67856" lon="-5.87201">
        <ele>27.83</ele>
        <time>2021-03-20T16:31:43Z</time>
      </trkpt>
      <trkpt lat="56.67907" lon="-5.87134">
        <ele>34.3</ele>
        <time>2021-03-20T16:31:45Z</time>
      </trkpt>
      <trkpt lat="56.6794" lon="-5.8706">
        <ele>30.75</ele>
        <time>2021-03-20T16:31:47Z</time>
      </trkpt>
      <trkpt lat="56.67998" lon="-5.86913">
        <ele>25.2</ele>
        <time>2021-03-20T16:31:49Z</time>
      </trkpt>
      <trkpt lat="56.68038" lon="-5.86803">
        <ele>23.73</ele>
        <time>2021-03-20T16:31:52Z</time>
      </trkpt>
      <trkpt lat="56.68093" lon="-5.86725">
        <ele>27.7</ele>
        <time>2021-03-20T16:31:54Z</time>
      </trkpt>
      <trkpt lat="56.68143" lon="-5.86637">
        <ele>23.33</ele>
        <time>2021-03-20T16:31:56Z</time>
      </trkpt>
      <trkpt lat="56.68162" lon="-5.86596">
        <ele>22.5</ele>
        <time>2021-03-20T16:31:58Z</time>
      </trkpt>
      <trkpt lat="56.68173" lon="-5.8654">
        <ele>22.96</ele>
        <time>2021-03-20T16:32:01Z</time>
      </trkpt>
      <trkpt lat="56.68198" lon="-5.86431">
        <ele>27.01</ele>
        <time>2021-03-20T16:32:03Z</time>
      </trkpt>
      <trkpt lat="56.68182" lon="-5.86151">
        <ele>28.32</ele>
        <time>2021-03-20T16:32:05Z</time>
      </trkpt>
      <trkpt lat="56.68171" lon="-5.86087">
        <ele>28.18</ele>
        <time>2021-03-20T16:32:07Z</time>
      </trkpt>
      <trkpt lat="56.68156" lon="-5.86045">
        <ele>27.45</ele>
        <time>2021-03-20T16:32:10Z</time>
      </trkpt>
      <trkpt lat="56.68125" lon="-5.85971">
        <ele>24.05</ele>
        <time>2021-03-20T16:32:12Z</time>
      </trkpt>
      <trkpt lat="56.68108" lon="-5.85861">
        <ele>27</ele>
        <time>2021-03-20T16:32:14Z</time>
      </trkpt>
      <trkpt lat="56.68077" lon="-5.85742">
        <ele>29.71</ele>
        <time>2021-03-20T16:32:16Z</time>
      </trkpt>
      <trkpt lat="56.68049" lon="-5.85694">
        <ele>26.61</ele>
        <time>2021-03-20T16:32:19Z</time>
      </trkpt>
      <trkpt lat="56.68008" lon="-5.85617">
        <ele>27.95</ele>
        <time>2021-03-20T16:32:21Z</time>
      </trkpt>
      <trkpt lat="56.67992" lon="-5.85576">
        <ele>32.59</ele>
        <time>2021-03-20T16:32:23Z</time>
      </trkpt>
      <trkpt lat="56.67982" lon="-5.85531">
        <ele>36.16</ele>
        <time>2021-03-20T16:32:25Z</time>
      </trkpt>
      <trkpt lat="56.67965" lon="-5.85361">
        <ele>44.49</ele>
        <time>2021-03-20T16:32:28Z</time>
      </trkpt>
      <trkpt lat="56.67959" lon="-5.8525">
        <ele>51.08</ele>
        <time>2021-03-20T16:32:30Z</time>
      </trkpt>
      <trkpt lat="56.67942" lon="-5.85135">
        <ele>53.12</ele>
        <time>2021-03-20T16:32:32Z</time>
      </trkpt>
      <trkpt lat="56.67909" lon="-5.84939">
        <ele>64.9</ele>
        <time>2021-03-20T16:32:34Z</time>
      </trkpt>
      <trkpt lat="56.67895" lon="-5.84827">
        <ele>71.45</ele>
        <time>2021-03-20T16:32:37Z</time>
      </trkpt>
      <trkpt lat="56.67869" lon="-5.84687">
        <ele>72.1</ele>
        <time>2021-03-20T16:32:39Z</time>
      </trkpt>
      <trkpt lat="56.67837" lon="-5.8455">
        <ele>62.1</ele>
        <time>2021-03-20T16:32:41Z</time>
      </trkpt>
      <trkpt lat="56.67837" lon="-5.84509">
        <ele>58.66</ele>
        <time>2021-03-20T16:32:43Z</time>
      </trkpt>
      <trkpt lat="56.6785" lon="-5.84382">
        <ele>53.5</ele>
        <time>2021-03-20T16:32:45Z</time>
      </trkpt>
      <trkpt lat="56.67853" lon="-5.84334">
        <ele>51.61</ele>
        <time>2021-03-20T16:32:48Z</time>
      </trkpt>
      <trkpt lat="56.67842" lon="-5.84227">
        <ele>49.99</ele>
        <time>2021-03-20T16:32:50Z</time>
      </trkpt>
      <trkpt lat="56.67837" lon="-5.84153">
        <ele>48.83</ele>
        <time>2021-03-20T16:32:52Z</time>
      </trkpt>
      <trkpt lat="56.67857" lon="-5.84022">
        <ele>56.94</ele>
        <time>2021-03-20T16:32:54Z</time>
      </trkpt>
      <trkpt lat="56.67856" lon="-5.83932">
        <ele>60.41</ele>
        <time>2021-03-20T16:32:57Z</time>
      </trkpt>
      <trkpt lat="56.67851" lon="-5.83886">
        <ele>59.01</ele>
        <time>2021-03-20T16:32:59Z</time>
      </trkpt>
      <trkpt lat="56.6784" lon="-5.83816">
        <ele>53.56</ele>
        <time>2021-03-20T16:33:01Z</time>
      </trkpt>
      <trkpt lat="56.67838" lon="-5.83782">
        <ele>52.23</ele>
        <time>2021-03-20T16:33:03Z</time>
      </trkpt>
      <trkpt lat="56.67863" lon="-5.8357">
        <ele>50.26</ele>
        <time>2021-03-20T16:33:06Z</time>
      </trkpt>
      <trkpt lat="56.67879" lon="-5.83512">
        <ele>49.57</ele>
        <time>2021-03-20T16:33:08Z</time>
      </trkpt>
      <trkpt lat="56.6791" lon="-5.83471">
        <ele>49.25</ele>
        <time>2021-03-20T16:33:10Z</time>
      </trkpt>
      <trkpt lat="56.67948" lon="-5.83409">
        <ele>50.3</ele>
        <time>2021-03-20T16:33:12Z</time>
      </trkpt>
      <trkpt lat="56.67953" lon="-5.83374">
        <ele>47.58</ele>
        <time>2021-03-20T16:33:15Z</time>
      </trkpt>
      <trkpt lat="56.67951" lon="-5.83307">
        <ele>39.15</ele>
        <time>2021-03-20T16:33:17Z</time>
      </trkpt>
      <trkpt lat="56.67957" lon="-5.8328">
        <ele>37.99</ele>
        <time>2021-03-20T16:33:19Z</time>
      </trkpt>
      <trkpt lat="56.6798" lon="-5.83242">
        <ele>41.31</ele>
        <time>2021-03-20T16:33:21Z</time>
      </trkpt>
      <trkpt lat="56.68029" lon="-5.83169">
        <ele>39.8</ele>
        <time>2021-03-20T16:33:24Z</time>
      </trkpt>
      <trkpt lat="56.68049" lon="-5.83128">
        <ele>37.15</ele>
        <time>2021-03-20T16:33:26Z</time>
      </trkpt>
      <trkpt lat="56.68058" lon="-5.8306">
        <ele>29.29</ele>
        <time>2021-03-20T16:33:28Z</time>
      </trkpt>
      <trkpt lat="56.6806" lon="-5.83027">
        <ele>28.13</ele>
        <time>2021-03-20T16:33:30Z</time>
      </trkpt>
      <trkpt lat="56.68057" lon="-5.82946">
        <ele>22.41</ele>
        <time>2021-03-20T16:33:33Z</time>
      </trkpt>
      <trkpt lat="56.68076" lon="-5.82845">
        <ele>22.13</ele>
        <time>2021-03-20T16:33:35Z</time>
      </trkpt>
      <trkpt lat="56.6809" lon="-5.82822">
        <ele>22.3</ele>
        <time>2021-03-20T16:33:37Z</time>
      </trkpt>
      <trkpt lat="56.68104" lon="-5.82807">
        <ele>23.14</ele>
        <time>2021-03-20T16:33:39Z</time>
      </trkpt>
      <trkpt lat="56.68146" lon="-5.82812">
        <ele>27.39</ele>
        <time>2021-03-20T16:33:42Z</time>
      </trkpt>
      <trkpt lat="56.68169" lon="-5.82802">
        <ele>26.56</ele>
        <time>2021-03-20T16:33:44Z</time>
      </trkpt>
      <trkpt lat="56.68233" lon="-5.82795">
        <ele>26.84</ele>
        <time>2021-03-20T16:33:46Z</time>
      </trkpt>
      <trkpt lat="56.68246" lon="-5.82798">
        <ele>26.4</ele>
        <time>2021-03-20T16:33:48Z</time>
      </trkpt>
      <trkpt lat="56.68264" lon="-5.82784">
        <ele>26.4</ele>
        <time>2021-03-20T16:33:51Z</time>
      </trkpt>
      <trkpt lat="56.68274" lon="-5.82768">
        <ele>27.06</ele>
        <time>2021-03-20T16:33:53Z</time>
      </trkpt>
      <trkpt lat="56.68292" lon="-5.82692">
        <ele>25.83</ele>
        <time>2021-03-20T16:33:55Z</time>
      </trkpt>
      <trkpt lat="56.68304" lon="-5.82612">
        <ele>19.79</ele>
        <time>2021-03-20T16:33:57Z</time>
      </trkpt>
      <trkpt lat="56.68315" lon="-5.82572">
        <ele>22.06</ele>
        <time>2021-03-20T16:34:00Z</time>
      </trkpt>
      <trkpt lat="56.68349" lon="-5.82473">
        <ele>22.96</ele>
        <time>2021-03-20T16:34:02Z</time>
      </trkpt>
      <trkpt lat="56.68376" lon="-5.82429">
        <ele>23</ele>
        <time>2021-03-20T16:34:04Z</time>
      </trkpt>
      <trkpt lat="56.68393" lon="-5.82395">
        <ele>21.67</ele>
        <time>2021-03-20T16:34:06Z</time>
      </trkpt>
      <trkpt lat="56.68398" lon="-5.82376">
        <ele>20.63</ele>
        <time>2021-03-20T16:34:09Z</time>
      </trkpt>
      <trkpt lat="56.684" lon="-5.82353">
        <ele>19.01</ele>
        <time>2021-03-20T16:34:11Z</time>
      </trkpt>
      <trkpt lat="56.68397" lon="-5.82306">
        <ele>14.35</ele>
        <time>2021-03-20T16:34:13Z</time>
      </trkpt>
      <trkpt lat="56.684" lon="-5.8226">
        <ele>12.76</ele>
        <time>2021-03-20T16:34:15Z</time>
      </trkpt>
      <trkpt lat="56.68416" lon="-5.82197">
        <ele>12.89</ele>
        <time>2021-03-20T16:34:18Z</time>
      </trkpt>
      <trkpt lat="56.68439" lon="-5.82141">
        <ele>15.02</ele>
        <time>2021-03-20T16:34:20Z</time>
      </trkpt>
      <trkpt lat="56.6845" lon="-5.82106">
        <ele>13.6</ele>
        <time>2021-03-20T16:34:22Z</time>
      </trkpt>
      <trkpt lat="56.68455" lon="-5.82067">
        <ele>12.29</ele>
        <time>2021-03-20T16:34:24Z</time>
      </trkpt>
      <trkpt lat="56.68454" lon="-5.82041">
        <ele>10.85</ele>
        <time>2021-03-20T16:34:27Z</time>
      </trkpt>
      <trkpt lat="56.68451" lon="-5.82015">
        <ele>9.02</ele>
        <time>2021-03-20T16:34:29Z</time>
      </trkpt>
      <trkpt lat="56.68446" lon="-5.81998">
        <ele>7.26</ele>
        <time>2021-03-20T16:34:31Z</time>
      </trkpt>
      <trkpt lat="56.68412" lon="-5.81928">
        <ele>6.2</ele>
        <time>2021-03-20T16:34:33Z</time>
      </trkpt>
      <trkpt lat="56.68405" lon="-5.819">
        <ele>5.22</ele>
        <time>2021-03-20T16:34:36Z</time>
      </trkpt>
      <trkpt lat="56.68409" lon="-5.81877">
        <ele>5.93</ele>
        <time>2021-03-20T16:34:38Z</time>
      </trkpt>
      <trkpt lat="56.6842" lon="-5.81856">
        <ele>7.22</ele>
        <time>2021-03-20T16:34:40Z</time>
      </trkpt>
      <trkpt lat="56.68433" lon="-5.81844">
        <ele>8.2</ele>
        <time>2021-03-20T16:34:42Z</time>
      </trkpt>
      <trkpt lat="56.68507" lon="-5.81809">
        <ele>12.09</ele>
        <time>2021-03-20T16:34:45Z</time>
      </trkpt>
      <trkpt lat="56.68524" lon="-5.81794">
        <ele>12.34</ele>
        <time>2021-03-20T16:34:47Z</time>
      </trkpt>
      <trkpt lat="56.68535" lon="-5.81778">
        <ele>12.68</ele>
        <time>2021-03-20T16:34:49Z</time>
      </trkpt>
      <trkpt lat="56.68541" lon="-5.81747">
        <ele>12.69</ele>
        <time>2021-03-20T16:34:51Z</time>
      </trkpt>
      <trkpt lat="56.68539" lon="-5.81696">
        <ele>11</ele>
        <time>2021-03-20T16:34:54Z</time>
      </trkpt>
      <trkpt lat="56.68542" lon="-5.81681">
        <ele>11.29</ele>
        <time>2021-03-20T16:34:56Z</time>
      </trkpt>
      <trkpt lat="56.68555" lon="-5.81655">
        <ele>12.46</ele>
        <time>2021-03-20T16:34:58Z</time>
      </trkpt>
      <trkpt lat="56.68563" lon="-5.81632">
        <ele>13.9</ele>
        <time>2021-03-20T16:35:00Z</time>
      </trkpt>
      <trkpt lat="56.68569" lon="-5.81608">
        <ele>14.14</ele>
        <time>2021-03-20T16:35:03Z</time>
      </trkpt>
      <trkpt lat="56.68581" lon="-5.81581">
        <ele>15.32</ele>
        <time>2021-03-20T16:35:05Z</time>
      </trkpt>
      <trkpt lat="56.68589" lon="-5.81552">
        <ele>15.4</ele>
        <time>2021-03-20T16:35:07Z</time>
      </trkpt>
      <trkpt lat="56.6861" lon="-5.815">
        <ele>18.78</ele>
        <time>2021-03-20T16:35:09Z</time>
      </trkpt>
      <trkpt lat="56.68646" lon="-5.81455">
        <ele>24.35</ele>
        <time>2021-03-20T16:35:12Z</time>
      </trkpt>
      <trkpt lat="56.68654" lon="-5.81431">
        <ele>24.69</ele>
        <time>2021-03-20T16:35:14Z</time>
      </trkpt>
      <trkpt lat="56.68659" lon="-5.8139">
        <ele>24.06</ele>
        <time>2021-03-20T16:35:16Z</time>
      </trkpt>
      <trkpt lat="56.6867" lon="-5.81363">
        <ele>25.97</ele>
        <time>2021-03-20T16:35:18Z</time>
      </trkpt>
      <trkpt lat="56.68673" lon="-5.81333">
        <ele>24.55</ele>
        <time>2021-03-20T16:35:21Z</time>
      </trkpt>
      <trkpt lat="56.68671" lon="-5.81305">
        <ele>23.06</ele>
        <time>2021-03-20T16:35:23Z</time>
      </trkpt>
      <trkpt lat="56.68661" lon="-5.81259">
        <ele>19.22</ele>
        <time>2021-03-20T16:35:25Z</time>
      </trkpt>
      <trkpt lat="56.68658" lon="-5.81236">
        <ele>18.13</ele>
        <time>2021-03-20T16:35:27Z</time>
      </trkpt>
      <trkpt lat="56.68667" lon="-5.81192">
        <ele>17.87</ele>
        <time>2021-03-20T16:35:30Z</time>
      </trkpt>
      <trkpt lat="56.68682" lon="-5.81165">
        <ele>19.49</ele>
        <time>2021-03-20T16:35:32Z</time>
      </trkpt>
      <trkpt lat="56.68705" lon="-5.81137">
        <ele>21.17</ele>
        <time>2021-03-20T16:35:34Z</time>
      </trkpt>
      <trkpt lat="56.68716" lon="-5.81117">
        <ele>21.17</ele>
        <time>2021-03-20T16:35:36Z</time>
      </trkpt>
      <trkpt lat="56.68727" lon="-5.81073">
        <ele>20.08</ele>
        <time>2021-03-20T16:35:39Z</time>
      </trkpt>
      <trkpt lat="56.68738" lon="-5.81008">
        <ele>14.88</ele>
        <time>2021-03-20T16:35:41Z</time>
      </trkpt>
      <trkpt lat="56.68746" lon="-5.80988">
        <ele>14.11</ele>
        <time>2021-03-20T16:35:43Z</time>
      </trkpt>
      <trkpt lat="56.68756" lon="-5.80971">
        <ele>14.35</ele>
        <time>2021-03-20T16:35:45Z</time>
      </trkpt>
      <trkpt lat="56.68766" lon="-5.80959">
        <ele>14.89</ele>
        <time>2021-03-20T16:35:48Z</time>
      </trkpt>
      <trkpt lat="56.6897" lon="-5.80837">
        <ele>22.32</ele>
        <time>2021-03-20T16:35:50Z</time>
      </trkpt>
      <trkpt lat="56.68993" lon="-5.8082">
        <ele>20.27</ele>
        <time>2021-03-20T16:35:52Z</time>
      </trkpt>
      <trkpt lat="56.68993" lon="-5.8082">
        <ele>20.27</ele>
        <time>2021-03-20T16:35:52Z</time>
      </trkpt>
      <trkpt lat="56.69017" lon="-5.80802">
        <ele>18.22</ele>
        <time>2021-03-20T16:35:55Z</time>
      </trkpt>
      <trkpt lat="56.69053" lon="-5.80744">
        <ele>11.1</ele>
        <time>2021-03-20T16:35:57Z</time>
      </trkpt>
      <trkpt lat="56.69068" lon="-5.80699">
        <ele>10.81</ele>
        <time>2021-03-20T16:35:59Z</time>
      </trkpt>
      <trkpt lat="56.69083" lon="-5.80662">
        <ele>11.64</ele>
        <time>2021-03-20T16:36:01Z</time>
      </trkpt>
      <trkpt lat="56.69111" lon="-5.80621">
        <ele>13.09</ele>
        <time>2021-03-20T16:36:03Z</time>
      </trkpt>
      <trkpt lat="56.69193" lon="-5.8053">
        <ele>15.06</ele>
        <time>2021-03-20T16:36:05Z</time>
      </trkpt>
      <trkpt lat="56.69242" lon="-5.8046">
        <ele>9.13</ele>
        <time>2021-03-20T16:36:08Z</time>
      </trkpt>
      <trkpt lat="56.69287" lon="-5.80391">
        <ele>12.07</ele>
        <time>2021-03-20T16:36:10Z</time>
      </trkpt>
      <trkpt lat="56.69353" lon="-5.80333">
        <ele>17.2</ele>
        <time>2021-03-20T16:36:12Z</time>
      </trkpt>
      <trkpt lat="56.69372" lon="-5.80293">
        <ele>15.81</ele>
        <time>2021-03-20T16:36:14Z</time>
      </trkpt>
      <trkpt lat="56.69401" lon="-5.802">
        <ele>15.98</ele>
        <time>2021-03-20T16:36:16Z</time>
      </trkpt>
      <trkpt lat="56.69415" lon="-5.80099">
        <ele>15.33</ele>
        <time>2021-03-20T16:36:18Z</time>
      </trkpt>
      <trkpt lat="56.69434" lon="-5.80058">
        <ele>13.78</ele>
        <time>2021-03-20T16:36:21Z</time>
      </trkpt>
      <trkpt lat="56.69465" lon="-5.80027">
        <ele>14.08</ele>
        <time>2021-03-20T16:36:23Z</time>
      </trkpt>
      <trkpt lat="56.69479" lon="-5.80003">
        <ele>12.72</ele>
        <time>2021-03-20T16:36:25Z</time>
      </trkpt>
      <trkpt lat="56.69493" lon="-5.79947">
        <ele>10.22</ele>
        <time>2021-03-20T16:36:27Z</time>
      </trkpt>
      <trkpt lat="56.69492" lon="-5.79897">
        <ele>5.93</ele>
        <time>2021-03-20T16:36:29Z</time>
      </trkpt>
      <trkpt lat="56.69504" lon="-5.79802">
        <ele>5.35</ele>
        <time>2021-03-20T16:36:31Z</time>
      </trkpt>
      <trkpt lat="56.69536" lon="-5.79753">
        <ele>7.25</ele>
        <time>2021-03-20T16:36:33Z</time>
      </trkpt>
      <trkpt lat="56.69551" lon="-5.79717">
        <ele>7.51</ele>
        <time>2021-03-20T16:36:36Z</time>
      </trkpt>
      <trkpt lat="56.69579" lon="-5.7968">
        <ele>8.08</ele>
        <time>2021-03-20T16:36:38Z</time>
      </trkpt>
      <trkpt lat="56.69596" lon="-5.7964">
        <ele>9.22</ele>
        <time>2021-03-20T16:36:40Z</time>
      </trkpt>
      <trkpt lat="56.69596" lon="-5.79528">
        <ele>8.68</ele>
        <time>2021-03-20T16:36:42Z</time>
      </trkpt>
      <trkpt lat="56.69605" lon="-5.79485">
        <ele>11.4</ele>
        <time>2021-03-20T16:36:44Z</time>
      </trkpt>
      <trkpt lat="56.69627" lon="-5.7943">
        <ele>12.04</ele>
        <time>2021-03-20T16:36:46Z</time>
      </trkpt>
      <trkpt lat="56.69648" lon="-5.79416">
        <ele>13.23</ele>
        <time>2021-03-20T16:36:49Z</time>
      </trkpt>
      <trkpt lat="56.69662" lon="-5.79416">
        <ele>13.81</ele>
        <time>2021-03-20T16:36:51Z</time>
      </trkpt>
      <trkpt lat="56.69675" lon="-5.79412">
        <ele>14.04</ele>
        <time>2021-03-20T16:36:53Z</time>
      </trkpt>
      <trkpt lat="56.69691" lon="-5.79402">
        <ele>13.72</ele>
        <time>2021-03-20T16:36:55Z</time>
      </trkpt>
      <trkpt lat="56.69707" lon="-5.79364">
        <ele>11.62</ele>
        <time>2021-03-20T16:36:57Z</time>
      </trkpt>
      <trkpt lat="56.69722" lon="-5.79343">
        <ele>10.06</ele>
        <time>2021-03-20T16:36:59Z</time>
      </trkpt>
      <trkpt lat="56.69743" lon="-5.79329">
        <ele>9.38</ele>
        <time>2021-03-20T16:37:02Z</time>
      </trkpt>
      <trkpt lat="56.69792" lon="-5.79276">
        <ele>9.49</ele>
        <time>2021-03-20T16:37:04Z</time>
      </trkpt>
      <trkpt lat="56.69844" lon="-5.7925">
        <ele>15.78</ele>
        <time>2021-03-20T16:37:06Z</time>
      </trkpt>
      <trkpt lat="56.69876" lon="-5.79226">
        <ele>15.43</ele>
        <time>2021-03-20T16:37:08Z</time>
      </trkpt>
      <trkpt lat="56.69908" lon="-5.79197">
        <ele>15.15</ele>
        <time>2021-03-20T16:37:10Z</time>
      </trkpt>
      <trkpt lat="56.69929" lon="-5.79163">
        <ele>12.56</ele>
        <time>2021-03-20T16:37:12Z</time>
      </trkpt>
      <trkpt lat="56.69944" lon="-5.79127">
        <ele>11.1</ele>
        <time>2021-03-20T16:37:15Z</time>
      </trkpt>
      <trkpt lat="56.69969" lon="-5.79108">
        <ele>12.32</ele>
        <time>2021-03-20T16:37:17Z</time>
      </trkpt>
      <trkpt lat="56.69995" lon="-5.79106">
        <ele>13.31</ele>
        <time>2021-03-20T16:37:19Z</time>
      </trkpt>
      <trkpt lat="56.70022" lon="-5.79098">
        <ele>12.93</ele>
        <time>2021-03-20T16:37:21Z</time>
      </trkpt>
      <trkpt lat="56.70059" lon="-5.791">
        <ele>15.66</ele>
        <time>2021-03-20T16:37:23Z</time>
      </trkpt>
      <trkpt lat="56.70087" lon="-5.79106">
        <ele>15.65</ele>
        <time>2021-03-20T16:37:25Z</time>
      </trkpt>
      <trkpt lat="56.70117" lon="-5.79104">
        <ele>13.7</ele>
        <time>2021-03-20T16:37:28Z</time>
      </trkpt>
      <trkpt lat="56.70147" lon="-5.79082">
        <ele>14.88</ele>
        <time>2021-03-20T16:37:30Z</time>
      </trkpt>
      <trkpt lat="56.70276" lon="-5.78966">
        <ele>17.71</ele>
        <time>2021-03-20T16:37:32Z</time>
      </trkpt>
      <trkpt lat="56.70339" lon="-5.789">
        <ele>16.66</ele>
        <time>2021-03-20T16:37:34Z</time>
      </trkpt>
      <trkpt lat="56.70361" lon="-5.78851">
        <ele>14.87</ele>
        <time>2021-03-20T16:37:36Z</time>
      </trkpt>
      <trkpt lat="56.70402" lon="-5.78703">
        <ele>12.31</ele>
        <time>2021-03-20T16:37:38Z</time>
      </trkpt>
      <trkpt lat="56.70411" lon="-5.78662">
        <ele>9.22</ele>
        <time>2021-03-20T16:37:41Z</time>
      </trkpt>
      <trkpt lat="56.70412" lon="-5.78613">
        <ele>5.65</ele>
        <time>2021-03-20T16:37:43Z</time>
      </trkpt>
      <trkpt lat="56.70419" lon="-5.78585">
        <ele>6.16</ele>
        <time>2021-03-20T16:37:45Z</time>
      </trkpt>
      <trkpt lat="56.70429" lon="-5.78572">
        <ele>6.25</ele>
        <time>2021-03-20T16:37:47Z</time>
      </trkpt>
      <trkpt lat="56.70438" lon="-5.78568">
        <ele>6.6</ele>
        <time>2021-03-20T16:37:49Z</time>
      </trkpt>
      <trkpt lat="56.70511" lon="-5.78577">
        <ele>17.45</ele>
        <time>2021-03-20T16:37:51Z</time>
      </trkpt>
      <trkpt lat="56.70535" lon="-5.78578">
        <ele>18.51</ele>
        <time>2021-03-20T16:37:54Z</time>
      </trkpt>
      <trkpt lat="56.70551" lon="-5.78573">
        <ele>18.82</ele>
        <time>2021-03-20T16:37:56Z</time>
      </trkpt>
      <trkpt lat="56.70567" lon="-5.78545">
        <ele>14.62</ele>
        <time>2021-03-20T16:37:58Z</time>
      </trkpt>
      <trkpt lat="56.7058" lon="-5.7851">
        <ele>10.32</ele>
        <time>2021-03-20T16:38:00Z</time>
      </trkpt>
      <trkpt lat="56.70615" lon="-5.78453">
        <ele>9.58</ele>
        <time>2021-03-20T16:38:02Z</time>
      </trkpt>
      <trkpt lat="56.70629" lon="-5.78413">
        <ele>9.24</ele>
        <time>2021-03-20T16:38:04Z</time>
      </trkpt>
      <trkpt lat="56.70632" lon="-5.78375">
        <ele>7.93</ele>
        <time>2021-03-20T16:38:06Z</time>
      </trkpt>
      <trkpt lat="56.70631" lon="-5.78346">
        <ele>7.07</ele>
        <time>2021-03-20T16:38:09Z</time>
      </trkpt>
      <trkpt lat="56.70625" lon="-5.78281">
        <ele>6.82</ele>
        <time>2021-03-20T16:38:11Z</time>
      </trkpt>
      <trkpt lat="56.70627" lon="-5.78255">
        <ele>7.32</ele>
        <time>2021-03-20T16:38:13Z</time>
      </trkpt>
      <trkpt lat="56.70636" lon="-5.78239">
        <ele>8.26</ele>
        <time>2021-03-20T16:38:15Z</time>
      </trkpt>
      <trkpt lat="56.70647" lon="-5.78233">
        <ele>8.35</ele>
        <time>2021-03-20T16:38:17Z</time>
      </trkpt>
      <trkpt lat="56.70682" lon="-5.78245">
        <ele>10.62</ele>
        <time>2021-03-20T16:38:19Z</time>
      </trkpt>
      <trkpt lat="56.70697" lon="-5.78241">
        <ele>11.28</ele>
        <time>2021-03-20T16:38:22Z</time>
      </trkpt>
      <trkpt lat="56.70738" lon="-5.78217">
        <ele>13.56</ele>
        <time>2021-03-20T16:38:24Z</time>
      </trkpt>
      <trkpt lat="56.70752" lon="-5.78206">
        <ele>14.74</ele>
        <time>2021-03-20T16:38:26Z</time>
      </trkpt>
      <trkpt lat="56.70773" lon="-5.78183">
        <ele>16.85</ele>
        <time>2021-03-20T16:38:28Z</time>
      </trkpt>
      <trkpt lat="56.70807" lon="-5.78161">
        <ele>17.64</ele>
        <time>2021-03-20T16:38:30Z</time>
      </trkpt>
      <trkpt lat="56.70832" lon="-5.78138">
        <ele>14.9</ele>
        <time>2021-03-20T16:38:32Z</time>
      </trkpt>
      <trkpt lat="56.70854" lon="-5.7811">
        <ele>11.69</ele>
        <time>2021-03-20T16:38:35Z</time>
      </trkpt>
      <trkpt lat="56.70866" lon="-5.78086">
        <ele>11.72</ele>
        <time>2021-03-20T16:38:37Z</time>
      </trkpt>
      <trkpt lat="56.70873" lon="-5.78066">
        <ele>12.11</ele>
        <time>2021-03-20T16:38:39Z</time>
      </trkpt>
      <trkpt lat="56.70889" lon="-5.77998">
        <ele>13.88</ele>
        <time>2021-03-20T16:38:41Z</time>
      </trkpt>
      <trkpt lat="56.709" lon="-5.77978">
        <ele>13.67</ele>
        <time>2021-03-20T16:38:43Z</time>
      </trkpt>
      <trkpt lat="56.70912" lon="-5.77968">
        <ele>13.49</ele>
        <time>2021-03-20T16:38:45Z</time>
      </trkpt>
      <trkpt lat="56.70949" lon="-5.77948">
        <ele>11.54</ele>
        <time>2021-03-20T16:38:48Z</time>
      </trkpt>
      <trkpt lat="56.70977" lon="-5.77948">
        <ele>12.24</ele>
        <time>2021-03-20T16:38:50Z</time>
      </trkpt>
      <trkpt lat="56.70999" lon="-5.77942">
        <ele>11.85</ele>
        <time>2021-03-20T16:38:52Z</time>
      </trkpt>
      <trkpt lat="56.7102" lon="-5.77933">
        <ele>10.77</ele>
        <time>2021-03-20T16:38:54Z</time>
      </trkpt>
      <trkpt lat="56.71031" lon="-5.77932">
        <ele>10.34</ele>
        <time>2021-03-20T16:38:56Z</time>
      </trkpt>
      <trkpt lat="56.7108" lon="-5.77949">
        <ele>7.65</ele>
        <time>2021-03-20T16:38:58Z</time>
      </trkpt>
      <trkpt lat="56.71104" lon="-5.77963">
        <ele>8.99</ele>
        <time>2021-03-20T16:39:01Z</time>
      </trkpt>
      <trkpt lat="56.71147" lon="-5.77981">
        <ele>10.63</ele>
        <time>2021-03-20T16:39:03Z</time>
      </trkpt>
      <trkpt lat="56.71164" lon="-5.77987">
        <ele>11.06</ele>
        <time>2021-03-20T16:39:05Z</time>
      </trkpt>
      <trkpt lat="56.71197" lon="-5.77988">
        <ele>11.06</ele>
        <time>2021-03-20T16:39:07Z</time>
      </trkpt>
      <trkpt lat="56.71251" lon="-5.7798">
        <ele>9.54</ele>
        <time>2021-03-20T16:39:09Z</time>
      </trkpt>
      <trkpt lat="56.71435" lon="-5.7796">
        <ele>5.55</ele>
        <time>2021-03-20T16:39:11Z</time>
      </trkpt>
      <trkpt lat="56.71445" lon="-5.77962">
        <ele>5.64</ele>
        <time>2021-03-20T16:39:14Z</time>
      </trkpt>
      <trkpt lat="56.71491" lon="-5.78003">
        <ele>8.49</ele>
        <time>2021-03-20T16:39:16Z</time>
      </trkpt>
      <trkpt lat="56.71506" lon="-5.78007">
        <ele>9.71</ele>
        <time>2021-03-20T16:39:18Z</time>
      </trkpt>
      <trkpt lat="56.71516" lon="-5.78003">
        <ele>10.3</ele>
        <time>2021-03-20T16:39:20Z</time>
      </trkpt>
      <trkpt lat="56.71526" lon="-5.77994">
        <ele>10.39</ele>
        <time>2021-03-20T16:39:22Z</time>
      </trkpt>
      <trkpt lat="56.71553" lon="-5.7795">
        <ele>7.54</ele>
        <time>2021-03-20T16:39:24Z</time>
      </trkpt>
      <trkpt lat="56.71568" lon="-5.77932">
        <ele>7.85</ele>
        <time>2021-03-20T16:39:27Z</time>
      </trkpt>
      <trkpt lat="56.71584" lon="-5.77897">
        <ele>8.45</ele>
        <time>2021-03-20T16:39:29Z</time>
      </trkpt>
      <trkpt lat="56.71596" lon="-5.77881">
        <ele>9.46</ele>
        <time>2021-03-20T16:39:31Z</time>
      </trkpt>
      <trkpt lat="56.71706" lon="-5.77815">
        <ele>9.35</ele>
        <time>2021-03-20T16:39:33Z</time>
      </trkpt>
      <trkpt lat="56.71712" lon="-5.77808">
        <ele>9.08</ele>
        <time>2021-03-20T16:39:35Z</time>
      </trkpt>
      <trkpt lat="56.71717" lon="-5.77798">
        <ele>8.67</ele>
        <time>2021-03-20T16:39:37Z</time>
      </trkpt>
      <trkpt lat="56.71721" lon="-5.77781">
        <ele>8.08</ele>
        <time>2021-03-20T16:39:39Z</time>
      </trkpt>
      <trkpt lat="56.71718" lon="-5.77731">
        <ele>9.3</ele>
        <time>2021-03-20T16:39:42Z</time>
      </trkpt>
      <trkpt lat="56.71712" lon="-5.77703">
        <ele>9.84</ele>
        <time>2021-03-20T16:39:44Z</time>
      </trkpt>
      <trkpt lat="56.71687" lon="-5.77647">
        <ele>12.36</ele>
        <time>2021-03-20T16:39:46Z</time>
      </trkpt>
      <trkpt lat="56.7168" lon="-5.7761">
        <ele>16.03</ele>
        <time>2021-03-20T16:39:48Z</time>
      </trkpt>
      <trkpt lat="56.71684" lon="-5.77569">
        <ele>25.21</ele>
        <time>2021-03-20T16:39:50Z</time>
      </trkpt>
      <trkpt lat="56.71745" lon="-5.77611">
        <ele>23.28</ele>
        <time>2021-03-20T16:39:53Z</time>
      </trkpt>
      <trkpt lat="56.7179" lon="-5.77634">
        <ele>29.49</ele>
        <time>2021-03-20T16:39:57Z</time>
      </trkpt>
      <trkpt lat="56.71822" lon="-5.77647">
        <ele>32.58</ele>
        <time>2021-03-20T16:40:00Z</time>
      </trkpt>
      <trkpt lat="56.7184" lon="-5.77652">
        <ele>33.1</ele>
        <time>2021-03-20T16:40:03Z</time>
      </trkpt>
      <trkpt lat="56.71869" lon="-5.77652">
        <ele>33.14</ele>
        <time>2021-03-20T16:40:06Z</time>
      </trkpt>
      <trkpt lat="56.71891" lon="-5.77648">
        <ele>33.46</ele>
        <time>2021-03-20T16:40:09Z</time>
      </trkpt>
      <trkpt lat="56.71922" lon="-5.77632">
        <ele>33.18</ele>
        <time>2021-03-20T16:40:12Z</time>
      </trkpt>
      <trkpt lat="56.71959" lon="-5.77605">
        <ele>35.44</ele>
        <time>2021-03-20T16:40:15Z</time>
      </trkpt>
      <trkpt lat="56.72028" lon="-5.77546">
        <ele>42.35</ele>
        <time>2021-03-20T16:40:18Z</time>
      </trkpt>
      <trkpt lat="56.72066" lon="-5.77523">
        <ele>41.26</ele>
        <time>2021-03-20T16:40:22Z</time>
      </trkpt>
      <trkpt lat="56.72094" lon="-5.77512">
        <ele>39.59</ele>
        <time>2021-03-20T16:40:25Z</time>
      </trkpt>
      <trkpt lat="56.72112" lon="-5.7751">
        <ele>39.62</ele>
        <time>2021-03-20T16:40:28Z</time>
      </trkpt>
      <trkpt lat="56.72127" lon="-5.77516">
        <ele>40.21</ele>
        <time>2021-03-20T16:40:31Z</time>
      </trkpt>
      <trkpt lat="56.72201" lon="-5.7756">
        <ele>41.19</ele>
        <time>2021-03-20T16:40:34Z</time>
      </trkpt>
      <trkpt lat="56.72274" lon="-5.77572">
        <ele>49.15</ele>
        <time>2021-03-20T16:40:37Z</time>
      </trkpt>
      <trkpt lat="56.72353" lon="-5.77604">
        <ele>53</ele>
        <time>2021-03-20T16:40:40Z</time>
      </trkpt>
      <trkpt lat="56.72379" lon="-5.77626">
        <ele>54.82</ele>
        <time>2021-03-20T16:40:43Z</time>
      </trkpt>
      <trkpt lat="56.72423" lon="-5.77675">
        <ele>62.14</ele>
        <time>2021-03-20T16:40:47Z</time>
      </trkpt>
      <trkpt lat="56.72478" lon="-5.77668">
        <ele>66.31</ele>
        <time>2021-03-20T16:40:50Z</time>
      </trkpt>
      <trkpt lat="56.72547" lon="-5.77685">
        <ele>74.01</ele>
        <time>2021-03-20T16:40:53Z</time>
      </trkpt>
      <trkpt lat="56.72633" lon="-5.77681">
        <ele>73.28</ele>
        <time>2021-03-20T16:40:56Z</time>
      </trkpt>
      <trkpt lat="56.72712" lon="-5.77704">
        <ele>78.42</ele>
        <time>2021-03-20T16:40:59Z</time>
      </trkpt>
      <trkpt lat="56.72803" lon="-5.77715">
        <ele>74.4</ele>
        <time>2021-03-20T16:41:02Z</time>
      </trkpt>
      <trkpt lat="56.72993" lon="-5.77753">
        <ele>68.94</ele>
        <time>2021-03-20T16:41:05Z</time>
      </trkpt>
      <trkpt lat="56.73056" lon="-5.77756">
        <ele>67.83</ele>
        <time>2021-03-20T16:41:08Z</time>
      </trkpt>
      <trkpt lat="56.73125" lon="-5.77742">
        <ele>66.54</ele>
        <time>2021-03-20T16:41:12Z</time>
      </trkpt>
      <trkpt lat="56.73303" lon="-5.77719">
        <ele>67.11</ele>
        <time>2021-03-20T16:41:15Z</time>
      </trkpt>
      <trkpt lat="56.73365" lon="-5.7772">
        <ele>66.7</ele>
        <time>2021-03-20T16:41:18Z</time>
      </trkpt>
      <trkpt lat="56.73418" lon="-5.77711">
        <ele>63.16</ele>
        <time>2021-03-20T16:41:21Z</time>
      </trkpt>
      <trkpt lat="56.73524" lon="-5.77701">
        <ele>60.44</ele>
        <time>2021-03-20T16:41:24Z</time>
      </trkpt>
      <trkpt lat="56.73616" lon="-5.77703">
        <ele>57.46</ele>
        <time>2021-03-20T16:41:27Z</time>
      </trkpt>
      <trkpt lat="56.73677" lon="-5.77716">
        <ele>52.59</ele>
        <time>2021-03-20T16:41:30Z</time>
      </trkpt>
      <trkpt lat="56.73727" lon="-5.77733">
        <ele>48.11</ele>
        <time>2021-03-20T16:41:33Z</time>
      </trkpt>
      <trkpt lat="56.73772" lon="-5.77751">
        <ele>46.37</ele>
        <time>2021-03-20T16:41:36Z</time>
      </trkpt>
      <trkpt lat="56.73803" lon="-5.77755">
        <ele>44.76</ele>
        <time>2021-03-20T16:41:40Z</time>
      </trkpt>
      <trkpt lat="56.73877" lon="-5.7778">
        <ele>42.67</ele>
        <time>2021-03-20T16:41:43Z</time>
      </trkpt>
      <trkpt lat="56.73936" lon="-5.77779">
        <ele>37.96</ele>
        <time>2021-03-20T16:41:46Z</time>
      </trkpt>
      <trkpt lat="56.73956" lon="-5.77788">
        <ele>36.58</ele>
        <time>2021-03-20T16:41:49Z</time>
      </trkpt>
      <trkpt lat="56.73988" lon="-5.77843">
        <ele>33.72</ele>
        <time>2021-03-20T16:41:52Z</time>
      </trkpt>
      <trkpt lat="56.74017" lon="-5.77932">
        <ele>29.56</ele>
        <time>2021-03-20T16:41:55Z</time>
      </trkpt>
      <trkpt lat="56.74021" lon="-5.77982">
        <ele>27.15</ele>
        <time>2021-03-20T16:41:58Z</time>
      </trkpt>
      <trkpt lat="56.7407" lon="-5.78266">
        <ele>14.41</ele>
        <time>2021-03-20T16:42:01Z</time>
      </trkpt>
      <trkpt lat="56.74081" lon="-5.78339">
        <ele>13.12</ele>
        <time>2021-03-20T16:42:05Z</time>
      </trkpt>
      <trkpt lat="56.7408" lon="-5.78385">
        <ele>11.51</ele>
        <time>2021-03-20T16:42:08Z</time>
      </trkpt>
      <trkpt lat="56.74073" lon="-5.7845">
        <ele>11.31</ele>
        <time>2021-03-20T16:42:11Z</time>
      </trkpt>
      <trkpt lat="56.74072" lon="-5.78515">
        <ele>12.04</ele>
        <time>2021-03-20T16:42:14Z</time>
      </trkpt>
      <trkpt lat="56.74078" lon="-5.7858">
        <ele>10.5</ele>
        <time>2021-03-20T16:42:17Z</time>
      </trkpt>
      <trkpt lat="56.74131" lon="-5.78779">
        <ele>9.26</ele>
        <time>2021-03-20T16:42:20Z</time>
      </trkpt>
      <trkpt lat="56.74138" lon="-5.78818">
        <ele>8.05</ele>
        <time>2021-03-20T16:42:23Z</time>
      </trkpt>
      <trkpt lat="56.7415" lon="-5.78862">
        <ele>6.6</ele>
        <time>2021-03-20T16:42:26Z</time>
      </trkpt>
      <trkpt lat="56.74175" lon="-5.78915">
        <ele>6.96</ele>
        <time>2021-03-20T16:42:30Z</time>
      </trkpt>
      <trkpt lat="56.7422" lon="-5.78984">
        <ele>9.41</ele>
        <time>2021-03-20T16:42:33Z</time>
      </trkpt>
      <trkpt lat="56.74227" lon="-5.79002">
        <ele>9.91</ele>
        <time>2021-03-20T16:42:36Z</time>
      </trkpt>
      <trkpt lat="56.74236" lon="-5.79085">
        <ele>10.49</ele>
        <time>2021-03-20T16:42:39Z</time>
      </trkpt>
      <trkpt lat="56.74239" lon="-5.79173">
        <ele>10.38</ele>
        <time>2021-03-20T16:42:42Z</time>
      </trkpt>
      <trkpt lat="56.74249" lon="-5.79223">
        <ele>10.05</ele>
        <time>2021-03-20T16:42:45Z</time>
      </trkpt>
      <trkpt lat="56.74294" lon="-5.79351">
        <ele>9</ele>
        <time>2021-03-20T16:42:48Z</time>
      </trkpt>
      <trkpt lat="56.74355" lon="-5.7954">
        <ele>8</ele>
        <time>2021-03-20T16:42:51Z</time>
      </trkpt>
      <trkpt lat="56.74433" lon="-5.79715">
        <ele>6.4</ele>
        <time>2021-03-20T16:42:55Z</time>
      </trkpt>
      <trkpt lat="56.74458" lon="-5.79764">
        <ele>6</ele>
        <time>2021-03-20T16:42:58Z</time>
      </trkpt>
      <trkpt lat="56.74561" lon="-5.79923">
        <ele>9</ele>
        <time>2021-03-20T16:43:01Z</time>
      </trkpt>
      <trkpt lat="56.74724" lon="-5.8012">
        <ele>8.52</ele>
        <time>2021-03-20T16:43:04Z</time>
      </trkpt>
      <trkpt lat="56.74824" lon="-5.8023">
        <ele>13.08</ele>
        <time>2021-03-20T16:43:07Z</time>
      </trkpt>
      <trkpt lat="56.74847" lon="-5.8026">
        <ele>15.1</ele>
        <time>2021-03-20T16:43:10Z</time>
      </trkpt>
      <trkpt lat="56.74867" lon="-5.80276">
        <ele>15.19</ele>
        <time>2021-03-20T16:43:13Z</time>
      </trkpt>
      <trkpt lat="56.74882" lon="-5.80282">
        <ele>14.04</ele>
        <time>2021-03-20T16:43:16Z</time>
      </trkpt>
      <trkpt lat="56.74977" lon="-5.8028">
        <ele>10.07</ele>
        <time>2021-03-20T16:43:20Z</time>
      </trkpt>
      <trkpt lat="56.75016" lon="-5.80281">
        <ele>10.13</ele>
        <time>2021-03-20T16:43:23Z</time>
      </trkpt>
      <trkpt lat="56.75085" lon="-5.80268">
        <ele>9.64</ele>
        <time>2021-03-20T16:43:26Z</time>
      </trkpt>
      <trkpt lat="56.75134" lon="-5.80254">
        <ele>10.94</ele>
        <time>2021-03-20T16:43:29Z</time>
      </trkpt>
      <trkpt lat="56.75181" lon="-5.80237">
        <ele>13.84</ele>
        <time>2021-03-20T16:43:32Z</time>
      </trkpt>
      <trkpt lat="56.75227" lon="-5.80214">
        <ele>16.52</ele>
        <time>2021-03-20T16:43:35Z</time>
      </trkpt>
      <trkpt lat="56.75255" lon="-5.80216">
        <ele>18.11</ele>
        <time>2021-03-20T16:43:38Z</time>
      </trkpt>
      <trkpt lat="56.7529" lon="-5.8021">
        <ele>14.2</ele>
        <time>2021-03-20T16:43:41Z</time>
      </trkpt>
      <trkpt lat="56.75318" lon="-5.80187">
        <ele>8.09</ele>
        <time>2021-03-20T16:43:44Z</time>
      </trkpt>
      <trkpt lat="56.75381" lon="-5.80125">
        <ele>6.71</ele>
        <time>2021-03-20T16:43:48Z</time>
      </trkpt>
      <trkpt lat="56.754" lon="-5.8012">
        <ele>7.65</ele>
        <time>2021-03-20T16:43:51Z</time>
      </trkpt>
      <trkpt lat="56.75413" lon="-5.80133">
        <ele>8.04</ele>
        <time>2021-03-20T16:43:54Z</time>
      </trkpt>
      <trkpt lat="56.75499" lon="-5.80282">
        <ele>9.58</ele>
        <time>2021-03-20T16:43:57Z</time>
      </trkpt>
      <trkpt lat="56.75582" lon="-5.80447">
        <ele>12.02</ele>
        <time>2021-03-20T16:44:00Z</time>
      </trkpt>
      <trkpt lat="56.75591" lon="-5.80458">
        <ele>13.83</ele>
        <time>2021-03-20T16:44:03Z</time>
      </trkpt>
      <trkpt lat="56.75723" lon="-5.80399">
        <ele>21.47</ele>
        <time>2021-03-20T16:44:06Z</time>
      </trkpt>
      <trkpt lat="56.75741" lon="-5.80387">
        <ele>22.8</ele>
        <time>2021-03-20T16:44:09Z</time>
      </trkpt>
      <trkpt lat="56.75784" lon="-5.80335">
        <ele>22.13</ele>
        <time>2021-03-20T16:44:13Z</time>
      </trkpt>
      <trkpt lat="56.75793" lon="-5.80319">
        <ele>22.41</ele>
        <time>2021-03-20T16:44:16Z</time>
      </trkpt>
      <trkpt lat="56.75802" lon="-5.80294">
        <ele>21.38</ele>
        <time>2021-03-20T16:44:19Z</time>
      </trkpt>
      <trkpt lat="56.75803" lon="-5.80252">
        <ele>19.79</ele>
        <time>2021-03-20T16:44:22Z</time>
      </trkpt>
      <trkpt lat="56.75797" lon="-5.80232">
        <ele>19.37</ele>
        <time>2021-03-20T16:44:25Z</time>
      </trkpt>
      <trkpt lat="56.75776" lon="-5.80199">
        <ele>17.83</ele>
        <time>2021-03-20T16:44:28Z</time>
      </trkpt>
      <trkpt lat="56.75769" lon="-5.80181">
        <ele>17.59</ele>
        <time>2021-03-20T16:44:31Z</time>
      </trkpt>
      <trkpt lat="56.75765" lon="-5.80158">
        <ele>17.67</ele>
        <time>2021-03-20T16:44:34Z</time>
      </trkpt>
      <trkpt lat="56.75767" lon="-5.80135">
        <ele>17.77</ele>
        <time>2021-03-20T16:44:38Z</time>
      </trkpt>
      <trkpt lat="56.75785" lon="-5.80048">
        <ele>20.08</ele>
        <time>2021-03-20T16:44:41Z</time>
      </trkpt>
      <trkpt lat="56.75788" lon="-5.8001">
        <ele>20.5</ele>
        <time>2021-03-20T16:44:44Z</time>
      </trkpt>
      <trkpt lat="56.75787" lon="-5.79983">
        <ele>20.39</ele>
        <time>2021-03-20T16:44:47Z</time>
      </trkpt>
      <trkpt lat="56.75781" lon="-5.79952">
        <ele>20.23</ele>
        <time>2021-03-20T16:44:50Z</time>
      </trkpt>
      <trkpt lat="56.75771" lon="-5.79913">
        <ele>20.64</ele>
        <time>2021-03-20T16:44:53Z</time>
      </trkpt>
      <trkpt lat="56.75763" lon="-5.79898">
        <ele>20.64</ele>
        <time>2021-03-20T16:44:56Z</time>
      </trkpt>
      <trkpt lat="56.75745" lon="-5.79872">
        <ele>19.63</ele>
        <time>2021-03-20T16:44:59Z</time>
      </trkpt>
      <trkpt lat="56.75732" lon="-5.79847">
        <ele>19.21</ele>
        <time>2021-03-20T16:45:03Z</time>
      </trkpt>
      <trkpt lat="56.75726" lon="-5.79827">
        <ele>19.32</ele>
        <time>2021-03-20T16:45:06Z</time>
      </trkpt>
      <trkpt lat="56.75687" lon="-5.7962">
        <ele>20.92</ele>
        <time>2021-03-20T16:45:09Z</time>
      </trkpt>
      <trkpt lat="56.75683" lon="-5.79591">
        <ele>20.76</ele>
        <time>2021-03-20T16:45:12Z</time>
      </trkpt>
      <trkpt lat="56.75683" lon="-5.79549">
        <ele>20.09</ele>
        <time>2021-03-20T16:45:15Z</time>
      </trkpt>
      <trkpt lat="56.75686" lon="-5.79513">
        <ele>18.89</ele>
        <time>2021-03-20T16:45:18Z</time>
      </trkpt>
      <trkpt lat="56.75695" lon="-5.79481">
        <ele>18.44</ele>
        <time>2021-03-20T16:45:21Z</time>
      </trkpt>
      <trkpt lat="56.75715" lon="-5.79441">
        <ele>19.93</ele>
        <time>2021-03-20T16:45:24Z</time>
      </trkpt>
      <trkpt lat="56.75723" lon="-5.79413">
        <ele>21.29</ele>
        <time>2021-03-20T16:45:28Z</time>
      </trkpt>
      <trkpt lat="56.75726" lon="-5.79313">
        <ele>22.78</ele>
        <time>2021-03-20T16:45:31Z</time>
      </trkpt>
      <trkpt lat="56.75722" lon="-5.79279">
        <ele>22.85</ele>
        <time>2021-03-20T16:45:34Z</time>
      </trkpt>
      <trkpt lat="56.75709" lon="-5.79252">
        <ele>21.07</ele>
        <time>2021-03-20T16:45:37Z</time>
      </trkpt>
      <trkpt lat="56.75706" lon="-5.79235">
        <ele>20.91</ele>
        <time>2021-03-20T16:45:40Z</time>
      </trkpt>
      <trkpt lat="56.75709" lon="-5.79218">
        <ele>21.43</ele>
        <time>2021-03-20T16:45:43Z</time>
      </trkpt>
      <trkpt lat="56.75727" lon="-5.79179">
        <ele>22.33</ele>
        <time>2021-03-20T16:45:46Z</time>
      </trkpt>
      <trkpt lat="56.75793" lon="-5.79114">
        <ele>26.46</ele>
        <time>2021-03-20T16:45:49Z</time>
      </trkpt>
      <trkpt lat="56.75818" lon="-5.79078">
        <ele>25.74</ele>
        <time>2021-03-20T16:45:52Z</time>
      </trkpt>
      <trkpt lat="56.75842" lon="-5.79061">
        <ele>26.36</ele>
        <time>2021-03-20T16:45:56Z</time>
      </trkpt>
      <trkpt lat="56.7586" lon="-5.79029">
        <ele>26.91</ele>
        <time>2021-03-20T16:45:59Z</time>
      </trkpt>
      <trkpt lat="56.75894" lon="-5.78889">
        <ele>24.68</ele>
        <time>2021-03-20T16:46:02Z</time>
      </trkpt>
      <trkpt lat="56.75933" lon="-5.78815">
        <ele>26.86</ele>
        <time>2021-03-20T16:46:05Z</time>
      </trkpt>
      <trkpt lat="56.75943" lon="-5.78767">
        <ele>24.1</ele>
        <time>2021-03-20T16:46:08Z</time>
      </trkpt>
      <trkpt lat="56.75945" lon="-5.78718">
        <ele>20.01</ele>
        <time>2021-03-20T16:46:11Z</time>
      </trkpt>
      <trkpt lat="56.75941" lon="-5.78653">
        <ele>20.18</ele>
        <time>2021-03-20T16:46:14Z</time>
      </trkpt>
      <trkpt lat="56.7592" lon="-5.78571">
        <ele>19.96</ele>
        <time>2021-03-20T16:46:17Z</time>
      </trkpt>
      <trkpt lat="56.75917" lon="-5.78542">
        <ele>20.09</ele>
        <time>2021-03-20T16:46:21Z</time>
      </trkpt>
      <trkpt lat="56.75917" lon="-5.78457">
        <ele>19.58</ele>
        <time>2021-03-20T16:46:24Z</time>
      </trkpt>
      <trkpt lat="56.75913" lon="-5.7843">
        <ele>19.11</ele>
        <time>2021-03-20T16:46:27Z</time>
      </trkpt>
      <trkpt lat="56.75906" lon="-5.7841">
        <ele>18.7</ele>
        <time>2021-03-20T16:46:30Z</time>
      </trkpt>
      <trkpt lat="56.7589" lon="-5.78384">
        <ele>16.31</ele>
        <time>2021-03-20T16:46:33Z</time>
      </trkpt>
      <trkpt lat="56.75885" lon="-5.78372">
        <ele>16.05</ele>
        <time>2021-03-20T16:46:36Z</time>
      </trkpt>
      <trkpt lat="56.7586" lon="-5.78269">
        <ele>19.73</ele>
        <time>2021-03-20T16:46:39Z</time>
      </trkpt>
      <trkpt lat="56.7584" lon="-5.78201">
        <ele>20.97</ele>
        <time>2021-03-20T16:46:42Z</time>
      </trkpt>
      <trkpt lat="56.75837" lon="-5.78175">
        <ele>21.47</ele>
        <time>2021-03-20T16:46:46Z</time>
      </trkpt>
      <trkpt lat="56.75838" lon="-5.7815">
        <ele>22.36</ele>
        <time>2021-03-20T16:46:49Z</time>
      </trkpt>
      <trkpt lat="56.75847" lon="-5.78085">
        <ele>26.3</ele>
        <time>2021-03-20T16:46:52Z</time>
      </trkpt>
      <trkpt lat="56.75846" lon="-5.77959">
        <ele>26.74</ele>
        <time>2021-03-20T16:46:55Z</time>
      </trkpt>
      <trkpt lat="56.75862" lon="-5.77815">
        <ele>31.16</ele>
        <time>2021-03-20T16:46:58Z</time>
      </trkpt>
      <trkpt lat="56.75861" lon="-5.77789">
        <ele>30.96</ele>
        <time>2021-03-20T16:47:01Z</time>
      </trkpt>
      <trkpt lat="56.75828" lon="-5.77688">
        <ele>26.2</ele>
        <time>2021-03-20T16:47:04Z</time>
      </trkpt>
      <trkpt lat="56.75802" lon="-5.77583">
        <ele>17.73</ele>
        <time>2021-03-20T16:47:07Z</time>
      </trkpt>
      <trkpt lat="56.75756" lon="-5.77283">
        <ele>11.23</ele>
        <time>2021-03-20T16:47:11Z</time>
      </trkpt>
      <trkpt lat="56.75746" lon="-5.77246">
        <ele>10.98</ele>
        <time>2021-03-20T16:47:14Z</time>
      </trkpt>
      <trkpt lat="56.75742" lon="-5.77215">
        <ele>11.42</ele>
        <time>2021-03-20T16:47:17Z</time>
      </trkpt>
      <trkpt lat="56.75742" lon="-5.77198">
        <ele>11.44</ele>
        <time>2021-03-20T16:47:20Z</time>
      </trkpt>
      <trkpt lat="56.75744" lon="-5.77186">
        <ele>11.58</ele>
        <time>2021-03-20T16:47:23Z</time>
      </trkpt>
      <trkpt lat="56.75753" lon="-5.77161">
        <ele>12.22</ele>
        <time>2021-03-20T16:47:26Z</time>
      </trkpt>
      <trkpt lat="56.75769" lon="-5.77142">
        <ele>13.35</ele>
        <time>2021-03-20T16:47:29Z</time>
      </trkpt>
      <trkpt lat="56.75835" lon="-5.77072">
        <ele>14.27</ele>
        <time>2021-03-20T16:47:32Z</time>
      </trkpt>
      <trkpt lat="56.75854" lon="-5.77046">
        <ele>14.41</ele>
        <time>2021-03-20T16:47:36Z</time>
      </trkpt>
      <trkpt lat="56.75867" lon="-5.77017">
        <ele>15.02</ele>
        <time>2021-03-20T16:47:39Z</time>
      </trkpt>
      <trkpt lat="56.75876" lon="-5.76968">
        <ele>13.88</ele>
        <time>2021-03-20T16:47:42Z</time>
      </trkpt>
      <trkpt lat="56.75898" lon="-5.76897">
        <ele>11.62</ele>
        <time>2021-03-20T16:47:45Z</time>
      </trkpt>
      <trkpt lat="56.759" lon="-5.76873">
        <ele>11.62</ele>
        <time>2021-03-20T16:47:48Z</time>
      </trkpt>
      <trkpt lat="56.75896" lon="-5.76852">
        <ele>11.83</ele>
        <time>2021-03-20T16:47:51Z</time>
      </trkpt>
      <trkpt lat="56.75857" lon="-5.76754">
        <ele>10.69</ele>
        <time>2021-03-20T16:47:54Z</time>
      </trkpt>
      <trkpt lat="56.75854" lon="-5.76721">
        <ele>10.25</ele>
        <time>2021-03-20T16:47:57Z</time>
      </trkpt>
      <trkpt lat="56.75858" lon="-5.76679">
        <ele>10.17</ele>
        <time>2021-03-20T16:48:00Z</time>
      </trkpt>
      <trkpt lat="56.75865" lon="-5.7665">
        <ele>10.36</ele>
        <time>2021-03-20T16:48:04Z</time>
      </trkpt>
      <trkpt lat="56.75988" lon="-5.76392">
        <ele>15.29</ele>
        <time>2021-03-20T16:48:07Z</time>
      </trkpt>
      <trkpt lat="56.76032" lon="-5.76347">
        <ele>15.43</ele>
        <time>2021-03-20T16:48:10Z</time>
      </trkpt>
      <trkpt lat="56.76111" lon="-5.76157">
        <ele>14.99</ele>
        <time>2021-03-20T16:48:13Z</time>
      </trkpt>
      <trkpt lat="56.7613" lon="-5.76087">
        <ele>17.06</ele>
        <time>2021-03-20T16:48:16Z</time>
      </trkpt>
      <trkpt lat="56.76147" lon="-5.76016">
        <ele>17.85</ele>
        <time>2021-03-20T16:48:19Z</time>
      </trkpt>
      <trkpt lat="56.76159" lon="-5.75932">
        <ele>15.73</ele>
        <time>2021-03-20T16:48:22Z</time>
      </trkpt>
      <trkpt lat="56.76161" lon="-5.75895">
        <ele>15.01</ele>
        <time>2021-03-20T16:48:25Z</time>
      </trkpt>
      <trkpt lat="56.76157" lon="-5.75855">
        <ele>14.66</ele>
        <time>2021-03-20T16:48:29Z</time>
      </trkpt>
      <trkpt lat="56.76142" lon="-5.75764">
        <ele>14.12</ele>
        <time>2021-03-20T16:48:32Z</time>
      </trkpt>
      <trkpt lat="56.7614" lon="-5.7572">
        <ele>13.05</ele>
        <time>2021-03-20T16:48:35Z</time>
      </trkpt>
      <trkpt lat="56.76155" lon="-5.75535">
        <ele>12.15</ele>
        <time>2021-03-20T16:48:38Z</time>
      </trkpt>
      <trkpt lat="56.76168" lon="-5.75338">
        <ele>14.14</ele>
        <time>2021-03-20T16:48:41Z</time>
      </trkpt>
      <trkpt lat="56.76175" lon="-5.75289">
        <ele>13.99</ele>
        <time>2021-03-20T16:48:44Z</time>
      </trkpt>
      <trkpt lat="56.76186" lon="-5.7526">
        <ele>13.73</ele>
        <time>2021-03-20T16:48:47Z</time>
      </trkpt>
      <trkpt lat="56.76222" lon="-5.75186">
        <ele>11.69</ele>
        <time>2021-03-20T16:48:50Z</time>
      </trkpt>
      <trkpt lat="56.7628" lon="-5.75104">
        <ele>11.73</ele>
        <time>2021-03-20T16:48:54Z</time>
      </trkpt>
      <trkpt lat="56.76292" lon="-5.75072">
        <ele>10.58</ele>
        <time>2021-03-20T16:48:57Z</time>
      </trkpt>
      <trkpt lat="56.76296" lon="-5.75043">
        <ele>10</ele>
        <time>2021-03-20T16:49:00Z</time>
      </trkpt>
      <trkpt lat="56.76303" lon="-5.74773">
        <ele>9.98</ele>
        <time>2021-03-20T16:49:03Z</time>
      </trkpt>
      <trkpt lat="56.76275" lon="-5.74616">
        <ele>13.56</ele>
        <time>2021-03-20T16:49:06Z</time>
      </trkpt>
      <trkpt lat="56.76276" lon="-5.74579">
        <ele>15.12</ele>
        <time>2021-03-20T16:49:09Z</time>
      </trkpt>
      <trkpt lat="56.76282" lon="-5.74544">
        <ele>18.08</ele>
        <time>2021-03-20T16:49:12Z</time>
      </trkpt>
      <trkpt lat="56.76305" lon="-5.74475">
        <ele>22.93</ele>
        <time>2021-03-20T16:49:15Z</time>
      </trkpt>
      <trkpt lat="56.76321" lon="-5.74383">
        <ele>28.92</ele>
        <time>2021-03-20T16:49:19Z</time>
      </trkpt>
      <trkpt lat="56.76328" lon="-5.74359">
        <ele>30.45</ele>
        <time>2021-03-20T16:49:22Z</time>
      </trkpt>
      <trkpt lat="56.76353" lon="-5.74299">
        <ele>35.57</ele>
        <time>2021-03-20T16:49:25Z</time>
      </trkpt>
      <trkpt lat="56.7637" lon="-5.74241">
        <ele>37.49</ele>
        <time>2021-03-20T16:49:28Z</time>
      </trkpt>
      <trkpt lat="56.76389" lon="-5.74194">
        <ele>38.9</ele>
        <time>2021-03-20T16:49:31Z</time>
      </trkpt>
      <trkpt lat="56.76417" lon="-5.74133">
        <ele>39.81</ele>
        <time>2021-03-20T16:49:34Z</time>
      </trkpt>
      <trkpt lat="56.76436" lon="-5.74109">
        <ele>41.65</ele>
        <time>2021-03-20T16:49:37Z</time>
      </trkpt>
      <trkpt lat="56.76505" lon="-5.74036">
        <ele>47.16</ele>
        <time>2021-03-20T16:49:40Z</time>
      </trkpt>
      <trkpt lat="56.76515" lon="-5.74003">
        <ele>47.82</ele>
        <time>2021-03-20T16:49:44Z</time>
      </trkpt>
      <trkpt lat="56.76516" lon="-5.73952">
        <ele>47.42</ele>
        <time>2021-03-20T16:49:47Z</time>
      </trkpt>
      <trkpt lat="56.76527" lon="-5.73895">
        <ele>47.19</ele>
        <time>2021-03-20T16:49:50Z</time>
      </trkpt>
      <trkpt lat="56.76541" lon="-5.73867">
        <ele>49.35</ele>
        <time>2021-03-20T16:49:53Z</time>
      </trkpt>
      <trkpt lat="56.76584" lon="-5.73805">
        <ele>58.17</ele>
        <time>2021-03-20T16:49:56Z</time>
      </trkpt>
      <trkpt lat="56.76602" lon="-5.73759">
        <ele>59.88</ele>
        <time>2021-03-20T16:49:59Z</time>
      </trkpt>
      <trkpt lat="56.76643" lon="-5.73711">
        <ele>65.47</ele>
        <time>2021-03-20T16:50:02Z</time>
      </trkpt>
      <trkpt lat="56.76651" lon="-5.73685">
        <ele>65.94</ele>
        <time>2021-03-20T16:50:05Z</time>
      </trkpt>
      <trkpt lat="56.76652" lon="-5.73657">
        <ele>65.36</ele>
        <time>2021-03-20T16:50:09Z</time>
      </trkpt>
      <trkpt lat="56.76647" lon="-5.73632">
        <ele>64.1</ele>
        <time>2021-03-20T16:50:12Z</time>
      </trkpt>
      <trkpt lat="56.76629" lon="-5.73607">
        <ele>61.58</ele>
        <time>2021-03-20T16:50:15Z</time>
      </trkpt>
      <trkpt lat="56.76618" lon="-5.73585">
        <ele>61.08</ele>
        <time>2021-03-20T16:50:18Z</time>
      </trkpt>
      <trkpt lat="56.76611" lon="-5.73525">
        <ele>64.09</ele>
        <time>2021-03-20T16:50:21Z</time>
      </trkpt>
      <trkpt lat="56.76612" lon="-5.73489">
        <ele>65.1</ele>
        <time>2021-03-20T16:50:24Z</time>
      </trkpt>
      <trkpt lat="56.7662" lon="-5.7346">
        <ele>65.51</ele>
        <time>2021-03-20T16:50:27Z</time>
      </trkpt>
      <trkpt lat="56.76639" lon="-5.7342">
        <ele>66.19</ele>
        <time>2021-03-20T16:50:30Z</time>
      </trkpt>
      <trkpt lat="56.76644" lon="-5.73397">
        <ele>66.17</ele>
        <time>2021-03-20T16:50:33Z</time>
      </trkpt>
      <trkpt lat="56.76645" lon="-5.73278">
        <ele>67.66</ele>
        <time>2021-03-20T16:50:37Z</time>
      </trkpt>
      <trkpt lat="56.76657" lon="-5.73192">
        <ele>71.01</ele>
        <time>2021-03-20T16:50:40Z</time>
      </trkpt>
      <trkpt lat="56.76658" lon="-5.73164">
        <ele>72.68</ele>
        <time>2021-03-20T16:50:43Z</time>
      </trkpt>
      <trkpt lat="56.76645" lon="-5.73046">
        <ele>79.85</ele>
        <time>2021-03-20T16:50:46Z</time>
      </trkpt>
      <trkpt lat="56.76632" lon="-5.72908">
        <ele>83.58</ele>
        <time>2021-03-20T16:50:49Z</time>
      </trkpt>
      <trkpt lat="56.76634" lon="-5.72864">
        <ele>84.79</ele>
        <time>2021-03-20T16:50:52Z</time>
      </trkpt>
      <trkpt lat="56.7664" lon="-5.72829">
        <ele>85.21</ele>
        <time>2021-03-20T16:50:55Z</time>
      </trkpt>
      <trkpt lat="56.76651" lon="-5.72794">
        <ele>86.74</ele>
        <time>2021-03-20T16:50:58Z</time>
      </trkpt>
      <trkpt lat="56.7666" lon="-5.72778">
        <ele>87.82</ele>
        <time>2021-03-20T16:51:02Z</time>
      </trkpt>
      <trkpt lat="56.76674" lon="-5.72774">
        <ele>90.02</ele>
        <time>2021-03-20T16:51:05Z</time>
      </trkpt>
      <trkpt lat="56.76741" lon="-5.72806">
        <ele>98.35</ele>
        <time>2021-03-20T16:51:08Z</time>
      </trkpt>
      <trkpt lat="56.76759" lon="-5.728">
        <ele>99.53</ele>
        <time>2021-03-20T16:51:11Z</time>
      </trkpt>
      <trkpt lat="56.76781" lon="-5.72787">
        <ele>100.09</ele>
        <time>2021-03-20T16:51:14Z</time>
      </trkpt>
      <trkpt lat="56.76832" lon="-5.72764">
        <ele>101.85</ele>
        <time>2021-03-20T16:51:17Z</time>
      </trkpt>
      <trkpt lat="56.76869" lon="-5.72704">
        <ele>100.63</ele>
        <time>2021-03-20T16:51:20Z</time>
      </trkpt>
      <trkpt lat="56.76885" lon="-5.72696">
        <ele>101.78</ele>
        <time>2021-03-20T16:51:23Z</time>
      </trkpt>
      <trkpt lat="56.77174" lon="-5.72763">
        <ele>97.07</ele>
        <time>2021-03-20T16:51:27Z</time>
      </trkpt>
      <trkpt lat="56.77237" lon="-5.72811">
        <ele>96.57</ele>
        <time>2021-03-20T16:51:30Z</time>
      </trkpt>
      <trkpt lat="56.77299" lon="-5.72832">
        <ele>94.13</ele>
        <time>2021-03-20T16:51:33Z</time>
      </trkpt>
      <trkpt lat="56.77332" lon="-5.72853">
        <ele>93.31</ele>
        <time>2021-03-20T16:51:36Z</time>
      </trkpt>
      <trkpt lat="56.77365" lon="-5.72889">
        <ele>92.61</ele>
        <time>2021-03-20T16:51:39Z</time>
      </trkpt>
      <trkpt lat="56.77391" lon="-5.72928">
        <ele>92.49</ele>
        <time>2021-03-20T16:51:42Z</time>
      </trkpt>
      <trkpt lat="56.77522" lon="-5.73165">
        <ele>73.79</ele>
        <time>2021-03-20T16:51:45Z</time>
      </trkpt>
      <trkpt lat="56.77585" lon="-5.73337">
        <ele>61.67</ele>
        <time>2021-03-20T16:51:48Z</time>
      </trkpt>
      <trkpt lat="56.77595" lon="-5.73377">
        <ele>58.77</ele>
        <time>2021-03-20T16:51:52Z</time>
      </trkpt>
      <trkpt lat="56.77606" lon="-5.73445">
        <ele>53.87</ele>
        <time>2021-03-20T16:51:55Z</time>
      </trkpt>
      <trkpt lat="56.77611" lon="-5.73566">
        <ele>52.92</ele>
        <time>2021-03-20T16:51:58Z</time>
      </trkpt>
      <trkpt lat="56.7763" lon="-5.73686">
        <ele>55.74</ele>
        <time>2021-03-20T16:52:01Z</time>
      </trkpt>
      <trkpt lat="56.77642" lon="-5.73728">
        <ele>57.72</ele>
        <time>2021-03-20T16:52:04Z</time>
      </trkpt>
      <trkpt lat="56.77661" lon="-5.73756">
        <ele>59.6</ele>
        <time>2021-03-20T16:52:07Z</time>
      </trkpt>
      <trkpt lat="56.77691" lon="-5.7381">
        <ele>64.69</ele>
        <time>2021-03-20T16:52:10Z</time>
      </trkpt>
      <trkpt lat="56.7771" lon="-5.73854">
        <ele>68.84</ele>
        <time>2021-03-20T16:52:13Z</time>
      </trkpt>
      <trkpt lat="56.7773" lon="-5.73914">
        <ele>71.36</ele>
        <time>2021-03-20T16:52:17Z</time>
      </trkpt>
      <trkpt lat="56.77756" lon="-5.73974">
        <ele>70.56</ele>
        <time>2021-03-20T16:52:20Z</time>
      </trkpt>
      <trkpt lat="56.77796" lon="-5.74054">
        <ele>64.51</ele>
        <time>2021-03-20T16:52:23Z</time>
      </trkpt>
      <trkpt lat="56.77919" lon="-5.74238">
        <ele>45.76</ele>
        <time>2021-03-20T16:52:26Z</time>
      </trkpt>
      <trkpt lat="56.77984" lon="-5.74324">
        <ele>35.2</ele>
        <time>2021-03-20T16:52:29Z</time>
      </trkpt>
      <trkpt lat="56.78002" lon="-5.74365">
        <ele>30.72</ele>
        <time>2021-03-20T16:52:32Z</time>
      </trkpt>
      <trkpt lat="56.7802" lon="-5.74424">
        <ele>26.91</ele>
        <time>2021-03-20T16:52:35Z</time>
      </trkpt>
      <trkpt lat="56.78076" lon="-5.74579">
        <ele>17.35</ele>
        <time>2021-03-20T16:52:38Z</time>
      </trkpt>
      <trkpt lat="56.78084" lon="-5.74597">
        <ele>16.1</ele>
        <time>2021-03-20T16:52:41Z</time>
      </trkpt>
      <trkpt lat="56.78101" lon="-5.74614">
        <ele>16.03</ele>
        <time>2021-03-20T16:52:45Z</time>
      </trkpt>
      <trkpt lat="56.78156" lon="-5.74679">
        <ele>13.53</ele>
        <time>2021-03-20T16:52:48Z</time>
      </trkpt>
      <trkpt lat="56.78185" lon="-5.74721">
        <ele>9.82</ele>
        <time>2021-03-20T16:52:51Z</time>
      </trkpt>
      <trkpt lat="56.78194" lon="-5.74726">
        <ele>9.66</ele>
        <time>2021-03-20T16:52:54Z</time>
      </trkpt>
      <trkpt lat="56.78218" lon="-5.74721">
        <ele>8.53</ele>
        <time>2021-03-20T16:52:57Z</time>
      </trkpt>
      <trkpt lat="56.78313" lon="-5.74653">
        <ele>7.08</ele>
        <time>2021-03-20T16:53:00Z</time>
      </trkpt>
      <trkpt lat="56.78349" lon="-5.7465">
        <ele>5.34</ele>
        <time>2021-03-20T16:53:03Z</time>
      </trkpt>
      <trkpt lat="56.78373" lon="-5.74661">
        <ele>3.77</ele>
        <time>2021-03-20T16:53:06Z</time>
      </trkpt>
      <trkpt lat="56.78387" lon="-5.74663">
        <ele>3.2</ele>
        <time>2021-03-20T16:53:10Z</time>
      </trkpt>
      <trkpt lat="56.78438" lon="-5.74657">
        <ele>3.36</ele>
        <time>2021-03-20T16:53:13Z</time>
      </trkpt>
      <trkpt lat="56.78455" lon="-5.74659">
        <ele>3.28</ele>
        <time>2021-03-20T16:53:16Z</time>
      </trkpt>
      <trkpt lat="56.78477" lon="-5.74672">
        <ele>2.96</ele>
        <time>2021-03-20T16:53:19Z</time>
      </trkpt>
      <trkpt lat="56.78497" lon="-5.74694">
        <ele>2.93</ele>
        <time>2021-03-20T16:53:22Z</time>
      </trkpt>
      <trkpt lat="56.78652" lon="-5.74909">
        <ele>4.63</ele>
        <time>2021-03-20T16:53:25Z</time>
      </trkpt>
      <trkpt lat="56.78668" lon="-5.74927">
        <ele>5</ele>
        <time>2021-03-20T16:53:28Z</time>
      </trkpt>
      <trkpt lat="56.78759" lon="-5.74982">
        <ele>3</ele>
        <time>2021-03-20T16:53:31Z</time>
      </trkpt>
      <trkpt lat="56.78831" lon="-5.75011">
        <ele>3.51</ele>
        <time>2021-03-20T16:53:35Z</time>
      </trkpt>
      <trkpt lat="56.78863" lon="-5.75041">
        <ele>4.07</ele>
        <time>2021-03-20T16:53:38Z</time>
      </trkpt>
      <trkpt lat="56.78899" lon="-5.75093">
        <ele>3.77</ele>
        <time>2021-03-20T16:53:41Z</time>
      </trkpt>
      <trkpt lat="56.7895" lon="-5.75184">
        <ele>4.78</ele>
        <time>2021-03-20T16:53:44Z</time>
      </trkpt>
      <trkpt lat="56.7896" lon="-5.75222">
        <ele>6.18</ele>
        <time>2021-03-20T16:53:47Z</time>
      </trkpt>
      <trkpt lat="56.7899" lon="-5.75628">
        <ele>9.41</ele>
        <time>2021-03-20T16:53:50Z</time>
      </trkpt>
      <trkpt lat="56.79004" lon="-5.75703">
        <ele>8.98</ele>
        <time>2021-03-20T16:53:53Z</time>
      </trkpt>
      <trkpt lat="56.79068" lon="-5.75974">
        <ele>15.7</ele>
        <time>2021-03-20T16:53:56Z</time>
      </trkpt>
      <trkpt lat="56.79071" lon="-5.76028">
        <ele>17.91</ele>
        <time>2021-03-20T16:54:00Z</time>
      </trkpt>
      <trkpt lat="56.7906" lon="-5.76306">
        <ele>22.19</ele>
        <time>2021-03-20T16:54:03Z</time>
      </trkpt>
      <trkpt lat="56.7905" lon="-5.76351">
        <ele>23.26</ele>
        <time>2021-03-20T16:54:06Z</time>
      </trkpt>
      <trkpt lat="56.79016" lon="-5.76421">
        <ele>22.94</ele>
        <time>2021-03-20T16:54:09Z</time>
      </trkpt>
      <trkpt lat="56.79006" lon="-5.76456">
        <ele>23.96</ele>
        <time>2021-03-20T16:54:12Z</time>
      </trkpt>
      <trkpt lat="56.78994" lon="-5.76539">
        <ele>21.98</ele>
        <time>2021-03-20T16:54:15Z</time>
      </trkpt>
      <trkpt lat="56.78963" lon="-5.76725">
        <ele>11.34</ele>
        <time>2021-03-20T16:54:18Z</time>
      </trkpt>
      <trkpt lat="56.78943" lon="-5.76866">
        <ele>10.74</ele>
        <time>2021-03-20T16:54:21Z</time>
      </trkpt>
      <trkpt lat="56.78941" lon="-5.76913">
        <ele>11.12</ele>
        <time>2021-03-20T16:54:25Z</time>
      </trkpt>
      <trkpt lat="56.78943" lon="-5.76968">
        <ele>12.38</ele>
        <time>2021-03-20T16:54:28Z</time>
      </trkpt>
      <trkpt lat="56.78953" lon="-5.77058">
        <ele>15.53</ele>
        <time>2021-03-20T16:54:31Z</time>
      </trkpt>
      <trkpt lat="56.78981" lon="-5.77156">
        <ele>16.72</ele>
        <time>2021-03-20T16:54:34Z</time>
      </trkpt>
      <trkpt lat="56.78993" lon="-5.77213">
        <ele>22.8</ele>
        <time>2021-03-20T16:54:37Z</time>
      </trkpt>
      <trkpt lat="56.79001" lon="-5.77282">
        <ele>22.4</ele>
        <time>2021-03-20T16:54:40Z</time>
      </trkpt>
      <trkpt lat="56.79" lon="-5.77485">
        <ele>13.68</ele>
        <time>2021-03-20T16:54:43Z</time>
      </trkpt>
      <trkpt lat="56.79007" lon="-5.7753">
        <ele>12.77</ele>
        <time>2021-03-20T16:54:46Z</time>
      </trkpt>
      <trkpt lat="56.79015" lon="-5.77566">
        <ele>12.64</ele>
        <time>2021-03-20T16:54:49Z</time>
      </trkpt>
      <trkpt lat="56.79043" lon="-5.77661">
        <ele>15.13</ele>
        <time>2021-03-20T16:54:53Z</time>
      </trkpt>
      <trkpt lat="56.79051" lon="-5.77707">
        <ele>17.15</ele>
        <time>2021-03-20T16:54:56Z</time>
      </trkpt>
      <trkpt lat="56.79069" lon="-5.77843">
        <ele>13.46</ele>
        <time>2021-03-20T16:54:59Z</time>
      </trkpt>
      <trkpt lat="56.79077" lon="-5.77875">
        <ele>12.61</ele>
        <time>2021-03-20T16:55:02Z</time>
      </trkpt>
      <trkpt lat="56.79088" lon="-5.77907">
        <ele>17.27</ele>
        <time>2021-03-20T16:55:05Z</time>
      </trkpt>
      <trkpt lat="56.79215" lon="-5.7815">
        <ele>23.97</ele>
        <time>2021-03-20T16:55:08Z</time>
      </trkpt>
      <trkpt lat="56.79236" lon="-5.78213">
        <ele>20.06</ele>
        <time>2021-03-20T16:55:11Z</time>
      </trkpt>
      <trkpt lat="56.79245" lon="-5.78261">
        <ele>17.94</ele>
        <time>2021-03-20T16:55:14Z</time>
      </trkpt>
      <trkpt lat="56.79267" lon="-5.78445">
        <ele>15.24</ele>
        <time>2021-03-20T16:55:18Z</time>
      </trkpt>
      <trkpt lat="56.79274" lon="-5.78481">
        <ele>15.51</ele>
        <time>2021-03-20T16:55:21Z</time>
      </trkpt>
      <trkpt lat="56.79332" lon="-5.78674">
        <ele>15.86</ele>
        <time>2021-03-20T16:55:24Z</time>
      </trkpt>
      <trkpt lat="56.79357" lon="-5.78744">
        <ele>13.39</ele>
        <time>2021-03-20T16:55:27Z</time>
      </trkpt>
      <trkpt lat="56.79376" lon="-5.78782">
        <ele>13.39</ele>
        <time>2021-03-20T16:55:30Z</time>
      </trkpt>
      <trkpt lat="56.79396" lon="-5.78833">
        <ele>13.12</ele>
        <time>2021-03-20T16:55:33Z</time>
      </trkpt>
      <trkpt lat="56.79415" lon="-5.78901">
        <ele>13.36</ele>
        <time>2021-03-20T16:55:36Z</time>
      </trkpt>
      <trkpt lat="56.79449" lon="-5.79057">
        <ele>22.53</ele>
        <time>2021-03-20T16:55:39Z</time>
      </trkpt>
      <trkpt lat="56.79456" lon="-5.79142">
        <ele>28.64</ele>
        <time>2021-03-20T16:55:43Z</time>
      </trkpt>
      <trkpt lat="56.79457" lon="-5.79296">
        <ele>23.65</ele>
        <time>2021-03-20T16:55:46Z</time>
      </trkpt>
      <trkpt lat="56.79509" lon="-5.797">
        <ele>19.83</ele>
        <time>2021-03-20T16:55:49Z</time>
      </trkpt>
      <trkpt lat="56.79521" lon="-5.79783">
        <ele>16.4</ele>
        <time>2021-03-20T16:55:52Z</time>
      </trkpt>
      <trkpt lat="56.79538" lon="-5.79851">
        <ele>15.44</ele>
        <time>2021-03-20T16:55:55Z</time>
      </trkpt>
      <trkpt lat="56.79553" lon="-5.79893">
        <ele>16.06</ele>
        <time>2021-03-20T16:55:58Z</time>
      </trkpt>
      <trkpt lat="56.79565" lon="-5.79914">
        <ele>16.3</ele>
        <time>2021-03-20T16:56:01Z</time>
      </trkpt>
      <trkpt lat="56.79624" lon="-5.79961">
        <ele>22.91</ele>
        <time>2021-03-20T16:56:04Z</time>
      </trkpt>
      <trkpt lat="56.79664" lon="-5.79975">
        <ele>27.96</ele>
        <time>2021-03-20T16:56:08Z</time>
      </trkpt>
      <trkpt lat="56.79708" lon="-5.80001">
        <ele>34.35</ele>
        <time>2021-03-20T16:56:11Z</time>
      </trkpt>
      <trkpt lat="56.79731" lon="-5.8003">
        <ele>36.58</ele>
        <time>2021-03-20T16:56:14Z</time>
      </trkpt>
      <trkpt lat="56.79747" lon="-5.80074">
        <ele>37.52</ele>
        <time>2021-03-20T16:56:17Z</time>
      </trkpt>
      <trkpt lat="56.79789" lon="-5.80213">
        <ele>34.82</ele>
        <time>2021-03-20T16:56:20Z</time>
      </trkpt>
      <trkpt lat="56.79807" lon="-5.80255">
        <ele>32.65</ele>
        <time>2021-03-20T16:56:23Z</time>
      </trkpt>
      <trkpt lat="56.79831" lon="-5.80289">
        <ele>31.57</ele>
        <time>2021-03-20T16:56:26Z</time>
      </trkpt>
      <trkpt lat="56.7992" lon="-5.80386">
        <ele>35.53</ele>
        <time>2021-03-20T16:56:29Z</time>
      </trkpt>
      <trkpt lat="56.79948" lon="-5.80429">
        <ele>36.06</ele>
        <time>2021-03-20T16:56:33Z</time>
      </trkpt>
      <trkpt lat="56.79977" lon="-5.80483">
        <ele>39.49</ele>
        <time>2021-03-20T16:56:36Z</time>
      </trkpt>
      <trkpt lat="56.80001" lon="-5.80537">
        <ele>43.08</ele>
        <time>2021-03-20T16:56:39Z</time>
      </trkpt>
      <trkpt lat="56.80019" lon="-5.80595">
        <ele>44.42</ele>
        <time>2021-03-20T16:56:42Z</time>
      </trkpt>
      <trkpt lat="56.80261" lon="-5.81162">
        <ele>69.86</ele>
        <time>2021-03-20T16:56:45Z</time>
      </trkpt>
      <trkpt lat="56.8029" lon="-5.81241">
        <ele>73.07</ele>
        <time>2021-03-20T16:56:48Z</time>
      </trkpt>
      <trkpt lat="56.80317" lon="-5.8133">
        <ele>77.08</ele>
        <time>2021-03-20T16:56:51Z</time>
      </trkpt>
      <trkpt lat="56.80373" lon="-5.815">
        <ele>77</ele>
        <time>2021-03-20T16:56:54Z</time>
      </trkpt>
      <trkpt lat="56.80396" lon="-5.8154">
        <ele>79.89</ele>
        <time>2021-03-20T16:56:57Z</time>
      </trkpt>
      <trkpt lat="56.80445" lon="-5.81605">
        <ele>86.68</ele>
        <time>2021-03-20T16:57:01Z</time>
      </trkpt>
      <trkpt lat="56.80492" lon="-5.81671">
        <ele>90.12</ele>
        <time>2021-03-20T16:57:04Z</time>
      </trkpt>
      <trkpt lat="56.80522" lon="-5.81699">
        <ele>91.82</ele>
        <time>2021-03-20T16:57:07Z</time>
      </trkpt>
      <trkpt lat="56.80561" lon="-5.81721">
        <ele>94.8</ele>
        <time>2021-03-20T16:57:10Z</time>
      </trkpt>
      <trkpt lat="56.80622" lon="-5.81728">
        <ele>108.35</ele>
        <time>2021-03-20T16:57:13Z</time>
      </trkpt>
      <trkpt lat="56.8065" lon="-5.81742">
        <ele>112.94</ele>
        <time>2021-03-20T16:57:16Z</time>
      </trkpt>
      <trkpt lat="56.80682" lon="-5.81777">
        <ele>115</ele>
        <time>2021-03-20T16:57:19Z</time>
      </trkpt>
      <trkpt lat="56.80736" lon="-5.81855">
        <ele>124.28</ele>
        <time>2021-03-20T16:57:22Z</time>
      </trkpt>
      <trkpt lat="56.80769" lon="-5.8189">
        <ele>127.3</ele>
        <time>2021-03-20T16:57:26Z</time>
      </trkpt>
      <trkpt lat="56.80808" lon="-5.8192">
        <ele>133.04</ele>
        <time>2021-03-20T16:57:29Z</time>
      </trkpt>
      <trkpt lat="56.8084" lon="-5.81931">
        <ele>136.36</ele>
        <time>2021-03-20T16:57:32Z</time>
      </trkpt>
      <trkpt lat="56.80887" lon="-5.81935">
        <ele>142.11</ele>
        <time>2021-03-20T16:57:35Z</time>
      </trkpt>
      <trkpt lat="56.80935" lon="-5.8193">
        <ele>143.34</ele>
        <time>2021-03-20T16:57:38Z</time>
      </trkpt>
      <trkpt lat="56.80961" lon="-5.81931">
        <ele>141.2</ele>
        <time>2021-03-20T16:57:41Z</time>
      </trkpt>
      <trkpt lat="56.80997" lon="-5.8195">
        <ele>137.34</ele>
        <time>2021-03-20T16:57:44Z</time>
      </trkpt>
      <trkpt lat="56.81147" lon="-5.82063">
        <ele>124.96</ele>
        <time>2021-03-20T16:57:47Z</time>
      </trkpt>
      <trkpt lat="56.8117" lon="-5.82075">
        <ele>123.29</ele>
        <time>2021-03-20T16:57:51Z</time>
      </trkpt>
      <trkpt lat="56.81187" lon="-5.82077">
        <ele>120.8</ele>
        <time>2021-03-20T16:57:54Z</time>
      </trkpt>
      <trkpt lat="56.8134" lon="-5.82063">
        <ele>98.84</ele>
        <time>2021-03-20T16:57:57Z</time>
      </trkpt>
      <trkpt lat="56.81527" lon="-5.82078">
        <ele>86.98</ele>
        <time>2021-03-20T16:58:00Z</time>
      </trkpt>
      <trkpt lat="56.81598" lon="-5.82098">
        <ele>81.07</ele>
        <time>2021-03-20T16:58:03Z</time>
      </trkpt>
      <trkpt lat="56.81701" lon="-5.82157">
        <ele>69.56</ele>
        <time>2021-03-20T16:58:06Z</time>
      </trkpt>
      <trkpt lat="56.81725" lon="-5.82161">
        <ele>67.48</ele>
        <time>2021-03-20T16:58:09Z</time>
      </trkpt>
      <trkpt lat="56.81752" lon="-5.8216">
        <ele>66.29</ele>
        <time>2021-03-20T16:58:12Z</time>
      </trkpt>
      <trkpt lat="56.81798" lon="-5.82142">
        <ele>63.66</ele>
        <time>2021-03-20T16:58:16Z</time>
      </trkpt>
      <trkpt lat="56.81914" lon="-5.82033">
        <ele>55.55</ele>
        <time>2021-03-20T16:58:19Z</time>
      </trkpt>
      <trkpt lat="56.81947" lon="-5.82011">
        <ele>56.13</ele>
        <time>2021-03-20T16:58:22Z</time>
      </trkpt>
      <trkpt lat="56.81972" lon="-5.82003">
        <ele>55.85</ele>
        <time>2021-03-20T16:58:25Z</time>
      </trkpt>
      <trkpt lat="56.82232" lon="-5.81956">
        <ele>44.89</ele>
        <time>2021-03-20T16:58:28Z</time>
      </trkpt>
      <trkpt lat="56.82258" lon="-5.81945">
        <ele>42.86</ele>
        <time>2021-03-20T16:58:31Z</time>
      </trkpt>
      <trkpt lat="56.82302" lon="-5.8192">
        <ele>39.42</ele>
        <time>2021-03-20T16:58:34Z</time>
      </trkpt>
      <trkpt lat="56.82371" lon="-5.81867">
        <ele>33.87</ele>
        <time>2021-03-20T16:58:37Z</time>
      </trkpt>
      <trkpt lat="56.82422" lon="-5.81832">
        <ele>36</ele>
        <time>2021-03-20T16:58:41Z</time>
      </trkpt>
      <trkpt lat="56.82478" lon="-5.81821">
        <ele>35.87</ele>
        <time>2021-03-20T16:58:44Z</time>
      </trkpt>
      <trkpt lat="56.82534" lon="-5.81822">
        <ele>32.08</ele>
        <time>2021-03-20T16:58:47Z</time>
      </trkpt>
      <trkpt lat="56.82561" lon="-5.81816">
        <ele>29.43</ele>
        <time>2021-03-20T16:58:50Z</time>
      </trkpt>
      <trkpt lat="56.82582" lon="-5.81804">
        <ele>25.65</ele>
        <time>2021-03-20T16:58:53Z</time>
      </trkpt>
      <trkpt lat="56.82603" lon="-5.81786">
        <ele>20.93</ele>
        <time>2021-03-20T16:58:56Z</time>
      </trkpt>
      <trkpt lat="56.82632" lon="-5.81749">
        <ele>18.8</ele>
        <time>2021-03-20T16:58:59Z</time>
      </trkpt>
      <trkpt lat="56.82689" lon="-5.81664">
        <ele>15.31</ele>
        <time>2021-03-20T16:59:02Z</time>
      </trkpt>
      <trkpt lat="56.82725" lon="-5.81625">
        <ele>13.03</ele>
        <time>2021-03-20T16:59:05Z</time>
      </trkpt>
      <trkpt lat="56.82737" lon="-5.81616">
        <ele>11.5</ele>
        <time>2021-03-20T16:59:09Z</time>
      </trkpt>
      <trkpt lat="56.82763" lon="-5.81605">
        <ele>9.04</ele>
        <time>2021-03-20T16:59:12Z</time>
      </trkpt>
      <trkpt lat="56.82849" lon="-5.81624">
        <ele>6.07</ele>
        <time>2021-03-20T16:59:15Z</time>
      </trkpt>
      <trkpt lat="56.8287" lon="-5.81626">
        <ele>5.91</ele>
        <time>2021-03-20T16:59:18Z</time>
      </trkpt>
      <trkpt lat="56.82891" lon="-5.81625">
        <ele>5.97</ele>
        <time>2021-03-20T16:59:21Z</time>
      </trkpt>
      <trkpt lat="56.82905" lon="-5.8162">
        <ele>5.77</ele>
        <time>2021-03-20T16:59:24Z</time>
      </trkpt>
      <trkpt lat="56.8292" lon="-5.81614">
        <ele>5.7</ele>
        <time>2021-03-20T16:59:27Z</time>
      </trkpt>
      <trkpt lat="56.82943" lon="-5.81596">
        <ele>6.2</ele>
        <time>2021-03-20T16:59:30Z</time>
      </trkpt>
      <trkpt lat="56.83032" lon="-5.81507">
        <ele>5.38</ele>
        <time>2021-03-20T16:59:34Z</time>
      </trkpt>
      <trkpt lat="56.83071" lon="-5.81477">
        <ele>7.46</ele>
        <time>2021-03-20T16:59:37Z</time>
      </trkpt>
      <trkpt lat="56.83092" lon="-5.81466">
        <ele>9.26</ele>
        <time>2021-03-20T16:59:40Z</time>
      </trkpt>
      <trkpt lat="56.83189" lon="-5.81419">
        <ele>7.18</ele>
        <time>2021-03-20T16:59:43Z</time>
      </trkpt>
      <trkpt lat="56.83216" lon="-5.8141">
        <ele>6.79</ele>
        <time>2021-03-20T16:59:46Z</time>
      </trkpt>
      <trkpt lat="56.83257" lon="-5.8141">
        <ele>4.22</ele>
        <time>2021-03-20T16:59:49Z</time>
      </trkpt>
      <trkpt lat="56.83325" lon="-5.81414">
        <ele>5.88</ele>
        <time>2021-03-20T16:59:52Z</time>
      </trkpt>
      <trkpt lat="56.8335" lon="-5.81406">
        <ele>5.57</ele>
        <time>2021-03-20T16:59:55Z</time>
      </trkpt>
      <trkpt lat="56.83371" lon="-5.81393">
        <ele>5.4</ele>
        <time>2021-03-20T16:59:59Z</time>
      </trkpt>
      <trkpt lat="56.83394" lon="-5.81366">
        <ele>7.14</ele>
        <time>2021-03-20T17:00:02Z</time>
      </trkpt>
      <trkpt lat="56.83412" lon="-5.81337">
        <ele>8.18</ele>
        <time>2021-03-20T17:00:05Z</time>
      </trkpt>
      <trkpt lat="56.83441" lon="-5.81267">
        <ele>11.79</ele>
        <time>2021-03-20T17:00:08Z</time>
      </trkpt>
      <trkpt lat="56.83483" lon="-5.81153">
        <ele>12.94</ele>
        <time>2021-03-20T17:00:11Z</time>
      </trkpt>
      <trkpt lat="56.83494" lon="-5.8113">
        <ele>12.64</ele>
        <time>2021-03-20T17:00:14Z</time>
      </trkpt>
      <trkpt lat="56.83512" lon="-5.81099">
        <ele>11.73</ele>
        <time>2021-03-20T17:00:17Z</time>
      </trkpt>
      <trkpt lat="56.83529" lon="-5.8108">
        <ele>10.2</ele>
        <time>2021-03-20T17:00:20Z</time>
      </trkpt>
      <trkpt lat="56.83551" lon="-5.81064">
        <ele>8.74</ele>
        <time>2021-03-20T17:00:24Z</time>
      </trkpt>
      <trkpt lat="56.83627" lon="-5.81024">
        <ele>13.1</ele>
        <time>2021-03-20T17:00:27Z</time>
      </trkpt>
      <trkpt lat="56.83668" lon="-5.80996">
        <ele>10.49</ele>
        <time>2021-03-20T17:00:30Z</time>
      </trkpt>
      <trkpt lat="56.83697" lon="-5.80967">
        <ele>9.65</ele>
        <time>2021-03-20T17:00:33Z</time>
      </trkpt>
      <trkpt lat="56.83717" lon="-5.80935">
        <ele>7.21</ele>
        <time>2021-03-20T17:00:36Z</time>
      </trkpt>
      <trkpt lat="56.83734" lon="-5.80889">
        <ele>15.79</ele>
        <time>2021-03-20T17:00:39Z</time>
      </trkpt>
      <trkpt lat="56.83745" lon="-5.80844">
        <ele>14.2</ele>
        <time>2021-03-20T17:00:42Z</time>
      </trkpt>
      <trkpt lat="56.83753" lon="-5.80799">
        <ele>10.18</ele>
        <time>2021-03-20T17:00:45Z</time>
      </trkpt>
      <trkpt lat="56.83756" lon="-5.80747">
        <ele>11</ele>
        <time>2021-03-20T17:00:49Z</time>
      </trkpt>
      <trkpt lat="56.83754" lon="-5.80673">
        <ele>14.92</ele>
        <time>2021-03-20T17:00:52Z</time>
      </trkpt>
      <trkpt lat="56.83748" lon="-5.80578">
        <ele>9.4</ele>
        <time>2021-03-20T17:00:55Z</time>
      </trkpt>
      <trkpt lat="56.83736" lon="-5.80469">
        <ele>10.13</ele>
        <time>2021-03-20T17:00:58Z</time>
      </trkpt>
      <trkpt lat="56.83675" lon="-5.80173">
        <ele>7.42</ele>
        <time>2021-03-20T17:01:01Z</time>
      </trkpt>
      <trkpt lat="56.83671" lon="-5.80128">
        <ele>7.76</ele>
        <time>2021-03-20T17:01:04Z</time>
      </trkpt>
      <trkpt lat="56.83675" lon="-5.79856">
        <ele>18.26</ele>
        <time>2021-03-20T17:01:07Z</time>
      </trkpt>
      <trkpt lat="56.83673" lon="-5.79819">
        <ele>16.07</ele>
        <time>2021-03-20T17:01:10Z</time>
      </trkpt>
      <trkpt lat="56.83668" lon="-5.79781">
        <ele>11.4</ele>
        <time>2021-03-20T17:01:13Z</time>
      </trkpt>
      <trkpt lat="56.83613" lon="-5.79559">
        <ele>10.61</ele>
        <time>2021-03-20T17:01:17Z</time>
      </trkpt>
      <trkpt lat="56.83606" lon="-5.79506">
        <ele>10.05</ele>
        <time>2021-03-20T17:01:20Z</time>
      </trkpt>
      <trkpt lat="56.83604" lon="-5.79465">
        <ele>9.77</ele>
        <time>2021-03-20T17:01:23Z</time>
      </trkpt>
      <trkpt lat="56.83605" lon="-5.79387">
        <ele>7.81</ele>
        <time>2021-03-20T17:01:26Z</time>
      </trkpt>
      <trkpt lat="56.83633" lon="-5.79091">
        <ele>13.61</ele>
        <time>2021-03-20T17:01:29Z</time>
      </trkpt>
      <trkpt lat="56.83635" lon="-5.79027">
        <ele>12.42</ele>
        <time>2021-03-20T17:01:32Z</time>
      </trkpt>
      <trkpt lat="56.83633" lon="-5.7896">
        <ele>13.98</ele>
        <time>2021-03-20T17:01:35Z</time>
      </trkpt>
      <trkpt lat="56.83621" lon="-5.78814">
        <ele>9.8</ele>
        <time>2021-03-20T17:01:38Z</time>
      </trkpt>
      <trkpt lat="56.83622" lon="-5.78759">
        <ele>8.31</ele>
        <time>2021-03-20T17:01:42Z</time>
      </trkpt>
      <trkpt lat="56.83626" lon="-5.78724">
        <ele>9.15</ele>
        <time>2021-03-20T17:01:45Z</time>
      </trkpt>
      <trkpt lat="56.83637" lon="-5.78665">
        <ele>10.57</ele>
        <time>2021-03-20T17:01:48Z</time>
      </trkpt>
      <trkpt lat="56.83686" lon="-5.78496">
        <ele>10.44</ele>
        <time>2021-03-20T17:01:51Z</time>
      </trkpt>
      <trkpt lat="56.83708" lon="-5.78425">
        <ele>14.79</ele>
        <time>2021-03-20T17:01:54Z</time>
      </trkpt>
      <trkpt lat="56.83776" lon="-5.78288">
        <ele>22.99</ele>
        <time>2021-03-20T17:01:57Z</time>
      </trkpt>
      <trkpt lat="56.83829" lon="-5.78163">
        <ele>21.87</ele>
        <time>2021-03-20T17:02:00Z</time>
      </trkpt>
      <trkpt lat="56.83851" lon="-5.78105">
        <ele>21.91</ele>
        <time>2021-03-20T17:02:03Z</time>
      </trkpt>
      <trkpt lat="56.83862" lon="-5.78063">
        <ele>23.97</ele>
        <time>2021-03-20T17:02:07Z</time>
      </trkpt>
      <trkpt lat="56.83869" lon="-5.78018">
        <ele>24.98</ele>
        <time>2021-03-20T17:02:10Z</time>
      </trkpt>
      <trkpt lat="56.8387" lon="-5.77965">
        <ele>25.74</ele>
        <time>2021-03-20T17:02:13Z</time>
      </trkpt>
      <trkpt lat="56.83863" lon="-5.77884">
        <ele>22.32</ele>
        <time>2021-03-20T17:02:16Z</time>
      </trkpt>
      <trkpt lat="56.83858" lon="-5.77768">
        <ele>20.84</ele>
        <time>2021-03-20T17:02:19Z</time>
      </trkpt>
      <trkpt lat="56.83859" lon="-5.77732">
        <ele>20.5</ele>
        <time>2021-03-20T17:02:22Z</time>
      </trkpt>
      <trkpt lat="56.83873" lon="-5.7756">
        <ele>21.59</ele>
        <time>2021-03-20T17:02:25Z</time>
      </trkpt>
      <trkpt lat="56.83874" lon="-5.77502">
        <ele>23.43</ele>
        <time>2021-03-20T17:02:28Z</time>
      </trkpt>
      <trkpt lat="56.83867" lon="-5.77308">
        <ele>21.61</ele>
        <time>2021-03-20T17:02:32Z</time>
      </trkpt>
      <trkpt lat="56.8387" lon="-5.77262">
        <ele>21.05</ele>
        <time>2021-03-20T17:02:35Z</time>
      </trkpt>
      <trkpt lat="56.83918" lon="-5.76984">
        <ele>24.48</ele>
        <time>2021-03-20T17:02:38Z</time>
      </trkpt>
      <trkpt lat="56.83934" lon="-5.76904">
        <ele>25.23</ele>
        <time>2021-03-20T17:02:41Z</time>
      </trkpt>
      <trkpt lat="56.83952" lon="-5.76841">
        <ele>24.18</ele>
        <time>2021-03-20T17:02:44Z</time>
      </trkpt>
      <trkpt lat="56.83975" lon="-5.76792">
        <ele>22.19</ele>
        <time>2021-03-20T17:02:47Z</time>
      </trkpt>
      <trkpt lat="56.83996" lon="-5.76758">
        <ele>20.97</ele>
        <time>2021-03-20T17:02:50Z</time>
      </trkpt>
      <trkpt lat="56.84039" lon="-5.76708">
        <ele>20.84</ele>
        <time>2021-03-20T17:02:53Z</time>
      </trkpt>
      <trkpt lat="56.84075" lon="-5.76677">
        <ele>21.6</ele>
        <time>2021-03-20T17:02:57Z</time>
      </trkpt>
      <trkpt lat="56.84112" lon="-5.76632">
        <ele>21.47</ele>
        <time>2021-03-20T17:03:00Z</time>
      </trkpt>
      <trkpt lat="56.84137" lon="-5.7661">
        <ele>21.21</ele>
        <time>2021-03-20T17:03:03Z</time>
      </trkpt>
      <trkpt lat="56.84158" lon="-5.76575">
        <ele>19.66</ele>
        <time>2021-03-20T17:03:06Z</time>
      </trkpt>
      <trkpt lat="56.84171" lon="-5.7655">
        <ele>18.81</ele>
        <time>2021-03-20T17:03:09Z</time>
      </trkpt>
      <trkpt lat="56.84188" lon="-5.76509">
        <ele>19.88</ele>
        <time>2021-03-20T17:03:12Z</time>
      </trkpt>
      <trkpt lat="56.84202" lon="-5.76455">
        <ele>24.65</ele>
        <time>2021-03-20T17:03:15Z</time>
      </trkpt>
      <trkpt lat="56.84209" lon="-5.76398">
        <ele>29.3</ele>
        <time>2021-03-20T17:03:18Z</time>
      </trkpt>
      <trkpt lat="56.84213" lon="-5.76343">
        <ele>32.96</ele>
        <time>2021-03-20T17:03:21Z</time>
      </trkpt>
      <trkpt lat="56.84211" lon="-5.76285">
        <ele>36.44</ele>
        <time>2021-03-20T17:03:25Z</time>
      </trkpt>
      <trkpt lat="56.8414" lon="-5.75911">
        <ele>36.71</ele>
        <time>2021-03-20T17:03:28Z</time>
      </trkpt>
      <trkpt lat="56.84139" lon="-5.75856">
        <ele>34.83</ele>
        <time>2021-03-20T17:03:31Z</time>
      </trkpt>
      <trkpt lat="56.84142" lon="-5.75813">
        <ele>34.14</ele>
        <time>2021-03-20T17:03:34Z</time>
      </trkpt>
      <trkpt lat="56.84156" lon="-5.75747">
        <ele>34.33</ele>
        <time>2021-03-20T17:03:37Z</time>
      </trkpt>
      <trkpt lat="56.84262" lon="-5.75477">
        <ele>43.17</ele>
        <time>2021-03-20T17:03:40Z</time>
      </trkpt>
      <trkpt lat="56.84284" lon="-5.75414">
        <ele>43.39</ele>
        <time>2021-03-20T17:03:43Z</time>
      </trkpt>
      <trkpt lat="56.84298" lon="-5.75358">
        <ele>43.94</ele>
        <time>2021-03-20T17:03:46Z</time>
      </trkpt>
      <trkpt lat="56.84304" lon="-5.75303">
        <ele>44.2</ele>
        <time>2021-03-20T17:03:50Z</time>
      </trkpt>
      <trkpt lat="56.84305" lon="-5.75247">
        <ele>43</ele>
        <time>2021-03-20T17:03:53Z</time>
      </trkpt>
      <trkpt lat="56.84302" lon="-5.75196">
        <ele>41.93</ele>
        <time>2021-03-20T17:03:56Z</time>
      </trkpt>
      <trkpt lat="56.84259" lon="-5.74961">
        <ele>35.58</ele>
        <time>2021-03-20T17:03:59Z</time>
      </trkpt>
      <trkpt lat="56.84255" lon="-5.74922">
        <ele>35.13</ele>
        <time>2021-03-20T17:04:02Z</time>
      </trkpt>
      <trkpt lat="56.84251" lon="-5.74837">
        <ele>34.69</ele>
        <time>2021-03-20T17:04:05Z</time>
      </trkpt>
      <trkpt lat="56.84249" lon="-5.74661">
        <ele>29.06</ele>
        <time>2021-03-20T17:04:08Z</time>
      </trkpt>
      <trkpt lat="56.84241" lon="-5.74577">
        <ele>28.15</ele>
        <time>2021-03-20T17:04:11Z</time>
      </trkpt>
      <trkpt lat="56.84174" lon="-5.74144">
        <ele>20.94</ele>
        <time>2021-03-20T17:04:15Z</time>
      </trkpt>
      <trkpt lat="56.84173" lon="-5.74096">
        <ele>18.81</ele>
        <time>2021-03-20T17:04:18Z</time>
      </trkpt>
      <trkpt lat="56.84174" lon="-5.7406">
        <ele>18.03</ele>
        <time>2021-03-20T17:04:21Z</time>
      </trkpt>
      <trkpt lat="56.84177" lon="-5.7401">
        <ele>19.54</ele>
        <time>2021-03-20T17:04:24Z</time>
      </trkpt>
      <trkpt lat="56.8426" lon="-5.73407">
        <ele>12.52</ele>
        <time>2021-03-20T17:04:27Z</time>
      </trkpt>
      <trkpt lat="56.84286" lon="-5.73194">
        <ele>8.15</ele>
        <time>2021-03-20T17:04:30Z</time>
      </trkpt>
      <trkpt lat="56.8429" lon="-5.73131">
        <ele>9.49</ele>
        <time>2021-03-20T17:04:33Z</time>
      </trkpt>
      <trkpt lat="56.84293" lon="-5.72821">
        <ele>33.78</ele>
        <time>2021-03-20T17:04:36Z</time>
      </trkpt>
      <trkpt lat="56.84323" lon="-5.72664">
        <ele>35.95</ele>
        <time>2021-03-20T17:04:40Z</time>
      </trkpt>
      <trkpt lat="56.84328" lon="-5.72593">
        <ele>39.07</ele>
        <time>2021-03-20T17:04:43Z</time>
      </trkpt>
      <trkpt lat="56.84328" lon="-5.72349">
        <ele>9.55</ele>
        <time>2021-03-20T17:04:46Z</time>
      </trkpt>
      <trkpt lat="56.84342" lon="-5.7221">
        <ele>7.77</ele>
        <time>2021-03-20T17:04:49Z</time>
      </trkpt>
      <trkpt lat="56.84345" lon="-5.7215">
        <ele>8.02</ele>
        <time>2021-03-20T17:04:52Z</time>
      </trkpt>
      <trkpt lat="56.84348" lon="-5.71957">
        <ele>6.14</ele>
        <time>2021-03-20T17:04:55Z</time>
      </trkpt>
      <trkpt lat="56.84359" lon="-5.71871">
        <ele>10.85</ele>
        <time>2021-03-20T17:04:58Z</time>
      </trkpt>
      <trkpt lat="56.84377" lon="-5.71786">
        <ele>13.5</ele>
        <time>2021-03-20T17:05:01Z</time>
      </trkpt>
      <trkpt lat="56.84391" lon="-5.71738">
        <ele>11.91</ele>
        <time>2021-03-20T17:05:05Z</time>
      </trkpt>
      <trkpt lat="56.84427" lon="-5.71651">
        <ele>10.28</ele>
        <time>2021-03-20T17:05:08Z</time>
      </trkpt>
      <trkpt lat="56.84501" lon="-5.71512">
        <ele>9.56</ele>
        <time>2021-03-20T17:05:11Z</time>
      </trkpt>
      <trkpt lat="56.84526" lon="-5.71449">
        <ele>7.23</ele>
        <time>2021-03-20T17:05:14Z</time>
      </trkpt>
      <trkpt lat="56.84568" lon="-5.71312">
        <ele>8.71</ele>
        <time>2021-03-20T17:05:17Z</time>
      </trkpt>
      <trkpt lat="56.84591" lon="-5.71257">
        <ele>9.23</ele>
        <time>2021-03-20T17:05:20Z</time>
      </trkpt>
      <trkpt lat="56.84615" lon="-5.71213">
        <ele>6.95</ele>
        <time>2021-03-20T17:05:23Z</time>
      </trkpt>
      <trkpt lat="56.84639" lon="-5.7118">
        <ele>5.59</ele>
        <time>2021-03-20T17:05:26Z</time>
      </trkpt>
      <trkpt lat="56.84708" lon="-5.71095">
        <ele>4.95</ele>
        <time>2021-03-20T17:05:29Z</time>
      </trkpt>
      <trkpt lat="56.8473" lon="-5.71058">
        <ele>4.65</ele>
        <time>2021-03-20T17:05:33Z</time>
      </trkpt>
      <trkpt lat="56.84788" lon="-5.70953">
        <ele>4.55</ele>
        <time>2021-03-20T17:05:36Z</time>
      </trkpt>
      <trkpt lat="56.84808" lon="-5.70927">
        <ele>2.63</ele>
        <time>2021-03-20T17:05:39Z</time>
      </trkpt>
      <trkpt lat="56.84833" lon="-5.70905">
        <ele>3.44</ele>
        <time>2021-03-20T17:05:42Z</time>
      </trkpt>
      <trkpt lat="56.84941" lon="-5.70849">
        <ele>8.69</ele>
        <time>2021-03-20T17:05:45Z</time>
      </trkpt>
      <trkpt lat="56.85086" lon="-5.70782">
        <ele>9.6</ele>
        <time>2021-03-20T17:05:48Z</time>
      </trkpt>
      <trkpt lat="56.85255" lon="-5.70757">
        <ele>7.71</ele>
        <time>2021-03-20T17:05:51Z</time>
      </trkpt>
      <trkpt lat="56.85289" lon="-5.70744">
        <ele>9.69</ele>
        <time>2021-03-20T17:05:54Z</time>
      </trkpt>
      <trkpt lat="56.85318" lon="-5.70724">
        <ele>11.39</ele>
        <time>2021-03-20T17:05:58Z</time>
      </trkpt>
      <trkpt lat="56.85347" lon="-5.70695">
        <ele>12.47</ele>
        <time>2021-03-20T17:06:01Z</time>
      </trkpt>
      <trkpt lat="56.85424" lon="-5.70599">
        <ele>11.08</ele>
        <time>2021-03-20T17:06:04Z</time>
      </trkpt>
      <trkpt lat="56.85456" lon="-5.70567">
        <ele>9.49</ele>
        <time>2021-03-20T17:06:07Z</time>
      </trkpt>
      <trkpt lat="56.8552" lon="-5.70533">
        <ele>2.76</ele>
        <time>2021-03-20T17:06:10Z</time>
      </trkpt>
      <trkpt lat="56.85703" lon="-5.70445">
        <ele>7.65</ele>
        <time>2021-03-20T17:06:13Z</time>
      </trkpt>
      <trkpt lat="56.85747" lon="-5.70429">
        <ele>9.87</ele>
        <time>2021-03-20T17:06:16Z</time>
      </trkpt>
      <trkpt lat="56.85793" lon="-5.7042">
        <ele>11.27</ele>
        <time>2021-03-20T17:06:19Z</time>
      </trkpt>
      <trkpt lat="56.85839" lon="-5.70419">
        <ele>9.58</ele>
        <time>2021-03-20T17:06:23Z</time>
      </trkpt>
      <trkpt lat="56.85898" lon="-5.70428">
        <ele>7.83</ele>
        <time>2021-03-20T17:06:26Z</time>
      </trkpt>
      <trkpt lat="56.85988" lon="-5.70454">
        <ele>11.23</ele>
        <time>2021-03-20T17:06:29Z</time>
      </trkpt>
      <trkpt lat="56.86022" lon="-5.70454">
        <ele>10.43</ele>
        <time>2021-03-20T17:06:32Z</time>
      </trkpt>
      <trkpt lat="56.86048" lon="-5.70449">
        <ele>6.97</ele>
        <time>2021-03-20T17:06:35Z</time>
      </trkpt>
      <trkpt lat="56.8608" lon="-5.70436">
        <ele>4.95</ele>
        <time>2021-03-20T17:06:38Z</time>
      </trkpt>
      <trkpt lat="56.86109" lon="-5.70417">
        <ele>5.99</ele>
        <time>2021-03-20T17:06:41Z</time>
      </trkpt>
      <trkpt lat="56.86135" lon="-5.70392">
        <ele>5.16</ele>
        <time>2021-03-20T17:06:44Z</time>
      </trkpt>
      <trkpt lat="56.86162" lon="-5.70358">
        <ele>6.57</ele>
        <time>2021-03-20T17:06:48Z</time>
      </trkpt>
      <trkpt lat="56.86187" lon="-5.7032">
        <ele>7.37</ele>
        <time>2021-03-20T17:06:51Z</time>
      </trkpt>
      <trkpt lat="56.86247" lon="-5.70192">
        <ele>9.54</ele>
        <time>2021-03-20T17:06:54Z</time>
      </trkpt>
      <trkpt lat="56.86267" lon="-5.70144">
        <ele>9.18</ele>
        <time>2021-03-20T17:06:57Z</time>
      </trkpt>
      <trkpt lat="56.86284" lon="-5.70096">
        <ele>12.99</ele>
        <time>2021-03-20T17:07:00Z</time>
      </trkpt>
      <trkpt lat="56.8632" lon="-5.6995">
        <ele>20.44</ele>
        <time>2021-03-20T17:07:03Z</time>
      </trkpt>
      <trkpt lat="56.86347" lon="-5.69856">
        <ele>22.8</ele>
        <time>2021-03-20T17:07:06Z</time>
      </trkpt>
      <trkpt lat="56.86397" lon="-5.69723">
        <ele>10.58</ele>
        <time>2021-03-20T17:07:09Z</time>
      </trkpt>
      <trkpt lat="56.86421" lon="-5.69664">
        <ele>9.31</ele>
        <time>2021-03-20T17:07:13Z</time>
      </trkpt>
      <trkpt lat="56.86448" lon="-5.69614">
        <ele>7.41</ele>
        <time>2021-03-20T17:07:16Z</time>
      </trkpt>
      <trkpt lat="56.86473" lon="-5.69577">
        <ele>7.37</ele>
        <time>2021-03-20T17:07:19Z</time>
      </trkpt>
      <trkpt lat="56.86506" lon="-5.69538">
        <ele>8.49</ele>
        <time>2021-03-20T17:07:22Z</time>
      </trkpt>
      <trkpt lat="56.86543" lon="-5.69507">
        <ele>8.65</ele>
        <time>2021-03-20T17:07:25Z</time>
      </trkpt>
      <trkpt lat="56.86572" lon="-5.69489">
        <ele>7.58</ele>
        <time>2021-03-20T17:07:28Z</time>
      </trkpt>
      <trkpt lat="56.866" lon="-5.69477">
        <ele>5.67</ele>
        <time>2021-03-20T17:07:31Z</time>
      </trkpt>
      <trkpt lat="56.86648" lon="-5.69463">
        <ele>4.96</ele>
        <time>2021-03-20T17:07:34Z</time>
      </trkpt>
      <trkpt lat="56.86679" lon="-5.69449">
        <ele>4.74</ele>
        <time>2021-03-20T17:07:37Z</time>
      </trkpt>
      <trkpt lat="56.86704" lon="-5.6943">
        <ele>5.62</ele>
        <time>2021-03-20T17:07:41Z</time>
      </trkpt>
      <trkpt lat="56.8672" lon="-5.69409">
        <ele>7.66</ele>
        <time>2021-03-20T17:07:44Z</time>
      </trkpt>
      <trkpt lat="56.86739" lon="-5.6938">
        <ele>9.11</ele>
        <time>2021-03-20T17:07:47Z</time>
      </trkpt>
      <trkpt lat="56.86754" lon="-5.69347">
        <ele>10.04</ele>
        <time>2021-03-20T17:07:50Z</time>
      </trkpt>
      <trkpt lat="56.86816" lon="-5.69195">
        <ele>8.4</ele>
        <time>2021-03-20T17:07:53Z</time>
      </trkpt>
      <trkpt lat="56.86827" lon="-5.69161">
        <ele>8.1</ele>
        <time>2021-03-20T17:07:56Z</time>
      </trkpt>
      <trkpt lat="56.86834" lon="-5.69128">
        <ele>7.59</ele>
        <time>2021-03-20T17:07:59Z</time>
      </trkpt>
      <trkpt lat="56.86855" lon="-5.68996">
        <ele>9.84</ele>
        <time>2021-03-20T17:08:02Z</time>
      </trkpt>
      <trkpt lat="56.86862" lon="-5.68933">
        <ele>8.84</ele>
        <time>2021-03-20T17:08:06Z</time>
      </trkpt>
      <trkpt lat="56.86867" lon="-5.68881">
        <ele>8.83</ele>
        <time>2021-03-20T17:08:09Z</time>
      </trkpt>
      <trkpt lat="56.86867" lon="-5.6884">
        <ele>10.87</ele>
        <time>2021-03-20T17:08:12Z</time>
      </trkpt>
      <trkpt lat="56.86863" lon="-5.68792">
        <ele>8.88</ele>
        <time>2021-03-20T17:08:15Z</time>
      </trkpt>
      <trkpt lat="56.86855" lon="-5.68756">
        <ele>9.34</ele>
        <time>2021-03-20T17:08:18Z</time>
      </trkpt>
      <trkpt lat="56.86839" lon="-5.68697">
        <ele>11.5</ele>
        <time>2021-03-20T17:08:21Z</time>
      </trkpt>
      <trkpt lat="56.86811" lon="-5.68602">
        <ele>7.45</ele>
        <time>2021-03-20T17:08:24Z</time>
      </trkpt>
      <trkpt lat="56.86799" lon="-5.68545">
        <ele>6.22</ele>
        <time>2021-03-20T17:08:27Z</time>
      </trkpt>
      <trkpt lat="56.86793" lon="-5.68492">
        <ele>6.35</ele>
        <time>2021-03-20T17:08:31Z</time>
      </trkpt>
      <trkpt lat="56.86793" lon="-5.68451">
        <ele>7.08</ele>
        <time>2021-03-20T17:08:34Z</time>
      </trkpt>
      <trkpt lat="56.86797" lon="-5.68405">
        <ele>8.38</ele>
        <time>2021-03-20T17:08:37Z</time>
      </trkpt>
      <trkpt lat="56.86802" lon="-5.68372">
        <ele>9.36</ele>
        <time>2021-03-20T17:08:40Z</time>
      </trkpt>
      <trkpt lat="56.86809" lon="-5.68337">
        <ele>10.52</ele>
        <time>2021-03-20T17:08:43Z</time>
      </trkpt>
      <trkpt lat="56.86844" lon="-5.68222">
        <ele>11.15</ele>
        <time>2021-03-20T17:08:46Z</time>
      </trkpt>
      <trkpt lat="56.86927" lon="-5.67862">
        <ele>12.45</ele>
        <time>2021-03-20T17:08:49Z</time>
      </trkpt>
      <trkpt lat="56.86972" lon="-5.6771">
        <ele>16.05</ele>
        <time>2021-03-20T17:08:52Z</time>
      </trkpt>
      <trkpt lat="56.87024" lon="-5.67562">
        <ele>11.07</ele>
        <time>2021-03-20T17:08:56Z</time>
      </trkpt>
      <trkpt lat="56.87059" lon="-5.67443">
        <ele>13.14</ele>
        <time>2021-03-20T17:08:59Z</time>
      </trkpt>
      <trkpt lat="56.87093" lon="-5.67294">
        <ele>13.6</ele>
        <time>2021-03-20T17:09:02Z</time>
      </trkpt>
      <trkpt lat="56.8711" lon="-5.67243">
        <ele>6.08</ele>
        <time>2021-03-20T17:09:05Z</time>
      </trkpt>
      <trkpt lat="56.87124" lon="-5.67209">
        <ele>4.45</ele>
        <time>2021-03-20T17:09:08Z</time>
      </trkpt>
      <trkpt lat="56.87138" lon="-5.67182">
        <ele>1.76</ele>
        <time>2021-03-20T17:09:11Z</time>
      </trkpt>
      <trkpt lat="56.87213" lon="-5.67068">
        <ele>4.09</ele>
        <time>2021-03-20T17:09:14Z</time>
      </trkpt>
      <trkpt lat="56.87243" lon="-5.67028">
        <ele>5.25</ele>
        <time>2021-03-20T17:09:17Z</time>
      </trkpt>
      <trkpt lat="56.87262" lon="-5.67008">
        <ele>4.84</ele>
        <time>2021-03-20T17:09:21Z</time>
      </trkpt>
      <trkpt lat="56.87285" lon="-5.66989">
        <ele>4</ele>
        <time>2021-03-20T17:09:24Z</time>
      </trkpt>
      <trkpt lat="56.87332" lon="-5.66971">
        <ele>3.05</ele>
        <time>2021-03-20T17:09:27Z</time>
      </trkpt>
      <trkpt lat="56.87392" lon="-5.66955">
        <ele>2.68</ele>
        <time>2021-03-20T17:09:30Z</time>
      </trkpt>
      <trkpt lat="56.87413" lon="-5.66945">
        <ele>3</ele>
        <time>2021-03-20T17:09:33Z</time>
      </trkpt>
      <trkpt lat="56.87438" lon="-5.66927">
        <ele>3</ele>
        <time>2021-03-20T17:09:36Z</time>
      </trkpt>
      <trkpt lat="56.87501" lon="-5.66873">
        <ele>2.04</ele>
        <time>2021-03-20T17:09:39Z</time>
      </trkpt>
      <trkpt lat="56.8753" lon="-5.66856">
        <ele>3.25</ele>
        <time>2021-03-20T17:09:42Z</time>
      </trkpt>
      <trkpt lat="56.87596" lon="-5.66835">
        <ele>8.35</ele>
        <time>2021-03-20T17:09:45Z</time>
      </trkpt>
      <trkpt lat="56.87633" lon="-5.66817">
        <ele>12.15</ele>
        <time>2021-03-20T17:09:49Z</time>
      </trkpt>
      <trkpt lat="56.87654" lon="-5.66798">
        <ele>14.6</ele>
        <time>2021-03-20T17:09:52Z</time>
      </trkpt>
      <trkpt lat="56.87667" lon="-5.6678">
        <ele>16.85</ele>
        <time>2021-03-20T17:09:55Z</time>
      </trkpt>
      <trkpt lat="56.87683" lon="-5.66754">
        <ele>17.59</ele>
        <time>2021-03-20T17:09:58Z</time>
      </trkpt>
      <trkpt lat="56.87752" lon="-5.66617">
        <ele>23.28</ele>
        <time>2021-03-20T17:10:01Z</time>
      </trkpt>
      <trkpt lat="56.87767" lon="-5.666">
        <ele>23.08</ele>
        <time>2021-03-20T17:10:04Z</time>
      </trkpt>
      <trkpt lat="56.87781" lon="-5.66597">
        <ele>23.7</ele>
        <time>2021-03-20T17:10:07Z</time>
      </trkpt>
      <trkpt lat="56.87796" lon="-5.66605">
        <ele>25.1</ele>
        <time>2021-03-20T17:10:10Z</time>
      </trkpt>
      <trkpt lat="56.87837" lon="-5.66661">
        <ele>31.22</ele>
        <time>2021-03-20T17:10:14Z</time>
      </trkpt>
      <trkpt lat="56.87859" lon="-5.66614">
        <ele>30.05</ele>
        <time>2021-03-20T17:10:16Z</time>
      </trkpt>
      <trkpt lat="56.87972" lon="-5.66414">
        <ele>26.6</ele>
        <time>2021-03-20T17:10:19Z</time>
      </trkpt>
      <trkpt lat="56.8799" lon="-5.66391">
        <ele>25.79</ele>
        <time>2021-03-20T17:10:21Z</time>
      </trkpt>
      <trkpt lat="56.88008" lon="-5.66374">
        <ele>25.92</ele>
        <time>2021-03-20T17:10:24Z</time>
      </trkpt>
      <trkpt lat="56.88031" lon="-5.66357">
        <ele>26.65</ele>
        <time>2021-03-20T17:10:26Z</time>
      </trkpt>
      <trkpt lat="56.88101" lon="-5.66315">
        <ele>27.88</ele>
        <time>2021-03-20T17:10:29Z</time>
      </trkpt>
      <trkpt lat="56.88159" lon="-5.66276">
        <ele>26.89</ele>
        <time>2021-03-20T17:10:31Z</time>
      </trkpt>
      <trkpt lat="56.88182" lon="-5.66253">
        <ele>27.57</ele>
        <time>2021-03-20T17:10:34Z</time>
      </trkpt>
      <trkpt lat="56.88202" lon="-5.66229">
        <ele>27.05</ele>
        <time>2021-03-20T17:10:36Z</time>
      </trkpt>
      <trkpt lat="56.88216" lon="-5.66201">
        <ele>26.81</ele>
        <time>2021-03-20T17:10:39Z</time>
      </trkpt>
      <trkpt lat="56.88226" lon="-5.66169">
        <ele>25.5</ele>
        <time>2021-03-20T17:10:41Z</time>
      </trkpt>
      <trkpt lat="56.88238" lon="-5.66109">
        <ele>27.19</ele>
        <time>2021-03-20T17:10:44Z</time>
      </trkpt>
      <trkpt lat="56.8828" lon="-5.65848">
        <ele>29.58</ele>
        <time>2021-03-20T17:10:46Z</time>
      </trkpt>
      <trkpt lat="56.88295" lon="-5.65777">
        <ele>31.62</ele>
        <time>2021-03-20T17:10:48Z</time>
      </trkpt>
      <trkpt lat="56.88306" lon="-5.65738">
        <ele>31.65</ele>
        <time>2021-03-20T17:10:51Z</time>
      </trkpt>
      <trkpt lat="56.8833" lon="-5.65677">
        <ele>31.36</ele>
        <time>2021-03-20T17:10:53Z</time>
      </trkpt>
      <trkpt lat="56.88438" lon="-5.65434">
        <ele>28.32</ele>
        <time>2021-03-20T17:10:56Z</time>
      </trkpt>
      <trkpt lat="56.88453" lon="-5.65387">
        <ele>28.01</ele>
        <time>2021-03-20T17:10:58Z</time>
      </trkpt>
      <trkpt lat="56.88496" lon="-5.65192">
        <ele>25.06</ele>
        <time>2021-03-20T17:11:01Z</time>
      </trkpt>
      <trkpt lat="56.88525" lon="-5.65084">
        <ele>30.09</ele>
        <time>2021-03-20T17:11:03Z</time>
      </trkpt>
      <trkpt lat="56.88559" lon="-5.64969">
        <ele>32.55</ele>
        <time>2021-03-20T17:11:06Z</time>
      </trkpt>
      <trkpt lat="56.88569" lon="-5.64922">
        <ele>33.07</ele>
        <time>2021-03-20T17:11:08Z</time>
      </trkpt>
      <trkpt lat="56.88575" lon="-5.64889">
        <ele>32.85</ele>
        <time>2021-03-20T17:11:11Z</time>
      </trkpt>
      <trkpt lat="56.88578" lon="-5.64861">
        <ele>33.1</ele>
        <time>2021-03-20T17:11:13Z</time>
      </trkpt>
      <trkpt lat="56.88593" lon="-5.64649">
        <ele>29.71</ele>
        <time>2021-03-20T17:11:16Z</time>
      </trkpt>
      <trkpt lat="56.886" lon="-5.6459">
        <ele>29.91</ele>
        <time>2021-03-20T17:11:18Z</time>
      </trkpt>
      <trkpt lat="56.88641" lon="-5.64343">
        <ele>30.48</ele>
        <time>2021-03-20T17:11:21Z</time>
      </trkpt>
      <trkpt lat="56.88658" lon="-5.64217">
        <ele>32.44</ele>
        <time>2021-03-20T17:11:23Z</time>
      </trkpt>
      <trkpt lat="56.88679" lon="-5.64079">
        <ele>30.56</ele>
        <time>2021-03-20T17:11:26Z</time>
      </trkpt>
      <trkpt lat="56.88684" lon="-5.64039">
        <ele>30.41</ele>
        <time>2021-03-20T17:11:28Z</time>
      </trkpt>
      <trkpt lat="56.88691" lon="-5.63941">
        <ele>29.29</ele>
        <time>2021-03-20T17:11:31Z</time>
      </trkpt>
      <trkpt lat="56.88709" lon="-5.63831">
        <ele>25.6</ele>
        <time>2021-03-20T17:11:33Z</time>
      </trkpt>
      <trkpt lat="56.88712" lon="-5.63803">
        <ele>25.47</ele>
        <time>2021-03-20T17:11:36Z</time>
      </trkpt>
      <trkpt lat="56.88712" lon="-5.63772">
        <ele>24.88</ele>
        <time>2021-03-20T17:11:38Z</time>
      </trkpt>
      <trkpt lat="56.88708" lon="-5.6374">
        <ele>24.68</ele>
        <time>2021-03-20T17:11:41Z</time>
      </trkpt>
      <trkpt lat="56.88703" lon="-5.63715">
        <ele>24.81</ele>
        <time>2021-03-20T17:11:43Z</time>
      </trkpt>
      <trkpt lat="56.88697" lon="-5.63694">
        <ele>25.12</ele>
        <time>2021-03-20T17:11:45Z</time>
      </trkpt>
      <trkpt lat="56.88626" lon="-5.63554">
        <ele>21.55</ele>
        <time>2021-03-20T17:11:48Z</time>
      </trkpt>
      <trkpt lat="56.88615" lon="-5.63529">
        <ele>21.96</ele>
        <time>2021-03-20T17:11:50Z</time>
      </trkpt>
      <trkpt lat="56.88604" lon="-5.63493">
        <ele>22.82</ele>
        <time>2021-03-20T17:11:53Z</time>
      </trkpt>
      <trkpt lat="56.88526" lon="-5.63156">
        <ele>32.45</ele>
        <time>2021-03-20T17:11:55Z</time>
      </trkpt>
      <trkpt lat="56.88518" lon="-5.63126">
        <ele>34.1</ele>
        <time>2021-03-20T17:11:58Z</time>
      </trkpt>
      <trkpt lat="56.88512" lon="-5.63113">
        <ele>34.9</ele>
        <time>2021-03-20T17:12:00Z</time>
      </trkpt>
      <trkpt lat="56.88504" lon="-5.63101">
        <ele>36.08</ele>
        <time>2021-03-20T17:12:03Z</time>
      </trkpt>
      <trkpt lat="56.88496" lon="-5.63092">
        <ele>37.31</ele>
        <time>2021-03-20T17:12:05Z</time>
      </trkpt>
      <trkpt lat="56.8848" lon="-5.63084">
        <ele>39.35</ele>
        <time>2021-03-20T17:12:08Z</time>
      </trkpt>
      <trkpt lat="56.88461" lon="-5.63085">
        <ele>40.54</ele>
        <time>2021-03-20T17:12:10Z</time>
      </trkpt>
      <trkpt lat="56.884" lon="-5.63103">
        <ele>38.1</ele>
        <time>2021-03-20T17:12:13Z</time>
      </trkpt>
      <trkpt lat="56.88379" lon="-5.63106">
        <ele>36.56</ele>
        <time>2021-03-20T17:12:15Z</time>
      </trkpt>
      <trkpt lat="56.88363" lon="-5.63103">
        <ele>36.24</ele>
        <time>2021-03-20T17:12:18Z</time>
      </trkpt>
      <trkpt lat="56.88352" lon="-5.63096">
        <ele>36.64</ele>
        <time>2021-03-20T17:12:20Z</time>
      </trkpt>
      <trkpt lat="56.88343" lon="-5.63085">
        <ele>37.42</ele>
        <time>2021-03-20T17:12:23Z</time>
      </trkpt>
      <trkpt lat="56.88334" lon="-5.63069">
        <ele>38.69</ele>
        <time>2021-03-20T17:12:25Z</time>
      </trkpt>
      <trkpt lat="56.88329" lon="-5.63047">
        <ele>39.52</ele>
        <time>2021-03-20T17:12:28Z</time>
      </trkpt>
      <trkpt lat="56.88327" lon="-5.63023">
        <ele>40.1</ele>
        <time>2021-03-20T17:12:30Z</time>
      </trkpt>
      <trkpt lat="56.88328" lon="-5.63002">
        <ele>41.82</ele>
        <time>2021-03-20T17:12:33Z</time>
      </trkpt>
      <trkpt lat="56.88331" lon="-5.62976">
        <ele>41.75</ele>
        <time>2021-03-20T17:12:35Z</time>
      </trkpt>
      <trkpt lat="56.88337" lon="-5.62952">
        <ele>41.15</ele>
        <time>2021-03-20T17:12:38Z</time>
      </trkpt>
      <trkpt lat="56.88387" lon="-5.62798">
        <ele>38.99</ele>
        <time>2021-03-20T17:12:40Z</time>
      </trkpt>
      <trkpt lat="56.88394" lon="-5.62769">
        <ele>37.83</ele>
        <time>2021-03-20T17:12:42Z</time>
      </trkpt>
      <trkpt lat="56.88397" lon="-5.62742">
        <ele>36.84</ele>
        <time>2021-03-20T17:12:45Z</time>
      </trkpt>
      <trkpt lat="56.884" lon="-5.62648">
        <ele>35</ele>
        <time>2021-03-20T17:12:47Z</time>
      </trkpt>
      <trkpt lat="56.88506" lon="-5.62067">
        <ele>35.88</ele>
        <time>2021-03-20T17:12:50Z</time>
      </trkpt>
      <trkpt lat="56.88511" lon="-5.62032">
        <ele>35.44</ele>
        <time>2021-03-20T17:12:52Z</time>
      </trkpt>
      <trkpt lat="56.88512" lon="-5.61992">
        <ele>35.12</ele>
        <time>2021-03-20T17:12:55Z</time>
      </trkpt>
      <trkpt lat="56.88508" lon="-5.61775">
        <ele>35.55</ele>
        <time>2021-03-20T17:12:57Z</time>
      </trkpt>
      <trkpt lat="56.88505" lon="-5.61719">
        <ele>35.19</ele>
        <time>2021-03-20T17:13:00Z</time>
      </trkpt>
      <trkpt lat="56.885" lon="-5.61666">
        <ele>34.05</ele>
        <time>2021-03-20T17:13:02Z</time>
      </trkpt>
      <trkpt lat="56.88495" lon="-5.61637">
        <ele>34.87</ele>
        <time>2021-03-20T17:13:05Z</time>
      </trkpt>
      <trkpt lat="56.88488" lon="-5.61608">
        <ele>35.34</ele>
        <time>2021-03-20T17:13:07Z</time>
      </trkpt>
      <trkpt lat="56.88472" lon="-5.61561">
        <ele>35.78</ele>
        <time>2021-03-20T17:13:10Z</time>
      </trkpt>
      <trkpt lat="56.88446" lon="-5.61509">
        <ele>34.91</ele>
        <time>2021-03-20T17:13:12Z</time>
      </trkpt>
      <trkpt lat="56.88377" lon="-5.61384">
        <ele>35.91</ele>
        <time>2021-03-20T17:13:15Z</time>
      </trkpt>
      <trkpt lat="56.88365" lon="-5.61354">
        <ele>36.98</ele>
        <time>2021-03-20T17:13:17Z</time>
      </trkpt>
      <trkpt lat="56.88356" lon="-5.61329">
        <ele>35.23</ele>
        <time>2021-03-20T17:13:20Z</time>
      </trkpt>
      <trkpt lat="56.8835" lon="-5.61304">
        <ele>35.81</ele>
        <time>2021-03-20T17:13:22Z</time>
      </trkpt>
      <trkpt lat="56.88346" lon="-5.61278">
        <ele>36.08</ele>
        <time>2021-03-20T17:13:25Z</time>
      </trkpt>
      <trkpt lat="56.88345" lon="-5.61252">
        <ele>36.74</ele>
        <time>2021-03-20T17:13:27Z</time>
      </trkpt>
      <trkpt lat="56.88345" lon="-5.61223">
        <ele>34.46</ele>
        <time>2021-03-20T17:13:30Z</time>
      </trkpt>
      <trkpt lat="56.88347" lon="-5.61195">
        <ele>37.01</ele>
        <time>2021-03-20T17:13:32Z</time>
      </trkpt>
      <trkpt lat="56.88357" lon="-5.6111">
        <ele>34.85</ele>
        <time>2021-03-20T17:13:34Z</time>
      </trkpt>
      <trkpt lat="56.8836" lon="-5.61052">
        <ele>35.92</ele>
        <time>2021-03-20T17:13:37Z</time>
      </trkpt>
      <trkpt lat="56.88358" lon="-5.6102">
        <ele>35.79</ele>
        <time>2021-03-20T17:13:39Z</time>
      </trkpt>
      <trkpt lat="56.88326" lon="-5.60775">
        <ele>36.56</ele>
        <time>2021-03-20T17:13:42Z</time>
      </trkpt>
      <trkpt lat="56.88324" lon="-5.60737">
        <ele>37.72</ele>
        <time>2021-03-20T17:13:44Z</time>
      </trkpt>
      <trkpt lat="56.88323" lon="-5.60697">
        <ele>39.48</ele>
        <time>2021-03-20T17:13:47Z</time>
      </trkpt>
      <trkpt lat="56.88327" lon="-5.60645">
        <ele>41.66</ele>
        <time>2021-03-20T17:13:49Z</time>
      </trkpt>
      <trkpt lat="56.88362" lon="-5.60293">
        <ele>40.81</ele>
        <time>2021-03-20T17:13:52Z</time>
      </trkpt>
      <trkpt lat="56.88367" lon="-5.60257">
        <ele>40.96</ele>
        <time>2021-03-20T17:13:54Z</time>
      </trkpt>
      <trkpt lat="56.88374" lon="-5.6022">
        <ele>40.35</ele>
        <time>2021-03-20T17:13:57Z</time>
      </trkpt>
      <trkpt lat="56.8841" lon="-5.60083">
        <ele>41.09</ele>
        <time>2021-03-20T17:13:59Z</time>
      </trkpt>
      <trkpt lat="56.8844" lon="-5.59949">
        <ele>40.39</ele>
        <time>2021-03-20T17:14:02Z</time>
      </trkpt>
      <trkpt lat="56.88449" lon="-5.59885">
        <ele>40.08</ele>
        <time>2021-03-20T17:14:04Z</time>
      </trkpt>
      <trkpt lat="56.88451" lon="-5.59856">
        <ele>39.42</ele>
        <time>2021-03-20T17:14:07Z</time>
      </trkpt>
      <trkpt lat="56.88451" lon="-5.59826">
        <ele>38.25</ele>
        <time>2021-03-20T17:14:09Z</time>
      </trkpt>
      <trkpt lat="56.8844" lon="-5.59687">
        <ele>36.21</ele>
        <time>2021-03-20T17:14:12Z</time>
      </trkpt>
      <trkpt lat="56.88439" lon="-5.5965">
        <ele>36.8</ele>
        <time>2021-03-20T17:14:14Z</time>
      </trkpt>
      <trkpt lat="56.8844" lon="-5.59606">
        <ele>36.47</ele>
        <time>2021-03-20T17:14:17Z</time>
      </trkpt>
      <trkpt lat="56.88447" lon="-5.59524">
        <ele>35.64</ele>
        <time>2021-03-20T17:14:19Z</time>
      </trkpt>
      <trkpt lat="56.88448" lon="-5.59486">
        <ele>37.06</ele>
        <time>2021-03-20T17:14:22Z</time>
      </trkpt>
      <trkpt lat="56.88447" lon="-5.5945">
        <ele>38.1</ele>
        <time>2021-03-20T17:14:24Z</time>
      </trkpt>
      <trkpt lat="56.8844" lon="-5.59404">
        <ele>38.3</ele>
        <time>2021-03-20T17:14:27Z</time>
      </trkpt>
      <trkpt lat="56.88416" lon="-5.59309">
        <ele>36.97</ele>
        <time>2021-03-20T17:14:29Z</time>
      </trkpt>
      <trkpt lat="56.88342" lon="-5.59035">
        <ele>36.88</ele>
        <time>2021-03-20T17:14:31Z</time>
      </trkpt>
      <trkpt lat="56.88326" lon="-5.58973">
        <ele>38.99</ele>
        <time>2021-03-20T17:14:34Z</time>
      </trkpt>
      <trkpt lat="56.88288" lon="-5.58727">
        <ele>35.91</ele>
        <time>2021-03-20T17:14:36Z</time>
      </trkpt>
      <trkpt lat="56.8828" lon="-5.58687">
        <ele>34.91</ele>
        <time>2021-03-20T17:14:39Z</time>
      </trkpt>
      <trkpt lat="56.8827" lon="-5.5865">
        <ele>34.04</ele>
        <time>2021-03-20T17:14:41Z</time>
      </trkpt>
      <trkpt lat="56.88156" lon="-5.58376">
        <ele>41.45</ele>
        <time>2021-03-20T17:14:44Z</time>
      </trkpt>
      <trkpt lat="56.88144" lon="-5.58344">
        <ele>40.32</ele>
        <time>2021-03-20T17:14:46Z</time>
      </trkpt>
      <trkpt lat="56.88135" lon="-5.58311">
        <ele>39.6</ele>
        <time>2021-03-20T17:14:49Z</time>
      </trkpt>
      <trkpt lat="56.88132" lon="-5.58284">
        <ele>38.42</ele>
        <time>2021-03-20T17:14:51Z</time>
      </trkpt>
      <trkpt lat="56.88131" lon="-5.58252">
        <ele>38.84</ele>
        <time>2021-03-20T17:14:54Z</time>
      </trkpt>
      <trkpt lat="56.88137" lon="-5.58171">
        <ele>41.73</ele>
        <time>2021-03-20T17:14:56Z</time>
      </trkpt>
      <trkpt lat="56.88137" lon="-5.58125">
        <ele>44.71</ele>
        <time>2021-03-20T17:14:59Z</time>
      </trkpt>
      <trkpt lat="56.88135" lon="-5.58084">
        <ele>46.05</ele>
        <time>2021-03-20T17:15:01Z</time>
      </trkpt>
      <trkpt lat="56.88129" lon="-5.58056">
        <ele>45.82</ele>
        <time>2021-03-20T17:15:04Z</time>
      </trkpt>
      <trkpt lat="56.8812" lon="-5.58029">
        <ele>45.75</ele>
        <time>2021-03-20T17:15:06Z</time>
      </trkpt>
      <trkpt lat="56.88109" lon="-5.58008">
        <ele>44.84</ele>
        <time>2021-03-20T17:15:09Z</time>
      </trkpt>
      <trkpt lat="56.88094" lon="-5.57989">
        <ele>44.45</ele>
        <time>2021-03-20T17:15:11Z</time>
      </trkpt>
      <trkpt lat="56.88072" lon="-5.57972">
        <ele>41.98</ele>
        <time>2021-03-20T17:15:14Z</time>
      </trkpt>
      <trkpt lat="56.87999" lon="-5.57939">
        <ele>33.15</ele>
        <time>2021-03-20T17:15:16Z</time>
      </trkpt>
      <trkpt lat="56.87971" lon="-5.57919">
        <ele>32.03</ele>
        <time>2021-03-20T17:15:19Z</time>
      </trkpt>
      <trkpt lat="56.87899" lon="-5.57854">
        <ele>32.35</ele>
        <time>2021-03-20T17:15:21Z</time>
      </trkpt>
      <trkpt lat="56.87865" lon="-5.57815">
        <ele>33.39</ele>
        <time>2021-03-20T17:15:24Z</time>
      </trkpt>
      <trkpt lat="56.87855" lon="-5.57799">
        <ele>34.47</ele>
        <time>2021-03-20T17:15:26Z</time>
      </trkpt>
      <trkpt lat="56.87845" lon="-5.57775">
        <ele>35.63</ele>
        <time>2021-03-20T17:15:28Z</time>
      </trkpt>
      <trkpt lat="56.87836" lon="-5.57744">
        <ele>36.02</ele>
        <time>2021-03-20T17:15:31Z</time>
      </trkpt>
      <trkpt lat="56.8783" lon="-5.57703">
        <ele>35.74</ele>
        <time>2021-03-20T17:15:33Z</time>
      </trkpt>
      <trkpt lat="56.87827" lon="-5.57655">
        <ele>36.78</ele>
        <time>2021-03-20T17:15:36Z</time>
      </trkpt>
      <trkpt lat="56.87817" lon="-5.57292">
        <ele>35.77</ele>
        <time>2021-03-20T17:15:38Z</time>
      </trkpt>
      <trkpt lat="56.87817" lon="-5.57209">
        <ele>35.42</ele>
        <time>2021-03-20T17:15:41Z</time>
      </trkpt>
      <trkpt lat="56.8782" lon="-5.57155">
        <ele>36.53</ele>
        <time>2021-03-20T17:15:43Z</time>
      </trkpt>
      <trkpt lat="56.8783" lon="-5.57051">
        <ele>37.72</ele>
        <time>2021-03-20T17:15:46Z</time>
      </trkpt>
      <trkpt lat="56.87836" lon="-5.56997">
        <ele>39.44</ele>
        <time>2021-03-20T17:15:48Z</time>
      </trkpt>
      <trkpt lat="56.87842" lon="-5.56959">
        <ele>40.54</ele>
        <time>2021-03-20T17:15:51Z</time>
      </trkpt>
      <trkpt lat="56.87886" lon="-5.5678">
        <ele>42.83</ele>
        <time>2021-03-20T17:15:53Z</time>
      </trkpt>
      <trkpt lat="56.87937" lon="-5.5661">
        <ele>41.38</ele>
        <time>2021-03-20T17:15:56Z</time>
      </trkpt>
      <trkpt lat="56.87945" lon="-5.56557">
        <ele>37.28</ele>
        <time>2021-03-20T17:15:58Z</time>
      </trkpt>
      <trkpt lat="56.87944" lon="-5.56507">
        <ele>35.25</ele>
        <time>2021-03-20T17:16:01Z</time>
      </trkpt>
      <trkpt lat="56.8791" lon="-5.56261">
        <ele>37.95</ele>
        <time>2021-03-20T17:16:03Z</time>
      </trkpt>
      <trkpt lat="56.87908" lon="-5.56235">
        <ele>37.72</ele>
        <time>2021-03-20T17:16:06Z</time>
      </trkpt>
      <trkpt lat="56.87908" lon="-5.56206">
        <ele>38.51</ele>
        <time>2021-03-20T17:16:08Z</time>
      </trkpt>
      <trkpt lat="56.87917" lon="-5.56134">
        <ele>41.19</ele>
        <time>2021-03-20T17:16:11Z</time>
      </trkpt>
      <trkpt lat="56.87916" lon="-5.56088">
        <ele>42.06</ele>
        <time>2021-03-20T17:16:13Z</time>
      </trkpt>
      <trkpt lat="56.87914" lon="-5.56067">
        <ele>42.56</ele>
        <time>2021-03-20T17:16:16Z</time>
      </trkpt>
      <trkpt lat="56.87909" lon="-5.56039">
        <ele>44.03</ele>
        <time>2021-03-20T17:16:18Z</time>
      </trkpt>
      <trkpt lat="56.87864" lon="-5.55852">
        <ele>42.4</ele>
        <time>2021-03-20T17:16:21Z</time>
      </trkpt>
      <trkpt lat="56.87855" lon="-5.558">
        <ele>40.65</ele>
        <time>2021-03-20T17:16:23Z</time>
      </trkpt>
      <trkpt lat="56.87836" lon="-5.55636">
        <ele>38.51</ele>
        <time>2021-03-20T17:16:25Z</time>
      </trkpt>
      <trkpt lat="56.87828" lon="-5.55551">
        <ele>41.06</ele>
        <time>2021-03-20T17:16:28Z</time>
      </trkpt>
      <trkpt lat="56.87827" lon="-5.55514">
        <ele>40.95</ele>
        <time>2021-03-20T17:16:30Z</time>
      </trkpt>
      <trkpt lat="56.87828" lon="-5.55478">
        <ele>41.24</ele>
        <time>2021-03-20T17:16:33Z</time>
      </trkpt>
      <trkpt lat="56.87845" lon="-5.55312">
        <ele>45.3</ele>
        <time>2021-03-20T17:16:35Z</time>
      </trkpt>
      <trkpt lat="56.87847" lon="-5.55266">
        <ele>47.22</ele>
        <time>2021-03-20T17:16:38Z</time>
      </trkpt>
      <trkpt lat="56.87845" lon="-5.55242">
        <ele>47.67</ele>
        <time>2021-03-20T17:16:40Z</time>
      </trkpt>
      <trkpt lat="56.87841" lon="-5.55219">
        <ele>47.54</ele>
        <time>2021-03-20T17:16:43Z</time>
      </trkpt>
      <trkpt lat="56.87834" lon="-5.55192">
        <ele>47.34</ele>
        <time>2021-03-20T17:16:45Z</time>
      </trkpt>
      <trkpt lat="56.87817" lon="-5.55155">
        <ele>47.71</ele>
        <time>2021-03-20T17:16:48Z</time>
      </trkpt>
      <trkpt lat="56.87736" lon="-5.54993">
        <ele>41.5</ele>
        <time>2021-03-20T17:16:50Z</time>
      </trkpt>
      <trkpt lat="56.87722" lon="-5.54951">
        <ele>38.85</ele>
        <time>2021-03-20T17:16:53Z</time>
      </trkpt>
      <trkpt lat="56.87706" lon="-5.54858">
        <ele>41.72</ele>
        <time>2021-03-20T17:16:55Z</time>
      </trkpt>
      <trkpt lat="56.877" lon="-5.54815">
        <ele>42.43</ele>
        <time>2021-03-20T17:16:58Z</time>
      </trkpt>
      <trkpt lat="56.87699" lon="-5.54784">
        <ele>45.17</ele>
        <time>2021-03-20T17:17:00Z</time>
      </trkpt>
      <trkpt lat="56.877" lon="-5.54757">
        <ele>46.9</ele>
        <time>2021-03-20T17:17:03Z</time>
      </trkpt>
      <trkpt lat="56.87714" lon="-5.54645">
        <ele>50.88</ele>
        <time>2021-03-20T17:17:05Z</time>
      </trkpt>
      <trkpt lat="56.87714" lon="-5.54616">
        <ele>48.41</ele>
        <time>2021-03-20T17:17:08Z</time>
      </trkpt>
      <trkpt lat="56.87713" lon="-5.54588">
        <ele>46.62</ele>
        <time>2021-03-20T17:17:10Z</time>
      </trkpt>
      <trkpt lat="56.87702" lon="-5.54543">
        <ele>42.48</ele>
        <time>2021-03-20T17:17:13Z</time>
      </trkpt>
      <trkpt lat="56.87631" lon="-5.5437">
        <ele>45.13</ele>
        <time>2021-03-20T17:17:15Z</time>
      </trkpt>
      <trkpt lat="56.87623" lon="-5.54353">
        <ele>41.65</ele>
        <time>2021-03-20T17:17:18Z</time>
      </trkpt>
      <trkpt lat="56.8761" lon="-5.54335">
        <ele>39.7</ele>
        <time>2021-03-20T17:17:20Z</time>
      </trkpt>
      <trkpt lat="56.876" lon="-5.54325">
        <ele>36.13</ele>
        <time>2021-03-20T17:17:22Z</time>
      </trkpt>
      <trkpt lat="56.87582" lon="-5.54312">
        <ele>33.65</ele>
        <time>2021-03-20T17:17:25Z</time>
      </trkpt>
      <trkpt lat="56.87529" lon="-5.54284">
        <ele>32.02</ele>
        <time>2021-03-20T17:17:27Z</time>
      </trkpt>
      <trkpt lat="56.87517" lon="-5.54274">
        <ele>32</ele>
        <time>2021-03-20T17:17:30Z</time>
      </trkpt>
      <trkpt lat="56.87504" lon="-5.54255">
        <ele>32</ele>
        <time>2021-03-20T17:17:32Z</time>
      </trkpt>
      <trkpt lat="56.87494" lon="-5.54236">
        <ele>32.28</ele>
        <time>2021-03-20T17:17:35Z</time>
      </trkpt>
      <trkpt lat="56.87486" lon="-5.54212">
        <ele>32.88</ele>
        <time>2021-03-20T17:17:37Z</time>
      </trkpt>
      <trkpt lat="56.87483" lon="-5.54183">
        <ele>33.78</ele>
        <time>2021-03-20T17:17:40Z</time>
      </trkpt>
      <trkpt lat="56.87483" lon="-5.54154">
        <ele>34.83</ele>
        <time>2021-03-20T17:17:42Z</time>
      </trkpt>
      <trkpt lat="56.87485" lon="-5.54125">
        <ele>36.2</ele>
        <time>2021-03-20T17:17:45Z</time>
      </trkpt>
      <trkpt lat="56.87524" lon="-5.53933">
        <ele>39.84</ele>
        <time>2021-03-20T17:17:47Z</time>
      </trkpt>
      <trkpt lat="56.87533" lon="-5.53896">
        <ele>39.98</ele>
        <time>2021-03-20T17:17:50Z</time>
      </trkpt>
      <trkpt lat="56.87545" lon="-5.53862">
        <ele>42.97</ele>
        <time>2021-03-20T17:17:52Z</time>
      </trkpt>
      <trkpt lat="56.87576" lon="-5.53793">
        <ele>45.04</ele>
        <time>2021-03-20T17:17:55Z</time>
      </trkpt>
      <trkpt lat="56.87586" lon="-5.53767">
        <ele>43.46</ele>
        <time>2021-03-20T17:17:57Z</time>
      </trkpt>
      <trkpt lat="56.87593" lon="-5.53742">
        <ele>42.34</ele>
        <time>2021-03-20T17:18:00Z</time>
      </trkpt>
      <trkpt lat="56.87598" lon="-5.53713">
        <ele>40.83</ele>
        <time>2021-03-20T17:18:02Z</time>
      </trkpt>
      <trkpt lat="56.87604" lon="-5.53393">
        <ele>37.06</ele>
        <time>2021-03-20T17:18:05Z</time>
      </trkpt>
      <trkpt lat="56.87606" lon="-5.53363">
        <ele>37.44</ele>
        <time>2021-03-20T17:18:07Z</time>
      </trkpt>
      <trkpt lat="56.87611" lon="-5.53331">
        <ele>38.85</ele>
        <time>2021-03-20T17:18:10Z</time>
      </trkpt>
      <trkpt lat="56.87624" lon="-5.53278">
        <ele>39.29</ele>
        <time>2021-03-20T17:18:12Z</time>
      </trkpt>
      <trkpt lat="56.87662" lon="-5.53166">
        <ele>42.24</ele>
        <time>2021-03-20T17:18:15Z</time>
      </trkpt>
      <trkpt lat="56.87707" lon="-5.53025">
        <ele>51.05</ele>
        <time>2021-03-20T17:18:17Z</time>
      </trkpt>
      <trkpt lat="56.87716" lon="-5.52983">
        <ele>52.73</ele>
        <time>2021-03-20T17:18:19Z</time>
      </trkpt>
      <trkpt lat="56.87748" lon="-5.52549">
        <ele>71.7</ele>
        <time>2021-03-20T17:18:22Z</time>
      </trkpt>
      <trkpt lat="56.87749" lon="-5.5248">
        <ele>75.94</ele>
        <time>2021-03-20T17:18:24Z</time>
      </trkpt>
      <trkpt lat="56.87745" lon="-5.52437">
        <ele>79.53</ele>
        <time>2021-03-20T17:18:27Z</time>
      </trkpt>
      <trkpt lat="56.87724" lon="-5.52343">
        <ele>86.4</ele>
        <time>2021-03-20T17:18:29Z</time>
      </trkpt>
      <trkpt lat="56.87717" lon="-5.52323">
        <ele>87.79</ele>
        <time>2021-03-20T17:18:32Z</time>
      </trkpt>
      <trkpt lat="56.87706" lon="-5.52302">
        <ele>87.47</ele>
        <time>2021-03-20T17:18:34Z</time>
      </trkpt>
      <trkpt lat="56.87675" lon="-5.52261">
        <ele>79.9</ele>
        <time>2021-03-20T17:18:37Z</time>
      </trkpt>
      <trkpt lat="56.87666" lon="-5.52245">
        <ele>78.95</ele>
        <time>2021-03-20T17:18:39Z</time>
      </trkpt>
      <trkpt lat="56.87658" lon="-5.52224">
        <ele>80.97</ele>
        <time>2021-03-20T17:18:42Z</time>
      </trkpt>
      <trkpt lat="56.87653" lon="-5.52198">
        <ele>83.51</ele>
        <time>2021-03-20T17:18:44Z</time>
      </trkpt>
      <trkpt lat="56.87637" lon="-5.52095">
        <ele>95.65</ele>
        <time>2021-03-20T17:18:47Z</time>
      </trkpt>
      <trkpt lat="56.87632" lon="-5.52077">
        <ele>96.26</ele>
        <time>2021-03-20T17:18:49Z</time>
      </trkpt>
      <trkpt lat="56.87622" lon="-5.52058">
        <ele>95.93</ele>
        <time>2021-03-20T17:18:52Z</time>
      </trkpt>
      <trkpt lat="56.87614" lon="-5.52049">
        <ele>94.68</ele>
        <time>2021-03-20T17:18:54Z</time>
      </trkpt>
      <trkpt lat="56.87603" lon="-5.52044">
        <ele>93.38</ele>
        <time>2021-03-20T17:18:57Z</time>
      </trkpt>
      <trkpt lat="56.87587" lon="-5.52044">
        <ele>90.58</ele>
        <time>2021-03-20T17:18:59Z</time>
      </trkpt>
      <trkpt lat="56.87564" lon="-5.5205">
        <ele>89.58</ele>
        <time>2021-03-20T17:19:02Z</time>
      </trkpt>
      <trkpt lat="56.87506" lon="-5.52071">
        <ele>89.18</ele>
        <time>2021-03-20T17:19:04Z</time>
      </trkpt>
      <trkpt lat="56.87484" lon="-5.52075">
        <ele>91.44</ele>
        <time>2021-03-20T17:19:07Z</time>
      </trkpt>
      <trkpt lat="56.87475" lon="-5.52071">
        <ele>93.39</ele>
        <time>2021-03-20T17:19:09Z</time>
      </trkpt>
      <trkpt lat="56.87466" lon="-5.52063">
        <ele>96.23</ele>
        <time>2021-03-20T17:19:12Z</time>
      </trkpt>
      <trkpt lat="56.87457" lon="-5.52051">
        <ele>99.06</ele>
        <time>2021-03-20T17:19:14Z</time>
      </trkpt>
      <trkpt lat="56.87448" lon="-5.52031">
        <ele>101.6</ele>
        <time>2021-03-20T17:19:16Z</time>
      </trkpt>
      <trkpt lat="56.87426" lon="-5.51971">
        <ele>105.76</ele>
        <time>2021-03-20T17:19:19Z</time>
      </trkpt>
      <trkpt lat="56.87412" lon="-5.51946">
        <ele>105.78</ele>
        <time>2021-03-20T17:19:21Z</time>
      </trkpt>
      <trkpt lat="56.87365" lon="-5.51876">
        <ele>109.66</ele>
        <time>2021-03-20T17:19:24Z</time>
      </trkpt>
      <trkpt lat="56.87355" lon="-5.51858">
        <ele>110.1</ele>
        <time>2021-03-20T17:19:26Z</time>
      </trkpt>
      <trkpt lat="56.87344" lon="-5.5183">
        <ele>109.93</ele>
        <time>2021-03-20T17:19:29Z</time>
      </trkpt>
      <trkpt lat="56.87338" lon="-5.51807">
        <ele>109.34</ele>
        <time>2021-03-20T17:19:31Z</time>
      </trkpt>
      <trkpt lat="56.87335" lon="-5.51783">
        <ele>109.39</ele>
        <time>2021-03-20T17:19:34Z</time>
      </trkpt>
      <trkpt lat="56.87335" lon="-5.51757">
        <ele>110.38</ele>
        <time>2021-03-20T17:19:36Z</time>
      </trkpt>
      <trkpt lat="56.87339" lon="-5.51731">
        <ele>112.24</ele>
        <time>2021-03-20T17:19:39Z</time>
      </trkpt>
      <trkpt lat="56.87346" lon="-5.51695">
        <ele>114.62</ele>
        <time>2021-03-20T17:19:41Z</time>
      </trkpt>
      <trkpt lat="56.87356" lon="-5.51652">
        <ele>116.83</ele>
        <time>2021-03-20T17:19:44Z</time>
      </trkpt>
      <trkpt lat="56.87376" lon="-5.51581">
        <ele>118.57</ele>
        <time>2021-03-20T17:19:46Z</time>
      </trkpt>
      <trkpt lat="56.87437" lon="-5.51416">
        <ele>129.16</ele>
        <time>2021-03-20T17:19:49Z</time>
      </trkpt>
      <trkpt lat="56.8753" lon="-5.51151">
        <ele>118.52</ele>
        <time>2021-03-20T17:19:51Z</time>
      </trkpt>
      <trkpt lat="56.87543" lon="-5.51107">
        <ele>121.17</ele>
        <time>2021-03-20T17:19:54Z</time>
      </trkpt>
      <trkpt lat="56.87556" lon="-5.51042">
        <ele>119.71</ele>
        <time>2021-03-20T17:19:56Z</time>
      </trkpt>
      <trkpt lat="56.8757" lon="-5.5095">
        <ele>113.99</ele>
        <time>2021-03-20T17:19:59Z</time>
      </trkpt>
      <trkpt lat="56.87574" lon="-5.50907">
        <ele>114.96</ele>
        <time>2021-03-20T17:20:01Z</time>
      </trkpt>
      <trkpt lat="56.87583" lon="-5.50745">
        <ele>118.58</ele>
        <time>2021-03-20T17:20:04Z</time>
      </trkpt>
      <trkpt lat="56.87583" lon="-5.50681">
        <ele>116.54</ele>
        <time>2021-03-20T17:20:06Z</time>
      </trkpt>
      <trkpt lat="56.87583" lon="-5.50612">
        <ele>113.82</ele>
        <time>2021-03-20T17:20:08Z</time>
      </trkpt>
      <trkpt lat="56.87576" lon="-5.50499">
        <ele>108.75</ele>
        <time>2021-03-20T17:20:11Z</time>
      </trkpt>
      <trkpt lat="56.87563" lon="-5.50403">
        <ele>107.75</ele>
        <time>2021-03-20T17:20:13Z</time>
      </trkpt>
      <trkpt lat="56.87562" lon="-5.50373">
        <ele>108.02</ele>
        <time>2021-03-20T17:20:16Z</time>
      </trkpt>
      <trkpt lat="56.87563" lon="-5.50251">
        <ele>111.03</ele>
        <time>2021-03-20T17:20:18Z</time>
      </trkpt>
      <trkpt lat="56.87566" lon="-5.50199">
        <ele>111.3</ele>
        <time>2021-03-20T17:20:21Z</time>
      </trkpt>
      <trkpt lat="56.8761" lon="-5.4976">
        <ele>111.36</ele>
        <time>2021-03-20T17:20:23Z</time>
      </trkpt>
      <trkpt lat="56.87615" lon="-5.49716">
        <ele>109.58</ele>
        <time>2021-03-20T17:20:26Z</time>
      </trkpt>
      <trkpt lat="56.87627" lon="-5.49665">
        <ele>108.28</ele>
        <time>2021-03-20T17:20:28Z</time>
      </trkpt>
      <trkpt lat="56.87659" lon="-5.49558">
        <ele>107.39</ele>
        <time>2021-03-20T17:20:31Z</time>
      </trkpt>
      <trkpt lat="56.87678" lon="-5.49433">
        <ele>105.68</ele>
        <time>2021-03-20T17:20:33Z</time>
      </trkpt>
      <trkpt lat="56.87692" lon="-5.49385">
        <ele>106.21</ele>
        <time>2021-03-20T17:20:36Z</time>
      </trkpt>
      <trkpt lat="56.87789" lon="-5.49175">
        <ele>115.38</ele>
        <time>2021-03-20T17:20:38Z</time>
      </trkpt>
      <trkpt lat="56.87803" lon="-5.49139">
        <ele>115.6</ele>
        <time>2021-03-20T17:20:41Z</time>
      </trkpt>
      <trkpt lat="56.87809" lon="-5.49113">
        <ele>114.75</ele>
        <time>2021-03-20T17:20:43Z</time>
      </trkpt>
      <trkpt lat="56.87815" lon="-5.4908">
        <ele>113.33</ele>
        <time>2021-03-20T17:20:46Z</time>
      </trkpt>
      <trkpt lat="56.8784" lon="-5.48761">
        <ele>110.75</ele>
        <time>2021-03-20T17:20:48Z</time>
      </trkpt>
      <trkpt lat="56.87843" lon="-5.48705">
        <ele>110.04</ele>
        <time>2021-03-20T17:20:51Z</time>
      </trkpt>
      <trkpt lat="56.87852" lon="-5.48265">
        <ele>94.69</ele>
        <time>2021-03-20T17:20:53Z</time>
      </trkpt>
      <trkpt lat="56.87863" lon="-5.4788">
        <ele>92.8</ele>
        <time>2021-03-20T17:20:56Z</time>
      </trkpt>
      <trkpt lat="56.87862" lon="-5.47843">
        <ele>94.5</ele>
        <time>2021-03-20T17:20:58Z</time>
      </trkpt>
      <trkpt lat="56.87857" lon="-5.47804">
        <ele>95.36</ele>
        <time>2021-03-20T17:21:01Z</time>
      </trkpt>
      <trkpt lat="56.87841" lon="-5.47719">
        <ele>95.61</ele>
        <time>2021-03-20T17:21:03Z</time>
      </trkpt>
      <trkpt lat="56.87836" lon="-5.47686">
        <ele>94.69</ele>
        <time>2021-03-20T17:21:05Z</time>
      </trkpt>
      <trkpt lat="56.87835" lon="-5.47658">
        <ele>94.36</ele>
        <time>2021-03-20T17:21:08Z</time>
      </trkpt>
      <trkpt lat="56.87835" lon="-5.47626">
        <ele>94.38</ele>
        <time>2021-03-20T17:21:10Z</time>
      </trkpt>
      <trkpt lat="56.87842" lon="-5.47501">
        <ele>91.28</ele>
        <time>2021-03-20T17:21:13Z</time>
      </trkpt>
      <trkpt lat="56.87841" lon="-5.4738">
        <ele>90.39</ele>
        <time>2021-03-20T17:21:15Z</time>
      </trkpt>
      <trkpt lat="56.87839" lon="-5.47291">
        <ele>91.44</ele>
        <time>2021-03-20T17:21:18Z</time>
      </trkpt>
      <trkpt lat="56.87836" lon="-5.47269">
        <ele>91.54</ele>
        <time>2021-03-20T17:21:20Z</time>
      </trkpt>
      <trkpt lat="56.87821" lon="-5.47174">
        <ele>91.35</ele>
        <time>2021-03-20T17:21:23Z</time>
      </trkpt>
      <trkpt lat="56.87808" lon="-5.4711">
        <ele>93.39</ele>
        <time>2021-03-20T17:21:25Z</time>
      </trkpt>
      <trkpt lat="56.87797" lon="-5.47068">
        <ele>95.52</ele>
        <time>2021-03-20T17:21:28Z</time>
      </trkpt>
      <trkpt lat="56.87782" lon="-5.47029">
        <ele>96.5</ele>
        <time>2021-03-20T17:21:30Z</time>
      </trkpt>
      <trkpt lat="56.87721" lon="-5.46902">
        <ele>93.46</ele>
        <time>2021-03-20T17:21:33Z</time>
      </trkpt>
      <trkpt lat="56.87711" lon="-5.46873">
        <ele>94.49</ele>
        <time>2021-03-20T17:21:35Z</time>
      </trkpt>
      <trkpt lat="56.87704" lon="-5.46841">
        <ele>94.96</ele>
        <time>2021-03-20T17:21:38Z</time>
      </trkpt>
      <trkpt lat="56.87699" lon="-5.4681">
        <ele>94.81</ele>
        <time>2021-03-20T17:21:40Z</time>
      </trkpt>
      <trkpt lat="56.87698" lon="-5.46755">
        <ele>93.04</ele>
        <time>2021-03-20T17:21:43Z</time>
      </trkpt>
      <trkpt lat="56.87707" lon="-5.46624">
        <ele>92.25</ele>
        <time>2021-03-20T17:21:45Z</time>
      </trkpt>
      <trkpt lat="56.87708" lon="-5.46535">
        <ele>92.14</ele>
        <time>2021-03-20T17:21:48Z</time>
      </trkpt>
      <trkpt lat="56.87706" lon="-5.46456">
        <ele>90.75</ele>
        <time>2021-03-20T17:21:50Z</time>
      </trkpt>
      <trkpt lat="56.87702" lon="-5.46423">
        <ele>90.23</ele>
        <time>2021-03-20T17:21:53Z</time>
      </trkpt>
      <trkpt lat="56.87681" lon="-5.46315">
        <ele>91</ele>
        <time>2021-03-20T17:21:55Z</time>
      </trkpt>
      <trkpt lat="56.87641" lon="-5.46122">
        <ele>90.77</ele>
        <time>2021-03-20T17:21:58Z</time>
      </trkpt>
      <trkpt lat="56.87632" lon="-5.46096">
        <ele>91.17</ele>
        <time>2021-03-20T17:22:00Z</time>
      </trkpt>
      <trkpt lat="56.87621" lon="-5.46074">
        <ele>91.31</ele>
        <time>2021-03-20T17:22:02Z</time>
      </trkpt>
      <trkpt lat="56.87571" lon="-5.46008">
        <ele>85.84</ele>
        <time>2021-03-20T17:22:05Z</time>
      </trkpt>
      <trkpt lat="56.87561" lon="-5.45986">
        <ele>84.81</ele>
        <time>2021-03-20T17:22:07Z</time>
      </trkpt>
      <trkpt lat="56.87503" lon="-5.45815">
        <ele>83.26</ele>
        <time>2021-03-20T17:22:10Z</time>
      </trkpt>
      <trkpt lat="56.87494" lon="-5.45794">
        <ele>82.93</ele>
        <time>2021-03-20T17:22:12Z</time>
      </trkpt>
      <trkpt lat="56.87484" lon="-5.45777">
        <ele>81.94</ele>
        <time>2021-03-20T17:22:15Z</time>
      </trkpt>
      <trkpt lat="56.87462" lon="-5.45759">
        <ele>78.45</ele>
        <time>2021-03-20T17:22:17Z</time>
      </trkpt>
      <trkpt lat="56.87426" lon="-5.45739">
        <ele>74.19</ele>
        <time>2021-03-20T17:22:20Z</time>
      </trkpt>
      <trkpt lat="56.87409" lon="-5.45725">
        <ele>72.8</ele>
        <time>2021-03-20T17:22:22Z</time>
      </trkpt>
      <trkpt lat="56.87399" lon="-5.45709">
        <ele>72.06</ele>
        <time>2021-03-20T17:22:25Z</time>
      </trkpt>
      <trkpt lat="56.87391" lon="-5.4569">
        <ele>70.86</ele>
        <time>2021-03-20T17:22:27Z</time>
      </trkpt>
      <trkpt lat="56.87387" lon="-5.45672">
        <ele>69.22</ele>
        <time>2021-03-20T17:22:30Z</time>
      </trkpt>
      <trkpt lat="56.87374" lon="-5.45541">
        <ele>65.82</ele>
        <time>2021-03-20T17:22:32Z</time>
      </trkpt>
      <trkpt lat="56.87367" lon="-5.45514">
        <ele>64.63</ele>
        <time>2021-03-20T17:22:35Z</time>
      </trkpt>
      <trkpt lat="56.87321" lon="-5.45374">
        <ele>55.23</ele>
        <time>2021-03-20T17:22:37Z</time>
      </trkpt>
      <trkpt lat="56.87284" lon="-5.45246">
        <ele>51.44</ele>
        <time>2021-03-20T17:22:40Z</time>
      </trkpt>
      <trkpt lat="56.87254" lon="-5.45151">
        <ele>53.9</ele>
        <time>2021-03-20T17:22:42Z</time>
      </trkpt>
      <trkpt lat="56.87237" lon="-5.45108">
        <ele>54.28</ele>
        <time>2021-03-20T17:22:45Z</time>
      </trkpt>
      <trkpt lat="56.87205" lon="-5.45043">
        <ele>52.44</ele>
        <time>2021-03-20T17:22:47Z</time>
      </trkpt>
      <trkpt lat="56.87185" lon="-5.44994">
        <ele>51.33</ele>
        <time>2021-03-20T17:22:50Z</time>
      </trkpt>
      <trkpt lat="56.87171" lon="-5.44954">
        <ele>50.35</ele>
        <time>2021-03-20T17:22:52Z</time>
      </trkpt>
      <trkpt lat="56.87162" lon="-5.44917">
        <ele>49.04</ele>
        <time>2021-03-20T17:22:55Z</time>
      </trkpt>
      <trkpt lat="56.87157" lon="-5.44877">
        <ele>48.95</ele>
        <time>2021-03-20T17:22:57Z</time>
      </trkpt>
      <trkpt lat="56.87152" lon="-5.44792">
        <ele>47.54</ele>
        <time>2021-03-20T17:22:59Z</time>
      </trkpt>
      <trkpt lat="56.87151" lon="-5.4456">
        <ele>44.18</ele>
        <time>2021-03-20T17:23:02Z</time>
      </trkpt>
      <trkpt lat="56.87148" lon="-5.4452">
        <ele>42.54</ele>
        <time>2021-03-20T17:23:04Z</time>
      </trkpt>
      <trkpt lat="56.8714" lon="-5.44446">
        <ele>40.12</ele>
        <time>2021-03-20T17:23:07Z</time>
      </trkpt>
      <trkpt lat="56.87139" lon="-5.44421">
        <ele>40.07</ele>
        <time>2021-03-20T17:23:09Z</time>
      </trkpt>
      <trkpt lat="56.87144" lon="-5.44382">
        <ele>40.6</ele>
        <time>2021-03-20T17:23:12Z</time>
      </trkpt>
      <trkpt lat="56.8715" lon="-5.44358">
        <ele>40.78</ele>
        <time>2021-03-20T17:23:14Z</time>
      </trkpt>
      <trkpt lat="56.87159" lon="-5.44333">
        <ele>40.8</ele>
        <time>2021-03-20T17:23:17Z</time>
      </trkpt>
      <trkpt lat="56.87187" lon="-5.44263">
        <ele>40.83</ele>
        <time>2021-03-20T17:23:19Z</time>
      </trkpt>
      <trkpt lat="56.87194" lon="-5.4424">
        <ele>39.48</ele>
        <time>2021-03-20T17:23:22Z</time>
      </trkpt>
      <trkpt lat="56.87199" lon="-5.44205">
        <ele>37.26</ele>
        <time>2021-03-20T17:23:24Z</time>
      </trkpt>
      <trkpt lat="56.87199" lon="-5.44178">
        <ele>35.53</ele>
        <time>2021-03-20T17:23:27Z</time>
      </trkpt>
      <trkpt lat="56.87194" lon="-5.44149">
        <ele>33.97</ele>
        <time>2021-03-20T17:23:29Z</time>
      </trkpt>
      <trkpt lat="56.87175" lon="-5.44066">
        <ele>29.79</ele>
        <time>2021-03-20T17:23:32Z</time>
      </trkpt>
      <trkpt lat="56.87166" lon="-5.44015">
        <ele>27.73</ele>
        <time>2021-03-20T17:23:34Z</time>
      </trkpt>
      <trkpt lat="56.87161" lon="-5.43972">
        <ele>24.86</ele>
        <time>2021-03-20T17:23:37Z</time>
      </trkpt>
      <trkpt lat="56.8716" lon="-5.4388">
        <ele>18.19</ele>
        <time>2021-03-20T17:23:39Z</time>
      </trkpt>
      <trkpt lat="56.87157" lon="-5.43846">
        <ele>16.2</ele>
        <time>2021-03-20T17:23:42Z</time>
      </trkpt>
      <trkpt lat="56.87149" lon="-5.43813">
        <ele>14.74</ele>
        <time>2021-03-20T17:23:44Z</time>
      </trkpt>
      <trkpt lat="56.87041" lon="-5.43575">
        <ele>6.61</ele>
        <time>2021-03-20T17:23:47Z</time>
      </trkpt>
      <trkpt lat="56.87012" lon="-5.4352">
        <ele>8.09</ele>
        <time>2021-03-20T17:23:49Z</time>
      </trkpt>
      <trkpt lat="56.86999" lon="-5.43505">
        <ele>8.6</ele>
        <time>2021-03-20T17:23:52Z</time>
      </trkpt>
      <trkpt lat="56.86917" lon="-5.43447">
        <ele>10.22</ele>
        <time>2021-03-20T17:23:54Z</time>
      </trkpt>
      <trkpt lat="56.86917" lon="-5.43447">
        <ele>10.22</ele>
        <time>2021-03-20T17:23:54Z</time>
      </trkpt>
      <trkpt lat="56.86999" lon="-5.43505">
        <ele>8.6</ele>
        <time>2021-03-20T17:23:57Z</time>
      </trkpt>
      <trkpt lat="56.87012" lon="-5.4352">
        <ele>8.09</ele>
        <time>2021-03-20T17:23:59Z</time>
      </trkpt>
      <trkpt lat="56.87041" lon="-5.43575">
        <ele>6.61</ele>
        <time>2021-03-20T17:24:02Z</time>
      </trkpt>
      <trkpt lat="56.87149" lon="-5.43813">
        <ele>14.74</ele>
        <time>2021-03-20T17:24:05Z</time>
      </trkpt>
      <trkpt lat="56.87157" lon="-5.43846">
        <ele>16.2</ele>
        <time>2021-03-20T17:24:08Z</time>
      </trkpt>
      <trkpt lat="56.8716" lon="-5.4388">
        <ele>18.19</ele>
        <time>2021-03-20T17:24:10Z</time>
      </trkpt>
      <trkpt lat="56.87161" lon="-5.43972">
        <ele>24.86</ele>
        <time>2021-03-20T17:24:13Z</time>
      </trkpt>
      <trkpt lat="56.87166" lon="-5.44015">
        <ele>27.73</ele>
        <time>2021-03-20T17:24:16Z</time>
      </trkpt>
      <trkpt lat="56.87175" lon="-5.44066">
        <ele>29.79</ele>
        <time>2021-03-20T17:24:18Z</time>
      </trkpt>
      <trkpt lat="56.87194" lon="-5.44149">
        <ele>33.97</ele>
        <time>2021-03-20T17:24:21Z</time>
      </trkpt>
      <trkpt lat="56.87199" lon="-5.44178">
        <ele>35.53</ele>
        <time>2021-03-20T17:24:24Z</time>
      </trkpt>
      <trkpt lat="56.87199" lon="-5.44205">
        <ele>37.26</ele>
        <time>2021-03-20T17:24:27Z</time>
      </trkpt>
      <trkpt lat="56.87194" lon="-5.4424">
        <ele>39.48</ele>
        <time>2021-03-20T17:24:29Z</time>
      </trkpt>
      <trkpt lat="56.87187" lon="-5.44263">
        <ele>40.83</ele>
        <time>2021-03-20T17:24:32Z</time>
      </trkpt>
      <trkpt lat="56.87159" lon="-5.44333">
        <ele>40.8</ele>
        <time>2021-03-20T17:24:35Z</time>
      </trkpt>
      <trkpt lat="56.8715" lon="-5.44358">
        <ele>40.78</ele>
        <time>2021-03-20T17:24:38Z</time>
      </trkpt>
      <trkpt lat="56.87144" lon="-5.44382">
        <ele>40.6</ele>
        <time>2021-03-20T17:24:40Z</time>
      </trkpt>
      <trkpt lat="56.87139" lon="-5.44421">
        <ele>40.07</ele>
        <time>2021-03-20T17:24:43Z</time>
      </trkpt>
      <trkpt lat="56.8714" lon="-5.44446">
        <ele>40.12</ele>
        <time>2021-03-20T17:24:46Z</time>
      </trkpt>
      <trkpt lat="56.87148" lon="-5.4452">
        <ele>42.54</ele>
        <time>2021-03-20T17:24:48Z</time>
      </trkpt>
      <trkpt lat="56.87151" lon="-5.4456">
        <ele>44.18</ele>
        <time>2021-03-20T17:24:51Z</time>
      </trkpt>
      <trkpt lat="56.87152" lon="-5.44792">
        <ele>47.54</ele>
        <time>2021-03-20T17:24:54Z</time>
      </trkpt>
      <trkpt lat="56.87157" lon="-5.44877">
        <ele>48.95</ele>
        <time>2021-03-20T17:24:57Z</time>
      </trkpt>
      <trkpt lat="56.87162" lon="-5.44917">
        <ele>49.04</ele>
        <time>2021-03-20T17:24:59Z</time>
      </trkpt>
      <trkpt lat="56.87171" lon="-5.44954">
        <ele>50.35</ele>
        <time>2021-03-20T17:25:02Z</time>
      </trkpt>
      <trkpt lat="56.87185" lon="-5.44994">
        <ele>51.33</ele>
        <time>2021-03-20T17:25:05Z</time>
      </trkpt>
      <trkpt lat="56.87205" lon="-5.45043">
        <ele>52.44</ele>
        <time>2021-03-20T17:25:07Z</time>
      </trkpt>
      <trkpt lat="56.87237" lon="-5.45108">
        <ele>54.28</ele>
        <time>2021-03-20T17:25:10Z</time>
      </trkpt>
      <trkpt lat="56.87254" lon="-5.45151">
        <ele>53.9</ele>
        <time>2021-03-20T17:25:13Z</time>
      </trkpt>
      <trkpt lat="56.87284" lon="-5.45246">
        <ele>51.44</ele>
        <time>2021-03-20T17:25:16Z</time>
      </trkpt>
      <trkpt lat="56.87321" lon="-5.45374">
        <ele>55.23</ele>
        <time>2021-03-20T17:25:18Z</time>
      </trkpt>
      <trkpt lat="56.87367" lon="-5.45514">
        <ele>64.63</ele>
        <time>2021-03-20T17:25:21Z</time>
      </trkpt>
      <trkpt lat="56.87374" lon="-5.45541">
        <ele>65.82</ele>
        <time>2021-03-20T17:25:24Z</time>
      </trkpt>
      <trkpt lat="56.87387" lon="-5.45672">
        <ele>69.22</ele>
        <time>2021-03-20T17:25:26Z</time>
      </trkpt>
      <trkpt lat="56.87391" lon="-5.4569">
        <ele>70.86</ele>
        <time>2021-03-20T17:25:29Z</time>
      </trkpt>
      <trkpt lat="56.87399" lon="-5.45709">
        <ele>72.06</ele>
        <time>2021-03-20T17:25:32Z</time>
      </trkpt>
      <trkpt lat="56.87409" lon="-5.45725">
        <ele>72.8</ele>
        <time>2021-03-20T17:25:35Z</time>
      </trkpt>
      <trkpt lat="56.87426" lon="-5.45739">
        <ele>74.19</ele>
        <time>2021-03-20T17:25:37Z</time>
      </trkpt>
      <trkpt lat="56.87462" lon="-5.45759">
        <ele>78.45</ele>
        <time>2021-03-20T17:25:40Z</time>
      </trkpt>
      <trkpt lat="56.87484" lon="-5.45777">
        <ele>81.94</ele>
        <time>2021-03-20T17:25:43Z</time>
      </trkpt>
      <trkpt lat="56.87494" lon="-5.45794">
        <ele>82.93</ele>
        <time>2021-03-20T17:25:46Z</time>
      </trkpt>
      <trkpt lat="56.87503" lon="-5.45815">
        <ele>83.26</ele>
        <time>2021-03-20T17:25:48Z</time>
      </trkpt>
      <trkpt lat="56.87561" lon="-5.45986">
        <ele>84.81</ele>
        <time>2021-03-20T17:25:51Z</time>
      </trkpt>
      <trkpt lat="56.87571" lon="-5.46008">
        <ele>85.84</ele>
        <time>2021-03-20T17:25:54Z</time>
      </trkpt>
      <trkpt lat="56.87621" lon="-5.46074">
        <ele>91.31</ele>
        <time>2021-03-20T17:25:56Z</time>
      </trkpt>
      <trkpt lat="56.87632" lon="-5.46096">
        <ele>91.17</ele>
        <time>2021-03-20T17:25:59Z</time>
      </trkpt>
      <trkpt lat="56.87641" lon="-5.46122">
        <ele>90.77</ele>
        <time>2021-03-20T17:26:02Z</time>
      </trkpt>
      <trkpt lat="56.87681" lon="-5.46315">
        <ele>91</ele>
        <time>2021-03-20T17:26:05Z</time>
      </trkpt>
      <trkpt lat="56.87702" lon="-5.46423">
        <ele>90.23</ele>
        <time>2021-03-20T17:26:07Z</time>
      </trkpt>
      <trkpt lat="56.87706" lon="-5.46456">
        <ele>90.75</ele>
        <time>2021-03-20T17:26:10Z</time>
      </trkpt>
      <trkpt lat="56.87708" lon="-5.46535">
        <ele>92.14</ele>
        <time>2021-03-20T17:26:13Z</time>
      </trkpt>
      <trkpt lat="56.87707" lon="-5.46624">
        <ele>92.25</ele>
        <time>2021-03-20T17:26:15Z</time>
      </trkpt>
      <trkpt lat="56.87698" lon="-5.46755">
        <ele>93.04</ele>
        <time>2021-03-20T17:26:18Z</time>
      </trkpt>
      <trkpt lat="56.87699" lon="-5.4681">
        <ele>94.81</ele>
        <time>2021-03-20T17:26:21Z</time>
      </trkpt>
      <trkpt lat="56.87704" lon="-5.46841">
        <ele>94.96</ele>
        <time>2021-03-20T17:26:24Z</time>
      </trkpt>
      <trkpt lat="56.87711" lon="-5.46873">
        <ele>94.49</ele>
        <time>2021-03-20T17:26:26Z</time>
      </trkpt>
      <trkpt lat="56.87721" lon="-5.46902">
        <ele>93.46</ele>
        <time>2021-03-20T17:26:29Z</time>
      </trkpt>
      <trkpt lat="56.87782" lon="-5.47029">
        <ele>96.5</ele>
        <time>2021-03-20T17:26:32Z</time>
      </trkpt>
      <trkpt lat="56.87797" lon="-5.47068">
        <ele>95.52</ele>
        <time>2021-03-20T17:26:34Z</time>
      </trkpt>
      <trkpt lat="56.87808" lon="-5.4711">
        <ele>93.39</ele>
        <time>2021-03-20T17:26:37Z</time>
      </trkpt>
      <trkpt lat="56.87821" lon="-5.47174">
        <ele>91.35</ele>
        <time>2021-03-20T17:26:40Z</time>
      </trkpt>
      <trkpt lat="56.87836" lon="-5.47269">
        <ele>91.54</ele>
        <time>2021-03-20T17:26:43Z</time>
      </trkpt>
      <trkpt lat="56.87839" lon="-5.47291">
        <ele>91.44</ele>
        <time>2021-03-20T17:26:45Z</time>
      </trkpt>
      <trkpt lat="56.87841" lon="-5.4738">
        <ele>90.39</ele>
        <time>2021-03-20T17:26:48Z</time>
      </trkpt>
      <trkpt lat="56.87842" lon="-5.47501">
        <ele>91.28</ele>
        <time>2021-03-20T17:26:51Z</time>
      </trkpt>
      <trkpt lat="56.87835" lon="-5.47626">
        <ele>94.38</ele>
        <time>2021-03-20T17:26:53Z</time>
      </trkpt>
      <trkpt lat="56.87835" lon="-5.47658">
        <ele>94.36</ele>
        <time>2021-03-20T17:26:56Z</time>
      </trkpt>
      <trkpt lat="56.87836" lon="-5.47686">
        <ele>94.69</ele>
        <time>2021-03-20T17:26:59Z</time>
      </trkpt>
      <trkpt lat="56.87841" lon="-5.47719">
        <ele>95.61</ele>
        <time>2021-03-20T17:27:02Z</time>
      </trkpt>
      <trkpt lat="56.87857" lon="-5.47804">
        <ele>95.36</ele>
        <time>2021-03-20T17:27:04Z</time>
      </trkpt>
      <trkpt lat="56.87862" lon="-5.47843">
        <ele>94.5</ele>
        <time>2021-03-20T17:27:07Z</time>
      </trkpt>
      <trkpt lat="56.87863" lon="-5.4788">
        <ele>92.8</ele>
        <time>2021-03-20T17:27:10Z</time>
      </trkpt>
      <trkpt lat="56.87852" lon="-5.48265">
        <ele>94.69</ele>
        <time>2021-03-20T17:27:13Z</time>
      </trkpt>
      <trkpt lat="56.87843" lon="-5.48705">
        <ele>110.04</ele>
        <time>2021-03-20T17:27:15Z</time>
      </trkpt>
      <trkpt lat="56.8784" lon="-5.48761">
        <ele>110.75</ele>
        <time>2021-03-20T17:27:18Z</time>
      </trkpt>
      <trkpt lat="56.87815" lon="-5.4908">
        <ele>113.33</ele>
        <time>2021-03-20T17:27:21Z</time>
      </trkpt>
      <trkpt lat="56.87809" lon="-5.49113">
        <ele>114.75</ele>
        <time>2021-03-20T17:27:23Z</time>
      </trkpt>
      <trkpt lat="56.87803" lon="-5.49139">
        <ele>115.6</ele>
        <time>2021-03-20T17:27:26Z</time>
      </trkpt>
      <trkpt lat="56.87789" lon="-5.49175">
        <ele>115.38</ele>
        <time>2021-03-20T17:27:29Z</time>
      </trkpt>
      <trkpt lat="56.87692" lon="-5.49385">
        <ele>106.21</ele>
        <time>2021-03-20T17:27:32Z</time>
      </trkpt>
      <trkpt lat="56.87678" lon="-5.49433">
        <ele>105.68</ele>
        <time>2021-03-20T17:27:34Z</time>
      </trkpt>
      <trkpt lat="56.87659" lon="-5.49558">
        <ele>107.39</ele>
        <time>2021-03-20T17:27:37Z</time>
      </trkpt>
      <trkpt lat="56.87627" lon="-5.49665">
        <ele>108.28</ele>
        <time>2021-03-20T17:27:40Z</time>
      </trkpt>
      <trkpt lat="56.87615" lon="-5.49716">
        <ele>109.58</ele>
        <time>2021-03-20T17:27:42Z</time>
      </trkpt>
      <trkpt lat="56.8761" lon="-5.4976">
        <ele>111.36</ele>
        <time>2021-03-20T17:27:45Z</time>
      </trkpt>
      <trkpt lat="56.87566" lon="-5.50199">
        <ele>111.3</ele>
        <time>2021-03-20T17:27:48Z</time>
      </trkpt>
      <trkpt lat="56.87563" lon="-5.50251">
        <ele>111.03</ele>
        <time>2021-03-20T17:27:51Z</time>
      </trkpt>
      <trkpt lat="56.87562" lon="-5.50373">
        <ele>108.02</ele>
        <time>2021-03-20T17:27:53Z</time>
      </trkpt>
      <trkpt lat="56.87563" lon="-5.50403">
        <ele>107.75</ele>
        <time>2021-03-20T17:27:56Z</time>
      </trkpt>
      <trkpt lat="56.87576" lon="-5.50499">
        <ele>108.75</ele>
        <time>2021-03-20T17:27:59Z</time>
      </trkpt>
      <trkpt lat="56.87583" lon="-5.50612">
        <ele>113.82</ele>
        <time>2021-03-20T17:28:01Z</time>
      </trkpt>
      <trkpt lat="56.87583" lon="-5.50681">
        <ele>116.54</ele>
        <time>2021-03-20T17:28:04Z</time>
      </trkpt>
      <trkpt lat="56.87583" lon="-5.50745">
        <ele>118.58</ele>
        <time>2021-03-20T17:28:07Z</time>
      </trkpt>
      <trkpt lat="56.87574" lon="-5.50907">
        <ele>114.96</ele>
        <time>2021-03-20T17:28:10Z</time>
      </trkpt>
      <trkpt lat="56.8757" lon="-5.5095">
        <ele>113.99</ele>
        <time>2021-03-20T17:28:12Z</time>
      </trkpt>
      <trkpt lat="56.87556" lon="-5.51042">
        <ele>119.71</ele>
        <time>2021-03-20T17:28:15Z</time>
      </trkpt>
      <trkpt lat="56.87543" lon="-5.51107">
        <ele>121.17</ele>
        <time>2021-03-20T17:28:18Z</time>
      </trkpt>
      <trkpt lat="56.8753" lon="-5.51151">
        <ele>118.52</ele>
        <time>2021-03-20T17:28:20Z</time>
      </trkpt>
      <trkpt lat="56.87437" lon="-5.51416">
        <ele>129.16</ele>
        <time>2021-03-20T17:28:23Z</time>
      </trkpt>
      <trkpt lat="56.87376" lon="-5.51581">
        <ele>118.57</ele>
        <time>2021-03-20T17:28:26Z</time>
      </trkpt>
      <trkpt lat="56.87356" lon="-5.51652">
        <ele>116.83</ele>
        <time>2021-03-20T17:28:29Z</time>
      </trkpt>
      <trkpt lat="56.87346" lon="-5.51695">
        <ele>114.62</ele>
        <time>2021-03-20T17:28:31Z</time>
      </trkpt>
      <trkpt lat="56.87339" lon="-5.51731">
        <ele>112.24</ele>
        <time>2021-03-20T17:28:34Z</time>
      </trkpt>
      <trkpt lat="56.87335" lon="-5.51757">
        <ele>110.38</ele>
        <time>2021-03-20T17:28:37Z</time>
      </trkpt>
      <trkpt lat="56.87335" lon="-5.51783">
        <ele>109.39</ele>
        <time>2021-03-20T17:28:40Z</time>
      </trkpt>
      <trkpt lat="56.87338" lon="-5.51807">
        <ele>109.34</ele>
        <time>2021-03-20T17:28:42Z</time>
      </trkpt>
      <trkpt lat="56.87344" lon="-5.5183">
        <ele>109.93</ele>
        <time>2021-03-20T17:28:45Z</time>
      </trkpt>
      <trkpt lat="56.87355" lon="-5.51858">
        <ele>110.1</ele>
        <time>2021-03-20T17:28:48Z</time>
      </trkpt>
      <trkpt lat="56.87365" lon="-5.51876">
        <ele>109.66</ele>
        <time>2021-03-20T17:28:50Z</time>
      </trkpt>
      <trkpt lat="56.87412" lon="-5.51946">
        <ele>105.78</ele>
        <time>2021-03-20T17:28:53Z</time>
      </trkpt>
      <trkpt lat="56.87426" lon="-5.51971">
        <ele>105.76</ele>
        <time>2021-03-20T17:28:56Z</time>
      </trkpt>
      <trkpt lat="56.87448" lon="-5.52031">
        <ele>101.6</ele>
        <time>2021-03-20T17:28:59Z</time>
      </trkpt>
      <trkpt lat="56.87457" lon="-5.52051">
        <ele>99.06</ele>
        <time>2021-03-20T17:29:01Z</time>
      </trkpt>
      <trkpt lat="56.87466" lon="-5.52063">
        <ele>96.23</ele>
        <time>2021-03-20T17:29:04Z</time>
      </trkpt>
      <trkpt lat="56.87475" lon="-5.52071">
        <ele>93.39</ele>
        <time>2021-03-20T17:29:07Z</time>
      </trkpt>
      <trkpt lat="56.87484" lon="-5.52075">
        <ele>91.44</ele>
        <time>2021-03-20T17:29:09Z</time>
      </trkpt>
      <trkpt lat="56.87506" lon="-5.52071">
        <ele>89.18</ele>
        <time>2021-03-20T17:29:12Z</time>
      </trkpt>
      <trkpt lat="56.87564" lon="-5.5205">
        <ele>89.58</ele>
        <time>2021-03-20T17:29:15Z</time>
      </trkpt>
      <trkpt lat="56.87587" lon="-5.52044">
        <ele>90.58</ele>
        <time>2021-03-20T17:29:18Z</time>
      </trkpt>
      <trkpt lat="56.87603" lon="-5.52044">
        <ele>93.38</ele>
        <time>2021-03-20T17:29:20Z</time>
      </trkpt>
      <trkpt lat="56.87614" lon="-5.52049">
        <ele>94.68</ele>
        <time>2021-03-20T17:29:23Z</time>
      </trkpt>
      <trkpt lat="56.87622" lon="-5.52058">
        <ele>95.93</ele>
        <time>2021-03-20T17:29:26Z</time>
      </trkpt>
      <trkpt lat="56.87632" lon="-5.52077">
        <ele>96.26</ele>
        <time>2021-03-20T17:29:28Z</time>
      </trkpt>
      <trkpt lat="56.87637" lon="-5.52095">
        <ele>95.65</ele>
        <time>2021-03-20T17:29:31Z</time>
      </trkpt>
      <trkpt lat="56.87653" lon="-5.52198">
        <ele>83.51</ele>
        <time>2021-03-20T17:29:34Z</time>
      </trkpt>
      <trkpt lat="56.87658" lon="-5.52224">
        <ele>80.97</ele>
        <time>2021-03-20T17:29:37Z</time>
      </trkpt>
      <trkpt lat="56.87666" lon="-5.52245">
        <ele>78.95</ele>
        <time>2021-03-20T17:29:39Z</time>
      </trkpt>
      <trkpt lat="56.87675" lon="-5.52261">
        <ele>79.9</ele>
        <time>2021-03-20T17:29:42Z</time>
      </trkpt>
      <trkpt lat="56.87706" lon="-5.52302">
        <ele>87.47</ele>
        <time>2021-03-20T17:29:45Z</time>
      </trkpt>
      <trkpt lat="56.87717" lon="-5.52323">
        <ele>87.79</ele>
        <time>2021-03-20T17:29:47Z</time>
      </trkpt>
      <trkpt lat="56.87724" lon="-5.52343">
        <ele>86.4</ele>
        <time>2021-03-20T17:29:50Z</time>
      </trkpt>
      <trkpt lat="56.87745" lon="-5.52437">
        <ele>79.53</ele>
        <time>2021-03-20T17:29:53Z</time>
      </trkpt>
      <trkpt lat="56.87749" lon="-5.5248">
        <ele>75.94</ele>
        <time>2021-03-20T17:29:56Z</time>
      </trkpt>
      <trkpt lat="56.87748" lon="-5.52549">
        <ele>71.7</ele>
        <time>2021-03-20T17:29:58Z</time>
      </trkpt>
      <trkpt lat="56.87716" lon="-5.52983">
        <ele>52.73</ele>
        <time>2021-03-20T17:30:01Z</time>
      </trkpt>
      <trkpt lat="56.87707" lon="-5.53025">
        <ele>51.05</ele>
        <time>2021-03-20T17:30:04Z</time>
      </trkpt>
      <trkpt lat="56.87662" lon="-5.53166">
        <ele>42.24</ele>
        <time>2021-03-20T17:30:07Z</time>
      </trkpt>
      <trkpt lat="56.87624" lon="-5.53278">
        <ele>39.29</ele>
        <time>2021-03-20T17:30:09Z</time>
      </trkpt>
      <trkpt lat="56.87611" lon="-5.53331">
        <ele>38.85</ele>
        <time>2021-03-20T17:30:12Z</time>
      </trkpt>
      <trkpt lat="56.87606" lon="-5.53363">
        <ele>37.44</ele>
        <time>2021-03-20T17:30:15Z</time>
      </trkpt>
      <trkpt lat="56.87604" lon="-5.53393">
        <ele>37.06</ele>
        <time>2021-03-20T17:30:17Z</time>
      </trkpt>
      <trkpt lat="56.87598" lon="-5.53713">
        <ele>40.83</ele>
        <time>2021-03-20T17:30:20Z</time>
      </trkpt>
      <trkpt lat="56.87593" lon="-5.53742">
        <ele>42.34</ele>
        <time>2021-03-20T17:30:23Z</time>
      </trkpt>
      <trkpt lat="56.87586" lon="-5.53767">
        <ele>43.46</ele>
        <time>2021-03-20T17:30:26Z</time>
      </trkpt>
      <trkpt lat="56.87576" lon="-5.53793">
        <ele>45.04</ele>
        <time>2021-03-20T17:30:28Z</time>
      </trkpt>
      <trkpt lat="56.87545" lon="-5.53862">
        <ele>42.97</ele>
        <time>2021-03-20T17:30:31Z</time>
      </trkpt>
      <trkpt lat="56.87533" lon="-5.53896">
        <ele>39.98</ele>
        <time>2021-03-20T17:30:34Z</time>
      </trkpt>
      <trkpt lat="56.87524" lon="-5.53933">
        <ele>39.84</ele>
        <time>2021-03-20T17:30:36Z</time>
      </trkpt>
      <trkpt lat="56.87485" lon="-5.54125">
        <ele>36.2</ele>
        <time>2021-03-20T17:30:39Z</time>
      </trkpt>
      <trkpt lat="56.87483" lon="-5.54154">
        <ele>34.83</ele>
        <time>2021-03-20T17:30:42Z</time>
      </trkpt>
      <trkpt lat="56.87483" lon="-5.54183">
        <ele>33.78</ele>
        <time>2021-03-20T17:30:45Z</time>
      </trkpt>
      <trkpt lat="56.87486" lon="-5.54212">
        <ele>32.88</ele>
        <time>2021-03-20T17:30:47Z</time>
      </trkpt>
      <trkpt lat="56.87494" lon="-5.54236">
        <ele>32.28</ele>
        <time>2021-03-20T17:30:50Z</time>
      </trkpt>
      <trkpt lat="56.87504" lon="-5.54255">
        <ele>32</ele>
        <time>2021-03-20T17:30:53Z</time>
      </trkpt>
      <trkpt lat="56.87517" lon="-5.54274">
        <ele>32</ele>
        <time>2021-03-20T17:30:55Z</time>
      </trkpt>
      <trkpt lat="56.87529" lon="-5.54284">
        <ele>32.02</ele>
        <time>2021-03-20T17:30:58Z</time>
      </trkpt>
      <trkpt lat="56.87582" lon="-5.54312">
        <ele>33.65</ele>
        <time>2021-03-20T17:31:01Z</time>
      </trkpt>
      <trkpt lat="56.876" lon="-5.54325">
        <ele>36.13</ele>
        <time>2021-03-20T17:31:04Z</time>
      </trkpt>
      <trkpt lat="56.8761" lon="-5.54335">
        <ele>39.7</ele>
        <time>2021-03-20T17:31:06Z</time>
      </trkpt>
      <trkpt lat="56.87623" lon="-5.54353">
        <ele>41.65</ele>
        <time>2021-03-20T17:31:09Z</time>
      </trkpt>
      <trkpt lat="56.87631" lon="-5.5437">
        <ele>45.13</ele>
        <time>2021-03-20T17:31:12Z</time>
      </trkpt>
      <trkpt lat="56.87702" lon="-5.54543">
        <ele>42.48</ele>
        <time>2021-03-20T17:31:15Z</time>
      </trkpt>
      <trkpt lat="56.87713" lon="-5.54588">
        <ele>46.62</ele>
        <time>2021-03-20T17:31:17Z</time>
      </trkpt>
      <trkpt lat="56.87714" lon="-5.54616">
        <ele>48.41</ele>
        <time>2021-03-20T17:31:20Z</time>
      </trkpt>
      <trkpt lat="56.87714" lon="-5.54645">
        <ele>50.88</ele>
        <time>2021-03-20T17:31:23Z</time>
      </trkpt>
      <trkpt lat="56.877" lon="-5.54757">
        <ele>46.9</ele>
        <time>2021-03-20T17:31:25Z</time>
      </trkpt>
      <trkpt lat="56.87699" lon="-5.54784">
        <ele>45.17</ele>
        <time>2021-03-20T17:31:28Z</time>
      </trkpt>
      <trkpt lat="56.877" lon="-5.54815">
        <ele>42.43</ele>
        <time>2021-03-20T17:31:31Z</time>
      </trkpt>
      <trkpt lat="56.87706" lon="-5.54858">
        <ele>41.72</ele>
        <time>2021-03-20T17:31:34Z</time>
      </trkpt>
      <trkpt lat="56.87722" lon="-5.54951">
        <ele>38.85</ele>
        <time>2021-03-20T17:31:36Z</time>
      </trkpt>
      <trkpt lat="56.87736" lon="-5.54993">
        <ele>41.5</ele>
        <time>2021-03-20T17:31:39Z</time>
      </trkpt>
      <trkpt lat="56.87817" lon="-5.55155">
        <ele>47.71</ele>
        <time>2021-03-20T17:31:42Z</time>
      </trkpt>
      <trkpt lat="56.87834" lon="-5.55192">
        <ele>47.34</ele>
        <time>2021-03-20T17:31:44Z</time>
      </trkpt>
      <trkpt lat="56.87841" lon="-5.55219">
        <ele>47.54</ele>
        <time>2021-03-20T17:31:47Z</time>
      </trkpt>
      <trkpt lat="56.87845" lon="-5.55242">
        <ele>47.67</ele>
        <time>2021-03-20T17:31:50Z</time>
      </trkpt>
      <trkpt lat="56.87847" lon="-5.55266">
        <ele>47.22</ele>
        <time>2021-03-20T17:31:53Z</time>
      </trkpt>
      <trkpt lat="56.87845" lon="-5.55312">
        <ele>45.3</ele>
        <time>2021-03-20T17:31:55Z</time>
      </trkpt>
      <trkpt lat="56.87828" lon="-5.55478">
        <ele>41.24</ele>
        <time>2021-03-20T17:31:58Z</time>
      </trkpt>
      <trkpt lat="56.87827" lon="-5.55514">
        <ele>40.95</ele>
        <time>2021-03-20T17:32:01Z</time>
      </trkpt>
      <trkpt lat="56.87828" lon="-5.55551">
        <ele>41.06</ele>
        <time>2021-03-20T17:32:03Z</time>
      </trkpt>
      <trkpt lat="56.87836" lon="-5.55636">
        <ele>38.51</ele>
        <time>2021-03-20T17:32:06Z</time>
      </trkpt>
      <trkpt lat="56.87855" lon="-5.558">
        <ele>40.65</ele>
        <time>2021-03-20T17:32:09Z</time>
      </trkpt>
      <trkpt lat="56.87864" lon="-5.55852">
        <ele>42.4</ele>
        <time>2021-03-20T17:32:12Z</time>
      </trkpt>
      <trkpt lat="56.87909" lon="-5.56039">
        <ele>44.03</ele>
        <time>2021-03-20T17:32:14Z</time>
      </trkpt>
      <trkpt lat="56.87914" lon="-5.56067">
        <ele>42.56</ele>
        <time>2021-03-20T17:32:17Z</time>
      </trkpt>
      <trkpt lat="56.87916" lon="-5.56088">
        <ele>42.06</ele>
        <time>2021-03-20T17:32:20Z</time>
      </trkpt>
      <trkpt lat="56.87917" lon="-5.56134">
        <ele>41.19</ele>
        <time>2021-03-20T17:32:22Z</time>
      </trkpt>
      <trkpt lat="56.87908" lon="-5.56206">
        <ele>38.51</ele>
        <time>2021-03-20T17:32:25Z</time>
      </trkpt>
      <trkpt lat="56.87908" lon="-5.56235">
        <ele>37.72</ele>
        <time>2021-03-20T17:32:28Z</time>
      </trkpt>
      <trkpt lat="56.8791" lon="-5.56261">
        <ele>37.95</ele>
        <time>2021-03-20T17:32:31Z</time>
      </trkpt>
      <trkpt lat="56.87944" lon="-5.56507">
        <ele>35.25</ele>
        <time>2021-03-20T17:32:33Z</time>
      </trkpt>
      <trkpt lat="56.87945" lon="-5.56557">
        <ele>37.28</ele>
        <time>2021-03-20T17:32:36Z</time>
      </trkpt>
      <trkpt lat="56.87937" lon="-5.5661">
        <ele>41.38</ele>
        <time>2021-03-20T17:32:39Z</time>
      </trkpt>
      <trkpt lat="56.87886" lon="-5.5678">
        <ele>42.83</ele>
        <time>2021-03-20T17:32:42Z</time>
      </trkpt>
      <trkpt lat="56.87842" lon="-5.56959">
        <ele>40.54</ele>
        <time>2021-03-20T17:32:44Z</time>
      </trkpt>
      <trkpt lat="56.87836" lon="-5.56997">
        <ele>39.44</ele>
        <time>2021-03-20T17:32:47Z</time>
      </trkpt>
      <trkpt lat="56.8783" lon="-5.57051">
        <ele>37.72</ele>
        <time>2021-03-20T17:32:50Z</time>
      </trkpt>
      <trkpt lat="56.8782" lon="-5.57155">
        <ele>36.53</ele>
        <time>2021-03-20T17:32:52Z</time>
      </trkpt>
      <trkpt lat="56.87817" lon="-5.57209">
        <ele>35.42</ele>
        <time>2021-03-20T17:32:55Z</time>
      </trkpt>
      <trkpt lat="56.87817" lon="-5.57292">
        <ele>35.77</ele>
        <time>2021-03-20T17:32:58Z</time>
      </trkpt>
      <trkpt lat="56.87827" lon="-5.57655">
        <ele>36.78</ele>
        <time>2021-03-20T17:33:01Z</time>
      </trkpt>
      <trkpt lat="56.8783" lon="-5.57703">
        <ele>35.74</ele>
        <time>2021-03-20T17:33:03Z</time>
      </trkpt>
      <trkpt lat="56.87836" lon="-5.57744">
        <ele>36.02</ele>
        <time>2021-03-20T17:33:06Z</time>
      </trkpt>
      <trkpt lat="56.87845" lon="-5.57775">
        <ele>35.63</ele>
        <time>2021-03-20T17:33:09Z</time>
      </trkpt>
      <trkpt lat="56.87855" lon="-5.57799">
        <ele>34.47</ele>
        <time>2021-03-20T17:33:11Z</time>
      </trkpt>
      <trkpt lat="56.87865" lon="-5.57815">
        <ele>33.39</ele>
        <time>2021-03-20T17:33:14Z</time>
      </trkpt>
      <trkpt lat="56.87899" lon="-5.57854">
        <ele>32.35</ele>
        <time>2021-03-20T17:33:17Z</time>
      </trkpt>
      <trkpt lat="56.87971" lon="-5.57919">
        <ele>32.03</ele>
        <time>2021-03-20T17:33:20Z</time>
      </trkpt>
      <trkpt lat="56.87999" lon="-5.57939">
        <ele>33.15</ele>
        <time>2021-03-20T17:33:22Z</time>
      </trkpt>
      <trkpt lat="56.88072" lon="-5.57972">
        <ele>41.98</ele>
        <time>2021-03-20T17:33:25Z</time>
      </trkpt>
      <trkpt lat="56.88094" lon="-5.57989">
        <ele>44.45</ele>
        <time>2021-03-20T17:33:28Z</time>
      </trkpt>
      <trkpt lat="56.88109" lon="-5.58008">
        <ele>44.84</ele>
        <time>2021-03-20T17:33:30Z</time>
      </trkpt>
      <trkpt lat="56.8812" lon="-5.58029">
        <ele>45.75</ele>
        <time>2021-03-20T17:33:33Z</time>
      </trkpt>
      <trkpt lat="56.88129" lon="-5.58056">
        <ele>45.82</ele>
        <time>2021-03-20T17:33:36Z</time>
      </trkpt>
      <trkpt lat="56.88135" lon="-5.58084">
        <ele>46.05</ele>
        <time>2021-03-20T17:33:39Z</time>
      </trkpt>
      <trkpt lat="56.88137" lon="-5.58125">
        <ele>44.71</ele>
        <time>2021-03-20T17:33:41Z</time>
      </trkpt>
      <trkpt lat="56.88137" lon="-5.58171">
        <ele>41.73</ele>
        <time>2021-03-20T17:33:44Z</time>
      </trkpt>
      <trkpt lat="56.88131" lon="-5.58252">
        <ele>38.84</ele>
        <time>2021-03-20T17:33:47Z</time>
      </trkpt>
      <trkpt lat="56.88132" lon="-5.58284">
        <ele>38.42</ele>
        <time>2021-03-20T17:33:49Z</time>
      </trkpt>
      <trkpt lat="56.88135" lon="-5.58311">
        <ele>39.6</ele>
        <time>2021-03-20T17:33:52Z</time>
      </trkpt>
      <trkpt lat="56.88144" lon="-5.58344">
        <ele>40.32</ele>
        <time>2021-03-20T17:33:55Z</time>
      </trkpt>
      <trkpt lat="56.88156" lon="-5.58376">
        <ele>41.45</ele>
        <time>2021-03-20T17:33:58Z</time>
      </trkpt>
      <trkpt lat="56.8827" lon="-5.5865">
        <ele>34.04</ele>
        <time>2021-03-20T17:34:00Z</time>
      </trkpt>
      <trkpt lat="56.8828" lon="-5.58687">
        <ele>34.91</ele>
        <time>2021-03-20T17:34:03Z</time>
      </trkpt>
      <trkpt lat="56.88288" lon="-5.58727">
        <ele>35.91</ele>
        <time>2021-03-20T17:34:06Z</time>
      </trkpt>
      <trkpt lat="56.88326" lon="-5.58973">
        <ele>38.99</ele>
        <time>2021-03-20T17:34:09Z</time>
      </trkpt>
      <trkpt lat="56.88342" lon="-5.59035">
        <ele>36.88</ele>
        <time>2021-03-20T17:34:11Z</time>
      </trkpt>
      <trkpt lat="56.88416" lon="-5.59309">
        <ele>36.97</ele>
        <time>2021-03-20T17:34:14Z</time>
      </trkpt>
      <trkpt lat="56.8844" lon="-5.59404">
        <ele>38.3</ele>
        <time>2021-03-20T17:34:17Z</time>
      </trkpt>
      <trkpt lat="56.88447" lon="-5.5945">
        <ele>38.1</ele>
        <time>2021-03-20T17:34:19Z</time>
      </trkpt>
      <trkpt lat="56.88448" lon="-5.59486">
        <ele>37.06</ele>
        <time>2021-03-20T17:34:22Z</time>
      </trkpt>
      <trkpt lat="56.88447" lon="-5.59524">
        <ele>35.64</ele>
        <time>2021-03-20T17:34:25Z</time>
      </trkpt>
      <trkpt lat="56.8844" lon="-5.59606">
        <ele>36.47</ele>
        <time>2021-03-20T17:34:28Z</time>
      </trkpt>
      <trkpt lat="56.88439" lon="-5.5965">
        <ele>36.8</ele>
        <time>2021-03-20T17:34:30Z</time>
      </trkpt>
      <trkpt lat="56.8844" lon="-5.59687">
        <ele>36.21</ele>
        <time>2021-03-20T17:34:33Z</time>
      </trkpt>
      <trkpt lat="56.88451" lon="-5.59826">
        <ele>38.25</ele>
        <time>2021-03-20T17:34:36Z</time>
      </trkpt>
      <trkpt lat="56.88451" lon="-5.59856">
        <ele>39.42</ele>
        <time>2021-03-20T17:34:38Z</time>
      </trkpt>
      <trkpt lat="56.88449" lon="-5.59885">
        <ele>40.08</ele>
        <time>2021-03-20T17:34:41Z</time>
      </trkpt>
      <trkpt lat="56.8844" lon="-5.59949">
        <ele>40.39</ele>
        <time>2021-03-20T17:34:44Z</time>
      </trkpt>
      <trkpt lat="56.8841" lon="-5.60083">
        <ele>41.09</ele>
        <time>2021-03-20T17:34:47Z</time>
      </trkpt>
      <trkpt lat="56.88374" lon="-5.6022">
        <ele>40.35</ele>
        <time>2021-03-20T17:34:49Z</time>
      </trkpt>
      <trkpt lat="56.88367" lon="-5.60257">
        <ele>40.96</ele>
        <time>2021-03-20T17:34:52Z</time>
      </trkpt>
      <trkpt lat="56.88362" lon="-5.60293">
        <ele>40.81</ele>
        <time>2021-03-20T17:34:55Z</time>
      </trkpt>
      <trkpt lat="56.88327" lon="-5.60645">
        <ele>41.66</ele>
        <time>2021-03-20T17:34:57Z</time>
      </trkpt>
      <trkpt lat="56.88323" lon="-5.60697">
        <ele>39.48</ele>
        <time>2021-03-20T17:35:00Z</time>
      </trkpt>
      <trkpt lat="56.88324" lon="-5.60737">
        <ele>37.72</ele>
        <time>2021-03-20T17:35:03Z</time>
      </trkpt>
      <trkpt lat="56.88326" lon="-5.60775">
        <ele>36.56</ele>
        <time>2021-03-20T17:35:06Z</time>
      </trkpt>
      <trkpt lat="56.88358" lon="-5.6102">
        <ele>35.79</ele>
        <time>2021-03-20T17:35:08Z</time>
      </trkpt>
      <trkpt lat="56.8836" lon="-5.61052">
        <ele>35.92</ele>
        <time>2021-03-20T17:35:11Z</time>
      </trkpt>
      <trkpt lat="56.88357" lon="-5.6111">
        <ele>34.85</ele>
        <time>2021-03-20T17:35:14Z</time>
      </trkpt>
      <trkpt lat="56.88347" lon="-5.61195">
        <ele>37.01</ele>
        <time>2021-03-20T17:35:16Z</time>
      </trkpt>
      <trkpt lat="56.88345" lon="-5.61223">
        <ele>34.46</ele>
        <time>2021-03-20T17:35:19Z</time>
      </trkpt>
      <trkpt lat="56.88345" lon="-5.61252">
        <ele>36.74</ele>
        <time>2021-03-20T17:35:22Z</time>
      </trkpt>
      <trkpt lat="56.88346" lon="-5.61278">
        <ele>36.08</ele>
        <time>2021-03-20T17:35:25Z</time>
      </trkpt>
      <trkpt lat="56.8835" lon="-5.61304">
        <ele>35.81</ele>
        <time>2021-03-20T17:35:27Z</time>
      </trkpt>
      <trkpt lat="56.88356" lon="-5.61329">
        <ele>35.23</ele>
        <time>2021-03-20T17:35:30Z</time>
      </trkpt>
      <trkpt lat="56.88365" lon="-5.61354">
        <ele>36.98</ele>
        <time>2021-03-20T17:35:33Z</time>
      </trkpt>
      <trkpt lat="56.88377" lon="-5.61384">
        <ele>35.91</ele>
        <time>2021-03-20T17:35:36Z</time>
      </trkpt>
      <trkpt lat="56.88446" lon="-5.61509">
        <ele>34.91</ele>
        <time>2021-03-20T17:35:38Z</time>
      </trkpt>
      <trkpt lat="56.88472" lon="-5.61561">
        <ele>35.78</ele>
        <time>2021-03-20T17:35:41Z</time>
      </trkpt>
      <trkpt lat="56.88488" lon="-5.61608">
        <ele>35.34</ele>
        <time>2021-03-20T17:35:44Z</time>
      </trkpt>
      <trkpt lat="56.88495" lon="-5.61637">
        <ele>34.87</ele>
        <time>2021-03-20T17:35:46Z</time>
      </trkpt>
      <trkpt lat="56.885" lon="-5.61666">
        <ele>34.05</ele>
        <time>2021-03-20T17:35:49Z</time>
      </trkpt>
      <trkpt lat="56.88505" lon="-5.61719">
        <ele>35.19</ele>
        <time>2021-03-20T17:35:52Z</time>
      </trkpt>
      <trkpt lat="56.88508" lon="-5.61775">
        <ele>35.55</ele>
        <time>2021-03-20T17:35:55Z</time>
      </trkpt>
      <trkpt lat="56.88512" lon="-5.61992">
        <ele>35.12</ele>
        <time>2021-03-20T17:35:57Z</time>
      </trkpt>
      <trkpt lat="56.88511" lon="-5.62032">
        <ele>35.44</ele>
        <time>2021-03-20T17:36:00Z</time>
      </trkpt>
      <trkpt lat="56.88506" lon="-5.62067">
        <ele>35.88</ele>
        <time>2021-03-20T17:36:03Z</time>
      </trkpt>
      <trkpt lat="56.884" lon="-5.62648">
        <ele>35</ele>
        <time>2021-03-20T17:36:05Z</time>
      </trkpt>
      <trkpt lat="56.88397" lon="-5.62742">
        <ele>36.84</ele>
        <time>2021-03-20T17:36:08Z</time>
      </trkpt>
      <trkpt lat="56.88394" lon="-5.62769">
        <ele>37.83</ele>
        <time>2021-03-20T17:36:11Z</time>
      </trkpt>
      <trkpt lat="56.88387" lon="-5.62798">
        <ele>38.99</ele>
        <time>2021-03-20T17:36:14Z</time>
      </trkpt>
      <trkpt lat="56.88337" lon="-5.62952">
        <ele>41.15</ele>
        <time>2021-03-20T17:36:16Z</time>
      </trkpt>
      <trkpt lat="56.88331" lon="-5.62976">
        <ele>41.75</ele>
        <time>2021-03-20T17:36:19Z</time>
      </trkpt>
      <trkpt lat="56.88328" lon="-5.63002">
        <ele>41.82</ele>
        <time>2021-03-20T17:36:22Z</time>
      </trkpt>
      <trkpt lat="56.88327" lon="-5.63023">
        <ele>40.1</ele>
        <time>2021-03-20T17:36:24Z</time>
      </trkpt>
      <trkpt lat="56.88329" lon="-5.63047">
        <ele>39.52</ele>
        <time>2021-03-20T17:36:27Z</time>
      </trkpt>
      <trkpt lat="56.88334" lon="-5.63069">
        <ele>38.69</ele>
        <time>2021-03-20T17:36:30Z</time>
      </trkpt>
      <trkpt lat="56.88343" lon="-5.63085">
        <ele>37.42</ele>
        <time>2021-03-20T17:36:33Z</time>
      </trkpt>
      <trkpt lat="56.88352" lon="-5.63096">
        <ele>36.64</ele>
        <time>2021-03-20T17:36:35Z</time>
      </trkpt>
      <trkpt lat="56.88363" lon="-5.63103">
        <ele>36.24</ele>
        <time>2021-03-20T17:36:38Z</time>
      </trkpt>
      <trkpt lat="56.88379" lon="-5.63106">
        <ele>36.56</ele>
        <time>2021-03-20T17:36:41Z</time>
      </trkpt>
      <trkpt lat="56.884" lon="-5.63103">
        <ele>38.1</ele>
        <time>2021-03-20T17:36:44Z</time>
      </trkpt>
      <trkpt lat="56.88461" lon="-5.63085">
        <ele>40.54</ele>
        <time>2021-03-20T17:36:46Z</time>
      </trkpt>
      <trkpt lat="56.8848" lon="-5.63084">
        <ele>39.35</ele>
        <time>2021-03-20T17:36:49Z</time>
      </trkpt>
      <trkpt lat="56.88496" lon="-5.63092">
        <ele>37.31</ele>
        <time>2021-03-20T17:36:52Z</time>
      </trkpt>
      <trkpt lat="56.88504" lon="-5.63101">
        <ele>36.08</ele>
        <time>2021-03-20T17:36:54Z</time>
      </trkpt>
      <trkpt lat="56.88512" lon="-5.63113">
        <ele>34.9</ele>
        <time>2021-03-20T17:36:57Z</time>
      </trkpt>
      <trkpt lat="56.88518" lon="-5.63126">
        <ele>34.1</ele>
        <time>2021-03-20T17:37:00Z</time>
      </trkpt>
      <trkpt lat="56.88526" lon="-5.63156">
        <ele>32.45</ele>
        <time>2021-03-20T17:37:03Z</time>
      </trkpt>
      <trkpt lat="56.88604" lon="-5.63493">
        <ele>22.82</ele>
        <time>2021-03-20T17:37:05Z</time>
      </trkpt>
      <trkpt lat="56.88615" lon="-5.63529">
        <ele>21.96</ele>
        <time>2021-03-20T17:37:08Z</time>
      </trkpt>
      <trkpt lat="56.88626" lon="-5.63554">
        <ele>21.55</ele>
        <time>2021-03-20T17:37:11Z</time>
      </trkpt>
      <trkpt lat="56.88697" lon="-5.63694">
        <ele>25.12</ele>
        <time>2021-03-20T17:37:13Z</time>
      </trkpt>
      <trkpt lat="56.88703" lon="-5.63715">
        <ele>24.81</ele>
        <time>2021-03-20T17:37:16Z</time>
      </trkpt>
      <trkpt lat="56.88708" lon="-5.6374">
        <ele>24.68</ele>
        <time>2021-03-20T17:37:19Z</time>
      </trkpt>
      <trkpt lat="56.88712" lon="-5.63772">
        <ele>24.88</ele>
        <time>2021-03-20T17:37:22Z</time>
      </trkpt>
      <trkpt lat="56.88712" lon="-5.63803">
        <ele>25.47</ele>
        <time>2021-03-20T17:37:24Z</time>
      </trkpt>
      <trkpt lat="56.88709" lon="-5.63831">
        <ele>25.6</ele>
        <time>2021-03-20T17:37:27Z</time>
      </trkpt>
      <trkpt lat="56.88691" lon="-5.63941">
        <ele>29.29</ele>
        <time>2021-03-20T17:37:30Z</time>
      </trkpt>
      <trkpt lat="56.88684" lon="-5.64039">
        <ele>30.41</ele>
        <time>2021-03-20T17:37:32Z</time>
      </trkpt>
      <trkpt lat="56.88679" lon="-5.64079">
        <ele>30.56</ele>
        <time>2021-03-20T17:37:35Z</time>
      </trkpt>
      <trkpt lat="56.88658" lon="-5.64217">
        <ele>32.44</ele>
        <time>2021-03-20T17:37:38Z</time>
      </trkpt>
      <trkpt lat="56.88641" lon="-5.64343">
        <ele>30.48</ele>
        <time>2021-03-20T17:37:41Z</time>
      </trkpt>
      <trkpt lat="56.886" lon="-5.6459">
        <ele>29.91</ele>
        <time>2021-03-20T17:37:43Z</time>
      </trkpt>
      <trkpt lat="56.88593" lon="-5.64649">
        <ele>29.71</ele>
        <time>2021-03-20T17:37:46Z</time>
      </trkpt>
      <trkpt lat="56.88578" lon="-5.64861">
        <ele>33.1</ele>
        <time>2021-03-20T17:37:49Z</time>
      </trkpt>
      <trkpt lat="56.88575" lon="-5.64889">
        <ele>32.85</ele>
        <time>2021-03-20T17:37:51Z</time>
      </trkpt>
      <trkpt lat="56.88569" lon="-5.64922">
        <ele>33.07</ele>
        <time>2021-03-20T17:37:54Z</time>
      </trkpt>
      <trkpt lat="56.88559" lon="-5.64969">
        <ele>32.55</ele>
        <time>2021-03-20T17:37:57Z</time>
      </trkpt>
      <trkpt lat="56.88525" lon="-5.65084">
        <ele>30.09</ele>
        <time>2021-03-20T17:38:00Z</time>
      </trkpt>
      <trkpt lat="56.88496" lon="-5.65192">
        <ele>25.06</ele>
        <time>2021-03-20T17:38:02Z</time>
      </trkpt>
      <trkpt lat="56.88453" lon="-5.65387">
        <ele>28.01</ele>
        <time>2021-03-20T17:38:05Z</time>
      </trkpt>
      <trkpt lat="56.88438" lon="-5.65434">
        <ele>28.32</ele>
        <time>2021-03-20T17:38:08Z</time>
      </trkpt>
      <trkpt lat="56.8833" lon="-5.65677">
        <ele>31.36</ele>
        <time>2021-03-20T17:38:11Z</time>
      </trkpt>
      <trkpt lat="56.88306" lon="-5.65738">
        <ele>31.65</ele>
        <time>2021-03-20T17:38:13Z</time>
      </trkpt>
      <trkpt lat="56.88295" lon="-5.65777">
        <ele>31.62</ele>
        <time>2021-03-20T17:38:16Z</time>
      </trkpt>
      <trkpt lat="56.8828" lon="-5.65848">
        <ele>29.58</ele>
        <time>2021-03-20T17:38:19Z</time>
      </trkpt>
      <trkpt lat="56.88238" lon="-5.66109">
        <ele>27.19</ele>
        <time>2021-03-20T17:38:21Z</time>
      </trkpt>
      <trkpt lat="56.88226" lon="-5.66169">
        <ele>25.5</ele>
        <time>2021-03-20T17:38:24Z</time>
      </trkpt>
      <trkpt lat="56.88216" lon="-5.66201">
        <ele>26.81</ele>
        <time>2021-03-20T17:38:27Z</time>
      </trkpt>
      <trkpt lat="56.88202" lon="-5.66229">
        <ele>27.05</ele>
        <time>2021-03-20T17:38:30Z</time>
      </trkpt>
      <trkpt lat="56.88182" lon="-5.66253">
        <ele>27.57</ele>
        <time>2021-03-20T17:38:32Z</time>
      </trkpt>
      <trkpt lat="56.88159" lon="-5.66276">
        <ele>26.89</ele>
        <time>2021-03-20T17:38:35Z</time>
      </trkpt>
      <trkpt lat="56.88101" lon="-5.66315">
        <ele>27.88</ele>
        <time>2021-03-20T17:38:38Z</time>
      </trkpt>
      <trkpt lat="56.88031" lon="-5.66357">
        <ele>26.65</ele>
        <time>2021-03-20T17:38:40Z</time>
      </trkpt>
      <trkpt lat="56.88008" lon="-5.66374">
        <ele>25.92</ele>
        <time>2021-03-20T17:38:43Z</time>
      </trkpt>
      <trkpt lat="56.8799" lon="-5.66391">
        <ele>25.79</ele>
        <time>2021-03-20T17:38:46Z</time>
      </trkpt>
      <trkpt lat="56.87972" lon="-5.66414">
        <ele>26.6</ele>
        <time>2021-03-20T17:38:49Z</time>
      </trkpt>
      <trkpt lat="56.87859" lon="-5.66614">
        <ele>30.05</ele>
        <time>2021-03-20T17:38:51Z</time>
      </trkpt>
      <trkpt lat="56.87837" lon="-5.66661">
        <ele>31.22</ele>
        <time>2021-03-20T17:38:54Z</time>
      </trkpt>
      <trkpt lat="56.87815" lon="-5.66722">
        <ele>32.4</ele>
        <time>2021-03-20T17:38:57Z</time>
      </trkpt>
      <trkpt lat="56.878" lon="-5.66783">
        <ele>31.58</ele>
        <time>2021-03-20T17:38:59Z</time>
      </trkpt>
      <trkpt lat="56.87786" lon="-5.6685">
        <ele>26.19</ele>
        <time>2021-03-20T17:39:02Z</time>
      </trkpt>
      <trkpt lat="56.87778" lon="-5.66912">
        <ele>20.49</ele>
        <time>2021-03-20T17:39:05Z</time>
      </trkpt>
      <trkpt lat="56.87774" lon="-5.66962">
        <ele>16.32</ele>
        <time>2021-03-20T17:39:08Z</time>
      </trkpt>
      <trkpt lat="56.87773" lon="-5.67062">
        <ele>16.54</ele>
        <time>2021-03-20T17:39:10Z</time>
      </trkpt>
      <trkpt lat="56.87775" lon="-5.67109">
        <ele>19.39</ele>
        <time>2021-03-20T17:39:13Z</time>
      </trkpt>
      <trkpt lat="56.8778" lon="-5.67154">
        <ele>21.83</ele>
        <time>2021-03-20T17:39:16Z</time>
      </trkpt>
      <trkpt lat="56.87791" lon="-5.6723">
        <ele>23.27</ele>
        <time>2021-03-20T17:39:18Z</time>
      </trkpt>
      <trkpt lat="56.87809" lon="-5.67303">
        <ele>16.43</ele>
        <time>2021-03-20T17:39:21Z</time>
      </trkpt>
      <trkpt lat="56.87828" lon="-5.67365">
        <ele>12.57</ele>
        <time>2021-03-20T17:39:24Z</time>
      </trkpt>
      <trkpt lat="56.87847" lon="-5.6741">
        <ele>15.12</ele>
        <time>2021-03-20T17:39:27Z</time>
      </trkpt>
      <trkpt lat="56.87965" lon="-5.67651">
        <ele>8.2</ele>
        <time>2021-03-20T17:39:29Z</time>
      </trkpt>
      <trkpt lat="56.87981" lon="-5.67694">
        <ele>7.69</ele>
        <time>2021-03-20T17:39:32Z</time>
      </trkpt>
      <trkpt lat="56.88002" lon="-5.67758">
        <ele>4.66</ele>
        <time>2021-03-20T17:39:35Z</time>
      </trkpt>
      <trkpt lat="56.88018" lon="-5.67828">
        <ele>3.77</ele>
        <time>2021-03-20T17:39:38Z</time>
      </trkpt>
      <trkpt lat="56.88028" lon="-5.67889">
        <ele>5.04</ele>
        <time>2021-03-20T17:39:40Z</time>
      </trkpt>
      <trkpt lat="56.88034" lon="-5.67955">
        <ele>6.01</ele>
        <time>2021-03-20T17:39:43Z</time>
      </trkpt>
      <trkpt lat="56.88038" lon="-5.6804">
        <ele>7.45</ele>
        <time>2021-03-20T17:39:46Z</time>
      </trkpt>
      <trkpt lat="56.88054" lon="-5.68885">
        <ele>25.26</ele>
        <time>2021-03-20T17:39:48Z</time>
      </trkpt>
      <trkpt lat="56.88057" lon="-5.68944">
        <ele>27.51</ele>
        <time>2021-03-20T17:39:51Z</time>
      </trkpt>
      <trkpt lat="56.88067" lon="-5.69018">
        <ele>31.01</ele>
        <time>2021-03-20T17:39:54Z</time>
      </trkpt>
      <trkpt lat="56.88084" lon="-5.69096">
        <ele>33.05</ele>
        <time>2021-03-20T17:39:57Z</time>
      </trkpt>
      <trkpt lat="56.88291" lon="-5.69731">
        <ele>53.45</ele>
        <time>2021-03-20T17:39:59Z</time>
      </trkpt>
      <trkpt lat="56.88321" lon="-5.69805">
        <ele>53.47</ele>
        <time>2021-03-20T17:40:02Z</time>
      </trkpt>
      <trkpt lat="56.88344" lon="-5.69853">
        <ele>53.49</ele>
        <time>2021-03-20T17:40:05Z</time>
      </trkpt>
      <trkpt lat="56.88516" lon="-5.70115">
        <ele>73.52</ele>
        <time>2021-03-20T17:40:07Z</time>
      </trkpt>
      <trkpt lat="56.88541" lon="-5.70159">
        <ele>75.64</ele>
        <time>2021-03-20T17:40:10Z</time>
      </trkpt>
      <trkpt lat="56.88558" lon="-5.70198">
        <ele>76.37</ele>
        <time>2021-03-20T17:40:13Z</time>
      </trkpt>
      <trkpt lat="56.88572" lon="-5.70236">
        <ele>75.75</ele>
        <time>2021-03-20T17:40:16Z</time>
      </trkpt>
      <trkpt lat="56.88582" lon="-5.70276">
        <ele>73.61</ele>
        <time>2021-03-20T17:40:18Z</time>
      </trkpt>
      <trkpt lat="56.88597" lon="-5.70382">
        <ele>68.72</ele>
        <time>2021-03-20T17:40:21Z</time>
      </trkpt>
      <trkpt lat="56.88609" lon="-5.70519">
        <ele>67.72</ele>
        <time>2021-03-20T17:40:24Z</time>
      </trkpt>
      <trkpt lat="56.88621" lon="-5.70586">
        <ele>63.9</ele>
        <time>2021-03-20T17:40:26Z</time>
      </trkpt>
      <trkpt lat="56.88632" lon="-5.70629">
        <ele>64.31</ele>
        <time>2021-03-20T17:40:29Z</time>
      </trkpt>
      <trkpt lat="56.88644" lon="-5.70664">
        <ele>64.45</ele>
        <time>2021-03-20T17:40:32Z</time>
      </trkpt>
      <trkpt lat="56.8866" lon="-5.70697">
        <ele>65.72</ele>
        <time>2021-03-20T17:40:35Z</time>
      </trkpt>
      <trkpt lat="56.8869" lon="-5.70737">
        <ele>64.04</ele>
        <time>2021-03-20T17:40:37Z</time>
      </trkpt>
      <trkpt lat="56.88723" lon="-5.70764">
        <ele>58.9</ele>
        <time>2021-03-20T17:40:40Z</time>
      </trkpt>
      <trkpt lat="56.88752" lon="-5.70781">
        <ele>54.69</ele>
        <time>2021-03-20T17:40:43Z</time>
      </trkpt>
      <trkpt lat="56.88795" lon="-5.70794">
        <ele>50.2</ele>
        <time>2021-03-20T17:40:45Z</time>
      </trkpt>
      <trkpt lat="56.88951" lon="-5.70832">
        <ele>48.35</ele>
        <time>2021-03-20T17:40:48Z</time>
      </trkpt>
      <trkpt lat="56.88984" lon="-5.70849">
        <ele>50.15</ele>
        <time>2021-03-20T17:40:51Z</time>
      </trkpt>
      <trkpt lat="56.89008" lon="-5.7087">
        <ele>51.11</ele>
        <time>2021-03-20T17:40:54Z</time>
      </trkpt>
      <trkpt lat="56.89032" lon="-5.70896">
        <ele>48.65</ele>
        <time>2021-03-20T17:40:56Z</time>
      </trkpt>
      <trkpt lat="56.89052" lon="-5.70922">
        <ele>43.62</ele>
        <time>2021-03-20T17:40:59Z</time>
      </trkpt>
      <trkpt lat="56.89072" lon="-5.70958">
        <ele>42.52</ele>
        <time>2021-03-20T17:41:02Z</time>
      </trkpt>
      <trkpt lat="56.89091" lon="-5.70999">
        <ele>45.07</ele>
        <time>2021-03-20T17:41:05Z</time>
      </trkpt>
      <trkpt lat="56.89105" lon="-5.7104">
        <ele>48.39</ele>
        <time>2021-03-20T17:41:07Z</time>
      </trkpt>
      <trkpt lat="56.89115" lon="-5.71081">
        <ele>51.49</ele>
        <time>2021-03-20T17:41:10Z</time>
      </trkpt>
      <trkpt lat="56.89123" lon="-5.7112">
        <ele>53.5</ele>
        <time>2021-03-20T17:41:13Z</time>
      </trkpt>
      <trkpt lat="56.8913" lon="-5.71187">
        <ele>57.39</ele>
        <time>2021-03-20T17:41:15Z</time>
      </trkpt>
      <trkpt lat="56.8917" lon="-5.71593">
        <ele>52.1</ele>
        <time>2021-03-20T17:41:18Z</time>
      </trkpt>
      <trkpt lat="56.89182" lon="-5.71681">
        <ele>47.57</ele>
        <time>2021-03-20T17:41:21Z</time>
      </trkpt>
      <trkpt lat="56.89197" lon="-5.71765">
        <ele>41.42</ele>
        <time>2021-03-20T17:41:24Z</time>
      </trkpt>
      <trkpt lat="56.89254" lon="-5.71951">
        <ele>23.55</ele>
        <time>2021-03-20T17:41:26Z</time>
      </trkpt>
      <trkpt lat="56.89267" lon="-5.72005">
        <ele>20.31</ele>
        <time>2021-03-20T17:41:29Z</time>
      </trkpt>
      <trkpt lat="56.89274" lon="-5.72055">
        <ele>18</ele>
        <time>2021-03-20T17:41:32Z</time>
      </trkpt>
      <trkpt lat="56.89277" lon="-5.72085">
        <ele>18.24</ele>
        <time>2021-03-20T17:41:34Z</time>
      </trkpt>
      <trkpt lat="56.89278" lon="-5.72123">
        <ele>17.98</ele>
        <time>2021-03-20T17:41:37Z</time>
      </trkpt>
      <trkpt lat="56.89276" lon="-5.72178">
        <ele>17.56</ele>
        <time>2021-03-20T17:41:40Z</time>
      </trkpt>
      <trkpt lat="56.89273" lon="-5.7222">
        <ele>16.21</ele>
        <time>2021-03-20T17:41:43Z</time>
      </trkpt>
      <trkpt lat="56.89264" lon="-5.72276">
        <ele>12.12</ele>
        <time>2021-03-20T17:41:45Z</time>
      </trkpt>
      <trkpt lat="56.89227" lon="-5.72468">
        <ele>6.99</ele>
        <time>2021-03-20T17:41:48Z</time>
      </trkpt>
      <trkpt lat="56.89221" lon="-5.72513">
        <ele>8.27</ele>
        <time>2021-03-20T17:41:51Z</time>
      </trkpt>
      <trkpt lat="56.89219" lon="-5.72564">
        <ele>11.38</ele>
        <time>2021-03-20T17:41:53Z</time>
      </trkpt>
      <trkpt lat="56.8922" lon="-5.7264">
        <ele>13.47</ele>
        <time>2021-03-20T17:41:56Z</time>
      </trkpt>
      <trkpt lat="56.89241" lon="-5.72856">
        <ele>8.33</ele>
        <time>2021-03-20T17:41:59Z</time>
      </trkpt>
      <trkpt lat="56.89254" lon="-5.72972">
        <ele>11.07</ele>
        <time>2021-03-20T17:42:02Z</time>
      </trkpt>
      <trkpt lat="56.89259" lon="-5.73003">
        <ele>12.32</ele>
        <time>2021-03-20T17:42:04Z</time>
      </trkpt>
      <trkpt lat="56.89266" lon="-5.73112">
        <ele>12.09</ele>
        <time>2021-03-20T17:42:07Z</time>
      </trkpt>
      <trkpt lat="56.8927" lon="-5.73147">
        <ele>8.81</ele>
        <time>2021-03-20T17:42:10Z</time>
      </trkpt>
      <trkpt lat="56.89279" lon="-5.73181">
        <ele>7.57</ele>
        <time>2021-03-20T17:42:13Z</time>
      </trkpt>
      <trkpt lat="56.89294" lon="-5.73214">
        <ele>7.42</ele>
        <time>2021-03-20T17:42:15Z</time>
      </trkpt>
      <trkpt lat="56.8931" lon="-5.73244">
        <ele>6.41</ele>
        <time>2021-03-20T17:42:18Z</time>
      </trkpt>
      <trkpt lat="56.8934" lon="-5.73284">
        <ele>3.78</ele>
        <time>2021-03-20T17:42:21Z</time>
      </trkpt>
      <trkpt lat="56.89418" lon="-5.73356">
        <ele>9.42</ele>
        <time>2021-03-20T17:42:23Z</time>
      </trkpt>
      <trkpt lat="56.89504" lon="-5.73429">
        <ele>14.01</ele>
        <time>2021-03-20T17:42:26Z</time>
      </trkpt>
      <trkpt lat="56.89538" lon="-5.73464">
        <ele>8.43</ele>
        <time>2021-03-20T17:42:29Z</time>
      </trkpt>
      <trkpt lat="56.89584" lon="-5.73532">
        <ele>9.04</ele>
        <time>2021-03-20T17:42:32Z</time>
      </trkpt>
      <trkpt lat="56.89598" lon="-5.73565">
        <ele>12.62</ele>
        <time>2021-03-20T17:42:34Z</time>
      </trkpt>
      <trkpt lat="56.89613" lon="-5.73604">
        <ele>15.61</ele>
        <time>2021-03-20T17:42:37Z</time>
      </trkpt>
      <trkpt lat="56.89627" lon="-5.73659">
        <ele>17.99</ele>
        <time>2021-03-20T17:42:40Z</time>
      </trkpt>
      <trkpt lat="56.89635" lon="-5.73709">
        <ele>16.74</ele>
        <time>2021-03-20T17:42:42Z</time>
      </trkpt>
      <trkpt lat="56.8964" lon="-5.73756">
        <ele>13.99</ele>
        <time>2021-03-20T17:42:45Z</time>
      </trkpt>
      <trkpt lat="56.89641" lon="-5.73809">
        <ele>10.69</ele>
        <time>2021-03-20T17:42:48Z</time>
      </trkpt>
      <trkpt lat="56.89636" lon="-5.73895">
        <ele>8.96</ele>
        <time>2021-03-20T17:42:51Z</time>
      </trkpt>
      <trkpt lat="56.8962" lon="-5.73992">
        <ele>10.55</ele>
        <time>2021-03-20T17:42:53Z</time>
      </trkpt>
      <trkpt lat="56.89577" lon="-5.74226">
        <ele>15.49</ele>
        <time>2021-03-20T17:42:56Z</time>
      </trkpt>
      <trkpt lat="56.89563" lon="-5.7431">
        <ele>14.21</ele>
        <time>2021-03-20T17:42:59Z</time>
      </trkpt>
      <trkpt lat="56.89549" lon="-5.74435">
        <ele>14.27</ele>
        <time>2021-03-20T17:43:01Z</time>
      </trkpt>
      <trkpt lat="56.89521" lon="-5.74851">
        <ele>20.93</ele>
        <time>2021-03-20T17:43:04Z</time>
      </trkpt>
      <trkpt lat="56.89506" lon="-5.74963">
        <ele>19.59</ele>
        <time>2021-03-20T17:43:07Z</time>
      </trkpt>
      <trkpt lat="56.89487" lon="-5.75055">
        <ele>12.23</ele>
        <time>2021-03-20T17:43:10Z</time>
      </trkpt>
      <trkpt lat="56.89453" lon="-5.75183">
        <ele>14.35</ele>
        <time>2021-03-20T17:43:12Z</time>
      </trkpt>
      <trkpt lat="56.89376" lon="-5.75418">
        <ele>12.08</ele>
        <time>2021-03-20T17:43:15Z</time>
      </trkpt>
      <trkpt lat="56.89362" lon="-5.75467">
        <ele>9.34</ele>
        <time>2021-03-20T17:43:18Z</time>
      </trkpt>
      <trkpt lat="56.89355" lon="-5.75511">
        <ele>6.62</ele>
        <time>2021-03-20T17:43:20Z</time>
      </trkpt>
      <trkpt lat="56.89353" lon="-5.75543">
        <ele>5.78</ele>
        <time>2021-03-20T17:43:23Z</time>
      </trkpt>
      <trkpt lat="56.89352" lon="-5.75582">
        <ele>6.65</ele>
        <time>2021-03-20T17:43:26Z</time>
      </trkpt>
      <trkpt lat="56.89356" lon="-5.75611">
        <ele>7.21</ele>
        <time>2021-03-20T17:43:29Z</time>
      </trkpt>
      <trkpt lat="56.89362" lon="-5.75644">
        <ele>8.19</ele>
        <time>2021-03-20T17:43:31Z</time>
      </trkpt>
      <trkpt lat="56.89371" lon="-5.75675">
        <ele>9.38</ele>
        <time>2021-03-20T17:43:34Z</time>
      </trkpt>
      <trkpt lat="56.89384" lon="-5.75704">
        <ele>9.45</ele>
        <time>2021-03-20T17:43:37Z</time>
      </trkpt>
      <trkpt lat="56.89395" lon="-5.75724">
        <ele>9.95</ele>
        <time>2021-03-20T17:43:40Z</time>
      </trkpt>
      <trkpt lat="56.89407" lon="-5.75739">
        <ele>11.04</ele>
        <time>2021-03-20T17:43:42Z</time>
      </trkpt>
      <trkpt lat="56.89422" lon="-5.75754">
        <ele>12.56</ele>
        <time>2021-03-20T17:43:45Z</time>
      </trkpt>
      <trkpt lat="56.89438" lon="-5.75763">
        <ele>14.21</ele>
        <time>2021-03-20T17:43:48Z</time>
      </trkpt>
      <trkpt lat="56.8946" lon="-5.7577">
        <ele>16.36</ele>
        <time>2021-03-20T17:43:50Z</time>
      </trkpt>
      <trkpt lat="56.8948" lon="-5.7577">
        <ele>17.92</ele>
        <time>2021-03-20T17:43:53Z</time>
      </trkpt>
      <trkpt lat="56.89501" lon="-5.7576">
        <ele>19.48</ele>
        <time>2021-03-20T17:43:56Z</time>
      </trkpt>
      <trkpt lat="56.89526" lon="-5.7574">
        <ele>20.83</ele>
        <time>2021-03-20T17:43:59Z</time>
      </trkpt>
      <trkpt lat="56.89551" lon="-5.75711">
        <ele>24</ele>
        <time>2021-03-20T17:44:01Z</time>
      </trkpt>
      <trkpt lat="56.89643" lon="-5.75558">
        <ele>35.34</ele>
        <time>2021-03-20T17:44:04Z</time>
      </trkpt>
      <trkpt lat="56.89665" lon="-5.75531">
        <ele>37.69</ele>
        <time>2021-03-20T17:44:07Z</time>
      </trkpt>
      <trkpt lat="56.89683" lon="-5.75518">
        <ele>40</ele>
        <time>2021-03-20T17:44:09Z</time>
      </trkpt>
      <trkpt lat="56.89698" lon="-5.75514">
        <ele>41.37</ele>
        <time>2021-03-20T17:44:12Z</time>
      </trkpt>
      <trkpt lat="56.89722" lon="-5.75514">
        <ele>43.99</ele>
        <time>2021-03-20T17:44:15Z</time>
      </trkpt>
      <trkpt lat="56.89743" lon="-5.7552">
        <ele>46.4</ele>
        <time>2021-03-20T17:44:18Z</time>
      </trkpt>
      <trkpt lat="56.89758" lon="-5.75528">
        <ele>47.13</ele>
        <time>2021-03-20T17:44:20Z</time>
      </trkpt>
      <trkpt lat="56.89795" lon="-5.75556">
        <ele>47.49</ele>
        <time>2021-03-20T17:44:23Z</time>
      </trkpt>
      <trkpt lat="56.89814" lon="-5.75562">
        <ele>49.78</ele>
        <time>2021-03-20T17:44:26Z</time>
      </trkpt>
      <trkpt lat="56.89836" lon="-5.7556">
        <ele>52.72</ele>
        <time>2021-03-20T17:44:28Z</time>
      </trkpt>
      <trkpt lat="56.89915" lon="-5.75519">
        <ele>56.33</ele>
        <time>2021-03-20T17:44:31Z</time>
      </trkpt>
      <trkpt lat="56.89941" lon="-5.75492">
        <ele>57.59</ele>
        <time>2021-03-20T17:44:34Z</time>
      </trkpt>
      <trkpt lat="56.89961" lon="-5.75456">
        <ele>57.69</ele>
        <time>2021-03-20T17:44:37Z</time>
      </trkpt>
      <trkpt lat="56.90004" lon="-5.75343">
        <ele>57.44</ele>
        <time>2021-03-20T17:44:39Z</time>
      </trkpt>
      <trkpt lat="56.90013" lon="-5.75325">
        <ele>56.99</ele>
        <time>2021-03-20T17:44:42Z</time>
      </trkpt>
      <trkpt lat="56.90028" lon="-5.75304">
        <ele>55.17</ele>
        <time>2021-03-20T17:44:45Z</time>
      </trkpt>
      <trkpt lat="56.90058" lon="-5.75275">
        <ele>52.19</ele>
        <time>2021-03-20T17:44:47Z</time>
      </trkpt>
      <trkpt lat="56.90076" lon="-5.75264">
        <ele>53.21</ele>
        <time>2021-03-20T17:44:50Z</time>
      </trkpt>
      <trkpt lat="56.90092" lon="-5.75262">
        <ele>54.3</ele>
        <time>2021-03-20T17:44:53Z</time>
      </trkpt>
      <trkpt lat="56.90115" lon="-5.75269">
        <ele>56.5</ele>
        <time>2021-03-20T17:44:56Z</time>
      </trkpt>
      <trkpt lat="56.90127" lon="-5.75277">
        <ele>57.87</ele>
        <time>2021-03-20T17:44:58Z</time>
      </trkpt>
      <trkpt lat="56.90135" lon="-5.75288">
        <ele>59.14</ele>
        <time>2021-03-20T17:45:01Z</time>
      </trkpt>
      <trkpt lat="56.9015" lon="-5.75313">
        <ele>61.19</ele>
        <time>2021-03-20T17:45:04Z</time>
      </trkpt>
      <trkpt lat="56.90162" lon="-5.75343">
        <ele>62.66</ele>
        <time>2021-03-20T17:45:07Z</time>
      </trkpt>
      <trkpt lat="56.90167" lon="-5.75362">
        <ele>63.1</ele>
        <time>2021-03-20T17:45:09Z</time>
      </trkpt>
      <trkpt lat="56.90178" lon="-5.75447">
        <ele>68.44</ele>
        <time>2021-03-20T17:45:12Z</time>
      </trkpt>
      <trkpt lat="56.9018" lon="-5.7548">
        <ele>70.69</ele>
        <time>2021-03-20T17:45:15Z</time>
      </trkpt>
      <trkpt lat="56.90178" lon="-5.75503">
        <ele>71.58</ele>
        <time>2021-03-20T17:45:17Z</time>
      </trkpt>
      <trkpt lat="56.90173" lon="-5.75528">
        <ele>72.39</ele>
        <time>2021-03-20T17:45:20Z</time>
      </trkpt>
      <trkpt lat="56.90074" lon="-5.75913">
        <ele>83.78</ele>
        <time>2021-03-20T17:45:23Z</time>
      </trkpt>
      <trkpt lat="56.90064" lon="-5.75956">
        <ele>84.63</ele>
        <time>2021-03-20T17:45:26Z</time>
      </trkpt>
      <trkpt lat="56.9004" lon="-5.76128">
        <ele>85.76</ele>
        <time>2021-03-20T17:45:28Z</time>
      </trkpt>
      <trkpt lat="56.90031" lon="-5.76203">
        <ele>85.69</ele>
        <time>2021-03-20T17:45:31Z</time>
      </trkpt>
      <trkpt lat="56.9001" lon="-5.76612">
        <ele>77.99</ele>
        <time>2021-03-20T17:45:34Z</time>
      </trkpt>
      <trkpt lat="56.9001" lon="-5.76661">
        <ele>76.79</ele>
        <time>2021-03-20T17:45:36Z</time>
      </trkpt>
      <trkpt lat="56.90018" lon="-5.76751">
        <ele>73.6</ele>
        <time>2021-03-20T17:45:39Z</time>
      </trkpt>
      <trkpt lat="56.90019" lon="-5.76784">
        <ele>72.39</ele>
        <time>2021-03-20T17:45:42Z</time>
      </trkpt>
      <trkpt lat="56.90017" lon="-5.7681">
        <ele>71.05</ele>
        <time>2021-03-20T17:45:45Z</time>
      </trkpt>
      <trkpt lat="56.90011" lon="-5.76836">
        <ele>69.7</ele>
        <time>2021-03-20T17:45:47Z</time>
      </trkpt>
      <trkpt lat="56.89997" lon="-5.76876">
        <ele>67.79</ele>
        <time>2021-03-20T17:45:50Z</time>
      </trkpt>
      <trkpt lat="56.89995" lon="-5.76889">
        <ele>67.6</ele>
        <time>2021-03-20T17:45:53Z</time>
      </trkpt>
      <trkpt lat="56.89985" lon="-5.77055">
        <ele>60.9</ele>
        <time>2021-03-20T17:45:55Z</time>
      </trkpt>
      <trkpt lat="56.89961" lon="-5.77191">
        <ele>54.54</ele>
        <time>2021-03-20T17:45:58Z</time>
      </trkpt>
      <trkpt lat="56.89948" lon="-5.77406">
        <ele>52.26</ele>
        <time>2021-03-20T17:46:01Z</time>
      </trkpt>
      <trkpt lat="56.89908" lon="-5.77873">
        <ele>42.27</ele>
        <time>2021-03-20T17:46:04Z</time>
      </trkpt>
      <trkpt lat="56.89886" lon="-5.78166">
        <ele>32.86</ele>
        <time>2021-03-20T17:46:06Z</time>
      </trkpt>
      <trkpt lat="56.89884" lon="-5.78234">
        <ele>30.57</ele>
        <time>2021-03-20T17:46:09Z</time>
      </trkpt>
      <trkpt lat="56.89886" lon="-5.78296">
        <ele>31.29</ele>
        <time>2021-03-20T17:46:12Z</time>
      </trkpt>
      <trkpt lat="56.89893" lon="-5.7836">
        <ele>33.84</ele>
        <time>2021-03-20T17:46:14Z</time>
      </trkpt>
      <trkpt lat="56.89902" lon="-5.78403">
        <ele>35.82</ele>
        <time>2021-03-20T17:46:17Z</time>
      </trkpt>
      <trkpt lat="56.89914" lon="-5.7845">
        <ele>37.56</ele>
        <time>2021-03-20T17:46:20Z</time>
      </trkpt>
      <trkpt lat="56.8997" lon="-5.7864">
        <ele>31.74</ele>
        <time>2021-03-20T17:46:23Z</time>
      </trkpt>
      <trkpt lat="56.89984" lon="-5.78693">
        <ele>30.32</ele>
        <time>2021-03-20T17:46:25Z</time>
      </trkpt>
      <trkpt lat="56.89993" lon="-5.78749">
        <ele>27.34</ele>
        <time>2021-03-20T17:46:28Z</time>
      </trkpt>
      <trkpt lat="56.89997" lon="-5.78788">
        <ele>27.41</ele>
        <time>2021-03-20T17:46:31Z</time>
      </trkpt>
      <trkpt lat="56.89997" lon="-5.78826">
        <ele>30.07</ele>
        <time>2021-03-20T17:46:34Z</time>
      </trkpt>
      <trkpt lat="56.89995" lon="-5.7887">
        <ele>33.66</ele>
        <time>2021-03-20T17:46:36Z</time>
      </trkpt>
      <trkpt lat="56.89989" lon="-5.78912">
        <ele>35.72</ele>
        <time>2021-03-20T17:46:39Z</time>
      </trkpt>
      <trkpt lat="56.89967" lon="-5.79">
        <ele>38.88</ele>
        <time>2021-03-20T17:46:42Z</time>
      </trkpt>
      <trkpt lat="56.89935" lon="-5.79097">
        <ele>53.79</ele>
        <time>2021-03-20T17:46:44Z</time>
      </trkpt>
      <trkpt lat="56.89914" lon="-5.79169">
        <ele>57.71</ele>
        <time>2021-03-20T17:46:47Z</time>
      </trkpt>
      <trkpt lat="56.89898" lon="-5.79248">
        <ele>61.14</ele>
        <time>2021-03-20T17:46:50Z</time>
      </trkpt>
      <trkpt lat="56.8989" lon="-5.79315">
        <ele>65.88</ele>
        <time>2021-03-20T17:46:53Z</time>
      </trkpt>
      <trkpt lat="56.89886" lon="-5.79379">
        <ele>68.84</ele>
        <time>2021-03-20T17:46:55Z</time>
      </trkpt>
      <trkpt lat="56.89886" lon="-5.79443">
        <ele>71.97</ele>
        <time>2021-03-20T17:46:58Z</time>
      </trkpt>
      <trkpt lat="56.89888" lon="-5.79673">
        <ele>75.89</ele>
        <time>2021-03-20T17:47:01Z</time>
      </trkpt>
      <trkpt lat="56.89891" lon="-5.79772">
        <ele>77.45</ele>
        <time>2021-03-20T17:47:03Z</time>
      </trkpt>
      <trkpt lat="56.89897" lon="-5.79844">
        <ele>80.47</ele>
        <time>2021-03-20T17:47:06Z</time>
      </trkpt>
      <trkpt lat="56.89906" lon="-5.79909">
        <ele>83.91</ele>
        <time>2021-03-20T17:47:09Z</time>
      </trkpt>
      <trkpt lat="56.89918" lon="-5.79976">
        <ele>87.29</ele>
        <time>2021-03-20T17:47:12Z</time>
      </trkpt>
      <trkpt lat="56.89935" lon="-5.80048">
        <ele>89.83</ele>
        <time>2021-03-20T17:47:14Z</time>
      </trkpt>
      <trkpt lat="56.89952" lon="-5.80102">
        <ele>88.33</ele>
        <time>2021-03-20T17:47:17Z</time>
      </trkpt>
      <trkpt lat="56.8997" lon="-5.80154">
        <ele>86.38</ele>
        <time>2021-03-20T17:47:20Z</time>
      </trkpt>
      <trkpt lat="56.90104" lon="-5.80502">
        <ele>93.97</ele>
        <time>2021-03-20T17:47:22Z</time>
      </trkpt>
      <trkpt lat="56.90205" lon="-5.80781">
        <ele>86.04</ele>
        <time>2021-03-20T17:47:25Z</time>
      </trkpt>
      <trkpt lat="56.90331" lon="-5.81165">
        <ele>59.13</ele>
        <time>2021-03-20T17:47:28Z</time>
      </trkpt>
      <trkpt lat="56.90448" lon="-5.81505">
        <ele>62.63</ele>
        <time>2021-03-20T17:47:31Z</time>
      </trkpt>
      <trkpt lat="56.90563" lon="-5.81809">
        <ele>66.21</ele>
        <time>2021-03-20T17:47:33Z</time>
      </trkpt>
      <trkpt lat="56.90641" lon="-5.82003">
        <ele>72.65</ele>
        <time>2021-03-20T17:47:36Z</time>
      </trkpt>
      <trkpt lat="56.90673" lon="-5.82076">
        <ele>68.58</ele>
        <time>2021-03-20T17:47:39Z</time>
      </trkpt>
      <trkpt lat="56.90698" lon="-5.82124">
        <ele>69.3</ele>
        <time>2021-03-20T17:47:42Z</time>
      </trkpt>
      <trkpt lat="56.90721" lon="-5.8216">
        <ele>66.32</ele>
        <time>2021-03-20T17:47:44Z</time>
      </trkpt>
      <trkpt lat="56.90748" lon="-5.82195">
        <ele>58.43</ele>
        <time>2021-03-20T17:47:47Z</time>
      </trkpt>
      <trkpt lat="56.90778" lon="-5.82223">
        <ele>49.91</ele>
        <time>2021-03-20T17:47:50Z</time>
      </trkpt>
      <trkpt lat="56.90807" lon="-5.82245">
        <ele>47.42</ele>
        <time>2021-03-20T17:47:52Z</time>
      </trkpt>
      <trkpt lat="56.9083" lon="-5.82258">
        <ele>47.03</ele>
        <time>2021-03-20T17:47:55Z</time>
      </trkpt>
      <trkpt lat="56.90861" lon="-5.82268">
        <ele>47.1</ele>
        <time>2021-03-20T17:47:58Z</time>
      </trkpt>
      <trkpt lat="56.90889" lon="-5.82271">
        <ele>46.98</ele>
        <time>2021-03-20T17:48:01Z</time>
      </trkpt>
      <trkpt lat="56.90923" lon="-5.8227">
        <ele>45.68</ele>
        <time>2021-03-20T17:48:03Z</time>
      </trkpt>
      <trkpt lat="56.9095" lon="-5.82264">
        <ele>44.65</ele>
        <time>2021-03-20T17:48:06Z</time>
      </trkpt>
      <trkpt lat="56.90976" lon="-5.8225">
        <ele>44.87</ele>
        <time>2021-03-20T17:48:09Z</time>
      </trkpt>
      <trkpt lat="56.91081" lon="-5.82184">
        <ele>48.28</ele>
        <time>2021-03-20T17:48:11Z</time>
      </trkpt>
      <trkpt lat="56.91107" lon="-5.82171">
        <ele>49.56</ele>
        <time>2021-03-20T17:48:14Z</time>
      </trkpt>
      <trkpt lat="56.91141" lon="-5.82163">
        <ele>50.96</ele>
        <time>2021-03-20T17:48:17Z</time>
      </trkpt>
      <trkpt lat="56.91175" lon="-5.82167">
        <ele>47.78</ele>
        <time>2021-03-20T17:48:20Z</time>
      </trkpt>
      <trkpt lat="56.91201" lon="-5.82184">
        <ele>43.44</ele>
        <time>2021-03-20T17:48:22Z</time>
      </trkpt>
      <trkpt lat="56.91228" lon="-5.82214">
        <ele>41.73</ele>
        <time>2021-03-20T17:48:25Z</time>
      </trkpt>
      <trkpt lat="56.91252" lon="-5.82256">
        <ele>41.95</ele>
        <time>2021-03-20T17:48:28Z</time>
      </trkpt>
      <trkpt lat="56.91263" lon="-5.82291">
        <ele>42.6</ele>
        <time>2021-03-20T17:48:30Z</time>
      </trkpt>
      <trkpt lat="56.91271" lon="-5.82333">
        <ele>44.81</ele>
        <time>2021-03-20T17:48:33Z</time>
      </trkpt>
      <trkpt lat="56.91277" lon="-5.82379">
        <ele>47.48</ele>
        <time>2021-03-20T17:48:36Z</time>
      </trkpt>
      <trkpt lat="56.91278" lon="-5.82421">
        <ele>49.04</ele>
        <time>2021-03-20T17:48:39Z</time>
      </trkpt>
      <trkpt lat="56.91276" lon="-5.8247">
        <ele>49.63</ele>
        <time>2021-03-20T17:48:41Z</time>
      </trkpt>
      <trkpt lat="56.91271" lon="-5.82519">
        <ele>48.68</ele>
        <time>2021-03-20T17:48:44Z</time>
      </trkpt>
      <trkpt lat="56.91264" lon="-5.82567">
        <ele>48.6</ele>
        <time>2021-03-20T17:48:47Z</time>
      </trkpt>
      <trkpt lat="56.9124" lon="-5.82666">
        <ele>51.83</ele>
        <time>2021-03-20T17:48:49Z</time>
      </trkpt>
      <trkpt lat="56.91173" lon="-5.8289">
        <ele>42.43</ele>
        <time>2021-03-20T17:48:52Z</time>
      </trkpt>
      <trkpt lat="56.91134" lon="-5.83055">
        <ele>36.13</ele>
        <time>2021-03-20T17:48:55Z</time>
      </trkpt>
      <trkpt lat="56.91117" lon="-5.83154">
        <ele>30.57</ele>
        <time>2021-03-20T17:48:58Z</time>
      </trkpt>
      <trkpt lat="56.91109" lon="-5.83223">
        <ele>26.56</ele>
        <time>2021-03-20T17:49:00Z</time>
      </trkpt>
      <trkpt lat="56.91099" lon="-5.83356">
        <ele>24.87</ele>
        <time>2021-03-20T17:49:03Z</time>
      </trkpt>
      <trkpt lat="56.91098" lon="-5.83419">
        <ele>22.94</ele>
        <time>2021-03-20T17:49:06Z</time>
      </trkpt>
      <trkpt lat="56.91099" lon="-5.8351">
        <ele>21.55</ele>
        <time>2021-03-20T17:49:09Z</time>
      </trkpt>
      <trkpt lat="56.91103" lon="-5.83592">
        <ele>21.44</ele>
        <time>2021-03-20T17:49:11Z</time>
      </trkpt>
      <trkpt lat="56.91109" lon="-5.8367">
        <ele>20.06</ele>
        <time>2021-03-20T17:49:14Z</time>
      </trkpt>
      <trkpt lat="56.91139" lon="-5.83924">
        <ele>20</ele>
        <time>2021-03-20T17:49:17Z</time>
      </trkpt>
      <trkpt lat="56.91098" lon="-5.83952">
        <ele>17.18</ele>
        <time>2021-03-20T17:49:25Z</time>
      </trkpt>
      <trkpt lat="56.91056" lon="-5.84016">
        <ele>17.17</ele>
        <time>2021-03-20T17:49:33Z</time>
      </trkpt>
      <trkpt lat="56.91043" lon="-5.84035">
        <ele>17.01</ele>
        <time>2021-03-20T17:49:40Z</time>
      </trkpt>
      <trkpt lat="56.9101" lon="-5.84228">
        <ele>17.74</ele>
        <time>2021-03-20T17:49:48Z</time>
      </trkpt>
      <trkpt lat="56.90999" lon="-5.84279">
        <ele>16.89</ele>
        <time>2021-03-20T17:49:56Z</time>
      </trkpt>
      <trkpt lat="56.9098" lon="-5.84337">
        <ele>14.71</ele>
        <time>2021-03-20T17:50:04Z</time>
      </trkpt>
      <trkpt lat="56.90955" lon="-5.84382">
        <ele>11.16</ele>
        <time>2021-03-20T17:50:12Z</time>
      </trkpt>
      <trkpt lat="56.90934" lon="-5.84453">
        <ele>7.56</ele>
        <time>2021-03-20T17:50:20Z</time>
      </trkpt>
      <trkpt lat="56.90925" lon="-5.84521">
        <ele>4.96</ele>
        <time>2021-03-20T17:50:28Z</time>
      </trkpt>
      <trkpt lat="56.90926" lon="-5.84588">
        <ele>3.99</ele>
        <time>2021-03-20T17:50:36Z</time>
      </trkpt>
      <trkpt lat="56.90952" lon="-5.84659">
        <ele>5.52</ele>
        <time>2021-03-20T17:50:43Z</time>
      </trkpt>
      <trkpt lat="56.90999" lon="-5.84775">
        <ele>5.05</ele>
        <time>2021-03-20T17:50:51Z</time>
      </trkpt>
      <trkpt lat="56.91025" lon="-5.84814">
        <ele>3.63</ele>
        <time>2021-03-20T17:50:59Z</time>
      </trkpt>
      <trkpt lat="56.91055" lon="-5.84842">
        <ele>4.66</ele>
        <time>2021-03-20T17:51:07Z</time>
      </trkpt>
      <trkpt lat="56.9108" lon="-5.84847">
        <ele>7.14</ele>
        <time>2021-03-20T17:51:15Z</time>
      </trkpt>
      <trkpt lat="56.91109" lon="-5.84822">
        <ele>10.73</ele>
        <time>2021-03-20T17:51:23Z</time>
      </trkpt>
      <trkpt lat="56.91132" lon="-5.84775">
        <ele>12.85</ele>
        <time>2021-03-20T17:51:31Z</time>
      </trkpt>
      <trkpt lat="56.91172" lon="-5.84638">
        <ele>19.27</ele>
        <time>2021-03-20T17:51:39Z</time>
      </trkpt>
      <trkpt lat="56.91189" lon="-5.84608">
        <ele>21.82</ele>
        <time>2021-03-20T17:51:46Z</time>
      </trkpt>
      <trkpt lat="56.91211" lon="-5.84631">
        <ele>21.71</ele>
        <time>2021-03-20T17:51:50Z</time>
      </trkpt>
      <trkpt lat="56.91232" lon="-5.84638">
        <ele>22.78</ele>
        <time>2021-03-20T17:51:53Z</time>
      </trkpt>
      <trkpt lat="56.91255" lon="-5.8464">
        <ele>24.29</ele>
        <time>2021-03-20T17:51:56Z</time>
      </trkpt>
      <trkpt lat="56.91298" lon="-5.84651">
        <ele>25.49</ele>
        <time>2021-03-20T17:52:00Z</time>
      </trkpt>
      <trkpt lat="56.91359" lon="-5.84661">
        <ele>25.52</ele>
        <time>2021-03-20T17:52:03Z</time>
      </trkpt>
      <trkpt lat="56.9139" lon="-5.8467">
        <ele>27.78</ele>
        <time>2021-03-20T17:52:06Z</time>
      </trkpt>
      <trkpt lat="56.91419" lon="-5.84683">
        <ele>30.61</ele>
        <time>2021-03-20T17:52:09Z</time>
      </trkpt>
      <trkpt lat="56.91434" lon="-5.84692">
        <ele>31.7</ele>
        <time>2021-03-20T17:52:13Z</time>
      </trkpt>
      <trkpt lat="56.91467" lon="-5.8473">
        <ele>32.9</ele>
        <time>2021-03-20T17:52:16Z</time>
      </trkpt>
      <trkpt lat="56.91489" lon="-5.84762">
        <ele>32.95</ele>
        <time>2021-03-20T17:52:19Z</time>
      </trkpt>
      <trkpt lat="56.91506" lon="-5.84778">
        <ele>33.81</ele>
        <time>2021-03-20T17:52:23Z</time>
      </trkpt>
      <trkpt lat="56.91532" lon="-5.84789">
        <ele>37.18</ele>
        <time>2021-03-20T17:52:26Z</time>
      </trkpt>
      <trkpt lat="56.91551" lon="-5.84803">
        <ele>38.73</ele>
        <time>2021-03-20T17:52:29Z</time>
      </trkpt>
      <trkpt lat="56.91569" lon="-5.84829">
        <ele>39.62</ele>
        <time>2021-03-20T17:52:32Z</time>
      </trkpt>
      <trkpt lat="56.91587" lon="-5.84874">
        <ele>38.76</ele>
        <time>2021-03-20T17:52:36Z</time>
      </trkpt>
      <trkpt lat="56.91599" lon="-5.84889">
        <ele>38.56</ele>
        <time>2021-03-20T17:52:39Z</time>
      </trkpt>
      <trkpt lat="56.9161" lon="-5.84896">
        <ele>38.46</ele>
        <time>2021-03-20T17:52:42Z</time>
      </trkpt>
      <trkpt lat="56.91672" lon="-5.84947">
        <ele>39.27</ele>
        <time>2021-03-20T17:52:45Z</time>
      </trkpt>
      <trkpt lat="56.91704" lon="-5.84977">
        <ele>41.66</ele>
        <time>2021-03-20T17:52:49Z</time>
      </trkpt>
      <trkpt lat="56.91726" lon="-5.85002">
        <ele>43.06</ele>
        <time>2021-03-20T17:52:52Z</time>
      </trkpt>
      <trkpt lat="56.91735" lon="-5.85028">
        <ele>44</ele>
        <time>2021-03-20T17:52:55Z</time>
      </trkpt>
      <trkpt lat="56.91744" lon="-5.85088">
        <ele>43.73</ele>
        <time>2021-03-20T17:52:59Z</time>
      </trkpt>
      <trkpt lat="56.9175" lon="-5.8511">
        <ele>44</ele>
        <time>2021-03-20T17:53:02Z</time>
      </trkpt>
      <trkpt lat="56.91784" lon="-5.8518">
        <ele>44.73</ele>
        <time>2021-03-20T17:53:05Z</time>
      </trkpt>
      <trkpt lat="56.91801" lon="-5.85241">
        <ele>44.84</ele>
        <time>2021-03-20T17:53:08Z</time>
      </trkpt>
      <trkpt lat="56.91815" lon="-5.85271">
        <ele>45.65</ele>
        <time>2021-03-20T17:53:12Z</time>
      </trkpt>
      <trkpt lat="56.91823" lon="-5.85286">
        <ele>46.08</ele>
        <time>2021-03-20T17:53:15Z</time>
      </trkpt>
      <trkpt lat="56.91861" lon="-5.85329">
        <ele>46.98</ele>
        <time>2021-03-20T17:53:18Z</time>
      </trkpt>
      <trkpt lat="56.91897" lon="-5.8536">
        <ele>47.65</ele>
        <time>2021-03-20T17:53:22Z</time>
      </trkpt>
      <trkpt lat="56.91943" lon="-5.85389">
        <ele>46.09</ele>
        <time>2021-03-20T17:53:25Z</time>
      </trkpt>
      <trkpt lat="56.91965" lon="-5.85392">
        <ele>45.58</ele>
        <time>2021-03-20T17:53:28Z</time>
      </trkpt>
      <trkpt lat="56.92018" lon="-5.8538">
        <ele>43.4</ele>
        <time>2021-03-20T17:53:31Z</time>
      </trkpt>
      <trkpt lat="56.92043" lon="-5.85383">
        <ele>41.15</ele>
        <time>2021-03-20T17:53:35Z</time>
      </trkpt>
      <trkpt lat="56.92059" lon="-5.8539">
        <ele>39.65</ele>
        <time>2021-03-20T17:53:38Z</time>
      </trkpt>
      <trkpt lat="56.92087" lon="-5.85414">
        <ele>37.81</ele>
        <time>2021-03-20T17:53:41Z</time>
      </trkpt>
      <trkpt lat="56.92114" lon="-5.85424">
        <ele>37</ele>
        <time>2021-03-20T17:53:44Z</time>
      </trkpt>
      <trkpt lat="56.92142" lon="-5.85423">
        <ele>36.78</ele>
        <time>2021-03-20T17:53:48Z</time>
      </trkpt>
      <trkpt lat="56.92159" lon="-5.85432">
        <ele>35.92</ele>
        <time>2021-03-20T17:53:51Z</time>
      </trkpt>
      <trkpt lat="56.92178" lon="-5.8545">
        <ele>35.39</ele>
        <time>2021-03-20T17:53:54Z</time>
      </trkpt>
      <trkpt lat="56.92201" lon="-5.8549">
        <ele>34.4</ele>
        <time>2021-03-20T17:53:58Z</time>
      </trkpt>
      <trkpt lat="56.92215" lon="-5.855">
        <ele>33.49</ele>
        <time>2021-03-20T17:54:01Z</time>
      </trkpt>
      <trkpt lat="56.92229" lon="-5.85496">
        <ele>32.15</ele>
        <time>2021-03-20T17:54:04Z</time>
      </trkpt>
      <trkpt lat="56.92258" lon="-5.85748">
        <ele>25.5</ele>
        <time>2021-03-20T17:54:06Z</time>
      </trkpt>
      <trkpt lat="56.92276" lon="-5.85865">
        <ele>20.03</ele>
        <time>2021-03-20T17:54:08Z</time>
      </trkpt>
      <trkpt lat="56.92282" lon="-5.85887">
        <ele>18.66</ele>
        <time>2021-03-20T17:54:10Z</time>
      </trkpt>
      <trkpt lat="56.92289" lon="-5.85896">
        <ele>17.51</ele>
        <time>2021-03-20T17:54:11Z</time>
      </trkpt>
      <trkpt lat="56.92299" lon="-5.85898">
        <ele>16.41</ele>
        <time>2021-03-20T17:54:13Z</time>
      </trkpt>
      <trkpt lat="56.92327" lon="-5.85893">
        <ele>13.53</ele>
        <time>2021-03-20T17:54:15Z</time>
      </trkpt>
      <trkpt lat="56.92364" lon="-5.85881">
        <ele>10.94</ele>
        <time>2021-03-20T17:54:17Z</time>
      </trkpt>
      <trkpt lat="56.92483" lon="-5.85885">
        <ele>3.62</ele>
        <time>2021-03-20T17:54:19Z</time>
      </trkpt>
      <trkpt lat="56.925" lon="-5.85889">
        <ele>3</ele>
        <time>2021-03-20T17:54:20Z</time>
      </trkpt>
      <trkpt lat="56.92558" lon="-5.85923">
        <ele>2.91</ele>
        <time>2021-03-20T17:54:22Z</time>
      </trkpt>
      <trkpt lat="56.92589" lon="-5.85937">
        <ele>2</ele>
        <time>2021-03-20T17:54:24Z</time>
      </trkpt>
      <trkpt lat="56.92604" lon="-5.85941">
        <ele>2</ele>
        <time>2021-03-20T17:54:26Z</time>
      </trkpt>
      <trkpt lat="56.92635" lon="-5.85941">
        <ele>1.16</ele>
        <time>2021-03-20T17:54:28Z</time>
      </trkpt>
      <trkpt lat="56.92662" lon="-5.85934">
        <ele>1</ele>
        <time>2021-03-20T17:54:29Z</time>
      </trkpt>
      <trkpt lat="56.92722" lon="-5.85911">
        <ele>2.01</ele>
        <time>2021-03-20T17:54:31Z</time>
      </trkpt>
      <trkpt lat="56.9275" lon="-5.85897">
        <ele>2.99</ele>
        <time>2021-03-20T17:54:33Z</time>
      </trkpt>
      <trkpt lat="56.92821" lon="-5.85835">
        <ele>4.54</ele>
        <time>2021-03-20T17:54:35Z</time>
      </trkpt>
      <trkpt lat="56.9285" lon="-5.85821">
        <ele>6.21</ele>
        <time>2021-03-20T17:54:37Z</time>
      </trkpt>
      <trkpt lat="56.92867" lon="-5.85819">
        <ele>7.22</ele>
        <time>2021-03-20T17:54:38Z</time>
      </trkpt>
      <trkpt lat="56.92891" lon="-5.85824">
        <ele>8.06</ele>
        <time>2021-03-20T17:54:40Z</time>
      </trkpt>
      <trkpt lat="56.9291" lon="-5.85841">
        <ele>8.76</ele>
        <time>2021-03-20T17:54:42Z</time>
      </trkpt>
      <trkpt lat="56.92928" lon="-5.85853">
        <ele>9.12</ele>
        <time>2021-03-20T17:54:44Z</time>
      </trkpt>
      <trkpt lat="56.93016" lon="-5.85878">
        <ele>9</ele>
        <time>2021-03-20T17:54:46Z</time>
      </trkpt>
      <trkpt lat="56.93048" lon="-5.85881">
        <ele>9.71</ele>
        <time>2021-03-20T17:54:47Z</time>
      </trkpt>
      <trkpt lat="56.93097" lon="-5.85877">
        <ele>12</ele>
        <time>2021-03-20T17:54:49Z</time>
      </trkpt>
      <trkpt lat="56.93169" lon="-5.85864">
        <ele>14.08</ele>
        <time>2021-03-20T17:54:51Z</time>
      </trkpt>
      <trkpt lat="56.93195" lon="-5.85867">
        <ele>15</ele>
        <time>2021-03-20T17:54:53Z</time>
      </trkpt>
      <trkpt lat="56.9321" lon="-5.85876">
        <ele>15</ele>
        <time>2021-03-20T17:54:54Z</time>
      </trkpt>
      <trkpt lat="56.93258" lon="-5.85935">
        <ele>13.82</ele>
        <time>2021-03-20T17:54:56Z</time>
      </trkpt>
      <trkpt lat="56.93268" lon="-5.85955">
        <ele>13.91</ele>
        <time>2021-03-20T17:54:58Z</time>
      </trkpt>
      <trkpt lat="56.93279" lon="-5.85987">
        <ele>13.67</ele>
        <time>2021-03-20T17:55:00Z</time>
      </trkpt>
      <trkpt lat="56.93297" lon="-5.86052">
        <ele>15.08</ele>
        <time>2021-03-20T17:55:02Z</time>
      </trkpt>
      <trkpt lat="56.93302" lon="-5.86061">
        <ele>15.37</ele>
        <time>2021-03-20T17:55:03Z</time>
      </trkpt>
      <trkpt lat="56.93312" lon="-5.86074">
        <ele>15.78</ele>
        <time>2021-03-20T17:55:05Z</time>
      </trkpt>
      <trkpt lat="56.93321" lon="-5.86079">
        <ele>16.27</ele>
        <time>2021-03-20T17:55:07Z</time>
      </trkpt>
      <trkpt lat="56.93329" lon="-5.8608">
        <ele>16.83</ele>
        <time>2021-03-20T17:55:09Z</time>
      </trkpt>
      <trkpt lat="56.93385" lon="-5.86078">
        <ele>18.37</ele>
        <time>2021-03-20T17:55:11Z</time>
      </trkpt>
      <trkpt lat="56.93397" lon="-5.8608">
        <ele>17.92</ele>
        <time>2021-03-20T17:55:12Z</time>
      </trkpt>
      <trkpt lat="56.9344" lon="-5.86106">
        <ele>16.18</ele>
        <time>2021-03-20T17:55:14Z</time>
      </trkpt>
      <trkpt lat="56.93465" lon="-5.86115">
        <ele>15.87</ele>
        <time>2021-03-20T17:55:16Z</time>
      </trkpt>
      <trkpt lat="56.93486" lon="-5.86127">
        <ele>14.43</ele>
        <time>2021-03-20T17:55:18Z</time>
      </trkpt>
      <trkpt lat="56.93509" lon="-5.86124">
        <ele>12.58</ele>
        <time>2021-03-20T17:55:20Z</time>
      </trkpt>
      <trkpt lat="56.93537" lon="-5.86113">
        <ele>9.95</ele>
        <time>2021-03-20T17:55:21Z</time>
      </trkpt>
      <trkpt lat="56.93552" lon="-5.86101">
        <ele>8.77</ele>
        <time>2021-03-20T17:55:23Z</time>
      </trkpt>
      <trkpt lat="56.93563" lon="-5.86085">
        <ele>7.6</ele>
        <time>2021-03-20T17:55:25Z</time>
      </trkpt>
      <trkpt lat="56.93574" lon="-5.86057">
        <ele>6.58</ele>
        <time>2021-03-20T17:55:27Z</time>
      </trkpt>
      <trkpt lat="56.93602" lon="-5.85966">
        <ele>5.61</ele>
        <time>2021-03-20T17:55:29Z</time>
      </trkpt>
      <trkpt lat="56.93612" lon="-5.85946">
        <ele>4.85</ele>
        <time>2021-03-20T17:55:30Z</time>
      </trkpt>
      <trkpt lat="56.93618" lon="-5.85938">
        <ele>4.46</ele>
        <time>2021-03-20T17:55:32Z</time>
      </trkpt>
      <trkpt lat="56.93632" lon="-5.85927">
        <ele>3.39</ele>
        <time>2021-03-20T17:55:34Z</time>
      </trkpt>
      <trkpt lat="56.93647" lon="-5.85922">
        <ele>2.29</ele>
        <time>2021-03-20T17:55:36Z</time>
      </trkpt>
      <trkpt lat="56.93661" lon="-5.85924">
        <ele>1.35</ele>
        <time>2021-03-20T17:55:38Z</time>
      </trkpt>
      <trkpt lat="56.93673" lon="-5.85936">
        <ele>1.22</ele>
        <time>2021-03-20T17:55:39Z</time>
      </trkpt>
      <trkpt lat="56.93685" lon="-5.85956">
        <ele>1.38</ele>
        <time>2021-03-20T17:55:41Z</time>
      </trkpt>
      <trkpt lat="56.93693" lon="-5.85966">
        <ele>1.21</ele>
        <time>2021-03-20T17:55:43Z</time>
      </trkpt>
      <trkpt lat="56.93707" lon="-5.85976">
        <ele>1.46</ele>
        <time>2021-03-20T17:55:45Z</time>
      </trkpt>
      <trkpt lat="56.93734" lon="-5.85978">
        <ele>2.41</ele>
        <time>2021-03-20T17:55:47Z</time>
      </trkpt>
      <trkpt lat="56.93758" lon="-5.85993">
        <ele>3.28</ele>
        <time>2021-03-20T17:55:48Z</time>
      </trkpt>
      <trkpt lat="56.93767" lon="-5.85992">
        <ele>3.62</ele>
        <time>2021-03-20T17:55:50Z</time>
      </trkpt>
      <trkpt lat="56.93816" lon="-5.85973">
        <ele>5.74</ele>
        <time>2021-03-20T17:55:52Z</time>
      </trkpt>
      <trkpt lat="56.93823" lon="-5.85967">
        <ele>6.36</ele>
        <time>2021-03-20T17:55:54Z</time>
      </trkpt>
      <trkpt lat="56.93857" lon="-5.85909">
        <ele>9.19</ele>
        <time>2021-03-20T17:55:56Z</time>
      </trkpt>
      <trkpt lat="56.93928" lon="-5.85807">
        <ele>4.65</ele>
        <time>2021-03-20T17:55:57Z</time>
      </trkpt>
      <trkpt lat="56.93937" lon="-5.85784">
        <ele>3.48</ele>
        <time>2021-03-20T17:55:59Z</time>
      </trkpt>
      <trkpt lat="56.93991" lon="-5.85524">
        <ele>2.41</ele>
        <time>2021-03-20T17:56:01Z</time>
      </trkpt>
      <trkpt lat="56.93997" lon="-5.85404">
        <ele>2.19</ele>
        <time>2021-03-20T17:56:03Z</time>
      </trkpt>
      <trkpt lat="56.94" lon="-5.85376">
        <ele>2.01</ele>
        <time>2021-03-20T17:56:05Z</time>
      </trkpt>
      <trkpt lat="56.9402" lon="-5.85316">
        <ele>2.65</ele>
        <time>2021-03-20T17:56:06Z</time>
      </trkpt>
      <trkpt lat="56.94034" lon="-5.8529">
        <ele>3.83</ele>
        <time>2021-03-20T17:56:08Z</time>
      </trkpt>
      <trkpt lat="56.94061" lon="-5.85262">
        <ele>3.58</ele>
        <time>2021-03-20T17:56:10Z</time>
      </trkpt>
      <trkpt lat="56.94074" lon="-5.85254">
        <ele>3.87</ele>
        <time>2021-03-20T17:56:12Z</time>
      </trkpt>
      <trkpt lat="56.94092" lon="-5.8525">
        <ele>4.31</ele>
        <time>2021-03-20T17:56:14Z</time>
      </trkpt>
      <trkpt lat="56.94127" lon="-5.85261">
        <ele>4.59</ele>
        <time>2021-03-20T17:56:15Z</time>
      </trkpt>
      <trkpt lat="56.9429" lon="-5.85327">
        <ele>3.56</ele>
        <time>2021-03-20T17:56:17Z</time>
      </trkpt>
      <trkpt lat="56.94298" lon="-5.85328">
        <ele>3.78</ele>
        <time>2021-03-20T17:56:19Z</time>
      </trkpt>
      <trkpt lat="56.94313" lon="-5.85326">
        <ele>3.74</ele>
        <time>2021-03-20T17:56:21Z</time>
      </trkpt>
      <trkpt lat="56.94366" lon="-5.85304">
        <ele>2.19</ele>
        <time>2021-03-20T17:56:23Z</time>
      </trkpt>
      <trkpt lat="56.94434" lon="-5.85295">
        <ele>2.09</ele>
        <time>2021-03-20T17:56:24Z</time>
      </trkpt>
      <trkpt lat="56.94475" lon="-5.85296">
        <ele>3.54</ele>
        <time>2021-03-20T17:56:26Z</time>
      </trkpt>
      <trkpt lat="56.94485" lon="-5.85301">
        <ele>4.05</ele>
        <time>2021-03-20T17:56:28Z</time>
      </trkpt>
      <trkpt lat="56.94507" lon="-5.85326">
        <ele>4.45</ele>
        <time>2021-03-20T17:56:30Z</time>
      </trkpt>
      <trkpt lat="56.94528" lon="-5.85357">
        <ele>4.14</ele>
        <time>2021-03-20T17:56:32Z</time>
      </trkpt>
      <trkpt lat="56.94542" lon="-5.85386">
        <ele>4</ele>
        <time>2021-03-20T17:56:33Z</time>
      </trkpt>
      <trkpt lat="56.94566" lon="-5.85451">
        <ele>2.85</ele>
        <time>2021-03-20T17:56:35Z</time>
      </trkpt>
      <trkpt lat="56.94577" lon="-5.85467">
        <ele>2.82</ele>
        <time>2021-03-20T17:56:37Z</time>
      </trkpt>
      <trkpt lat="56.9459" lon="-5.85472">
        <ele>3</ele>
        <time>2021-03-20T17:56:39Z</time>
      </trkpt>
      <trkpt lat="56.946" lon="-5.85469">
        <ele>3</ele>
        <time>2021-03-20T17:56:41Z</time>
      </trkpt>
      <trkpt lat="56.94677" lon="-5.85424">
        <ele>3</ele>
        <time>2021-03-20T17:56:42Z</time>
      </trkpt>
      <trkpt lat="56.94696" lon="-5.85419">
        <ele>3.04</ele>
        <time>2021-03-20T17:56:44Z</time>
      </trkpt>
      <trkpt lat="56.94795" lon="-5.85406">
        <ele>5.52</ele>
        <time>2021-03-20T17:56:46Z</time>
      </trkpt>
      <trkpt lat="56.94802" lon="-5.85403">
        <ele>5.55</ele>
        <time>2021-03-20T17:56:48Z</time>
      </trkpt>
      <trkpt lat="56.94808" lon="-5.85397">
        <ele>5.65</ele>
        <time>2021-03-20T17:56:50Z</time>
      </trkpt>
      <trkpt lat="56.94821" lon="-5.85374">
        <ele>7.11</ele>
        <time>2021-03-20T17:56:51Z</time>
      </trkpt>
      <trkpt lat="56.94827" lon="-5.85367">
        <ele>7.65</ele>
        <time>2021-03-20T17:56:53Z</time>
      </trkpt>
      <trkpt lat="56.94858" lon="-5.85349">
        <ele>7.59</ele>
        <time>2021-03-20T17:56:55Z</time>
      </trkpt>
      <trkpt lat="56.94863" lon="-5.85343">
        <ele>7.74</ele>
        <time>2021-03-20T17:56:57Z</time>
      </trkpt>
      <trkpt lat="56.94872" lon="-5.85323">
        <ele>8.02</ele>
        <time>2021-03-20T17:56:59Z</time>
      </trkpt>
      <trkpt lat="56.9488" lon="-5.85291">
        <ele>8.55</ele>
        <time>2021-03-20T17:57:00Z</time>
      </trkpt>
      <trkpt lat="56.94885" lon="-5.85281">
        <ele>8.53</ele>
        <time>2021-03-20T17:57:02Z</time>
      </trkpt>
      <trkpt lat="56.94896" lon="-5.85267">
        <ele>7.24</ele>
        <time>2021-03-20T17:57:04Z</time>
      </trkpt>
      <trkpt lat="56.94901" lon="-5.85257">
        <ele>6.76</ele>
        <time>2021-03-20T17:57:06Z</time>
      </trkpt>
      <trkpt lat="56.94905" lon="-5.85234">
        <ele>6.63</ele>
        <time>2021-03-20T17:57:08Z</time>
      </trkpt>
      <trkpt lat="56.9491" lon="-5.85133">
        <ele>8.49</ele>
        <time>2021-03-20T17:57:09Z</time>
      </trkpt>
      <trkpt lat="56.94917" lon="-5.85053">
        <ele>10.13</ele>
        <time>2021-03-20T17:57:11Z</time>
      </trkpt>
      <trkpt lat="56.94933" lon="-5.84957">
        <ele>16.35</ele>
        <time>2021-03-20T17:57:13Z</time>
      </trkpt>
      <trkpt lat="56.94953" lon="-5.84846">
        <ele>18.56</ele>
        <time>2021-03-20T17:57:15Z</time>
      </trkpt>
      <trkpt lat="56.9496" lon="-5.84825">
        <ele>19</ele>
        <time>2021-03-20T17:57:17Z</time>
      </trkpt>
      <trkpt lat="56.94967" lon="-5.84816">
        <ele>19</ele>
        <time>2021-03-20T17:57:18Z</time>
      </trkpt>
      <trkpt lat="56.94977" lon="-5.84812">
        <ele>19.37</ele>
        <time>2021-03-20T17:57:20Z</time>
      </trkpt>
      <trkpt lat="56.9499" lon="-5.84811">
        <ele>20.29</ele>
        <time>2021-03-20T17:57:22Z</time>
      </trkpt>
      <trkpt lat="56.95002" lon="-5.84815">
        <ele>21.13</ele>
        <time>2021-03-20T17:57:24Z</time>
      </trkpt>
      <trkpt lat="56.95014" lon="-5.8482">
        <ele>22.03</ele>
        <time>2021-03-20T17:57:26Z</time>
      </trkpt>
      <trkpt lat="56.95087" lon="-5.84873">
        <ele>20.01</ele>
        <time>2021-03-20T17:57:27Z</time>
      </trkpt>
      <trkpt lat="56.95102" lon="-5.84878">
        <ele>18.65</ele>
        <time>2021-03-20T17:57:29Z</time>
      </trkpt>
      <trkpt lat="56.95174" lon="-5.8488">
        <ele>14.08</ele>
        <time>2021-03-20T17:57:31Z</time>
      </trkpt>
      <trkpt lat="56.95203" lon="-5.84876">
        <ele>14.45</ele>
        <time>2021-03-20T17:57:33Z</time>
      </trkpt>
      <trkpt lat="56.95213" lon="-5.84868">
        <ele>14.75</ele>
        <time>2021-03-20T17:57:35Z</time>
      </trkpt>
      <trkpt lat="56.95227" lon="-5.84843">
        <ele>15.14</ele>
        <time>2021-03-20T17:57:36Z</time>
      </trkpt>
      <trkpt lat="56.95242" lon="-5.84799">
        <ele>13.67</ele>
        <time>2021-03-20T17:57:38Z</time>
      </trkpt>
      <trkpt lat="56.95268" lon="-5.84708">
        <ele>13.27</ele>
        <time>2021-03-20T17:57:40Z</time>
      </trkpt>
      <trkpt lat="56.95273" lon="-5.84693">
        <ele>12.75</ele>
        <time>2021-03-20T17:57:42Z</time>
      </trkpt>
      <trkpt lat="56.95283" lon="-5.8468">
        <ele>12.8</ele>
        <time>2021-03-20T17:57:44Z</time>
      </trkpt>
      <trkpt lat="56.95289" lon="-5.84678">
        <ele>13.18</ele>
        <time>2021-03-20T17:57:45Z</time>
      </trkpt>
      <trkpt lat="56.95371" lon="-5.84678">
        <ele>19.75</ele>
        <time>2021-03-20T17:57:47Z</time>
      </trkpt>
      <trkpt lat="56.9541" lon="-5.84669">
        <ele>21.47</ele>
        <time>2021-03-20T17:57:49Z</time>
      </trkpt>
      <trkpt lat="56.95423" lon="-5.84654">
        <ele>22</ele>
        <time>2021-03-20T17:57:51Z</time>
      </trkpt>
      <trkpt lat="56.95435" lon="-5.84631">
        <ele>22.19</ele>
        <time>2021-03-20T17:57:53Z</time>
      </trkpt>
      <trkpt lat="56.95436" lon="-5.84604">
        <ele>22.69</ele>
        <time>2021-03-20T17:57:54Z</time>
      </trkpt>
      <trkpt lat="56.95422" lon="-5.84401">
        <ele>25.59</ele>
        <time>2021-03-20T17:57:56Z</time>
      </trkpt>
      <trkpt lat="56.95427" lon="-5.84355">
        <ele>25.65</ele>
        <time>2021-03-20T17:57:58Z</time>
      </trkpt>
      <trkpt lat="56.95437" lon="-5.84329">
        <ele>23.96</ele>
        <time>2021-03-20T17:58:00Z</time>
      </trkpt>
      <trkpt lat="56.95476" lon="-5.84265">
        <ele>21.32</ele>
        <time>2021-03-20T17:58:01Z</time>
      </trkpt>
      <trkpt lat="56.95491" lon="-5.84229">
        <ele>22.08</ele>
        <time>2021-03-20T17:58:03Z</time>
      </trkpt>
      <trkpt lat="56.95505" lon="-5.84209">
        <ele>20.96</ele>
        <time>2021-03-20T17:58:05Z</time>
      </trkpt>
      <trkpt lat="56.95516" lon="-5.84204">
        <ele>19.6</ele>
        <time>2021-03-20T17:58:07Z</time>
      </trkpt>
      <trkpt lat="56.95541" lon="-5.84208">
        <ele>16.85</ele>
        <time>2021-03-20T17:58:09Z</time>
      </trkpt>
      <trkpt lat="56.95565" lon="-5.84215">
        <ele>14.12</ele>
        <time>2021-03-20T17:58:10Z</time>
      </trkpt>
      <trkpt lat="56.95639" lon="-5.84245">
        <ele>9.52</ele>
        <time>2021-03-20T17:58:12Z</time>
      </trkpt>
      <trkpt lat="56.95671" lon="-5.84252">
        <ele>6.77</ele>
        <time>2021-03-20T17:58:14Z</time>
      </trkpt>
      <trkpt lat="56.95696" lon="-5.84251">
        <ele>4.95</ele>
        <time>2021-03-20T17:58:16Z</time>
      </trkpt>
      <trkpt lat="56.95714" lon="-5.8424">
        <ele>4.2</ele>
        <time>2021-03-20T17:58:18Z</time>
      </trkpt>
      <trkpt lat="56.9578" lon="-5.84183">
        <ele>10.92</ele>
        <time>2021-03-20T17:58:19Z</time>
      </trkpt>
      <trkpt lat="56.95821" lon="-5.8416">
        <ele>14.08</ele>
        <time>2021-03-20T17:58:21Z</time>
      </trkpt>
      <trkpt lat="56.9586" lon="-5.84143">
        <ele>15.97</ele>
        <time>2021-03-20T17:58:23Z</time>
      </trkpt>
      <trkpt lat="56.95884" lon="-5.84137">
        <ele>17.56</ele>
        <time>2021-03-20T17:58:25Z</time>
      </trkpt>
      <trkpt lat="56.95918" lon="-5.84135">
        <ele>18.87</ele>
        <time>2021-03-20T17:58:27Z</time>
      </trkpt>
      <trkpt lat="56.95932" lon="-5.8413">
        <ele>20.8</ele>
        <time>2021-03-20T17:58:28Z</time>
      </trkpt>
      <trkpt lat="56.95939" lon="-5.84119">
        <ele>21.4</ele>
        <time>2021-03-20T17:58:30Z</time>
      </trkpt>
      <trkpt lat="56.95944" lon="-5.84096">
        <ele>20.94</ele>
        <time>2021-03-20T17:58:32Z</time>
      </trkpt>
      <trkpt lat="56.95958" lon="-5.83918">
        <ele>18.3</ele>
        <time>2021-03-20T17:58:34Z</time>
      </trkpt>
      <trkpt lat="56.95961" lon="-5.83855">
        <ele>20.82</ele>
        <time>2021-03-20T17:58:36Z</time>
      </trkpt>
      <trkpt lat="56.95958" lon="-5.8381">
        <ele>21.36</ele>
        <time>2021-03-20T17:58:37Z</time>
      </trkpt>
      <trkpt lat="56.95947" lon="-5.83754">
        <ele>20.48</ele>
        <time>2021-03-20T17:58:39Z</time>
      </trkpt>
      <trkpt lat="56.95943" lon="-5.83704">
        <ele>19.72</ele>
        <time>2021-03-20T17:58:41Z</time>
      </trkpt>
      <trkpt lat="56.95943" lon="-5.83679">
        <ele>19.22</ele>
        <time>2021-03-20T17:58:43Z</time>
      </trkpt>
      <trkpt lat="56.95952" lon="-5.83654">
        <ele>19.43</ele>
        <time>2021-03-20T17:58:45Z</time>
      </trkpt>
      <trkpt lat="56.96006" lon="-5.83578">
        <ele>20.06</ele>
        <time>2021-03-20T17:58:46Z</time>
      </trkpt>
      <trkpt lat="56.96021" lon="-5.83565">
        <ele>20.24</ele>
        <time>2021-03-20T17:58:48Z</time>
      </trkpt>
      <trkpt lat="56.96053" lon="-5.83558">
        <ele>21.99</ele>
        <time>2021-03-20T17:58:50Z</time>
      </trkpt>
      <trkpt lat="56.96113" lon="-5.83535">
        <ele>19.55</ele>
        <time>2021-03-20T17:58:52Z</time>
      </trkpt>
      <trkpt lat="56.96145" lon="-5.83511">
        <ele>17.53</ele>
        <time>2021-03-20T17:58:54Z</time>
      </trkpt>
      <trkpt lat="56.96249" lon="-5.83413">
        <ele>19.82</ele>
        <time>2021-03-20T17:58:55Z</time>
      </trkpt>
      <trkpt lat="56.96269" lon="-5.83386">
        <ele>20.35</ele>
        <time>2021-03-20T17:58:57Z</time>
      </trkpt>
      <trkpt lat="56.96274" lon="-5.83369">
        <ele>20.7</ele>
        <time>2021-03-20T17:58:59Z</time>
      </trkpt>
      <trkpt lat="56.96274" lon="-5.83339">
        <ele>20.6</ele>
        <time>2021-03-20T17:59:01Z</time>
      </trkpt>
      <trkpt lat="56.96272" lon="-5.83299">
        <ele>20.57</ele>
        <time>2021-03-20T17:59:03Z</time>
      </trkpt>
      <trkpt lat="56.96276" lon="-5.83268">
        <ele>21.79</ele>
        <time>2021-03-20T17:59:04Z</time>
      </trkpt>
      <trkpt lat="56.96288" lon="-5.83229">
        <ele>22.45</ele>
        <time>2021-03-20T17:59:06Z</time>
      </trkpt>
      <trkpt lat="56.96299" lon="-5.83201">
        <ele>22.17</ele>
        <time>2021-03-20T17:59:08Z</time>
      </trkpt>
      <trkpt lat="56.96309" lon="-5.83166">
        <ele>20.85</ele>
        <time>2021-03-20T17:59:10Z</time>
      </trkpt>
      <trkpt lat="56.9631" lon="-5.83149">
        <ele>20.19</ele>
        <time>2021-03-20T17:59:12Z</time>
      </trkpt>
      <trkpt lat="56.96288" lon="-5.82979">
        <ele>17.59</ele>
        <time>2021-03-20T17:59:13Z</time>
      </trkpt>
      <trkpt lat="56.9628" lon="-5.82942">
        <ele>18.63</ele>
        <time>2021-03-20T17:59:15Z</time>
      </trkpt>
      <trkpt lat="56.96268" lon="-5.8291">
        <ele>18.34</ele>
        <time>2021-03-20T17:59:17Z</time>
      </trkpt>
      <trkpt lat="56.96242" lon="-5.82871">
        <ele>17.5</ele>
        <time>2021-03-20T17:59:19Z</time>
      </trkpt>
      <trkpt lat="56.96159" lon="-5.82705">
        <ele>11</ele>
        <time>2021-03-20T17:59:21Z</time>
      </trkpt>
      <trkpt lat="56.9615" lon="-5.82676">
        <ele>11.26</ele>
        <time>2021-03-20T17:59:22Z</time>
      </trkpt>
      <trkpt lat="56.96145" lon="-5.82652">
        <ele>11.22</ele>
        <time>2021-03-20T17:59:24Z</time>
      </trkpt>
      <trkpt lat="56.96142" lon="-5.82619">
        <ele>11.81</ele>
        <time>2021-03-20T17:59:26Z</time>
      </trkpt>
      <trkpt lat="56.96142" lon="-5.82444">
        <ele>14.79</ele>
        <time>2021-03-20T17:59:28Z</time>
      </trkpt>
      <trkpt lat="56.96138" lon="-5.82429">
        <ele>14.56</ele>
        <time>2021-03-20T17:59:30Z</time>
      </trkpt>
      <trkpt lat="56.96105" lon="-5.82384">
        <ele>15.53</ele>
        <time>2021-03-20T17:59:31Z</time>
      </trkpt>
      <trkpt lat="56.96082" lon="-5.82328">
        <ele>13.47</ele>
        <time>2021-03-20T17:59:33Z</time>
      </trkpt>
      <trkpt lat="56.96034" lon="-5.82168">
        <ele>7.78</ele>
        <time>2021-03-20T17:59:35Z</time>
      </trkpt>
      <trkpt lat="56.96027" lon="-5.82135">
        <ele>9.18</ele>
        <time>2021-03-20T17:59:37Z</time>
      </trkpt>
      <trkpt lat="56.96027" lon="-5.82099">
        <ele>9.97</ele>
        <time>2021-03-20T17:59:39Z</time>
      </trkpt>
      <trkpt lat="56.9602" lon="-5.82057">
        <ele>15.18</ele>
        <time>2021-03-20T17:59:40Z</time>
      </trkpt>
      <trkpt lat="56.95998" lon="-5.82047">
        <ele>20.55</ele>
        <time>2021-03-20T17:59:42Z</time>
      </trkpt>
      <trkpt lat="56.95983" lon="-5.82058">
        <ele>21.28</ele>
        <time>2021-03-20T17:59:44Z</time>
      </trkpt>
      <trkpt lat="56.95966" lon="-5.82057">
        <ele>23.75</ele>
        <time>2021-03-20T17:59:46Z</time>
      </trkpt>
      <trkpt lat="56.95951" lon="-5.82049">
        <ele>26.22</ele>
        <time>2021-03-20T17:59:48Z</time>
      </trkpt>
      <trkpt lat="56.95936" lon="-5.82027">
        <ele>27.91</ele>
        <time>2021-03-20T17:59:49Z</time>
      </trkpt>
      <trkpt lat="56.95903" lon="-5.81949">
        <ele>27.26</ele>
        <time>2021-03-20T17:59:51Z</time>
      </trkpt>
      <trkpt lat="56.95915" lon="-5.8194">
        <ele>26.66</ele>
        <time>2021-03-20T17:59:52Z</time>
      </trkpt>
      <trkpt lat="56.95919" lon="-5.81935">
        <ele>26.43</ele>
        <time>2021-03-20T17:59:54Z</time>
      </trkpt>
      <trkpt lat="56.95938" lon="-5.81923">
        <ele>26.24</ele>
        <time>2021-03-20T17:59:55Z</time>
      </trkpt>
      <trkpt lat="56.95988" lon="-5.81903">
        <ele>23.44</ele>
        <time>2021-03-20T17:59:56Z</time>
      </trkpt>
      <trkpt lat="56.96003" lon="-5.81899">
        <ele>22.25</ele>
        <time>2021-03-20T17:59:57Z</time>
      </trkpt>
      <trkpt lat="56.96" lon="-5.81812">
        <ele>10.46</ele>
        <time>2021-03-20T18:00:00Z</time>
      </trkpt>
      <trkpt lat="56.96006" lon="-5.81771">
        <ele>7.43</ele>
        <time>2021-03-20T18:00:03Z</time>
      </trkpt>
      <trkpt lat="56.96022" lon="-5.81729">
        <ele>7.77</ele>
        <time>2021-03-20T18:00:06Z</time>
      </trkpt>
      <trkpt lat="56.96044" lon="-5.81708">
        <ele>9.9</ele>
        <time>2021-03-20T18:00:09Z</time>
      </trkpt>
      <trkpt lat="56.96056" lon="-5.817">
        <ele>10.99</ele>
        <time>2021-03-20T18:00:12Z</time>
      </trkpt>
      <trkpt lat="56.96069" lon="-5.81695">
        <ele>12.37</ele>
        <time>2021-03-20T18:00:15Z</time>
      </trkpt>
      <trkpt lat="56.96231" lon="-5.81681">
        <ele>11.32</ele>
        <time>2021-03-20T18:00:18Z</time>
      </trkpt>
      <trkpt lat="56.96246" lon="-5.8167">
        <ele>11.1</ele>
        <time>2021-03-20T18:00:21Z</time>
      </trkpt>
      <trkpt lat="56.96257" lon="-5.81657">
        <ele>11.02</ele>
        <time>2021-03-20T18:00:23Z</time>
      </trkpt>
      <trkpt lat="56.96278" lon="-5.81614">
        <ele>9.86</ele>
        <time>2021-03-20T18:00:26Z</time>
      </trkpt>
      <trkpt lat="56.96305" lon="-5.8159">
        <ele>8.07</ele>
        <time>2021-03-20T18:00:29Z</time>
      </trkpt>
      <trkpt lat="56.96308" lon="-5.81583">
        <ele>8.53</ele>
        <time>2021-03-20T18:00:32Z</time>
      </trkpt>
      <trkpt lat="56.96321" lon="-5.8153">
        <ele>11.27</ele>
        <time>2021-03-20T18:00:35Z</time>
      </trkpt>
      <trkpt lat="56.96332" lon="-5.81509">
        <ele>12.23</ele>
        <time>2021-03-20T18:00:38Z</time>
      </trkpt>
      <trkpt lat="56.96352" lon="-5.81485">
        <ele>12.81</ele>
        <time>2021-03-20T18:00:41Z</time>
      </trkpt>
      <trkpt lat="56.96367" lon="-5.81463">
        <ele>12.77</ele>
        <time>2021-03-20T18:00:44Z</time>
      </trkpt>
      <trkpt lat="56.96374" lon="-5.8146">
        <ele>13.24</ele>
        <time>2021-03-20T18:00:47Z</time>
      </trkpt>
      <trkpt lat="56.96382" lon="-5.81463">
        <ele>14.07</ele>
        <time>2021-03-20T18:00:50Z</time>
      </trkpt>
      <trkpt lat="56.96403" lon="-5.8148">
        <ele>15.84</ele>
        <time>2021-03-20T18:00:53Z</time>
      </trkpt>
      <trkpt lat="56.96445" lon="-5.81495">
        <ele>19.43</ele>
        <time>2021-03-20T18:00:56Z</time>
      </trkpt>
      <trkpt lat="56.96467" lon="-5.81506">
        <ele>21.8</ele>
        <time>2021-03-20T18:00:59Z</time>
      </trkpt>
      <trkpt lat="56.96488" lon="-5.81523">
        <ele>23.15</ele>
        <time>2021-03-20T18:01:02Z</time>
      </trkpt>
      <trkpt lat="56.96507" lon="-5.81548">
        <ele>23.59</ele>
        <time>2021-03-20T18:01:05Z</time>
      </trkpt>
      <trkpt lat="56.96537" lon="-5.81595">
        <ele>24.11</ele>
        <time>2021-03-20T18:01:08Z</time>
      </trkpt>
      <trkpt lat="56.96571" lon="-5.81633">
        <ele>24.9</ele>
        <time>2021-03-20T18:01:11Z</time>
      </trkpt>
      <trkpt lat="56.96589" lon="-5.81641">
        <ele>25.06</ele>
        <time>2021-03-20T18:01:14Z</time>
      </trkpt>
      <trkpt lat="56.96622" lon="-5.81643">
        <ele>26.06</ele>
        <time>2021-03-20T18:01:17Z</time>
      </trkpt>
      <trkpt lat="56.96677" lon="-5.81639">
        <ele>26.01</ele>
        <time>2021-03-20T18:01:19Z</time>
      </trkpt>
      <trkpt lat="56.96715" lon="-5.81668">
        <ele>26.41</ele>
        <time>2021-03-20T18:01:22Z</time>
      </trkpt>
      <trkpt lat="56.96736" lon="-5.81691">
        <ele>27.99</ele>
        <time>2021-03-20T18:01:25Z</time>
      </trkpt>
      <trkpt lat="56.96741" lon="-5.81705">
        <ele>28.7</ele>
        <time>2021-03-20T18:01:28Z</time>
      </trkpt>
      <trkpt lat="56.96742" lon="-5.81757">
        <ele>28.84</ele>
        <time>2021-03-20T18:01:31Z</time>
      </trkpt>
      <trkpt lat="56.96712" lon="-5.81863">
        <ele>26.55</ele>
        <time>2021-03-20T18:01:34Z</time>
      </trkpt>
      <trkpt lat="56.96708" lon="-5.81896">
        <ele>26.07</ele>
        <time>2021-03-20T18:01:37Z</time>
      </trkpt>
      <trkpt lat="56.96708" lon="-5.81929">
        <ele>26.52</ele>
        <time>2021-03-20T18:01:40Z</time>
      </trkpt>
      <trkpt lat="56.96718" lon="-5.81961">
        <ele>27.56</ele>
        <time>2021-03-20T18:01:43Z</time>
      </trkpt>
      <trkpt lat="56.96735" lon="-5.82002">
        <ele>30.68</ele>
        <time>2021-03-20T18:01:46Z</time>
      </trkpt>
      <trkpt lat="56.96758" lon="-5.82052">
        <ele>30.86</ele>
        <time>2021-03-20T18:01:49Z</time>
      </trkpt>
      <trkpt lat="56.96851" lon="-5.82189">
        <ele>28.39</ele>
        <time>2021-03-20T18:01:52Z</time>
      </trkpt>
      <trkpt lat="56.9691" lon="-5.82289">
        <ele>27.52</ele>
        <time>2021-03-20T18:01:55Z</time>
      </trkpt>
      <trkpt lat="56.96928" lon="-5.82307">
        <ele>26.96</ele>
        <time>2021-03-20T18:01:58Z</time>
      </trkpt>
      <trkpt lat="56.96993" lon="-5.82342">
        <ele>28.14</ele>
        <time>2021-03-20T18:02:01Z</time>
      </trkpt>
      <trkpt lat="56.97027" lon="-5.82357">
        <ele>27.27</ele>
        <time>2021-03-20T18:02:04Z</time>
      </trkpt>
      <trkpt lat="56.97064" lon="-5.82363">
        <ele>22.96</ele>
        <time>2021-03-20T18:02:07Z</time>
      </trkpt>
      <trkpt lat="56.97168" lon="-5.82338">
        <ele>11.53</ele>
        <time>2021-03-20T18:02:10Z</time>
      </trkpt>
      <trkpt lat="56.97195" lon="-5.82333">
        <ele>11.98</ele>
        <time>2021-03-20T18:02:13Z</time>
      </trkpt>
      <trkpt lat="56.97221" lon="-5.82339">
        <ele>9.72</ele>
        <time>2021-03-20T18:02:16Z</time>
      </trkpt>
      <trkpt lat="56.97306" lon="-5.82389">
        <ele>5.02</ele>
        <time>2021-03-20T18:02:18Z</time>
      </trkpt>
      <trkpt lat="56.97364" lon="-5.824">
        <ele>7.92</ele>
        <time>2021-03-20T18:02:21Z</time>
      </trkpt>
      <trkpt lat="56.97386" lon="-5.82407">
        <ele>7.98</ele>
        <time>2021-03-20T18:02:24Z</time>
      </trkpt>
      <trkpt lat="56.97398" lon="-5.82415">
        <ele>7.18</ele>
        <time>2021-03-20T18:02:27Z</time>
      </trkpt>
      <trkpt lat="56.97423" lon="-5.82433">
        <ele>6.03</ele>
        <time>2021-03-20T18:02:30Z</time>
      </trkpt>
      <trkpt lat="56.97439" lon="-5.82463">
        <ele>5.16</ele>
        <time>2021-03-20T18:02:33Z</time>
      </trkpt>
      <trkpt lat="56.97449" lon="-5.82493">
        <ele>4.39</ele>
        <time>2021-03-20T18:02:36Z</time>
      </trkpt>
      <trkpt lat="56.9746" lon="-5.82545">
        <ele>4</ele>
        <time>2021-03-20T18:02:39Z</time>
      </trkpt>
      <trkpt lat="56.97458" lon="-5.82613">
        <ele>5.11</ele>
        <time>2021-03-20T18:02:42Z</time>
      </trkpt>
      <trkpt lat="56.97445" lon="-5.82722">
        <ele>7.05</ele>
        <time>2021-03-20T18:02:45Z</time>
      </trkpt>
      <trkpt lat="56.97751" lon="-5.82853">
        <ele>26.34</ele>
        <time>2021-03-20T18:02:50Z</time>
      </trkpt>
      <trkpt lat="56.9779" lon="-5.82864">
        <ele>27.84</ele>
        <time>2021-03-20T18:02:55Z</time>
      </trkpt>
      <trkpt lat="56.97859" lon="-5.82871">
        <ele>33.23</ele>
        <time>2021-03-20T18:03:00Z</time>
      </trkpt>
      <trkpt lat="56.97889" lon="-5.82867">
        <ele>35.64</ele>
        <time>2021-03-20T18:03:05Z</time>
      </trkpt>
      <trkpt lat="56.97948" lon="-5.82853">
        <ele>37.02</ele>
        <time>2021-03-20T18:03:10Z</time>
      </trkpt>
      <trkpt lat="56.98379" lon="-5.82703">
        <ele>39.83</ele>
        <time>2021-03-20T18:03:15Z</time>
      </trkpt>
      <trkpt lat="56.98449" lon="-5.82666">
        <ele>39.11</ele>
        <time>2021-03-20T18:03:20Z</time>
      </trkpt>
      <trkpt lat="56.98514" lon="-5.8262">
        <ele>35.66</ele>
        <time>2021-03-20T18:03:25Z</time>
      </trkpt>
      <trkpt lat="56.98587" lon="-5.82573">
        <ele>34.3</ele>
        <time>2021-03-20T18:03:30Z</time>
      </trkpt>
      <trkpt lat="56.98632" lon="-5.82549">
        <ele>34.85</ele>
        <time>2021-03-20T18:03:35Z</time>
      </trkpt>
      <trkpt lat="56.98669" lon="-5.82536">
        <ele>36.89</ele>
        <time>2021-03-20T18:03:40Z</time>
      </trkpt>
      <trkpt lat="56.98711" lon="-5.82527">
        <ele>35.9</ele>
        <time>2021-03-20T18:03:45Z</time>
      </trkpt>
      <trkpt lat="56.98749" lon="-5.82523">
        <ele>35.5</ele>
        <time>2021-03-20T18:03:50Z</time>
      </trkpt>
      <trkpt lat="56.98785" lon="-5.82524">
        <ele>35.31</ele>
        <time>2021-03-20T18:03:54Z</time>
      </trkpt>
      <trkpt lat="56.98823" lon="-5.82529">
        <ele>35.12</ele>
        <time>2021-03-20T18:03:59Z</time>
      </trkpt>
      <trkpt lat="56.98877" lon="-5.82547">
        <ele>32.22</ele>
        <time>2021-03-20T18:04:04Z</time>
      </trkpt>
      <trkpt lat="56.98877" lon="-5.82547">
        <ele>32.22</ele>
        <time>2021-03-20T18:04:04Z</time>
      </trkpt>
      <trkpt lat="56.98913" lon="-5.82564">
        <ele>31.17</ele>
        <time>2021-03-20T18:04:08Z</time>
      </trkpt>
      <trkpt lat="56.98935" lon="-5.82577">
        <ele>30.62</ele>
        <time>2021-03-20T18:04:12Z</time>
      </trkpt>
      <trkpt lat="56.98975" lon="-5.82606">
        <ele>28.92</ele>
        <time>2021-03-20T18:04:16Z</time>
      </trkpt>
      <trkpt lat="56.99018" lon="-5.82643">
        <ele>27.78</ele>
        <time>2021-03-20T18:04:19Z</time>
      </trkpt>
      <trkpt lat="56.99151" lon="-5.8278">
        <ele>16.65</ele>
        <time>2021-03-20T18:04:23Z</time>
      </trkpt>
      <trkpt lat="56.99248" lon="-5.82884">
        <ele>10.93</ele>
        <time>2021-03-20T18:04:27Z</time>
      </trkpt>
      <trkpt lat="56.99259" lon="-5.8285">
        <ele>12.18</ele>
        <time>2021-03-20T18:04:30Z</time>
      </trkpt>
      <trkpt lat="56.99267" lon="-5.82841">
        <ele>13.35</ele>
        <time>2021-03-20T18:04:34Z</time>
      </trkpt>
      <trkpt lat="56.99283" lon="-5.8283">
        <ele>15.84</ele>
        <time>2021-03-20T18:04:37Z</time>
      </trkpt>
      <trkpt lat="56.99302" lon="-5.82841">
        <ele>17.87</ele>
        <time>2021-03-20T18:04:40Z</time>
      </trkpt>
      <trkpt lat="56.99319" lon="-5.82866">
        <ele>18.66</ele>
        <time>2021-03-20T18:04:44Z</time>
      </trkpt>
      <trkpt lat="56.99334" lon="-5.82918">
        <ele>17.99</ele>
        <time>2021-03-20T18:04:47Z</time>
      </trkpt>
      <trkpt lat="56.99341" lon="-5.82924">
        <ele>18.06</ele>
        <time>2021-03-20T18:04:51Z</time>
      </trkpt>
      <trkpt lat="56.99349" lon="-5.82926">
        <ele>18.44</ele>
        <time>2021-03-20T18:04:54Z</time>
      </trkpt>
      <trkpt lat="56.99357" lon="-5.82923">
        <ele>19.2</ele>
        <time>2021-03-20T18:04:57Z</time>
      </trkpt>
      <trkpt lat="56.99361" lon="-5.82918">
        <ele>19.9</ele>
        <time>2021-03-20T18:05:01Z</time>
      </trkpt>
      <trkpt lat="56.99373" lon="-5.82891">
        <ele>22.67</ele>
        <time>2021-03-20T18:05:04Z</time>
      </trkpt>
      <trkpt lat="56.99385" lon="-5.82871">
        <ele>24.88</ele>
        <time>2021-03-20T18:05:07Z</time>
      </trkpt>
      <trkpt lat="56.99393" lon="-5.82865">
        <ele>25.84</ele>
        <time>2021-03-20T18:05:11Z</time>
      </trkpt>
      <trkpt lat="56.99405" lon="-5.82868">
        <ele>26.06</ele>
        <time>2021-03-20T18:05:14Z</time>
      </trkpt>
      <trkpt lat="56.99413" lon="-5.82875">
        <ele>25.89</ele>
        <time>2021-03-20T18:05:18Z</time>
      </trkpt>
      <trkpt lat="56.99423" lon="-5.82887">
        <ele>25.58</ele>
        <time>2021-03-20T18:05:21Z</time>
      </trkpt>
      <trkpt lat="56.99453" lon="-5.82942">
        <ele>23.15</ele>
        <time>2021-03-20T18:05:24Z</time>
      </trkpt>
      <trkpt lat="56.99465" lon="-5.82957">
        <ele>22.98</ele>
        <time>2021-03-20T18:05:28Z</time>
      </trkpt>
      <trkpt lat="56.99475" lon="-5.82966">
        <ele>23.16</ele>
        <time>2021-03-20T18:05:31Z</time>
      </trkpt>
      <trkpt lat="56.99489" lon="-5.82969">
        <ele>24.83</ele>
        <time>2021-03-20T18:05:34Z</time>
      </trkpt>
      <trkpt lat="56.99513" lon="-5.82964">
        <ele>29.24</ele>
        <time>2021-03-20T18:05:38Z</time>
      </trkpt>
      <trkpt lat="56.99574" lon="-5.82943">
        <ele>36.14</ele>
        <time>2021-03-20T18:05:41Z</time>
      </trkpt>
      <trkpt lat="56.99591" lon="-5.82936">
        <ele>36.81</ele>
        <time>2021-03-20T18:05:45Z</time>
      </trkpt>
      <trkpt lat="56.99613" lon="-5.82932">
        <ele>37.7</ele>
        <time>2021-03-20T18:05:48Z</time>
      </trkpt>
      <trkpt lat="56.99675" lon="-5.82926">
        <ele>44.94</ele>
        <time>2021-03-20T18:05:51Z</time>
      </trkpt>
      <trkpt lat="56.99699" lon="-5.82933">
        <ele>46.33</ele>
        <time>2021-03-20T18:05:55Z</time>
      </trkpt>
      <trkpt lat="56.99742" lon="-5.82958">
        <ele>47.49</ele>
        <time>2021-03-20T18:05:58Z</time>
      </trkpt>
      <trkpt lat="56.99809" lon="-5.83003">
        <ele>47.94</ele>
        <time>2021-03-20T18:06:01Z</time>
      </trkpt>
      <trkpt lat="56.99874" lon="-5.83037">
        <ele>50.21</ele>
        <time>2021-03-20T18:06:05Z</time>
      </trkpt>
      <trkpt lat="56.99914" lon="-5.8305">
        <ele>50.43</ele>
        <time>2021-03-20T18:06:08Z</time>
      </trkpt>
      <trkpt lat="57.00047" lon="-5.83076">
        <ele>42.8</ele>
        <time>2021-03-20T18:06:12Z</time>
      </trkpt>
      <trkpt lat="57.00099" lon="-5.83084">
        <ele>39.84</ele>
        <time>2021-03-20T18:06:15Z</time>
      </trkpt>
      <trkpt lat="57.00113" lon="-5.83084">
        <ele>38.91</ele>
        <time>2021-03-20T18:06:18Z</time>
      </trkpt>
      <trkpt lat="57.00124" lon="-5.83078">
        <ele>38.87</ele>
        <time>2021-03-20T18:06:22Z</time>
      </trkpt>
      <trkpt lat="57.00151" lon="-5.83045">
        <ele>38.44</ele>
        <time>2021-03-20T18:06:25Z</time>
      </trkpt>
      <trkpt lat="57.00178" lon="-5.83017">
        <ele>36.86</ele>
        <time>2021-03-20T18:06:28Z</time>
      </trkpt>
      <trkpt lat="57.00194" lon="-5.83005">
        <ele>34.28</ele>
        <time>2021-03-20T18:06:32Z</time>
      </trkpt>
      <trkpt lat="57.00225" lon="-5.82988">
        <ele>29.31</ele>
        <time>2021-03-20T18:06:35Z</time>
      </trkpt>
      <trkpt lat="57.0029" lon="-5.82966">
        <ele>20.92</ele>
        <time>2021-03-20T18:06:39Z</time>
      </trkpt>
      <trkpt lat="57.00324" lon="-5.82962">
        <ele>19.42</ele>
        <time>2021-03-20T18:06:42Z</time>
      </trkpt>
      <trkpt lat="57.00348" lon="-5.82968">
        <ele>17.9</ele>
        <time>2021-03-20T18:06:45Z</time>
      </trkpt>
      <trkpt lat="57.00442" lon="-5.82978">
        <ele>16.69</ele>
        <time>2021-03-20T18:06:49Z</time>
      </trkpt>
      <trkpt lat="57.00469" lon="-5.82973">
        <ele>13.52</ele>
        <time>2021-03-20T18:06:52Z</time>
      </trkpt>
      <trkpt lat="57.00489" lon="-5.82953">
        <ele>12.9</ele>
        <time>2021-03-20T18:06:55Z</time>
      </trkpt>
      <trkpt lat="57.00511" lon="-5.82923">
        <ele>11.74</ele>
        <time>2021-03-20T18:06:59Z</time>
      </trkpt>
      <trkpt lat="57.00544" lon="-5.82872">
        <ele>7.61</ele>
        <time>2021-03-20T18:07:02Z</time>
      </trkpt>
      <trkpt lat="57.00556" lon="-5.82879">
        <ele>6.63</ele>
        <time>2021-03-20T18:07:06Z</time>
      </trkpt>
      <trkpt lat="57.00568" lon="-5.82893">
        <ele>6.62</ele>
        <time>2021-03-20T18:07:09Z</time>
      </trkpt>
      <trkpt lat="57.00612" lon="-5.82958">
        <ele>5</ele>
        <time>2021-03-20T18:07:13Z</time>
      </trkpt>
      <trkpt lat="57.00611" lon="-5.82966">
        <ele>5</ele>
        <time>2021-03-20T18:07:15Z</time>
      </trkpt>
      <trkpt lat="57.00614" lon="-5.82975">
        <ele>5</ele>
        <time>2021-03-20T18:07:17Z</time>
      </trkpt>
      <trkpt lat="57.00618" lon="-5.82978">
        <ele>5</ele>
        <time>2021-03-20T18:07:19Z</time>
      </trkpt>
      <trkpt lat="57.00622" lon="-5.82975">
        <ele>5</ele>
        <time>2021-03-20T18:07:21Z</time>
      </trkpt>
      <trkpt lat="57.00625" lon="-5.8297">
        <ele>5</ele>
        <time>2021-03-20T18:07:23Z</time>
      </trkpt>
      <trkpt lat="57.00625" lon="-5.82961">
        <ele>5</ele>
        <time>2021-03-20T18:07:25Z</time>
      </trkpt>
      <trkpt lat="57.00621" lon="-5.82953">
        <ele>5</ele>
        <time>2021-03-20T18:07:27Z</time>
      </trkpt>
      <trkpt lat="57.00642" lon="-5.82883">
        <ele>4</ele>
        <time>2021-03-20T18:07:29Z</time>
      </trkpt>
      <trkpt lat="57.00646" lon="-5.82875">
        <ele>4</ele>
        <time>2021-03-20T18:07:31Z</time>
      </trkpt>
      <trkpt lat="57.00659" lon="-5.82858">
        <ele>4</ele>
        <time>2021-03-20T18:07:33Z</time>
      </trkpt>
      <trkpt lat="57.00676" lon="-5.82788">
        <ele>3.37</ele>
        <time>2021-03-20T18:07:35Z</time>
      </trkpt>
      <trkpt lat="57.00701" lon="-5.8277">
        <ele>3</ele>
        <time>2021-03-20T18:07:37Z</time>
      </trkpt>
      <trkpt lat="57.00716" lon="-5.82694">
        <ele>3</ele>
        <time>2021-03-20T18:07:39Z</time>
      </trkpt>
      <trkpt lat="57.00755" lon="-5.82466">
        <ele>2.97</ele>
        <time>2021-03-20T18:07:54Z</time>
      </trkpt>
      <trkpt lat="57.00784" lon="-5.82444">
        <ele>2.97</ele>
        <time>2021-03-20T18:08:10Z</time>
      </trkpt>
      <trkpt lat="57.01329" lon="-5.82349">
        <ele>2.91</ele>
        <time>2021-03-20T18:08:25Z</time>
      </trkpt>
      <trkpt lat="57.01613" lon="-5.82414">
        <ele>2.88</ele>
        <time>2021-03-20T18:08:40Z</time>
      </trkpt>
      <trkpt lat="57.02627" lon="-5.83341">
        <ele>2.74</ele>
        <time>2021-03-20T18:08:55Z</time>
      </trkpt>
      <trkpt lat="57.03851" lon="-5.84637">
        <ele>2.52</ele>
        <time>2021-03-20T18:09:10Z</time>
      </trkpt>
      <trkpt lat="57.04817" lon="-5.85752">
        <ele>2.33</ele>
        <time>2021-03-20T18:09:25Z</time>
      </trkpt>
      <trkpt lat="57.05485" lon="-5.86645">
        <ele>2.19</ele>
        <time>2021-03-20T18:09:40Z</time>
      </trkpt>
      <trkpt lat="57.06185" lon="-5.87804">
        <ele>2.02</ele>
        <time>2021-03-20T18:09:55Z</time>
      </trkpt>
      <trkpt lat="57.06507" lon="-5.88448">
        <ele>1.93</ele>
        <time>2021-03-20T18:10:10Z</time>
      </trkpt>
      <trkpt lat="57.06614" lon="-5.8892">
        <ele>1.87</ele>
        <time>2021-03-20T18:10:26Z</time>
      </trkpt>
      <trkpt lat="57.06605" lon="-5.89134">
        <ele>1.85</ele>
        <time>2021-03-20T18:10:41Z</time>
      </trkpt>
      <trkpt lat="57.06487" lon="-5.89453">
        <ele>1.8</ele>
        <time>2021-03-20T18:10:56Z</time>
      </trkpt>
      <trkpt lat="57.0647" lon="-5.89509">
        <ele>2.17</ele>
        <time>2021-03-20T18:11:11Z</time>
      </trkpt>
      <trkpt lat="57.06443" lon="-5.89549">
        <ele>4.21</ele>
        <time>2021-03-20T18:11:26Z</time>
      </trkpt>
      <trkpt lat="57.06434" lon="-5.89582">
        <ele>5.93</ele>
        <time>2021-03-20T18:11:41Z</time>
      </trkpt>
      <trkpt lat="57.06429" lon="-5.89606">
        <ele>7.15</ele>
        <time>2021-03-20T18:11:56Z</time>
      </trkpt>
      <trkpt lat="57.06413" lon="-5.89798">
        <ele>5.16</ele>
        <time>2021-03-20T18:12:11Z</time>
      </trkpt>
      <trkpt lat="57.06412" lon="-5.8984">
        <ele>5.15</ele>
        <time>2021-03-20T18:12:26Z</time>
      </trkpt>
      <trkpt lat="57.06416" lon="-5.8992">
        <ele>5.93</ele>
        <time>2021-03-20T18:12:42Z</time>
      </trkpt>
      <trkpt lat="57.06421" lon="-5.89967">
        <ele>6.44</ele>
        <time>2021-03-20T18:12:57Z</time>
      </trkpt>
      <trkpt lat="57.0643" lon="-5.90014">
        <ele>8</ele>
        <time>2021-03-20T18:13:12Z</time>
      </trkpt>
      <trkpt lat="57.06448" lon="-5.90049">
        <ele>11.01</ele>
        <time>2021-03-20T18:13:27Z</time>
      </trkpt>
      <trkpt lat="57.06481" lon="-5.90096">
        <ele>21.61</ele>
        <time>2021-03-20T18:13:42Z</time>
      </trkpt>
      <trkpt lat="57.06496" lon="-5.90104">
        <ele>25.85</ele>
        <time>2021-03-20T18:13:57Z</time>
      </trkpt>
      <trkpt lat="57.06503" lon="-5.90104">
        <ele>27.15</ele>
        <time>2021-03-20T18:14:12Z</time>
      </trkpt>
      <trkpt lat="57.06513" lon="-5.90098">
        <ele>27.52</ele>
        <time>2021-03-20T18:14:27Z</time>
      </trkpt>
      <trkpt lat="57.06564" lon="-5.90058">
        <ele>25.66</ele>
        <time>2021-03-20T18:14:42Z</time>
      </trkpt>
      <trkpt lat="57.06738" lon="-5.89865">
        <ele>21.58</ele>
        <time>2021-03-20T18:14:58Z</time>
      </trkpt>
      <trkpt lat="57.06809" lon="-5.89798">
        <ele>19.83</ele>
        <time>2021-03-20T18:15:13Z</time>
      </trkpt>
      <trkpt lat="57.06847" lon="-5.89768">
        <ele>20.68</ele>
        <time>2021-03-20T18:15:28Z</time>
      </trkpt>
      <trkpt lat="57.06895" lon="-5.89748">
        <ele>23.21</ele>
        <time>2021-03-20T18:15:43Z</time>
      </trkpt>
      <trkpt lat="57.06911" lon="-5.8973">
        <ele>21.69</ele>
        <time>2021-03-20T18:15:58Z</time>
      </trkpt>
      <trkpt lat="57.06924" lon="-5.89708">
        <ele>19.46</ele>
        <time>2021-03-20T18:16:13Z</time>
      </trkpt>
      <trkpt lat="57.0699" lon="-5.89563">
        <ele>14.24</ele>
        <time>2021-03-20T18:16:28Z</time>
      </trkpt>
      <trkpt lat="57.0702" lon="-5.89504">
        <ele>15.96</ele>
        <time>2021-03-20T18:16:43Z</time>
      </trkpt>
      <trkpt lat="57.0704" lon="-5.89474">
        <ele>16.06</ele>
        <time>2021-03-20T18:16:58Z</time>
      </trkpt>
      <trkpt lat="57.07064" lon="-5.89446">
        <ele>14.45</ele>
        <time>2021-03-20T18:17:14Z</time>
      </trkpt>
      <trkpt lat="57.07099" lon="-5.8942">
        <ele>12.35</ele>
        <time>2021-03-20T18:17:29Z</time>
      </trkpt>
      <trkpt lat="57.07157" lon="-5.89386">
        <ele>12.18</ele>
        <time>2021-03-20T18:17:44Z</time>
      </trkpt>
      <trkpt lat="57.07184" lon="-5.89353">
        <ele>12.64</ele>
        <time>2021-03-20T18:17:59Z</time>
      </trkpt>
      <trkpt lat="57.072" lon="-5.89306">
        <ele>13</ele>
        <time>2021-03-20T18:18:14Z</time>
      </trkpt>
      <trkpt lat="57.07225" lon="-5.89174">
        <ele>12.86</ele>
        <time>2021-03-20T18:18:29Z</time>
      </trkpt>
      <trkpt lat="57.0726" lon="-5.8908">
        <ele>14.71</ele>
        <time>2021-03-20T18:18:44Z</time>
      </trkpt>
      <trkpt lat="57.07298" lon="-5.89044">
        <ele>16.22</ele>
        <time>2021-03-20T18:18:59Z</time>
      </trkpt>
      <trkpt lat="57.07396" lon="-5.88972">
        <ele>14.23</ele>
        <time>2021-03-20T18:19:14Z</time>
      </trkpt>
      <trkpt lat="57.07468" lon="-5.88939">
        <ele>16.94</ele>
        <time>2021-03-20T18:19:30Z</time>
      </trkpt>
      <trkpt lat="57.07489" lon="-5.88916">
        <ele>15.09</ele>
        <time>2021-03-20T18:19:45Z</time>
      </trkpt>
      <trkpt lat="57.07524" lon="-5.88865">
        <ele>10.09</ele>
        <time>2021-03-20T18:20:00Z</time>
      </trkpt>
      <trkpt lat="57.07558" lon="-5.88831">
        <ele>12.3</ele>
        <time>2021-03-20T18:20:15Z</time>
      </trkpt>
      <trkpt lat="57.07598" lon="-5.88811">
        <ele>17.67</ele>
        <time>2021-03-20T18:20:30Z</time>
      </trkpt>
      <trkpt lat="57.07625" lon="-5.8879">
        <ele>18.85</ele>
        <time>2021-03-20T18:20:45Z</time>
      </trkpt>
      <trkpt lat="57.07662" lon="-5.88753">
        <ele>16.41</ele>
        <time>2021-03-20T18:21:00Z</time>
      </trkpt>
      <trkpt lat="57.07786" lon="-5.88685">
        <ele>11.51</ele>
        <time>2021-03-20T18:21:15Z</time>
      </trkpt>
      <trkpt lat="57.07823" lon="-5.88686">
        <ele>12.97</ele>
        <time>2021-03-20T18:21:30Z</time>
      </trkpt>
      <trkpt lat="57.07908" lon="-5.8873">
        <ele>12.46</ele>
        <time>2021-03-20T18:21:45Z</time>
      </trkpt>
      <trkpt lat="57.08001" lon="-5.88748">
        <ele>10.6</ele>
        <time>2021-03-20T18:22:01Z</time>
      </trkpt>
      <trkpt lat="57.08119" lon="-5.88851">
        <ele>11.11</ele>
        <time>2021-03-20T18:22:16Z</time>
      </trkpt>
      <trkpt lat="57.08145" lon="-5.88862">
        <ele>11.96</ele>
        <time>2021-03-20T18:22:31Z</time>
      </trkpt>
      <trkpt lat="57.08169" lon="-5.88858">
        <ele>14.98</ele>
        <time>2021-03-20T18:22:46Z</time>
      </trkpt>
      <trkpt lat="57.08218" lon="-5.88815">
        <ele>18.38</ele>
        <time>2021-03-20T18:23:01Z</time>
      </trkpt>
      <trkpt lat="57.08265" lon="-5.88757">
        <ele>23.57</ele>
        <time>2021-03-20T18:23:16Z</time>
      </trkpt>
      <trkpt lat="57.08442" lon="-5.88565">
        <ele>35.81</ele>
        <time>2021-03-20T18:23:31Z</time>
      </trkpt>
      <trkpt lat="57.08464" lon="-5.88535">
        <ele>34.7</ele>
        <time>2021-03-20T18:23:46Z</time>
      </trkpt>
      <trkpt lat="57.08491" lon="-5.88488">
        <ele>32.36</ele>
        <time>2021-03-20T18:24:01Z</time>
      </trkpt>
      <trkpt lat="57.08516" lon="-5.88427">
        <ele>30.65</ele>
        <time>2021-03-20T18:24:17Z</time>
      </trkpt>
      <trkpt lat="57.08534" lon="-5.88341">
        <ele>29.01</ele>
        <time>2021-03-20T18:24:32Z</time>
      </trkpt>
      <trkpt lat="57.08549" lon="-5.88244">
        <ele>30.74</ele>
        <time>2021-03-20T18:24:47Z</time>
      </trkpt>
      <trkpt lat="57.08561" lon="-5.8814">
        <ele>34.14</ele>
        <time>2021-03-20T18:25:02Z</time>
      </trkpt>
      <trkpt lat="57.08567" lon="-5.88013">
        <ele>37.08</ele>
        <time>2021-03-20T18:25:17Z</time>
      </trkpt>
      <trkpt lat="57.08586" lon="-5.87849">
        <ele>35.75</ele>
        <time>2021-03-20T18:25:32Z</time>
      </trkpt>
      <trkpt lat="57.08598" lon="-5.87804">
        <ele>35</ele>
        <time>2021-03-20T18:25:47Z</time>
      </trkpt>
      <trkpt lat="57.0862" lon="-5.87744">
        <ele>33.98</ele>
        <time>2021-03-20T18:26:02Z</time>
      </trkpt>
      <trkpt lat="57.08644" lon="-5.87692">
        <ele>33.07</ele>
        <time>2021-03-20T18:26:17Z</time>
      </trkpt>
      <trkpt lat="57.08702" lon="-5.87561">
        <ele>35</ele>
        <time>2021-03-20T18:26:33Z</time>
      </trkpt>
      <trkpt lat="57.08764" lon="-5.87454">
        <ele>28.78</ele>
        <time>2021-03-20T18:26:48Z</time>
      </trkpt>
      <trkpt lat="57.08889" lon="-5.87323">
        <ele>23</ele>
        <time>2021-03-20T18:27:03Z</time>
      </trkpt>
      <trkpt lat="57.09038" lon="-5.87159">
        <ele>22.71</ele>
        <time>2021-03-20T18:27:18Z</time>
      </trkpt>
      <trkpt lat="57.09087" lon="-5.87113">
        <ele>19.11</ele>
        <time>2021-03-20T18:27:33Z</time>
      </trkpt>
      <trkpt lat="57.09282" lon="-5.86953">
        <ele>23.12</ele>
        <time>2021-03-20T18:27:48Z</time>
      </trkpt>
      <trkpt lat="57.09357" lon="-5.86909">
        <ele>25.42</ele>
        <time>2021-03-20T18:28:03Z</time>
      </trkpt>
      <trkpt lat="57.09427" lon="-5.86852">
        <ele>31.13</ele>
        <time>2021-03-20T18:28:18Z</time>
      </trkpt>
      <trkpt lat="57.09447" lon="-5.86828">
        <ele>33.09</ele>
        <time>2021-03-20T18:28:33Z</time>
      </trkpt>
      <trkpt lat="57.09471" lon="-5.86787">
        <ele>35.11</ele>
        <time>2021-03-20T18:28:49Z</time>
      </trkpt>
      <trkpt lat="57.09501" lon="-5.86762">
        <ele>38.51</ele>
        <time>2021-03-20T18:29:04Z</time>
      </trkpt>
      <trkpt lat="57.09533" lon="-5.86753">
        <ele>41.63</ele>
        <time>2021-03-20T18:29:19Z</time>
      </trkpt>
      <trkpt lat="57.09637" lon="-5.86772">
        <ele>44.87</ele>
        <time>2021-03-20T18:29:34Z</time>
      </trkpt>
      <trkpt lat="57.09675" lon="-5.8677">
        <ele>44.07</ele>
        <time>2021-03-20T18:29:49Z</time>
      </trkpt>
      <trkpt lat="57.09728" lon="-5.86743">
        <ele>41.14</ele>
        <time>2021-03-20T18:30:04Z</time>
      </trkpt>
      <trkpt lat="57.09787" lon="-5.86702">
        <ele>40.16</ele>
        <time>2021-03-20T18:30:19Z</time>
      </trkpt>
      <trkpt lat="57.09804" lon="-5.86692">
        <ele>40.65</ele>
        <time>2021-03-20T18:30:34Z</time>
      </trkpt>
      <trkpt lat="57.09844" lon="-5.86645">
        <ele>37.07</ele>
        <time>2021-03-20T18:30:49Z</time>
      </trkpt>
      <trkpt lat="57.09895" lon="-5.86559">
        <ele>32.33</ele>
        <time>2021-03-20T18:31:05Z</time>
      </trkpt>
      <trkpt lat="57.09925" lon="-5.8652">
        <ele>34.29</ele>
        <time>2021-03-20T18:31:20Z</time>
      </trkpt>
      <trkpt lat="57.10007" lon="-5.86429">
        <ele>33.04</ele>
        <time>2021-03-20T18:31:35Z</time>
      </trkpt>
      <trkpt lat="57.10075" lon="-5.86338">
        <ele>31.79</ele>
        <time>2021-03-20T18:31:50Z</time>
      </trkpt>
      <trkpt lat="57.10147" lon="-5.8625">
        <ele>29.25</ele>
        <time>2021-03-20T18:32:05Z</time>
      </trkpt>
      <trkpt lat="57.1024" lon="-5.86182">
        <ele>30.39</ele>
        <time>2021-03-20T18:32:20Z</time>
      </trkpt>
      <trkpt lat="57.10264" lon="-5.86161">
        <ele>30.32</ele>
        <time>2021-03-20T18:32:35Z</time>
      </trkpt>
      <trkpt lat="57.10281" lon="-5.86134">
        <ele>28.98</ele>
        <time>2021-03-20T18:32:50Z</time>
      </trkpt>
      <trkpt lat="57.10333" lon="-5.86069">
        <ele>27.85</ele>
        <time>2021-03-20T18:33:05Z</time>
      </trkpt>
      <trkpt lat="57.10362" lon="-5.86024">
        <ele>26.69</ele>
        <time>2021-03-20T18:33:20Z</time>
      </trkpt>
      <trkpt lat="57.10375" lon="-5.85992">
        <ele>25.81</ele>
        <time>2021-03-20T18:33:36Z</time>
      </trkpt>
      <trkpt lat="57.10383" lon="-5.85939">
        <ele>25.88</ele>
        <time>2021-03-20T18:33:51Z</time>
      </trkpt>
      <trkpt lat="57.10396" lon="-5.8589">
        <ele>27.23</ele>
        <time>2021-03-20T18:34:06Z</time>
      </trkpt>
      <trkpt lat="57.10415" lon="-5.85854">
        <ele>29.18</ele>
        <time>2021-03-20T18:34:21Z</time>
      </trkpt>
      <trkpt lat="57.10439" lon="-5.85834">
        <ele>29.63</ele>
        <time>2021-03-20T18:34:36Z</time>
      </trkpt>
      <trkpt lat="57.10485" lon="-5.85806">
        <ele>29.5</ele>
        <time>2021-03-20T18:34:51Z</time>
      </trkpt>
      <trkpt lat="57.10555" lon="-5.85794">
        <ele>25.76</ele>
        <time>2021-03-20T18:35:06Z</time>
      </trkpt>
      <trkpt lat="57.10612" lon="-5.85757">
        <ele>25.51</ele>
        <time>2021-03-20T18:35:21Z</time>
      </trkpt>
      <trkpt lat="57.10662" lon="-5.8572">
        <ele>24.51</ele>
        <time>2021-03-20T18:35:36Z</time>
      </trkpt>
      <trkpt lat="57.1072" lon="-5.85657">
        <ele>22.9</ele>
        <time>2021-03-20T18:35:52Z</time>
      </trkpt>
      <trkpt lat="57.10748" lon="-5.8563">
        <ele>20.03</ele>
        <time>2021-03-20T18:36:07Z</time>
      </trkpt>
      <trkpt lat="57.10767" lon="-5.85618">
        <ele>19.97</ele>
        <time>2021-03-20T18:36:22Z</time>
      </trkpt>
      <trkpt lat="57.10784" lon="-5.85612">
        <ele>20.35</ele>
        <time>2021-03-20T18:36:37Z</time>
      </trkpt>
      <trkpt lat="57.1081" lon="-5.85614">
        <ele>20.81</ele>
        <time>2021-03-20T18:36:52Z</time>
      </trkpt>
      <trkpt lat="57.10834" lon="-5.8562">
        <ele>19.64</ele>
        <time>2021-03-20T18:37:07Z</time>
      </trkpt>
      <trkpt lat="57.1088" lon="-5.85647">
        <ele>20.59</ele>
        <time>2021-03-20T18:37:22Z</time>
      </trkpt>
      <trkpt lat="57.10894" lon="-5.85651">
        <ele>19.98</ele>
        <time>2021-03-20T18:37:37Z</time>
      </trkpt>
      <trkpt lat="57.1091" lon="-5.85652">
        <ele>18.87</ele>
        <time>2021-03-20T18:37:52Z</time>
      </trkpt>
      <trkpt lat="57.10925" lon="-5.85648">
        <ele>18.55</ele>
        <time>2021-03-20T18:38:08Z</time>
      </trkpt>
      <trkpt lat="57.10937" lon="-5.85641">
        <ele>18.68</ele>
        <time>2021-03-20T18:38:23Z</time>
      </trkpt>
      <trkpt lat="57.10961" lon="-5.85615">
        <ele>19.44</ele>
        <time>2021-03-20T18:38:38Z</time>
      </trkpt>
      <trkpt lat="57.11001" lon="-5.85545">
        <ele>18.12</ele>
        <time>2021-03-20T18:38:53Z</time>
      </trkpt>
      <trkpt lat="57.11034" lon="-5.85498">
        <ele>17.53</ele>
        <time>2021-03-20T18:39:08Z</time>
      </trkpt>
      <trkpt lat="57.11062" lon="-5.85473">
        <ele>17.75</ele>
        <time>2021-03-20T18:39:23Z</time>
      </trkpt>
      <trkpt lat="57.11144" lon="-5.85426">
        <ele>18.34</ele>
        <time>2021-03-20T18:39:38Z</time>
      </trkpt>
      <trkpt lat="57.11272" lon="-5.85302">
        <ele>16.44</ele>
        <time>2021-03-20T18:39:53Z</time>
      </trkpt>
      <trkpt lat="57.11295" lon="-5.85265">
        <ele>17.89</ele>
        <time>2021-03-20T18:40:08Z</time>
      </trkpt>
      <trkpt lat="57.11336" lon="-5.85146">
        <ele>20.5</ele>
        <time>2021-03-20T18:40:24Z</time>
      </trkpt>
      <trkpt lat="57.11374" lon="-5.85049">
        <ele>24.33</ele>
        <time>2021-03-20T18:40:39Z</time>
      </trkpt>
      <trkpt lat="57.11406" lon="-5.8498">
        <ele>25.11</ele>
        <time>2021-03-20T18:40:54Z</time>
      </trkpt>
      <trkpt lat="57.11444" lon="-5.84919">
        <ele>25.12</ele>
        <time>2021-03-20T18:41:09Z</time>
      </trkpt>
      <trkpt lat="57.11539" lon="-5.84778">
        <ele>32.5</ele>
        <time>2021-03-20T18:41:24Z</time>
      </trkpt>
      <trkpt lat="57.11576" lon="-5.84739">
        <ele>33.31</ele>
        <time>2021-03-20T18:41:39Z</time>
      </trkpt>
      <trkpt lat="57.11633" lon="-5.8469">
        <ele>33.08</ele>
        <time>2021-03-20T18:41:54Z</time>
      </trkpt>
      <trkpt lat="57.11667" lon="-5.84679">
        <ele>32.71</ele>
        <time>2021-03-20T18:42:09Z</time>
      </trkpt>
      <trkpt lat="57.11689" lon="-5.84675">
        <ele>32.16</ele>
        <time>2021-03-20T18:42:24Z</time>
      </trkpt>
      <trkpt lat="57.11812" lon="-5.84669">
        <ele>35.19</ele>
        <time>2021-03-20T18:42:40Z</time>
      </trkpt>
      <trkpt lat="57.11889" lon="-5.84641">
        <ele>36.11</ele>
        <time>2021-03-20T18:42:55Z</time>
      </trkpt>
      <trkpt lat="57.11922" lon="-5.84643">
        <ele>38.79</ele>
        <time>2021-03-20T18:43:10Z</time>
      </trkpt>
      <trkpt lat="57.12141" lon="-5.84719">
        <ele>53.93</ele>
        <time>2021-03-20T18:43:25Z</time>
      </trkpt>
      <trkpt lat="57.1223" lon="-5.84714">
        <ele>58.24</ele>
        <time>2021-03-20T18:43:40Z</time>
      </trkpt>
      <trkpt lat="57.12263" lon="-5.84707">
        <ele>57.46</ele>
        <time>2021-03-20T18:43:55Z</time>
      </trkpt>
      <trkpt lat="57.12297" lon="-5.84693">
        <ele>59.05</ele>
        <time>2021-03-20T18:44:10Z</time>
      </trkpt>
      <trkpt lat="57.12357" lon="-5.84658">
        <ele>63.44</ele>
        <time>2021-03-20T18:44:25Z</time>
      </trkpt>
      <trkpt lat="57.12446" lon="-5.84632">
        <ele>64.54</ele>
        <time>2021-03-20T18:44:40Z</time>
      </trkpt>
      <trkpt lat="57.1248" lon="-5.84607">
        <ele>64.89</ele>
        <time>2021-03-20T18:44:56Z</time>
      </trkpt>
      <trkpt lat="57.12504" lon="-5.84572">
        <ele>67</ele>
        <time>2021-03-20T18:45:11Z</time>
      </trkpt>
      <trkpt lat="57.12561" lon="-5.84419">
        <ele>72.64</ele>
        <time>2021-03-20T18:45:26Z</time>
      </trkpt>
      <trkpt lat="57.12585" lon="-5.84388">
        <ele>73.04</ele>
        <time>2021-03-20T18:45:41Z</time>
      </trkpt>
      <trkpt lat="57.12617" lon="-5.8437">
        <ele>74.39</ele>
        <time>2021-03-20T18:45:56Z</time>
      </trkpt>
      <trkpt lat="57.12687" lon="-5.84356">
        <ele>76.14</ele>
        <time>2021-03-20T18:46:11Z</time>
      </trkpt>
      <trkpt lat="57.12755" lon="-5.84318">
        <ele>75.12</ele>
        <time>2021-03-20T18:46:26Z</time>
      </trkpt>
      <trkpt lat="57.1291" lon="-5.84198">
        <ele>82.09</ele>
        <time>2021-03-20T18:46:41Z</time>
      </trkpt>
      <trkpt lat="57.13086" lon="-5.8401">
        <ele>86.2</ele>
        <time>2021-03-20T18:46:56Z</time>
      </trkpt>
      <trkpt lat="57.13405" lon="-5.83654">
        <ele>68.42</ele>
        <time>2021-03-20T18:47:11Z</time>
      </trkpt>
      <trkpt lat="57.1355" lon="-5.83481">
        <ele>58.44</ele>
        <time>2021-03-20T18:47:27Z</time>
      </trkpt>
      <trkpt lat="57.13813" lon="-5.83131">
        <ele>54.97</ele>
        <time>2021-03-20T18:47:42Z</time>
      </trkpt>
      <trkpt lat="57.13871" lon="-5.83043">
        <ele>56.26</ele>
        <time>2021-03-20T18:47:57Z</time>
      </trkpt>
      <trkpt lat="57.13925" lon="-5.82955">
        <ele>48.35</ele>
        <time>2021-03-20T18:48:12Z</time>
      </trkpt>
      <trkpt lat="57.13968" lon="-5.8286">
        <ele>48.48</ele>
        <time>2021-03-20T18:48:27Z</time>
      </trkpt>
      <trkpt lat="57.13991" lon="-5.828">
        <ele>47.25</ele>
        <time>2021-03-20T18:48:42Z</time>
      </trkpt>
      <trkpt lat="57.14015" lon="-5.82729">
        <ele>44.89</ele>
        <time>2021-03-20T18:48:57Z</time>
      </trkpt>
      <trkpt lat="57.14063" lon="-5.8257">
        <ele>49.15</ele>
        <time>2021-03-20T18:49:12Z</time>
      </trkpt>
      <trkpt lat="57.14101" lon="-5.82463">
        <ele>50.15</ele>
        <time>2021-03-20T18:49:27Z</time>
      </trkpt>
      <trkpt lat="57.14152" lon="-5.82356">
        <ele>38.88</ele>
        <time>2021-03-20T18:49:43Z</time>
      </trkpt>
      <trkpt lat="57.14191" lon="-5.82285">
        <ele>36.91</ele>
        <time>2021-03-20T18:49:58Z</time>
      </trkpt>
      <trkpt lat="57.14257" lon="-5.82179">
        <ele>39.3</ele>
        <time>2021-03-20T18:50:13Z</time>
      </trkpt>
      <trkpt lat="57.14313" lon="-5.82054">
        <ele>35.67</ele>
        <time>2021-03-20T18:50:28Z</time>
      </trkpt>
      <trkpt lat="57.14394" lon="-5.81848">
        <ele>32.72</ele>
        <time>2021-03-20T18:50:43Z</time>
      </trkpt>
      <trkpt lat="57.1443" lon="-5.81748">
        <ele>31.42</ele>
        <time>2021-03-20T18:50:58Z</time>
      </trkpt>
      <trkpt lat="57.14471" lon="-5.81628">
        <ele>30.51</ele>
        <time>2021-03-20T18:51:13Z</time>
      </trkpt>
      <trkpt lat="57.1448" lon="-5.81591">
        <ele>30.29</ele>
        <time>2021-03-20T18:51:28Z</time>
      </trkpt>
      <trkpt lat="57.14491" lon="-5.81532">
        <ele>31.33</ele>
        <time>2021-03-20T18:51:43Z</time>
      </trkpt>
      <trkpt lat="57.14499" lon="-5.81472">
        <ele>31.91</ele>
        <time>2021-03-20T18:51:59Z</time>
      </trkpt>
      <trkpt lat="57.14509" lon="-5.8121">
        <ele>30.03</ele>
        <time>2021-03-20T18:52:14Z</time>
      </trkpt>
      <trkpt lat="57.14516" lon="-5.81156">
        <ele>28.78</ele>
        <time>2021-03-20T18:52:29Z</time>
      </trkpt>
      <trkpt lat="57.14543" lon="-5.8105">
        <ele>27.32</ele>
        <time>2021-03-20T18:52:44Z</time>
      </trkpt>
      <trkpt lat="57.1459" lon="-5.80898">
        <ele>21.57</ele>
        <time>2021-03-20T18:52:59Z</time>
      </trkpt>
      <trkpt lat="57.14644" lon="-5.80766">
        <ele>19.13</ele>
        <time>2021-03-20T18:53:14Z</time>
      </trkpt>
      <trkpt lat="57.14677" lon="-5.80696">
        <ele>18.28</ele>
        <time>2021-03-20T18:53:29Z</time>
      </trkpt>
      <trkpt lat="57.14708" lon="-5.80627">
        <ele>15.22</ele>
        <time>2021-03-20T18:53:44Z</time>
      </trkpt>
      <trkpt lat="57.14732" lon="-5.80585">
        <ele>12.5</ele>
        <time>2021-03-20T18:53:59Z</time>
      </trkpt>
      <trkpt lat="57.14746" lon="-5.80568">
        <ele>11.22</ele>
        <time>2021-03-20T18:54:15Z</time>
      </trkpt>
      <trkpt lat="57.14764" lon="-5.80551">
        <ele>11.81</ele>
        <time>2021-03-20T18:54:30Z</time>
      </trkpt>
      <trkpt lat="57.14782" lon="-5.8054">
        <ele>14.01</ele>
        <time>2021-03-20T18:54:45Z</time>
      </trkpt>
      <trkpt lat="57.14879" lon="-5.805">
        <ele>18.3</ele>
        <time>2021-03-20T18:55:00Z</time>
      </trkpt>
      <trkpt lat="57.14927" lon="-5.80476">
        <ele>20.74</ele>
        <time>2021-03-20T18:55:15Z</time>
      </trkpt>
      <trkpt lat="57.14957" lon="-5.80445">
        <ele>22.77</ele>
        <time>2021-03-20T18:55:30Z</time>
      </trkpt>
      <trkpt lat="57.14985" lon="-5.80397">
        <ele>23.59</ele>
        <time>2021-03-20T18:55:45Z</time>
      </trkpt>
      <trkpt lat="57.15044" lon="-5.80268">
        <ele>27.18</ele>
        <time>2021-03-20T18:56:00Z</time>
      </trkpt>
      <trkpt lat="57.15071" lon="-5.80223">
        <ele>27.74</ele>
        <time>2021-03-20T18:56:15Z</time>
      </trkpt>
      <trkpt lat="57.15092" lon="-5.80202">
        <ele>28.59</ele>
        <time>2021-03-20T18:56:31Z</time>
      </trkpt>
      <trkpt lat="57.15119" lon="-5.80188">
        <ele>28.2</ele>
        <time>2021-03-20T18:56:46Z</time>
      </trkpt>
      <trkpt lat="57.15424" lon="-5.80065">
        <ele>27.19</ele>
        <time>2021-03-20T18:57:01Z</time>
      </trkpt>
      <trkpt lat="57.15455" lon="-5.80059">
        <ele>28.98</ele>
        <time>2021-03-20T18:57:16Z</time>
      </trkpt>
      <trkpt lat="57.15481" lon="-5.80061">
        <ele>31.07</ele>
        <time>2021-03-20T18:57:31Z</time>
      </trkpt>
      <trkpt lat="57.15502" lon="-5.8007">
        <ele>33.58</ele>
        <time>2021-03-20T18:57:46Z</time>
      </trkpt>
      <trkpt lat="57.15548" lon="-5.80108">
        <ele>33.91</ele>
        <time>2021-03-20T18:58:01Z</time>
      </trkpt>
      <trkpt lat="57.15595" lon="-5.80159">
        <ele>29.33</ele>
        <time>2021-03-20T18:58:16Z</time>
      </trkpt>
      <trkpt lat="57.15639" lon="-5.80189">
        <ele>28.59</ele>
        <time>2021-03-20T18:58:31Z</time>
      </trkpt>
      <trkpt lat="57.15656" lon="-5.80192">
        <ele>28.79</ele>
        <time>2021-03-20T18:58:47Z</time>
      </trkpt>
      <trkpt lat="57.1571" lon="-5.80186">
        <ele>31.65</ele>
        <time>2021-03-20T18:59:02Z</time>
      </trkpt>
      <trkpt lat="57.15786" lon="-5.80152">
        <ele>30.08</ele>
        <time>2021-03-20T18:59:17Z</time>
      </trkpt>
      <trkpt lat="57.15821" lon="-5.80133">
        <ele>32.92</ele>
        <time>2021-03-20T18:59:32Z</time>
      </trkpt>
      <trkpt lat="57.15852" lon="-5.80113">
        <ele>32.73</ele>
        <time>2021-03-20T18:59:47Z</time>
      </trkpt>
      <trkpt lat="57.15876" lon="-5.80088">
        <ele>32.08</ele>
        <time>2021-03-20T19:00:02Z</time>
      </trkpt>
      <trkpt lat="57.15899" lon="-5.80056">
        <ele>30.16</ele>
        <time>2021-03-20T19:00:17Z</time>
      </trkpt>
      <trkpt lat="57.15927" lon="-5.80003">
        <ele>25.86</ele>
        <time>2021-03-20T19:00:32Z</time>
      </trkpt>
      <trkpt lat="57.15951" lon="-5.79965">
        <ele>25.48</ele>
        <time>2021-03-20T19:00:47Z</time>
      </trkpt>
      <trkpt lat="57.15975" lon="-5.79938">
        <ele>24.24</ele>
        <time>2021-03-20T19:01:02Z</time>
      </trkpt>
      <trkpt lat="57.16" lon="-5.79925">
        <ele>22.58</ele>
        <time>2021-03-20T19:01:18Z</time>
      </trkpt>
      <trkpt lat="57.16032" lon="-5.79923">
        <ele>21.14</ele>
        <time>2021-03-20T19:01:33Z</time>
      </trkpt>
      <trkpt lat="57.16139" lon="-5.79997">
        <ele>18.92</ele>
        <time>2021-03-20T19:01:48Z</time>
      </trkpt>
      <trkpt lat="57.16187" lon="-5.80027">
        <ele>20.23</ele>
        <time>2021-03-20T19:02:03Z</time>
      </trkpt>
      <trkpt lat="57.16223" lon="-5.80033">
        <ele>20.18</ele>
        <time>2021-03-20T19:02:18Z</time>
      </trkpt>
      <trkpt lat="57.16291" lon="-5.80054">
        <ele>20.44</ele>
        <time>2021-03-20T19:02:33Z</time>
      </trkpt>
      <trkpt lat="57.16386" lon="-5.80089">
        <ele>18.65</ele>
        <time>2021-03-20T19:02:48Z</time>
      </trkpt>
      <trkpt lat="57.16746" lon="-5.80327">
        <ele>14.7</ele>
        <time>2021-03-20T19:03:03Z</time>
      </trkpt>
      <trkpt lat="57.16794" lon="-5.80376">
        <ele>14.26</ele>
        <time>2021-03-20T19:03:18Z</time>
      </trkpt>
      <trkpt lat="57.16835" lon="-5.80437">
        <ele>12.94</ele>
        <time>2021-03-20T19:03:34Z</time>
      </trkpt>
      <trkpt lat="57.16915" lon="-5.80493">
        <ele>14.3</ele>
        <time>2021-03-20T19:03:49Z</time>
      </trkpt>
      <trkpt lat="57.16981" lon="-5.80507">
        <ele>13.69</ele>
        <time>2021-03-20T19:04:04Z</time>
      </trkpt>
      <trkpt lat="57.17068" lon="-5.80573">
        <ele>16.17</ele>
        <time>2021-03-20T19:04:19Z</time>
      </trkpt>
      <trkpt lat="57.17473" lon="-5.80995">
        <ele>19.6</ele>
        <time>2021-03-20T19:04:34Z</time>
      </trkpt>
      <trkpt lat="57.17473" lon="-5.80995">
        <ele>19.6</ele>
        <time>2021-03-20T19:04:34Z</time>
      </trkpt>
      <trkpt lat="57.1789" lon="-5.8143">
        <ele>20.43</ele>
        <time>2021-03-20T19:04:42Z</time>
      </trkpt>
      <trkpt lat="57.18106" lon="-5.81647">
        <ele>20.17</ele>
        <time>2021-03-20T19:04:50Z</time>
      </trkpt>
      <trkpt lat="57.18282" lon="-5.81847">
        <ele>16.36</ele>
        <time>2021-03-20T19:04:58Z</time>
      </trkpt>
      <trkpt lat="57.18319" lon="-5.81898">
        <ele>16.67</ele>
        <time>2021-03-20T19:05:06Z</time>
      </trkpt>
      <trkpt lat="57.18365" lon="-5.81955">
        <ele>16.32</ele>
        <time>2021-03-20T19:05:14Z</time>
      </trkpt>
      <trkpt lat="57.18421" lon="-5.82015">
        <ele>15.91</ele>
        <time>2021-03-20T19:05:22Z</time>
      </trkpt>
      <trkpt lat="57.18474" lon="-5.8206">
        <ele>14.8</ele>
        <time>2021-03-20T19:05:29Z</time>
      </trkpt>
      <trkpt lat="57.18528" lon="-5.82088">
        <ele>14</ele>
        <time>2021-03-20T19:05:37Z</time>
      </trkpt>
      <trkpt lat="57.18564" lon="-5.82096">
        <ele>14.82</ele>
        <time>2021-03-20T19:05:45Z</time>
      </trkpt>
      <trkpt lat="57.186" lon="-5.82091">
        <ele>14.1</ele>
        <time>2021-03-20T19:05:53Z</time>
      </trkpt>
      <trkpt lat="57.18639" lon="-5.82074">
        <ele>14</ele>
        <time>2021-03-20T19:06:01Z</time>
      </trkpt>
      <trkpt lat="57.18679" lon="-5.82048">
        <ele>14.43</ele>
        <time>2021-03-20T19:06:09Z</time>
      </trkpt>
      <trkpt lat="57.18749" lon="-5.81977">
        <ele>15.95</ele>
        <time>2021-03-20T19:06:17Z</time>
      </trkpt>
      <trkpt lat="57.19049" lon="-5.81564">
        <ele>22.7</ele>
        <time>2021-03-20T19:06:25Z</time>
      </trkpt>
      <trkpt lat="57.19105" lon="-5.81505">
        <ele>26.62</ele>
        <time>2021-03-20T19:06:33Z</time>
      </trkpt>
      <trkpt lat="57.19161" lon="-5.81461">
        <ele>27.39</ele>
        <time>2021-03-20T19:06:41Z</time>
      </trkpt>
      <trkpt lat="57.19217" lon="-5.81431">
        <ele>29.64</ele>
        <time>2021-03-20T19:06:49Z</time>
      </trkpt>
      <trkpt lat="57.19274" lon="-5.81418">
        <ele>32.74</ele>
        <time>2021-03-20T19:06:56Z</time>
      </trkpt>
      <trkpt lat="57.19326" lon="-5.81416">
        <ele>37.45</ele>
        <time>2021-03-20T19:07:04Z</time>
      </trkpt>
      <trkpt lat="57.19428" lon="-5.81427">
        <ele>44.41</ele>
        <time>2021-03-20T19:07:12Z</time>
      </trkpt>
      <trkpt lat="57.19584" lon="-5.81463">
        <ele>49.74</ele>
        <time>2021-03-20T19:07:20Z</time>
      </trkpt>
      <trkpt lat="57.19689" lon="-5.81484">
        <ele>56.72</ele>
        <time>2021-03-20T19:07:28Z</time>
      </trkpt>
      <trkpt lat="57.19787" lon="-5.81512">
        <ele>62.57</ele>
        <time>2021-03-20T19:07:36Z</time>
      </trkpt>
      <trkpt lat="57.2009" lon="-5.81607">
        <ele>73.92</ele>
        <time>2021-03-20T19:07:44Z</time>
      </trkpt>
      <trkpt lat="57.20125" lon="-5.81623">
        <ele>73.41</ele>
        <time>2021-03-20T19:07:52Z</time>
      </trkpt>
      <trkpt lat="57.20168" lon="-5.81652">
        <ele>71.04</ele>
        <time>2021-03-20T19:08:00Z</time>
      </trkpt>
      <trkpt lat="57.20226" lon="-5.81702">
        <ele>67.61</ele>
        <time>2021-03-20T19:08:08Z</time>
      </trkpt>
      <trkpt lat="57.20267" lon="-5.81749">
        <ele>66.6</ele>
        <time>2021-03-20T19:08:16Z</time>
      </trkpt>
      <trkpt lat="57.20293" lon="-5.81786">
        <ele>67.53</ele>
        <time>2021-03-20T19:08:23Z</time>
      </trkpt>
      <trkpt lat="57.20328" lon="-5.81842">
        <ele>67.68</ele>
        <time>2021-03-20T19:08:31Z</time>
      </trkpt>
      <trkpt lat="57.2052" lon="-5.8222">
        <ele>69.79</ele>
        <time>2021-03-20T19:08:39Z</time>
      </trkpt>
      <trkpt lat="57.20711" lon="-5.82571">
        <ele>62.44</ele>
        <time>2021-03-20T19:08:47Z</time>
      </trkpt>
      <trkpt lat="57.21019" lon="-5.8308">
        <ele>60.5</ele>
        <time>2021-03-20T19:08:55Z</time>
      </trkpt>
      <trkpt lat="57.21321" lon="-5.8353">
        <ele>56.06</ele>
        <time>2021-03-20T19:09:03Z</time>
      </trkpt>
      <trkpt lat="57.21455" lon="-5.83752">
        <ele>60</ele>
        <time>2021-03-20T19:09:11Z</time>
      </trkpt>
      <trkpt lat="57.21536" lon="-5.83865">
        <ele>60.24</ele>
        <time>2021-03-20T19:09:19Z</time>
      </trkpt>
      <trkpt lat="57.21596" lon="-5.83931">
        <ele>61</ele>
        <time>2021-03-20T19:09:27Z</time>
      </trkpt>
      <trkpt lat="57.21681" lon="-5.84011">
        <ele>61.13</ele>
        <time>2021-03-20T19:09:35Z</time>
      </trkpt>
      <trkpt lat="57.21991" lon="-5.84323">
        <ele>62.38</ele>
        <time>2021-03-20T19:09:43Z</time>
      </trkpt>
      <trkpt lat="57.22338" lon="-5.84714">
        <ele>60.64</ele>
        <time>2021-03-20T19:09:50Z</time>
      </trkpt>
      <trkpt lat="57.22615" lon="-5.85063">
        <ele>56.88</ele>
        <time>2021-03-20T19:09:58Z</time>
      </trkpt>
      <trkpt lat="57.22879" lon="-5.85432">
        <ele>52.46</ele>
        <time>2021-03-20T19:10:06Z</time>
      </trkpt>
      <trkpt lat="57.22964" lon="-5.85585">
        <ele>44.92</ele>
        <time>2021-03-20T19:10:14Z</time>
      </trkpt>
      <trkpt lat="57.23029" lon="-5.85772">
        <ele>36.9</ele>
        <time>2021-03-20T19:10:22Z</time>
      </trkpt>
      <trkpt lat="57.23113" lon="-5.861">
        <ele>29</ele>
        <time>2021-03-20T19:10:30Z</time>
      </trkpt>
      <trkpt lat="57.23162" lon="-5.86236">
        <ele>24.5</ele>
        <time>2021-03-20T19:10:38Z</time>
      </trkpt>
      <trkpt lat="57.23235" lon="-5.86395">
        <ele>21</ele>
        <time>2021-03-20T19:10:46Z</time>
      </trkpt>
      <trkpt lat="57.23394" lon="-5.86774">
        <ele>17</ele>
        <time>2021-03-20T19:10:54Z</time>
      </trkpt>
      <trkpt lat="57.23439" lon="-5.86871">
        <ele>17</ele>
        <time>2021-03-20T19:11:02Z</time>
      </trkpt>
      <trkpt lat="57.23475" lon="-5.86956">
        <ele>19.05</ele>
        <time>2021-03-20T19:11:10Z</time>
      </trkpt>
      <trkpt lat="57.23575" lon="-5.87241">
        <ele>20</ele>
        <time>2021-03-20T19:11:17Z</time>
      </trkpt>
      <trkpt lat="57.23586" lon="-5.87265">
        <ele>19.92</ele>
        <time>2021-03-20T19:11:25Z</time>
      </trkpt>
      <trkpt lat="57.23599" lon="-5.87276">
        <ele>19.42</ele>
        <time>2021-03-20T19:11:33Z</time>
      </trkpt>
      <trkpt lat="57.23605" lon="-5.8731">
        <ele>19</ele>
        <time>2021-03-20T19:11:39Z</time>
      </trkpt>
      <trkpt lat="57.23617" lon="-5.8735">
        <ele>18.19</ele>
        <time>2021-03-20T19:11:46Z</time>
      </trkpt>
      <trkpt lat="57.23674" lon="-5.87495">
        <ele>15.72</ele>
        <time>2021-03-20T19:11:52Z</time>
      </trkpt>
      <trkpt lat="57.23687" lon="-5.87543">
        <ele>15.27</ele>
        <time>2021-03-20T19:11:58Z</time>
      </trkpt>
      <trkpt lat="57.23689" lon="-5.87571">
        <ele>15.19</ele>
        <time>2021-03-20T19:12:04Z</time>
      </trkpt>
      <trkpt lat="57.23689" lon="-5.87599">
        <ele>15.19</ele>
        <time>2021-03-20T19:12:10Z</time>
      </trkpt>
      <trkpt lat="57.23673" lon="-5.8783">
        <ele>14</ele>
        <time>2021-03-20T19:12:17Z</time>
      </trkpt>
      <trkpt lat="57.23674" lon="-5.87885">
        <ele>12.78</ele>
        <time>2021-03-20T19:12:23Z</time>
      </trkpt>
      <trkpt lat="57.23679" lon="-5.87914">
        <ele>11.65</ele>
        <time>2021-03-20T19:12:29Z</time>
      </trkpt>
      <trkpt lat="57.23689" lon="-5.87949">
        <ele>11.33</ele>
        <time>2021-03-20T19:12:35Z</time>
      </trkpt>
      <trkpt lat="57.23712" lon="-5.87993">
        <ele>11.35</ele>
        <time>2021-03-20T19:12:41Z</time>
      </trkpt>
      <trkpt lat="57.23759" lon="-5.88053">
        <ele>10.35</ele>
        <time>2021-03-20T19:12:47Z</time>
      </trkpt>
      <trkpt lat="57.23785" lon="-5.8809">
        <ele>8.49</ele>
        <time>2021-03-20T19:12:54Z</time>
      </trkpt>
      <trkpt lat="57.23805" lon="-5.88131">
        <ele>7.03</ele>
        <time>2021-03-20T19:13:00Z</time>
      </trkpt>
      <trkpt lat="57.23817" lon="-5.88165">
        <ele>6.2</ele>
        <time>2021-03-20T19:13:06Z</time>
      </trkpt>
      <trkpt lat="57.23823" lon="-5.8819">
        <ele>6.28</ele>
        <time>2021-03-20T19:13:12Z</time>
      </trkpt>
      <trkpt lat="57.2383" lon="-5.88253">
        <ele>6.11</ele>
        <time>2021-03-20T19:13:18Z</time>
      </trkpt>
      <trkpt lat="57.2383" lon="-5.88304">
        <ele>6.14</ele>
        <time>2021-03-20T19:13:25Z</time>
      </trkpt>
      <trkpt lat="57.23823" lon="-5.88351">
        <ele>5.75</ele>
        <time>2021-03-20T19:13:31Z</time>
      </trkpt>
      <trkpt lat="57.23781" lon="-5.88529">
        <ele>5.69</ele>
        <time>2021-03-20T19:13:37Z</time>
      </trkpt>
      <trkpt lat="57.23772" lon="-5.88573">
        <ele>6.4</ele>
        <time>2021-03-20T19:13:43Z</time>
      </trkpt>
      <trkpt lat="57.23769" lon="-5.88621">
        <ele>7.02</ele>
        <time>2021-03-20T19:13:49Z</time>
      </trkpt>
      <trkpt lat="57.2377" lon="-5.88667">
        <ele>7.54</ele>
        <time>2021-03-20T19:13:56Z</time>
      </trkpt>
      <trkpt lat="57.23786" lon="-5.8884">
        <ele>9.48</ele>
        <time>2021-03-20T19:14:02Z</time>
      </trkpt>
      <trkpt lat="57.23792" lon="-5.88987">
        <ele>8.47</ele>
        <time>2021-03-20T19:14:08Z</time>
      </trkpt>
      <trkpt lat="57.23805" lon="-5.89439">
        <ele>13</ele>
        <time>2021-03-20T19:14:14Z</time>
      </trkpt>
      <trkpt lat="57.23808" lon="-5.89506">
        <ele>12.74</ele>
        <time>2021-03-20T19:14:20Z</time>
      </trkpt>
      <trkpt lat="57.23814" lon="-5.8955">
        <ele>12.28</ele>
        <time>2021-03-20T19:14:26Z</time>
      </trkpt>
      <trkpt lat="57.23819" lon="-5.89573">
        <ele>12.48</ele>
        <time>2021-03-20T19:14:33Z</time>
      </trkpt>
      <trkpt lat="57.23829" lon="-5.89605">
        <ele>12.83</ele>
        <time>2021-03-20T19:14:39Z</time>
      </trkpt>
      <trkpt lat="57.23892" lon="-5.89789">
        <ele>8.4</ele>
        <time>2021-03-20T19:14:45Z</time>
      </trkpt>
      <trkpt lat="57.23911" lon="-5.89837">
        <ele>7.33</ele>
        <time>2021-03-20T19:14:51Z</time>
      </trkpt>
      <trkpt lat="57.23967" lon="-5.89962">
        <ele>8.45</ele>
        <time>2021-03-20T19:14:57Z</time>
      </trkpt>
      <trkpt lat="57.23992" lon="-5.90021">
        <ele>8.72</ele>
        <time>2021-03-20T19:15:04Z</time>
      </trkpt>
      <trkpt lat="57.24033" lon="-5.90162">
        <ele>11.22</ele>
        <time>2021-03-20T19:15:10Z</time>
      </trkpt>
      <trkpt lat="57.24046" lon="-5.90219">
        <ele>10.69</ele>
        <time>2021-03-20T19:15:16Z</time>
      </trkpt>
      <trkpt lat="57.24061" lon="-5.90305">
        <ele>12.12</ele>
        <time>2021-03-20T19:15:22Z</time>
      </trkpt>
      <trkpt lat="57.24072" lon="-5.90383">
        <ele>10.65</ele>
        <time>2021-03-20T19:15:28Z</time>
      </trkpt>
      <trkpt lat="57.24107" lon="-5.9067">
        <ele>11.28</ele>
        <time>2021-03-20T19:15:35Z</time>
      </trkpt>
      <trkpt lat="57.24123" lon="-5.90848">
        <ele>7.07</ele>
        <time>2021-03-20T19:15:41Z</time>
      </trkpt>
      <trkpt lat="57.2413" lon="-5.90911">
        <ele>6.55</ele>
        <time>2021-03-20T19:15:47Z</time>
      </trkpt>
      <trkpt lat="57.2414" lon="-5.90969">
        <ele>5.94</ele>
        <time>2021-03-20T19:15:53Z</time>
      </trkpt>
      <trkpt lat="57.24152" lon="-5.91022">
        <ele>5.97</ele>
        <time>2021-03-20T19:15:59Z</time>
      </trkpt>
      <trkpt lat="57.24178" lon="-5.9111">
        <ele>5.2</ele>
        <time>2021-03-20T19:16:06Z</time>
      </trkpt>
      <trkpt lat="57.242" lon="-5.91173">
        <ele>7.01</ele>
        <time>2021-03-20T19:16:12Z</time>
      </trkpt>
      <trkpt lat="57.24228" lon="-5.9123">
        <ele>7.07</ele>
        <time>2021-03-20T19:16:18Z</time>
      </trkpt>
      <trkpt lat="57.2427" lon="-5.91302">
        <ele>8.7</ele>
        <time>2021-03-20T19:16:24Z</time>
      </trkpt>
      <trkpt lat="57.24263" lon="-5.91312">
        <ele>8.47</ele>
        <time>2021-03-20T19:16:31Z</time>
      </trkpt>
      <trkpt lat="57.24287" lon="-5.91377">
        <ele>8.98</ele>
        <time>2021-03-20T19:16:39Z</time>
      </trkpt>
      <trkpt lat="57.24316" lon="-5.91477">
        <ele>10.26</ele>
        <time>2021-03-20T19:16:46Z</time>
      </trkpt>
      <trkpt lat="57.24368" lon="-5.91715">
        <ele>9.31</ele>
        <time>2021-03-20T19:16:53Z</time>
      </trkpt>
      <trkpt lat="57.24401" lon="-5.9183">
        <ele>11.35</ele>
        <time>2021-03-20T19:17:01Z</time>
      </trkpt>
      <trkpt lat="57.24412" lon="-5.91823">
        <ele>12.48</ele>
        <time>2021-03-20T19:17:08Z</time>
      </trkpt>
      <trkpt lat="57.24429" lon="-5.91921">
        <ele>15.7</ele>
        <time>2021-03-20T19:17:14Z</time>
      </trkpt>
      <trkpt lat="57.24507" lon="-5.92362">
        <ele>23.16</ele>
        <time>2021-03-20T19:17:19Z</time>
      </trkpt>
      <trkpt lat="57.24551" lon="-5.92533">
        <ele>24.31</ele>
        <time>2021-03-20T19:17:25Z</time>
      </trkpt>
      <trkpt lat="57.24576" lon="-5.9261">
        <ele>23.97</ele>
        <time>2021-03-20T19:17:30Z</time>
      </trkpt>
      <trkpt lat="57.24598" lon="-5.92669">
        <ele>23.98</ele>
        <time>2021-03-20T19:17:36Z</time>
      </trkpt>
      <trkpt lat="57.24643" lon="-5.92777">
        <ele>20.38</ele>
        <time>2021-03-20T19:17:41Z</time>
      </trkpt>
      <trkpt lat="57.24974" lon="-5.93351">
        <ele>25.02</ele>
        <time>2021-03-20T19:17:47Z</time>
      </trkpt>
      <trkpt lat="57.25099" lon="-5.93519">
        <ele>25.12</ele>
        <time>2021-03-20T19:17:52Z</time>
      </trkpt>
      <trkpt lat="57.25217" lon="-5.93641">
        <ele>28.76</ele>
        <time>2021-03-20T19:17:58Z</time>
      </trkpt>
      <trkpt lat="57.25663" lon="-5.94">
        <ele>28.14</ele>
        <time>2021-03-20T19:18:03Z</time>
      </trkpt>
      <trkpt lat="57.25791" lon="-5.94118">
        <ele>28.04</ele>
        <time>2021-03-20T19:18:09Z</time>
      </trkpt>
      <trkpt lat="57.25935" lon="-5.94271">
        <ele>32.35</ele>
        <time>2021-03-20T19:18:15Z</time>
      </trkpt>
      <trkpt lat="57.26074" lon="-5.94479">
        <ele>16.2</ele>
        <time>2021-03-20T19:18:20Z</time>
      </trkpt>
      <trkpt lat="57.26231" lon="-5.94771">
        <ele>12.06</ele>
        <time>2021-03-20T19:18:26Z</time>
      </trkpt>
      <trkpt lat="57.26304" lon="-5.95018">
        <ele>11.41</ele>
        <time>2021-03-20T19:18:31Z</time>
      </trkpt>
      <trkpt lat="57.26351" lon="-5.95287">
        <ele>8.24</ele>
        <time>2021-03-20T19:18:37Z</time>
      </trkpt>
      <trkpt lat="57.26361" lon="-5.95331">
        <ele>7.98</ele>
        <time>2021-03-20T19:18:42Z</time>
      </trkpt>
      <trkpt lat="57.26455" lon="-5.95696">
        <ele>10.23</ele>
        <time>2021-03-20T19:18:48Z</time>
      </trkpt>
      <trkpt lat="57.26563" lon="-5.96082">
        <ele>13.67</ele>
        <time>2021-03-20T19:18:53Z</time>
      </trkpt>
      <trkpt lat="57.26825" lon="-5.96893">
        <ele>8.89</ele>
        <time>2021-03-20T19:18:59Z</time>
      </trkpt>
      <trkpt lat="57.26855" lon="-5.9701">
        <ele>8.65</ele>
        <time>2021-03-20T19:19:04Z</time>
      </trkpt>
      <trkpt lat="57.26873" lon="-5.97129">
        <ele>11.43</ele>
        <time>2021-03-20T19:19:10Z</time>
      </trkpt>
      <trkpt lat="57.26884" lon="-5.97276">
        <ele>10.27</ele>
        <time>2021-03-20T19:19:16Z</time>
      </trkpt>
      <trkpt lat="57.26885" lon="-5.9739">
        <ele>12.51</ele>
        <time>2021-03-20T19:19:21Z</time>
      </trkpt>
      <trkpt lat="57.26879" lon="-5.97446">
        <ele>12.3</ele>
        <time>2021-03-20T19:19:27Z</time>
      </trkpt>
      <trkpt lat="57.26864" lon="-5.97511">
        <ele>10.03</ele>
        <time>2021-03-20T19:19:32Z</time>
      </trkpt>
      <trkpt lat="57.26851" lon="-5.97553">
        <ele>8.48</ele>
        <time>2021-03-20T19:19:38Z</time>
      </trkpt>
      <trkpt lat="57.2678" lon="-5.97683">
        <ele>5.28</ele>
        <time>2021-03-20T19:19:43Z</time>
      </trkpt>
      <trkpt lat="57.26759" lon="-5.97726">
        <ele>5.92</ele>
        <time>2021-03-20T19:19:49Z</time>
      </trkpt>
      <trkpt lat="57.2674" lon="-5.9779">
        <ele>7.36</ele>
        <time>2021-03-20T19:19:54Z</time>
      </trkpt>
      <trkpt lat="57.26727" lon="-5.97856">
        <ele>7.53</ele>
        <time>2021-03-20T19:20:00Z</time>
      </trkpt>
      <trkpt lat="57.2672" lon="-5.97935">
        <ele>9.34</ele>
        <time>2021-03-20T19:20:05Z</time>
      </trkpt>
      <trkpt lat="57.26727" lon="-5.98049">
        <ele>11.35</ele>
        <time>2021-03-20T19:20:11Z</time>
      </trkpt>
      <trkpt lat="57.26751" lon="-5.9829">
        <ele>7.35</ele>
        <time>2021-03-20T19:20:17Z</time>
      </trkpt>
      <trkpt lat="57.26769" lon="-5.98407">
        <ele>7.88</ele>
        <time>2021-03-20T19:20:22Z</time>
      </trkpt>
      <trkpt lat="57.26794" lon="-5.98476">
        <ele>7.88</ele>
        <time>2021-03-20T19:20:28Z</time>
      </trkpt>
      <trkpt lat="57.26853" lon="-5.98597">
        <ele>10.79</ele>
        <time>2021-03-20T19:20:33Z</time>
      </trkpt>
      <trkpt lat="57.26957" lon="-5.98801">
        <ele>7.18</ele>
        <time>2021-03-20T19:20:39Z</time>
      </trkpt>
      <trkpt lat="57.26978" lon="-5.98867">
        <ele>7</ele>
        <time>2021-03-20T19:20:44Z</time>
      </trkpt>
      <trkpt lat="57.26994" lon="-5.98931">
        <ele>7.21</ele>
        <time>2021-03-20T19:20:50Z</time>
      </trkpt>
      <trkpt lat="57.27002" lon="-5.98998">
        <ele>7.83</ele>
        <time>2021-03-20T19:20:55Z</time>
      </trkpt>
      <trkpt lat="57.27003" lon="-5.99068">
        <ele>7.2</ele>
        <time>2021-03-20T19:21:01Z</time>
      </trkpt>
      <trkpt lat="57.27" lon="-5.99245">
        <ele>7.04</ele>
        <time>2021-03-20T19:21:06Z</time>
      </trkpt>
      <trkpt lat="57.27" lon="-5.99323">
        <ele>7.06</ele>
        <time>2021-03-20T19:21:12Z</time>
      </trkpt>
      <trkpt lat="57.27006" lon="-5.99385">
        <ele>6.54</ele>
        <time>2021-03-20T19:21:17Z</time>
      </trkpt>
      <trkpt lat="57.27014" lon="-5.99426">
        <ele>6</ele>
        <time>2021-03-20T19:21:23Z</time>
      </trkpt>
      <trkpt lat="57.27039" lon="-5.99502">
        <ele>6.27</ele>
        <time>2021-03-20T19:21:29Z</time>
      </trkpt>
      <trkpt lat="57.27114" lon="-5.99658">
        <ele>8.4</ele>
        <time>2021-03-20T19:21:34Z</time>
      </trkpt>
      <trkpt lat="57.27207" lon="-5.99799">
        <ele>8.21</ele>
        <time>2021-03-20T19:21:40Z</time>
      </trkpt>
      <trkpt lat="57.27296" lon="-5.9996">
        <ele>11.23</ele>
        <time>2021-03-20T19:21:45Z</time>
      </trkpt>
      <trkpt lat="57.27318" lon="-5.99986">
        <ele>10.69</ele>
        <time>2021-03-20T19:21:51Z</time>
      </trkpt>
      <trkpt lat="57.27415" lon="-6.00053">
        <ele>10.93</ele>
        <time>2021-03-20T19:21:56Z</time>
      </trkpt>
      <trkpt lat="57.27451" lon="-6.00089">
        <ele>11.11</ele>
        <time>2021-03-20T19:22:02Z</time>
      </trkpt>
      <trkpt lat="57.27509" lon="-6.00169">
        <ele>13.31</ele>
        <time>2021-03-20T19:22:07Z</time>
      </trkpt>
      <trkpt lat="57.27583" lon="-6.0028">
        <ele>17.4</ele>
        <time>2021-03-20T19:22:13Z</time>
      </trkpt>
      <trkpt lat="57.27619" lon="-6.00339">
        <ele>20.73</ele>
        <time>2021-03-20T19:22:18Z</time>
      </trkpt>
      <trkpt lat="57.2765" lon="-6.00406">
        <ele>20.95</ele>
        <time>2021-03-20T19:22:24Z</time>
      </trkpt>
      <trkpt lat="57.27689" lon="-6.00504">
        <ele>24.05</ele>
        <time>2021-03-20T19:22:30Z</time>
      </trkpt>
      <trkpt lat="57.27731" lon="-6.00589">
        <ele>25.76</ele>
        <time>2021-03-20T19:22:35Z</time>
      </trkpt>
      <trkpt lat="57.27972" lon="-6.00938">
        <ele>20.73</ele>
        <time>2021-03-20T19:22:41Z</time>
      </trkpt>
      <trkpt lat="57.28176" lon="-6.01273">
        <ele>17.99</ele>
        <time>2021-03-20T19:22:46Z</time>
      </trkpt>
      <trkpt lat="57.28347" lon="-6.01462">
        <ele>20.49</ele>
        <time>2021-03-20T19:22:52Z</time>
      </trkpt>
      <trkpt lat="57.28407" lon="-6.01535">
        <ele>22.76</ele>
        <time>2021-03-20T19:22:57Z</time>
      </trkpt>
      <trkpt lat="57.28489" lon="-6.01667">
        <ele>23.89</ele>
        <time>2021-03-20T19:23:03Z</time>
      </trkpt>
      <trkpt lat="57.2859" lon="-6.01876">
        <ele>25.33</ele>
        <time>2021-03-20T19:23:08Z</time>
      </trkpt>
      <trkpt lat="57.28603" lon="-6.01905">
        <ele>25.63</ele>
        <time>2021-03-20T19:23:14Z</time>
      </trkpt>
      <trkpt lat="57.28624" lon="-6.01964">
        <ele>24.37</ele>
        <time>2021-03-20T19:23:19Z</time>
      </trkpt>
      <trkpt lat="57.28634" lon="-6.02008">
        <ele>24.09</ele>
        <time>2021-03-20T19:23:25Z</time>
      </trkpt>
      <trkpt lat="57.28642" lon="-6.02053">
        <ele>24.52</ele>
        <time>2021-03-20T19:23:31Z</time>
      </trkpt>
      <trkpt lat="57.28652" lon="-6.02165">
        <ele>22.56</ele>
        <time>2021-03-20T19:23:36Z</time>
      </trkpt>
      <trkpt lat="57.2866" lon="-6.02275">
        <ele>21.13</ele>
        <time>2021-03-20T19:23:42Z</time>
      </trkpt>
      <trkpt lat="57.28661" lon="-6.02311">
        <ele>22.05</ele>
        <time>2021-03-20T19:23:47Z</time>
      </trkpt>
      <trkpt lat="57.28659" lon="-6.02349">
        <ele>22.26</ele>
        <time>2021-03-20T19:23:53Z</time>
      </trkpt>
      <trkpt lat="57.28655" lon="-6.02385">
        <ele>22.69</ele>
        <time>2021-03-20T19:23:58Z</time>
      </trkpt>
      <trkpt lat="57.2865" lon="-6.02415">
        <ele>21.92</ele>
        <time>2021-03-20T19:24:04Z</time>
      </trkpt>
      <trkpt lat="57.28632" lon="-6.02478">
        <ele>19.51</ele>
        <time>2021-03-20T19:24:09Z</time>
      </trkpt>
      <trkpt lat="57.28618" lon="-6.02513">
        <ele>18.68</ele>
        <time>2021-03-20T19:24:15Z</time>
      </trkpt>
      <trkpt lat="57.28567" lon="-6.02626">
        <ele>14.07</ele>
        <time>2021-03-20T19:24:20Z</time>
      </trkpt>
      <trkpt lat="57.28525" lon="-6.02755">
        <ele>11.35</ele>
        <time>2021-03-20T19:24:26Z</time>
      </trkpt>
      <trkpt lat="57.28427" lon="-6.03104">
        <ele>14.73</ele>
        <time>2021-03-20T19:24:32Z</time>
      </trkpt>
      <trkpt lat="57.2828" lon="-6.03543">
        <ele>9.04</ele>
        <time>2021-03-20T19:24:37Z</time>
      </trkpt>
      <trkpt lat="57.28233" lon="-6.03641">
        <ele>7.33</ele>
        <time>2021-03-20T19:24:43Z</time>
      </trkpt>
      <trkpt lat="57.28186" lon="-6.03703">
        <ele>6.88</ele>
        <time>2021-03-20T19:24:48Z</time>
      </trkpt>
      <trkpt lat="57.28042" lon="-6.03809">
        <ele>5.22</ele>
        <time>2021-03-20T19:24:54Z</time>
      </trkpt>
      <trkpt lat="57.28007" lon="-6.0385">
        <ele>6.38</ele>
        <time>2021-03-20T19:24:59Z</time>
      </trkpt>
      <trkpt lat="57.27923" lon="-6.03971">
        <ele>7.64</ele>
        <time>2021-03-20T19:25:05Z</time>
      </trkpt>
      <trkpt lat="57.27865" lon="-6.04037">
        <ele>8.41</ele>
        <time>2021-03-20T19:25:10Z</time>
      </trkpt>
      <trkpt lat="57.27786" lon="-6.04105">
        <ele>9.82</ele>
        <time>2021-03-20T19:25:16Z</time>
      </trkpt>
      <trkpt lat="57.27716" lon="-6.04175">
        <ele>7.39</ele>
        <time>2021-03-20T19:25:21Z</time>
      </trkpt>
      <trkpt lat="57.27684" lon="-6.04216">
        <ele>4.76</ele>
        <time>2021-03-20T19:25:27Z</time>
      </trkpt>
      <trkpt lat="57.27669" lon="-6.04193">
        <ele>6.13</ele>
        <time>2021-03-20T19:25:29Z</time>
      </trkpt>
      <trkpt lat="57.27565" lon="-6.04218">
        <ele>5.79</ele>
        <time>2021-03-20T19:25:31Z</time>
      </trkpt>
      <trkpt lat="57.27536" lon="-6.04232">
        <ele>5.66</ele>
        <time>2021-03-20T19:25:33Z</time>
      </trkpt>
      <trkpt lat="57.27511" lon="-6.04264">
        <ele>6.18</ele>
        <time>2021-03-20T19:25:36Z</time>
      </trkpt>
      <trkpt lat="57.275" lon="-6.04283">
        <ele>7.21</ele>
        <time>2021-03-20T19:25:38Z</time>
      </trkpt>
      <trkpt lat="57.27492" lon="-6.04299">
        <ele>8.05</ele>
        <time>2021-03-20T19:25:40Z</time>
      </trkpt>
      <trkpt lat="57.27487" lon="-6.04319">
        <ele>8.46</ele>
        <time>2021-03-20T19:25:42Z</time>
      </trkpt>
      <trkpt lat="57.2749" lon="-6.04343">
        <ele>8.81</ele>
        <time>2021-03-20T19:25:44Z</time>
      </trkpt>
      <trkpt lat="57.27498" lon="-6.04367">
        <ele>9.33</ele>
        <time>2021-03-20T19:25:46Z</time>
      </trkpt>
      <trkpt lat="57.27566" lon="-6.04502">
        <ele>13.06</ele>
        <time>2021-03-20T19:25:48Z</time>
      </trkpt>
      <trkpt lat="57.27595" lon="-6.04569">
        <ele>16.28</ele>
        <time>2021-03-20T19:25:50Z</time>
      </trkpt>
      <trkpt lat="57.27626" lon="-6.04732">
        <ele>22.71</ele>
        <time>2021-03-20T19:25:53Z</time>
      </trkpt>
      <trkpt lat="57.27634" lon="-6.04791">
        <ele>22.34</ele>
        <time>2021-03-20T19:25:55Z</time>
      </trkpt>
      <trkpt lat="57.27638" lon="-6.04848">
        <ele>23.63</ele>
        <time>2021-03-20T19:25:57Z</time>
      </trkpt>
      <trkpt lat="57.27638" lon="-6.04892">
        <ele>25.28</ele>
        <time>2021-03-20T19:25:59Z</time>
      </trkpt>
      <trkpt lat="57.2763" lon="-6.04952">
        <ele>26.73</ele>
        <time>2021-03-20T19:26:01Z</time>
      </trkpt>
      <trkpt lat="57.27609" lon="-6.05059">
        <ele>28.24</ele>
        <time>2021-03-20T19:26:03Z</time>
      </trkpt>
      <trkpt lat="57.27588" lon="-6.05144">
        <ele>28.32</ele>
        <time>2021-03-20T19:26:05Z</time>
      </trkpt>
      <trkpt lat="57.27549" lon="-6.05268">
        <ele>24.58</ele>
        <time>2021-03-20T19:26:07Z</time>
      </trkpt>
      <trkpt lat="57.27547" lon="-6.05279">
        <ele>24.1</ele>
        <time>2021-03-20T19:26:10Z</time>
      </trkpt>
      <trkpt lat="57.27554" lon="-6.05303">
        <ele>20.52</ele>
        <time>2021-03-20T19:26:12Z</time>
      </trkpt>
      <trkpt lat="57.27521" lon="-6.05402">
        <ele>19.91</ele>
        <time>2021-03-20T19:26:17Z</time>
      </trkpt>
      <trkpt lat="57.27484" lon="-6.05495">
        <ele>18.77</ele>
        <time>2021-03-20T19:26:23Z</time>
      </trkpt>
      <trkpt lat="57.27398" lon="-6.05757">
        <ele>22.36</ele>
        <time>2021-03-20T19:26:28Z</time>
      </trkpt>
      <trkpt lat="57.27364" lon="-6.05853">
        <ele>20.35</ele>
        <time>2021-03-20T19:26:34Z</time>
      </trkpt>
      <trkpt lat="57.2732" lon="-6.05957">
        <ele>16.27</ele>
        <time>2021-03-20T19:26:39Z</time>
      </trkpt>
      <trkpt lat="57.27212" lon="-6.06182">
        <ele>7.38</ele>
        <time>2021-03-20T19:26:44Z</time>
      </trkpt>
      <trkpt lat="57.2708" lon="-6.0643">
        <ele>6.41</ele>
        <time>2021-03-20T19:26:50Z</time>
      </trkpt>
      <trkpt lat="57.27035" lon="-6.06494">
        <ele>6.87</ele>
        <time>2021-03-20T19:26:55Z</time>
      </trkpt>
      <trkpt lat="57.26909" lon="-6.06637">
        <ele>6.95</ele>
        <time>2021-03-20T19:27:01Z</time>
      </trkpt>
      <trkpt lat="57.26752" lon="-6.06823">
        <ele>8.57</ele>
        <time>2021-03-20T19:27:06Z</time>
      </trkpt>
      <trkpt lat="57.26709" lon="-6.06899">
        <ele>9.07</ele>
        <time>2021-03-20T19:27:12Z</time>
      </trkpt>
      <trkpt lat="57.26684" lon="-6.06978">
        <ele>5.18</ele>
        <time>2021-03-20T19:27:17Z</time>
      </trkpt>
      <trkpt lat="57.26667" lon="-6.07069">
        <ele>4.01</ele>
        <time>2021-03-20T19:27:23Z</time>
      </trkpt>
      <trkpt lat="57.26625" lon="-6.07398">
        <ele>3.2</ele>
        <time>2021-03-20T19:27:28Z</time>
      </trkpt>
      <trkpt lat="57.26607" lon="-6.07494">
        <ele>2.3</ele>
        <time>2021-03-20T19:27:34Z</time>
      </trkpt>
      <trkpt lat="57.26589" lon="-6.0757">
        <ele>4.34</ele>
        <time>2021-03-20T19:27:39Z</time>
      </trkpt>
      <trkpt lat="57.26597" lon="-6.0758">
        <ele>4.37</ele>
        <time>2021-03-20T19:27:42Z</time>
      </trkpt>
      <trkpt lat="57.26601" lon="-6.07598">
        <ele>4.57</ele>
        <time>2021-03-20T19:27:46Z</time>
      </trkpt>
      <trkpt lat="57.26599" lon="-6.07631">
        <ele>5.61</ele>
        <time>2021-03-20T19:27:49Z</time>
      </trkpt>
      <trkpt lat="57.26599" lon="-6.07654">
        <ele>6.16</ele>
        <time>2021-03-20T19:27:53Z</time>
      </trkpt>
      <trkpt lat="57.26616" lon="-6.07739">
        <ele>8.26</ele>
        <time>2021-03-20T19:27:57Z</time>
      </trkpt>
      <trkpt lat="57.26626" lon="-6.07758">
        <ele>8.09</ele>
        <time>2021-03-20T19:28:00Z</time>
      </trkpt>
      <trkpt lat="57.26637" lon="-6.07773">
        <ele>7.89</ele>
        <time>2021-03-20T19:28:04Z</time>
      </trkpt>
      <trkpt lat="57.26653" lon="-6.07783">
        <ele>8.35</ele>
        <time>2021-03-20T19:28:07Z</time>
      </trkpt>
      <trkpt lat="57.26772" lon="-6.07784">
        <ele>11.86</ele>
        <time>2021-03-20T19:28:11Z</time>
      </trkpt>
      <trkpt lat="57.26803" lon="-6.07788">
        <ele>13.27</ele>
        <time>2021-03-20T19:28:14Z</time>
      </trkpt>
      <trkpt lat="57.26825" lon="-6.07797">
        <ele>14.38</ele>
        <time>2021-03-20T19:28:18Z</time>
      </trkpt>
      <trkpt lat="57.26874" lon="-6.07829">
        <ele>16.84</ele>
        <time>2021-03-20T19:28:21Z</time>
      </trkpt>
      <trkpt lat="57.26885" lon="-6.07841">
        <ele>17.24</ele>
        <time>2021-03-20T19:28:25Z</time>
      </trkpt>
      <trkpt lat="57.26892" lon="-6.07867">
        <ele>17.68</ele>
        <time>2021-03-20T19:28:28Z</time>
      </trkpt>
      <trkpt lat="57.26894" lon="-6.07885">
        <ele>17.41</ele>
        <time>2021-03-20T19:28:32Z</time>
      </trkpt>
      <trkpt lat="57.26896" lon="-6.07925">
        <ele>14.82</ele>
        <time>2021-03-20T19:28:35Z</time>
      </trkpt>
      <trkpt lat="57.26895" lon="-6.07944">
        <ele>14.21</ele>
        <time>2021-03-20T19:28:39Z</time>
      </trkpt>
      <trkpt lat="57.26883" lon="-6.07981">
        <ele>13.43</ele>
        <time>2021-03-20T19:28:42Z</time>
      </trkpt>
      <trkpt lat="57.26864" lon="-6.08057">
        <ele>13.28</ele>
        <time>2021-03-20T19:28:46Z</time>
      </trkpt>
      <trkpt lat="57.26852" lon="-6.08099">
        <ele>11.08</ele>
        <time>2021-03-20T19:28:49Z</time>
      </trkpt>
      <trkpt lat="57.26823" lon="-6.08165">
        <ele>9.64</ele>
        <time>2021-03-20T19:28:53Z</time>
      </trkpt>
      <trkpt lat="57.26776" lon="-6.08254">
        <ele>5.95</ele>
        <time>2021-03-20T19:28:56Z</time>
      </trkpt>
      <trkpt lat="57.26768" lon="-6.08274">
        <ele>5.03</ele>
        <time>2021-03-20T19:29:00Z</time>
      </trkpt>
      <trkpt lat="57.26765" lon="-6.08299">
        <ele>4.13</ele>
        <time>2021-03-20T19:29:03Z</time>
      </trkpt>
      <trkpt lat="57.26772" lon="-6.08333">
        <ele>3.21</ele>
        <time>2021-03-20T19:29:07Z</time>
      </trkpt>
      <trkpt lat="57.26857" lon="-6.0858">
        <ele>3.88</ele>
        <time>2021-03-20T19:29:10Z</time>
      </trkpt>
      <trkpt lat="57.26872" lon="-6.08599">
        <ele>3.82</ele>
        <time>2021-03-20T19:29:14Z</time>
      </trkpt>
      <trkpt lat="57.26885" lon="-6.08605">
        <ele>3.8</ele>
        <time>2021-03-20T19:29:17Z</time>
      </trkpt>
      <trkpt lat="57.26939" lon="-6.08599">
        <ele>5.41</ele>
        <time>2021-03-20T19:29:21Z</time>
      </trkpt>
      <trkpt lat="57.26999" lon="-6.08599">
        <ele>6.07</ele>
        <time>2021-03-20T19:29:24Z</time>
      </trkpt>
      <trkpt lat="57.2705" lon="-6.08594">
        <ele>6.74</ele>
        <time>2021-03-20T19:29:28Z</time>
      </trkpt>
      <trkpt lat="57.27119" lon="-6.08572">
        <ele>7.1</ele>
        <time>2021-03-20T19:29:31Z</time>
      </trkpt>
      <trkpt lat="57.27216" lon="-6.08518">
        <ele>5.8</ele>
        <time>2021-03-20T19:29:35Z</time>
      </trkpt>
      <trkpt lat="57.27281" lon="-6.08471">
        <ele>6.09</ele>
        <time>2021-03-20T19:29:38Z</time>
      </trkpt>
      <trkpt lat="57.27374" lon="-6.08424">
        <ele>9.49</ele>
        <time>2021-03-20T19:29:42Z</time>
      </trkpt>
      <trkpt lat="57.2739" lon="-6.08411">
        <ele>10.89</ele>
        <time>2021-03-20T19:29:45Z</time>
      </trkpt>
      <trkpt lat="57.27449" lon="-6.08328">
        <ele>8.96</ele>
        <time>2021-03-20T19:29:49Z</time>
      </trkpt>
      <trkpt lat="57.27541" lon="-6.08205">
        <ele>9.66</ele>
        <time>2021-03-20T19:29:52Z</time>
      </trkpt>
      <trkpt lat="57.27597" lon="-6.08158">
        <ele>10.67</ele>
        <time>2021-03-20T19:29:56Z</time>
      </trkpt>
      <trkpt lat="57.27613" lon="-6.08136">
        <ele>11.17</ele>
        <time>2021-03-20T19:29:59Z</time>
      </trkpt>
      <trkpt lat="57.27632" lon="-6.08102">
        <ele>11.92</ele>
        <time>2021-03-20T19:30:03Z</time>
      </trkpt>
      <trkpt lat="57.27654" lon="-6.08042">
        <ele>13.97</ele>
        <time>2021-03-20T19:30:06Z</time>
      </trkpt>
      <trkpt lat="57.27792" lon="-6.07628">
        <ele>14.58</ele>
        <time>2021-03-20T19:30:10Z</time>
      </trkpt>
      <trkpt lat="57.27823" lon="-6.07542">
        <ele>19.78</ele>
        <time>2021-03-20T19:30:13Z</time>
      </trkpt>
      <trkpt lat="57.27883" lon="-6.07367">
        <ele>23.19</ele>
        <time>2021-03-20T19:30:17Z</time>
      </trkpt>
      <trkpt lat="57.279" lon="-6.07325">
        <ele>22.35</ele>
        <time>2021-03-20T19:30:20Z</time>
      </trkpt>
      <trkpt lat="57.28089" lon="-6.06949">
        <ele>27.67</ele>
        <time>2021-03-20T19:30:24Z</time>
      </trkpt>
      <trkpt lat="57.28248" lon="-6.06647">
        <ele>34.67</ele>
        <time>2021-03-20T19:30:27Z</time>
      </trkpt>
      <trkpt lat="57.28352" lon="-6.06423">
        <ele>39.4</ele>
        <time>2021-03-20T19:30:31Z</time>
      </trkpt>
      <trkpt lat="57.28445" lon="-6.06211">
        <ele>45.67</ele>
        <time>2021-03-20T19:30:34Z</time>
      </trkpt>
      <trkpt lat="57.28477" lon="-6.06133">
        <ele>45.66</ele>
        <time>2021-03-20T19:30:38Z</time>
      </trkpt>
      <trkpt lat="57.28561" lon="-6.05902">
        <ele>41.49</ele>
        <time>2021-03-20T19:30:41Z</time>
      </trkpt>
      <trkpt lat="57.28653" lon="-6.05705">
        <ele>43.8</ele>
        <time>2021-03-20T19:30:45Z</time>
      </trkpt>
      <trkpt lat="57.2866" lon="-6.05679">
        <ele>42.69</ele>
        <time>2021-03-20T19:30:48Z</time>
      </trkpt>
      <trkpt lat="57.28686" lon="-6.05546">
        <ele>43.21</ele>
        <time>2021-03-20T19:30:52Z</time>
      </trkpt>
      <trkpt lat="57.28694" lon="-6.05513">
        <ele>43.31</ele>
        <time>2021-03-20T19:30:55Z</time>
      </trkpt>
      <trkpt lat="57.28747" lon="-6.05392">
        <ele>35.8</ele>
        <time>2021-03-20T19:30:59Z</time>
      </trkpt>
      <trkpt lat="57.28812" lon="-6.05294">
        <ele>41.86</ele>
        <time>2021-03-20T19:31:02Z</time>
      </trkpt>
      <trkpt lat="57.28906" lon="-6.05037">
        <ele>30.75</ele>
        <time>2021-03-20T19:31:06Z</time>
      </trkpt>
      <trkpt lat="57.29081" lon="-6.04639">
        <ele>31.23</ele>
        <time>2021-03-20T19:31:10Z</time>
      </trkpt>
      <trkpt lat="57.2912" lon="-6.04568">
        <ele>27.87</ele>
        <time>2021-03-20T19:31:13Z</time>
      </trkpt>
      <trkpt lat="57.29178" lon="-6.0448">
        <ele>27.9</ele>
        <time>2021-03-20T19:31:17Z</time>
      </trkpt>
      <trkpt lat="57.29287" lon="-6.04338">
        <ele>24.72</ele>
        <time>2021-03-20T19:31:20Z</time>
      </trkpt>
      <trkpt lat="57.29319" lon="-6.04304">
        <ele>22.13</ele>
        <time>2021-03-20T19:31:24Z</time>
      </trkpt>
      <trkpt lat="57.29353" lon="-6.04283">
        <ele>19</ele>
        <time>2021-03-20T19:31:27Z</time>
      </trkpt>
      <trkpt lat="57.29371" lon="-6.04283">
        <ele>18.49</ele>
        <time>2021-03-20T19:31:31Z</time>
      </trkpt>
      <trkpt lat="57.29421" lon="-6.04299">
        <ele>19.19</ele>
        <time>2021-03-20T19:31:34Z</time>
      </trkpt>
      <trkpt lat="57.29435" lon="-6.0431">
        <ele>19.54</ele>
        <time>2021-03-20T19:31:38Z</time>
      </trkpt>
      <trkpt lat="57.29452" lon="-6.0433">
        <ele>19.6</ele>
        <time>2021-03-20T19:31:41Z</time>
      </trkpt>
      <trkpt lat="57.29465" lon="-6.04356">
        <ele>20.92</ele>
        <time>2021-03-20T19:31:45Z</time>
      </trkpt>
      <trkpt lat="57.29476" lon="-6.04387">
        <ele>21.44</ele>
        <time>2021-03-20T19:31:48Z</time>
      </trkpt>
      <trkpt lat="57.29554" lon="-6.04659">
        <ele>21.19</ele>
        <time>2021-03-20T19:31:52Z</time>
      </trkpt>
      <trkpt lat="57.29591" lon="-6.04766">
        <ele>15.87</ele>
        <time>2021-03-20T19:31:55Z</time>
      </trkpt>
      <trkpt lat="57.2967" lon="-6.04943">
        <ele>14.28</ele>
        <time>2021-03-20T19:31:59Z</time>
      </trkpt>
      <trkpt lat="57.29742" lon="-6.05135">
        <ele>11.49</ele>
        <time>2021-03-20T19:32:02Z</time>
      </trkpt>
      <trkpt lat="57.29761" lon="-6.05161">
        <ele>8.8</ele>
        <time>2021-03-20T19:32:06Z</time>
      </trkpt>
      <trkpt lat="57.29791" lon="-6.0518">
        <ele>7.26</ele>
        <time>2021-03-20T19:32:09Z</time>
      </trkpt>
      <trkpt lat="57.29824" lon="-6.05192">
        <ele>10.33</ele>
        <time>2021-03-20T19:32:13Z</time>
      </trkpt>
      <trkpt lat="57.29845" lon="-6.05189">
        <ele>13.02</ele>
        <time>2021-03-20T19:32:16Z</time>
      </trkpt>
      <trkpt lat="57.2986" lon="-6.05181">
        <ele>13.8</ele>
        <time>2021-03-20T19:32:20Z</time>
      </trkpt>
      <trkpt lat="57.29992" lon="-6.05061">
        <ele>18.93</ele>
        <time>2021-03-20T19:32:23Z</time>
      </trkpt>
      <trkpt lat="57.30017" lon="-6.05043">
        <ele>20.22</ele>
        <time>2021-03-20T19:32:27Z</time>
      </trkpt>
      <trkpt lat="57.30069" lon="-6.05015">
        <ele>23.77</ele>
        <time>2021-03-20T19:32:30Z</time>
      </trkpt>
      <trkpt lat="57.30088" lon="-6.05001">
        <ele>25.05</ele>
        <time>2021-03-20T19:32:34Z</time>
      </trkpt>
      <trkpt lat="57.30122" lon="-6.04961">
        <ele>23.5</ele>
        <time>2021-03-20T19:32:37Z</time>
      </trkpt>
      <trkpt lat="57.30145" lon="-6.04942">
        <ele>23.14</ele>
        <time>2021-03-20T19:32:41Z</time>
      </trkpt>
      <trkpt lat="57.3021" lon="-6.0494">
        <ele>24.98</ele>
        <time>2021-03-20T19:32:44Z</time>
      </trkpt>
      <trkpt lat="57.30261" lon="-6.04951">
        <ele>24.17</ele>
        <time>2021-03-20T19:32:48Z</time>
      </trkpt>
      <trkpt lat="57.3028" lon="-6.0496">
        <ele>25.1</ele>
        <time>2021-03-20T19:32:51Z</time>
      </trkpt>
      <trkpt lat="57.30301" lon="-6.04974">
        <ele>26.27</ele>
        <time>2021-03-20T19:32:55Z</time>
      </trkpt>
      <trkpt lat="57.30379" lon="-6.05054">
        <ele>27.84</ele>
        <time>2021-03-20T19:32:58Z</time>
      </trkpt>
      <trkpt lat="57.30397" lon="-6.05069">
        <ele>28.05</ele>
        <time>2021-03-20T19:33:02Z</time>
      </trkpt>
      <trkpt lat="57.30417" lon="-6.05079">
        <ele>27.1</ele>
        <time>2021-03-20T19:33:05Z</time>
      </trkpt>
      <trkpt lat="57.30452" lon="-6.05092">
        <ele>26.49</ele>
        <time>2021-03-20T19:33:09Z</time>
      </trkpt>
      <trkpt lat="57.30534" lon="-6.05116">
        <ele>27.33</ele>
        <time>2021-03-20T19:33:12Z</time>
      </trkpt>
      <trkpt lat="57.30561" lon="-6.0511">
        <ele>26.97</ele>
        <time>2021-03-20T19:33:16Z</time>
      </trkpt>
      <trkpt lat="57.30587" lon="-6.05092">
        <ele>24.8</ele>
        <time>2021-03-20T19:33:19Z</time>
      </trkpt>
      <trkpt lat="57.30663" lon="-6.05031">
        <ele>20.34</ele>
        <time>2021-03-20T19:33:23Z</time>
      </trkpt>
      <trkpt lat="57.30845" lon="-6.04899">
        <ele>17.74</ele>
        <time>2021-03-20T19:33:26Z</time>
      </trkpt>
      <trkpt lat="57.30944" lon="-6.04885">
        <ele>16.65</ele>
        <time>2021-03-20T19:33:30Z</time>
      </trkpt>
      <trkpt lat="57.30959" lon="-6.04888">
        <ele>15.85</ele>
        <time>2021-03-20T19:33:33Z</time>
      </trkpt>
      <trkpt lat="57.30969" lon="-6.04895">
        <ele>16.17</ele>
        <time>2021-03-20T19:33:37Z</time>
      </trkpt>
      <trkpt lat="57.31015" lon="-6.04943">
        <ele>16.06</ele>
        <time>2021-03-20T19:33:40Z</time>
      </trkpt>
      <trkpt lat="57.31031" lon="-6.04965">
        <ele>14.51</ele>
        <time>2021-03-20T19:33:44Z</time>
      </trkpt>
      <trkpt lat="57.31097" lon="-6.05103">
        <ele>15.74</ele>
        <time>2021-03-20T19:33:47Z</time>
      </trkpt>
      <trkpt lat="57.31125" lon="-6.05172">
        <ele>15.18</ele>
        <time>2021-03-20T19:33:51Z</time>
      </trkpt>
      <trkpt lat="57.3127" lon="-6.05586">
        <ele>15.55</ele>
        <time>2021-03-20T19:33:54Z</time>
      </trkpt>
      <trkpt lat="57.31286" lon="-6.05645">
        <ele>15.72</ele>
        <time>2021-03-20T19:33:58Z</time>
      </trkpt>
      <trkpt lat="57.31306" lon="-6.06052">
        <ele>14.97</ele>
        <time>2021-03-20T19:34:01Z</time>
      </trkpt>
      <trkpt lat="57.31304" lon="-6.06321">
        <ele>17.49</ele>
        <time>2021-03-20T19:34:05Z</time>
      </trkpt>
      <trkpt lat="57.31301" lon="-6.06352">
        <ele>17.41</ele>
        <time>2021-03-20T19:34:08Z</time>
      </trkpt>
      <trkpt lat="57.31288" lon="-6.06463">
        <ele>19.19</ele>
        <time>2021-03-20T19:34:12Z</time>
      </trkpt>
      <trkpt lat="57.31285" lon="-6.06511">
        <ele>20.85</ele>
        <time>2021-03-20T19:34:15Z</time>
      </trkpt>
      <trkpt lat="57.31291" lon="-6.06568">
        <ele>23.81</ele>
        <time>2021-03-20T19:34:19Z</time>
      </trkpt>
      <trkpt lat="57.31338" lon="-6.06743">
        <ele>25.49</ele>
        <time>2021-03-20T19:34:22Z</time>
      </trkpt>
      <trkpt lat="57.31347" lon="-6.0679">
        <ele>25.68</ele>
        <time>2021-03-20T19:34:26Z</time>
      </trkpt>
      <trkpt lat="57.31379" lon="-6.07006">
        <ele>18.02</ele>
        <time>2021-03-20T19:34:30Z</time>
      </trkpt>
      <trkpt lat="57.31379" lon="-6.07063">
        <ele>17.11</ele>
        <time>2021-03-20T19:34:33Z</time>
      </trkpt>
      <trkpt lat="57.31377" lon="-6.07103">
        <ele>16.26</ele>
        <time>2021-03-20T19:34:37Z</time>
      </trkpt>
      <trkpt lat="57.31369" lon="-6.0715">
        <ele>15.31</ele>
        <time>2021-03-20T19:34:40Z</time>
      </trkpt>
      <trkpt lat="57.31356" lon="-6.07188">
        <ele>15.29</ele>
        <time>2021-03-20T19:34:44Z</time>
      </trkpt>
      <trkpt lat="57.31274" lon="-6.0735">
        <ele>19.34</ele>
        <time>2021-03-20T19:34:47Z</time>
      </trkpt>
      <trkpt lat="57.31191" lon="-6.07521">
        <ele>21.48</ele>
        <time>2021-03-20T19:34:51Z</time>
      </trkpt>
      <trkpt lat="57.31158" lon="-6.07634">
        <ele>16.95</ele>
        <time>2021-03-20T19:34:54Z</time>
      </trkpt>
      <trkpt lat="57.31107" lon="-6.07828">
        <ele>14.15</ele>
        <time>2021-03-20T19:34:58Z</time>
      </trkpt>
      <trkpt lat="57.31082" lon="-6.07959">
        <ele>14.52</ele>
        <time>2021-03-20T19:35:01Z</time>
      </trkpt>
      <trkpt lat="57.31066" lon="-6.08032">
        <ele>13.16</ele>
        <time>2021-03-20T19:35:05Z</time>
      </trkpt>
      <trkpt lat="57.31" lon="-6.08237">
        <ele>8.48</ele>
        <time>2021-03-20T19:35:08Z</time>
      </trkpt>
      <trkpt lat="57.30966" lon="-6.08337">
        <ele>7.35</ele>
        <time>2021-03-20T19:35:12Z</time>
      </trkpt>
      <trkpt lat="57.3096" lon="-6.08375">
        <ele>6.35</ele>
        <time>2021-03-20T19:35:15Z</time>
      </trkpt>
      <trkpt lat="57.30958" lon="-6.08445">
        <ele>6</ele>
        <time>2021-03-20T19:35:19Z</time>
      </trkpt>
      <trkpt lat="57.3095" lon="-6.08525">
        <ele>6.59</ele>
        <time>2021-03-20T19:35:22Z</time>
      </trkpt>
      <trkpt lat="57.30945" lon="-6.08609">
        <ele>6.97</ele>
        <time>2021-03-20T19:35:26Z</time>
      </trkpt>
      <trkpt lat="57.30912" lon="-6.08768">
        <ele>8.42</ele>
        <time>2021-03-20T19:35:29Z</time>
      </trkpt>
      <trkpt lat="57.30905" lon="-6.08835">
        <ele>7.8</ele>
        <time>2021-03-20T19:35:33Z</time>
      </trkpt>
      <trkpt lat="57.30912" lon="-6.0889">
        <ele>6.2</ele>
        <time>2021-03-20T19:35:36Z</time>
      </trkpt>
      <trkpt lat="57.30973" lon="-6.09286">
        <ele>13.56</ele>
        <time>2021-03-20T19:35:40Z</time>
      </trkpt>
      <trkpt lat="57.30988" lon="-6.094">
        <ele>19.59</ele>
        <time>2021-03-20T19:35:43Z</time>
      </trkpt>
      <trkpt lat="57.30987" lon="-6.0946">
        <ele>20.98</ele>
        <time>2021-03-20T19:35:47Z</time>
      </trkpt>
      <trkpt lat="57.30981" lon="-6.09495">
        <ele>22.03</ele>
        <time>2021-03-20T19:35:50Z</time>
      </trkpt>
      <trkpt lat="57.30972" lon="-6.0952">
        <ele>23.73</ele>
        <time>2021-03-20T19:35:54Z</time>
      </trkpt>
      <trkpt lat="57.31185" lon="-6.09849">
        <ele>16.27</ele>
        <time>2021-03-20T19:35:58Z</time>
      </trkpt>
      <trkpt lat="57.31325" lon="-6.10047">
        <ele>11.51</ele>
        <time>2021-03-20T19:36:03Z</time>
      </trkpt>
      <trkpt lat="57.31361" lon="-6.10108">
        <ele>9.99</ele>
        <time>2021-03-20T19:36:08Z</time>
      </trkpt>
      <trkpt lat="57.31388" lon="-6.10174">
        <ele>7.67</ele>
        <time>2021-03-20T19:36:12Z</time>
      </trkpt>
      <trkpt lat="57.31411" lon="-6.10259">
        <ele>7.18</ele>
        <time>2021-03-20T19:36:17Z</time>
      </trkpt>
      <trkpt lat="57.31425" lon="-6.1035">
        <ele>6.7</ele>
        <time>2021-03-20T19:36:22Z</time>
      </trkpt>
      <trkpt lat="57.31428" lon="-6.10437">
        <ele>7.94</ele>
        <time>2021-03-20T19:36:26Z</time>
      </trkpt>
      <trkpt lat="57.31422" lon="-6.10543">
        <ele>7.37</ele>
        <time>2021-03-20T19:36:31Z</time>
      </trkpt>
      <trkpt lat="57.31393" lon="-6.10779">
        <ele>8.26</ele>
        <time>2021-03-20T19:36:35Z</time>
      </trkpt>
      <trkpt lat="57.31374" lon="-6.10903">
        <ele>8.46</ele>
        <time>2021-03-20T19:36:40Z</time>
      </trkpt>
      <trkpt lat="57.31354" lon="-6.10995">
        <ele>8.74</ele>
        <time>2021-03-20T19:36:45Z</time>
      </trkpt>
      <trkpt lat="57.31335" lon="-6.11073">
        <ele>10.14</ele>
        <time>2021-03-20T19:36:49Z</time>
      </trkpt>
      <trkpt lat="57.31319" lon="-6.11172">
        <ele>9.17</ele>
        <time>2021-03-20T19:36:54Z</time>
      </trkpt>
      <trkpt lat="57.31307" lon="-6.11281">
        <ele>4.7</ele>
        <time>2021-03-20T19:36:59Z</time>
      </trkpt>
      <trkpt lat="57.31303" lon="-6.11365">
        <ele>4.2</ele>
        <time>2021-03-20T19:37:03Z</time>
      </trkpt>
      <trkpt lat="57.31303" lon="-6.11446">
        <ele>4.12</ele>
        <time>2021-03-20T19:37:08Z</time>
      </trkpt>
      <trkpt lat="57.3131" lon="-6.11604">
        <ele>6.59</ele>
        <time>2021-03-20T19:37:12Z</time>
      </trkpt>
      <trkpt lat="57.31311" lon="-6.11697">
        <ele>10.65</ele>
        <time>2021-03-20T19:37:17Z</time>
      </trkpt>
      <trkpt lat="57.31308" lon="-6.11766">
        <ele>12.27</ele>
        <time>2021-03-20T19:37:22Z</time>
      </trkpt>
      <trkpt lat="57.31303" lon="-6.11828">
        <ele>13.33</ele>
        <time>2021-03-20T19:37:26Z</time>
      </trkpt>
      <trkpt lat="57.3128" lon="-6.11925">
        <ele>13.68</ele>
        <time>2021-03-20T19:37:31Z</time>
      </trkpt>
      <trkpt lat="57.31247" lon="-6.12021">
        <ele>15.64</ele>
        <time>2021-03-20T19:37:36Z</time>
      </trkpt>
      <trkpt lat="57.31097" lon="-6.12302">
        <ele>24.54</ele>
        <time>2021-03-20T19:37:40Z</time>
      </trkpt>
      <trkpt lat="57.3104" lon="-6.12416">
        <ele>24.09</ele>
        <time>2021-03-20T19:37:45Z</time>
      </trkpt>
      <trkpt lat="57.30906" lon="-6.12734">
        <ele>24.58</ele>
        <time>2021-03-20T19:37:50Z</time>
      </trkpt>
      <trkpt lat="57.30844" lon="-6.12877">
        <ele>25.18</ele>
        <time>2021-03-20T19:37:54Z</time>
      </trkpt>
      <trkpt lat="57.308" lon="-6.12953">
        <ele>26.2</ele>
        <time>2021-03-20T19:37:59Z</time>
      </trkpt>
      <trkpt lat="57.30726" lon="-6.13038">
        <ele>28.24</ele>
        <time>2021-03-20T19:38:03Z</time>
      </trkpt>
      <trkpt lat="57.30663" lon="-6.1313">
        <ele>29.14</ele>
        <time>2021-03-20T19:38:08Z</time>
      </trkpt>
      <trkpt lat="57.30615" lon="-6.13203">
        <ele>27.33</ele>
        <time>2021-03-20T19:38:13Z</time>
      </trkpt>
      <trkpt lat="57.30536" lon="-6.13343">
        <ele>27.6</ele>
        <time>2021-03-20T19:38:17Z</time>
      </trkpt>
      <trkpt lat="57.30504" lon="-6.13404">
        <ele>26.88</ele>
        <time>2021-03-20T19:38:22Z</time>
      </trkpt>
      <trkpt lat="57.30383" lon="-6.13667">
        <ele>27.1</ele>
        <time>2021-03-20T19:38:27Z</time>
      </trkpt>
      <trkpt lat="57.30362" lon="-6.13731">
        <ele>25.53</ele>
        <time>2021-03-20T19:38:31Z</time>
      </trkpt>
      <trkpt lat="57.30348" lon="-6.13791">
        <ele>26.71</ele>
        <time>2021-03-20T19:38:36Z</time>
      </trkpt>
      <trkpt lat="57.30278" lon="-6.1413">
        <ele>33.29</ele>
        <time>2021-03-20T19:38:40Z</time>
      </trkpt>
      <trkpt lat="57.30258" lon="-6.14211">
        <ele>31</ele>
        <time>2021-03-20T19:38:45Z</time>
      </trkpt>
      <trkpt lat="57.30233" lon="-6.14273">
        <ele>29.01</ele>
        <time>2021-03-20T19:38:50Z</time>
      </trkpt>
      <trkpt lat="57.30204" lon="-6.14323">
        <ele>27.37</ele>
        <time>2021-03-20T19:38:54Z</time>
      </trkpt>
      <trkpt lat="57.29973" lon="-6.14668">
        <ele>21.5</ele>
        <time>2021-03-20T19:38:59Z</time>
      </trkpt>
      <trkpt lat="57.29938" lon="-6.1473">
        <ele>23.8</ele>
        <time>2021-03-20T19:39:04Z</time>
      </trkpt>
      <trkpt lat="57.29912" lon="-6.14793">
        <ele>22.25</ele>
        <time>2021-03-20T19:39:08Z</time>
      </trkpt>
      <trkpt lat="57.2988" lon="-6.14891">
        <ele>21.09</ele>
        <time>2021-03-20T19:39:13Z</time>
      </trkpt>
      <trkpt lat="57.29853" lon="-6.15047">
        <ele>18.66</ele>
        <time>2021-03-20T19:39:18Z</time>
      </trkpt>
      <trkpt lat="57.29835" lon="-6.15117">
        <ele>17.86</ele>
        <time>2021-03-20T19:39:22Z</time>
      </trkpt>
      <trkpt lat="57.29685" lon="-6.1555">
        <ele>13.7</ele>
        <time>2021-03-20T19:39:27Z</time>
      </trkpt>
      <trkpt lat="57.29655" lon="-6.15662">
        <ele>12.37</ele>
        <time>2021-03-20T19:39:31Z</time>
      </trkpt>
      <trkpt lat="57.29651" lon="-6.15711">
        <ele>11.48</ele>
        <time>2021-03-20T19:39:36Z</time>
      </trkpt>
      <trkpt lat="57.29645" lon="-6.16062">
        <ele>9.73</ele>
        <time>2021-03-20T19:39:41Z</time>
      </trkpt>
      <trkpt lat="57.29637" lon="-6.16128">
        <ele>9.63</ele>
        <time>2021-03-20T19:39:45Z</time>
      </trkpt>
      <trkpt lat="57.29622" lon="-6.16197">
        <ele>9.28</ele>
        <time>2021-03-20T19:39:50Z</time>
      </trkpt>
      <trkpt lat="57.29596" lon="-6.16265">
        <ele>9.19</ele>
        <time>2021-03-20T19:39:55Z</time>
      </trkpt>
      <trkpt lat="57.2957" lon="-6.16316">
        <ele>8.14</ele>
        <time>2021-03-20T19:39:59Z</time>
      </trkpt>
      <trkpt lat="57.29536" lon="-6.16371">
        <ele>9.48</ele>
        <time>2021-03-20T19:40:04Z</time>
      </trkpt>
      <trkpt lat="57.29469" lon="-6.16466">
        <ele>10.71</ele>
        <time>2021-03-20T19:40:08Z</time>
      </trkpt>
      <trkpt lat="57.29363" lon="-6.16607">
        <ele>11.17</ele>
        <time>2021-03-20T19:40:13Z</time>
      </trkpt>
      <trkpt lat="57.29263" lon="-6.16794">
        <ele>12.35</ele>
        <time>2021-03-20T19:40:18Z</time>
      </trkpt>
      <trkpt lat="57.291" lon="-6.17037">
        <ele>12.85</ele>
        <time>2021-03-20T19:40:22Z</time>
      </trkpt>
      <trkpt lat="57.29081" lon="-6.17068">
        <ele>13.18</ele>
        <time>2021-03-20T19:40:27Z</time>
      </trkpt>
      <trkpt lat="57.29058" lon="-6.17113">
        <ele>11.85</ele>
        <time>2021-03-20T19:40:32Z</time>
      </trkpt>
      <trkpt lat="57.29046" lon="-6.17147">
        <ele>11.59</ele>
        <time>2021-03-20T19:40:36Z</time>
      </trkpt>
      <trkpt lat="57.29037" lon="-6.17181">
        <ele>11.15</ele>
        <time>2021-03-20T19:40:41Z</time>
      </trkpt>
      <trkpt lat="57.2903" lon="-6.17213">
        <ele>10.29</ele>
        <time>2021-03-20T19:40:46Z</time>
      </trkpt>
      <trkpt lat="57.29024" lon="-6.17273">
        <ele>9</ele>
        <time>2021-03-20T19:40:50Z</time>
      </trkpt>
      <trkpt lat="57.29023" lon="-6.17328">
        <ele>9.81</ele>
        <time>2021-03-20T19:40:55Z</time>
      </trkpt>
      <trkpt lat="57.29028" lon="-6.1739">
        <ele>11.02</ele>
        <time>2021-03-20T19:40:59Z</time>
      </trkpt>
      <trkpt lat="57.29038" lon="-6.17444">
        <ele>11.62</ele>
        <time>2021-03-20T19:41:04Z</time>
      </trkpt>
      <trkpt lat="57.29054" lon="-6.17493">
        <ele>12.07</ele>
        <time>2021-03-20T19:41:09Z</time>
      </trkpt>
      <trkpt lat="57.29079" lon="-6.17561">
        <ele>12.71</ele>
        <time>2021-03-20T19:41:13Z</time>
      </trkpt>
      <trkpt lat="57.29101" lon="-6.17615">
        <ele>14.93</ele>
        <time>2021-03-20T19:41:18Z</time>
      </trkpt>
      <trkpt lat="57.2914" lon="-6.17697">
        <ele>16.07</ele>
        <time>2021-03-20T19:41:23Z</time>
      </trkpt>
      <trkpt lat="57.29179" lon="-6.1777">
        <ele>18.15</ele>
        <time>2021-03-20T19:41:27Z</time>
      </trkpt>
      <trkpt lat="57.2922" lon="-6.17823">
        <ele>22.47</ele>
        <time>2021-03-20T19:41:32Z</time>
      </trkpt>
      <trkpt lat="57.29255" lon="-6.17851">
        <ele>24.91</ele>
        <time>2021-03-20T19:41:36Z</time>
      </trkpt>
      <trkpt lat="57.29358" lon="-6.17909">
        <ele>31.53</ele>
        <time>2021-03-20T19:41:41Z</time>
      </trkpt>
      <trkpt lat="57.29621" lon="-6.18082">
        <ele>46.88</ele>
        <time>2021-03-20T19:41:46Z</time>
      </trkpt>
      <trkpt lat="57.297" lon="-6.18193">
        <ele>51.67</ele>
        <time>2021-03-20T19:41:50Z</time>
      </trkpt>
      <trkpt lat="57.29733" lon="-6.18222">
        <ele>52.36</ele>
        <time>2021-03-20T19:41:55Z</time>
      </trkpt>
      <trkpt lat="57.29887" lon="-6.18267">
        <ele>64.13</ele>
        <time>2021-03-20T19:42:00Z</time>
      </trkpt>
      <trkpt lat="57.2995" lon="-6.18303">
        <ele>65.94</ele>
        <time>2021-03-20T19:42:04Z</time>
      </trkpt>
      <trkpt lat="57.30031" lon="-6.18391">
        <ele>70.96</ele>
        <time>2021-03-20T19:42:09Z</time>
      </trkpt>
      <trkpt lat="57.30068" lon="-6.18437">
        <ele>70.82</ele>
        <time>2021-03-20T19:42:13Z</time>
      </trkpt>
      <trkpt lat="57.30227" lon="-6.18621">
        <ele>75.62</ele>
        <time>2021-03-20T19:42:18Z</time>
      </trkpt>
      <trkpt lat="57.30268" lon="-6.18661">
        <ele>76.29</ele>
        <time>2021-03-20T19:42:23Z</time>
      </trkpt>
      <trkpt lat="57.3035" lon="-6.18708">
        <ele>78</ele>
        <time>2021-03-20T19:42:27Z</time>
      </trkpt>
      <trkpt lat="57.30565" lon="-6.18786">
        <ele>84.47</ele>
        <time>2021-03-20T19:42:32Z</time>
      </trkpt>
      <trkpt lat="57.30755" lon="-6.18901">
        <ele>91.49</ele>
        <time>2021-03-20T19:42:37Z</time>
      </trkpt>
      <trkpt lat="57.30807" lon="-6.18939">
        <ele>95.35</ele>
        <time>2021-03-20T19:42:41Z</time>
      </trkpt>
      <trkpt lat="57.30857" lon="-6.18987">
        <ele>97.99</ele>
        <time>2021-03-20T19:42:46Z</time>
      </trkpt>
      <trkpt lat="57.30887" lon="-6.19024">
        <ele>99.04</ele>
        <time>2021-03-20T19:42:51Z</time>
      </trkpt>
      <trkpt lat="57.30916" lon="-6.19078">
        <ele>102.95</ele>
        <time>2021-03-20T19:42:55Z</time>
      </trkpt>
      <trkpt lat="57.30983" lon="-6.193">
        <ele>103.82</ele>
        <time>2021-03-20T19:43:00Z</time>
      </trkpt>
      <trkpt lat="57.3101" lon="-6.19344">
        <ele>105</ele>
        <time>2021-03-20T19:43:04Z</time>
      </trkpt>
      <trkpt lat="57.31322" lon="-6.1979">
        <ele>104.71</ele>
        <time>2021-03-20T19:43:09Z</time>
      </trkpt>
      <trkpt lat="57.31367" lon="-6.19846">
        <ele>104.95</ele>
        <time>2021-03-20T19:43:14Z</time>
      </trkpt>
      <trkpt lat="57.3153" lon="-6.20019">
        <ele>109.81</ele>
        <time>2021-03-20T19:43:18Z</time>
      </trkpt>
      <trkpt lat="57.31669" lon="-6.20148">
        <ele>110.86</ele>
        <time>2021-03-20T19:43:23Z</time>
      </trkpt>
      <trkpt lat="57.32073" lon="-6.20509">
        <ele>111.04</ele>
        <time>2021-03-20T19:43:28Z</time>
      </trkpt>
      <trkpt lat="57.32102" lon="-6.20516">
        <ele>110.44</ele>
        <time>2021-03-20T19:43:32Z</time>
      </trkpt>
      <trkpt lat="57.32315" lon="-6.20488">
        <ele>106</ele>
        <time>2021-03-20T19:43:37Z</time>
      </trkpt>
      <trkpt lat="57.32372" lon="-6.20468">
        <ele>106.04</ele>
        <time>2021-03-20T19:43:41Z</time>
      </trkpt>
      <trkpt lat="57.32663" lon="-6.20323">
        <ele>102.4</ele>
        <time>2021-03-20T19:43:46Z</time>
      </trkpt>
      <trkpt lat="57.32749" lon="-6.20283">
        <ele>105.49</ele>
        <time>2021-03-20T19:43:51Z</time>
      </trkpt>
      <trkpt lat="57.32787" lon="-6.20281">
        <ele>103.33</ele>
        <time>2021-03-20T19:43:55Z</time>
      </trkpt>
      <trkpt lat="57.32866" lon="-6.20297">
        <ele>100.47</ele>
        <time>2021-03-20T19:44:00Z</time>
      </trkpt>
      <trkpt lat="57.32895" lon="-6.20298">
        <ele>99.26</ele>
        <time>2021-03-20T19:44:05Z</time>
      </trkpt>
      <trkpt lat="57.32936" lon="-6.20282">
        <ele>97.49</ele>
        <time>2021-03-20T19:44:09Z</time>
      </trkpt>
      <trkpt lat="57.33107" lon="-6.2014">
        <ele>99.29</ele>
        <time>2021-03-20T19:44:14Z</time>
      </trkpt>
      <trkpt lat="57.33236" lon="-6.20017">
        <ele>101</ele>
        <time>2021-03-20T19:44:19Z</time>
      </trkpt>
      <trkpt lat="57.33359" lon="-6.19888">
        <ele>102.26</ele>
        <time>2021-03-20T19:44:23Z</time>
      </trkpt>
      <trkpt lat="57.33449" lon="-6.19835">
        <ele>104.65</ele>
        <time>2021-03-20T19:44:28Z</time>
      </trkpt>
      <trkpt lat="57.33495" lon="-6.1983">
        <ele>103.85</ele>
        <time>2021-03-20T19:44:32Z</time>
      </trkpt>
      <trkpt lat="57.33523" lon="-6.19829">
        <ele>103.66</ele>
        <time>2021-03-20T19:44:37Z</time>
      </trkpt>
      <trkpt lat="57.33694" lon="-6.19892">
        <ele>100.58</ele>
        <time>2021-03-20T19:44:42Z</time>
      </trkpt>
      <trkpt lat="57.33739" lon="-6.199">
        <ele>97.35</ele>
        <time>2021-03-20T19:44:46Z</time>
      </trkpt>
      <trkpt lat="57.3396" lon="-6.199">
        <ele>93.99</ele>
        <time>2021-03-20T19:44:51Z</time>
      </trkpt>
      <trkpt lat="57.34029" lon="-6.19891">
        <ele>89.66</ele>
        <time>2021-03-20T19:44:56Z</time>
      </trkpt>
      <trkpt lat="57.34075" lon="-6.19872">
        <ele>90.62</ele>
        <time>2021-03-20T19:45:00Z</time>
      </trkpt>
      <trkpt lat="57.3429" lon="-6.19758">
        <ele>82.11</ele>
        <time>2021-03-20T19:45:05Z</time>
      </trkpt>
      <trkpt lat="57.34345" lon="-6.19732">
        <ele>83.47</ele>
        <time>2021-03-20T19:45:09Z</time>
      </trkpt>
      <trkpt lat="57.34366" lon="-6.19727">
        <ele>83.93</ele>
        <time>2021-03-20T19:45:14Z</time>
      </trkpt>
      <trkpt lat="57.34387" lon="-6.19731">
        <ele>83.02</ele>
        <time>2021-03-20T19:45:19Z</time>
      </trkpt>
      <trkpt lat="57.34427" lon="-6.19753">
        <ele>80.13</ele>
        <time>2021-03-20T19:45:23Z</time>
      </trkpt>
      <trkpt lat="57.34466" lon="-6.19766">
        <ele>79.93</ele>
        <time>2021-03-20T19:45:28Z</time>
      </trkpt>
      <trkpt lat="57.34498" lon="-6.19766">
        <ele>80.16</ele>
        <time>2021-03-20T19:45:33Z</time>
      </trkpt>
      <trkpt lat="57.34522" lon="-6.19762">
        <ele>79.27</ele>
        <time>2021-03-20T19:45:37Z</time>
      </trkpt>
      <trkpt lat="57.34613" lon="-6.19726">
        <ele>79.15</ele>
        <time>2021-03-20T19:45:42Z</time>
      </trkpt>
      <trkpt lat="57.34704" lon="-6.19682">
        <ele>76.17</ele>
        <time>2021-03-20T19:45:47Z</time>
      </trkpt>
      <trkpt lat="57.34749" lon="-6.19678">
        <ele>76.43</ele>
        <time>2021-03-20T19:45:51Z</time>
      </trkpt>
      <trkpt lat="57.34909" lon="-6.19685">
        <ele>70.39</ele>
        <time>2021-03-20T19:45:56Z</time>
      </trkpt>
      <trkpt lat="57.34953" lon="-6.19684">
        <ele>69.05</ele>
        <time>2021-03-20T19:46:00Z</time>
      </trkpt>
      <trkpt lat="57.34977" lon="-6.19678">
        <ele>68.47</ele>
        <time>2021-03-20T19:46:05Z</time>
      </trkpt>
      <trkpt lat="57.35012" lon="-6.19654">
        <ele>67.65</ele>
        <time>2021-03-20T19:46:10Z</time>
      </trkpt>
      <trkpt lat="57.35047" lon="-6.19623">
        <ele>66</ele>
        <time>2021-03-20T19:46:14Z</time>
      </trkpt>
      <trkpt lat="57.35074" lon="-6.1961">
        <ele>64.14</ele>
        <time>2021-03-20T19:46:19Z</time>
      </trkpt>
      <trkpt lat="57.35121" lon="-6.19617">
        <ele>59.27</ele>
        <time>2021-03-20T19:46:24Z</time>
      </trkpt>
      <trkpt lat="57.35301" lon="-6.19663">
        <ele>58.99</ele>
        <time>2021-03-20T19:46:28Z</time>
      </trkpt>
      <trkpt lat="57.35351" lon="-6.19684">
        <ele>57.75</ele>
        <time>2021-03-20T19:46:33Z</time>
      </trkpt>
      <trkpt lat="57.35387" lon="-6.19716">
        <ele>58.29</ele>
        <time>2021-03-20T19:46:37Z</time>
      </trkpt>
      <trkpt lat="57.35424" lon="-6.19739">
        <ele>57.23</ele>
        <time>2021-03-20T19:46:42Z</time>
      </trkpt>
      <trkpt lat="57.35442" lon="-6.19743">
        <ele>56.58</ele>
        <time>2021-03-20T19:46:47Z</time>
      </trkpt>
      <trkpt lat="57.35469" lon="-6.19734">
        <ele>56.26</ele>
        <time>2021-03-20T19:46:51Z</time>
      </trkpt>
      <trkpt lat="57.35511" lon="-6.197">
        <ele>57.28</ele>
        <time>2021-03-20T19:46:56Z</time>
      </trkpt>
      <trkpt lat="57.35542" lon="-6.19682">
        <ele>56.64</ele>
        <time>2021-03-20T19:47:01Z</time>
      </trkpt>
      <trkpt lat="57.35586" lon="-6.19677">
        <ele>55.28</ele>
        <time>2021-03-20T19:47:05Z</time>
      </trkpt>
      <trkpt lat="57.35794" lon="-6.19701">
        <ele>52.73</ele>
        <time>2021-03-20T19:47:10Z</time>
      </trkpt>
      <trkpt lat="57.35825" lon="-6.1971">
        <ele>51.7</ele>
        <time>2021-03-20T19:47:15Z</time>
      </trkpt>
      <trkpt lat="57.35898" lon="-6.19753">
        <ele>50.76</ele>
        <time>2021-03-20T19:47:19Z</time>
      </trkpt>
      <trkpt lat="57.35923" lon="-6.19763">
        <ele>49.84</ele>
        <time>2021-03-20T19:47:24Z</time>
      </trkpt>
      <trkpt lat="57.35968" lon="-6.19761">
        <ele>48.35</ele>
        <time>2021-03-20T19:47:28Z</time>
      </trkpt>
      <trkpt lat="57.36042" lon="-6.19744">
        <ele>46.8</ele>
        <time>2021-03-20T19:47:33Z</time>
      </trkpt>
      <trkpt lat="57.36241" lon="-6.1964">
        <ele>44.92</ele>
        <time>2021-03-20T19:47:38Z</time>
      </trkpt>
      <trkpt lat="57.36275" lon="-6.19613">
        <ele>44.24</ele>
        <time>2021-03-20T19:47:42Z</time>
      </trkpt>
      <trkpt lat="57.36334" lon="-6.19539">
        <ele>43.58</ele>
        <time>2021-03-20T19:47:47Z</time>
      </trkpt>
      <trkpt lat="57.36357" lon="-6.1952">
        <ele>43.69</ele>
        <time>2021-03-20T19:47:52Z</time>
      </trkpt>
      <trkpt lat="57.36591" lon="-6.19363">
        <ele>42.65</ele>
        <time>2021-03-20T19:47:56Z</time>
      </trkpt>
      <trkpt lat="57.3663" lon="-6.1934">
        <ele>43.63</ele>
        <time>2021-03-20T19:48:01Z</time>
      </trkpt>
      <trkpt lat="57.36661" lon="-6.19328">
        <ele>45.41</ele>
        <time>2021-03-20T19:48:05Z</time>
      </trkpt>
      <trkpt lat="57.36687" lon="-6.19328">
        <ele>45.78</ele>
        <time>2021-03-20T19:48:10Z</time>
      </trkpt>
      <trkpt lat="57.36712" lon="-6.19333">
        <ele>45.62</ele>
        <time>2021-03-20T19:48:15Z</time>
      </trkpt>
      <trkpt lat="57.36743" lon="-6.19352">
        <ele>44.89</ele>
        <time>2021-03-20T19:48:19Z</time>
      </trkpt>
      <trkpt lat="57.36804" lon="-6.19397">
        <ele>41.08</ele>
        <time>2021-03-20T19:48:24Z</time>
      </trkpt>
      <trkpt lat="57.3682" lon="-6.19403">
        <ele>40.78</ele>
        <time>2021-03-20T19:48:29Z</time>
      </trkpt>
      <trkpt lat="57.36883" lon="-6.19393">
        <ele>41.19</ele>
        <time>2021-03-20T19:48:33Z</time>
      </trkpt>
      <trkpt lat="57.36966" lon="-6.19393">
        <ele>40.28</ele>
        <time>2021-03-20T19:48:38Z</time>
      </trkpt>
      <trkpt lat="57.37042" lon="-6.19404">
        <ele>37.37</ele>
        <time>2021-03-20T19:48:43Z</time>
      </trkpt>
      <trkpt lat="57.37042" lon="-6.19404">
        <ele>37.37</ele>
        <time>2021-03-20T19:48:43Z</time>
      </trkpt>
      <trkpt lat="57.37183" lon="-6.19425">
        <ele>33.09</ele>
        <time>2021-03-20T19:48:46Z</time>
      </trkpt>
      <trkpt lat="57.37314" lon="-6.19463">
        <ele>28.29</ele>
        <time>2021-03-20T19:48:49Z</time>
      </trkpt>
      <trkpt lat="57.37351" lon="-6.19468">
        <ele>28.51</ele>
        <time>2021-03-20T19:48:52Z</time>
      </trkpt>
      <trkpt lat="57.37408" lon="-6.19464">
        <ele>29.56</ele>
        <time>2021-03-20T19:48:56Z</time>
      </trkpt>
      <trkpt lat="57.37463" lon="-6.19468">
        <ele>29.01</ele>
        <time>2021-03-20T19:48:59Z</time>
      </trkpt>
      <trkpt lat="57.37517" lon="-6.19475">
        <ele>29.32</ele>
        <time>2021-03-20T19:49:02Z</time>
      </trkpt>
      <trkpt lat="57.3759" lon="-6.19465">
        <ele>29.82</ele>
        <time>2021-03-20T19:49:05Z</time>
      </trkpt>
      <trkpt lat="57.37623" lon="-6.19466">
        <ele>28.44</ele>
        <time>2021-03-20T19:49:09Z</time>
      </trkpt>
      <trkpt lat="57.37646" lon="-6.19476">
        <ele>26.39</ele>
        <time>2021-03-20T19:49:12Z</time>
      </trkpt>
      <trkpt lat="57.3767" lon="-6.19503">
        <ele>22.74</ele>
        <time>2021-03-20T19:49:15Z</time>
      </trkpt>
      <trkpt lat="57.37679" lon="-6.19517">
        <ele>21.48</ele>
        <time>2021-03-20T19:49:18Z</time>
      </trkpt>
      <trkpt lat="57.37705" lon="-6.19588">
        <ele>17.62</ele>
        <time>2021-03-20T19:49:21Z</time>
      </trkpt>
      <trkpt lat="57.37748" lon="-6.19687">
        <ele>22.3</ele>
        <time>2021-03-20T19:49:25Z</time>
      </trkpt>
      <trkpt lat="57.37777" lon="-6.19746">
        <ele>23.83</ele>
        <time>2021-03-20T19:49:28Z</time>
      </trkpt>
      <trkpt lat="57.37819" lon="-6.19796">
        <ele>21.39</ele>
        <time>2021-03-20T19:49:31Z</time>
      </trkpt>
      <trkpt lat="57.3789" lon="-6.19857">
        <ele>20.32</ele>
        <time>2021-03-20T19:49:34Z</time>
      </trkpt>
      <trkpt lat="57.37929" lon="-6.19881">
        <ele>19.4</ele>
        <time>2021-03-20T19:49:38Z</time>
      </trkpt>
      <trkpt lat="57.37974" lon="-6.19898">
        <ele>21.22</ele>
        <time>2021-03-20T19:49:41Z</time>
      </trkpt>
      <trkpt lat="57.38017" lon="-6.19907">
        <ele>20.57</ele>
        <time>2021-03-20T19:49:44Z</time>
      </trkpt>
      <trkpt lat="57.38051" lon="-6.19929">
        <ele>20.25</ele>
        <time>2021-03-20T19:49:47Z</time>
      </trkpt>
      <trkpt lat="57.38195" lon="-6.20132">
        <ele>20.67</ele>
        <time>2021-03-20T19:49:51Z</time>
      </trkpt>
      <trkpt lat="57.38212" lon="-6.20149">
        <ele>19.95</ele>
        <time>2021-03-20T19:49:54Z</time>
      </trkpt>
      <trkpt lat="57.38271" lon="-6.20178">
        <ele>19.44</ele>
        <time>2021-03-20T19:49:57Z</time>
      </trkpt>
      <trkpt lat="57.38346" lon="-6.20204">
        <ele>25.46</ele>
        <time>2021-03-20T19:50:00Z</time>
      </trkpt>
      <trkpt lat="57.38346" lon="-6.20204">
        <ele>25.46</ele>
        <time>2021-03-20T19:50:00Z</time>
      </trkpt>
      <trkpt lat="57.38422" lon="-6.2023">
        <ele>31.48</ele>
        <time>2021-03-20T19:50:06Z</time>
      </trkpt>
      <trkpt lat="57.38476" lon="-6.20257">
        <ele>30</ele>
        <time>2021-03-20T19:50:12Z</time>
      </trkpt>
      <trkpt lat="57.38619" lon="-6.20368">
        <ele>24.72</ele>
        <time>2021-03-20T19:50:18Z</time>
      </trkpt>
      <trkpt lat="57.38656" lon="-6.20386">
        <ele>23.07</ele>
        <time>2021-03-20T19:50:23Z</time>
      </trkpt>
      <trkpt lat="57.38687" lon="-6.20395">
        <ele>22.52</ele>
        <time>2021-03-20T19:50:29Z</time>
      </trkpt>
      <trkpt lat="57.38772" lon="-6.20405">
        <ele>20.97</ele>
        <time>2021-03-20T19:50:35Z</time>
      </trkpt>
      <trkpt lat="57.38949" lon="-6.2049">
        <ele>23.61</ele>
        <time>2021-03-20T19:50:41Z</time>
      </trkpt>
      <trkpt lat="57.39011" lon="-6.20511">
        <ele>25.89</ele>
        <time>2021-03-20T19:50:46Z</time>
      </trkpt>
      <trkpt lat="57.39058" lon="-6.20522">
        <ele>25.86</ele>
        <time>2021-03-20T19:50:52Z</time>
      </trkpt>
      <trkpt lat="57.39105" lon="-6.2051">
        <ele>25</ele>
        <time>2021-03-20T19:50:58Z</time>
      </trkpt>
      <trkpt lat="57.39209" lon="-6.20472">
        <ele>24.6</ele>
        <time>2021-03-20T19:51:04Z</time>
      </trkpt>
      <trkpt lat="57.39344" lon="-6.20409">
        <ele>27.24</ele>
        <time>2021-03-20T19:51:09Z</time>
      </trkpt>
      <trkpt lat="57.39457" lon="-6.20342">
        <ele>27.67</ele>
        <time>2021-03-20T19:51:15Z</time>
      </trkpt>
      <trkpt lat="57.39703" lon="-6.20223">
        <ele>29.42</ele>
        <time>2021-03-20T19:51:21Z</time>
      </trkpt>
      <trkpt lat="57.39758" lon="-6.20182">
        <ele>27.77</ele>
        <time>2021-03-20T19:51:27Z</time>
      </trkpt>
      <trkpt lat="57.39795" lon="-6.20147">
        <ele>26.19</ele>
        <time>2021-03-20T19:51:32Z</time>
      </trkpt>
      <trkpt lat="57.39831" lon="-6.20106">
        <ele>24.68</ele>
        <time>2021-03-20T19:51:38Z</time>
      </trkpt>
      <trkpt lat="57.39869" lon="-6.20075">
        <ele>24.94</ele>
        <time>2021-03-20T19:51:44Z</time>
      </trkpt>
      <trkpt lat="57.39904" lon="-6.20061">
        <ele>25.68</ele>
        <time>2021-03-20T19:51:50Z</time>
      </trkpt>
      <trkpt lat="57.39934" lon="-6.20055">
        <ele>27.11</ele>
        <time>2021-03-20T19:51:55Z</time>
      </trkpt>
      <trkpt lat="57.39961" lon="-6.20054">
        <ele>28.87</ele>
        <time>2021-03-20T19:52:01Z</time>
      </trkpt>
      <trkpt lat="57.40055" lon="-6.20077">
        <ele>31.37</ele>
        <time>2021-03-20T19:52:07Z</time>
      </trkpt>
      <trkpt lat="57.40091" lon="-6.20077">
        <ele>27.95</ele>
        <time>2021-03-20T19:52:13Z</time>
      </trkpt>
      <trkpt lat="57.40127" lon="-6.20066">
        <ele>24.32</ele>
        <time>2021-03-20T19:52:18Z</time>
      </trkpt>
      <trkpt lat="57.40224" lon="-6.20043">
        <ele>23.21</ele>
        <time>2021-03-20T19:52:24Z</time>
      </trkpt>
      <trkpt lat="57.40277" lon="-6.20038">
        <ele>24.69</ele>
        <time>2021-03-20T19:52:30Z</time>
      </trkpt>
      <trkpt lat="57.40327" lon="-6.2004">
        <ele>26.22</ele>
        <time>2021-03-20T19:52:36Z</time>
      </trkpt>
      <trkpt lat="57.40483" lon="-6.20064">
        <ele>26.2</ele>
        <time>2021-03-20T19:52:41Z</time>
      </trkpt>
      <trkpt lat="57.40523" lon="-6.20077">
        <ele>28.26</ele>
        <time>2021-03-20T19:52:47Z</time>
      </trkpt>
      <trkpt lat="57.40611" lon="-6.20117">
        <ele>29.16</ele>
        <time>2021-03-20T19:52:53Z</time>
      </trkpt>
      <trkpt lat="57.407" lon="-6.20136">
        <ele>26.52</ele>
        <time>2021-03-20T19:52:59Z</time>
      </trkpt>
      <trkpt lat="57.40775" lon="-6.20162">
        <ele>26.53</ele>
        <time>2021-03-20T19:53:04Z</time>
      </trkpt>
      <trkpt lat="57.40853" lon="-6.20194">
        <ele>25.77</ele>
        <time>2021-03-20T19:53:10Z</time>
      </trkpt>
      <trkpt lat="57.40922" lon="-6.20225">
        <ele>22.13</ele>
        <time>2021-03-20T19:53:16Z</time>
      </trkpt>
      <trkpt lat="57.40945" lon="-6.20229">
        <ele>20.73</ele>
        <time>2021-03-20T19:53:22Z</time>
      </trkpt>
      <trkpt lat="57.40964" lon="-6.20226">
        <ele>20.31</ele>
        <time>2021-03-20T19:53:27Z</time>
      </trkpt>
      <trkpt lat="57.40996" lon="-6.20215">
        <ele>19.74</ele>
        <time>2021-03-20T19:53:33Z</time>
      </trkpt>
      <trkpt lat="57.41196" lon="-6.20105">
        <ele>16.92</ele>
        <time>2021-03-20T19:53:39Z</time>
      </trkpt>
      <trkpt lat="57.41266" lon="-6.20103">
        <ele>14.41</ele>
        <time>2021-03-20T19:53:45Z</time>
      </trkpt>
      <trkpt lat="57.41282" lon="-6.20091">
        <ele>13.66</ele>
        <time>2021-03-20T19:53:50Z</time>
      </trkpt>
      <trkpt lat="57.41293" lon="-6.20077">
        <ele>13.08</ele>
        <time>2021-03-20T19:53:56Z</time>
      </trkpt>
      <trkpt lat="57.41304" lon="-6.20057">
        <ele>12</ele>
        <time>2021-03-20T19:54:02Z</time>
      </trkpt>
      <trkpt lat="57.41313" lon="-6.20034">
        <ele>11.41</ele>
        <time>2021-03-20T19:54:08Z</time>
      </trkpt>
      <trkpt lat="57.41324" lon="-6.19984">
        <ele>10.67</ele>
        <time>2021-03-20T19:54:13Z</time>
      </trkpt>
      <trkpt lat="57.41327" lon="-6.19944">
        <ele>11.57</ele>
        <time>2021-03-20T19:54:19Z</time>
      </trkpt>
      <trkpt lat="57.41328" lon="-6.19923">
        <ele>11.63</ele>
        <time>2021-03-20T19:54:25Z</time>
      </trkpt>
      <trkpt lat="57.41327" lon="-6.19872">
        <ele>12.26</ele>
        <time>2021-03-20T19:54:31Z</time>
      </trkpt>
      <trkpt lat="57.41316" lon="-6.19796">
        <ele>12.81</ele>
        <time>2021-03-20T19:54:36Z</time>
      </trkpt>
      <trkpt lat="57.41308" lon="-6.19762">
        <ele>13.39</ele>
        <time>2021-03-20T19:54:42Z</time>
      </trkpt>
      <trkpt lat="57.41281" lon="-6.19667">
        <ele>13.43</ele>
        <time>2021-03-20T19:54:48Z</time>
      </trkpt>
      <trkpt lat="57.4127" lon="-6.19679">
        <ele>11.38</ele>
        <time>2021-03-20T19:54:52Z</time>
      </trkpt>
      <trkpt lat="57.41258" lon="-6.19683">
        <ele>9.49</ele>
        <time>2021-03-20T19:54:57Z</time>
      </trkpt>
      <trkpt lat="57.41247" lon="-6.19677">
        <ele>8.34</ele>
        <time>2021-03-20T19:55:01Z</time>
      </trkpt>
      <trkpt lat="57.41239" lon="-6.19662">
        <ele>7.86</ele>
        <time>2021-03-20T19:55:05Z</time>
      </trkpt>
      <trkpt lat="57.4122" lon="-6.19533">
        <ele>7.9</ele>
        <time>2021-03-20T19:55:10Z</time>
      </trkpt>
    </trkseg>
  </trk>
  <trk>
    <name><![CDATA[J05 - Portree - Stornoway]]></name>
    <trkseg>
      <trkpt lat="57.41219" lon="-6.19529">
        <ele>7.9</ele>
        <time>2021-03-20T14:18:58Z</time>
      </trkpt>
      <trkpt lat="57.41206" lon="-6.19457">
        <ele>10.38</ele>
        <time>2021-03-20T14:19:02Z</time>
      </trkpt>
      <trkpt lat="57.412" lon="-6.1944">
        <ele>10.87</ele>
        <time>2021-03-20T14:19:06Z</time>
      </trkpt>
      <trkpt lat="57.41186" lon="-6.19432">
        <ele>10.25</ele>
        <time>2021-03-20T14:19:09Z</time>
      </trkpt>
      <trkpt lat="57.41177" lon="-6.19432">
        <ele>9.66</ele>
        <time>2021-03-20T14:19:13Z</time>
      </trkpt>
      <trkpt lat="57.41153" lon="-6.19441">
        <ele>8.26</ele>
        <time>2021-03-20T14:19:17Z</time>
      </trkpt>
      <trkpt lat="57.41151" lon="-6.19412">
        <ele>10.35</ele>
        <time>2021-03-20T14:19:21Z</time>
      </trkpt>
      <trkpt lat="57.41156" lon="-6.19398">
        <ele>11.38</ele>
        <time>2021-03-20T14:19:26Z</time>
      </trkpt>
      <trkpt lat="57.41199" lon="-6.19373">
        <ele>14.8</ele>
        <time>2021-03-20T14:19:30Z</time>
      </trkpt>
      <trkpt lat="57.41227" lon="-6.19361">
        <ele>16.18</ele>
        <time>2021-03-20T14:19:35Z</time>
      </trkpt>
      <trkpt lat="57.41213" lon="-6.19279">
        <ele>16.02</ele>
        <time>2021-03-20T14:19:40Z</time>
      </trkpt>
      <trkpt lat="57.41214" lon="-6.19262">
        <ele>15.42</ele>
        <time>2021-03-20T14:19:45Z</time>
      </trkpt>
      <trkpt lat="57.41216" lon="-6.19257">
        <ele>15.27</ele>
        <time>2021-03-20T14:19:51Z</time>
      </trkpt>
      <trkpt lat="57.41264" lon="-6.19232">
        <ele>17.89</ele>
        <time>2021-03-20T14:19:56Z</time>
      </trkpt>
      <trkpt lat="57.41296" lon="-6.1921">
        <ele>20.92</ele>
        <time>2021-03-20T14:20:01Z</time>
      </trkpt>
      <trkpt lat="57.41296" lon="-6.19201">
        <ele>21</ele>
        <time>2021-03-20T14:20:05Z</time>
      </trkpt>
      <trkpt lat="57.41293" lon="-6.19166">
        <ele>20.17</ele>
        <time>2021-03-20T14:20:10Z</time>
      </trkpt>
      <trkpt lat="57.41292" lon="-6.19131">
        <ele>19.95</ele>
        <time>2021-03-20T14:20:14Z</time>
      </trkpt>
      <trkpt lat="57.41312" lon="-6.18996">
        <ele>16.7</ele>
        <time>2021-03-20T14:20:18Z</time>
      </trkpt>
      <trkpt lat="57.41315" lon="-6.18987">
        <ele>16.71</ele>
        <time>2021-03-20T14:20:23Z</time>
      </trkpt>
      <trkpt lat="57.41322" lon="-6.18978">
        <ele>17.09</ele>
        <time>2021-03-20T14:20:27Z</time>
      </trkpt>
      <trkpt lat="57.4138" lon="-6.18948">
        <ele>21.06</ele>
        <time>2021-03-20T14:20:31Z</time>
      </trkpt>
      <trkpt lat="57.41394" lon="-6.18943">
        <ele>20.95</ele>
        <time>2021-03-20T14:20:35Z</time>
      </trkpt>
      <trkpt lat="57.41421" lon="-6.18946">
        <ele>22.03</ele>
        <time>2021-03-20T14:20:40Z</time>
      </trkpt>
      <trkpt lat="57.4145" lon="-6.18964">
        <ele>23.77</ele>
        <time>2021-03-20T14:20:44Z</time>
      </trkpt>
      <trkpt lat="57.41511" lon="-6.19026">
        <ele>28.95</ele>
        <time>2021-03-20T14:20:48Z</time>
      </trkpt>
      <trkpt lat="57.41587" lon="-6.19098">
        <ele>29.78</ele>
        <time>2021-03-20T14:20:52Z</time>
      </trkpt>
      <trkpt lat="57.41604" lon="-6.19112">
        <ele>28.89</ele>
        <time>2021-03-20T14:20:57Z</time>
      </trkpt>
      <trkpt lat="57.41646" lon="-6.19136">
        <ele>31.58</ele>
        <time>2021-03-20T14:21:01Z</time>
      </trkpt>
      <trkpt lat="57.41668" lon="-6.19143">
        <ele>32.53</ele>
        <time>2021-03-20T14:21:05Z</time>
      </trkpt>
      <trkpt lat="57.41702" lon="-6.19148">
        <ele>35.14</ele>
        <time>2021-03-20T14:21:09Z</time>
      </trkpt>
      <trkpt lat="57.41754" lon="-6.19147">
        <ele>36.48</ele>
        <time>2021-03-20T14:21:14Z</time>
      </trkpt>
      <trkpt lat="57.41771" lon="-6.1916">
        <ele>36.78</ele>
        <time>2021-03-20T14:21:18Z</time>
      </trkpt>
      <trkpt lat="57.41816" lon="-6.19218">
        <ele>36.97</ele>
        <time>2021-03-20T14:21:22Z</time>
      </trkpt>
      <trkpt lat="57.4184" lon="-6.19241">
        <ele>37.4</ele>
        <time>2021-03-20T14:21:26Z</time>
      </trkpt>
      <trkpt lat="57.41875" lon="-6.19265">
        <ele>38.76</ele>
        <time>2021-03-20T14:21:31Z</time>
      </trkpt>
      <trkpt lat="57.41933" lon="-6.19297">
        <ele>40.26</ele>
        <time>2021-03-20T14:21:35Z</time>
      </trkpt>
      <trkpt lat="57.4196" lon="-6.19301">
        <ele>41.37</ele>
        <time>2021-03-20T14:21:39Z</time>
      </trkpt>
      <trkpt lat="57.41977" lon="-6.19297">
        <ele>42.04</ele>
        <time>2021-03-20T14:21:43Z</time>
      </trkpt>
      <trkpt lat="57.41994" lon="-6.19289">
        <ele>42.94</ele>
        <time>2021-03-20T14:21:48Z</time>
      </trkpt>
      <trkpt lat="57.42002" lon="-6.19277">
        <ele>43.11</ele>
        <time>2021-03-20T14:21:52Z</time>
      </trkpt>
      <trkpt lat="57.42035" lon="-6.19192">
        <ele>45.41</ele>
        <time>2021-03-20T14:21:56Z</time>
      </trkpt>
      <trkpt lat="57.42057" lon="-6.1915">
        <ele>45.52</ele>
        <time>2021-03-20T14:22:00Z</time>
      </trkpt>
      <trkpt lat="57.42173" lon="-6.18974">
        <ele>53.5</ele>
        <time>2021-03-20T14:22:05Z</time>
      </trkpt>
      <trkpt lat="57.42228" lon="-6.18932">
        <ele>56.07</ele>
        <time>2021-03-20T14:22:09Z</time>
      </trkpt>
      <trkpt lat="57.42242" lon="-6.18929">
        <ele>57.27</ele>
        <time>2021-03-20T14:22:13Z</time>
      </trkpt>
      <trkpt lat="57.42325" lon="-6.1893">
        <ele>61.17</ele>
        <time>2021-03-20T14:22:17Z</time>
      </trkpt>
      <trkpt lat="57.42351" lon="-6.18913">
        <ele>62.75</ele>
        <time>2021-03-20T14:22:22Z</time>
      </trkpt>
      <trkpt lat="57.42366" lon="-6.18885">
        <ele>63.85</ele>
        <time>2021-03-20T14:22:26Z</time>
      </trkpt>
      <trkpt lat="57.42373" lon="-6.18852">
        <ele>65</ele>
        <time>2021-03-20T14:22:30Z</time>
      </trkpt>
      <trkpt lat="57.42387" lon="-6.18803">
        <ele>66.7</ele>
        <time>2021-03-20T14:22:34Z</time>
      </trkpt>
      <trkpt lat="57.42405" lon="-6.18785">
        <ele>68.66</ele>
        <time>2021-03-20T14:22:39Z</time>
      </trkpt>
      <trkpt lat="57.42432" lon="-6.18766">
        <ele>70.98</ele>
        <time>2021-03-20T14:22:43Z</time>
      </trkpt>
      <trkpt lat="57.42568" lon="-6.18723">
        <ele>73.42</ele>
        <time>2021-03-20T14:22:47Z</time>
      </trkpt>
      <trkpt lat="57.42662" lon="-6.18689">
        <ele>76.81</ele>
        <time>2021-03-20T14:22:51Z</time>
      </trkpt>
      <trkpt lat="57.42711" lon="-6.18673">
        <ele>79.43</ele>
        <time>2021-03-20T14:22:56Z</time>
      </trkpt>
      <trkpt lat="57.42794" lon="-6.18679">
        <ele>82.18</ele>
        <time>2021-03-20T14:23:00Z</time>
      </trkpt>
      <trkpt lat="57.42813" lon="-6.18677">
        <ele>83.66</ele>
        <time>2021-03-20T14:23:04Z</time>
      </trkpt>
      <trkpt lat="57.42859" lon="-6.18657">
        <ele>86.82</ele>
        <time>2021-03-20T14:23:08Z</time>
      </trkpt>
      <trkpt lat="57.42906" lon="-6.18621">
        <ele>87.81</ele>
        <time>2021-03-20T14:23:13Z</time>
      </trkpt>
      <trkpt lat="57.42918" lon="-6.18601">
        <ele>88.12</ele>
        <time>2021-03-20T14:23:17Z</time>
      </trkpt>
      <trkpt lat="57.4293" lon="-6.1857">
        <ele>89.19</ele>
        <time>2021-03-20T14:23:21Z</time>
      </trkpt>
      <trkpt lat="57.42943" lon="-6.18518">
        <ele>89.93</ele>
        <time>2021-03-20T14:23:25Z</time>
      </trkpt>
      <trkpt lat="57.42949" lon="-6.18424">
        <ele>90.36</ele>
        <time>2021-03-20T14:23:30Z</time>
      </trkpt>
      <trkpt lat="57.42955" lon="-6.18381">
        <ele>91.13</ele>
        <time>2021-03-20T14:23:34Z</time>
      </trkpt>
      <trkpt lat="57.42967" lon="-6.18331">
        <ele>92.61</ele>
        <time>2021-03-20T14:23:38Z</time>
      </trkpt>
      <trkpt lat="57.42977" lon="-6.18301">
        <ele>93.35</ele>
        <time>2021-03-20T14:23:42Z</time>
      </trkpt>
      <trkpt lat="57.42986" lon="-6.18287">
        <ele>94.18</ele>
        <time>2021-03-20T14:23:47Z</time>
      </trkpt>
      <trkpt lat="57.43006" lon="-6.18271">
        <ele>95.71</ele>
        <time>2021-03-20T14:23:51Z</time>
      </trkpt>
      <trkpt lat="57.43034" lon="-6.18253">
        <ele>97.75</ele>
        <time>2021-03-20T14:23:55Z</time>
      </trkpt>
      <trkpt lat="57.43136" lon="-6.18207">
        <ele>102.07</ele>
        <time>2021-03-20T14:23:59Z</time>
      </trkpt>
      <trkpt lat="57.43172" lon="-6.18197">
        <ele>102.85</ele>
        <time>2021-03-20T14:24:04Z</time>
      </trkpt>
      <trkpt lat="57.43281" lon="-6.18183">
        <ele>104</ele>
        <time>2021-03-20T14:24:08Z</time>
      </trkpt>
      <trkpt lat="57.43741" lon="-6.18262">
        <ele>112.7</ele>
        <time>2021-03-20T14:24:12Z</time>
      </trkpt>
      <trkpt lat="57.43776" lon="-6.18261">
        <ele>112.82</ele>
        <time>2021-03-20T14:24:16Z</time>
      </trkpt>
      <trkpt lat="57.43796" lon="-6.18249">
        <ele>114.12</ele>
        <time>2021-03-20T14:24:21Z</time>
      </trkpt>
      <trkpt lat="57.43829" lon="-6.18219">
        <ele>114.53</ele>
        <time>2021-03-20T14:24:25Z</time>
      </trkpt>
      <trkpt lat="57.43879" lon="-6.18192">
        <ele>117.83</ele>
        <time>2021-03-20T14:24:29Z</time>
      </trkpt>
      <trkpt lat="57.43892" lon="-6.18186">
        <ele>118.9</ele>
        <time>2021-03-20T14:24:33Z</time>
      </trkpt>
      <trkpt lat="57.43906" lon="-6.18185">
        <ele>120.58</ele>
        <time>2021-03-20T14:24:38Z</time>
      </trkpt>
      <trkpt lat="57.43947" lon="-6.18197">
        <ele>123.22</ele>
        <time>2021-03-20T14:24:42Z</time>
      </trkpt>
      <trkpt lat="57.43967" lon="-6.18206">
        <ele>125.07</ele>
        <time>2021-03-20T14:24:46Z</time>
      </trkpt>
      <trkpt lat="57.44003" lon="-6.18232">
        <ele>127.15</ele>
        <time>2021-03-20T14:24:50Z</time>
      </trkpt>
      <trkpt lat="57.44018" lon="-6.18241">
        <ele>127.34</ele>
        <time>2021-03-20T14:24:55Z</time>
      </trkpt>
      <trkpt lat="57.44048" lon="-6.18245">
        <ele>127.37</ele>
        <time>2021-03-20T14:24:59Z</time>
      </trkpt>
      <trkpt lat="57.44105" lon="-6.18245">
        <ele>128.51</ele>
        <time>2021-03-20T14:25:03Z</time>
      </trkpt>
      <trkpt lat="57.44167" lon="-6.18228">
        <ele>132.33</ele>
        <time>2021-03-20T14:25:07Z</time>
      </trkpt>
      <trkpt lat="57.44342" lon="-6.18174">
        <ele>137.51</ele>
        <time>2021-03-20T14:25:12Z</time>
      </trkpt>
      <trkpt lat="57.44383" lon="-6.18151">
        <ele>138.57</ele>
        <time>2021-03-20T14:25:16Z</time>
      </trkpt>
      <trkpt lat="57.44469" lon="-6.18111">
        <ele>139</ele>
        <time>2021-03-20T14:25:20Z</time>
      </trkpt>
      <trkpt lat="57.44512" lon="-6.18071">
        <ele>139.68</ele>
        <time>2021-03-20T14:25:24Z</time>
      </trkpt>
      <trkpt lat="57.44598" lon="-6.17985">
        <ele>139.78</ele>
        <time>2021-03-20T14:25:29Z</time>
      </trkpt>
      <trkpt lat="57.44609" lon="-6.17978">
        <ele>140.65</ele>
        <time>2021-03-20T14:25:33Z</time>
      </trkpt>
      <trkpt lat="57.44624" lon="-6.17975">
        <ele>141.83</ele>
        <time>2021-03-20T14:25:37Z</time>
      </trkpt>
      <trkpt lat="57.44703" lon="-6.17985">
        <ele>146.13</ele>
        <time>2021-03-20T14:25:41Z</time>
      </trkpt>
      <trkpt lat="57.44744" lon="-6.17988">
        <ele>148.98</ele>
        <time>2021-03-20T14:25:46Z</time>
      </trkpt>
      <trkpt lat="57.4479" lon="-6.17983">
        <ele>152.67</ele>
        <time>2021-03-20T14:25:50Z</time>
      </trkpt>
      <trkpt lat="57.44868" lon="-6.17962">
        <ele>156.63</ele>
        <time>2021-03-20T14:25:54Z</time>
      </trkpt>
      <trkpt lat="57.44899" lon="-6.1796">
        <ele>157.13</ele>
        <time>2021-03-20T14:25:58Z</time>
      </trkpt>
      <trkpt lat="57.4494" lon="-6.17967">
        <ele>158.63</ele>
        <time>2021-03-20T14:26:03Z</time>
      </trkpt>
      <trkpt lat="57.44988" lon="-6.17983">
        <ele>158.01</ele>
        <time>2021-03-20T14:26:07Z</time>
      </trkpt>
      <trkpt lat="57.45082" lon="-6.1805">
        <ele>157.94</ele>
        <time>2021-03-20T14:26:11Z</time>
      </trkpt>
      <trkpt lat="57.45313" lon="-6.18146">
        <ele>165.25</ele>
        <time>2021-03-20T14:26:16Z</time>
      </trkpt>
      <trkpt lat="57.45313" lon="-6.18146">
        <ele>165.25</ele>
        <time>2021-03-20T14:26:16Z</time>
      </trkpt>
      <trkpt lat="57.45338" lon="-6.18156">
        <ele>167.67</ele>
        <time>2021-03-20T14:26:19Z</time>
      </trkpt>
      <trkpt lat="57.45426" lon="-6.18177">
        <ele>169.48</ele>
        <time>2021-03-20T14:26:23Z</time>
      </trkpt>
      <trkpt lat="57.456" lon="-6.18225">
        <ele>164.62</ele>
        <time>2021-03-20T14:26:27Z</time>
      </trkpt>
      <trkpt lat="57.4575" lon="-6.18277">
        <ele>160.94</ele>
        <time>2021-03-20T14:26:30Z</time>
      </trkpt>
      <trkpt lat="57.45771" lon="-6.18289">
        <ele>160.04</ele>
        <time>2021-03-20T14:26:34Z</time>
      </trkpt>
      <trkpt lat="57.45858" lon="-6.18387">
        <ele>153.54</ele>
        <time>2021-03-20T14:26:38Z</time>
      </trkpt>
      <trkpt lat="57.45878" lon="-6.184">
        <ele>152.64</ele>
        <time>2021-03-20T14:26:41Z</time>
      </trkpt>
      <trkpt lat="57.46039" lon="-6.18436">
        <ele>148.59</ele>
        <time>2021-03-20T14:26:45Z</time>
      </trkpt>
      <trkpt lat="57.46066" lon="-6.18436">
        <ele>147.28</ele>
        <time>2021-03-20T14:26:49Z</time>
      </trkpt>
      <trkpt lat="57.46084" lon="-6.18443">
        <ele>147.8</ele>
        <time>2021-03-20T14:26:52Z</time>
      </trkpt>
      <trkpt lat="57.46136" lon="-6.18448">
        <ele>146.34</ele>
        <time>2021-03-20T14:26:56Z</time>
      </trkpt>
      <trkpt lat="57.46148" lon="-6.18447">
        <ele>144.97</ele>
        <time>2021-03-20T14:27:00Z</time>
      </trkpt>
      <trkpt lat="57.4617" lon="-6.18452">
        <ele>144.79</ele>
        <time>2021-03-20T14:27:03Z</time>
      </trkpt>
      <trkpt lat="57.4621" lon="-6.18468">
        <ele>148.17</ele>
        <time>2021-03-20T14:27:07Z</time>
      </trkpt>
      <trkpt lat="57.46238" lon="-6.18471">
        <ele>148.8</ele>
        <time>2021-03-20T14:27:11Z</time>
      </trkpt>
      <trkpt lat="57.463" lon="-6.18469">
        <ele>147.59</ele>
        <time>2021-03-20T14:27:14Z</time>
      </trkpt>
      <trkpt lat="57.46346" lon="-6.18472">
        <ele>147.47</ele>
        <time>2021-03-20T14:27:18Z</time>
      </trkpt>
      <trkpt lat="57.46419" lon="-6.18458">
        <ele>145.4</ele>
        <time>2021-03-20T14:27:22Z</time>
      </trkpt>
      <trkpt lat="57.46445" lon="-6.18462">
        <ele>144.88</ele>
        <time>2021-03-20T14:27:25Z</time>
      </trkpt>
      <trkpt lat="57.4649" lon="-6.18473">
        <ele>144.44</ele>
        <time>2021-03-20T14:27:29Z</time>
      </trkpt>
      <trkpt lat="57.4658" lon="-6.1851">
        <ele>146.14</ele>
        <time>2021-03-20T14:27:33Z</time>
      </trkpt>
      <trkpt lat="57.46605" lon="-6.18509">
        <ele>146.01</ele>
        <time>2021-03-20T14:27:36Z</time>
      </trkpt>
      <trkpt lat="57.46644" lon="-6.18501">
        <ele>145.81</ele>
        <time>2021-03-20T14:27:40Z</time>
      </trkpt>
      <trkpt lat="57.46701" lon="-6.18471">
        <ele>148.02</ele>
        <time>2021-03-20T14:27:44Z</time>
      </trkpt>
      <trkpt lat="57.46759" lon="-6.18458">
        <ele>152.63</ele>
        <time>2021-03-20T14:27:47Z</time>
      </trkpt>
      <trkpt lat="57.46793" lon="-6.18434">
        <ele>150.98</ele>
        <time>2021-03-20T14:27:51Z</time>
      </trkpt>
      <trkpt lat="57.46828" lon="-6.18419">
        <ele>148.56</ele>
        <time>2021-03-20T14:27:55Z</time>
      </trkpt>
      <trkpt lat="57.4689" lon="-6.18387">
        <ele>150.73</ele>
        <time>2021-03-20T14:27:58Z</time>
      </trkpt>
      <trkpt lat="57.46923" lon="-6.18373">
        <ele>151.05</ele>
        <time>2021-03-20T14:28:02Z</time>
      </trkpt>
      <trkpt lat="57.46958" lon="-6.18362">
        <ele>153.66</ele>
        <time>2021-03-20T14:28:06Z</time>
      </trkpt>
      <trkpt lat="57.47051" lon="-6.18321">
        <ele>151.42</ele>
        <time>2021-03-20T14:28:09Z</time>
      </trkpt>
      <trkpt lat="57.47192" lon="-6.18255">
        <ele>146.63</ele>
        <time>2021-03-20T14:28:13Z</time>
      </trkpt>
      <trkpt lat="57.47261" lon="-6.18219">
        <ele>144.27</ele>
        <time>2021-03-20T14:28:17Z</time>
      </trkpt>
      <trkpt lat="57.47346" lon="-6.18191">
        <ele>142.77</ele>
        <time>2021-03-20T14:28:20Z</time>
      </trkpt>
      <trkpt lat="57.47369" lon="-6.18181">
        <ele>142.4</ele>
        <time>2021-03-20T14:28:24Z</time>
      </trkpt>
      <trkpt lat="57.4742" lon="-6.18144">
        <ele>142.29</ele>
        <time>2021-03-20T14:28:28Z</time>
      </trkpt>
      <trkpt lat="57.47544" lon="-6.18079">
        <ele>146.44</ele>
        <time>2021-03-20T14:28:31Z</time>
      </trkpt>
      <trkpt lat="57.4759" lon="-6.18046">
        <ele>149.48</ele>
        <time>2021-03-20T14:28:35Z</time>
      </trkpt>
      <trkpt lat="57.47626" lon="-6.18014">
        <ele>152.16</ele>
        <time>2021-03-20T14:28:39Z</time>
      </trkpt>
      <trkpt lat="57.47668" lon="-6.17982">
        <ele>154.78</ele>
        <time>2021-03-20T14:28:42Z</time>
      </trkpt>
      <trkpt lat="57.47696" lon="-6.17975">
        <ele>155.22</ele>
        <time>2021-03-20T14:28:46Z</time>
      </trkpt>
      <trkpt lat="57.47722" lon="-6.17975">
        <ele>156.18</ele>
        <time>2021-03-20T14:28:50Z</time>
      </trkpt>
      <trkpt lat="57.47795" lon="-6.18003">
        <ele>155.57</ele>
        <time>2021-03-20T14:28:53Z</time>
      </trkpt>
      <trkpt lat="57.47882" lon="-6.18025">
        <ele>153.09</ele>
        <time>2021-03-20T14:28:57Z</time>
      </trkpt>
      <trkpt lat="57.47907" lon="-6.1803">
        <ele>151.78</ele>
        <time>2021-03-20T14:29:01Z</time>
      </trkpt>
      <trkpt lat="57.47928" lon="-6.18028">
        <ele>150.61</ele>
        <time>2021-03-20T14:29:04Z</time>
      </trkpt>
      <trkpt lat="57.47942" lon="-6.18023">
        <ele>149.92</ele>
        <time>2021-03-20T14:29:08Z</time>
      </trkpt>
      <trkpt lat="57.47972" lon="-6.18009">
        <ele>149.63</ele>
        <time>2021-03-20T14:29:12Z</time>
      </trkpt>
      <trkpt lat="57.48001" lon="-6.17981">
        <ele>150.35</ele>
        <time>2021-03-20T14:29:15Z</time>
      </trkpt>
      <trkpt lat="57.48036" lon="-6.1793">
        <ele>151.4</ele>
        <time>2021-03-20T14:29:19Z</time>
      </trkpt>
      <trkpt lat="57.48115" lon="-6.17835">
        <ele>151.27</ele>
        <time>2021-03-20T14:29:23Z</time>
      </trkpt>
      <trkpt lat="57.48198" lon="-6.17743">
        <ele>151.76</ele>
        <time>2021-03-20T14:29:26Z</time>
      </trkpt>
      <trkpt lat="57.48313" lon="-6.17637">
        <ele>151.05</ele>
        <time>2021-03-20T14:29:30Z</time>
      </trkpt>
      <trkpt lat="57.48394" lon="-6.17574">
        <ele>149.34</ele>
        <time>2021-03-20T14:29:34Z</time>
      </trkpt>
      <trkpt lat="57.4851" lon="-6.17497">
        <ele>152.49</ele>
        <time>2021-03-20T14:29:37Z</time>
      </trkpt>
      <trkpt lat="57.48733" lon="-6.17382">
        <ele>155.51</ele>
        <time>2021-03-20T14:29:41Z</time>
      </trkpt>
      <trkpt lat="57.48768" lon="-6.17359">
        <ele>156.06</ele>
        <time>2021-03-20T14:29:45Z</time>
      </trkpt>
      <trkpt lat="57.48876" lon="-6.17275">
        <ele>153.37</ele>
        <time>2021-03-20T14:29:48Z</time>
      </trkpt>
      <trkpt lat="57.48918" lon="-6.17248">
        <ele>152.92</ele>
        <time>2021-03-20T14:29:52Z</time>
      </trkpt>
      <trkpt lat="57.4896" lon="-6.17228">
        <ele>152.99</ele>
        <time>2021-03-20T14:29:56Z</time>
      </trkpt>
      <trkpt lat="57.49027" lon="-6.17201">
        <ele>151.75</ele>
        <time>2021-03-20T14:29:59Z</time>
      </trkpt>
      <trkpt lat="57.49108" lon="-6.17171">
        <ele>145.43</ele>
        <time>2021-03-20T14:30:03Z</time>
      </trkpt>
      <trkpt lat="57.49168" lon="-6.17138">
        <ele>143.07</ele>
        <time>2021-03-20T14:30:07Z</time>
      </trkpt>
      <trkpt lat="57.49206" lon="-6.17105">
        <ele>144.82</ele>
        <time>2021-03-20T14:30:11Z</time>
      </trkpt>
      <trkpt lat="57.49268" lon="-6.17039">
        <ele>148.67</ele>
        <time>2021-03-20T14:30:14Z</time>
      </trkpt>
      <trkpt lat="57.49325" lon="-6.16981">
        <ele>149.01</ele>
        <time>2021-03-20T14:30:18Z</time>
      </trkpt>
      <trkpt lat="57.49364" lon="-6.16933">
        <ele>149.97</ele>
        <time>2021-03-20T14:30:22Z</time>
      </trkpt>
      <trkpt lat="57.49382" lon="-6.16901">
        <ele>151.45</ele>
        <time>2021-03-20T14:30:25Z</time>
      </trkpt>
      <trkpt lat="57.49395" lon="-6.16863">
        <ele>153.07</ele>
        <time>2021-03-20T14:30:29Z</time>
      </trkpt>
      <trkpt lat="57.49404" lon="-6.16813">
        <ele>154.36</ele>
        <time>2021-03-20T14:30:33Z</time>
      </trkpt>
      <trkpt lat="57.49408" lon="-6.16763">
        <ele>153.95</ele>
        <time>2021-03-20T14:30:36Z</time>
      </trkpt>
      <trkpt lat="57.49407" lon="-6.16703">
        <ele>152.13</ele>
        <time>2021-03-20T14:30:40Z</time>
      </trkpt>
      <trkpt lat="57.49408" lon="-6.16637">
        <ele>151.13</ele>
        <time>2021-03-20T14:30:44Z</time>
      </trkpt>
      <trkpt lat="57.49418" lon="-6.16564">
        <ele>152.27</ele>
        <time>2021-03-20T14:30:47Z</time>
      </trkpt>
      <trkpt lat="57.49429" lon="-6.16515">
        <ele>154.11</ele>
        <time>2021-03-20T14:30:51Z</time>
      </trkpt>
      <trkpt lat="57.4953" lon="-6.16194">
        <ele>159.38</ele>
        <time>2021-03-20T14:30:55Z</time>
      </trkpt>
      <trkpt lat="57.49559" lon="-6.16127">
        <ele>159.42</ele>
        <time>2021-03-20T14:30:58Z</time>
      </trkpt>
      <trkpt lat="57.49631" lon="-6.16033">
        <ele>166.2</ele>
        <time>2021-03-20T14:31:02Z</time>
      </trkpt>
      <trkpt lat="57.49819" lon="-6.15831">
        <ele>169.76</ele>
        <time>2021-03-20T14:31:06Z</time>
      </trkpt>
      <trkpt lat="57.49856" lon="-6.15797">
        <ele>169.73</ele>
        <time>2021-03-20T14:31:09Z</time>
      </trkpt>
      <trkpt lat="57.49939" lon="-6.15731">
        <ele>171.81</ele>
        <time>2021-03-20T14:31:13Z</time>
      </trkpt>
      <trkpt lat="57.5002" lon="-6.15658">
        <ele>175.5</ele>
        <time>2021-03-20T14:31:17Z</time>
      </trkpt>
      <trkpt lat="57.50106" lon="-6.15565">
        <ele>177.14</ele>
        <time>2021-03-20T14:31:20Z</time>
      </trkpt>
      <trkpt lat="57.50279" lon="-6.1536">
        <ele>180.11</ele>
        <time>2021-03-20T14:31:24Z</time>
      </trkpt>
      <trkpt lat="57.50322" lon="-6.15325">
        <ele>181.67</ele>
        <time>2021-03-20T14:31:28Z</time>
      </trkpt>
      <trkpt lat="57.50398" lon="-6.15278">
        <ele>179.02</ele>
        <time>2021-03-20T14:31:31Z</time>
      </trkpt>
      <trkpt lat="57.50711" lon="-6.15145">
        <ele>183.59</ele>
        <time>2021-03-20T14:31:35Z</time>
      </trkpt>
      <trkpt lat="57.50788" lon="-6.15125">
        <ele>184.85</ele>
        <time>2021-03-20T14:31:39Z</time>
      </trkpt>
      <trkpt lat="57.50868" lon="-6.15111">
        <ele>186.24</ele>
        <time>2021-03-20T14:31:42Z</time>
      </trkpt>
      <trkpt lat="57.50923" lon="-6.15111">
        <ele>186</ele>
        <time>2021-03-20T14:31:46Z</time>
      </trkpt>
      <trkpt lat="57.51075" lon="-6.15118">
        <ele>185.45</ele>
        <time>2021-03-20T14:31:50Z</time>
      </trkpt>
      <trkpt lat="57.5123" lon="-6.15132">
        <ele>191.17</ele>
        <time>2021-03-20T14:31:53Z</time>
      </trkpt>
      <trkpt lat="57.51261" lon="-6.15139">
        <ele>191</ele>
        <time>2021-03-20T14:31:57Z</time>
      </trkpt>
      <trkpt lat="57.5129" lon="-6.15159">
        <ele>191</ele>
        <time>2021-03-20T14:32:01Z</time>
      </trkpt>
      <trkpt lat="57.51348" lon="-6.1522">
        <ele>190.4</ele>
        <time>2021-03-20T14:32:04Z</time>
      </trkpt>
      <trkpt lat="57.51386" lon="-6.15248">
        <ele>190.09</ele>
        <time>2021-03-20T14:32:08Z</time>
      </trkpt>
      <trkpt lat="57.51404" lon="-6.15256">
        <ele>190.3</ele>
        <time>2021-03-20T14:32:12Z</time>
      </trkpt>
      <trkpt lat="57.51435" lon="-6.15258">
        <ele>189.78</ele>
        <time>2021-03-20T14:32:15Z</time>
      </trkpt>
      <trkpt lat="57.5148" lon="-6.15244">
        <ele>189.84</ele>
        <time>2021-03-20T14:32:19Z</time>
      </trkpt>
      <trkpt lat="57.51525" lon="-6.15219">
        <ele>189.77</ele>
        <time>2021-03-20T14:32:23Z</time>
      </trkpt>
      <trkpt lat="57.51557" lon="-6.15206">
        <ele>189.76</ele>
        <time>2021-03-20T14:32:26Z</time>
      </trkpt>
      <trkpt lat="57.51599" lon="-6.152">
        <ele>187.05</ele>
        <time>2021-03-20T14:32:30Z</time>
      </trkpt>
      <trkpt lat="57.51635" lon="-6.15208">
        <ele>184.72</ele>
        <time>2021-03-20T14:32:34Z</time>
      </trkpt>
      <trkpt lat="57.5168" lon="-6.15239">
        <ele>183.62</ele>
        <time>2021-03-20T14:32:37Z</time>
      </trkpt>
      <trkpt lat="57.51742" lon="-6.15288">
        <ele>184.34</ele>
        <time>2021-03-20T14:32:41Z</time>
      </trkpt>
      <trkpt lat="57.51784" lon="-6.15311">
        <ele>183.94</ele>
        <time>2021-03-20T14:32:45Z</time>
      </trkpt>
      <trkpt lat="57.51824" lon="-6.15322">
        <ele>182.91</ele>
        <time>2021-03-20T14:32:48Z</time>
      </trkpt>
      <trkpt lat="57.51906" lon="-6.15335">
        <ele>181.85</ele>
        <time>2021-03-20T14:32:52Z</time>
      </trkpt>
      <trkpt lat="57.52031" lon="-6.15349">
        <ele>176.32</ele>
        <time>2021-03-20T14:32:56Z</time>
      </trkpt>
      <trkpt lat="57.52117" lon="-6.15365">
        <ele>168.69</ele>
        <time>2021-03-20T14:32:59Z</time>
      </trkpt>
      <trkpt lat="57.52117" lon="-6.15365">
        <ele>168.69</ele>
        <time>2021-03-20T14:32:59Z</time>
      </trkpt>
      <trkpt lat="57.52409" lon="-6.15424">
        <ele>150.88</ele>
        <time>2021-03-20T14:33:03Z</time>
      </trkpt>
      <trkpt lat="57.52501" lon="-6.1545">
        <ele>140.49</ele>
        <time>2021-03-20T14:33:07Z</time>
      </trkpt>
      <trkpt lat="57.52538" lon="-6.15474">
        <ele>137.96</ele>
        <time>2021-03-20T14:33:11Z</time>
      </trkpt>
      <trkpt lat="57.52627" lon="-6.15572">
        <ele>128.14</ele>
        <time>2021-03-20T14:33:14Z</time>
      </trkpt>
      <trkpt lat="57.52717" lon="-6.15644">
        <ele>120.39</ele>
        <time>2021-03-20T14:33:18Z</time>
      </trkpt>
      <trkpt lat="57.52753" lon="-6.15664">
        <ele>122.82</ele>
        <time>2021-03-20T14:33:22Z</time>
      </trkpt>
      <trkpt lat="57.5278" lon="-6.15667">
        <ele>123.35</ele>
        <time>2021-03-20T14:33:26Z</time>
      </trkpt>
      <trkpt lat="57.52804" lon="-6.15656">
        <ele>125.55</ele>
        <time>2021-03-20T14:33:29Z</time>
      </trkpt>
      <trkpt lat="57.5283" lon="-6.15629">
        <ele>127.27</ele>
        <time>2021-03-20T14:33:33Z</time>
      </trkpt>
      <trkpt lat="57.52929" lon="-6.15481">
        <ele>129.67</ele>
        <time>2021-03-20T14:33:37Z</time>
      </trkpt>
      <trkpt lat="57.52972" lon="-6.15404">
        <ele>132.36</ele>
        <time>2021-03-20T14:33:41Z</time>
      </trkpt>
      <trkpt lat="57.53016" lon="-6.15307">
        <ele>128.67</ele>
        <time>2021-03-20T14:33:44Z</time>
      </trkpt>
      <trkpt lat="57.53124" lon="-6.15019">
        <ele>113.57</ele>
        <time>2021-03-20T14:33:48Z</time>
      </trkpt>
      <trkpt lat="57.53149" lon="-6.14965">
        <ele>110.61</ele>
        <time>2021-03-20T14:33:52Z</time>
      </trkpt>
      <trkpt lat="57.53182" lon="-6.14915">
        <ele>108.88</ele>
        <time>2021-03-20T14:33:56Z</time>
      </trkpt>
      <trkpt lat="57.53242" lon="-6.14859">
        <ele>107.71</ele>
        <time>2021-03-20T14:33:59Z</time>
      </trkpt>
      <trkpt lat="57.53311" lon="-6.14813">
        <ele>107.24</ele>
        <time>2021-03-20T14:34:03Z</time>
      </trkpt>
      <trkpt lat="57.53352" lon="-6.14795">
        <ele>106.78</ele>
        <time>2021-03-20T14:34:07Z</time>
      </trkpt>
      <trkpt lat="57.53377" lon="-6.14793">
        <ele>107.45</ele>
        <time>2021-03-20T14:34:10Z</time>
      </trkpt>
      <trkpt lat="57.53402" lon="-6.14795">
        <ele>107.88</ele>
        <time>2021-03-20T14:34:14Z</time>
      </trkpt>
      <trkpt lat="57.53435" lon="-6.14807">
        <ele>108.5</ele>
        <time>2021-03-20T14:34:18Z</time>
      </trkpt>
      <trkpt lat="57.53538" lon="-6.14873">
        <ele>107.95</ele>
        <time>2021-03-20T14:34:22Z</time>
      </trkpt>
      <trkpt lat="57.53566" lon="-6.14883">
        <ele>106.55</ele>
        <time>2021-03-20T14:34:25Z</time>
      </trkpt>
      <trkpt lat="57.53602" lon="-6.1488">
        <ele>108.32</ele>
        <time>2021-03-20T14:34:29Z</time>
      </trkpt>
      <trkpt lat="57.53637" lon="-6.14857">
        <ele>111.46</ele>
        <time>2021-03-20T14:34:33Z</time>
      </trkpt>
      <trkpt lat="57.53674" lon="-6.14819">
        <ele>112.69</ele>
        <time>2021-03-20T14:34:37Z</time>
      </trkpt>
      <trkpt lat="57.53744" lon="-6.14733">
        <ele>115.98</ele>
        <time>2021-03-20T14:34:40Z</time>
      </trkpt>
      <trkpt lat="57.53842" lon="-6.14629">
        <ele>123.21</ele>
        <time>2021-03-20T14:34:44Z</time>
      </trkpt>
      <trkpt lat="57.53914" lon="-6.14584">
        <ele>127.71</ele>
        <time>2021-03-20T14:34:48Z</time>
      </trkpt>
      <trkpt lat="57.53976" lon="-6.14556">
        <ele>131.4</ele>
        <time>2021-03-20T14:34:52Z</time>
      </trkpt>
      <trkpt lat="57.54026" lon="-6.14542">
        <ele>133.99</ele>
        <time>2021-03-20T14:34:55Z</time>
      </trkpt>
      <trkpt lat="57.54077" lon="-6.14537">
        <ele>137.69</ele>
        <time>2021-03-20T14:34:59Z</time>
      </trkpt>
      <trkpt lat="57.54111" lon="-6.14539">
        <ele>140.37</ele>
        <time>2021-03-20T14:35:03Z</time>
      </trkpt>
      <trkpt lat="57.54143" lon="-6.14545">
        <ele>143.91</ele>
        <time>2021-03-20T14:35:06Z</time>
      </trkpt>
      <trkpt lat="57.54199" lon="-6.14565">
        <ele>148.91</ele>
        <time>2021-03-20T14:35:10Z</time>
      </trkpt>
      <trkpt lat="57.54261" lon="-6.146">
        <ele>152.6</ele>
        <time>2021-03-20T14:35:14Z</time>
      </trkpt>
      <trkpt lat="57.54355" lon="-6.1467">
        <ele>156.19</ele>
        <time>2021-03-20T14:35:18Z</time>
      </trkpt>
      <trkpt lat="57.54457" lon="-6.14753">
        <ele>159.32</ele>
        <time>2021-03-20T14:35:21Z</time>
      </trkpt>
      <trkpt lat="57.54513" lon="-6.14788">
        <ele>157.92</ele>
        <time>2021-03-20T14:35:25Z</time>
      </trkpt>
      <trkpt lat="57.5457" lon="-6.14814">
        <ele>157.43</ele>
        <time>2021-03-20T14:35:29Z</time>
      </trkpt>
      <trkpt lat="57.54656" lon="-6.14831">
        <ele>160.47</ele>
        <time>2021-03-20T14:35:33Z</time>
      </trkpt>
      <trkpt lat="57.54719" lon="-6.14829">
        <ele>162.73</ele>
        <time>2021-03-20T14:35:36Z</time>
      </trkpt>
      <trkpt lat="57.54781" lon="-6.1482">
        <ele>164</ele>
        <time>2021-03-20T14:35:40Z</time>
      </trkpt>
      <trkpt lat="57.54865" lon="-6.1483">
        <ele>160.33</ele>
        <time>2021-03-20T14:35:44Z</time>
      </trkpt>
      <trkpt lat="57.54921" lon="-6.14852">
        <ele>157.72</ele>
        <time>2021-03-20T14:35:48Z</time>
      </trkpt>
      <trkpt lat="57.55016" lon="-6.1491">
        <ele>158.38</ele>
        <time>2021-03-20T14:35:51Z</time>
      </trkpt>
      <trkpt lat="57.55225" lon="-6.15068">
        <ele>149.47</ele>
        <time>2021-03-20T14:35:55Z</time>
      </trkpt>
      <trkpt lat="57.55571" lon="-6.15322">
        <ele>130.18</ele>
        <time>2021-03-20T14:35:59Z</time>
      </trkpt>
      <trkpt lat="57.55656" lon="-6.15367">
        <ele>123.76</ele>
        <time>2021-03-20T14:36:03Z</time>
      </trkpt>
      <trkpt lat="57.559" lon="-6.15457">
        <ele>100.81</ele>
        <time>2021-03-20T14:36:06Z</time>
      </trkpt>
      <trkpt lat="57.55938" lon="-6.15463">
        <ele>98.45</ele>
        <time>2021-03-20T14:36:10Z</time>
      </trkpt>
      <trkpt lat="57.56108" lon="-6.15455">
        <ele>86.42</ele>
        <time>2021-03-20T14:36:14Z</time>
      </trkpt>
      <trkpt lat="57.56148" lon="-6.15466">
        <ele>85.79</ele>
        <time>2021-03-20T14:36:17Z</time>
      </trkpt>
      <trkpt lat="57.56222" lon="-6.15509">
        <ele>84.31</ele>
        <time>2021-03-20T14:36:21Z</time>
      </trkpt>
      <trkpt lat="57.56422" lon="-6.15648">
        <ele>63.38</ele>
        <time>2021-03-20T14:36:25Z</time>
      </trkpt>
      <trkpt lat="57.56465" lon="-6.15657">
        <ele>59.51</ele>
        <time>2021-03-20T14:36:29Z</time>
      </trkpt>
      <trkpt lat="57.56492" lon="-6.15654">
        <ele>56.84</ele>
        <time>2021-03-20T14:36:32Z</time>
      </trkpt>
      <trkpt lat="57.56506" lon="-6.15647">
        <ele>56.22</ele>
        <time>2021-03-20T14:36:36Z</time>
      </trkpt>
      <trkpt lat="57.56538" lon="-6.15618">
        <ele>59.18</ele>
        <time>2021-03-20T14:36:40Z</time>
      </trkpt>
      <trkpt lat="57.56559" lon="-6.15588">
        <ele>63</ele>
        <time>2021-03-20T14:36:44Z</time>
      </trkpt>
      <trkpt lat="57.56581" lon="-6.15536">
        <ele>66.53</ele>
        <time>2021-03-20T14:36:47Z</time>
      </trkpt>
      <trkpt lat="57.56623" lon="-6.15394">
        <ele>67.72</ele>
        <time>2021-03-20T14:36:51Z</time>
      </trkpt>
      <trkpt lat="57.56643" lon="-6.15343">
        <ele>73.91</ele>
        <time>2021-03-20T14:36:55Z</time>
      </trkpt>
      <trkpt lat="57.56664" lon="-6.15302">
        <ele>80.39</ele>
        <time>2021-03-20T14:36:59Z</time>
      </trkpt>
      <trkpt lat="57.56693" lon="-6.15256">
        <ele>84.86</ele>
        <time>2021-03-20T14:37:02Z</time>
      </trkpt>
      <trkpt lat="57.56731" lon="-6.15213">
        <ele>87.61</ele>
        <time>2021-03-20T14:37:06Z</time>
      </trkpt>
      <trkpt lat="57.5677" lon="-6.15185">
        <ele>89.36</ele>
        <time>2021-03-20T14:37:10Z</time>
      </trkpt>
      <trkpt lat="57.56804" lon="-6.15168">
        <ele>89.96</ele>
        <time>2021-03-20T14:37:14Z</time>
      </trkpt>
      <trkpt lat="57.56844" lon="-6.15159">
        <ele>92.74</ele>
        <time>2021-03-20T14:37:17Z</time>
      </trkpt>
      <trkpt lat="57.56883" lon="-6.15163">
        <ele>94</ele>
        <time>2021-03-20T14:37:21Z</time>
      </trkpt>
      <trkpt lat="57.56919" lon="-6.15173">
        <ele>94.67</ele>
        <time>2021-03-20T14:37:25Z</time>
      </trkpt>
      <trkpt lat="57.57196" lon="-6.15328">
        <ele>94.94</ele>
        <time>2021-03-20T14:37:28Z</time>
      </trkpt>
      <trkpt lat="57.57352" lon="-6.15434">
        <ele>90</ele>
        <time>2021-03-20T14:37:32Z</time>
      </trkpt>
      <trkpt lat="57.57395" lon="-6.15457">
        <ele>88.68</ele>
        <time>2021-03-20T14:37:36Z</time>
      </trkpt>
      <trkpt lat="57.57446" lon="-6.15474">
        <ele>86.91</ele>
        <time>2021-03-20T14:37:40Z</time>
      </trkpt>
      <trkpt lat="57.57544" lon="-6.15495">
        <ele>84.81</ele>
        <time>2021-03-20T14:37:43Z</time>
      </trkpt>
      <trkpt lat="57.57591" lon="-6.15512">
        <ele>84.73</ele>
        <time>2021-03-20T14:37:47Z</time>
      </trkpt>
      <trkpt lat="57.57636" lon="-6.15545">
        <ele>83.9</ele>
        <time>2021-03-20T14:37:51Z</time>
      </trkpt>
      <trkpt lat="57.57818" lon="-6.15702">
        <ele>76.18</ele>
        <time>2021-03-20T14:37:55Z</time>
      </trkpt>
      <trkpt lat="57.57854" lon="-6.15725">
        <ele>75.78</ele>
        <time>2021-03-20T14:37:58Z</time>
      </trkpt>
      <trkpt lat="57.57893" lon="-6.15745">
        <ele>73.32</ele>
        <time>2021-03-20T14:38:02Z</time>
      </trkpt>
      <trkpt lat="57.57941" lon="-6.15763">
        <ele>72.06</ele>
        <time>2021-03-20T14:38:06Z</time>
      </trkpt>
      <trkpt lat="57.5799" lon="-6.15771">
        <ele>70.75</ele>
        <time>2021-03-20T14:38:10Z</time>
      </trkpt>
      <trkpt lat="57.5838" lon="-6.15779">
        <ele>73.36</ele>
        <time>2021-03-20T14:38:13Z</time>
      </trkpt>
      <trkpt lat="57.58437" lon="-6.15773">
        <ele>76.73</ele>
        <time>2021-03-20T14:38:17Z</time>
      </trkpt>
      <trkpt lat="57.58466" lon="-6.15765">
        <ele>77.35</ele>
        <time>2021-03-20T14:38:21Z</time>
      </trkpt>
      <trkpt lat="57.58607" lon="-6.15716">
        <ele>85.18</ele>
        <time>2021-03-20T14:38:24Z</time>
      </trkpt>
      <trkpt lat="57.58708" lon="-6.15712">
        <ele>87.85</ele>
        <time>2021-03-20T14:38:28Z</time>
      </trkpt>
      <trkpt lat="57.58743" lon="-6.15717">
        <ele>88.19</ele>
        <time>2021-03-20T14:38:32Z</time>
      </trkpt>
      <trkpt lat="57.58798" lon="-6.15735">
        <ele>88.54</ele>
        <time>2021-03-20T14:38:36Z</time>
      </trkpt>
      <trkpt lat="57.5908" lon="-6.15858">
        <ele>86.23</ele>
        <time>2021-03-20T14:38:39Z</time>
      </trkpt>
      <trkpt lat="57.5918" lon="-6.15938">
        <ele>83.54</ele>
        <time>2021-03-20T14:38:43Z</time>
      </trkpt>
      <trkpt lat="57.59249" lon="-6.15967">
        <ele>81.06</ele>
        <time>2021-03-20T14:38:47Z</time>
      </trkpt>
      <trkpt lat="57.59353" lon="-6.15977">
        <ele>76.89</ele>
        <time>2021-03-20T14:38:51Z</time>
      </trkpt>
      <trkpt lat="57.5939" lon="-6.15987">
        <ele>75.55</ele>
        <time>2021-03-20T14:38:54Z</time>
      </trkpt>
      <trkpt lat="57.59441" lon="-6.16013">
        <ele>76.92</ele>
        <time>2021-03-20T14:38:58Z</time>
      </trkpt>
      <trkpt lat="57.59566" lon="-6.16099">
        <ele>82.77</ele>
        <time>2021-03-20T14:39:02Z</time>
      </trkpt>
      <trkpt lat="57.59884" lon="-6.16325">
        <ele>78</ele>
        <time>2021-03-20T14:39:06Z</time>
      </trkpt>
      <trkpt lat="57.59961" lon="-6.16391">
        <ele>81.12</ele>
        <time>2021-03-20T14:39:09Z</time>
      </trkpt>
      <trkpt lat="57.60039" lon="-6.16467">
        <ele>80.78</ele>
        <time>2021-03-20T14:39:13Z</time>
      </trkpt>
      <trkpt lat="57.60116" lon="-6.16556">
        <ele>77.22</ele>
        <time>2021-03-20T14:39:17Z</time>
      </trkpt>
      <trkpt lat="57.60204" lon="-6.16675">
        <ele>72.69</ele>
        <time>2021-03-20T14:39:21Z</time>
      </trkpt>
      <trkpt lat="57.60276" lon="-6.1678">
        <ele>69.93</ele>
        <time>2021-03-20T14:39:24Z</time>
      </trkpt>
      <trkpt lat="57.60439" lon="-6.17008">
        <ele>65.56</ele>
        <time>2021-03-20T14:39:28Z</time>
      </trkpt>
      <trkpt lat="57.60482" lon="-6.17061">
        <ele>65.12</ele>
        <time>2021-03-20T14:39:32Z</time>
      </trkpt>
      <trkpt lat="57.60516" lon="-6.17091">
        <ele>64.54</ele>
        <time>2021-03-20T14:39:35Z</time>
      </trkpt>
      <trkpt lat="57.60606" lon="-6.17159">
        <ele>62.64</ele>
        <time>2021-03-20T14:39:39Z</time>
      </trkpt>
      <trkpt lat="57.60656" lon="-6.17207">
        <ele>59.92</ele>
        <time>2021-03-20T14:39:43Z</time>
      </trkpt>
      <trkpt lat="57.60747" lon="-6.17318">
        <ele>57.98</ele>
        <time>2021-03-20T14:39:47Z</time>
      </trkpt>
      <trkpt lat="57.60808" lon="-6.17385">
        <ele>56.44</ele>
        <time>2021-03-20T14:39:50Z</time>
      </trkpt>
      <trkpt lat="57.60847" lon="-6.17416">
        <ele>56.09</ele>
        <time>2021-03-20T14:39:54Z</time>
      </trkpt>
      <trkpt lat="57.6095" lon="-6.17462">
        <ele>53</ele>
        <time>2021-03-20T14:39:58Z</time>
      </trkpt>
      <trkpt lat="57.6101" lon="-6.17496">
        <ele>54.34</ele>
        <time>2021-03-20T14:40:02Z</time>
      </trkpt>
      <trkpt lat="57.61044" lon="-6.17525">
        <ele>55.2</ele>
        <time>2021-03-20T14:40:05Z</time>
      </trkpt>
      <trkpt lat="57.61104" lon="-6.17586">
        <ele>62.02</ele>
        <time>2021-03-20T14:40:09Z</time>
      </trkpt>
      <trkpt lat="57.61163" lon="-6.17659">
        <ele>68.42</ele>
        <time>2021-03-20T14:40:13Z</time>
      </trkpt>
      <trkpt lat="57.61225" lon="-6.17748">
        <ele>71.29</ele>
        <time>2021-03-20T14:40:17Z</time>
      </trkpt>
      <trkpt lat="57.61273" lon="-6.17823">
        <ele>73.82</ele>
        <time>2021-03-20T14:40:20Z</time>
      </trkpt>
      <trkpt lat="57.61286" lon="-6.17851">
        <ele>75.14</ele>
        <time>2021-03-20T14:40:24Z</time>
      </trkpt>
      <trkpt lat="57.61331" lon="-6.17934">
        <ele>79.33</ele>
        <time>2021-03-20T14:40:28Z</time>
      </trkpt>
      <trkpt lat="57.61379" lon="-6.18048">
        <ele>78.17</ele>
        <time>2021-03-20T14:40:32Z</time>
      </trkpt>
      <trkpt lat="57.61418" lon="-6.18166">
        <ele>78.06</ele>
        <time>2021-03-20T14:40:35Z</time>
      </trkpt>
      <trkpt lat="57.61561" lon="-6.18751">
        <ele>73.19</ele>
        <time>2021-03-20T14:40:39Z</time>
      </trkpt>
      <trkpt lat="57.61598" lon="-6.18858">
        <ele>73.51</ele>
        <time>2021-03-20T14:40:43Z</time>
      </trkpt>
      <trkpt lat="57.61696" lon="-6.19093">
        <ele>86.08</ele>
        <time>2021-03-20T14:40:46Z</time>
      </trkpt>
      <trkpt lat="57.6179" lon="-6.19326">
        <ele>92.33</ele>
        <time>2021-03-20T14:40:50Z</time>
      </trkpt>
      <trkpt lat="57.61819" lon="-6.19395">
        <ele>93.29</ele>
        <time>2021-03-20T14:40:54Z</time>
      </trkpt>
      <trkpt lat="57.61857" lon="-6.19465">
        <ele>93.11</ele>
        <time>2021-03-20T14:40:58Z</time>
      </trkpt>
      <trkpt lat="57.61909" lon="-6.19544">
        <ele>92.85</ele>
        <time>2021-03-20T14:41:01Z</time>
      </trkpt>
      <trkpt lat="57.61987" lon="-6.19639">
        <ele>88.96</ele>
        <time>2021-03-20T14:41:05Z</time>
      </trkpt>
      <trkpt lat="57.62113" lon="-6.19799">
        <ele>78.63</ele>
        <time>2021-03-20T14:41:09Z</time>
      </trkpt>
      <trkpt lat="57.622" lon="-6.19914">
        <ele>67.01</ele>
        <time>2021-03-20T14:41:13Z</time>
      </trkpt>
      <trkpt lat="57.62288" lon="-6.20042">
        <ele>60.48</ele>
        <time>2021-03-20T14:41:16Z</time>
      </trkpt>
      <trkpt lat="57.62402" lon="-6.20218">
        <ele>53.78</ele>
        <time>2021-03-20T14:41:20Z</time>
      </trkpt>
      <trkpt lat="57.62456" lon="-6.20308">
        <ele>49.26</ele>
        <time>2021-03-20T14:41:24Z</time>
      </trkpt>
      <trkpt lat="57.62519" lon="-6.20429">
        <ele>43.09</ele>
        <time>2021-03-20T14:41:28Z</time>
      </trkpt>
      <trkpt lat="57.62662" lon="-6.20726">
        <ele>27.31</ele>
        <time>2021-03-20T14:41:31Z</time>
      </trkpt>
      <trkpt lat="57.62724" lon="-6.20831">
        <ele>27</ele>
        <time>2021-03-20T14:41:35Z</time>
      </trkpt>
      <trkpt lat="57.62773" lon="-6.20893">
        <ele>26.51</ele>
        <time>2021-03-20T14:41:39Z</time>
      </trkpt>
      <trkpt lat="57.62816" lon="-6.20944">
        <ele>26.19</ele>
        <time>2021-03-20T14:41:43Z</time>
      </trkpt>
      <trkpt lat="57.62907" lon="-6.21031">
        <ele>22.83</ele>
        <time>2021-03-20T14:41:46Z</time>
      </trkpt>
      <trkpt lat="57.62939" lon="-6.21072">
        <ele>22.57</ele>
        <time>2021-03-20T14:41:50Z</time>
      </trkpt>
      <trkpt lat="57.6299" lon="-6.21158">
        <ele>21.09</ele>
        <time>2021-03-20T14:41:54Z</time>
      </trkpt>
      <trkpt lat="57.63018" lon="-6.21224">
        <ele>21.76</ele>
        <time>2021-03-20T14:41:57Z</time>
      </trkpt>
      <trkpt lat="57.63045" lon="-6.21301">
        <ele>24.1</ele>
        <time>2021-03-20T14:42:01Z</time>
      </trkpt>
      <trkpt lat="57.63088" lon="-6.21457">
        <ele>28.1</ele>
        <time>2021-03-20T14:42:05Z</time>
      </trkpt>
      <trkpt lat="57.63102" lon="-6.21528">
        <ele>29.35</ele>
        <time>2021-03-20T14:42:09Z</time>
      </trkpt>
      <trkpt lat="57.6311" lon="-6.21597">
        <ele>31.53</ele>
        <time>2021-03-20T14:42:12Z</time>
      </trkpt>
      <trkpt lat="57.63115" lon="-6.21652">
        <ele>34.31</ele>
        <time>2021-03-20T14:42:16Z</time>
      </trkpt>
      <trkpt lat="57.63117" lon="-6.21715">
        <ele>35.77</ele>
        <time>2021-03-20T14:42:20Z</time>
      </trkpt>
      <trkpt lat="57.63116" lon="-6.21816">
        <ele>33.29</ele>
        <time>2021-03-20T14:42:24Z</time>
      </trkpt>
      <trkpt lat="57.63052" lon="-6.22822">
        <ele>22.36</ele>
        <time>2021-03-20T14:42:27Z</time>
      </trkpt>
      <trkpt lat="57.63046" lon="-6.22901">
        <ele>20.66</ele>
        <time>2021-03-20T14:42:31Z</time>
      </trkpt>
      <trkpt lat="57.63025" lon="-6.23102">
        <ele>19.82</ele>
        <time>2021-03-20T14:42:35Z</time>
      </trkpt>
      <trkpt lat="57.62997" lon="-6.23309">
        <ele>16.31</ele>
        <time>2021-03-20T14:42:39Z</time>
      </trkpt>
      <trkpt lat="57.62967" lon="-6.23496">
        <ele>16.34</ele>
        <time>2021-03-20T14:42:42Z</time>
      </trkpt>
      <trkpt lat="57.62955" lon="-6.2359">
        <ele>17.62</ele>
        <time>2021-03-20T14:42:46Z</time>
      </trkpt>
      <trkpt lat="57.62953" lon="-6.23636">
        <ele>18.58</ele>
        <time>2021-03-20T14:42:50Z</time>
      </trkpt>
      <trkpt lat="57.62955" lon="-6.23682">
        <ele>19.5</ele>
        <time>2021-03-20T14:42:53Z</time>
      </trkpt>
      <trkpt lat="57.62964" lon="-6.23734">
        <ele>21.32</ele>
        <time>2021-03-20T14:42:57Z</time>
      </trkpt>
      <trkpt lat="57.62983" lon="-6.23798">
        <ele>23.07</ele>
        <time>2021-03-20T14:43:01Z</time>
      </trkpt>
      <trkpt lat="57.63026" lon="-6.239">
        <ele>23.47</ele>
        <time>2021-03-20T14:43:05Z</time>
      </trkpt>
      <trkpt lat="57.63067" lon="-6.2398">
        <ele>25.7</ele>
        <time>2021-03-20T14:43:08Z</time>
      </trkpt>
      <trkpt lat="57.63089" lon="-6.24028">
        <ele>28.59</ele>
        <time>2021-03-20T14:43:12Z</time>
      </trkpt>
      <trkpt lat="57.63099" lon="-6.24055">
        <ele>30.22</ele>
        <time>2021-03-20T14:43:16Z</time>
      </trkpt>
      <trkpt lat="57.63143" lon="-6.24202">
        <ele>41.63</ele>
        <time>2021-03-20T14:43:20Z</time>
      </trkpt>
      <trkpt lat="57.63155" lon="-6.24227">
        <ele>43.5</ele>
        <time>2021-03-20T14:43:23Z</time>
      </trkpt>
      <trkpt lat="57.63166" lon="-6.2424">
        <ele>45.54</ele>
        <time>2021-03-20T14:43:27Z</time>
      </trkpt>
      <trkpt lat="57.63176" lon="-6.24245">
        <ele>46.57</ele>
        <time>2021-03-20T14:43:31Z</time>
      </trkpt>
      <trkpt lat="57.63189" lon="-6.24245">
        <ele>47.56</ele>
        <time>2021-03-20T14:43:35Z</time>
      </trkpt>
      <trkpt lat="57.63202" lon="-6.24241">
        <ele>48</ele>
        <time>2021-03-20T14:43:38Z</time>
      </trkpt>
      <trkpt lat="57.63209" lon="-6.24235">
        <ele>48</ele>
        <time>2021-03-20T14:43:42Z</time>
      </trkpt>
      <trkpt lat="57.63234" lon="-6.24202">
        <ele>48.41</ele>
        <time>2021-03-20T14:43:46Z</time>
      </trkpt>
      <trkpt lat="57.63259" lon="-6.24161">
        <ele>48.34</ele>
        <time>2021-03-20T14:43:50Z</time>
      </trkpt>
      <trkpt lat="57.63294" lon="-6.24132">
        <ele>48.77</ele>
        <time>2021-03-20T14:43:53Z</time>
      </trkpt>
      <trkpt lat="57.63407" lon="-6.24092">
        <ele>48.15</ele>
        <time>2021-03-20T14:43:57Z</time>
      </trkpt>
      <trkpt lat="57.63447" lon="-6.24075">
        <ele>48.32</ele>
        <time>2021-03-20T14:44:01Z</time>
      </trkpt>
      <trkpt lat="57.63526" lon="-6.24034">
        <ele>51.76</ele>
        <time>2021-03-20T14:44:04Z</time>
      </trkpt>
      <trkpt lat="57.63545" lon="-6.24031">
        <ele>52.64</ele>
        <time>2021-03-20T14:44:08Z</time>
      </trkpt>
      <trkpt lat="57.63563" lon="-6.24035">
        <ele>54.32</ele>
        <time>2021-03-20T14:44:12Z</time>
      </trkpt>
      <trkpt lat="57.63668" lon="-6.24078">
        <ele>61.9</ele>
        <time>2021-03-20T14:44:16Z</time>
      </trkpt>
      <trkpt lat="57.63689" lon="-6.24093">
        <ele>63.62</ele>
        <time>2021-03-20T14:44:19Z</time>
      </trkpt>
      <trkpt lat="57.63724" lon="-6.24129">
        <ele>68.06</ele>
        <time>2021-03-20T14:44:23Z</time>
      </trkpt>
      <trkpt lat="57.63769" lon="-6.24155">
        <ele>66.25</ele>
        <time>2021-03-20T14:44:27Z</time>
      </trkpt>
      <trkpt lat="57.63802" lon="-6.24169">
        <ele>65.53</ele>
        <time>2021-03-20T14:44:31Z</time>
      </trkpt>
      <trkpt lat="57.63819" lon="-6.24169">
        <ele>64.81</ele>
        <time>2021-03-20T14:44:34Z</time>
      </trkpt>
      <trkpt lat="57.63858" lon="-6.24155">
        <ele>63.66</ele>
        <time>2021-03-20T14:44:38Z</time>
      </trkpt>
      <trkpt lat="57.63885" lon="-6.24162">
        <ele>62.11</ele>
        <time>2021-03-20T14:44:42Z</time>
      </trkpt>
      <trkpt lat="57.63926" lon="-6.24195">
        <ele>62.33</ele>
        <time>2021-03-20T14:44:46Z</time>
      </trkpt>
      <trkpt lat="57.63969" lon="-6.24233">
        <ele>63.56</ele>
        <time>2021-03-20T14:44:49Z</time>
      </trkpt>
      <trkpt lat="57.63986" lon="-6.24243">
        <ele>64.38</ele>
        <time>2021-03-20T14:44:53Z</time>
      </trkpt>
      <trkpt lat="57.64021" lon="-6.24257">
        <ele>65.28</ele>
        <time>2021-03-20T14:44:57Z</time>
      </trkpt>
      <trkpt lat="57.64047" lon="-6.24263">
        <ele>65.72</ele>
        <time>2021-03-20T14:45:01Z</time>
      </trkpt>
      <trkpt lat="57.64068" lon="-6.24263">
        <ele>66.05</ele>
        <time>2021-03-20T14:45:04Z</time>
      </trkpt>
      <trkpt lat="57.64089" lon="-6.24255">
        <ele>66.65</ele>
        <time>2021-03-20T14:45:08Z</time>
      </trkpt>
      <trkpt lat="57.64125" lon="-6.2423">
        <ele>68.58</ele>
        <time>2021-03-20T14:45:12Z</time>
      </trkpt>
      <trkpt lat="57.6416" lon="-6.2421">
        <ele>69.87</ele>
        <time>2021-03-20T14:45:15Z</time>
      </trkpt>
      <trkpt lat="57.64218" lon="-6.24191">
        <ele>72.6</ele>
        <time>2021-03-20T14:45:19Z</time>
      </trkpt>
      <trkpt lat="57.64247" lon="-6.24187">
        <ele>73.62</ele>
        <time>2021-03-20T14:45:23Z</time>
      </trkpt>
      <trkpt lat="57.64269" lon="-6.24193">
        <ele>73.94</ele>
        <time>2021-03-20T14:45:27Z</time>
      </trkpt>
      <trkpt lat="57.64328" lon="-6.24196">
        <ele>75.95</ele>
        <time>2021-03-20T14:45:30Z</time>
      </trkpt>
      <trkpt lat="57.6447" lon="-6.24216">
        <ele>80.63</ele>
        <time>2021-03-20T14:45:34Z</time>
      </trkpt>
      <trkpt lat="57.64492" lon="-6.24224">
        <ele>79.71</ele>
        <time>2021-03-20T14:45:38Z</time>
      </trkpt>
      <trkpt lat="57.64539" lon="-6.24262">
        <ele>77.65</ele>
        <time>2021-03-20T14:45:42Z</time>
      </trkpt>
      <trkpt lat="57.64601" lon="-6.24298">
        <ele>76.27</ele>
        <time>2021-03-20T14:45:45Z</time>
      </trkpt>
      <trkpt lat="57.64626" lon="-6.24309">
        <ele>77.43</ele>
        <time>2021-03-20T14:45:49Z</time>
      </trkpt>
      <trkpt lat="57.64672" lon="-6.2431">
        <ele>78.48</ele>
        <time>2021-03-20T14:45:53Z</time>
      </trkpt>
      <trkpt lat="57.64689" lon="-6.24324">
        <ele>79.95</ele>
        <time>2021-03-20T14:45:57Z</time>
      </trkpt>
      <trkpt lat="57.64751" lon="-6.24382">
        <ele>81.17</ele>
        <time>2021-03-20T14:46:00Z</time>
      </trkpt>
      <trkpt lat="57.64778" lon="-6.244">
        <ele>80.81</ele>
        <time>2021-03-20T14:46:04Z</time>
      </trkpt>
      <trkpt lat="57.64803" lon="-6.24413">
        <ele>78.96</ele>
        <time>2021-03-20T14:46:08Z</time>
      </trkpt>
      <trkpt lat="57.64815" lon="-6.24416">
        <ele>78.92</ele>
        <time>2021-03-20T14:46:11Z</time>
      </trkpt>
      <trkpt lat="57.64833" lon="-6.24412">
        <ele>78.49</ele>
        <time>2021-03-20T14:46:15Z</time>
      </trkpt>
      <trkpt lat="57.64867" lon="-6.24381">
        <ele>77.18</ele>
        <time>2021-03-20T14:46:19Z</time>
      </trkpt>
      <trkpt lat="57.64886" lon="-6.2437">
        <ele>75.62</ele>
        <time>2021-03-20T14:46:23Z</time>
      </trkpt>
      <trkpt lat="57.64898" lon="-6.24366">
        <ele>74.29</ele>
        <time>2021-03-20T14:46:26Z</time>
      </trkpt>
      <trkpt lat="57.64915" lon="-6.24368">
        <ele>73.76</ele>
        <time>2021-03-20T14:46:30Z</time>
      </trkpt>
      <trkpt lat="57.64965" lon="-6.24399">
        <ele>74.55</ele>
        <time>2021-03-20T14:46:34Z</time>
      </trkpt>
      <trkpt lat="57.65039" lon="-6.24423">
        <ele>74.38</ele>
        <time>2021-03-20T14:46:38Z</time>
      </trkpt>
      <trkpt lat="57.65076" lon="-6.24433">
        <ele>75.33</ele>
        <time>2021-03-20T14:46:41Z</time>
      </trkpt>
      <trkpt lat="57.65104" lon="-6.24433">
        <ele>76.64</ele>
        <time>2021-03-20T14:46:45Z</time>
      </trkpt>
      <trkpt lat="57.65126" lon="-6.24427">
        <ele>77.83</ele>
        <time>2021-03-20T14:46:49Z</time>
      </trkpt>
      <trkpt lat="57.6516" lon="-6.24407">
        <ele>80.39</ele>
        <time>2021-03-20T14:46:53Z</time>
      </trkpt>
      <trkpt lat="57.65183" lon="-6.24404">
        <ele>82.06</ele>
        <time>2021-03-20T14:46:56Z</time>
      </trkpt>
      <trkpt lat="57.65263" lon="-6.24411">
        <ele>85.34</ele>
        <time>2021-03-20T14:47:00Z</time>
      </trkpt>
      <trkpt lat="57.65286" lon="-6.24421">
        <ele>85.86</ele>
        <time>2021-03-20T14:47:04Z</time>
      </trkpt>
      <trkpt lat="57.65314" lon="-6.24446">
        <ele>86.05</ele>
        <time>2021-03-20T14:47:08Z</time>
      </trkpt>
      <trkpt lat="57.65349" lon="-6.24484">
        <ele>87.25</ele>
        <time>2021-03-20T14:47:11Z</time>
      </trkpt>
      <trkpt lat="57.65363" lon="-6.24507">
        <ele>88.59</ele>
        <time>2021-03-20T14:47:15Z</time>
      </trkpt>
      <trkpt lat="57.65375" lon="-6.24531">
        <ele>90.52</ele>
        <time>2021-03-20T14:47:19Z</time>
      </trkpt>
      <trkpt lat="57.65384" lon="-6.24556">
        <ele>91.46</ele>
        <time>2021-03-20T14:47:22Z</time>
      </trkpt>
      <trkpt lat="57.65443" lon="-6.24791">
        <ele>94.31</ele>
        <time>2021-03-20T14:47:26Z</time>
      </trkpt>
      <trkpt lat="57.65482" lon="-6.25029">
        <ele>98.38</ele>
        <time>2021-03-20T14:47:30Z</time>
      </trkpt>
      <trkpt lat="57.65493" lon="-6.25077">
        <ele>99.19</ele>
        <time>2021-03-20T14:47:34Z</time>
      </trkpt>
      <trkpt lat="57.65505" lon="-6.25108">
        <ele>99</ele>
        <time>2021-03-20T14:47:37Z</time>
      </trkpt>
      <trkpt lat="57.65523" lon="-6.25131">
        <ele>99.26</ele>
        <time>2021-03-20T14:47:41Z</time>
      </trkpt>
      <trkpt lat="57.65539" lon="-6.25142">
        <ele>99</ele>
        <time>2021-03-20T14:47:45Z</time>
      </trkpt>
      <trkpt lat="57.65591" lon="-6.25156">
        <ele>99.32</ele>
        <time>2021-03-20T14:47:49Z</time>
      </trkpt>
      <trkpt lat="57.65608" lon="-6.25165">
        <ele>99.07</ele>
        <time>2021-03-20T14:47:52Z</time>
      </trkpt>
      <trkpt lat="57.65636" lon="-6.25194">
        <ele>99.21</ele>
        <time>2021-03-20T14:47:56Z</time>
      </trkpt>
      <trkpt lat="57.65663" lon="-6.25231">
        <ele>96.73</ele>
        <time>2021-03-20T14:48:00Z</time>
      </trkpt>
      <trkpt lat="57.65685" lon="-6.25273">
        <ele>96.53</ele>
        <time>2021-03-20T14:48:04Z</time>
      </trkpt>
      <trkpt lat="57.65698" lon="-6.2531">
        <ele>96.93</ele>
        <time>2021-03-20T14:48:07Z</time>
      </trkpt>
      <trkpt lat="57.6571" lon="-6.25335">
        <ele>97.08</ele>
        <time>2021-03-20T14:48:11Z</time>
      </trkpt>
      <trkpt lat="57.65778" lon="-6.25402">
        <ele>98.94</ele>
        <time>2021-03-20T14:48:15Z</time>
      </trkpt>
      <trkpt lat="57.65873" lon="-6.25561">
        <ele>89.55</ele>
        <time>2021-03-20T14:48:19Z</time>
      </trkpt>
      <trkpt lat="57.65891" lon="-6.25586">
        <ele>88.02</ele>
        <time>2021-03-20T14:48:22Z</time>
      </trkpt>
      <trkpt lat="57.65904" lon="-6.25594">
        <ele>87.82</ele>
        <time>2021-03-20T14:48:26Z</time>
      </trkpt>
      <trkpt lat="57.6592" lon="-6.25593">
        <ele>87.4</ele>
        <time>2021-03-20T14:48:30Z</time>
      </trkpt>
      <trkpt lat="57.65954" lon="-6.25582">
        <ele>86.48</ele>
        <time>2021-03-20T14:48:33Z</time>
      </trkpt>
      <trkpt lat="57.6597" lon="-6.2558">
        <ele>85.67</ele>
        <time>2021-03-20T14:48:37Z</time>
      </trkpt>
      <trkpt lat="57.65992" lon="-6.25591">
        <ele>84.76</ele>
        <time>2021-03-20T14:48:41Z</time>
      </trkpt>
      <trkpt lat="57.66028" lon="-6.25618">
        <ele>81.48</ele>
        <time>2021-03-20T14:48:45Z</time>
      </trkpt>
      <trkpt lat="57.66077" lon="-6.25661">
        <ele>79.28</ele>
        <time>2021-03-20T14:48:48Z</time>
      </trkpt>
      <trkpt lat="57.6609" lon="-6.25681">
        <ele>78.92</ele>
        <time>2021-03-20T14:48:52Z</time>
      </trkpt>
      <trkpt lat="57.66145" lon="-6.25796">
        <ele>78.09</ele>
        <time>2021-03-20T14:48:56Z</time>
      </trkpt>
      <trkpt lat="57.66171" lon="-6.25844">
        <ele>74.81</ele>
        <time>2021-03-20T14:49:00Z</time>
      </trkpt>
      <trkpt lat="57.66192" lon="-6.25873">
        <ele>74.08</ele>
        <time>2021-03-20T14:49:03Z</time>
      </trkpt>
      <trkpt lat="57.66205" lon="-6.25882">
        <ele>74.1</ele>
        <time>2021-03-20T14:49:07Z</time>
      </trkpt>
      <trkpt lat="57.66218" lon="-6.25884">
        <ele>73.78</ele>
        <time>2021-03-20T14:49:11Z</time>
      </trkpt>
      <trkpt lat="57.66236" lon="-6.25878">
        <ele>73.24</ele>
        <time>2021-03-20T14:49:15Z</time>
      </trkpt>
      <trkpt lat="57.66252" lon="-6.25861">
        <ele>72.07</ele>
        <time>2021-03-20T14:49:18Z</time>
      </trkpt>
      <trkpt lat="57.66266" lon="-6.25838">
        <ele>70.12</ele>
        <time>2021-03-20T14:49:22Z</time>
      </trkpt>
      <trkpt lat="57.6631" lon="-6.25804">
        <ele>70.13</ele>
        <time>2021-03-20T14:49:26Z</time>
      </trkpt>
      <trkpt lat="57.66341" lon="-6.25772">
        <ele>69.77</ele>
        <time>2021-03-20T14:49:30Z</time>
      </trkpt>
      <trkpt lat="57.6636" lon="-6.25741">
        <ele>70.13</ele>
        <time>2021-03-20T14:49:33Z</time>
      </trkpt>
      <trkpt lat="57.66384" lon="-6.25686">
        <ele>67.68</ele>
        <time>2021-03-20T14:49:37Z</time>
      </trkpt>
      <trkpt lat="57.66398" lon="-6.25666">
        <ele>66.24</ele>
        <time>2021-03-20T14:49:41Z</time>
      </trkpt>
      <trkpt lat="57.66406" lon="-6.25661">
        <ele>66.14</ele>
        <time>2021-03-20T14:49:44Z</time>
      </trkpt>
      <trkpt lat="57.66422" lon="-6.25661">
        <ele>67</ele>
        <time>2021-03-20T14:49:48Z</time>
      </trkpt>
      <trkpt lat="57.66436" lon="-6.25666">
        <ele>68.34</ele>
        <time>2021-03-20T14:49:52Z</time>
      </trkpt>
      <trkpt lat="57.66453" lon="-6.25685">
        <ele>70.72</ele>
        <time>2021-03-20T14:49:56Z</time>
      </trkpt>
      <trkpt lat="57.66483" lon="-6.25726">
        <ele>72.54</ele>
        <time>2021-03-20T14:49:59Z</time>
      </trkpt>
      <trkpt lat="57.66501" lon="-6.25746">
        <ele>73</ele>
        <time>2021-03-20T14:50:03Z</time>
      </trkpt>
      <trkpt lat="57.66517" lon="-6.25755">
        <ele>73</ele>
        <time>2021-03-20T14:50:07Z</time>
      </trkpt>
      <trkpt lat="57.66538" lon="-6.25755">
        <ele>73.66</ele>
        <time>2021-03-20T14:50:11Z</time>
      </trkpt>
      <trkpt lat="57.66556" lon="-6.25747">
        <ele>75.12</ele>
        <time>2021-03-20T14:50:14Z</time>
      </trkpt>
      <trkpt lat="57.6661" lon="-6.25713">
        <ele>76.98</ele>
        <time>2021-03-20T14:50:18Z</time>
      </trkpt>
      <trkpt lat="57.66625" lon="-6.25711">
        <ele>77.71</ele>
        <time>2021-03-20T14:50:22Z</time>
      </trkpt>
      <trkpt lat="57.66645" lon="-6.25714">
        <ele>78.81</ele>
        <time>2021-03-20T14:50:26Z</time>
      </trkpt>
      <trkpt lat="57.66723" lon="-6.25776">
        <ele>80.27</ele>
        <time>2021-03-20T14:50:29Z</time>
      </trkpt>
      <trkpt lat="57.66914" lon="-6.25997">
        <ele>81.98</ele>
        <time>2021-03-20T14:50:33Z</time>
      </trkpt>
      <trkpt lat="57.6694" lon="-6.2602">
        <ele>80.45</ele>
        <time>2021-03-20T14:50:37Z</time>
      </trkpt>
      <trkpt lat="57.66964" lon="-6.26035">
        <ele>78.59</ele>
        <time>2021-03-20T14:50:40Z</time>
      </trkpt>
      <trkpt lat="57.67083" lon="-6.26076">
        <ele>76.26</ele>
        <time>2021-03-20T14:50:44Z</time>
      </trkpt>
      <trkpt lat="57.67181" lon="-6.2609">
        <ele>67.44</ele>
        <time>2021-03-20T14:50:48Z</time>
      </trkpt>
      <trkpt lat="57.67197" lon="-6.261">
        <ele>65.72</ele>
        <time>2021-03-20T14:50:52Z</time>
      </trkpt>
      <trkpt lat="57.67211" lon="-6.26115">
        <ele>64.07</ele>
        <time>2021-03-20T14:50:55Z</time>
      </trkpt>
      <trkpt lat="57.67222" lon="-6.26132">
        <ele>62.31</ele>
        <time>2021-03-20T14:50:59Z</time>
      </trkpt>
      <trkpt lat="57.67248" lon="-6.26207">
        <ele>59.13</ele>
        <time>2021-03-20T14:51:03Z</time>
      </trkpt>
      <trkpt lat="57.67259" lon="-6.26236">
        <ele>57.17</ele>
        <time>2021-03-20T14:51:07Z</time>
      </trkpt>
      <trkpt lat="57.67283" lon="-6.26276">
        <ele>53.87</ele>
        <time>2021-03-20T14:51:10Z</time>
      </trkpt>
      <trkpt lat="57.67492" lon="-6.26498">
        <ele>46.31</ele>
        <time>2021-03-20T14:51:14Z</time>
      </trkpt>
      <trkpt lat="57.67523" lon="-6.26528">
        <ele>46</ele>
        <time>2021-03-20T14:51:18Z</time>
      </trkpt>
      <trkpt lat="57.67582" lon="-6.26575">
        <ele>47.96</ele>
        <time>2021-03-20T14:51:22Z</time>
      </trkpt>
      <trkpt lat="57.67603" lon="-6.26603">
        <ele>48.7</ele>
        <time>2021-03-20T14:51:25Z</time>
      </trkpt>
      <trkpt lat="57.67627" lon="-6.26657">
        <ele>50</ele>
        <time>2021-03-20T14:51:29Z</time>
      </trkpt>
      <trkpt lat="57.6771" lon="-6.26813">
        <ele>55.15</ele>
        <time>2021-03-20T14:51:33Z</time>
      </trkpt>
      <trkpt lat="57.67723" lon="-6.26845">
        <ele>56.01</ele>
        <time>2021-03-20T14:51:37Z</time>
      </trkpt>
      <trkpt lat="57.67729" lon="-6.26887">
        <ele>56.51</ele>
        <time>2021-03-20T14:51:40Z</time>
      </trkpt>
      <trkpt lat="57.67732" lon="-6.26926">
        <ele>57.83</ele>
        <time>2021-03-20T14:51:44Z</time>
      </trkpt>
      <trkpt lat="57.67739" lon="-6.26971">
        <ele>59.75</ele>
        <time>2021-03-20T14:51:48Z</time>
      </trkpt>
      <trkpt lat="57.67768" lon="-6.27087">
        <ele>63.6</ele>
        <time>2021-03-20T14:51:51Z</time>
      </trkpt>
      <trkpt lat="57.67817" lon="-6.27232">
        <ele>67.23</ele>
        <time>2021-03-20T14:51:55Z</time>
      </trkpt>
      <trkpt lat="57.6792" lon="-6.27474">
        <ele>71.52</ele>
        <time>2021-03-20T14:51:59Z</time>
      </trkpt>
      <trkpt lat="57.67929" lon="-6.27505">
        <ele>72.8</ele>
        <time>2021-03-20T14:52:03Z</time>
      </trkpt>
      <trkpt lat="57.67944" lon="-6.27594">
        <ele>73.49</ele>
        <time>2021-03-20T14:52:06Z</time>
      </trkpt>
      <trkpt lat="57.67956" lon="-6.27638">
        <ele>72.79</ele>
        <time>2021-03-20T14:52:10Z</time>
      </trkpt>
      <trkpt lat="57.67971" lon="-6.27667">
        <ele>72.91</ele>
        <time>2021-03-20T14:52:14Z</time>
      </trkpt>
      <trkpt lat="57.6801" lon="-6.27721">
        <ele>73.13</ele>
        <time>2021-03-20T14:52:18Z</time>
      </trkpt>
      <trkpt lat="57.68022" lon="-6.27745">
        <ele>73.61</ele>
        <time>2021-03-20T14:52:21Z</time>
      </trkpt>
      <trkpt lat="57.6808" lon="-6.2793">
        <ele>72.32</ele>
        <time>2021-03-20T14:52:25Z</time>
      </trkpt>
      <trkpt lat="57.68096" lon="-6.28004">
        <ele>71.88</ele>
        <time>2021-03-20T14:52:29Z</time>
      </trkpt>
      <trkpt lat="57.6811" lon="-6.28103">
        <ele>72.91</ele>
        <time>2021-03-20T14:52:33Z</time>
      </trkpt>
      <trkpt lat="57.68124" lon="-6.28259">
        <ele>70.85</ele>
        <time>2021-03-20T14:52:36Z</time>
      </trkpt>
      <trkpt lat="57.68143" lon="-6.28409">
        <ele>68.37</ele>
        <time>2021-03-20T14:52:40Z</time>
      </trkpt>
      <trkpt lat="57.68146" lon="-6.28461">
        <ele>68.24</ele>
        <time>2021-03-20T14:52:44Z</time>
      </trkpt>
      <trkpt lat="57.68143" lon="-6.28522">
        <ele>67.34</ele>
        <time>2021-03-20T14:52:48Z</time>
      </trkpt>
      <trkpt lat="57.68127" lon="-6.28725">
        <ele>60.32</ele>
        <time>2021-03-20T14:52:51Z</time>
      </trkpt>
      <trkpt lat="57.68124" lon="-6.28769">
        <ele>59.52</ele>
        <time>2021-03-20T14:52:55Z</time>
      </trkpt>
      <trkpt lat="57.68125" lon="-6.28811">
        <ele>59.01</ele>
        <time>2021-03-20T14:52:59Z</time>
      </trkpt>
      <trkpt lat="57.68155" lon="-6.29077">
        <ele>57.35</ele>
        <time>2021-03-20T14:53:02Z</time>
      </trkpt>
      <trkpt lat="57.6816" lon="-6.2922">
        <ele>54.68</ele>
        <time>2021-03-20T14:53:06Z</time>
      </trkpt>
      <trkpt lat="57.68165" lon="-6.29266">
        <ele>53.19</ele>
        <time>2021-03-20T14:53:10Z</time>
      </trkpt>
      <trkpt lat="57.68173" lon="-6.2932">
        <ele>53.9</ele>
        <time>2021-03-20T14:53:14Z</time>
      </trkpt>
      <trkpt lat="57.68184" lon="-6.29388">
        <ele>54.37</ele>
        <time>2021-03-20T14:53:17Z</time>
      </trkpt>
      <trkpt lat="57.68193" lon="-6.29456">
        <ele>53.61</ele>
        <time>2021-03-20T14:53:21Z</time>
      </trkpt>
      <trkpt lat="57.682" lon="-6.29535">
        <ele>52.16</ele>
        <time>2021-03-20T14:53:25Z</time>
      </trkpt>
      <trkpt lat="57.68207" lon="-6.29576">
        <ele>51.11</ele>
        <time>2021-03-20T14:53:29Z</time>
      </trkpt>
      <trkpt lat="57.68225" lon="-6.29643">
        <ele>49.46</ele>
        <time>2021-03-20T14:53:32Z</time>
      </trkpt>
      <trkpt lat="57.68257" lon="-6.2982">
        <ele>44.83</ele>
        <time>2021-03-20T14:53:36Z</time>
      </trkpt>
      <trkpt lat="57.68257" lon="-6.2982">
        <ele>44.83</ele>
        <time>2021-03-20T14:53:36Z</time>
      </trkpt>
      <trkpt lat="57.68268" lon="-6.29869">
        <ele>43.44</ele>
        <time>2021-03-20T14:53:39Z</time>
      </trkpt>
      <trkpt lat="57.68284" lon="-6.2992">
        <ele>41.08</ele>
        <time>2021-03-20T14:53:43Z</time>
      </trkpt>
      <trkpt lat="57.68307" lon="-6.29969">
        <ele>37.81</ele>
        <time>2021-03-20T14:53:46Z</time>
      </trkpt>
      <trkpt lat="57.6833" lon="-6.3001">
        <ele>35.71</ele>
        <time>2021-03-20T14:53:49Z</time>
      </trkpt>
      <trkpt lat="57.68353" lon="-6.30042">
        <ele>33.87</ele>
        <time>2021-03-20T14:53:52Z</time>
      </trkpt>
      <trkpt lat="57.68368" lon="-6.30068">
        <ele>32.55</ele>
        <time>2021-03-20T14:53:55Z</time>
      </trkpt>
      <trkpt lat="57.68377" lon="-6.30098">
        <ele>31.17</ele>
        <time>2021-03-20T14:53:59Z</time>
      </trkpt>
      <trkpt lat="57.68385" lon="-6.30134">
        <ele>29.02</ele>
        <time>2021-03-20T14:54:02Z</time>
      </trkpt>
      <trkpt lat="57.68442" lon="-6.30544">
        <ele>13.26</ele>
        <time>2021-03-20T14:54:05Z</time>
      </trkpt>
      <trkpt lat="57.68453" lon="-6.30607">
        <ele>14.72</ele>
        <time>2021-03-20T14:54:08Z</time>
      </trkpt>
      <trkpt lat="57.68468" lon="-6.30727">
        <ele>13.02</ele>
        <time>2021-03-20T14:54:12Z</time>
      </trkpt>
      <trkpt lat="57.68472" lon="-6.30771">
        <ele>13.04</ele>
        <time>2021-03-20T14:54:15Z</time>
      </trkpt>
      <trkpt lat="57.68474" lon="-6.30822">
        <ele>13.84</ele>
        <time>2021-03-20T14:54:18Z</time>
      </trkpt>
      <trkpt lat="57.68468" lon="-6.30993">
        <ele>15.43</ele>
        <time>2021-03-20T14:54:21Z</time>
      </trkpt>
      <trkpt lat="57.68465" lon="-6.31279">
        <ele>15.02</ele>
        <time>2021-03-20T14:54:25Z</time>
      </trkpt>
      <trkpt lat="57.6846" lon="-6.31329">
        <ele>14.7</ele>
        <time>2021-03-20T14:54:28Z</time>
      </trkpt>
      <trkpt lat="57.68448" lon="-6.31397">
        <ele>15.33</ele>
        <time>2021-03-20T14:54:31Z</time>
      </trkpt>
      <trkpt lat="57.68423" lon="-6.31518">
        <ele>15.65</ele>
        <time>2021-03-20T14:54:34Z</time>
      </trkpt>
      <trkpt lat="57.683" lon="-6.32086">
        <ele>17.87</ele>
        <time>2021-03-20T14:54:38Z</time>
      </trkpt>
      <trkpt lat="57.6829" lon="-6.32123">
        <ele>18.67</ele>
        <time>2021-03-20T14:54:41Z</time>
      </trkpt>
      <trkpt lat="57.68279" lon="-6.32151">
        <ele>19.98</ele>
        <time>2021-03-20T14:54:44Z</time>
      </trkpt>
      <trkpt lat="57.68234" lon="-6.32219">
        <ele>22.28</ele>
        <time>2021-03-20T14:54:47Z</time>
      </trkpt>
      <trkpt lat="57.6822" lon="-6.32249">
        <ele>22.87</ele>
        <time>2021-03-20T14:54:50Z</time>
      </trkpt>
      <trkpt lat="57.68216" lon="-6.32276">
        <ele>23.72</ele>
        <time>2021-03-20T14:54:54Z</time>
      </trkpt>
      <trkpt lat="57.68217" lon="-6.32302">
        <ele>24.53</ele>
        <time>2021-03-20T14:54:57Z</time>
      </trkpt>
      <trkpt lat="57.68222" lon="-6.3233">
        <ele>25.89</ele>
        <time>2021-03-20T14:55:00Z</time>
      </trkpt>
      <trkpt lat="57.68236" lon="-6.32366">
        <ele>26.34</ele>
        <time>2021-03-20T14:55:03Z</time>
      </trkpt>
      <trkpt lat="57.68299" lon="-6.32509">
        <ele>31.52</ele>
        <time>2021-03-20T14:55:07Z</time>
      </trkpt>
      <trkpt lat="57.68314" lon="-6.32532">
        <ele>32.27</ele>
        <time>2021-03-20T14:55:10Z</time>
      </trkpt>
      <trkpt lat="57.68382" lon="-6.3261">
        <ele>36.32</ele>
        <time>2021-03-20T14:55:13Z</time>
      </trkpt>
      <trkpt lat="57.68395" lon="-6.32627">
        <ele>36.45</ele>
        <time>2021-03-20T14:55:16Z</time>
      </trkpt>
      <trkpt lat="57.68404" lon="-6.32644">
        <ele>36.47</ele>
        <time>2021-03-20T14:55:20Z</time>
      </trkpt>
      <trkpt lat="57.68412" lon="-6.32665">
        <ele>36.54</ele>
        <time>2021-03-20T14:55:23Z</time>
      </trkpt>
      <trkpt lat="57.68417" lon="-6.32691">
        <ele>36.14</ele>
        <time>2021-03-20T14:55:26Z</time>
      </trkpt>
      <trkpt lat="57.68416" lon="-6.32713">
        <ele>35.89</ele>
        <time>2021-03-20T14:55:29Z</time>
      </trkpt>
      <trkpt lat="57.68412" lon="-6.32739">
        <ele>35.56</ele>
        <time>2021-03-20T14:55:32Z</time>
      </trkpt>
      <trkpt lat="57.68393" lon="-6.32794">
        <ele>34.91</ele>
        <time>2021-03-20T14:55:36Z</time>
      </trkpt>
      <trkpt lat="57.68351" lon="-6.32906">
        <ele>38.24</ele>
        <time>2021-03-20T14:55:39Z</time>
      </trkpt>
      <trkpt lat="57.68304" lon="-6.33023">
        <ele>38.94</ele>
        <time>2021-03-20T14:55:42Z</time>
      </trkpt>
      <trkpt lat="57.68294" lon="-6.33054">
        <ele>38.6</ele>
        <time>2021-03-20T14:55:45Z</time>
      </trkpt>
      <trkpt lat="57.68292" lon="-6.33075">
        <ele>38.86</ele>
        <time>2021-03-20T14:55:49Z</time>
      </trkpt>
      <trkpt lat="57.68291" lon="-6.33105">
        <ele>39</ele>
        <time>2021-03-20T14:55:52Z</time>
      </trkpt>
      <trkpt lat="57.68292" lon="-6.33141">
        <ele>39.49</ele>
        <time>2021-03-20T14:55:55Z</time>
      </trkpt>
      <trkpt lat="57.68305" lon="-6.33383">
        <ele>40.17</ele>
        <time>2021-03-20T14:55:58Z</time>
      </trkpt>
      <trkpt lat="57.68305" lon="-6.33425">
        <ele>39.03</ele>
        <time>2021-03-20T14:56:02Z</time>
      </trkpt>
      <trkpt lat="57.68301" lon="-6.33465">
        <ele>37.87</ele>
        <time>2021-03-20T14:56:05Z</time>
      </trkpt>
      <trkpt lat="57.68275" lon="-6.33615">
        <ele>42.03</ele>
        <time>2021-03-20T14:56:08Z</time>
      </trkpt>
      <trkpt lat="57.68255" lon="-6.33831">
        <ele>37.28</ele>
        <time>2021-03-20T14:56:11Z</time>
      </trkpt>
      <trkpt lat="57.68247" lon="-6.33868">
        <ele>36.9</ele>
        <time>2021-03-20T14:56:15Z</time>
      </trkpt>
      <trkpt lat="57.68242" lon="-6.33883">
        <ele>38.08</ele>
        <time>2021-03-20T14:56:18Z</time>
      </trkpt>
      <trkpt lat="57.68231" lon="-6.33904">
        <ele>39.29</ele>
        <time>2021-03-20T14:56:21Z</time>
      </trkpt>
      <trkpt lat="57.68192" lon="-6.33961">
        <ele>42.7</ele>
        <time>2021-03-20T14:56:24Z</time>
      </trkpt>
      <trkpt lat="57.68148" lon="-6.34007">
        <ele>44.07</ele>
        <time>2021-03-20T14:56:27Z</time>
      </trkpt>
      <trkpt lat="57.68139" lon="-6.34023">
        <ele>44.15</ele>
        <time>2021-03-20T14:56:31Z</time>
      </trkpt>
      <trkpt lat="57.68132" lon="-6.34044">
        <ele>43.92</ele>
        <time>2021-03-20T14:56:34Z</time>
      </trkpt>
      <trkpt lat="57.6813" lon="-6.34066">
        <ele>43.26</ele>
        <time>2021-03-20T14:56:37Z</time>
      </trkpt>
      <trkpt lat="57.68132" lon="-6.34098">
        <ele>42.5</ele>
        <time>2021-03-20T14:56:40Z</time>
      </trkpt>
      <trkpt lat="57.68136" lon="-6.34117">
        <ele>42.21</ele>
        <time>2021-03-20T14:56:44Z</time>
      </trkpt>
      <trkpt lat="57.68181" lon="-6.34314">
        <ele>31.06</ele>
        <time>2021-03-20T14:56:47Z</time>
      </trkpt>
      <trkpt lat="57.68196" lon="-6.3437">
        <ele>28.69</ele>
        <time>2021-03-20T14:56:50Z</time>
      </trkpt>
      <trkpt lat="57.68204" lon="-6.34402">
        <ele>27.52</ele>
        <time>2021-03-20T14:56:53Z</time>
      </trkpt>
      <trkpt lat="57.68208" lon="-6.34437">
        <ele>26.62</ele>
        <time>2021-03-20T14:56:57Z</time>
      </trkpt>
      <trkpt lat="57.68207" lon="-6.34459">
        <ele>25.92</ele>
        <time>2021-03-20T14:57:00Z</time>
      </trkpt>
      <trkpt lat="57.68201" lon="-6.34482">
        <ele>24.95</ele>
        <time>2021-03-20T14:57:03Z</time>
      </trkpt>
      <trkpt lat="57.68194" lon="-6.34499">
        <ele>23.97</ele>
        <time>2021-03-20T14:57:06Z</time>
      </trkpt>
      <trkpt lat="57.68183" lon="-6.34513">
        <ele>21.91</ele>
        <time>2021-03-20T14:57:09Z</time>
      </trkpt>
      <trkpt lat="57.68165" lon="-6.34523">
        <ele>18.14</ele>
        <time>2021-03-20T14:57:13Z</time>
      </trkpt>
      <trkpt lat="57.68149" lon="-6.3452">
        <ele>14.92</ele>
        <time>2021-03-20T14:57:16Z</time>
      </trkpt>
      <trkpt lat="57.68138" lon="-6.34514">
        <ele>13.4</ele>
        <time>2021-03-20T14:57:19Z</time>
      </trkpt>
      <trkpt lat="57.68117" lon="-6.34496">
        <ele>12.2</ele>
        <time>2021-03-20T14:57:22Z</time>
      </trkpt>
      <trkpt lat="57.68077" lon="-6.34453">
        <ele>11.38</ele>
        <time>2021-03-20T14:57:26Z</time>
      </trkpt>
      <trkpt lat="57.68055" lon="-6.34439">
        <ele>10.4</ele>
        <time>2021-03-20T14:57:29Z</time>
      </trkpt>
      <trkpt lat="57.68036" lon="-6.34434">
        <ele>10.35</ele>
        <time>2021-03-20T14:57:32Z</time>
      </trkpt>
      <trkpt lat="57.68025" lon="-6.34434">
        <ele>10.18</ele>
        <time>2021-03-20T14:57:35Z</time>
      </trkpt>
      <trkpt lat="57.67901" lon="-6.34505">
        <ele>9.12</ele>
        <time>2021-03-20T14:57:39Z</time>
      </trkpt>
      <trkpt lat="57.67841" lon="-6.34556">
        <ele>7.72</ele>
        <time>2021-03-20T14:57:42Z</time>
      </trkpt>
      <trkpt lat="57.67687" lon="-6.34678">
        <ele>9.79</ele>
        <time>2021-03-20T14:57:45Z</time>
      </trkpt>
      <trkpt lat="57.67577" lon="-6.34798">
        <ele>17.4</ele>
        <time>2021-03-20T14:57:48Z</time>
      </trkpt>
      <trkpt lat="57.67556" lon="-6.34833">
        <ele>17.93</ele>
        <time>2021-03-20T14:57:51Z</time>
      </trkpt>
      <trkpt lat="57.67527" lon="-6.34918">
        <ele>17.1</ele>
        <time>2021-03-20T14:57:55Z</time>
      </trkpt>
      <trkpt lat="57.67507" lon="-6.34984">
        <ele>18.11</ele>
        <time>2021-03-20T14:57:58Z</time>
      </trkpt>
      <trkpt lat="57.67486" lon="-6.35034">
        <ele>19.37</ele>
        <time>2021-03-20T14:58:01Z</time>
      </trkpt>
      <trkpt lat="57.67445" lon="-6.35099">
        <ele>18.31</ele>
        <time>2021-03-20T14:58:04Z</time>
      </trkpt>
      <trkpt lat="57.67351" lon="-6.35235">
        <ele>15.97</ele>
        <time>2021-03-20T14:58:08Z</time>
      </trkpt>
      <trkpt lat="57.67331" lon="-6.35268">
        <ele>13.07</ele>
        <time>2021-03-20T14:58:11Z</time>
      </trkpt>
      <trkpt lat="57.67309" lon="-6.35293">
        <ele>11.47</ele>
        <time>2021-03-20T14:58:14Z</time>
      </trkpt>
      <trkpt lat="57.67281" lon="-6.35306">
        <ele>10.88</ele>
        <time>2021-03-20T14:58:17Z</time>
      </trkpt>
      <trkpt lat="57.67252" lon="-6.35306">
        <ele>10.97</ele>
        <time>2021-03-20T14:58:21Z</time>
      </trkpt>
      <trkpt lat="57.67213" lon="-6.35299">
        <ele>11.74</ele>
        <time>2021-03-20T14:58:24Z</time>
      </trkpt>
      <trkpt lat="57.67128" lon="-6.35291">
        <ele>15.6</ele>
        <time>2021-03-20T14:58:27Z</time>
      </trkpt>
      <trkpt lat="57.67104" lon="-6.35292">
        <ele>16.45</ele>
        <time>2021-03-20T14:58:30Z</time>
      </trkpt>
      <trkpt lat="57.67037" lon="-6.35317">
        <ele>24.1</ele>
        <time>2021-03-20T14:58:34Z</time>
      </trkpt>
      <trkpt lat="57.67003" lon="-6.35348">
        <ele>28.04</ele>
        <time>2021-03-20T14:58:37Z</time>
      </trkpt>
      <trkpt lat="57.66917" lon="-6.35403">
        <ele>36.43</ele>
        <time>2021-03-20T14:58:40Z</time>
      </trkpt>
      <trkpt lat="57.66901" lon="-6.3542">
        <ele>38.74</ele>
        <time>2021-03-20T14:58:43Z</time>
      </trkpt>
      <trkpt lat="57.66884" lon="-6.35441">
        <ele>40.67</ele>
        <time>2021-03-20T14:58:46Z</time>
      </trkpt>
      <trkpt lat="57.6684" lon="-6.35537">
        <ele>38.43</ele>
        <time>2021-03-20T14:58:50Z</time>
      </trkpt>
      <trkpt lat="57.66803" lon="-6.356">
        <ele>42.82</ele>
        <time>2021-03-20T14:58:53Z</time>
      </trkpt>
      <trkpt lat="57.66732" lon="-6.3567">
        <ele>48.09</ele>
        <time>2021-03-20T14:58:56Z</time>
      </trkpt>
      <trkpt lat="57.66627" lon="-6.35785">
        <ele>45.69</ele>
        <time>2021-03-20T14:58:59Z</time>
      </trkpt>
      <trkpt lat="57.66607" lon="-6.35817">
        <ele>48.18</ele>
        <time>2021-03-20T14:59:03Z</time>
      </trkpt>
      <trkpt lat="57.66567" lon="-6.35928">
        <ele>51.74</ele>
        <time>2021-03-20T14:59:06Z</time>
      </trkpt>
      <trkpt lat="57.66549" lon="-6.35962">
        <ele>52.78</ele>
        <time>2021-03-20T14:59:09Z</time>
      </trkpt>
      <trkpt lat="57.66513" lon="-6.3602">
        <ele>53.29</ele>
        <time>2021-03-20T14:59:12Z</time>
      </trkpt>
      <trkpt lat="57.66506" lon="-6.36027">
        <ele>53.96</ele>
        <time>2021-03-20T14:59:16Z</time>
      </trkpt>
      <trkpt lat="57.66487" lon="-6.36034">
        <ele>57.38</ele>
        <time>2021-03-20T14:59:19Z</time>
      </trkpt>
      <trkpt lat="57.6647" lon="-6.36054">
        <ele>59.95</ele>
        <time>2021-03-20T14:59:22Z</time>
      </trkpt>
      <trkpt lat="57.66464" lon="-6.36065">
        <ele>61.28</ele>
        <time>2021-03-20T14:59:25Z</time>
      </trkpt>
      <trkpt lat="57.66457" lon="-6.36082">
        <ele>62.57</ele>
        <time>2021-03-20T14:59:28Z</time>
      </trkpt>
      <trkpt lat="57.66443" lon="-6.36133">
        <ele>64.18</ele>
        <time>2021-03-20T14:59:32Z</time>
      </trkpt>
      <trkpt lat="57.6643" lon="-6.36171">
        <ele>65.61</ele>
        <time>2021-03-20T14:59:35Z</time>
      </trkpt>
      <trkpt lat="57.66391" lon="-6.36254">
        <ele>75.89</ele>
        <time>2021-03-20T14:59:38Z</time>
      </trkpt>
      <trkpt lat="57.66381" lon="-6.3628">
        <ele>75.84</ele>
        <time>2021-03-20T14:59:41Z</time>
      </trkpt>
      <trkpt lat="57.66347" lon="-6.36418">
        <ele>76.84</ele>
        <time>2021-03-20T14:59:45Z</time>
      </trkpt>
      <trkpt lat="57.6634" lon="-6.36457">
        <ele>76.91</ele>
        <time>2021-03-20T14:59:48Z</time>
      </trkpt>
      <trkpt lat="57.66334" lon="-6.3648">
        <ele>78.19</ele>
        <time>2021-03-20T14:59:51Z</time>
      </trkpt>
      <trkpt lat="57.66327" lon="-6.36498">
        <ele>78.54</ele>
        <time>2021-03-20T14:59:54Z</time>
      </trkpt>
      <trkpt lat="57.66283" lon="-6.36586">
        <ele>80.03</ele>
        <time>2021-03-20T14:59:58Z</time>
      </trkpt>
      <trkpt lat="57.66273" lon="-6.36599">
        <ele>80.77</ele>
        <time>2021-03-20T15:00:01Z</time>
      </trkpt>
      <trkpt lat="57.66236" lon="-6.36628">
        <ele>81.26</ele>
        <time>2021-03-20T15:00:04Z</time>
      </trkpt>
      <trkpt lat="57.66211" lon="-6.36664">
        <ele>80.04</ele>
        <time>2021-03-20T15:00:07Z</time>
      </trkpt>
      <trkpt lat="57.66174" lon="-6.36733">
        <ele>80.44</ele>
        <time>2021-03-20T15:00:11Z</time>
      </trkpt>
      <trkpt lat="57.66141" lon="-6.36805">
        <ele>79.92</ele>
        <time>2021-03-20T15:00:14Z</time>
      </trkpt>
      <trkpt lat="57.66083" lon="-6.36955">
        <ele>77.29</ele>
        <time>2021-03-20T15:00:17Z</time>
      </trkpt>
      <trkpt lat="57.66002" lon="-6.37177">
        <ele>73.46</ele>
        <time>2021-03-20T15:00:20Z</time>
      </trkpt>
      <trkpt lat="57.65981" lon="-6.37221">
        <ele>74.36</ele>
        <time>2021-03-20T15:00:23Z</time>
      </trkpt>
      <trkpt lat="57.65927" lon="-6.37309">
        <ele>73.38</ele>
        <time>2021-03-20T15:00:27Z</time>
      </trkpt>
      <trkpt lat="57.65914" lon="-6.37322">
        <ele>73.04</ele>
        <time>2021-03-20T15:00:30Z</time>
      </trkpt>
      <trkpt lat="57.65821" lon="-6.37397">
        <ele>70.41</ele>
        <time>2021-03-20T15:00:33Z</time>
      </trkpt>
      <trkpt lat="57.6578" lon="-6.37441">
        <ele>69.03</ele>
        <time>2021-03-20T15:00:36Z</time>
      </trkpt>
      <trkpt lat="57.65492" lon="-6.37823">
        <ele>62.3</ele>
        <time>2021-03-20T15:00:40Z</time>
      </trkpt>
      <trkpt lat="57.65393" lon="-6.37928">
        <ele>59.4</ele>
        <time>2021-03-20T15:00:43Z</time>
      </trkpt>
      <trkpt lat="57.65346" lon="-6.37974">
        <ele>57.93</ele>
        <time>2021-03-20T15:00:46Z</time>
      </trkpt>
      <trkpt lat="57.65307" lon="-6.37997">
        <ele>57.13</ele>
        <time>2021-03-20T15:00:49Z</time>
      </trkpt>
      <trkpt lat="57.65251" lon="-6.38015">
        <ele>53.96</ele>
        <time>2021-03-20T15:00:53Z</time>
      </trkpt>
      <trkpt lat="57.65193" lon="-6.38021">
        <ele>51.43</ele>
        <time>2021-03-20T15:00:56Z</time>
      </trkpt>
      <trkpt lat="57.64914" lon="-6.38024">
        <ele>49.11</ele>
        <time>2021-03-20T15:00:59Z</time>
      </trkpt>
      <trkpt lat="57.64886" lon="-6.3802">
        <ele>50</ele>
        <time>2021-03-20T15:01:02Z</time>
      </trkpt>
      <trkpt lat="57.64828" lon="-6.38018">
        <ele>50.57</ele>
        <time>2021-03-20T15:01:05Z</time>
      </trkpt>
      <trkpt lat="57.6473" lon="-6.37988">
        <ele>54.72</ele>
        <time>2021-03-20T15:01:09Z</time>
      </trkpt>
      <trkpt lat="57.64697" lon="-6.37974">
        <ele>55.91</ele>
        <time>2021-03-20T15:01:12Z</time>
      </trkpt>
      <trkpt lat="57.64242" lon="-6.37697">
        <ele>63</ele>
        <time>2021-03-20T15:01:15Z</time>
      </trkpt>
      <trkpt lat="57.64192" lon="-6.37675">
        <ele>64.06</ele>
        <time>2021-03-20T15:01:18Z</time>
      </trkpt>
      <trkpt lat="57.64138" lon="-6.37663">
        <ele>66.05</ele>
        <time>2021-03-20T15:01:22Z</time>
      </trkpt>
      <trkpt lat="57.63729" lon="-6.37633">
        <ele>77.36</ele>
        <time>2021-03-20T15:01:25Z</time>
      </trkpt>
      <trkpt lat="57.63673" lon="-6.37635">
        <ele>78.14</ele>
        <time>2021-03-20T15:01:28Z</time>
      </trkpt>
      <trkpt lat="57.63546" lon="-6.37647">
        <ele>79.79</ele>
        <time>2021-03-20T15:01:31Z</time>
      </trkpt>
      <trkpt lat="57.63496" lon="-6.37656">
        <ele>78.79</ele>
        <time>2021-03-20T15:01:35Z</time>
      </trkpt>
      <trkpt lat="57.63407" lon="-6.37684">
        <ele>77.46</ele>
        <time>2021-03-20T15:01:38Z</time>
      </trkpt>
      <trkpt lat="57.63284" lon="-6.37732">
        <ele>75.19</ele>
        <time>2021-03-20T15:01:41Z</time>
      </trkpt>
      <trkpt lat="57.63105" lon="-6.37815">
        <ele>71.29</ele>
        <time>2021-03-20T15:01:44Z</time>
      </trkpt>
      <trkpt lat="57.63026" lon="-6.37848">
        <ele>67.88</ele>
        <time>2021-03-20T15:01:47Z</time>
      </trkpt>
      <trkpt lat="57.62991" lon="-6.37846">
        <ele>66.75</ele>
        <time>2021-03-20T15:01:51Z</time>
      </trkpt>
      <trkpt lat="57.62868" lon="-6.37808">
        <ele>59.15</ele>
        <time>2021-03-20T15:01:54Z</time>
      </trkpt>
      <trkpt lat="57.62723" lon="-6.37768">
        <ele>57.38</ele>
        <time>2021-03-20T15:01:57Z</time>
      </trkpt>
      <trkpt lat="57.62671" lon="-6.37758">
        <ele>60.79</ele>
        <time>2021-03-20T15:02:00Z</time>
      </trkpt>
      <trkpt lat="57.62466" lon="-6.37732">
        <ele>57.84</ele>
        <time>2021-03-20T15:02:04Z</time>
      </trkpt>
      <trkpt lat="57.62412" lon="-6.37734">
        <ele>57.79</ele>
        <time>2021-03-20T15:02:07Z</time>
      </trkpt>
      <trkpt lat="57.62318" lon="-6.37746">
        <ele>58.09</ele>
        <time>2021-03-20T15:02:10Z</time>
      </trkpt>
      <trkpt lat="57.62262" lon="-6.37757">
        <ele>57.49</ele>
        <time>2021-03-20T15:02:13Z</time>
      </trkpt>
      <trkpt lat="57.62199" lon="-6.37767">
        <ele>52.84</ele>
        <time>2021-03-20T15:02:17Z</time>
      </trkpt>
      <trkpt lat="57.62184" lon="-6.37761">
        <ele>51.63</ele>
        <time>2021-03-20T15:02:20Z</time>
      </trkpt>
      <trkpt lat="57.62176" lon="-6.37749">
        <ele>51.05</ele>
        <time>2021-03-20T15:02:23Z</time>
      </trkpt>
      <trkpt lat="57.62168" lon="-6.37723">
        <ele>51.12</ele>
        <time>2021-03-20T15:02:26Z</time>
      </trkpt>
      <trkpt lat="57.62166" lon="-6.37677">
        <ele>51.53</ele>
        <time>2021-03-20T15:02:30Z</time>
      </trkpt>
      <trkpt lat="57.62169" lon="-6.37566">
        <ele>53.15</ele>
        <time>2021-03-20T15:02:33Z</time>
      </trkpt>
      <trkpt lat="57.62161" lon="-6.37519">
        <ele>52.72</ele>
        <time>2021-03-20T15:02:36Z</time>
      </trkpt>
      <trkpt lat="57.62146" lon="-6.37481">
        <ele>52.45</ele>
        <time>2021-03-20T15:02:39Z</time>
      </trkpt>
      <trkpt lat="57.62118" lon="-6.37444">
        <ele>51.48</ele>
        <time>2021-03-20T15:02:42Z</time>
      </trkpt>
      <trkpt lat="57.62068" lon="-6.37387">
        <ele>50.97</ele>
        <time>2021-03-20T15:02:46Z</time>
      </trkpt>
      <trkpt lat="57.62016" lon="-6.37336">
        <ele>49.47</ele>
        <time>2021-03-20T15:02:49Z</time>
      </trkpt>
      <trkpt lat="57.61988" lon="-6.37296">
        <ele>50.33</ele>
        <time>2021-03-20T15:02:52Z</time>
      </trkpt>
      <trkpt lat="57.61977" lon="-6.37284">
        <ele>50.77</ele>
        <time>2021-03-20T15:02:55Z</time>
      </trkpt>
      <trkpt lat="57.61964" lon="-6.37276">
        <ele>51</ele>
        <time>2021-03-20T15:02:59Z</time>
      </trkpt>
      <trkpt lat="57.61854" lon="-6.37218">
        <ele>52.75</ele>
        <time>2021-03-20T15:03:02Z</time>
      </trkpt>
      <trkpt lat="57.61794" lon="-6.372">
        <ele>50.92</ele>
        <time>2021-03-20T15:03:05Z</time>
      </trkpt>
      <trkpt lat="57.61702" lon="-6.37197">
        <ele>50.1</ele>
        <time>2021-03-20T15:03:08Z</time>
      </trkpt>
      <trkpt lat="57.61669" lon="-6.37179">
        <ele>50.26</ele>
        <time>2021-03-20T15:03:12Z</time>
      </trkpt>
      <trkpt lat="57.61617" lon="-6.3714">
        <ele>51.95</ele>
        <time>2021-03-20T15:03:15Z</time>
      </trkpt>
      <trkpt lat="57.6158" lon="-6.37124">
        <ele>53.71</ele>
        <time>2021-03-20T15:03:18Z</time>
      </trkpt>
      <trkpt lat="57.61557" lon="-6.37121">
        <ele>54.93</ele>
        <time>2021-03-20T15:03:21Z</time>
      </trkpt>
      <trkpt lat="57.61534" lon="-6.37123">
        <ele>54.74</ele>
        <time>2021-03-20T15:03:24Z</time>
      </trkpt>
      <trkpt lat="57.61481" lon="-6.37117">
        <ele>57.92</ele>
        <time>2021-03-20T15:03:28Z</time>
      </trkpt>
      <trkpt lat="57.61393" lon="-6.37097">
        <ele>58.53</ele>
        <time>2021-03-20T15:03:31Z</time>
      </trkpt>
      <trkpt lat="57.61339" lon="-6.37092">
        <ele>61.97</ele>
        <time>2021-03-20T15:03:34Z</time>
      </trkpt>
      <trkpt lat="57.61285" lon="-6.37109">
        <ele>64.72</ele>
        <time>2021-03-20T15:03:37Z</time>
      </trkpt>
      <trkpt lat="57.61217" lon="-6.37151">
        <ele>67.85</ele>
        <time>2021-03-20T15:03:41Z</time>
      </trkpt>
      <trkpt lat="57.61146" lon="-6.37254">
        <ele>70.11</ele>
        <time>2021-03-20T15:03:44Z</time>
      </trkpt>
      <trkpt lat="57.61108" lon="-6.37299">
        <ele>72.99</ele>
        <time>2021-03-20T15:03:47Z</time>
      </trkpt>
      <trkpt lat="57.61079" lon="-6.37323">
        <ele>73.43</ele>
        <time>2021-03-20T15:03:50Z</time>
      </trkpt>
      <trkpt lat="57.60994" lon="-6.3737">
        <ele>75.74</ele>
        <time>2021-03-20T15:03:54Z</time>
      </trkpt>
      <trkpt lat="57.60974" lon="-6.37375">
        <ele>77.31</ele>
        <time>2021-03-20T15:03:57Z</time>
      </trkpt>
      <trkpt lat="57.60835" lon="-6.374">
        <ele>82.34</ele>
        <time>2021-03-20T15:04:00Z</time>
      </trkpt>
      <trkpt lat="57.60785" lon="-6.37413">
        <ele>86.41</ele>
        <time>2021-03-20T15:04:03Z</time>
      </trkpt>
      <trkpt lat="57.6069" lon="-6.37474">
        <ele>90.29</ele>
        <time>2021-03-20T15:04:07Z</time>
      </trkpt>
      <trkpt lat="57.60633" lon="-6.37502">
        <ele>94.58</ele>
        <time>2021-03-20T15:04:10Z</time>
      </trkpt>
      <trkpt lat="57.60599" lon="-6.37523">
        <ele>96.61</ele>
        <time>2021-03-20T15:04:13Z</time>
      </trkpt>
      <trkpt lat="57.60531" lon="-6.37599">
        <ele>99.05</ele>
        <time>2021-03-20T15:04:16Z</time>
      </trkpt>
      <trkpt lat="57.60416" lon="-6.37687">
        <ele>104.16</ele>
        <time>2021-03-20T15:04:19Z</time>
      </trkpt>
      <trkpt lat="57.60375" lon="-6.37715">
        <ele>104.17</ele>
        <time>2021-03-20T15:04:23Z</time>
      </trkpt>
      <trkpt lat="57.60312" lon="-6.37749">
        <ele>105.62</ele>
        <time>2021-03-20T15:04:26Z</time>
      </trkpt>
      <trkpt lat="57.60234" lon="-6.37784">
        <ele>107.93</ele>
        <time>2021-03-20T15:04:29Z</time>
      </trkpt>
      <trkpt lat="57.60213" lon="-6.37789">
        <ele>107.88</ele>
        <time>2021-03-20T15:04:32Z</time>
      </trkpt>
      <trkpt lat="57.60206" lon="-6.3779">
        <ele>107.96</ele>
        <time>2021-03-20T15:04:36Z</time>
      </trkpt>
      <trkpt lat="57.60187" lon="-6.37783">
        <ele>108.08</ele>
        <time>2021-03-20T15:04:39Z</time>
      </trkpt>
      <trkpt lat="57.59946" lon="-6.3761">
        <ele>111.13</ele>
        <time>2021-03-20T15:04:42Z</time>
      </trkpt>
      <trkpt lat="57.59893" lon="-6.37591">
        <ele>110.73</ele>
        <time>2021-03-20T15:04:45Z</time>
      </trkpt>
      <trkpt lat="57.59823" lon="-6.37582">
        <ele>110.09</ele>
        <time>2021-03-20T15:04:49Z</time>
      </trkpt>
      <trkpt lat="57.59736" lon="-6.37564">
        <ele>110.54</ele>
        <time>2021-03-20T15:04:52Z</time>
      </trkpt>
      <trkpt lat="57.59696" lon="-6.37541">
        <ele>109.57</ele>
        <time>2021-03-20T15:04:55Z</time>
      </trkpt>
      <trkpt lat="57.59591" lon="-6.37466">
        <ele>107.47</ele>
        <time>2021-03-20T15:04:58Z</time>
      </trkpt>
      <trkpt lat="57.59503" lon="-6.37398">
        <ele>106.8</ele>
        <time>2021-03-20T15:05:01Z</time>
      </trkpt>
      <trkpt lat="57.59427" lon="-6.37333">
        <ele>103.38</ele>
        <time>2021-03-20T15:05:05Z</time>
      </trkpt>
      <trkpt lat="57.59405" lon="-6.37321">
        <ele>101.72</ele>
        <time>2021-03-20T15:05:08Z</time>
      </trkpt>
      <trkpt lat="57.59379" lon="-6.37323">
        <ele>98.82</ele>
        <time>2021-03-20T15:05:11Z</time>
      </trkpt>
      <trkpt lat="57.59356" lon="-6.37332">
        <ele>95.8</ele>
        <time>2021-03-20T15:05:14Z</time>
      </trkpt>
      <trkpt lat="57.59332" lon="-6.37351">
        <ele>91.66</ele>
        <time>2021-03-20T15:05:18Z</time>
      </trkpt>
      <trkpt lat="57.59317" lon="-6.37376">
        <ele>87.5</ele>
        <time>2021-03-20T15:05:21Z</time>
      </trkpt>
      <trkpt lat="57.59305" lon="-6.37403">
        <ele>86.24</ele>
        <time>2021-03-20T15:05:24Z</time>
      </trkpt>
      <trkpt lat="57.59291" lon="-6.37471">
        <ele>88.64</ele>
        <time>2021-03-20T15:05:27Z</time>
      </trkpt>
      <trkpt lat="57.59284" lon="-6.37494">
        <ele>89</ele>
        <time>2021-03-20T15:05:31Z</time>
      </trkpt>
      <trkpt lat="57.59244" lon="-6.3755">
        <ele>83.5</ele>
        <time>2021-03-20T15:05:34Z</time>
      </trkpt>
      <trkpt lat="57.59223" lon="-6.37589">
        <ele>81.45</ele>
        <time>2021-03-20T15:05:37Z</time>
      </trkpt>
      <trkpt lat="57.59173" lon="-6.37701">
        <ele>79.14</ele>
        <time>2021-03-20T15:05:40Z</time>
      </trkpt>
      <trkpt lat="57.59138" lon="-6.37769">
        <ele>75.34</ele>
        <time>2021-03-20T15:05:44Z</time>
      </trkpt>
      <trkpt lat="57.59082" lon="-6.37895">
        <ele>82.71</ele>
        <time>2021-03-20T15:05:47Z</time>
      </trkpt>
      <trkpt lat="57.59061" lon="-6.37938">
        <ele>81.76</ele>
        <time>2021-03-20T15:05:50Z</time>
      </trkpt>
      <trkpt lat="57.59052" lon="-6.37949">
        <ele>80.33</ele>
        <time>2021-03-20T15:05:53Z</time>
      </trkpt>
      <trkpt lat="57.59049" lon="-6.37945">
        <ele>78.18</ele>
        <time>2021-03-20T15:05:56Z</time>
      </trkpt>
      <trkpt lat="57.59049" lon="-6.37936">
        <ele>76.52</ele>
        <time>2021-03-20T15:06:00Z</time>
      </trkpt>
      <trkpt lat="57.59053" lon="-6.37919">
        <ele>75</ele>
        <time>2021-03-20T15:06:03Z</time>
      </trkpt>
      <trkpt lat="57.59096" lon="-6.37819">
        <ele>71.57</ele>
        <time>2021-03-20T15:06:06Z</time>
      </trkpt>
      <trkpt lat="57.59155" lon="-6.3765">
        <ele>63.02</ele>
        <time>2021-03-20T15:06:09Z</time>
      </trkpt>
      <trkpt lat="57.59201" lon="-6.37497">
        <ele>58.05</ele>
        <time>2021-03-20T15:06:13Z</time>
      </trkpt>
      <trkpt lat="57.59214" lon="-6.37447">
        <ele>55.53</ele>
        <time>2021-03-20T15:06:16Z</time>
      </trkpt>
      <trkpt lat="57.59227" lon="-6.37366">
        <ele>54.59</ele>
        <time>2021-03-20T15:06:19Z</time>
      </trkpt>
      <trkpt lat="57.59233" lon="-6.37308">
        <ele>53.54</ele>
        <time>2021-03-20T15:06:22Z</time>
      </trkpt>
      <trkpt lat="57.59233" lon="-6.37252">
        <ele>51.09</ele>
        <time>2021-03-20T15:06:26Z</time>
      </trkpt>
      <trkpt lat="57.59232" lon="-6.37187">
        <ele>47.7</ele>
        <time>2021-03-20T15:06:29Z</time>
      </trkpt>
      <trkpt lat="57.59228" lon="-6.37141">
        <ele>45.66</ele>
        <time>2021-03-20T15:06:32Z</time>
      </trkpt>
      <trkpt lat="57.59214" lon="-6.37042">
        <ele>43.69</ele>
        <time>2021-03-20T15:06:35Z</time>
      </trkpt>
      <trkpt lat="57.59212" lon="-6.37018">
        <ele>43.21</ele>
        <time>2021-03-20T15:06:38Z</time>
      </trkpt>
      <trkpt lat="57.59212" lon="-6.36956">
        <ele>43.53</ele>
        <time>2021-03-20T15:06:42Z</time>
      </trkpt>
      <trkpt lat="57.59207" lon="-6.36872">
        <ele>40.49</ele>
        <time>2021-03-20T15:06:45Z</time>
      </trkpt>
      <trkpt lat="57.59189" lon="-6.36729">
        <ele>34.77</ele>
        <time>2021-03-20T15:06:48Z</time>
      </trkpt>
      <trkpt lat="57.59187" lon="-6.36684">
        <ele>32.41</ele>
        <time>2021-03-20T15:06:51Z</time>
      </trkpt>
      <trkpt lat="57.59189" lon="-6.36625">
        <ele>31.85</ele>
        <time>2021-03-20T15:06:55Z</time>
      </trkpt>
      <trkpt lat="57.59195" lon="-6.36538">
        <ele>29.37</ele>
        <time>2021-03-20T15:06:58Z</time>
      </trkpt>
      <trkpt lat="57.59201" lon="-6.36478">
        <ele>29.06</ele>
        <time>2021-03-20T15:07:01Z</time>
      </trkpt>
      <trkpt lat="57.5921" lon="-6.36417">
        <ele>29.33</ele>
        <time>2021-03-20T15:07:04Z</time>
      </trkpt>
      <trkpt lat="57.59215" lon="-6.36316">
        <ele>26.98</ele>
        <time>2021-03-20T15:07:08Z</time>
      </trkpt>
      <trkpt lat="57.59223" lon="-6.36237">
        <ele>22.9</ele>
        <time>2021-03-20T15:07:11Z</time>
      </trkpt>
      <trkpt lat="57.59232" lon="-6.36187">
        <ele>22.42</ele>
        <time>2021-03-20T15:07:14Z</time>
      </trkpt>
      <trkpt lat="57.59235" lon="-6.36147">
        <ele>22.51</ele>
        <time>2021-03-20T15:07:17Z</time>
      </trkpt>
      <trkpt lat="57.59234" lon="-6.36109">
        <ele>23.64</ele>
        <time>2021-03-20T15:07:20Z</time>
      </trkpt>
      <trkpt lat="57.59215" lon="-6.359">
        <ele>24.4</ele>
        <time>2021-03-20T15:07:24Z</time>
      </trkpt>
      <trkpt lat="57.59197" lon="-6.35899">
        <ele>21.47</ele>
        <time>2021-03-20T15:07:26Z</time>
      </trkpt>
      <trkpt lat="57.59193" lon="-6.35941">
        <ele>20.77</ele>
        <time>2021-03-20T15:07:33Z</time>
      </trkpt>
      <trkpt lat="57.5917" lon="-6.36074">
        <ele>18.96</ele>
        <time>2021-03-20T15:07:39Z</time>
      </trkpt>
      <trkpt lat="57.5917" lon="-6.36074">
        <ele>18.96</ele>
        <time>2021-03-20T15:07:39Z</time>
      </trkpt>
      <trkpt lat="57.59141" lon="-6.36247">
        <ele>11.33</ele>
        <time>2021-03-20T15:07:47Z</time>
      </trkpt>
      <trkpt lat="57.59123" lon="-6.36443">
        <ele>12.15</ele>
        <time>2021-03-20T15:07:54Z</time>
      </trkpt>
      <trkpt lat="57.59117" lon="-6.366">
        <ele>14.97</ele>
        <time>2021-03-20T15:08:02Z</time>
      </trkpt>
      <trkpt lat="57.59109" lon="-6.3675">
        <ele>13.55</ele>
        <time>2021-03-20T15:08:10Z</time>
      </trkpt>
      <trkpt lat="57.59098" lon="-6.36846">
        <ele>11.89</ele>
        <time>2021-03-20T15:08:17Z</time>
      </trkpt>
      <trkpt lat="57.59089" lon="-6.36909">
        <ele>11.52</ele>
        <time>2021-03-20T15:08:25Z</time>
      </trkpt>
      <trkpt lat="57.59078" lon="-6.3697">
        <ele>11.09</ele>
        <time>2021-03-20T15:08:33Z</time>
      </trkpt>
      <trkpt lat="57.59043" lon="-6.37101">
        <ele>8.81</ele>
        <time>2021-03-20T15:08:40Z</time>
      </trkpt>
      <trkpt lat="57.58997" lon="-6.37231">
        <ele>7.38</ele>
        <time>2021-03-20T15:08:48Z</time>
      </trkpt>
      <trkpt lat="57.58962" lon="-6.37312">
        <ele>7.99</ele>
        <time>2021-03-20T15:08:56Z</time>
      </trkpt>
      <trkpt lat="57.58918" lon="-6.37402">
        <ele>9.04</ele>
        <time>2021-03-20T15:09:03Z</time>
      </trkpt>
      <trkpt lat="57.58889" lon="-6.37454">
        <ele>7.26</ele>
        <time>2021-03-20T15:09:11Z</time>
      </trkpt>
      <trkpt lat="57.58889" lon="-6.37454">
        <ele>7.26</ele>
        <time>2021-03-20T15:09:11Z</time>
      </trkpt>
      <trkpt lat="57.58842" lon="-6.37521">
        <ele>8.12</ele>
        <time>2021-03-20T15:09:18Z</time>
      </trkpt>
      <trkpt lat="57.58808" lon="-6.37558">
        <ele>5.59</ele>
        <time>2021-03-20T15:09:26Z</time>
      </trkpt>
      <trkpt lat="57.58759" lon="-6.37613">
        <ele>6.35</ele>
        <time>2021-03-20T15:09:33Z</time>
      </trkpt>
      <trkpt lat="57.58683" lon="-6.37675">
        <ele>5.29</ele>
        <time>2021-03-20T15:09:41Z</time>
      </trkpt>
      <trkpt lat="57.58661" lon="-6.37687">
        <ele>5.58</ele>
        <time>2021-03-20T15:09:48Z</time>
      </trkpt>
      <trkpt lat="57.58649" lon="-6.37682">
        <ele>5.18</ele>
        <time>2021-03-20T15:09:56Z</time>
      </trkpt>
      <trkpt lat="57.5864" lon="-6.37664">
        <ele>4.9</ele>
        <time>2021-03-20T15:10:03Z</time>
      </trkpt>
      <trkpt lat="57.58636" lon="-6.37633">
        <ele>3.77</ele>
        <time>2021-03-20T15:10:11Z</time>
      </trkpt>
      <trkpt lat="57.58628" lon="-6.37574">
        <ele>2.87</ele>
        <time>2021-03-20T15:10:18Z</time>
      </trkpt>
      <trkpt lat="57.58602" lon="-6.37416">
        <ele>1</ele>
        <time>2021-03-20T15:10:26Z</time>
      </trkpt>
      <trkpt lat="57.586" lon="-6.37361">
        <ele>1</ele>
        <time>2021-03-20T15:10:33Z</time>
      </trkpt>
      <trkpt lat="57.58582" lon="-6.37238">
        <ele>1</ele>
        <time>2021-03-20T15:10:41Z</time>
      </trkpt>
      <trkpt lat="57.58568" lon="-6.37185">
        <ele>9.9</ele>
        <time>2021-03-20T15:10:48Z</time>
      </trkpt>
      <trkpt lat="57.58525" lon="-6.3718">
        <ele>6.88</ele>
        <time>2021-03-20T15:10:56Z</time>
      </trkpt>
      <trkpt lat="57.58518" lon="-6.37179">
        <ele>6.87</ele>
        <time>2021-03-20T15:16:06Z</time>
      </trkpt>
      <trkpt lat="57.58455" lon="-6.37124">
        <ele>6.87</ele>
        <time>2021-03-20T15:21:17Z</time>
      </trkpt>
      <trkpt lat="57.58369" lon="-6.37122">
        <ele>6.86</ele>
        <time>2021-03-20T15:26:27Z</time>
      </trkpt>
      <trkpt lat="57.58221" lon="-6.37204">
        <ele>6.85</ele>
        <time>2021-03-20T15:31:38Z</time>
      </trkpt>
      <trkpt lat="57.58142" lon="-6.37504">
        <ele>6.83</ele>
        <time>2021-03-20T15:36:48Z</time>
      </trkpt>
      <trkpt lat="57.581" lon="-6.38242">
        <ele>6.78</ele>
        <time>2021-03-20T15:41:58Z</time>
      </trkpt>
      <trkpt lat="57.58099" lon="-6.38881">
        <ele>6.74</ele>
        <time>2021-03-20T15:47:09Z</time>
      </trkpt>
      <trkpt lat="57.58265" lon="-6.40397">
        <ele>6.62</ele>
        <time>2021-03-20T15:52:19Z</time>
      </trkpt>
      <trkpt lat="57.5829" lon="-6.40513">
        <ele>6.61</ele>
        <time>2021-03-20T15:57:30Z</time>
      </trkpt>
      <trkpt lat="57.58326" lon="-6.40578">
        <ele>6.61</ele>
        <time>2021-03-20T16:02:40Z</time>
      </trkpt>
      <trkpt lat="57.62407" lon="-6.46096">
        <ele>6.1</ele>
        <time>2021-03-20T16:07:51Z</time>
      </trkpt>
      <trkpt lat="57.70426" lon="-6.55583">
        <ele>5.11</ele>
        <time>2021-03-20T16:13:01Z</time>
      </trkpt>
      <trkpt lat="57.75585" lon="-6.61535">
        <ele>4.48</ele>
        <time>2021-03-20T16:18:12Z</time>
      </trkpt>
      <trkpt lat="57.81642" lon="-6.68622">
        <ele>3.73</ele>
        <time>2021-03-20T16:23:22Z</time>
      </trkpt>
      <trkpt lat="57.85109" lon="-6.7256">
        <ele>3.31</ele>
        <time>2021-03-20T16:28:33Z</time>
      </trkpt>
      <trkpt lat="57.85938" lon="-6.74085">
        <ele>3.17</ele>
        <time>2021-03-20T16:33:43Z</time>
      </trkpt>
      <trkpt lat="57.87" lon="-6.75664">
        <ele>3.02</ele>
        <time>2021-03-20T16:38:54Z</time>
      </trkpt>
      <trkpt lat="57.87227" lon="-6.75932">
        <ele>2.99</ele>
        <time>2021-03-20T16:44:04Z</time>
      </trkpt>
      <trkpt lat="57.87475" lon="-6.76043">
        <ele>2.98</ele>
        <time>2021-03-20T16:49:14Z</time>
      </trkpt>
      <trkpt lat="57.88031" lon="-6.76067">
        <ele>2.95</ele>
        <time>2021-03-20T16:54:25Z</time>
      </trkpt>
      <trkpt lat="57.8834" lon="-6.76139">
        <ele>2.94</ele>
        <time>2021-03-20T16:59:35Z</time>
      </trkpt>
      <trkpt lat="57.88488" lon="-6.76222">
        <ele>2.93</ele>
        <time>2021-03-20T17:04:46Z</time>
      </trkpt>
      <trkpt lat="57.88628" lon="-6.76409">
        <ele>2.91</ele>
        <time>2021-03-20T17:09:56Z</time>
      </trkpt>
      <trkpt lat="57.89231" lon="-6.78351">
        <ele>2.75</ele>
        <time>2021-03-20T17:15:07Z</time>
      </trkpt>
      <trkpt lat="57.89463" lon="-6.79302">
        <ele>2.67</ele>
        <time>2021-03-20T17:20:17Z</time>
      </trkpt>
      <trkpt lat="57.89549" lon="-6.79545">
        <ele>2.65</ele>
        <time>2021-03-20T17:25:28Z</time>
      </trkpt>
      <trkpt lat="57.89705" lon="-6.79935">
        <ele>2.61</ele>
        <time>2021-03-20T17:30:38Z</time>
      </trkpt>
      <trkpt lat="57.89726" lon="-6.79989">
        <ele>2.37</ele>
        <time>2021-03-20T17:35:49Z</time>
      </trkpt>
      <trkpt lat="57.89736" lon="-6.79998">
        <ele>3.45</ele>
        <time>2021-03-20T17:40:59Z</time>
      </trkpt>
      <trkpt lat="57.89768" lon="-6.80008">
        <ele>7.66</ele>
        <time>2021-03-20T17:46:10Z</time>
      </trkpt>
      <trkpt lat="57.89767" lon="-6.80104">
        <ele>8.51</ele>
        <time>2021-03-20T17:46:14Z</time>
      </trkpt>
      <trkpt lat="57.89775" lon="-6.80205">
        <ele>7.36</ele>
        <time>2021-03-20T17:46:18Z</time>
      </trkpt>
      <trkpt lat="57.898" lon="-6.80337">
        <ele>7.01</ele>
        <time>2021-03-20T17:46:22Z</time>
      </trkpt>
      <trkpt lat="57.89802" lon="-6.80364">
        <ele>6.47</ele>
        <time>2021-03-20T17:46:26Z</time>
      </trkpt>
      <trkpt lat="57.89805" lon="-6.8045">
        <ele>5.75</ele>
        <time>2021-03-20T17:46:30Z</time>
      </trkpt>
      <trkpt lat="57.89809" lon="-6.80476">
        <ele>5.52</ele>
        <time>2021-03-20T17:46:34Z</time>
      </trkpt>
      <trkpt lat="57.89816" lon="-6.80498">
        <ele>6.52</ele>
        <time>2021-03-20T17:46:38Z</time>
      </trkpt>
      <trkpt lat="57.89822" lon="-6.80507">
        <ele>7.28</ele>
        <time>2021-03-20T17:46:43Z</time>
      </trkpt>
      <trkpt lat="57.89828" lon="-6.80508">
        <ele>8.04</ele>
        <time>2021-03-20T17:46:47Z</time>
      </trkpt>
      <trkpt lat="57.89833" lon="-6.80533">
        <ele>7.8</ele>
        <time>2021-03-20T17:46:48Z</time>
      </trkpt>
      <trkpt lat="57.89835" lon="-6.80558">
        <ele>7.22</ele>
        <time>2021-03-20T17:46:49Z</time>
      </trkpt>
      <trkpt lat="57.89834" lon="-6.80569">
        <ele>7.11</ele>
        <time>2021-03-20T17:46:50Z</time>
      </trkpt>
      <trkpt lat="57.89831" lon="-6.8058">
        <ele>7.05</ele>
        <time>2021-03-20T17:46:52Z</time>
      </trkpt>
      <trkpt lat="57.89826" lon="-6.80591">
        <ele>7.4</ele>
        <time>2021-03-20T17:46:53Z</time>
      </trkpt>
      <trkpt lat="57.8982" lon="-6.806">
        <ele>8.07</ele>
        <time>2021-03-20T17:46:54Z</time>
      </trkpt>
      <trkpt lat="57.89814" lon="-6.80613">
        <ele>9.35</ele>
        <time>2021-03-20T17:46:55Z</time>
      </trkpt>
      <trkpt lat="57.8983" lon="-6.80661">
        <ele>11.58</ele>
        <time>2021-03-20T17:46:59Z</time>
      </trkpt>
      <trkpt lat="57.8983" lon="-6.80661">
        <ele>11.58</ele>
        <time>2021-03-20T17:46:59Z</time>
      </trkpt>
      <trkpt lat="57.89843" lon="-6.80703">
        <ele>13.82</ele>
        <time>2021-03-20T17:47:04Z</time>
      </trkpt>
      <trkpt lat="57.89884" lon="-6.80845">
        <ele>18.77</ele>
        <time>2021-03-20T17:47:08Z</time>
      </trkpt>
      <trkpt lat="57.89897" lon="-6.80881">
        <ele>19.49</ele>
        <time>2021-03-20T17:47:13Z</time>
      </trkpt>
      <trkpt lat="57.89975" lon="-6.81026">
        <ele>10.14</ele>
        <time>2021-03-20T17:47:17Z</time>
      </trkpt>
      <trkpt lat="57.90053" lon="-6.81182">
        <ele>6.34</ele>
        <time>2021-03-20T17:47:22Z</time>
      </trkpt>
      <trkpt lat="57.9007" lon="-6.81221">
        <ele>7.58</ele>
        <time>2021-03-20T17:47:26Z</time>
      </trkpt>
      <trkpt lat="57.90111" lon="-6.81329">
        <ele>8.18</ele>
        <time>2021-03-20T17:47:31Z</time>
      </trkpt>
      <trkpt lat="57.90123" lon="-6.81353">
        <ele>7.68</ele>
        <time>2021-03-20T17:47:35Z</time>
      </trkpt>
      <trkpt lat="57.90209" lon="-6.81499">
        <ele>7.62</ele>
        <time>2021-03-20T17:47:40Z</time>
      </trkpt>
      <trkpt lat="57.90252" lon="-6.8157">
        <ele>8.27</ele>
        <time>2021-03-20T17:47:44Z</time>
      </trkpt>
      <trkpt lat="57.90261" lon="-6.81591">
        <ele>8.52</ele>
        <time>2021-03-20T17:47:49Z</time>
      </trkpt>
      <trkpt lat="57.90269" lon="-6.81618">
        <ele>8.33</ele>
        <time>2021-03-20T17:47:53Z</time>
      </trkpt>
      <trkpt lat="57.90344" lon="-6.81915">
        <ele>8.39</ele>
        <time>2021-03-20T17:47:58Z</time>
      </trkpt>
      <trkpt lat="57.9036" lon="-6.81969">
        <ele>10.86</ele>
        <time>2021-03-20T17:48:02Z</time>
      </trkpt>
      <trkpt lat="57.90375" lon="-6.82005">
        <ele>12.1</ele>
        <time>2021-03-20T17:48:06Z</time>
      </trkpt>
      <trkpt lat="57.90422" lon="-6.82089">
        <ele>14.57</ele>
        <time>2021-03-20T17:48:11Z</time>
      </trkpt>
      <trkpt lat="57.90439" lon="-6.82129">
        <ele>14.84</ele>
        <time>2021-03-20T17:48:15Z</time>
      </trkpt>
      <trkpt lat="57.90462" lon="-6.822">
        <ele>14.26</ele>
        <time>2021-03-20T17:48:20Z</time>
      </trkpt>
      <trkpt lat="57.9053" lon="-6.82421">
        <ele>17.19</ele>
        <time>2021-03-20T17:48:24Z</time>
      </trkpt>
      <trkpt lat="57.90583" lon="-6.82562">
        <ele>17.7</ele>
        <time>2021-03-20T17:48:29Z</time>
      </trkpt>
      <trkpt lat="57.90607" lon="-6.82636">
        <ele>18.44</ele>
        <time>2021-03-20T17:48:33Z</time>
      </trkpt>
      <trkpt lat="57.90639" lon="-6.82761">
        <ele>18.4</ele>
        <time>2021-03-20T17:48:38Z</time>
      </trkpt>
      <trkpt lat="57.9066" lon="-6.82862">
        <ele>17.11</ele>
        <time>2021-03-20T17:48:42Z</time>
      </trkpt>
      <trkpt lat="57.907" lon="-6.83121">
        <ele>16.61</ele>
        <time>2021-03-20T17:48:47Z</time>
      </trkpt>
      <trkpt lat="57.90713" lon="-6.83197">
        <ele>16.31</ele>
        <time>2021-03-20T17:48:51Z</time>
      </trkpt>
      <trkpt lat="57.9073" lon="-6.83254">
        <ele>15.97</ele>
        <time>2021-03-20T17:48:56Z</time>
      </trkpt>
      <trkpt lat="57.90799" lon="-6.83427">
        <ele>15.08</ele>
        <time>2021-03-20T17:49:00Z</time>
      </trkpt>
      <trkpt lat="57.90826" lon="-6.8351">
        <ele>12.63</ele>
        <time>2021-03-20T17:49:05Z</time>
      </trkpt>
      <trkpt lat="57.9085" lon="-6.83568">
        <ele>11.08</ele>
        <time>2021-03-20T17:49:09Z</time>
      </trkpt>
      <trkpt lat="57.90892" lon="-6.83642">
        <ele>10.91</ele>
        <time>2021-03-20T17:49:14Z</time>
      </trkpt>
      <trkpt lat="57.90908" lon="-6.83686">
        <ele>12.4</ele>
        <time>2021-03-20T17:49:18Z</time>
      </trkpt>
      <trkpt lat="57.90953" lon="-6.83877">
        <ele>11.15</ele>
        <time>2021-03-20T17:49:23Z</time>
      </trkpt>
      <trkpt lat="57.91012" lon="-6.84098">
        <ele>13.15</ele>
        <time>2021-03-20T17:49:27Z</time>
      </trkpt>
      <trkpt lat="57.91041" lon="-6.84174">
        <ele>13.47</ele>
        <time>2021-03-20T17:49:32Z</time>
      </trkpt>
      <trkpt lat="57.91053" lon="-6.84202">
        <ele>14.23</ele>
        <time>2021-03-20T17:49:36Z</time>
      </trkpt>
      <trkpt lat="57.91076" lon="-6.84245">
        <ele>15.86</ele>
        <time>2021-03-20T17:49:41Z</time>
      </trkpt>
      <trkpt lat="57.91142" lon="-6.84347">
        <ele>18.19</ele>
        <time>2021-03-20T17:49:45Z</time>
      </trkpt>
      <trkpt lat="57.91184" lon="-6.84406">
        <ele>21.36</ele>
        <time>2021-03-20T17:49:50Z</time>
      </trkpt>
      <trkpt lat="57.9122" lon="-6.84445">
        <ele>23.36</ele>
        <time>2021-03-20T17:49:54Z</time>
      </trkpt>
      <trkpt lat="57.91284" lon="-6.84507">
        <ele>21.88</ele>
        <time>2021-03-20T17:49:59Z</time>
      </trkpt>
      <trkpt lat="57.91366" lon="-6.84612">
        <ele>26</ele>
        <time>2021-03-20T17:50:03Z</time>
      </trkpt>
      <trkpt lat="57.91417" lon="-6.84666">
        <ele>26.16</ele>
        <time>2021-03-20T17:50:08Z</time>
      </trkpt>
      <trkpt lat="57.91545" lon="-6.84784">
        <ele>33.4</ele>
        <time>2021-03-20T17:50:12Z</time>
      </trkpt>
      <trkpt lat="57.91663" lon="-6.84904">
        <ele>43.64</ele>
        <time>2021-03-20T17:50:17Z</time>
      </trkpt>
      <trkpt lat="57.9168" lon="-6.84919">
        <ele>45.46</ele>
        <time>2021-03-20T17:50:21Z</time>
      </trkpt>
      <trkpt lat="57.91709" lon="-6.84938">
        <ele>48.16</ele>
        <time>2021-03-20T17:50:26Z</time>
      </trkpt>
      <trkpt lat="57.91734" lon="-6.84954">
        <ele>49.1</ele>
        <time>2021-03-20T17:50:30Z</time>
      </trkpt>
      <trkpt lat="57.9176" lon="-6.84962">
        <ele>49.51</ele>
        <time>2021-03-20T17:50:35Z</time>
      </trkpt>
      <trkpt lat="57.9188" lon="-6.84976">
        <ele>48.64</ele>
        <time>2021-03-20T17:50:39Z</time>
      </trkpt>
      <trkpt lat="57.91929" lon="-6.84978">
        <ele>46.9</ele>
        <time>2021-03-20T17:50:44Z</time>
      </trkpt>
      <trkpt lat="57.91972" lon="-6.84977">
        <ele>44.32</ele>
        <time>2021-03-20T17:50:48Z</time>
      </trkpt>
      <trkpt lat="57.92005" lon="-6.84967">
        <ele>43.52</ele>
        <time>2021-03-20T17:50:52Z</time>
      </trkpt>
      <trkpt lat="57.92049" lon="-6.84947">
        <ele>41.73</ele>
        <time>2021-03-20T17:50:57Z</time>
      </trkpt>
      <trkpt lat="57.92091" lon="-6.84915">
        <ele>39.33</ele>
        <time>2021-03-20T17:51:01Z</time>
      </trkpt>
      <trkpt lat="57.92241" lon="-6.84763">
        <ele>36.72</ele>
        <time>2021-03-20T17:51:06Z</time>
      </trkpt>
      <trkpt lat="57.92268" lon="-6.84741">
        <ele>36.15</ele>
        <time>2021-03-20T17:51:10Z</time>
      </trkpt>
      <trkpt lat="57.92298" lon="-6.84722">
        <ele>34.96</ele>
        <time>2021-03-20T17:51:15Z</time>
      </trkpt>
      <trkpt lat="57.92327" lon="-6.84709">
        <ele>34.42</ele>
        <time>2021-03-20T17:51:19Z</time>
      </trkpt>
      <trkpt lat="57.92386" lon="-6.84691">
        <ele>35.38</ele>
        <time>2021-03-20T17:51:24Z</time>
      </trkpt>
      <trkpt lat="57.92416" lon="-6.8469">
        <ele>34.48</ele>
        <time>2021-03-20T17:51:28Z</time>
      </trkpt>
      <trkpt lat="57.9244" lon="-6.84693">
        <ele>34.09</ele>
        <time>2021-03-20T17:51:33Z</time>
      </trkpt>
      <trkpt lat="57.92454" lon="-6.84691">
        <ele>33.89</ele>
        <time>2021-03-20T17:51:37Z</time>
      </trkpt>
      <trkpt lat="57.92493" lon="-6.84671">
        <ele>32.42</ele>
        <time>2021-03-20T17:51:42Z</time>
      </trkpt>
      <trkpt lat="57.9251" lon="-6.84658">
        <ele>30.72</ele>
        <time>2021-03-20T17:51:46Z</time>
      </trkpt>
      <trkpt lat="57.92555" lon="-6.84587">
        <ele>28.76</ele>
        <time>2021-03-20T17:51:51Z</time>
      </trkpt>
      <trkpt lat="57.92618" lon="-6.84463">
        <ele>24.03</ele>
        <time>2021-03-20T17:51:55Z</time>
      </trkpt>
      <trkpt lat="57.92644" lon="-6.84396">
        <ele>22.52</ele>
        <time>2021-03-20T17:52:00Z</time>
      </trkpt>
      <trkpt lat="57.92664" lon="-6.84318">
        <ele>22.3</ele>
        <time>2021-03-20T17:52:04Z</time>
      </trkpt>
      <trkpt lat="57.9272" lon="-6.84031">
        <ele>19.54</ele>
        <time>2021-03-20T17:52:09Z</time>
      </trkpt>
      <trkpt lat="57.92729" lon="-6.83977">
        <ele>18.93</ele>
        <time>2021-03-20T17:52:13Z</time>
      </trkpt>
      <trkpt lat="57.92759" lon="-6.83698">
        <ele>22.58</ele>
        <time>2021-03-20T17:52:18Z</time>
      </trkpt>
      <trkpt lat="57.92767" lon="-6.8365">
        <ele>23.38</ele>
        <time>2021-03-20T17:52:22Z</time>
      </trkpt>
      <trkpt lat="57.92782" lon="-6.83573">
        <ele>24.39</ele>
        <time>2021-03-20T17:52:27Z</time>
      </trkpt>
      <trkpt lat="57.92809" lon="-6.83487">
        <ele>31.48</ele>
        <time>2021-03-20T17:52:31Z</time>
      </trkpt>
      <trkpt lat="57.92845" lon="-6.83406">
        <ele>41.59</ele>
        <time>2021-03-20T17:52:36Z</time>
      </trkpt>
      <trkpt lat="57.92892" lon="-6.83335">
        <ele>49.98</ele>
        <time>2021-03-20T17:52:40Z</time>
      </trkpt>
      <trkpt lat="57.93078" lon="-6.83107">
        <ele>75.47</ele>
        <time>2021-03-20T17:52:45Z</time>
      </trkpt>
      <trkpt lat="57.9313" lon="-6.83052">
        <ele>82.15</ele>
        <time>2021-03-20T17:52:49Z</time>
      </trkpt>
      <trkpt lat="57.93176" lon="-6.8301">
        <ele>86.06</ele>
        <time>2021-03-20T17:52:54Z</time>
      </trkpt>
      <trkpt lat="57.93216" lon="-6.82986">
        <ele>89.07</ele>
        <time>2021-03-20T17:52:58Z</time>
      </trkpt>
      <trkpt lat="57.93243" lon="-6.82978">
        <ele>90.97</ele>
        <time>2021-03-20T17:53:03Z</time>
      </trkpt>
      <trkpt lat="57.93265" lon="-6.82975">
        <ele>92.71</ele>
        <time>2021-03-20T17:53:07Z</time>
      </trkpt>
      <trkpt lat="57.93331" lon="-6.82989">
        <ele>95.38</ele>
        <time>2021-03-20T17:53:12Z</time>
      </trkpt>
      <trkpt lat="57.93525" lon="-6.82958">
        <ele>116.5</ele>
        <time>2021-03-20T17:53:16Z</time>
      </trkpt>
      <trkpt lat="57.93554" lon="-6.82945">
        <ele>120.83</ele>
        <time>2021-03-20T17:53:21Z</time>
      </trkpt>
      <trkpt lat="57.93578" lon="-6.82925">
        <ele>124.47</ele>
        <time>2021-03-20T17:53:25Z</time>
      </trkpt>
      <trkpt lat="57.93666" lon="-6.82813">
        <ele>133.18</ele>
        <time>2021-03-20T17:53:29Z</time>
      </trkpt>
      <trkpt lat="57.93726" lon="-6.82732">
        <ele>140.84</ele>
        <time>2021-03-20T17:53:34Z</time>
      </trkpt>
      <trkpt lat="57.93726" lon="-6.82732">
        <ele>140.84</ele>
        <time>2021-03-20T17:53:34Z</time>
      </trkpt>
      <trkpt lat="57.93881" lon="-6.82514">
        <ele>143.29</ele>
        <time>2021-03-20T17:53:37Z</time>
      </trkpt>
      <trkpt lat="57.93913" lon="-6.82466">
        <ele>145.5</ele>
        <time>2021-03-20T17:53:40Z</time>
      </trkpt>
      <trkpt lat="57.93943" lon="-6.82412">
        <ele>146.58</ele>
        <time>2021-03-20T17:53:44Z</time>
      </trkpt>
      <trkpt lat="57.93962" lon="-6.82373">
        <ele>147.56</ele>
        <time>2021-03-20T17:53:47Z</time>
      </trkpt>
      <trkpt lat="57.93998" lon="-6.82283">
        <ele>148.91</ele>
        <time>2021-03-20T17:53:50Z</time>
      </trkpt>
      <trkpt lat="57.94076" lon="-6.82024">
        <ele>151.65</ele>
        <time>2021-03-20T17:53:53Z</time>
      </trkpt>
      <trkpt lat="57.94095" lon="-6.8197">
        <ele>151.29</ele>
        <time>2021-03-20T17:53:56Z</time>
      </trkpt>
      <trkpt lat="57.94125" lon="-6.81899">
        <ele>150.99</ele>
        <time>2021-03-20T17:54:00Z</time>
      </trkpt>
      <trkpt lat="57.9414" lon="-6.81866">
        <ele>151.46</ele>
        <time>2021-03-20T17:54:03Z</time>
      </trkpt>
      <trkpt lat="57.94159" lon="-6.81832">
        <ele>152.67</ele>
        <time>2021-03-20T17:54:06Z</time>
      </trkpt>
      <trkpt lat="57.94198" lon="-6.81774">
        <ele>151.59</ele>
        <time>2021-03-20T17:54:09Z</time>
      </trkpt>
      <trkpt lat="57.94224" lon="-6.8174">
        <ele>152.11</ele>
        <time>2021-03-20T17:54:13Z</time>
      </trkpt>
      <trkpt lat="57.94306" lon="-6.81642">
        <ele>153.31</ele>
        <time>2021-03-20T17:54:16Z</time>
      </trkpt>
      <trkpt lat="57.94328" lon="-6.81613">
        <ele>153.42</ele>
        <time>2021-03-20T17:54:19Z</time>
      </trkpt>
      <trkpt lat="57.94364" lon="-6.81557">
        <ele>157.06</ele>
        <time>2021-03-20T17:54:22Z</time>
      </trkpt>
      <trkpt lat="57.94392" lon="-6.81493">
        <ele>157.65</ele>
        <time>2021-03-20T17:54:25Z</time>
      </trkpt>
      <trkpt lat="57.94426" lon="-6.81399">
        <ele>162.77</ele>
        <time>2021-03-20T17:54:29Z</time>
      </trkpt>
      <trkpt lat="57.9446" lon="-6.81287">
        <ele>168.36</ele>
        <time>2021-03-20T17:54:32Z</time>
      </trkpt>
      <trkpt lat="57.94481" lon="-6.81193">
        <ele>170.55</ele>
        <time>2021-03-20T17:54:35Z</time>
      </trkpt>
      <trkpt lat="57.94491" lon="-6.81112">
        <ele>171.3</ele>
        <time>2021-03-20T17:54:38Z</time>
      </trkpt>
      <trkpt lat="57.94495" lon="-6.81054">
        <ele>172.77</ele>
        <time>2021-03-20T17:54:41Z</time>
      </trkpt>
      <trkpt lat="57.94496" lon="-6.80981">
        <ele>175.72</ele>
        <time>2021-03-20T17:54:45Z</time>
      </trkpt>
      <trkpt lat="57.94495" lon="-6.80831">
        <ele>179.33</ele>
        <time>2021-03-20T17:54:48Z</time>
      </trkpt>
      <trkpt lat="57.94497" lon="-6.80713">
        <ele>183.39</ele>
        <time>2021-03-20T17:54:51Z</time>
      </trkpt>
      <trkpt lat="57.94508" lon="-6.80553">
        <ele>185.41</ele>
        <time>2021-03-20T17:54:54Z</time>
      </trkpt>
      <trkpt lat="57.94516" lon="-6.80422">
        <ele>188.08</ele>
        <time>2021-03-20T17:54:57Z</time>
      </trkpt>
      <trkpt lat="57.94519" lon="-6.80313">
        <ele>191.58</ele>
        <time>2021-03-20T17:55:01Z</time>
      </trkpt>
      <trkpt lat="57.94519" lon="-6.80187">
        <ele>194.71</ele>
        <time>2021-03-20T17:55:04Z</time>
      </trkpt>
      <trkpt lat="57.94442" lon="-6.79317">
        <ele>186</ele>
        <time>2021-03-20T17:55:07Z</time>
      </trkpt>
      <trkpt lat="57.9443" lon="-6.79212">
        <ele>186.81</ele>
        <time>2021-03-20T17:55:10Z</time>
      </trkpt>
      <trkpt lat="57.94422" lon="-6.79105">
        <ele>183.59</ele>
        <time>2021-03-20T17:55:14Z</time>
      </trkpt>
      <trkpt lat="57.94417" lon="-6.79015">
        <ele>180.54</ele>
        <time>2021-03-20T17:55:17Z</time>
      </trkpt>
      <trkpt lat="57.94417" lon="-6.78911">
        <ele>177.79</ele>
        <time>2021-03-20T17:55:20Z</time>
      </trkpt>
      <trkpt lat="57.94422" lon="-6.78828">
        <ele>177</ele>
        <time>2021-03-20T17:55:23Z</time>
      </trkpt>
      <trkpt lat="57.9443" lon="-6.78753">
        <ele>177.5</ele>
        <time>2021-03-20T17:55:26Z</time>
      </trkpt>
      <trkpt lat="57.9444" lon="-6.78693">
        <ele>177.79</ele>
        <time>2021-03-20T17:55:30Z</time>
      </trkpt>
      <trkpt lat="57.94451" lon="-6.78637">
        <ele>176.15</ele>
        <time>2021-03-20T17:55:33Z</time>
      </trkpt>
      <trkpt lat="57.94472" lon="-6.78552">
        <ele>174.9</ele>
        <time>2021-03-20T17:55:36Z</time>
      </trkpt>
      <trkpt lat="57.94494" lon="-6.78486">
        <ele>173.65</ele>
        <time>2021-03-20T17:55:39Z</time>
      </trkpt>
      <trkpt lat="57.9454" lon="-6.78372">
        <ele>167.89</ele>
        <time>2021-03-20T17:55:42Z</time>
      </trkpt>
      <trkpt lat="57.94575" lon="-6.78289">
        <ele>164.37</ele>
        <time>2021-03-20T17:55:46Z</time>
      </trkpt>
      <trkpt lat="57.94599" lon="-6.78241">
        <ele>163.08</ele>
        <time>2021-03-20T17:55:49Z</time>
      </trkpt>
      <trkpt lat="57.94621" lon="-6.782">
        <ele>162.55</ele>
        <time>2021-03-20T17:55:52Z</time>
      </trkpt>
      <trkpt lat="57.9466" lon="-6.78141">
        <ele>160.85</ele>
        <time>2021-03-20T17:55:55Z</time>
      </trkpt>
      <trkpt lat="57.94672" lon="-6.78126">
        <ele>160.88</ele>
        <time>2021-03-20T17:55:58Z</time>
      </trkpt>
      <trkpt lat="57.94715" lon="-6.78076">
        <ele>161.31</ele>
        <time>2021-03-20T17:56:02Z</time>
      </trkpt>
      <trkpt lat="57.94741" lon="-6.78053">
        <ele>159.92</ele>
        <time>2021-03-20T17:56:05Z</time>
      </trkpt>
      <trkpt lat="57.94766" lon="-6.78035">
        <ele>159.26</ele>
        <time>2021-03-20T17:56:08Z</time>
      </trkpt>
      <trkpt lat="57.94898" lon="-6.77969">
        <ele>157.82</ele>
        <time>2021-03-20T17:56:11Z</time>
      </trkpt>
      <trkpt lat="57.94947" lon="-6.77942">
        <ele>157.92</ele>
        <time>2021-03-20T17:56:15Z</time>
      </trkpt>
      <trkpt lat="57.94991" lon="-6.77914">
        <ele>156.85</ele>
        <time>2021-03-20T17:56:18Z</time>
      </trkpt>
      <trkpt lat="57.95037" lon="-6.77878">
        <ele>156.34</ele>
        <time>2021-03-20T17:56:21Z</time>
      </trkpt>
      <trkpt lat="57.95079" lon="-6.77842">
        <ele>155.44</ele>
        <time>2021-03-20T17:56:24Z</time>
      </trkpt>
      <trkpt lat="57.95131" lon="-6.77791">
        <ele>153.46</ele>
        <time>2021-03-20T17:56:27Z</time>
      </trkpt>
      <trkpt lat="57.95221" lon="-6.77684">
        <ele>152.14</ele>
        <time>2021-03-20T17:56:31Z</time>
      </trkpt>
      <trkpt lat="57.95268" lon="-6.77613">
        <ele>151.46</ele>
        <time>2021-03-20T17:56:34Z</time>
      </trkpt>
      <trkpt lat="57.95323" lon="-6.77522">
        <ele>151.59</ele>
        <time>2021-03-20T17:56:37Z</time>
      </trkpt>
      <trkpt lat="57.95361" lon="-6.77452">
        <ele>150.48</ele>
        <time>2021-03-20T17:56:40Z</time>
      </trkpt>
      <trkpt lat="57.95509" lon="-6.77141">
        <ele>149.36</ele>
        <time>2021-03-20T17:56:43Z</time>
      </trkpt>
      <trkpt lat="57.95563" lon="-6.77025">
        <ele>147.38</ele>
        <time>2021-03-20T17:56:47Z</time>
      </trkpt>
      <trkpt lat="57.95581" lon="-6.76978">
        <ele>146.29</ele>
        <time>2021-03-20T17:56:50Z</time>
      </trkpt>
      <trkpt lat="57.95601" lon="-6.7691">
        <ele>141.54</ele>
        <time>2021-03-20T17:56:53Z</time>
      </trkpt>
      <trkpt lat="57.9561" lon="-6.76869">
        <ele>139.97</ele>
        <time>2021-03-20T17:56:56Z</time>
      </trkpt>
      <trkpt lat="57.9562" lon="-6.76814">
        <ele>140.28</ele>
        <time>2021-03-20T17:56:59Z</time>
      </trkpt>
      <trkpt lat="57.95626" lon="-6.76764">
        <ele>141</ele>
        <time>2021-03-20T17:57:03Z</time>
      </trkpt>
      <trkpt lat="57.95631" lon="-6.76709">
        <ele>143.04</ele>
        <time>2021-03-20T17:57:06Z</time>
      </trkpt>
      <trkpt lat="57.95633" lon="-6.76653">
        <ele>145.03</ele>
        <time>2021-03-20T17:57:09Z</time>
      </trkpt>
      <trkpt lat="57.95632" lon="-6.76584">
        <ele>145.66</ele>
        <time>2021-03-20T17:57:12Z</time>
      </trkpt>
      <trkpt lat="57.95626" lon="-6.76519">
        <ele>144.63</ele>
        <time>2021-03-20T17:57:15Z</time>
      </trkpt>
      <trkpt lat="57.95608" lon="-6.76385">
        <ele>143.1</ele>
        <time>2021-03-20T17:57:19Z</time>
      </trkpt>
      <trkpt lat="57.95603" lon="-6.76313">
        <ele>142.72</ele>
        <time>2021-03-20T17:57:22Z</time>
      </trkpt>
      <trkpt lat="57.95602" lon="-6.76259">
        <ele>142.25</ele>
        <time>2021-03-20T17:57:25Z</time>
      </trkpt>
      <trkpt lat="57.95603" lon="-6.76135">
        <ele>142.64</ele>
        <time>2021-03-20T17:57:28Z</time>
      </trkpt>
      <trkpt lat="57.9561" lon="-6.76028">
        <ele>141.76</ele>
        <time>2021-03-20T17:57:32Z</time>
      </trkpt>
      <trkpt lat="57.95621" lon="-6.75946">
        <ele>138.98</ele>
        <time>2021-03-20T17:57:35Z</time>
      </trkpt>
      <trkpt lat="57.9563" lon="-6.75873">
        <ele>140.12</ele>
        <time>2021-03-20T17:57:38Z</time>
      </trkpt>
      <trkpt lat="57.95639" lon="-6.75758">
        <ele>141.12</ele>
        <time>2021-03-20T17:57:41Z</time>
      </trkpt>
      <trkpt lat="57.9566" lon="-6.75623">
        <ele>139.86</ele>
        <time>2021-03-20T17:57:44Z</time>
      </trkpt>
      <trkpt lat="57.95719" lon="-6.75269">
        <ele>141.79</ele>
        <time>2021-03-20T17:57:48Z</time>
      </trkpt>
      <trkpt lat="57.95734" lon="-6.75196">
        <ele>143.17</ele>
        <time>2021-03-20T17:57:51Z</time>
      </trkpt>
      <trkpt lat="57.95759" lon="-6.75096">
        <ele>142.6</ele>
        <time>2021-03-20T17:57:54Z</time>
      </trkpt>
      <trkpt lat="57.95787" lon="-6.75003">
        <ele>141.23</ele>
        <time>2021-03-20T17:57:57Z</time>
      </trkpt>
      <trkpt lat="57.9583" lon="-6.74872">
        <ele>140.14</ele>
        <time>2021-03-20T17:58:00Z</time>
      </trkpt>
      <trkpt lat="57.95862" lon="-6.74793">
        <ele>140.74</ele>
        <time>2021-03-20T17:58:04Z</time>
      </trkpt>
      <trkpt lat="57.959" lon="-6.74711">
        <ele>139.08</ele>
        <time>2021-03-20T17:58:07Z</time>
      </trkpt>
      <trkpt lat="57.95925" lon="-6.74665">
        <ele>140.69</ele>
        <time>2021-03-20T17:58:10Z</time>
      </trkpt>
      <trkpt lat="57.95947" lon="-6.74633">
        <ele>141.85</ele>
        <time>2021-03-20T17:58:13Z</time>
      </trkpt>
      <trkpt lat="57.9598" lon="-6.74595">
        <ele>144.52</ele>
        <time>2021-03-20T17:58:16Z</time>
      </trkpt>
      <trkpt lat="57.96027" lon="-6.74558">
        <ele>147.1</ele>
        <time>2021-03-20T17:58:20Z</time>
      </trkpt>
      <trkpt lat="57.96084" lon="-6.74528">
        <ele>147.01</ele>
        <time>2021-03-20T17:58:23Z</time>
      </trkpt>
      <trkpt lat="57.96186" lon="-6.74501">
        <ele>153.45</ele>
        <time>2021-03-20T17:58:26Z</time>
      </trkpt>
      <trkpt lat="57.96236" lon="-6.74493">
        <ele>157.38</ele>
        <time>2021-03-20T17:58:29Z</time>
      </trkpt>
      <trkpt lat="57.96282" lon="-6.74501">
        <ele>162.38</ele>
        <time>2021-03-20T17:58:33Z</time>
      </trkpt>
      <trkpt lat="57.96341" lon="-6.74517">
        <ele>166.66</ele>
        <time>2021-03-20T17:58:36Z</time>
      </trkpt>
      <trkpt lat="57.96389" lon="-6.74544">
        <ele>169.01</ele>
        <time>2021-03-20T17:58:39Z</time>
      </trkpt>
      <trkpt lat="57.96427" lon="-6.74571">
        <ele>170.18</ele>
        <time>2021-03-20T17:58:42Z</time>
      </trkpt>
      <trkpt lat="57.96485" lon="-6.74627">
        <ele>170.31</ele>
        <time>2021-03-20T17:58:45Z</time>
      </trkpt>
      <trkpt lat="57.96601" lon="-6.74756">
        <ele>163.66</ele>
        <time>2021-03-20T17:58:49Z</time>
      </trkpt>
      <trkpt lat="57.96751" lon="-6.74906">
        <ele>152.39</ele>
        <time>2021-03-20T17:58:52Z</time>
      </trkpt>
      <trkpt lat="57.96784" lon="-6.7493">
        <ele>151.3</ele>
        <time>2021-03-20T17:58:55Z</time>
      </trkpt>
      <trkpt lat="57.96792" lon="-6.74933">
        <ele>150.89</ele>
        <time>2021-03-20T17:58:58Z</time>
      </trkpt>
      <trkpt lat="57.96839" lon="-6.7496">
        <ele>149.11</ele>
        <time>2021-03-20T17:59:01Z</time>
      </trkpt>
      <trkpt lat="57.96899" lon="-6.74987">
        <ele>151.19</ele>
        <time>2021-03-20T17:59:05Z</time>
      </trkpt>
      <trkpt lat="57.96957" lon="-6.74995">
        <ele>154.16</ele>
        <time>2021-03-20T17:59:08Z</time>
      </trkpt>
      <trkpt lat="57.97011" lon="-6.74994">
        <ele>154.5</ele>
        <time>2021-03-20T17:59:11Z</time>
      </trkpt>
      <trkpt lat="57.97074" lon="-6.74981">
        <ele>151.41</ele>
        <time>2021-03-20T17:59:14Z</time>
      </trkpt>
      <trkpt lat="57.97247" lon="-6.74903">
        <ele>163.37</ele>
        <time>2021-03-20T17:59:17Z</time>
      </trkpt>
      <trkpt lat="57.97316" lon="-6.74884">
        <ele>170.68</ele>
        <time>2021-03-20T17:59:21Z</time>
      </trkpt>
      <trkpt lat="57.97723" lon="-6.74816">
        <ele>191</ele>
        <time>2021-03-20T17:59:24Z</time>
      </trkpt>
      <trkpt lat="57.97808" lon="-6.74811">
        <ele>189.19</ele>
        <time>2021-03-20T17:59:27Z</time>
      </trkpt>
      <trkpt lat="57.97856" lon="-6.74821">
        <ele>188.18</ele>
        <time>2021-03-20T17:59:30Z</time>
      </trkpt>
      <trkpt lat="57.97896" lon="-6.74835">
        <ele>189.58</ele>
        <time>2021-03-20T17:59:34Z</time>
      </trkpt>
      <trkpt lat="57.97961" lon="-6.74868">
        <ele>196.86</ele>
        <time>2021-03-20T17:59:37Z</time>
      </trkpt>
      <trkpt lat="57.98059" lon="-6.74946">
        <ele>200.03</ele>
        <time>2021-03-20T17:59:40Z</time>
      </trkpt>
      <trkpt lat="57.98147" lon="-6.75031">
        <ele>194.39</ele>
        <time>2021-03-20T17:59:43Z</time>
      </trkpt>
      <trkpt lat="57.9828" lon="-6.75146">
        <ele>177.71</ele>
        <time>2021-03-20T17:59:46Z</time>
      </trkpt>
      <trkpt lat="57.98304" lon="-6.75159">
        <ele>175.07</ele>
        <time>2021-03-20T17:59:50Z</time>
      </trkpt>
      <trkpt lat="57.98336" lon="-6.75165">
        <ele>173.09</ele>
        <time>2021-03-20T17:59:53Z</time>
      </trkpt>
      <trkpt lat="57.98368" lon="-6.75165">
        <ele>171.48</ele>
        <time>2021-03-20T17:59:56Z</time>
      </trkpt>
      <trkpt lat="57.98384" lon="-6.7516">
        <ele>170.17</ele>
        <time>2021-03-20T17:59:59Z</time>
      </trkpt>
      <trkpt lat="57.9846" lon="-6.75116">
        <ele>164.2</ele>
        <time>2021-03-20T18:00:02Z</time>
      </trkpt>
      <trkpt lat="57.9851" lon="-6.75073">
        <ele>160.9</ele>
        <time>2021-03-20T18:00:06Z</time>
      </trkpt>
      <trkpt lat="57.98544" lon="-6.75028">
        <ele>156.79</ele>
        <time>2021-03-20T18:00:09Z</time>
      </trkpt>
      <trkpt lat="57.98593" lon="-6.74958">
        <ele>148.77</ele>
        <time>2021-03-20T18:00:12Z</time>
      </trkpt>
      <trkpt lat="57.98607" lon="-6.74933">
        <ele>146.54</ele>
        <time>2021-03-20T18:00:15Z</time>
      </trkpt>
      <trkpt lat="57.98617" lon="-6.74893">
        <ele>145.56</ele>
        <time>2021-03-20T18:00:18Z</time>
      </trkpt>
      <trkpt lat="57.98625" lon="-6.74834">
        <ele>144.9</ele>
        <time>2021-03-20T18:00:22Z</time>
      </trkpt>
      <trkpt lat="57.9863" lon="-6.74812">
        <ele>143.96</ele>
        <time>2021-03-20T18:00:25Z</time>
      </trkpt>
      <trkpt lat="57.98641" lon="-6.74779">
        <ele>142.75</ele>
        <time>2021-03-20T18:00:28Z</time>
      </trkpt>
      <trkpt lat="57.98651" lon="-6.74761">
        <ele>141.67</ele>
        <time>2021-03-20T18:00:31Z</time>
      </trkpt>
      <trkpt lat="57.98664" lon="-6.74749">
        <ele>140.29</ele>
        <time>2021-03-20T18:00:35Z</time>
      </trkpt>
      <trkpt lat="57.98682" lon="-6.74742">
        <ele>138.69</ele>
        <time>2021-03-20T18:00:38Z</time>
      </trkpt>
      <trkpt lat="57.98696" lon="-6.74741">
        <ele>137.15</ele>
        <time>2021-03-20T18:00:41Z</time>
      </trkpt>
      <trkpt lat="57.98719" lon="-6.74748">
        <ele>134.43</ele>
        <time>2021-03-20T18:00:44Z</time>
      </trkpt>
      <trkpt lat="57.98804" lon="-6.74786">
        <ele>126.5</ele>
        <time>2021-03-20T18:00:47Z</time>
      </trkpt>
      <trkpt lat="57.98822" lon="-6.74805">
        <ele>125.76</ele>
        <time>2021-03-20T18:00:51Z</time>
      </trkpt>
      <trkpt lat="57.98837" lon="-6.74839">
        <ele>124.49</ele>
        <time>2021-03-20T18:00:54Z</time>
      </trkpt>
      <trkpt lat="57.98846" lon="-6.74876">
        <ele>122.15</ele>
        <time>2021-03-20T18:00:57Z</time>
      </trkpt>
      <trkpt lat="57.98846" lon="-6.74914">
        <ele>119.51</ele>
        <time>2021-03-20T18:01:00Z</time>
      </trkpt>
      <trkpt lat="57.98842" lon="-6.74949">
        <ele>118.48</ele>
        <time>2021-03-20T18:01:03Z</time>
      </trkpt>
      <trkpt lat="57.98832" lon="-6.74987">
        <ele>117.21</ele>
        <time>2021-03-20T18:01:07Z</time>
      </trkpt>
      <trkpt lat="57.9882" lon="-6.75017">
        <ele>116.66</ele>
        <time>2021-03-20T18:01:10Z</time>
      </trkpt>
      <trkpt lat="57.98778" lon="-6.75097">
        <ele>114</ele>
        <time>2021-03-20T18:01:13Z</time>
      </trkpt>
      <trkpt lat="57.98746" lon="-6.75169">
        <ele>111.29</ele>
        <time>2021-03-20T18:01:16Z</time>
      </trkpt>
      <trkpt lat="57.98724" lon="-6.75241">
        <ele>108.57</ele>
        <time>2021-03-20T18:01:19Z</time>
      </trkpt>
      <trkpt lat="57.98716" lon="-6.75273">
        <ele>107.05</ele>
        <time>2021-03-20T18:01:23Z</time>
      </trkpt>
      <trkpt lat="57.987" lon="-6.75378">
        <ele>101.69</ele>
        <time>2021-03-20T18:01:26Z</time>
      </trkpt>
      <trkpt lat="57.98656" lon="-6.75724">
        <ele>85.71</ele>
        <time>2021-03-20T18:01:29Z</time>
      </trkpt>
      <trkpt lat="57.9865" lon="-6.75787">
        <ele>83.87</ele>
        <time>2021-03-20T18:01:32Z</time>
      </trkpt>
      <trkpt lat="57.98644" lon="-6.76173">
        <ele>66.58</ele>
        <time>2021-03-20T18:01:36Z</time>
      </trkpt>
      <trkpt lat="57.98642" lon="-6.7635">
        <ele>60.77</ele>
        <time>2021-03-20T18:01:39Z</time>
      </trkpt>
      <trkpt lat="57.98637" lon="-6.76426">
        <ele>57.87</ele>
        <time>2021-03-20T18:01:42Z</time>
      </trkpt>
      <trkpt lat="57.98629" lon="-6.76516">
        <ele>53.73</ele>
        <time>2021-03-20T18:01:45Z</time>
      </trkpt>
      <trkpt lat="57.98629" lon="-6.76542">
        <ele>52.58</ele>
        <time>2021-03-20T18:01:48Z</time>
      </trkpt>
      <trkpt lat="57.98641" lon="-6.7659">
        <ele>50</ele>
        <time>2021-03-20T18:01:52Z</time>
      </trkpt>
      <trkpt lat="57.98664" lon="-6.7665">
        <ele>49.11</ele>
        <time>2021-03-20T18:01:55Z</time>
      </trkpt>
      <trkpt lat="57.98689" lon="-6.7671">
        <ele>48.19</ele>
        <time>2021-03-20T18:01:58Z</time>
      </trkpt>
      <trkpt lat="57.9872" lon="-6.76765">
        <ele>45.56</ele>
        <time>2021-03-20T18:02:01Z</time>
      </trkpt>
      <trkpt lat="57.98736" lon="-6.76783">
        <ele>43.79</ele>
        <time>2021-03-20T18:02:04Z</time>
      </trkpt>
      <trkpt lat="57.9878" lon="-6.76818">
        <ele>40.48</ele>
        <time>2021-03-20T18:02:08Z</time>
      </trkpt>
      <trkpt lat="57.98808" lon="-6.76837">
        <ele>38.77</ele>
        <time>2021-03-20T18:02:11Z</time>
      </trkpt>
      <trkpt lat="57.98847" lon="-6.76851">
        <ele>35.74</ele>
        <time>2021-03-20T18:02:14Z</time>
      </trkpt>
      <trkpt lat="57.98877" lon="-6.76853">
        <ele>33.81</ele>
        <time>2021-03-20T18:02:17Z</time>
      </trkpt>
      <trkpt lat="57.98905" lon="-6.76847">
        <ele>33.5</ele>
        <time>2021-03-20T18:02:20Z</time>
      </trkpt>
      <trkpt lat="57.9893" lon="-6.76837">
        <ele>34.12</ele>
        <time>2021-03-20T18:02:24Z</time>
      </trkpt>
      <trkpt lat="57.98975" lon="-6.76773">
        <ele>33.82</ele>
        <time>2021-03-20T18:02:26Z</time>
      </trkpt>
      <trkpt lat="57.98991" lon="-6.76757">
        <ele>33.33</ele>
        <time>2021-03-20T18:02:29Z</time>
      </trkpt>
      <trkpt lat="57.99002" lon="-6.76751">
        <ele>33.08</ele>
        <time>2021-03-20T18:02:32Z</time>
      </trkpt>
      <trkpt lat="57.99014" lon="-6.76749">
        <ele>32.9</ele>
        <time>2021-03-20T18:02:34Z</time>
      </trkpt>
      <trkpt lat="57.99029" lon="-6.76753">
        <ele>33.4</ele>
        <time>2021-03-20T18:02:37Z</time>
      </trkpt>
      <trkpt lat="57.99056" lon="-6.76729">
        <ele>31.73</ele>
        <time>2021-03-20T18:02:40Z</time>
      </trkpt>
      <trkpt lat="57.99081" lon="-6.76702">
        <ele>31.39</ele>
        <time>2021-03-20T18:02:43Z</time>
      </trkpt>
      <trkpt lat="57.99122" lon="-6.76649">
        <ele>29.76</ele>
        <time>2021-03-20T18:02:46Z</time>
      </trkpt>
      <trkpt lat="57.99139" lon="-6.76623">
        <ele>29.46</ele>
        <time>2021-03-20T18:02:49Z</time>
      </trkpt>
      <trkpt lat="57.99156" lon="-6.76589">
        <ele>29.46</ele>
        <time>2021-03-20T18:02:52Z</time>
      </trkpt>
      <trkpt lat="57.99198" lon="-6.76483">
        <ele>30.52</ele>
        <time>2021-03-20T18:02:55Z</time>
      </trkpt>
      <trkpt lat="57.99216" lon="-6.76449">
        <ele>29.31</ele>
        <time>2021-03-20T18:02:58Z</time>
      </trkpt>
      <trkpt lat="57.99247" lon="-6.76402">
        <ele>30.18</ele>
        <time>2021-03-20T18:03:01Z</time>
      </trkpt>
      <trkpt lat="57.99288" lon="-6.76346">
        <ele>31.01</ele>
        <time>2021-03-20T18:03:04Z</time>
      </trkpt>
      <trkpt lat="57.99319" lon="-6.76313">
        <ele>30.95</ele>
        <time>2021-03-20T18:03:07Z</time>
      </trkpt>
      <trkpt lat="57.99554" lon="-6.76095">
        <ele>28.27</ele>
        <time>2021-03-20T18:03:10Z</time>
      </trkpt>
      <trkpt lat="57.99593" lon="-6.76061">
        <ele>30.97</ele>
        <time>2021-03-20T18:03:13Z</time>
      </trkpt>
      <trkpt lat="57.99651" lon="-6.76018">
        <ele>32.47</ele>
        <time>2021-03-20T18:03:16Z</time>
      </trkpt>
      <trkpt lat="57.9971" lon="-6.75992">
        <ele>29.91</ele>
        <time>2021-03-20T18:03:19Z</time>
      </trkpt>
      <trkpt lat="57.99763" lon="-6.75983">
        <ele>27.8</ele>
        <time>2021-03-20T18:03:22Z</time>
      </trkpt>
      <trkpt lat="57.998" lon="-6.75983">
        <ele>27.53</ele>
        <time>2021-03-20T18:03:25Z</time>
      </trkpt>
      <trkpt lat="57.998" lon="-6.75983">
        <ele>27.53</ele>
        <time>2021-03-20T18:03:25Z</time>
      </trkpt>
      <trkpt lat="57.99855" lon="-6.75983">
        <ele>27.26</ele>
        <time>2021-03-20T18:03:29Z</time>
      </trkpt>
      <trkpt lat="57.99916" lon="-6.75968">
        <ele>26.78</ele>
        <time>2021-03-20T18:03:33Z</time>
      </trkpt>
      <trkpt lat="57.99958" lon="-6.75945">
        <ele>27.01</ele>
        <time>2021-03-20T18:03:37Z</time>
      </trkpt>
      <trkpt lat="57.9999" lon="-6.75921">
        <ele>26.37</ele>
        <time>2021-03-20T18:03:41Z</time>
      </trkpt>
      <trkpt lat="58.00116" lon="-6.75808">
        <ele>22</ele>
        <time>2021-03-20T18:03:45Z</time>
      </trkpt>
      <trkpt lat="58.00128" lon="-6.758">
        <ele>21.81</ele>
        <time>2021-03-20T18:03:49Z</time>
      </trkpt>
      <trkpt lat="58.00148" lon="-6.75795">
        <ele>21.3</ele>
        <time>2021-03-20T18:03:53Z</time>
      </trkpt>
      <trkpt lat="58.00167" lon="-6.75799">
        <ele>20.7</ele>
        <time>2021-03-20T18:03:57Z</time>
      </trkpt>
      <trkpt lat="58.00182" lon="-6.75807">
        <ele>19.95</ele>
        <time>2021-03-20T18:04:00Z</time>
      </trkpt>
      <trkpt lat="58.00203" lon="-6.75827">
        <ele>18.59</ele>
        <time>2021-03-20T18:04:04Z</time>
      </trkpt>
      <trkpt lat="58.00219" lon="-6.75853">
        <ele>17.86</ele>
        <time>2021-03-20T18:04:08Z</time>
      </trkpt>
      <trkpt lat="58.00233" lon="-6.75895">
        <ele>17.61</ele>
        <time>2021-03-20T18:04:12Z</time>
      </trkpt>
      <trkpt lat="58.0024" lon="-6.75942">
        <ele>18</ele>
        <time>2021-03-20T18:04:16Z</time>
      </trkpt>
      <trkpt lat="58.00243" lon="-6.76006">
        <ele>15.87</ele>
        <time>2021-03-20T18:04:20Z</time>
      </trkpt>
      <trkpt lat="58.00241" lon="-6.76131">
        <ele>15.77</ele>
        <time>2021-03-20T18:04:24Z</time>
      </trkpt>
      <trkpt lat="58.00243" lon="-6.76181">
        <ele>16.06</ele>
        <time>2021-03-20T18:04:28Z</time>
      </trkpt>
      <trkpt lat="58.00249" lon="-6.7626">
        <ele>17.23</ele>
        <time>2021-03-20T18:04:32Z</time>
      </trkpt>
      <trkpt lat="58.00267" lon="-6.76414">
        <ele>15.9</ele>
        <time>2021-03-20T18:04:36Z</time>
      </trkpt>
      <trkpt lat="58.00273" lon="-6.76438">
        <ele>14.87</ele>
        <time>2021-03-20T18:04:40Z</time>
      </trkpt>
      <trkpt lat="58.0028" lon="-6.76456">
        <ele>14.27</ele>
        <time>2021-03-20T18:04:43Z</time>
      </trkpt>
      <trkpt lat="58.00296" lon="-6.76483">
        <ele>13.93</ele>
        <time>2021-03-20T18:04:47Z</time>
      </trkpt>
      <trkpt lat="58.00322" lon="-6.76496">
        <ele>15.03</ele>
        <time>2021-03-20T18:04:51Z</time>
      </trkpt>
      <trkpt lat="58.00342" lon="-6.76494">
        <ele>16.71</ele>
        <time>2021-03-20T18:04:55Z</time>
      </trkpt>
      <trkpt lat="58.00356" lon="-6.76486">
        <ele>17.92</ele>
        <time>2021-03-20T18:04:59Z</time>
      </trkpt>
      <trkpt lat="58.00368" lon="-6.76474">
        <ele>18.55</ele>
        <time>2021-03-20T18:05:03Z</time>
      </trkpt>
      <trkpt lat="58.00381" lon="-6.7645">
        <ele>17.85</ele>
        <time>2021-03-20T18:05:07Z</time>
      </trkpt>
      <trkpt lat="58.00406" lon="-6.76375">
        <ele>18.01</ele>
        <time>2021-03-20T18:05:11Z</time>
      </trkpt>
      <trkpt lat="58.00506" lon="-6.76051">
        <ele>18.69</ele>
        <time>2021-03-20T18:05:15Z</time>
      </trkpt>
      <trkpt lat="58.00653" lon="-6.75593">
        <ele>27.05</ele>
        <time>2021-03-20T18:05:19Z</time>
      </trkpt>
      <trkpt lat="58.00693" lon="-6.75507">
        <ele>29.2</ele>
        <time>2021-03-20T18:05:23Z</time>
      </trkpt>
      <trkpt lat="58.00764" lon="-6.75395">
        <ele>32.5</ele>
        <time>2021-03-20T18:05:27Z</time>
      </trkpt>
      <trkpt lat="58.00779" lon="-6.75361">
        <ele>32.08</ele>
        <time>2021-03-20T18:05:30Z</time>
      </trkpt>
      <trkpt lat="58.00787" lon="-6.7533">
        <ele>30.08</ele>
        <time>2021-03-20T18:05:34Z</time>
      </trkpt>
      <trkpt lat="58.00794" lon="-6.75292">
        <ele>28.3</ele>
        <time>2021-03-20T18:05:38Z</time>
      </trkpt>
      <trkpt lat="58.00802" lon="-6.75218">
        <ele>30.34</ele>
        <time>2021-03-20T18:05:42Z</time>
      </trkpt>
      <trkpt lat="58.00805" lon="-6.75163">
        <ele>32.85</ele>
        <time>2021-03-20T18:05:46Z</time>
      </trkpt>
      <trkpt lat="58.00796" lon="-6.74912">
        <ele>31.4</ele>
        <time>2021-03-20T18:05:50Z</time>
      </trkpt>
      <trkpt lat="58.00795" lon="-6.74834">
        <ele>29.72</ele>
        <time>2021-03-20T18:05:54Z</time>
      </trkpt>
      <trkpt lat="58.00801" lon="-6.74741">
        <ele>29.77</ele>
        <time>2021-03-20T18:05:58Z</time>
      </trkpt>
      <trkpt lat="58.00807" lon="-6.74678">
        <ele>29.79</ele>
        <time>2021-03-20T18:06:02Z</time>
      </trkpt>
      <trkpt lat="58.00825" lon="-6.74575">
        <ele>29.22</ele>
        <time>2021-03-20T18:06:06Z</time>
      </trkpt>
      <trkpt lat="58.00851" lon="-6.74494">
        <ele>28.56</ele>
        <time>2021-03-20T18:06:10Z</time>
      </trkpt>
      <trkpt lat="58.00882" lon="-6.74412">
        <ele>27.34</ele>
        <time>2021-03-20T18:06:13Z</time>
      </trkpt>
      <trkpt lat="58.00957" lon="-6.74258">
        <ele>32.89</ele>
        <time>2021-03-20T18:06:17Z</time>
      </trkpt>
      <trkpt lat="58.00996" lon="-6.74172">
        <ele>35.42</ele>
        <time>2021-03-20T18:06:21Z</time>
      </trkpt>
      <trkpt lat="58.01069" lon="-6.73979">
        <ele>39.33</ele>
        <time>2021-03-20T18:06:25Z</time>
      </trkpt>
      <trkpt lat="58.01155" lon="-6.73739">
        <ele>43.51</ele>
        <time>2021-03-20T18:06:29Z</time>
      </trkpt>
      <trkpt lat="58.01185" lon="-6.73661">
        <ele>44.98</ele>
        <time>2021-03-20T18:06:33Z</time>
      </trkpt>
      <trkpt lat="58.0123" lon="-6.73576">
        <ele>47.08</ele>
        <time>2021-03-20T18:06:37Z</time>
      </trkpt>
      <trkpt lat="58.01271" lon="-6.73524">
        <ele>49.9</ele>
        <time>2021-03-20T18:06:41Z</time>
      </trkpt>
      <trkpt lat="58.01317" lon="-6.73473">
        <ele>54.2</ele>
        <time>2021-03-20T18:06:45Z</time>
      </trkpt>
      <trkpt lat="58.0136" lon="-6.73442">
        <ele>56.71</ele>
        <time>2021-03-20T18:06:49Z</time>
      </trkpt>
      <trkpt lat="58.01463" lon="-6.73399">
        <ele>56.75</ele>
        <time>2021-03-20T18:06:53Z</time>
      </trkpt>
      <trkpt lat="58.0171" lon="-6.73309">
        <ele>58.38</ele>
        <time>2021-03-20T18:06:57Z</time>
      </trkpt>
      <trkpt lat="58.01863" lon="-6.73258">
        <ele>47.62</ele>
        <time>2021-03-20T18:07:00Z</time>
      </trkpt>
      <trkpt lat="58.01967" lon="-6.73208">
        <ele>46</ele>
        <time>2021-03-20T18:07:04Z</time>
      </trkpt>
      <trkpt lat="58.02049" lon="-6.7316">
        <ele>46.52</ele>
        <time>2021-03-20T18:07:08Z</time>
      </trkpt>
      <trkpt lat="58.02118" lon="-6.73113">
        <ele>49.07</ele>
        <time>2021-03-20T18:07:12Z</time>
      </trkpt>
      <trkpt lat="58.02194" lon="-6.73056">
        <ele>45.05</ele>
        <time>2021-03-20T18:07:16Z</time>
      </trkpt>
      <trkpt lat="58.02251" lon="-6.73007">
        <ele>44.51</ele>
        <time>2021-03-20T18:07:20Z</time>
      </trkpt>
      <trkpt lat="58.0239" lon="-6.72867">
        <ele>43.05</ele>
        <time>2021-03-20T18:07:24Z</time>
      </trkpt>
      <trkpt lat="58.02696" lon="-6.72534">
        <ele>49</ele>
        <time>2021-03-20T18:07:28Z</time>
      </trkpt>
      <trkpt lat="58.02721" lon="-6.72509">
        <ele>49</ele>
        <time>2021-03-20T18:07:32Z</time>
      </trkpt>
      <trkpt lat="58.02747" lon="-6.72488">
        <ele>49</ele>
        <time>2021-03-20T18:07:36Z</time>
      </trkpt>
      <trkpt lat="58.02791" lon="-6.72459">
        <ele>48.06</ele>
        <time>2021-03-20T18:07:40Z</time>
      </trkpt>
      <trkpt lat="58.02821" lon="-6.72442">
        <ele>46.43</ele>
        <time>2021-03-20T18:07:44Z</time>
      </trkpt>
      <trkpt lat="58.02909" lon="-6.72403">
        <ele>45.86</ele>
        <time>2021-03-20T18:07:47Z</time>
      </trkpt>
      <trkpt lat="58.02948" lon="-6.72391">
        <ele>45.88</ele>
        <time>2021-03-20T18:07:51Z</time>
      </trkpt>
      <trkpt lat="58.02999" lon="-6.72385">
        <ele>45</ele>
        <time>2021-03-20T18:07:55Z</time>
      </trkpt>
      <trkpt lat="58.03099" lon="-6.72398">
        <ele>46.37</ele>
        <time>2021-03-20T18:07:59Z</time>
      </trkpt>
      <trkpt lat="58.03185" lon="-6.7242">
        <ele>48.81</ele>
        <time>2021-03-20T18:08:03Z</time>
      </trkpt>
      <trkpt lat="58.03233" lon="-6.72421">
        <ele>48.38</ele>
        <time>2021-03-20T18:08:07Z</time>
      </trkpt>
      <trkpt lat="58.0326" lon="-6.72416">
        <ele>47.7</ele>
        <time>2021-03-20T18:08:11Z</time>
      </trkpt>
      <trkpt lat="58.03309" lon="-6.72398">
        <ele>47.49</ele>
        <time>2021-03-20T18:08:15Z</time>
      </trkpt>
      <trkpt lat="58.03335" lon="-6.72382">
        <ele>46.45</ele>
        <time>2021-03-20T18:08:19Z</time>
      </trkpt>
      <trkpt lat="58.03383" lon="-6.72344">
        <ele>45.74</ele>
        <time>2021-03-20T18:08:23Z</time>
      </trkpt>
      <trkpt lat="58.03432" lon="-6.72292">
        <ele>41.78</ele>
        <time>2021-03-20T18:08:27Z</time>
      </trkpt>
      <trkpt lat="58.0347" lon="-6.7224">
        <ele>38.75</ele>
        <time>2021-03-20T18:08:30Z</time>
      </trkpt>
      <trkpt lat="58.03504" lon="-6.72183">
        <ele>35.91</ele>
        <time>2021-03-20T18:08:34Z</time>
      </trkpt>
      <trkpt lat="58.03596" lon="-6.72059">
        <ele>29.51</ele>
        <time>2021-03-20T18:08:38Z</time>
      </trkpt>
      <trkpt lat="58.03653" lon="-6.71988">
        <ele>24.01</ele>
        <time>2021-03-20T18:08:42Z</time>
      </trkpt>
      <trkpt lat="58.03675" lon="-6.71971">
        <ele>22.69</ele>
        <time>2021-03-20T18:08:46Z</time>
      </trkpt>
      <trkpt lat="58.03691" lon="-6.71964">
        <ele>22.14</ele>
        <time>2021-03-20T18:08:50Z</time>
      </trkpt>
      <trkpt lat="58.03741" lon="-6.71949">
        <ele>20.31</ele>
        <time>2021-03-20T18:08:54Z</time>
      </trkpt>
      <trkpt lat="58.03756" lon="-6.71939">
        <ele>20</ele>
        <time>2021-03-20T18:08:58Z</time>
      </trkpt>
      <trkpt lat="58.0377" lon="-6.71926">
        <ele>20</ele>
        <time>2021-03-20T18:09:02Z</time>
      </trkpt>
      <trkpt lat="58.03785" lon="-6.71908">
        <ele>20.08</ele>
        <time>2021-03-20T18:09:06Z</time>
      </trkpt>
      <trkpt lat="58.03873" lon="-6.71747">
        <ele>21.1</ele>
        <time>2021-03-20T18:09:10Z</time>
      </trkpt>
      <trkpt lat="58.03904" lon="-6.717">
        <ele>23.35</ele>
        <time>2021-03-20T18:09:14Z</time>
      </trkpt>
      <trkpt lat="58.03959" lon="-6.71669">
        <ele>25.46</ele>
        <time>2021-03-20T18:09:17Z</time>
      </trkpt>
      <trkpt lat="58.04025" lon="-6.71665">
        <ele>29.06</ele>
        <time>2021-03-20T18:09:21Z</time>
      </trkpt>
      <trkpt lat="58.04093" lon="-6.71665">
        <ele>31.16</ele>
        <time>2021-03-20T18:09:25Z</time>
      </trkpt>
      <trkpt lat="58.04171" lon="-6.71654">
        <ele>30.72</ele>
        <time>2021-03-20T18:09:29Z</time>
      </trkpt>
      <trkpt lat="58.04222" lon="-6.71621">
        <ele>30.31</ele>
        <time>2021-03-20T18:09:33Z</time>
      </trkpt>
      <trkpt lat="58.04434" lon="-6.71364">
        <ele>28.37</ele>
        <time>2021-03-20T18:09:37Z</time>
      </trkpt>
      <trkpt lat="58.04768" lon="-6.70974">
        <ele>20.35</ele>
        <time>2021-03-20T18:09:41Z</time>
      </trkpt>
      <trkpt lat="58.05278" lon="-6.70384">
        <ele>7</ele>
        <time>2021-03-20T18:09:45Z</time>
      </trkpt>
      <trkpt lat="58.05396" lon="-6.70239">
        <ele>8</ele>
        <time>2021-03-20T18:09:49Z</time>
      </trkpt>
      <trkpt lat="58.05744" lon="-6.69832">
        <ele>6</ele>
        <time>2021-03-20T18:09:53Z</time>
      </trkpt>
      <trkpt lat="58.05809" lon="-6.69762">
        <ele>5</ele>
        <time>2021-03-20T18:09:57Z</time>
      </trkpt>
      <trkpt lat="58.05842" lon="-6.69706">
        <ele>5.3</ele>
        <time>2021-03-20T18:10:01Z</time>
      </trkpt>
      <trkpt lat="58.05859" lon="-6.69671">
        <ele>5.93</ele>
        <time>2021-03-20T18:10:04Z</time>
      </trkpt>
      <trkpt lat="58.05879" lon="-6.69619">
        <ele>6.45</ele>
        <time>2021-03-20T18:10:08Z</time>
      </trkpt>
      <trkpt lat="58.05893" lon="-6.69567">
        <ele>7.35</ele>
        <time>2021-03-20T18:10:12Z</time>
      </trkpt>
      <trkpt lat="58.05903" lon="-6.6952">
        <ele>8.62</ele>
        <time>2021-03-20T18:10:16Z</time>
      </trkpt>
      <trkpt lat="58.05913" lon="-6.6942">
        <ele>9.76</ele>
        <time>2021-03-20T18:10:20Z</time>
      </trkpt>
      <trkpt lat="58.05912" lon="-6.69316">
        <ele>10.51</ele>
        <time>2021-03-20T18:10:24Z</time>
      </trkpt>
      <trkpt lat="58.05896" lon="-6.69209">
        <ele>11.07</ele>
        <time>2021-03-20T18:10:28Z</time>
      </trkpt>
      <trkpt lat="58.0587" lon="-6.69099">
        <ele>11.45</ele>
        <time>2021-03-20T18:10:32Z</time>
      </trkpt>
      <trkpt lat="58.0586" lon="-6.69004">
        <ele>12.7</ele>
        <time>2021-03-20T18:10:36Z</time>
      </trkpt>
      <trkpt lat="58.0586" lon="-6.68935">
        <ele>12.84</ele>
        <time>2021-03-20T18:10:40Z</time>
      </trkpt>
      <trkpt lat="58.05865" lon="-6.68871">
        <ele>14.39</ele>
        <time>2021-03-20T18:10:44Z</time>
      </trkpt>
      <trkpt lat="58.05867" lon="-6.68682">
        <ele>17.3</ele>
        <time>2021-03-20T18:10:47Z</time>
      </trkpt>
      <trkpt lat="58.05872" lon="-6.68615">
        <ele>19.38</ele>
        <time>2021-03-20T18:10:51Z</time>
      </trkpt>
      <trkpt lat="58.05898" lon="-6.68474">
        <ele>21.3</ele>
        <time>2021-03-20T18:10:55Z</time>
      </trkpt>
      <trkpt lat="58.05911" lon="-6.68395">
        <ele>22.05</ele>
        <time>2021-03-20T18:10:59Z</time>
      </trkpt>
      <trkpt lat="58.05931" lon="-6.68209">
        <ele>23.55</ele>
        <time>2021-03-20T18:11:03Z</time>
      </trkpt>
      <trkpt lat="58.0594" lon="-6.68098">
        <ele>25.5</ele>
        <time>2021-03-20T18:11:07Z</time>
      </trkpt>
      <trkpt lat="58.05977" lon="-6.67693">
        <ele>24.28</ele>
        <time>2021-03-20T18:11:11Z</time>
      </trkpt>
      <trkpt lat="58.0603" lon="-6.67265">
        <ele>24.12</ele>
        <time>2021-03-20T18:11:15Z</time>
      </trkpt>
      <trkpt lat="58.06045" lon="-6.67172">
        <ele>26.23</ele>
        <time>2021-03-20T18:11:19Z</time>
      </trkpt>
      <trkpt lat="58.06063" lon="-6.67076">
        <ele>26.53</ele>
        <time>2021-03-20T18:11:23Z</time>
      </trkpt>
      <trkpt lat="58.0616" lon="-6.66597">
        <ele>30.29</ele>
        <time>2021-03-20T18:11:27Z</time>
      </trkpt>
      <trkpt lat="58.06193" lon="-6.66471">
        <ele>32.7</ele>
        <time>2021-03-20T18:11:31Z</time>
      </trkpt>
      <trkpt lat="58.0622" lon="-6.66409">
        <ele>34.47</ele>
        <time>2021-03-20T18:11:34Z</time>
      </trkpt>
      <trkpt lat="58.06267" lon="-6.66341">
        <ele>34.88</ele>
        <time>2021-03-20T18:11:38Z</time>
      </trkpt>
      <trkpt lat="58.06306" lon="-6.66315">
        <ele>35</ele>
        <time>2021-03-20T18:11:42Z</time>
      </trkpt>
      <trkpt lat="58.06326" lon="-6.66295">
        <ele>34.63</ele>
        <time>2021-03-20T18:11:46Z</time>
      </trkpt>
      <trkpt lat="58.06453" lon="-6.66224">
        <ele>32.46</ele>
        <time>2021-03-20T18:11:50Z</time>
      </trkpt>
      <trkpt lat="58.06584" lon="-6.66163">
        <ele>27.11</ele>
        <time>2021-03-20T18:11:54Z</time>
      </trkpt>
      <trkpt lat="58.06637" lon="-6.66131">
        <ele>26.7</ele>
        <time>2021-03-20T18:11:58Z</time>
      </trkpt>
      <trkpt lat="58.06655" lon="-6.66114">
        <ele>26.68</ele>
        <time>2021-03-20T18:12:02Z</time>
      </trkpt>
      <trkpt lat="58.06669" lon="-6.66095">
        <ele>26.41</ele>
        <time>2021-03-20T18:12:06Z</time>
      </trkpt>
      <trkpt lat="58.06732" lon="-6.65991">
        <ele>25.65</ele>
        <time>2021-03-20T18:12:10Z</time>
      </trkpt>
      <trkpt lat="58.06839" lon="-6.65887">
        <ele>23.62</ele>
        <time>2021-03-20T18:12:14Z</time>
      </trkpt>
      <trkpt lat="58.06932" lon="-6.65774">
        <ele>24.06</ele>
        <time>2021-03-20T18:12:18Z</time>
      </trkpt>
      <trkpt lat="58.0715" lon="-6.65498">
        <ele>18.64</ele>
        <time>2021-03-20T18:12:21Z</time>
      </trkpt>
      <trkpt lat="58.07228" lon="-6.65382">
        <ele>19</ele>
        <time>2021-03-20T18:12:25Z</time>
      </trkpt>
      <trkpt lat="58.07322" lon="-6.65305">
        <ele>19.43</ele>
        <time>2021-03-20T18:12:29Z</time>
      </trkpt>
      <trkpt lat="58.07422" lon="-6.65236">
        <ele>24.21</ele>
        <time>2021-03-20T18:12:33Z</time>
      </trkpt>
      <trkpt lat="58.07733" lon="-6.65013">
        <ele>23.34</ele>
        <time>2021-03-20T18:12:37Z</time>
      </trkpt>
      <trkpt lat="58.07864" lon="-6.649">
        <ele>21.48</ele>
        <time>2021-03-20T18:12:41Z</time>
      </trkpt>
      <trkpt lat="58.07971" lon="-6.64798">
        <ele>20.39</ele>
        <time>2021-03-20T18:12:45Z</time>
      </trkpt>
      <trkpt lat="58.08026" lon="-6.64742">
        <ele>17.72</ele>
        <time>2021-03-20T18:12:49Z</time>
      </trkpt>
      <trkpt lat="58.08105" lon="-6.64656">
        <ele>13.22</ele>
        <time>2021-03-20T18:12:53Z</time>
      </trkpt>
      <trkpt lat="58.08196" lon="-6.64551">
        <ele>12</ele>
        <time>2021-03-20T18:12:57Z</time>
      </trkpt>
      <trkpt lat="58.08315" lon="-6.6438">
        <ele>11</ele>
        <time>2021-03-20T18:13:01Z</time>
      </trkpt>
      <trkpt lat="58.08426" lon="-6.6419">
        <ele>14.5</ele>
        <time>2021-03-20T18:13:04Z</time>
      </trkpt>
      <trkpt lat="58.08509" lon="-6.64043">
        <ele>17</ele>
        <time>2021-03-20T18:13:08Z</time>
      </trkpt>
      <trkpt lat="58.08563" lon="-6.63929">
        <ele>17</ele>
        <time>2021-03-20T18:13:12Z</time>
      </trkpt>
      <trkpt lat="58.08609" lon="-6.63811">
        <ele>16.09</ele>
        <time>2021-03-20T18:13:16Z</time>
      </trkpt>
      <trkpt lat="58.08634" lon="-6.63735">
        <ele>16.18</ele>
        <time>2021-03-20T18:13:20Z</time>
      </trkpt>
      <trkpt lat="58.08656" lon="-6.63652">
        <ele>15</ele>
        <time>2021-03-20T18:13:24Z</time>
      </trkpt>
      <trkpt lat="58.08712" lon="-6.63382">
        <ele>18.9</ele>
        <time>2021-03-20T18:13:28Z</time>
      </trkpt>
      <trkpt lat="58.08752" lon="-6.6318">
        <ele>24.68</ele>
        <time>2021-03-20T18:13:32Z</time>
      </trkpt>
      <trkpt lat="58.08775" lon="-6.62972">
        <ele>27.54</ele>
        <time>2021-03-20T18:13:36Z</time>
      </trkpt>
      <trkpt lat="58.08781" lon="-6.62936">
        <ele>29.47</ele>
        <time>2021-03-20T18:13:40Z</time>
      </trkpt>
      <trkpt lat="58.08796" lon="-6.62877">
        <ele>31.68</ele>
        <time>2021-03-20T18:13:44Z</time>
      </trkpt>
      <trkpt lat="58.0882" lon="-6.62818">
        <ele>32.95</ele>
        <time>2021-03-20T18:13:48Z</time>
      </trkpt>
      <trkpt lat="58.08858" lon="-6.62739">
        <ele>36.01</ele>
        <time>2021-03-20T18:13:51Z</time>
      </trkpt>
      <trkpt lat="58.08881" lon="-6.62685">
        <ele>37.55</ele>
        <time>2021-03-20T18:13:55Z</time>
      </trkpt>
      <trkpt lat="58.08895" lon="-6.62645">
        <ele>38.66</ele>
        <time>2021-03-20T18:13:59Z</time>
      </trkpt>
      <trkpt lat="58.08905" lon="-6.62603">
        <ele>39.75</ele>
        <time>2021-03-20T18:14:03Z</time>
      </trkpt>
      <trkpt lat="58.08919" lon="-6.62511">
        <ele>41.78</ele>
        <time>2021-03-20T18:14:07Z</time>
      </trkpt>
      <trkpt lat="58.08962" lon="-6.62164">
        <ele>38.2</ele>
        <time>2021-03-20T18:14:11Z</time>
      </trkpt>
      <trkpt lat="58.08965" lon="-6.62119">
        <ele>37.46</ele>
        <time>2021-03-20T18:14:15Z</time>
      </trkpt>
      <trkpt lat="58.08958" lon="-6.61908">
        <ele>37.12</ele>
        <time>2021-03-20T18:14:19Z</time>
      </trkpt>
      <trkpt lat="58.08958" lon="-6.61859">
        <ele>37.45</ele>
        <time>2021-03-20T18:14:23Z</time>
      </trkpt>
      <trkpt lat="58.08961" lon="-6.6181">
        <ele>37.93</ele>
        <time>2021-03-20T18:14:27Z</time>
      </trkpt>
      <trkpt lat="58.08966" lon="-6.61758">
        <ele>38.34</ele>
        <time>2021-03-20T18:14:31Z</time>
      </trkpt>
      <trkpt lat="58.0898" lon="-6.61681">
        <ele>37.45</ele>
        <time>2021-03-20T18:14:34Z</time>
      </trkpt>
      <trkpt lat="58.09025" lon="-6.61451">
        <ele>38.74</ele>
        <time>2021-03-20T18:14:38Z</time>
      </trkpt>
      <trkpt lat="58.09061" lon="-6.61284">
        <ele>39.65</ele>
        <time>2021-03-20T18:14:42Z</time>
      </trkpt>
      <trkpt lat="58.09125" lon="-6.6102">
        <ele>39.69</ele>
        <time>2021-03-20T18:14:46Z</time>
      </trkpt>
      <trkpt lat="58.09137" lon="-6.60941">
        <ele>39.81</ele>
        <time>2021-03-20T18:14:50Z</time>
      </trkpt>
      <trkpt lat="58.0914" lon="-6.60887">
        <ele>41.04</ele>
        <time>2021-03-20T18:14:54Z</time>
      </trkpt>
      <trkpt lat="58.0914" lon="-6.60774">
        <ele>45.23</ele>
        <time>2021-03-20T18:14:58Z</time>
      </trkpt>
      <trkpt lat="58.09144" lon="-6.60595">
        <ele>51.62</ele>
        <time>2021-03-20T18:15:02Z</time>
      </trkpt>
      <trkpt lat="58.09156" lon="-6.60265">
        <ele>62.12</ele>
        <time>2021-03-20T18:15:06Z</time>
      </trkpt>
      <trkpt lat="58.09159" lon="-6.60226">
        <ele>63.53</ele>
        <time>2021-03-20T18:15:10Z</time>
      </trkpt>
      <trkpt lat="58.0917" lon="-6.60144">
        <ele>63.75</ele>
        <time>2021-03-20T18:15:14Z</time>
      </trkpt>
      <trkpt lat="58.09184" lon="-6.59908">
        <ele>65.18</ele>
        <time>2021-03-20T18:15:18Z</time>
      </trkpt>
      <trkpt lat="58.09192" lon="-6.59851">
        <ele>64.4</ele>
        <time>2021-03-20T18:15:21Z</time>
      </trkpt>
      <trkpt lat="58.09224" lon="-6.59685">
        <ele>62.63</ele>
        <time>2021-03-20T18:15:25Z</time>
      </trkpt>
      <trkpt lat="58.09233" lon="-6.59603">
        <ele>59.96</ele>
        <time>2021-03-20T18:15:29Z</time>
      </trkpt>
      <trkpt lat="58.0924" lon="-6.59551">
        <ele>58.76</ele>
        <time>2021-03-20T18:15:33Z</time>
      </trkpt>
      <trkpt lat="58.0925" lon="-6.59518">
        <ele>59.32</ele>
        <time>2021-03-20T18:15:37Z</time>
      </trkpt>
      <trkpt lat="58.09328" lon="-6.59316">
        <ele>53.67</ele>
        <time>2021-03-20T18:15:41Z</time>
      </trkpt>
      <trkpt lat="58.09343" lon="-6.59268">
        <ele>52.67</ele>
        <time>2021-03-20T18:15:45Z</time>
      </trkpt>
      <trkpt lat="58.0936" lon="-6.59153">
        <ele>49.4</ele>
        <time>2021-03-20T18:15:49Z</time>
      </trkpt>
      <trkpt lat="58.09374" lon="-6.591">
        <ele>48.77</ele>
        <time>2021-03-20T18:15:53Z</time>
      </trkpt>
      <trkpt lat="58.0939" lon="-6.59016">
        <ele>46.2</ele>
        <time>2021-03-20T18:15:57Z</time>
      </trkpt>
      <trkpt lat="58.09412" lon="-6.58842">
        <ele>39.13</ele>
        <time>2021-03-20T18:16:01Z</time>
      </trkpt>
      <trkpt lat="58.09417" lon="-6.58779">
        <ele>40.01</ele>
        <time>2021-03-20T18:16:05Z</time>
      </trkpt>
      <trkpt lat="58.09429" lon="-6.58703">
        <ele>42.29</ele>
        <time>2021-03-20T18:16:08Z</time>
      </trkpt>
      <trkpt lat="58.09452" lon="-6.5862">
        <ele>45.85</ele>
        <time>2021-03-20T18:16:12Z</time>
      </trkpt>
      <trkpt lat="58.09483" lon="-6.58523">
        <ele>45.56</ele>
        <time>2021-03-20T18:16:16Z</time>
      </trkpt>
      <trkpt lat="58.09571" lon="-6.58282">
        <ele>34.61</ele>
        <time>2021-03-20T18:16:20Z</time>
      </trkpt>
      <trkpt lat="58.09637" lon="-6.58129">
        <ele>35.93</ele>
        <time>2021-03-20T18:16:24Z</time>
      </trkpt>
      <trkpt lat="58.0966" lon="-6.58079">
        <ele>34.71</ele>
        <time>2021-03-20T18:16:28Z</time>
      </trkpt>
      <trkpt lat="58.09725" lon="-6.57964">
        <ele>29.69</ele>
        <time>2021-03-20T18:16:32Z</time>
      </trkpt>
      <trkpt lat="58.09745" lon="-6.5791">
        <ele>28.18</ele>
        <time>2021-03-20T18:16:36Z</time>
      </trkpt>
      <trkpt lat="58.09755" lon="-6.57849">
        <ele>27.53</ele>
        <time>2021-03-20T18:16:40Z</time>
      </trkpt>
      <trkpt lat="58.09758" lon="-6.57808">
        <ele>26.26</ele>
        <time>2021-03-20T18:16:44Z</time>
      </trkpt>
      <trkpt lat="58.09756" lon="-6.57774">
        <ele>25</ele>
        <time>2021-03-20T18:16:48Z</time>
      </trkpt>
      <trkpt lat="58.09748" lon="-6.57712">
        <ele>23.98</ele>
        <time>2021-03-20T18:16:51Z</time>
      </trkpt>
      <trkpt lat="58.09745" lon="-6.5768">
        <ele>23.11</ele>
        <time>2021-03-20T18:16:55Z</time>
      </trkpt>
      <trkpt lat="58.09745" lon="-6.57646">
        <ele>22.5</ele>
        <time>2021-03-20T18:16:59Z</time>
      </trkpt>
      <trkpt lat="58.09754" lon="-6.57593">
        <ele>22.67</ele>
        <time>2021-03-20T18:17:03Z</time>
      </trkpt>
      <trkpt lat="58.09798" lon="-6.57475">
        <ele>27.43</ele>
        <time>2021-03-20T18:17:07Z</time>
      </trkpt>
      <trkpt lat="58.09811" lon="-6.57414">
        <ele>27.52</ele>
        <time>2021-03-20T18:17:11Z</time>
      </trkpt>
      <trkpt lat="58.09831" lon="-6.57276">
        <ele>27.24</ele>
        <time>2021-03-20T18:17:15Z</time>
      </trkpt>
      <trkpt lat="58.09856" lon="-6.57077">
        <ele>19.76</ele>
        <time>2021-03-20T18:17:19Z</time>
      </trkpt>
      <trkpt lat="58.09862" lon="-6.56989">
        <ele>19.5</ele>
        <time>2021-03-20T18:17:23Z</time>
      </trkpt>
      <trkpt lat="58.09865" lon="-6.56813">
        <ele>19.91</ele>
        <time>2021-03-20T18:17:27Z</time>
      </trkpt>
      <trkpt lat="58.09872" lon="-6.56695">
        <ele>17.14</ele>
        <time>2021-03-20T18:17:31Z</time>
      </trkpt>
      <trkpt lat="58.09884" lon="-6.56635">
        <ele>15.45</ele>
        <time>2021-03-20T18:17:35Z</time>
      </trkpt>
      <trkpt lat="58.09918" lon="-6.56533">
        <ele>15.3</ele>
        <time>2021-03-20T18:17:38Z</time>
      </trkpt>
      <trkpt lat="58.09968" lon="-6.56438">
        <ele>16.73</ele>
        <time>2021-03-20T18:17:42Z</time>
      </trkpt>
      <trkpt lat="58.10105" lon="-6.56155">
        <ele>22</ele>
        <time>2021-03-20T18:17:46Z</time>
      </trkpt>
      <trkpt lat="58.10145" lon="-6.56083">
        <ele>20.19</ele>
        <time>2021-03-20T18:17:50Z</time>
      </trkpt>
      <trkpt lat="58.10193" lon="-6.56014">
        <ele>18.49</ele>
        <time>2021-03-20T18:17:54Z</time>
      </trkpt>
      <trkpt lat="58.10302" lon="-6.5589">
        <ele>10</ele>
        <time>2021-03-20T18:17:58Z</time>
      </trkpt>
      <trkpt lat="58.1033" lon="-6.55848">
        <ele>10</ele>
        <time>2021-03-20T18:18:02Z</time>
      </trkpt>
      <trkpt lat="58.10352" lon="-6.55797">
        <ele>9.54</ele>
        <time>2021-03-20T18:18:06Z</time>
      </trkpt>
      <trkpt lat="58.10362" lon="-6.55759">
        <ele>10.08</ele>
        <time>2021-03-20T18:18:10Z</time>
      </trkpt>
      <trkpt lat="58.10421" lon="-6.55428">
        <ele>17.36</ele>
        <time>2021-03-20T18:18:14Z</time>
      </trkpt>
      <trkpt lat="58.10431" lon="-6.5538">
        <ele>17.06</ele>
        <time>2021-03-20T18:18:18Z</time>
      </trkpt>
      <trkpt lat="58.10455" lon="-6.55299">
        <ele>17.52</ele>
        <time>2021-03-20T18:18:22Z</time>
      </trkpt>
      <trkpt lat="58.10489" lon="-6.55209">
        <ele>16.85</ele>
        <time>2021-03-20T18:18:25Z</time>
      </trkpt>
      <trkpt lat="58.105" lon="-6.55169">
        <ele>16.22</ele>
        <time>2021-03-20T18:18:29Z</time>
      </trkpt>
      <trkpt lat="58.10509" lon="-6.55131">
        <ele>15.73</ele>
        <time>2021-03-20T18:18:33Z</time>
      </trkpt>
      <trkpt lat="58.10525" lon="-6.55039">
        <ele>15.72</ele>
        <time>2021-03-20T18:18:37Z</time>
      </trkpt>
      <trkpt lat="58.10544" lon="-6.54894">
        <ele>14.38</ele>
        <time>2021-03-20T18:18:41Z</time>
      </trkpt>
      <trkpt lat="58.10554" lon="-6.54794">
        <ele>13.47</ele>
        <time>2021-03-20T18:18:45Z</time>
      </trkpt>
      <trkpt lat="58.10558" lon="-6.54716">
        <ele>13.19</ele>
        <time>2021-03-20T18:18:49Z</time>
      </trkpt>
      <trkpt lat="58.10586" lon="-6.54314">
        <ele>21.26</ele>
        <time>2021-03-20T18:18:53Z</time>
      </trkpt>
      <trkpt lat="58.10594" lon="-6.54185">
        <ele>25.58</ele>
        <time>2021-03-20T18:18:57Z</time>
      </trkpt>
      <trkpt lat="58.10594" lon="-6.54121">
        <ele>26.37</ele>
        <time>2021-03-20T18:19:01Z</time>
      </trkpt>
      <trkpt lat="58.10591" lon="-6.54062">
        <ele>25.64</ele>
        <time>2021-03-20T18:19:05Z</time>
      </trkpt>
      <trkpt lat="58.10566" lon="-6.53785">
        <ele>25.57</ele>
        <time>2021-03-20T18:19:08Z</time>
      </trkpt>
      <trkpt lat="58.10564" lon="-6.53728">
        <ele>26.36</ele>
        <time>2021-03-20T18:19:12Z</time>
      </trkpt>
      <trkpt lat="58.10564" lon="-6.53672">
        <ele>27.76</ele>
        <time>2021-03-20T18:19:16Z</time>
      </trkpt>
      <trkpt lat="58.10567" lon="-6.53625">
        <ele>28.61</ele>
        <time>2021-03-20T18:19:20Z</time>
      </trkpt>
      <trkpt lat="58.10576" lon="-6.53566">
        <ele>29.96</ele>
        <time>2021-03-20T18:19:24Z</time>
      </trkpt>
      <trkpt lat="58.106" lon="-6.53478">
        <ele>33.21</ele>
        <time>2021-03-20T18:19:28Z</time>
      </trkpt>
      <trkpt lat="58.10642" lon="-6.53338">
        <ele>36.12</ele>
        <time>2021-03-20T18:19:32Z</time>
      </trkpt>
      <trkpt lat="58.10656" lon="-6.53271">
        <ele>36.63</ele>
        <time>2021-03-20T18:19:36Z</time>
      </trkpt>
      <trkpt lat="58.10661" lon="-6.53225">
        <ele>37.69</ele>
        <time>2021-03-20T18:19:40Z</time>
      </trkpt>
      <trkpt lat="58.10662" lon="-6.53181">
        <ele>39.4</ele>
        <time>2021-03-20T18:19:44Z</time>
      </trkpt>
      <trkpt lat="58.10661" lon="-6.53134">
        <ele>40.37</ele>
        <time>2021-03-20T18:19:48Z</time>
      </trkpt>
      <trkpt lat="58.10655" lon="-6.53084">
        <ele>41.41</ele>
        <time>2021-03-20T18:19:52Z</time>
      </trkpt>
      <trkpt lat="58.10647" lon="-6.53043">
        <ele>41.69</ele>
        <time>2021-03-20T18:19:55Z</time>
      </trkpt>
      <trkpt lat="58.1063" lon="-6.52985">
        <ele>42.33</ele>
        <time>2021-03-20T18:19:59Z</time>
      </trkpt>
      <trkpt lat="58.10596" lon="-6.52894">
        <ele>43.14</ele>
        <time>2021-03-20T18:20:03Z</time>
      </trkpt>
      <trkpt lat="58.10573" lon="-6.52811">
        <ele>42.36</ele>
        <time>2021-03-20T18:20:07Z</time>
      </trkpt>
      <trkpt lat="58.10559" lon="-6.52741">
        <ele>41.87</ele>
        <time>2021-03-20T18:20:11Z</time>
      </trkpt>
      <trkpt lat="58.10552" lon="-6.52684">
        <ele>42</ele>
        <time>2021-03-20T18:20:15Z</time>
      </trkpt>
      <trkpt lat="58.10546" lon="-6.52606">
        <ele>41.94</ele>
        <time>2021-03-20T18:20:19Z</time>
      </trkpt>
      <trkpt lat="58.10546" lon="-6.52546">
        <ele>40.32</ele>
        <time>2021-03-20T18:20:23Z</time>
      </trkpt>
      <trkpt lat="58.10573" lon="-6.52054">
        <ele>34.46</ele>
        <time>2021-03-20T18:20:27Z</time>
      </trkpt>
      <trkpt lat="58.10584" lon="-6.51969">
        <ele>34.01</ele>
        <time>2021-03-20T18:20:31Z</time>
      </trkpt>
      <trkpt lat="58.10606" lon="-6.51873">
        <ele>32.53</ele>
        <time>2021-03-20T18:20:35Z</time>
      </trkpt>
      <trkpt lat="58.1071" lon="-6.51466">
        <ele>25.32</ele>
        <time>2021-03-20T18:20:38Z</time>
      </trkpt>
      <trkpt lat="58.10719" lon="-6.51435">
        <ele>24.87</ele>
        <time>2021-03-20T18:20:42Z</time>
      </trkpt>
      <trkpt lat="58.10765" lon="-6.51296">
        <ele>28.36</ele>
        <time>2021-03-20T18:20:46Z</time>
      </trkpt>
      <trkpt lat="58.10826" lon="-6.51196">
        <ele>30</ele>
        <time>2021-03-20T18:20:50Z</time>
      </trkpt>
      <trkpt lat="58.10903" lon="-6.51107">
        <ele>32.42</ele>
        <time>2021-03-20T18:20:54Z</time>
      </trkpt>
      <trkpt lat="58.10986" lon="-6.51015">
        <ele>32.49</ele>
        <time>2021-03-20T18:20:58Z</time>
      </trkpt>
      <trkpt lat="58.11088" lon="-6.50962">
        <ele>37.55</ele>
        <time>2021-03-20T18:21:02Z</time>
      </trkpt>
      <trkpt lat="58.11131" lon="-6.50962">
        <ele>38.64</ele>
        <time>2021-03-20T18:21:06Z</time>
      </trkpt>
      <trkpt lat="58.1117" lon="-6.50984">
        <ele>38.31</ele>
        <time>2021-03-20T18:21:10Z</time>
      </trkpt>
      <trkpt lat="58.11209" lon="-6.51019">
        <ele>37.65</ele>
        <time>2021-03-20T18:21:14Z</time>
      </trkpt>
      <trkpt lat="58.11276" lon="-6.51087">
        <ele>37.12</ele>
        <time>2021-03-20T18:21:18Z</time>
      </trkpt>
      <trkpt lat="58.11384" lon="-6.51237">
        <ele>40.21</ele>
        <time>2021-03-20T18:21:22Z</time>
      </trkpt>
      <trkpt lat="58.11432" lon="-6.51275">
        <ele>40.41</ele>
        <time>2021-03-20T18:21:25Z</time>
      </trkpt>
      <trkpt lat="58.11463" lon="-6.51278">
        <ele>40.01</ele>
        <time>2021-03-20T18:21:29Z</time>
      </trkpt>
      <trkpt lat="58.11496" lon="-6.51267">
        <ele>41.35</ele>
        <time>2021-03-20T18:21:33Z</time>
      </trkpt>
      <trkpt lat="58.11544" lon="-6.51232">
        <ele>42.58</ele>
        <time>2021-03-20T18:21:37Z</time>
      </trkpt>
      <trkpt lat="58.11576" lon="-6.51204">
        <ele>42.8</ele>
        <time>2021-03-20T18:21:41Z</time>
      </trkpt>
      <trkpt lat="58.11649" lon="-6.51107">
        <ele>43.42</ele>
        <time>2021-03-20T18:21:45Z</time>
      </trkpt>
      <trkpt lat="58.1167" lon="-6.51084">
        <ele>43.16</ele>
        <time>2021-03-20T18:21:49Z</time>
      </trkpt>
      <trkpt lat="58.11691" lon="-6.51075">
        <ele>43.04</ele>
        <time>2021-03-20T18:21:53Z</time>
      </trkpt>
      <trkpt lat="58.11716" lon="-6.51078">
        <ele>42.05</ele>
        <time>2021-03-20T18:21:57Z</time>
      </trkpt>
      <trkpt lat="58.11744" lon="-6.511">
        <ele>41.57</ele>
        <time>2021-03-20T18:22:01Z</time>
      </trkpt>
      <trkpt lat="58.11848" lon="-6.51211">
        <ele>37.51</ele>
        <time>2021-03-20T18:22:05Z</time>
      </trkpt>
      <trkpt lat="58.11872" lon="-6.51227">
        <ele>36.41</ele>
        <time>2021-03-20T18:22:09Z</time>
      </trkpt>
      <trkpt lat="58.11894" lon="-6.51233">
        <ele>35.49</ele>
        <time>2021-03-20T18:22:12Z</time>
      </trkpt>
      <trkpt lat="58.11915" lon="-6.51225">
        <ele>35.93</ele>
        <time>2021-03-20T18:22:16Z</time>
      </trkpt>
      <trkpt lat="58.11933" lon="-6.51209">
        <ele>36</ele>
        <time>2021-03-20T18:22:20Z</time>
      </trkpt>
      <trkpt lat="58.11952" lon="-6.51183">
        <ele>35.58</ele>
        <time>2021-03-20T18:22:24Z</time>
      </trkpt>
      <trkpt lat="58.12011" lon="-6.51078">
        <ele>35.08</ele>
        <time>2021-03-20T18:22:28Z</time>
      </trkpt>
      <trkpt lat="58.12032" lon="-6.51048">
        <ele>36.15</ele>
        <time>2021-03-20T18:22:32Z</time>
      </trkpt>
      <trkpt lat="58.12055" lon="-6.51027">
        <ele>37.04</ele>
        <time>2021-03-20T18:22:36Z</time>
      </trkpt>
      <trkpt lat="58.12078" lon="-6.51018">
        <ele>38.17</ele>
        <time>2021-03-20T18:22:40Z</time>
      </trkpt>
      <trkpt lat="58.12101" lon="-6.51016">
        <ele>39.04</ele>
        <time>2021-03-20T18:22:44Z</time>
      </trkpt>
      <trkpt lat="58.12173" lon="-6.51039">
        <ele>44.21</ele>
        <time>2021-03-20T18:22:48Z</time>
      </trkpt>
      <trkpt lat="58.12234" lon="-6.5103">
        <ele>45.43</ele>
        <time>2021-03-20T18:22:52Z</time>
      </trkpt>
      <trkpt lat="58.12266" lon="-6.51019">
        <ele>46.31</ele>
        <time>2021-03-20T18:22:55Z</time>
      </trkpt>
      <trkpt lat="58.12292" lon="-6.51003">
        <ele>46.44</ele>
        <time>2021-03-20T18:22:59Z</time>
      </trkpt>
      <trkpt lat="58.12314" lon="-6.50979">
        <ele>46.54</ele>
        <time>2021-03-20T18:23:03Z</time>
      </trkpt>
      <trkpt lat="58.12334" lon="-6.50943">
        <ele>45.98</ele>
        <time>2021-03-20T18:23:07Z</time>
      </trkpt>
      <trkpt lat="58.124" lon="-6.50812">
        <ele>45</ele>
        <time>2021-03-20T18:23:11Z</time>
      </trkpt>
      <trkpt lat="58.12426" lon="-6.50774">
        <ele>46</ele>
        <time>2021-03-20T18:23:15Z</time>
      </trkpt>
      <trkpt lat="58.12455" lon="-6.50751">
        <ele>46.37</ele>
        <time>2021-03-20T18:23:19Z</time>
      </trkpt>
      <trkpt lat="58.1248" lon="-6.50743">
        <ele>47.54</ele>
        <time>2021-03-20T18:23:23Z</time>
      </trkpt>
      <trkpt lat="58.12531" lon="-6.50744">
        <ele>49.2</ele>
        <time>2021-03-20T18:23:27Z</time>
      </trkpt>
      <trkpt lat="58.12554" lon="-6.5074">
        <ele>49.34</ele>
        <time>2021-03-20T18:23:31Z</time>
      </trkpt>
      <trkpt lat="58.12741" lon="-6.50684">
        <ele>47.28</ele>
        <time>2021-03-20T18:23:35Z</time>
      </trkpt>
      <trkpt lat="58.13063" lon="-6.5058">
        <ele>42.01</ele>
        <time>2021-03-20T18:23:39Z</time>
      </trkpt>
      <trkpt lat="58.13106" lon="-6.50562">
        <ele>42.11</ele>
        <time>2021-03-20T18:23:42Z</time>
      </trkpt>
      <trkpt lat="58.13132" lon="-6.50559">
        <ele>41.37</ele>
        <time>2021-03-20T18:23:46Z</time>
      </trkpt>
      <trkpt lat="58.13157" lon="-6.50571">
        <ele>40.6</ele>
        <time>2021-03-20T18:23:50Z</time>
      </trkpt>
      <trkpt lat="58.13228" lon="-6.5064">
        <ele>41.97</ele>
        <time>2021-03-20T18:23:54Z</time>
      </trkpt>
      <trkpt lat="58.13259" lon="-6.50665">
        <ele>42.94</ele>
        <time>2021-03-20T18:23:58Z</time>
      </trkpt>
      <trkpt lat="58.13354" lon="-6.5069">
        <ele>39.92</ele>
        <time>2021-03-20T18:24:02Z</time>
      </trkpt>
      <trkpt lat="58.13378" lon="-6.50704">
        <ele>39.12</ele>
        <time>2021-03-20T18:24:06Z</time>
      </trkpt>
      <trkpt lat="58.13433" lon="-6.50755">
        <ele>39.93</ele>
        <time>2021-03-20T18:24:10Z</time>
      </trkpt>
      <trkpt lat="58.13433" lon="-6.50755">
        <ele>39.93</ele>
        <time>2021-03-20T18:24:10Z</time>
      </trkpt>
      <trkpt lat="58.13448" lon="-6.50769">
        <ele>40.74</ele>
        <time>2021-03-20T18:24:14Z</time>
      </trkpt>
      <trkpt lat="58.13491" lon="-6.50798">
        <ele>43.56</ele>
        <time>2021-03-20T18:24:17Z</time>
      </trkpt>
      <trkpt lat="58.13556" lon="-6.50869">
        <ele>45.04</ele>
        <time>2021-03-20T18:24:21Z</time>
      </trkpt>
      <trkpt lat="58.13717" lon="-6.5091">
        <ele>41.98</ele>
        <time>2021-03-20T18:24:24Z</time>
      </trkpt>
      <trkpt lat="58.13741" lon="-6.5091">
        <ele>43.24</ele>
        <time>2021-03-20T18:24:28Z</time>
      </trkpt>
      <trkpt lat="58.13766" lon="-6.50899">
        <ele>42.37</ele>
        <time>2021-03-20T18:24:32Z</time>
      </trkpt>
      <trkpt lat="58.138" lon="-6.50873">
        <ele>40.67</ele>
        <time>2021-03-20T18:24:35Z</time>
      </trkpt>
      <trkpt lat="58.13836" lon="-6.50837">
        <ele>37.56</ele>
        <time>2021-03-20T18:24:39Z</time>
      </trkpt>
      <trkpt lat="58.13853" lon="-6.50829">
        <ele>38.26</ele>
        <time>2021-03-20T18:24:42Z</time>
      </trkpt>
      <trkpt lat="58.13873" lon="-6.50829">
        <ele>38.42</ele>
        <time>2021-03-20T18:24:46Z</time>
      </trkpt>
      <trkpt lat="58.13896" lon="-6.50841">
        <ele>37.93</ele>
        <time>2021-03-20T18:24:50Z</time>
      </trkpt>
      <trkpt lat="58.13946" lon="-6.50898">
        <ele>33.74</ele>
        <time>2021-03-20T18:24:53Z</time>
      </trkpt>
      <trkpt lat="58.13965" lon="-6.50913">
        <ele>36.18</ele>
        <time>2021-03-20T18:24:57Z</time>
      </trkpt>
      <trkpt lat="58.13992" lon="-6.50916">
        <ele>38.35</ele>
        <time>2021-03-20T18:25:00Z</time>
      </trkpt>
      <trkpt lat="58.14016" lon="-6.50908">
        <ele>39.9</ele>
        <time>2021-03-20T18:25:04Z</time>
      </trkpt>
      <trkpt lat="58.14038" lon="-6.5089">
        <ele>41.54</ele>
        <time>2021-03-20T18:25:07Z</time>
      </trkpt>
      <trkpt lat="58.14061" lon="-6.50858">
        <ele>42.37</ele>
        <time>2021-03-20T18:25:11Z</time>
      </trkpt>
      <trkpt lat="58.14106" lon="-6.50779">
        <ele>41.67</ele>
        <time>2021-03-20T18:25:15Z</time>
      </trkpt>
      <trkpt lat="58.14129" lon="-6.50749">
        <ele>41.97</ele>
        <time>2021-03-20T18:25:18Z</time>
      </trkpt>
      <trkpt lat="58.14153" lon="-6.50738">
        <ele>42.08</ele>
        <time>2021-03-20T18:25:22Z</time>
      </trkpt>
      <trkpt lat="58.14176" lon="-6.50739">
        <ele>42.26</ele>
        <time>2021-03-20T18:25:25Z</time>
      </trkpt>
      <trkpt lat="58.14196" lon="-6.50752">
        <ele>41.83</ele>
        <time>2021-03-20T18:25:29Z</time>
      </trkpt>
      <trkpt lat="58.14227" lon="-6.50787">
        <ele>38.72</ele>
        <time>2021-03-20T18:25:33Z</time>
      </trkpt>
      <trkpt lat="58.14275" lon="-6.50817">
        <ele>35.11</ele>
        <time>2021-03-20T18:25:36Z</time>
      </trkpt>
      <trkpt lat="58.14426" lon="-6.50899">
        <ele>28.01</ele>
        <time>2021-03-20T18:25:40Z</time>
      </trkpt>
      <trkpt lat="58.14453" lon="-6.50907">
        <ele>27.33</ele>
        <time>2021-03-20T18:25:43Z</time>
      </trkpt>
      <trkpt lat="58.14495" lon="-6.50911">
        <ele>26.97</ele>
        <time>2021-03-20T18:25:47Z</time>
      </trkpt>
      <trkpt lat="58.14521" lon="-6.5091">
        <ele>27.77</ele>
        <time>2021-03-20T18:25:50Z</time>
      </trkpt>
      <trkpt lat="58.14543" lon="-6.509">
        <ele>28.56</ele>
        <time>2021-03-20T18:25:54Z</time>
      </trkpt>
      <trkpt lat="58.14567" lon="-6.50878">
        <ele>29</ele>
        <time>2021-03-20T18:25:58Z</time>
      </trkpt>
      <trkpt lat="58.14602" lon="-6.50828">
        <ele>29</ele>
        <time>2021-03-20T18:26:01Z</time>
      </trkpt>
      <trkpt lat="58.14644" lon="-6.50773">
        <ele>26.61</ele>
        <time>2021-03-20T18:26:05Z</time>
      </trkpt>
      <trkpt lat="58.14933" lon="-6.50433">
        <ele>33.59</ele>
        <time>2021-03-20T18:26:08Z</time>
      </trkpt>
      <trkpt lat="58.15159" lon="-6.50195">
        <ele>46.19</ele>
        <time>2021-03-20T18:26:12Z</time>
      </trkpt>
      <trkpt lat="58.15514" lon="-6.49833">
        <ele>67.55</ele>
        <time>2021-03-20T18:26:16Z</time>
      </trkpt>
      <trkpt lat="58.15517" lon="-6.49853">
        <ele>68.51</ele>
        <time>2021-03-20T18:26:21Z</time>
      </trkpt>
      <trkpt lat="58.15513" lon="-6.49899">
        <ele>69.55</ele>
        <time>2021-03-20T18:26:27Z</time>
      </trkpt>
      <trkpt lat="58.15489" lon="-6.50106">
        <ele>68.81</ele>
        <time>2021-03-20T18:26:33Z</time>
      </trkpt>
      <trkpt lat="58.15481" lon="-6.50202">
        <ele>67.92</ele>
        <time>2021-03-20T18:26:38Z</time>
      </trkpt>
      <trkpt lat="58.15474" lon="-6.50332">
        <ele>67.2</ele>
        <time>2021-03-20T18:26:44Z</time>
      </trkpt>
      <trkpt lat="58.15472" lon="-6.50399">
        <ele>66.01</ele>
        <time>2021-03-20T18:26:50Z</time>
      </trkpt>
      <trkpt lat="58.15473" lon="-6.50475">
        <ele>65.07</ele>
        <time>2021-03-20T18:26:55Z</time>
      </trkpt>
      <trkpt lat="58.15495" lon="-6.50866">
        <ele>62.83</ele>
        <time>2021-03-20T18:27:01Z</time>
      </trkpt>
      <trkpt lat="58.15509" lon="-6.50962">
        <ele>62.01</ele>
        <time>2021-03-20T18:27:07Z</time>
      </trkpt>
      <trkpt lat="58.15531" lon="-6.51054">
        <ele>62.11</ele>
        <time>2021-03-20T18:27:12Z</time>
      </trkpt>
      <trkpt lat="58.15561" lon="-6.51173">
        <ele>61.34</ele>
        <time>2021-03-20T18:27:18Z</time>
      </trkpt>
      <trkpt lat="58.15595" lon="-6.51284">
        <ele>61.51</ele>
        <time>2021-03-20T18:27:24Z</time>
      </trkpt>
      <trkpt lat="58.15618" lon="-6.51342">
        <ele>60.97</ele>
        <time>2021-03-20T18:27:30Z</time>
      </trkpt>
      <trkpt lat="58.15678" lon="-6.51457">
        <ele>59.69</ele>
        <time>2021-03-20T18:27:35Z</time>
      </trkpt>
      <trkpt lat="58.15712" lon="-6.51534">
        <ele>58.42</ele>
        <time>2021-03-20T18:27:41Z</time>
      </trkpt>
      <trkpt lat="58.1573" lon="-6.51583">
        <ele>57.26</ele>
        <time>2021-03-20T18:27:47Z</time>
      </trkpt>
      <trkpt lat="58.15744" lon="-6.51665">
        <ele>57.58</ele>
        <time>2021-03-20T18:27:52Z</time>
      </trkpt>
      <trkpt lat="58.15746" lon="-6.51684">
        <ele>57.82</ele>
        <time>2021-03-20T18:27:58Z</time>
      </trkpt>
      <trkpt lat="58.1584" lon="-6.52659">
        <ele>56.74</ele>
        <time>2021-03-20T18:28:04Z</time>
      </trkpt>
      <trkpt lat="58.15846" lon="-6.52703">
        <ele>55.61</ele>
        <time>2021-03-20T18:28:09Z</time>
      </trkpt>
      <trkpt lat="58.15856" lon="-6.52747">
        <ele>53.83</ele>
        <time>2021-03-20T18:28:15Z</time>
      </trkpt>
      <trkpt lat="58.15873" lon="-6.52794">
        <ele>52.73</ele>
        <time>2021-03-20T18:28:21Z</time>
      </trkpt>
      <trkpt lat="58.15895" lon="-6.52836">
        <ele>52.41</ele>
        <time>2021-03-20T18:28:26Z</time>
      </trkpt>
      <trkpt lat="58.15943" lon="-6.5291">
        <ele>52.61</ele>
        <time>2021-03-20T18:28:32Z</time>
      </trkpt>
      <trkpt lat="58.15962" lon="-6.52954">
        <ele>51.94</ele>
        <time>2021-03-20T18:28:38Z</time>
      </trkpt>
      <trkpt lat="58.15979" lon="-6.53012">
        <ele>51.61</ele>
        <time>2021-03-20T18:28:44Z</time>
      </trkpt>
      <trkpt lat="58.15999" lon="-6.53119">
        <ele>50.65</ele>
        <time>2021-03-20T18:28:49Z</time>
      </trkpt>
      <trkpt lat="58.16025" lon="-6.53241">
        <ele>50.98</ele>
        <time>2021-03-20T18:28:55Z</time>
      </trkpt>
      <trkpt lat="58.16048" lon="-6.53323">
        <ele>51.58</ele>
        <time>2021-03-20T18:29:01Z</time>
      </trkpt>
      <trkpt lat="58.16081" lon="-6.53405">
        <ele>51.2</ele>
        <time>2021-03-20T18:29:06Z</time>
      </trkpt>
      <trkpt lat="58.16179" lon="-6.53608">
        <ele>55.42</ele>
        <time>2021-03-20T18:29:12Z</time>
      </trkpt>
      <trkpt lat="58.16207" lon="-6.53671">
        <ele>56.21</ele>
        <time>2021-03-20T18:29:18Z</time>
      </trkpt>
      <trkpt lat="58.16248" lon="-6.53776">
        <ele>55.99</ele>
        <time>2021-03-20T18:29:23Z</time>
      </trkpt>
      <trkpt lat="58.16285" lon="-6.53858">
        <ele>54.11</ele>
        <time>2021-03-20T18:29:29Z</time>
      </trkpt>
      <trkpt lat="58.16365" lon="-6.54011">
        <ele>50.77</ele>
        <time>2021-03-20T18:29:35Z</time>
      </trkpt>
      <trkpt lat="58.16434" lon="-6.54157">
        <ele>52.25</ele>
        <time>2021-03-20T18:29:40Z</time>
      </trkpt>
      <trkpt lat="58.1645" lon="-6.54208">
        <ele>52.21</ele>
        <time>2021-03-20T18:29:46Z</time>
      </trkpt>
      <trkpt lat="58.16462" lon="-6.54263">
        <ele>52.64</ele>
        <time>2021-03-20T18:29:52Z</time>
      </trkpt>
      <trkpt lat="58.16467" lon="-6.5433">
        <ele>52.8</ele>
        <time>2021-03-20T18:29:57Z</time>
      </trkpt>
      <trkpt lat="58.16481" lon="-6.54851">
        <ele>58.62</ele>
        <time>2021-03-20T18:30:03Z</time>
      </trkpt>
      <trkpt lat="58.16487" lon="-6.54919">
        <ele>59.06</ele>
        <time>2021-03-20T18:30:09Z</time>
      </trkpt>
      <trkpt lat="58.16542" lon="-6.55334">
        <ele>63.49</ele>
        <time>2021-03-20T18:30:15Z</time>
      </trkpt>
      <trkpt lat="58.16554" lon="-6.55445">
        <ele>63.71</ele>
        <time>2021-03-20T18:30:20Z</time>
      </trkpt>
      <trkpt lat="58.16586" lon="-6.55894">
        <ele>70.34</ele>
        <time>2021-03-20T18:30:26Z</time>
      </trkpt>
      <trkpt lat="58.16593" lon="-6.55966">
        <ele>70.61</ele>
        <time>2021-03-20T18:30:32Z</time>
      </trkpt>
      <trkpt lat="58.16605" lon="-6.56021">
        <ele>71.09</ele>
        <time>2021-03-20T18:30:37Z</time>
      </trkpt>
      <trkpt lat="58.16613" lon="-6.56047">
        <ele>71.46</ele>
        <time>2021-03-20T18:30:43Z</time>
      </trkpt>
      <trkpt lat="58.16624" lon="-6.56078">
        <ele>71.61</ele>
        <time>2021-03-20T18:30:49Z</time>
      </trkpt>
      <trkpt lat="58.1664" lon="-6.56108">
        <ele>72.21</ele>
        <time>2021-03-20T18:30:54Z</time>
      </trkpt>
      <trkpt lat="58.16687" lon="-6.56167">
        <ele>75.13</ele>
        <time>2021-03-20T18:31:00Z</time>
      </trkpt>
      <trkpt lat="58.16763" lon="-6.56253">
        <ele>77.26</ele>
        <time>2021-03-20T18:31:06Z</time>
      </trkpt>
      <trkpt lat="58.16773" lon="-6.56269">
        <ele>77.76</ele>
        <time>2021-03-20T18:31:11Z</time>
      </trkpt>
      <trkpt lat="58.16785" lon="-6.56297">
        <ele>78.09</ele>
        <time>2021-03-20T18:31:17Z</time>
      </trkpt>
      <trkpt lat="58.16795" lon="-6.56334">
        <ele>78.52</ele>
        <time>2021-03-20T18:31:23Z</time>
      </trkpt>
      <trkpt lat="58.16814" lon="-6.56427">
        <ele>79.19</ele>
        <time>2021-03-20T18:31:28Z</time>
      </trkpt>
      <trkpt lat="58.16831" lon="-6.56488">
        <ele>80.15</ele>
        <time>2021-03-20T18:31:34Z</time>
      </trkpt>
      <trkpt lat="58.16886" lon="-6.56651">
        <ele>85.46</ele>
        <time>2021-03-20T18:31:40Z</time>
      </trkpt>
      <trkpt lat="58.16911" lon="-6.56699">
        <ele>87.27</ele>
        <time>2021-03-20T18:31:46Z</time>
      </trkpt>
      <trkpt lat="58.16932" lon="-6.5673">
        <ele>87.27</ele>
        <time>2021-03-20T18:31:51Z</time>
      </trkpt>
      <trkpt lat="58.16962" lon="-6.56763">
        <ele>88.42</ele>
        <time>2021-03-20T18:31:57Z</time>
      </trkpt>
      <trkpt lat="58.17018" lon="-6.56833">
        <ele>89.95</ele>
        <time>2021-03-20T18:32:03Z</time>
      </trkpt>
      <trkpt lat="58.17054" lon="-6.5689">
        <ele>90.79</ele>
        <time>2021-03-20T18:32:08Z</time>
      </trkpt>
      <trkpt lat="58.17069" lon="-6.56918">
        <ele>90.88</ele>
        <time>2021-03-20T18:32:14Z</time>
      </trkpt>
      <trkpt lat="58.17094" lon="-6.56978">
        <ele>90.74</ele>
        <time>2021-03-20T18:32:20Z</time>
      </trkpt>
      <trkpt lat="58.17105" lon="-6.57012">
        <ele>91.89</ele>
        <time>2021-03-20T18:32:25Z</time>
      </trkpt>
      <trkpt lat="58.17115" lon="-6.57054">
        <ele>93.27</ele>
        <time>2021-03-20T18:32:31Z</time>
      </trkpt>
      <trkpt lat="58.1713" lon="-6.57138">
        <ele>95.06</ele>
        <time>2021-03-20T18:32:37Z</time>
      </trkpt>
      <trkpt lat="58.17161" lon="-6.57386">
        <ele>97.4</ele>
        <time>2021-03-20T18:32:42Z</time>
      </trkpt>
      <trkpt lat="58.17175" lon="-6.57668">
        <ele>93.59</ele>
        <time>2021-03-20T18:32:48Z</time>
      </trkpt>
      <trkpt lat="58.17192" lon="-6.5807">
        <ele>93.85</ele>
        <time>2021-03-20T18:32:54Z</time>
      </trkpt>
      <trkpt lat="58.17203" lon="-6.58278">
        <ele>95.62</ele>
        <time>2021-03-20T18:33:00Z</time>
      </trkpt>
      <trkpt lat="58.17206" lon="-6.58364">
        <ele>96.24</ele>
        <time>2021-03-20T18:33:05Z</time>
      </trkpt>
      <trkpt lat="58.17222" lon="-6.58716">
        <ele>98.02</ele>
        <time>2021-03-20T18:33:11Z</time>
      </trkpt>
      <trkpt lat="58.17229" lon="-6.58793">
        <ele>98.18</ele>
        <time>2021-03-20T18:33:17Z</time>
      </trkpt>
      <trkpt lat="58.17274" lon="-6.59146">
        <ele>88.61</ele>
        <time>2021-03-20T18:33:22Z</time>
      </trkpt>
      <trkpt lat="58.17337" lon="-6.59747">
        <ele>75.45</ele>
        <time>2021-03-20T18:33:28Z</time>
      </trkpt>
      <trkpt lat="58.17445" lon="-6.60918">
        <ele>77.03</ele>
        <time>2021-03-20T18:33:34Z</time>
      </trkpt>
      <trkpt lat="58.17452" lon="-6.60974">
        <ele>75.47</ele>
        <time>2021-03-20T18:33:39Z</time>
      </trkpt>
      <trkpt lat="58.17461" lon="-6.61025">
        <ele>73.42</ele>
        <time>2021-03-20T18:33:45Z</time>
      </trkpt>
      <trkpt lat="58.17471" lon="-6.61064">
        <ele>72.28</ele>
        <time>2021-03-20T18:33:51Z</time>
      </trkpt>
      <trkpt lat="58.17496" lon="-6.61138">
        <ele>70.72</ele>
        <time>2021-03-20T18:33:56Z</time>
      </trkpt>
      <trkpt lat="58.17532" lon="-6.61271">
        <ele>73.3</ele>
        <time>2021-03-20T18:34:02Z</time>
      </trkpt>
      <trkpt lat="58.17625" lon="-6.61667">
        <ele>68.5</ele>
        <time>2021-03-20T18:34:08Z</time>
      </trkpt>
      <trkpt lat="58.17645" lon="-6.61773">
        <ele>68.47</ele>
        <time>2021-03-20T18:34:13Z</time>
      </trkpt>
      <trkpt lat="58.17659" lon="-6.61877">
        <ele>67.03</ele>
        <time>2021-03-20T18:34:19Z</time>
      </trkpt>
      <trkpt lat="58.17694" lon="-6.62244">
        <ele>63.2</ele>
        <time>2021-03-20T18:34:25Z</time>
      </trkpt>
      <trkpt lat="58.17844" lon="-6.63757">
        <ele>48</ele>
        <time>2021-03-20T18:34:31Z</time>
      </trkpt>
      <trkpt lat="58.17936" lon="-6.64649">
        <ele>45.31</ele>
        <time>2021-03-20T18:34:36Z</time>
      </trkpt>
      <trkpt lat="58.18076" lon="-6.65916">
        <ele>41.04</ele>
        <time>2021-03-20T18:34:42Z</time>
      </trkpt>
      <trkpt lat="58.18095" lon="-6.66069">
        <ele>35.09</ele>
        <time>2021-03-20T18:34:48Z</time>
      </trkpt>
      <trkpt lat="58.18105" lon="-6.66131">
        <ele>32.52</ele>
        <time>2021-03-20T18:34:53Z</time>
      </trkpt>
      <trkpt lat="58.18124" lon="-6.66208">
        <ele>29.06</ele>
        <time>2021-03-20T18:34:59Z</time>
      </trkpt>
      <trkpt lat="58.18242" lon="-6.66652">
        <ele>28.7</ele>
        <time>2021-03-20T18:35:05Z</time>
      </trkpt>
      <trkpt lat="58.18359" lon="-6.67079">
        <ele>36.84</ele>
        <time>2021-03-20T18:35:10Z</time>
      </trkpt>
      <trkpt lat="58.18437" lon="-6.67406">
        <ele>40.73</ele>
        <time>2021-03-20T18:35:16Z</time>
      </trkpt>
      <trkpt lat="58.18536" lon="-6.67749">
        <ele>42.32</ele>
        <time>2021-03-20T18:35:22Z</time>
      </trkpt>
      <trkpt lat="58.18574" lon="-6.67939">
        <ele>38.12</ele>
        <time>2021-03-20T18:35:27Z</time>
      </trkpt>
      <trkpt lat="58.18615" lon="-6.68214">
        <ele>37.14</ele>
        <time>2021-03-20T18:35:33Z</time>
      </trkpt>
      <trkpt lat="58.18663" lon="-6.68562">
        <ele>34.7</ele>
        <time>2021-03-20T18:35:39Z</time>
      </trkpt>
      <trkpt lat="58.1873" lon="-6.69015">
        <ele>34.48</ele>
        <time>2021-03-20T18:35:44Z</time>
      </trkpt>
      <trkpt lat="58.18784" lon="-6.69404">
        <ele>28.45</ele>
        <time>2021-03-20T18:35:50Z</time>
      </trkpt>
      <trkpt lat="58.18812" lon="-6.6972">
        <ele>26.23</ele>
        <time>2021-03-20T18:35:56Z</time>
      </trkpt>
      <trkpt lat="58.18819" lon="-6.69897">
        <ele>25.47</ele>
        <time>2021-03-20T18:36:02Z</time>
      </trkpt>
      <trkpt lat="58.18817" lon="-6.69973">
        <ele>25.42</ele>
        <time>2021-03-20T18:36:07Z</time>
      </trkpt>
      <trkpt lat="58.18811" lon="-6.7006">
        <ele>26.2</ele>
        <time>2021-03-20T18:36:13Z</time>
      </trkpt>
      <trkpt lat="58.18793" lon="-6.70223">
        <ele>26.67</ele>
        <time>2021-03-20T18:36:19Z</time>
      </trkpt>
      <trkpt lat="58.18793" lon="-6.70263">
        <ele>25.13</ele>
        <time>2021-03-20T18:36:24Z</time>
      </trkpt>
      <trkpt lat="58.18795" lon="-6.70311">
        <ele>23.77</ele>
        <time>2021-03-20T18:36:30Z</time>
      </trkpt>
      <trkpt lat="58.18803" lon="-6.70367">
        <ele>23.47</ele>
        <time>2021-03-20T18:36:36Z</time>
      </trkpt>
      <trkpt lat="58.18815" lon="-6.70414">
        <ele>23.43</ele>
        <time>2021-03-20T18:36:41Z</time>
      </trkpt>
      <trkpt lat="58.18829" lon="-6.70451">
        <ele>25.13</ele>
        <time>2021-03-20T18:36:47Z</time>
      </trkpt>
      <trkpt lat="58.18855" lon="-6.70501">
        <ele>27.07</ele>
        <time>2021-03-20T18:36:53Z</time>
      </trkpt>
      <trkpt lat="58.1893" lon="-6.70594">
        <ele>27.09</ele>
        <time>2021-03-20T18:36:58Z</time>
      </trkpt>
      <trkpt lat="58.19055" lon="-6.70724">
        <ele>23.95</ele>
        <time>2021-03-20T18:37:04Z</time>
      </trkpt>
      <trkpt lat="58.1912" lon="-6.70807">
        <ele>22.32</ele>
        <time>2021-03-20T18:37:10Z</time>
      </trkpt>
      <trkpt lat="58.19156" lon="-6.70857">
        <ele>22.23</ele>
        <time>2021-03-20T18:37:16Z</time>
      </trkpt>
      <trkpt lat="58.19222" lon="-6.70996">
        <ele>22.99</ele>
        <time>2021-03-20T18:37:21Z</time>
      </trkpt>
      <trkpt lat="58.19244" lon="-6.71057">
        <ele>24.85</ele>
        <time>2021-03-20T18:37:27Z</time>
      </trkpt>
      <trkpt lat="58.19269" lon="-6.71144">
        <ele>27</ele>
        <time>2021-03-20T18:37:33Z</time>
      </trkpt>
      <trkpt lat="58.19316" lon="-6.71343">
        <ele>29.59</ele>
        <time>2021-03-20T18:37:38Z</time>
      </trkpt>
      <trkpt lat="58.19334" lon="-6.71407">
        <ele>30.05</ele>
        <time>2021-03-20T18:37:44Z</time>
      </trkpt>
      <trkpt lat="58.19364" lon="-6.71493">
        <ele>32.19</ele>
        <time>2021-03-20T18:37:50Z</time>
      </trkpt>
      <trkpt lat="58.19401" lon="-6.71576">
        <ele>32.1</ele>
        <time>2021-03-20T18:37:55Z</time>
      </trkpt>
      <trkpt lat="58.1943" lon="-6.71631">
        <ele>31.78</ele>
        <time>2021-03-20T18:38:01Z</time>
      </trkpt>
      <trkpt lat="58.19546" lon="-6.71808">
        <ele>32.64</ele>
        <time>2021-03-20T18:38:07Z</time>
      </trkpt>
      <trkpt lat="58.19577" lon="-6.71865">
        <ele>32</ele>
        <time>2021-03-20T18:38:12Z</time>
      </trkpt>
      <trkpt lat="58.1961" lon="-6.71937">
        <ele>31</ele>
        <time>2021-03-20T18:38:18Z</time>
      </trkpt>
      <trkpt lat="58.1964" lon="-6.7202">
        <ele>29.33</ele>
        <time>2021-03-20T18:38:24Z</time>
      </trkpt>
      <trkpt lat="58.19671" lon="-6.72127">
        <ele>27.16</ele>
        <time>2021-03-20T18:38:29Z</time>
      </trkpt>
      <trkpt lat="58.19778" lon="-6.72605">
        <ele>14.99</ele>
        <time>2021-03-20T18:38:35Z</time>
      </trkpt>
      <trkpt lat="58.19804" lon="-6.72734">
        <ele>13.52</ele>
        <time>2021-03-20T18:38:41Z</time>
      </trkpt>
      <trkpt lat="58.19817" lon="-6.72822">
        <ele>10.42</ele>
        <time>2021-03-20T18:38:47Z</time>
      </trkpt>
      <trkpt lat="58.19851" lon="-6.73097">
        <ele>9</ele>
        <time>2021-03-20T18:38:52Z</time>
      </trkpt>
      <trkpt lat="58.19858" lon="-6.73128">
        <ele>9.07</ele>
        <time>2021-03-20T18:38:58Z</time>
      </trkpt>
      <trkpt lat="58.19872" lon="-6.73163">
        <ele>8.62</ele>
        <time>2021-03-20T18:39:04Z</time>
      </trkpt>
      <trkpt lat="58.19884" lon="-6.73182">
        <ele>8.17</ele>
        <time>2021-03-20T18:39:09Z</time>
      </trkpt>
      <trkpt lat="58.19899" lon="-6.73195">
        <ele>8</ele>
        <time>2021-03-20T18:39:15Z</time>
      </trkpt>
      <trkpt lat="58.20362" lon="-6.73509">
        <ele>5.01</ele>
        <time>2021-03-20T18:39:21Z</time>
      </trkpt>
      <trkpt lat="58.20561" lon="-6.73629">
        <ele>6.22</ele>
        <time>2021-03-20T18:39:26Z</time>
      </trkpt>
      <trkpt lat="58.20657" lon="-6.73693">
        <ele>9.46</ele>
        <time>2021-03-20T18:39:32Z</time>
      </trkpt>
      <trkpt lat="58.20775" lon="-6.73766">
        <ele>8.59</ele>
        <time>2021-03-20T18:39:38Z</time>
      </trkpt>
      <trkpt lat="58.20821" lon="-6.73792">
        <ele>8.52</ele>
        <time>2021-03-20T18:39:43Z</time>
      </trkpt>
      <trkpt lat="58.20895" lon="-6.73822">
        <ele>9.02</ele>
        <time>2021-03-20T18:39:49Z</time>
      </trkpt>
      <trkpt lat="58.20965" lon="-6.73843">
        <ele>9.27</ele>
        <time>2021-03-20T18:39:55Z</time>
      </trkpt>
      <trkpt lat="58.21026" lon="-6.73852">
        <ele>10.29</ele>
        <time>2021-03-20T18:40:01Z</time>
      </trkpt>
      <trkpt lat="58.21105" lon="-6.73851">
        <ele>10.35</ele>
        <time>2021-03-20T18:40:06Z</time>
      </trkpt>
      <trkpt lat="58.21257" lon="-6.73843">
        <ele>9.67</ele>
        <time>2021-03-20T18:40:12Z</time>
      </trkpt>
      <trkpt lat="58.21313" lon="-6.73853">
        <ele>9.28</ele>
        <time>2021-03-20T18:40:18Z</time>
      </trkpt>
      <trkpt lat="58.2134" lon="-6.7387">
        <ele>8.52</ele>
        <time>2021-03-20T18:40:23Z</time>
      </trkpt>
      <trkpt lat="58.21386" lon="-6.73914">
        <ele>8.01</ele>
        <time>2021-03-20T18:40:29Z</time>
      </trkpt>
      <trkpt lat="58.21409" lon="-6.73851">
        <ele>9.81</ele>
        <time>2021-03-20T18:40:33Z</time>
      </trkpt>
      <trkpt lat="58.21415" lon="-6.73827">
        <ele>10</ele>
        <time>2021-03-20T18:40:36Z</time>
      </trkpt>
      <trkpt lat="58.21418" lon="-6.73809">
        <ele>10.05</ele>
        <time>2021-03-20T18:40:40Z</time>
      </trkpt>
      <trkpt lat="58.21421" lon="-6.7377">
        <ele>11.18</ele>
        <time>2021-03-20T18:40:43Z</time>
      </trkpt>
      <trkpt lat="58.21434" lon="-6.73729">
        <ele>13.48</ele>
        <time>2021-03-20T18:40:47Z</time>
      </trkpt>
      <trkpt lat="58.21446" lon="-6.737">
        <ele>15.06</ele>
        <time>2021-03-20T18:40:50Z</time>
      </trkpt>
      <trkpt lat="58.21452" lon="-6.73693">
        <ele>15.27</ele>
        <time>2021-03-20T18:40:54Z</time>
      </trkpt>
      <trkpt lat="58.21476" lon="-6.73699">
        <ele>16.12</ele>
        <time>2021-03-20T18:40:58Z</time>
      </trkpt>
      <trkpt lat="58.21521" lon="-6.73727">
        <ele>18.18</ele>
        <time>2021-03-20T18:41:01Z</time>
      </trkpt>
      <trkpt lat="58.21564" lon="-6.73746">
        <ele>18.48</ele>
        <time>2021-03-20T18:41:05Z</time>
      </trkpt>
      <trkpt lat="58.21584" lon="-6.73765">
        <ele>18.51</ele>
        <time>2021-03-20T18:41:08Z</time>
      </trkpt>
      <trkpt lat="58.21688" lon="-6.73817">
        <ele>22.37</ele>
        <time>2021-03-20T18:41:12Z</time>
      </trkpt>
      <trkpt lat="58.21721" lon="-6.73837">
        <ele>22.85</ele>
        <time>2021-03-20T18:41:15Z</time>
      </trkpt>
      <trkpt lat="58.21791" lon="-6.73866">
        <ele>25.3</ele>
        <time>2021-03-20T18:41:19Z</time>
      </trkpt>
      <trkpt lat="58.21817" lon="-6.73889">
        <ele>25.42</ele>
        <time>2021-03-20T18:41:22Z</time>
      </trkpt>
      <trkpt lat="58.21948" lon="-6.73968">
        <ele>28.38</ele>
        <time>2021-03-20T18:41:26Z</time>
      </trkpt>
      <trkpt lat="58.21975" lon="-6.73981">
        <ele>30.21</ele>
        <time>2021-03-20T18:41:30Z</time>
      </trkpt>
      <trkpt lat="58.21981" lon="-6.73991">
        <ele>30.61</ele>
        <time>2021-03-20T18:41:33Z</time>
      </trkpt>
      <trkpt lat="58.21998" lon="-6.74038">
        <ele>30.86</ele>
        <time>2021-03-20T18:41:37Z</time>
      </trkpt>
      <trkpt lat="58.22019" lon="-6.74075">
        <ele>33.3</ele>
        <time>2021-03-20T18:41:40Z</time>
      </trkpt>
      <trkpt lat="58.22034" lon="-6.7412">
        <ele>34.56</ele>
        <time>2021-03-20T18:41:44Z</time>
      </trkpt>
      <trkpt lat="58.22045" lon="-6.74144">
        <ele>35.69</ele>
        <time>2021-03-20T18:41:47Z</time>
      </trkpt>
      <trkpt lat="58.22051" lon="-6.74169">
        <ele>36.07</ele>
        <time>2021-03-20T18:41:51Z</time>
      </trkpt>
      <trkpt lat="58.22061" lon="-6.74237">
        <ele>38.54</ele>
        <time>2021-03-20T18:41:55Z</time>
      </trkpt>
      <trkpt lat="58.2206" lon="-6.74276">
        <ele>39.8</ele>
        <time>2021-03-20T18:41:58Z</time>
      </trkpt>
      <trkpt lat="58.2205" lon="-6.7436">
        <ele>41.19</ele>
        <time>2021-03-20T18:42:02Z</time>
      </trkpt>
      <trkpt lat="58.22049" lon="-6.74417">
        <ele>41.22</ele>
        <time>2021-03-20T18:42:05Z</time>
      </trkpt>
      <trkpt lat="58.22054" lon="-6.74449">
        <ele>41.04</ele>
        <time>2021-03-20T18:42:09Z</time>
      </trkpt>
      <trkpt lat="58.22061" lon="-6.74473">
        <ele>41</ele>
        <time>2021-03-20T18:42:12Z</time>
      </trkpt>
      <trkpt lat="58.22073" lon="-6.74491">
        <ele>41</ele>
        <time>2021-03-20T18:42:16Z</time>
      </trkpt>
      <trkpt lat="58.22082" lon="-6.74511">
        <ele>40.6</ele>
        <time>2021-03-20T18:42:20Z</time>
      </trkpt>
      <trkpt lat="58.22087" lon="-6.74532">
        <ele>40.24</ele>
        <time>2021-03-20T18:42:23Z</time>
      </trkpt>
      <trkpt lat="58.22089" lon="-6.74554">
        <ele>40.43</ele>
        <time>2021-03-20T18:42:27Z</time>
      </trkpt>
      <trkpt lat="58.22099" lon="-6.74707">
        <ele>38</ele>
        <time>2021-03-20T18:42:30Z</time>
      </trkpt>
      <trkpt lat="58.22099" lon="-6.74745">
        <ele>37.19</ele>
        <time>2021-03-20T18:42:34Z</time>
      </trkpt>
      <trkpt lat="58.22103" lon="-6.74776">
        <ele>37</ele>
        <time>2021-03-20T18:42:37Z</time>
      </trkpt>
      <trkpt lat="58.2212" lon="-6.74826">
        <ele>36</ele>
        <time>2021-03-20T18:42:41Z</time>
      </trkpt>
      <trkpt lat="58.22124" lon="-6.74846">
        <ele>35.56</ele>
        <time>2021-03-20T18:42:44Z</time>
      </trkpt>
      <trkpt lat="58.22133" lon="-6.74974">
        <ele>34.38</ele>
        <time>2021-03-20T18:42:48Z</time>
      </trkpt>
      <trkpt lat="58.22138" lon="-6.7501">
        <ele>35.31</ele>
        <time>2021-03-20T18:42:52Z</time>
      </trkpt>
      <trkpt lat="58.22147" lon="-6.75042">
        <ele>36.85</ele>
        <time>2021-03-20T18:42:55Z</time>
      </trkpt>
      <trkpt lat="58.22153" lon="-6.75101">
        <ele>38.89</ele>
        <time>2021-03-20T18:42:59Z</time>
      </trkpt>
      <trkpt lat="58.22151" lon="-6.75145">
        <ele>40.52</ele>
        <time>2021-03-20T18:43:02Z</time>
      </trkpt>
      <trkpt lat="58.22144" lon="-6.75184">
        <ele>41.2</ele>
        <time>2021-03-20T18:43:06Z</time>
      </trkpt>
      <trkpt lat="58.2214" lon="-6.75217">
        <ele>41.15</ele>
        <time>2021-03-20T18:43:09Z</time>
      </trkpt>
      <trkpt lat="58.22133" lon="-6.75244">
        <ele>40.33</ele>
        <time>2021-03-20T18:43:13Z</time>
      </trkpt>
      <trkpt lat="58.22115" lon="-6.75276">
        <ele>38.4</ele>
        <time>2021-03-20T18:43:17Z</time>
      </trkpt>
      <trkpt lat="58.22105" lon="-6.75318">
        <ele>37.55</ele>
        <time>2021-03-20T18:43:20Z</time>
      </trkpt>
      <trkpt lat="58.22099" lon="-6.75369">
        <ele>36.54</ele>
        <time>2021-03-20T18:43:24Z</time>
      </trkpt>
      <trkpt lat="58.22095" lon="-6.75446">
        <ele>33.39</ele>
        <time>2021-03-20T18:43:27Z</time>
      </trkpt>
      <trkpt lat="58.22085" lon="-6.7555">
        <ele>24.4</ele>
        <time>2021-03-20T18:43:31Z</time>
      </trkpt>
      <trkpt lat="58.22081" lon="-6.75569">
        <ele>22.6</ele>
        <time>2021-03-20T18:43:34Z</time>
      </trkpt>
      <trkpt lat="58.22123" lon="-6.75615">
        <ele>26.75</ele>
        <time>2021-03-20T18:43:38Z</time>
      </trkpt>
      <trkpt lat="58.22229" lon="-6.75757">
        <ele>29.02</ele>
        <time>2021-03-20T18:43:42Z</time>
      </trkpt>
      <trkpt lat="58.22252" lon="-6.75801">
        <ele>29.23</ele>
        <time>2021-03-20T18:43:46Z</time>
      </trkpt>
      <trkpt lat="58.22288" lon="-6.75847">
        <ele>30.21</ele>
        <time>2021-03-20T18:43:50Z</time>
      </trkpt>
      <trkpt lat="58.22337" lon="-6.75883">
        <ele>31</ele>
        <time>2021-03-20T18:43:54Z</time>
      </trkpt>
      <trkpt lat="58.22361" lon="-6.75887">
        <ele>30.99</ele>
        <time>2021-03-20T18:43:58Z</time>
      </trkpt>
      <trkpt lat="58.22388" lon="-6.75881">
        <ele>30.03</ele>
        <time>2021-03-20T18:44:01Z</time>
      </trkpt>
      <trkpt lat="58.22473" lon="-6.75854">
        <ele>24.25</ele>
        <time>2021-03-20T18:44:05Z</time>
      </trkpt>
      <trkpt lat="58.22508" lon="-6.75848">
        <ele>23.86</ele>
        <time>2021-03-20T18:44:09Z</time>
      </trkpt>
      <trkpt lat="58.22633" lon="-6.75849">
        <ele>22.12</ele>
        <time>2021-03-20T18:44:13Z</time>
      </trkpt>
      <trkpt lat="58.22682" lon="-6.75858">
        <ele>21.71</ele>
        <time>2021-03-20T18:44:17Z</time>
      </trkpt>
      <trkpt lat="58.2275" lon="-6.75876">
        <ele>24.42</ele>
        <time>2021-03-20T18:44:21Z</time>
      </trkpt>
      <trkpt lat="58.22847" lon="-6.75908">
        <ele>22.62</ele>
        <time>2021-03-20T18:44:25Z</time>
      </trkpt>
      <trkpt lat="58.22913" lon="-6.75937">
        <ele>24.43</ele>
        <time>2021-03-20T18:44:28Z</time>
      </trkpt>
      <trkpt lat="58.22995" lon="-6.75986">
        <ele>24.7</ele>
        <time>2021-03-20T18:44:32Z</time>
      </trkpt>
      <trkpt lat="58.23089" lon="-6.7605">
        <ele>27.8</ele>
        <time>2021-03-20T18:44:36Z</time>
      </trkpt>
      <trkpt lat="58.23159" lon="-6.76084">
        <ele>29.68</ele>
        <time>2021-03-20T18:44:40Z</time>
      </trkpt>
      <trkpt lat="58.23206" lon="-6.76092">
        <ele>30.03</ele>
        <time>2021-03-20T18:44:44Z</time>
      </trkpt>
      <trkpt lat="58.23364" lon="-6.7609">
        <ele>31.78</ele>
        <time>2021-03-20T18:44:48Z</time>
      </trkpt>
      <trkpt lat="58.23554" lon="-6.76043">
        <ele>35.94</ele>
        <time>2021-03-20T18:44:52Z</time>
      </trkpt>
      <trkpt lat="58.23681" lon="-6.76019">
        <ele>43.52</ele>
        <time>2021-03-20T18:44:55Z</time>
      </trkpt>
      <trkpt lat="58.23805" lon="-6.76027">
        <ele>42.13</ele>
        <time>2021-03-20T18:44:59Z</time>
      </trkpt>
      <trkpt lat="58.23891" lon="-6.76054">
        <ele>37.19</ele>
        <time>2021-03-20T18:45:03Z</time>
      </trkpt>
      <trkpt lat="58.24016" lon="-6.76128">
        <ele>34.41</ele>
        <time>2021-03-20T18:45:07Z</time>
      </trkpt>
      <trkpt lat="58.24121" lon="-6.76172">
        <ele>32.44</ele>
        <time>2021-03-20T18:45:11Z</time>
      </trkpt>
      <trkpt lat="58.24183" lon="-6.76231">
        <ele>31.58</ele>
        <time>2021-03-20T18:45:15Z</time>
      </trkpt>
      <trkpt lat="58.24214" lon="-6.76274">
        <ele>32</ele>
        <time>2021-03-20T18:45:18Z</time>
      </trkpt>
      <trkpt lat="58.24237" lon="-6.76334">
        <ele>32.54</ele>
        <time>2021-03-20T18:45:22Z</time>
      </trkpt>
      <trkpt lat="58.24266" lon="-6.76477">
        <ele>34.14</ele>
        <time>2021-03-20T18:45:26Z</time>
      </trkpt>
      <trkpt lat="58.24296" lon="-6.76535">
        <ele>35.29</ele>
        <time>2021-03-20T18:45:30Z</time>
      </trkpt>
      <trkpt lat="58.24361" lon="-6.76638">
        <ele>38.05</ele>
        <time>2021-03-20T18:45:34Z</time>
      </trkpt>
      <trkpt lat="58.24391" lon="-6.76707">
        <ele>36.73</ele>
        <time>2021-03-20T18:45:38Z</time>
      </trkpt>
      <trkpt lat="58.24418" lon="-6.7681">
        <ele>34.91</ele>
        <time>2021-03-20T18:45:42Z</time>
      </trkpt>
      <trkpt lat="58.24447" lon="-6.76896">
        <ele>33.94</ele>
        <time>2021-03-20T18:45:45Z</time>
      </trkpt>
      <trkpt lat="58.24483" lon="-6.7694">
        <ele>34.57</ele>
        <time>2021-03-20T18:45:49Z</time>
      </trkpt>
      <trkpt lat="58.24536" lon="-6.76996">
        <ele>36.35</ele>
        <time>2021-03-20T18:45:53Z</time>
      </trkpt>
      <trkpt lat="58.24609" lon="-6.77056">
        <ele>36.91</ele>
        <time>2021-03-20T18:45:57Z</time>
      </trkpt>
      <trkpt lat="58.24637" lon="-6.77084">
        <ele>39.73</ele>
        <time>2021-03-20T18:46:01Z</time>
      </trkpt>
      <trkpt lat="58.2472" lon="-6.77179">
        <ele>42.93</ele>
        <time>2021-03-20T18:46:05Z</time>
      </trkpt>
      <trkpt lat="58.2478" lon="-6.77237">
        <ele>43.06</ele>
        <time>2021-03-20T18:46:09Z</time>
      </trkpt>
      <trkpt lat="58.24842" lon="-6.77255">
        <ele>43.87</ele>
        <time>2021-03-20T18:46:12Z</time>
      </trkpt>
      <trkpt lat="58.24884" lon="-6.77253">
        <ele>44</ele>
        <time>2021-03-20T18:46:16Z</time>
      </trkpt>
      <trkpt lat="58.24966" lon="-6.77228">
        <ele>47.92</ele>
        <time>2021-03-20T18:46:20Z</time>
      </trkpt>
      <trkpt lat="58.25043" lon="-6.77222">
        <ele>51.98</ele>
        <time>2021-03-20T18:46:24Z</time>
      </trkpt>
      <trkpt lat="58.25161" lon="-6.77226">
        <ele>50.11</ele>
        <time>2021-03-20T18:46:28Z</time>
      </trkpt>
      <trkpt lat="58.25228" lon="-6.77232">
        <ele>50.19</ele>
        <time>2021-03-20T18:46:32Z</time>
      </trkpt>
      <trkpt lat="58.25228" lon="-6.77232">
        <ele>50.19</ele>
        <time>2021-03-20T18:46:32Z</time>
      </trkpt>
      <trkpt lat="58.25271" lon="-6.77235">
        <ele>50.27</ele>
        <time>2021-03-20T18:46:35Z</time>
      </trkpt>
      <trkpt lat="58.25341" lon="-6.77265">
        <ele>47.46</ele>
        <time>2021-03-20T18:46:39Z</time>
      </trkpt>
      <trkpt lat="58.25402" lon="-6.77321">
        <ele>48.06</ele>
        <time>2021-03-20T18:46:43Z</time>
      </trkpt>
      <trkpt lat="58.25486" lon="-6.77407">
        <ele>39.4</ele>
        <time>2021-03-20T18:46:46Z</time>
      </trkpt>
      <trkpt lat="58.25599" lon="-6.77514">
        <ele>36.06</ele>
        <time>2021-03-20T18:46:50Z</time>
      </trkpt>
      <trkpt lat="58.25667" lon="-6.77595">
        <ele>35.01</ele>
        <time>2021-03-20T18:46:53Z</time>
      </trkpt>
      <trkpt lat="58.25728" lon="-6.77677">
        <ele>37.38</ele>
        <time>2021-03-20T18:46:57Z</time>
      </trkpt>
      <trkpt lat="58.25796" lon="-6.77826">
        <ele>39.66</ele>
        <time>2021-03-20T18:47:01Z</time>
      </trkpt>
      <trkpt lat="58.25873" lon="-6.77958">
        <ele>37.41</ele>
        <time>2021-03-20T18:47:04Z</time>
      </trkpt>
      <trkpt lat="58.25917" lon="-6.78042">
        <ele>38.56</ele>
        <time>2021-03-20T18:47:08Z</time>
      </trkpt>
      <trkpt lat="58.25977" lon="-6.78095">
        <ele>42.59</ele>
        <time>2021-03-20T18:47:12Z</time>
      </trkpt>
      <trkpt lat="58.26047" lon="-6.78133">
        <ele>40.84</ele>
        <time>2021-03-20T18:47:15Z</time>
      </trkpt>
      <trkpt lat="58.26088" lon="-6.78152">
        <ele>40.24</ele>
        <time>2021-03-20T18:47:19Z</time>
      </trkpt>
      <trkpt lat="58.26131" lon="-6.78165">
        <ele>38.45</ele>
        <time>2021-03-20T18:47:22Z</time>
      </trkpt>
      <trkpt lat="58.26197" lon="-6.78179">
        <ele>38.22</ele>
        <time>2021-03-20T18:47:26Z</time>
      </trkpt>
      <trkpt lat="58.26258" lon="-6.78198">
        <ele>38.01</ele>
        <time>2021-03-20T18:47:30Z</time>
      </trkpt>
      <trkpt lat="58.26332" lon="-6.78232">
        <ele>38.32</ele>
        <time>2021-03-20T18:47:33Z</time>
      </trkpt>
      <trkpt lat="58.26391" lon="-6.7827">
        <ele>37.68</ele>
        <time>2021-03-20T18:47:37Z</time>
      </trkpt>
      <trkpt lat="58.26482" lon="-6.78335">
        <ele>38.97</ele>
        <time>2021-03-20T18:47:40Z</time>
      </trkpt>
      <trkpt lat="58.26518" lon="-6.78357">
        <ele>40.1</ele>
        <time>2021-03-20T18:47:44Z</time>
      </trkpt>
      <trkpt lat="58.2655" lon="-6.78371">
        <ele>39.3</ele>
        <time>2021-03-20T18:47:48Z</time>
      </trkpt>
      <trkpt lat="58.26582" lon="-6.78375">
        <ele>38.98</ele>
        <time>2021-03-20T18:47:51Z</time>
      </trkpt>
      <trkpt lat="58.26635" lon="-6.7837">
        <ele>39.33</ele>
        <time>2021-03-20T18:47:55Z</time>
      </trkpt>
      <trkpt lat="58.26667" lon="-6.78373">
        <ele>39.76</ele>
        <time>2021-03-20T18:47:59Z</time>
      </trkpt>
      <trkpt lat="58.26696" lon="-6.78385">
        <ele>39.59</ele>
        <time>2021-03-20T18:48:02Z</time>
      </trkpt>
      <trkpt lat="58.26723" lon="-6.784">
        <ele>40.22</ele>
        <time>2021-03-20T18:48:06Z</time>
      </trkpt>
      <trkpt lat="58.26834" lon="-6.78508">
        <ele>41.15</ele>
        <time>2021-03-20T18:48:09Z</time>
      </trkpt>
      <trkpt lat="58.26875" lon="-6.78543">
        <ele>42.16</ele>
        <time>2021-03-20T18:48:13Z</time>
      </trkpt>
      <trkpt lat="58.26898" lon="-6.78559">
        <ele>41.33</ele>
        <time>2021-03-20T18:48:17Z</time>
      </trkpt>
      <trkpt lat="58.26933" lon="-6.78576">
        <ele>40.13</ele>
        <time>2021-03-20T18:48:20Z</time>
      </trkpt>
      <trkpt lat="58.27001" lon="-6.78591">
        <ele>40.89</ele>
        <time>2021-03-20T18:48:24Z</time>
      </trkpt>
      <trkpt lat="58.27071" lon="-6.78595">
        <ele>39.27</ele>
        <time>2021-03-20T18:48:27Z</time>
      </trkpt>
      <trkpt lat="58.27142" lon="-6.78606">
        <ele>37.88</ele>
        <time>2021-03-20T18:48:31Z</time>
      </trkpt>
      <trkpt lat="58.27205" lon="-6.78621">
        <ele>35.89</ele>
        <time>2021-03-20T18:48:35Z</time>
      </trkpt>
      <trkpt lat="58.27224" lon="-6.78623">
        <ele>35.79</ele>
        <time>2021-03-20T18:48:38Z</time>
      </trkpt>
      <trkpt lat="58.27242" lon="-6.7862">
        <ele>37.26</ele>
        <time>2021-03-20T18:48:42Z</time>
      </trkpt>
      <trkpt lat="58.27256" lon="-6.78614">
        <ele>38.81</ele>
        <time>2021-03-20T18:48:46Z</time>
      </trkpt>
      <trkpt lat="58.2727" lon="-6.78602">
        <ele>40.85</ele>
        <time>2021-03-20T18:48:49Z</time>
      </trkpt>
      <trkpt lat="58.27314" lon="-6.78538">
        <ele>48.07</ele>
        <time>2021-03-20T18:48:53Z</time>
      </trkpt>
      <trkpt lat="58.27339" lon="-6.78508">
        <ele>48.52</ele>
        <time>2021-03-20T18:48:56Z</time>
      </trkpt>
      <trkpt lat="58.27442" lon="-6.7839">
        <ele>41.3</ele>
        <time>2021-03-20T18:49:00Z</time>
      </trkpt>
      <trkpt lat="58.27476" lon="-6.78335">
        <ele>38.91</ele>
        <time>2021-03-20T18:49:04Z</time>
      </trkpt>
      <trkpt lat="58.27496" lon="-6.78294">
        <ele>37.77</ele>
        <time>2021-03-20T18:49:07Z</time>
      </trkpt>
      <trkpt lat="58.27512" lon="-6.78251">
        <ele>36.58</ele>
        <time>2021-03-20T18:49:11Z</time>
      </trkpt>
      <trkpt lat="58.27523" lon="-6.78195">
        <ele>34.66</ele>
        <time>2021-03-20T18:49:14Z</time>
      </trkpt>
      <trkpt lat="58.27532" lon="-6.78133">
        <ele>30.43</ele>
        <time>2021-03-20T18:49:18Z</time>
      </trkpt>
      <trkpt lat="58.27548" lon="-6.78061">
        <ele>27.5</ele>
        <time>2021-03-20T18:49:22Z</time>
      </trkpt>
      <trkpt lat="58.27563" lon="-6.78008">
        <ele>27.24</ele>
        <time>2021-03-20T18:49:25Z</time>
      </trkpt>
      <trkpt lat="58.2757" lon="-6.77991">
        <ele>26.93</ele>
        <time>2021-03-20T18:49:29Z</time>
      </trkpt>
      <trkpt lat="58.27607" lon="-6.77917">
        <ele>26.32</ele>
        <time>2021-03-20T18:49:33Z</time>
      </trkpt>
      <trkpt lat="58.27611" lon="-6.77903">
        <ele>26.5</ele>
        <time>2021-03-20T18:49:36Z</time>
      </trkpt>
      <trkpt lat="58.27622" lon="-6.77849">
        <ele>27.76</ele>
        <time>2021-03-20T18:49:40Z</time>
      </trkpt>
      <trkpt lat="58.2763" lon="-6.77793">
        <ele>28.38</ele>
        <time>2021-03-20T18:49:43Z</time>
      </trkpt>
      <trkpt lat="58.27641" lon="-6.77752">
        <ele>27.93</ele>
        <time>2021-03-20T18:49:47Z</time>
      </trkpt>
      <trkpt lat="58.27653" lon="-6.77719">
        <ele>29.12</ele>
        <time>2021-03-20T18:49:51Z</time>
      </trkpt>
      <trkpt lat="58.27671" lon="-6.77687">
        <ele>30.57</ele>
        <time>2021-03-20T18:49:54Z</time>
      </trkpt>
      <trkpt lat="58.27691" lon="-6.7766">
        <ele>32.26</ele>
        <time>2021-03-20T18:49:58Z</time>
      </trkpt>
      <trkpt lat="58.27703" lon="-6.77636">
        <ele>33.19</ele>
        <time>2021-03-20T18:50:01Z</time>
      </trkpt>
      <trkpt lat="58.2772" lon="-6.77589">
        <ele>35</ele>
        <time>2021-03-20T18:50:05Z</time>
      </trkpt>
      <trkpt lat="58.27755" lon="-6.77468">
        <ele>31.68</ele>
        <time>2021-03-20T18:50:09Z</time>
      </trkpt>
      <trkpt lat="58.27764" lon="-6.77443">
        <ele>30.55</ele>
        <time>2021-03-20T18:50:12Z</time>
      </trkpt>
      <trkpt lat="58.27776" lon="-6.77422">
        <ele>30.2</ele>
        <time>2021-03-20T18:50:16Z</time>
      </trkpt>
      <trkpt lat="58.27791" lon="-6.7741">
        <ele>29.07</ele>
        <time>2021-03-20T18:50:20Z</time>
      </trkpt>
      <trkpt lat="58.27867" lon="-6.77379">
        <ele>21.58</ele>
        <time>2021-03-20T18:50:23Z</time>
      </trkpt>
      <trkpt lat="58.2788" lon="-6.77369">
        <ele>20.62</ele>
        <time>2021-03-20T18:50:27Z</time>
      </trkpt>
      <trkpt lat="58.27948" lon="-6.77293">
        <ele>19.22</ele>
        <time>2021-03-20T18:50:30Z</time>
      </trkpt>
      <trkpt lat="58.27962" lon="-6.7728">
        <ele>18.68</ele>
        <time>2021-03-20T18:50:34Z</time>
      </trkpt>
      <trkpt lat="58.28058" lon="-6.77221">
        <ele>17.71</ele>
        <time>2021-03-20T18:50:38Z</time>
      </trkpt>
      <trkpt lat="58.28075" lon="-6.77203">
        <ele>16.36</ele>
        <time>2021-03-20T18:50:41Z</time>
      </trkpt>
      <trkpt lat="58.2814" lon="-6.77064">
        <ele>17.59</ele>
        <time>2021-03-20T18:50:45Z</time>
      </trkpt>
      <trkpt lat="58.28156" lon="-6.77033">
        <ele>16.31</ele>
        <time>2021-03-20T18:50:48Z</time>
      </trkpt>
      <trkpt lat="58.28254" lon="-6.76875">
        <ele>9.53</ele>
        <time>2021-03-20T18:50:52Z</time>
      </trkpt>
      <trkpt lat="58.28288" lon="-6.76829">
        <ele>7.74</ele>
        <time>2021-03-20T18:50:56Z</time>
      </trkpt>
      <trkpt lat="58.28313" lon="-6.76778">
        <ele>11.06</ele>
        <time>2021-03-20T18:50:59Z</time>
      </trkpt>
      <trkpt lat="58.28317" lon="-6.76765">
        <ele>12.06</ele>
        <time>2021-03-20T18:51:03Z</time>
      </trkpt>
      <trkpt lat="58.28318" lon="-6.76741">
        <ele>13.05</ele>
        <time>2021-03-20T18:51:07Z</time>
      </trkpt>
      <trkpt lat="58.2831" lon="-6.76584">
        <ele>14.57</ele>
        <time>2021-03-20T18:51:10Z</time>
      </trkpt>
      <trkpt lat="58.28294" lon="-6.76383">
        <ele>16.9</ele>
        <time>2021-03-20T18:51:14Z</time>
      </trkpt>
      <trkpt lat="58.28291" lon="-6.7631">
        <ele>18.88</ele>
        <time>2021-03-20T18:51:17Z</time>
      </trkpt>
      <trkpt lat="58.28294" lon="-6.76235">
        <ele>21.32</ele>
        <time>2021-03-20T18:51:21Z</time>
      </trkpt>
      <trkpt lat="58.28297" lon="-6.76199">
        <ele>22.35</ele>
        <time>2021-03-20T18:51:25Z</time>
      </trkpt>
      <trkpt lat="58.28305" lon="-6.76132">
        <ele>23.24</ele>
        <time>2021-03-20T18:51:28Z</time>
      </trkpt>
      <trkpt lat="58.28323" lon="-6.76049">
        <ele>26.92</ele>
        <time>2021-03-20T18:51:32Z</time>
      </trkpt>
      <trkpt lat="58.28342" lon="-6.75973">
        <ele>27.97</ele>
        <time>2021-03-20T18:51:35Z</time>
      </trkpt>
      <trkpt lat="58.28383" lon="-6.75827">
        <ele>30.8</ele>
        <time>2021-03-20T18:51:39Z</time>
      </trkpt>
      <trkpt lat="58.28427" lon="-6.75654">
        <ele>33.74</ele>
        <time>2021-03-20T18:51:43Z</time>
      </trkpt>
      <trkpt lat="58.28458" lon="-6.7552">
        <ele>32.32</ele>
        <time>2021-03-20T18:51:46Z</time>
      </trkpt>
      <trkpt lat="58.28483" lon="-6.75397">
        <ele>35.25</ele>
        <time>2021-03-20T18:51:50Z</time>
      </trkpt>
      <trkpt lat="58.285" lon="-6.75292">
        <ele>36.47</ele>
        <time>2021-03-20T18:51:54Z</time>
      </trkpt>
      <trkpt lat="58.28521" lon="-6.75192">
        <ele>35.46</ele>
        <time>2021-03-20T18:51:57Z</time>
      </trkpt>
      <trkpt lat="58.28528" lon="-6.75135">
        <ele>34.86</ele>
        <time>2021-03-20T18:52:01Z</time>
      </trkpt>
      <trkpt lat="58.28532" lon="-6.75065">
        <ele>34.53</ele>
        <time>2021-03-20T18:52:04Z</time>
      </trkpt>
      <trkpt lat="58.28535" lon="-6.74959">
        <ele>37.35</ele>
        <time>2021-03-20T18:52:08Z</time>
      </trkpt>
      <trkpt lat="58.28563" lon="-6.74653">
        <ele>46.8</ele>
        <time>2021-03-20T18:52:12Z</time>
      </trkpt>
      <trkpt lat="58.28603" lon="-6.74146">
        <ele>54.7</ele>
        <time>2021-03-20T18:52:15Z</time>
      </trkpt>
      <trkpt lat="58.28608" lon="-6.74042">
        <ele>56.9</ele>
        <time>2021-03-20T18:52:19Z</time>
      </trkpt>
      <trkpt lat="58.28613" lon="-6.73984">
        <ele>57.23</ele>
        <time>2021-03-20T18:52:22Z</time>
      </trkpt>
      <trkpt lat="58.28621" lon="-6.73927">
        <ele>57.36</ele>
        <time>2021-03-20T18:52:26Z</time>
      </trkpt>
      <trkpt lat="58.28648" lon="-6.73816">
        <ele>60.65</ele>
        <time>2021-03-20T18:52:30Z</time>
      </trkpt>
      <trkpt lat="58.28655" lon="-6.73791">
        <ele>60.97</ele>
        <time>2021-03-20T18:52:33Z</time>
      </trkpt>
      <trkpt lat="58.28691" lon="-6.73692">
        <ele>59.6</ele>
        <time>2021-03-20T18:52:37Z</time>
      </trkpt>
      <trkpt lat="58.28721" lon="-6.73628">
        <ele>58.56</ele>
        <time>2021-03-20T18:52:41Z</time>
      </trkpt>
      <trkpt lat="58.28731" lon="-6.73611">
        <ele>58.32</ele>
        <time>2021-03-20T18:52:44Z</time>
      </trkpt>
      <trkpt lat="58.28767" lon="-6.73562">
        <ele>58.7</ele>
        <time>2021-03-20T18:52:48Z</time>
      </trkpt>
      <trkpt lat="58.28788" lon="-6.73544">
        <ele>60.17</ele>
        <time>2021-03-20T18:52:51Z</time>
      </trkpt>
      <trkpt lat="58.28825" lon="-6.73521">
        <ele>62.98</ele>
        <time>2021-03-20T18:52:55Z</time>
      </trkpt>
      <trkpt lat="58.28846" lon="-6.73513">
        <ele>63.99</ele>
        <time>2021-03-20T18:52:59Z</time>
      </trkpt>
      <trkpt lat="58.28941" lon="-6.73506">
        <ele>72.43</ele>
        <time>2021-03-20T18:53:02Z</time>
      </trkpt>
      <trkpt lat="58.293" lon="-6.73501">
        <ele>80.28</ele>
        <time>2021-03-20T18:53:06Z</time>
      </trkpt>
      <trkpt lat="58.29502" lon="-6.73494">
        <ele>80.6</ele>
        <time>2021-03-20T18:53:10Z</time>
      </trkpt>
      <trkpt lat="58.29519" lon="-6.7349">
        <ele>80.29</ele>
        <time>2021-03-20T18:53:13Z</time>
      </trkpt>
      <trkpt lat="58.29568" lon="-6.73457">
        <ele>79.36</ele>
        <time>2021-03-20T18:53:17Z</time>
      </trkpt>
      <trkpt lat="58.29589" lon="-6.73433">
        <ele>78.58</ele>
        <time>2021-03-20T18:53:20Z</time>
      </trkpt>
      <trkpt lat="58.29638" lon="-6.73367">
        <ele>77.21</ele>
        <time>2021-03-20T18:53:24Z</time>
      </trkpt>
      <trkpt lat="58.29655" lon="-6.7333">
        <ele>77.17</ele>
        <time>2021-03-20T18:53:28Z</time>
      </trkpt>
      <trkpt lat="58.29663" lon="-6.73297">
        <ele>77.49</ele>
        <time>2021-03-20T18:53:31Z</time>
      </trkpt>
      <trkpt lat="58.29689" lon="-6.73123">
        <ele>76.8</ele>
        <time>2021-03-20T18:53:35Z</time>
      </trkpt>
      <trkpt lat="58.29704" lon="-6.73073">
        <ele>76.83</ele>
        <time>2021-03-20T18:53:38Z</time>
      </trkpt>
      <trkpt lat="58.29769" lon="-6.72919">
        <ele>73.75</ele>
        <time>2021-03-20T18:53:42Z</time>
      </trkpt>
      <trkpt lat="58.29803" lon="-6.72855">
        <ele>73.71</ele>
        <time>2021-03-20T18:53:46Z</time>
      </trkpt>
      <trkpt lat="58.29842" lon="-6.72793">
        <ele>73.11</ele>
        <time>2021-03-20T18:53:49Z</time>
      </trkpt>
      <trkpt lat="58.29958" lon="-6.72626">
        <ele>71.5</ele>
        <time>2021-03-20T18:53:53Z</time>
      </trkpt>
      <trkpt lat="58.29994" lon="-6.72567">
        <ele>70.18</ele>
        <time>2021-03-20T18:53:57Z</time>
      </trkpt>
      <trkpt lat="58.30074" lon="-6.72412">
        <ele>70.03</ele>
        <time>2021-03-20T18:54:00Z</time>
      </trkpt>
      <trkpt lat="58.30232" lon="-6.72159">
        <ele>64.65</ele>
        <time>2021-03-20T18:54:04Z</time>
      </trkpt>
      <trkpt lat="58.30263" lon="-6.72128">
        <ele>63.9</ele>
        <time>2021-03-20T18:54:07Z</time>
      </trkpt>
      <trkpt lat="58.30293" lon="-6.7211">
        <ele>63.01</ele>
        <time>2021-03-20T18:54:11Z</time>
      </trkpt>
      <trkpt lat="58.30325" lon="-6.72098">
        <ele>62.25</ele>
        <time>2021-03-20T18:54:15Z</time>
      </trkpt>
      <trkpt lat="58.30349" lon="-6.721">
        <ele>62.04</ele>
        <time>2021-03-20T18:54:18Z</time>
      </trkpt>
      <trkpt lat="58.3038" lon="-6.72113">
        <ele>60.78</ele>
        <time>2021-03-20T18:54:22Z</time>
      </trkpt>
      <trkpt lat="58.30406" lon="-6.72129">
        <ele>60.29</ele>
        <time>2021-03-20T18:54:25Z</time>
      </trkpt>
      <trkpt lat="58.30431" lon="-6.72153">
        <ele>59.77</ele>
        <time>2021-03-20T18:54:29Z</time>
      </trkpt>
      <trkpt lat="58.30555" lon="-6.72291">
        <ele>55.56</ele>
        <time>2021-03-20T18:54:33Z</time>
      </trkpt>
      <trkpt lat="58.30623" lon="-6.72371">
        <ele>55.28</ele>
        <time>2021-03-20T18:54:36Z</time>
      </trkpt>
      <trkpt lat="58.30663" lon="-6.7241">
        <ele>54.61</ele>
        <time>2021-03-20T18:54:40Z</time>
      </trkpt>
      <trkpt lat="58.30712" lon="-6.72449">
        <ele>54.78</ele>
        <time>2021-03-20T18:54:44Z</time>
      </trkpt>
      <trkpt lat="58.30724" lon="-6.72455">
        <ele>55.26</ele>
        <time>2021-03-20T18:54:47Z</time>
      </trkpt>
      <trkpt lat="58.3075" lon="-6.72463">
        <ele>56.63</ele>
        <time>2021-03-20T18:54:51Z</time>
      </trkpt>
      <trkpt lat="58.30775" lon="-6.72467">
        <ele>57.03</ele>
        <time>2021-03-20T18:54:54Z</time>
      </trkpt>
      <trkpt lat="58.31035" lon="-6.72493">
        <ele>55.7</ele>
        <time>2021-03-20T18:54:58Z</time>
      </trkpt>
      <trkpt lat="58.31065" lon="-6.72493">
        <ele>53.49</ele>
        <time>2021-03-20T18:55:02Z</time>
      </trkpt>
      <trkpt lat="58.31085" lon="-6.7249">
        <ele>52.51</ele>
        <time>2021-03-20T18:55:05Z</time>
      </trkpt>
      <trkpt lat="58.31164" lon="-6.72453">
        <ele>43.51</ele>
        <time>2021-03-20T18:55:09Z</time>
      </trkpt>
      <trkpt lat="58.31172" lon="-6.72443">
        <ele>43.66</ele>
        <time>2021-03-20T18:55:12Z</time>
      </trkpt>
      <trkpt lat="58.3118" lon="-6.72427">
        <ele>44.27</ele>
        <time>2021-03-20T18:55:16Z</time>
      </trkpt>
      <trkpt lat="58.31187" lon="-6.72401">
        <ele>46.25</ele>
        <time>2021-03-20T18:55:20Z</time>
      </trkpt>
      <trkpt lat="58.3119" lon="-6.7235">
        <ele>49.31</ele>
        <time>2021-03-20T18:55:23Z</time>
      </trkpt>
      <trkpt lat="58.31186" lon="-6.72275">
        <ele>52.58</ele>
        <time>2021-03-20T18:55:27Z</time>
      </trkpt>
      <trkpt lat="58.31186" lon="-6.72225">
        <ele>53.21</ele>
        <time>2021-03-20T18:55:31Z</time>
      </trkpt>
      <trkpt lat="58.31194" lon="-6.72114">
        <ele>47.29</ele>
        <time>2021-03-20T18:55:34Z</time>
      </trkpt>
      <trkpt lat="58.31208" lon="-6.72058">
        <ele>45.1</ele>
        <time>2021-03-20T18:55:38Z</time>
      </trkpt>
      <trkpt lat="58.31262" lon="-6.71919">
        <ele>38</ele>
        <time>2021-03-20T18:55:41Z</time>
      </trkpt>
      <trkpt lat="58.313" lon="-6.71843">
        <ele>37</ele>
        <time>2021-03-20T18:55:45Z</time>
      </trkpt>
      <trkpt lat="58.31365" lon="-6.71723">
        <ele>35.85</ele>
        <time>2021-03-20T18:55:49Z</time>
      </trkpt>
      <trkpt lat="58.31415" lon="-6.71635">
        <ele>37.36</ele>
        <time>2021-03-20T18:55:52Z</time>
      </trkpt>
      <trkpt lat="58.31489" lon="-6.71417">
        <ele>38.8</ele>
        <time>2021-03-20T18:55:56Z</time>
      </trkpt>
      <trkpt lat="58.31492" lon="-6.71385">
        <ele>39.59</ele>
        <time>2021-03-20T18:55:59Z</time>
      </trkpt>
      <trkpt lat="58.31477" lon="-6.71289">
        <ele>39.91</ele>
        <time>2021-03-20T18:56:03Z</time>
      </trkpt>
      <trkpt lat="58.31472" lon="-6.71246">
        <ele>40.09</ele>
        <time>2021-03-20T18:56:07Z</time>
      </trkpt>
      <trkpt lat="58.31472" lon="-6.71197">
        <ele>39.98</ele>
        <time>2021-03-20T18:56:10Z</time>
      </trkpt>
      <trkpt lat="58.31485" lon="-6.7113">
        <ele>38.73</ele>
        <time>2021-03-20T18:56:14Z</time>
      </trkpt>
      <trkpt lat="58.31492" lon="-6.71078">
        <ele>38.9</ele>
        <time>2021-03-20T18:56:18Z</time>
      </trkpt>
      <trkpt lat="58.31494" lon="-6.71034">
        <ele>38.8</ele>
        <time>2021-03-20T18:56:21Z</time>
      </trkpt>
      <trkpt lat="58.31496" lon="-6.70948">
        <ele>37.47</ele>
        <time>2021-03-20T18:56:25Z</time>
      </trkpt>
      <trkpt lat="58.31502" lon="-6.70894">
        <ele>37.64</ele>
        <time>2021-03-20T18:56:28Z</time>
      </trkpt>
      <trkpt lat="58.31518" lon="-6.70837">
        <ele>37.41</ele>
        <time>2021-03-20T18:56:32Z</time>
      </trkpt>
      <trkpt lat="58.31676" lon="-6.70018">
        <ele>34</ele>
        <time>2021-03-20T18:56:36Z</time>
      </trkpt>
      <trkpt lat="58.31693" lon="-6.69962">
        <ele>34.38</ele>
        <time>2021-03-20T18:56:39Z</time>
      </trkpt>
      <trkpt lat="58.31876" lon="-6.69602">
        <ele>38</ele>
        <time>2021-03-20T18:56:43Z</time>
      </trkpt>
      <trkpt lat="58.31901" lon="-6.69544">
        <ele>36.76</ele>
        <time>2021-03-20T18:56:46Z</time>
      </trkpt>
      <trkpt lat="58.31916" lon="-6.69497">
        <ele>35.86</ele>
        <time>2021-03-20T18:56:50Z</time>
      </trkpt>
      <trkpt lat="58.31941" lon="-6.69397">
        <ele>33.28</ele>
        <time>2021-03-20T18:56:54Z</time>
      </trkpt>
      <trkpt lat="58.31964" lon="-6.69274">
        <ele>32.71</ele>
        <time>2021-03-20T18:56:57Z</time>
      </trkpt>
      <trkpt lat="58.31979" lon="-6.69213">
        <ele>32.15</ele>
        <time>2021-03-20T18:57:01Z</time>
      </trkpt>
      <trkpt lat="58.32001" lon="-6.69139">
        <ele>30.02</ele>
        <time>2021-03-20T18:57:05Z</time>
      </trkpt>
      <trkpt lat="58.32037" lon="-6.69036">
        <ele>27.65</ele>
        <time>2021-03-20T18:57:08Z</time>
      </trkpt>
      <trkpt lat="58.32076" lon="-6.6892">
        <ele>24.27</ele>
        <time>2021-03-20T18:57:12Z</time>
      </trkpt>
      <trkpt lat="58.32104" lon="-6.68844">
        <ele>22.52</ele>
        <time>2021-03-20T18:57:15Z</time>
      </trkpt>
      <trkpt lat="58.32139" lon="-6.68751">
        <ele>22</ele>
        <time>2021-03-20T18:57:19Z</time>
      </trkpt>
      <trkpt lat="58.32167" lon="-6.68702">
        <ele>21.26</ele>
        <time>2021-03-20T18:57:23Z</time>
      </trkpt>
      <trkpt lat="58.32183" lon="-6.68641">
        <ele>17.1</ele>
        <time>2021-03-20T18:57:26Z</time>
      </trkpt>
      <trkpt lat="58.32197" lon="-6.68565">
        <ele>12.65</ele>
        <time>2021-03-20T18:57:30Z</time>
      </trkpt>
      <trkpt lat="58.32208" lon="-6.68424">
        <ele>13.75</ele>
        <time>2021-03-20T18:57:33Z</time>
      </trkpt>
      <trkpt lat="58.32216" lon="-6.68394">
        <ele>14.83</ele>
        <time>2021-03-20T18:57:37Z</time>
      </trkpt>
      <trkpt lat="58.32227" lon="-6.68378">
        <ele>15</ele>
        <time>2021-03-20T18:57:41Z</time>
      </trkpt>
      <trkpt lat="58.32234" lon="-6.68371">
        <ele>15</ele>
        <time>2021-03-20T18:57:44Z</time>
      </trkpt>
      <trkpt lat="58.32263" lon="-6.68356">
        <ele>15.18</ele>
        <time>2021-03-20T18:57:48Z</time>
      </trkpt>
      <trkpt lat="58.32278" lon="-6.68344">
        <ele>15.62</ele>
        <time>2021-03-20T18:57:52Z</time>
      </trkpt>
      <trkpt lat="58.32297" lon="-6.68309">
        <ele>15.91</ele>
        <time>2021-03-20T18:57:55Z</time>
      </trkpt>
      <trkpt lat="58.32357" lon="-6.6818">
        <ele>20.8</ele>
        <time>2021-03-20T18:57:59Z</time>
      </trkpt>
      <trkpt lat="58.32367" lon="-6.68165">
        <ele>22.5</ele>
        <time>2021-03-20T18:58:02Z</time>
      </trkpt>
      <trkpt lat="58.32408" lon="-6.68117">
        <ele>26.49</ele>
        <time>2021-03-20T18:58:06Z</time>
      </trkpt>
      <trkpt lat="58.3244" lon="-6.68059">
        <ele>27.98</ele>
        <time>2021-03-20T18:58:10Z</time>
      </trkpt>
      <trkpt lat="58.32543" lon="-6.67795">
        <ele>23.61</ele>
        <time>2021-03-20T18:58:13Z</time>
      </trkpt>
      <trkpt lat="58.32575" lon="-6.67706">
        <ele>22</ele>
        <time>2021-03-20T18:58:17Z</time>
      </trkpt>
      <trkpt lat="58.32641" lon="-6.67546">
        <ele>22</ele>
        <time>2021-03-20T18:58:20Z</time>
      </trkpt>
      <trkpt lat="58.32787" lon="-6.67173">
        <ele>23.21</ele>
        <time>2021-03-20T18:58:24Z</time>
      </trkpt>
      <trkpt lat="58.328" lon="-6.67127">
        <ele>22.39</ele>
        <time>2021-03-20T18:58:28Z</time>
      </trkpt>
      <trkpt lat="58.32852" lon="-6.6681">
        <ele>19</ele>
        <time>2021-03-20T18:58:31Z</time>
      </trkpt>
      <trkpt lat="58.32904" lon="-6.66506">
        <ele>17.9</ele>
        <time>2021-03-20T18:58:35Z</time>
      </trkpt>
      <trkpt lat="58.32913" lon="-6.66437">
        <ele>18</ele>
        <time>2021-03-20T18:58:39Z</time>
      </trkpt>
      <trkpt lat="58.3294" lon="-6.66327">
        <ele>18.83</ele>
        <time>2021-03-20T18:58:42Z</time>
      </trkpt>
      <trkpt lat="58.32978" lon="-6.66185">
        <ele>22.7</ele>
        <time>2021-03-20T18:58:46Z</time>
      </trkpt>
      <trkpt lat="58.32987" lon="-6.66129">
        <ele>25.54</ele>
        <time>2021-03-20T18:58:49Z</time>
      </trkpt>
      <trkpt lat="58.32991" lon="-6.66096">
        <ele>26.33</ele>
        <time>2021-03-20T18:58:53Z</time>
      </trkpt>
      <trkpt lat="58.32997" lon="-6.66023">
        <ele>27.28</ele>
        <time>2021-03-20T18:58:57Z</time>
      </trkpt>
      <trkpt lat="58.32998" lon="-6.65992">
        <ele>28.08</ele>
        <time>2021-03-20T18:59:00Z</time>
      </trkpt>
      <trkpt lat="58.33013" lon="-6.65456">
        <ele>32.6</ele>
        <time>2021-03-20T18:59:04Z</time>
      </trkpt>
      <trkpt lat="58.33013" lon="-6.65415">
        <ele>33</ele>
        <time>2021-03-20T18:59:07Z</time>
      </trkpt>
      <trkpt lat="58.33017" lon="-6.65355">
        <ele>32.87</ele>
        <time>2021-03-20T18:59:11Z</time>
      </trkpt>
      <trkpt lat="58.33018" lon="-6.65303">
        <ele>32.31</ele>
        <time>2021-03-20T18:59:15Z</time>
      </trkpt>
      <trkpt lat="58.33023" lon="-6.65205">
        <ele>32</ele>
        <time>2021-03-20T18:59:18Z</time>
      </trkpt>
      <trkpt lat="58.33029" lon="-6.65144">
        <ele>33.03</ele>
        <time>2021-03-20T18:59:22Z</time>
      </trkpt>
      <trkpt lat="58.33035" lon="-6.65102">
        <ele>33.5</ele>
        <time>2021-03-20T18:59:26Z</time>
      </trkpt>
      <trkpt lat="58.33051" lon="-6.6503">
        <ele>33.82</ele>
        <time>2021-03-20T18:59:29Z</time>
      </trkpt>
      <trkpt lat="58.33073" lon="-6.64964">
        <ele>35.85</ele>
        <time>2021-03-20T18:59:33Z</time>
      </trkpt>
      <trkpt lat="58.33131" lon="-6.64825">
        <ele>34.91</ele>
        <time>2021-03-20T18:59:36Z</time>
      </trkpt>
      <trkpt lat="58.33149" lon="-6.64768">
        <ele>34</ele>
        <time>2021-03-20T18:59:40Z</time>
      </trkpt>
      <trkpt lat="58.33154" lon="-6.64736">
        <ele>34</ele>
        <time>2021-03-20T18:59:44Z</time>
      </trkpt>
      <trkpt lat="58.33164" lon="-6.64608">
        <ele>33.9</ele>
        <time>2021-03-20T18:59:47Z</time>
      </trkpt>
      <trkpt lat="58.33166" lon="-6.64475">
        <ele>34.96</ele>
        <time>2021-03-20T18:59:51Z</time>
      </trkpt>
      <trkpt lat="58.3316" lon="-6.64259">
        <ele>35.51</ele>
        <time>2021-03-20T18:59:54Z</time>
      </trkpt>
      <trkpt lat="58.33162" lon="-6.64096">
        <ele>33</ele>
        <time>2021-03-20T18:59:58Z</time>
      </trkpt>
      <trkpt lat="58.33153" lon="-6.63982">
        <ele>33</ele>
        <time>2021-03-20T19:00:02Z</time>
      </trkpt>
      <trkpt lat="58.33159" lon="-6.6388">
        <ele>33</ele>
        <time>2021-03-20T19:00:05Z</time>
      </trkpt>
      <trkpt lat="58.33226" lon="-6.63519">
        <ele>35.13</ele>
        <time>2021-03-20T19:00:09Z</time>
      </trkpt>
      <trkpt lat="58.33369" lon="-6.63047">
        <ele>25.69</ele>
        <time>2021-03-20T19:00:13Z</time>
      </trkpt>
      <trkpt lat="58.33402" lon="-6.62888">
        <ele>25.48</ele>
        <time>2021-03-20T19:00:16Z</time>
      </trkpt>
      <trkpt lat="58.33423" lon="-6.62748">
        <ele>25.42</ele>
        <time>2021-03-20T19:00:20Z</time>
      </trkpt>
      <trkpt lat="58.3342" lon="-6.62594">
        <ele>25.32</ele>
        <time>2021-03-20T19:00:23Z</time>
      </trkpt>
      <trkpt lat="58.33429" lon="-6.6251">
        <ele>26.97</ele>
        <time>2021-03-20T19:00:27Z</time>
      </trkpt>
      <trkpt lat="58.33448" lon="-6.62419">
        <ele>25.42</ele>
        <time>2021-03-20T19:00:31Z</time>
      </trkpt>
      <trkpt lat="58.33514" lon="-6.62184">
        <ele>18.12</ele>
        <time>2021-03-20T19:00:34Z</time>
      </trkpt>
      <trkpt lat="58.33523" lon="-6.62117">
        <ele>17.03</ele>
        <time>2021-03-20T19:00:38Z</time>
      </trkpt>
      <trkpt lat="58.33522" lon="-6.62053">
        <ele>16</ele>
        <time>2021-03-20T19:00:42Z</time>
      </trkpt>
      <trkpt lat="58.33517" lon="-6.61983">
        <ele>15.61</ele>
        <time>2021-03-20T19:00:45Z</time>
      </trkpt>
      <trkpt lat="58.33492" lon="-6.61828">
        <ele>14.28</ele>
        <time>2021-03-20T19:00:49Z</time>
      </trkpt>
      <trkpt lat="58.33467" lon="-6.61602">
        <ele>13.18</ele>
        <time>2021-03-20T19:00:52Z</time>
      </trkpt>
      <trkpt lat="58.3346" lon="-6.61454">
        <ele>11.77</ele>
        <time>2021-03-20T19:00:56Z</time>
      </trkpt>
      <trkpt lat="58.33454" lon="-6.61374">
        <ele>11.64</ele>
        <time>2021-03-20T19:01:00Z</time>
      </trkpt>
      <trkpt lat="58.33449" lon="-6.61126">
        <ele>9</ele>
        <time>2021-03-20T19:01:03Z</time>
      </trkpt>
      <trkpt lat="58.33452" lon="-6.60979">
        <ele>9</ele>
        <time>2021-03-20T19:01:07Z</time>
      </trkpt>
      <trkpt lat="58.33457" lon="-6.60862">
        <ele>8.53</ele>
        <time>2021-03-20T19:01:10Z</time>
      </trkpt>
      <trkpt lat="58.3347" lon="-6.60777">
        <ele>8</ele>
        <time>2021-03-20T19:01:14Z</time>
      </trkpt>
      <trkpt lat="58.33488" lon="-6.60703">
        <ele>6.14</ele>
        <time>2021-03-20T19:01:18Z</time>
      </trkpt>
      <trkpt lat="58.33506" lon="-6.60638">
        <ele>4.76</ele>
        <time>2021-03-20T19:01:21Z</time>
      </trkpt>
      <trkpt lat="58.33524" lon="-6.60592">
        <ele>4</ele>
        <time>2021-03-20T19:01:25Z</time>
      </trkpt>
      <trkpt lat="58.33541" lon="-6.60555">
        <ele>5.49</ele>
        <time>2021-03-20T19:01:29Z</time>
      </trkpt>
      <trkpt lat="58.33644" lon="-6.60377">
        <ele>13.2</ele>
        <time>2021-03-20T19:01:32Z</time>
      </trkpt>
      <trkpt lat="58.33668" lon="-6.60333">
        <ele>14</ele>
        <time>2021-03-20T19:01:36Z</time>
      </trkpt>
      <trkpt lat="58.33717" lon="-6.60234">
        <ele>12.89</ele>
        <time>2021-03-20T19:01:39Z</time>
      </trkpt>
      <trkpt lat="58.33887" lon="-6.59841">
        <ele>23.59</ele>
        <time>2021-03-20T19:01:43Z</time>
      </trkpt>
      <trkpt lat="58.33918" lon="-6.59756">
        <ele>26.03</ele>
        <time>2021-03-20T19:01:47Z</time>
      </trkpt>
      <trkpt lat="58.33945" lon="-6.59669">
        <ele>27.03</ele>
        <time>2021-03-20T19:01:50Z</time>
      </trkpt>
      <trkpt lat="58.33965" lon="-6.59586">
        <ele>29.48</ele>
        <time>2021-03-20T19:01:54Z</time>
      </trkpt>
      <trkpt lat="58.34067" lon="-6.59074">
        <ele>41.62</ele>
        <time>2021-03-20T19:01:57Z</time>
      </trkpt>
      <trkpt lat="58.34116" lon="-6.58852">
        <ele>43.9</ele>
        <time>2021-03-20T19:02:01Z</time>
      </trkpt>
      <trkpt lat="58.34172" lon="-6.58613">
        <ele>45.21</ele>
        <time>2021-03-20T19:02:05Z</time>
      </trkpt>
      <trkpt lat="58.3425" lon="-6.58301">
        <ele>39.83</ele>
        <time>2021-03-20T19:02:08Z</time>
      </trkpt>
      <trkpt lat="58.34286" lon="-6.58173">
        <ele>36.51</ele>
        <time>2021-03-20T19:02:12Z</time>
      </trkpt>
      <trkpt lat="58.34341" lon="-6.58">
        <ele>31.28</ele>
        <time>2021-03-20T19:02:16Z</time>
      </trkpt>
      <trkpt lat="58.3436" lon="-6.57921">
        <ele>31</ele>
        <time>2021-03-20T19:02:19Z</time>
      </trkpt>
      <trkpt lat="58.34372" lon="-6.57832">
        <ele>30.59</ele>
        <time>2021-03-20T19:02:23Z</time>
      </trkpt>
      <trkpt lat="58.34378" lon="-6.57764">
        <ele>30.39</ele>
        <time>2021-03-20T19:02:26Z</time>
      </trkpt>
      <trkpt lat="58.3438" lon="-6.5769">
        <ele>30</ele>
        <time>2021-03-20T19:02:30Z</time>
      </trkpt>
      <trkpt lat="58.34379" lon="-6.57622">
        <ele>29.41</ele>
        <time>2021-03-20T19:02:34Z</time>
      </trkpt>
      <trkpt lat="58.3437" lon="-6.57512">
        <ele>28.87</ele>
        <time>2021-03-20T19:02:37Z</time>
      </trkpt>
      <trkpt lat="58.34334" lon="-6.5725">
        <ele>31.97</ele>
        <time>2021-03-20T19:02:41Z</time>
      </trkpt>
      <trkpt lat="58.34309" lon="-6.57077">
        <ele>31.77</ele>
        <time>2021-03-20T19:02:44Z</time>
      </trkpt>
      <trkpt lat="58.34294" lon="-6.56946">
        <ele>32.4</ele>
        <time>2021-03-20T19:02:48Z</time>
      </trkpt>
      <trkpt lat="58.34289" lon="-6.56851">
        <ele>34.37</ele>
        <time>2021-03-20T19:02:52Z</time>
      </trkpt>
      <trkpt lat="58.34288" lon="-6.56727">
        <ele>37.83</ele>
        <time>2021-03-20T19:02:55Z</time>
      </trkpt>
      <trkpt lat="58.34293" lon="-6.56573">
        <ele>41.92</ele>
        <time>2021-03-20T19:02:59Z</time>
      </trkpt>
      <trkpt lat="58.34298" lon="-6.56487">
        <ele>45.2</ele>
        <time>2021-03-20T19:03:03Z</time>
      </trkpt>
      <trkpt lat="58.34309" lon="-6.5638">
        <ele>48.89</ele>
        <time>2021-03-20T19:03:06Z</time>
      </trkpt>
      <trkpt lat="58.34315" lon="-6.56346">
        <ele>48.83</ele>
        <time>2021-03-20T19:03:10Z</time>
      </trkpt>
      <trkpt lat="58.34348" lon="-6.56215">
        <ele>48.47</ele>
        <time>2021-03-20T19:03:13Z</time>
      </trkpt>
      <trkpt lat="58.34417" lon="-6.56013">
        <ele>46.99</ele>
        <time>2021-03-20T19:03:17Z</time>
      </trkpt>
      <trkpt lat="58.3458" lon="-6.5546">
        <ele>41.5</ele>
        <time>2021-03-20T19:03:21Z</time>
      </trkpt>
      <trkpt lat="58.34608" lon="-6.55351">
        <ele>40.54</ele>
        <time>2021-03-20T19:03:24Z</time>
      </trkpt>
      <trkpt lat="58.34683" lon="-6.55008">
        <ele>34.73</ele>
        <time>2021-03-20T19:03:28Z</time>
      </trkpt>
      <trkpt lat="58.34662" lon="-6.54994">
        <ele>36.67</ele>
        <time>2021-03-20T19:03:35Z</time>
      </trkpt>
      <trkpt lat="58.34662" lon="-6.54994">
        <ele>36.67</ele>
        <time>2021-03-20T19:03:35Z</time>
      </trkpt>
      <trkpt lat="58.34683" lon="-6.55008">
        <ele>34.73</ele>
        <time>2021-03-20T19:03:42Z</time>
      </trkpt>
      <trkpt lat="58.34729" lon="-6.54775">
        <ele>31.77</ele>
        <time>2021-03-20T19:03:47Z</time>
      </trkpt>
      <trkpt lat="58.34865" lon="-6.53826">
        <ele>7.87</ele>
        <time>2021-03-20T19:03:52Z</time>
      </trkpt>
      <trkpt lat="58.34907" lon="-6.53516">
        <ele>14.81</ele>
        <time>2021-03-20T19:03:57Z</time>
      </trkpt>
      <trkpt lat="58.34942" lon="-6.53171">
        <ele>17.17</ele>
        <time>2021-03-20T19:04:02Z</time>
      </trkpt>
      <trkpt lat="58.34948" lon="-6.53092">
        <ele>17.64</ele>
        <time>2021-03-20T19:04:07Z</time>
      </trkpt>
      <trkpt lat="58.34948" lon="-6.53041">
        <ele>17.61</ele>
        <time>2021-03-20T19:04:12Z</time>
      </trkpt>
      <trkpt lat="58.34946" lon="-6.52987">
        <ele>16.9</ele>
        <time>2021-03-20T19:04:17Z</time>
      </trkpt>
      <trkpt lat="58.34942" lon="-6.52948">
        <ele>16.31</ele>
        <time>2021-03-20T19:04:22Z</time>
      </trkpt>
      <trkpt lat="58.34939" lon="-6.52922">
        <ele>15.78</ele>
        <time>2021-03-20T19:04:27Z</time>
      </trkpt>
      <trkpt lat="58.34874" lon="-6.52524">
        <ele>11.93</ele>
        <time>2021-03-20T19:04:33Z</time>
      </trkpt>
      <trkpt lat="58.3486" lon="-6.52423">
        <ele>9.38</ele>
        <time>2021-03-20T19:04:38Z</time>
      </trkpt>
      <trkpt lat="58.34854" lon="-6.52302">
        <ele>7.14</ele>
        <time>2021-03-20T19:04:43Z</time>
      </trkpt>
      <trkpt lat="58.34856" lon="-6.52218">
        <ele>6</ele>
        <time>2021-03-20T19:04:48Z</time>
      </trkpt>
      <trkpt lat="58.34872" lon="-6.52067">
        <ele>6.34</ele>
        <time>2021-03-20T19:04:53Z</time>
      </trkpt>
      <trkpt lat="58.34886" lon="-6.52002">
        <ele>6.95</ele>
        <time>2021-03-20T19:04:58Z</time>
      </trkpt>
      <trkpt lat="58.34903" lon="-6.5193">
        <ele>7.51</ele>
        <time>2021-03-20T19:05:03Z</time>
      </trkpt>
      <trkpt lat="58.3491" lon="-6.51904">
        <ele>7.59</ele>
        <time>2021-03-20T19:05:08Z</time>
      </trkpt>
      <trkpt lat="58.34933" lon="-6.51925">
        <ele>7</ele>
        <time>2021-03-20T19:05:16Z</time>
      </trkpt>
      <trkpt lat="58.34955" lon="-6.51928">
        <ele>7</ele>
        <time>2021-03-20T19:05:25Z</time>
      </trkpt>
      <trkpt lat="58.34977" lon="-6.51921">
        <ele>7</ele>
        <time>2021-03-20T19:05:33Z</time>
      </trkpt>
      <trkpt lat="58.3501" lon="-6.51905">
        <ele>7.43</ele>
        <time>2021-03-20T19:05:42Z</time>
      </trkpt>
      <trkpt lat="58.35087" lon="-6.51848">
        <ele>8</ele>
        <time>2021-03-20T19:05:50Z</time>
      </trkpt>
      <trkpt lat="58.35298" lon="-6.51669">
        <ele>11.92</ele>
        <time>2021-03-20T19:05:58Z</time>
      </trkpt>
      <trkpt lat="58.35579" lon="-6.51451">
        <ele>20.63</ele>
        <time>2021-03-20T19:06:07Z</time>
      </trkpt>
      <trkpt lat="58.35661" lon="-6.514">
        <ele>20.68</ele>
        <time>2021-03-20T19:06:15Z</time>
      </trkpt>
      <trkpt lat="58.35733" lon="-6.5135">
        <ele>22.79</ele>
        <time>2021-03-20T19:06:24Z</time>
      </trkpt>
      <trkpt lat="58.35797" lon="-6.51314">
        <ele>25</ele>
        <time>2021-03-20T19:06:32Z</time>
      </trkpt>
      <trkpt lat="58.35951" lon="-6.5121">
        <ele>26.34</ele>
        <time>2021-03-20T19:06:40Z</time>
      </trkpt>
      <trkpt lat="58.35989" lon="-6.51179">
        <ele>26.83</ele>
        <time>2021-03-20T19:06:49Z</time>
      </trkpt>
      <trkpt lat="58.3619" lon="-6.50999">
        <ele>27</ele>
        <time>2021-03-20T19:06:57Z</time>
      </trkpt>
      <trkpt lat="58.36375" lon="-6.50849">
        <ele>28.22</ele>
        <time>2021-03-20T19:07:05Z</time>
      </trkpt>
      <trkpt lat="58.36523" lon="-6.50751">
        <ele>31.99</ele>
        <time>2021-03-20T19:07:14Z</time>
      </trkpt>
      <trkpt lat="58.36731" lon="-6.50658">
        <ele>39.3</ele>
        <time>2021-03-20T19:07:22Z</time>
      </trkpt>
      <trkpt lat="58.36831" lon="-6.50622">
        <ele>43.53</ele>
        <time>2021-03-20T19:07:31Z</time>
      </trkpt>
      <trkpt lat="58.37001" lon="-6.50572">
        <ele>47.39</ele>
        <time>2021-03-20T19:07:39Z</time>
      </trkpt>
      <trkpt lat="58.37152" lon="-6.50564">
        <ele>43.86</ele>
        <time>2021-03-20T19:07:47Z</time>
      </trkpt>
      <trkpt lat="58.37252" lon="-6.50567">
        <ele>44.66</ele>
        <time>2021-03-20T19:07:56Z</time>
      </trkpt>
      <trkpt lat="58.37353" lon="-6.50578">
        <ele>47.72</ele>
        <time>2021-03-20T19:08:04Z</time>
      </trkpt>
      <trkpt lat="58.37442" lon="-6.50604">
        <ele>51.91</ele>
        <time>2021-03-20T19:08:13Z</time>
      </trkpt>
      <trkpt lat="58.37548" lon="-6.50651">
        <ele>55</ele>
        <time>2021-03-20T19:08:21Z</time>
      </trkpt>
      <trkpt lat="58.37647" lon="-6.50705">
        <ele>54.74</ele>
        <time>2021-03-20T19:08:29Z</time>
      </trkpt>
      <trkpt lat="58.37706" lon="-6.50733">
        <ele>55</ele>
        <time>2021-03-20T19:08:38Z</time>
      </trkpt>
      <trkpt lat="58.37766" lon="-6.50736">
        <ele>54.2</ele>
        <time>2021-03-20T19:08:46Z</time>
      </trkpt>
      <trkpt lat="58.37819" lon="-6.50711">
        <ele>52.52</ele>
        <time>2021-03-20T19:08:55Z</time>
      </trkpt>
      <trkpt lat="58.37881" lon="-6.50653">
        <ele>53</ele>
        <time>2021-03-20T19:09:03Z</time>
      </trkpt>
      <trkpt lat="58.37938" lon="-6.50575">
        <ele>52.22</ele>
        <time>2021-03-20T19:09:11Z</time>
      </trkpt>
      <trkpt lat="58.38247" lon="-6.50176">
        <ele>58.19</ele>
        <time>2021-03-20T19:09:20Z</time>
      </trkpt>
      <trkpt lat="58.38256" lon="-6.5016">
        <ele>58.2</ele>
        <time>2021-03-20T19:09:28Z</time>
      </trkpt>
      <trkpt lat="58.38316" lon="-6.50046">
        <ele>56</ele>
        <time>2021-03-20T19:09:36Z</time>
      </trkpt>
      <trkpt lat="58.38588" lon="-6.49472">
        <ele>44.98</ele>
        <time>2021-03-20T19:09:45Z</time>
      </trkpt>
      <trkpt lat="58.38986" lon="-6.48731">
        <ele>30.81</ele>
        <time>2021-03-20T19:09:53Z</time>
      </trkpt>
      <trkpt lat="58.39025" lon="-6.48661">
        <ele>29.09</ele>
        <time>2021-03-20T19:10:02Z</time>
      </trkpt>
      <trkpt lat="58.3916" lon="-6.48398">
        <ele>22.5</ele>
        <time>2021-03-20T19:10:10Z</time>
      </trkpt>
      <trkpt lat="58.39424" lon="-6.47795">
        <ele>11.74</ele>
        <time>2021-03-20T19:10:18Z</time>
      </trkpt>
      <trkpt lat="58.39544" lon="-6.47535">
        <ele>14.18</ele>
        <time>2021-03-20T19:10:27Z</time>
      </trkpt>
      <trkpt lat="58.39596" lon="-6.47448">
        <ele>19.8</ele>
        <time>2021-03-20T19:10:35Z</time>
      </trkpt>
      <trkpt lat="58.39661" lon="-6.47359">
        <ele>23.78</ele>
        <time>2021-03-20T19:10:44Z</time>
      </trkpt>
      <trkpt lat="58.39868" lon="-6.47082">
        <ele>30.28</ele>
        <time>2021-03-20T19:10:52Z</time>
      </trkpt>
      <trkpt lat="58.39991" lon="-6.46906">
        <ele>36.06</ele>
        <time>2021-03-20T19:11:00Z</time>
      </trkpt>
      <trkpt lat="58.40055" lon="-6.46809">
        <ele>38</ele>
        <time>2021-03-20T19:11:09Z</time>
      </trkpt>
      <trkpt lat="58.40107" lon="-6.46719">
        <ele>39.83</ele>
        <time>2021-03-20T19:11:17Z</time>
      </trkpt>
      <trkpt lat="58.4017" lon="-6.46589">
        <ele>38.12</ele>
        <time>2021-03-20T19:11:25Z</time>
      </trkpt>
      <trkpt lat="58.4026" lon="-6.46392">
        <ele>37.31</ele>
        <time>2021-03-20T19:11:34Z</time>
      </trkpt>
      <trkpt lat="58.40399" lon="-6.4608">
        <ele>40.76</ele>
        <time>2021-03-20T19:11:42Z</time>
      </trkpt>
      <trkpt lat="58.40523" lon="-6.45788">
        <ele>36.27</ele>
        <time>2021-03-20T19:11:51Z</time>
      </trkpt>
      <trkpt lat="58.40564" lon="-6.457">
        <ele>34.68</ele>
        <time>2021-03-20T19:11:59Z</time>
      </trkpt>
      <trkpt lat="58.40609" lon="-6.45617">
        <ele>32.87</ele>
        <time>2021-03-20T19:12:07Z</time>
      </trkpt>
      <trkpt lat="58.40698" lon="-6.45484">
        <ele>32.86</ele>
        <time>2021-03-20T19:12:16Z</time>
      </trkpt>
      <trkpt lat="58.40733" lon="-6.45435">
        <ele>33.32</ele>
        <time>2021-03-20T19:12:24Z</time>
      </trkpt>
      <trkpt lat="58.40768" lon="-6.45379">
        <ele>34.37</ele>
        <time>2021-03-20T19:12:33Z</time>
      </trkpt>
      <trkpt lat="58.4086" lon="-6.45219">
        <ele>34</ele>
        <time>2021-03-20T19:12:41Z</time>
      </trkpt>
      <trkpt lat="58.41323" lon="-6.44366">
        <ele>35</ele>
        <time>2021-03-20T19:12:49Z</time>
      </trkpt>
      <trkpt lat="58.41435" lon="-6.4415">
        <ele>37</ele>
        <time>2021-03-20T19:12:58Z</time>
      </trkpt>
      <trkpt lat="58.4151" lon="-6.44023">
        <ele>39.46</ele>
        <time>2021-03-20T19:13:06Z</time>
      </trkpt>
      <trkpt lat="58.41541" lon="-6.43965">
        <ele>40</ele>
        <time>2021-03-20T19:13:14Z</time>
      </trkpt>
      <trkpt lat="58.41577" lon="-6.43885">
        <ele>40</ele>
        <time>2021-03-20T19:13:23Z</time>
      </trkpt>
      <trkpt lat="58.41599" lon="-6.43782">
        <ele>37.59</ele>
        <time>2021-03-20T19:13:31Z</time>
      </trkpt>
      <trkpt lat="58.4163" lon="-6.43662">
        <ele>34.65</ele>
        <time>2021-03-20T19:13:40Z</time>
      </trkpt>
      <trkpt lat="58.41711" lon="-6.43471">
        <ele>22.15</ele>
        <time>2021-03-20T19:13:48Z</time>
      </trkpt>
      <trkpt lat="58.4178" lon="-6.4332">
        <ele>25.64</ele>
        <time>2021-03-20T19:13:56Z</time>
      </trkpt>
      <trkpt lat="58.41802" lon="-6.43287">
        <ele>28.39</ele>
        <time>2021-03-20T19:14:05Z</time>
      </trkpt>
      <trkpt lat="58.41837" lon="-6.43244">
        <ele>32.37</ele>
        <time>2021-03-20T19:14:13Z</time>
      </trkpt>
      <trkpt lat="58.41913" lon="-6.4319">
        <ele>35.15</ele>
        <time>2021-03-20T19:14:22Z</time>
      </trkpt>
      <trkpt lat="58.41996" lon="-6.43102">
        <ele>38</ele>
        <time>2021-03-20T19:14:30Z</time>
      </trkpt>
      <trkpt lat="58.42133" lon="-6.4292">
        <ele>40.23</ele>
        <time>2021-03-20T19:14:38Z</time>
      </trkpt>
      <trkpt lat="58.42396" lon="-6.42456">
        <ele>40.32</ele>
        <time>2021-03-20T19:14:47Z</time>
      </trkpt>
      <trkpt lat="58.42471" lon="-6.42331">
        <ele>39.03</ele>
        <time>2021-03-20T19:14:55Z</time>
      </trkpt>
      <trkpt lat="58.4265" lon="-6.42044">
        <ele>35.6</ele>
        <time>2021-03-20T19:15:03Z</time>
      </trkpt>
      <trkpt lat="58.42717" lon="-6.41924">
        <ele>37</ele>
        <time>2021-03-20T19:15:12Z</time>
      </trkpt>
      <trkpt lat="58.42783" lon="-6.41776">
        <ele>40.06</ele>
        <time>2021-03-20T19:15:20Z</time>
      </trkpt>
      <trkpt lat="58.42925" lon="-6.41437">
        <ele>44.7</ele>
        <time>2021-03-20T19:15:29Z</time>
      </trkpt>
      <trkpt lat="58.43375" lon="-6.40289">
        <ele>49.58</ele>
        <time>2021-03-20T19:15:37Z</time>
      </trkpt>
      <trkpt lat="58.43402" lon="-6.40216">
        <ele>50</ele>
        <time>2021-03-20T19:15:45Z</time>
      </trkpt>
      <trkpt lat="58.43429" lon="-6.4013">
        <ele>48.57</ele>
        <time>2021-03-20T19:15:54Z</time>
      </trkpt>
      <trkpt lat="58.43475" lon="-6.39966">
        <ele>46.65</ele>
        <time>2021-03-20T19:16:02Z</time>
      </trkpt>
      <trkpt lat="58.43571" lon="-6.39691">
        <ele>39.87</ele>
        <time>2021-03-20T19:16:11Z</time>
      </trkpt>
      <trkpt lat="58.43611" lon="-6.39565">
        <ele>36.99</ele>
        <time>2021-03-20T19:16:19Z</time>
      </trkpt>
      <trkpt lat="58.43722" lon="-6.39186">
        <ele>30.31</ele>
        <time>2021-03-20T19:16:27Z</time>
      </trkpt>
      <trkpt lat="58.43808" lon="-6.38904">
        <ele>29.48</ele>
        <time>2021-03-20T19:16:36Z</time>
      </trkpt>
      <trkpt lat="58.43953" lon="-6.38436">
        <ele>21</ele>
        <time>2021-03-20T19:16:44Z</time>
      </trkpt>
      <trkpt lat="58.44373" lon="-6.37057">
        <ele>36.6</ele>
        <time>2021-03-20T19:16:53Z</time>
      </trkpt>
      <trkpt lat="58.44555" lon="-6.3648">
        <ele>20.03</ele>
        <time>2021-03-20T19:17:01Z</time>
      </trkpt>
      <trkpt lat="58.44665" lon="-6.36099">
        <ele>30.94</ele>
        <time>2021-03-20T19:17:09Z</time>
      </trkpt>
      <trkpt lat="58.44893" lon="-6.35353">
        <ele>47.39</ele>
        <time>2021-03-20T19:17:18Z</time>
      </trkpt>
      <trkpt lat="58.44906" lon="-6.35319">
        <ele>48</ele>
        <time>2021-03-20T19:17:26Z</time>
      </trkpt>
      <trkpt lat="58.44923" lon="-6.35284">
        <ele>47.82</ele>
        <time>2021-03-20T19:17:34Z</time>
      </trkpt>
      <trkpt lat="58.45003" lon="-6.35171">
        <ele>47.83</ele>
        <time>2021-03-20T19:17:43Z</time>
      </trkpt>
      <trkpt lat="58.45102" lon="-6.35037">
        <ele>48.31</ele>
        <time>2021-03-20T19:17:51Z</time>
      </trkpt>
      <trkpt lat="58.45137" lon="-6.34987">
        <ele>49.97</ele>
        <time>2021-03-20T19:18:00Z</time>
      </trkpt>
      <trkpt lat="58.45182" lon="-6.34916">
        <ele>50.98</ele>
        <time>2021-03-20T19:18:08Z</time>
      </trkpt>
      <trkpt lat="58.45401" lon="-6.34492">
        <ele>45.58</ele>
        <time>2021-03-20T19:18:16Z</time>
      </trkpt>
      <trkpt lat="58.45726" lon="-6.33816">
        <ele>43.87</ele>
        <time>2021-03-20T19:18:25Z</time>
      </trkpt>
      <trkpt lat="58.4584" lon="-6.33567">
        <ele>47.32</ele>
        <time>2021-03-20T19:18:33Z</time>
      </trkpt>
      <trkpt lat="58.46121" lon="-6.3273">
        <ele>44.35</ele>
        <time>2021-03-20T19:18:42Z</time>
      </trkpt>
      <trkpt lat="58.46404" lon="-6.31812">
        <ele>50.46</ele>
        <time>2021-03-20T19:18:50Z</time>
      </trkpt>
      <trkpt lat="58.46539" lon="-6.3108">
        <ele>46.51</ele>
        <time>2021-03-20T19:18:58Z</time>
      </trkpt>
      <trkpt lat="58.46556" lon="-6.30999">
        <ele>45.98</ele>
        <time>2021-03-20T19:19:07Z</time>
      </trkpt>
      <trkpt lat="58.46579" lon="-6.3085">
        <ele>41.78</ele>
        <time>2021-03-20T19:19:15Z</time>
      </trkpt>
      <trkpt lat="58.46609" lon="-6.30608">
        <ele>33.88</ele>
        <time>2021-03-20T19:19:23Z</time>
      </trkpt>
      <trkpt lat="58.46619" lon="-6.30509">
        <ele>29.33</ele>
        <time>2021-03-20T19:19:32Z</time>
      </trkpt>
      <trkpt lat="58.46625" lon="-6.30377">
        <ele>23.09</ele>
        <time>2021-03-20T19:19:40Z</time>
      </trkpt>
      <trkpt lat="58.46621" lon="-6.30266">
        <ele>21.15</ele>
        <time>2021-03-20T19:19:49Z</time>
      </trkpt>
      <trkpt lat="58.46617" lon="-6.30218">
        <ele>22.73</ele>
        <time>2021-03-20T19:19:57Z</time>
      </trkpt>
      <trkpt lat="58.46611" lon="-6.3017">
        <ele>25.81</ele>
        <time>2021-03-20T19:20:05Z</time>
      </trkpt>
      <trkpt lat="58.46562" lon="-6.29992">
        <ele>35.99</ele>
        <time>2021-03-20T19:20:14Z</time>
      </trkpt>
      <trkpt lat="58.46556" lon="-6.29949">
        <ele>38.73</ele>
        <time>2021-03-20T19:20:22Z</time>
      </trkpt>
      <trkpt lat="58.46559" lon="-6.2991">
        <ele>40.35</ele>
        <time>2021-03-20T19:20:31Z</time>
      </trkpt>
      <trkpt lat="58.46566" lon="-6.29872">
        <ele>41.76</ele>
        <time>2021-03-20T19:20:39Z</time>
      </trkpt>
      <trkpt lat="58.46602" lon="-6.29773">
        <ele>45.4</ele>
        <time>2021-03-20T19:20:47Z</time>
      </trkpt>
      <trkpt lat="58.46642" lon="-6.29681">
        <ele>48.47</ele>
        <time>2021-03-20T19:20:56Z</time>
      </trkpt>
      <trkpt lat="58.46682" lon="-6.29594">
        <ele>50</ele>
        <time>2021-03-20T19:21:04Z</time>
      </trkpt>
      <trkpt lat="58.46767" lon="-6.29424">
        <ele>49.4</ele>
        <time>2021-03-20T19:21:12Z</time>
      </trkpt>
      <trkpt lat="58.46936" lon="-6.29104">
        <ele>41</ele>
        <time>2021-03-20T19:21:21Z</time>
      </trkpt>
      <trkpt lat="58.47036" lon="-6.2892">
        <ele>36.75</ele>
        <time>2021-03-20T19:21:29Z</time>
      </trkpt>
      <trkpt lat="58.47092" lon="-6.28812">
        <ele>34</ele>
        <time>2021-03-20T19:21:38Z</time>
      </trkpt>
      <trkpt lat="58.47139" lon="-6.2872">
        <ele>32.01</ele>
        <time>2021-03-20T19:21:46Z</time>
      </trkpt>
      <trkpt lat="58.47242" lon="-6.28475">
        <ele>40.43</ele>
        <time>2021-03-20T19:21:54Z</time>
      </trkpt>
      <trkpt lat="58.4726" lon="-6.28437">
        <ele>41.35</ele>
        <time>2021-03-20T19:22:03Z</time>
      </trkpt>
      <trkpt lat="58.47304" lon="-6.28371">
        <ele>43.89</ele>
        <time>2021-03-20T19:22:11Z</time>
      </trkpt>
      <trkpt lat="58.47356" lon="-6.28306">
        <ele>46.81</ele>
        <time>2021-03-20T19:22:20Z</time>
      </trkpt>
      <trkpt lat="58.47429" lon="-6.28147">
        <ele>49.45</ele>
        <time>2021-03-20T19:22:28Z</time>
      </trkpt>
      <trkpt lat="58.47492" lon="-6.28001">
        <ele>51</ele>
        <time>2021-03-20T19:22:36Z</time>
      </trkpt>
      <trkpt lat="58.47674" lon="-6.27588">
        <ele>45.75</ele>
        <time>2021-03-20T19:22:45Z</time>
      </trkpt>
      <trkpt lat="58.47779" lon="-6.27363">
        <ele>41.95</ele>
        <time>2021-03-20T19:22:53Z</time>
      </trkpt>
      <trkpt lat="58.47861" lon="-6.27199">
        <ele>46.95</ele>
        <time>2021-03-20T19:23:01Z</time>
      </trkpt>
      <trkpt lat="58.47895" lon="-6.27123">
        <ele>48</ele>
        <time>2021-03-20T19:23:10Z</time>
      </trkpt>
      <trkpt lat="58.48041" lon="-6.26767">
        <ele>47</ele>
        <time>2021-03-20T19:23:18Z</time>
      </trkpt>
      <trkpt lat="58.48076" lon="-6.26662">
        <ele>43.83</ele>
        <time>2021-03-20T19:23:27Z</time>
      </trkpt>
      <trkpt lat="58.48106" lon="-6.26592">
        <ele>41.31</ele>
        <time>2021-03-20T19:23:35Z</time>
      </trkpt>
      <trkpt lat="58.48203" lon="-6.26403">
        <ele>36</ele>
        <time>2021-03-20T19:23:43Z</time>
      </trkpt>
      <trkpt lat="58.48312" lon="-6.26172">
        <ele>44.43</ele>
        <time>2021-03-20T19:23:52Z</time>
      </trkpt>
      <trkpt lat="58.48339" lon="-6.26093">
        <ele>46.92</ele>
        <time>2021-03-20T19:24:00Z</time>
      </trkpt>
      <trkpt lat="58.48375" lon="-6.25953">
        <ele>47.5</ele>
        <time>2021-03-20T19:24:09Z</time>
      </trkpt>
      <trkpt lat="58.48437" lon="-6.25719">
        <ele>48</ele>
        <time>2021-03-20T19:24:17Z</time>
      </trkpt>
      <trkpt lat="58.48502" lon="-6.25487">
        <ele>45</ele>
        <time>2021-03-20T19:24:25Z</time>
      </trkpt>
      <trkpt lat="58.48584" lon="-6.25217">
        <ele>41.96</ele>
        <time>2021-03-20T19:24:34Z</time>
      </trkpt>
      <trkpt lat="58.48824" lon="-6.2449">
        <ele>36.32</ele>
        <time>2021-03-20T19:24:42Z</time>
      </trkpt>
      <trkpt lat="58.4888" lon="-6.24554">
        <ele>34.33</ele>
        <time>2021-03-20T19:24:46Z</time>
      </trkpt>
      <trkpt lat="58.49118" lon="-6.24799">
        <ele>24</ele>
        <time>2021-03-20T19:24:50Z</time>
      </trkpt>
      <trkpt lat="58.4921" lon="-6.24883">
        <ele>20.88</ele>
        <time>2021-03-20T19:24:54Z</time>
      </trkpt>
      <trkpt lat="58.49297" lon="-6.25">
        <ele>22</ele>
        <time>2021-03-20T19:24:58Z</time>
      </trkpt>
      <trkpt lat="58.49467" lon="-6.25175">
        <ele>19</ele>
        <time>2021-03-20T19:25:02Z</time>
      </trkpt>
      <trkpt lat="58.49747" lon="-6.254">
        <ele>13.58</ele>
        <time>2021-03-20T19:25:06Z</time>
      </trkpt>
      <trkpt lat="58.49812" lon="-6.25458">
        <ele>13.24</ele>
        <time>2021-03-20T19:25:11Z</time>
      </trkpt>
      <trkpt lat="58.49834" lon="-6.25481">
        <ele>14</ele>
        <time>2021-03-20T19:25:15Z</time>
      </trkpt>
      <trkpt lat="58.49854" lon="-6.25513">
        <ele>14.13</ele>
        <time>2021-03-20T19:25:19Z</time>
      </trkpt>
      <trkpt lat="58.49892" lon="-6.25589">
        <ele>13.89</ele>
        <time>2021-03-20T19:25:23Z</time>
      </trkpt>
      <trkpt lat="58.49941" lon="-6.25693">
        <ele>13</ele>
        <time>2021-03-20T19:25:27Z</time>
      </trkpt>
      <trkpt lat="58.49972" lon="-6.25769">
        <ele>13.98</ele>
        <time>2021-03-20T19:25:31Z</time>
      </trkpt>
      <trkpt lat="58.50079" lon="-6.26105">
        <ele>14.68</ele>
        <time>2021-03-20T19:25:35Z</time>
      </trkpt>
      <trkpt lat="58.50095" lon="-6.26161">
        <ele>14.81</ele>
        <time>2021-03-20T19:25:39Z</time>
      </trkpt>
      <trkpt lat="58.50179" lon="-6.26422">
        <ele>22</ele>
        <time>2021-03-20T19:25:43Z</time>
      </trkpt>
      <trkpt lat="58.50191" lon="-6.26449">
        <ele>22</ele>
        <time>2021-03-20T19:25:47Z</time>
      </trkpt>
      <trkpt lat="58.50206" lon="-6.26471">
        <ele>22.83</ele>
        <time>2021-03-20T19:25:51Z</time>
      </trkpt>
      <trkpt lat="58.50224" lon="-6.26484">
        <ele>24.05</ele>
        <time>2021-03-20T19:25:55Z</time>
      </trkpt>
      <trkpt lat="58.50234" lon="-6.26486">
        <ele>24.41</ele>
        <time>2021-03-20T19:25:59Z</time>
      </trkpt>
      <trkpt lat="58.5025" lon="-6.26481">
        <ele>25.02</ele>
        <time>2021-03-20T19:26:03Z</time>
      </trkpt>
      <trkpt lat="58.50268" lon="-6.26463">
        <ele>26.05</ele>
        <time>2021-03-20T19:26:07Z</time>
      </trkpt>
      <trkpt lat="58.50261" lon="-6.26436">
        <ele>25.42</ele>
        <time>2021-03-20T19:26:08Z</time>
      </trkpt>
      <trkpt lat="58.50261" lon="-6.26436">
        <ele>25.42</ele>
        <time>2021-03-20T19:26:08Z</time>
      </trkpt>
      <trkpt lat="58.50236" lon="-6.26342">
        <ele>24.17</ele>
        <time>2021-03-20T19:26:11Z</time>
      </trkpt>
      <trkpt lat="58.50185" lon="-6.26199">
        <ele>21.67</ele>
        <time>2021-03-20T19:26:14Z</time>
      </trkpt>
      <trkpt lat="58.50173" lon="-6.26148">
        <ele>20.22</ele>
        <time>2021-03-20T19:26:17Z</time>
      </trkpt>
      <trkpt lat="58.50169" lon="-6.26127">
        <ele>19.65</ele>
        <time>2021-03-20T19:26:20Z</time>
      </trkpt>
      <trkpt lat="58.50164" lon="-6.26086">
        <ele>18.89</ele>
        <time>2021-03-20T19:26:23Z</time>
      </trkpt>
      <trkpt lat="58.50159" lon="-6.26003">
        <ele>19.88</ele>
        <time>2021-03-20T19:26:26Z</time>
      </trkpt>
      <trkpt lat="58.50149" lon="-6.25939">
        <ele>21</ele>
        <time>2021-03-20T19:26:29Z</time>
      </trkpt>
      <trkpt lat="58.50132" lon="-6.25872">
        <ele>20.73</ele>
        <time>2021-03-20T19:26:32Z</time>
      </trkpt>
      <trkpt lat="58.50106" lon="-6.25788">
        <ele>21.25</ele>
        <time>2021-03-20T19:26:35Z</time>
      </trkpt>
      <trkpt lat="58.50058" lon="-6.25492">
        <ele>18.2</ele>
        <time>2021-03-20T19:26:38Z</time>
      </trkpt>
      <trkpt lat="58.50055" lon="-6.25242">
        <ele>16.66</ele>
        <time>2021-03-20T19:26:41Z</time>
      </trkpt>
      <trkpt lat="58.50048" lon="-6.25165">
        <ele>14.74</ele>
        <time>2021-03-20T19:26:44Z</time>
      </trkpt>
      <trkpt lat="58.4999" lon="-6.24733">
        <ele>16.62</ele>
        <time>2021-03-20T19:26:47Z</time>
      </trkpt>
      <trkpt lat="58.49979" lon="-6.24563">
        <ele>22.32</ele>
        <time>2021-03-20T19:26:50Z</time>
      </trkpt>
      <trkpt lat="58.49972" lon="-6.245">
        <ele>24</ele>
        <time>2021-03-20T19:26:53Z</time>
      </trkpt>
      <trkpt lat="58.49963" lon="-6.2443">
        <ele>25</ele>
        <time>2021-03-20T19:26:56Z</time>
      </trkpt>
      <trkpt lat="58.4993" lon="-6.24228">
        <ele>27.81</ele>
        <time>2021-03-20T19:26:59Z</time>
      </trkpt>
      <trkpt lat="58.49892" lon="-6.24025">
        <ele>29.96</ele>
        <time>2021-03-20T19:27:02Z</time>
      </trkpt>
      <trkpt lat="58.49877" lon="-6.23976">
        <ele>31.42</ele>
        <time>2021-03-20T19:27:05Z</time>
      </trkpt>
      <trkpt lat="58.4987" lon="-6.23961">
        <ele>31.93</ele>
        <time>2021-03-20T19:27:08Z</time>
      </trkpt>
      <trkpt lat="58.49835" lon="-6.23923">
        <ele>34.69</ele>
        <time>2021-03-20T19:27:11Z</time>
      </trkpt>
      <trkpt lat="58.49824" lon="-6.23908">
        <ele>35.49</ele>
        <time>2021-03-20T19:27:14Z</time>
      </trkpt>
      <trkpt lat="58.49812" lon="-6.23881">
        <ele>36.5</ele>
        <time>2021-03-20T19:27:16Z</time>
      </trkpt>
      <trkpt lat="58.49784" lon="-6.23799">
        <ele>38.72</ele>
        <time>2021-03-20T19:27:19Z</time>
      </trkpt>
      <trkpt lat="58.49769" lon="-6.23721">
        <ele>39.06</ele>
        <time>2021-03-20T19:27:22Z</time>
      </trkpt>
      <trkpt lat="58.49761" lon="-6.23694">
        <ele>38.15</ele>
        <time>2021-03-20T19:27:25Z</time>
      </trkpt>
      <trkpt lat="58.49751" lon="-6.23673">
        <ele>37.05</ele>
        <time>2021-03-20T19:27:28Z</time>
      </trkpt>
      <trkpt lat="58.49607" lon="-6.23456">
        <ele>33.29</ele>
        <time>2021-03-20T19:27:31Z</time>
      </trkpt>
      <trkpt lat="58.49556" lon="-6.23394">
        <ele>30.85</ele>
        <time>2021-03-20T19:27:34Z</time>
      </trkpt>
      <trkpt lat="58.4952" lon="-6.23367">
        <ele>25.87</ele>
        <time>2021-03-20T19:27:37Z</time>
      </trkpt>
      <trkpt lat="58.49478" lon="-6.23343">
        <ele>21.26</ele>
        <time>2021-03-20T19:27:40Z</time>
      </trkpt>
      <trkpt lat="58.49365" lon="-6.23286">
        <ele>13.15</ele>
        <time>2021-03-20T19:27:43Z</time>
      </trkpt>
      <trkpt lat="58.49229" lon="-6.23229">
        <ele>15.19</ele>
        <time>2021-03-20T19:27:46Z</time>
      </trkpt>
      <trkpt lat="58.49175" lon="-6.23199">
        <ele>16</ele>
        <time>2021-03-20T19:27:49Z</time>
      </trkpt>
      <trkpt lat="58.49039" lon="-6.23596">
        <ele>20.45</ele>
        <time>2021-03-20T19:28:08Z</time>
      </trkpt>
      <trkpt lat="58.49039" lon="-6.23596">
        <ele>20.45</ele>
        <time>2021-03-20T19:28:08Z</time>
      </trkpt>
      <trkpt lat="58.48973" lon="-6.23791">
        <ele>23.47</ele>
        <time>2021-03-20T19:28:16Z</time>
      </trkpt>
      <trkpt lat="58.48958" lon="-6.23836">
        <ele>24.59</ele>
        <time>2021-03-20T19:28:24Z</time>
      </trkpt>
      <trkpt lat="58.48946" lon="-6.23883">
        <ele>25.83</ele>
        <time>2021-03-20T19:28:31Z</time>
      </trkpt>
      <trkpt lat="58.48939" lon="-6.23928">
        <ele>27.6</ele>
        <time>2021-03-20T19:28:39Z</time>
      </trkpt>
      <trkpt lat="58.48937" lon="-6.23959">
        <ele>28.95</ele>
        <time>2021-03-20T19:28:47Z</time>
      </trkpt>
      <trkpt lat="58.48941" lon="-6.24032">
        <ele>31.43</ele>
        <time>2021-03-20T19:28:54Z</time>
      </trkpt>
      <trkpt lat="58.48944" lon="-6.24063">
        <ele>32.31</ele>
        <time>2021-03-20T19:29:02Z</time>
      </trkpt>
      <trkpt lat="58.48942" lon="-6.24107">
        <ele>33.07</ele>
        <time>2021-03-20T19:29:09Z</time>
      </trkpt>
      <trkpt lat="58.48935" lon="-6.24149">
        <ele>33</ele>
        <time>2021-03-20T19:29:17Z</time>
      </trkpt>
      <trkpt lat="58.48856" lon="-6.24394">
        <ele>35.17</ele>
        <time>2021-03-20T19:29:25Z</time>
      </trkpt>
      <trkpt lat="58.48584" lon="-6.25217">
        <ele>41.96</ele>
        <time>2021-03-20T19:29:32Z</time>
      </trkpt>
      <trkpt lat="58.48502" lon="-6.25487">
        <ele>45</ele>
        <time>2021-03-20T19:29:40Z</time>
      </trkpt>
      <trkpt lat="58.48437" lon="-6.25719">
        <ele>48</ele>
        <time>2021-03-20T19:29:48Z</time>
      </trkpt>
      <trkpt lat="58.48375" lon="-6.25953">
        <ele>47.5</ele>
        <time>2021-03-20T19:29:55Z</time>
      </trkpt>
      <trkpt lat="58.48339" lon="-6.26093">
        <ele>46.92</ele>
        <time>2021-03-20T19:30:03Z</time>
      </trkpt>
      <trkpt lat="58.48312" lon="-6.26172">
        <ele>44.43</ele>
        <time>2021-03-20T19:30:11Z</time>
      </trkpt>
      <trkpt lat="58.48203" lon="-6.26403">
        <ele>36</ele>
        <time>2021-03-20T19:30:18Z</time>
      </trkpt>
      <trkpt lat="58.48106" lon="-6.26592">
        <ele>41.31</ele>
        <time>2021-03-20T19:30:26Z</time>
      </trkpt>
      <trkpt lat="58.48076" lon="-6.26662">
        <ele>43.83</ele>
        <time>2021-03-20T19:30:33Z</time>
      </trkpt>
      <trkpt lat="58.48041" lon="-6.26767">
        <ele>47</ele>
        <time>2021-03-20T19:30:41Z</time>
      </trkpt>
      <trkpt lat="58.47895" lon="-6.27123">
        <ele>48</ele>
        <time>2021-03-20T19:30:49Z</time>
      </trkpt>
      <trkpt lat="58.47861" lon="-6.27199">
        <ele>46.95</ele>
        <time>2021-03-20T19:30:56Z</time>
      </trkpt>
      <trkpt lat="58.47779" lon="-6.27363">
        <ele>41.95</ele>
        <time>2021-03-20T19:31:04Z</time>
      </trkpt>
      <trkpt lat="58.47674" lon="-6.27588">
        <ele>45.75</ele>
        <time>2021-03-20T19:31:12Z</time>
      </trkpt>
      <trkpt lat="58.47492" lon="-6.28001">
        <ele>51</ele>
        <time>2021-03-20T19:31:19Z</time>
      </trkpt>
      <trkpt lat="58.47429" lon="-6.28147">
        <ele>49.45</ele>
        <time>2021-03-20T19:31:27Z</time>
      </trkpt>
      <trkpt lat="58.47356" lon="-6.28306">
        <ele>46.81</ele>
        <time>2021-03-20T19:31:34Z</time>
      </trkpt>
      <trkpt lat="58.47304" lon="-6.28371">
        <ele>43.89</ele>
        <time>2021-03-20T19:31:42Z</time>
      </trkpt>
      <trkpt lat="58.4726" lon="-6.28437">
        <ele>41.35</ele>
        <time>2021-03-20T19:31:50Z</time>
      </trkpt>
      <trkpt lat="58.47242" lon="-6.28475">
        <ele>40.43</ele>
        <time>2021-03-20T19:31:57Z</time>
      </trkpt>
      <trkpt lat="58.47139" lon="-6.2872">
        <ele>32.01</ele>
        <time>2021-03-20T19:32:05Z</time>
      </trkpt>
      <trkpt lat="58.47092" lon="-6.28812">
        <ele>34</ele>
        <time>2021-03-20T19:32:13Z</time>
      </trkpt>
      <trkpt lat="58.47036" lon="-6.2892">
        <ele>36.75</ele>
        <time>2021-03-20T19:32:20Z</time>
      </trkpt>
      <trkpt lat="58.46936" lon="-6.29104">
        <ele>41</ele>
        <time>2021-03-20T19:32:28Z</time>
      </trkpt>
      <trkpt lat="58.46767" lon="-6.29424">
        <ele>49.4</ele>
        <time>2021-03-20T19:32:36Z</time>
      </trkpt>
      <trkpt lat="58.46682" lon="-6.29594">
        <ele>50</ele>
        <time>2021-03-20T19:32:43Z</time>
      </trkpt>
      <trkpt lat="58.46642" lon="-6.29681">
        <ele>48.47</ele>
        <time>2021-03-20T19:32:51Z</time>
      </trkpt>
      <trkpt lat="58.46602" lon="-6.29773">
        <ele>45.4</ele>
        <time>2021-03-20T19:32:58Z</time>
      </trkpt>
      <trkpt lat="58.46566" lon="-6.29872">
        <ele>41.76</ele>
        <time>2021-03-20T19:33:06Z</time>
      </trkpt>
      <trkpt lat="58.46559" lon="-6.2991">
        <ele>40.35</ele>
        <time>2021-03-20T19:33:14Z</time>
      </trkpt>
      <trkpt lat="58.46556" lon="-6.29949">
        <ele>38.73</ele>
        <time>2021-03-20T19:33:21Z</time>
      </trkpt>
      <trkpt lat="58.46562" lon="-6.29992">
        <ele>35.99</ele>
        <time>2021-03-20T19:33:29Z</time>
      </trkpt>
      <trkpt lat="58.46611" lon="-6.3017">
        <ele>25.81</ele>
        <time>2021-03-20T19:33:37Z</time>
      </trkpt>
      <trkpt lat="58.46617" lon="-6.30218">
        <ele>22.73</ele>
        <time>2021-03-20T19:33:44Z</time>
      </trkpt>
      <trkpt lat="58.46621" lon="-6.30266">
        <ele>21.15</ele>
        <time>2021-03-20T19:33:52Z</time>
      </trkpt>
      <trkpt lat="58.46625" lon="-6.30377">
        <ele>23.09</ele>
        <time>2021-03-20T19:34:00Z</time>
      </trkpt>
      <trkpt lat="58.46619" lon="-6.30509">
        <ele>29.33</ele>
        <time>2021-03-20T19:34:07Z</time>
      </trkpt>
      <trkpt lat="58.46609" lon="-6.30608">
        <ele>33.88</ele>
        <time>2021-03-20T19:34:15Z</time>
      </trkpt>
      <trkpt lat="58.46579" lon="-6.3085">
        <ele>41.78</ele>
        <time>2021-03-20T19:34:22Z</time>
      </trkpt>
      <trkpt lat="58.46556" lon="-6.30999">
        <ele>45.98</ele>
        <time>2021-03-20T19:34:30Z</time>
      </trkpt>
      <trkpt lat="58.46539" lon="-6.3108">
        <ele>46.51</ele>
        <time>2021-03-20T19:34:38Z</time>
      </trkpt>
      <trkpt lat="58.46404" lon="-6.31812">
        <ele>50.46</ele>
        <time>2021-03-20T19:34:45Z</time>
      </trkpt>
      <trkpt lat="58.46121" lon="-6.3273">
        <ele>44.35</ele>
        <time>2021-03-20T19:34:53Z</time>
      </trkpt>
      <trkpt lat="58.4584" lon="-6.33567">
        <ele>47.32</ele>
        <time>2021-03-20T19:35:01Z</time>
      </trkpt>
      <trkpt lat="58.45726" lon="-6.33816">
        <ele>43.87</ele>
        <time>2021-03-20T19:35:08Z</time>
      </trkpt>
      <trkpt lat="58.45401" lon="-6.34492">
        <ele>45.58</ele>
        <time>2021-03-20T19:35:16Z</time>
      </trkpt>
      <trkpt lat="58.45182" lon="-6.34916">
        <ele>50.98</ele>
        <time>2021-03-20T19:35:23Z</time>
      </trkpt>
      <trkpt lat="58.45137" lon="-6.34987">
        <ele>49.97</ele>
        <time>2021-03-20T19:35:31Z</time>
      </trkpt>
      <trkpt lat="58.45102" lon="-6.35037">
        <ele>48.31</ele>
        <time>2021-03-20T19:35:39Z</time>
      </trkpt>
      <trkpt lat="58.45003" lon="-6.35171">
        <ele>47.83</ele>
        <time>2021-03-20T19:35:46Z</time>
      </trkpt>
      <trkpt lat="58.44923" lon="-6.35284">
        <ele>47.82</ele>
        <time>2021-03-20T19:35:54Z</time>
      </trkpt>
      <trkpt lat="58.44906" lon="-6.35319">
        <ele>48</ele>
        <time>2021-03-20T19:36:02Z</time>
      </trkpt>
      <trkpt lat="58.44893" lon="-6.35353">
        <ele>47.39</ele>
        <time>2021-03-20T19:36:09Z</time>
      </trkpt>
      <trkpt lat="58.44665" lon="-6.36099">
        <ele>30.94</ele>
        <time>2021-03-20T19:36:17Z</time>
      </trkpt>
      <trkpt lat="58.44555" lon="-6.3648">
        <ele>20.03</ele>
        <time>2021-03-20T19:36:25Z</time>
      </trkpt>
      <trkpt lat="58.44373" lon="-6.37057">
        <ele>36.6</ele>
        <time>2021-03-20T19:36:32Z</time>
      </trkpt>
      <trkpt lat="58.43953" lon="-6.38436">
        <ele>21</ele>
        <time>2021-03-20T19:36:40Z</time>
      </trkpt>
      <trkpt lat="58.43808" lon="-6.38904">
        <ele>29.48</ele>
        <time>2021-03-20T19:36:47Z</time>
      </trkpt>
      <trkpt lat="58.43722" lon="-6.39186">
        <ele>30.31</ele>
        <time>2021-03-20T19:36:55Z</time>
      </trkpt>
      <trkpt lat="58.43611" lon="-6.39565">
        <ele>36.99</ele>
        <time>2021-03-20T19:37:03Z</time>
      </trkpt>
      <trkpt lat="58.43571" lon="-6.39691">
        <ele>39.87</ele>
        <time>2021-03-20T19:37:10Z</time>
      </trkpt>
      <trkpt lat="58.43475" lon="-6.39966">
        <ele>46.65</ele>
        <time>2021-03-20T19:37:18Z</time>
      </trkpt>
      <trkpt lat="58.43429" lon="-6.4013">
        <ele>48.57</ele>
        <time>2021-03-20T19:37:26Z</time>
      </trkpt>
      <trkpt lat="58.43402" lon="-6.40216">
        <ele>50</ele>
        <time>2021-03-20T19:37:33Z</time>
      </trkpt>
      <trkpt lat="58.43375" lon="-6.40289">
        <ele>49.58</ele>
        <time>2021-03-20T19:37:41Z</time>
      </trkpt>
      <trkpt lat="58.42925" lon="-6.41437">
        <ele>44.7</ele>
        <time>2021-03-20T19:37:48Z</time>
      </trkpt>
      <trkpt lat="58.42783" lon="-6.41776">
        <ele>40.06</ele>
        <time>2021-03-20T19:37:56Z</time>
      </trkpt>
      <trkpt lat="58.42717" lon="-6.41924">
        <ele>37</ele>
        <time>2021-03-20T19:38:04Z</time>
      </trkpt>
      <trkpt lat="58.4265" lon="-6.42044">
        <ele>35.6</ele>
        <time>2021-03-20T19:38:11Z</time>
      </trkpt>
      <trkpt lat="58.42471" lon="-6.42331">
        <ele>39.03</ele>
        <time>2021-03-20T19:38:19Z</time>
      </trkpt>
      <trkpt lat="58.42396" lon="-6.42456">
        <ele>40.32</ele>
        <time>2021-03-20T19:38:27Z</time>
      </trkpt>
      <trkpt lat="58.42133" lon="-6.4292">
        <ele>40.23</ele>
        <time>2021-03-20T19:38:34Z</time>
      </trkpt>
      <trkpt lat="58.41996" lon="-6.43102">
        <ele>38</ele>
        <time>2021-03-20T19:38:42Z</time>
      </trkpt>
      <trkpt lat="58.41913" lon="-6.4319">
        <ele>35.15</ele>
        <time>2021-03-20T19:38:50Z</time>
      </trkpt>
      <trkpt lat="58.41837" lon="-6.43244">
        <ele>32.37</ele>
        <time>2021-03-20T19:38:57Z</time>
      </trkpt>
      <trkpt lat="58.41802" lon="-6.43287">
        <ele>28.39</ele>
        <time>2021-03-20T19:39:05Z</time>
      </trkpt>
      <trkpt lat="58.4178" lon="-6.4332">
        <ele>25.64</ele>
        <time>2021-03-20T19:39:12Z</time>
      </trkpt>
      <trkpt lat="58.41711" lon="-6.43471">
        <ele>22.15</ele>
        <time>2021-03-20T19:39:20Z</time>
      </trkpt>
      <trkpt lat="58.4163" lon="-6.43662">
        <ele>34.65</ele>
        <time>2021-03-20T19:39:28Z</time>
      </trkpt>
      <trkpt lat="58.41599" lon="-6.43782">
        <ele>37.59</ele>
        <time>2021-03-20T19:39:35Z</time>
      </trkpt>
      <trkpt lat="58.41577" lon="-6.43885">
        <ele>40</ele>
        <time>2021-03-20T19:39:43Z</time>
      </trkpt>
      <trkpt lat="58.41541" lon="-6.43965">
        <ele>40</ele>
        <time>2021-03-20T19:39:51Z</time>
      </trkpt>
      <trkpt lat="58.4151" lon="-6.44023">
        <ele>39.46</ele>
        <time>2021-03-20T19:39:58Z</time>
      </trkpt>
      <trkpt lat="58.41435" lon="-6.4415">
        <ele>37</ele>
        <time>2021-03-20T19:40:06Z</time>
      </trkpt>
      <trkpt lat="58.41323" lon="-6.44366">
        <ele>35</ele>
        <time>2021-03-20T19:40:14Z</time>
      </trkpt>
      <trkpt lat="58.4086" lon="-6.45219">
        <ele>34</ele>
        <time>2021-03-20T19:40:21Z</time>
      </trkpt>
      <trkpt lat="58.40768" lon="-6.45379">
        <ele>34.37</ele>
        <time>2021-03-20T19:40:29Z</time>
      </trkpt>
      <trkpt lat="58.40733" lon="-6.45435">
        <ele>33.32</ele>
        <time>2021-03-20T19:40:36Z</time>
      </trkpt>
      <trkpt lat="58.40698" lon="-6.45484">
        <ele>32.86</ele>
        <time>2021-03-20T19:40:44Z</time>
      </trkpt>
      <trkpt lat="58.40609" lon="-6.45617">
        <ele>32.87</ele>
        <time>2021-03-20T19:40:52Z</time>
      </trkpt>
      <trkpt lat="58.40564" lon="-6.457">
        <ele>34.68</ele>
        <time>2021-03-20T19:40:59Z</time>
      </trkpt>
      <trkpt lat="58.40523" lon="-6.45788">
        <ele>36.27</ele>
        <time>2021-03-20T19:41:07Z</time>
      </trkpt>
      <trkpt lat="58.40399" lon="-6.4608">
        <ele>40.76</ele>
        <time>2021-03-20T19:41:15Z</time>
      </trkpt>
      <trkpt lat="58.4026" lon="-6.46392">
        <ele>37.31</ele>
        <time>2021-03-20T19:41:22Z</time>
      </trkpt>
      <trkpt lat="58.4017" lon="-6.46589">
        <ele>38.12</ele>
        <time>2021-03-20T19:41:30Z</time>
      </trkpt>
      <trkpt lat="58.40107" lon="-6.46719">
        <ele>39.83</ele>
        <time>2021-03-20T19:41:37Z</time>
      </trkpt>
      <trkpt lat="58.40055" lon="-6.46809">
        <ele>38</ele>
        <time>2021-03-20T19:41:45Z</time>
      </trkpt>
      <trkpt lat="58.39991" lon="-6.46906">
        <ele>36.06</ele>
        <time>2021-03-20T19:41:53Z</time>
      </trkpt>
      <trkpt lat="58.39868" lon="-6.47082">
        <ele>30.28</ele>
        <time>2021-03-20T19:42:00Z</time>
      </trkpt>
      <trkpt lat="58.39661" lon="-6.47359">
        <ele>23.78</ele>
        <time>2021-03-20T19:42:08Z</time>
      </trkpt>
      <trkpt lat="58.39596" lon="-6.47448">
        <ele>19.8</ele>
        <time>2021-03-20T19:42:16Z</time>
      </trkpt>
      <trkpt lat="58.39544" lon="-6.47535">
        <ele>14.18</ele>
        <time>2021-03-20T19:42:23Z</time>
      </trkpt>
      <trkpt lat="58.39424" lon="-6.47795">
        <ele>11.74</ele>
        <time>2021-03-20T19:42:31Z</time>
      </trkpt>
      <trkpt lat="58.3916" lon="-6.48398">
        <ele>22.5</ele>
        <time>2021-03-20T19:42:39Z</time>
      </trkpt>
      <trkpt lat="58.39025" lon="-6.48661">
        <ele>29.09</ele>
        <time>2021-03-20T19:42:46Z</time>
      </trkpt>
      <trkpt lat="58.38986" lon="-6.48731">
        <ele>30.81</ele>
        <time>2021-03-20T19:42:54Z</time>
      </trkpt>
      <trkpt lat="58.38588" lon="-6.49472">
        <ele>44.98</ele>
        <time>2021-03-20T19:43:01Z</time>
      </trkpt>
      <trkpt lat="58.38316" lon="-6.50046">
        <ele>56</ele>
        <time>2021-03-20T19:43:09Z</time>
      </trkpt>
      <trkpt lat="58.38256" lon="-6.5016">
        <ele>58.2</ele>
        <time>2021-03-20T19:43:17Z</time>
      </trkpt>
      <trkpt lat="58.38247" lon="-6.50176">
        <ele>58.19</ele>
        <time>2021-03-20T19:43:24Z</time>
      </trkpt>
      <trkpt lat="58.37938" lon="-6.50575">
        <ele>52.22</ele>
        <time>2021-03-20T19:43:32Z</time>
      </trkpt>
      <trkpt lat="58.37881" lon="-6.50653">
        <ele>53</ele>
        <time>2021-03-20T19:43:40Z</time>
      </trkpt>
      <trkpt lat="58.37819" lon="-6.50711">
        <ele>52.52</ele>
        <time>2021-03-20T19:43:47Z</time>
      </trkpt>
      <trkpt lat="58.37766" lon="-6.50736">
        <ele>54.2</ele>
        <time>2021-03-20T19:43:55Z</time>
      </trkpt>
      <trkpt lat="58.37706" lon="-6.50733">
        <ele>55</ele>
        <time>2021-03-20T19:44:03Z</time>
      </trkpt>
      <trkpt lat="58.37647" lon="-6.50705">
        <ele>54.74</ele>
        <time>2021-03-20T19:44:10Z</time>
      </trkpt>
      <trkpt lat="58.37548" lon="-6.50651">
        <ele>55</ele>
        <time>2021-03-20T19:44:18Z</time>
      </trkpt>
      <trkpt lat="58.37442" lon="-6.50604">
        <ele>51.91</ele>
        <time>2021-03-20T19:44:25Z</time>
      </trkpt>
      <trkpt lat="58.37353" lon="-6.50578">
        <ele>47.72</ele>
        <time>2021-03-20T19:44:33Z</time>
      </trkpt>
      <trkpt lat="58.37252" lon="-6.50567">
        <ele>44.66</ele>
        <time>2021-03-20T19:44:41Z</time>
      </trkpt>
      <trkpt lat="58.37152" lon="-6.50564">
        <ele>43.86</ele>
        <time>2021-03-20T19:44:48Z</time>
      </trkpt>
      <trkpt lat="58.37001" lon="-6.50572">
        <ele>47.39</ele>
        <time>2021-03-20T19:44:56Z</time>
      </trkpt>
      <trkpt lat="58.36831" lon="-6.50622">
        <ele>43.53</ele>
        <time>2021-03-20T19:45:04Z</time>
      </trkpt>
      <trkpt lat="58.36731" lon="-6.50658">
        <ele>39.3</ele>
        <time>2021-03-20T19:45:11Z</time>
      </trkpt>
      <trkpt lat="58.36523" lon="-6.50751">
        <ele>31.99</ele>
        <time>2021-03-20T19:45:19Z</time>
      </trkpt>
      <trkpt lat="58.36375" lon="-6.50849">
        <ele>28.22</ele>
        <time>2021-03-20T19:45:26Z</time>
      </trkpt>
      <trkpt lat="58.3619" lon="-6.50999">
        <ele>27</ele>
        <time>2021-03-20T19:45:34Z</time>
      </trkpt>
      <trkpt lat="58.35989" lon="-6.51179">
        <ele>26.83</ele>
        <time>2021-03-20T19:45:42Z</time>
      </trkpt>
      <trkpt lat="58.35951" lon="-6.5121">
        <ele>26.34</ele>
        <time>2021-03-20T19:45:49Z</time>
      </trkpt>
      <trkpt lat="58.35797" lon="-6.51314">
        <ele>25</ele>
        <time>2021-03-20T19:45:57Z</time>
      </trkpt>
      <trkpt lat="58.35733" lon="-6.5135">
        <ele>22.79</ele>
        <time>2021-03-20T19:46:05Z</time>
      </trkpt>
      <trkpt lat="58.35661" lon="-6.514">
        <ele>20.68</ele>
        <time>2021-03-20T19:46:12Z</time>
      </trkpt>
      <trkpt lat="58.35579" lon="-6.51451">
        <ele>20.63</ele>
        <time>2021-03-20T19:46:20Z</time>
      </trkpt>
      <trkpt lat="58.35298" lon="-6.51669">
        <ele>11.92</ele>
        <time>2021-03-20T19:46:28Z</time>
      </trkpt>
      <trkpt lat="58.35087" lon="-6.51848">
        <ele>8</ele>
        <time>2021-03-20T19:46:35Z</time>
      </trkpt>
      <trkpt lat="58.3501" lon="-6.51905">
        <ele>7.43</ele>
        <time>2021-03-20T19:46:43Z</time>
      </trkpt>
      <trkpt lat="58.34977" lon="-6.51921">
        <ele>7</ele>
        <time>2021-03-20T19:46:50Z</time>
      </trkpt>
      <trkpt lat="58.34955" lon="-6.51928">
        <ele>7</ele>
        <time>2021-03-20T19:46:58Z</time>
      </trkpt>
      <trkpt lat="58.34933" lon="-6.51925">
        <ele>7</ele>
        <time>2021-03-20T19:47:06Z</time>
      </trkpt>
      <trkpt lat="58.3491" lon="-6.51904">
        <ele>7.59</ele>
        <time>2021-03-20T19:47:13Z</time>
      </trkpt>
      <trkpt lat="58.349" lon="-6.51889">
        <ele>7.99</ele>
        <time>2021-03-20T19:47:21Z</time>
      </trkpt>
      <trkpt lat="58.34768" lon="-6.51635">
        <ele>10.05</ele>
        <time>2021-03-20T19:47:29Z</time>
      </trkpt>
      <trkpt lat="58.34697" lon="-6.51507">
        <ele>12</ele>
        <time>2021-03-20T19:47:36Z</time>
      </trkpt>
      <trkpt lat="58.34537" lon="-6.51204">
        <ele>14.33</ele>
        <time>2021-03-20T19:47:44Z</time>
      </trkpt>
      <trkpt lat="58.34439" lon="-6.51009">
        <ele>15.12</ele>
        <time>2021-03-20T19:47:52Z</time>
      </trkpt>
      <trkpt lat="58.34304" lon="-6.50756">
        <ele>20.27</ele>
        <time>2021-03-20T19:47:59Z</time>
      </trkpt>
      <trkpt lat="58.34238" lon="-6.50624">
        <ele>18.91</ele>
        <time>2021-03-20T19:48:07Z</time>
      </trkpt>
      <trkpt lat="58.34125" lon="-6.50392">
        <ele>19.95</ele>
        <time>2021-03-20T19:48:14Z</time>
      </trkpt>
      <trkpt lat="58.3382" lon="-6.49793">
        <ele>31.43</ele>
        <time>2021-03-20T19:48:22Z</time>
      </trkpt>
      <trkpt lat="58.33775" lon="-6.49696">
        <ele>32.75</ele>
        <time>2021-03-20T19:48:30Z</time>
      </trkpt>
      <trkpt lat="58.33641" lon="-6.49383">
        <ele>36.28</ele>
        <time>2021-03-20T19:48:37Z</time>
      </trkpt>
      <trkpt lat="58.33555" lon="-6.49177">
        <ele>37.61</ele>
        <time>2021-03-20T19:48:45Z</time>
      </trkpt>
      <trkpt lat="58.3347" lon="-6.48967">
        <ele>39.18</ele>
        <time>2021-03-20T19:48:53Z</time>
      </trkpt>
      <trkpt lat="58.33354" lon="-6.48702">
        <ele>44.45</ele>
        <time>2021-03-20T19:49:00Z</time>
      </trkpt>
      <trkpt lat="58.33112" lon="-6.48132">
        <ele>37.09</ele>
        <time>2021-03-20T19:49:08Z</time>
      </trkpt>
      <trkpt lat="58.33011" lon="-6.47862">
        <ele>38.97</ele>
        <time>2021-03-20T19:49:15Z</time>
      </trkpt>
      <trkpt lat="58.32903" lon="-6.47534">
        <ele>46</ele>
        <time>2021-03-20T19:49:23Z</time>
      </trkpt>
      <trkpt lat="58.32866" lon="-6.47445">
        <ele>47.16</ele>
        <time>2021-03-20T19:49:31Z</time>
      </trkpt>
      <trkpt lat="58.32764" lon="-6.47262">
        <ele>47.79</ele>
        <time>2021-03-20T19:49:38Z</time>
      </trkpt>
      <trkpt lat="58.32515" lon="-6.46875">
        <ele>49.61</ele>
        <time>2021-03-20T19:49:46Z</time>
      </trkpt>
      <trkpt lat="58.32375" lon="-6.46675">
        <ele>48.72</ele>
        <time>2021-03-20T19:49:54Z</time>
      </trkpt>
      <trkpt lat="58.32271" lon="-6.46559">
        <ele>44.61</ele>
        <time>2021-03-20T19:50:01Z</time>
      </trkpt>
      <trkpt lat="58.32058" lon="-6.46349">
        <ele>47.91</ele>
        <time>2021-03-20T19:50:09Z</time>
      </trkpt>
      <trkpt lat="58.31631" lon="-6.45977">
        <ele>49.25</ele>
        <time>2021-03-20T19:50:17Z</time>
      </trkpt>
      <trkpt lat="58.31188" lon="-6.456">
        <ele>61.4</ele>
        <time>2021-03-20T19:50:24Z</time>
      </trkpt>
      <trkpt lat="58.30974" lon="-6.4543">
        <ele>63.57</ele>
        <time>2021-03-20T19:50:32Z</time>
      </trkpt>
      <trkpt lat="58.30802" lon="-6.45307">
        <ele>62.83</ele>
        <time>2021-03-20T19:50:39Z</time>
      </trkpt>
      <trkpt lat="58.30708" lon="-6.45244">
        <ele>64.42</ele>
        <time>2021-03-20T19:50:47Z</time>
      </trkpt>
      <trkpt lat="58.30303" lon="-6.44995">
        <ele>74.37</ele>
        <time>2021-03-20T19:50:55Z</time>
      </trkpt>
      <trkpt lat="58.29959" lon="-6.44802">
        <ele>68.66</ele>
        <time>2021-03-20T19:51:02Z</time>
      </trkpt>
      <trkpt lat="58.29216" lon="-6.44393">
        <ele>78.74</ele>
        <time>2021-03-20T19:51:10Z</time>
      </trkpt>
      <trkpt lat="58.28994" lon="-6.44264">
        <ele>81.29</ele>
        <time>2021-03-20T19:51:18Z</time>
      </trkpt>
      <trkpt lat="58.28692" lon="-6.44062">
        <ele>73.92</ele>
        <time>2021-03-20T19:51:25Z</time>
      </trkpt>
      <trkpt lat="58.28522" lon="-6.4396">
        <ele>75.22</ele>
        <time>2021-03-20T19:51:33Z</time>
      </trkpt>
      <trkpt lat="58.28459" lon="-6.43926">
        <ele>79.94</ele>
        <time>2021-03-20T19:51:40Z</time>
      </trkpt>
      <trkpt lat="58.28316" lon="-6.4387">
        <ele>82.62</ele>
        <time>2021-03-20T19:51:48Z</time>
      </trkpt>
      <trkpt lat="58.27623" lon="-6.43575">
        <ele>92.71</ele>
        <time>2021-03-20T19:51:56Z</time>
      </trkpt>
      <trkpt lat="58.27408" lon="-6.43486">
        <ele>95.93</ele>
        <time>2021-03-20T19:52:03Z</time>
      </trkpt>
      <trkpt lat="58.27217" lon="-6.43413">
        <ele>107.18</ele>
        <time>2021-03-20T19:52:11Z</time>
      </trkpt>
      <trkpt lat="58.27081" lon="-6.43344">
        <ele>109.61</ele>
        <time>2021-03-20T19:52:19Z</time>
      </trkpt>
      <trkpt lat="58.26962" lon="-6.43271">
        <ele>107.64</ele>
        <time>2021-03-20T19:52:26Z</time>
      </trkpt>
      <trkpt lat="58.2667" lon="-6.43056">
        <ele>100</ele>
        <time>2021-03-20T19:52:34Z</time>
      </trkpt>
      <trkpt lat="58.26568" lon="-6.42967">
        <ele>96.24</ele>
        <time>2021-03-20T19:52:42Z</time>
      </trkpt>
      <trkpt lat="58.26501" lon="-6.429">
        <ele>94.39</ele>
        <time>2021-03-20T19:52:49Z</time>
      </trkpt>
      <trkpt lat="58.26466" lon="-6.42853">
        <ele>93.94</ele>
        <time>2021-03-20T19:52:57Z</time>
      </trkpt>
      <trkpt lat="58.26431" lon="-6.42794">
        <ele>93.09</ele>
        <time>2021-03-20T19:53:04Z</time>
      </trkpt>
      <trkpt lat="58.26399" lon="-6.42734">
        <ele>92.06</ele>
        <time>2021-03-20T19:53:12Z</time>
      </trkpt>
      <trkpt lat="58.26367" lon="-6.42663">
        <ele>91.79</ele>
        <time>2021-03-20T19:53:20Z</time>
      </trkpt>
      <trkpt lat="58.26335" lon="-6.42568">
        <ele>91.96</ele>
        <time>2021-03-20T19:53:27Z</time>
      </trkpt>
      <trkpt lat="58.26297" lon="-6.42405">
        <ele>92.32</ele>
        <time>2021-03-20T19:53:35Z</time>
      </trkpt>
      <trkpt lat="58.26271" lon="-6.42342">
        <ele>93.16</ele>
        <time>2021-03-20T19:53:43Z</time>
      </trkpt>
      <trkpt lat="58.26252" lon="-6.42302">
        <ele>93.92</ele>
        <time>2021-03-20T19:53:50Z</time>
      </trkpt>
      <trkpt lat="58.2622" lon="-6.42243">
        <ele>93</ele>
        <time>2021-03-20T19:53:58Z</time>
      </trkpt>
      <trkpt lat="58.26081" lon="-6.4203">
        <ele>94</ele>
        <time>2021-03-20T19:54:06Z</time>
      </trkpt>
      <trkpt lat="58.26041" lon="-6.41974">
        <ele>93.03</ele>
        <time>2021-03-20T19:54:13Z</time>
      </trkpt>
      <trkpt lat="58.25999" lon="-6.41929">
        <ele>93</ele>
        <time>2021-03-20T19:54:21Z</time>
      </trkpt>
      <trkpt lat="58.25955" lon="-6.41895">
        <ele>92.08</ele>
        <time>2021-03-20T19:54:28Z</time>
      </trkpt>
      <trkpt lat="58.2588" lon="-6.41825">
        <ele>94.31</ele>
        <time>2021-03-20T19:54:36Z</time>
      </trkpt>
      <trkpt lat="58.25867" lon="-6.41804">
        <ele>94.77</ele>
        <time>2021-03-20T19:54:44Z</time>
      </trkpt>
      <trkpt lat="58.25842" lon="-6.41758">
        <ele>95</ele>
        <time>2021-03-20T19:54:51Z</time>
      </trkpt>
      <trkpt lat="58.2563" lon="-6.41329">
        <ele>91.83</ele>
        <time>2021-03-20T19:54:59Z</time>
      </trkpt>
      <trkpt lat="58.25595" lon="-6.41275">
        <ele>90.57</ele>
        <time>2021-03-20T19:55:07Z</time>
      </trkpt>
      <trkpt lat="58.2558" lon="-6.41256">
        <ele>91.24</ele>
        <time>2021-03-20T19:55:14Z</time>
      </trkpt>
      <trkpt lat="58.25547" lon="-6.41226">
        <ele>92.44</ele>
        <time>2021-03-20T19:55:22Z</time>
      </trkpt>
      <trkpt lat="58.25527" lon="-6.41215">
        <ele>92.74</ele>
        <time>2021-03-20T19:55:29Z</time>
      </trkpt>
      <trkpt lat="58.25502" lon="-6.4121">
        <ele>92.97</ele>
        <time>2021-03-20T19:55:37Z</time>
      </trkpt>
      <trkpt lat="58.25374" lon="-6.41206">
        <ele>95.53</ele>
        <time>2021-03-20T19:55:45Z</time>
      </trkpt>
      <trkpt lat="58.25303" lon="-6.41207">
        <ele>93.91</ele>
        <time>2021-03-20T19:55:52Z</time>
      </trkpt>
      <trkpt lat="58.25236" lon="-6.41203">
        <ele>94.5</ele>
        <time>2021-03-20T19:56:00Z</time>
      </trkpt>
      <trkpt lat="58.25192" lon="-6.41194">
        <ele>94.92</ele>
        <time>2021-03-20T19:56:08Z</time>
      </trkpt>
      <trkpt lat="58.25039" lon="-6.41119">
        <ele>87.24</ele>
        <time>2021-03-20T19:56:15Z</time>
      </trkpt>
      <trkpt lat="58.25003" lon="-6.41096">
        <ele>86.1</ele>
        <time>2021-03-20T19:56:23Z</time>
      </trkpt>
      <trkpt lat="58.24984" lon="-6.41077">
        <ele>85</ele>
        <time>2021-03-20T19:56:31Z</time>
      </trkpt>
      <trkpt lat="58.24914" lon="-6.4099">
        <ele>82.75</ele>
        <time>2021-03-20T19:56:38Z</time>
      </trkpt>
      <trkpt lat="58.24892" lon="-6.40954">
        <ele>80.36</ele>
        <time>2021-03-20T19:56:46Z</time>
      </trkpt>
      <trkpt lat="58.24883" lon="-6.40932">
        <ele>79.15</ele>
        <time>2021-03-20T19:56:53Z</time>
      </trkpt>
      <trkpt lat="58.24869" lon="-6.40881">
        <ele>76.19</ele>
        <time>2021-03-20T19:57:01Z</time>
      </trkpt>
      <trkpt lat="58.24864" lon="-6.40851">
        <ele>75.47</ele>
        <time>2021-03-20T19:57:09Z</time>
      </trkpt>
      <trkpt lat="58.24848" lon="-6.40717">
        <ele>72.86</ele>
        <time>2021-03-20T19:57:16Z</time>
      </trkpt>
      <trkpt lat="58.24831" lon="-6.40441">
        <ele>65.69</ele>
        <time>2021-03-20T19:57:24Z</time>
      </trkpt>
      <trkpt lat="58.24819" lon="-6.40117">
        <ele>57.21</ele>
        <time>2021-03-20T19:57:32Z</time>
      </trkpt>
      <trkpt lat="58.24813" lon="-6.40048">
        <ele>56.72</ele>
        <time>2021-03-20T19:57:39Z</time>
      </trkpt>
      <trkpt lat="58.24803" lon="-6.39993">
        <ele>56.21</ele>
        <time>2021-03-20T19:57:47Z</time>
      </trkpt>
      <trkpt lat="58.24791" lon="-6.39947">
        <ele>56.56</ele>
        <time>2021-03-20T19:57:55Z</time>
      </trkpt>
      <trkpt lat="58.24781" lon="-6.39885">
        <ele>57.66</ele>
        <time>2021-03-20T19:58:02Z</time>
      </trkpt>
      <trkpt lat="58.24761" lon="-6.39699">
        <ele>57.84</ele>
        <time>2021-03-20T19:58:10Z</time>
      </trkpt>
      <trkpt lat="58.24754" lon="-6.39667">
        <ele>57.55</ele>
        <time>2021-03-20T19:58:17Z</time>
      </trkpt>
      <trkpt lat="58.24748" lon="-6.39644">
        <ele>57.37</ele>
        <time>2021-03-20T19:58:25Z</time>
      </trkpt>
      <trkpt lat="58.24735" lon="-6.39616">
        <ele>57.27</ele>
        <time>2021-03-20T19:58:33Z</time>
      </trkpt>
      <trkpt lat="58.24721" lon="-6.39592">
        <ele>58.04</ele>
        <time>2021-03-20T19:58:40Z</time>
      </trkpt>
      <trkpt lat="58.24515" lon="-6.39234">
        <ele>62.8</ele>
        <time>2021-03-20T19:58:48Z</time>
      </trkpt>
      <trkpt lat="58.24491" lon="-6.39205">
        <ele>62.83</ele>
        <time>2021-03-20T19:58:56Z</time>
      </trkpt>
      <trkpt lat="58.24256" lon="-6.39073">
        <ele>57.9</ele>
        <time>2021-03-20T19:59:03Z</time>
      </trkpt>
      <trkpt lat="58.24105" lon="-6.38983">
        <ele>56.05</ele>
        <time>2021-03-20T19:59:11Z</time>
      </trkpt>
      <trkpt lat="58.24015" lon="-6.38897">
        <ele>51.5</ele>
        <time>2021-03-20T19:59:18Z</time>
      </trkpt>
      <trkpt lat="58.23992" lon="-6.38869">
        <ele>50.89</ele>
        <time>2021-03-20T19:59:26Z</time>
      </trkpt>
      <trkpt lat="58.23963" lon="-6.38828">
        <ele>48.94</ele>
        <time>2021-03-20T19:59:34Z</time>
      </trkpt>
      <trkpt lat="58.23943" lon="-6.38806">
        <ele>48.11</ele>
        <time>2021-03-20T19:59:41Z</time>
      </trkpt>
      <trkpt lat="58.23924" lon="-6.38793">
        <ele>47.86</ele>
        <time>2021-03-20T19:59:49Z</time>
      </trkpt>
      <trkpt lat="58.23902" lon="-6.38785">
        <ele>48.07</ele>
        <time>2021-03-20T19:59:57Z</time>
      </trkpt>
      <trkpt lat="58.23848" lon="-6.38779">
        <ele>47.66</ele>
        <time>2021-03-20T20:00:04Z</time>
      </trkpt>
      <trkpt lat="58.23798" lon="-6.38787">
        <ele>47.64</ele>
        <time>2021-03-20T20:00:12Z</time>
      </trkpt>
      <trkpt lat="58.23726" lon="-6.38804">
        <ele>47.07</ele>
        <time>2021-03-20T20:00:20Z</time>
      </trkpt>
      <trkpt lat="58.23628" lon="-6.38863">
        <ele>44.39</ele>
        <time>2021-03-20T20:00:27Z</time>
      </trkpt>
      <trkpt lat="58.23597" lon="-6.38887">
        <ele>43.85</ele>
        <time>2021-03-20T20:00:35Z</time>
      </trkpt>
      <trkpt lat="58.2357" lon="-6.38923">
        <ele>44.44</ele>
        <time>2021-03-20T20:00:42Z</time>
      </trkpt>
      <trkpt lat="58.23476" lon="-6.39029">
        <ele>41.27</ele>
        <time>2021-03-20T20:00:50Z</time>
      </trkpt>
      <trkpt lat="58.23463" lon="-6.3904">
        <ele>40.78</ele>
        <time>2021-03-20T20:00:58Z</time>
      </trkpt>
      <trkpt lat="58.23451" lon="-6.39047">
        <ele>40.12</ele>
        <time>2021-03-20T20:01:05Z</time>
      </trkpt>
      <trkpt lat="58.23438" lon="-6.39049">
        <ele>39.77</ele>
        <time>2021-03-20T20:01:13Z</time>
      </trkpt>
      <trkpt lat="58.23354" lon="-6.39031">
        <ele>37.35</ele>
        <time>2021-03-20T20:01:21Z</time>
      </trkpt>
      <trkpt lat="58.23288" lon="-6.39023">
        <ele>36.12</ele>
        <time>2021-03-20T20:01:28Z</time>
      </trkpt>
      <trkpt lat="58.23183" lon="-6.39026">
        <ele>34.99</ele>
        <time>2021-03-20T20:01:36Z</time>
      </trkpt>
      <trkpt lat="58.23118" lon="-6.3902">
        <ele>30.23</ele>
        <time>2021-03-20T20:01:44Z</time>
      </trkpt>
      <trkpt lat="58.23073" lon="-6.39002">
        <ele>27.68</ele>
        <time>2021-03-20T20:01:51Z</time>
      </trkpt>
      <trkpt lat="58.23048" lon="-6.38985">
        <ele>26.03</ele>
        <time>2021-03-20T20:01:59Z</time>
      </trkpt>
      <trkpt lat="58.2301" lon="-6.38949">
        <ele>23.74</ele>
        <time>2021-03-20T20:02:06Z</time>
      </trkpt>
      <trkpt lat="58.22986" lon="-6.38936">
        <ele>21.31</ele>
        <time>2021-03-20T20:02:14Z</time>
      </trkpt>
      <trkpt lat="58.22967" lon="-6.38933">
        <ele>19.59</ele>
        <time>2021-03-20T20:02:22Z</time>
      </trkpt>
      <trkpt lat="58.22907" lon="-6.38941">
        <ele>15.27</ele>
        <time>2021-03-20T20:02:29Z</time>
      </trkpt>
      <trkpt lat="58.22889" lon="-6.38943">
        <ele>14.02</ele>
        <time>2021-03-20T20:02:37Z</time>
      </trkpt>
      <trkpt lat="58.22813" lon="-6.38945">
        <ele>13.74</ele>
        <time>2021-03-20T20:02:45Z</time>
      </trkpt>
      <trkpt lat="58.22799" lon="-6.38942">
        <ele>14.13</ele>
        <time>2021-03-20T20:02:52Z</time>
      </trkpt>
      <trkpt lat="58.22783" lon="-6.38931">
        <ele>14.32</ele>
        <time>2021-03-20T20:03:00Z</time>
      </trkpt>
      <trkpt lat="58.2277" lon="-6.38915">
        <ele>14.2</ele>
        <time>2021-03-20T20:03:07Z</time>
      </trkpt>
      <trkpt lat="58.22751" lon="-6.38885">
        <ele>13.83</ele>
        <time>2021-03-20T20:03:15Z</time>
      </trkpt>
      <trkpt lat="58.22639" lon="-6.38688">
        <ele>8.99</ele>
        <time>2021-03-20T20:03:23Z</time>
      </trkpt>
      <trkpt lat="58.22622" lon="-6.38664">
        <ele>8.38</ele>
        <time>2021-03-20T20:03:30Z</time>
      </trkpt>
      <trkpt lat="58.22601" lon="-6.38653">
        <ele>7.64</ele>
        <time>2021-03-20T20:03:38Z</time>
      </trkpt>
      <trkpt lat="58.22431" lon="-6.38604">
        <ele>7</ele>
        <time>2021-03-20T20:03:46Z</time>
      </trkpt>
      <trkpt lat="58.22391" lon="-6.38597">
        <ele>7.91</ele>
        <time>2021-03-20T20:03:53Z</time>
      </trkpt>
      <trkpt lat="58.22155" lon="-6.38618">
        <ele>17.66</ele>
        <time>2021-03-20T20:04:01Z</time>
      </trkpt>
      <trkpt lat="58.21953" lon="-6.38624">
        <ele>13</ele>
        <time>2021-03-20T20:04:09Z</time>
      </trkpt>
      <trkpt lat="58.21953" lon="-6.38618">
        <ele>13</ele>
        <time>2021-03-20T20:04:17Z</time>
      </trkpt>
      <trkpt lat="58.2195" lon="-6.38606">
        <ele>13</ele>
        <time>2021-03-20T20:04:26Z</time>
      </trkpt>
      <trkpt lat="58.21944" lon="-6.386">
        <ele>12.99</ele>
        <time>2021-03-20T20:04:34Z</time>
      </trkpt>
      <trkpt lat="58.21944" lon="-6.38574">
        <ele>12.65</ele>
        <time>2021-03-20T20:04:42Z</time>
      </trkpt>
      <trkpt lat="58.21922" lon="-6.38439">
        <ele>13</ele>
        <time>2021-03-20T20:04:51Z</time>
      </trkpt>
      <trkpt lat="58.21847" lon="-6.38">
        <ele>14.04</ele>
        <time>2021-03-20T20:04:59Z</time>
      </trkpt>
      <trkpt lat="58.21836" lon="-6.37928">
        <ele>15.92</ele>
        <time>2021-03-20T20:05:08Z</time>
      </trkpt>
      <trkpt lat="58.21807" lon="-6.37779">
        <ele>18</ele>
        <time>2021-03-20T20:05:16Z</time>
      </trkpt>
      <trkpt lat="58.21791" lon="-6.37725">
        <ele>17.04</ele>
        <time>2021-03-20T20:05:24Z</time>
      </trkpt>
      <trkpt lat="58.21725" lon="-6.37577">
        <ele>15.76</ele>
        <time>2021-03-20T20:05:33Z</time>
      </trkpt>
      <trkpt lat="58.21675" lon="-6.37458">
        <ele>13.84</ele>
        <time>2021-03-20T20:05:41Z</time>
      </trkpt>
      <trkpt lat="58.21623" lon="-6.37345">
        <ele>17.13</ele>
        <time>2021-03-20T20:05:50Z</time>
      </trkpt>
      <trkpt lat="58.21573" lon="-6.37256">
        <ele>21.37</ele>
        <time>2021-03-20T20:05:58Z</time>
      </trkpt>
      <trkpt lat="58.21515" lon="-6.37351">
        <ele>23.44</ele>
        <time>2021-03-20T20:06:05Z</time>
      </trkpt>
      <trkpt lat="58.21468" lon="-6.37434">
        <ele>26</ele>
        <time>2021-03-20T20:06:12Z</time>
      </trkpt>
      <trkpt lat="58.2151" lon="-6.37503">
        <ele>23.53</ele>
        <time>2021-03-20T20:06:23Z</time>
      </trkpt>
      <trkpt lat="58.21533" lon="-6.37466">
        <ele>22.66</ele>
        <time>2021-03-20T20:06:27Z</time>
      </trkpt>
      <trkpt lat="58.21538" lon="-6.37468">
        <ele>22.3</ele>
        <time>2021-03-20T20:06:32Z</time>
      </trkpt>
      <trkpt lat="58.21567" lon="-6.37525">
        <ele>21.02</ele>
        <time>2021-03-20T20:06:37Z</time>
      </trkpt>
    </trkseg>
  </trk>
  <trk>
    <name><![CDATA[J06 - Stornoway - Baile Raghnaill]]></name>
    <trkseg>
      <trkpt lat="58.21562" lon="-6.37516">
        <ele>21.02</ele>
        <time>2021-03-20T14:18:10Z</time>
      </trkpt>
      <trkpt lat="58.21538" lon="-6.37468">
        <ele>22.3</ele>
        <time>2021-03-20T14:18:14Z</time>
      </trkpt>
      <trkpt lat="58.21533" lon="-6.37466">
        <ele>22.66</ele>
        <time>2021-03-20T14:18:18Z</time>
      </trkpt>
      <trkpt lat="58.2151" lon="-6.37503">
        <ele>23.53</ele>
        <time>2021-03-20T14:18:23Z</time>
      </trkpt>
      <trkpt lat="58.21468" lon="-6.37434">
        <ele>26</ele>
        <time>2021-03-20T14:18:33Z</time>
      </trkpt>
      <trkpt lat="58.21515" lon="-6.37351">
        <ele>23.44</ele>
        <time>2021-03-20T14:18:40Z</time>
      </trkpt>
      <trkpt lat="58.21573" lon="-6.37256">
        <ele>21.37</ele>
        <time>2021-03-20T14:18:47Z</time>
      </trkpt>
      <trkpt lat="58.21623" lon="-6.37345">
        <ele>17.13</ele>
        <time>2021-03-20T14:18:58Z</time>
      </trkpt>
      <trkpt lat="58.21675" lon="-6.37458">
        <ele>13.84</ele>
        <time>2021-03-20T14:19:09Z</time>
      </trkpt>
      <trkpt lat="58.21725" lon="-6.37577">
        <ele>15.76</ele>
        <time>2021-03-20T14:19:19Z</time>
      </trkpt>
      <trkpt lat="58.21791" lon="-6.37725">
        <ele>17.04</ele>
        <time>2021-03-20T14:19:30Z</time>
      </trkpt>
      <trkpt lat="58.21807" lon="-6.37779">
        <ele>18</ele>
        <time>2021-03-20T14:19:41Z</time>
      </trkpt>
      <trkpt lat="58.21836" lon="-6.37928">
        <ele>15.92</ele>
        <time>2021-03-20T14:19:52Z</time>
      </trkpt>
      <trkpt lat="58.21847" lon="-6.38">
        <ele>14.04</ele>
        <time>2021-03-20T14:20:02Z</time>
      </trkpt>
      <trkpt lat="58.21922" lon="-6.38439">
        <ele>13</ele>
        <time>2021-03-20T14:20:13Z</time>
      </trkpt>
      <trkpt lat="58.21944" lon="-6.38574">
        <ele>12.65</ele>
        <time>2021-03-20T14:20:24Z</time>
      </trkpt>
      <trkpt lat="58.21944" lon="-6.386">
        <ele>12.99</ele>
        <time>2021-03-20T14:20:35Z</time>
      </trkpt>
      <trkpt lat="58.21937" lon="-6.38604">
        <ele>12.74</ele>
        <time>2021-03-20T14:20:39Z</time>
      </trkpt>
      <trkpt lat="58.21933" lon="-6.38615">
        <ele>12.59</ele>
        <time>2021-03-20T14:20:44Z</time>
      </trkpt>
      <trkpt lat="58.21933" lon="-6.38622">
        <ele>12.59</ele>
        <time>2021-03-20T14:20:48Z</time>
      </trkpt>
      <trkpt lat="58.21937" lon="-6.38635">
        <ele>12.72</ele>
        <time>2021-03-20T14:20:52Z</time>
      </trkpt>
      <trkpt lat="58.21944" lon="-6.38639">
        <ele>12.97</ele>
        <time>2021-03-20T14:20:57Z</time>
      </trkpt>
      <trkpt lat="58.21942" lon="-6.38657">
        <ele>12.9</ele>
        <time>2021-03-20T14:21:01Z</time>
      </trkpt>
      <trkpt lat="58.21898" lon="-6.38759">
        <ele>12.31</ele>
        <time>2021-03-20T14:21:06Z</time>
      </trkpt>
      <trkpt lat="58.21884" lon="-6.38808">
        <ele>12.64</ele>
        <time>2021-03-20T14:21:10Z</time>
      </trkpt>
      <trkpt lat="58.2188" lon="-6.38839">
        <ele>12.9</ele>
        <time>2021-03-20T14:21:15Z</time>
      </trkpt>
      <trkpt lat="58.21883" lon="-6.38877">
        <ele>13.8</ele>
        <time>2021-03-20T14:21:19Z</time>
      </trkpt>
      <trkpt lat="58.21921" lon="-6.39053">
        <ele>20.16</ele>
        <time>2021-03-20T14:21:24Z</time>
      </trkpt>
      <trkpt lat="58.21946" lon="-6.39242">
        <ele>22.84</ele>
        <time>2021-03-20T14:21:28Z</time>
      </trkpt>
      <trkpt lat="58.21968" lon="-6.39483">
        <ele>26.66</ele>
        <time>2021-03-20T14:21:33Z</time>
      </trkpt>
      <trkpt lat="58.21976" lon="-6.39637">
        <ele>29.17</ele>
        <time>2021-03-20T14:21:37Z</time>
      </trkpt>
      <trkpt lat="58.21967" lon="-6.39813">
        <ele>34.65</ele>
        <time>2021-03-20T14:21:41Z</time>
      </trkpt>
      <trkpt lat="58.2195" lon="-6.39894">
        <ele>36.17</ele>
        <time>2021-03-20T14:21:46Z</time>
      </trkpt>
      <trkpt lat="58.2191" lon="-6.40113">
        <ele>44.78</ele>
        <time>2021-03-20T14:21:50Z</time>
      </trkpt>
      <trkpt lat="58.21894" lon="-6.40259">
        <ele>44.19</ele>
        <time>2021-03-20T14:21:55Z</time>
      </trkpt>
      <trkpt lat="58.21857" lon="-6.40457">
        <ele>45.96</ele>
        <time>2021-03-20T14:21:59Z</time>
      </trkpt>
      <trkpt lat="58.21852" lon="-6.40479">
        <ele>46.03</ele>
        <time>2021-03-20T14:22:04Z</time>
      </trkpt>
      <trkpt lat="58.21826" lon="-6.40568">
        <ele>49.23</ele>
        <time>2021-03-20T14:22:08Z</time>
      </trkpt>
      <trkpt lat="58.21773" lon="-6.40702">
        <ele>51</ele>
        <time>2021-03-20T14:22:13Z</time>
      </trkpt>
      <trkpt lat="58.21661" lon="-6.40956">
        <ele>50.32</ele>
        <time>2021-03-20T14:22:17Z</time>
      </trkpt>
      <trkpt lat="58.21645" lon="-6.40997">
        <ele>50.21</ele>
        <time>2021-03-20T14:22:22Z</time>
      </trkpt>
      <trkpt lat="58.21546" lon="-6.41203">
        <ele>52.7</ele>
        <time>2021-03-20T14:22:26Z</time>
      </trkpt>
      <trkpt lat="58.21444" lon="-6.41366">
        <ele>57</ele>
        <time>2021-03-20T14:22:30Z</time>
      </trkpt>
      <trkpt lat="58.21277" lon="-6.41589">
        <ele>58.02</ele>
        <time>2021-03-20T14:22:35Z</time>
      </trkpt>
      <trkpt lat="58.21171" lon="-6.41714">
        <ele>59.85</ele>
        <time>2021-03-20T14:22:39Z</time>
      </trkpt>
      <trkpt lat="58.21105" lon="-6.41761">
        <ele>58.12</ele>
        <time>2021-03-20T14:22:44Z</time>
      </trkpt>
      <trkpt lat="58.21005" lon="-6.41793">
        <ele>55.6</ele>
        <time>2021-03-20T14:22:48Z</time>
      </trkpt>
      <trkpt lat="58.2073" lon="-6.41864">
        <ele>45.56</ele>
        <time>2021-03-20T14:22:53Z</time>
      </trkpt>
      <trkpt lat="58.20655" lon="-6.41894">
        <ele>42.92</ele>
        <time>2021-03-20T14:22:57Z</time>
      </trkpt>
      <trkpt lat="58.20512" lon="-6.4199">
        <ele>43.27</ele>
        <time>2021-03-20T14:23:02Z</time>
      </trkpt>
      <trkpt lat="58.2047" lon="-6.42023">
        <ele>42.09</ele>
        <time>2021-03-20T14:23:06Z</time>
      </trkpt>
      <trkpt lat="58.20436" lon="-6.42059">
        <ele>42.44</ele>
        <time>2021-03-20T14:23:11Z</time>
      </trkpt>
      <trkpt lat="58.20354" lon="-6.42158">
        <ele>46.74</ele>
        <time>2021-03-20T14:23:15Z</time>
      </trkpt>
      <trkpt lat="58.20286" lon="-6.42272">
        <ele>52.7</ele>
        <time>2021-03-20T14:23:19Z</time>
      </trkpt>
      <trkpt lat="58.20202" lon="-6.42423">
        <ele>54.65</ele>
        <time>2021-03-20T14:23:24Z</time>
      </trkpt>
      <trkpt lat="58.20154" lon="-6.42503">
        <ele>57</ele>
        <time>2021-03-20T14:23:28Z</time>
      </trkpt>
      <trkpt lat="58.20126" lon="-6.42542">
        <ele>57</ele>
        <time>2021-03-20T14:23:33Z</time>
      </trkpt>
      <trkpt lat="58.20098" lon="-6.42577">
        <ele>57</ele>
        <time>2021-03-20T14:23:37Z</time>
      </trkpt>
      <trkpt lat="58.19943" lon="-6.42757">
        <ele>60</ele>
        <time>2021-03-20T14:23:42Z</time>
      </trkpt>
      <trkpt lat="58.19694" lon="-6.43074">
        <ele>59</ele>
        <time>2021-03-20T14:23:46Z</time>
      </trkpt>
      <trkpt lat="58.19593" lon="-6.43226">
        <ele>56.44</ele>
        <time>2021-03-20T14:23:51Z</time>
      </trkpt>
      <trkpt lat="58.19527" lon="-6.43319">
        <ele>57.04</ele>
        <time>2021-03-20T14:23:55Z</time>
      </trkpt>
      <trkpt lat="58.19323" lon="-6.43534">
        <ele>61.58</ele>
        <time>2021-03-20T14:24:00Z</time>
      </trkpt>
      <trkpt lat="58.19226" lon="-6.43649">
        <ele>68.86</ele>
        <time>2021-03-20T14:24:04Z</time>
      </trkpt>
      <trkpt lat="58.1912" lon="-6.43752">
        <ele>72.68</ele>
        <time>2021-03-20T14:24:08Z</time>
      </trkpt>
      <trkpt lat="58.19041" lon="-6.43851">
        <ele>73.36</ele>
        <time>2021-03-20T14:24:13Z</time>
      </trkpt>
      <trkpt lat="58.18964" lon="-6.43971">
        <ele>69.37</ele>
        <time>2021-03-20T14:24:17Z</time>
      </trkpt>
      <trkpt lat="58.189" lon="-6.44121">
        <ele>67.79</ele>
        <time>2021-03-20T14:24:22Z</time>
      </trkpt>
      <trkpt lat="58.18862" lon="-6.4422">
        <ele>69.92</ele>
        <time>2021-03-20T14:24:26Z</time>
      </trkpt>
      <trkpt lat="58.18808" lon="-6.44379">
        <ele>70.23</ele>
        <time>2021-03-20T14:24:31Z</time>
      </trkpt>
      <trkpt lat="58.186" lon="-6.45259">
        <ele>78.83</ele>
        <time>2021-03-20T14:24:35Z</time>
      </trkpt>
      <trkpt lat="58.18514" lon="-6.45559">
        <ele>83.87</ele>
        <time>2021-03-20T14:24:40Z</time>
      </trkpt>
      <trkpt lat="58.18457" lon="-6.45769">
        <ele>85</ele>
        <time>2021-03-20T14:24:44Z</time>
      </trkpt>
      <trkpt lat="58.18409" lon="-6.45919">
        <ele>84.46</ele>
        <time>2021-03-20T14:24:49Z</time>
      </trkpt>
      <trkpt lat="58.18373" lon="-6.45984">
        <ele>82.44</ele>
        <time>2021-03-20T14:24:53Z</time>
      </trkpt>
      <trkpt lat="58.18317" lon="-6.4604">
        <ele>80</ele>
        <time>2021-03-20T14:24:57Z</time>
      </trkpt>
      <trkpt lat="58.18167" lon="-6.46164">
        <ele>75</ele>
        <time>2021-03-20T14:25:02Z</time>
      </trkpt>
      <trkpt lat="58.18098" lon="-6.46216">
        <ele>75.24</ele>
        <time>2021-03-20T14:25:06Z</time>
      </trkpt>
      <trkpt lat="58.17962" lon="-6.46327">
        <ele>75</ele>
        <time>2021-03-20T14:25:11Z</time>
      </trkpt>
      <trkpt lat="58.1785" lon="-6.46433">
        <ele>75</ele>
        <time>2021-03-20T14:25:15Z</time>
      </trkpt>
      <trkpt lat="58.17588" lon="-6.4675">
        <ele>67.45</ele>
        <time>2021-03-20T14:25:20Z</time>
      </trkpt>
      <trkpt lat="58.17506" lon="-6.46854">
        <ele>65.97</ele>
        <time>2021-03-20T14:25:24Z</time>
      </trkpt>
      <trkpt lat="58.17487" lon="-6.46887">
        <ele>66.02</ele>
        <time>2021-03-20T14:25:29Z</time>
      </trkpt>
      <trkpt lat="58.1741" lon="-6.4708">
        <ele>66.91</ele>
        <time>2021-03-20T14:25:33Z</time>
      </trkpt>
      <trkpt lat="58.17361" lon="-6.47175">
        <ele>66</ele>
        <time>2021-03-20T14:25:37Z</time>
      </trkpt>
      <trkpt lat="58.17292" lon="-6.47297">
        <ele>68</ele>
        <time>2021-03-20T14:25:42Z</time>
      </trkpt>
      <trkpt lat="58.16952" lon="-6.47928">
        <ele>79</ele>
        <time>2021-03-20T14:25:46Z</time>
      </trkpt>
      <trkpt lat="58.16866" lon="-6.48098">
        <ele>83.84</ele>
        <time>2021-03-20T14:25:51Z</time>
      </trkpt>
      <trkpt lat="58.16742" lon="-6.48333">
        <ele>85.7</ele>
        <time>2021-03-20T14:25:55Z</time>
      </trkpt>
      <trkpt lat="58.16332" lon="-6.49088">
        <ele>85</ele>
        <time>2021-03-20T14:26:00Z</time>
      </trkpt>
      <trkpt lat="58.16227" lon="-6.49257">
        <ele>78.35</ele>
        <time>2021-03-20T14:26:04Z</time>
      </trkpt>
      <trkpt lat="58.16195" lon="-6.49297">
        <ele>76</ele>
        <time>2021-03-20T14:26:09Z</time>
      </trkpt>
      <trkpt lat="58.16158" lon="-6.49336">
        <ele>73.38</ele>
        <time>2021-03-20T14:26:13Z</time>
      </trkpt>
      <trkpt lat="58.16062" lon="-6.49415">
        <ele>72.16</ele>
        <time>2021-03-20T14:26:18Z</time>
      </trkpt>
      <trkpt lat="58.16038" lon="-6.49433">
        <ele>72</ele>
        <time>2021-03-20T14:26:22Z</time>
      </trkpt>
      <trkpt lat="58.15863" lon="-6.4955">
        <ele>72</ele>
        <time>2021-03-20T14:26:26Z</time>
      </trkpt>
      <trkpt lat="58.15683" lon="-6.49677">
        <ele>74.72</ele>
        <time>2021-03-20T14:26:31Z</time>
      </trkpt>
      <trkpt lat="58.15606" lon="-6.49744">
        <ele>74.39</ele>
        <time>2021-03-20T14:26:35Z</time>
      </trkpt>
      <trkpt lat="58.15514" lon="-6.49833">
        <ele>67.55</ele>
        <time>2021-03-20T14:26:40Z</time>
      </trkpt>
      <trkpt lat="58.15264" lon="-6.50088">
        <ele>56.97</ele>
        <time>2021-03-20T14:26:44Z</time>
      </trkpt>
      <trkpt lat="58.15159" lon="-6.50195">
        <ele>46.19</ele>
        <time>2021-03-20T14:26:49Z</time>
      </trkpt>
      <trkpt lat="58.14933" lon="-6.50433">
        <ele>33.59</ele>
        <time>2021-03-20T14:26:53Z</time>
      </trkpt>
      <trkpt lat="58.14644" lon="-6.50773">
        <ele>26.61</ele>
        <time>2021-03-20T14:26:58Z</time>
      </trkpt>
      <trkpt lat="58.14602" lon="-6.50828">
        <ele>29</ele>
        <time>2021-03-20T14:27:02Z</time>
      </trkpt>
      <trkpt lat="58.14567" lon="-6.50878">
        <ele>29</ele>
        <time>2021-03-20T14:27:07Z</time>
      </trkpt>
      <trkpt lat="58.14543" lon="-6.509">
        <ele>28.56</ele>
        <time>2021-03-20T14:27:11Z</time>
      </trkpt>
      <trkpt lat="58.14521" lon="-6.5091">
        <ele>27.77</ele>
        <time>2021-03-20T14:27:15Z</time>
      </trkpt>
      <trkpt lat="58.14495" lon="-6.50911">
        <ele>26.97</ele>
        <time>2021-03-20T14:27:20Z</time>
      </trkpt>
      <trkpt lat="58.14453" lon="-6.50907">
        <ele>27.33</ele>
        <time>2021-03-20T14:27:24Z</time>
      </trkpt>
      <trkpt lat="58.14426" lon="-6.50899">
        <ele>28.01</ele>
        <time>2021-03-20T14:27:29Z</time>
      </trkpt>
      <trkpt lat="58.14275" lon="-6.50817">
        <ele>35.11</ele>
        <time>2021-03-20T14:27:33Z</time>
      </trkpt>
      <trkpt lat="58.14227" lon="-6.50787">
        <ele>38.72</ele>
        <time>2021-03-20T14:27:38Z</time>
      </trkpt>
      <trkpt lat="58.14196" lon="-6.50752">
        <ele>41.83</ele>
        <time>2021-03-20T14:27:42Z</time>
      </trkpt>
      <trkpt lat="58.14176" lon="-6.50739">
        <ele>42.26</ele>
        <time>2021-03-20T14:27:47Z</time>
      </trkpt>
      <trkpt lat="58.14153" lon="-6.50738">
        <ele>42.08</ele>
        <time>2021-03-20T14:27:51Z</time>
      </trkpt>
      <trkpt lat="58.14129" lon="-6.50749">
        <ele>41.97</ele>
        <time>2021-03-20T14:27:56Z</time>
      </trkpt>
      <trkpt lat="58.14106" lon="-6.50779">
        <ele>41.67</ele>
        <time>2021-03-20T14:28:00Z</time>
      </trkpt>
      <trkpt lat="58.14061" lon="-6.50858">
        <ele>42.37</ele>
        <time>2021-03-20T14:28:04Z</time>
      </trkpt>
      <trkpt lat="58.14038" lon="-6.5089">
        <ele>41.54</ele>
        <time>2021-03-20T14:28:09Z</time>
      </trkpt>
      <trkpt lat="58.14016" lon="-6.50908">
        <ele>39.9</ele>
        <time>2021-03-20T14:28:13Z</time>
      </trkpt>
      <trkpt lat="58.13992" lon="-6.50916">
        <ele>38.35</ele>
        <time>2021-03-20T14:28:18Z</time>
      </trkpt>
      <trkpt lat="58.13965" lon="-6.50913">
        <ele>36.18</ele>
        <time>2021-03-20T14:28:22Z</time>
      </trkpt>
      <trkpt lat="58.13946" lon="-6.50898">
        <ele>33.74</ele>
        <time>2021-03-20T14:28:27Z</time>
      </trkpt>
      <trkpt lat="58.13896" lon="-6.50841">
        <ele>37.93</ele>
        <time>2021-03-20T14:28:31Z</time>
      </trkpt>
      <trkpt lat="58.13873" lon="-6.50829">
        <ele>38.42</ele>
        <time>2021-03-20T14:28:36Z</time>
      </trkpt>
      <trkpt lat="58.13853" lon="-6.50829">
        <ele>38.26</ele>
        <time>2021-03-20T14:28:40Z</time>
      </trkpt>
      <trkpt lat="58.13836" lon="-6.50837">
        <ele>37.56</ele>
        <time>2021-03-20T14:28:45Z</time>
      </trkpt>
      <trkpt lat="58.138" lon="-6.50873">
        <ele>40.67</ele>
        <time>2021-03-20T14:28:49Z</time>
      </trkpt>
      <trkpt lat="58.13766" lon="-6.50899">
        <ele>42.37</ele>
        <time>2021-03-20T14:28:53Z</time>
      </trkpt>
      <trkpt lat="58.13741" lon="-6.5091">
        <ele>43.24</ele>
        <time>2021-03-20T14:28:58Z</time>
      </trkpt>
      <trkpt lat="58.13717" lon="-6.5091">
        <ele>41.98</ele>
        <time>2021-03-20T14:29:02Z</time>
      </trkpt>
      <trkpt lat="58.13692" lon="-6.50905">
        <ele>41.19</ele>
        <time>2021-03-20T14:29:07Z</time>
      </trkpt>
      <trkpt lat="58.13556" lon="-6.50869">
        <ele>45.04</ele>
        <time>2021-03-20T14:29:11Z</time>
      </trkpt>
      <trkpt lat="58.13491" lon="-6.50798">
        <ele>43.56</ele>
        <time>2021-03-20T14:29:16Z</time>
      </trkpt>
      <trkpt lat="58.13448" lon="-6.50769">
        <ele>40.74</ele>
        <time>2021-03-20T14:29:20Z</time>
      </trkpt>
      <trkpt lat="58.13378" lon="-6.50704">
        <ele>39.12</ele>
        <time>2021-03-20T14:29:25Z</time>
      </trkpt>
      <trkpt lat="58.13354" lon="-6.5069">
        <ele>39.92</ele>
        <time>2021-03-20T14:29:29Z</time>
      </trkpt>
      <trkpt lat="58.13259" lon="-6.50665">
        <ele>42.94</ele>
        <time>2021-03-20T14:29:34Z</time>
      </trkpt>
      <trkpt lat="58.13228" lon="-6.5064">
        <ele>41.97</ele>
        <time>2021-03-20T14:29:38Z</time>
      </trkpt>
      <trkpt lat="58.13157" lon="-6.50571">
        <ele>40.6</ele>
        <time>2021-03-20T14:29:42Z</time>
      </trkpt>
      <trkpt lat="58.13132" lon="-6.50559">
        <ele>41.37</ele>
        <time>2021-03-20T14:29:47Z</time>
      </trkpt>
      <trkpt lat="58.13106" lon="-6.50562">
        <ele>42.11</ele>
        <time>2021-03-20T14:29:51Z</time>
      </trkpt>
      <trkpt lat="58.13063" lon="-6.5058">
        <ele>42.01</ele>
        <time>2021-03-20T14:29:56Z</time>
      </trkpt>
      <trkpt lat="58.12741" lon="-6.50684">
        <ele>47.28</ele>
        <time>2021-03-20T14:30:00Z</time>
      </trkpt>
      <trkpt lat="58.12554" lon="-6.5074">
        <ele>49.34</ele>
        <time>2021-03-20T14:30:05Z</time>
      </trkpt>
      <trkpt lat="58.12531" lon="-6.50744">
        <ele>49.2</ele>
        <time>2021-03-20T14:30:09Z</time>
      </trkpt>
      <trkpt lat="58.1248" lon="-6.50743">
        <ele>47.54</ele>
        <time>2021-03-20T14:30:14Z</time>
      </trkpt>
      <trkpt lat="58.12455" lon="-6.50751">
        <ele>46.37</ele>
        <time>2021-03-20T14:30:18Z</time>
      </trkpt>
      <trkpt lat="58.12426" lon="-6.50774">
        <ele>46</ele>
        <time>2021-03-20T14:30:23Z</time>
      </trkpt>
      <trkpt lat="58.124" lon="-6.50812">
        <ele>45</ele>
        <time>2021-03-20T14:30:27Z</time>
      </trkpt>
      <trkpt lat="58.12334" lon="-6.50943">
        <ele>45.98</ele>
        <time>2021-03-20T14:30:31Z</time>
      </trkpt>
      <trkpt lat="58.12314" lon="-6.50979">
        <ele>46.54</ele>
        <time>2021-03-20T14:30:36Z</time>
      </trkpt>
      <trkpt lat="58.12292" lon="-6.51003">
        <ele>46.44</ele>
        <time>2021-03-20T14:30:40Z</time>
      </trkpt>
      <trkpt lat="58.12266" lon="-6.51019">
        <ele>46.31</ele>
        <time>2021-03-20T14:30:45Z</time>
      </trkpt>
      <trkpt lat="58.12234" lon="-6.5103">
        <ele>45.43</ele>
        <time>2021-03-20T14:30:49Z</time>
      </trkpt>
      <trkpt lat="58.12173" lon="-6.51039">
        <ele>44.21</ele>
        <time>2021-03-20T14:30:54Z</time>
      </trkpt>
      <trkpt lat="58.12101" lon="-6.51016">
        <ele>39.04</ele>
        <time>2021-03-20T14:30:58Z</time>
      </trkpt>
      <trkpt lat="58.12078" lon="-6.51018">
        <ele>38.17</ele>
        <time>2021-03-20T14:31:03Z</time>
      </trkpt>
      <trkpt lat="58.12055" lon="-6.51027">
        <ele>37.04</ele>
        <time>2021-03-20T14:31:07Z</time>
      </trkpt>
      <trkpt lat="58.12032" lon="-6.51048">
        <ele>36.15</ele>
        <time>2021-03-20T14:31:12Z</time>
      </trkpt>
      <trkpt lat="58.12011" lon="-6.51078">
        <ele>35.08</ele>
        <time>2021-03-20T14:31:16Z</time>
      </trkpt>
      <trkpt lat="58.11952" lon="-6.51183">
        <ele>35.58</ele>
        <time>2021-03-20T14:31:20Z</time>
      </trkpt>
      <trkpt lat="58.11933" lon="-6.51209">
        <ele>36</ele>
        <time>2021-03-20T14:31:25Z</time>
      </trkpt>
      <trkpt lat="58.11915" lon="-6.51225">
        <ele>35.93</ele>
        <time>2021-03-20T14:31:29Z</time>
      </trkpt>
      <trkpt lat="58.11894" lon="-6.51233">
        <ele>35.49</ele>
        <time>2021-03-20T14:31:34Z</time>
      </trkpt>
      <trkpt lat="58.11872" lon="-6.51227">
        <ele>36.41</ele>
        <time>2021-03-20T14:31:38Z</time>
      </trkpt>
      <trkpt lat="58.11848" lon="-6.51211">
        <ele>37.51</ele>
        <time>2021-03-20T14:31:43Z</time>
      </trkpt>
      <trkpt lat="58.11744" lon="-6.511">
        <ele>41.57</ele>
        <time>2021-03-20T14:31:47Z</time>
      </trkpt>
      <trkpt lat="58.11716" lon="-6.51078">
        <ele>42.05</ele>
        <time>2021-03-20T14:31:52Z</time>
      </trkpt>
      <trkpt lat="58.11691" lon="-6.51075">
        <ele>43.04</ele>
        <time>2021-03-20T14:31:56Z</time>
      </trkpt>
      <trkpt lat="58.1167" lon="-6.51084">
        <ele>43.16</ele>
        <time>2021-03-20T14:32:01Z</time>
      </trkpt>
      <trkpt lat="58.11649" lon="-6.51107">
        <ele>43.42</ele>
        <time>2021-03-20T14:32:05Z</time>
      </trkpt>
      <trkpt lat="58.11576" lon="-6.51204">
        <ele>42.8</ele>
        <time>2021-03-20T14:32:09Z</time>
      </trkpt>
      <trkpt lat="58.11544" lon="-6.51232">
        <ele>42.58</ele>
        <time>2021-03-20T14:32:14Z</time>
      </trkpt>
      <trkpt lat="58.11496" lon="-6.51267">
        <ele>41.35</ele>
        <time>2021-03-20T14:32:18Z</time>
      </trkpt>
      <trkpt lat="58.11463" lon="-6.51278">
        <ele>40.01</ele>
        <time>2021-03-20T14:32:23Z</time>
      </trkpt>
      <trkpt lat="58.11432" lon="-6.51275">
        <ele>40.41</ele>
        <time>2021-03-20T14:32:27Z</time>
      </trkpt>
      <trkpt lat="58.11384" lon="-6.51237">
        <ele>40.21</ele>
        <time>2021-03-20T14:32:32Z</time>
      </trkpt>
      <trkpt lat="58.11276" lon="-6.51087">
        <ele>37.12</ele>
        <time>2021-03-20T14:32:36Z</time>
      </trkpt>
      <trkpt lat="58.11209" lon="-6.51019">
        <ele>37.65</ele>
        <time>2021-03-20T14:32:41Z</time>
      </trkpt>
      <trkpt lat="58.1117" lon="-6.50984">
        <ele>38.31</ele>
        <time>2021-03-20T14:32:45Z</time>
      </trkpt>
      <trkpt lat="58.11131" lon="-6.50962">
        <ele>38.64</ele>
        <time>2021-03-20T14:32:50Z</time>
      </trkpt>
      <trkpt lat="58.11088" lon="-6.50962">
        <ele>37.55</ele>
        <time>2021-03-20T14:32:54Z</time>
      </trkpt>
      <trkpt lat="58.10986" lon="-6.51015">
        <ele>32.49</ele>
        <time>2021-03-20T14:32:58Z</time>
      </trkpt>
      <trkpt lat="58.10903" lon="-6.51107">
        <ele>32.42</ele>
        <time>2021-03-20T14:33:03Z</time>
      </trkpt>
      <trkpt lat="58.10826" lon="-6.51196">
        <ele>30</ele>
        <time>2021-03-20T14:33:07Z</time>
      </trkpt>
      <trkpt lat="58.10765" lon="-6.51296">
        <ele>28.36</ele>
        <time>2021-03-20T14:33:12Z</time>
      </trkpt>
      <trkpt lat="58.10719" lon="-6.51435">
        <ele>24.87</ele>
        <time>2021-03-20T14:33:16Z</time>
      </trkpt>
      <trkpt lat="58.1071" lon="-6.51466">
        <ele>25.32</ele>
        <time>2021-03-20T14:33:21Z</time>
      </trkpt>
      <trkpt lat="58.10606" lon="-6.51873">
        <ele>32.53</ele>
        <time>2021-03-20T14:33:25Z</time>
      </trkpt>
      <trkpt lat="58.10584" lon="-6.51969">
        <ele>34.01</ele>
        <time>2021-03-20T14:33:30Z</time>
      </trkpt>
      <trkpt lat="58.10573" lon="-6.52054">
        <ele>34.46</ele>
        <time>2021-03-20T14:33:34Z</time>
      </trkpt>
      <trkpt lat="58.10546" lon="-6.52546">
        <ele>40.32</ele>
        <time>2021-03-20T14:33:39Z</time>
      </trkpt>
      <trkpt lat="58.10546" lon="-6.52606">
        <ele>41.94</ele>
        <time>2021-03-20T14:33:43Z</time>
      </trkpt>
      <trkpt lat="58.10552" lon="-6.52684">
        <ele>42</ele>
        <time>2021-03-20T14:33:47Z</time>
      </trkpt>
      <trkpt lat="58.10559" lon="-6.52741">
        <ele>41.87</ele>
        <time>2021-03-20T14:33:52Z</time>
      </trkpt>
      <trkpt lat="58.10573" lon="-6.52811">
        <ele>42.36</ele>
        <time>2021-03-20T14:33:56Z</time>
      </trkpt>
      <trkpt lat="58.10596" lon="-6.52894">
        <ele>43.14</ele>
        <time>2021-03-20T14:34:01Z</time>
      </trkpt>
      <trkpt lat="58.1063" lon="-6.52985">
        <ele>42.33</ele>
        <time>2021-03-20T14:34:05Z</time>
      </trkpt>
      <trkpt lat="58.10647" lon="-6.53043">
        <ele>41.69</ele>
        <time>2021-03-20T14:34:10Z</time>
      </trkpt>
      <trkpt lat="58.10655" lon="-6.53084">
        <ele>41.41</ele>
        <time>2021-03-20T14:34:14Z</time>
      </trkpt>
      <trkpt lat="58.10661" lon="-6.53134">
        <ele>40.37</ele>
        <time>2021-03-20T14:34:19Z</time>
      </trkpt>
      <trkpt lat="58.10662" lon="-6.53181">
        <ele>39.4</ele>
        <time>2021-03-20T14:34:23Z</time>
      </trkpt>
      <trkpt lat="58.10661" lon="-6.53225">
        <ele>37.69</ele>
        <time>2021-03-20T14:34:28Z</time>
      </trkpt>
      <trkpt lat="58.10656" lon="-6.53271">
        <ele>36.63</ele>
        <time>2021-03-20T14:34:32Z</time>
      </trkpt>
      <trkpt lat="58.10642" lon="-6.53338">
        <ele>36.12</ele>
        <time>2021-03-20T14:34:36Z</time>
      </trkpt>
      <trkpt lat="58.106" lon="-6.53478">
        <ele>33.21</ele>
        <time>2021-03-20T14:34:41Z</time>
      </trkpt>
      <trkpt lat="58.10576" lon="-6.53566">
        <ele>29.96</ele>
        <time>2021-03-20T14:34:45Z</time>
      </trkpt>
      <trkpt lat="58.10567" lon="-6.53625">
        <ele>28.61</ele>
        <time>2021-03-20T14:34:50Z</time>
      </trkpt>
      <trkpt lat="58.10564" lon="-6.53672">
        <ele>27.76</ele>
        <time>2021-03-20T14:34:54Z</time>
      </trkpt>
      <trkpt lat="58.10564" lon="-6.53728">
        <ele>26.36</ele>
        <time>2021-03-20T14:34:59Z</time>
      </trkpt>
      <trkpt lat="58.10566" lon="-6.53785">
        <ele>25.57</ele>
        <time>2021-03-20T14:35:03Z</time>
      </trkpt>
      <trkpt lat="58.10591" lon="-6.54062">
        <ele>25.64</ele>
        <time>2021-03-20T14:35:08Z</time>
      </trkpt>
      <trkpt lat="58.10594" lon="-6.54121">
        <ele>26.37</ele>
        <time>2021-03-20T14:35:12Z</time>
      </trkpt>
      <trkpt lat="58.10594" lon="-6.54185">
        <ele>25.58</ele>
        <time>2021-03-20T14:35:17Z</time>
      </trkpt>
      <trkpt lat="58.10586" lon="-6.54314">
        <ele>21.26</ele>
        <time>2021-03-20T14:35:21Z</time>
      </trkpt>
      <trkpt lat="58.10558" lon="-6.54716">
        <ele>13.19</ele>
        <time>2021-03-20T14:35:25Z</time>
      </trkpt>
      <trkpt lat="58.10554" lon="-6.54794">
        <ele>13.47</ele>
        <time>2021-03-20T14:35:30Z</time>
      </trkpt>
      <trkpt lat="58.10544" lon="-6.54894">
        <ele>14.38</ele>
        <time>2021-03-20T14:35:34Z</time>
      </trkpt>
      <trkpt lat="58.10525" lon="-6.55039">
        <ele>15.72</ele>
        <time>2021-03-20T14:35:39Z</time>
      </trkpt>
      <trkpt lat="58.10509" lon="-6.55131">
        <ele>15.73</ele>
        <time>2021-03-20T14:35:43Z</time>
      </trkpt>
      <trkpt lat="58.105" lon="-6.55169">
        <ele>16.22</ele>
        <time>2021-03-20T14:35:48Z</time>
      </trkpt>
      <trkpt lat="58.10489" lon="-6.55209">
        <ele>16.85</ele>
        <time>2021-03-20T14:35:52Z</time>
      </trkpt>
      <trkpt lat="58.10455" lon="-6.55299">
        <ele>17.52</ele>
        <time>2021-03-20T14:35:57Z</time>
      </trkpt>
      <trkpt lat="58.10431" lon="-6.5538">
        <ele>17.06</ele>
        <time>2021-03-20T14:36:01Z</time>
      </trkpt>
      <trkpt lat="58.10421" lon="-6.55428">
        <ele>17.36</ele>
        <time>2021-03-20T14:36:06Z</time>
      </trkpt>
      <trkpt lat="58.10362" lon="-6.55759">
        <ele>10.08</ele>
        <time>2021-03-20T14:36:10Z</time>
      </trkpt>
      <trkpt lat="58.10352" lon="-6.55797">
        <ele>9.54</ele>
        <time>2021-03-20T14:36:14Z</time>
      </trkpt>
      <trkpt lat="58.1033" lon="-6.55848">
        <ele>10</ele>
        <time>2021-03-20T14:36:19Z</time>
      </trkpt>
      <trkpt lat="58.10302" lon="-6.5589">
        <ele>10</ele>
        <time>2021-03-20T14:36:23Z</time>
      </trkpt>
      <trkpt lat="58.10193" lon="-6.56014">
        <ele>18.49</ele>
        <time>2021-03-20T14:36:28Z</time>
      </trkpt>
      <trkpt lat="58.10145" lon="-6.56083">
        <ele>20.19</ele>
        <time>2021-03-20T14:36:32Z</time>
      </trkpt>
      <trkpt lat="58.10105" lon="-6.56155">
        <ele>22</ele>
        <time>2021-03-20T14:36:37Z</time>
      </trkpt>
      <trkpt lat="58.09968" lon="-6.56438">
        <ele>16.73</ele>
        <time>2021-03-20T14:36:41Z</time>
      </trkpt>
      <trkpt lat="58.09918" lon="-6.56533">
        <ele>15.3</ele>
        <time>2021-03-20T14:36:46Z</time>
      </trkpt>
      <trkpt lat="58.09884" lon="-6.56635">
        <ele>15.45</ele>
        <time>2021-03-20T14:36:50Z</time>
      </trkpt>
      <trkpt lat="58.09872" lon="-6.56695">
        <ele>17.14</ele>
        <time>2021-03-20T14:36:55Z</time>
      </trkpt>
      <trkpt lat="58.09865" lon="-6.56813">
        <ele>19.91</ele>
        <time>2021-03-20T14:36:59Z</time>
      </trkpt>
      <trkpt lat="58.09862" lon="-6.56989">
        <ele>19.5</ele>
        <time>2021-03-20T14:37:03Z</time>
      </trkpt>
      <trkpt lat="58.09856" lon="-6.57077">
        <ele>19.76</ele>
        <time>2021-03-20T14:37:08Z</time>
      </trkpt>
      <trkpt lat="58.09831" lon="-6.57276">
        <ele>27.24</ele>
        <time>2021-03-20T14:37:12Z</time>
      </trkpt>
      <trkpt lat="58.09811" lon="-6.57414">
        <ele>27.52</ele>
        <time>2021-03-20T14:37:17Z</time>
      </trkpt>
      <trkpt lat="58.09798" lon="-6.57475">
        <ele>27.43</ele>
        <time>2021-03-20T14:37:21Z</time>
      </trkpt>
      <trkpt lat="58.09754" lon="-6.57593">
        <ele>22.67</ele>
        <time>2021-03-20T14:37:26Z</time>
      </trkpt>
      <trkpt lat="58.09745" lon="-6.57646">
        <ele>22.5</ele>
        <time>2021-03-20T14:37:30Z</time>
      </trkpt>
      <trkpt lat="58.09745" lon="-6.5768">
        <ele>23.11</ele>
        <time>2021-03-20T14:37:35Z</time>
      </trkpt>
      <trkpt lat="58.09748" lon="-6.57712">
        <ele>23.98</ele>
        <time>2021-03-20T14:37:39Z</time>
      </trkpt>
      <trkpt lat="58.09756" lon="-6.57774">
        <ele>25</ele>
        <time>2021-03-20T14:37:43Z</time>
      </trkpt>
      <trkpt lat="58.09758" lon="-6.57808">
        <ele>26.26</ele>
        <time>2021-03-20T14:37:48Z</time>
      </trkpt>
      <trkpt lat="58.09755" lon="-6.57849">
        <ele>27.53</ele>
        <time>2021-03-20T14:37:52Z</time>
      </trkpt>
      <trkpt lat="58.09745" lon="-6.5791">
        <ele>28.18</ele>
        <time>2021-03-20T14:37:57Z</time>
      </trkpt>
      <trkpt lat="58.09725" lon="-6.57964">
        <ele>29.69</ele>
        <time>2021-03-20T14:38:01Z</time>
      </trkpt>
      <trkpt lat="58.0966" lon="-6.58079">
        <ele>34.71</ele>
        <time>2021-03-20T14:38:06Z</time>
      </trkpt>
      <trkpt lat="58.09637" lon="-6.58129">
        <ele>35.93</ele>
        <time>2021-03-20T14:38:10Z</time>
      </trkpt>
      <trkpt lat="58.09571" lon="-6.58282">
        <ele>34.61</ele>
        <time>2021-03-20T14:38:15Z</time>
      </trkpt>
      <trkpt lat="58.09483" lon="-6.58523">
        <ele>45.56</ele>
        <time>2021-03-20T14:38:19Z</time>
      </trkpt>
      <trkpt lat="58.09452" lon="-6.5862">
        <ele>45.85</ele>
        <time>2021-03-20T14:38:24Z</time>
      </trkpt>
      <trkpt lat="58.09429" lon="-6.58703">
        <ele>42.29</ele>
        <time>2021-03-20T14:38:28Z</time>
      </trkpt>
      <trkpt lat="58.09417" lon="-6.58779">
        <ele>40.01</ele>
        <time>2021-03-20T14:38:32Z</time>
      </trkpt>
      <trkpt lat="58.09412" lon="-6.58842">
        <ele>39.13</ele>
        <time>2021-03-20T14:38:37Z</time>
      </trkpt>
      <trkpt lat="58.0939" lon="-6.59016">
        <ele>46.2</ele>
        <time>2021-03-20T14:38:41Z</time>
      </trkpt>
      <trkpt lat="58.09374" lon="-6.591">
        <ele>48.77</ele>
        <time>2021-03-20T14:38:46Z</time>
      </trkpt>
      <trkpt lat="58.0936" lon="-6.59153">
        <ele>49.4</ele>
        <time>2021-03-20T14:38:50Z</time>
      </trkpt>
      <trkpt lat="58.09343" lon="-6.59268">
        <ele>52.67</ele>
        <time>2021-03-20T14:38:55Z</time>
      </trkpt>
      <trkpt lat="58.09328" lon="-6.59316">
        <ele>53.67</ele>
        <time>2021-03-20T14:38:59Z</time>
      </trkpt>
      <trkpt lat="58.0925" lon="-6.59518">
        <ele>59.32</ele>
        <time>2021-03-20T14:39:04Z</time>
      </trkpt>
      <trkpt lat="58.0924" lon="-6.59551">
        <ele>58.76</ele>
        <time>2021-03-20T14:39:08Z</time>
      </trkpt>
      <trkpt lat="58.09233" lon="-6.59603">
        <ele>59.96</ele>
        <time>2021-03-20T14:39:13Z</time>
      </trkpt>
      <trkpt lat="58.09224" lon="-6.59685">
        <ele>62.63</ele>
        <time>2021-03-20T14:39:17Z</time>
      </trkpt>
      <trkpt lat="58.09192" lon="-6.59851">
        <ele>64.4</ele>
        <time>2021-03-20T14:39:21Z</time>
      </trkpt>
      <trkpt lat="58.09184" lon="-6.59908">
        <ele>65.18</ele>
        <time>2021-03-20T14:39:26Z</time>
      </trkpt>
      <trkpt lat="58.0917" lon="-6.60144">
        <ele>63.75</ele>
        <time>2021-03-20T14:39:30Z</time>
      </trkpt>
      <trkpt lat="58.09159" lon="-6.60226">
        <ele>63.53</ele>
        <time>2021-03-20T14:39:35Z</time>
      </trkpt>
      <trkpt lat="58.09156" lon="-6.60265">
        <ele>62.12</ele>
        <time>2021-03-20T14:39:39Z</time>
      </trkpt>
      <trkpt lat="58.09144" lon="-6.60595">
        <ele>51.62</ele>
        <time>2021-03-20T14:39:44Z</time>
      </trkpt>
      <trkpt lat="58.0914" lon="-6.60774">
        <ele>45.23</ele>
        <time>2021-03-20T14:39:48Z</time>
      </trkpt>
      <trkpt lat="58.0914" lon="-6.60887">
        <ele>41.04</ele>
        <time>2021-03-20T14:39:53Z</time>
      </trkpt>
      <trkpt lat="58.09137" lon="-6.60941">
        <ele>39.81</ele>
        <time>2021-03-20T14:39:57Z</time>
      </trkpt>
      <trkpt lat="58.09125" lon="-6.6102">
        <ele>39.69</ele>
        <time>2021-03-20T14:40:02Z</time>
      </trkpt>
      <trkpt lat="58.09061" lon="-6.61284">
        <ele>39.65</ele>
        <time>2021-03-20T14:40:06Z</time>
      </trkpt>
      <trkpt lat="58.09025" lon="-6.61451">
        <ele>38.74</ele>
        <time>2021-03-20T14:40:10Z</time>
      </trkpt>
      <trkpt lat="58.0898" lon="-6.61681">
        <ele>37.45</ele>
        <time>2021-03-20T14:40:15Z</time>
      </trkpt>
      <trkpt lat="58.08966" lon="-6.61758">
        <ele>38.34</ele>
        <time>2021-03-20T14:40:19Z</time>
      </trkpt>
      <trkpt lat="58.08961" lon="-6.6181">
        <ele>37.93</ele>
        <time>2021-03-20T14:40:24Z</time>
      </trkpt>
      <trkpt lat="58.08958" lon="-6.61859">
        <ele>37.45</ele>
        <time>2021-03-20T14:40:28Z</time>
      </trkpt>
      <trkpt lat="58.08958" lon="-6.61908">
        <ele>37.12</ele>
        <time>2021-03-20T14:40:33Z</time>
      </trkpt>
      <trkpt lat="58.08965" lon="-6.62119">
        <ele>37.46</ele>
        <time>2021-03-20T14:40:37Z</time>
      </trkpt>
      <trkpt lat="58.08962" lon="-6.62164">
        <ele>38.2</ele>
        <time>2021-03-20T14:40:42Z</time>
      </trkpt>
      <trkpt lat="58.08919" lon="-6.62511">
        <ele>41.78</ele>
        <time>2021-03-20T14:40:46Z</time>
      </trkpt>
      <trkpt lat="58.08905" lon="-6.62603">
        <ele>39.75</ele>
        <time>2021-03-20T14:40:51Z</time>
      </trkpt>
      <trkpt lat="58.08895" lon="-6.62645">
        <ele>38.66</ele>
        <time>2021-03-20T14:40:55Z</time>
      </trkpt>
      <trkpt lat="58.08881" lon="-6.62685">
        <ele>37.55</ele>
        <time>2021-03-20T14:40:59Z</time>
      </trkpt>
      <trkpt lat="58.08858" lon="-6.62739">
        <ele>36.01</ele>
        <time>2021-03-20T14:41:04Z</time>
      </trkpt>
      <trkpt lat="58.0882" lon="-6.62818">
        <ele>32.95</ele>
        <time>2021-03-20T14:41:08Z</time>
      </trkpt>
      <trkpt lat="58.08796" lon="-6.62877">
        <ele>31.68</ele>
        <time>2021-03-20T14:41:13Z</time>
      </trkpt>
      <trkpt lat="58.08781" lon="-6.62936">
        <ele>29.47</ele>
        <time>2021-03-20T14:41:17Z</time>
      </trkpt>
      <trkpt lat="58.08775" lon="-6.62972">
        <ele>27.54</ele>
        <time>2021-03-20T14:41:22Z</time>
      </trkpt>
      <trkpt lat="58.08752" lon="-6.6318">
        <ele>24.68</ele>
        <time>2021-03-20T14:41:26Z</time>
      </trkpt>
      <trkpt lat="58.08712" lon="-6.63382">
        <ele>18.9</ele>
        <time>2021-03-20T14:41:31Z</time>
      </trkpt>
      <trkpt lat="58.08656" lon="-6.63652">
        <ele>15</ele>
        <time>2021-03-20T14:41:35Z</time>
      </trkpt>
      <trkpt lat="58.08634" lon="-6.63735">
        <ele>16.18</ele>
        <time>2021-03-20T14:41:40Z</time>
      </trkpt>
      <trkpt lat="58.08609" lon="-6.63811">
        <ele>16.09</ele>
        <time>2021-03-20T14:41:44Z</time>
      </trkpt>
      <trkpt lat="58.08563" lon="-6.63929">
        <ele>17</ele>
        <time>2021-03-20T14:41:48Z</time>
      </trkpt>
      <trkpt lat="58.08509" lon="-6.64043">
        <ele>17</ele>
        <time>2021-03-20T14:41:53Z</time>
      </trkpt>
      <trkpt lat="58.08426" lon="-6.6419">
        <ele>14.5</ele>
        <time>2021-03-20T14:41:57Z</time>
      </trkpt>
      <trkpt lat="58.08315" lon="-6.6438">
        <ele>11</ele>
        <time>2021-03-20T14:42:02Z</time>
      </trkpt>
      <trkpt lat="58.08196" lon="-6.64551">
        <ele>12</ele>
        <time>2021-03-20T14:42:06Z</time>
      </trkpt>
      <trkpt lat="58.08105" lon="-6.64656">
        <ele>13.22</ele>
        <time>2021-03-20T14:42:11Z</time>
      </trkpt>
      <trkpt lat="58.08026" lon="-6.64742">
        <ele>17.72</ele>
        <time>2021-03-20T14:42:15Z</time>
      </trkpt>
      <trkpt lat="58.07971" lon="-6.64798">
        <ele>20.39</ele>
        <time>2021-03-20T14:42:20Z</time>
      </trkpt>
      <trkpt lat="58.07864" lon="-6.649">
        <ele>21.48</ele>
        <time>2021-03-20T14:42:24Z</time>
      </trkpt>
      <trkpt lat="58.07733" lon="-6.65013">
        <ele>23.34</ele>
        <time>2021-03-20T14:42:29Z</time>
      </trkpt>
      <trkpt lat="58.07422" lon="-6.65236">
        <ele>24.21</ele>
        <time>2021-03-20T14:42:33Z</time>
      </trkpt>
      <trkpt lat="58.07322" lon="-6.65305">
        <ele>19.43</ele>
        <time>2021-03-20T14:42:37Z</time>
      </trkpt>
      <trkpt lat="58.07228" lon="-6.65382">
        <ele>19</ele>
        <time>2021-03-20T14:42:42Z</time>
      </trkpt>
      <trkpt lat="58.0715" lon="-6.65498">
        <ele>18.64</ele>
        <time>2021-03-20T14:42:46Z</time>
      </trkpt>
      <trkpt lat="58.06932" lon="-6.65774">
        <ele>24.06</ele>
        <time>2021-03-20T14:42:51Z</time>
      </trkpt>
      <trkpt lat="58.06839" lon="-6.65887">
        <ele>23.62</ele>
        <time>2021-03-20T14:42:55Z</time>
      </trkpt>
      <trkpt lat="58.06732" lon="-6.65991">
        <ele>25.65</ele>
        <time>2021-03-20T14:43:00Z</time>
      </trkpt>
      <trkpt lat="58.06669" lon="-6.66095">
        <ele>26.41</ele>
        <time>2021-03-20T14:43:04Z</time>
      </trkpt>
      <trkpt lat="58.06655" lon="-6.66114">
        <ele>26.68</ele>
        <time>2021-03-20T14:43:09Z</time>
      </trkpt>
      <trkpt lat="58.06637" lon="-6.66131">
        <ele>26.7</ele>
        <time>2021-03-20T14:43:13Z</time>
      </trkpt>
      <trkpt lat="58.06584" lon="-6.66163">
        <ele>27.11</ele>
        <time>2021-03-20T14:43:18Z</time>
      </trkpt>
      <trkpt lat="58.06453" lon="-6.66224">
        <ele>32.46</ele>
        <time>2021-03-20T14:43:22Z</time>
      </trkpt>
      <trkpt lat="58.06326" lon="-6.66295">
        <ele>34.63</ele>
        <time>2021-03-20T14:43:26Z</time>
      </trkpt>
      <trkpt lat="58.06306" lon="-6.66315">
        <ele>35</ele>
        <time>2021-03-20T14:43:31Z</time>
      </trkpt>
      <trkpt lat="58.06267" lon="-6.66341">
        <ele>34.88</ele>
        <time>2021-03-20T14:43:35Z</time>
      </trkpt>
      <trkpt lat="58.0622" lon="-6.66409">
        <ele>34.47</ele>
        <time>2021-03-20T14:43:40Z</time>
      </trkpt>
      <trkpt lat="58.06193" lon="-6.66471">
        <ele>32.7</ele>
        <time>2021-03-20T14:43:44Z</time>
      </trkpt>
      <trkpt lat="58.0616" lon="-6.66597">
        <ele>30.29</ele>
        <time>2021-03-20T14:43:49Z</time>
      </trkpt>
      <trkpt lat="58.06063" lon="-6.67076">
        <ele>26.53</ele>
        <time>2021-03-20T14:43:53Z</time>
      </trkpt>
      <trkpt lat="58.06045" lon="-6.67172">
        <ele>26.23</ele>
        <time>2021-03-20T14:43:58Z</time>
      </trkpt>
      <trkpt lat="58.0603" lon="-6.67265">
        <ele>24.12</ele>
        <time>2021-03-20T14:44:02Z</time>
      </trkpt>
      <trkpt lat="58.05977" lon="-6.67693">
        <ele>24.28</ele>
        <time>2021-03-20T14:44:07Z</time>
      </trkpt>
      <trkpt lat="58.0594" lon="-6.68098">
        <ele>25.5</ele>
        <time>2021-03-20T14:44:11Z</time>
      </trkpt>
      <trkpt lat="58.05931" lon="-6.68209">
        <ele>23.55</ele>
        <time>2021-03-20T14:44:15Z</time>
      </trkpt>
      <trkpt lat="58.05911" lon="-6.68395">
        <ele>22.05</ele>
        <time>2021-03-20T14:44:20Z</time>
      </trkpt>
      <trkpt lat="58.05898" lon="-6.68474">
        <ele>21.3</ele>
        <time>2021-03-20T14:44:24Z</time>
      </trkpt>
      <trkpt lat="58.05872" lon="-6.68615">
        <ele>19.38</ele>
        <time>2021-03-20T14:44:29Z</time>
      </trkpt>
      <trkpt lat="58.05867" lon="-6.68682">
        <ele>17.3</ele>
        <time>2021-03-20T14:44:33Z</time>
      </trkpt>
      <trkpt lat="58.05865" lon="-6.68871">
        <ele>14.39</ele>
        <time>2021-03-20T14:44:38Z</time>
      </trkpt>
      <trkpt lat="58.0586" lon="-6.68935">
        <ele>12.84</ele>
        <time>2021-03-20T14:44:42Z</time>
      </trkpt>
      <trkpt lat="58.0586" lon="-6.69004">
        <ele>12.7</ele>
        <time>2021-03-20T14:44:47Z</time>
      </trkpt>
      <trkpt lat="58.0587" lon="-6.69099">
        <ele>11.45</ele>
        <time>2021-03-20T14:44:51Z</time>
      </trkpt>
      <trkpt lat="58.05896" lon="-6.69209">
        <ele>11.07</ele>
        <time>2021-03-20T14:44:56Z</time>
      </trkpt>
      <trkpt lat="58.05912" lon="-6.69316">
        <ele>10.51</ele>
        <time>2021-03-20T14:45:00Z</time>
      </trkpt>
      <trkpt lat="58.05913" lon="-6.6942">
        <ele>9.76</ele>
        <time>2021-03-20T14:45:04Z</time>
      </trkpt>
      <trkpt lat="58.05903" lon="-6.6952">
        <ele>8.62</ele>
        <time>2021-03-20T14:45:09Z</time>
      </trkpt>
      <trkpt lat="58.05893" lon="-6.69567">
        <ele>7.35</ele>
        <time>2021-03-20T14:45:13Z</time>
      </trkpt>
      <trkpt lat="58.05879" lon="-6.69619">
        <ele>6.45</ele>
        <time>2021-03-20T14:45:18Z</time>
      </trkpt>
      <trkpt lat="58.05859" lon="-6.69671">
        <ele>5.93</ele>
        <time>2021-03-20T14:45:22Z</time>
      </trkpt>
      <trkpt lat="58.05842" lon="-6.69706">
        <ele>5.3</ele>
        <time>2021-03-20T14:45:27Z</time>
      </trkpt>
      <trkpt lat="58.05809" lon="-6.69762">
        <ele>5</ele>
        <time>2021-03-20T14:45:31Z</time>
      </trkpt>
      <trkpt lat="58.05744" lon="-6.69832">
        <ele>6</ele>
        <time>2021-03-20T14:45:36Z</time>
      </trkpt>
      <trkpt lat="58.05396" lon="-6.70239">
        <ele>8</ele>
        <time>2021-03-20T14:45:40Z</time>
      </trkpt>
      <trkpt lat="58.05278" lon="-6.70384">
        <ele>7</ele>
        <time>2021-03-20T14:45:45Z</time>
      </trkpt>
      <trkpt lat="58.04768" lon="-6.70974">
        <ele>20.35</ele>
        <time>2021-03-20T14:45:49Z</time>
      </trkpt>
      <trkpt lat="58.04434" lon="-6.71364">
        <ele>28.37</ele>
        <time>2021-03-20T14:45:53Z</time>
      </trkpt>
      <trkpt lat="58.04222" lon="-6.71621">
        <ele>30.31</ele>
        <time>2021-03-20T14:45:58Z</time>
      </trkpt>
      <trkpt lat="58.04171" lon="-6.71654">
        <ele>30.72</ele>
        <time>2021-03-20T14:46:02Z</time>
      </trkpt>
      <trkpt lat="58.04093" lon="-6.71665">
        <ele>31.16</ele>
        <time>2021-03-20T14:46:07Z</time>
      </trkpt>
      <trkpt lat="58.04025" lon="-6.71665">
        <ele>29.06</ele>
        <time>2021-03-20T14:46:11Z</time>
      </trkpt>
      <trkpt lat="58.03959" lon="-6.71669">
        <ele>25.46</ele>
        <time>2021-03-20T14:46:16Z</time>
      </trkpt>
      <trkpt lat="58.03904" lon="-6.717">
        <ele>23.35</ele>
        <time>2021-03-20T14:46:20Z</time>
      </trkpt>
      <trkpt lat="58.03873" lon="-6.71747">
        <ele>21.1</ele>
        <time>2021-03-20T14:46:25Z</time>
      </trkpt>
      <trkpt lat="58.03785" lon="-6.71908">
        <ele>20.08</ele>
        <time>2021-03-20T14:46:29Z</time>
      </trkpt>
      <trkpt lat="58.0377" lon="-6.71926">
        <ele>20</ele>
        <time>2021-03-20T14:46:34Z</time>
      </trkpt>
      <trkpt lat="58.03756" lon="-6.71939">
        <ele>20</ele>
        <time>2021-03-20T14:46:38Z</time>
      </trkpt>
      <trkpt lat="58.03741" lon="-6.71949">
        <ele>20.31</ele>
        <time>2021-03-20T14:46:42Z</time>
      </trkpt>
      <trkpt lat="58.03691" lon="-6.71964">
        <ele>22.14</ele>
        <time>2021-03-20T14:46:47Z</time>
      </trkpt>
      <trkpt lat="58.03675" lon="-6.71971">
        <ele>22.69</ele>
        <time>2021-03-20T14:46:51Z</time>
      </trkpt>
      <trkpt lat="58.03653" lon="-6.71988">
        <ele>24.01</ele>
        <time>2021-03-20T14:46:56Z</time>
      </trkpt>
      <trkpt lat="58.03596" lon="-6.72059">
        <ele>29.51</ele>
        <time>2021-03-20T14:47:00Z</time>
      </trkpt>
      <trkpt lat="58.03504" lon="-6.72183">
        <ele>35.91</ele>
        <time>2021-03-20T14:47:05Z</time>
      </trkpt>
      <trkpt lat="58.0347" lon="-6.7224">
        <ele>38.75</ele>
        <time>2021-03-20T14:47:09Z</time>
      </trkpt>
      <trkpt lat="58.03432" lon="-6.72292">
        <ele>41.78</ele>
        <time>2021-03-20T14:47:14Z</time>
      </trkpt>
      <trkpt lat="58.03383" lon="-6.72344">
        <ele>45.74</ele>
        <time>2021-03-20T14:47:18Z</time>
      </trkpt>
      <trkpt lat="58.03335" lon="-6.72382">
        <ele>46.45</ele>
        <time>2021-03-20T14:47:23Z</time>
      </trkpt>
      <trkpt lat="58.03309" lon="-6.72398">
        <ele>47.49</ele>
        <time>2021-03-20T14:47:27Z</time>
      </trkpt>
      <trkpt lat="58.0326" lon="-6.72416">
        <ele>47.7</ele>
        <time>2021-03-20T14:47:31Z</time>
      </trkpt>
      <trkpt lat="58.03233" lon="-6.72421">
        <ele>48.38</ele>
        <time>2021-03-20T14:47:36Z</time>
      </trkpt>
      <trkpt lat="58.03185" lon="-6.7242">
        <ele>48.81</ele>
        <time>2021-03-20T14:47:40Z</time>
      </trkpt>
      <trkpt lat="58.03099" lon="-6.72398">
        <ele>46.37</ele>
        <time>2021-03-20T14:47:45Z</time>
      </trkpt>
      <trkpt lat="58.02999" lon="-6.72385">
        <ele>45</ele>
        <time>2021-03-20T14:47:49Z</time>
      </trkpt>
      <trkpt lat="58.02948" lon="-6.72391">
        <ele>45.88</ele>
        <time>2021-03-20T14:47:54Z</time>
      </trkpt>
      <trkpt lat="58.02909" lon="-6.72403">
        <ele>45.86</ele>
        <time>2021-03-20T14:47:58Z</time>
      </trkpt>
      <trkpt lat="58.02821" lon="-6.72442">
        <ele>46.43</ele>
        <time>2021-03-20T14:48:03Z</time>
      </trkpt>
      <trkpt lat="58.02791" lon="-6.72459">
        <ele>48.06</ele>
        <time>2021-03-20T14:48:07Z</time>
      </trkpt>
      <trkpt lat="58.02747" lon="-6.72488">
        <ele>49</ele>
        <time>2021-03-20T14:48:12Z</time>
      </trkpt>
      <trkpt lat="58.02721" lon="-6.72509">
        <ele>49</ele>
        <time>2021-03-20T14:48:16Z</time>
      </trkpt>
      <trkpt lat="58.02696" lon="-6.72534">
        <ele>49</ele>
        <time>2021-03-20T14:48:20Z</time>
      </trkpt>
      <trkpt lat="58.0239" lon="-6.72867">
        <ele>43.05</ele>
        <time>2021-03-20T14:48:25Z</time>
      </trkpt>
      <trkpt lat="58.02251" lon="-6.73007">
        <ele>44.51</ele>
        <time>2021-03-20T14:48:29Z</time>
      </trkpt>
      <trkpt lat="58.02194" lon="-6.73056">
        <ele>45.05</ele>
        <time>2021-03-20T14:48:34Z</time>
      </trkpt>
      <trkpt lat="58.02118" lon="-6.73113">
        <ele>49.07</ele>
        <time>2021-03-20T14:48:38Z</time>
      </trkpt>
      <trkpt lat="58.02049" lon="-6.7316">
        <ele>46.52</ele>
        <time>2021-03-20T14:48:43Z</time>
      </trkpt>
      <trkpt lat="58.01967" lon="-6.73208">
        <ele>46</ele>
        <time>2021-03-20T14:48:47Z</time>
      </trkpt>
      <trkpt lat="58.01863" lon="-6.73258">
        <ele>47.62</ele>
        <time>2021-03-20T14:48:52Z</time>
      </trkpt>
      <trkpt lat="58.0171" lon="-6.73309">
        <ele>58.38</ele>
        <time>2021-03-20T14:48:56Z</time>
      </trkpt>
      <trkpt lat="58.01463" lon="-6.73399">
        <ele>56.75</ele>
        <time>2021-03-20T14:49:01Z</time>
      </trkpt>
      <trkpt lat="58.0136" lon="-6.73442">
        <ele>56.71</ele>
        <time>2021-03-20T14:49:05Z</time>
      </trkpt>
      <trkpt lat="58.01317" lon="-6.73473">
        <ele>54.2</ele>
        <time>2021-03-20T14:49:09Z</time>
      </trkpt>
      <trkpt lat="58.01271" lon="-6.73524">
        <ele>49.9</ele>
        <time>2021-03-20T14:49:14Z</time>
      </trkpt>
      <trkpt lat="58.0123" lon="-6.73576">
        <ele>47.08</ele>
        <time>2021-03-20T14:49:18Z</time>
      </trkpt>
      <trkpt lat="58.01185" lon="-6.73661">
        <ele>44.98</ele>
        <time>2021-03-20T14:49:23Z</time>
      </trkpt>
      <trkpt lat="58.01155" lon="-6.73739">
        <ele>43.51</ele>
        <time>2021-03-20T14:49:27Z</time>
      </trkpt>
      <trkpt lat="58.01069" lon="-6.73979">
        <ele>39.33</ele>
        <time>2021-03-20T14:49:32Z</time>
      </trkpt>
      <trkpt lat="58.00996" lon="-6.74172">
        <ele>35.42</ele>
        <time>2021-03-20T14:49:36Z</time>
      </trkpt>
      <trkpt lat="58.00957" lon="-6.74258">
        <ele>32.89</ele>
        <time>2021-03-20T14:49:41Z</time>
      </trkpt>
      <trkpt lat="58.00882" lon="-6.74412">
        <ele>27.34</ele>
        <time>2021-03-20T14:49:45Z</time>
      </trkpt>
      <trkpt lat="58.00851" lon="-6.74494">
        <ele>28.56</ele>
        <time>2021-03-20T14:49:50Z</time>
      </trkpt>
      <trkpt lat="58.00825" lon="-6.74575">
        <ele>29.22</ele>
        <time>2021-03-20T14:49:54Z</time>
      </trkpt>
      <trkpt lat="58.00807" lon="-6.74678">
        <ele>29.79</ele>
        <time>2021-03-20T14:49:58Z</time>
      </trkpt>
      <trkpt lat="58.00801" lon="-6.74741">
        <ele>29.77</ele>
        <time>2021-03-20T14:50:03Z</time>
      </trkpt>
      <trkpt lat="58.00795" lon="-6.74834">
        <ele>29.72</ele>
        <time>2021-03-20T14:50:07Z</time>
      </trkpt>
      <trkpt lat="58.00796" lon="-6.74912">
        <ele>31.4</ele>
        <time>2021-03-20T14:50:12Z</time>
      </trkpt>
      <trkpt lat="58.00805" lon="-6.75163">
        <ele>32.85</ele>
        <time>2021-03-20T14:50:16Z</time>
      </trkpt>
      <trkpt lat="58.00802" lon="-6.75218">
        <ele>30.34</ele>
        <time>2021-03-20T14:50:21Z</time>
      </trkpt>
      <trkpt lat="58.00794" lon="-6.75292">
        <ele>28.3</ele>
        <time>2021-03-20T14:50:25Z</time>
      </trkpt>
      <trkpt lat="58.00787" lon="-6.7533">
        <ele>30.08</ele>
        <time>2021-03-20T14:50:30Z</time>
      </trkpt>
      <trkpt lat="58.00779" lon="-6.75361">
        <ele>32.08</ele>
        <time>2021-03-20T14:50:34Z</time>
      </trkpt>
      <trkpt lat="58.00764" lon="-6.75395">
        <ele>32.5</ele>
        <time>2021-03-20T14:50:38Z</time>
      </trkpt>
      <trkpt lat="58.00693" lon="-6.75507">
        <ele>29.2</ele>
        <time>2021-03-20T14:50:43Z</time>
      </trkpt>
      <trkpt lat="58.00653" lon="-6.75593">
        <ele>27.05</ele>
        <time>2021-03-20T14:50:47Z</time>
      </trkpt>
      <trkpt lat="58.00506" lon="-6.76051">
        <ele>18.69</ele>
        <time>2021-03-20T14:50:52Z</time>
      </trkpt>
      <trkpt lat="58.00406" lon="-6.76375">
        <ele>18.01</ele>
        <time>2021-03-20T14:50:56Z</time>
      </trkpt>
      <trkpt lat="58.00381" lon="-6.7645">
        <ele>17.85</ele>
        <time>2021-03-20T14:51:01Z</time>
      </trkpt>
      <trkpt lat="58.00368" lon="-6.76474">
        <ele>18.55</ele>
        <time>2021-03-20T14:51:05Z</time>
      </trkpt>
      <trkpt lat="58.00356" lon="-6.76486">
        <ele>17.92</ele>
        <time>2021-03-20T14:51:10Z</time>
      </trkpt>
      <trkpt lat="58.00342" lon="-6.76494">
        <ele>16.71</ele>
        <time>2021-03-20T14:51:14Z</time>
      </trkpt>
      <trkpt lat="58.00322" lon="-6.76496">
        <ele>15.03</ele>
        <time>2021-03-20T14:51:19Z</time>
      </trkpt>
      <trkpt lat="58.00296" lon="-6.76483">
        <ele>13.93</ele>
        <time>2021-03-20T14:51:23Z</time>
      </trkpt>
      <trkpt lat="58.0028" lon="-6.76456">
        <ele>14.27</ele>
        <time>2021-03-20T14:51:27Z</time>
      </trkpt>
      <trkpt lat="58.00273" lon="-6.76438">
        <ele>14.87</ele>
        <time>2021-03-20T14:51:32Z</time>
      </trkpt>
      <trkpt lat="58.00267" lon="-6.76414">
        <ele>15.9</ele>
        <time>2021-03-20T14:51:36Z</time>
      </trkpt>
      <trkpt lat="58.00249" lon="-6.7626">
        <ele>17.23</ele>
        <time>2021-03-20T14:51:41Z</time>
      </trkpt>
      <trkpt lat="58.00243" lon="-6.76181">
        <ele>16.06</ele>
        <time>2021-03-20T14:51:45Z</time>
      </trkpt>
      <trkpt lat="58.00241" lon="-6.76131">
        <ele>15.77</ele>
        <time>2021-03-20T14:51:50Z</time>
      </trkpt>
      <trkpt lat="58.00243" lon="-6.76006">
        <ele>15.87</ele>
        <time>2021-03-20T14:51:54Z</time>
      </trkpt>
      <trkpt lat="58.0024" lon="-6.75942">
        <ele>18</ele>
        <time>2021-03-20T14:51:59Z</time>
      </trkpt>
      <trkpt lat="58.00233" lon="-6.75895">
        <ele>17.61</ele>
        <time>2021-03-20T14:52:03Z</time>
      </trkpt>
      <trkpt lat="58.00219" lon="-6.75853">
        <ele>17.86</ele>
        <time>2021-03-20T14:52:08Z</time>
      </trkpt>
      <trkpt lat="58.00203" lon="-6.75827">
        <ele>18.59</ele>
        <time>2021-03-20T14:52:12Z</time>
      </trkpt>
      <trkpt lat="58.00182" lon="-6.75807">
        <ele>19.95</ele>
        <time>2021-03-20T14:52:16Z</time>
      </trkpt>
      <trkpt lat="58.00167" lon="-6.75799">
        <ele>20.7</ele>
        <time>2021-03-20T14:52:21Z</time>
      </trkpt>
      <trkpt lat="58.00148" lon="-6.75795">
        <ele>21.3</ele>
        <time>2021-03-20T14:52:25Z</time>
      </trkpt>
      <trkpt lat="58.00128" lon="-6.758">
        <ele>21.81</ele>
        <time>2021-03-20T14:52:30Z</time>
      </trkpt>
      <trkpt lat="58.00116" lon="-6.75808">
        <ele>22</ele>
        <time>2021-03-20T14:52:34Z</time>
      </trkpt>
      <trkpt lat="57.9999" lon="-6.75921">
        <ele>26.37</ele>
        <time>2021-03-20T14:52:39Z</time>
      </trkpt>
      <trkpt lat="57.99958" lon="-6.75945">
        <ele>27.01</ele>
        <time>2021-03-20T14:52:43Z</time>
      </trkpt>
      <trkpt lat="57.99916" lon="-6.75968">
        <ele>26.78</ele>
        <time>2021-03-20T14:52:48Z</time>
      </trkpt>
      <trkpt lat="57.99855" lon="-6.75983">
        <ele>27.26</ele>
        <time>2021-03-20T14:52:52Z</time>
      </trkpt>
      <trkpt lat="57.99763" lon="-6.75983">
        <ele>27.8</ele>
        <time>2021-03-20T14:52:57Z</time>
      </trkpt>
      <trkpt lat="57.9971" lon="-6.75992">
        <ele>29.91</ele>
        <time>2021-03-20T14:53:01Z</time>
      </trkpt>
      <trkpt lat="57.99651" lon="-6.76018">
        <ele>32.47</ele>
        <time>2021-03-20T14:53:05Z</time>
      </trkpt>
      <trkpt lat="57.99593" lon="-6.76061">
        <ele>30.97</ele>
        <time>2021-03-20T14:53:10Z</time>
      </trkpt>
      <trkpt lat="57.99554" lon="-6.76095">
        <ele>28.27</ele>
        <time>2021-03-20T14:53:14Z</time>
      </trkpt>
      <trkpt lat="57.99319" lon="-6.76313">
        <ele>30.95</ele>
        <time>2021-03-20T14:53:19Z</time>
      </trkpt>
      <trkpt lat="57.99288" lon="-6.76346">
        <ele>31.01</ele>
        <time>2021-03-20T14:53:23Z</time>
      </trkpt>
      <trkpt lat="57.99247" lon="-6.76402">
        <ele>30.18</ele>
        <time>2021-03-20T14:53:28Z</time>
      </trkpt>
      <trkpt lat="57.99216" lon="-6.76449">
        <ele>29.31</ele>
        <time>2021-03-20T14:53:32Z</time>
      </trkpt>
      <trkpt lat="57.99198" lon="-6.76483">
        <ele>30.52</ele>
        <time>2021-03-20T14:53:37Z</time>
      </trkpt>
      <trkpt lat="57.99156" lon="-6.76589">
        <ele>29.46</ele>
        <time>2021-03-20T14:53:41Z</time>
      </trkpt>
      <trkpt lat="57.99139" lon="-6.76623">
        <ele>29.46</ele>
        <time>2021-03-20T14:53:46Z</time>
      </trkpt>
      <trkpt lat="57.99122" lon="-6.76649">
        <ele>29.76</ele>
        <time>2021-03-20T14:53:50Z</time>
      </trkpt>
      <trkpt lat="57.99081" lon="-6.76702">
        <ele>31.39</ele>
        <time>2021-03-20T14:53:54Z</time>
      </trkpt>
      <trkpt lat="57.99056" lon="-6.76729">
        <ele>31.73</ele>
        <time>2021-03-20T14:53:59Z</time>
      </trkpt>
      <trkpt lat="57.99029" lon="-6.76753">
        <ele>33.4</ele>
        <time>2021-03-20T14:54:03Z</time>
      </trkpt>
      <trkpt lat="57.99014" lon="-6.76749">
        <ele>32.9</ele>
        <time>2021-03-20T14:54:06Z</time>
      </trkpt>
      <trkpt lat="57.99002" lon="-6.76751">
        <ele>33.08</ele>
        <time>2021-03-20T14:54:09Z</time>
      </trkpt>
      <trkpt lat="57.98991" lon="-6.76757">
        <ele>33.33</ele>
        <time>2021-03-20T14:54:11Z</time>
      </trkpt>
      <trkpt lat="57.98975" lon="-6.76773">
        <ele>33.82</ele>
        <time>2021-03-20T14:54:14Z</time>
      </trkpt>
      <trkpt lat="57.9893" lon="-6.76837">
        <ele>34.12</ele>
        <time>2021-03-20T14:54:16Z</time>
      </trkpt>
      <trkpt lat="57.98905" lon="-6.76847">
        <ele>33.5</ele>
        <time>2021-03-20T14:54:20Z</time>
      </trkpt>
      <trkpt lat="57.98877" lon="-6.76853">
        <ele>33.81</ele>
        <time>2021-03-20T14:54:23Z</time>
      </trkpt>
      <trkpt lat="57.98847" lon="-6.76851">
        <ele>35.74</ele>
        <time>2021-03-20T14:54:26Z</time>
      </trkpt>
      <trkpt lat="57.98808" lon="-6.76837">
        <ele>38.77</ele>
        <time>2021-03-20T14:54:29Z</time>
      </trkpt>
      <trkpt lat="57.9878" lon="-6.76818">
        <ele>40.48</ele>
        <time>2021-03-20T14:54:32Z</time>
      </trkpt>
      <trkpt lat="57.98736" lon="-6.76783">
        <ele>43.79</ele>
        <time>2021-03-20T14:54:36Z</time>
      </trkpt>
      <trkpt lat="57.9872" lon="-6.76765">
        <ele>45.56</ele>
        <time>2021-03-20T14:54:39Z</time>
      </trkpt>
      <trkpt lat="57.98689" lon="-6.7671">
        <ele>48.19</ele>
        <time>2021-03-20T14:54:42Z</time>
      </trkpt>
      <trkpt lat="57.98664" lon="-6.7665">
        <ele>49.11</ele>
        <time>2021-03-20T14:54:45Z</time>
      </trkpt>
      <trkpt lat="57.98641" lon="-6.7659">
        <ele>50</ele>
        <time>2021-03-20T14:54:48Z</time>
      </trkpt>
      <trkpt lat="57.98629" lon="-6.76542">
        <ele>52.58</ele>
        <time>2021-03-20T14:54:52Z</time>
      </trkpt>
      <trkpt lat="57.98629" lon="-6.76516">
        <ele>53.73</ele>
        <time>2021-03-20T14:54:55Z</time>
      </trkpt>
      <trkpt lat="57.98637" lon="-6.76426">
        <ele>57.87</ele>
        <time>2021-03-20T14:54:58Z</time>
      </trkpt>
      <trkpt lat="57.98642" lon="-6.7635">
        <ele>60.77</ele>
        <time>2021-03-20T14:55:01Z</time>
      </trkpt>
      <trkpt lat="57.98644" lon="-6.76173">
        <ele>66.58</ele>
        <time>2021-03-20T14:55:04Z</time>
      </trkpt>
      <trkpt lat="57.9865" lon="-6.75787">
        <ele>83.87</ele>
        <time>2021-03-20T14:55:08Z</time>
      </trkpt>
      <trkpt lat="57.98656" lon="-6.75724">
        <ele>85.71</ele>
        <time>2021-03-20T14:55:11Z</time>
      </trkpt>
      <trkpt lat="57.987" lon="-6.75378">
        <ele>101.69</ele>
        <time>2021-03-20T14:55:14Z</time>
      </trkpt>
      <trkpt lat="57.98716" lon="-6.75273">
        <ele>107.05</ele>
        <time>2021-03-20T14:55:17Z</time>
      </trkpt>
      <trkpt lat="57.98724" lon="-6.75241">
        <ele>108.57</ele>
        <time>2021-03-20T14:55:20Z</time>
      </trkpt>
      <trkpt lat="57.98746" lon="-6.75169">
        <ele>111.29</ele>
        <time>2021-03-20T14:55:24Z</time>
      </trkpt>
      <trkpt lat="57.98778" lon="-6.75097">
        <ele>114</ele>
        <time>2021-03-20T14:55:27Z</time>
      </trkpt>
      <trkpt lat="57.9882" lon="-6.75017">
        <ele>116.66</ele>
        <time>2021-03-20T14:55:30Z</time>
      </trkpt>
      <trkpt lat="57.98832" lon="-6.74987">
        <ele>117.21</ele>
        <time>2021-03-20T14:55:33Z</time>
      </trkpt>
      <trkpt lat="57.98842" lon="-6.74949">
        <ele>118.48</ele>
        <time>2021-03-20T14:55:36Z</time>
      </trkpt>
      <trkpt lat="57.98846" lon="-6.74914">
        <ele>119.51</ele>
        <time>2021-03-20T14:55:40Z</time>
      </trkpt>
      <trkpt lat="57.98846" lon="-6.74876">
        <ele>122.15</ele>
        <time>2021-03-20T14:55:43Z</time>
      </trkpt>
      <trkpt lat="57.98837" lon="-6.74839">
        <ele>124.49</ele>
        <time>2021-03-20T14:55:46Z</time>
      </trkpt>
      <trkpt lat="57.98822" lon="-6.74805">
        <ele>125.76</ele>
        <time>2021-03-20T14:55:49Z</time>
      </trkpt>
      <trkpt lat="57.98804" lon="-6.74786">
        <ele>126.5</ele>
        <time>2021-03-20T14:55:52Z</time>
      </trkpt>
      <trkpt lat="57.98719" lon="-6.74748">
        <ele>134.43</ele>
        <time>2021-03-20T14:55:56Z</time>
      </trkpt>
      <trkpt lat="57.98696" lon="-6.74741">
        <ele>137.15</ele>
        <time>2021-03-20T14:55:59Z</time>
      </trkpt>
      <trkpt lat="57.98682" lon="-6.74742">
        <ele>138.69</ele>
        <time>2021-03-20T14:56:02Z</time>
      </trkpt>
      <trkpt lat="57.98664" lon="-6.74749">
        <ele>140.29</ele>
        <time>2021-03-20T14:56:05Z</time>
      </trkpt>
      <trkpt lat="57.98651" lon="-6.74761">
        <ele>141.67</ele>
        <time>2021-03-20T14:56:08Z</time>
      </trkpt>
      <trkpt lat="57.98641" lon="-6.74779">
        <ele>142.75</ele>
        <time>2021-03-20T14:56:12Z</time>
      </trkpt>
      <trkpt lat="57.9863" lon="-6.74812">
        <ele>143.96</ele>
        <time>2021-03-20T14:56:15Z</time>
      </trkpt>
      <trkpt lat="57.98625" lon="-6.74834">
        <ele>144.9</ele>
        <time>2021-03-20T14:56:18Z</time>
      </trkpt>
      <trkpt lat="57.98617" lon="-6.74893">
        <ele>145.56</ele>
        <time>2021-03-20T14:56:21Z</time>
      </trkpt>
      <trkpt lat="57.98607" lon="-6.74933">
        <ele>146.54</ele>
        <time>2021-03-20T14:56:24Z</time>
      </trkpt>
      <trkpt lat="57.98593" lon="-6.74958">
        <ele>148.77</ele>
        <time>2021-03-20T14:56:28Z</time>
      </trkpt>
      <trkpt lat="57.98544" lon="-6.75028">
        <ele>156.79</ele>
        <time>2021-03-20T14:56:31Z</time>
      </trkpt>
      <trkpt lat="57.9851" lon="-6.75073">
        <ele>160.9</ele>
        <time>2021-03-20T14:56:34Z</time>
      </trkpt>
      <trkpt lat="57.9846" lon="-6.75116">
        <ele>164.2</ele>
        <time>2021-03-20T14:56:37Z</time>
      </trkpt>
      <trkpt lat="57.98384" lon="-6.7516">
        <ele>170.17</ele>
        <time>2021-03-20T14:56:40Z</time>
      </trkpt>
      <trkpt lat="57.98368" lon="-6.75165">
        <ele>171.48</ele>
        <time>2021-03-20T14:56:44Z</time>
      </trkpt>
      <trkpt lat="57.98336" lon="-6.75165">
        <ele>173.09</ele>
        <time>2021-03-20T14:56:47Z</time>
      </trkpt>
      <trkpt lat="57.98304" lon="-6.75159">
        <ele>175.07</ele>
        <time>2021-03-20T14:56:50Z</time>
      </trkpt>
      <trkpt lat="57.9828" lon="-6.75146">
        <ele>177.71</ele>
        <time>2021-03-20T14:56:53Z</time>
      </trkpt>
      <trkpt lat="57.98147" lon="-6.75031">
        <ele>194.39</ele>
        <time>2021-03-20T14:56:56Z</time>
      </trkpt>
      <trkpt lat="57.98059" lon="-6.74946">
        <ele>200.03</ele>
        <time>2021-03-20T14:57:00Z</time>
      </trkpt>
      <trkpt lat="57.97961" lon="-6.74868">
        <ele>196.86</ele>
        <time>2021-03-20T14:57:03Z</time>
      </trkpt>
      <trkpt lat="57.97896" lon="-6.74835">
        <ele>189.58</ele>
        <time>2021-03-20T14:57:06Z</time>
      </trkpt>
      <trkpt lat="57.97856" lon="-6.74821">
        <ele>188.18</ele>
        <time>2021-03-20T14:57:09Z</time>
      </trkpt>
      <trkpt lat="57.97808" lon="-6.74811">
        <ele>189.19</ele>
        <time>2021-03-20T14:57:12Z</time>
      </trkpt>
      <trkpt lat="57.97723" lon="-6.74816">
        <ele>191</ele>
        <time>2021-03-20T14:57:16Z</time>
      </trkpt>
      <trkpt lat="57.97316" lon="-6.74884">
        <ele>170.68</ele>
        <time>2021-03-20T14:57:19Z</time>
      </trkpt>
      <trkpt lat="57.97247" lon="-6.74903">
        <ele>163.37</ele>
        <time>2021-03-20T14:57:22Z</time>
      </trkpt>
      <trkpt lat="57.97074" lon="-6.74981">
        <ele>151.41</ele>
        <time>2021-03-20T14:57:25Z</time>
      </trkpt>
      <trkpt lat="57.97011" lon="-6.74994">
        <ele>154.5</ele>
        <time>2021-03-20T14:57:28Z</time>
      </trkpt>
      <trkpt lat="57.96957" lon="-6.74995">
        <ele>154.16</ele>
        <time>2021-03-20T14:57:31Z</time>
      </trkpt>
      <trkpt lat="57.96899" lon="-6.74987">
        <ele>151.19</ele>
        <time>2021-03-20T14:57:35Z</time>
      </trkpt>
      <trkpt lat="57.96839" lon="-6.7496">
        <ele>149.11</ele>
        <time>2021-03-20T14:57:38Z</time>
      </trkpt>
      <trkpt lat="57.96792" lon="-6.74933">
        <ele>150.89</ele>
        <time>2021-03-20T14:57:41Z</time>
      </trkpt>
      <trkpt lat="57.96784" lon="-6.7493">
        <ele>151.3</ele>
        <time>2021-03-20T14:57:44Z</time>
      </trkpt>
      <trkpt lat="57.96751" lon="-6.74906">
        <ele>152.39</ele>
        <time>2021-03-20T14:57:47Z</time>
      </trkpt>
      <trkpt lat="57.96601" lon="-6.74756">
        <ele>163.66</ele>
        <time>2021-03-20T14:57:51Z</time>
      </trkpt>
      <trkpt lat="57.96485" lon="-6.74627">
        <ele>170.31</ele>
        <time>2021-03-20T14:57:54Z</time>
      </trkpt>
      <trkpt lat="57.96427" lon="-6.74571">
        <ele>170.18</ele>
        <time>2021-03-20T14:57:57Z</time>
      </trkpt>
      <trkpt lat="57.96389" lon="-6.74544">
        <ele>169.01</ele>
        <time>2021-03-20T14:58:00Z</time>
      </trkpt>
      <trkpt lat="57.96341" lon="-6.74517">
        <ele>166.66</ele>
        <time>2021-03-20T14:58:03Z</time>
      </trkpt>
      <trkpt lat="57.96282" lon="-6.74501">
        <ele>162.38</ele>
        <time>2021-03-20T14:58:07Z</time>
      </trkpt>
      <trkpt lat="57.96236" lon="-6.74493">
        <ele>157.38</ele>
        <time>2021-03-20T14:58:10Z</time>
      </trkpt>
      <trkpt lat="57.96186" lon="-6.74501">
        <ele>153.45</ele>
        <time>2021-03-20T14:58:13Z</time>
      </trkpt>
      <trkpt lat="57.96084" lon="-6.74528">
        <ele>147.01</ele>
        <time>2021-03-20T14:58:16Z</time>
      </trkpt>
      <trkpt lat="57.96027" lon="-6.74558">
        <ele>147.1</ele>
        <time>2021-03-20T14:58:19Z</time>
      </trkpt>
      <trkpt lat="57.9598" lon="-6.74595">
        <ele>144.52</ele>
        <time>2021-03-20T14:58:23Z</time>
      </trkpt>
      <trkpt lat="57.95947" lon="-6.74633">
        <ele>141.85</ele>
        <time>2021-03-20T14:58:26Z</time>
      </trkpt>
      <trkpt lat="57.95925" lon="-6.74665">
        <ele>140.69</ele>
        <time>2021-03-20T14:58:29Z</time>
      </trkpt>
      <trkpt lat="57.959" lon="-6.74711">
        <ele>139.08</ele>
        <time>2021-03-20T14:58:32Z</time>
      </trkpt>
      <trkpt lat="57.95862" lon="-6.74793">
        <ele>140.74</ele>
        <time>2021-03-20T14:58:35Z</time>
      </trkpt>
      <trkpt lat="57.9583" lon="-6.74872">
        <ele>140.14</ele>
        <time>2021-03-20T14:58:39Z</time>
      </trkpt>
      <trkpt lat="57.95787" lon="-6.75003">
        <ele>141.23</ele>
        <time>2021-03-20T14:58:42Z</time>
      </trkpt>
      <trkpt lat="57.95759" lon="-6.75096">
        <ele>142.6</ele>
        <time>2021-03-20T14:58:45Z</time>
      </trkpt>
      <trkpt lat="57.95734" lon="-6.75196">
        <ele>143.17</ele>
        <time>2021-03-20T14:58:48Z</time>
      </trkpt>
      <trkpt lat="57.95719" lon="-6.75269">
        <ele>141.79</ele>
        <time>2021-03-20T14:58:51Z</time>
      </trkpt>
      <trkpt lat="57.9566" lon="-6.75623">
        <ele>139.86</ele>
        <time>2021-03-20T14:58:55Z</time>
      </trkpt>
      <trkpt lat="57.95639" lon="-6.75758">
        <ele>141.12</ele>
        <time>2021-03-20T14:58:58Z</time>
      </trkpt>
      <trkpt lat="57.9563" lon="-6.75873">
        <ele>140.12</ele>
        <time>2021-03-20T14:59:01Z</time>
      </trkpt>
      <trkpt lat="57.95621" lon="-6.75946">
        <ele>138.98</ele>
        <time>2021-03-20T14:59:04Z</time>
      </trkpt>
      <trkpt lat="57.9561" lon="-6.76028">
        <ele>141.76</ele>
        <time>2021-03-20T14:59:07Z</time>
      </trkpt>
      <trkpt lat="57.95603" lon="-6.76135">
        <ele>142.64</ele>
        <time>2021-03-20T14:59:11Z</time>
      </trkpt>
      <trkpt lat="57.95602" lon="-6.76259">
        <ele>142.25</ele>
        <time>2021-03-20T14:59:14Z</time>
      </trkpt>
      <trkpt lat="57.95603" lon="-6.76313">
        <ele>142.72</ele>
        <time>2021-03-20T14:59:17Z</time>
      </trkpt>
      <trkpt lat="57.95608" lon="-6.76385">
        <ele>143.1</ele>
        <time>2021-03-20T14:59:20Z</time>
      </trkpt>
      <trkpt lat="57.95626" lon="-6.76519">
        <ele>144.63</ele>
        <time>2021-03-20T14:59:23Z</time>
      </trkpt>
      <trkpt lat="57.95632" lon="-6.76584">
        <ele>145.66</ele>
        <time>2021-03-20T14:59:27Z</time>
      </trkpt>
      <trkpt lat="57.95633" lon="-6.76653">
        <ele>145.03</ele>
        <time>2021-03-20T14:59:30Z</time>
      </trkpt>
      <trkpt lat="57.95631" lon="-6.76709">
        <ele>143.04</ele>
        <time>2021-03-20T14:59:33Z</time>
      </trkpt>
      <trkpt lat="57.95626" lon="-6.76764">
        <ele>141</ele>
        <time>2021-03-20T14:59:36Z</time>
      </trkpt>
      <trkpt lat="57.9562" lon="-6.76814">
        <ele>140.28</ele>
        <time>2021-03-20T14:59:39Z</time>
      </trkpt>
      <trkpt lat="57.9561" lon="-6.76869">
        <ele>139.97</ele>
        <time>2021-03-20T14:59:43Z</time>
      </trkpt>
      <trkpt lat="57.95601" lon="-6.7691">
        <ele>141.54</ele>
        <time>2021-03-20T14:59:46Z</time>
      </trkpt>
      <trkpt lat="57.95581" lon="-6.76978">
        <ele>146.29</ele>
        <time>2021-03-20T14:59:49Z</time>
      </trkpt>
      <trkpt lat="57.95563" lon="-6.77025">
        <ele>147.38</ele>
        <time>2021-03-20T14:59:52Z</time>
      </trkpt>
      <trkpt lat="57.95509" lon="-6.77141">
        <ele>149.36</ele>
        <time>2021-03-20T14:59:55Z</time>
      </trkpt>
      <trkpt lat="57.95361" lon="-6.77452">
        <ele>150.48</ele>
        <time>2021-03-20T14:59:59Z</time>
      </trkpt>
      <trkpt lat="57.95323" lon="-6.77522">
        <ele>151.59</ele>
        <time>2021-03-20T15:00:02Z</time>
      </trkpt>
      <trkpt lat="57.95268" lon="-6.77613">
        <ele>151.46</ele>
        <time>2021-03-20T15:00:05Z</time>
      </trkpt>
      <trkpt lat="57.95221" lon="-6.77684">
        <ele>152.14</ele>
        <time>2021-03-20T15:00:08Z</time>
      </trkpt>
      <trkpt lat="57.95131" lon="-6.77791">
        <ele>153.46</ele>
        <time>2021-03-20T15:00:11Z</time>
      </trkpt>
      <trkpt lat="57.95079" lon="-6.77842">
        <ele>155.44</ele>
        <time>2021-03-20T15:00:15Z</time>
      </trkpt>
      <trkpt lat="57.95037" lon="-6.77878">
        <ele>156.34</ele>
        <time>2021-03-20T15:00:18Z</time>
      </trkpt>
      <trkpt lat="57.94991" lon="-6.77914">
        <ele>156.85</ele>
        <time>2021-03-20T15:00:21Z</time>
      </trkpt>
      <trkpt lat="57.94947" lon="-6.77942">
        <ele>157.92</ele>
        <time>2021-03-20T15:00:24Z</time>
      </trkpt>
      <trkpt lat="57.94898" lon="-6.77969">
        <ele>157.82</ele>
        <time>2021-03-20T15:00:27Z</time>
      </trkpt>
      <trkpt lat="57.94766" lon="-6.78035">
        <ele>159.26</ele>
        <time>2021-03-20T15:00:31Z</time>
      </trkpt>
      <trkpt lat="57.94741" lon="-6.78053">
        <ele>159.92</ele>
        <time>2021-03-20T15:00:34Z</time>
      </trkpt>
      <trkpt lat="57.94715" lon="-6.78076">
        <ele>161.31</ele>
        <time>2021-03-20T15:00:37Z</time>
      </trkpt>
      <trkpt lat="57.9466" lon="-6.78141">
        <ele>160.85</ele>
        <time>2021-03-20T15:00:40Z</time>
      </trkpt>
      <trkpt lat="57.94621" lon="-6.782">
        <ele>162.55</ele>
        <time>2021-03-20T15:00:43Z</time>
      </trkpt>
      <trkpt lat="57.94599" lon="-6.78241">
        <ele>163.08</ele>
        <time>2021-03-20T15:00:47Z</time>
      </trkpt>
      <trkpt lat="57.94575" lon="-6.78289">
        <ele>164.37</ele>
        <time>2021-03-20T15:00:50Z</time>
      </trkpt>
      <trkpt lat="57.9454" lon="-6.78372">
        <ele>167.89</ele>
        <time>2021-03-20T15:00:53Z</time>
      </trkpt>
      <trkpt lat="57.94494" lon="-6.78486">
        <ele>173.65</ele>
        <time>2021-03-20T15:00:56Z</time>
      </trkpt>
      <trkpt lat="57.94472" lon="-6.78552">
        <ele>174.9</ele>
        <time>2021-03-20T15:00:59Z</time>
      </trkpt>
      <trkpt lat="57.94451" lon="-6.78637">
        <ele>176.15</ele>
        <time>2021-03-20T15:01:03Z</time>
      </trkpt>
      <trkpt lat="57.9444" lon="-6.78693">
        <ele>177.79</ele>
        <time>2021-03-20T15:01:06Z</time>
      </trkpt>
      <trkpt lat="57.9443" lon="-6.78753">
        <ele>177.5</ele>
        <time>2021-03-20T15:01:09Z</time>
      </trkpt>
      <trkpt lat="57.94422" lon="-6.78828">
        <ele>177</ele>
        <time>2021-03-20T15:01:12Z</time>
      </trkpt>
      <trkpt lat="57.94417" lon="-6.78911">
        <ele>177.79</ele>
        <time>2021-03-20T15:01:15Z</time>
      </trkpt>
      <trkpt lat="57.94417" lon="-6.79015">
        <ele>180.54</ele>
        <time>2021-03-20T15:01:19Z</time>
      </trkpt>
      <trkpt lat="57.94422" lon="-6.79105">
        <ele>183.59</ele>
        <time>2021-03-20T15:01:22Z</time>
      </trkpt>
      <trkpt lat="57.9443" lon="-6.79212">
        <ele>186.81</ele>
        <time>2021-03-20T15:01:25Z</time>
      </trkpt>
      <trkpt lat="57.94442" lon="-6.79317">
        <ele>186</ele>
        <time>2021-03-20T15:01:28Z</time>
      </trkpt>
      <trkpt lat="57.94519" lon="-6.80187">
        <ele>194.71</ele>
        <time>2021-03-20T15:01:31Z</time>
      </trkpt>
      <trkpt lat="57.94519" lon="-6.80313">
        <ele>191.58</ele>
        <time>2021-03-20T15:01:35Z</time>
      </trkpt>
      <trkpt lat="57.94516" lon="-6.80422">
        <ele>188.08</ele>
        <time>2021-03-20T15:01:38Z</time>
      </trkpt>
      <trkpt lat="57.94508" lon="-6.80553">
        <ele>185.41</ele>
        <time>2021-03-20T15:01:41Z</time>
      </trkpt>
      <trkpt lat="57.94497" lon="-6.80713">
        <ele>183.39</ele>
        <time>2021-03-20T15:01:44Z</time>
      </trkpt>
      <trkpt lat="57.94495" lon="-6.80831">
        <ele>179.33</ele>
        <time>2021-03-20T15:01:47Z</time>
      </trkpt>
      <trkpt lat="57.94496" lon="-6.80981">
        <ele>175.72</ele>
        <time>2021-03-20T15:01:51Z</time>
      </trkpt>
      <trkpt lat="57.94495" lon="-6.81054">
        <ele>172.77</ele>
        <time>2021-03-20T15:01:54Z</time>
      </trkpt>
      <trkpt lat="57.94491" lon="-6.81112">
        <ele>171.3</ele>
        <time>2021-03-20T15:01:57Z</time>
      </trkpt>
      <trkpt lat="57.94481" lon="-6.81193">
        <ele>170.55</ele>
        <time>2021-03-20T15:02:00Z</time>
      </trkpt>
      <trkpt lat="57.9446" lon="-6.81287">
        <ele>168.36</ele>
        <time>2021-03-20T15:02:03Z</time>
      </trkpt>
      <trkpt lat="57.94426" lon="-6.81399">
        <ele>162.77</ele>
        <time>2021-03-20T15:02:07Z</time>
      </trkpt>
      <trkpt lat="57.94392" lon="-6.81493">
        <ele>157.65</ele>
        <time>2021-03-20T15:02:10Z</time>
      </trkpt>
      <trkpt lat="57.94364" lon="-6.81557">
        <ele>157.06</ele>
        <time>2021-03-20T15:02:13Z</time>
      </trkpt>
      <trkpt lat="57.94328" lon="-6.81613">
        <ele>153.42</ele>
        <time>2021-03-20T15:02:16Z</time>
      </trkpt>
      <trkpt lat="57.94306" lon="-6.81642">
        <ele>153.31</ele>
        <time>2021-03-20T15:02:19Z</time>
      </trkpt>
      <trkpt lat="57.94224" lon="-6.8174">
        <ele>152.11</ele>
        <time>2021-03-20T15:02:23Z</time>
      </trkpt>
      <trkpt lat="57.94198" lon="-6.81774">
        <ele>151.59</ele>
        <time>2021-03-20T15:02:26Z</time>
      </trkpt>
      <trkpt lat="57.94159" lon="-6.81832">
        <ele>152.67</ele>
        <time>2021-03-20T15:02:29Z</time>
      </trkpt>
      <trkpt lat="57.94125" lon="-6.81899">
        <ele>150.99</ele>
        <time>2021-03-20T15:02:32Z</time>
      </trkpt>
      <trkpt lat="57.94095" lon="-6.8197">
        <ele>151.29</ele>
        <time>2021-03-20T15:02:35Z</time>
      </trkpt>
      <trkpt lat="57.94076" lon="-6.82024">
        <ele>151.65</ele>
        <time>2021-03-20T15:02:39Z</time>
      </trkpt>
      <trkpt lat="57.93998" lon="-6.82283">
        <ele>148.91</ele>
        <time>2021-03-20T15:02:42Z</time>
      </trkpt>
      <trkpt lat="57.93962" lon="-6.82373">
        <ele>147.56</ele>
        <time>2021-03-20T15:02:45Z</time>
      </trkpt>
      <trkpt lat="57.93943" lon="-6.82412">
        <ele>146.58</ele>
        <time>2021-03-20T15:02:48Z</time>
      </trkpt>
      <trkpt lat="57.93913" lon="-6.82466">
        <ele>145.5</ele>
        <time>2021-03-20T15:02:51Z</time>
      </trkpt>
      <trkpt lat="57.93881" lon="-6.82514">
        <ele>143.29</ele>
        <time>2021-03-20T15:02:54Z</time>
      </trkpt>
      <trkpt lat="57.93721" lon="-6.82739">
        <ele>138.39</ele>
        <time>2021-03-20T15:02:58Z</time>
      </trkpt>
      <trkpt lat="57.93666" lon="-6.82813">
        <ele>133.18</ele>
        <time>2021-03-20T15:03:01Z</time>
      </trkpt>
      <trkpt lat="57.93578" lon="-6.82925">
        <ele>124.47</ele>
        <time>2021-03-20T15:03:04Z</time>
      </trkpt>
      <trkpt lat="57.93554" lon="-6.82945">
        <ele>120.83</ele>
        <time>2021-03-20T15:03:07Z</time>
      </trkpt>
      <trkpt lat="57.93525" lon="-6.82958">
        <ele>116.5</ele>
        <time>2021-03-20T15:03:10Z</time>
      </trkpt>
      <trkpt lat="57.93331" lon="-6.82989">
        <ele>95.38</ele>
        <time>2021-03-20T15:03:14Z</time>
      </trkpt>
      <trkpt lat="57.93265" lon="-6.82975">
        <ele>92.71</ele>
        <time>2021-03-20T15:03:17Z</time>
      </trkpt>
      <trkpt lat="57.93243" lon="-6.82978">
        <ele>90.97</ele>
        <time>2021-03-20T15:03:20Z</time>
      </trkpt>
      <trkpt lat="57.93216" lon="-6.82986">
        <ele>89.07</ele>
        <time>2021-03-20T15:03:23Z</time>
      </trkpt>
      <trkpt lat="57.93176" lon="-6.8301">
        <ele>86.06</ele>
        <time>2021-03-20T15:03:26Z</time>
      </trkpt>
      <trkpt lat="57.9313" lon="-6.83052">
        <ele>82.15</ele>
        <time>2021-03-20T15:03:30Z</time>
      </trkpt>
      <trkpt lat="57.93078" lon="-6.83107">
        <ele>75.47</ele>
        <time>2021-03-20T15:03:33Z</time>
      </trkpt>
      <trkpt lat="57.92892" lon="-6.83335">
        <ele>49.98</ele>
        <time>2021-03-20T15:03:36Z</time>
      </trkpt>
      <trkpt lat="57.92845" lon="-6.83406">
        <ele>41.59</ele>
        <time>2021-03-20T15:03:39Z</time>
      </trkpt>
      <trkpt lat="57.92809" lon="-6.83487">
        <ele>31.48</ele>
        <time>2021-03-20T15:03:42Z</time>
      </trkpt>
      <trkpt lat="57.92782" lon="-6.83573">
        <ele>24.39</ele>
        <time>2021-03-20T15:03:46Z</time>
      </trkpt>
      <trkpt lat="57.92767" lon="-6.8365">
        <ele>23.38</ele>
        <time>2021-03-20T15:03:49Z</time>
      </trkpt>
      <trkpt lat="57.92759" lon="-6.83698">
        <ele>22.58</ele>
        <time>2021-03-20T15:03:52Z</time>
      </trkpt>
      <trkpt lat="57.92729" lon="-6.83977">
        <ele>18.93</ele>
        <time>2021-03-20T15:03:55Z</time>
      </trkpt>
      <trkpt lat="57.9272" lon="-6.84031">
        <ele>19.54</ele>
        <time>2021-03-20T15:03:58Z</time>
      </trkpt>
      <trkpt lat="57.92664" lon="-6.84318">
        <ele>22.3</ele>
        <time>2021-03-20T15:04:02Z</time>
      </trkpt>
      <trkpt lat="57.92644" lon="-6.84396">
        <ele>22.52</ele>
        <time>2021-03-20T15:04:05Z</time>
      </trkpt>
      <trkpt lat="57.92618" lon="-6.84463">
        <ele>24.03</ele>
        <time>2021-03-20T15:04:08Z</time>
      </trkpt>
      <trkpt lat="57.92555" lon="-6.84587">
        <ele>28.76</ele>
        <time>2021-03-20T15:04:11Z</time>
      </trkpt>
      <trkpt lat="57.9251" lon="-6.84658">
        <ele>30.72</ele>
        <time>2021-03-20T15:04:14Z</time>
      </trkpt>
      <trkpt lat="57.92493" lon="-6.84671">
        <ele>32.42</ele>
        <time>2021-03-20T15:04:18Z</time>
      </trkpt>
      <trkpt lat="57.92454" lon="-6.84691">
        <ele>33.89</ele>
        <time>2021-03-20T15:04:21Z</time>
      </trkpt>
      <trkpt lat="57.9244" lon="-6.84693">
        <ele>34.09</ele>
        <time>2021-03-20T15:04:24Z</time>
      </trkpt>
      <trkpt lat="57.92416" lon="-6.8469">
        <ele>34.48</ele>
        <time>2021-03-20T15:04:27Z</time>
      </trkpt>
      <trkpt lat="57.92386" lon="-6.84691">
        <ele>35.38</ele>
        <time>2021-03-20T15:04:30Z</time>
      </trkpt>
      <trkpt lat="57.92327" lon="-6.84709">
        <ele>34.42</ele>
        <time>2021-03-20T15:04:34Z</time>
      </trkpt>
      <trkpt lat="57.92298" lon="-6.84722">
        <ele>34.96</ele>
        <time>2021-03-20T15:04:37Z</time>
      </trkpt>
      <trkpt lat="57.92268" lon="-6.84741">
        <ele>36.15</ele>
        <time>2021-03-20T15:04:40Z</time>
      </trkpt>
      <trkpt lat="57.92241" lon="-6.84763">
        <ele>36.72</ele>
        <time>2021-03-20T15:04:43Z</time>
      </trkpt>
      <trkpt lat="57.92091" lon="-6.84915">
        <ele>39.33</ele>
        <time>2021-03-20T15:04:46Z</time>
      </trkpt>
      <trkpt lat="57.92049" lon="-6.84947">
        <ele>41.73</ele>
        <time>2021-03-20T15:04:50Z</time>
      </trkpt>
      <trkpt lat="57.92005" lon="-6.84967">
        <ele>43.52</ele>
        <time>2021-03-20T15:04:53Z</time>
      </trkpt>
      <trkpt lat="57.91972" lon="-6.84977">
        <ele>44.32</ele>
        <time>2021-03-20T15:04:56Z</time>
      </trkpt>
      <trkpt lat="57.91929" lon="-6.84978">
        <ele>46.9</ele>
        <time>2021-03-20T15:04:59Z</time>
      </trkpt>
      <trkpt lat="57.9188" lon="-6.84976">
        <ele>48.64</ele>
        <time>2021-03-20T15:05:02Z</time>
      </trkpt>
      <trkpt lat="57.9176" lon="-6.84962">
        <ele>49.51</ele>
        <time>2021-03-20T15:05:06Z</time>
      </trkpt>
      <trkpt lat="57.91734" lon="-6.84954">
        <ele>49.1</ele>
        <time>2021-03-20T15:05:09Z</time>
      </trkpt>
      <trkpt lat="57.91709" lon="-6.84938">
        <ele>48.16</ele>
        <time>2021-03-20T15:05:12Z</time>
      </trkpt>
      <trkpt lat="57.9168" lon="-6.84919">
        <ele>45.46</ele>
        <time>2021-03-20T15:05:15Z</time>
      </trkpt>
      <trkpt lat="57.91663" lon="-6.84904">
        <ele>43.64</ele>
        <time>2021-03-20T15:05:18Z</time>
      </trkpt>
      <trkpt lat="57.91545" lon="-6.84784">
        <ele>33.4</ele>
        <time>2021-03-20T15:05:22Z</time>
      </trkpt>
      <trkpt lat="57.91417" lon="-6.84666">
        <ele>26.16</ele>
        <time>2021-03-20T15:05:25Z</time>
      </trkpt>
      <trkpt lat="57.91366" lon="-6.84612">
        <ele>26</ele>
        <time>2021-03-20T15:05:28Z</time>
      </trkpt>
      <trkpt lat="57.91284" lon="-6.84507">
        <ele>21.88</ele>
        <time>2021-03-20T15:05:31Z</time>
      </trkpt>
      <trkpt lat="57.9122" lon="-6.84445">
        <ele>23.36</ele>
        <time>2021-03-20T15:05:34Z</time>
      </trkpt>
      <trkpt lat="57.91184" lon="-6.84406">
        <ele>21.36</ele>
        <time>2021-03-20T15:05:38Z</time>
      </trkpt>
      <trkpt lat="57.91142" lon="-6.84347">
        <ele>18.19</ele>
        <time>2021-03-20T15:05:41Z</time>
      </trkpt>
      <trkpt lat="57.91076" lon="-6.84245">
        <ele>15.86</ele>
        <time>2021-03-20T15:05:44Z</time>
      </trkpt>
      <trkpt lat="57.91053" lon="-6.84202">
        <ele>14.23</ele>
        <time>2021-03-20T15:05:47Z</time>
      </trkpt>
      <trkpt lat="57.91041" lon="-6.84174">
        <ele>13.47</ele>
        <time>2021-03-20T15:05:50Z</time>
      </trkpt>
      <trkpt lat="57.91012" lon="-6.84098">
        <ele>13.15</ele>
        <time>2021-03-20T15:05:54Z</time>
      </trkpt>
      <trkpt lat="57.90953" lon="-6.83877">
        <ele>11.15</ele>
        <time>2021-03-20T15:05:57Z</time>
      </trkpt>
      <trkpt lat="57.90908" lon="-6.83686">
        <ele>12.4</ele>
        <time>2021-03-20T15:06:00Z</time>
      </trkpt>
      <trkpt lat="57.90892" lon="-6.83642">
        <ele>10.91</ele>
        <time>2021-03-20T15:06:03Z</time>
      </trkpt>
      <trkpt lat="57.9085" lon="-6.83568">
        <ele>11.08</ele>
        <time>2021-03-20T15:06:06Z</time>
      </trkpt>
      <trkpt lat="57.90826" lon="-6.8351">
        <ele>12.63</ele>
        <time>2021-03-20T15:06:10Z</time>
      </trkpt>
      <trkpt lat="57.90799" lon="-6.83427">
        <ele>15.08</ele>
        <time>2021-03-20T15:06:13Z</time>
      </trkpt>
      <trkpt lat="57.9073" lon="-6.83254">
        <ele>15.97</ele>
        <time>2021-03-20T15:06:16Z</time>
      </trkpt>
      <trkpt lat="57.90713" lon="-6.83197">
        <ele>16.31</ele>
        <time>2021-03-20T15:06:19Z</time>
      </trkpt>
      <trkpt lat="57.907" lon="-6.83121">
        <ele>16.61</ele>
        <time>2021-03-20T15:06:22Z</time>
      </trkpt>
      <trkpt lat="57.9066" lon="-6.82862">
        <ele>17.11</ele>
        <time>2021-03-20T15:06:26Z</time>
      </trkpt>
      <trkpt lat="57.90639" lon="-6.82761">
        <ele>18.4</ele>
        <time>2021-03-20T15:06:29Z</time>
      </trkpt>
      <trkpt lat="57.90607" lon="-6.82636">
        <ele>18.44</ele>
        <time>2021-03-20T15:06:32Z</time>
      </trkpt>
      <trkpt lat="57.90583" lon="-6.82562">
        <ele>17.7</ele>
        <time>2021-03-20T15:06:35Z</time>
      </trkpt>
      <trkpt lat="57.9053" lon="-6.82421">
        <ele>17.19</ele>
        <time>2021-03-20T15:06:38Z</time>
      </trkpt>
      <trkpt lat="57.90462" lon="-6.822">
        <ele>14.26</ele>
        <time>2021-03-20T15:06:42Z</time>
      </trkpt>
      <trkpt lat="57.90439" lon="-6.82129">
        <ele>14.84</ele>
        <time>2021-03-20T15:06:45Z</time>
      </trkpt>
      <trkpt lat="57.90422" lon="-6.82089">
        <ele>14.57</ele>
        <time>2021-03-20T15:06:48Z</time>
      </trkpt>
      <trkpt lat="57.90375" lon="-6.82005">
        <ele>12.1</ele>
        <time>2021-03-20T15:06:51Z</time>
      </trkpt>
      <trkpt lat="57.9036" lon="-6.81969">
        <ele>10.86</ele>
        <time>2021-03-20T15:06:54Z</time>
      </trkpt>
      <trkpt lat="57.90344" lon="-6.81915">
        <ele>8.39</ele>
        <time>2021-03-20T15:06:58Z</time>
      </trkpt>
      <trkpt lat="57.90269" lon="-6.81618">
        <ele>8.33</ele>
        <time>2021-03-20T15:07:01Z</time>
      </trkpt>
      <trkpt lat="57.90261" lon="-6.81591">
        <ele>8.52</ele>
        <time>2021-03-20T15:07:04Z</time>
      </trkpt>
      <trkpt lat="57.90252" lon="-6.8157">
        <ele>8.27</ele>
        <time>2021-03-20T15:07:07Z</time>
      </trkpt>
      <trkpt lat="57.90209" lon="-6.81499">
        <ele>7.62</ele>
        <time>2021-03-20T15:07:10Z</time>
      </trkpt>
      <trkpt lat="57.90123" lon="-6.81353">
        <ele>7.68</ele>
        <time>2021-03-20T15:07:14Z</time>
      </trkpt>
      <trkpt lat="57.90111" lon="-6.81329">
        <ele>8.18</ele>
        <time>2021-03-20T15:07:17Z</time>
      </trkpt>
      <trkpt lat="57.9007" lon="-6.81221">
        <ele>7.58</ele>
        <time>2021-03-20T15:07:20Z</time>
      </trkpt>
      <trkpt lat="57.90053" lon="-6.81182">
        <ele>6.34</ele>
        <time>2021-03-20T15:07:23Z</time>
      </trkpt>
      <trkpt lat="57.89975" lon="-6.81026">
        <ele>10.14</ele>
        <time>2021-03-20T15:07:26Z</time>
      </trkpt>
      <trkpt lat="57.89897" lon="-6.80881">
        <ele>19.49</ele>
        <time>2021-03-20T15:07:30Z</time>
      </trkpt>
      <trkpt lat="57.89884" lon="-6.80845">
        <ele>18.77</ele>
        <time>2021-03-20T15:07:33Z</time>
      </trkpt>
      <trkpt lat="57.89843" lon="-6.80703">
        <ele>13.82</ele>
        <time>2021-03-20T15:07:36Z</time>
      </trkpt>
      <trkpt lat="57.89814" lon="-6.80613">
        <ele>9.35</ele>
        <time>2021-03-20T15:07:39Z</time>
      </trkpt>
      <trkpt lat="57.898" lon="-6.80584">
        <ele>9.7</ele>
        <time>2021-03-20T15:07:42Z</time>
      </trkpt>
      <trkpt lat="57.89729" lon="-6.80466">
        <ele>20.96</ele>
        <time>2021-03-20T15:07:46Z</time>
      </trkpt>
      <trkpt lat="57.89721" lon="-6.8045">
        <ele>22.32</ele>
        <time>2021-03-20T15:07:49Z</time>
      </trkpt>
      <trkpt lat="57.89698" lon="-6.80375">
        <ele>19.19</ele>
        <time>2021-03-20T15:07:52Z</time>
      </trkpt>
      <trkpt lat="57.89673" lon="-6.80316">
        <ele>15.85</ele>
        <time>2021-03-20T15:07:55Z</time>
      </trkpt>
      <trkpt lat="57.89651" lon="-6.80283">
        <ele>21.4</ele>
        <time>2021-03-20T15:07:58Z</time>
      </trkpt>
      <trkpt lat="57.89596" lon="-6.80234">
        <ele>26.15</ele>
        <time>2021-03-20T15:08:02Z</time>
      </trkpt>
      <trkpt lat="57.89566" lon="-6.80201">
        <ele>26.36</ele>
        <time>2021-03-20T15:08:05Z</time>
      </trkpt>
      <trkpt lat="57.89529" lon="-6.80157">
        <ele>29.02</ele>
        <time>2021-03-20T15:08:08Z</time>
      </trkpt>
      <trkpt lat="57.89501" lon="-6.80108">
        <ele>30.55</ele>
        <time>2021-03-20T15:08:11Z</time>
      </trkpt>
      <trkpt lat="57.89481" lon="-6.80079">
        <ele>31.38</ele>
        <time>2021-03-20T15:08:14Z</time>
      </trkpt>
      <trkpt lat="57.89467" lon="-6.80066">
        <ele>31.43</ele>
        <time>2021-03-20T15:08:17Z</time>
      </trkpt>
      <trkpt lat="57.89447" lon="-6.80057">
        <ele>31.17</ele>
        <time>2021-03-20T15:08:21Z</time>
      </trkpt>
      <trkpt lat="57.89427" lon="-6.80058">
        <ele>31.94</ele>
        <time>2021-03-20T15:08:24Z</time>
      </trkpt>
      <trkpt lat="57.89386" lon="-6.80075">
        <ele>33.26</ele>
        <time>2021-03-20T15:08:27Z</time>
      </trkpt>
      <trkpt lat="57.89366" lon="-6.80073">
        <ele>33.71</ele>
        <time>2021-03-20T15:08:30Z</time>
      </trkpt>
      <trkpt lat="57.89355" lon="-6.80067">
        <ele>33.82</ele>
        <time>2021-03-20T15:08:33Z</time>
      </trkpt>
      <trkpt lat="57.89325" lon="-6.80038">
        <ele>33.83</ele>
        <time>2021-03-20T15:08:37Z</time>
      </trkpt>
      <trkpt lat="57.89307" lon="-6.80031">
        <ele>34.99</ele>
        <time>2021-03-20T15:08:40Z</time>
      </trkpt>
      <trkpt lat="57.89298" lon="-6.80031">
        <ele>34.85</ele>
        <time>2021-03-20T15:08:43Z</time>
      </trkpt>
      <trkpt lat="57.89282" lon="-6.80037">
        <ele>34.49</ele>
        <time>2021-03-20T15:08:46Z</time>
      </trkpt>
      <trkpt lat="57.89261" lon="-6.80056">
        <ele>33.87</ele>
        <time>2021-03-20T15:08:49Z</time>
      </trkpt>
      <trkpt lat="57.8925" lon="-6.80075">
        <ele>34.4</ele>
        <time>2021-03-20T15:08:53Z</time>
      </trkpt>
      <trkpt lat="57.89204" lon="-6.80168">
        <ele>32.44</ele>
        <time>2021-03-20T15:08:56Z</time>
      </trkpt>
      <trkpt lat="57.89187" lon="-6.80198">
        <ele>32.73</ele>
        <time>2021-03-20T15:08:59Z</time>
      </trkpt>
      <trkpt lat="57.89176" lon="-6.80214">
        <ele>33.06</ele>
        <time>2021-03-20T15:09:02Z</time>
      </trkpt>
      <trkpt lat="57.89167" lon="-6.80222">
        <ele>33.02</ele>
        <time>2021-03-20T15:09:05Z</time>
      </trkpt>
      <trkpt lat="57.89155" lon="-6.80228">
        <ele>34.3</ele>
        <time>2021-03-20T15:09:09Z</time>
      </trkpt>
      <trkpt lat="57.89141" lon="-6.80229">
        <ele>34.87</ele>
        <time>2021-03-20T15:09:12Z</time>
      </trkpt>
      <trkpt lat="57.89127" lon="-6.80226">
        <ele>34.55</ele>
        <time>2021-03-20T15:09:15Z</time>
      </trkpt>
      <trkpt lat="57.89074" lon="-6.80204">
        <ele>29.71</ele>
        <time>2021-03-20T15:09:18Z</time>
      </trkpt>
      <trkpt lat="57.89051" lon="-6.80204">
        <ele>28.93</ele>
        <time>2021-03-20T15:09:21Z</time>
      </trkpt>
      <trkpt lat="57.89023" lon="-6.80215">
        <ele>29.33</ele>
        <time>2021-03-20T15:09:25Z</time>
      </trkpt>
      <trkpt lat="57.88927" lon="-6.80306">
        <ele>29.2</ele>
        <time>2021-03-20T15:09:28Z</time>
      </trkpt>
      <trkpt lat="57.88907" lon="-6.80332">
        <ele>27.89</ele>
        <time>2021-03-20T15:09:31Z</time>
      </trkpt>
      <trkpt lat="57.88895" lon="-6.80357">
        <ele>27.51</ele>
        <time>2021-03-20T15:09:34Z</time>
      </trkpt>
      <trkpt lat="57.88884" lon="-6.80408">
        <ele>28.52</ele>
        <time>2021-03-20T15:09:37Z</time>
      </trkpt>
      <trkpt lat="57.88875" lon="-6.80594">
        <ele>29.33</ele>
        <time>2021-03-20T15:09:41Z</time>
      </trkpt>
      <trkpt lat="57.88869" lon="-6.80652">
        <ele>26.81</ele>
        <time>2021-03-20T15:09:44Z</time>
      </trkpt>
      <trkpt lat="57.88845" lon="-6.80759">
        <ele>22.86</ele>
        <time>2021-03-20T15:09:47Z</time>
      </trkpt>
      <trkpt lat="57.88801" lon="-6.80934">
        <ele>20.84</ele>
        <time>2021-03-20T15:09:50Z</time>
      </trkpt>
      <trkpt lat="57.88792" lon="-6.80955">
        <ele>20.91</ele>
        <time>2021-03-20T15:09:53Z</time>
      </trkpt>
      <trkpt lat="57.88762" lon="-6.81013">
        <ele>20.91</ele>
        <time>2021-03-20T15:09:57Z</time>
      </trkpt>
      <trkpt lat="57.88723" lon="-6.81075">
        <ele>22.46</ele>
        <time>2021-03-20T15:10:00Z</time>
      </trkpt>
      <trkpt lat="57.88706" lon="-6.81099">
        <ele>23.53</ele>
        <time>2021-03-20T15:10:03Z</time>
      </trkpt>
      <trkpt lat="57.88677" lon="-6.81121">
        <ele>23.95</ele>
        <time>2021-03-20T15:10:06Z</time>
      </trkpt>
      <trkpt lat="57.88646" lon="-6.81127">
        <ele>23.71</ele>
        <time>2021-03-20T15:10:09Z</time>
      </trkpt>
      <trkpt lat="57.88596" lon="-6.81123">
        <ele>26.5</ele>
        <time>2021-03-20T15:10:13Z</time>
      </trkpt>
      <trkpt lat="57.88572" lon="-6.81124">
        <ele>28.08</ele>
        <time>2021-03-20T15:10:16Z</time>
      </trkpt>
      <trkpt lat="57.88554" lon="-6.81128">
        <ele>28.98</ele>
        <time>2021-03-20T15:10:19Z</time>
      </trkpt>
      <trkpt lat="57.88463" lon="-6.81181">
        <ele>26.82</ele>
        <time>2021-03-20T15:10:22Z</time>
      </trkpt>
      <trkpt lat="57.88402" lon="-6.81238">
        <ele>23.5</ele>
        <time>2021-03-20T15:10:25Z</time>
      </trkpt>
      <trkpt lat="57.88368" lon="-6.81278">
        <ele>21.96</ele>
        <time>2021-03-20T15:10:29Z</time>
      </trkpt>
      <trkpt lat="57.88335" lon="-6.81327">
        <ele>22.41</ele>
        <time>2021-03-20T15:10:32Z</time>
      </trkpt>
      <trkpt lat="57.88327" lon="-6.81335">
        <ele>22.41</ele>
        <time>2021-03-20T15:10:35Z</time>
      </trkpt>
      <trkpt lat="57.88311" lon="-6.81363">
        <ele>22.63</ele>
        <time>2021-03-20T15:10:38Z</time>
      </trkpt>
      <trkpt lat="57.88196" lon="-6.81535">
        <ele>18.27</ele>
        <time>2021-03-20T15:10:41Z</time>
      </trkpt>
      <trkpt lat="57.88174" lon="-6.81576">
        <ele>23.36</ele>
        <time>2021-03-20T15:10:45Z</time>
      </trkpt>
      <trkpt lat="57.88148" lon="-6.81639">
        <ele>27.31</ele>
        <time>2021-03-20T15:10:48Z</time>
      </trkpt>
      <trkpt lat="57.88141" lon="-6.81664">
        <ele>28.08</ele>
        <time>2021-03-20T15:10:51Z</time>
      </trkpt>
      <trkpt lat="57.88119" lon="-6.8176">
        <ele>36.65</ele>
        <time>2021-03-20T15:10:54Z</time>
      </trkpt>
      <trkpt lat="57.8811" lon="-6.81787">
        <ele>39.32</ele>
        <time>2021-03-20T15:10:57Z</time>
      </trkpt>
      <trkpt lat="57.88102" lon="-6.81806">
        <ele>41.76</ele>
        <time>2021-03-20T15:11:01Z</time>
      </trkpt>
      <trkpt lat="57.88095" lon="-6.81819">
        <ele>43.05</ele>
        <time>2021-03-20T15:11:04Z</time>
      </trkpt>
      <trkpt lat="57.88075" lon="-6.81842">
        <ele>45.79</ele>
        <time>2021-03-20T15:11:07Z</time>
      </trkpt>
      <trkpt lat="57.88055" lon="-6.81852">
        <ele>49.04</ele>
        <time>2021-03-20T15:11:10Z</time>
      </trkpt>
      <trkpt lat="57.88042" lon="-6.81854">
        <ele>51.69</ele>
        <time>2021-03-20T15:11:13Z</time>
      </trkpt>
      <trkpt lat="57.87995" lon="-6.81836">
        <ele>54.88</ele>
        <time>2021-03-20T15:11:17Z</time>
      </trkpt>
      <trkpt lat="57.87984" lon="-6.81836">
        <ele>55.51</ele>
        <time>2021-03-20T15:11:20Z</time>
      </trkpt>
      <trkpt lat="57.87955" lon="-6.81844">
        <ele>57.29</ele>
        <time>2021-03-20T15:11:23Z</time>
      </trkpt>
      <trkpt lat="57.87931" lon="-6.81861">
        <ele>58.51</ele>
        <time>2021-03-20T15:11:26Z</time>
      </trkpt>
      <trkpt lat="57.87911" lon="-6.81887">
        <ele>59.87</ele>
        <time>2021-03-20T15:11:29Z</time>
      </trkpt>
      <trkpt lat="57.87893" lon="-6.81915">
        <ele>61.91</ele>
        <time>2021-03-20T15:11:33Z</time>
      </trkpt>
      <trkpt lat="57.8787" lon="-6.81939">
        <ele>62.93</ele>
        <time>2021-03-20T15:11:36Z</time>
      </trkpt>
      <trkpt lat="57.87856" lon="-6.81948">
        <ele>63.55</ele>
        <time>2021-03-20T15:11:39Z</time>
      </trkpt>
      <trkpt lat="57.87834" lon="-6.81958">
        <ele>65.44</ele>
        <time>2021-03-20T15:11:42Z</time>
      </trkpt>
      <trkpt lat="57.87805" lon="-6.8196">
        <ele>66.55</ele>
        <time>2021-03-20T15:11:45Z</time>
      </trkpt>
      <trkpt lat="57.87504" lon="-6.81944">
        <ele>74</ele>
        <time>2021-03-20T15:11:49Z</time>
      </trkpt>
      <trkpt lat="57.87414" lon="-6.81942">
        <ele>77.17</ele>
        <time>2021-03-20T15:11:52Z</time>
      </trkpt>
      <trkpt lat="57.87353" lon="-6.81937">
        <ele>81</ele>
        <time>2021-03-20T15:11:55Z</time>
      </trkpt>
      <trkpt lat="57.87326" lon="-6.81929">
        <ele>80.73</ele>
        <time>2021-03-20T15:11:58Z</time>
      </trkpt>
      <trkpt lat="57.87299" lon="-6.81909">
        <ele>79.51</ele>
        <time>2021-03-20T15:12:01Z</time>
      </trkpt>
      <trkpt lat="57.8728" lon="-6.81887">
        <ele>78.18</ele>
        <time>2021-03-20T15:12:05Z</time>
      </trkpt>
      <trkpt lat="57.87256" lon="-6.81845">
        <ele>76.89</ele>
        <time>2021-03-20T15:12:08Z</time>
      </trkpt>
      <trkpt lat="57.87215" lon="-6.81759">
        <ele>75.74</ele>
        <time>2021-03-20T15:12:11Z</time>
      </trkpt>
      <trkpt lat="57.87191" lon="-6.81731">
        <ele>75</ele>
        <time>2021-03-20T15:12:14Z</time>
      </trkpt>
      <trkpt lat="57.87171" lon="-6.81714">
        <ele>75</ele>
        <time>2021-03-20T15:12:17Z</time>
      </trkpt>
      <trkpt lat="57.87152" lon="-6.81707">
        <ele>75.53</ele>
        <time>2021-03-20T15:12:21Z</time>
      </trkpt>
      <trkpt lat="57.87111" lon="-6.81704">
        <ele>76.99</ele>
        <time>2021-03-20T15:12:24Z</time>
      </trkpt>
      <trkpt lat="57.8706" lon="-6.81716">
        <ele>77.77</ele>
        <time>2021-03-20T15:12:27Z</time>
      </trkpt>
      <trkpt lat="57.87019" lon="-6.81739">
        <ele>78.92</ele>
        <time>2021-03-20T15:12:30Z</time>
      </trkpt>
      <trkpt lat="57.86957" lon="-6.81794">
        <ele>83.82</ele>
        <time>2021-03-20T15:12:33Z</time>
      </trkpt>
      <trkpt lat="57.86933" lon="-6.81812">
        <ele>84.42</ele>
        <time>2021-03-20T15:12:37Z</time>
      </trkpt>
      <trkpt lat="57.86899" lon="-6.81829">
        <ele>85</ele>
        <time>2021-03-20T15:12:40Z</time>
      </trkpt>
      <trkpt lat="57.86865" lon="-6.81836">
        <ele>85.11</ele>
        <time>2021-03-20T15:12:43Z</time>
      </trkpt>
      <trkpt lat="57.86836" lon="-6.81836">
        <ele>85.08</ele>
        <time>2021-03-20T15:12:46Z</time>
      </trkpt>
      <trkpt lat="57.86781" lon="-6.81827">
        <ele>82.01</ele>
        <time>2021-03-20T15:12:49Z</time>
      </trkpt>
      <trkpt lat="57.86749" lon="-6.81827">
        <ele>79.73</ele>
        <time>2021-03-20T15:12:53Z</time>
      </trkpt>
      <trkpt lat="57.86713" lon="-6.81834">
        <ele>78.72</ele>
        <time>2021-03-20T15:12:56Z</time>
      </trkpt>
      <trkpt lat="57.86674" lon="-6.81853">
        <ele>78.68</ele>
        <time>2021-03-20T15:12:59Z</time>
      </trkpt>
      <trkpt lat="57.86645" lon="-6.81879">
        <ele>79.32</ele>
        <time>2021-03-20T15:13:02Z</time>
      </trkpt>
      <trkpt lat="57.8659" lon="-6.8196">
        <ele>81.07</ele>
        <time>2021-03-20T15:13:05Z</time>
      </trkpt>
      <trkpt lat="57.86557" lon="-6.81994">
        <ele>77.93</ele>
        <time>2021-03-20T15:13:09Z</time>
      </trkpt>
      <trkpt lat="57.86504" lon="-6.82024">
        <ele>76.87</ele>
        <time>2021-03-20T15:13:12Z</time>
      </trkpt>
      <trkpt lat="57.8648" lon="-6.82031">
        <ele>77.1</ele>
        <time>2021-03-20T15:13:15Z</time>
      </trkpt>
      <trkpt lat="57.86462" lon="-6.82032">
        <ele>77.5</ele>
        <time>2021-03-20T15:13:18Z</time>
      </trkpt>
      <trkpt lat="57.86437" lon="-6.82028">
        <ele>78.28</ele>
        <time>2021-03-20T15:13:21Z</time>
      </trkpt>
      <trkpt lat="57.86399" lon="-6.82011">
        <ele>80.02</ele>
        <time>2021-03-20T15:13:25Z</time>
      </trkpt>
      <trkpt lat="57.86364" lon="-6.81982">
        <ele>82.54</ele>
        <time>2021-03-20T15:13:28Z</time>
      </trkpt>
      <trkpt lat="57.86297" lon="-6.81915">
        <ele>83.99</ele>
        <time>2021-03-20T15:13:31Z</time>
      </trkpt>
      <trkpt lat="57.86261" lon="-6.81867">
        <ele>83.13</ele>
        <time>2021-03-20T15:13:34Z</time>
      </trkpt>
      <trkpt lat="57.86204" lon="-6.81766">
        <ele>81.38</ele>
        <time>2021-03-20T15:13:37Z</time>
      </trkpt>
      <trkpt lat="57.86169" lon="-6.8172">
        <ele>80.86</ele>
        <time>2021-03-20T15:13:40Z</time>
      </trkpt>
      <trkpt lat="57.8608" lon="-6.81631">
        <ele>84.43</ele>
        <time>2021-03-20T15:13:44Z</time>
      </trkpt>
      <trkpt lat="57.86015" lon="-6.81554">
        <ele>85.79</ele>
        <time>2021-03-20T15:13:47Z</time>
      </trkpt>
      <trkpt lat="57.85975" lon="-6.81514">
        <ele>85.24</ele>
        <time>2021-03-20T15:13:50Z</time>
      </trkpt>
      <trkpt lat="57.8595" lon="-6.81497">
        <ele>85.4</ele>
        <time>2021-03-20T15:13:53Z</time>
      </trkpt>
      <trkpt lat="57.85902" lon="-6.81484">
        <ele>86.88</ele>
        <time>2021-03-20T15:13:56Z</time>
      </trkpt>
      <trkpt lat="57.85879" lon="-6.81486">
        <ele>86.82</ele>
        <time>2021-03-20T15:14:00Z</time>
      </trkpt>
      <trkpt lat="57.85774" lon="-6.81502">
        <ele>86.48</ele>
        <time>2021-03-20T15:14:03Z</time>
      </trkpt>
      <trkpt lat="57.85715" lon="-6.81524">
        <ele>90.64</ele>
        <time>2021-03-20T15:14:06Z</time>
      </trkpt>
      <trkpt lat="57.85553" lon="-6.81624">
        <ele>99.56</ele>
        <time>2021-03-20T15:14:09Z</time>
      </trkpt>
      <trkpt lat="57.85525" lon="-6.81645">
        <ele>100.89</ele>
        <time>2021-03-20T15:14:12Z</time>
      </trkpt>
      <trkpt lat="57.85503" lon="-6.8167">
        <ele>100.23</ele>
        <time>2021-03-20T15:14:16Z</time>
      </trkpt>
      <trkpt lat="57.85478" lon="-6.8171">
        <ele>100.77</ele>
        <time>2021-03-20T15:14:19Z</time>
      </trkpt>
      <trkpt lat="57.85455" lon="-6.8176">
        <ele>101.01</ele>
        <time>2021-03-20T15:14:22Z</time>
      </trkpt>
      <trkpt lat="57.85434" lon="-6.81829">
        <ele>100.63</ele>
        <time>2021-03-20T15:14:25Z</time>
      </trkpt>
      <trkpt lat="57.85407" lon="-6.81894">
        <ele>102.68</ele>
        <time>2021-03-20T15:14:28Z</time>
      </trkpt>
      <trkpt lat="57.85369" lon="-6.81954">
        <ele>107.22</ele>
        <time>2021-03-20T15:14:32Z</time>
      </trkpt>
      <trkpt lat="57.8535" lon="-6.81973">
        <ele>109.02</ele>
        <time>2021-03-20T15:14:35Z</time>
      </trkpt>
      <trkpt lat="57.85328" lon="-6.81989">
        <ele>110.17</ele>
        <time>2021-03-20T15:14:38Z</time>
      </trkpt>
      <trkpt lat="57.84998" lon="-6.82182">
        <ele>124.12</ele>
        <time>2021-03-20T15:14:41Z</time>
      </trkpt>
      <trkpt lat="57.84965" lon="-6.82208">
        <ele>127.32</ele>
        <time>2021-03-20T15:14:44Z</time>
      </trkpt>
      <trkpt lat="57.84931" lon="-6.82242">
        <ele>128.35</ele>
        <time>2021-03-20T15:14:48Z</time>
      </trkpt>
      <trkpt lat="57.84892" lon="-6.82285">
        <ele>127.47</ele>
        <time>2021-03-20T15:14:51Z</time>
      </trkpt>
      <trkpt lat="57.84866" lon="-6.82309">
        <ele>129.61</ele>
        <time>2021-03-20T15:14:54Z</time>
      </trkpt>
      <trkpt lat="57.84831" lon="-6.82332">
        <ele>131.33</ele>
        <time>2021-03-20T15:14:57Z</time>
      </trkpt>
      <trkpt lat="57.84758" lon="-6.82338">
        <ele>126.42</ele>
        <time>2021-03-20T15:15:00Z</time>
      </trkpt>
      <trkpt lat="57.84729" lon="-6.82354">
        <ele>129.74</ele>
        <time>2021-03-20T15:15:04Z</time>
      </trkpt>
      <trkpt lat="57.84701" lon="-6.82381">
        <ele>132.56</ele>
        <time>2021-03-20T15:15:07Z</time>
      </trkpt>
      <trkpt lat="57.84676" lon="-6.82416">
        <ele>134.98</ele>
        <time>2021-03-20T15:15:10Z</time>
      </trkpt>
      <trkpt lat="57.84654" lon="-6.82463">
        <ele>136.13</ele>
        <time>2021-03-20T15:15:13Z</time>
      </trkpt>
      <trkpt lat="57.84638" lon="-6.8251">
        <ele>137.4</ele>
        <time>2021-03-20T15:15:16Z</time>
      </trkpt>
      <trkpt lat="57.84627" lon="-6.82566">
        <ele>138.68</ele>
        <time>2021-03-20T15:15:20Z</time>
      </trkpt>
      <trkpt lat="57.84623" lon="-6.82608">
        <ele>138.56</ele>
        <time>2021-03-20T15:15:23Z</time>
      </trkpt>
      <trkpt lat="57.84622" lon="-6.82662">
        <ele>138.62</ele>
        <time>2021-03-20T15:15:26Z</time>
      </trkpt>
      <trkpt lat="57.84624" lon="-6.82717">
        <ele>137.55</ele>
        <time>2021-03-20T15:15:29Z</time>
      </trkpt>
      <trkpt lat="57.84628" lon="-6.82773">
        <ele>134.42</ele>
        <time>2021-03-20T15:15:32Z</time>
      </trkpt>
      <trkpt lat="57.84638" lon="-6.82864">
        <ele>129.81</ele>
        <time>2021-03-20T15:15:36Z</time>
      </trkpt>
      <trkpt lat="57.84657" lon="-6.82996">
        <ele>122.22</ele>
        <time>2021-03-20T15:15:39Z</time>
      </trkpt>
      <trkpt lat="57.84679" lon="-6.83102">
        <ele>115.62</ele>
        <time>2021-03-20T15:15:42Z</time>
      </trkpt>
      <trkpt lat="57.84662" lon="-6.83114">
        <ele>113.43</ele>
        <time>2021-03-20T15:15:44Z</time>
      </trkpt>
      <trkpt lat="57.84646" lon="-6.8312">
        <ele>111.89</ele>
        <time>2021-03-20T15:15:46Z</time>
      </trkpt>
      <trkpt lat="57.84605" lon="-6.83128">
        <ele>108.75</ele>
        <time>2021-03-20T15:15:47Z</time>
      </trkpt>
      <trkpt lat="57.84457" lon="-6.83125">
        <ele>99.92</ele>
        <time>2021-03-20T15:15:49Z</time>
      </trkpt>
      <trkpt lat="57.84447" lon="-6.83119">
        <ele>99.61</ele>
        <time>2021-03-20T15:15:51Z</time>
      </trkpt>
      <trkpt lat="57.84442" lon="-6.83113">
        <ele>99.58</ele>
        <time>2021-03-20T15:15:53Z</time>
      </trkpt>
      <trkpt lat="57.84412" lon="-6.83071">
        <ele>98.5</ele>
        <time>2021-03-20T15:15:54Z</time>
      </trkpt>
      <trkpt lat="57.84406" lon="-6.8307">
        <ele>98.18</ele>
        <time>2021-03-20T15:15:56Z</time>
      </trkpt>
      <trkpt lat="57.84397" lon="-6.83077">
        <ele>97.06</ele>
        <time>2021-03-20T15:15:58Z</time>
      </trkpt>
      <trkpt lat="57.84395" lon="-6.83091">
        <ele>96.15</ele>
        <time>2021-03-20T15:16:00Z</time>
      </trkpt>
      <trkpt lat="57.84395" lon="-6.83098">
        <ele>95.93</ele>
        <time>2021-03-20T15:16:01Z</time>
      </trkpt>
      <trkpt lat="57.84402" lon="-6.8314">
        <ele>93.93</ele>
        <time>2021-03-20T15:16:03Z</time>
      </trkpt>
      <trkpt lat="57.84423" lon="-6.83314">
        <ele>88.4</ele>
        <time>2021-03-20T15:16:05Z</time>
      </trkpt>
      <trkpt lat="57.84421" lon="-6.83339">
        <ele>88.31</ele>
        <time>2021-03-20T15:16:06Z</time>
      </trkpt>
      <trkpt lat="57.84416" lon="-6.83352">
        <ele>88.66</ele>
        <time>2021-03-20T15:16:08Z</time>
      </trkpt>
      <trkpt lat="57.8441" lon="-6.8336">
        <ele>88.94</ele>
        <time>2021-03-20T15:16:10Z</time>
      </trkpt>
      <trkpt lat="57.844" lon="-6.83362">
        <ele>89.02</ele>
        <time>2021-03-20T15:16:12Z</time>
      </trkpt>
      <trkpt lat="57.84357" lon="-6.83343">
        <ele>87.09</ele>
        <time>2021-03-20T15:16:13Z</time>
      </trkpt>
      <trkpt lat="57.84328" lon="-6.83325">
        <ele>84.36</ele>
        <time>2021-03-20T15:16:15Z</time>
      </trkpt>
      <trkpt lat="57.84299" lon="-6.833">
        <ele>82.11</ele>
        <time>2021-03-20T15:16:17Z</time>
      </trkpt>
      <trkpt lat="57.84284" lon="-6.83283">
        <ele>80.45</ele>
        <time>2021-03-20T15:16:19Z</time>
      </trkpt>
      <trkpt lat="57.84237" lon="-6.83214">
        <ele>75.71</ele>
        <time>2021-03-20T15:16:20Z</time>
      </trkpt>
      <trkpt lat="57.84203" lon="-6.83177">
        <ele>73.36</ele>
        <time>2021-03-20T15:16:22Z</time>
      </trkpt>
      <trkpt lat="57.84188" lon="-6.83168">
        <ele>72.24</ele>
        <time>2021-03-20T15:16:24Z</time>
      </trkpt>
      <trkpt lat="57.84161" lon="-6.83176">
        <ele>69.34</ele>
        <time>2021-03-20T15:16:25Z</time>
      </trkpt>
      <trkpt lat="57.84149" lon="-6.83184">
        <ele>68.47</ele>
        <time>2021-03-20T15:16:27Z</time>
      </trkpt>
      <trkpt lat="57.84132" lon="-6.83202">
        <ele>67.51</ele>
        <time>2021-03-20T15:16:29Z</time>
      </trkpt>
      <trkpt lat="57.84109" lon="-6.8324">
        <ele>66.65</ele>
        <time>2021-03-20T15:16:31Z</time>
      </trkpt>
      <trkpt lat="57.84088" lon="-6.83284">
        <ele>67.38</ele>
        <time>2021-03-20T15:16:32Z</time>
      </trkpt>
      <trkpt lat="57.84035" lon="-6.83403">
        <ele>69.76</ele>
        <time>2021-03-20T15:16:34Z</time>
      </trkpt>
      <trkpt lat="57.84022" lon="-6.83417">
        <ele>69.78</ele>
        <time>2021-03-20T15:16:36Z</time>
      </trkpt>
      <trkpt lat="57.83954" lon="-6.83454">
        <ele>66.85</ele>
        <time>2021-03-20T15:16:38Z</time>
      </trkpt>
      <trkpt lat="57.83943" lon="-6.83458">
        <ele>66.47</ele>
        <time>2021-03-20T15:16:39Z</time>
      </trkpt>
      <trkpt lat="57.83926" lon="-6.8345">
        <ele>66.21</ele>
        <time>2021-03-20T15:16:41Z</time>
      </trkpt>
      <trkpt lat="57.83897" lon="-6.8343">
        <ele>65.47</ele>
        <time>2021-03-20T15:16:43Z</time>
      </trkpt>
      <trkpt lat="57.83879" lon="-6.83421">
        <ele>64.81</ele>
        <time>2021-03-20T15:16:45Z</time>
      </trkpt>
      <trkpt lat="57.83819" lon="-6.83417">
        <ele>61.45</ele>
        <time>2021-03-20T15:16:46Z</time>
      </trkpt>
      <trkpt lat="57.83797" lon="-6.8341">
        <ele>59.31</ele>
        <time>2021-03-20T15:16:48Z</time>
      </trkpt>
      <trkpt lat="57.83764" lon="-6.83381">
        <ele>57.4</ele>
        <time>2021-03-20T15:16:50Z</time>
      </trkpt>
      <trkpt lat="57.83746" lon="-6.83376">
        <ele>56.83</ele>
        <time>2021-03-20T15:16:51Z</time>
      </trkpt>
      <trkpt lat="57.83734" lon="-6.83381">
        <ele>56.18</ele>
        <time>2021-03-20T15:16:53Z</time>
      </trkpt>
      <trkpt lat="57.83722" lon="-6.8339">
        <ele>54.92</ele>
        <time>2021-03-20T15:16:55Z</time>
      </trkpt>
      <trkpt lat="57.83711" lon="-6.83403">
        <ele>53.94</ele>
        <time>2021-03-20T15:16:57Z</time>
      </trkpt>
      <trkpt lat="57.83702" lon="-6.8342">
        <ele>51.92</ele>
        <time>2021-03-20T15:16:58Z</time>
      </trkpt>
      <trkpt lat="57.83694" lon="-6.83443">
        <ele>49.19</ele>
        <time>2021-03-20T15:17:00Z</time>
      </trkpt>
      <trkpt lat="57.83688" lon="-6.835">
        <ele>45.76</ele>
        <time>2021-03-20T15:17:02Z</time>
      </trkpt>
      <trkpt lat="57.83683" lon="-6.83525">
        <ele>44.69</ele>
        <time>2021-03-20T15:17:04Z</time>
      </trkpt>
      <trkpt lat="57.83675" lon="-6.83541">
        <ele>43.84</ele>
        <time>2021-03-20T15:17:05Z</time>
      </trkpt>
      <trkpt lat="57.83663" lon="-6.83551">
        <ele>42.92</ele>
        <time>2021-03-20T15:17:07Z</time>
      </trkpt>
      <trkpt lat="57.83646" lon="-6.8355">
        <ele>41.87</ele>
        <time>2021-03-20T15:17:09Z</time>
      </trkpt>
      <trkpt lat="57.83617" lon="-6.83537">
        <ele>42.31</ele>
        <time>2021-03-20T15:17:10Z</time>
      </trkpt>
      <trkpt lat="57.83609" lon="-6.83539">
        <ele>42.34</ele>
        <time>2021-03-20T15:17:12Z</time>
      </trkpt>
      <trkpt lat="57.83596" lon="-6.83548">
        <ele>42.6</ele>
        <time>2021-03-20T15:17:14Z</time>
      </trkpt>
      <trkpt lat="57.83584" lon="-6.83568">
        <ele>42.05</ele>
        <time>2021-03-20T15:17:16Z</time>
      </trkpt>
      <trkpt lat="57.8358" lon="-6.83584">
        <ele>41.33</ele>
        <time>2021-03-20T15:17:17Z</time>
      </trkpt>
      <trkpt lat="57.83575" lon="-6.83653">
        <ele>38.43</ele>
        <time>2021-03-20T15:17:19Z</time>
      </trkpt>
      <trkpt lat="57.83546" lon="-6.83773">
        <ele>34.03</ele>
        <time>2021-03-20T15:17:21Z</time>
      </trkpt>
      <trkpt lat="57.83541" lon="-6.83784">
        <ele>33.53</ele>
        <time>2021-03-20T15:17:23Z</time>
      </trkpt>
      <trkpt lat="57.83533" lon="-6.83791">
        <ele>33.3</ele>
        <time>2021-03-20T15:17:24Z</time>
      </trkpt>
      <trkpt lat="57.83525" lon="-6.83795">
        <ele>33.28</ele>
        <time>2021-03-20T15:17:26Z</time>
      </trkpt>
      <trkpt lat="57.83496" lon="-6.838">
        <ele>33.6</ele>
        <time>2021-03-20T15:17:28Z</time>
      </trkpt>
      <trkpt lat="57.83485" lon="-6.83809">
        <ele>32.7</ele>
        <time>2021-03-20T15:17:30Z</time>
      </trkpt>
      <trkpt lat="57.83475" lon="-6.83821">
        <ele>31.83</ele>
        <time>2021-03-20T15:17:31Z</time>
      </trkpt>
      <trkpt lat="57.83468" lon="-6.83834">
        <ele>30.8</ele>
        <time>2021-03-20T15:17:33Z</time>
      </trkpt>
      <trkpt lat="57.8346" lon="-6.83856">
        <ele>28.53</ele>
        <time>2021-03-20T15:17:35Z</time>
      </trkpt>
      <trkpt lat="57.83441" lon="-6.83956">
        <ele>21.29</ele>
        <time>2021-03-20T15:17:36Z</time>
      </trkpt>
      <trkpt lat="57.83431" lon="-6.83992">
        <ele>19.28</ele>
        <time>2021-03-20T15:17:38Z</time>
      </trkpt>
      <trkpt lat="57.83419" lon="-6.84023">
        <ele>18.25</ele>
        <time>2021-03-20T15:17:40Z</time>
      </trkpt>
      <trkpt lat="57.83405" lon="-6.84054">
        <ele>18</ele>
        <time>2021-03-20T15:17:42Z</time>
      </trkpt>
      <trkpt lat="57.83396" lon="-6.84088">
        <ele>17.52</ele>
        <time>2021-03-20T15:17:43Z</time>
      </trkpt>
      <trkpt lat="57.83378" lon="-6.8423">
        <ele>13.62</ele>
        <time>2021-03-20T15:17:45Z</time>
      </trkpt>
      <trkpt lat="57.83372" lon="-6.84252">
        <ele>11.68</ele>
        <time>2021-03-20T15:17:47Z</time>
      </trkpt>
      <trkpt lat="57.8336" lon="-6.84275">
        <ele>9.92</ele>
        <time>2021-03-20T15:17:49Z</time>
      </trkpt>
      <trkpt lat="57.83352" lon="-6.84286">
        <ele>8.41</ele>
        <time>2021-03-20T15:17:50Z</time>
      </trkpt>
      <trkpt lat="57.83333" lon="-6.84324">
        <ele>4.34</ele>
        <time>2021-03-20T15:17:52Z</time>
      </trkpt>
      <trkpt lat="57.83323" lon="-6.84348">
        <ele>3.46</ele>
        <time>2021-03-20T15:17:54Z</time>
      </trkpt>
      <trkpt lat="57.83315" lon="-6.84376">
        <ele>3</ele>
        <time>2021-03-20T15:17:55Z</time>
      </trkpt>
      <trkpt lat="57.83306" lon="-6.84418">
        <ele>4.03</ele>
        <time>2021-03-20T15:17:57Z</time>
      </trkpt>
      <trkpt lat="57.833" lon="-6.8448">
        <ele>6.47</ele>
        <time>2021-03-20T15:17:59Z</time>
      </trkpt>
      <trkpt lat="57.83298" lon="-6.84528">
        <ele>8.28</ele>
        <time>2021-03-20T15:18:01Z</time>
      </trkpt>
      <trkpt lat="57.83291" lon="-6.8458">
        <ele>11.74</ele>
        <time>2021-03-20T15:18:02Z</time>
      </trkpt>
      <trkpt lat="57.83282" lon="-6.84594">
        <ele>12.77</ele>
        <time>2021-03-20T15:18:04Z</time>
      </trkpt>
      <trkpt lat="57.83275" lon="-6.84596">
        <ele>12.88</ele>
        <time>2021-03-20T15:18:06Z</time>
      </trkpt>
      <trkpt lat="57.83238" lon="-6.84575">
        <ele>10.94</ele>
        <time>2021-03-20T15:18:08Z</time>
      </trkpt>
      <trkpt lat="57.8322" lon="-6.84569">
        <ele>9.85</ele>
        <time>2021-03-20T15:18:09Z</time>
      </trkpt>
      <trkpt lat="57.83197" lon="-6.84567">
        <ele>7.98</ele>
        <time>2021-03-20T15:18:11Z</time>
      </trkpt>
      <trkpt lat="57.83191" lon="-6.8457">
        <ele>7.87</ele>
        <time>2021-03-20T15:18:13Z</time>
      </trkpt>
      <trkpt lat="57.83187" lon="-6.84577">
        <ele>8.06</ele>
        <time>2021-03-20T15:18:14Z</time>
      </trkpt>
      <trkpt lat="57.83174" lon="-6.84631">
        <ele>9.49</ele>
        <time>2021-03-20T15:18:16Z</time>
      </trkpt>
      <trkpt lat="57.83157" lon="-6.84739">
        <ele>11.19</ele>
        <time>2021-03-20T15:18:18Z</time>
      </trkpt>
      <trkpt lat="57.83142" lon="-6.84794">
        <ele>11.34</ele>
        <time>2021-03-20T15:18:20Z</time>
      </trkpt>
      <trkpt lat="57.83125" lon="-6.84842">
        <ele>9.15</ele>
        <time>2021-03-20T15:18:21Z</time>
      </trkpt>
      <trkpt lat="57.83096" lon="-6.84886">
        <ele>7.41</ele>
        <time>2021-03-20T15:18:23Z</time>
      </trkpt>
      <trkpt lat="57.8307" lon="-6.84912">
        <ele>7.74</ele>
        <time>2021-03-20T15:18:25Z</time>
      </trkpt>
      <trkpt lat="57.83045" lon="-6.84931">
        <ele>9.07</ele>
        <time>2021-03-20T15:18:27Z</time>
      </trkpt>
      <trkpt lat="57.83004" lon="-6.84969">
        <ele>15.52</ele>
        <time>2021-03-20T15:18:28Z</time>
      </trkpt>
      <trkpt lat="57.82981" lon="-6.84998">
        <ele>14.97</ele>
        <time>2021-03-20T15:18:30Z</time>
      </trkpt>
      <trkpt lat="57.82977" lon="-6.85008">
        <ele>14.11</ele>
        <time>2021-03-20T15:18:32Z</time>
      </trkpt>
      <trkpt lat="57.82973" lon="-6.85032">
        <ele>12.08</ele>
        <time>2021-03-20T15:18:34Z</time>
      </trkpt>
      <trkpt lat="57.82977" lon="-6.85052">
        <ele>12.13</ele>
        <time>2021-03-20T15:18:35Z</time>
      </trkpt>
      <trkpt lat="57.8299" lon="-6.85093">
        <ele>12.2</ele>
        <time>2021-03-20T15:18:37Z</time>
      </trkpt>
      <trkpt lat="57.8302" lon="-6.85159">
        <ele>11.67</ele>
        <time>2021-03-20T15:18:39Z</time>
      </trkpt>
      <trkpt lat="57.83029" lon="-6.85175">
        <ele>11.2</ele>
        <time>2021-03-20T15:18:40Z</time>
      </trkpt>
      <trkpt lat="57.83049" lon="-6.85194">
        <ele>10.64</ele>
        <time>2021-03-20T15:18:42Z</time>
      </trkpt>
      <trkpt lat="57.83083" lon="-6.85233">
        <ele>10.76</ele>
        <time>2021-03-20T15:18:44Z</time>
      </trkpt>
      <trkpt lat="57.83094" lon="-6.85259">
        <ele>9.94</ele>
        <time>2021-03-20T15:18:46Z</time>
      </trkpt>
      <trkpt lat="57.83098" lon="-6.85281">
        <ele>8.97</ele>
        <time>2021-03-20T15:18:47Z</time>
      </trkpt>
      <trkpt lat="57.8311" lon="-6.8531">
        <ele>8.54</ele>
        <time>2021-03-20T15:18:49Z</time>
      </trkpt>
      <trkpt lat="57.83136" lon="-6.85348">
        <ele>9.54</ele>
        <time>2021-03-20T15:18:51Z</time>
      </trkpt>
      <trkpt lat="57.83157" lon="-6.85375">
        <ele>10.68</ele>
        <time>2021-03-20T15:18:53Z</time>
      </trkpt>
      <trkpt lat="57.8317" lon="-6.854">
        <ele>11.4</ele>
        <time>2021-03-20T15:18:54Z</time>
      </trkpt>
      <trkpt lat="57.8318" lon="-6.8543">
        <ele>12.04</ele>
        <time>2021-03-20T15:18:56Z</time>
      </trkpt>
      <trkpt lat="57.83186" lon="-6.85474">
        <ele>10.72</ele>
        <time>2021-03-20T15:18:58Z</time>
      </trkpt>
      <trkpt lat="57.83203" lon="-6.85548">
        <ele>10.86</ele>
        <time>2021-03-20T15:18:59Z</time>
      </trkpt>
      <trkpt lat="57.8322" lon="-6.85592">
        <ele>11.01</ele>
        <time>2021-03-20T15:19:01Z</time>
      </trkpt>
      <trkpt lat="57.83268" lon="-6.85685">
        <ele>11.2</ele>
        <time>2021-03-20T15:19:03Z</time>
      </trkpt>
      <trkpt lat="57.83287" lon="-6.8574">
        <ele>12.33</ele>
        <time>2021-03-20T15:19:05Z</time>
      </trkpt>
      <trkpt lat="57.83291" lon="-6.85759">
        <ele>12.49</ele>
        <time>2021-03-20T15:19:06Z</time>
      </trkpt>
      <trkpt lat="57.8329" lon="-6.85784">
        <ele>11.12</ele>
        <time>2021-03-20T15:19:08Z</time>
      </trkpt>
      <trkpt lat="57.8326" lon="-6.85906">
        <ele>5.88</ele>
        <time>2021-03-20T15:19:10Z</time>
      </trkpt>
      <trkpt lat="57.83254" lon="-6.85919">
        <ele>5.84</ele>
        <time>2021-03-20T15:19:12Z</time>
      </trkpt>
      <trkpt lat="57.83249" lon="-6.85925">
        <ele>6.02</ele>
        <time>2021-03-20T15:19:13Z</time>
      </trkpt>
      <trkpt lat="57.83238" lon="-6.85931">
        <ele>6.2</ele>
        <time>2021-03-20T15:19:15Z</time>
      </trkpt>
      <trkpt lat="57.8323" lon="-6.85931">
        <ele>6.34</ele>
        <time>2021-03-20T15:19:17Z</time>
      </trkpt>
      <trkpt lat="57.8322" lon="-6.85926">
        <ele>6.7</ele>
        <time>2021-03-20T15:19:18Z</time>
      </trkpt>
      <trkpt lat="57.83206" lon="-6.85904">
        <ele>7.45</ele>
        <time>2021-03-20T15:19:20Z</time>
      </trkpt>
      <trkpt lat="57.83197" lon="-6.85879">
        <ele>8</ele>
        <time>2021-03-20T15:19:22Z</time>
      </trkpt>
      <trkpt lat="57.83191" lon="-6.85855">
        <ele>7.98</ele>
        <time>2021-03-20T15:19:24Z</time>
      </trkpt>
      <trkpt lat="57.83182" lon="-6.858">
        <ele>8.64</ele>
        <time>2021-03-20T15:19:25Z</time>
      </trkpt>
      <trkpt lat="57.8318" lon="-6.85792">
        <ele>8.73</ele>
        <time>2021-03-20T15:19:27Z</time>
      </trkpt>
      <trkpt lat="57.83172" lon="-6.85778">
        <ele>8.99</ele>
        <time>2021-03-20T15:19:29Z</time>
      </trkpt>
      <trkpt lat="57.83161" lon="-6.85774">
        <ele>9.23</ele>
        <time>2021-03-20T15:19:31Z</time>
      </trkpt>
      <trkpt lat="57.83148" lon="-6.85775">
        <ele>9.75</ele>
        <time>2021-03-20T15:19:32Z</time>
      </trkpt>
      <trkpt lat="57.83121" lon="-6.85788">
        <ele>9.92</ele>
        <time>2021-03-20T15:19:34Z</time>
      </trkpt>
      <trkpt lat="57.83107" lon="-6.85784">
        <ele>10.52</ele>
        <time>2021-03-20T15:19:36Z</time>
      </trkpt>
      <trkpt lat="57.83078" lon="-6.85766">
        <ele>12.02</ele>
        <time>2021-03-20T15:19:38Z</time>
      </trkpt>
      <trkpt lat="57.83059" lon="-6.85759">
        <ele>13.24</ele>
        <time>2021-03-20T15:19:39Z</time>
      </trkpt>
      <trkpt lat="57.83049" lon="-6.8576">
        <ele>13.95</ele>
        <time>2021-03-20T15:19:41Z</time>
      </trkpt>
      <trkpt lat="57.83011" lon="-6.85771">
        <ele>15.73</ele>
        <time>2021-03-20T15:19:43Z</time>
      </trkpt>
      <trkpt lat="57.83001" lon="-6.8577">
        <ele>16.55</ele>
        <time>2021-03-20T15:19:44Z</time>
      </trkpt>
      <trkpt lat="57.82987" lon="-6.85763">
        <ele>17.75</ele>
        <time>2021-03-20T15:19:46Z</time>
      </trkpt>
      <trkpt lat="57.8297" lon="-6.85753">
        <ele>19.02</ele>
        <time>2021-03-20T15:19:48Z</time>
      </trkpt>
      <trkpt lat="57.82948" lon="-6.85735">
        <ele>21.26</ele>
        <time>2021-03-20T15:19:50Z</time>
      </trkpt>
      <trkpt lat="57.82928" lon="-6.85713">
        <ele>23.9</ele>
        <time>2021-03-20T15:19:51Z</time>
      </trkpt>
      <trkpt lat="57.82905" lon="-6.85675">
        <ele>26.14</ele>
        <time>2021-03-20T15:19:53Z</time>
      </trkpt>
      <trkpt lat="57.82868" lon="-6.85608">
        <ele>27.11</ele>
        <time>2021-03-20T15:19:55Z</time>
      </trkpt>
      <trkpt lat="57.82849" lon="-6.85592">
        <ele>27.51</ele>
        <time>2021-03-20T15:19:57Z</time>
      </trkpt>
      <trkpt lat="57.82835" lon="-6.85588">
        <ele>28.25</ele>
        <time>2021-03-20T15:19:58Z</time>
      </trkpt>
      <trkpt lat="57.82814" lon="-6.85592">
        <ele>30.02</ele>
        <time>2021-03-20T15:20:00Z</time>
      </trkpt>
      <trkpt lat="57.82804" lon="-6.85598">
        <ele>31.11</ele>
        <time>2021-03-20T15:20:02Z</time>
      </trkpt>
      <trkpt lat="57.82776" lon="-6.85628">
        <ele>33.67</ele>
        <time>2021-03-20T15:20:03Z</time>
      </trkpt>
      <trkpt lat="57.82767" lon="-6.85634">
        <ele>34.24</ele>
        <time>2021-03-20T15:20:05Z</time>
      </trkpt>
      <trkpt lat="57.82758" lon="-6.85634">
        <ele>34.54</ele>
        <time>2021-03-20T15:20:07Z</time>
      </trkpt>
      <trkpt lat="57.82747" lon="-6.85623">
        <ele>34.85</ele>
        <time>2021-03-20T15:20:09Z</time>
      </trkpt>
      <trkpt lat="57.82706" lon="-6.85549">
        <ele>43.23</ele>
        <time>2021-03-20T15:20:10Z</time>
      </trkpt>
      <trkpt lat="57.82697" lon="-6.85547">
        <ele>44.81</ele>
        <time>2021-03-20T15:20:12Z</time>
      </trkpt>
      <trkpt lat="57.82656" lon="-6.85561">
        <ele>47.31</ele>
        <time>2021-03-20T15:20:14Z</time>
      </trkpt>
      <trkpt lat="57.8263" lon="-6.85575">
        <ele>47.62</ele>
        <time>2021-03-20T15:20:16Z</time>
      </trkpt>
      <trkpt lat="57.8256" lon="-6.85625">
        <ele>47</ele>
        <time>2021-03-20T15:20:17Z</time>
      </trkpt>
      <trkpt lat="57.82531" lon="-6.85638">
        <ele>48.81</ele>
        <time>2021-03-20T15:20:19Z</time>
      </trkpt>
      <trkpt lat="57.8246" lon="-6.8563">
        <ele>54.38</ele>
        <time>2021-03-20T15:20:21Z</time>
      </trkpt>
      <trkpt lat="57.82412" lon="-6.85643">
        <ele>56.16</ele>
        <time>2021-03-20T15:20:23Z</time>
      </trkpt>
      <trkpt lat="57.82398" lon="-6.85638">
        <ele>55.92</ele>
        <time>2021-03-20T15:20:24Z</time>
      </trkpt>
      <trkpt lat="57.8239" lon="-6.85631">
        <ele>55.46</ele>
        <time>2021-03-20T15:20:26Z</time>
      </trkpt>
      <trkpt lat="57.82344" lon="-6.85582">
        <ele>53.95</ele>
        <time>2021-03-20T15:20:28Z</time>
      </trkpt>
      <trkpt lat="57.82329" lon="-6.85569">
        <ele>53.39</ele>
        <time>2021-03-20T15:20:29Z</time>
      </trkpt>
      <trkpt lat="57.82233" lon="-6.85541">
        <ele>58.44</ele>
        <time>2021-03-20T15:20:31Z</time>
      </trkpt>
      <trkpt lat="57.822" lon="-6.85536">
        <ele>58.84</ele>
        <time>2021-03-20T15:20:33Z</time>
      </trkpt>
      <trkpt lat="57.82138" lon="-6.85515">
        <ele>63.53</ele>
        <time>2021-03-20T15:20:35Z</time>
      </trkpt>
      <trkpt lat="57.82083" lon="-6.85514">
        <ele>63.03</ele>
        <time>2021-03-20T15:20:36Z</time>
      </trkpt>
      <trkpt lat="57.82051" lon="-6.85511">
        <ele>59.05</ele>
        <time>2021-03-20T15:20:38Z</time>
      </trkpt>
      <trkpt lat="57.82015" lon="-6.85503">
        <ele>56.2</ele>
        <time>2021-03-20T15:20:40Z</time>
      </trkpt>
      <trkpt lat="57.82005" lon="-6.85502">
        <ele>55.42</ele>
        <time>2021-03-20T15:20:42Z</time>
      </trkpt>
      <trkpt lat="57.81957" lon="-6.85512">
        <ele>46.74</ele>
        <time>2021-03-20T15:20:43Z</time>
      </trkpt>
      <trkpt lat="57.81933" lon="-6.85521">
        <ele>42.35</ele>
        <time>2021-03-20T15:20:45Z</time>
      </trkpt>
      <trkpt lat="57.81921" lon="-6.85532">
        <ele>41.04</ele>
        <time>2021-03-20T15:20:47Z</time>
      </trkpt>
      <trkpt lat="57.81905" lon="-6.85558">
        <ele>40.66</ele>
        <time>2021-03-20T15:20:48Z</time>
      </trkpt>
      <trkpt lat="57.81892" lon="-6.85584">
        <ele>42.52</ele>
        <time>2021-03-20T15:20:50Z</time>
      </trkpt>
      <trkpt lat="57.81854" lon="-6.85632">
        <ele>43.2</ele>
        <time>2021-03-20T15:20:52Z</time>
      </trkpt>
      <trkpt lat="57.81848" lon="-6.85634">
        <ele>42.63</ele>
        <time>2021-03-20T15:20:54Z</time>
      </trkpt>
      <trkpt lat="57.81842" lon="-6.85633">
        <ele>41.52</ele>
        <time>2021-03-20T15:20:55Z</time>
      </trkpt>
      <trkpt lat="57.81835" lon="-6.85626">
        <ele>39.91</ele>
        <time>2021-03-20T15:20:57Z</time>
      </trkpt>
      <trkpt lat="57.81824" lon="-6.85603">
        <ele>35.57</ele>
        <time>2021-03-20T15:20:59Z</time>
      </trkpt>
      <trkpt lat="57.81812" lon="-6.85593">
        <ele>32.88</ele>
        <time>2021-03-20T15:21:01Z</time>
      </trkpt>
      <trkpt lat="57.81804" lon="-6.85594">
        <ele>31.9</ele>
        <time>2021-03-20T15:21:02Z</time>
      </trkpt>
      <trkpt lat="57.81797" lon="-6.85597">
        <ele>31.52</ele>
        <time>2021-03-20T15:21:04Z</time>
      </trkpt>
      <trkpt lat="57.8177" lon="-6.85633">
        <ele>30.44</ele>
        <time>2021-03-20T15:21:06Z</time>
      </trkpt>
      <trkpt lat="57.81737" lon="-6.85691">
        <ele>24.53</ele>
        <time>2021-03-20T15:21:07Z</time>
      </trkpt>
      <trkpt lat="57.81731" lon="-6.8571">
        <ele>23.5</ele>
        <time>2021-03-20T15:21:09Z</time>
      </trkpt>
      <trkpt lat="57.81726" lon="-6.85743">
        <ele>21.88</ele>
        <time>2021-03-20T15:21:11Z</time>
      </trkpt>
      <trkpt lat="57.81726" lon="-6.85761">
        <ele>21.7</ele>
        <time>2021-03-20T15:21:13Z</time>
      </trkpt>
      <trkpt lat="57.81735" lon="-6.85833">
        <ele>22.25</ele>
        <time>2021-03-20T15:21:14Z</time>
      </trkpt>
      <trkpt lat="57.81735" lon="-6.85851">
        <ele>21.61</ele>
        <time>2021-03-20T15:21:16Z</time>
      </trkpt>
      <trkpt lat="57.81728" lon="-6.85869">
        <ele>20.01</ele>
        <time>2021-03-20T15:21:18Z</time>
      </trkpt>
      <trkpt lat="57.81719" lon="-6.85879">
        <ele>18.5</ele>
        <time>2021-03-20T15:21:20Z</time>
      </trkpt>
      <trkpt lat="57.81698" lon="-6.85885">
        <ele>14.73</ele>
        <time>2021-03-20T15:21:21Z</time>
      </trkpt>
      <trkpt lat="57.81687" lon="-6.85879">
        <ele>13.74</ele>
        <time>2021-03-20T15:21:23Z</time>
      </trkpt>
      <trkpt lat="57.81627" lon="-6.85799">
        <ele>11.57</ele>
        <time>2021-03-20T15:21:25Z</time>
      </trkpt>
      <trkpt lat="57.81609" lon="-6.85783">
        <ele>11</ele>
        <time>2021-03-20T15:21:27Z</time>
      </trkpt>
      <trkpt lat="57.81571" lon="-6.85767">
        <ele>11</ele>
        <time>2021-03-20T15:21:28Z</time>
      </trkpt>
      <trkpt lat="57.81548" lon="-6.85751">
        <ele>11</ele>
        <time>2021-03-20T15:21:30Z</time>
      </trkpt>
      <trkpt lat="57.81528" lon="-6.8575">
        <ele>11.01</ele>
        <time>2021-03-20T15:21:32Z</time>
      </trkpt>
      <trkpt lat="57.81521" lon="-6.85754">
        <ele>10.75</ele>
        <time>2021-03-20T15:21:33Z</time>
      </trkpt>
      <trkpt lat="57.81506" lon="-6.85775">
        <ele>10.22</ele>
        <time>2021-03-20T15:21:35Z</time>
      </trkpt>
      <trkpt lat="57.81499" lon="-6.85793">
        <ele>10.01</ele>
        <time>2021-03-20T15:21:37Z</time>
      </trkpt>
      <trkpt lat="57.81494" lon="-6.85815">
        <ele>10</ele>
        <time>2021-03-20T15:21:39Z</time>
      </trkpt>
      <trkpt lat="57.8149" lon="-6.85978">
        <ele>7</ele>
        <time>2021-03-20T15:21:40Z</time>
      </trkpt>
      <trkpt lat="57.81484" lon="-6.86023">
        <ele>6.53</ele>
        <time>2021-03-20T15:21:42Z</time>
      </trkpt>
      <trkpt lat="57.81481" lon="-6.86039">
        <ele>6.32</ele>
        <time>2021-03-20T15:21:44Z</time>
      </trkpt>
      <trkpt lat="57.81469" lon="-6.86081">
        <ele>5.07</ele>
        <time>2021-03-20T15:21:46Z</time>
      </trkpt>
      <trkpt lat="57.8146" lon="-6.86097">
        <ele>5</ele>
        <time>2021-03-20T15:21:47Z</time>
      </trkpt>
      <trkpt lat="57.81449" lon="-6.86103">
        <ele>5</ele>
        <time>2021-03-20T15:21:49Z</time>
      </trkpt>
      <trkpt lat="57.81355" lon="-6.86099">
        <ele>7.11</ele>
        <time>2021-03-20T15:21:51Z</time>
      </trkpt>
      <trkpt lat="57.81346" lon="-6.86105">
        <ele>7.57</ele>
        <time>2021-03-20T15:21:52Z</time>
      </trkpt>
      <trkpt lat="57.81337" lon="-6.86119">
        <ele>8.31</ele>
        <time>2021-03-20T15:21:54Z</time>
      </trkpt>
      <trkpt lat="57.8132" lon="-6.86158">
        <ele>7.52</ele>
        <time>2021-03-20T15:21:56Z</time>
      </trkpt>
      <trkpt lat="57.81309" lon="-6.86193">
        <ele>5.39</ele>
        <time>2021-03-20T15:21:58Z</time>
      </trkpt>
      <trkpt lat="57.81297" lon="-6.86318">
        <ele>5.16</ele>
        <time>2021-03-20T15:21:59Z</time>
      </trkpt>
      <trkpt lat="57.81295" lon="-6.86329">
        <ele>5.47</ele>
        <time>2021-03-20T15:22:01Z</time>
      </trkpt>
      <trkpt lat="57.8129" lon="-6.86338">
        <ele>6.22</ele>
        <time>2021-03-20T15:22:03Z</time>
      </trkpt>
      <trkpt lat="57.81279" lon="-6.86344">
        <ele>6.86</ele>
        <time>2021-03-20T15:22:05Z</time>
      </trkpt>
      <trkpt lat="57.81234" lon="-6.86331">
        <ele>6.39</ele>
        <time>2021-03-20T15:22:06Z</time>
      </trkpt>
      <trkpt lat="57.81218" lon="-6.86334">
        <ele>7.03</ele>
        <time>2021-03-20T15:22:08Z</time>
      </trkpt>
      <trkpt lat="57.81164" lon="-6.8637">
        <ele>8.02</ele>
        <time>2021-03-20T15:22:10Z</time>
      </trkpt>
      <trkpt lat="57.81149" lon="-6.86386">
        <ele>6.97</ele>
        <time>2021-03-20T15:22:11Z</time>
      </trkpt>
      <trkpt lat="57.81142" lon="-6.86399">
        <ele>6.7</ele>
        <time>2021-03-20T15:22:13Z</time>
      </trkpt>
      <trkpt lat="57.81119" lon="-6.86455">
        <ele>6.92</ele>
        <time>2021-03-20T15:22:15Z</time>
      </trkpt>
      <trkpt lat="57.81108" lon="-6.86471">
        <ele>7.04</ele>
        <time>2021-03-20T15:22:17Z</time>
      </trkpt>
      <trkpt lat="57.81089" lon="-6.86485">
        <ele>8.28</ele>
        <time>2021-03-20T15:22:18Z</time>
      </trkpt>
      <trkpt lat="57.81043" lon="-6.86512">
        <ele>9.34</ele>
        <time>2021-03-20T15:22:20Z</time>
      </trkpt>
      <trkpt lat="57.81031" lon="-6.86514">
        <ele>9.5</ele>
        <time>2021-03-20T15:22:22Z</time>
      </trkpt>
      <trkpt lat="57.81015" lon="-6.86512">
        <ele>9.79</ele>
        <time>2021-03-20T15:22:24Z</time>
      </trkpt>
      <trkpt lat="57.81005" lon="-6.86507">
        <ele>8.95</ele>
        <time>2021-03-20T15:22:25Z</time>
      </trkpt>
      <trkpt lat="57.80869" lon="-6.864">
        <ele>12.31</ele>
        <time>2021-03-20T15:22:27Z</time>
      </trkpt>
      <trkpt lat="57.80771" lon="-6.86382">
        <ele>15.74</ele>
        <time>2021-03-20T15:22:29Z</time>
      </trkpt>
      <trkpt lat="57.80743" lon="-6.86395">
        <ele>19.12</ele>
        <time>2021-03-20T15:22:31Z</time>
      </trkpt>
      <trkpt lat="57.80716" lon="-6.86403">
        <ele>20.27</ele>
        <time>2021-03-20T15:22:32Z</time>
      </trkpt>
      <trkpt lat="57.80687" lon="-6.864">
        <ele>19.12</ele>
        <time>2021-03-20T15:22:34Z</time>
      </trkpt>
      <trkpt lat="57.80678" lon="-6.86404">
        <ele>19.31</ele>
        <time>2021-03-20T15:22:36Z</time>
      </trkpt>
      <trkpt lat="57.80671" lon="-6.86409">
        <ele>19.56</ele>
        <time>2021-03-20T15:22:37Z</time>
      </trkpt>
      <trkpt lat="57.8064" lon="-6.86447">
        <ele>19.14</ele>
        <time>2021-03-20T15:22:39Z</time>
      </trkpt>
      <trkpt lat="57.80629" lon="-6.8645">
        <ele>18.97</ele>
        <time>2021-03-20T15:22:41Z</time>
      </trkpt>
      <trkpt lat="57.80622" lon="-6.86448">
        <ele>18.66</ele>
        <time>2021-03-20T15:22:43Z</time>
      </trkpt>
      <trkpt lat="57.80609" lon="-6.86438">
        <ele>17.75</ele>
        <time>2021-03-20T15:22:44Z</time>
      </trkpt>
      <trkpt lat="57.80596" lon="-6.86433">
        <ele>17.38</ele>
        <time>2021-03-20T15:22:46Z</time>
      </trkpt>
      <trkpt lat="57.80561" lon="-6.86433">
        <ele>18.65</ele>
        <time>2021-03-20T15:22:48Z</time>
      </trkpt>
      <trkpt lat="57.80553" lon="-6.8643">
        <ele>18.65</ele>
        <time>2021-03-20T15:22:50Z</time>
      </trkpt>
      <trkpt lat="57.8052" lon="-6.86404">
        <ele>16.01</ele>
        <time>2021-03-20T15:22:51Z</time>
      </trkpt>
      <trkpt lat="57.80471" lon="-6.86349">
        <ele>16.09</ele>
        <time>2021-03-20T15:22:53Z</time>
      </trkpt>
      <trkpt lat="57.80465" lon="-6.86348">
        <ele>17.2</ele>
        <time>2021-03-20T15:22:55Z</time>
      </trkpt>
      <trkpt lat="57.80459" lon="-6.86351">
        <ele>19.08</ele>
        <time>2021-03-20T15:22:56Z</time>
      </trkpt>
      <trkpt lat="57.80457" lon="-6.86363">
        <ele>21.63</ele>
        <time>2021-03-20T15:22:58Z</time>
      </trkpt>
      <trkpt lat="57.80458" lon="-6.8638">
        <ele>24.25</ele>
        <time>2021-03-20T15:23:00Z</time>
      </trkpt>
      <trkpt lat="57.80463" lon="-6.86411">
        <ele>27.62</ele>
        <time>2021-03-20T15:23:02Z</time>
      </trkpt>
      <trkpt lat="57.80464" lon="-6.86428">
        <ele>29.67</ele>
        <time>2021-03-20T15:23:03Z</time>
      </trkpt>
      <trkpt lat="57.8046" lon="-6.86445">
        <ele>31.88</ele>
        <time>2021-03-20T15:23:05Z</time>
      </trkpt>
      <trkpt lat="57.80422" lon="-6.86483">
        <ele>33.17</ele>
        <time>2021-03-20T15:23:07Z</time>
      </trkpt>
      <trkpt lat="57.80412" lon="-6.86488">
        <ele>32.81</ele>
        <time>2021-03-20T15:23:09Z</time>
      </trkpt>
      <trkpt lat="57.80376" lon="-6.86481">
        <ele>32.59</ele>
        <time>2021-03-20T15:23:10Z</time>
      </trkpt>
      <trkpt lat="57.80366" lon="-6.86483">
        <ele>33.15</ele>
        <time>2021-03-20T15:23:12Z</time>
      </trkpt>
      <trkpt lat="57.80357" lon="-6.86489">
        <ele>33.76</ele>
        <time>2021-03-20T15:23:14Z</time>
      </trkpt>
      <trkpt lat="57.80332" lon="-6.86534">
        <ele>36</ele>
        <time>2021-03-20T15:23:16Z</time>
      </trkpt>
      <trkpt lat="57.80314" lon="-6.8656">
        <ele>36.33</ele>
        <time>2021-03-20T15:23:17Z</time>
      </trkpt>
      <trkpt lat="57.80296" lon="-6.86574">
        <ele>37.33</ele>
        <time>2021-03-20T15:23:19Z</time>
      </trkpt>
      <trkpt lat="57.8021" lon="-6.86619">
        <ele>36.37</ele>
        <time>2021-03-20T15:23:21Z</time>
      </trkpt>
      <trkpt lat="57.80201" lon="-6.86626">
        <ele>36.02</ele>
        <time>2021-03-20T15:23:22Z</time>
      </trkpt>
      <trkpt lat="57.80193" lon="-6.86642">
        <ele>35.91</ele>
        <time>2021-03-20T15:23:24Z</time>
      </trkpt>
      <trkpt lat="57.80191" lon="-6.86661">
        <ele>35.77</ele>
        <time>2021-03-20T15:23:26Z</time>
      </trkpt>
      <trkpt lat="57.80196" lon="-6.86697">
        <ele>37.21</ele>
        <time>2021-03-20T15:23:28Z</time>
      </trkpt>
      <trkpt lat="57.80195" lon="-6.86714">
        <ele>37.77</ele>
        <time>2021-03-20T15:23:29Z</time>
      </trkpt>
      <trkpt lat="57.8019" lon="-6.86732">
        <ele>37.85</ele>
        <time>2021-03-20T15:23:31Z</time>
      </trkpt>
      <trkpt lat="57.80172" lon="-6.86765">
        <ele>36.57</ele>
        <time>2021-03-20T15:23:33Z</time>
      </trkpt>
      <trkpt lat="57.80119" lon="-6.86849">
        <ele>37.44</ele>
        <time>2021-03-20T15:23:35Z</time>
      </trkpt>
      <trkpt lat="57.80106" lon="-6.8688">
        <ele>38.35</ele>
        <time>2021-03-20T15:23:36Z</time>
      </trkpt>
      <trkpt lat="57.80082" lon="-6.86975">
        <ele>39.94</ele>
        <time>2021-03-20T15:23:38Z</time>
      </trkpt>
      <trkpt lat="57.80051" lon="-6.87069">
        <ele>41.13</ele>
        <time>2021-03-20T15:23:40Z</time>
      </trkpt>
      <trkpt lat="57.80045" lon="-6.87097">
        <ele>41.51</ele>
        <time>2021-03-20T15:23:41Z</time>
      </trkpt>
      <trkpt lat="57.80041" lon="-6.87131">
        <ele>42.01</ele>
        <time>2021-03-20T15:23:43Z</time>
      </trkpt>
      <trkpt lat="57.80039" lon="-6.87251">
        <ele>40.92</ele>
        <time>2021-03-20T15:23:45Z</time>
      </trkpt>
      <trkpt lat="57.80036" lon="-6.87315">
        <ele>39.1</ele>
        <time>2021-03-20T15:23:47Z</time>
      </trkpt>
      <trkpt lat="57.80032" lon="-6.87346">
        <ele>37.18</ele>
        <time>2021-03-20T15:23:48Z</time>
      </trkpt>
      <trkpt lat="57.80028" lon="-6.87363">
        <ele>35.97</ele>
        <time>2021-03-20T15:23:50Z</time>
      </trkpt>
      <trkpt lat="57.79996" lon="-6.87436">
        <ele>30.96</ele>
        <time>2021-03-20T15:23:52Z</time>
      </trkpt>
      <trkpt lat="57.79974" lon="-6.87491">
        <ele>27.48</ele>
        <time>2021-03-20T15:23:54Z</time>
      </trkpt>
      <trkpt lat="57.7997" lon="-6.87515">
        <ele>26.87</ele>
        <time>2021-03-20T15:23:55Z</time>
      </trkpt>
      <trkpt lat="57.79966" lon="-6.87584">
        <ele>26.52</ele>
        <time>2021-03-20T15:23:57Z</time>
      </trkpt>
      <trkpt lat="57.79957" lon="-6.87667">
        <ele>26.44</ele>
        <time>2021-03-20T15:23:59Z</time>
      </trkpt>
      <trkpt lat="57.79957" lon="-6.87737">
        <ele>25.35</ele>
        <time>2021-03-20T15:24:00Z</time>
      </trkpt>
      <trkpt lat="57.79963" lon="-6.87827">
        <ele>21.69</ele>
        <time>2021-03-20T15:24:02Z</time>
      </trkpt>
      <trkpt lat="57.79968" lon="-6.87876">
        <ele>19.45</ele>
        <time>2021-03-20T15:24:04Z</time>
      </trkpt>
      <trkpt lat="57.80007" lon="-6.88157">
        <ele>11.86</ele>
        <time>2021-03-20T15:24:06Z</time>
      </trkpt>
      <trkpt lat="57.80012" lon="-6.88184">
        <ele>10.61</ele>
        <time>2021-03-20T15:24:07Z</time>
      </trkpt>
      <trkpt lat="57.80025" lon="-6.88219">
        <ele>9.89</ele>
        <time>2021-03-20T15:24:09Z</time>
      </trkpt>
      <trkpt lat="57.80064" lon="-6.88283">
        <ele>9.1</ele>
        <time>2021-03-20T15:24:11Z</time>
      </trkpt>
      <trkpt lat="57.8007" lon="-6.88305">
        <ele>8.11</ele>
        <time>2021-03-20T15:24:13Z</time>
      </trkpt>
      <trkpt lat="57.80071" lon="-6.88321">
        <ele>6.88</ele>
        <time>2021-03-20T15:24:14Z</time>
      </trkpt>
      <trkpt lat="57.8007" lon="-6.8835">
        <ele>5.54</ele>
        <time>2021-03-20T15:24:16Z</time>
      </trkpt>
      <trkpt lat="57.80068" lon="-6.88363">
        <ele>5.45</ele>
        <time>2021-03-20T15:24:18Z</time>
      </trkpt>
      <trkpt lat="57.80064" lon="-6.88376">
        <ele>5.3</ele>
        <time>2021-03-20T15:24:20Z</time>
      </trkpt>
      <trkpt lat="57.8005" lon="-6.88397">
        <ele>5.38</ele>
        <time>2021-03-20T15:24:21Z</time>
      </trkpt>
      <trkpt lat="57.80014" lon="-6.88433">
        <ele>6.38</ele>
        <time>2021-03-20T15:24:23Z</time>
      </trkpt>
      <trkpt lat="57.79996" lon="-6.88438">
        <ele>6.94</ele>
        <time>2021-03-20T15:24:25Z</time>
      </trkpt>
      <trkpt lat="57.79984" lon="-6.88435">
        <ele>7.9</ele>
        <time>2021-03-20T15:24:26Z</time>
      </trkpt>
      <trkpt lat="57.79969" lon="-6.88424">
        <ele>8.07</ele>
        <time>2021-03-20T15:24:28Z</time>
      </trkpt>
      <trkpt lat="57.79942" lon="-6.88386">
        <ele>6.89</ele>
        <time>2021-03-20T15:24:30Z</time>
      </trkpt>
      <trkpt lat="57.79924" lon="-6.88376">
        <ele>6.53</ele>
        <time>2021-03-20T15:24:32Z</time>
      </trkpt>
      <trkpt lat="57.79896" lon="-6.88367">
        <ele>6.95</ele>
        <time>2021-03-20T15:24:33Z</time>
      </trkpt>
      <trkpt lat="57.79888" lon="-6.88368">
        <ele>7.23</ele>
        <time>2021-03-20T15:24:35Z</time>
      </trkpt>
      <trkpt lat="57.79829" lon="-6.88393">
        <ele>8</ele>
        <time>2021-03-20T15:24:37Z</time>
      </trkpt>
      <trkpt lat="57.79811" lon="-6.88404">
        <ele>8</ele>
        <time>2021-03-20T15:24:39Z</time>
      </trkpt>
      <trkpt lat="57.79784" lon="-6.88412">
        <ele>8.14</ele>
        <time>2021-03-20T15:24:40Z</time>
      </trkpt>
      <trkpt lat="57.79775" lon="-6.88411">
        <ele>8.21</ele>
        <time>2021-03-20T15:24:42Z</time>
      </trkpt>
      <trkpt lat="57.79738" lon="-6.88398">
        <ele>7.96</ele>
        <time>2021-03-20T15:24:44Z</time>
      </trkpt>
      <trkpt lat="57.79704" lon="-6.88398">
        <ele>7</ele>
        <time>2021-03-20T15:24:45Z</time>
      </trkpt>
      <trkpt lat="57.79666" lon="-6.88404">
        <ele>6.98</ele>
        <time>2021-03-20T15:24:47Z</time>
      </trkpt>
      <trkpt lat="57.79612" lon="-6.88403">
        <ele>5.54</ele>
        <time>2021-03-20T15:24:49Z</time>
      </trkpt>
      <trkpt lat="57.7959" lon="-6.88411">
        <ele>5.79</ele>
        <time>2021-03-20T15:24:51Z</time>
      </trkpt>
      <trkpt lat="57.79555" lon="-6.88446">
        <ele>7.06</ele>
        <time>2021-03-20T15:24:52Z</time>
      </trkpt>
      <trkpt lat="57.7952" lon="-6.88461">
        <ele>7.43</ele>
        <time>2021-03-20T15:24:54Z</time>
      </trkpt>
      <trkpt lat="57.79502" lon="-6.88472">
        <ele>7.07</ele>
        <time>2021-03-20T15:24:56Z</time>
      </trkpt>
      <trkpt lat="57.79494" lon="-6.8848">
        <ele>6.78</ele>
        <time>2021-03-20T15:24:58Z</time>
      </trkpt>
      <trkpt lat="57.79485" lon="-6.88496">
        <ele>6.46</ele>
        <time>2021-03-20T15:24:59Z</time>
      </trkpt>
      <trkpt lat="57.79474" lon="-6.88525">
        <ele>7.86</ele>
        <time>2021-03-20T15:25:01Z</time>
      </trkpt>
      <trkpt lat="57.79455" lon="-6.88589">
        <ele>11.76</ele>
        <time>2021-03-20T15:25:03Z</time>
      </trkpt>
      <trkpt lat="57.79447" lon="-6.88607">
        <ele>12.79</ele>
        <time>2021-03-20T15:25:04Z</time>
      </trkpt>
      <trkpt lat="57.79438" lon="-6.88616">
        <ele>13.51</ele>
        <time>2021-03-20T15:25:06Z</time>
      </trkpt>
      <trkpt lat="57.79419" lon="-6.88627">
        <ele>15.2</ele>
        <time>2021-03-20T15:25:08Z</time>
      </trkpt>
      <trkpt lat="57.79367" lon="-6.88649">
        <ele>17.81</ele>
        <time>2021-03-20T15:25:10Z</time>
      </trkpt>
      <trkpt lat="57.79349" lon="-6.88666">
        <ele>18.52</ele>
        <time>2021-03-20T15:25:11Z</time>
      </trkpt>
      <trkpt lat="57.79341" lon="-6.88683">
        <ele>18.87</ele>
        <time>2021-03-20T15:25:13Z</time>
      </trkpt>
      <trkpt lat="57.79338" lon="-6.88702">
        <ele>19.42</ele>
        <time>2021-03-20T15:25:15Z</time>
      </trkpt>
      <trkpt lat="57.79339" lon="-6.88752">
        <ele>21.22</ele>
        <time>2021-03-20T15:25:17Z</time>
      </trkpt>
      <trkpt lat="57.79339" lon="-6.8878">
        <ele>21.19</ele>
        <time>2021-03-20T15:25:18Z</time>
      </trkpt>
      <trkpt lat="57.79334" lon="-6.88823">
        <ele>21.02</ele>
        <time>2021-03-20T15:25:20Z</time>
      </trkpt>
      <trkpt lat="57.7933" lon="-6.88834">
        <ele>21</ele>
        <time>2021-03-20T15:25:22Z</time>
      </trkpt>
      <trkpt lat="57.79323" lon="-6.88846">
        <ele>21.17</ele>
        <time>2021-03-20T15:25:24Z</time>
      </trkpt>
      <trkpt lat="57.79281" lon="-6.88898">
        <ele>22.34</ele>
        <time>2021-03-20T15:25:25Z</time>
      </trkpt>
      <trkpt lat="57.79269" lon="-6.88901">
        <ele>22.45</ele>
        <time>2021-03-20T15:25:27Z</time>
      </trkpt>
      <trkpt lat="57.7922" lon="-6.88893">
        <ele>22.38</ele>
        <time>2021-03-20T15:25:29Z</time>
      </trkpt>
      <trkpt lat="57.79211" lon="-6.88895">
        <ele>22.82</ele>
        <time>2021-03-20T15:25:30Z</time>
      </trkpt>
      <trkpt lat="57.79202" lon="-6.88906">
        <ele>23.92</ele>
        <time>2021-03-20T15:25:32Z</time>
      </trkpt>
      <trkpt lat="57.79163" lon="-6.88972">
        <ele>28.69</ele>
        <time>2021-03-20T15:25:34Z</time>
      </trkpt>
      <trkpt lat="57.79135" lon="-6.8904">
        <ele>28.38</ele>
        <time>2021-03-20T15:25:36Z</time>
      </trkpt>
      <trkpt lat="57.79124" lon="-6.89072">
        <ele>26.94</ele>
        <time>2021-03-20T15:25:37Z</time>
      </trkpt>
      <trkpt lat="57.79121" lon="-6.89096">
        <ele>26.7</ele>
        <time>2021-03-20T15:25:39Z</time>
      </trkpt>
      <trkpt lat="57.79115" lon="-6.89207">
        <ele>25.41</ele>
        <time>2021-03-20T15:25:41Z</time>
      </trkpt>
      <trkpt lat="57.7911" lon="-6.89231">
        <ele>25.27</ele>
        <time>2021-03-20T15:25:43Z</time>
      </trkpt>
      <trkpt lat="57.79103" lon="-6.89256">
        <ele>25.41</ele>
        <time>2021-03-20T15:25:44Z</time>
      </trkpt>
      <trkpt lat="57.79033" lon="-6.89467">
        <ele>24.98</ele>
        <time>2021-03-20T15:25:46Z</time>
      </trkpt>
      <trkpt lat="57.7899" lon="-6.89556">
        <ele>25.67</ele>
        <time>2021-03-20T15:25:48Z</time>
      </trkpt>
      <trkpt lat="57.78977" lon="-6.89589">
        <ele>26.35</ele>
        <time>2021-03-20T15:25:49Z</time>
      </trkpt>
      <trkpt lat="57.78962" lon="-6.89621">
        <ele>27.14</ele>
        <time>2021-03-20T15:25:51Z</time>
      </trkpt>
      <trkpt lat="57.78933" lon="-6.89649">
        <ele>28</ele>
        <time>2021-03-20T15:25:53Z</time>
      </trkpt>
      <trkpt lat="57.78927" lon="-6.89664">
        <ele>28</ele>
        <time>2021-03-20T15:25:55Z</time>
      </trkpt>
      <trkpt lat="57.78921" lon="-6.8968">
        <ele>28</ele>
        <time>2021-03-20T15:25:56Z</time>
      </trkpt>
      <trkpt lat="57.78873" lon="-6.89881">
        <ele>27</ele>
        <time>2021-03-20T15:25:58Z</time>
      </trkpt>
      <trkpt lat="57.78857" lon="-6.89921">
        <ele>26.11</ele>
        <time>2021-03-20T15:26:00Z</time>
      </trkpt>
      <trkpt lat="57.78845" lon="-6.89939">
        <ele>26.12</ele>
        <time>2021-03-20T15:26:02Z</time>
      </trkpt>
      <trkpt lat="57.78832" lon="-6.89941">
        <ele>26.09</ele>
        <time>2021-03-20T15:26:03Z</time>
      </trkpt>
      <trkpt lat="57.78796" lon="-6.8994">
        <ele>24.81</ele>
        <time>2021-03-20T15:26:05Z</time>
      </trkpt>
      <trkpt lat="57.7878" lon="-6.89945">
        <ele>24.06</ele>
        <time>2021-03-20T15:26:07Z</time>
      </trkpt>
      <trkpt lat="57.78754" lon="-6.89959">
        <ele>22.6</ele>
        <time>2021-03-20T15:26:09Z</time>
      </trkpt>
      <trkpt lat="57.78703" lon="-6.8997">
        <ele>18.76</ele>
        <time>2021-03-20T15:26:10Z</time>
      </trkpt>
      <trkpt lat="57.78646" lon="-6.89963">
        <ele>15.85</ele>
        <time>2021-03-20T15:26:12Z</time>
      </trkpt>
      <trkpt lat="57.78629" lon="-6.89957">
        <ele>15.2</ele>
        <time>2021-03-20T15:26:14Z</time>
      </trkpt>
      <trkpt lat="57.78601" lon="-6.89935">
        <ele>14.63</ele>
        <time>2021-03-20T15:26:15Z</time>
      </trkpt>
      <trkpt lat="57.78582" lon="-6.89929">
        <ele>14.08</ele>
        <time>2021-03-20T15:26:17Z</time>
      </trkpt>
      <trkpt lat="57.78574" lon="-6.89931">
        <ele>14.5</ele>
        <time>2021-03-20T15:26:19Z</time>
      </trkpt>
      <trkpt lat="57.78567" lon="-6.89942">
        <ele>14.63</ele>
        <time>2021-03-20T15:26:21Z</time>
      </trkpt>
      <trkpt lat="57.78561" lon="-6.89968">
        <ele>14.64</ele>
        <time>2021-03-20T15:26:22Z</time>
      </trkpt>
      <trkpt lat="57.78557" lon="-6.90007">
        <ele>15.1</ele>
        <time>2021-03-20T15:26:24Z</time>
      </trkpt>
      <trkpt lat="57.78559" lon="-6.90033">
        <ele>15.63</ele>
        <time>2021-03-20T15:26:26Z</time>
      </trkpt>
      <trkpt lat="57.78565" lon="-6.90075">
        <ele>15.24</ele>
        <time>2021-03-20T15:26:28Z</time>
      </trkpt>
      <trkpt lat="57.78585" lon="-6.90191">
        <ele>15</ele>
        <time>2021-03-20T15:26:29Z</time>
      </trkpt>
      <trkpt lat="57.78589" lon="-6.90245">
        <ele>13.81</ele>
        <time>2021-03-20T15:26:31Z</time>
      </trkpt>
      <trkpt lat="57.78586" lon="-6.90283">
        <ele>12.72</ele>
        <time>2021-03-20T15:26:33Z</time>
      </trkpt>
      <trkpt lat="57.78577" lon="-6.90306">
        <ele>12.22</ele>
        <time>2021-03-20T15:26:34Z</time>
      </trkpt>
      <trkpt lat="57.7855" lon="-6.90338">
        <ele>13.03</ele>
        <time>2021-03-20T15:26:36Z</time>
      </trkpt>
      <trkpt lat="57.78522" lon="-6.90384">
        <ele>14.17</ele>
        <time>2021-03-20T15:26:38Z</time>
      </trkpt>
      <trkpt lat="57.78511" lon="-6.9041">
        <ele>15.86</ele>
        <time>2021-03-20T15:26:40Z</time>
      </trkpt>
      <trkpt lat="57.78504" lon="-6.90435">
        <ele>17.32</ele>
        <time>2021-03-20T15:26:41Z</time>
      </trkpt>
      <trkpt lat="57.78493" lon="-6.90562">
        <ele>18.48</ele>
        <time>2021-03-20T15:26:43Z</time>
      </trkpt>
      <trkpt lat="57.78482" lon="-6.90649">
        <ele>15.41</ele>
        <time>2021-03-20T15:26:45Z</time>
      </trkpt>
      <trkpt lat="57.78481" lon="-6.90673">
        <ele>15</ele>
        <time>2021-03-20T15:26:47Z</time>
      </trkpt>
      <trkpt lat="57.78482" lon="-6.90696">
        <ele>15</ele>
        <time>2021-03-20T15:26:48Z</time>
      </trkpt>
      <trkpt lat="57.78502" lon="-6.90795">
        <ele>14.02</ele>
        <time>2021-03-20T15:26:50Z</time>
      </trkpt>
      <trkpt lat="57.78508" lon="-6.9084">
        <ele>14.16</ele>
        <time>2021-03-20T15:26:52Z</time>
      </trkpt>
      <trkpt lat="57.78514" lon="-6.90894">
        <ele>14.59</ele>
        <time>2021-03-20T15:26:53Z</time>
      </trkpt>
      <trkpt lat="57.78521" lon="-6.90996">
        <ele>14.52</ele>
        <time>2021-03-20T15:26:55Z</time>
      </trkpt>
      <trkpt lat="57.78516" lon="-6.91024">
        <ele>14.01</ele>
        <time>2021-03-20T15:26:57Z</time>
      </trkpt>
      <trkpt lat="57.78499" lon="-6.91055">
        <ele>14.05</ele>
        <time>2021-03-20T15:26:59Z</time>
      </trkpt>
      <trkpt lat="57.78489" lon="-6.91079">
        <ele>13.2</ele>
        <time>2021-03-20T15:27:00Z</time>
      </trkpt>
      <trkpt lat="57.78458" lon="-6.91203">
        <ele>5.7</ele>
        <time>2021-03-20T15:27:02Z</time>
      </trkpt>
      <trkpt lat="57.78451" lon="-6.91224">
        <ele>4.95</ele>
        <time>2021-03-20T15:27:04Z</time>
      </trkpt>
      <trkpt lat="57.78446" lon="-6.91231">
        <ele>4.67</ele>
        <time>2021-03-20T15:27:06Z</time>
      </trkpt>
      <trkpt lat="57.7844" lon="-6.91237">
        <ele>4.62</ele>
        <time>2021-03-20T15:27:07Z</time>
      </trkpt>
      <trkpt lat="57.78389" lon="-6.91271">
        <ele>5</ele>
        <time>2021-03-20T15:27:09Z</time>
      </trkpt>
      <trkpt lat="57.78349" lon="-6.91291">
        <ele>7.98</ele>
        <time>2021-03-20T15:27:11Z</time>
      </trkpt>
      <trkpt lat="57.78322" lon="-6.91298">
        <ele>8.31</ele>
        <time>2021-03-20T15:27:13Z</time>
      </trkpt>
      <trkpt lat="57.78274" lon="-6.91291">
        <ele>7.4</ele>
        <time>2021-03-20T15:27:14Z</time>
      </trkpt>
      <trkpt lat="57.78267" lon="-6.91294">
        <ele>7.78</ele>
        <time>2021-03-20T15:27:16Z</time>
      </trkpt>
      <trkpt lat="57.78251" lon="-6.91309">
        <ele>9.26</ele>
        <time>2021-03-20T15:27:18Z</time>
      </trkpt>
      <trkpt lat="57.78229" lon="-6.91315">
        <ele>7.89</ele>
        <time>2021-03-20T15:27:19Z</time>
      </trkpt>
      <trkpt lat="57.78214" lon="-6.91314">
        <ele>7.1</ele>
        <time>2021-03-20T15:27:21Z</time>
      </trkpt>
      <trkpt lat="57.78199" lon="-6.91309">
        <ele>6.4</ele>
        <time>2021-03-20T15:27:23Z</time>
      </trkpt>
      <trkpt lat="57.78172" lon="-6.91308">
        <ele>5.31</ele>
        <time>2021-03-20T15:27:25Z</time>
      </trkpt>
      <trkpt lat="57.78153" lon="-6.91314">
        <ele>5.31</ele>
        <time>2021-03-20T15:27:26Z</time>
      </trkpt>
      <trkpt lat="57.78146" lon="-6.91321">
        <ele>5.57</ele>
        <time>2021-03-20T15:27:28Z</time>
      </trkpt>
      <trkpt lat="57.78135" lon="-6.91337">
        <ele>5.87</ele>
        <time>2021-03-20T15:27:30Z</time>
      </trkpt>
      <trkpt lat="57.78132" lon="-6.91347">
        <ele>6.01</ele>
        <time>2021-03-20T15:27:32Z</time>
      </trkpt>
      <trkpt lat="57.78128" lon="-6.91426">
        <ele>6.22</ele>
        <time>2021-03-20T15:27:33Z</time>
      </trkpt>
      <trkpt lat="57.78128" lon="-6.91463">
        <ele>5.58</ele>
        <time>2021-03-20T15:27:35Z</time>
      </trkpt>
      <trkpt lat="57.78125" lon="-6.91488">
        <ele>4.46</ele>
        <time>2021-03-20T15:27:37Z</time>
      </trkpt>
      <trkpt lat="57.78115" lon="-6.91518">
        <ele>2.57</ele>
        <time>2021-03-20T15:27:38Z</time>
      </trkpt>
      <trkpt lat="57.78103" lon="-6.91538">
        <ele>1.46</ele>
        <time>2021-03-20T15:27:40Z</time>
      </trkpt>
      <trkpt lat="57.78096" lon="-6.91545">
        <ele>1.18</ele>
        <time>2021-03-20T15:27:42Z</time>
      </trkpt>
      <trkpt lat="57.78079" lon="-6.91555">
        <ele>1.15</ele>
        <time>2021-03-20T15:27:44Z</time>
      </trkpt>
      <trkpt lat="57.78035" lon="-6.91565">
        <ele>1.82</ele>
        <time>2021-03-20T15:27:45Z</time>
      </trkpt>
      <trkpt lat="57.7801" lon="-6.91575">
        <ele>2.64</ele>
        <time>2021-03-20T15:27:47Z</time>
      </trkpt>
      <trkpt lat="57.78001" lon="-6.91582">
        <ele>2.98</ele>
        <time>2021-03-20T15:27:49Z</time>
      </trkpt>
      <trkpt lat="57.77986" lon="-6.91603">
        <ele>4.49</ele>
        <time>2021-03-20T15:27:51Z</time>
      </trkpt>
      <trkpt lat="57.7798" lon="-6.91618">
        <ele>5.17</ele>
        <time>2021-03-20T15:27:52Z</time>
      </trkpt>
      <trkpt lat="57.77967" lon="-6.91666">
        <ele>6.74</ele>
        <time>2021-03-20T15:27:54Z</time>
      </trkpt>
      <trkpt lat="57.77962" lon="-6.91677">
        <ele>7.34</ele>
        <time>2021-03-20T15:27:56Z</time>
      </trkpt>
      <trkpt lat="57.77951" lon="-6.91691">
        <ele>8.41</ele>
        <time>2021-03-20T15:27:57Z</time>
      </trkpt>
      <trkpt lat="57.77925" lon="-6.91712">
        <ele>11.1</ele>
        <time>2021-03-20T15:27:59Z</time>
      </trkpt>
      <trkpt lat="57.77911" lon="-6.91731">
        <ele>11.84</ele>
        <time>2021-03-20T15:28:01Z</time>
      </trkpt>
      <trkpt lat="57.77901" lon="-6.91752">
        <ele>10.95</ele>
        <time>2021-03-20T15:28:03Z</time>
      </trkpt>
      <trkpt lat="57.77894" lon="-6.91774">
        <ele>10.13</ele>
        <time>2021-03-20T15:28:04Z</time>
      </trkpt>
      <trkpt lat="57.77874" lon="-6.9185">
        <ele>6.86</ele>
        <time>2021-03-20T15:28:06Z</time>
      </trkpt>
      <trkpt lat="57.77856" lon="-6.91938">
        <ele>4.81</ele>
        <time>2021-03-20T15:28:08Z</time>
      </trkpt>
      <trkpt lat="57.77852" lon="-6.91987">
        <ele>4.34</ele>
        <time>2021-03-20T15:28:10Z</time>
      </trkpt>
      <trkpt lat="57.77854" lon="-6.92051">
        <ele>3.74</ele>
        <time>2021-03-20T15:28:11Z</time>
      </trkpt>
      <trkpt lat="57.77853" lon="-6.92073">
        <ele>3.69</ele>
        <time>2021-03-20T15:28:13Z</time>
      </trkpt>
      <trkpt lat="57.77849" lon="-6.92086">
        <ele>3.58</ele>
        <time>2021-03-20T15:28:15Z</time>
      </trkpt>
      <trkpt lat="57.77845" lon="-6.92095">
        <ele>3.41</ele>
        <time>2021-03-20T15:28:17Z</time>
      </trkpt>
      <trkpt lat="57.77848" lon="-6.92136">
        <ele>3.95</ele>
        <time>2021-03-20T15:28:20Z</time>
      </trkpt>
      <trkpt lat="57.77846" lon="-6.92332">
        <ele>6.94</ele>
        <time>2021-03-20T15:28:24Z</time>
      </trkpt>
      <trkpt lat="57.77852" lon="-6.92371">
        <ele>8.37</ele>
        <time>2021-03-20T15:28:27Z</time>
      </trkpt>
      <trkpt lat="57.77954" lon="-6.92706">
        <ele>15.06</ele>
        <time>2021-03-20T15:28:31Z</time>
      </trkpt>
      <trkpt lat="57.77971" lon="-6.92781">
        <ele>16.2</ele>
        <time>2021-03-20T15:28:34Z</time>
      </trkpt>
      <trkpt lat="57.77977" lon="-6.92823">
        <ele>17.44</ele>
        <time>2021-03-20T15:28:37Z</time>
      </trkpt>
      <trkpt lat="57.77979" lon="-6.92863">
        <ele>18.78</ele>
        <time>2021-03-20T15:28:41Z</time>
      </trkpt>
      <trkpt lat="57.77976" lon="-6.92904">
        <ele>19.54</ele>
        <time>2021-03-20T15:28:44Z</time>
      </trkpt>
      <trkpt lat="57.77955" lon="-6.93001">
        <ele>23.03</ele>
        <time>2021-03-20T15:28:48Z</time>
      </trkpt>
      <trkpt lat="57.77951" lon="-6.93044">
        <ele>24.14</ele>
        <time>2021-03-20T15:28:51Z</time>
      </trkpt>
      <trkpt lat="57.77953" lon="-6.93089">
        <ele>25.32</ele>
        <time>2021-03-20T15:28:55Z</time>
      </trkpt>
      <trkpt lat="57.77988" lon="-6.93303">
        <ele>29.01</ele>
        <time>2021-03-20T15:28:58Z</time>
      </trkpt>
      <trkpt lat="57.77986" lon="-6.93326">
        <ele>29.38</ele>
        <time>2021-03-20T15:29:01Z</time>
      </trkpt>
      <trkpt lat="57.77945" lon="-6.9346">
        <ele>32.4</ele>
        <time>2021-03-20T15:29:05Z</time>
      </trkpt>
      <trkpt lat="57.77924" lon="-6.93538">
        <ele>28.63</ele>
        <time>2021-03-20T15:29:08Z</time>
      </trkpt>
      <trkpt lat="57.7792" lon="-6.9357">
        <ele>27.47</ele>
        <time>2021-03-20T15:29:12Z</time>
      </trkpt>
      <trkpt lat="57.77919" lon="-6.93606">
        <ele>27</ele>
        <time>2021-03-20T15:29:15Z</time>
      </trkpt>
      <trkpt lat="57.77923" lon="-6.93652">
        <ele>27</ele>
        <time>2021-03-20T15:29:18Z</time>
      </trkpt>
      <trkpt lat="57.77929" lon="-6.9368">
        <ele>27.49</ele>
        <time>2021-03-20T15:29:22Z</time>
      </trkpt>
      <trkpt lat="57.77933" lon="-6.93714">
        <ele>28.41</ele>
        <time>2021-03-20T15:29:25Z</time>
      </trkpt>
      <trkpt lat="57.77936" lon="-6.93788">
        <ele>29.37</ele>
        <time>2021-03-20T15:29:29Z</time>
      </trkpt>
      <trkpt lat="57.77945" lon="-6.93842">
        <ele>31.32</ele>
        <time>2021-03-20T15:29:32Z</time>
      </trkpt>
      <trkpt lat="57.77983" lon="-6.94043">
        <ele>34</ele>
        <time>2021-03-20T15:29:36Z</time>
      </trkpt>
      <trkpt lat="57.78013" lon="-6.94179">
        <ele>36.51</ele>
        <time>2021-03-20T15:29:39Z</time>
      </trkpt>
      <trkpt lat="57.78033" lon="-6.94292">
        <ele>40.74</ele>
        <time>2021-03-20T15:29:42Z</time>
      </trkpt>
      <trkpt lat="57.78048" lon="-6.94334">
        <ele>43.28</ele>
        <time>2021-03-20T15:29:46Z</time>
      </trkpt>
      <trkpt lat="57.7811" lon="-6.94449">
        <ele>44.21</ele>
        <time>2021-03-20T15:29:49Z</time>
      </trkpt>
      <trkpt lat="57.78163" lon="-6.94608">
        <ele>44.12</ele>
        <time>2021-03-20T15:29:53Z</time>
      </trkpt>
      <trkpt lat="57.78249" lon="-6.94787">
        <ele>49.72</ele>
        <time>2021-03-20T15:29:56Z</time>
      </trkpt>
      <trkpt lat="57.78324" lon="-6.94997">
        <ele>55.54</ele>
        <time>2021-03-20T15:29:59Z</time>
      </trkpt>
      <trkpt lat="57.78347" lon="-6.95145">
        <ele>56.01</ele>
        <time>2021-03-20T15:30:03Z</time>
      </trkpt>
      <trkpt lat="57.78398" lon="-6.95292">
        <ele>54.8</ele>
        <time>2021-03-20T15:30:06Z</time>
      </trkpt>
      <trkpt lat="57.78409" lon="-6.95346">
        <ele>53.8</ele>
        <time>2021-03-20T15:30:10Z</time>
      </trkpt>
      <trkpt lat="57.78411" lon="-6.95371">
        <ele>53.42</ele>
        <time>2021-03-20T15:30:13Z</time>
      </trkpt>
      <trkpt lat="57.78411" lon="-6.95397">
        <ele>53.22</ele>
        <time>2021-03-20T15:30:17Z</time>
      </trkpt>
      <trkpt lat="57.78369" lon="-6.95657">
        <ele>50.73</ele>
        <time>2021-03-20T15:30:20Z</time>
      </trkpt>
      <trkpt lat="57.78362" lon="-6.9571">
        <ele>51.92</ele>
        <time>2021-03-20T15:30:23Z</time>
      </trkpt>
      <trkpt lat="57.7836" lon="-6.95752">
        <ele>51.11</ele>
        <time>2021-03-20T15:30:27Z</time>
      </trkpt>
      <trkpt lat="57.78359" lon="-6.95795">
        <ele>50.68</ele>
        <time>2021-03-20T15:30:30Z</time>
      </trkpt>
      <trkpt lat="57.7836" lon="-6.95854">
        <ele>49.44</ele>
        <time>2021-03-20T15:30:34Z</time>
      </trkpt>
      <trkpt lat="57.78366" lon="-6.9591">
        <ele>47.9</ele>
        <time>2021-03-20T15:30:37Z</time>
      </trkpt>
      <trkpt lat="57.78374" lon="-6.95966">
        <ele>46.53</ele>
        <time>2021-03-20T15:30:40Z</time>
      </trkpt>
      <trkpt lat="57.78384" lon="-6.95995">
        <ele>46.17</ele>
        <time>2021-03-20T15:30:44Z</time>
      </trkpt>
      <trkpt lat="57.78395" lon="-6.96013">
        <ele>46.46</ele>
        <time>2021-03-20T15:30:47Z</time>
      </trkpt>
      <trkpt lat="57.78474" lon="-6.96086">
        <ele>49</ele>
        <time>2021-03-20T15:30:51Z</time>
      </trkpt>
      <trkpt lat="57.78564" lon="-6.96178">
        <ele>47.09</ele>
        <time>2021-03-20T15:30:54Z</time>
      </trkpt>
      <trkpt lat="57.78661" lon="-6.96299">
        <ele>49.14</ele>
        <time>2021-03-20T15:30:58Z</time>
      </trkpt>
      <trkpt lat="57.78725" lon="-6.96394">
        <ele>51.35</ele>
        <time>2021-03-20T15:31:01Z</time>
      </trkpt>
      <trkpt lat="57.78762" lon="-6.96455">
        <ele>52.24</ele>
        <time>2021-03-20T15:31:04Z</time>
      </trkpt>
      <trkpt lat="57.78864" lon="-6.96695">
        <ele>51.69</ele>
        <time>2021-03-20T15:31:08Z</time>
      </trkpt>
      <trkpt lat="57.78873" lon="-6.96709">
        <ele>51.28</ele>
        <time>2021-03-20T15:31:11Z</time>
      </trkpt>
      <trkpt lat="57.789" lon="-6.96735">
        <ele>51.9</ele>
        <time>2021-03-20T15:31:15Z</time>
      </trkpt>
      <trkpt lat="57.78966" lon="-6.96761">
        <ele>56.53</ele>
        <time>2021-03-20T15:31:18Z</time>
      </trkpt>
      <trkpt lat="57.79004" lon="-6.96783">
        <ele>52.06</ele>
        <time>2021-03-20T15:31:22Z</time>
      </trkpt>
      <trkpt lat="57.79214" lon="-6.97024">
        <ele>53.94</ele>
        <time>2021-03-20T15:31:25Z</time>
      </trkpt>
      <trkpt lat="57.79252" lon="-6.97083">
        <ele>53.83</ele>
        <time>2021-03-20T15:31:28Z</time>
      </trkpt>
      <trkpt lat="57.79274" lon="-6.97127">
        <ele>55.65</ele>
        <time>2021-03-20T15:31:32Z</time>
      </trkpt>
      <trkpt lat="57.79304" lon="-6.97211">
        <ele>54.4</ele>
        <time>2021-03-20T15:31:35Z</time>
      </trkpt>
      <trkpt lat="57.79312" lon="-6.97237">
        <ele>53.01</ele>
        <time>2021-03-20T15:31:39Z</time>
      </trkpt>
      <trkpt lat="57.79318" lon="-6.97264">
        <ele>52.24</ele>
        <time>2021-03-20T15:31:42Z</time>
      </trkpt>
      <trkpt lat="57.79319" lon="-6.97295">
        <ele>52.12</ele>
        <time>2021-03-20T15:31:45Z</time>
      </trkpt>
      <trkpt lat="57.79317" lon="-6.97324">
        <ele>52.33</ele>
        <time>2021-03-20T15:31:49Z</time>
      </trkpt>
      <trkpt lat="57.79313" lon="-6.97351">
        <ele>52.36</ele>
        <time>2021-03-20T15:31:52Z</time>
      </trkpt>
      <trkpt lat="57.79306" lon="-6.97378">
        <ele>52.94</ele>
        <time>2021-03-20T15:31:56Z</time>
      </trkpt>
      <trkpt lat="57.79275" lon="-6.97468">
        <ele>51.62</ele>
        <time>2021-03-20T15:31:59Z</time>
      </trkpt>
      <trkpt lat="57.7923" lon="-6.97575">
        <ele>51.72</ele>
        <time>2021-03-20T15:32:03Z</time>
      </trkpt>
      <trkpt lat="57.79209" lon="-6.97621">
        <ele>51.27</ele>
        <time>2021-03-20T15:32:06Z</time>
      </trkpt>
      <trkpt lat="57.79178" lon="-6.9767">
        <ele>50.6</ele>
        <time>2021-03-20T15:32:09Z</time>
      </trkpt>
      <trkpt lat="57.7912" lon="-6.97727">
        <ele>52.16</ele>
        <time>2021-03-20T15:32:13Z</time>
      </trkpt>
      <trkpt lat="57.78962" lon="-6.97843">
        <ele>54.04</ele>
        <time>2021-03-20T15:32:16Z</time>
      </trkpt>
      <trkpt lat="57.78949" lon="-6.97856">
        <ele>54.08</ele>
        <time>2021-03-20T15:32:20Z</time>
      </trkpt>
      <trkpt lat="57.78937" lon="-6.97877">
        <ele>54.56</ele>
        <time>2021-03-20T15:32:23Z</time>
      </trkpt>
      <trkpt lat="57.78888" lon="-6.98047">
        <ele>60.17</ele>
        <time>2021-03-20T15:32:26Z</time>
      </trkpt>
      <trkpt lat="57.78817" lon="-6.98301">
        <ele>65.35</ele>
        <time>2021-03-20T15:32:30Z</time>
      </trkpt>
      <trkpt lat="57.78782" lon="-6.98455">
        <ele>67.2</ele>
        <time>2021-03-20T15:32:33Z</time>
      </trkpt>
      <trkpt lat="57.78732" lon="-6.98929">
        <ele>74.28</ele>
        <time>2021-03-20T15:32:37Z</time>
      </trkpt>
      <trkpt lat="57.78725" lon="-6.9904">
        <ele>71.9</ele>
        <time>2021-03-20T15:32:40Z</time>
      </trkpt>
      <trkpt lat="57.78717" lon="-6.99333">
        <ele>60.36</ele>
        <time>2021-03-20T15:32:44Z</time>
      </trkpt>
      <trkpt lat="57.7871" lon="-6.99527">
        <ele>55.25</ele>
        <time>2021-03-20T15:32:47Z</time>
      </trkpt>
      <trkpt lat="57.7866" lon="-7.00082">
        <ele>40.68</ele>
        <time>2021-03-20T15:32:50Z</time>
      </trkpt>
      <trkpt lat="57.78631" lon="-7.00249">
        <ele>32.44</ele>
        <time>2021-03-20T15:32:54Z</time>
      </trkpt>
      <trkpt lat="57.78625" lon="-7.00318">
        <ele>30.07</ele>
        <time>2021-03-20T15:32:57Z</time>
      </trkpt>
      <trkpt lat="57.78622" lon="-7.00408">
        <ele>27.74</ele>
        <time>2021-03-20T15:33:01Z</time>
      </trkpt>
      <trkpt lat="57.78619" lon="-7.00689">
        <ele>25.13</ele>
        <time>2021-03-20T15:33:04Z</time>
      </trkpt>
      <trkpt lat="57.78616" lon="-7.00729">
        <ele>23.91</ele>
        <time>2021-03-20T15:33:08Z</time>
      </trkpt>
      <trkpt lat="57.78609" lon="-7.00765">
        <ele>22.87</ele>
        <time>2021-03-20T15:33:11Z</time>
      </trkpt>
      <trkpt lat="57.78597" lon="-7.00794">
        <ele>22.78</ele>
        <time>2021-03-20T15:33:14Z</time>
      </trkpt>
      <trkpt lat="57.78584" lon="-7.00822">
        <ele>22.76</ele>
        <time>2021-03-20T15:33:18Z</time>
      </trkpt>
      <trkpt lat="57.78517" lon="-7.00925">
        <ele>19.98</ele>
        <time>2021-03-20T15:33:21Z</time>
      </trkpt>
      <trkpt lat="57.78507" lon="-7.00937">
        <ele>19.34</ele>
        <time>2021-03-20T15:33:25Z</time>
      </trkpt>
      <trkpt lat="57.78493" lon="-7.00947">
        <ele>18.96</ele>
        <time>2021-03-20T15:33:28Z</time>
      </trkpt>
      <trkpt lat="57.78467" lon="-7.00958">
        <ele>17.86</ele>
        <time>2021-03-20T15:33:31Z</time>
      </trkpt>
      <trkpt lat="57.78445" lon="-7.00958">
        <ele>17.06</ele>
        <time>2021-03-20T15:33:35Z</time>
      </trkpt>
      <trkpt lat="57.78425" lon="-7.00954">
        <ele>17.12</ele>
        <time>2021-03-20T15:33:38Z</time>
      </trkpt>
      <trkpt lat="57.78387" lon="-7.00943">
        <ele>17.16</ele>
        <time>2021-03-20T15:33:42Z</time>
      </trkpt>
      <trkpt lat="57.78311" lon="-7.00896">
        <ele>16.71</ele>
        <time>2021-03-20T15:33:45Z</time>
      </trkpt>
      <trkpt lat="57.7829" lon="-7.00878">
        <ele>15.72</ele>
        <time>2021-03-20T15:33:49Z</time>
      </trkpt>
      <trkpt lat="57.78141" lon="-7.00719">
        <ele>11.26</ele>
        <time>2021-03-20T15:33:52Z</time>
      </trkpt>
      <trkpt lat="57.78121" lon="-7.007">
        <ele>10.65</ele>
        <time>2021-03-20T15:33:55Z</time>
      </trkpt>
      <trkpt lat="57.78103" lon="-7.00686">
        <ele>10.3</ele>
        <time>2021-03-20T15:33:59Z</time>
      </trkpt>
      <trkpt lat="57.78085" lon="-7.00676">
        <ele>10.66</ele>
        <time>2021-03-20T15:34:02Z</time>
      </trkpt>
      <trkpt lat="57.78038" lon="-7.00666">
        <ele>11</ele>
        <time>2021-03-20T15:34:06Z</time>
      </trkpt>
      <trkpt lat="57.78015" lon="-7.00669">
        <ele>10.48</ele>
        <time>2021-03-20T15:34:09Z</time>
      </trkpt>
      <trkpt lat="57.77998" lon="-7.00674">
        <ele>9.75</ele>
        <time>2021-03-20T15:34:12Z</time>
      </trkpt>
      <trkpt lat="57.7798" lon="-7.00683">
        <ele>9.43</ele>
        <time>2021-03-20T15:34:16Z</time>
      </trkpt>
      <trkpt lat="57.77945" lon="-7.00706">
        <ele>8.58</ele>
        <time>2021-03-20T15:34:19Z</time>
      </trkpt>
      <trkpt lat="57.77931" lon="-7.00719">
        <ele>9.14</ele>
        <time>2021-03-20T15:34:23Z</time>
      </trkpt>
      <trkpt lat="57.77908" lon="-7.00747">
        <ele>9.47</ele>
        <time>2021-03-20T15:34:26Z</time>
      </trkpt>
      <trkpt lat="57.77887" lon="-7.00778">
        <ele>9.15</ele>
        <time>2021-03-20T15:34:30Z</time>
      </trkpt>
      <trkpt lat="57.77863" lon="-7.00832">
        <ele>9.85</ele>
        <time>2021-03-20T15:34:33Z</time>
      </trkpt>
      <trkpt lat="57.77856" lon="-7.00854">
        <ele>10.15</ele>
        <time>2021-03-20T15:34:36Z</time>
      </trkpt>
      <trkpt lat="57.77841" lon="-7.00923">
        <ele>10.89</ele>
        <time>2021-03-20T15:34:40Z</time>
      </trkpt>
      <trkpt lat="57.77813" lon="-7.01072">
        <ele>14.89</ele>
        <time>2021-03-20T15:34:43Z</time>
      </trkpt>
      <trkpt lat="57.77806" lon="-7.01092">
        <ele>14.65</ele>
        <time>2021-03-20T15:34:47Z</time>
      </trkpt>
      <trkpt lat="57.77779" lon="-7.01146">
        <ele>13.67</ele>
        <time>2021-03-20T15:34:50Z</time>
      </trkpt>
      <trkpt lat="57.77753" lon="-7.01179">
        <ele>13.49</ele>
        <time>2021-03-20T15:34:54Z</time>
      </trkpt>
      <trkpt lat="57.77724" lon="-7.01205">
        <ele>12.22</ele>
        <time>2021-03-20T15:34:57Z</time>
      </trkpt>
      <trkpt lat="57.77704" lon="-7.01213">
        <ele>11.02</ele>
        <time>2021-03-20T15:35:00Z</time>
      </trkpt>
      <trkpt lat="57.77683" lon="-7.01217">
        <ele>9.97</ele>
        <time>2021-03-20T15:35:04Z</time>
      </trkpt>
      <trkpt lat="57.77658" lon="-7.01216">
        <ele>9.13</ele>
        <time>2021-03-20T15:35:07Z</time>
      </trkpt>
      <trkpt lat="57.77634" lon="-7.01212">
        <ele>8.34</ele>
        <time>2021-03-20T15:35:11Z</time>
      </trkpt>
      <trkpt lat="57.77603" lon="-7.012">
        <ele>7.61</ele>
        <time>2021-03-20T15:35:14Z</time>
      </trkpt>
      <trkpt lat="57.77494" lon="-7.01143">
        <ele>10.61</ele>
        <time>2021-03-20T15:35:17Z</time>
      </trkpt>
      <trkpt lat="57.77461" lon="-7.01121">
        <ele>11.49</ele>
        <time>2021-03-20T15:35:21Z</time>
      </trkpt>
      <trkpt lat="57.77444" lon="-7.01107">
        <ele>11.3</ele>
        <time>2021-03-20T15:35:24Z</time>
      </trkpt>
      <trkpt lat="57.77387" lon="-7.01045">
        <ele>10.59</ele>
        <time>2021-03-20T15:35:28Z</time>
      </trkpt>
      <trkpt lat="57.77371" lon="-7.01033">
        <ele>9.79</ele>
        <time>2021-03-20T15:35:31Z</time>
      </trkpt>
      <trkpt lat="57.77351" lon="-7.01033">
        <ele>7.72</ele>
        <time>2021-03-20T15:35:35Z</time>
      </trkpt>
      <trkpt lat="57.77333" lon="-7.01045">
        <ele>5.4</ele>
        <time>2021-03-20T15:35:38Z</time>
      </trkpt>
      <trkpt lat="57.77323" lon="-7.01056">
        <ele>5.38</ele>
        <time>2021-03-20T15:35:41Z</time>
      </trkpt>
      <trkpt lat="57.77286" lon="-7.0112">
        <ele>7.22</ele>
        <time>2021-03-20T15:35:45Z</time>
      </trkpt>
      <trkpt lat="57.7726" lon="-7.01193">
        <ele>6.03</ele>
        <time>2021-03-20T15:35:48Z</time>
      </trkpt>
      <trkpt lat="57.77253" lon="-7.0123">
        <ele>5.9</ele>
        <time>2021-03-20T15:35:52Z</time>
      </trkpt>
      <trkpt lat="57.77244" lon="-7.01302">
        <ele>6.24</ele>
        <time>2021-03-20T15:35:55Z</time>
      </trkpt>
      <trkpt lat="57.77237" lon="-7.01326">
        <ele>6.48</ele>
        <time>2021-03-20T15:35:58Z</time>
      </trkpt>
      <trkpt lat="57.77228" lon="-7.01335">
        <ele>6.81</ele>
        <time>2021-03-20T15:36:02Z</time>
      </trkpt>
      <trkpt lat="57.7722" lon="-7.01337">
        <ele>6.99</ele>
        <time>2021-03-20T15:36:05Z</time>
      </trkpt>
      <trkpt lat="57.77198" lon="-7.0133">
        <ele>7</ele>
        <time>2021-03-20T15:36:09Z</time>
      </trkpt>
      <trkpt lat="57.77184" lon="-7.01333">
        <ele>6.61</ele>
        <time>2021-03-20T15:36:12Z</time>
      </trkpt>
      <trkpt lat="57.77171" lon="-7.01343">
        <ele>5.8</ele>
        <time>2021-03-20T15:36:16Z</time>
      </trkpt>
      <trkpt lat="57.77163" lon="-7.01344">
        <ele>5.46</ele>
        <time>2021-03-20T15:36:19Z</time>
      </trkpt>
      <trkpt lat="57.77151" lon="-7.01339">
        <ele>5.25</ele>
        <time>2021-03-20T15:36:22Z</time>
      </trkpt>
      <trkpt lat="57.77147" lon="-7.01278">
        <ele>6.58</ele>
        <time>2021-03-20T15:36:29Z</time>
      </trkpt>
      <trkpt lat="57.77144" lon="-7.01254">
        <ele>6.37</ele>
        <time>2021-03-20T15:36:35Z</time>
      </trkpt>
      <trkpt lat="57.77129" lon="-7.012">
        <ele>6</ele>
        <time>2021-03-20T15:36:41Z</time>
      </trkpt>
      <trkpt lat="57.77114" lon="-7.01171">
        <ele>6.84</ele>
        <time>2021-03-20T15:36:47Z</time>
      </trkpt>
      <trkpt lat="57.77061" lon="-7.01099">
        <ele>6.26</ele>
        <time>2021-03-20T15:36:53Z</time>
      </trkpt>
      <trkpt lat="57.76977" lon="-7.00947">
        <ele>6.09</ele>
        <time>2021-03-20T15:36:59Z</time>
      </trkpt>
      <trkpt lat="57.76909" lon="-7.01055">
        <ele>8</ele>
        <time>2021-03-20T15:37:07Z</time>
      </trkpt>
      <trkpt lat="57.76892" lon="-7.01086">
        <ele>9</ele>
        <time>2021-03-20T15:37:14Z</time>
      </trkpt>
      <trkpt lat="57.76871" lon="-7.01152">
        <ele>7.34</ele>
        <time>2021-03-20T15:37:22Z</time>
      </trkpt>
      <trkpt lat="57.7686" lon="-7.01194">
        <ele>6.01</ele>
        <time>2021-03-20T15:37:29Z</time>
      </trkpt>
      <trkpt lat="57.76858" lon="-7.01219">
        <ele>5.23</ele>
        <time>2021-03-20T15:37:36Z</time>
      </trkpt>
      <trkpt lat="57.76853" lon="-7.01334">
        <ele>4.89</ele>
        <time>2021-03-20T15:37:44Z</time>
      </trkpt>
      <trkpt lat="57.76844" lon="-7.01686">
        <ele>3.88</ele>
        <time>2021-03-20T15:37:51Z</time>
      </trkpt>
      <trkpt lat="57.76837" lon="-7.01807">
        <ele>4.57</ele>
        <time>2021-03-20T15:37:59Z</time>
      </trkpt>
      <trkpt lat="57.76837" lon="-7.01868">
        <ele>4.59</ele>
        <time>2021-03-20T15:38:06Z</time>
      </trkpt>
      <trkpt lat="57.7684" lon="-7.01918">
        <ele>4.24</ele>
        <time>2021-03-20T15:38:13Z</time>
      </trkpt>
      <trkpt lat="57.7686" lon="-7.0209">
        <ele>3.06</ele>
        <time>2021-03-20T15:38:21Z</time>
      </trkpt>
      <trkpt lat="57.76859" lon="-7.02137">
        <ele>3.95</ele>
        <time>2021-03-20T15:38:28Z</time>
      </trkpt>
      <trkpt lat="57.76855" lon="-7.02174">
        <ele>4</ele>
        <time>2021-03-20T15:38:36Z</time>
      </trkpt>
      <trkpt lat="57.76842" lon="-7.02232">
        <ele>4</ele>
        <time>2021-03-20T15:38:43Z</time>
      </trkpt>
      <trkpt lat="57.76784" lon="-7.02396">
        <ele>2.76</ele>
        <time>2021-03-20T15:38:50Z</time>
      </trkpt>
      <trkpt lat="57.76753" lon="-7.02359">
        <ele>3.82</ele>
        <time>2021-03-20T15:38:54Z</time>
      </trkpt>
      <trkpt lat="57.76739" lon="-7.02338">
        <ele>3.1</ele>
        <time>2021-03-20T15:38:58Z</time>
      </trkpt>
      <trkpt lat="57.76704" lon="-7.02424">
        <ele>2.33</ele>
        <time>2021-03-20T15:40:25Z</time>
      </trkpt>
      <trkpt lat="57.76692" lon="-7.02444">
        <ele>2</ele>
        <time>2021-03-20T15:41:53Z</time>
      </trkpt>
      <trkpt lat="57.76664" lon="-7.02506">
        <ele>2</ele>
        <time>2021-03-20T15:43:20Z</time>
      </trkpt>
      <trkpt lat="57.76626" lon="-7.02577">
        <ele>2</ele>
        <time>2021-03-20T15:44:48Z</time>
      </trkpt>
      <trkpt lat="57.76599" lon="-7.0274">
        <ele>1.99</ele>
        <time>2021-03-20T15:46:15Z</time>
      </trkpt>
      <trkpt lat="57.76539" lon="-7.0304">
        <ele>1.97</ele>
        <time>2021-03-20T15:47:42Z</time>
      </trkpt>
      <trkpt lat="57.76516" lon="-7.03221">
        <ele>1.96</ele>
        <time>2021-03-20T15:49:10Z</time>
      </trkpt>
      <trkpt lat="57.76498" lon="-7.03504">
        <ele>1.95</ele>
        <time>2021-03-20T15:50:37Z</time>
      </trkpt>
      <trkpt lat="57.76466" lon="-7.03676">
        <ele>1.94</ele>
        <time>2021-03-20T15:52:05Z</time>
      </trkpt>
      <trkpt lat="57.76402" lon="-7.03787">
        <ele>1.93</ele>
        <time>2021-03-20T15:53:32Z</time>
      </trkpt>
      <trkpt lat="57.76306" lon="-7.03839">
        <ele>1.93</ele>
        <time>2021-03-20T15:55:00Z</time>
      </trkpt>
      <trkpt lat="57.76223" lon="-7.03864">
        <ele>1.92</ele>
        <time>2021-03-20T15:56:27Z</time>
      </trkpt>
      <trkpt lat="57.76136" lon="-7.03856">
        <ele>1.92</ele>
        <time>2021-03-20T15:57:55Z</time>
      </trkpt>
      <trkpt lat="57.75999" lon="-7.03847">
        <ele>1.92</ele>
        <time>2021-03-20T15:59:22Z</time>
      </trkpt>
      <trkpt lat="57.75884" lon="-7.0377">
        <ele>1.92</ele>
        <time>2021-03-20T16:00:50Z</time>
      </trkpt>
      <trkpt lat="57.7577" lon="-7.03641">
        <ele>1.92</ele>
        <time>2021-03-20T16:02:17Z</time>
      </trkpt>
      <trkpt lat="57.75692" lon="-7.03521">
        <ele>1.93</ele>
        <time>2021-03-20T16:03:45Z</time>
      </trkpt>
      <trkpt lat="57.75568" lon="-7.03358">
        <ele>1.93</ele>
        <time>2021-03-20T16:05:12Z</time>
      </trkpt>
      <trkpt lat="57.75486" lon="-7.03212">
        <ele>1.93</ele>
        <time>2021-03-20T16:06:39Z</time>
      </trkpt>
      <trkpt lat="57.75408" lon="-7.03058">
        <ele>1.93</ele>
        <time>2021-03-20T16:08:07Z</time>
      </trkpt>
      <trkpt lat="57.75353" lon="-7.02963">
        <ele>1.93</ele>
        <time>2021-03-20T16:09:34Z</time>
      </trkpt>
      <trkpt lat="57.75266" lon="-7.0286">
        <ele>1.93</ele>
        <time>2021-03-20T16:11:02Z</time>
      </trkpt>
      <trkpt lat="57.75161" lon="-7.02792">
        <ele>1.92</ele>
        <time>2021-03-20T16:12:29Z</time>
      </trkpt>
      <trkpt lat="57.75046" lon="-7.02757">
        <ele>1.92</ele>
        <time>2021-03-20T16:13:57Z</time>
      </trkpt>
      <trkpt lat="57.74964" lon="-7.02774">
        <ele>1.91</ele>
        <time>2021-03-20T16:15:24Z</time>
      </trkpt>
      <trkpt lat="57.74859" lon="-7.02757">
        <ele>1.91</ele>
        <time>2021-03-20T16:16:52Z</time>
      </trkpt>
      <trkpt lat="57.74758" lon="-7.02731">
        <ele>1.9</ele>
        <time>2021-03-20T16:18:19Z</time>
      </trkpt>
      <trkpt lat="57.74657" lon="-7.02671">
        <ele>1.9</ele>
        <time>2021-03-20T16:19:47Z</time>
      </trkpt>
      <trkpt lat="57.74552" lon="-7.02654">
        <ele>1.9</ele>
        <time>2021-03-20T16:21:14Z</time>
      </trkpt>
      <trkpt lat="57.74433" lon="-7.02586">
        <ele>1.89</ele>
        <time>2021-03-20T16:22:42Z</time>
      </trkpt>
      <trkpt lat="57.74268" lon="-7.02517">
        <ele>1.88</ele>
        <time>2021-03-20T16:24:09Z</time>
      </trkpt>
      <trkpt lat="57.74149" lon="-7.02448">
        <ele>1.88</ele>
        <time>2021-03-20T16:25:36Z</time>
      </trkpt>
      <trkpt lat="57.73964" lon="-7.02337">
        <ele>1.87</ele>
        <time>2021-03-20T16:27:04Z</time>
      </trkpt>
      <trkpt lat="57.73869" lon="-7.02302">
        <ele>1.87</ele>
        <time>2021-03-20T16:28:31Z</time>
      </trkpt>
      <trkpt lat="57.73709" lon="-7.0238">
        <ele>1.86</ele>
        <time>2021-03-20T16:29:59Z</time>
      </trkpt>
      <trkpt lat="57.7364" lon="-7.0244">
        <ele>1.86</ele>
        <time>2021-03-20T16:31:26Z</time>
      </trkpt>
      <trkpt lat="57.73557" lon="-7.02491">
        <ele>1.85</ele>
        <time>2021-03-20T16:32:54Z</time>
      </trkpt>
      <trkpt lat="57.7348" lon="-7.02568">
        <ele>1.85</ele>
        <time>2021-03-20T16:34:21Z</time>
      </trkpt>
      <trkpt lat="57.73397" lon="-7.0262">
        <ele>1.85</ele>
        <time>2021-03-20T16:35:49Z</time>
      </trkpt>
      <trkpt lat="57.73315" lon="-7.02706">
        <ele>1.84</ele>
        <time>2021-03-20T16:37:16Z</time>
      </trkpt>
      <trkpt lat="57.73228" lon="-7.02723">
        <ele>1.84</ele>
        <time>2021-03-20T16:38:44Z</time>
      </trkpt>
      <trkpt lat="57.73127" lon="-7.02697">
        <ele>1.84</ele>
        <time>2021-03-20T16:40:11Z</time>
      </trkpt>
      <trkpt lat="57.72943" lon="-7.02586">
        <ele>1.83</ele>
        <time>2021-03-20T16:41:39Z</time>
      </trkpt>
      <trkpt lat="57.72843" lon="-7.0256">
        <ele>1.83</ele>
        <time>2021-03-20T16:43:06Z</time>
      </trkpt>
      <trkpt lat="57.72778" lon="-7.02568">
        <ele>1.82</ele>
        <time>2021-03-20T16:44:33Z</time>
      </trkpt>
      <trkpt lat="57.7265" lon="-7.02723">
        <ele>1.82</ele>
        <time>2021-03-20T16:46:01Z</time>
      </trkpt>
      <trkpt lat="57.72563" lon="-7.0286">
        <ele>1.81</ele>
        <time>2021-03-20T16:47:28Z</time>
      </trkpt>
      <trkpt lat="57.72403" lon="-7.03075">
        <ele>1.8</ele>
        <time>2021-03-20T16:48:56Z</time>
      </trkpt>
      <trkpt lat="57.72345" lon="-7.03143">
        <ele>1.8</ele>
        <time>2021-03-20T16:50:23Z</time>
      </trkpt>
      <trkpt lat="57.72271" lon="-7.03254">
        <ele>1.8</ele>
        <time>2021-03-20T16:51:51Z</time>
      </trkpt>
      <trkpt lat="57.72157" lon="-7.03412">
        <ele>1.79</ele>
        <time>2021-03-20T16:53:18Z</time>
      </trkpt>
      <trkpt lat="57.72068" lon="-7.03512">
        <ele>1.78</ele>
        <time>2021-03-20T16:54:46Z</time>
      </trkpt>
      <trkpt lat="57.71956" lon="-7.03554">
        <ele>1.78</ele>
        <time>2021-03-20T16:56:13Z</time>
      </trkpt>
      <trkpt lat="57.71834" lon="-7.03555">
        <ele>1.77</ele>
        <time>2021-03-20T16:57:41Z</time>
      </trkpt>
      <trkpt lat="57.71752" lon="-7.03538">
        <ele>1.77</ele>
        <time>2021-03-20T16:59:08Z</time>
      </trkpt>
      <trkpt lat="57.71678" lon="-7.03504">
        <ele>1.77</ele>
        <time>2021-03-20T17:00:36Z</time>
      </trkpt>
      <trkpt lat="57.71605" lon="-7.03495">
        <ele>1.77</ele>
        <time>2021-03-20T17:02:03Z</time>
      </trkpt>
      <trkpt lat="57.71532" lon="-7.0347">
        <ele>1.77</ele>
        <time>2021-03-20T17:03:30Z</time>
      </trkpt>
      <trkpt lat="57.71417" lon="-7.03452">
        <ele>1.76</ele>
        <time>2021-03-20T17:04:58Z</time>
      </trkpt>
      <trkpt lat="57.71321" lon="-7.03478">
        <ele>1.76</ele>
        <time>2021-03-20T17:06:25Z</time>
      </trkpt>
      <trkpt lat="57.71225" lon="-7.03478">
        <ele>1.76</ele>
        <time>2021-03-20T17:07:53Z</time>
      </trkpt>
      <trkpt lat="57.71151" lon="-7.03538">
        <ele>1.75</ele>
        <time>2021-03-20T17:09:20Z</time>
      </trkpt>
      <trkpt lat="57.71105" lon="-7.03667">
        <ele>1.75</ele>
        <time>2021-03-20T17:10:48Z</time>
      </trkpt>
      <trkpt lat="57.71064" lon="-7.0383">
        <ele>1.74</ele>
        <time>2021-03-20T17:12:15Z</time>
      </trkpt>
      <trkpt lat="57.7105" lon="-7.0401">
        <ele>1.74</ele>
        <time>2021-03-20T17:13:43Z</time>
      </trkpt>
      <trkpt lat="57.71032" lon="-7.04216">
        <ele>1.73</ele>
        <time>2021-03-20T17:15:10Z</time>
      </trkpt>
      <trkpt lat="57.71032" lon="-7.04354">
        <ele>1.73</ele>
        <time>2021-03-20T17:16:38Z</time>
      </trkpt>
      <trkpt lat="57.71041" lon="-7.04654">
        <ele>1.72</ele>
        <time>2021-03-20T17:18:05Z</time>
      </trkpt>
      <trkpt lat="57.71069" lon="-7.0486">
        <ele>1.72</ele>
        <time>2021-03-20T17:19:33Z</time>
      </trkpt>
      <trkpt lat="57.71078" lon="-7.05015">
        <ele>1.72</ele>
        <time>2021-03-20T17:21:00Z</time>
      </trkpt>
      <trkpt lat="57.71096" lon="-7.05143">
        <ele>1.71</ele>
        <time>2021-03-20T17:22:27Z</time>
      </trkpt>
      <trkpt lat="57.71096" lon="-7.05332">
        <ele>1.71</ele>
        <time>2021-03-20T17:23:55Z</time>
      </trkpt>
      <trkpt lat="57.71069" lon="-7.05487">
        <ele>1.7</ele>
        <time>2021-03-20T17:25:22Z</time>
      </trkpt>
      <trkpt lat="57.70977" lon="-7.05658">
        <ele>1.69</ele>
        <time>2021-03-20T17:26:50Z</time>
      </trkpt>
      <trkpt lat="57.70908" lon="-7.0577">
        <ele>1.69</ele>
        <time>2021-03-20T17:28:17Z</time>
      </trkpt>
      <trkpt lat="57.70821" lon="-7.05881">
        <ele>1.68</ele>
        <time>2021-03-20T17:29:45Z</time>
      </trkpt>
      <trkpt lat="57.70665" lon="-7.06087">
        <ele>1.67</ele>
        <time>2021-03-20T17:31:12Z</time>
      </trkpt>
      <trkpt lat="57.70564" lon="-7.06208">
        <ele>1.66</ele>
        <time>2021-03-20T17:32:40Z</time>
      </trkpt>
      <trkpt lat="57.70496" lon="-7.06268">
        <ele>1.66</ele>
        <time>2021-03-20T17:34:07Z</time>
      </trkpt>
      <trkpt lat="57.70404" lon="-7.06396">
        <ele>1.65</ele>
        <time>2021-03-20T17:35:35Z</time>
      </trkpt>
      <trkpt lat="57.70252" lon="-7.06602">
        <ele>1.64</ele>
        <time>2021-03-20T17:37:02Z</time>
      </trkpt>
      <trkpt lat="57.70174" lon="-7.06705">
        <ele>1.64</ele>
        <time>2021-03-20T17:38:30Z</time>
      </trkpt>
      <trkpt lat="57.70074" lon="-7.06826">
        <ele>1.63</ele>
        <time>2021-03-20T17:39:57Z</time>
      </trkpt>
      <trkpt lat="57.69982" lon="-7.06963">
        <ele>1.63</ele>
        <time>2021-03-20T17:41:24Z</time>
      </trkpt>
      <trkpt lat="57.69899" lon="-7.0704">
        <ele>1.62</ele>
        <time>2021-03-20T17:42:52Z</time>
      </trkpt>
      <trkpt lat="57.69812" lon="-7.07143">
        <ele>1.62</ele>
        <time>2021-03-20T17:44:19Z</time>
      </trkpt>
      <trkpt lat="57.69606" lon="-7.07298">
        <ele>1.61</ele>
        <time>2021-03-20T17:45:47Z</time>
      </trkpt>
      <trkpt lat="57.69532" lon="-7.07358">
        <ele>1.6</ele>
        <time>2021-03-20T17:47:14Z</time>
      </trkpt>
      <trkpt lat="57.69468" lon="-7.07383">
        <ele>1.6</ele>
        <time>2021-03-20T17:48:42Z</time>
      </trkpt>
      <trkpt lat="57.69395" lon="-7.07418">
        <ele>1.6</ele>
        <time>2021-03-20T17:50:09Z</time>
      </trkpt>
      <trkpt lat="57.69326" lon="-7.07478">
        <ele>1.59</ele>
        <time>2021-03-20T17:51:37Z</time>
      </trkpt>
      <trkpt lat="57.69271" lon="-7.07589">
        <ele>1.59</ele>
        <time>2021-03-20T17:53:04Z</time>
      </trkpt>
      <trkpt lat="57.6922" lon="-7.07701">
        <ele>1.58</ele>
        <time>2021-03-20T17:54:32Z</time>
      </trkpt>
      <trkpt lat="57.69179" lon="-7.07821">
        <ele>1.58</ele>
        <time>2021-03-20T17:55:59Z</time>
      </trkpt>
      <trkpt lat="57.69152" lon="-7.07941">
        <ele>1.57</ele>
        <time>2021-03-20T17:57:27Z</time>
      </trkpt>
      <trkpt lat="57.69106" lon="-7.0807">
        <ele>1.57</ele>
        <time>2021-03-20T17:58:54Z</time>
      </trkpt>
      <trkpt lat="57.69074" lon="-7.08242">
        <ele>1.56</ele>
        <time>2021-03-20T18:00:21Z</time>
      </trkpt>
      <trkpt lat="57.69069" lon="-7.08422">
        <ele>1.56</ele>
        <time>2021-03-20T18:01:49Z</time>
      </trkpt>
      <trkpt lat="57.69069" lon="-7.08628">
        <ele>1.55</ele>
        <time>2021-03-20T18:03:16Z</time>
      </trkpt>
      <trkpt lat="57.69092" lon="-7.08808">
        <ele>1.54</ele>
        <time>2021-03-20T18:04:44Z</time>
      </trkpt>
      <trkpt lat="57.69092" lon="-7.08997">
        <ele>1.53</ele>
        <time>2021-03-20T18:06:11Z</time>
      </trkpt>
      <trkpt lat="57.69106" lon="-7.09177">
        <ele>1.53</ele>
        <time>2021-03-20T18:07:39Z</time>
      </trkpt>
      <trkpt lat="57.69124" lon="-7.09461">
        <ele>1.52</ele>
        <time>2021-03-20T18:09:06Z</time>
      </trkpt>
      <trkpt lat="57.69124" lon="-7.0983">
        <ele>1.5</ele>
        <time>2021-03-20T18:10:34Z</time>
      </trkpt>
      <trkpt lat="57.69115" lon="-7.10018">
        <ele>1.49</ele>
        <time>2021-03-20T18:12:01Z</time>
      </trkpt>
      <trkpt lat="57.69115" lon="-7.10182">
        <ele>1.49</ele>
        <time>2021-03-20T18:13:29Z</time>
      </trkpt>
      <trkpt lat="57.69106" lon="-7.1043">
        <ele>1.48</ele>
        <time>2021-03-20T18:14:56Z</time>
      </trkpt>
      <trkpt lat="57.69106" lon="-7.10645">
        <ele>1.47</ele>
        <time>2021-03-20T18:16:24Z</time>
      </trkpt>
      <trkpt lat="57.6912" lon="-7.10903">
        <ele>1.46</ele>
        <time>2021-03-20T18:17:51Z</time>
      </trkpt>
      <trkpt lat="57.6912" lon="-7.11332">
        <ele>1.44</ele>
        <time>2021-03-20T18:19:18Z</time>
      </trkpt>
      <trkpt lat="57.69101" lon="-7.11478">
        <ele>1.43</ele>
        <time>2021-03-20T18:20:46Z</time>
      </trkpt>
      <trkpt lat="57.69101" lon="-7.11649">
        <ele>1.42</ele>
        <time>2021-03-20T18:22:13Z</time>
      </trkpt>
      <trkpt lat="57.69106" lon="-7.11804">
        <ele>1.42</ele>
        <time>2021-03-20T18:23:41Z</time>
      </trkpt>
      <trkpt lat="57.69115" lon="-7.11932">
        <ele>1.41</ele>
        <time>2021-03-20T18:25:08Z</time>
      </trkpt>
      <trkpt lat="57.69124" lon="-7.12104">
        <ele>1.4</ele>
        <time>2021-03-20T18:26:36Z</time>
      </trkpt>
      <trkpt lat="57.69152" lon="-7.12447">
        <ele>1.39</ele>
        <time>2021-03-20T18:28:03Z</time>
      </trkpt>
      <trkpt lat="57.69179" lon="-7.12602">
        <ele>1.38</ele>
        <time>2021-03-20T18:29:31Z</time>
      </trkpt>
      <trkpt lat="57.69202" lon="-7.12714">
        <ele>1.38</ele>
        <time>2021-03-20T18:30:58Z</time>
      </trkpt>
      <trkpt lat="57.6923" lon="-7.12868">
        <ele>1.37</ele>
        <time>2021-03-20T18:32:26Z</time>
      </trkpt>
      <trkpt lat="57.69243" lon="-7.1298">
        <ele>1.36</ele>
        <time>2021-03-20T18:33:53Z</time>
      </trkpt>
      <trkpt lat="57.69266" lon="-7.13134">
        <ele>1.36</ele>
        <time>2021-03-20T18:35:21Z</time>
      </trkpt>
      <trkpt lat="57.69298" lon="-7.13297">
        <ele>1.35</ele>
        <time>2021-03-20T18:36:48Z</time>
      </trkpt>
      <trkpt lat="57.69335" lon="-7.13469">
        <ele>1.34</ele>
        <time>2021-03-20T18:38:15Z</time>
      </trkpt>
      <trkpt lat="57.6939" lon="-7.13641">
        <ele>1.33</ele>
        <time>2021-03-20T18:39:43Z</time>
      </trkpt>
      <trkpt lat="57.69422" lon="-7.13752">
        <ele>1.33</ele>
        <time>2021-03-20T18:41:10Z</time>
      </trkpt>
      <trkpt lat="57.69482" lon="-7.13855">
        <ele>1.32</ele>
        <time>2021-03-20T18:42:38Z</time>
      </trkpt>
      <trkpt lat="57.69537" lon="-7.13932">
        <ele>1.32</ele>
        <time>2021-03-20T18:44:05Z</time>
      </trkpt>
      <trkpt lat="57.69583" lon="-7.14001">
        <ele>1.32</ele>
        <time>2021-03-20T18:45:33Z</time>
      </trkpt>
      <trkpt lat="57.69665" lon="-7.1419">
        <ele>1.31</ele>
        <time>2021-03-20T18:47:00Z</time>
      </trkpt>
      <trkpt lat="57.69693" lon="-7.14301">
        <ele>1.3</ele>
        <time>2021-03-20T18:48:28Z</time>
      </trkpt>
      <trkpt lat="57.69702" lon="-7.14413">
        <ele>1.3</ele>
        <time>2021-03-20T18:49:55Z</time>
      </trkpt>
      <trkpt lat="57.69716" lon="-7.14507">
        <ele>1.29</ele>
        <time>2021-03-20T18:51:23Z</time>
      </trkpt>
      <trkpt lat="57.6973" lon="-7.14619">
        <ele>1.29</ele>
        <time>2021-03-20T18:52:50Z</time>
      </trkpt>
      <trkpt lat="57.69762" lon="-7.15031">
        <ele>1.26</ele>
        <time>2021-03-20T18:54:18Z</time>
      </trkpt>
      <trkpt lat="57.6978" lon="-7.15168">
        <ele>1.26</ele>
        <time>2021-03-20T18:55:45Z</time>
      </trkpt>
      <trkpt lat="57.69808" lon="-7.15323">
        <ele>1.25</ele>
        <time>2021-03-20T18:57:12Z</time>
      </trkpt>
      <trkpt lat="57.69831" lon="-7.15477">
        <ele>1.24</ele>
        <time>2021-03-20T18:58:40Z</time>
      </trkpt>
      <trkpt lat="57.69849" lon="-7.15606">
        <ele>1.24</ele>
        <time>2021-03-20T19:00:07Z</time>
      </trkpt>
      <trkpt lat="57.69867" lon="-7.15769">
        <ele>1.23</ele>
        <time>2021-03-20T19:01:35Z</time>
      </trkpt>
      <trkpt lat="57.6989" lon="-7.15915">
        <ele>1.22</ele>
        <time>2021-03-20T19:03:02Z</time>
      </trkpt>
      <trkpt lat="57.69927" lon="-7.1607">
        <ele>1.21</ele>
        <time>2021-03-20T19:04:30Z</time>
      </trkpt>
      <trkpt lat="57.6995" lon="-7.16215">
        <ele>1.2</ele>
        <time>2021-03-20T19:05:57Z</time>
      </trkpt>
      <trkpt lat="57.69968" lon="-7.16361">
        <ele>1.2</ele>
        <time>2021-03-20T19:07:25Z</time>
      </trkpt>
      <trkpt lat="57.69986" lon="-7.16482">
        <ele>1.19</ele>
        <time>2021-03-20T19:08:52Z</time>
      </trkpt>
      <trkpt lat="57.70009" lon="-7.16602">
        <ele>1.18</ele>
        <time>2021-03-20T19:10:20Z</time>
      </trkpt>
      <trkpt lat="57.70055" lon="-7.16911">
        <ele>1.17</ele>
        <time>2021-03-20T19:11:47Z</time>
      </trkpt>
      <trkpt lat="57.70074" lon="-7.17097">
        <ele>1.16</ele>
        <time>2021-03-20T19:13:15Z</time>
      </trkpt>
      <trkpt lat="57.70086" lon="-7.17238">
        <ele>1.15</ele>
        <time>2021-03-20T19:14:42Z</time>
      </trkpt>
      <trkpt lat="57.70067" lon="-7.17596">
        <ele>1.13</ele>
        <time>2021-03-20T19:16:09Z</time>
      </trkpt>
      <trkpt lat="57.7006" lon="-7.1776">
        <ele>1.13</ele>
        <time>2021-03-20T19:17:37Z</time>
      </trkpt>
      <trkpt lat="57.70064" lon="-7.17881">
        <ele>1.12</ele>
        <time>2021-03-20T19:19:04Z</time>
      </trkpt>
      <trkpt lat="57.70089" lon="-7.17933">
        <ele>1.12</ele>
        <time>2021-03-20T19:20:32Z</time>
      </trkpt>
      <trkpt lat="57.70117" lon="-7.17978">
        <ele>1.12</ele>
        <time>2021-03-20T19:21:59Z</time>
      </trkpt>
      <trkpt lat="57.70149" lon="-7.17998">
        <ele>1.11</ele>
        <time>2021-03-20T19:23:27Z</time>
      </trkpt>
      <trkpt lat="57.70192" lon="-7.18014">
        <ele>1.11</ele>
        <time>2021-03-20T19:24:54Z</time>
      </trkpt>
      <trkpt lat="57.70214" lon="-7.18009">
        <ele>1.11</ele>
        <time>2021-03-20T19:26:22Z</time>
      </trkpt>
      <trkpt lat="57.70221" lon="-7.1801">
        <ele>1.11</ele>
        <time>2021-03-20T19:27:49Z</time>
      </trkpt>
      <trkpt lat="57.70292" lon="-7.18026">
        <ele>2.51</ele>
        <time>2021-03-20T19:29:17Z</time>
      </trkpt>
      <trkpt lat="57.70307" lon="-7.18033">
        <ele>3.12</ele>
        <time>2021-03-20T19:30:44Z</time>
      </trkpt>
      <trkpt lat="57.70316" lon="-7.1805">
        <ele>3.76</ele>
        <time>2021-03-20T19:32:12Z</time>
      </trkpt>
      <trkpt lat="57.70354" lon="-7.18143">
        <ele>6.51</ele>
        <time>2021-03-20T19:33:39Z</time>
      </trkpt>
      <trkpt lat="57.70358" lon="-7.18156">
        <ele>6.77</ele>
        <time>2021-03-20T19:35:07Z</time>
      </trkpt>
      <trkpt lat="57.70362" lon="-7.18182">
        <ele>6.49</ele>
        <time>2021-03-20T19:36:34Z</time>
      </trkpt>
      <trkpt lat="57.70362" lon="-7.18196">
        <ele>6.09</ele>
        <time>2021-03-20T19:38:01Z</time>
      </trkpt>
      <trkpt lat="57.70359" lon="-7.18246">
        <ele>4.96</ele>
        <time>2021-03-20T19:39:29Z</time>
      </trkpt>
      <trkpt lat="57.70314" lon="-7.18243">
        <ele>2.58</ele>
        <time>2021-03-20T19:39:33Z</time>
      </trkpt>
      <trkpt lat="57.70287" lon="-7.18246">
        <ele>1.47</ele>
        <time>2021-03-20T19:39:37Z</time>
      </trkpt>
      <trkpt lat="57.70243" lon="-7.18265">
        <ele>1.59</ele>
        <time>2021-03-20T19:39:42Z</time>
      </trkpt>
      <trkpt lat="57.7021" lon="-7.18287">
        <ele>2.68</ele>
        <time>2021-03-20T19:39:46Z</time>
      </trkpt>
      <trkpt lat="57.70173" lon="-7.18319">
        <ele>2</ele>
        <time>2021-03-20T19:39:50Z</time>
      </trkpt>
      <trkpt lat="57.7014" lon="-7.18362">
        <ele>2</ele>
        <time>2021-03-20T19:39:54Z</time>
      </trkpt>
      <trkpt lat="57.70106" lon="-7.18424">
        <ele>0.81</ele>
        <time>2021-03-20T19:39:58Z</time>
      </trkpt>
      <trkpt lat="57.69999" lon="-7.18665">
        <time>2021-03-20T19:40:03Z</time>
      </trkpt>
      <trkpt lat="57.6986" lon="-7.19033">
        <ele>3</ele>
        <time>2021-03-20T19:40:07Z</time>
      </trkpt>
      <trkpt lat="57.69807" lon="-7.19158">
        <ele>4</ele>
        <time>2021-03-20T19:40:11Z</time>
      </trkpt>
      <trkpt lat="57.69746" lon="-7.19294">
        <ele>2.66</ele>
        <time>2021-03-20T19:40:15Z</time>
      </trkpt>
      <trkpt lat="57.69654" lon="-7.19482">
        <ele>7.42</ele>
        <time>2021-03-20T19:40:20Z</time>
      </trkpt>
      <trkpt lat="57.69613" lon="-7.19553">
        <ele>9.95</ele>
        <time>2021-03-20T19:40:24Z</time>
      </trkpt>
      <trkpt lat="57.69578" lon="-7.19601">
        <ele>10</ele>
        <time>2021-03-20T19:40:28Z</time>
      </trkpt>
      <trkpt lat="57.69501" lon="-7.19678">
        <ele>8.04</ele>
        <time>2021-03-20T19:40:32Z</time>
      </trkpt>
      <trkpt lat="57.69471" lon="-7.19698">
        <ele>8</ele>
        <time>2021-03-20T19:40:36Z</time>
      </trkpt>
      <trkpt lat="57.6944" lon="-7.1971">
        <ele>8.16</ele>
        <time>2021-03-20T19:40:41Z</time>
      </trkpt>
      <trkpt lat="57.69379" lon="-7.19713">
        <ele>10.69</ele>
        <time>2021-03-20T19:40:45Z</time>
      </trkpt>
      <trkpt lat="57.69373" lon="-7.19802">
        <ele>10.29</ele>
        <time>2021-03-20T19:40:48Z</time>
      </trkpt>
      <trkpt lat="57.69325" lon="-7.20274">
        <ele>9.61</ele>
        <time>2021-03-20T19:40:51Z</time>
      </trkpt>
      <trkpt lat="57.69317" lon="-7.20328">
        <ele>7.97</ele>
        <time>2021-03-20T19:40:54Z</time>
      </trkpt>
      <trkpt lat="57.69307" lon="-7.20369">
        <ele>6.58</ele>
        <time>2021-03-20T19:40:57Z</time>
      </trkpt>
      <trkpt lat="57.69292" lon="-7.20406">
        <ele>6.21</ele>
        <time>2021-03-20T19:41:00Z</time>
      </trkpt>
      <trkpt lat="57.69265" lon="-7.20441">
        <ele>6.17</ele>
        <time>2021-03-20T19:41:03Z</time>
      </trkpt>
      <trkpt lat="57.69244" lon="-7.20461">
        <ele>6.33</ele>
        <time>2021-03-20T19:41:06Z</time>
      </trkpt>
      <trkpt lat="57.69186" lon="-7.20503">
        <ele>6.36</ele>
        <time>2021-03-20T19:41:09Z</time>
      </trkpt>
      <trkpt lat="57.69158" lon="-7.2051">
        <ele>7.26</ele>
        <time>2021-03-20T19:41:12Z</time>
      </trkpt>
      <trkpt lat="57.69013" lon="-7.20508">
        <ele>10.15</ele>
        <time>2021-03-20T19:41:15Z</time>
      </trkpt>
      <trkpt lat="57.68987" lon="-7.20505">
        <ele>10.09</ele>
        <time>2021-03-20T19:41:18Z</time>
      </trkpt>
      <trkpt lat="57.68964" lon="-7.20498">
        <ele>9.84</ele>
        <time>2021-03-20T19:41:21Z</time>
      </trkpt>
      <trkpt lat="57.68893" lon="-7.20452">
        <ele>9.45</ele>
        <time>2021-03-20T19:41:24Z</time>
      </trkpt>
      <trkpt lat="57.68866" lon="-7.2043">
        <ele>9.38</ele>
        <time>2021-03-20T19:41:27Z</time>
      </trkpt>
      <trkpt lat="57.68849" lon="-7.20401">
        <ele>10.12</ele>
        <time>2021-03-20T19:41:30Z</time>
      </trkpt>
      <trkpt lat="57.68799" lon="-7.20301">
        <ele>11.02</ele>
        <time>2021-03-20T19:41:33Z</time>
      </trkpt>
      <trkpt lat="57.68785" lon="-7.20284">
        <ele>11.33</ele>
        <time>2021-03-20T19:41:36Z</time>
      </trkpt>
      <trkpt lat="57.68761" lon="-7.20277">
        <ele>9.28</ele>
        <time>2021-03-20T19:41:39Z</time>
      </trkpt>
      <trkpt lat="57.68567" lon="-7.20281">
        <ele>10.08</ele>
        <time>2021-03-20T19:41:42Z</time>
      </trkpt>
      <trkpt lat="57.68552" lon="-7.20286">
        <ele>10.87</ele>
        <time>2021-03-20T19:41:45Z</time>
      </trkpt>
      <trkpt lat="57.68523" lon="-7.20319">
        <ele>12</ele>
        <time>2021-03-20T19:41:48Z</time>
      </trkpt>
      <trkpt lat="57.68445" lon="-7.20422">
        <ele>11</ele>
        <time>2021-03-20T19:41:51Z</time>
      </trkpt>
      <trkpt lat="57.68423" lon="-7.20449">
        <ele>9.35</ele>
        <time>2021-03-20T19:41:54Z</time>
      </trkpt>
      <trkpt lat="57.68405" lon="-7.20479">
        <ele>7.16</ele>
        <time>2021-03-20T19:41:57Z</time>
      </trkpt>
      <trkpt lat="57.68351" lon="-7.20615">
        <ele>4.64</ele>
        <time>2021-03-20T19:42:00Z</time>
      </trkpt>
      <trkpt lat="57.6831" lon="-7.20726">
        <ele>3</ele>
        <time>2021-03-20T19:42:04Z</time>
      </trkpt>
      <trkpt lat="57.68298" lon="-7.20778">
        <ele>2</ele>
        <time>2021-03-20T19:42:07Z</time>
      </trkpt>
      <trkpt lat="57.68295" lon="-7.20812">
        <ele>2</ele>
        <time>2021-03-20T19:42:10Z</time>
      </trkpt>
      <trkpt lat="57.68295" lon="-7.20847">
        <ele>2</ele>
        <time>2021-03-20T19:42:13Z</time>
      </trkpt>
      <trkpt lat="57.68311" lon="-7.20984">
        <ele>2.81</ele>
        <time>2021-03-20T19:42:16Z</time>
      </trkpt>
      <trkpt lat="57.68321" lon="-7.21059">
        <ele>3</ele>
        <time>2021-03-20T19:42:19Z</time>
      </trkpt>
      <trkpt lat="57.68321" lon="-7.21091">
        <ele>3</ele>
        <time>2021-03-20T19:42:22Z</time>
      </trkpt>
      <trkpt lat="57.68312" lon="-7.21138">
        <ele>3.23</ele>
        <time>2021-03-20T19:42:25Z</time>
      </trkpt>
      <trkpt lat="57.68294" lon="-7.21211">
        <ele>3.16</ele>
        <time>2021-03-20T19:42:28Z</time>
      </trkpt>
      <trkpt lat="57.68251" lon="-7.21204">
        <ele>1.03</ele>
        <time>2021-03-20T19:42:31Z</time>
      </trkpt>
      <trkpt lat="57.68212" lon="-7.21208">
        <ele>2.36</ele>
        <time>2021-03-20T19:42:33Z</time>
      </trkpt>
      <trkpt lat="57.68186" lon="-7.21218">
        <ele>3</ele>
        <time>2021-03-20T19:42:36Z</time>
      </trkpt>
      <trkpt lat="57.68008" lon="-7.21314">
        <ele>4</ele>
        <time>2021-03-20T19:42:39Z</time>
      </trkpt>
      <trkpt lat="57.67967" lon="-7.21333">
        <ele>4.2</ele>
        <time>2021-03-20T19:42:42Z</time>
      </trkpt>
      <trkpt lat="57.67929" lon="-7.21345">
        <ele>4.58</ele>
        <time>2021-03-20T19:42:44Z</time>
      </trkpt>
      <trkpt lat="57.67874" lon="-7.21355">
        <ele>3.68</ele>
        <time>2021-03-20T19:42:47Z</time>
      </trkpt>
      <trkpt lat="57.67848" lon="-7.21365">
        <ele>3</ele>
        <time>2021-03-20T19:42:50Z</time>
      </trkpt>
      <trkpt lat="57.67818" lon="-7.21386">
        <ele>3.56</ele>
        <time>2021-03-20T19:42:53Z</time>
      </trkpt>
      <trkpt lat="57.678" lon="-7.21406">
        <ele>4.13</ele>
        <time>2021-03-20T19:42:55Z</time>
      </trkpt>
      <trkpt lat="57.6777" lon="-7.21447">
        <ele>5.67</ele>
        <time>2021-03-20T19:42:58Z</time>
      </trkpt>
      <trkpt lat="57.67712" lon="-7.21542">
        <ele>10.37</ele>
        <time>2021-03-20T19:43:01Z</time>
      </trkpt>
      <trkpt lat="57.67656" lon="-7.21639">
        <ele>14.37</ele>
        <time>2021-03-20T19:43:04Z</time>
      </trkpt>
      <trkpt lat="57.67615" lon="-7.21727">
        <ele>15.72</ele>
        <time>2021-03-20T19:43:06Z</time>
      </trkpt>
      <trkpt lat="57.67574" lon="-7.21831">
        <ele>16.35</ele>
        <time>2021-03-20T19:43:09Z</time>
      </trkpt>
      <trkpt lat="57.67554" lon="-7.2187">
        <ele>15.66</ele>
        <time>2021-03-20T19:43:12Z</time>
      </trkpt>
      <trkpt lat="57.67527" lon="-7.21908">
        <ele>14.32</ele>
        <time>2021-03-20T19:43:15Z</time>
      </trkpt>
      <trkpt lat="57.67494" lon="-7.21945">
        <ele>14.2</ele>
        <time>2021-03-20T19:43:17Z</time>
      </trkpt>
      <trkpt lat="57.67414" lon="-7.22015">
        <ele>14.5</ele>
        <time>2021-03-20T19:43:20Z</time>
      </trkpt>
      <trkpt lat="57.67354" lon="-7.22059">
        <ele>14.02</ele>
        <time>2021-03-20T19:43:23Z</time>
      </trkpt>
      <trkpt lat="57.67271" lon="-7.2211">
        <ele>14.07</ele>
        <time>2021-03-20T19:43:26Z</time>
      </trkpt>
      <trkpt lat="57.67219" lon="-7.22129">
        <ele>12.77</ele>
        <time>2021-03-20T19:43:28Z</time>
      </trkpt>
      <trkpt lat="57.67034" lon="-7.22208">
        <ele>13.27</ele>
        <time>2021-03-20T19:43:31Z</time>
      </trkpt>
      <trkpt lat="57.6699" lon="-7.22221">
        <ele>15.75</ele>
        <time>2021-03-20T19:43:34Z</time>
      </trkpt>
      <trkpt lat="57.66943" lon="-7.22245">
        <ele>17.19</ele>
        <time>2021-03-20T19:43:37Z</time>
      </trkpt>
      <trkpt lat="57.66917" lon="-7.22268">
        <ele>16.99</ele>
        <time>2021-03-20T19:43:39Z</time>
      </trkpt>
      <trkpt lat="57.66906" lon="-7.22286">
        <ele>17.67</ele>
        <time>2021-03-20T19:43:42Z</time>
      </trkpt>
      <trkpt lat="57.66897" lon="-7.22311">
        <ele>17.71</ele>
        <time>2021-03-20T19:43:45Z</time>
      </trkpt>
      <trkpt lat="57.6689" lon="-7.22342">
        <ele>17.93</ele>
        <time>2021-03-20T19:43:48Z</time>
      </trkpt>
      <trkpt lat="57.6688" lon="-7.2245">
        <ele>17.41</ele>
        <time>2021-03-20T19:43:50Z</time>
      </trkpt>
      <trkpt lat="57.66873" lon="-7.22483">
        <ele>17.15</ele>
        <time>2021-03-20T19:43:53Z</time>
      </trkpt>
      <trkpt lat="57.66857" lon="-7.22536">
        <ele>16.9</ele>
        <time>2021-03-20T19:43:56Z</time>
      </trkpt>
      <trkpt lat="57.66829" lon="-7.22647">
        <ele>15.05</ele>
        <time>2021-03-20T19:43:59Z</time>
      </trkpt>
      <trkpt lat="57.66747" lon="-7.22998">
        <ele>20.11</ele>
        <time>2021-03-20T19:44:01Z</time>
      </trkpt>
      <trkpt lat="57.66725" lon="-7.2306">
        <ele>21.66</ele>
        <time>2021-03-20T19:44:04Z</time>
      </trkpt>
      <trkpt lat="57.66711" lon="-7.23084">
        <ele>22.57</ele>
        <time>2021-03-20T19:44:07Z</time>
      </trkpt>
      <trkpt lat="57.66691" lon="-7.23112">
        <ele>25.2</ele>
        <time>2021-03-20T19:44:10Z</time>
      </trkpt>
      <trkpt lat="57.66646" lon="-7.23202">
        <ele>26.39</ele>
        <time>2021-03-20T19:44:12Z</time>
      </trkpt>
      <trkpt lat="57.66626" lon="-7.2323">
        <ele>27.66</ele>
        <time>2021-03-20T19:44:15Z</time>
      </trkpt>
      <trkpt lat="57.66609" lon="-7.23241">
        <ele>28.39</ele>
        <time>2021-03-20T19:44:18Z</time>
      </trkpt>
      <trkpt lat="57.66583" lon="-7.23252">
        <ele>29</ele>
        <time>2021-03-20T19:44:21Z</time>
      </trkpt>
      <trkpt lat="57.66506" lon="-7.23266">
        <ele>31</ele>
        <time>2021-03-20T19:44:23Z</time>
      </trkpt>
      <trkpt lat="57.66485" lon="-7.23274">
        <ele>31</ele>
        <time>2021-03-20T19:44:26Z</time>
      </trkpt>
      <trkpt lat="57.66468" lon="-7.23288">
        <ele>30.46</ele>
        <time>2021-03-20T19:44:29Z</time>
      </trkpt>
      <trkpt lat="57.66451" lon="-7.23309">
        <ele>29.24</ele>
        <time>2021-03-20T19:44:32Z</time>
      </trkpt>
      <trkpt lat="57.66436" lon="-7.23339">
        <ele>28.94</ele>
        <time>2021-03-20T19:44:34Z</time>
      </trkpt>
      <trkpt lat="57.66401" lon="-7.23433">
        <ele>26.1</ele>
        <time>2021-03-20T19:44:37Z</time>
      </trkpt>
      <trkpt lat="57.66388" lon="-7.23453">
        <ele>24.65</ele>
        <time>2021-03-20T19:44:40Z</time>
      </trkpt>
      <trkpt lat="57.66378" lon="-7.23464">
        <ele>23.89</ele>
        <time>2021-03-20T19:44:43Z</time>
      </trkpt>
      <trkpt lat="57.66357" lon="-7.2347">
        <ele>22.59</ele>
        <time>2021-03-20T19:44:45Z</time>
      </trkpt>
      <trkpt lat="57.66345" lon="-7.2347">
        <ele>21.38</ele>
        <time>2021-03-20T19:44:48Z</time>
      </trkpt>
      <trkpt lat="57.66326" lon="-7.23455">
        <ele>19.84</ele>
        <time>2021-03-20T19:44:51Z</time>
      </trkpt>
      <trkpt lat="57.66272" lon="-7.2338">
        <ele>18.83</ele>
        <time>2021-03-20T19:44:54Z</time>
      </trkpt>
      <trkpt lat="57.6625" lon="-7.23357">
        <ele>17.18</ele>
        <time>2021-03-20T19:44:57Z</time>
      </trkpt>
      <trkpt lat="57.66232" lon="-7.23348">
        <ele>15.48</ele>
        <time>2021-03-20T19:44:59Z</time>
      </trkpt>
      <trkpt lat="57.66213" lon="-7.23346">
        <ele>14.56</ele>
        <time>2021-03-20T19:45:02Z</time>
      </trkpt>
      <trkpt lat="57.6619" lon="-7.23352">
        <ele>14.52</ele>
        <time>2021-03-20T19:45:05Z</time>
      </trkpt>
      <trkpt lat="57.66163" lon="-7.2337">
        <ele>14.68</ele>
        <time>2021-03-20T19:45:08Z</time>
      </trkpt>
      <trkpt lat="57.66132" lon="-7.23401">
        <ele>14.07</ele>
        <time>2021-03-20T19:45:10Z</time>
      </trkpt>
      <trkpt lat="57.6611" lon="-7.2343">
        <ele>14.69</ele>
        <time>2021-03-20T19:45:13Z</time>
      </trkpt>
      <trkpt lat="57.65803" lon="-7.2391">
        <ele>7.9</ele>
        <time>2021-03-20T19:45:16Z</time>
      </trkpt>
      <trkpt lat="57.65617" lon="-7.24205">
        <ele>3.21</ele>
        <time>2021-03-20T19:45:19Z</time>
      </trkpt>
      <trkpt lat="57.65517" lon="-7.24368">
        <ele>3.38</ele>
        <time>2021-03-20T19:45:21Z</time>
      </trkpt>
      <trkpt lat="57.65334" lon="-7.24639">
        <ele>2</ele>
        <time>2021-03-20T19:45:24Z</time>
      </trkpt>
      <trkpt lat="57.65247" lon="-7.24796">
        <ele>6</ele>
        <time>2021-03-20T19:45:27Z</time>
      </trkpt>
      <trkpt lat="57.65236" lon="-7.24805">
        <ele>6</ele>
        <time>2021-03-20T19:45:30Z</time>
      </trkpt>
      <trkpt lat="57.65216" lon="-7.24799">
        <ele>6</ele>
        <time>2021-03-20T19:45:32Z</time>
      </trkpt>
      <trkpt lat="57.65129" lon="-7.24728">
        <ele>8.36</ele>
        <time>2021-03-20T19:45:35Z</time>
      </trkpt>
      <trkpt lat="57.65064" lon="-7.24669">
        <ele>9.73</ele>
        <time>2021-03-20T19:45:38Z</time>
      </trkpt>
      <trkpt lat="57.64992" lon="-7.24592">
        <ele>8.71</ele>
        <time>2021-03-20T19:45:41Z</time>
      </trkpt>
      <trkpt lat="57.64891" lon="-7.24477">
        <ele>9.91</ele>
        <time>2021-03-20T19:45:43Z</time>
      </trkpt>
      <trkpt lat="57.64775" lon="-7.24339">
        <ele>13.11</ele>
        <time>2021-03-20T19:45:46Z</time>
      </trkpt>
      <trkpt lat="57.64734" lon="-7.24297">
        <ele>14.84</ele>
        <time>2021-03-20T19:45:49Z</time>
      </trkpt>
      <trkpt lat="57.64721" lon="-7.24289">
        <ele>15.52</ele>
        <time>2021-03-20T19:45:52Z</time>
      </trkpt>
      <trkpt lat="57.64696" lon="-7.24292">
        <ele>17.36</ele>
        <time>2021-03-20T19:45:54Z</time>
      </trkpt>
      <trkpt lat="57.64702" lon="-7.2442">
        <ele>20.14</ele>
        <time>2021-03-20T19:46:00Z</time>
      </trkpt>
      <trkpt lat="57.6476" lon="-7.24949">
        <ele>20.95</ele>
        <time>2021-03-20T19:46:05Z</time>
      </trkpt>
      <trkpt lat="57.64796" lon="-7.25211">
        <ele>19.06</ele>
        <time>2021-03-20T19:46:10Z</time>
      </trkpt>
      <trkpt lat="57.64856" lon="-7.25858">
        <ele>10.57</ele>
        <time>2021-03-20T19:46:15Z</time>
      </trkpt>
      <trkpt lat="57.64855" lon="-7.25898">
        <ele>10.59</ele>
        <time>2021-03-20T19:46:20Z</time>
      </trkpt>
      <trkpt lat="57.6483" lon="-7.26143">
        <ele>6.54</ele>
        <time>2021-03-20T19:46:25Z</time>
      </trkpt>
      <trkpt lat="57.64828" lon="-7.26253">
        <ele>6.41</ele>
        <time>2021-03-20T19:46:31Z</time>
      </trkpt>
      <trkpt lat="57.64823" lon="-7.26331">
        <ele>6.09</ele>
        <time>2021-03-20T19:46:36Z</time>
      </trkpt>
      <trkpt lat="57.64825" lon="-7.26365">
        <ele>4.87</ele>
        <time>2021-03-20T19:46:41Z</time>
      </trkpt>
      <trkpt lat="57.64825" lon="-7.26412">
        <ele>4.13</ele>
        <time>2021-03-20T19:46:46Z</time>
      </trkpt>
      <trkpt lat="57.6482" lon="-7.26454">
        <ele>3.61</ele>
        <time>2021-03-20T19:46:51Z</time>
      </trkpt>
      <trkpt lat="57.64812" lon="-7.26484">
        <ele>3.18</ele>
        <time>2021-03-20T19:46:56Z</time>
      </trkpt>
      <trkpt lat="57.64755" lon="-7.26612">
        <ele>4.61</ele>
        <time>2021-03-20T19:47:01Z</time>
      </trkpt>
      <trkpt lat="57.6474" lon="-7.26662">
        <ele>5.7</ele>
        <time>2021-03-20T19:47:07Z</time>
      </trkpt>
      <trkpt lat="57.64701" lon="-7.26901">
        <ele>7</ele>
        <time>2021-03-20T19:47:12Z</time>
      </trkpt>
      <trkpt lat="57.64688" lon="-7.26988">
        <ele>7</ele>
        <time>2021-03-20T19:47:17Z</time>
      </trkpt>
      <trkpt lat="57.64676" lon="-7.2712">
        <ele>8.67</ele>
        <time>2021-03-20T19:47:22Z</time>
      </trkpt>
      <trkpt lat="57.64669" lon="-7.27157">
        <ele>8.93</ele>
        <time>2021-03-20T19:47:27Z</time>
      </trkpt>
      <trkpt lat="57.64664" lon="-7.27175">
        <ele>8.67</ele>
        <time>2021-03-20T19:47:32Z</time>
      </trkpt>
      <trkpt lat="57.64652" lon="-7.27197">
        <ele>8.53</ele>
        <time>2021-03-20T19:47:38Z</time>
      </trkpt>
      <trkpt lat="57.64633" lon="-7.2722">
        <ele>9</ele>
        <time>2021-03-20T19:47:43Z</time>
      </trkpt>
      <trkpt lat="57.64588" lon="-7.27251">
        <ele>10</ele>
        <time>2021-03-20T19:47:48Z</time>
      </trkpt>
      <trkpt lat="57.64552" lon="-7.27285">
        <ele>8.9</ele>
        <time>2021-03-20T19:47:53Z</time>
      </trkpt>
      <trkpt lat="57.6453" lon="-7.27328">
        <ele>9</ele>
        <time>2021-03-20T19:47:58Z</time>
      </trkpt>
      <trkpt lat="57.64507" lon="-7.27401">
        <ele>8.58</ele>
        <time>2021-03-20T19:48:03Z</time>
      </trkpt>
      <trkpt lat="57.6447" lon="-7.27553">
        <ele>9</ele>
        <time>2021-03-20T19:48:08Z</time>
      </trkpt>
      <trkpt lat="57.64452" lon="-7.27699">
        <ele>9.27</ele>
        <time>2021-03-20T19:48:14Z</time>
      </trkpt>
      <trkpt lat="57.64439" lon="-7.27757">
        <ele>9</ele>
        <time>2021-03-20T19:48:19Z</time>
      </trkpt>
      <trkpt lat="57.64405" lon="-7.2786">
        <ele>11.39</ele>
        <time>2021-03-20T19:48:24Z</time>
      </trkpt>
      <trkpt lat="57.64365" lon="-7.27965">
        <ele>13</ele>
        <time>2021-03-20T19:48:29Z</time>
      </trkpt>
      <trkpt lat="57.64332" lon="-7.2803">
        <ele>12</ele>
        <time>2021-03-20T19:48:34Z</time>
      </trkpt>
      <trkpt lat="57.64308" lon="-7.28071">
        <ele>11.95</ele>
        <time>2021-03-20T19:48:39Z</time>
      </trkpt>
      <trkpt lat="57.64265" lon="-7.28108">
        <ele>11.6</ele>
        <time>2021-03-20T19:48:44Z</time>
      </trkpt>
      <trkpt lat="57.64245" lon="-7.28133">
        <ele>11</ele>
        <time>2021-03-20T19:48:50Z</time>
      </trkpt>
      <trkpt lat="57.64225" lon="-7.28178">
        <ele>10.6</ele>
        <time>2021-03-20T19:48:55Z</time>
      </trkpt>
      <trkpt lat="57.64209" lon="-7.28217">
        <ele>10.08</ele>
        <time>2021-03-20T19:49:00Z</time>
      </trkpt>
      <trkpt lat="57.64171" lon="-7.28285">
        <ele>8.59</ele>
        <time>2021-03-20T19:49:05Z</time>
      </trkpt>
      <trkpt lat="57.64135" lon="-7.28372">
        <ele>5.05</ele>
        <time>2021-03-20T19:49:10Z</time>
      </trkpt>
      <trkpt lat="57.64122" lon="-7.28413">
        <ele>3.05</ele>
        <time>2021-03-20T19:49:15Z</time>
      </trkpt>
      <trkpt lat="57.64109" lon="-7.2848">
        <ele>3.07</ele>
        <time>2021-03-20T19:49:21Z</time>
      </trkpt>
      <trkpt lat="57.64101" lon="-7.28547">
        <ele>3.35</ele>
        <time>2021-03-20T19:49:26Z</time>
      </trkpt>
      <trkpt lat="57.64102" lon="-7.28635">
        <ele>4.91</ele>
        <time>2021-03-20T19:49:31Z</time>
      </trkpt>
      <trkpt lat="57.64106" lon="-7.28691">
        <ele>5.98</ele>
        <time>2021-03-20T19:49:36Z</time>
      </trkpt>
      <trkpt lat="57.64118" lon="-7.28765">
        <ele>6</ele>
        <time>2021-03-20T19:49:41Z</time>
      </trkpt>
      <trkpt lat="57.64129" lon="-7.28867">
        <ele>6</ele>
        <time>2021-03-20T19:49:46Z</time>
      </trkpt>
      <trkpt lat="57.64129" lon="-7.28917">
        <ele>5.64</ele>
        <time>2021-03-20T19:49:51Z</time>
      </trkpt>
      <trkpt lat="57.64115" lon="-7.29101">
        <ele>3</ele>
        <time>2021-03-20T19:49:57Z</time>
      </trkpt>
      <trkpt lat="57.64117" lon="-7.29163">
        <ele>2.8</ele>
        <time>2021-03-20T19:50:02Z</time>
      </trkpt>
      <trkpt lat="57.64125" lon="-7.29205">
        <ele>3.52</ele>
        <time>2021-03-20T19:50:07Z</time>
      </trkpt>
      <trkpt lat="57.64202" lon="-7.29493">
        <ele>8.45</ele>
        <time>2021-03-20T19:50:12Z</time>
      </trkpt>
      <trkpt lat="57.64222" lon="-7.29549">
        <ele>9.78</ele>
        <time>2021-03-20T19:50:17Z</time>
      </trkpt>
      <trkpt lat="57.6424" lon="-7.29589">
        <ele>12.19</ele>
        <time>2021-03-20T19:50:22Z</time>
      </trkpt>
      <trkpt lat="57.64299" lon="-7.29694">
        <ele>16.99</ele>
        <time>2021-03-20T19:50:28Z</time>
      </trkpt>
      <trkpt lat="57.6434" lon="-7.29796">
        <ele>20.64</ele>
        <time>2021-03-20T19:50:33Z</time>
      </trkpt>
      <trkpt lat="57.64375" lon="-7.299">
        <ele>23.89</ele>
        <time>2021-03-20T19:50:38Z</time>
      </trkpt>
      <trkpt lat="57.64399" lon="-7.2998">
        <ele>26.36</ele>
        <time>2021-03-20T19:50:43Z</time>
      </trkpt>
      <trkpt lat="57.64428" lon="-7.30068">
        <ele>26.73</ele>
        <time>2021-03-20T19:50:48Z</time>
      </trkpt>
      <trkpt lat="57.64513" lon="-7.30314">
        <ele>23.46</ele>
        <time>2021-03-20T19:50:53Z</time>
      </trkpt>
      <trkpt lat="57.6456" lon="-7.30435">
        <ele>20.28</ele>
        <time>2021-03-20T19:50:58Z</time>
      </trkpt>
      <trkpt lat="57.6465" lon="-7.30677">
        <ele>16</ele>
        <time>2021-03-20T19:51:04Z</time>
      </trkpt>
      <trkpt lat="57.6514" lon="-7.32047">
        <ele>7.99</ele>
        <time>2021-03-20T19:51:09Z</time>
      </trkpt>
      <trkpt lat="57.65238" lon="-7.32318">
        <ele>7.04</ele>
        <time>2021-03-20T19:51:14Z</time>
      </trkpt>
      <trkpt lat="57.65313" lon="-7.32539">
        <ele>8</ele>
        <time>2021-03-20T19:51:19Z</time>
      </trkpt>
      <trkpt lat="57.65321" lon="-7.32567">
        <ele>7.81</ele>
        <time>2021-03-20T19:51:24Z</time>
      </trkpt>
      <trkpt lat="57.6532" lon="-7.32594">
        <ele>7.51</ele>
        <time>2021-03-20T19:51:29Z</time>
      </trkpt>
      <trkpt lat="57.65225" lon="-7.33882">
        <ele>20.89</ele>
        <time>2021-03-20T19:51:35Z</time>
      </trkpt>
      <trkpt lat="57.65216" lon="-7.33926">
        <ele>20</ele>
        <time>2021-03-20T19:51:40Z</time>
      </trkpt>
      <trkpt lat="57.65015" lon="-7.34475">
        <ele>10.45</ele>
        <time>2021-03-20T19:51:45Z</time>
      </trkpt>
      <trkpt lat="57.64719" lon="-7.35275">
        <ele>19.12</ele>
        <time>2021-03-20T19:51:50Z</time>
      </trkpt>
      <trkpt lat="57.64494" lon="-7.36248">
        <ele>13.27</ele>
        <time>2021-03-20T19:51:55Z</time>
      </trkpt>
      <trkpt lat="57.64467" lon="-7.36384">
        <ele>12.81</ele>
        <time>2021-03-20T19:52:00Z</time>
      </trkpt>
      <trkpt lat="57.64455" lon="-7.36435">
        <ele>12</ele>
        <time>2021-03-20T19:52:05Z</time>
      </trkpt>
      <trkpt lat="57.64383" lon="-7.3668">
        <ele>12</ele>
        <time>2021-03-20T19:52:11Z</time>
      </trkpt>
      <trkpt lat="57.64366" lon="-7.36757">
        <ele>13</ele>
        <time>2021-03-20T19:52:16Z</time>
      </trkpt>
      <trkpt lat="57.64269" lon="-7.37291">
        <ele>6.18</ele>
        <time>2021-03-20T19:52:21Z</time>
      </trkpt>
      <trkpt lat="57.6426" lon="-7.37323">
        <ele>5.35</ele>
        <time>2021-03-20T19:52:26Z</time>
      </trkpt>
      <trkpt lat="57.6425" lon="-7.37339">
        <ele>5.01</ele>
        <time>2021-03-20T19:52:31Z</time>
      </trkpt>
      <trkpt lat="57.64238" lon="-7.37351">
        <ele>5.16</ele>
        <time>2021-03-20T19:52:36Z</time>
      </trkpt>
      <trkpt lat="57.64226" lon="-7.37358">
        <ele>5.1</ele>
        <time>2021-03-20T19:52:42Z</time>
      </trkpt>
      <trkpt lat="57.63986" lon="-7.37397">
        <ele>2.84</ele>
        <time>2021-03-20T19:52:47Z</time>
      </trkpt>
      <trkpt lat="57.63913" lon="-7.37425">
        <ele>4.27</ele>
        <time>2021-03-20T19:52:52Z</time>
      </trkpt>
      <trkpt lat="57.63901" lon="-7.37434">
        <ele>5.13</ele>
        <time>2021-03-20T19:52:57Z</time>
      </trkpt>
      <trkpt lat="57.63786" lon="-7.37562">
        <ele>7.19</ele>
        <time>2021-03-20T19:53:02Z</time>
      </trkpt>
      <trkpt lat="57.63739" lon="-7.37608">
        <ele>8.43</ele>
        <time>2021-03-20T19:53:07Z</time>
      </trkpt>
      <trkpt lat="57.63571" lon="-7.37749">
        <ele>12.04</ele>
        <time>2021-03-20T19:53:12Z</time>
      </trkpt>
      <trkpt lat="57.63288" lon="-7.3794">
        <ele>4.47</ele>
        <time>2021-03-20T19:53:18Z</time>
      </trkpt>
      <trkpt lat="57.63249" lon="-7.37973">
        <ele>3.97</ele>
        <time>2021-03-20T19:53:23Z</time>
      </trkpt>
      <trkpt lat="57.63228" lon="-7.38006">
        <ele>3.6</ele>
        <time>2021-03-20T19:53:28Z</time>
      </trkpt>
      <trkpt lat="57.6321" lon="-7.38048">
        <ele>3</ele>
        <time>2021-03-20T19:53:33Z</time>
      </trkpt>
      <trkpt lat="57.63197" lon="-7.38097">
        <ele>2</ele>
        <time>2021-03-20T19:53:38Z</time>
      </trkpt>
      <trkpt lat="57.63187" lon="-7.38152">
        <ele>2.28</ele>
        <time>2021-03-20T19:53:43Z</time>
      </trkpt>
      <trkpt lat="57.63171" lon="-7.38144">
        <ele>2.84</ele>
        <time>2021-03-20T19:53:57Z</time>
      </trkpt>
      <trkpt lat="57.62935" lon="-7.37985">
        <ele>14.18</ele>
        <time>2021-03-20T19:54:12Z</time>
      </trkpt>
      <trkpt lat="57.6291" lon="-7.37965">
        <ele>15.25</ele>
        <time>2021-03-20T19:54:26Z</time>
      </trkpt>
      <trkpt lat="57.62714" lon="-7.37727">
        <ele>23.13</ele>
        <time>2021-03-20T19:54:40Z</time>
      </trkpt>
      <trkpt lat="57.6269" lon="-7.37709">
        <ele>24.49</ele>
        <time>2021-03-20T19:54:54Z</time>
      </trkpt>
      <trkpt lat="57.62656" lon="-7.37697">
        <ele>25.67</ele>
        <time>2021-03-20T19:55:08Z</time>
      </trkpt>
      <trkpt lat="57.62072" lon="-7.376">
        <ele>32.47</ele>
        <time>2021-03-20T19:55:22Z</time>
      </trkpt>
      <trkpt lat="57.61691" lon="-7.3755">
        <ele>35.23</ele>
        <time>2021-03-20T19:55:36Z</time>
      </trkpt>
      <trkpt lat="57.61638" lon="-7.37524">
        <ele>35.47</ele>
        <time>2021-03-20T19:55:50Z</time>
      </trkpt>
      <trkpt lat="57.61113" lon="-7.37389">
        <ele>57</ele>
        <time>2021-03-20T19:56:04Z</time>
      </trkpt>
      <trkpt lat="57.61085" lon="-7.37386">
        <ele>57.09</ele>
        <time>2021-03-20T19:56:18Z</time>
      </trkpt>
      <trkpt lat="57.61058" lon="-7.37389">
        <ele>57.94</ele>
        <time>2021-03-20T19:56:32Z</time>
      </trkpt>
      <trkpt lat="57.60973" lon="-7.37418">
        <ele>57.97</ele>
        <time>2021-03-20T19:56:46Z</time>
      </trkpt>
      <trkpt lat="57.6094" lon="-7.3744">
        <ele>56.01</ele>
        <time>2021-03-20T19:57:00Z</time>
      </trkpt>
      <trkpt lat="57.59765" lon="-7.38729">
        <ele>36.22</ele>
        <time>2021-03-20T19:57:14Z</time>
      </trkpt>
      <trkpt lat="57.59739" lon="-7.38743">
        <ele>36.24</ele>
        <time>2021-03-20T19:57:28Z</time>
      </trkpt>
      <trkpt lat="57.59725" lon="-7.38741">
        <ele>36.34</ele>
        <time>2021-03-20T19:57:42Z</time>
      </trkpt>
      <trkpt lat="57.59549" lon="-7.38615">
        <ele>30.37</ele>
        <time>2021-03-20T19:57:56Z</time>
      </trkpt>
      <trkpt lat="57.59519" lon="-7.38603">
        <ele>28.97</ele>
        <time>2021-03-20T19:58:11Z</time>
      </trkpt>
      <trkpt lat="57.59495" lon="-7.38604">
        <ele>28.24</ele>
        <time>2021-03-20T19:58:25Z</time>
      </trkpt>
      <trkpt lat="57.59456" lon="-7.38615">
        <ele>27.8</ele>
        <time>2021-03-20T19:58:39Z</time>
      </trkpt>
      <trkpt lat="57.59422" lon="-7.38634">
        <ele>26.22</ele>
        <time>2021-03-20T19:58:53Z</time>
      </trkpt>
      <trkpt lat="57.59387" lon="-7.38665">
        <ele>26.05</ele>
        <time>2021-03-20T19:59:07Z</time>
      </trkpt>
      <trkpt lat="57.58661" lon="-7.3959">
        <ele>19</ele>
        <time>2021-03-20T19:59:21Z</time>
      </trkpt>
      <trkpt lat="57.58624" lon="-7.39641">
        <ele>20.54</ele>
        <time>2021-03-20T19:59:35Z</time>
      </trkpt>
      <trkpt lat="57.58597" lon="-7.39692">
        <ele>21</ele>
        <time>2021-03-20T19:59:49Z</time>
      </trkpt>
      <trkpt lat="57.58456" lon="-7.40036">
        <ele>16.85</ele>
        <time>2021-03-20T20:00:03Z</time>
      </trkpt>
      <trkpt lat="57.58422" lon="-7.40102">
        <ele>14.55</ele>
        <time>2021-03-20T20:00:17Z</time>
      </trkpt>
      <trkpt lat="57.5823" lon="-7.40401">
        <ele>8.6</ele>
        <time>2021-03-20T20:00:31Z</time>
      </trkpt>
      <trkpt lat="57.58202" lon="-7.40441">
        <ele>9</ele>
        <time>2021-03-20T20:00:45Z</time>
      </trkpt>
      <trkpt lat="57.58099" lon="-7.40554">
        <ele>8</ele>
        <time>2021-03-20T20:00:59Z</time>
      </trkpt>
      <trkpt lat="57.57983" lon="-7.40708">
        <ele>5</ele>
        <time>2021-03-20T20:01:13Z</time>
      </trkpt>
      <trkpt lat="57.57843" lon="-7.40905">
        <ele>4.81</ele>
        <time>2021-03-20T20:01:27Z</time>
      </trkpt>
      <trkpt lat="57.57898" lon="-7.41001">
        <ele>3.64</ele>
        <time>2021-03-20T20:01:32Z</time>
      </trkpt>
      <trkpt lat="57.57914" lon="-7.41042">
        <ele>3</ele>
        <time>2021-03-20T20:01:37Z</time>
      </trkpt>
      <trkpt lat="57.57926" lon="-7.41101">
        <ele>3</ele>
        <time>2021-03-20T20:01:42Z</time>
      </trkpt>
      <trkpt lat="57.5793" lon="-7.4115">
        <ele>3</ele>
        <time>2021-03-20T20:01:47Z</time>
      </trkpt>
      <trkpt lat="57.57929" lon="-7.41185">
        <ele>2.33</ele>
        <time>2021-03-20T20:01:52Z</time>
      </trkpt>
      <trkpt lat="57.5793" lon="-7.41296">
        <ele>1.19</ele>
        <time>2021-03-20T20:01:56Z</time>
      </trkpt>
      <trkpt lat="57.57938" lon="-7.41355">
        <ele>0.22</ele>
        <time>2021-03-20T20:02:01Z</time>
      </trkpt>
      <trkpt lat="57.57959" lon="-7.41435">
        <ele>0.47</ele>
        <time>2021-03-20T20:02:06Z</time>
      </trkpt>
      <trkpt lat="57.57975" lon="-7.41485">
        <ele>1.42</ele>
        <time>2021-03-20T20:02:11Z</time>
      </trkpt>
      <trkpt lat="57.5799" lon="-7.41511">
        <ele>1.75</ele>
        <time>2021-03-20T20:02:16Z</time>
      </trkpt>
      <trkpt lat="57.58068" lon="-7.41593">
        <ele>2</ele>
        <time>2021-03-20T20:02:21Z</time>
      </trkpt>
      <trkpt lat="57.58219" lon="-7.41743">
        <ele>3.78</ele>
        <time>2021-03-20T20:02:25Z</time>
      </trkpt>
      <trkpt lat="57.58253" lon="-7.41788">
        <ele>3.63</ele>
        <time>2021-03-20T20:02:30Z</time>
      </trkpt>
      <trkpt lat="57.58282" lon="-7.41837">
        <ele>3</ele>
        <time>2021-03-20T20:02:35Z</time>
      </trkpt>
      <trkpt lat="57.58294" lon="-7.4186">
        <ele>3</ele>
        <time>2021-03-20T20:02:40Z</time>
      </trkpt>
      <trkpt lat="57.58301" lon="-7.41878">
        <ele>3</ele>
        <time>2021-03-20T20:02:45Z</time>
      </trkpt>
      <trkpt lat="57.58348" lon="-7.42068">
        <ele>5.79</ele>
        <time>2021-03-20T20:02:50Z</time>
      </trkpt>
      <trkpt lat="57.58389" lon="-7.42211">
        <ele>4.01</ele>
        <time>2021-03-20T20:02:54Z</time>
      </trkpt>
      <trkpt lat="57.58493" lon="-7.42611">
        <ele>4.74</ele>
        <time>2021-03-20T20:02:59Z</time>
      </trkpt>
      <trkpt lat="57.58648" lon="-7.43229">
        <ele>8</ele>
        <time>2021-03-20T20:03:04Z</time>
      </trkpt>
      <trkpt lat="57.58756" lon="-7.43776">
        <ele>6.2</ele>
        <time>2021-03-20T20:03:09Z</time>
      </trkpt>
      <trkpt lat="57.58784" lon="-7.4393">
        <ele>6.21</ele>
        <time>2021-03-20T20:03:14Z</time>
      </trkpt>
      <trkpt lat="57.58814" lon="-7.44129">
        <ele>4.66</ele>
        <time>2021-03-20T20:03:19Z</time>
      </trkpt>
      <trkpt lat="57.58813" lon="-7.44209">
        <ele>4.27</ele>
        <time>2021-03-20T20:03:23Z</time>
      </trkpt>
      <trkpt lat="57.58791" lon="-7.44342">
        <ele>3.53</ele>
        <time>2021-03-20T20:03:28Z</time>
      </trkpt>
      <trkpt lat="57.58787" lon="-7.44382">
        <ele>3.66</ele>
        <time>2021-03-20T20:03:33Z</time>
      </trkpt>
      <trkpt lat="57.58791" lon="-7.44431">
        <ele>3</ele>
        <time>2021-03-20T20:03:38Z</time>
      </trkpt>
      <trkpt lat="57.58818" lon="-7.44685">
        <ele>5.66</ele>
        <time>2021-03-20T20:03:43Z</time>
      </trkpt>
      <trkpt lat="57.58899" lon="-7.45197">
        <ele>8.24</ele>
        <time>2021-03-20T20:03:48Z</time>
      </trkpt>
      <trkpt lat="57.58986" lon="-7.45506">
        <ele>12.58</ele>
        <time>2021-03-20T20:03:52Z</time>
      </trkpt>
      <trkpt lat="57.58964" lon="-7.45511">
        <ele>12</ele>
        <time>2021-03-20T20:04:02Z</time>
      </trkpt>
      <trkpt lat="57.58847" lon="-7.45702">
        <ele>12.52</ele>
        <time>2021-03-20T20:04:11Z</time>
      </trkpt>
      <trkpt lat="57.58813" lon="-7.45791">
        <ele>12.52</ele>
        <time>2021-03-20T20:04:20Z</time>
      </trkpt>
      <trkpt lat="57.58786" lon="-7.45945">
        <ele>9.97</ele>
        <time>2021-03-20T20:04:30Z</time>
      </trkpt>
      <trkpt lat="57.58827" lon="-7.4601">
        <ele>8.92</ele>
        <time>2021-03-20T20:04:33Z</time>
      </trkpt>
      <trkpt lat="57.58867" lon="-7.46095">
        <ele>9.23</ele>
        <time>2021-03-20T20:04:37Z</time>
      </trkpt>
      <trkpt lat="57.58872" lon="-7.46125">
        <ele>9.89</ele>
        <time>2021-03-20T20:04:41Z</time>
      </trkpt>
      <trkpt lat="57.58869" lon="-7.46159">
        <ele>10.27</ele>
        <time>2021-03-20T20:04:45Z</time>
      </trkpt>
      <trkpt lat="57.58858" lon="-7.46179">
        <ele>10.32</ele>
        <time>2021-03-20T20:04:49Z</time>
      </trkpt>
      <trkpt lat="57.58824" lon="-7.46224">
        <ele>9.36</ele>
        <time>2021-03-20T20:04:53Z</time>
      </trkpt>
      <trkpt lat="57.58814" lon="-7.46249">
        <ele>9.27</ele>
        <time>2021-03-20T20:04:56Z</time>
      </trkpt>
      <trkpt lat="57.58803" lon="-7.46326">
        <ele>9.91</ele>
        <time>2021-03-20T20:05:00Z</time>
      </trkpt>
      <trkpt lat="57.58803" lon="-7.46355">
        <ele>10.67</ele>
        <time>2021-03-20T20:05:04Z</time>
      </trkpt>
      <trkpt lat="57.5883" lon="-7.4655">
        <ele>10</ele>
        <time>2021-03-20T20:05:08Z</time>
      </trkpt>
      <trkpt lat="57.58837" lon="-7.46573">
        <ele>10</ele>
        <time>2021-03-20T20:05:12Z</time>
      </trkpt>
      <trkpt lat="57.58848" lon="-7.46592">
        <ele>10</ele>
        <time>2021-03-20T20:05:15Z</time>
      </trkpt>
      <trkpt lat="57.58863" lon="-7.46592">
        <ele>9.92</ele>
        <time>2021-03-20T20:05:19Z</time>
      </trkpt>
      <trkpt lat="57.58886" lon="-7.466">
        <ele>9.12</ele>
        <time>2021-03-20T20:05:23Z</time>
      </trkpt>
      <trkpt lat="57.58902" lon="-7.46624">
        <ele>9.04</ele>
        <time>2021-03-20T20:05:27Z</time>
      </trkpt>
      <trkpt lat="57.58916" lon="-7.46655">
        <ele>8.41</ele>
        <time>2021-03-20T20:05:31Z</time>
      </trkpt>
      <trkpt lat="57.58924" lon="-7.46691">
        <ele>8.51</ele>
        <time>2021-03-20T20:05:35Z</time>
      </trkpt>
      <trkpt lat="57.58935" lon="-7.46776">
        <ele>9.65</ele>
        <time>2021-03-20T20:05:38Z</time>
      </trkpt>
      <trkpt lat="57.58959" lon="-7.46851">
        <ele>10</ele>
        <time>2021-03-20T20:05:42Z</time>
      </trkpt>
      <trkpt lat="57.5899" lon="-7.46924">
        <ele>10.65</ele>
        <time>2021-03-20T20:05:46Z</time>
      </trkpt>
      <trkpt lat="57.58979" lon="-7.46979">
        <ele>10.24</ele>
        <time>2021-03-20T20:05:55Z</time>
      </trkpt>
      <trkpt lat="57.58926" lon="-7.47133">
        <ele>9.8</ele>
        <time>2021-03-20T20:06:04Z</time>
      </trkpt>
      <trkpt lat="57.58818" lon="-7.47525">
        <ele>12.2</ele>
        <time>2021-03-20T20:06:13Z</time>
      </trkpt>
      <trkpt lat="57.58808" lon="-7.47611">
        <ele>10.87</ele>
        <time>2021-03-20T20:06:22Z</time>
      </trkpt>
      <trkpt lat="57.58786" lon="-7.4766">
        <ele>10.72</ele>
        <time>2021-03-20T20:06:32Z</time>
      </trkpt>
      <trkpt lat="57.58763" lon="-7.47671">
        <ele>11</ele>
        <time>2021-03-20T20:06:41Z</time>
      </trkpt>
      <trkpt lat="57.5874" lon="-7.47668">
        <ele>11.36</ele>
        <time>2021-03-20T20:06:50Z</time>
      </trkpt>
      <trkpt lat="57.58613" lon="-7.47568">
        <ele>13.98</ele>
        <time>2021-03-20T20:06:59Z</time>
      </trkpt>
      <trkpt lat="57.5861" lon="-7.47577">
        <ele>13.99</ele>
        <time>2021-03-20T20:06:59Z</time>
      </trkpt>
    </trkseg>
  </trk>
  <trk>
    <name><![CDATA[J07 - Baile Raghnaill - Applecross, IV54 8ND, Royaume-Uni]]></name>
    <trkseg>
      <trkpt lat="57.5861" lon="-7.47577">
        <ele>13.99</ele>
        <time>2021-03-20T14:17:30Z</time>
      </trkpt>
      <trkpt lat="57.58613" lon="-7.47568">
        <ele>13.98</ele>
        <time>2021-03-20T14:17:31Z</time>
      </trkpt>
      <trkpt lat="57.5874" lon="-7.47668">
        <ele>11.36</ele>
        <time>2021-03-20T14:17:40Z</time>
      </trkpt>
      <trkpt lat="57.58763" lon="-7.47671">
        <ele>11</ele>
        <time>2021-03-20T14:17:49Z</time>
      </trkpt>
      <trkpt lat="57.58786" lon="-7.4766">
        <ele>10.72</ele>
        <time>2021-03-20T14:17:58Z</time>
      </trkpt>
      <trkpt lat="57.58808" lon="-7.47611">
        <ele>10.87</ele>
        <time>2021-03-20T14:18:07Z</time>
      </trkpt>
      <trkpt lat="57.58818" lon="-7.47525">
        <ele>12.2</ele>
        <time>2021-03-20T14:18:16Z</time>
      </trkpt>
      <trkpt lat="57.58926" lon="-7.47133">
        <ele>9.8</ele>
        <time>2021-03-20T14:18:25Z</time>
      </trkpt>
      <trkpt lat="57.58979" lon="-7.46979">
        <ele>10.24</ele>
        <time>2021-03-20T14:18:34Z</time>
      </trkpt>
      <trkpt lat="57.5899" lon="-7.46924">
        <ele>10.65</ele>
        <time>2021-03-20T14:18:43Z</time>
      </trkpt>
      <trkpt lat="57.58959" lon="-7.46851">
        <ele>10</ele>
        <time>2021-03-20T14:18:47Z</time>
      </trkpt>
      <trkpt lat="57.58935" lon="-7.46776">
        <ele>9.65</ele>
        <time>2021-03-20T14:18:51Z</time>
      </trkpt>
      <trkpt lat="57.58924" lon="-7.46691">
        <ele>8.51</ele>
        <time>2021-03-20T14:18:55Z</time>
      </trkpt>
      <trkpt lat="57.58916" lon="-7.46655">
        <ele>8.41</ele>
        <time>2021-03-20T14:18:59Z</time>
      </trkpt>
      <trkpt lat="57.58902" lon="-7.46624">
        <ele>9.04</ele>
        <time>2021-03-20T14:19:03Z</time>
      </trkpt>
      <trkpt lat="57.58886" lon="-7.466">
        <ele>9.12</ele>
        <time>2021-03-20T14:19:06Z</time>
      </trkpt>
      <trkpt lat="57.58863" lon="-7.46592">
        <ele>9.92</ele>
        <time>2021-03-20T14:19:10Z</time>
      </trkpt>
      <trkpt lat="57.58848" lon="-7.46592">
        <ele>10</ele>
        <time>2021-03-20T14:19:14Z</time>
      </trkpt>
      <trkpt lat="57.58837" lon="-7.46573">
        <ele>10</ele>
        <time>2021-03-20T14:19:18Z</time>
      </trkpt>
      <trkpt lat="57.5883" lon="-7.4655">
        <ele>10</ele>
        <time>2021-03-20T14:19:22Z</time>
      </trkpt>
      <trkpt lat="57.58803" lon="-7.46355">
        <ele>10.67</ele>
        <time>2021-03-20T14:19:25Z</time>
      </trkpt>
      <trkpt lat="57.58803" lon="-7.46326">
        <ele>9.91</ele>
        <time>2021-03-20T14:19:29Z</time>
      </trkpt>
      <trkpt lat="57.58814" lon="-7.46249">
        <ele>9.27</ele>
        <time>2021-03-20T14:19:33Z</time>
      </trkpt>
      <trkpt lat="57.58824" lon="-7.46224">
        <ele>9.36</ele>
        <time>2021-03-20T14:19:37Z</time>
      </trkpt>
      <trkpt lat="57.58858" lon="-7.46179">
        <ele>10.32</ele>
        <time>2021-03-20T14:19:41Z</time>
      </trkpt>
      <trkpt lat="57.58869" lon="-7.46159">
        <ele>10.27</ele>
        <time>2021-03-20T14:19:45Z</time>
      </trkpt>
      <trkpt lat="57.58872" lon="-7.46125">
        <ele>9.89</ele>
        <time>2021-03-20T14:19:48Z</time>
      </trkpt>
      <trkpt lat="57.58867" lon="-7.46095">
        <ele>9.23</ele>
        <time>2021-03-20T14:19:52Z</time>
      </trkpt>
      <trkpt lat="57.58827" lon="-7.4601">
        <ele>8.92</ele>
        <time>2021-03-20T14:19:56Z</time>
      </trkpt>
      <trkpt lat="57.58786" lon="-7.45945">
        <ele>9.97</ele>
        <time>2021-03-20T14:20:00Z</time>
      </trkpt>
      <trkpt lat="57.58813" lon="-7.45791">
        <ele>12.52</ele>
        <time>2021-03-20T14:20:09Z</time>
      </trkpt>
      <trkpt lat="57.58847" lon="-7.45702">
        <ele>12.52</ele>
        <time>2021-03-20T14:20:18Z</time>
      </trkpt>
      <trkpt lat="57.58964" lon="-7.45511">
        <ele>12</ele>
        <time>2021-03-20T14:20:28Z</time>
      </trkpt>
      <trkpt lat="57.58986" lon="-7.45506">
        <ele>12.58</ele>
        <time>2021-03-20T14:20:37Z</time>
      </trkpt>
      <trkpt lat="57.58899" lon="-7.45197">
        <ele>8.24</ele>
        <time>2021-03-20T14:20:44Z</time>
      </trkpt>
      <trkpt lat="57.58818" lon="-7.44685">
        <ele>5.66</ele>
        <time>2021-03-20T14:20:51Z</time>
      </trkpt>
      <trkpt lat="57.58791" lon="-7.44431">
        <ele>3</ele>
        <time>2021-03-20T14:20:59Z</time>
      </trkpt>
      <trkpt lat="57.58787" lon="-7.44382">
        <ele>3.66</ele>
        <time>2021-03-20T14:21:06Z</time>
      </trkpt>
      <trkpt lat="57.58791" lon="-7.44342">
        <ele>3.53</ele>
        <time>2021-03-20T14:21:13Z</time>
      </trkpt>
      <trkpt lat="57.58813" lon="-7.44209">
        <ele>4.27</ele>
        <time>2021-03-20T14:21:20Z</time>
      </trkpt>
      <trkpt lat="57.58814" lon="-7.44129">
        <ele>4.66</ele>
        <time>2021-03-20T14:21:27Z</time>
      </trkpt>
      <trkpt lat="57.58784" lon="-7.4393">
        <ele>6.21</ele>
        <time>2021-03-20T14:21:35Z</time>
      </trkpt>
      <trkpt lat="57.58756" lon="-7.43776">
        <ele>6.2</ele>
        <time>2021-03-20T14:21:42Z</time>
      </trkpt>
      <trkpt lat="57.58648" lon="-7.43229">
        <ele>8</ele>
        <time>2021-03-20T14:21:49Z</time>
      </trkpt>
      <trkpt lat="57.58493" lon="-7.42611">
        <ele>4.74</ele>
        <time>2021-03-20T14:21:56Z</time>
      </trkpt>
      <trkpt lat="57.58389" lon="-7.42211">
        <ele>4.01</ele>
        <time>2021-03-20T14:22:04Z</time>
      </trkpt>
      <trkpt lat="57.58348" lon="-7.42068">
        <ele>5.79</ele>
        <time>2021-03-20T14:22:11Z</time>
      </trkpt>
      <trkpt lat="57.58301" lon="-7.41878">
        <ele>3</ele>
        <time>2021-03-20T14:22:18Z</time>
      </trkpt>
      <trkpt lat="57.58294" lon="-7.4186">
        <ele>3</ele>
        <time>2021-03-20T14:22:25Z</time>
      </trkpt>
      <trkpt lat="57.58282" lon="-7.41837">
        <ele>3</ele>
        <time>2021-03-20T14:22:32Z</time>
      </trkpt>
      <trkpt lat="57.58253" lon="-7.41788">
        <ele>3.63</ele>
        <time>2021-03-20T14:22:40Z</time>
      </trkpt>
      <trkpt lat="57.58219" lon="-7.41743">
        <ele>3.78</ele>
        <time>2021-03-20T14:22:47Z</time>
      </trkpt>
      <trkpt lat="57.58068" lon="-7.41593">
        <ele>2</ele>
        <time>2021-03-20T14:22:54Z</time>
      </trkpt>
      <trkpt lat="57.5799" lon="-7.41511">
        <ele>1.75</ele>
        <time>2021-03-20T14:23:01Z</time>
      </trkpt>
      <trkpt lat="57.57975" lon="-7.41485">
        <ele>1.42</ele>
        <time>2021-03-20T14:23:08Z</time>
      </trkpt>
      <trkpt lat="57.57959" lon="-7.41435">
        <ele>0.47</ele>
        <time>2021-03-20T14:23:16Z</time>
      </trkpt>
      <trkpt lat="57.57938" lon="-7.41355">
        <ele>0.22</ele>
        <time>2021-03-20T14:23:23Z</time>
      </trkpt>
      <trkpt lat="57.5793" lon="-7.41296">
        <ele>1.19</ele>
        <time>2021-03-20T14:23:30Z</time>
      </trkpt>
      <trkpt lat="57.57929" lon="-7.41185">
        <ele>2.33</ele>
        <time>2021-03-20T14:23:37Z</time>
      </trkpt>
      <trkpt lat="57.5793" lon="-7.4115">
        <ele>3</ele>
        <time>2021-03-20T14:23:44Z</time>
      </trkpt>
      <trkpt lat="57.57926" lon="-7.41101">
        <ele>3</ele>
        <time>2021-03-20T14:23:52Z</time>
      </trkpt>
      <trkpt lat="57.57914" lon="-7.41042">
        <ele>3</ele>
        <time>2021-03-20T14:23:59Z</time>
      </trkpt>
      <trkpt lat="57.57898" lon="-7.41001">
        <ele>3.64</ele>
        <time>2021-03-20T14:24:06Z</time>
      </trkpt>
      <trkpt lat="57.57843" lon="-7.40905">
        <ele>4.81</ele>
        <time>2021-03-20T14:24:13Z</time>
      </trkpt>
      <trkpt lat="57.57762" lon="-7.40783">
        <ele>8.39</ele>
        <time>2021-03-20T14:24:21Z</time>
      </trkpt>
      <trkpt lat="57.57615" lon="-7.4054">
        <ele>9.13</ele>
        <time>2021-03-20T14:24:28Z</time>
      </trkpt>
      <trkpt lat="57.57515" lon="-7.4038">
        <ele>11</ele>
        <time>2021-03-20T14:24:35Z</time>
      </trkpt>
      <trkpt lat="57.57377" lon="-7.4015">
        <ele>9</ele>
        <time>2021-03-20T14:24:42Z</time>
      </trkpt>
      <trkpt lat="57.57263" lon="-7.3997">
        <ele>10.96</ele>
        <time>2021-03-20T14:24:49Z</time>
      </trkpt>
      <trkpt lat="57.57171" lon="-7.39813">
        <ele>13</ele>
        <time>2021-03-20T14:24:57Z</time>
      </trkpt>
      <trkpt lat="57.57053" lon="-7.39553">
        <ele>12.91</ele>
        <time>2021-03-20T14:25:04Z</time>
      </trkpt>
      <trkpt lat="57.56992" lon="-7.39409">
        <ele>11</ele>
        <time>2021-03-20T14:25:11Z</time>
      </trkpt>
      <trkpt lat="57.56945" lon="-7.39305">
        <ele>11</ele>
        <time>2021-03-20T14:25:18Z</time>
      </trkpt>
      <trkpt lat="57.5684" lon="-7.39064">
        <ele>10.24</ele>
        <time>2021-03-20T14:25:25Z</time>
      </trkpt>
      <trkpt lat="57.5661" lon="-7.38519">
        <ele>4</ele>
        <time>2021-03-20T14:25:33Z</time>
      </trkpt>
      <trkpt lat="57.56573" lon="-7.38426">
        <ele>4.37</ele>
        <time>2021-03-20T14:25:40Z</time>
      </trkpt>
      <trkpt lat="57.56196" lon="-7.3753">
        <ele>5.05</ele>
        <time>2021-03-20T14:25:47Z</time>
      </trkpt>
      <trkpt lat="57.55938" lon="-7.36888">
        <ele>4.76</ele>
        <time>2021-03-20T14:25:54Z</time>
      </trkpt>
      <trkpt lat="57.55927" lon="-7.36853">
        <ele>4.64</ele>
        <time>2021-03-20T14:26:01Z</time>
      </trkpt>
      <trkpt lat="57.5584" lon="-7.36547">
        <ele>5.24</ele>
        <time>2021-03-20T14:26:09Z</time>
      </trkpt>
      <trkpt lat="57.55773" lon="-7.36277">
        <ele>7.83</ele>
        <time>2021-03-20T14:26:16Z</time>
      </trkpt>
      <trkpt lat="57.55684" lon="-7.35685">
        <ele>13</ele>
        <time>2021-03-20T14:26:23Z</time>
      </trkpt>
      <trkpt lat="57.55534" lon="-7.3454">
        <ele>15.22</ele>
        <time>2021-03-20T14:26:30Z</time>
      </trkpt>
      <trkpt lat="57.55531" lon="-7.34499">
        <ele>15.09</ele>
        <time>2021-03-20T14:26:37Z</time>
      </trkpt>
      <trkpt lat="57.55509" lon="-7.33789">
        <ele>3.44</ele>
        <time>2021-03-20T14:26:45Z</time>
      </trkpt>
      <trkpt lat="57.55504" lon="-7.33756">
        <ele>3.15</ele>
        <time>2021-03-20T14:26:52Z</time>
      </trkpt>
      <trkpt lat="57.55491" lon="-7.3372">
        <ele>3.05</ele>
        <time>2021-03-20T14:26:59Z</time>
      </trkpt>
      <trkpt lat="57.55424" lon="-7.33615">
        <ele>3.13</ele>
        <time>2021-03-20T14:27:06Z</time>
      </trkpt>
      <trkpt lat="57.55397" lon="-7.33578">
        <ele>4.26</ele>
        <time>2021-03-20T14:27:14Z</time>
      </trkpt>
      <trkpt lat="57.55319" lon="-7.33451">
        <ele>4.37</ele>
        <time>2021-03-20T14:27:21Z</time>
      </trkpt>
      <trkpt lat="57.55374" lon="-7.33316">
        <ele>6.14</ele>
        <time>2021-03-20T14:27:27Z</time>
      </trkpt>
      <trkpt lat="57.5558" lon="-7.3279">
        <ele>15.16</ele>
        <time>2021-03-20T14:27:33Z</time>
      </trkpt>
      <trkpt lat="57.55642" lon="-7.32642">
        <ele>16.47</ele>
        <time>2021-03-20T14:27:40Z</time>
      </trkpt>
      <trkpt lat="57.55707" lon="-7.3251">
        <ele>16.59</ele>
        <time>2021-03-20T14:27:46Z</time>
      </trkpt>
      <trkpt lat="57.55785" lon="-7.3236">
        <ele>11.91</ele>
        <time>2021-03-20T14:27:52Z</time>
      </trkpt>
      <trkpt lat="57.55913" lon="-7.32134">
        <ele>6.82</ele>
        <time>2021-03-20T14:27:59Z</time>
      </trkpt>
      <trkpt lat="57.56091" lon="-7.31813">
        <ele>9</ele>
        <time>2021-03-20T14:28:05Z</time>
      </trkpt>
      <trkpt lat="57.56321" lon="-7.3141">
        <ele>6</ele>
        <time>2021-03-20T14:28:11Z</time>
      </trkpt>
      <trkpt lat="57.56391" lon="-7.31279">
        <ele>8.08</ele>
        <time>2021-03-20T14:28:18Z</time>
      </trkpt>
      <trkpt lat="57.56501" lon="-7.31095">
        <ele>8.04</ele>
        <time>2021-03-20T14:28:24Z</time>
      </trkpt>
      <trkpt lat="57.567" lon="-7.30633">
        <ele>12</ele>
        <time>2021-03-20T14:28:30Z</time>
      </trkpt>
      <trkpt lat="57.56917" lon="-7.30143">
        <ele>8.16</ele>
        <time>2021-03-20T14:28:37Z</time>
      </trkpt>
      <trkpt lat="57.56957" lon="-7.30039">
        <ele>5</ele>
        <time>2021-03-20T14:28:43Z</time>
      </trkpt>
      <trkpt lat="57.5713" lon="-7.29633">
        <ele>12.22</ele>
        <time>2021-03-20T14:28:49Z</time>
      </trkpt>
      <trkpt lat="57.57148" lon="-7.29596">
        <ele>12.67</ele>
        <time>2021-03-20T14:28:56Z</time>
      </trkpt>
      <trkpt lat="57.57203" lon="-7.29442">
        <ele>12.47</ele>
        <time>2021-03-20T14:29:02Z</time>
      </trkpt>
      <trkpt lat="57.5725" lon="-7.29263">
        <ele>14.5</ele>
        <time>2021-03-20T14:29:08Z</time>
      </trkpt>
      <trkpt lat="57.57302" lon="-7.29027">
        <ele>19.59</ele>
        <time>2021-03-20T14:29:15Z</time>
      </trkpt>
      <trkpt lat="57.57336" lon="-7.28769">
        <ele>22.75</ele>
        <time>2021-03-20T14:29:21Z</time>
      </trkpt>
      <trkpt lat="57.57345" lon="-7.28524">
        <ele>21.77</ele>
        <time>2021-03-20T14:29:27Z</time>
      </trkpt>
      <trkpt lat="57.57341" lon="-7.28371">
        <ele>21.96</ele>
        <time>2021-03-20T14:29:34Z</time>
      </trkpt>
      <trkpt lat="57.57326" lon="-7.28173">
        <ele>21.04</ele>
        <time>2021-03-20T14:29:40Z</time>
      </trkpt>
      <trkpt lat="57.57281" lon="-7.27773">
        <ele>12.74</ele>
        <time>2021-03-20T14:29:46Z</time>
      </trkpt>
      <trkpt lat="57.57275" lon="-7.27648">
        <ele>14</ele>
        <time>2021-03-20T14:29:53Z</time>
      </trkpt>
      <trkpt lat="57.57279" lon="-7.2749">
        <ele>11.96</ele>
        <time>2021-03-20T14:29:59Z</time>
      </trkpt>
      <trkpt lat="57.57296" lon="-7.27316">
        <ele>12.33</ele>
        <time>2021-03-20T14:30:05Z</time>
      </trkpt>
      <trkpt lat="57.5732" lon="-7.27174">
        <ele>13.35</ele>
        <time>2021-03-20T14:30:12Z</time>
      </trkpt>
      <trkpt lat="57.57353" lon="-7.27045">
        <ele>12.6</ele>
        <time>2021-03-20T14:30:18Z</time>
      </trkpt>
      <trkpt lat="57.57406" lon="-7.26891">
        <ele>12.31</ele>
        <time>2021-03-20T14:30:24Z</time>
      </trkpt>
      <trkpt lat="57.57674" lon="-7.26285">
        <ele>10.27</ele>
        <time>2021-03-20T14:30:31Z</time>
      </trkpt>
      <trkpt lat="57.57776" lon="-7.26058">
        <ele>11.1</ele>
        <time>2021-03-20T14:30:37Z</time>
      </trkpt>
      <trkpt lat="57.57861" lon="-7.25858">
        <ele>11</ele>
        <time>2021-03-20T14:30:43Z</time>
      </trkpt>
      <trkpt lat="57.57895" lon="-7.25769">
        <ele>12.21</ele>
        <time>2021-03-20T14:30:50Z</time>
      </trkpt>
      <trkpt lat="57.58286" lon="-7.24209">
        <ele>8.7</ele>
        <time>2021-03-20T14:30:56Z</time>
      </trkpt>
      <trkpt lat="57.5834" lon="-7.24047">
        <ele>8.78</ele>
        <time>2021-03-20T14:31:02Z</time>
      </trkpt>
      <trkpt lat="57.58641" lon="-7.23439">
        <ele>10.26</ele>
        <time>2021-03-20T14:31:09Z</time>
      </trkpt>
      <trkpt lat="57.58698" lon="-7.23294">
        <ele>11.32</ele>
        <time>2021-03-20T14:31:15Z</time>
      </trkpt>
      <trkpt lat="57.58777" lon="-7.23025">
        <ele>14</ele>
        <time>2021-03-20T14:31:21Z</time>
      </trkpt>
      <trkpt lat="57.58817" lon="-7.2291">
        <ele>13.77</ele>
        <time>2021-03-20T14:31:27Z</time>
      </trkpt>
      <trkpt lat="57.59057" lon="-7.22359">
        <ele>9.91</ele>
        <time>2021-03-20T14:31:34Z</time>
      </trkpt>
      <trkpt lat="57.59091" lon="-7.22267">
        <ele>10.56</ele>
        <time>2021-03-20T14:31:40Z</time>
      </trkpt>
      <trkpt lat="57.59121" lon="-7.22172">
        <ele>12.88</ele>
        <time>2021-03-20T14:31:46Z</time>
      </trkpt>
      <trkpt lat="57.59147" lon="-7.22059">
        <ele>14</ele>
        <time>2021-03-20T14:31:53Z</time>
      </trkpt>
      <trkpt lat="57.5917" lon="-7.21942">
        <ele>13</ele>
        <time>2021-03-20T14:31:59Z</time>
      </trkpt>
      <trkpt lat="57.59359" lon="-7.20837">
        <ele>8.99</ele>
        <time>2021-03-20T14:32:05Z</time>
      </trkpt>
      <trkpt lat="57.59378" lon="-7.20695">
        <ele>9</ele>
        <time>2021-03-20T14:32:12Z</time>
      </trkpt>
      <trkpt lat="57.59396" lon="-7.20445">
        <ele>10.73</ele>
        <time>2021-03-20T14:32:18Z</time>
      </trkpt>
      <trkpt lat="57.59419" lon="-7.20181">
        <ele>11.36</ele>
        <time>2021-03-20T14:32:24Z</time>
      </trkpt>
      <trkpt lat="57.59428" lon="-7.2008">
        <ele>12.11</ele>
        <time>2021-03-20T14:32:31Z</time>
      </trkpt>
      <trkpt lat="57.59442" lon="-7.19986">
        <ele>11.62</ele>
        <time>2021-03-20T14:32:37Z</time>
      </trkpt>
      <trkpt lat="57.59455" lon="-7.19915">
        <ele>12.69</ele>
        <time>2021-03-20T14:32:43Z</time>
      </trkpt>
      <trkpt lat="57.59515" lon="-7.1965">
        <ele>15.06</ele>
        <time>2021-03-20T14:32:50Z</time>
      </trkpt>
      <trkpt lat="57.59544" lon="-7.19546">
        <ele>17</ele>
        <time>2021-03-20T14:32:56Z</time>
      </trkpt>
      <trkpt lat="57.59619" lon="-7.19309">
        <ele>14.42</ele>
        <time>2021-03-20T14:33:02Z</time>
      </trkpt>
      <trkpt lat="57.59664" lon="-7.19152">
        <ele>8.41</ele>
        <time>2021-03-20T14:33:09Z</time>
      </trkpt>
      <trkpt lat="57.59711" lon="-7.19044">
        <ele>9</ele>
        <time>2021-03-20T14:33:15Z</time>
      </trkpt>
      <trkpt lat="57.59729" lon="-7.18988">
        <ele>10.5</ele>
        <time>2021-03-20T14:33:21Z</time>
      </trkpt>
      <trkpt lat="57.59741" lon="-7.18936">
        <ele>11.32</ele>
        <time>2021-03-20T14:33:28Z</time>
      </trkpt>
      <trkpt lat="57.59762" lon="-7.18742">
        <ele>11.28</ele>
        <time>2021-03-20T14:33:34Z</time>
      </trkpt>
      <trkpt lat="57.59779" lon="-7.18623">
        <ele>12.62</ele>
        <time>2021-03-20T14:33:40Z</time>
      </trkpt>
      <trkpt lat="57.59817" lon="-7.18512">
        <ele>12.44</ele>
        <time>2021-03-20T14:33:47Z</time>
      </trkpt>
      <trkpt lat="57.59954" lon="-7.17906">
        <ele>3.04</ele>
        <time>2021-03-20T14:33:53Z</time>
      </trkpt>
      <trkpt lat="57.59995" lon="-7.17821">
        <ele>5.15</ele>
        <time>2021-03-20T14:33:59Z</time>
      </trkpt>
      <trkpt lat="57.60024" lon="-7.17789">
        <ele>6.59</ele>
        <time>2021-03-20T14:34:06Z</time>
      </trkpt>
      <trkpt lat="57.60055" lon="-7.1777">
        <ele>7</ele>
        <time>2021-03-20T14:34:12Z</time>
      </trkpt>
      <trkpt lat="57.60076" lon="-7.17765">
        <ele>6.27</ele>
        <time>2021-03-20T14:34:18Z</time>
      </trkpt>
      <trkpt lat="57.60107" lon="-7.17765">
        <ele>6.86</ele>
        <time>2021-03-20T14:34:25Z</time>
      </trkpt>
      <trkpt lat="57.60129" lon="-7.1777">
        <ele>7.65</ele>
        <time>2021-03-20T14:34:31Z</time>
      </trkpt>
      <trkpt lat="57.60249" lon="-7.17823">
        <ele>5</ele>
        <time>2021-03-20T14:34:37Z</time>
      </trkpt>
      <trkpt lat="57.60276" lon="-7.17831">
        <ele>4.07</ele>
        <time>2021-03-20T14:34:44Z</time>
      </trkpt>
      <trkpt lat="57.60329" lon="-7.17838">
        <ele>3</ele>
        <time>2021-03-20T14:34:50Z</time>
      </trkpt>
      <trkpt lat="57.60356" lon="-7.17837">
        <ele>4.66</ele>
        <time>2021-03-20T14:34:56Z</time>
      </trkpt>
      <trkpt lat="57.60414" lon="-7.17822">
        <ele>8.81</ele>
        <time>2021-03-20T14:35:03Z</time>
      </trkpt>
      <trkpt lat="57.60449" lon="-7.17806">
        <ele>11.15</ele>
        <time>2021-03-20T14:35:09Z</time>
      </trkpt>
      <trkpt lat="57.60473" lon="-7.17791">
        <ele>12.51</ele>
        <time>2021-03-20T14:35:15Z</time>
      </trkpt>
      <trkpt lat="57.60507" lon="-7.17765">
        <ele>13.2</ele>
        <time>2021-03-20T14:35:22Z</time>
      </trkpt>
      <trkpt lat="57.60549" lon="-7.17727">
        <ele>12.36</ele>
        <time>2021-03-20T14:35:28Z</time>
      </trkpt>
      <trkpt lat="57.60579" lon="-7.17695">
        <ele>11.16</ele>
        <time>2021-03-20T14:35:34Z</time>
      </trkpt>
      <trkpt lat="57.60595" lon="-7.17673">
        <ele>11.35</ele>
        <time>2021-03-20T14:35:41Z</time>
      </trkpt>
      <trkpt lat="57.60605" lon="-7.17655">
        <ele>11.64</ele>
        <time>2021-03-20T14:35:47Z</time>
      </trkpt>
      <trkpt lat="57.6062" lon="-7.17613">
        <ele>12.91</ele>
        <time>2021-03-20T14:35:53Z</time>
      </trkpt>
      <trkpt lat="57.60629" lon="-7.17567">
        <ele>13.96</ele>
        <time>2021-03-20T14:36:00Z</time>
      </trkpt>
      <trkpt lat="57.60631" lon="-7.17546">
        <ele>14.3</ele>
        <time>2021-03-20T14:36:06Z</time>
      </trkpt>
      <trkpt lat="57.60632" lon="-7.17517">
        <ele>14.25</ele>
        <time>2021-03-20T14:36:12Z</time>
      </trkpt>
      <trkpt lat="57.6063" lon="-7.17482">
        <ele>14.31</ele>
        <time>2021-03-20T14:36:19Z</time>
      </trkpt>
      <trkpt lat="57.60624" lon="-7.1744">
        <ele>14.54</ele>
        <time>2021-03-20T14:36:25Z</time>
      </trkpt>
      <trkpt lat="57.60616" lon="-7.17413">
        <ele>14.69</ele>
        <time>2021-03-20T14:36:31Z</time>
      </trkpt>
      <trkpt lat="57.60622" lon="-7.17397">
        <ele>13.91</ele>
        <time>2021-03-20T14:36:34Z</time>
      </trkpt>
      <trkpt lat="57.60624" lon="-7.17376">
        <ele>13.28</ele>
        <time>2021-03-20T14:36:37Z</time>
      </trkpt>
      <trkpt lat="57.60637" lon="-7.17005">
        <ele>8</ele>
        <time>2021-03-20T14:36:40Z</time>
      </trkpt>
      <trkpt lat="57.60614" lon="-7.16765">
        <ele>9.9</ele>
        <time>2021-03-20T14:36:43Z</time>
      </trkpt>
      <trkpt lat="57.60595" lon="-7.16658">
        <ele>9.58</ele>
        <time>2021-03-20T14:36:46Z</time>
      </trkpt>
      <trkpt lat="57.60559" lon="-7.16518">
        <ele>10.34</ele>
        <time>2021-03-20T14:36:49Z</time>
      </trkpt>
      <trkpt lat="57.60454" lon="-7.16215">
        <ele>11</ele>
        <time>2021-03-20T14:36:52Z</time>
      </trkpt>
      <trkpt lat="57.60445" lon="-7.16197">
        <ele>11</ele>
        <time>2021-03-20T14:36:55Z</time>
      </trkpt>
      <trkpt lat="57.60439" lon="-7.16192">
        <ele>10.81</ele>
        <time>2021-03-20T14:36:58Z</time>
      </trkpt>
      <trkpt lat="57.60429" lon="-7.16189">
        <ele>10.45</ele>
        <time>2021-03-20T14:37:01Z</time>
      </trkpt>
      <trkpt lat="57.60408" lon="-7.1619">
        <ele>9.4</ele>
        <time>2021-03-20T14:37:04Z</time>
      </trkpt>
      <trkpt lat="57.60385" lon="-7.16203">
        <ele>7.88</ele>
        <time>2021-03-20T14:37:07Z</time>
      </trkpt>
      <trkpt lat="57.6035" lon="-7.16235">
        <ele>6.39</ele>
        <time>2021-03-20T14:37:10Z</time>
      </trkpt>
      <trkpt lat="57.60336" lon="-7.16246">
        <ele>5.33</ele>
        <time>2021-03-20T14:37:13Z</time>
      </trkpt>
      <trkpt lat="57.60326" lon="-7.1625">
        <ele>5</ele>
        <time>2021-03-20T14:37:16Z</time>
      </trkpt>
      <trkpt lat="57.60246" lon="-7.16261">
        <ele>3.54</ele>
        <time>2021-03-20T14:37:19Z</time>
      </trkpt>
      <trkpt lat="57.60236" lon="-7.16269">
        <ele>4.17</ele>
        <time>2021-03-20T14:37:22Z</time>
      </trkpt>
      <trkpt lat="57.60213" lon="-7.16297">
        <ele>6.03</ele>
        <time>2021-03-20T14:37:25Z</time>
      </trkpt>
      <trkpt lat="57.60182" lon="-7.16354">
        <ele>8.85</ele>
        <time>2021-03-20T14:37:28Z</time>
      </trkpt>
      <trkpt lat="57.6016" lon="-7.16327">
        <ele>8.77</ele>
        <time>2021-03-20T14:37:32Z</time>
      </trkpt>
      <trkpt lat="57.60146" lon="-7.16305">
        <ele>7.98</ele>
        <time>2021-03-20T14:37:35Z</time>
      </trkpt>
      <trkpt lat="57.60062" lon="-7.16159">
        <ele>9.57</ele>
        <time>2021-03-20T14:37:39Z</time>
      </trkpt>
      <trkpt lat="57.60041" lon="-7.16127">
        <ele>10.5</ele>
        <time>2021-03-20T14:37:42Z</time>
      </trkpt>
      <trkpt lat="57.6002" lon="-7.16103">
        <ele>9.73</ele>
        <time>2021-03-20T14:37:46Z</time>
      </trkpt>
      <trkpt lat="57.59961" lon="-7.16049">
        <ele>8</ele>
        <time>2021-03-20T14:37:49Z</time>
      </trkpt>
      <trkpt lat="57.59909" lon="-7.15996">
        <ele>5.89</ele>
        <time>2021-03-20T14:37:52Z</time>
      </trkpt>
      <trkpt lat="57.5984" lon="-7.15912">
        <ele>5.82</ele>
        <time>2021-03-20T14:37:56Z</time>
      </trkpt>
      <trkpt lat="57.59738" lon="-7.15778">
        <ele>5</ele>
        <time>2021-03-20T14:37:59Z</time>
      </trkpt>
      <trkpt lat="57.59737" lon="-7.1578">
        <ele>4.47</ele>
        <time>2021-03-20T14:38:00Z</time>
      </trkpt>
      <trkpt lat="57.59737" lon="-7.1578">
        <ele>4.47</ele>
        <time>2021-03-20T14:38:00Z</time>
      </trkpt>
      <trkpt lat="57.59721" lon="-7.15804">
        <ele>3.94</ele>
        <time>2021-03-20T14:38:05Z</time>
      </trkpt>
      <trkpt lat="57.59695" lon="-7.15836">
        <ele>2.11</ele>
        <time>2021-03-20T14:38:10Z</time>
      </trkpt>
      <trkpt lat="57.5968" lon="-7.15843">
        <ele>1.66</ele>
        <time>2021-03-20T14:38:15Z</time>
      </trkpt>
      <trkpt lat="57.59674" lon="-7.15829">
        <ele>1.26</ele>
        <time>2021-03-20T14:39:52Z</time>
      </trkpt>
      <trkpt lat="57.59651" lon="-7.15749">
        <ele>1.54</ele>
        <time>2021-03-20T14:41:30Z</time>
      </trkpt>
      <trkpt lat="57.59574" lon="-7.15499">
        <ele>1.56</ele>
        <time>2021-03-20T14:43:07Z</time>
      </trkpt>
      <trkpt lat="57.59573" lon="-7.15458">
        <ele>1.56</ele>
        <time>2021-03-20T14:44:44Z</time>
      </trkpt>
      <trkpt lat="57.59592" lon="-7.15365">
        <ele>1.56</ele>
        <time>2021-03-20T14:46:21Z</time>
      </trkpt>
      <trkpt lat="57.59619" lon="-7.15282">
        <ele>1.57</ele>
        <time>2021-03-20T14:47:59Z</time>
      </trkpt>
      <trkpt lat="57.59665" lon="-7.15196">
        <ele>1.58</ele>
        <time>2021-03-20T14:49:36Z</time>
      </trkpt>
      <trkpt lat="57.59794" lon="-7.15047">
        <ele>1.59</ele>
        <time>2021-03-20T14:51:13Z</time>
      </trkpt>
      <trkpt lat="57.59849" lon="-7.14956">
        <ele>1.59</ele>
        <time>2021-03-20T14:52:50Z</time>
      </trkpt>
      <trkpt lat="57.59916" lon="-7.1473">
        <ele>1.61</ele>
        <time>2021-03-20T14:54:27Z</time>
      </trkpt>
      <trkpt lat="57.59972" lon="-7.14318">
        <ele>1.64</ele>
        <time>2021-03-20T14:56:05Z</time>
      </trkpt>
      <trkpt lat="57.60008" lon="-7.13769">
        <ele>1.67</ele>
        <time>2021-03-20T14:57:42Z</time>
      </trkpt>
      <trkpt lat="57.60045" lon="-7.13117">
        <ele>1.72</ele>
        <time>2021-03-20T14:59:19Z</time>
      </trkpt>
      <trkpt lat="57.601" lon="-7.12396">
        <ele>1.77</ele>
        <time>2021-03-20T15:00:56Z</time>
      </trkpt>
      <trkpt lat="57.60156" lon="-7.11537">
        <ele>1.83</ele>
        <time>2021-03-20T15:02:34Z</time>
      </trkpt>
      <trkpt lat="57.60211" lon="-7.10748">
        <ele>1.88</ele>
        <time>2021-03-20T15:04:11Z</time>
      </trkpt>
      <trkpt lat="57.60211" lon="-7.09992">
        <ele>1.93</ele>
        <time>2021-03-20T15:05:48Z</time>
      </trkpt>
      <trkpt lat="57.60247" lon="-7.08997">
        <ele>2</ele>
        <time>2021-03-20T15:07:25Z</time>
      </trkpt>
      <trkpt lat="57.60229" lon="-7.08001">
        <ele>2.07</ele>
        <time>2021-03-20T15:09:03Z</time>
      </trkpt>
      <trkpt lat="57.60192" lon="-7.0704">
        <ele>2.13</ele>
        <time>2021-03-20T15:10:40Z</time>
      </trkpt>
      <trkpt lat="57.60174" lon="-7.0625">
        <ele>2.18</ele>
        <time>2021-03-20T15:12:17Z</time>
      </trkpt>
      <trkpt lat="57.60119" lon="-7.05461">
        <ele>2.24</ele>
        <time>2021-03-20T15:13:54Z</time>
      </trkpt>
      <trkpt lat="57.60082" lon="-7.04499">
        <ele>2.3</ele>
        <time>2021-03-20T15:15:31Z</time>
      </trkpt>
      <trkpt lat="57.60045" lon="-7.03435">
        <ele>2.37</ele>
        <time>2021-03-20T15:17:09Z</time>
      </trkpt>
      <trkpt lat="57.60045" lon="-7.02989">
        <ele>2.4</ele>
        <time>2021-03-20T15:18:46Z</time>
      </trkpt>
      <trkpt lat="57.60064" lon="-7.02062">
        <ele>2.47</ele>
        <time>2021-03-20T15:20:23Z</time>
      </trkpt>
      <trkpt lat="57.60192" lon="-6.99933">
        <ele>2.61</ele>
        <time>2021-03-20T15:22:00Z</time>
      </trkpt>
      <trkpt lat="57.60303" lon="-6.97736">
        <ele>2.76</ele>
        <time>2021-03-20T15:23:38Z</time>
      </trkpt>
      <trkpt lat="57.60431" lon="-6.95538">
        <ele>2.91</ele>
        <time>2021-03-20T15:25:15Z</time>
      </trkpt>
      <trkpt lat="57.6056" lon="-6.93891">
        <ele>3.02</ele>
        <time>2021-03-20T15:26:52Z</time>
      </trkpt>
      <trkpt lat="57.60689" lon="-6.91728">
        <ele>3.17</ele>
        <time>2021-03-20T15:28:29Z</time>
      </trkpt>
      <trkpt lat="57.60781" lon="-6.89908">
        <ele>3.29</ele>
        <time>2021-03-20T15:30:07Z</time>
      </trkpt>
      <trkpt lat="57.60836" lon="-6.87882">
        <ele>3.43</ele>
        <time>2021-03-20T15:31:44Z</time>
      </trkpt>
      <trkpt lat="57.60928" lon="-6.85719">
        <ele>3.58</ele>
        <time>2021-03-20T15:33:21Z</time>
      </trkpt>
      <trkpt lat="57.60983" lon="-6.84998">
        <ele>3.63</ele>
        <time>2021-03-20T15:34:58Z</time>
      </trkpt>
      <trkpt lat="57.61002" lon="-6.83797">
        <ele>3.71</ele>
        <time>2021-03-20T15:36:36Z</time>
      </trkpt>
      <trkpt lat="57.61094" lon="-6.82321">
        <ele>3.81</ele>
        <time>2021-03-20T15:38:13Z</time>
      </trkpt>
      <trkpt lat="57.61167" lon="-6.80982">
        <ele>3.9</ele>
        <time>2021-03-20T15:39:50Z</time>
      </trkpt>
      <trkpt lat="57.61204" lon="-6.79952">
        <ele>3.97</ele>
        <time>2021-03-20T15:41:27Z</time>
      </trkpt>
      <trkpt lat="57.61259" lon="-6.79093">
        <ele>4.03</ele>
        <time>2021-03-20T15:43:04Z</time>
      </trkpt>
      <trkpt lat="57.61296" lon="-6.78166">
        <ele>4.09</ele>
        <time>2021-03-20T15:44:42Z</time>
      </trkpt>
      <trkpt lat="57.61333" lon="-6.76862">
        <ele>4.18</ele>
        <time>2021-03-20T15:46:19Z</time>
      </trkpt>
      <trkpt lat="57.61406" lon="-6.7566">
        <ele>4.26</ele>
        <time>2021-03-20T15:47:56Z</time>
      </trkpt>
      <trkpt lat="57.61517" lon="-6.73531">
        <ele>4.4</ele>
        <time>2021-03-20T15:49:33Z</time>
      </trkpt>
      <trkpt lat="57.61553" lon="-6.72467">
        <ele>4.47</ele>
        <time>2021-03-20T15:51:11Z</time>
      </trkpt>
      <trkpt lat="57.61627" lon="-6.71197">
        <ele>4.56</ele>
        <time>2021-03-20T15:52:48Z</time>
      </trkpt>
      <trkpt lat="57.61811" lon="-6.67661">
        <ele>4.8</ele>
        <time>2021-03-20T15:54:25Z</time>
      </trkpt>
      <trkpt lat="57.61903" lon="-6.66116">
        <ele>4.9</ele>
        <time>2021-03-20T15:56:02Z</time>
      </trkpt>
      <trkpt lat="57.61921" lon="-6.64811">
        <ele>4.99</ele>
        <time>2021-03-20T15:57:40Z</time>
      </trkpt>
      <trkpt lat="57.61958" lon="-6.63747">
        <ele>5.06</ele>
        <time>2021-03-20T15:59:17Z</time>
      </trkpt>
      <trkpt lat="57.61939" lon="-6.62717">
        <ele>5.13</ele>
        <time>2021-03-20T16:00:54Z</time>
      </trkpt>
      <trkpt lat="57.61884" lon="-6.61859">
        <ele>5.19</ele>
        <time>2021-03-20T16:02:31Z</time>
      </trkpt>
      <trkpt lat="57.61737" lon="-6.60623">
        <ele>5.27</ele>
        <time>2021-03-20T16:04:09Z</time>
      </trkpt>
      <trkpt lat="57.6148" lon="-6.58048">
        <ele>5.45</ele>
        <time>2021-03-20T16:05:46Z</time>
      </trkpt>
      <trkpt lat="57.61351" lon="-6.5688">
        <ele>5.53</ele>
        <time>2021-03-20T16:07:23Z</time>
      </trkpt>
      <trkpt lat="57.61167" lon="-6.55507">
        <ele>5.62</ele>
        <time>2021-03-20T16:09:00Z</time>
      </trkpt>
      <trkpt lat="57.61094" lon="-6.54717">
        <ele>5.67</ele>
        <time>2021-03-20T16:10:37Z</time>
      </trkpt>
      <trkpt lat="57.60965" lon="-6.53653">
        <ele>5.75</ele>
        <time>2021-03-20T16:12:15Z</time>
      </trkpt>
      <trkpt lat="57.60873" lon="-6.52692">
        <ele>5.81</ele>
        <time>2021-03-20T16:13:52Z</time>
      </trkpt>
      <trkpt lat="57.60763" lon="-6.51868">
        <ele>5.87</ele>
        <time>2021-03-20T16:15:29Z</time>
      </trkpt>
      <trkpt lat="57.60652" lon="-6.50941">
        <ele>5.93</ele>
        <time>2021-03-20T16:17:06Z</time>
      </trkpt>
      <trkpt lat="57.60395" lon="-6.49842">
        <ele>6.01</ele>
        <time>2021-03-20T16:18:44Z</time>
      </trkpt>
      <trkpt lat="57.60137" lon="-6.48915">
        <ele>6.07</ele>
        <time>2021-03-20T16:20:21Z</time>
      </trkpt>
      <trkpt lat="57.59861" lon="-6.47954">
        <ele>6.14</ele>
        <time>2021-03-20T16:21:58Z</time>
      </trkpt>
      <trkpt lat="57.59604" lon="-6.46752">
        <ele>6.22</ele>
        <time>2021-03-20T16:23:35Z</time>
      </trkpt>
      <trkpt lat="57.59291" lon="-6.45551">
        <ele>6.3</ele>
        <time>2021-03-20T16:25:13Z</time>
      </trkpt>
      <trkpt lat="57.5907" lon="-6.44486">
        <ele>6.38</ele>
        <time>2021-03-20T16:26:50Z</time>
      </trkpt>
      <trkpt lat="57.5872" lon="-6.42873">
        <ele>6.49</ele>
        <time>2021-03-20T16:28:27Z</time>
      </trkpt>
      <trkpt lat="57.585" lon="-6.41911">
        <ele>6.55</ele>
        <time>2021-03-20T16:30:04Z</time>
      </trkpt>
      <trkpt lat="57.58265" lon="-6.40542">
        <ele>6.65</ele>
        <time>2021-03-20T16:31:42Z</time>
      </trkpt>
      <trkpt lat="57.58076" lon="-6.3889">
        <ele>6.75</ele>
        <time>2021-03-20T16:33:19Z</time>
      </trkpt>
      <trkpt lat="57.58076" lon="-6.38238">
        <ele>6.8</ele>
        <time>2021-03-20T16:34:56Z</time>
      </trkpt>
      <trkpt lat="57.5813" lon="-6.37493">
        <ele>6.84</ele>
        <time>2021-03-20T16:36:33Z</time>
      </trkpt>
      <trkpt lat="57.5821" lon="-6.37189">
        <ele>6.85</ele>
        <time>2021-03-20T16:38:10Z</time>
      </trkpt>
      <trkpt lat="57.58372" lon="-6.371">
        <ele>6.86</ele>
        <time>2021-03-20T16:39:48Z</time>
      </trkpt>
      <trkpt lat="57.58456" lon="-6.37102">
        <ele>6.87</ele>
        <time>2021-03-20T16:41:25Z</time>
      </trkpt>
      <trkpt lat="57.58518" lon="-6.37175">
        <ele>6.87</ele>
        <time>2021-03-20T16:43:02Z</time>
      </trkpt>
      <trkpt lat="57.58525" lon="-6.3718">
        <ele>6.88</ele>
        <time>2021-03-20T16:44:39Z</time>
      </trkpt>
      <trkpt lat="57.58568" lon="-6.37185">
        <ele>9.9</ele>
        <time>2021-03-20T16:46:17Z</time>
      </trkpt>
      <trkpt lat="57.58582" lon="-6.37238">
        <ele>1</ele>
        <time>2021-03-20T16:47:54Z</time>
      </trkpt>
      <trkpt lat="57.586" lon="-6.37361">
        <ele>1</ele>
        <time>2021-03-20T16:49:31Z</time>
      </trkpt>
      <trkpt lat="57.58602" lon="-6.37416">
        <ele>1</ele>
        <time>2021-03-20T16:51:08Z</time>
      </trkpt>
      <trkpt lat="57.58628" lon="-6.37574">
        <ele>2.87</ele>
        <time>2021-03-20T16:52:46Z</time>
      </trkpt>
      <trkpt lat="57.58636" lon="-6.37633">
        <ele>3.77</ele>
        <time>2021-03-20T16:54:23Z</time>
      </trkpt>
      <trkpt lat="57.5864" lon="-6.37664">
        <ele>4.9</ele>
        <time>2021-03-20T16:56:00Z</time>
      </trkpt>
      <trkpt lat="57.58649" lon="-6.37682">
        <ele>5.18</ele>
        <time>2021-03-20T16:57:37Z</time>
      </trkpt>
      <trkpt lat="57.58661" lon="-6.37687">
        <ele>5.58</ele>
        <time>2021-03-20T16:59:15Z</time>
      </trkpt>
      <trkpt lat="57.58683" lon="-6.37675">
        <ele>5.29</ele>
        <time>2021-03-20T17:00:52Z</time>
      </trkpt>
      <trkpt lat="57.58759" lon="-6.37613">
        <ele>6.35</ele>
        <time>2021-03-20T17:02:29Z</time>
      </trkpt>
      <trkpt lat="57.58808" lon="-6.37558">
        <ele>5.59</ele>
        <time>2021-03-20T17:04:06Z</time>
      </trkpt>
      <trkpt lat="57.58842" lon="-6.37521">
        <ele>8.12</ele>
        <time>2021-03-20T17:05:43Z</time>
      </trkpt>
      <trkpt lat="57.58892" lon="-6.3745">
        <ele>6.91</ele>
        <time>2021-03-20T17:07:21Z</time>
      </trkpt>
      <trkpt lat="57.58918" lon="-6.37402">
        <ele>9.04</ele>
        <time>2021-03-20T17:08:58Z</time>
      </trkpt>
      <trkpt lat="57.58962" lon="-6.37312">
        <ele>7.99</ele>
        <time>2021-03-20T17:10:35Z</time>
      </trkpt>
      <trkpt lat="57.58997" lon="-6.37231">
        <ele>7.38</ele>
        <time>2021-03-20T17:12:12Z</time>
      </trkpt>
      <trkpt lat="57.59043" lon="-6.37101">
        <ele>8.81</ele>
        <time>2021-03-20T17:13:50Z</time>
      </trkpt>
      <trkpt lat="57.59078" lon="-6.3697">
        <ele>11.09</ele>
        <time>2021-03-20T17:15:27Z</time>
      </trkpt>
      <trkpt lat="57.59089" lon="-6.36909">
        <ele>11.52</ele>
        <time>2021-03-20T17:17:04Z</time>
      </trkpt>
      <trkpt lat="57.59098" lon="-6.36846">
        <ele>11.89</ele>
        <time>2021-03-20T17:18:41Z</time>
      </trkpt>
      <trkpt lat="57.59109" lon="-6.3675">
        <ele>13.55</ele>
        <time>2021-03-20T17:20:19Z</time>
      </trkpt>
      <trkpt lat="57.59117" lon="-6.366">
        <ele>14.97</ele>
        <time>2021-03-20T17:21:56Z</time>
      </trkpt>
      <trkpt lat="57.59123" lon="-6.36443">
        <ele>12.15</ele>
        <time>2021-03-20T17:23:33Z</time>
      </trkpt>
      <trkpt lat="57.59141" lon="-6.36247">
        <ele>11.33</ele>
        <time>2021-03-20T17:25:10Z</time>
      </trkpt>
      <trkpt lat="57.59193" lon="-6.35941">
        <ele>20.77</ele>
        <time>2021-03-20T17:26:48Z</time>
      </trkpt>
      <trkpt lat="57.59197" lon="-6.35899">
        <ele>21.47</ele>
        <time>2021-03-20T17:28:25Z</time>
      </trkpt>
      <trkpt lat="57.59215" lon="-6.359">
        <ele>24.4</ele>
        <time>2021-03-20T17:28:27Z</time>
      </trkpt>
      <trkpt lat="57.59199" lon="-6.35798">
        <ele>24.3</ele>
        <time>2021-03-20T17:28:32Z</time>
      </trkpt>
      <trkpt lat="57.59194" lon="-6.35784">
        <ele>23.1</ele>
        <time>2021-03-20T17:28:36Z</time>
      </trkpt>
      <trkpt lat="57.5918" lon="-6.3569">
        <ele>23.6</ele>
        <time>2021-03-20T17:28:40Z</time>
      </trkpt>
      <trkpt lat="57.59163" lon="-6.35633">
        <ele>23.57</ele>
        <time>2021-03-20T17:28:44Z</time>
      </trkpt>
      <trkpt lat="57.59141" lon="-6.35586">
        <ele>21.25</ele>
        <time>2021-03-20T17:28:49Z</time>
      </trkpt>
      <trkpt lat="57.59118" lon="-6.35559">
        <ele>21.16</ele>
        <time>2021-03-20T17:28:53Z</time>
      </trkpt>
      <trkpt lat="57.59091" lon="-6.35544">
        <ele>20.32</ele>
        <time>2021-03-20T17:28:57Z</time>
      </trkpt>
      <trkpt lat="57.59031" lon="-6.35521">
        <ele>19.09</ele>
        <time>2021-03-20T17:29:01Z</time>
      </trkpt>
      <trkpt lat="57.58954" lon="-6.35501">
        <ele>19.92</ele>
        <time>2021-03-20T17:29:05Z</time>
      </trkpt>
      <trkpt lat="57.58902" lon="-6.35495">
        <ele>19.3</ele>
        <time>2021-03-20T17:29:09Z</time>
      </trkpt>
      <trkpt lat="57.58881" lon="-6.355">
        <ele>20.21</ele>
        <time>2021-03-20T17:29:14Z</time>
      </trkpt>
      <trkpt lat="57.5884" lon="-6.35526">
        <ele>24.13</ele>
        <time>2021-03-20T17:29:18Z</time>
      </trkpt>
      <trkpt lat="57.58805" lon="-6.35553">
        <ele>23.58</ele>
        <time>2021-03-20T17:29:22Z</time>
      </trkpt>
      <trkpt lat="57.58757" lon="-6.356">
        <ele>25.54</ele>
        <time>2021-03-20T17:29:26Z</time>
      </trkpt>
      <trkpt lat="57.58708" lon="-6.35643">
        <ele>29.39</ele>
        <time>2021-03-20T17:29:30Z</time>
      </trkpt>
      <trkpt lat="57.58595" lon="-6.35713">
        <ele>37.14</ele>
        <time>2021-03-20T17:29:34Z</time>
      </trkpt>
      <trkpt lat="57.58549" lon="-6.35729">
        <ele>39.05</ele>
        <time>2021-03-20T17:29:39Z</time>
      </trkpt>
      <trkpt lat="57.58398" lon="-6.35737">
        <ele>48.82</ele>
        <time>2021-03-20T17:29:43Z</time>
      </trkpt>
      <trkpt lat="57.58362" lon="-6.35753">
        <ele>50.42</ele>
        <time>2021-03-20T17:29:47Z</time>
      </trkpt>
      <trkpt lat="57.58308" lon="-6.35793">
        <ele>54.8</ele>
        <time>2021-03-20T17:29:51Z</time>
      </trkpt>
      <trkpt lat="57.58267" lon="-6.35845">
        <ele>56.54</ele>
        <time>2021-03-20T17:29:55Z</time>
      </trkpt>
      <trkpt lat="57.58241" lon="-6.35889">
        <ele>55.91</ele>
        <time>2021-03-20T17:29:59Z</time>
      </trkpt>
      <trkpt lat="57.58189" lon="-6.35965">
        <ele>59.12</ele>
        <time>2021-03-20T17:30:04Z</time>
      </trkpt>
      <trkpt lat="57.58151" lon="-6.35997">
        <ele>62.73</ele>
        <time>2021-03-20T17:30:08Z</time>
      </trkpt>
      <trkpt lat="57.58119" lon="-6.36028">
        <ele>64.89</ele>
        <time>2021-03-20T17:30:12Z</time>
      </trkpt>
      <trkpt lat="57.58092" lon="-6.36075">
        <ele>68.22</ele>
        <time>2021-03-20T17:30:16Z</time>
      </trkpt>
      <trkpt lat="57.58067" lon="-6.36154">
        <ele>69.68</ele>
        <time>2021-03-20T17:30:20Z</time>
      </trkpt>
      <trkpt lat="57.58056" lon="-6.3618">
        <ele>69.33</ele>
        <time>2021-03-20T17:30:24Z</time>
      </trkpt>
      <trkpt lat="57.58035" lon="-6.36216">
        <ele>70.5</ele>
        <time>2021-03-20T17:30:29Z</time>
      </trkpt>
      <trkpt lat="57.58015" lon="-6.36234">
        <ele>73.23</ele>
        <time>2021-03-20T17:30:33Z</time>
      </trkpt>
      <trkpt lat="57.57901" lon="-6.36319">
        <ele>78.98</ele>
        <time>2021-03-20T17:30:37Z</time>
      </trkpt>
      <trkpt lat="57.57864" lon="-6.36359">
        <ele>82.44</ele>
        <time>2021-03-20T17:30:41Z</time>
      </trkpt>
      <trkpt lat="57.57811" lon="-6.36455">
        <ele>83.34</ele>
        <time>2021-03-20T17:30:45Z</time>
      </trkpt>
      <trkpt lat="57.57782" lon="-6.36495">
        <ele>83.52</ele>
        <time>2021-03-20T17:30:49Z</time>
      </trkpt>
      <trkpt lat="57.57762" lon="-6.36512">
        <ele>84.38</ele>
        <time>2021-03-20T17:30:54Z</time>
      </trkpt>
      <trkpt lat="57.57725" lon="-6.36533">
        <ele>86.72</ele>
        <time>2021-03-20T17:30:58Z</time>
      </trkpt>
      <trkpt lat="57.57686" lon="-6.36538">
        <ele>87.93</ele>
        <time>2021-03-20T17:31:02Z</time>
      </trkpt>
      <trkpt lat="57.57591" lon="-6.36539">
        <ele>89.2</ele>
        <time>2021-03-20T17:31:06Z</time>
      </trkpt>
      <trkpt lat="57.57448" lon="-6.36535">
        <ele>93.75</ele>
        <time>2021-03-20T17:31:10Z</time>
      </trkpt>
      <trkpt lat="57.57408" lon="-6.36528">
        <ele>94.29</ele>
        <time>2021-03-20T17:31:15Z</time>
      </trkpt>
      <trkpt lat="57.57386" lon="-6.36522">
        <ele>95.25</ele>
        <time>2021-03-20T17:31:19Z</time>
      </trkpt>
      <trkpt lat="57.57328" lon="-6.36496">
        <ele>95.18</ele>
        <time>2021-03-20T17:31:23Z</time>
      </trkpt>
      <trkpt lat="57.5724" lon="-6.36423">
        <ele>93.8</ele>
        <time>2021-03-20T17:31:27Z</time>
      </trkpt>
      <trkpt lat="57.57201" lon="-6.36404">
        <ele>93.15</ele>
        <time>2021-03-20T17:31:31Z</time>
      </trkpt>
      <trkpt lat="57.57162" lon="-6.36402">
        <ele>92.05</ele>
        <time>2021-03-20T17:31:35Z</time>
      </trkpt>
      <trkpt lat="57.57127" lon="-6.36407">
        <ele>91.7</ele>
        <time>2021-03-20T17:31:40Z</time>
      </trkpt>
      <trkpt lat="57.57027" lon="-6.36445">
        <ele>90.9</ele>
        <time>2021-03-20T17:31:44Z</time>
      </trkpt>
      <trkpt lat="57.56974" lon="-6.36456">
        <ele>88.18</ele>
        <time>2021-03-20T17:31:48Z</time>
      </trkpt>
      <trkpt lat="57.5681" lon="-6.36457">
        <ele>84.17</ele>
        <time>2021-03-20T17:31:52Z</time>
      </trkpt>
      <trkpt lat="57.56662" lon="-6.36479">
        <ele>82.9</ele>
        <time>2021-03-20T17:31:56Z</time>
      </trkpt>
      <trkpt lat="57.5659" lon="-6.36485">
        <ele>83.2</ele>
        <time>2021-03-20T17:32:00Z</time>
      </trkpt>
      <trkpt lat="57.56537" lon="-6.36479">
        <ele>78.79</ele>
        <time>2021-03-20T17:32:05Z</time>
      </trkpt>
      <trkpt lat="57.56415" lon="-6.36446">
        <ele>78.78</ele>
        <time>2021-03-20T17:32:09Z</time>
      </trkpt>
      <trkpt lat="57.56363" lon="-6.36444">
        <ele>78.12</ele>
        <time>2021-03-20T17:32:13Z</time>
      </trkpt>
      <trkpt lat="57.5631" lon="-6.36448">
        <ele>76.76</ele>
        <time>2021-03-20T17:32:17Z</time>
      </trkpt>
      <trkpt lat="57.5626" lon="-6.36441">
        <ele>75.69</ele>
        <time>2021-03-20T17:32:21Z</time>
      </trkpt>
      <trkpt lat="57.56211" lon="-6.36428">
        <ele>75.36</ele>
        <time>2021-03-20T17:32:25Z</time>
      </trkpt>
      <trkpt lat="57.56045" lon="-6.36352">
        <ele>71.82</ele>
        <time>2021-03-20T17:32:30Z</time>
      </trkpt>
      <trkpt lat="57.55975" lon="-6.36337">
        <ele>70.83</ele>
        <time>2021-03-20T17:32:34Z</time>
      </trkpt>
      <trkpt lat="57.55947" lon="-6.36334">
        <ele>70.94</ele>
        <time>2021-03-20T17:32:38Z</time>
      </trkpt>
      <trkpt lat="57.55912" lon="-6.36337">
        <ele>69.85</ele>
        <time>2021-03-20T17:32:42Z</time>
      </trkpt>
      <trkpt lat="57.55866" lon="-6.36346">
        <ele>70</ele>
        <time>2021-03-20T17:32:46Z</time>
      </trkpt>
      <trkpt lat="57.55737" lon="-6.36379">
        <ele>68.69</ele>
        <time>2021-03-20T17:32:50Z</time>
      </trkpt>
      <trkpt lat="57.55678" lon="-6.36404">
        <ele>68.11</ele>
        <time>2021-03-20T17:32:55Z</time>
      </trkpt>
      <trkpt lat="57.55621" lon="-6.36435">
        <ele>70</ele>
        <time>2021-03-20T17:32:59Z</time>
      </trkpt>
      <trkpt lat="57.55538" lon="-6.365">
        <ele>71.63</ele>
        <time>2021-03-20T17:33:03Z</time>
      </trkpt>
      <trkpt lat="57.55473" lon="-6.36538">
        <ele>70.64</ele>
        <time>2021-03-20T17:33:07Z</time>
      </trkpt>
      <trkpt lat="57.55391" lon="-6.36564">
        <ele>69.04</ele>
        <time>2021-03-20T17:33:11Z</time>
      </trkpt>
      <trkpt lat="57.55297" lon="-6.36582">
        <ele>69.08</ele>
        <time>2021-03-20T17:33:15Z</time>
      </trkpt>
      <trkpt lat="57.55272" lon="-6.36582">
        <ele>69.14</ele>
        <time>2021-03-20T17:33:20Z</time>
      </trkpt>
      <trkpt lat="57.55239" lon="-6.36576">
        <ele>68.99</ele>
        <time>2021-03-20T17:33:24Z</time>
      </trkpt>
      <trkpt lat="57.55199" lon="-6.36557">
        <ele>67.38</ele>
        <time>2021-03-20T17:33:28Z</time>
      </trkpt>
      <trkpt lat="57.55162" lon="-6.36536">
        <ele>66.26</ele>
        <time>2021-03-20T17:33:32Z</time>
      </trkpt>
      <trkpt lat="57.55122" lon="-6.36507">
        <ele>67.05</ele>
        <time>2021-03-20T17:33:36Z</time>
      </trkpt>
      <trkpt lat="57.55008" lon="-6.36414">
        <ele>70.17</ele>
        <time>2021-03-20T17:33:40Z</time>
      </trkpt>
      <trkpt lat="57.54915" lon="-6.36357">
        <ele>67.57</ele>
        <time>2021-03-20T17:33:45Z</time>
      </trkpt>
      <trkpt lat="57.54871" lon="-6.36345">
        <ele>66.35</ele>
        <time>2021-03-20T17:33:49Z</time>
      </trkpt>
      <trkpt lat="57.54824" lon="-6.36347">
        <ele>64.52</ele>
        <time>2021-03-20T17:33:53Z</time>
      </trkpt>
      <trkpt lat="57.54785" lon="-6.36359">
        <ele>63.02</ele>
        <time>2021-03-20T17:33:57Z</time>
      </trkpt>
      <trkpt lat="57.54754" lon="-6.36383">
        <ele>63</ele>
        <time>2021-03-20T17:34:01Z</time>
      </trkpt>
      <trkpt lat="57.54694" lon="-6.3645">
        <ele>61.01</ele>
        <time>2021-03-20T17:34:06Z</time>
      </trkpt>
      <trkpt lat="57.54645" lon="-6.36499">
        <ele>61.26</ele>
        <time>2021-03-20T17:34:10Z</time>
      </trkpt>
      <trkpt lat="57.54596" lon="-6.3653">
        <ele>57.91</ele>
        <time>2021-03-20T17:34:14Z</time>
      </trkpt>
      <trkpt lat="57.54558" lon="-6.36538">
        <ele>56.7</ele>
        <time>2021-03-20T17:34:18Z</time>
      </trkpt>
      <trkpt lat="57.54337" lon="-6.36504">
        <ele>49.27</ele>
        <time>2021-03-20T17:34:22Z</time>
      </trkpt>
      <trkpt lat="57.54263" lon="-6.36489">
        <ele>48.85</ele>
        <time>2021-03-20T17:34:26Z</time>
      </trkpt>
      <trkpt lat="57.54205" lon="-6.36464">
        <ele>48.95</ele>
        <time>2021-03-20T17:34:31Z</time>
      </trkpt>
      <trkpt lat="57.53925" lon="-6.36288">
        <ele>47.48</ele>
        <time>2021-03-20T17:34:35Z</time>
      </trkpt>
      <trkpt lat="57.53723" lon="-6.36179">
        <ele>41.61</ele>
        <time>2021-03-20T17:34:39Z</time>
      </trkpt>
      <trkpt lat="57.5367" lon="-6.36158">
        <ele>41.35</ele>
        <time>2021-03-20T17:34:43Z</time>
      </trkpt>
      <trkpt lat="57.53612" lon="-6.36131">
        <ele>40.34</ele>
        <time>2021-03-20T17:34:47Z</time>
      </trkpt>
      <trkpt lat="57.53562" lon="-6.36099">
        <ele>38.89</ele>
        <time>2021-03-20T17:34:51Z</time>
      </trkpt>
      <trkpt lat="57.53521" lon="-6.3606">
        <ele>37.35</ele>
        <time>2021-03-20T17:34:56Z</time>
      </trkpt>
      <trkpt lat="57.53485" lon="-6.36011">
        <ele>37.34</ele>
        <time>2021-03-20T17:35:00Z</time>
      </trkpt>
      <trkpt lat="57.53445" lon="-6.35934">
        <ele>38.04</ele>
        <time>2021-03-20T17:35:04Z</time>
      </trkpt>
      <trkpt lat="57.53396" lon="-6.35814">
        <ele>36.61</ele>
        <time>2021-03-20T17:35:08Z</time>
      </trkpt>
      <trkpt lat="57.5327" lon="-6.35542">
        <ele>32.94</ele>
        <time>2021-03-20T17:35:12Z</time>
      </trkpt>
      <trkpt lat="57.53247" lon="-6.35482">
        <ele>33.35</ele>
        <time>2021-03-20T17:35:16Z</time>
      </trkpt>
      <trkpt lat="57.53232" lon="-6.35437">
        <ele>33.03</ele>
        <time>2021-03-20T17:35:21Z</time>
      </trkpt>
      <trkpt lat="57.53183" lon="-6.35252">
        <ele>28.38</ele>
        <time>2021-03-20T17:35:25Z</time>
      </trkpt>
      <trkpt lat="57.53165" lon="-6.35192">
        <ele>26.88</ele>
        <time>2021-03-20T17:35:29Z</time>
      </trkpt>
      <trkpt lat="57.53148" lon="-6.35145">
        <ele>25.79</ele>
        <time>2021-03-20T17:35:33Z</time>
      </trkpt>
      <trkpt lat="57.53116" lon="-6.35077">
        <ele>23.74</ele>
        <time>2021-03-20T17:35:37Z</time>
      </trkpt>
      <trkpt lat="57.53074" lon="-6.35009">
        <ele>24.93</ele>
        <time>2021-03-20T17:35:41Z</time>
      </trkpt>
      <trkpt lat="57.53027" lon="-6.34948">
        <ele>30.63</ele>
        <time>2021-03-20T17:35:46Z</time>
      </trkpt>
      <trkpt lat="57.52982" lon="-6.34908">
        <ele>36.42</ele>
        <time>2021-03-20T17:35:50Z</time>
      </trkpt>
      <trkpt lat="57.52833" lon="-6.34819">
        <ele>41.5</ele>
        <time>2021-03-20T17:35:54Z</time>
      </trkpt>
      <trkpt lat="57.52745" lon="-6.34762">
        <ele>42.03</ele>
        <time>2021-03-20T17:35:58Z</time>
      </trkpt>
      <trkpt lat="57.52667" lon="-6.34683">
        <ele>43.76</ele>
        <time>2021-03-20T17:36:02Z</time>
      </trkpt>
      <trkpt lat="57.52574" lon="-6.34563">
        <ele>43.95</ele>
        <time>2021-03-20T17:36:06Z</time>
      </trkpt>
      <trkpt lat="57.52467" lon="-6.34455">
        <ele>39.87</ele>
        <time>2021-03-20T17:36:11Z</time>
      </trkpt>
      <trkpt lat="57.5233" lon="-6.34307">
        <ele>42.63</ele>
        <time>2021-03-20T17:36:15Z</time>
      </trkpt>
      <trkpt lat="57.52283" lon="-6.34262">
        <ele>43.57</ele>
        <time>2021-03-20T17:36:19Z</time>
      </trkpt>
      <trkpt lat="57.52232" lon="-6.34225">
        <ele>41.87</ele>
        <time>2021-03-20T17:36:23Z</time>
      </trkpt>
      <trkpt lat="57.52181" lon="-6.34192">
        <ele>44.25</ele>
        <time>2021-03-20T17:36:27Z</time>
      </trkpt>
      <trkpt lat="57.52069" lon="-6.34111">
        <ele>48.96</ele>
        <time>2021-03-20T17:36:32Z</time>
      </trkpt>
      <trkpt lat="57.52034" lon="-6.34096">
        <ele>48.35</ele>
        <time>2021-03-20T17:36:36Z</time>
      </trkpt>
      <trkpt lat="57.51993" lon="-6.34093">
        <ele>47.4</ele>
        <time>2021-03-20T17:36:40Z</time>
      </trkpt>
      <trkpt lat="57.51967" lon="-6.34098">
        <ele>47.78</ele>
        <time>2021-03-20T17:36:44Z</time>
      </trkpt>
      <trkpt lat="57.5194" lon="-6.34107">
        <ele>49.6</ele>
        <time>2021-03-20T17:36:48Z</time>
      </trkpt>
      <trkpt lat="57.51877" lon="-6.34148">
        <ele>55.55</ele>
        <time>2021-03-20T17:36:52Z</time>
      </trkpt>
      <trkpt lat="57.51816" lon="-6.3418">
        <ele>57.17</ele>
        <time>2021-03-20T17:36:57Z</time>
      </trkpt>
      <trkpt lat="57.5176" lon="-6.34199">
        <ele>59.66</ele>
        <time>2021-03-20T17:37:01Z</time>
      </trkpt>
      <trkpt lat="57.51705" lon="-6.34206">
        <ele>60.61</ele>
        <time>2021-03-20T17:37:05Z</time>
      </trkpt>
      <trkpt lat="57.51616" lon="-6.34193">
        <ele>63.99</ele>
        <time>2021-03-20T17:37:09Z</time>
      </trkpt>
      <trkpt lat="57.51332" lon="-6.3409">
        <ele>65.24</ele>
        <time>2021-03-20T17:37:13Z</time>
      </trkpt>
      <trkpt lat="57.51161" lon="-6.34052">
        <ele>56.85</ele>
        <time>2021-03-20T17:37:17Z</time>
      </trkpt>
      <trkpt lat="57.51112" lon="-6.34032">
        <ele>55.15</ele>
        <time>2021-03-20T17:37:22Z</time>
      </trkpt>
      <trkpt lat="57.51066" lon="-6.34004">
        <ele>54.55</ele>
        <time>2021-03-20T17:37:26Z</time>
      </trkpt>
      <trkpt lat="57.51021" lon="-6.33959">
        <ele>54.22</ele>
        <time>2021-03-20T17:37:30Z</time>
      </trkpt>
      <trkpt lat="57.50863" lon="-6.33758">
        <ele>54.97</ele>
        <time>2021-03-20T17:37:34Z</time>
      </trkpt>
      <trkpt lat="57.50781" lon="-6.33665">
        <ele>52.49</ele>
        <time>2021-03-20T17:37:38Z</time>
      </trkpt>
      <trkpt lat="57.50657" lon="-6.33548">
        <ele>49.64</ele>
        <time>2021-03-20T17:37:42Z</time>
      </trkpt>
      <trkpt lat="57.50603" lon="-6.33488">
        <ele>50.5</ele>
        <time>2021-03-20T17:37:47Z</time>
      </trkpt>
      <trkpt lat="57.50558" lon="-6.33421">
        <ele>48.19</ele>
        <time>2021-03-20T17:37:51Z</time>
      </trkpt>
      <trkpt lat="57.50537" lon="-6.33379">
        <ele>47.12</ele>
        <time>2021-03-20T17:37:55Z</time>
      </trkpt>
      <trkpt lat="57.50484" lon="-6.33257">
        <ele>44</ele>
        <time>2021-03-20T17:37:59Z</time>
      </trkpt>
      <trkpt lat="57.50448" lon="-6.33193">
        <ele>44.01</ele>
        <time>2021-03-20T17:38:03Z</time>
      </trkpt>
      <trkpt lat="57.50419" lon="-6.33156">
        <ele>44.39</ele>
        <time>2021-03-20T17:38:07Z</time>
      </trkpt>
      <trkpt lat="57.50384" lon="-6.33117">
        <ele>44.62</ele>
        <time>2021-03-20T17:38:12Z</time>
      </trkpt>
      <trkpt lat="57.50141" lon="-6.32902">
        <ele>39.71</ele>
        <time>2021-03-20T17:38:16Z</time>
      </trkpt>
      <trkpt lat="57.50107" lon="-6.32864">
        <ele>38.51</ele>
        <time>2021-03-20T17:38:20Z</time>
      </trkpt>
      <trkpt lat="57.50073" lon="-6.32817">
        <ele>36.46</ele>
        <time>2021-03-20T17:38:24Z</time>
      </trkpt>
      <trkpt lat="57.50025" lon="-6.32727">
        <ele>34.47</ele>
        <time>2021-03-20T17:38:28Z</time>
      </trkpt>
      <trkpt lat="57.50009" lon="-6.32689">
        <ele>32.26</ele>
        <time>2021-03-20T17:38:33Z</time>
      </trkpt>
      <trkpt lat="57.50009" lon="-6.32689">
        <ele>32.26</ele>
        <time>2021-03-20T17:38:33Z</time>
      </trkpt>
      <trkpt lat="57.49934" lon="-6.32505">
        <ele>27.21</ele>
        <time>2021-03-20T17:38:39Z</time>
      </trkpt>
      <trkpt lat="57.49905" lon="-6.32447">
        <ele>25.6</ele>
        <time>2021-03-20T17:38:46Z</time>
      </trkpt>
      <trkpt lat="57.49873" lon="-6.32397">
        <ele>22.4</ele>
        <time>2021-03-20T17:38:52Z</time>
      </trkpt>
      <trkpt lat="57.49845" lon="-6.3236">
        <ele>22.1</ele>
        <time>2021-03-20T17:38:59Z</time>
      </trkpt>
      <trkpt lat="57.49799" lon="-6.32321">
        <ele>24.22</ele>
        <time>2021-03-20T17:39:05Z</time>
      </trkpt>
      <trkpt lat="57.49358" lon="-6.31997">
        <ele>26.2</ele>
        <time>2021-03-20T17:39:12Z</time>
      </trkpt>
      <trkpt lat="57.49294" lon="-6.31946">
        <ele>25.52</ele>
        <time>2021-03-20T17:39:18Z</time>
      </trkpt>
      <trkpt lat="57.4923" lon="-6.31881">
        <ele>23.86</ele>
        <time>2021-03-20T17:39:25Z</time>
      </trkpt>
      <trkpt lat="57.49163" lon="-6.318">
        <ele>20.92</ele>
        <time>2021-03-20T17:39:32Z</time>
      </trkpt>
      <trkpt lat="57.49018" lon="-6.31608">
        <ele>17.2</ele>
        <time>2021-03-20T17:39:38Z</time>
      </trkpt>
      <trkpt lat="57.48961" lon="-6.31514">
        <ele>16.59</ele>
        <time>2021-03-20T17:39:45Z</time>
      </trkpt>
      <trkpt lat="57.48897" lon="-6.31385">
        <ele>12.95</ele>
        <time>2021-03-20T17:39:51Z</time>
      </trkpt>
      <trkpt lat="57.48802" lon="-6.31203">
        <ele>13.67</ele>
        <time>2021-03-20T17:39:58Z</time>
      </trkpt>
      <trkpt lat="57.48749" lon="-6.3111">
        <ele>12.91</ele>
        <time>2021-03-20T17:40:04Z</time>
      </trkpt>
      <trkpt lat="57.48657" lon="-6.30979">
        <ele>10.89</ele>
        <time>2021-03-20T17:40:11Z</time>
      </trkpt>
      <trkpt lat="57.48603" lon="-6.30911">
        <ele>11.33</ele>
        <time>2021-03-20T17:40:18Z</time>
      </trkpt>
      <trkpt lat="57.48552" lon="-6.30843">
        <ele>10.5</ele>
        <time>2021-03-20T17:40:24Z</time>
      </trkpt>
      <trkpt lat="57.4837" lon="-6.30574">
        <ele>10.59</ele>
        <time>2021-03-20T17:40:31Z</time>
      </trkpt>
      <trkpt lat="57.4831" lon="-6.30482">
        <ele>9.99</ele>
        <time>2021-03-20T17:40:37Z</time>
      </trkpt>
      <trkpt lat="57.48182" lon="-6.30261">
        <ele>11.26</ele>
        <time>2021-03-20T17:40:44Z</time>
      </trkpt>
      <trkpt lat="57.48127" lon="-6.30181">
        <ele>11.49</ele>
        <time>2021-03-20T17:40:50Z</time>
      </trkpt>
      <trkpt lat="57.4808" lon="-6.30131">
        <ele>12.15</ele>
        <time>2021-03-20T17:40:57Z</time>
      </trkpt>
      <trkpt lat="57.48046" lon="-6.301">
        <ele>12.39</ele>
        <time>2021-03-20T17:41:03Z</time>
      </trkpt>
      <trkpt lat="57.48002" lon="-6.30068">
        <ele>13.16</ele>
        <time>2021-03-20T17:41:10Z</time>
      </trkpt>
      <trkpt lat="57.47967" lon="-6.30047">
        <ele>13.11</ele>
        <time>2021-03-20T17:41:17Z</time>
      </trkpt>
      <trkpt lat="57.47912" lon="-6.30029">
        <ele>11</ele>
        <time>2021-03-20T17:41:23Z</time>
      </trkpt>
      <trkpt lat="57.4788" lon="-6.30022">
        <ele>10.69</ele>
        <time>2021-03-20T17:41:30Z</time>
      </trkpt>
      <trkpt lat="57.4764" lon="-6.29988">
        <ele>20.98</ele>
        <time>2021-03-20T17:41:36Z</time>
      </trkpt>
      <trkpt lat="57.47608" lon="-6.29979">
        <ele>21.69</ele>
        <time>2021-03-20T17:41:43Z</time>
      </trkpt>
      <trkpt lat="57.47544" lon="-6.29953">
        <ele>23.13</ele>
        <time>2021-03-20T17:41:49Z</time>
      </trkpt>
      <trkpt lat="57.47496" lon="-6.29916">
        <ele>24.02</ele>
        <time>2021-03-20T17:41:56Z</time>
      </trkpt>
      <trkpt lat="57.47457" lon="-6.29876">
        <ele>25</ele>
        <time>2021-03-20T17:42:02Z</time>
      </trkpt>
      <trkpt lat="57.47423" lon="-6.29831">
        <ele>26</ele>
        <time>2021-03-20T17:42:09Z</time>
      </trkpt>
      <trkpt lat="57.47232" lon="-6.29518">
        <ele>31.36</ele>
        <time>2021-03-20T17:42:16Z</time>
      </trkpt>
      <trkpt lat="57.47155" lon="-6.29395">
        <ele>32.33</ele>
        <time>2021-03-20T17:42:22Z</time>
      </trkpt>
      <trkpt lat="57.47073" lon="-6.29278">
        <ele>36.96</ele>
        <time>2021-03-20T17:42:29Z</time>
      </trkpt>
      <trkpt lat="57.46528" lon="-6.28518">
        <ele>53.63</ele>
        <time>2021-03-20T17:42:35Z</time>
      </trkpt>
      <trkpt lat="57.4649" lon="-6.28467">
        <ele>53.88</ele>
        <time>2021-03-20T17:42:42Z</time>
      </trkpt>
      <trkpt lat="57.4644" lon="-6.2841">
        <ele>54.66</ele>
        <time>2021-03-20T17:42:48Z</time>
      </trkpt>
      <trkpt lat="57.4644" lon="-6.2841">
        <ele>54.66</ele>
        <time>2021-03-20T17:42:48Z</time>
      </trkpt>
      <trkpt lat="57.46411" lon="-6.28377">
        <ele>55.44</ele>
        <time>2021-03-20T17:42:53Z</time>
      </trkpt>
      <trkpt lat="57.4628" lon="-6.28256">
        <ele>59</ele>
        <time>2021-03-20T17:42:57Z</time>
      </trkpt>
      <trkpt lat="57.46217" lon="-6.28193">
        <ele>59.07</ele>
        <time>2021-03-20T17:43:02Z</time>
      </trkpt>
      <trkpt lat="57.46155" lon="-6.28124">
        <ele>59.1</ele>
        <time>2021-03-20T17:43:06Z</time>
      </trkpt>
      <trkpt lat="57.46097" lon="-6.28055">
        <ele>60</ele>
        <time>2021-03-20T17:43:11Z</time>
      </trkpt>
      <trkpt lat="57.46042" lon="-6.27983">
        <ele>59.51</ele>
        <time>2021-03-20T17:43:15Z</time>
      </trkpt>
      <trkpt lat="57.45969" lon="-6.27874">
        <ele>59</ele>
        <time>2021-03-20T17:43:20Z</time>
      </trkpt>
      <trkpt lat="57.45912" lon="-6.27767">
        <ele>58.83</ele>
        <time>2021-03-20T17:43:24Z</time>
      </trkpt>
      <trkpt lat="57.4587" lon="-6.27666">
        <ele>59.3</ele>
        <time>2021-03-20T17:43:29Z</time>
      </trkpt>
      <trkpt lat="57.4583" lon="-6.27558">
        <ele>58.78</ele>
        <time>2021-03-20T17:43:33Z</time>
      </trkpt>
      <trkpt lat="57.45791" lon="-6.27434">
        <ele>58.49</ele>
        <time>2021-03-20T17:43:38Z</time>
      </trkpt>
      <trkpt lat="57.45763" lon="-6.27366">
        <ele>58.48</ele>
        <time>2021-03-20T17:43:42Z</time>
      </trkpt>
      <trkpt lat="57.45727" lon="-6.273">
        <ele>58.37</ele>
        <time>2021-03-20T17:43:46Z</time>
      </trkpt>
      <trkpt lat="57.45575" lon="-6.27104">
        <ele>60.19</ele>
        <time>2021-03-20T17:43:51Z</time>
      </trkpt>
      <trkpt lat="57.45491" lon="-6.2699">
        <ele>60.2</ele>
        <time>2021-03-20T17:43:55Z</time>
      </trkpt>
      <trkpt lat="57.45491" lon="-6.2699">
        <ele>60.2</ele>
        <time>2021-03-20T17:43:55Z</time>
      </trkpt>
      <trkpt lat="57.45425" lon="-6.26891">
        <ele>60.5</ele>
        <time>2021-03-20T17:44:00Z</time>
      </trkpt>
      <trkpt lat="57.4523" lon="-6.26576">
        <ele>63.71</ele>
        <time>2021-03-20T17:44:05Z</time>
      </trkpt>
      <trkpt lat="57.45195" lon="-6.26509">
        <ele>65.69</ele>
        <time>2021-03-20T17:44:09Z</time>
      </trkpt>
      <trkpt lat="57.45161" lon="-6.26426">
        <ele>65.57</ele>
        <time>2021-03-20T17:44:14Z</time>
      </trkpt>
      <trkpt lat="57.45129" lon="-6.26326">
        <ele>65.66</ele>
        <time>2021-03-20T17:44:18Z</time>
      </trkpt>
      <trkpt lat="57.45106" lon="-6.26225">
        <ele>67.72</ele>
        <time>2021-03-20T17:44:23Z</time>
      </trkpt>
      <trkpt lat="57.45041" lon="-6.25854">
        <ele>75.72</ele>
        <time>2021-03-20T17:44:28Z</time>
      </trkpt>
      <trkpt lat="57.45023" lon="-6.25768">
        <ele>78.88</ele>
        <time>2021-03-20T17:44:32Z</time>
      </trkpt>
      <trkpt lat="57.45003" lon="-6.25689">
        <ele>80.21</ele>
        <time>2021-03-20T17:44:37Z</time>
      </trkpt>
      <trkpt lat="57.44983" lon="-6.25619">
        <ele>79.96</ele>
        <time>2021-03-20T17:44:42Z</time>
      </trkpt>
      <trkpt lat="57.44962" lon="-6.25554">
        <ele>80.02</ele>
        <time>2021-03-20T17:44:46Z</time>
      </trkpt>
      <trkpt lat="57.44933" lon="-6.25454">
        <ele>81.05</ele>
        <time>2021-03-20T17:44:51Z</time>
      </trkpt>
      <trkpt lat="57.44933" lon="-6.25454">
        <ele>81.05</ele>
        <time>2021-03-20T17:44:51Z</time>
      </trkpt>
      <trkpt lat="57.44891" lon="-6.25309">
        <ele>82.07</ele>
        <time>2021-03-20T17:44:55Z</time>
      </trkpt>
      <trkpt lat="57.44856" lon="-6.25212">
        <ele>84.18</ele>
        <time>2021-03-20T17:44:59Z</time>
      </trkpt>
      <trkpt lat="57.44837" lon="-6.25168">
        <ele>84.87</ele>
        <time>2021-03-20T17:45:03Z</time>
      </trkpt>
      <trkpt lat="57.44811" lon="-6.25123">
        <ele>86.14</ele>
        <time>2021-03-20T17:45:07Z</time>
      </trkpt>
      <trkpt lat="57.44669" lon="-6.24925">
        <ele>92.07</ele>
        <time>2021-03-20T17:45:10Z</time>
      </trkpt>
      <trkpt lat="57.44596" lon="-6.24868">
        <ele>94.88</ele>
        <time>2021-03-20T17:45:14Z</time>
      </trkpt>
      <trkpt lat="57.4456" lon="-6.24834">
        <ele>94.88</ele>
        <time>2021-03-20T17:45:18Z</time>
      </trkpt>
      <trkpt lat="57.44534" lon="-6.24799">
        <ele>96.29</ele>
        <time>2021-03-20T17:45:22Z</time>
      </trkpt>
      <trkpt lat="57.44489" lon="-6.24712">
        <ele>97.15</ele>
        <time>2021-03-20T17:45:26Z</time>
      </trkpt>
      <trkpt lat="57.44448" lon="-6.24615">
        <ele>99.55</ele>
        <time>2021-03-20T17:45:30Z</time>
      </trkpt>
      <trkpt lat="57.44419" lon="-6.24558">
        <ele>102.64</ele>
        <time>2021-03-20T17:45:34Z</time>
      </trkpt>
      <trkpt lat="57.44239" lon="-6.24278">
        <ele>116.39</ele>
        <time>2021-03-20T17:45:38Z</time>
      </trkpt>
      <trkpt lat="57.44209" lon="-6.24242">
        <ele>117.48</ele>
        <time>2021-03-20T17:45:42Z</time>
      </trkpt>
      <trkpt lat="57.44176" lon="-6.24214">
        <ele>118</ele>
        <time>2021-03-20T17:45:46Z</time>
      </trkpt>
      <trkpt lat="57.44128" lon="-6.24177">
        <ele>117</ele>
        <time>2021-03-20T17:45:50Z</time>
      </trkpt>
      <trkpt lat="57.44043" lon="-6.24125">
        <ele>111.61</ele>
        <time>2021-03-20T17:45:54Z</time>
      </trkpt>
      <trkpt lat="57.4402" lon="-6.24103">
        <ele>110.18</ele>
        <time>2021-03-20T17:45:58Z</time>
      </trkpt>
      <trkpt lat="57.44009" lon="-6.24082">
        <ele>108.98</ele>
        <time>2021-03-20T17:46:02Z</time>
      </trkpt>
      <trkpt lat="57.43997" lon="-6.2403">
        <ele>107.51</ele>
        <time>2021-03-20T17:46:06Z</time>
      </trkpt>
      <trkpt lat="57.43959" lon="-6.23686">
        <ele>106.33</ele>
        <time>2021-03-20T17:46:10Z</time>
      </trkpt>
      <trkpt lat="57.43918" lon="-6.23395">
        <ele>108.89</ele>
        <time>2021-03-20T17:46:14Z</time>
      </trkpt>
      <trkpt lat="57.43892" lon="-6.23274">
        <ele>103.75</ele>
        <time>2021-03-20T17:46:17Z</time>
      </trkpt>
      <trkpt lat="57.43849" lon="-6.23101">
        <ele>99.72</ele>
        <time>2021-03-20T17:46:21Z</time>
      </trkpt>
      <trkpt lat="57.43834" lon="-6.22997">
        <ele>95.13</ele>
        <time>2021-03-20T17:46:25Z</time>
      </trkpt>
      <trkpt lat="57.43814" lon="-6.22911">
        <ele>92.32</ele>
        <time>2021-03-20T17:46:29Z</time>
      </trkpt>
      <trkpt lat="57.43804" lon="-6.22881">
        <ele>90.1</ele>
        <time>2021-03-20T17:46:33Z</time>
      </trkpt>
      <trkpt lat="57.43804" lon="-6.22881">
        <ele>90.1</ele>
        <time>2021-03-20T17:46:33Z</time>
      </trkpt>
      <trkpt lat="57.43769" lon="-6.2277">
        <ele>87.88</ele>
        <time>2021-03-20T17:46:40Z</time>
      </trkpt>
      <trkpt lat="57.43759" lon="-6.22726">
        <ele>85.56</ele>
        <time>2021-03-20T17:46:46Z</time>
      </trkpt>
      <trkpt lat="57.43748" lon="-6.22658">
        <ele>84.64</ele>
        <time>2021-03-20T17:46:53Z</time>
      </trkpt>
      <trkpt lat="57.43733" lon="-6.226">
        <ele>82.59</ele>
        <time>2021-03-20T17:46:59Z</time>
      </trkpt>
      <trkpt lat="57.4372" lon="-6.22565">
        <ele>81.51</ele>
        <time>2021-03-20T17:47:05Z</time>
      </trkpt>
      <trkpt lat="57.43601" lon="-6.22345">
        <ele>75.27</ele>
        <time>2021-03-20T17:47:12Z</time>
      </trkpt>
      <trkpt lat="57.43564" lon="-6.22253">
        <ele>71.64</ele>
        <time>2021-03-20T17:47:18Z</time>
      </trkpt>
      <trkpt lat="57.43544" lon="-6.22231">
        <ele>69.9</ele>
        <time>2021-03-20T17:47:25Z</time>
      </trkpt>
      <trkpt lat="57.43522" lon="-6.22219">
        <ele>68.64</ele>
        <time>2021-03-20T17:47:31Z</time>
      </trkpt>
      <trkpt lat="57.43472" lon="-6.22201">
        <ele>64.96</ele>
        <time>2021-03-20T17:47:37Z</time>
      </trkpt>
      <trkpt lat="57.43412" lon="-6.22169">
        <ele>61.59</ele>
        <time>2021-03-20T17:47:44Z</time>
      </trkpt>
      <trkpt lat="57.4337" lon="-6.22137">
        <ele>59.31</ele>
        <time>2021-03-20T17:47:50Z</time>
      </trkpt>
      <trkpt lat="57.43328" lon="-6.22097">
        <ele>57.79</ele>
        <time>2021-03-20T17:47:57Z</time>
      </trkpt>
      <trkpt lat="57.43196" lon="-6.21949">
        <ele>53</ele>
        <time>2021-03-20T17:48:03Z</time>
      </trkpt>
      <trkpt lat="57.43064" lon="-6.21811">
        <ele>54</ele>
        <time>2021-03-20T17:48:10Z</time>
      </trkpt>
      <trkpt lat="57.43002" lon="-6.21757">
        <ele>53.08</ele>
        <time>2021-03-20T17:48:16Z</time>
      </trkpt>
      <trkpt lat="57.42851" lon="-6.21647">
        <ele>49</ele>
        <time>2021-03-20T17:48:22Z</time>
      </trkpt>
      <trkpt lat="57.42703" lon="-6.21548">
        <ele>50</ele>
        <time>2021-03-20T17:48:29Z</time>
      </trkpt>
      <trkpt lat="57.42397" lon="-6.21365">
        <ele>43.29</ele>
        <time>2021-03-20T17:48:35Z</time>
      </trkpt>
      <trkpt lat="57.42332" lon="-6.2133">
        <ele>40</ele>
        <time>2021-03-20T17:48:42Z</time>
      </trkpt>
      <trkpt lat="57.42216" lon="-6.21265">
        <ele>40.57</ele>
        <time>2021-03-20T17:48:48Z</time>
      </trkpt>
      <trkpt lat="57.41995" lon="-6.21183">
        <ele>31.83</ele>
        <time>2021-03-20T17:48:55Z</time>
      </trkpt>
      <trkpt lat="57.41932" lon="-6.21148">
        <ele>27.9</ele>
        <time>2021-03-20T17:49:01Z</time>
      </trkpt>
      <trkpt lat="57.41888" lon="-6.21116">
        <ele>26.98</ele>
        <time>2021-03-20T17:49:07Z</time>
      </trkpt>
      <trkpt lat="57.41724" lon="-6.21005">
        <ele>25.17</ele>
        <time>2021-03-20T17:49:14Z</time>
      </trkpt>
      <trkpt lat="57.4171" lon="-6.20986">
        <ele>25.44</ele>
        <time>2021-03-20T17:49:20Z</time>
      </trkpt>
      <trkpt lat="57.4171" lon="-6.20973">
        <ele>25.42</ele>
        <time>2021-03-20T17:49:26Z</time>
      </trkpt>
      <trkpt lat="57.41705" lon="-6.20966">
        <ele>25.62</ele>
        <time>2021-03-20T17:49:31Z</time>
      </trkpt>
      <trkpt lat="57.41699" lon="-6.20968">
        <ele>25.84</ele>
        <time>2021-03-20T17:49:37Z</time>
      </trkpt>
      <trkpt lat="57.41696" lon="-6.20975">
        <ele>25.93</ele>
        <time>2021-03-20T17:49:43Z</time>
      </trkpt>
      <trkpt lat="57.41662" lon="-6.20953">
        <ele>26.05</ele>
        <time>2021-03-20T17:49:48Z</time>
      </trkpt>
      <trkpt lat="57.41643" lon="-6.20929">
        <ele>26</ele>
        <time>2021-03-20T17:49:54Z</time>
      </trkpt>
      <trkpt lat="57.41564" lon="-6.2082">
        <ele>24</ele>
        <time>2021-03-20T17:50:00Z</time>
      </trkpt>
      <trkpt lat="57.41463" lon="-6.20648">
        <ele>25</ele>
        <time>2021-03-20T17:50:05Z</time>
      </trkpt>
      <trkpt lat="57.41441" lon="-6.20595">
        <ele>25.11</ele>
        <time>2021-03-20T17:50:11Z</time>
      </trkpt>
      <trkpt lat="57.41427" lon="-6.20539">
        <ele>24.9</ele>
        <time>2021-03-20T17:50:16Z</time>
      </trkpt>
      <trkpt lat="57.41411" lon="-6.20425">
        <ele>23.22</ele>
        <time>2021-03-20T17:50:22Z</time>
      </trkpt>
      <trkpt lat="57.41397" lon="-6.20298">
        <ele>21.92</ele>
        <time>2021-03-20T17:50:28Z</time>
      </trkpt>
      <trkpt lat="57.41386" lon="-6.20251">
        <ele>22</ele>
        <time>2021-03-20T17:50:33Z</time>
      </trkpt>
      <trkpt lat="57.41367" lon="-6.20203">
        <ele>20.31</ele>
        <time>2021-03-20T17:50:39Z</time>
      </trkpt>
      <trkpt lat="57.41307" lon="-6.20109">
        <ele>14.88</ele>
        <time>2021-03-20T17:50:45Z</time>
      </trkpt>
      <trkpt lat="57.41293" lon="-6.20077">
        <ele>13.08</ele>
        <time>2021-03-20T17:50:50Z</time>
      </trkpt>
      <trkpt lat="57.41282" lon="-6.20091">
        <ele>13.66</ele>
        <time>2021-03-20T17:50:53Z</time>
      </trkpt>
      <trkpt lat="57.41266" lon="-6.20103">
        <ele>14.41</ele>
        <time>2021-03-20T17:50:56Z</time>
      </trkpt>
      <trkpt lat="57.41235" lon="-6.20104">
        <ele>16.03</ele>
        <time>2021-03-20T17:50:58Z</time>
      </trkpt>
      <trkpt lat="57.41235" lon="-6.20104">
        <ele>16.03</ele>
        <time>2021-03-20T17:50:58Z</time>
      </trkpt>
      <trkpt lat="57.41196" lon="-6.20105">
        <ele>16.92</ele>
        <time>2021-03-20T17:51:05Z</time>
      </trkpt>
      <trkpt lat="57.40996" lon="-6.20215">
        <ele>19.74</ele>
        <time>2021-03-20T17:51:11Z</time>
      </trkpt>
      <trkpt lat="57.40964" lon="-6.20226">
        <ele>20.31</ele>
        <time>2021-03-20T17:51:18Z</time>
      </trkpt>
      <trkpt lat="57.40945" lon="-6.20229">
        <ele>20.73</ele>
        <time>2021-03-20T17:51:24Z</time>
      </trkpt>
      <trkpt lat="57.40922" lon="-6.20225">
        <ele>22.13</ele>
        <time>2021-03-20T17:51:31Z</time>
      </trkpt>
      <trkpt lat="57.40853" lon="-6.20194">
        <ele>25.77</ele>
        <time>2021-03-20T17:51:37Z</time>
      </trkpt>
      <trkpt lat="57.40775" lon="-6.20162">
        <ele>26.53</ele>
        <time>2021-03-20T17:51:44Z</time>
      </trkpt>
      <trkpt lat="57.407" lon="-6.20136">
        <ele>26.52</ele>
        <time>2021-03-20T17:51:50Z</time>
      </trkpt>
      <trkpt lat="57.40611" lon="-6.20117">
        <ele>29.16</ele>
        <time>2021-03-20T17:51:57Z</time>
      </trkpt>
      <trkpt lat="57.40523" lon="-6.20077">
        <ele>28.26</ele>
        <time>2021-03-20T17:52:03Z</time>
      </trkpt>
      <trkpt lat="57.40483" lon="-6.20064">
        <ele>26.2</ele>
        <time>2021-03-20T17:52:10Z</time>
      </trkpt>
      <trkpt lat="57.40327" lon="-6.2004">
        <ele>26.22</ele>
        <time>2021-03-20T17:52:17Z</time>
      </trkpt>
      <trkpt lat="57.40277" lon="-6.20038">
        <ele>24.69</ele>
        <time>2021-03-20T17:52:23Z</time>
      </trkpt>
      <trkpt lat="57.40224" lon="-6.20043">
        <ele>23.21</ele>
        <time>2021-03-20T17:52:30Z</time>
      </trkpt>
      <trkpt lat="57.40127" lon="-6.20066">
        <ele>24.32</ele>
        <time>2021-03-20T17:52:36Z</time>
      </trkpt>
      <trkpt lat="57.40091" lon="-6.20077">
        <ele>27.95</ele>
        <time>2021-03-20T17:52:43Z</time>
      </trkpt>
      <trkpt lat="57.40055" lon="-6.20077">
        <ele>31.37</ele>
        <time>2021-03-20T17:52:49Z</time>
      </trkpt>
      <trkpt lat="57.39961" lon="-6.20054">
        <ele>28.87</ele>
        <time>2021-03-20T17:52:56Z</time>
      </trkpt>
      <trkpt lat="57.39934" lon="-6.20055">
        <ele>27.11</ele>
        <time>2021-03-20T17:53:02Z</time>
      </trkpt>
      <trkpt lat="57.39904" lon="-6.20061">
        <ele>25.68</ele>
        <time>2021-03-20T17:53:09Z</time>
      </trkpt>
      <trkpt lat="57.39869" lon="-6.20075">
        <ele>24.94</ele>
        <time>2021-03-20T17:53:15Z</time>
      </trkpt>
      <trkpt lat="57.39831" lon="-6.20106">
        <ele>24.68</ele>
        <time>2021-03-20T17:53:22Z</time>
      </trkpt>
      <trkpt lat="57.39795" lon="-6.20147">
        <ele>26.19</ele>
        <time>2021-03-20T17:53:28Z</time>
      </trkpt>
      <trkpt lat="57.39758" lon="-6.20182">
        <ele>27.77</ele>
        <time>2021-03-20T17:53:35Z</time>
      </trkpt>
      <trkpt lat="57.39703" lon="-6.20223">
        <ele>29.42</ele>
        <time>2021-03-20T17:53:41Z</time>
      </trkpt>
      <trkpt lat="57.39457" lon="-6.20342">
        <ele>27.67</ele>
        <time>2021-03-20T17:53:48Z</time>
      </trkpt>
      <trkpt lat="57.39344" lon="-6.20409">
        <ele>27.24</ele>
        <time>2021-03-20T17:53:54Z</time>
      </trkpt>
      <trkpt lat="57.39209" lon="-6.20472">
        <ele>24.6</ele>
        <time>2021-03-20T17:54:01Z</time>
      </trkpt>
      <trkpt lat="57.39105" lon="-6.2051">
        <ele>25</ele>
        <time>2021-03-20T17:54:07Z</time>
      </trkpt>
      <trkpt lat="57.39058" lon="-6.20522">
        <ele>25.86</ele>
        <time>2021-03-20T17:54:14Z</time>
      </trkpt>
      <trkpt lat="57.39011" lon="-6.20511">
        <ele>25.89</ele>
        <time>2021-03-20T17:54:20Z</time>
      </trkpt>
      <trkpt lat="57.38949" lon="-6.2049">
        <ele>23.61</ele>
        <time>2021-03-20T17:54:27Z</time>
      </trkpt>
      <trkpt lat="57.38772" lon="-6.20405">
        <ele>20.97</ele>
        <time>2021-03-20T17:54:33Z</time>
      </trkpt>
      <trkpt lat="57.38753" lon="-6.20401">
        <ele>20.57</ele>
        <time>2021-03-20T17:54:40Z</time>
      </trkpt>
      <trkpt lat="57.3874" lon="-6.2038">
        <ele>17.42</ele>
        <time>2021-03-20T17:54:42Z</time>
      </trkpt>
      <trkpt lat="57.38717" lon="-6.20371">
        <ele>17.16</ele>
        <time>2021-03-20T17:54:44Z</time>
      </trkpt>
      <trkpt lat="57.38702" lon="-6.20354">
        <ele>14.99</ele>
        <time>2021-03-20T17:54:47Z</time>
      </trkpt>
      <trkpt lat="57.38697" lon="-6.20332">
        <ele>11.93</ele>
        <time>2021-03-20T17:54:49Z</time>
      </trkpt>
      <trkpt lat="57.38696" lon="-6.20286">
        <ele>9.53</ele>
        <time>2021-03-20T17:54:51Z</time>
      </trkpt>
      <trkpt lat="57.38703" lon="-6.20154">
        <ele>5</ele>
        <time>2021-03-20T17:54:54Z</time>
      </trkpt>
      <trkpt lat="57.38717" lon="-6.19695">
        <ele>19.17</ele>
        <time>2021-03-20T17:54:56Z</time>
      </trkpt>
      <trkpt lat="57.3873" lon="-6.19528">
        <ele>28.72</ele>
        <time>2021-03-20T17:54:58Z</time>
      </trkpt>
      <trkpt lat="57.3873" lon="-6.19506">
        <ele>29.73</ele>
        <time>2021-03-20T17:55:00Z</time>
      </trkpt>
      <trkpt lat="57.38726" lon="-6.19501">
        <ele>29.95</ele>
        <time>2021-03-20T17:55:03Z</time>
      </trkpt>
      <trkpt lat="57.38717" lon="-6.19497">
        <ele>30.33</ele>
        <time>2021-03-20T17:55:05Z</time>
      </trkpt>
      <trkpt lat="57.38664" lon="-6.19514">
        <ele>29.56</ele>
        <time>2021-03-20T17:55:07Z</time>
      </trkpt>
      <trkpt lat="57.38649" lon="-6.19516">
        <ele>29.72</ele>
        <time>2021-03-20T17:55:09Z</time>
      </trkpt>
      <trkpt lat="57.38623" lon="-6.19513">
        <ele>30.64</ele>
        <time>2021-03-20T17:55:12Z</time>
      </trkpt>
      <trkpt lat="57.38611" lon="-6.19509">
        <ele>31.38</ele>
        <time>2021-03-20T17:55:14Z</time>
      </trkpt>
      <trkpt lat="57.38588" lon="-6.19483">
        <ele>32.84</ele>
        <time>2021-03-20T17:55:16Z</time>
      </trkpt>
      <trkpt lat="57.38577" lon="-6.19511">
        <ele>32.46</ele>
        <time>2021-03-20T17:55:19Z</time>
      </trkpt>
      <trkpt lat="57.38573" lon="-6.19513">
        <ele>32.43</ele>
        <time>2021-03-20T17:55:22Z</time>
      </trkpt>
      <trkpt lat="57.38526" lon="-6.19498">
        <ele>34.02</ele>
        <time>2021-03-20T17:55:25Z</time>
      </trkpt>
      <trkpt lat="57.3845" lon="-6.19498">
        <ele>33.09</ele>
        <time>2021-03-20T17:55:28Z</time>
      </trkpt>
      <trkpt lat="57.38399" lon="-6.19493">
        <ele>32.84</ele>
        <time>2021-03-20T17:55:31Z</time>
      </trkpt>
      <trkpt lat="57.3832" lon="-6.1948">
        <ele>29.68</ele>
        <time>2021-03-20T17:55:34Z</time>
      </trkpt>
      <trkpt lat="57.38262" lon="-6.19463">
        <ele>26.53</ele>
        <time>2021-03-20T17:55:37Z</time>
      </trkpt>
      <trkpt lat="57.38211" lon="-6.19455">
        <ele>26.26</ele>
        <time>2021-03-20T17:55:40Z</time>
      </trkpt>
      <trkpt lat="57.38167" lon="-6.19463">
        <ele>25.65</ele>
        <time>2021-03-20T17:55:43Z</time>
      </trkpt>
      <trkpt lat="57.38133" lon="-6.19463">
        <ele>24.32</ele>
        <time>2021-03-20T17:55:46Z</time>
      </trkpt>
      <trkpt lat="57.38084" lon="-6.19472">
        <ele>26.94</ele>
        <time>2021-03-20T17:55:48Z</time>
      </trkpt>
      <trkpt lat="57.3795" lon="-6.19506">
        <ele>24.56</ele>
        <time>2021-03-20T17:55:51Z</time>
      </trkpt>
      <trkpt lat="57.37881" lon="-6.19493">
        <ele>26.73</ele>
        <time>2021-03-20T17:55:54Z</time>
      </trkpt>
      <trkpt lat="57.37825" lon="-6.19489">
        <ele>26.89</ele>
        <time>2021-03-20T17:55:57Z</time>
      </trkpt>
      <trkpt lat="57.37781" lon="-6.19498">
        <ele>25.26</ele>
        <time>2021-03-20T17:56:00Z</time>
      </trkpt>
      <trkpt lat="57.37694" lon="-6.19504">
        <ele>22.57</ele>
        <time>2021-03-20T17:56:03Z</time>
      </trkpt>
      <trkpt lat="57.37679" lon="-6.19517">
        <ele>21.48</ele>
        <time>2021-03-20T17:56:06Z</time>
      </trkpt>
      <trkpt lat="57.3767" lon="-6.19503">
        <ele>22.74</ele>
        <time>2021-03-20T17:56:10Z</time>
      </trkpt>
      <trkpt lat="57.37646" lon="-6.19476">
        <ele>26.39</ele>
        <time>2021-03-20T17:56:13Z</time>
      </trkpt>
      <trkpt lat="57.37623" lon="-6.19466">
        <ele>28.44</ele>
        <time>2021-03-20T17:56:16Z</time>
      </trkpt>
      <trkpt lat="57.3759" lon="-6.19465">
        <ele>29.82</ele>
        <time>2021-03-20T17:56:20Z</time>
      </trkpt>
      <trkpt lat="57.37517" lon="-6.19475">
        <ele>29.32</ele>
        <time>2021-03-20T17:56:23Z</time>
      </trkpt>
      <trkpt lat="57.37463" lon="-6.19468">
        <ele>29.01</ele>
        <time>2021-03-20T17:56:26Z</time>
      </trkpt>
      <trkpt lat="57.37408" lon="-6.19464">
        <ele>29.56</ele>
        <time>2021-03-20T17:56:30Z</time>
      </trkpt>
      <trkpt lat="57.37351" lon="-6.19468">
        <ele>28.51</ele>
        <time>2021-03-20T17:56:33Z</time>
      </trkpt>
      <trkpt lat="57.37314" lon="-6.19463">
        <ele>28.29</ele>
        <time>2021-03-20T17:56:37Z</time>
      </trkpt>
      <trkpt lat="57.37183" lon="-6.19425">
        <ele>33.09</ele>
        <time>2021-03-20T17:56:40Z</time>
      </trkpt>
      <trkpt lat="57.36966" lon="-6.19393">
        <ele>40.28</ele>
        <time>2021-03-20T17:56:43Z</time>
      </trkpt>
      <trkpt lat="57.36883" lon="-6.19393">
        <ele>41.19</ele>
        <time>2021-03-20T17:56:47Z</time>
      </trkpt>
      <trkpt lat="57.3682" lon="-6.19403">
        <ele>40.78</ele>
        <time>2021-03-20T17:56:50Z</time>
      </trkpt>
      <trkpt lat="57.36804" lon="-6.19397">
        <ele>41.08</ele>
        <time>2021-03-20T17:56:54Z</time>
      </trkpt>
      <trkpt lat="57.36743" lon="-6.19352">
        <ele>44.89</ele>
        <time>2021-03-20T17:56:57Z</time>
      </trkpt>
      <trkpt lat="57.36712" lon="-6.19333">
        <ele>45.62</ele>
        <time>2021-03-20T17:57:00Z</time>
      </trkpt>
      <trkpt lat="57.36687" lon="-6.19328">
        <ele>45.78</ele>
        <time>2021-03-20T17:57:04Z</time>
      </trkpt>
      <trkpt lat="57.36661" lon="-6.19328">
        <ele>45.41</ele>
        <time>2021-03-20T17:57:07Z</time>
      </trkpt>
      <trkpt lat="57.3663" lon="-6.1934">
        <ele>43.63</ele>
        <time>2021-03-20T17:57:11Z</time>
      </trkpt>
      <trkpt lat="57.36591" lon="-6.19363">
        <ele>42.65</ele>
        <time>2021-03-20T17:57:14Z</time>
      </trkpt>
      <trkpt lat="57.36357" lon="-6.1952">
        <ele>43.69</ele>
        <time>2021-03-20T17:57:17Z</time>
      </trkpt>
      <trkpt lat="57.36334" lon="-6.19539">
        <ele>43.58</ele>
        <time>2021-03-20T17:57:21Z</time>
      </trkpt>
      <trkpt lat="57.36275" lon="-6.19613">
        <ele>44.24</ele>
        <time>2021-03-20T17:57:24Z</time>
      </trkpt>
      <trkpt lat="57.36241" lon="-6.1964">
        <ele>44.92</ele>
        <time>2021-03-20T17:57:28Z</time>
      </trkpt>
      <trkpt lat="57.36042" lon="-6.19744">
        <ele>46.8</ele>
        <time>2021-03-20T17:57:31Z</time>
      </trkpt>
      <trkpt lat="57.35968" lon="-6.19761">
        <ele>48.35</ele>
        <time>2021-03-20T17:57:34Z</time>
      </trkpt>
      <trkpt lat="57.35923" lon="-6.19763">
        <ele>49.84</ele>
        <time>2021-03-20T17:57:38Z</time>
      </trkpt>
      <trkpt lat="57.35898" lon="-6.19753">
        <ele>50.76</ele>
        <time>2021-03-20T17:57:41Z</time>
      </trkpt>
      <trkpt lat="57.35825" lon="-6.1971">
        <ele>51.7</ele>
        <time>2021-03-20T17:57:44Z</time>
      </trkpt>
      <trkpt lat="57.35794" lon="-6.19701">
        <ele>52.73</ele>
        <time>2021-03-20T17:57:48Z</time>
      </trkpt>
      <trkpt lat="57.35586" lon="-6.19677">
        <ele>55.28</ele>
        <time>2021-03-20T17:57:51Z</time>
      </trkpt>
      <trkpt lat="57.35542" lon="-6.19682">
        <ele>56.64</ele>
        <time>2021-03-20T17:57:55Z</time>
      </trkpt>
      <trkpt lat="57.35511" lon="-6.197">
        <ele>57.28</ele>
        <time>2021-03-20T17:57:58Z</time>
      </trkpt>
      <trkpt lat="57.35469" lon="-6.19734">
        <ele>56.26</ele>
        <time>2021-03-20T17:58:01Z</time>
      </trkpt>
      <trkpt lat="57.35442" lon="-6.19743">
        <ele>56.58</ele>
        <time>2021-03-20T17:58:05Z</time>
      </trkpt>
      <trkpt lat="57.35424" lon="-6.19739">
        <ele>57.23</ele>
        <time>2021-03-20T17:58:08Z</time>
      </trkpt>
      <trkpt lat="57.35387" lon="-6.19716">
        <ele>58.29</ele>
        <time>2021-03-20T17:58:12Z</time>
      </trkpt>
      <trkpt lat="57.35351" lon="-6.19684">
        <ele>57.75</ele>
        <time>2021-03-20T17:58:15Z</time>
      </trkpt>
      <trkpt lat="57.35316" lon="-6.19669">
        <ele>58.37</ele>
        <time>2021-03-20T17:58:18Z</time>
      </trkpt>
      <trkpt lat="57.35316" lon="-6.19669">
        <ele>58.37</ele>
        <time>2021-03-20T17:58:18Z</time>
      </trkpt>
      <trkpt lat="57.35301" lon="-6.19663">
        <ele>58.99</ele>
        <time>2021-03-20T17:58:23Z</time>
      </trkpt>
      <trkpt lat="57.35121" lon="-6.19617">
        <ele>59.27</ele>
        <time>2021-03-20T17:58:28Z</time>
      </trkpt>
      <trkpt lat="57.35074" lon="-6.1961">
        <ele>64.14</ele>
        <time>2021-03-20T17:58:33Z</time>
      </trkpt>
      <trkpt lat="57.35047" lon="-6.19623">
        <ele>66</ele>
        <time>2021-03-20T17:58:38Z</time>
      </trkpt>
      <trkpt lat="57.35012" lon="-6.19654">
        <ele>67.65</ele>
        <time>2021-03-20T17:58:43Z</time>
      </trkpt>
      <trkpt lat="57.34977" lon="-6.19678">
        <ele>68.47</ele>
        <time>2021-03-20T17:58:48Z</time>
      </trkpt>
      <trkpt lat="57.34953" lon="-6.19684">
        <ele>69.05</ele>
        <time>2021-03-20T17:58:53Z</time>
      </trkpt>
      <trkpt lat="57.34909" lon="-6.19685">
        <ele>70.39</ele>
        <time>2021-03-20T17:58:57Z</time>
      </trkpt>
      <trkpt lat="57.34749" lon="-6.19678">
        <ele>76.43</ele>
        <time>2021-03-20T17:59:02Z</time>
      </trkpt>
      <trkpt lat="57.34704" lon="-6.19682">
        <ele>76.17</ele>
        <time>2021-03-20T17:59:07Z</time>
      </trkpt>
      <trkpt lat="57.34613" lon="-6.19726">
        <ele>79.15</ele>
        <time>2021-03-20T17:59:12Z</time>
      </trkpt>
      <trkpt lat="57.34522" lon="-6.19762">
        <ele>79.27</ele>
        <time>2021-03-20T17:59:17Z</time>
      </trkpt>
      <trkpt lat="57.34498" lon="-6.19766">
        <ele>80.16</ele>
        <time>2021-03-20T17:59:22Z</time>
      </trkpt>
      <trkpt lat="57.34466" lon="-6.19766">
        <ele>79.93</ele>
        <time>2021-03-20T17:59:27Z</time>
      </trkpt>
      <trkpt lat="57.34427" lon="-6.19753">
        <ele>80.13</ele>
        <time>2021-03-20T17:59:32Z</time>
      </trkpt>
      <trkpt lat="57.34387" lon="-6.19731">
        <ele>83.02</ele>
        <time>2021-03-20T17:59:37Z</time>
      </trkpt>
      <trkpt lat="57.34366" lon="-6.19727">
        <ele>83.93</ele>
        <time>2021-03-20T17:59:41Z</time>
      </trkpt>
      <trkpt lat="57.34345" lon="-6.19732">
        <ele>83.47</ele>
        <time>2021-03-20T17:59:46Z</time>
      </trkpt>
      <trkpt lat="57.3429" lon="-6.19758">
        <ele>82.11</ele>
        <time>2021-03-20T17:59:51Z</time>
      </trkpt>
      <trkpt lat="57.34075" lon="-6.19872">
        <ele>90.62</ele>
        <time>2021-03-20T17:59:56Z</time>
      </trkpt>
      <trkpt lat="57.34029" lon="-6.19891">
        <ele>89.66</ele>
        <time>2021-03-20T18:00:01Z</time>
      </trkpt>
      <trkpt lat="57.3396" lon="-6.199">
        <ele>93.99</ele>
        <time>2021-03-20T18:00:06Z</time>
      </trkpt>
      <trkpt lat="57.33739" lon="-6.199">
        <ele>97.35</ele>
        <time>2021-03-20T18:00:11Z</time>
      </trkpt>
      <trkpt lat="57.33694" lon="-6.19892">
        <ele>100.58</ele>
        <time>2021-03-20T18:00:16Z</time>
      </trkpt>
      <trkpt lat="57.33523" lon="-6.19829">
        <ele>103.66</ele>
        <time>2021-03-20T18:00:20Z</time>
      </trkpt>
      <trkpt lat="57.33495" lon="-6.1983">
        <ele>103.85</ele>
        <time>2021-03-20T18:00:25Z</time>
      </trkpt>
      <trkpt lat="57.33449" lon="-6.19835">
        <ele>104.65</ele>
        <time>2021-03-20T18:00:30Z</time>
      </trkpt>
      <trkpt lat="57.33359" lon="-6.19888">
        <ele>102.26</ele>
        <time>2021-03-20T18:00:35Z</time>
      </trkpt>
      <trkpt lat="57.33236" lon="-6.20017">
        <ele>101</ele>
        <time>2021-03-20T18:00:40Z</time>
      </trkpt>
      <trkpt lat="57.33107" lon="-6.2014">
        <ele>99.29</ele>
        <time>2021-03-20T18:00:45Z</time>
      </trkpt>
      <trkpt lat="57.32936" lon="-6.20282">
        <ele>97.49</ele>
        <time>2021-03-20T18:00:50Z</time>
      </trkpt>
      <trkpt lat="57.32895" lon="-6.20298">
        <ele>99.26</ele>
        <time>2021-03-20T18:00:55Z</time>
      </trkpt>
      <trkpt lat="57.32866" lon="-6.20297">
        <ele>100.47</ele>
        <time>2021-03-20T18:00:59Z</time>
      </trkpt>
      <trkpt lat="57.32787" lon="-6.20281">
        <ele>103.33</ele>
        <time>2021-03-20T18:01:04Z</time>
      </trkpt>
      <trkpt lat="57.32749" lon="-6.20283">
        <ele>105.49</ele>
        <time>2021-03-20T18:01:09Z</time>
      </trkpt>
      <trkpt lat="57.32663" lon="-6.20323">
        <ele>102.4</ele>
        <time>2021-03-20T18:01:14Z</time>
      </trkpt>
      <trkpt lat="57.32372" lon="-6.20468">
        <ele>106.04</ele>
        <time>2021-03-20T18:01:19Z</time>
      </trkpt>
      <trkpt lat="57.32315" lon="-6.20488">
        <ele>106</ele>
        <time>2021-03-20T18:01:24Z</time>
      </trkpt>
      <trkpt lat="57.32102" lon="-6.20516">
        <ele>110.44</ele>
        <time>2021-03-20T18:01:29Z</time>
      </trkpt>
      <trkpt lat="57.32073" lon="-6.20509">
        <ele>111.04</ele>
        <time>2021-03-20T18:01:34Z</time>
      </trkpt>
      <trkpt lat="57.31669" lon="-6.20148">
        <ele>110.86</ele>
        <time>2021-03-20T18:01:39Z</time>
      </trkpt>
      <trkpt lat="57.3153" lon="-6.20019">
        <ele>109.81</ele>
        <time>2021-03-20T18:01:43Z</time>
      </trkpt>
      <trkpt lat="57.31367" lon="-6.19846">
        <ele>104.95</ele>
        <time>2021-03-20T18:01:48Z</time>
      </trkpt>
      <trkpt lat="57.31322" lon="-6.1979">
        <ele>104.71</ele>
        <time>2021-03-20T18:01:53Z</time>
      </trkpt>
      <trkpt lat="57.3101" lon="-6.19344">
        <ele>105</ele>
        <time>2021-03-20T18:01:58Z</time>
      </trkpt>
      <trkpt lat="57.30983" lon="-6.193">
        <ele>103.82</ele>
        <time>2021-03-20T18:02:03Z</time>
      </trkpt>
      <trkpt lat="57.30916" lon="-6.19078">
        <ele>102.95</ele>
        <time>2021-03-20T18:02:08Z</time>
      </trkpt>
      <trkpt lat="57.30887" lon="-6.19024">
        <ele>99.04</ele>
        <time>2021-03-20T18:02:13Z</time>
      </trkpt>
      <trkpt lat="57.30857" lon="-6.18987">
        <ele>97.99</ele>
        <time>2021-03-20T18:02:18Z</time>
      </trkpt>
      <trkpt lat="57.30807" lon="-6.18939">
        <ele>95.35</ele>
        <time>2021-03-20T18:02:22Z</time>
      </trkpt>
      <trkpt lat="57.30755" lon="-6.18901">
        <ele>91.49</ele>
        <time>2021-03-20T18:02:27Z</time>
      </trkpt>
      <trkpt lat="57.30565" lon="-6.18786">
        <ele>84.47</ele>
        <time>2021-03-20T18:02:32Z</time>
      </trkpt>
      <trkpt lat="57.3035" lon="-6.18708">
        <ele>78</ele>
        <time>2021-03-20T18:02:37Z</time>
      </trkpt>
      <trkpt lat="57.30268" lon="-6.18661">
        <ele>76.29</ele>
        <time>2021-03-20T18:02:42Z</time>
      </trkpt>
      <trkpt lat="57.30227" lon="-6.18621">
        <ele>75.62</ele>
        <time>2021-03-20T18:02:47Z</time>
      </trkpt>
      <trkpt lat="57.30068" lon="-6.18437">
        <ele>70.82</ele>
        <time>2021-03-20T18:02:52Z</time>
      </trkpt>
      <trkpt lat="57.30031" lon="-6.18391">
        <ele>70.96</ele>
        <time>2021-03-20T18:02:57Z</time>
      </trkpt>
      <trkpt lat="57.2995" lon="-6.18303">
        <ele>65.94</ele>
        <time>2021-03-20T18:03:02Z</time>
      </trkpt>
      <trkpt lat="57.29887" lon="-6.18267">
        <ele>64.13</ele>
        <time>2021-03-20T18:03:06Z</time>
      </trkpt>
      <trkpt lat="57.29733" lon="-6.18222">
        <ele>52.36</ele>
        <time>2021-03-20T18:03:11Z</time>
      </trkpt>
      <trkpt lat="57.297" lon="-6.18193">
        <ele>51.67</ele>
        <time>2021-03-20T18:03:16Z</time>
      </trkpt>
      <trkpt lat="57.29621" lon="-6.18082">
        <ele>46.88</ele>
        <time>2021-03-20T18:03:21Z</time>
      </trkpt>
      <trkpt lat="57.29358" lon="-6.17909">
        <ele>31.53</ele>
        <time>2021-03-20T18:03:26Z</time>
      </trkpt>
      <trkpt lat="57.29255" lon="-6.17851">
        <ele>24.91</ele>
        <time>2021-03-20T18:03:31Z</time>
      </trkpt>
      <trkpt lat="57.2922" lon="-6.17823">
        <ele>22.47</ele>
        <time>2021-03-20T18:03:36Z</time>
      </trkpt>
      <trkpt lat="57.29179" lon="-6.1777">
        <ele>18.15</ele>
        <time>2021-03-20T18:03:41Z</time>
      </trkpt>
      <trkpt lat="57.2914" lon="-6.17697">
        <ele>16.07</ele>
        <time>2021-03-20T18:03:45Z</time>
      </trkpt>
      <trkpt lat="57.29101" lon="-6.17615">
        <ele>14.93</ele>
        <time>2021-03-20T18:03:50Z</time>
      </trkpt>
      <trkpt lat="57.29079" lon="-6.17561">
        <ele>12.71</ele>
        <time>2021-03-20T18:03:55Z</time>
      </trkpt>
      <trkpt lat="57.29054" lon="-6.17493">
        <ele>12.07</ele>
        <time>2021-03-20T18:04:00Z</time>
      </trkpt>
      <trkpt lat="57.29038" lon="-6.17444">
        <ele>11.62</ele>
        <time>2021-03-20T18:04:05Z</time>
      </trkpt>
      <trkpt lat="57.29026" lon="-6.17372">
        <ele>10.46</ele>
        <time>2021-03-20T18:04:10Z</time>
      </trkpt>
      <trkpt lat="57.29023" lon="-6.17328">
        <ele>9.81</ele>
        <time>2021-03-20T18:04:15Z</time>
      </trkpt>
      <trkpt lat="57.29024" lon="-6.17273">
        <ele>9</ele>
        <time>2021-03-20T18:04:20Z</time>
      </trkpt>
      <trkpt lat="57.2903" lon="-6.17213">
        <ele>10.29</ele>
        <time>2021-03-20T18:04:24Z</time>
      </trkpt>
      <trkpt lat="57.29037" lon="-6.17181">
        <ele>11.15</ele>
        <time>2021-03-20T18:04:29Z</time>
      </trkpt>
      <trkpt lat="57.29046" lon="-6.17147">
        <ele>11.59</ele>
        <time>2021-03-20T18:04:34Z</time>
      </trkpt>
      <trkpt lat="57.29058" lon="-6.17113">
        <ele>11.85</ele>
        <time>2021-03-20T18:04:39Z</time>
      </trkpt>
      <trkpt lat="57.29081" lon="-6.17068">
        <ele>13.18</ele>
        <time>2021-03-20T18:04:44Z</time>
      </trkpt>
      <trkpt lat="57.291" lon="-6.17037">
        <ele>12.85</ele>
        <time>2021-03-20T18:04:49Z</time>
      </trkpt>
      <trkpt lat="57.29263" lon="-6.16794">
        <ele>12.35</ele>
        <time>2021-03-20T18:04:54Z</time>
      </trkpt>
      <trkpt lat="57.29363" lon="-6.16607">
        <ele>11.17</ele>
        <time>2021-03-20T18:04:59Z</time>
      </trkpt>
      <trkpt lat="57.29469" lon="-6.16466">
        <ele>10.71</ele>
        <time>2021-03-20T18:05:04Z</time>
      </trkpt>
      <trkpt lat="57.29536" lon="-6.16371">
        <ele>9.48</ele>
        <time>2021-03-20T18:05:08Z</time>
      </trkpt>
      <trkpt lat="57.2957" lon="-6.16316">
        <ele>8.14</ele>
        <time>2021-03-20T18:05:13Z</time>
      </trkpt>
      <trkpt lat="57.29596" lon="-6.16265">
        <ele>9.19</ele>
        <time>2021-03-20T18:05:18Z</time>
      </trkpt>
      <trkpt lat="57.29622" lon="-6.16197">
        <ele>9.28</ele>
        <time>2021-03-20T18:05:23Z</time>
      </trkpt>
      <trkpt lat="57.29637" lon="-6.16128">
        <ele>9.63</ele>
        <time>2021-03-20T18:05:28Z</time>
      </trkpt>
      <trkpt lat="57.29645" lon="-6.16062">
        <ele>9.73</ele>
        <time>2021-03-20T18:05:33Z</time>
      </trkpt>
      <trkpt lat="57.29651" lon="-6.15711">
        <ele>11.48</ele>
        <time>2021-03-20T18:05:38Z</time>
      </trkpt>
      <trkpt lat="57.29655" lon="-6.15662">
        <ele>12.37</ele>
        <time>2021-03-20T18:05:43Z</time>
      </trkpt>
      <trkpt lat="57.29685" lon="-6.1555">
        <ele>13.7</ele>
        <time>2021-03-20T18:05:47Z</time>
      </trkpt>
      <trkpt lat="57.29835" lon="-6.15117">
        <ele>17.86</ele>
        <time>2021-03-20T18:05:52Z</time>
      </trkpt>
      <trkpt lat="57.29853" lon="-6.15047">
        <ele>18.66</ele>
        <time>2021-03-20T18:05:57Z</time>
      </trkpt>
      <trkpt lat="57.2988" lon="-6.14891">
        <ele>21.09</ele>
        <time>2021-03-20T18:06:02Z</time>
      </trkpt>
      <trkpt lat="57.29912" lon="-6.14793">
        <ele>22.25</ele>
        <time>2021-03-20T18:06:07Z</time>
      </trkpt>
      <trkpt lat="57.29938" lon="-6.1473">
        <ele>23.8</ele>
        <time>2021-03-20T18:06:12Z</time>
      </trkpt>
      <trkpt lat="57.29973" lon="-6.14668">
        <ele>21.5</ele>
        <time>2021-03-20T18:06:17Z</time>
      </trkpt>
      <trkpt lat="57.30204" lon="-6.14323">
        <ele>27.37</ele>
        <time>2021-03-20T18:06:22Z</time>
      </trkpt>
      <trkpt lat="57.30233" lon="-6.14273">
        <ele>29.01</ele>
        <time>2021-03-20T18:06:27Z</time>
      </trkpt>
      <trkpt lat="57.30258" lon="-6.14211">
        <ele>31</ele>
        <time>2021-03-20T18:06:31Z</time>
      </trkpt>
      <trkpt lat="57.30278" lon="-6.1413">
        <ele>33.29</ele>
        <time>2021-03-20T18:06:36Z</time>
      </trkpt>
      <trkpt lat="57.30348" lon="-6.13791">
        <ele>26.71</ele>
        <time>2021-03-20T18:06:41Z</time>
      </trkpt>
      <trkpt lat="57.30362" lon="-6.13731">
        <ele>25.53</ele>
        <time>2021-03-20T18:06:46Z</time>
      </trkpt>
      <trkpt lat="57.30383" lon="-6.13667">
        <ele>27.1</ele>
        <time>2021-03-20T18:06:51Z</time>
      </trkpt>
      <trkpt lat="57.30504" lon="-6.13404">
        <ele>26.88</ele>
        <time>2021-03-20T18:06:56Z</time>
      </trkpt>
      <trkpt lat="57.30536" lon="-6.13343">
        <ele>27.6</ele>
        <time>2021-03-20T18:07:01Z</time>
      </trkpt>
      <trkpt lat="57.30615" lon="-6.13203">
        <ele>27.33</ele>
        <time>2021-03-20T18:07:06Z</time>
      </trkpt>
      <trkpt lat="57.30663" lon="-6.1313">
        <ele>29.14</ele>
        <time>2021-03-20T18:07:10Z</time>
      </trkpt>
      <trkpt lat="57.30726" lon="-6.13038">
        <ele>28.24</ele>
        <time>2021-03-20T18:07:15Z</time>
      </trkpt>
      <trkpt lat="57.308" lon="-6.12953">
        <ele>26.2</ele>
        <time>2021-03-20T18:07:20Z</time>
      </trkpt>
      <trkpt lat="57.30844" lon="-6.12877">
        <ele>25.18</ele>
        <time>2021-03-20T18:07:25Z</time>
      </trkpt>
      <trkpt lat="57.30906" lon="-6.12734">
        <ele>24.58</ele>
        <time>2021-03-20T18:07:30Z</time>
      </trkpt>
      <trkpt lat="57.3104" lon="-6.12416">
        <ele>24.09</ele>
        <time>2021-03-20T18:07:35Z</time>
      </trkpt>
      <trkpt lat="57.31097" lon="-6.12302">
        <ele>24.54</ele>
        <time>2021-03-20T18:07:40Z</time>
      </trkpt>
      <trkpt lat="57.31247" lon="-6.12021">
        <ele>15.64</ele>
        <time>2021-03-20T18:07:45Z</time>
      </trkpt>
      <trkpt lat="57.3128" lon="-6.11925">
        <ele>13.68</ele>
        <time>2021-03-20T18:07:50Z</time>
      </trkpt>
      <trkpt lat="57.31303" lon="-6.11828">
        <ele>13.33</ele>
        <time>2021-03-20T18:07:54Z</time>
      </trkpt>
      <trkpt lat="57.31308" lon="-6.11766">
        <ele>12.27</ele>
        <time>2021-03-20T18:07:59Z</time>
      </trkpt>
      <trkpt lat="57.31311" lon="-6.11697">
        <ele>10.65</ele>
        <time>2021-03-20T18:08:04Z</time>
      </trkpt>
      <trkpt lat="57.3131" lon="-6.11604">
        <ele>6.59</ele>
        <time>2021-03-20T18:08:09Z</time>
      </trkpt>
      <trkpt lat="57.31303" lon="-6.11446">
        <ele>4.12</ele>
        <time>2021-03-20T18:08:14Z</time>
      </trkpt>
      <trkpt lat="57.31303" lon="-6.11365">
        <ele>4.2</ele>
        <time>2021-03-20T18:08:19Z</time>
      </trkpt>
      <trkpt lat="57.31307" lon="-6.11281">
        <ele>4.7</ele>
        <time>2021-03-20T18:08:24Z</time>
      </trkpt>
      <trkpt lat="57.31319" lon="-6.11172">
        <ele>9.17</ele>
        <time>2021-03-20T18:08:29Z</time>
      </trkpt>
      <trkpt lat="57.31335" lon="-6.11073">
        <ele>10.14</ele>
        <time>2021-03-20T18:08:33Z</time>
      </trkpt>
      <trkpt lat="57.31354" lon="-6.10995">
        <ele>8.74</ele>
        <time>2021-03-20T18:08:38Z</time>
      </trkpt>
      <trkpt lat="57.31374" lon="-6.10903">
        <ele>8.46</ele>
        <time>2021-03-20T18:08:43Z</time>
      </trkpt>
      <trkpt lat="57.31393" lon="-6.10779">
        <ele>8.26</ele>
        <time>2021-03-20T18:08:48Z</time>
      </trkpt>
      <trkpt lat="57.31422" lon="-6.10543">
        <ele>7.37</ele>
        <time>2021-03-20T18:08:53Z</time>
      </trkpt>
      <trkpt lat="57.31428" lon="-6.10437">
        <ele>7.94</ele>
        <time>2021-03-20T18:08:58Z</time>
      </trkpt>
      <trkpt lat="57.31425" lon="-6.1035">
        <ele>6.7</ele>
        <time>2021-03-20T18:09:03Z</time>
      </trkpt>
      <trkpt lat="57.31411" lon="-6.10259">
        <ele>7.18</ele>
        <time>2021-03-20T18:09:08Z</time>
      </trkpt>
      <trkpt lat="57.31388" lon="-6.10174">
        <ele>7.67</ele>
        <time>2021-03-20T18:09:12Z</time>
      </trkpt>
      <trkpt lat="57.31361" lon="-6.10108">
        <ele>9.99</ele>
        <time>2021-03-20T18:09:17Z</time>
      </trkpt>
      <trkpt lat="57.31325" lon="-6.10047">
        <ele>11.51</ele>
        <time>2021-03-20T18:09:22Z</time>
      </trkpt>
      <trkpt lat="57.31185" lon="-6.09849">
        <ele>16.27</ele>
        <time>2021-03-20T18:09:27Z</time>
      </trkpt>
      <trkpt lat="57.30972" lon="-6.0952">
        <ele>23.73</ele>
        <time>2021-03-20T18:09:32Z</time>
      </trkpt>
      <trkpt lat="57.30874" lon="-6.09381">
        <ele>24.36</ele>
        <time>2021-03-20T18:09:37Z</time>
      </trkpt>
      <trkpt lat="57.30795" lon="-6.09285">
        <ele>29.75</ele>
        <time>2021-03-20T18:09:42Z</time>
      </trkpt>
      <trkpt lat="57.30713" lon="-6.09215">
        <ele>30.09</ele>
        <time>2021-03-20T18:09:47Z</time>
      </trkpt>
      <trkpt lat="57.30645" lon="-6.09163">
        <ele>30.53</ele>
        <time>2021-03-20T18:09:52Z</time>
      </trkpt>
      <trkpt lat="57.30566" lon="-6.09122">
        <ele>29.6</ele>
        <time>2021-03-20T18:09:56Z</time>
      </trkpt>
      <trkpt lat="57.30479" lon="-6.09089">
        <ele>24.46</ele>
        <time>2021-03-20T18:10:01Z</time>
      </trkpt>
      <trkpt lat="57.30383" lon="-6.09061">
        <ele>23.82</ele>
        <time>2021-03-20T18:10:06Z</time>
      </trkpt>
      <trkpt lat="57.29937" lon="-6.08942">
        <ele>26</ele>
        <time>2021-03-20T18:10:11Z</time>
      </trkpt>
      <trkpt lat="57.29881" lon="-6.08913">
        <ele>27.31</ele>
        <time>2021-03-20T18:10:16Z</time>
      </trkpt>
      <trkpt lat="57.29839" lon="-6.08876">
        <ele>29.8</ele>
        <time>2021-03-20T18:10:21Z</time>
      </trkpt>
      <trkpt lat="57.29754" lon="-6.08785">
        <ele>32.5</ele>
        <time>2021-03-20T18:10:26Z</time>
      </trkpt>
      <trkpt lat="57.29712" lon="-6.08761">
        <ele>34.22</ele>
        <time>2021-03-20T18:10:31Z</time>
      </trkpt>
      <trkpt lat="57.29655" lon="-6.08747">
        <ele>38.74</ele>
        <time>2021-03-20T18:10:35Z</time>
      </trkpt>
      <trkpt lat="57.29584" lon="-6.08748">
        <ele>45.15</ele>
        <time>2021-03-20T18:10:40Z</time>
      </trkpt>
      <trkpt lat="57.2946" lon="-6.0877">
        <ele>49.42</ele>
        <time>2021-03-20T18:10:45Z</time>
      </trkpt>
      <trkpt lat="57.2941" lon="-6.08784">
        <ele>50.6</ele>
        <time>2021-03-20T18:10:50Z</time>
      </trkpt>
      <trkpt lat="57.29374" lon="-6.08803">
        <ele>52.02</ele>
        <time>2021-03-20T18:10:55Z</time>
      </trkpt>
      <trkpt lat="57.29347" lon="-6.08825">
        <ele>54.19</ele>
        <time>2021-03-20T18:11:00Z</time>
      </trkpt>
      <trkpt lat="57.29318" lon="-6.08855">
        <ele>59.09</ele>
        <time>2021-03-20T18:11:05Z</time>
      </trkpt>
      <trkpt lat="57.29318" lon="-6.08855">
        <ele>59.09</ele>
        <time>2021-03-20T18:11:05Z</time>
      </trkpt>
      <trkpt lat="57.29208" lon="-6.08968">
        <ele>63.98</ele>
        <time>2021-03-20T18:11:09Z</time>
      </trkpt>
      <trkpt lat="57.29137" lon="-6.09038">
        <ele>68.26</ele>
        <time>2021-03-20T18:11:13Z</time>
      </trkpt>
      <trkpt lat="57.29036" lon="-6.09111">
        <ele>75.57</ele>
        <time>2021-03-20T18:11:18Z</time>
      </trkpt>
      <trkpt lat="57.28932" lon="-6.09192">
        <ele>81.55</ele>
        <time>2021-03-20T18:11:22Z</time>
      </trkpt>
      <trkpt lat="57.28801" lon="-6.09354">
        <ele>88.63</ele>
        <time>2021-03-20T18:11:26Z</time>
      </trkpt>
      <trkpt lat="57.28771" lon="-6.09376">
        <ele>90.24</ele>
        <time>2021-03-20T18:11:30Z</time>
      </trkpt>
      <trkpt lat="57.28734" lon="-6.09389">
        <ele>92.13</ele>
        <time>2021-03-20T18:11:35Z</time>
      </trkpt>
      <trkpt lat="57.28692" lon="-6.09395">
        <ele>94.41</ele>
        <time>2021-03-20T18:11:39Z</time>
      </trkpt>
      <trkpt lat="57.28464" lon="-6.09375">
        <ele>111.17</ele>
        <time>2021-03-20T18:11:43Z</time>
      </trkpt>
      <trkpt lat="57.28365" lon="-6.09385">
        <ele>114.35</ele>
        <time>2021-03-20T18:11:47Z</time>
      </trkpt>
      <trkpt lat="57.28264" lon="-6.09405">
        <ele>118.39</ele>
        <time>2021-03-20T18:11:52Z</time>
      </trkpt>
      <trkpt lat="57.27976" lon="-6.09479">
        <ele>128.46</ele>
        <time>2021-03-20T18:11:56Z</time>
      </trkpt>
      <trkpt lat="57.27892" lon="-6.09514">
        <ele>130.87</ele>
        <time>2021-03-20T18:12:00Z</time>
      </trkpt>
      <trkpt lat="57.27815" lon="-6.09567">
        <ele>129.77</ele>
        <time>2021-03-20T18:12:04Z</time>
      </trkpt>
      <trkpt lat="57.27732" lon="-6.09636">
        <ele>126.08</ele>
        <time>2021-03-20T18:12:09Z</time>
      </trkpt>
      <trkpt lat="57.2757" lon="-6.09796">
        <ele>126.31</ele>
        <time>2021-03-20T18:12:13Z</time>
      </trkpt>
      <trkpt lat="57.27514" lon="-6.09853">
        <ele>128.4</ele>
        <time>2021-03-20T18:12:17Z</time>
      </trkpt>
      <trkpt lat="57.27467" lon="-6.0989">
        <ele>126.31</ele>
        <time>2021-03-20T18:12:21Z</time>
      </trkpt>
      <trkpt lat="57.27434" lon="-6.09894">
        <ele>121.66</ele>
        <time>2021-03-20T18:12:26Z</time>
      </trkpt>
      <trkpt lat="57.27399" lon="-6.09879">
        <ele>113.5</ele>
        <time>2021-03-20T18:12:30Z</time>
      </trkpt>
      <trkpt lat="57.27375" lon="-6.09845">
        <ele>109.71</ele>
        <time>2021-03-20T18:12:34Z</time>
      </trkpt>
      <trkpt lat="57.27365" lon="-6.09804">
        <ele>109.49</ele>
        <time>2021-03-20T18:12:38Z</time>
      </trkpt>
      <trkpt lat="57.27364" lon="-6.0975">
        <ele>108.42</ele>
        <time>2021-03-20T18:12:43Z</time>
      </trkpt>
      <trkpt lat="57.27366" lon="-6.0971">
        <ele>108.86</ele>
        <time>2021-03-20T18:12:47Z</time>
      </trkpt>
      <trkpt lat="57.2741" lon="-6.09546">
        <ele>97.72</ele>
        <time>2021-03-20T18:12:51Z</time>
      </trkpt>
      <trkpt lat="57.27434" lon="-6.0943">
        <ele>97.6</ele>
        <time>2021-03-20T18:12:55Z</time>
      </trkpt>
      <trkpt lat="57.27436" lon="-6.09377">
        <ele>99.07</ele>
        <time>2021-03-20T18:13:00Z</time>
      </trkpt>
      <trkpt lat="57.27435" lon="-6.09321">
        <ele>97.93</ele>
        <time>2021-03-20T18:13:04Z</time>
      </trkpt>
      <trkpt lat="57.27427" lon="-6.0926">
        <ele>94.42</ele>
        <time>2021-03-20T18:13:08Z</time>
      </trkpt>
      <trkpt lat="57.27406" lon="-6.09201">
        <ele>92.82</ele>
        <time>2021-03-20T18:13:12Z</time>
      </trkpt>
      <trkpt lat="57.2738" lon="-6.09145">
        <ele>89.52</ele>
        <time>2021-03-20T18:13:17Z</time>
      </trkpt>
      <trkpt lat="57.27344" lon="-6.09094">
        <ele>87.19</ele>
        <time>2021-03-20T18:13:21Z</time>
      </trkpt>
      <trkpt lat="57.27247" lon="-6.09001">
        <ele>80.1</ele>
        <time>2021-03-20T18:13:25Z</time>
      </trkpt>
      <trkpt lat="57.27177" lon="-6.08971">
        <ele>75.37</ele>
        <time>2021-03-20T18:13:29Z</time>
      </trkpt>
      <trkpt lat="57.27148" lon="-6.08963">
        <ele>69.63</ele>
        <time>2021-03-20T18:13:34Z</time>
      </trkpt>
      <trkpt lat="57.27148" lon="-6.08963">
        <ele>69.63</ele>
        <time>2021-03-20T18:13:34Z</time>
      </trkpt>
      <trkpt lat="57.26926" lon="-6.089">
        <ele>63.89</ele>
        <time>2021-03-20T18:13:39Z</time>
      </trkpt>
      <trkpt lat="57.26896" lon="-6.08898">
        <ele>61.74</ele>
        <time>2021-03-20T18:13:43Z</time>
      </trkpt>
      <trkpt lat="57.26853" lon="-6.08901">
        <ele>57.26</ele>
        <time>2021-03-20T18:13:48Z</time>
      </trkpt>
      <trkpt lat="57.26805" lon="-6.08929">
        <ele>55.06</ele>
        <time>2021-03-20T18:13:53Z</time>
      </trkpt>
      <trkpt lat="57.26737" lon="-6.08983">
        <ele>52.69</ele>
        <time>2021-03-20T18:13:58Z</time>
      </trkpt>
      <trkpt lat="57.2668" lon="-6.09013">
        <ele>48.3</ele>
        <time>2021-03-20T18:14:03Z</time>
      </trkpt>
      <trkpt lat="57.2647" lon="-6.09095">
        <ele>33.41</ele>
        <time>2021-03-20T18:14:08Z</time>
      </trkpt>
      <trkpt lat="57.26435" lon="-6.09104">
        <ele>30</ele>
        <time>2021-03-20T18:14:13Z</time>
      </trkpt>
      <trkpt lat="57.2641" lon="-6.09105">
        <ele>27.59</ele>
        <time>2021-03-20T18:14:17Z</time>
      </trkpt>
      <trkpt lat="57.26364" lon="-6.09089">
        <ele>22.53</ele>
        <time>2021-03-20T18:14:22Z</time>
      </trkpt>
      <trkpt lat="57.26324" lon="-6.09068">
        <ele>21.48</ele>
        <time>2021-03-20T18:14:27Z</time>
      </trkpt>
      <trkpt lat="57.26289" lon="-6.0903">
        <ele>23.88</ele>
        <time>2021-03-20T18:14:32Z</time>
      </trkpt>
      <trkpt lat="57.26261" lon="-6.0898">
        <ele>25.22</ele>
        <time>2021-03-20T18:14:37Z</time>
      </trkpt>
      <trkpt lat="57.2624" lon="-6.08918">
        <ele>23.15</ele>
        <time>2021-03-20T18:14:42Z</time>
      </trkpt>
      <trkpt lat="57.26226" lon="-6.08855">
        <ele>20.33</ele>
        <time>2021-03-20T18:14:47Z</time>
      </trkpt>
      <trkpt lat="57.2622" lon="-6.08789">
        <ele>17.66</ele>
        <time>2021-03-20T18:14:52Z</time>
      </trkpt>
      <trkpt lat="57.26221" lon="-6.08703">
        <ele>17.05</ele>
        <time>2021-03-20T18:14:56Z</time>
      </trkpt>
      <trkpt lat="57.26253" lon="-6.08568">
        <ele>13.78</ele>
        <time>2021-03-20T18:15:01Z</time>
      </trkpt>
      <trkpt lat="57.26468" lon="-6.08042">
        <ele>17.28</ele>
        <time>2021-03-20T18:15:06Z</time>
      </trkpt>
      <trkpt lat="57.26501" lon="-6.0794">
        <ele>15.93</ele>
        <time>2021-03-20T18:15:11Z</time>
      </trkpt>
      <trkpt lat="57.26537" lon="-6.078">
        <ele>11.71</ele>
        <time>2021-03-20T18:15:16Z</time>
      </trkpt>
      <trkpt lat="57.26573" lon="-6.07635">
        <ele>6.86</ele>
        <time>2021-03-20T18:15:21Z</time>
      </trkpt>
      <trkpt lat="57.26607" lon="-6.07494">
        <ele>2.3</ele>
        <time>2021-03-20T18:15:26Z</time>
      </trkpt>
      <trkpt lat="57.26625" lon="-6.07398">
        <ele>3.2</ele>
        <time>2021-03-20T18:15:30Z</time>
      </trkpt>
      <trkpt lat="57.26667" lon="-6.07069">
        <ele>4.01</ele>
        <time>2021-03-20T18:15:35Z</time>
      </trkpt>
      <trkpt lat="57.26684" lon="-6.06978">
        <ele>5.18</ele>
        <time>2021-03-20T18:15:40Z</time>
      </trkpt>
      <trkpt lat="57.26709" lon="-6.06899">
        <ele>9.07</ele>
        <time>2021-03-20T18:15:45Z</time>
      </trkpt>
      <trkpt lat="57.26752" lon="-6.06823">
        <ele>8.57</ele>
        <time>2021-03-20T18:15:50Z</time>
      </trkpt>
      <trkpt lat="57.26909" lon="-6.06637">
        <ele>6.95</ele>
        <time>2021-03-20T18:15:55Z</time>
      </trkpt>
      <trkpt lat="57.27035" lon="-6.06494">
        <ele>6.87</ele>
        <time>2021-03-20T18:16:00Z</time>
      </trkpt>
      <trkpt lat="57.2708" lon="-6.0643">
        <ele>6.41</ele>
        <time>2021-03-20T18:16:05Z</time>
      </trkpt>
      <trkpt lat="57.27212" lon="-6.06182">
        <ele>7.38</ele>
        <time>2021-03-20T18:16:09Z</time>
      </trkpt>
      <trkpt lat="57.2732" lon="-6.05957">
        <ele>16.27</ele>
        <time>2021-03-20T18:16:14Z</time>
      </trkpt>
      <trkpt lat="57.27364" lon="-6.05853">
        <ele>20.35</ele>
        <time>2021-03-20T18:16:19Z</time>
      </trkpt>
      <trkpt lat="57.27398" lon="-6.05757">
        <ele>22.36</ele>
        <time>2021-03-20T18:16:24Z</time>
      </trkpt>
      <trkpt lat="57.27484" lon="-6.05495">
        <ele>18.77</ele>
        <time>2021-03-20T18:16:29Z</time>
      </trkpt>
      <trkpt lat="57.27521" lon="-6.05402">
        <ele>19.91</ele>
        <time>2021-03-20T18:16:34Z</time>
      </trkpt>
      <trkpt lat="57.27554" lon="-6.05303">
        <ele>20.52</ele>
        <time>2021-03-20T18:16:39Z</time>
      </trkpt>
      <trkpt lat="57.27547" lon="-6.05279">
        <ele>24.1</ele>
        <time>2021-03-20T18:16:41Z</time>
      </trkpt>
      <trkpt lat="57.27549" lon="-6.05268">
        <ele>24.58</ele>
        <time>2021-03-20T18:16:43Z</time>
      </trkpt>
      <trkpt lat="57.27588" lon="-6.05144">
        <ele>28.32</ele>
        <time>2021-03-20T18:16:45Z</time>
      </trkpt>
      <trkpt lat="57.27609" lon="-6.05059">
        <ele>28.24</ele>
        <time>2021-03-20T18:16:47Z</time>
      </trkpt>
      <trkpt lat="57.2763" lon="-6.04952">
        <ele>26.73</ele>
        <time>2021-03-20T18:16:49Z</time>
      </trkpt>
      <trkpt lat="57.27638" lon="-6.04892">
        <ele>25.28</ele>
        <time>2021-03-20T18:16:51Z</time>
      </trkpt>
      <trkpt lat="57.27638" lon="-6.04848">
        <ele>23.63</ele>
        <time>2021-03-20T18:16:54Z</time>
      </trkpt>
      <trkpt lat="57.27634" lon="-6.04791">
        <ele>22.34</ele>
        <time>2021-03-20T18:16:56Z</time>
      </trkpt>
      <trkpt lat="57.27626" lon="-6.04732">
        <ele>22.71</ele>
        <time>2021-03-20T18:16:58Z</time>
      </trkpt>
      <trkpt lat="57.27595" lon="-6.04569">
        <ele>16.28</ele>
        <time>2021-03-20T18:17:00Z</time>
      </trkpt>
      <trkpt lat="57.27566" lon="-6.04502">
        <ele>13.06</ele>
        <time>2021-03-20T18:17:02Z</time>
      </trkpt>
      <trkpt lat="57.27498" lon="-6.04367">
        <ele>9.33</ele>
        <time>2021-03-20T18:17:04Z</time>
      </trkpt>
      <trkpt lat="57.2749" lon="-6.04343">
        <ele>8.81</ele>
        <time>2021-03-20T18:17:06Z</time>
      </trkpt>
      <trkpt lat="57.27487" lon="-6.04319">
        <ele>8.46</ele>
        <time>2021-03-20T18:17:08Z</time>
      </trkpt>
      <trkpt lat="57.27492" lon="-6.04299">
        <ele>8.05</ele>
        <time>2021-03-20T18:17:11Z</time>
      </trkpt>
      <trkpt lat="57.275" lon="-6.04283">
        <ele>7.21</ele>
        <time>2021-03-20T18:17:13Z</time>
      </trkpt>
      <trkpt lat="57.27511" lon="-6.04264">
        <ele>6.18</ele>
        <time>2021-03-20T18:17:15Z</time>
      </trkpt>
      <trkpt lat="57.27536" lon="-6.04232">
        <ele>5.66</ele>
        <time>2021-03-20T18:17:17Z</time>
      </trkpt>
      <trkpt lat="57.27565" lon="-6.04218">
        <ele>5.79</ele>
        <time>2021-03-20T18:17:19Z</time>
      </trkpt>
      <trkpt lat="57.27669" lon="-6.04193">
        <ele>6.13</ele>
        <time>2021-03-20T18:17:21Z</time>
      </trkpt>
      <trkpt lat="57.27684" lon="-6.04216">
        <ele>4.76</ele>
        <time>2021-03-20T18:17:23Z</time>
      </trkpt>
      <trkpt lat="57.27716" lon="-6.04175">
        <ele>7.39</ele>
        <time>2021-03-20T18:17:29Z</time>
      </trkpt>
      <trkpt lat="57.27786" lon="-6.04105">
        <ele>9.82</ele>
        <time>2021-03-20T18:17:34Z</time>
      </trkpt>
      <trkpt lat="57.27865" lon="-6.04037">
        <ele>8.41</ele>
        <time>2021-03-20T18:17:40Z</time>
      </trkpt>
      <trkpt lat="57.27923" lon="-6.03971">
        <ele>7.64</ele>
        <time>2021-03-20T18:17:45Z</time>
      </trkpt>
      <trkpt lat="57.28007" lon="-6.0385">
        <ele>6.38</ele>
        <time>2021-03-20T18:17:51Z</time>
      </trkpt>
      <trkpt lat="57.28042" lon="-6.03809">
        <ele>5.22</ele>
        <time>2021-03-20T18:17:57Z</time>
      </trkpt>
      <trkpt lat="57.28186" lon="-6.03703">
        <ele>6.88</ele>
        <time>2021-03-20T18:18:02Z</time>
      </trkpt>
      <trkpt lat="57.28233" lon="-6.03641">
        <ele>7.33</ele>
        <time>2021-03-20T18:18:08Z</time>
      </trkpt>
      <trkpt lat="57.2828" lon="-6.03543">
        <ele>9.04</ele>
        <time>2021-03-20T18:18:13Z</time>
      </trkpt>
      <trkpt lat="57.28427" lon="-6.03104">
        <ele>14.73</ele>
        <time>2021-03-20T18:18:19Z</time>
      </trkpt>
      <trkpt lat="57.28525" lon="-6.02755">
        <ele>11.35</ele>
        <time>2021-03-20T18:18:24Z</time>
      </trkpt>
      <trkpt lat="57.28567" lon="-6.02626">
        <ele>14.07</ele>
        <time>2021-03-20T18:18:30Z</time>
      </trkpt>
      <trkpt lat="57.28618" lon="-6.02513">
        <ele>18.68</ele>
        <time>2021-03-20T18:18:35Z</time>
      </trkpt>
      <trkpt lat="57.28632" lon="-6.02478">
        <ele>19.51</ele>
        <time>2021-03-20T18:18:41Z</time>
      </trkpt>
      <trkpt lat="57.2865" lon="-6.02415">
        <ele>21.92</ele>
        <time>2021-03-20T18:18:46Z</time>
      </trkpt>
      <trkpt lat="57.28655" lon="-6.02385">
        <ele>22.69</ele>
        <time>2021-03-20T18:18:52Z</time>
      </trkpt>
      <trkpt lat="57.28659" lon="-6.02349">
        <ele>22.26</ele>
        <time>2021-03-20T18:18:58Z</time>
      </trkpt>
      <trkpt lat="57.28661" lon="-6.02311">
        <ele>22.05</ele>
        <time>2021-03-20T18:19:03Z</time>
      </trkpt>
      <trkpt lat="57.2866" lon="-6.02275">
        <ele>21.13</ele>
        <time>2021-03-20T18:19:09Z</time>
      </trkpt>
      <trkpt lat="57.28652" lon="-6.02165">
        <ele>22.56</ele>
        <time>2021-03-20T18:19:14Z</time>
      </trkpt>
      <trkpt lat="57.28642" lon="-6.02053">
        <ele>24.52</ele>
        <time>2021-03-20T18:19:20Z</time>
      </trkpt>
      <trkpt lat="57.28634" lon="-6.02008">
        <ele>24.09</ele>
        <time>2021-03-20T18:19:25Z</time>
      </trkpt>
      <trkpt lat="57.28624" lon="-6.01964">
        <ele>24.37</ele>
        <time>2021-03-20T18:19:31Z</time>
      </trkpt>
      <trkpt lat="57.28603" lon="-6.01905">
        <ele>25.63</ele>
        <time>2021-03-20T18:19:36Z</time>
      </trkpt>
      <trkpt lat="57.2859" lon="-6.01876">
        <ele>25.33</ele>
        <time>2021-03-20T18:19:42Z</time>
      </trkpt>
      <trkpt lat="57.28489" lon="-6.01667">
        <ele>23.89</ele>
        <time>2021-03-20T18:19:47Z</time>
      </trkpt>
      <trkpt lat="57.28407" lon="-6.01535">
        <ele>22.76</ele>
        <time>2021-03-20T18:19:53Z</time>
      </trkpt>
      <trkpt lat="57.28347" lon="-6.01462">
        <ele>20.49</ele>
        <time>2021-03-20T18:19:59Z</time>
      </trkpt>
      <trkpt lat="57.28176" lon="-6.01273">
        <ele>17.99</ele>
        <time>2021-03-20T18:20:04Z</time>
      </trkpt>
      <trkpt lat="57.27972" lon="-6.00938">
        <ele>20.73</ele>
        <time>2021-03-20T18:20:10Z</time>
      </trkpt>
      <trkpt lat="57.27731" lon="-6.00589">
        <ele>25.76</ele>
        <time>2021-03-20T18:20:15Z</time>
      </trkpt>
      <trkpt lat="57.27689" lon="-6.00504">
        <ele>24.05</ele>
        <time>2021-03-20T18:20:21Z</time>
      </trkpt>
      <trkpt lat="57.2765" lon="-6.00406">
        <ele>20.95</ele>
        <time>2021-03-20T18:20:26Z</time>
      </trkpt>
      <trkpt lat="57.27619" lon="-6.00339">
        <ele>20.73</ele>
        <time>2021-03-20T18:20:32Z</time>
      </trkpt>
      <trkpt lat="57.27583" lon="-6.0028">
        <ele>17.4</ele>
        <time>2021-03-20T18:20:37Z</time>
      </trkpt>
      <trkpt lat="57.27509" lon="-6.00169">
        <ele>13.31</ele>
        <time>2021-03-20T18:20:43Z</time>
      </trkpt>
      <trkpt lat="57.27451" lon="-6.00089">
        <ele>11.11</ele>
        <time>2021-03-20T18:20:48Z</time>
      </trkpt>
      <trkpt lat="57.27415" lon="-6.00053">
        <ele>10.93</ele>
        <time>2021-03-20T18:20:54Z</time>
      </trkpt>
      <trkpt lat="57.27318" lon="-5.99986">
        <ele>10.69</ele>
        <time>2021-03-20T18:21:00Z</time>
      </trkpt>
      <trkpt lat="57.27296" lon="-5.9996">
        <ele>11.23</ele>
        <time>2021-03-20T18:21:05Z</time>
      </trkpt>
      <trkpt lat="57.27207" lon="-5.99799">
        <ele>8.21</ele>
        <time>2021-03-20T18:21:11Z</time>
      </trkpt>
      <trkpt lat="57.27114" lon="-5.99658">
        <ele>8.4</ele>
        <time>2021-03-20T18:21:16Z</time>
      </trkpt>
      <trkpt lat="57.27039" lon="-5.99502">
        <ele>6.27</ele>
        <time>2021-03-20T18:21:22Z</time>
      </trkpt>
      <trkpt lat="57.27014" lon="-5.99426">
        <ele>6</ele>
        <time>2021-03-20T18:21:27Z</time>
      </trkpt>
      <trkpt lat="57.27006" lon="-5.99385">
        <ele>6.54</ele>
        <time>2021-03-20T18:21:33Z</time>
      </trkpt>
      <trkpt lat="57.27" lon="-5.99323">
        <ele>7.06</ele>
        <time>2021-03-20T18:21:38Z</time>
      </trkpt>
      <trkpt lat="57.27" lon="-5.99245">
        <ele>7.04</ele>
        <time>2021-03-20T18:21:44Z</time>
      </trkpt>
      <trkpt lat="57.27003" lon="-5.99068">
        <ele>7.2</ele>
        <time>2021-03-20T18:21:49Z</time>
      </trkpt>
      <trkpt lat="57.27002" lon="-5.98998">
        <ele>7.83</ele>
        <time>2021-03-20T18:21:55Z</time>
      </trkpt>
      <trkpt lat="57.26994" lon="-5.98931">
        <ele>7.21</ele>
        <time>2021-03-20T18:22:01Z</time>
      </trkpt>
      <trkpt lat="57.26978" lon="-5.98867">
        <ele>7</ele>
        <time>2021-03-20T18:22:06Z</time>
      </trkpt>
      <trkpt lat="57.26957" lon="-5.98801">
        <ele>7.18</ele>
        <time>2021-03-20T18:22:12Z</time>
      </trkpt>
      <trkpt lat="57.26853" lon="-5.98597">
        <ele>10.79</ele>
        <time>2021-03-20T18:22:17Z</time>
      </trkpt>
      <trkpt lat="57.26794" lon="-5.98476">
        <ele>7.88</ele>
        <time>2021-03-20T18:22:23Z</time>
      </trkpt>
      <trkpt lat="57.26769" lon="-5.98407">
        <ele>7.88</ele>
        <time>2021-03-20T18:22:28Z</time>
      </trkpt>
      <trkpt lat="57.26751" lon="-5.9829">
        <ele>7.35</ele>
        <time>2021-03-20T18:22:34Z</time>
      </trkpt>
      <trkpt lat="57.26727" lon="-5.98049">
        <ele>11.35</ele>
        <time>2021-03-20T18:22:39Z</time>
      </trkpt>
      <trkpt lat="57.2672" lon="-5.97935">
        <ele>9.34</ele>
        <time>2021-03-20T18:22:45Z</time>
      </trkpt>
      <trkpt lat="57.26727" lon="-5.97856">
        <ele>7.53</ele>
        <time>2021-03-20T18:22:50Z</time>
      </trkpt>
      <trkpt lat="57.2674" lon="-5.9779">
        <ele>7.36</ele>
        <time>2021-03-20T18:22:56Z</time>
      </trkpt>
      <trkpt lat="57.26759" lon="-5.97726">
        <ele>5.92</ele>
        <time>2021-03-20T18:23:02Z</time>
      </trkpt>
      <trkpt lat="57.2678" lon="-5.97683">
        <ele>5.28</ele>
        <time>2021-03-20T18:23:07Z</time>
      </trkpt>
      <trkpt lat="57.26851" lon="-5.97553">
        <ele>8.48</ele>
        <time>2021-03-20T18:23:13Z</time>
      </trkpt>
      <trkpt lat="57.26864" lon="-5.97511">
        <ele>10.03</ele>
        <time>2021-03-20T18:23:18Z</time>
      </trkpt>
      <trkpt lat="57.26879" lon="-5.97446">
        <ele>12.3</ele>
        <time>2021-03-20T18:23:24Z</time>
      </trkpt>
      <trkpt lat="57.26885" lon="-5.9739">
        <ele>12.51</ele>
        <time>2021-03-20T18:23:29Z</time>
      </trkpt>
      <trkpt lat="57.26884" lon="-5.97276">
        <ele>10.27</ele>
        <time>2021-03-20T18:23:35Z</time>
      </trkpt>
      <trkpt lat="57.26873" lon="-5.97129">
        <ele>11.43</ele>
        <time>2021-03-20T18:23:40Z</time>
      </trkpt>
      <trkpt lat="57.26855" lon="-5.9701">
        <ele>8.65</ele>
        <time>2021-03-20T18:23:46Z</time>
      </trkpt>
      <trkpt lat="57.26825" lon="-5.96893">
        <ele>8.89</ele>
        <time>2021-03-20T18:23:51Z</time>
      </trkpt>
      <trkpt lat="57.26563" lon="-5.96082">
        <ele>13.67</ele>
        <time>2021-03-20T18:23:57Z</time>
      </trkpt>
      <trkpt lat="57.26455" lon="-5.95696">
        <ele>10.23</ele>
        <time>2021-03-20T18:24:03Z</time>
      </trkpt>
      <trkpt lat="57.26361" lon="-5.95331">
        <ele>7.98</ele>
        <time>2021-03-20T18:24:08Z</time>
      </trkpt>
      <trkpt lat="57.26351" lon="-5.95287">
        <ele>8.24</ele>
        <time>2021-03-20T18:24:14Z</time>
      </trkpt>
      <trkpt lat="57.26304" lon="-5.95018">
        <ele>11.41</ele>
        <time>2021-03-20T18:24:19Z</time>
      </trkpt>
      <trkpt lat="57.26231" lon="-5.94771">
        <ele>12.06</ele>
        <time>2021-03-20T18:24:25Z</time>
      </trkpt>
      <trkpt lat="57.26074" lon="-5.94479">
        <ele>16.2</ele>
        <time>2021-03-20T18:24:30Z</time>
      </trkpt>
      <trkpt lat="57.25935" lon="-5.94271">
        <ele>32.35</ele>
        <time>2021-03-20T18:24:36Z</time>
      </trkpt>
      <trkpt lat="57.25791" lon="-5.94118">
        <ele>28.04</ele>
        <time>2021-03-20T18:24:41Z</time>
      </trkpt>
      <trkpt lat="57.25663" lon="-5.94">
        <ele>28.14</ele>
        <time>2021-03-20T18:24:47Z</time>
      </trkpt>
      <trkpt lat="57.25217" lon="-5.93641">
        <ele>28.76</ele>
        <time>2021-03-20T18:24:52Z</time>
      </trkpt>
      <trkpt lat="57.25099" lon="-5.93519">
        <ele>25.12</ele>
        <time>2021-03-20T18:24:58Z</time>
      </trkpt>
      <trkpt lat="57.24974" lon="-5.93351">
        <ele>25.02</ele>
        <time>2021-03-20T18:25:04Z</time>
      </trkpt>
      <trkpt lat="57.24643" lon="-5.92777">
        <ele>20.38</ele>
        <time>2021-03-20T18:25:09Z</time>
      </trkpt>
      <trkpt lat="57.24598" lon="-5.92669">
        <ele>23.98</ele>
        <time>2021-03-20T18:25:15Z</time>
      </trkpt>
      <trkpt lat="57.24576" lon="-5.9261">
        <ele>23.97</ele>
        <time>2021-03-20T18:25:20Z</time>
      </trkpt>
      <trkpt lat="57.24551" lon="-5.92533">
        <ele>24.31</ele>
        <time>2021-03-20T18:25:26Z</time>
      </trkpt>
      <trkpt lat="57.24507" lon="-5.92362">
        <ele>23.16</ele>
        <time>2021-03-20T18:25:31Z</time>
      </trkpt>
      <trkpt lat="57.24429" lon="-5.91921">
        <ele>15.7</ele>
        <time>2021-03-20T18:25:37Z</time>
      </trkpt>
      <trkpt lat="57.24412" lon="-5.91823">
        <ele>12.48</ele>
        <time>2021-03-20T18:25:42Z</time>
      </trkpt>
      <trkpt lat="57.24401" lon="-5.9183">
        <ele>11.35</ele>
        <time>2021-03-20T18:25:50Z</time>
      </trkpt>
      <trkpt lat="57.24368" lon="-5.91715">
        <ele>9.31</ele>
        <time>2021-03-20T18:25:57Z</time>
      </trkpt>
      <trkpt lat="57.24316" lon="-5.91477">
        <ele>10.26</ele>
        <time>2021-03-20T18:26:04Z</time>
      </trkpt>
      <trkpt lat="57.24287" lon="-5.91377">
        <ele>8.98</ele>
        <time>2021-03-20T18:26:12Z</time>
      </trkpt>
      <trkpt lat="57.24263" lon="-5.91312">
        <ele>8.47</ele>
        <time>2021-03-20T18:26:19Z</time>
      </trkpt>
      <trkpt lat="57.2427" lon="-5.91302">
        <ele>8.7</ele>
        <time>2021-03-20T18:26:26Z</time>
      </trkpt>
      <trkpt lat="57.24228" lon="-5.9123">
        <ele>7.07</ele>
        <time>2021-03-20T18:26:33Z</time>
      </trkpt>
      <trkpt lat="57.242" lon="-5.91173">
        <ele>7.01</ele>
        <time>2021-03-20T18:26:40Z</time>
      </trkpt>
      <trkpt lat="57.24178" lon="-5.9111">
        <ele>5.2</ele>
        <time>2021-03-20T18:26:47Z</time>
      </trkpt>
      <trkpt lat="57.24152" lon="-5.91022">
        <ele>5.97</ele>
        <time>2021-03-20T18:26:54Z</time>
      </trkpt>
      <trkpt lat="57.2414" lon="-5.90969">
        <ele>5.94</ele>
        <time>2021-03-20T18:27:01Z</time>
      </trkpt>
      <trkpt lat="57.2413" lon="-5.90911">
        <ele>6.55</ele>
        <time>2021-03-20T18:27:08Z</time>
      </trkpt>
      <trkpt lat="57.24123" lon="-5.90848">
        <ele>7.07</ele>
        <time>2021-03-20T18:27:15Z</time>
      </trkpt>
      <trkpt lat="57.24107" lon="-5.9067">
        <ele>11.28</ele>
        <time>2021-03-20T18:27:22Z</time>
      </trkpt>
      <trkpt lat="57.24072" lon="-5.90383">
        <ele>10.65</ele>
        <time>2021-03-20T18:27:29Z</time>
      </trkpt>
      <trkpt lat="57.24061" lon="-5.90305">
        <ele>12.12</ele>
        <time>2021-03-20T18:27:36Z</time>
      </trkpt>
      <trkpt lat="57.24046" lon="-5.90219">
        <ele>10.69</ele>
        <time>2021-03-20T18:27:43Z</time>
      </trkpt>
      <trkpt lat="57.24033" lon="-5.90162">
        <ele>11.22</ele>
        <time>2021-03-20T18:27:50Z</time>
      </trkpt>
      <trkpt lat="57.23992" lon="-5.90021">
        <ele>8.72</ele>
        <time>2021-03-20T18:27:57Z</time>
      </trkpt>
      <trkpt lat="57.23967" lon="-5.89962">
        <ele>8.45</ele>
        <time>2021-03-20T18:28:04Z</time>
      </trkpt>
      <trkpt lat="57.23911" lon="-5.89837">
        <ele>7.33</ele>
        <time>2021-03-20T18:28:11Z</time>
      </trkpt>
      <trkpt lat="57.23892" lon="-5.89789">
        <ele>8.4</ele>
        <time>2021-03-20T18:28:18Z</time>
      </trkpt>
      <trkpt lat="57.23829" lon="-5.89605">
        <ele>12.83</ele>
        <time>2021-03-20T18:28:25Z</time>
      </trkpt>
      <trkpt lat="57.23819" lon="-5.89573">
        <ele>12.48</ele>
        <time>2021-03-20T18:28:32Z</time>
      </trkpt>
      <trkpt lat="57.23814" lon="-5.8955">
        <ele>12.28</ele>
        <time>2021-03-20T18:28:39Z</time>
      </trkpt>
      <trkpt lat="57.23808" lon="-5.89506">
        <ele>12.74</ele>
        <time>2021-03-20T18:28:46Z</time>
      </trkpt>
      <trkpt lat="57.23805" lon="-5.89439">
        <ele>13</ele>
        <time>2021-03-20T18:28:52Z</time>
      </trkpt>
      <trkpt lat="57.23792" lon="-5.88987">
        <ele>8.47</ele>
        <time>2021-03-20T18:28:59Z</time>
      </trkpt>
      <trkpt lat="57.23786" lon="-5.8884">
        <ele>9.48</ele>
        <time>2021-03-20T18:29:06Z</time>
      </trkpt>
      <trkpt lat="57.2377" lon="-5.88667">
        <ele>7.54</ele>
        <time>2021-03-20T18:29:13Z</time>
      </trkpt>
      <trkpt lat="57.23769" lon="-5.88621">
        <ele>7.02</ele>
        <time>2021-03-20T18:29:20Z</time>
      </trkpt>
      <trkpt lat="57.23772" lon="-5.88573">
        <ele>6.4</ele>
        <time>2021-03-20T18:29:27Z</time>
      </trkpt>
      <trkpt lat="57.23781" lon="-5.88529">
        <ele>5.69</ele>
        <time>2021-03-20T18:29:34Z</time>
      </trkpt>
      <trkpt lat="57.23823" lon="-5.88351">
        <ele>5.75</ele>
        <time>2021-03-20T18:29:41Z</time>
      </trkpt>
      <trkpt lat="57.2383" lon="-5.88304">
        <ele>6.14</ele>
        <time>2021-03-20T18:29:48Z</time>
      </trkpt>
      <trkpt lat="57.2383" lon="-5.88253">
        <ele>6.11</ele>
        <time>2021-03-20T18:29:55Z</time>
      </trkpt>
      <trkpt lat="57.23823" lon="-5.8819">
        <ele>6.28</ele>
        <time>2021-03-20T18:30:02Z</time>
      </trkpt>
      <trkpt lat="57.23817" lon="-5.88165">
        <ele>6.2</ele>
        <time>2021-03-20T18:30:09Z</time>
      </trkpt>
      <trkpt lat="57.23805" lon="-5.88131">
        <ele>7.03</ele>
        <time>2021-03-20T18:30:16Z</time>
      </trkpt>
      <trkpt lat="57.23785" lon="-5.8809">
        <ele>8.49</ele>
        <time>2021-03-20T18:30:23Z</time>
      </trkpt>
      <trkpt lat="57.23759" lon="-5.88053">
        <ele>10.35</ele>
        <time>2021-03-20T18:30:30Z</time>
      </trkpt>
      <trkpt lat="57.23712" lon="-5.87993">
        <ele>11.35</ele>
        <time>2021-03-20T18:30:37Z</time>
      </trkpt>
      <trkpt lat="57.23689" lon="-5.87949">
        <ele>11.33</ele>
        <time>2021-03-20T18:30:44Z</time>
      </trkpt>
      <trkpt lat="57.23679" lon="-5.87914">
        <ele>11.65</ele>
        <time>2021-03-20T18:30:51Z</time>
      </trkpt>
      <trkpt lat="57.23674" lon="-5.87885">
        <ele>12.78</ele>
        <time>2021-03-20T18:30:58Z</time>
      </trkpt>
      <trkpt lat="57.23673" lon="-5.8783">
        <ele>14</ele>
        <time>2021-03-20T18:31:05Z</time>
      </trkpt>
      <trkpt lat="57.23689" lon="-5.87599">
        <ele>15.19</ele>
        <time>2021-03-20T18:31:12Z</time>
      </trkpt>
      <trkpt lat="57.23689" lon="-5.87571">
        <ele>15.19</ele>
        <time>2021-03-20T18:31:19Z</time>
      </trkpt>
      <trkpt lat="57.23687" lon="-5.87543">
        <ele>15.27</ele>
        <time>2021-03-20T18:31:26Z</time>
      </trkpt>
      <trkpt lat="57.23674" lon="-5.87495">
        <ele>15.72</ele>
        <time>2021-03-20T18:31:33Z</time>
      </trkpt>
      <trkpt lat="57.23617" lon="-5.8735">
        <ele>18.19</ele>
        <time>2021-03-20T18:31:40Z</time>
      </trkpt>
      <trkpt lat="57.23605" lon="-5.8731">
        <ele>19</ele>
        <time>2021-03-20T18:31:47Z</time>
      </trkpt>
      <trkpt lat="57.23599" lon="-5.87276">
        <ele>19.42</ele>
        <time>2021-03-20T18:31:54Z</time>
      </trkpt>
      <trkpt lat="57.23602" lon="-5.87228">
        <ele>18.8</ele>
        <time>2021-03-20T18:32:00Z</time>
      </trkpt>
      <trkpt lat="57.2365" lon="-5.86874">
        <ele>13.69</ele>
        <time>2021-03-20T18:32:07Z</time>
      </trkpt>
      <trkpt lat="57.23754" lon="-5.86063">
        <ele>20.11</ele>
        <time>2021-03-20T18:32:14Z</time>
      </trkpt>
      <trkpt lat="57.23794" lon="-5.85771">
        <ele>27</ele>
        <time>2021-03-20T18:32:21Z</time>
      </trkpt>
      <trkpt lat="57.23886" lon="-5.85568">
        <ele>26.55</ele>
        <time>2021-03-20T18:32:30Z</time>
      </trkpt>
      <trkpt lat="57.24158" lon="-5.84935">
        <ele>29</ele>
        <time>2021-03-20T18:32:38Z</time>
      </trkpt>
      <trkpt lat="57.2446" lon="-5.84241">
        <ele>27.43</ele>
        <time>2021-03-20T18:32:46Z</time>
      </trkpt>
      <trkpt lat="57.24489" lon="-5.84169">
        <ele>27.32</ele>
        <time>2021-03-20T18:32:55Z</time>
      </trkpt>
      <trkpt lat="57.2459" lon="-5.83934">
        <ele>25.9</ele>
        <time>2021-03-20T18:33:03Z</time>
      </trkpt>
      <trkpt lat="57.24706" lon="-5.83658">
        <ele>25.19</ele>
        <time>2021-03-20T18:33:11Z</time>
      </trkpt>
      <trkpt lat="57.24732" lon="-5.83596">
        <ele>24.28</ele>
        <time>2021-03-20T18:33:20Z</time>
      </trkpt>
      <trkpt lat="57.24743" lon="-5.83576">
        <ele>23.8</ele>
        <time>2021-03-20T18:33:28Z</time>
      </trkpt>
      <trkpt lat="57.24818" lon="-5.8333">
        <ele>20.88</ele>
        <time>2021-03-20T18:33:37Z</time>
      </trkpt>
      <trkpt lat="57.2482" lon="-5.83305">
        <ele>19.99</ele>
        <time>2021-03-20T18:33:45Z</time>
      </trkpt>
      <trkpt lat="57.24816" lon="-5.83301">
        <ele>19.82</ele>
        <time>2021-03-20T18:33:53Z</time>
      </trkpt>
      <trkpt lat="57.24812" lon="-5.83292">
        <ele>19.5</ele>
        <time>2021-03-20T18:34:02Z</time>
      </trkpt>
      <trkpt lat="57.2475" lon="-5.83214">
        <ele>18.01</ele>
        <time>2021-03-20T18:34:10Z</time>
      </trkpt>
      <trkpt lat="57.24707" lon="-5.83151">
        <ele>18.54</ele>
        <time>2021-03-20T18:34:18Z</time>
      </trkpt>
      <trkpt lat="57.24656" lon="-5.83042">
        <ele>24.8</ele>
        <time>2021-03-20T18:34:27Z</time>
      </trkpt>
      <trkpt lat="57.24669" lon="-5.83013">
        <ele>23.89</ele>
        <time>2021-03-20T18:34:32Z</time>
      </trkpt>
      <trkpt lat="57.24707" lon="-5.82941">
        <ele>24.55</ele>
        <time>2021-03-20T18:34:38Z</time>
      </trkpt>
      <trkpt lat="57.24832" lon="-5.82702">
        <ele>24</ele>
        <time>2021-03-20T18:34:43Z</time>
      </trkpt>
      <trkpt lat="57.25013" lon="-5.82367">
        <ele>22</ele>
        <time>2021-03-20T18:34:49Z</time>
      </trkpt>
      <trkpt lat="57.25054" lon="-5.82271">
        <ele>22.35</ele>
        <time>2021-03-20T18:34:55Z</time>
      </trkpt>
      <trkpt lat="57.25086" lon="-5.82183">
        <ele>23.11</ele>
        <time>2021-03-20T18:35:00Z</time>
      </trkpt>
      <trkpt lat="57.25202" lon="-5.81899">
        <ele>18.54</ele>
        <time>2021-03-20T18:35:06Z</time>
      </trkpt>
      <trkpt lat="57.25303" lon="-5.81624">
        <ele>21.11</ele>
        <time>2021-03-20T18:35:11Z</time>
      </trkpt>
      <trkpt lat="57.2535" lon="-5.8148">
        <ele>21.53</ele>
        <time>2021-03-20T18:35:17Z</time>
      </trkpt>
      <trkpt lat="57.25409" lon="-5.81289">
        <ele>21.17</ele>
        <time>2021-03-20T18:35:22Z</time>
      </trkpt>
      <trkpt lat="57.2547" lon="-5.81075">
        <ele>17.63</ele>
        <time>2021-03-20T18:35:28Z</time>
      </trkpt>
      <trkpt lat="57.25526" lon="-5.80905">
        <ele>21.03</ele>
        <time>2021-03-20T18:35:34Z</time>
      </trkpt>
      <trkpt lat="57.25613" lon="-5.80685">
        <ele>19.13</ele>
        <time>2021-03-20T18:35:39Z</time>
      </trkpt>
      <trkpt lat="57.25711" lon="-5.80467">
        <ele>18.44</ele>
        <time>2021-03-20T18:35:45Z</time>
      </trkpt>
      <trkpt lat="57.25843" lon="-5.80194">
        <ele>20.67</ele>
        <time>2021-03-20T18:35:50Z</time>
      </trkpt>
      <trkpt lat="57.26026" lon="-5.79772">
        <ele>21.15</ele>
        <time>2021-03-20T18:35:56Z</time>
      </trkpt>
      <trkpt lat="57.26069" lon="-5.79658">
        <ele>20.55</ele>
        <time>2021-03-20T18:36:01Z</time>
      </trkpt>
      <trkpt lat="57.26148" lon="-5.79438">
        <ele>15.36</ele>
        <time>2021-03-20T18:36:07Z</time>
      </trkpt>
      <trkpt lat="57.26205" lon="-5.79267">
        <ele>16.3</ele>
        <time>2021-03-20T18:36:12Z</time>
      </trkpt>
      <trkpt lat="57.26294" lon="-5.79018">
        <ele>18.2</ele>
        <time>2021-03-20T18:36:18Z</time>
      </trkpt>
      <trkpt lat="57.26332" lon="-5.78908">
        <ele>22.78</ele>
        <time>2021-03-20T18:36:24Z</time>
      </trkpt>
      <trkpt lat="57.2641" lon="-5.78665">
        <ele>27.03</ele>
        <time>2021-03-20T18:36:29Z</time>
      </trkpt>
      <trkpt lat="57.26436" lon="-5.78591">
        <ele>24.19</ele>
        <time>2021-03-20T18:36:35Z</time>
      </trkpt>
      <trkpt lat="57.2648" lon="-5.78432">
        <ele>26.56</ele>
        <time>2021-03-20T18:36:40Z</time>
      </trkpt>
      <trkpt lat="57.26514" lon="-5.78288">
        <ele>28.11</ele>
        <time>2021-03-20T18:36:46Z</time>
      </trkpt>
      <trkpt lat="57.26567" lon="-5.78081">
        <ele>28.52</ele>
        <time>2021-03-20T18:36:51Z</time>
      </trkpt>
      <trkpt lat="57.2669" lon="-5.77505">
        <ele>33.9</ele>
        <time>2021-03-20T18:36:57Z</time>
      </trkpt>
      <trkpt lat="57.26711" lon="-5.77355">
        <ele>34.52</ele>
        <time>2021-03-20T18:37:03Z</time>
      </trkpt>
      <trkpt lat="57.26723" lon="-5.77229">
        <ele>35.92</ele>
        <time>2021-03-20T18:37:08Z</time>
      </trkpt>
      <trkpt lat="57.26729" lon="-5.77125">
        <ele>38.27</ele>
        <time>2021-03-20T18:37:14Z</time>
      </trkpt>
      <trkpt lat="57.26731" lon="-5.77044">
        <ele>38.34</ele>
        <time>2021-03-20T18:37:19Z</time>
      </trkpt>
      <trkpt lat="57.2673" lon="-5.76916">
        <ele>37.41</ele>
        <time>2021-03-20T18:37:25Z</time>
      </trkpt>
      <trkpt lat="57.26727" lon="-5.76855">
        <ele>36.6</ele>
        <time>2021-03-20T18:37:30Z</time>
      </trkpt>
      <trkpt lat="57.26717" lon="-5.76721">
        <ele>37.8</ele>
        <time>2021-03-20T18:37:36Z</time>
      </trkpt>
      <trkpt lat="57.26704" lon="-5.76613">
        <ele>37.65</ele>
        <time>2021-03-20T18:37:42Z</time>
      </trkpt>
      <trkpt lat="57.26676" lon="-5.76418">
        <ele>34.3</ele>
        <time>2021-03-20T18:37:47Z</time>
      </trkpt>
      <trkpt lat="57.2667" lon="-5.76327">
        <ele>34.87</ele>
        <time>2021-03-20T18:37:53Z</time>
      </trkpt>
      <trkpt lat="57.26669" lon="-5.76251">
        <ele>34.91</ele>
        <time>2021-03-20T18:37:58Z</time>
      </trkpt>
      <trkpt lat="57.26672" lon="-5.76176">
        <ele>34.81</ele>
        <time>2021-03-20T18:38:04Z</time>
      </trkpt>
      <trkpt lat="57.2668" lon="-5.7609">
        <ele>34</ele>
        <time>2021-03-20T18:38:09Z</time>
      </trkpt>
      <trkpt lat="57.26695" lon="-5.75997">
        <ele>34</ele>
        <time>2021-03-20T18:38:15Z</time>
      </trkpt>
      <trkpt lat="57.26716" lon="-5.75908">
        <ele>33.76</ele>
        <time>2021-03-20T18:38:21Z</time>
      </trkpt>
      <trkpt lat="57.26742" lon="-5.75824">
        <ele>33</ele>
        <time>2021-03-20T18:38:26Z</time>
      </trkpt>
      <trkpt lat="57.26777" lon="-5.7574">
        <ele>30.66</ele>
        <time>2021-03-20T18:38:32Z</time>
      </trkpt>
      <trkpt lat="57.26817" lon="-5.75669">
        <ele>29.09</ele>
        <time>2021-03-20T18:38:37Z</time>
      </trkpt>
      <trkpt lat="57.26881" lon="-5.75573">
        <ele>28.83</ele>
        <time>2021-03-20T18:38:43Z</time>
      </trkpt>
      <trkpt lat="57.26937" lon="-5.75485">
        <ele>29.22</ele>
        <time>2021-03-20T18:38:48Z</time>
      </trkpt>
      <trkpt lat="57.26965" lon="-5.75436">
        <ele>29.39</ele>
        <time>2021-03-20T18:38:54Z</time>
      </trkpt>
      <trkpt lat="57.26995" lon="-5.75375">
        <ele>31.32</ele>
        <time>2021-03-20T18:38:59Z</time>
      </trkpt>
      <trkpt lat="57.27035" lon="-5.75287">
        <ele>34.62</ele>
        <time>2021-03-20T18:39:05Z</time>
      </trkpt>
      <trkpt lat="57.27096" lon="-5.75122">
        <ele>33.71</ele>
        <time>2021-03-20T18:39:11Z</time>
      </trkpt>
      <trkpt lat="57.2714" lon="-5.74962">
        <ele>30.92</ele>
        <time>2021-03-20T18:39:16Z</time>
      </trkpt>
      <trkpt lat="57.27162" lon="-5.74871">
        <ele>30.27</ele>
        <time>2021-03-20T18:39:22Z</time>
      </trkpt>
      <trkpt lat="57.27211" lon="-5.74623">
        <ele>27.41</ele>
        <time>2021-03-20T18:39:27Z</time>
      </trkpt>
      <trkpt lat="57.27227" lon="-5.74555">
        <ele>27</ele>
        <time>2021-03-20T18:39:33Z</time>
      </trkpt>
      <trkpt lat="57.27246" lon="-5.74487">
        <ele>26.15</ele>
        <time>2021-03-20T18:39:38Z</time>
      </trkpt>
      <trkpt lat="57.27251" lon="-5.74495">
        <ele>25.98</ele>
        <time>2021-03-20T18:39:44Z</time>
      </trkpt>
      <trkpt lat="57.27255" lon="-5.74497">
        <ele>25.81</ele>
        <time>2021-03-20T18:39:50Z</time>
      </trkpt>
      <trkpt lat="57.27262" lon="-5.74494">
        <ele>25.56</ele>
        <time>2021-03-20T18:39:55Z</time>
      </trkpt>
      <trkpt lat="57.27267" lon="-5.74485">
        <ele>25.4</ele>
        <time>2021-03-20T18:40:01Z</time>
      </trkpt>
      <trkpt lat="57.27282" lon="-5.74494">
        <ele>24.7</ele>
        <time>2021-03-20T18:40:07Z</time>
      </trkpt>
      <trkpt lat="57.27317" lon="-5.74498">
        <ele>22.69</ele>
        <time>2021-03-20T18:40:12Z</time>
      </trkpt>
      <trkpt lat="57.27357" lon="-5.74491">
        <ele>21.26</ele>
        <time>2021-03-20T18:40:18Z</time>
      </trkpt>
      <trkpt lat="57.27399" lon="-5.74468">
        <ele>20.72</ele>
        <time>2021-03-20T18:40:23Z</time>
      </trkpt>
      <trkpt lat="57.27511" lon="-5.74386">
        <ele>18.81</ele>
        <time>2021-03-20T18:40:29Z</time>
      </trkpt>
      <trkpt lat="57.27782" lon="-5.74172">
        <ele>14.1</ele>
        <time>2021-03-20T18:40:35Z</time>
      </trkpt>
      <trkpt lat="57.27879" lon="-5.74088">
        <ele>12.36</ele>
        <time>2021-03-20T18:40:40Z</time>
      </trkpt>
      <trkpt lat="57.27896" lon="-5.7407">
        <ele>11.63</ele>
        <time>2021-03-20T18:40:46Z</time>
      </trkpt>
      <trkpt lat="57.27916" lon="-5.74044">
        <ele>10.59</ele>
        <time>2021-03-20T18:40:51Z</time>
      </trkpt>
      <trkpt lat="57.27937" lon="-5.74007">
        <ele>9.23</ele>
        <time>2021-03-20T18:40:57Z</time>
      </trkpt>
      <trkpt lat="57.27957" lon="-5.73964">
        <ele>7.23</ele>
        <time>2021-03-20T18:41:03Z</time>
      </trkpt>
      <trkpt lat="57.27976" lon="-5.73907">
        <ele>5.76</ele>
        <time>2021-03-20T18:41:08Z</time>
      </trkpt>
      <trkpt lat="57.27994" lon="-5.73834">
        <ele>4.21</ele>
        <time>2021-03-20T18:41:14Z</time>
      </trkpt>
      <trkpt lat="57.2817" lon="-5.73028">
        <ele>10</ele>
        <time>2021-03-20T18:41:19Z</time>
      </trkpt>
      <trkpt lat="57.28184" lon="-5.7292">
        <ele>7.71</ele>
        <time>2021-03-20T18:41:25Z</time>
      </trkpt>
      <trkpt lat="57.28187" lon="-5.72872">
        <ele>6.72</ele>
        <time>2021-03-20T18:41:31Z</time>
      </trkpt>
      <trkpt lat="57.28183" lon="-5.72806">
        <ele>8.59</ele>
        <time>2021-03-20T18:41:36Z</time>
      </trkpt>
      <trkpt lat="57.28179" lon="-5.72759">
        <ele>10.15</ele>
        <time>2021-03-20T18:41:42Z</time>
      </trkpt>
      <trkpt lat="57.28169" lon="-5.72704">
        <ele>10.9</ele>
        <time>2021-03-20T18:41:47Z</time>
      </trkpt>
      <trkpt lat="57.28156" lon="-5.72657">
        <ele>11.88</ele>
        <time>2021-03-20T18:41:53Z</time>
      </trkpt>
      <trkpt lat="57.28142" lon="-5.72616">
        <ele>14.83</ele>
        <time>2021-03-20T18:41:59Z</time>
      </trkpt>
      <trkpt lat="57.28123" lon="-5.72572">
        <ele>17.13</ele>
        <time>2021-03-20T18:42:04Z</time>
      </trkpt>
      <trkpt lat="57.28064" lon="-5.72456">
        <ele>15.96</ele>
        <time>2021-03-20T18:42:10Z</time>
      </trkpt>
      <trkpt lat="57.28035" lon="-5.72386">
        <ele>12.53</ele>
        <time>2021-03-20T18:42:16Z</time>
      </trkpt>
      <trkpt lat="57.28022" lon="-5.72339">
        <ele>11.77</ele>
        <time>2021-03-20T18:42:21Z</time>
      </trkpt>
      <trkpt lat="57.28008" lon="-5.72266">
        <ele>10.42</ele>
        <time>2021-03-20T18:42:27Z</time>
      </trkpt>
      <trkpt lat="57.28004" lon="-5.72236">
        <ele>9.76</ele>
        <time>2021-03-20T18:42:32Z</time>
      </trkpt>
      <trkpt lat="57.28002" lon="-5.72194">
        <ele>9.34</ele>
        <time>2021-03-20T18:42:38Z</time>
      </trkpt>
      <trkpt lat="57.28002" lon="-5.72147">
        <ele>8.37</ele>
        <time>2021-03-20T18:42:44Z</time>
      </trkpt>
      <trkpt lat="57.28004" lon="-5.72103">
        <ele>7.7</ele>
        <time>2021-03-20T18:42:49Z</time>
      </trkpt>
      <trkpt lat="57.28012" lon="-5.72049">
        <ele>8.09</ele>
        <time>2021-03-20T18:42:55Z</time>
      </trkpt>
      <trkpt lat="57.28021" lon="-5.71998">
        <ele>9.87</ele>
        <time>2021-03-20T18:43:00Z</time>
      </trkpt>
      <trkpt lat="57.28041" lon="-5.71921">
        <ele>14.45</ele>
        <time>2021-03-20T18:43:06Z</time>
      </trkpt>
      <trkpt lat="57.28073" lon="-5.71823">
        <ele>16.83</ele>
        <time>2021-03-20T18:43:12Z</time>
      </trkpt>
      <trkpt lat="57.28094" lon="-5.71735">
        <ele>15.22</ele>
        <time>2021-03-20T18:43:17Z</time>
      </trkpt>
      <trkpt lat="57.281" lon="-5.71685">
        <ele>13.51</ele>
        <time>2021-03-20T18:43:23Z</time>
      </trkpt>
      <trkpt lat="57.28094" lon="-5.71622">
        <ele>9.9</ele>
        <time>2021-03-20T18:43:28Z</time>
      </trkpt>
      <trkpt lat="57.28107" lon="-5.71608">
        <ele>9.86</ele>
        <time>2021-03-20T18:43:32Z</time>
      </trkpt>
      <trkpt lat="57.28174" lon="-5.71567">
        <ele>11.75</ele>
        <time>2021-03-20T18:43:36Z</time>
      </trkpt>
      <trkpt lat="57.28202" lon="-5.71542">
        <ele>10.24</ele>
        <time>2021-03-20T18:43:39Z</time>
      </trkpt>
      <trkpt lat="57.28217" lon="-5.71525">
        <ele>8.58</ele>
        <time>2021-03-20T18:43:43Z</time>
      </trkpt>
      <trkpt lat="57.28235" lon="-5.71491">
        <ele>7.69</ele>
        <time>2021-03-20T18:43:46Z</time>
      </trkpt>
      <trkpt lat="57.28247" lon="-5.71455">
        <ele>9.14</ele>
        <time>2021-03-20T18:43:50Z</time>
      </trkpt>
      <trkpt lat="57.28249" lon="-5.71439">
        <ele>10.35</ele>
        <time>2021-03-20T18:43:54Z</time>
      </trkpt>
      <trkpt lat="57.28261" lon="-5.71438">
        <ele>10.88</ele>
        <time>2021-03-20T18:43:57Z</time>
      </trkpt>
      <trkpt lat="57.28292" lon="-5.71421">
        <ele>12.66</ele>
        <time>2021-03-20T18:44:00Z</time>
      </trkpt>
      <trkpt lat="57.283" lon="-5.71413">
        <ele>13.28</ele>
        <time>2021-03-20T18:44:03Z</time>
      </trkpt>
      <trkpt lat="57.28312" lon="-5.71393">
        <ele>14.49</ele>
        <time>2021-03-20T18:44:06Z</time>
      </trkpt>
      <trkpt lat="57.28341" lon="-5.71333">
        <ele>17.01</ele>
        <time>2021-03-20T18:44:09Z</time>
      </trkpt>
      <trkpt lat="57.28351" lon="-5.71315">
        <ele>18.29</ele>
        <time>2021-03-20T18:44:13Z</time>
      </trkpt>
      <trkpt lat="57.28363" lon="-5.71302">
        <ele>19.39</ele>
        <time>2021-03-20T18:44:16Z</time>
      </trkpt>
      <trkpt lat="57.28376" lon="-5.71299">
        <ele>20.47</ele>
        <time>2021-03-20T18:44:19Z</time>
      </trkpt>
      <trkpt lat="57.28423" lon="-5.71319">
        <ele>24.47</ele>
        <time>2021-03-20T18:44:22Z</time>
      </trkpt>
      <trkpt lat="57.28451" lon="-5.7134">
        <ele>25.8</ele>
        <time>2021-03-20T18:44:25Z</time>
      </trkpt>
      <trkpt lat="57.28525" lon="-5.71454">
        <ele>29.23</ele>
        <time>2021-03-20T18:44:28Z</time>
      </trkpt>
      <trkpt lat="57.28539" lon="-5.71466">
        <ele>31.09</ele>
        <time>2021-03-20T18:44:32Z</time>
      </trkpt>
      <trkpt lat="57.28557" lon="-5.71479">
        <ele>32.42</ele>
        <time>2021-03-20T18:44:35Z</time>
      </trkpt>
      <trkpt lat="57.28587" lon="-5.71493">
        <ele>32.99</ele>
        <time>2021-03-20T18:44:38Z</time>
      </trkpt>
      <trkpt lat="57.28666" lon="-5.71527">
        <ele>34.01</ele>
        <time>2021-03-20T18:44:41Z</time>
      </trkpt>
      <trkpt lat="57.28748" lon="-5.71584">
        <ele>32.94</ele>
        <time>2021-03-20T18:44:44Z</time>
      </trkpt>
      <trkpt lat="57.28757" lon="-5.71594">
        <ele>33.71</ele>
        <time>2021-03-20T18:44:47Z</time>
      </trkpt>
      <trkpt lat="57.28764" lon="-5.71611">
        <ele>34.46</ele>
        <time>2021-03-20T18:44:51Z</time>
      </trkpt>
      <trkpt lat="57.28764" lon="-5.71625">
        <ele>34.29</ele>
        <time>2021-03-20T18:44:54Z</time>
      </trkpt>
      <trkpt lat="57.28757" lon="-5.71667">
        <ele>32.96</ele>
        <time>2021-03-20T18:44:57Z</time>
      </trkpt>
      <trkpt lat="57.2875" lon="-5.71692">
        <ele>31.09</ele>
        <time>2021-03-20T18:45:00Z</time>
      </trkpt>
      <trkpt lat="57.28737" lon="-5.71758">
        <ele>28.21</ele>
        <time>2021-03-20T18:45:03Z</time>
      </trkpt>
      <trkpt lat="57.28736" lon="-5.71773">
        <ele>27.66</ele>
        <time>2021-03-20T18:45:06Z</time>
      </trkpt>
      <trkpt lat="57.28742" lon="-5.71803">
        <ele>25.49</ele>
        <time>2021-03-20T18:45:09Z</time>
      </trkpt>
      <trkpt lat="57.28748" lon="-5.71816">
        <ele>24.29</ele>
        <time>2021-03-20T18:45:13Z</time>
      </trkpt>
      <trkpt lat="57.28783" lon="-5.71835">
        <ele>23.88</ele>
        <time>2021-03-20T18:45:16Z</time>
      </trkpt>
      <trkpt lat="57.28795" lon="-5.71831">
        <ele>24.22</ele>
        <time>2021-03-20T18:45:19Z</time>
      </trkpt>
      <trkpt lat="57.28845" lon="-5.71829">
        <ele>25.73</ele>
        <time>2021-03-20T18:45:22Z</time>
      </trkpt>
      <trkpt lat="57.28905" lon="-5.71836">
        <ele>26.36</ele>
        <time>2021-03-20T18:45:25Z</time>
      </trkpt>
      <trkpt lat="57.28932" lon="-5.71843">
        <ele>27.77</ele>
        <time>2021-03-20T18:45:28Z</time>
      </trkpt>
      <trkpt lat="57.28945" lon="-5.71851">
        <ele>28.2</ele>
        <time>2021-03-20T18:45:32Z</time>
      </trkpt>
      <trkpt lat="57.28955" lon="-5.7186">
        <ele>29.42</ele>
        <time>2021-03-20T18:45:35Z</time>
      </trkpt>
      <trkpt lat="57.28977" lon="-5.71893">
        <ele>31.78</ele>
        <time>2021-03-20T18:45:38Z</time>
      </trkpt>
      <trkpt lat="57.2913" lon="-5.72254">
        <ele>13.56</ele>
        <time>2021-03-20T18:45:41Z</time>
      </trkpt>
      <trkpt lat="57.29156" lon="-5.72289">
        <ele>12.35</ele>
        <time>2021-03-20T18:45:44Z</time>
      </trkpt>
      <trkpt lat="57.29179" lon="-5.72308">
        <ele>12.65</ele>
        <time>2021-03-20T18:45:47Z</time>
      </trkpt>
      <trkpt lat="57.29222" lon="-5.72328">
        <ele>12.56</ele>
        <time>2021-03-20T18:45:51Z</time>
      </trkpt>
      <trkpt lat="57.29288" lon="-5.72355">
        <ele>8.89</ele>
        <time>2021-03-20T18:45:54Z</time>
      </trkpt>
      <trkpt lat="57.29317" lon="-5.72376">
        <ele>9.01</ele>
        <time>2021-03-20T18:45:57Z</time>
      </trkpt>
      <trkpt lat="57.29339" lon="-5.72401">
        <ele>10.05</ele>
        <time>2021-03-20T18:46:00Z</time>
      </trkpt>
      <trkpt lat="57.29378" lon="-5.72456">
        <ele>11.57</ele>
        <time>2021-03-20T18:46:03Z</time>
      </trkpt>
      <trkpt lat="57.29427" lon="-5.72526">
        <ele>12.27</ele>
        <time>2021-03-20T18:46:06Z</time>
      </trkpt>
      <trkpt lat="57.29469" lon="-5.72572">
        <ele>12.59</ele>
        <time>2021-03-20T18:46:10Z</time>
      </trkpt>
      <trkpt lat="57.29495" lon="-5.72591">
        <ele>12.48</ele>
        <time>2021-03-20T18:46:13Z</time>
      </trkpt>
      <trkpt lat="57.29599" lon="-5.72616">
        <ele>17.93</ele>
        <time>2021-03-20T18:46:16Z</time>
      </trkpt>
      <trkpt lat="57.29607" lon="-5.72614">
        <ele>18.57</ele>
        <time>2021-03-20T18:46:19Z</time>
      </trkpt>
      <trkpt lat="57.29615" lon="-5.72609">
        <ele>19.08</ele>
        <time>2021-03-20T18:46:22Z</time>
      </trkpt>
      <trkpt lat="57.29624" lon="-5.726">
        <ele>19.42</ele>
        <time>2021-03-20T18:46:25Z</time>
      </trkpt>
      <trkpt lat="57.29632" lon="-5.72587">
        <ele>19.86</ele>
        <time>2021-03-20T18:46:28Z</time>
      </trkpt>
      <trkpt lat="57.29707" lon="-5.72404">
        <ele>26.05</ele>
        <time>2021-03-20T18:46:32Z</time>
      </trkpt>
      <trkpt lat="57.29748" lon="-5.72322">
        <ele>25.54</ele>
        <time>2021-03-20T18:46:35Z</time>
      </trkpt>
      <trkpt lat="57.29765" lon="-5.72301">
        <ele>25.78</ele>
        <time>2021-03-20T18:46:38Z</time>
      </trkpt>
      <trkpt lat="57.29807" lon="-5.72261">
        <ele>27.51</ele>
        <time>2021-03-20T18:46:41Z</time>
      </trkpt>
      <trkpt lat="57.2983" lon="-5.72232">
        <ele>27.46</ele>
        <time>2021-03-20T18:46:44Z</time>
      </trkpt>
      <trkpt lat="57.29935" lon="-5.72063">
        <ele>30.58</ele>
        <time>2021-03-20T18:46:47Z</time>
      </trkpt>
      <trkpt lat="57.2996" lon="-5.72008">
        <ele>34.91</ele>
        <time>2021-03-20T18:46:51Z</time>
      </trkpt>
      <trkpt lat="57.29983" lon="-5.71964">
        <ele>36.99</ele>
        <time>2021-03-20T18:46:54Z</time>
      </trkpt>
      <trkpt lat="57.29999" lon="-5.71944">
        <ele>37.16</ele>
        <time>2021-03-20T18:46:57Z</time>
      </trkpt>
      <trkpt lat="57.30015" lon="-5.71929">
        <ele>35.14</ele>
        <time>2021-03-20T18:47:00Z</time>
      </trkpt>
      <trkpt lat="57.30043" lon="-5.71883">
        <ele>30.2</ele>
        <time>2021-03-20T18:47:03Z</time>
      </trkpt>
      <trkpt lat="57.3006" lon="-5.71834">
        <ele>28.58</ele>
        <time>2021-03-20T18:47:06Z</time>
      </trkpt>
      <trkpt lat="57.3009" lon="-5.71689">
        <ele>29.5</ele>
        <time>2021-03-20T18:47:10Z</time>
      </trkpt>
      <trkpt lat="57.30108" lon="-5.71635">
        <ele>25.19</ele>
        <time>2021-03-20T18:47:13Z</time>
      </trkpt>
      <trkpt lat="57.30131" lon="-5.71552">
        <ele>22.49</ele>
        <time>2021-03-20T18:47:16Z</time>
      </trkpt>
      <trkpt lat="57.3014" lon="-5.71528">
        <ele>21.82</ele>
        <time>2021-03-20T18:47:19Z</time>
      </trkpt>
      <trkpt lat="57.30184" lon="-5.71368">
        <ele>27.6</ele>
        <time>2021-03-20T18:47:22Z</time>
      </trkpt>
      <trkpt lat="57.30208" lon="-5.71259">
        <ele>30.05</ele>
        <time>2021-03-20T18:47:25Z</time>
      </trkpt>
      <trkpt lat="57.30235" lon="-5.71104">
        <ele>28.77</ele>
        <time>2021-03-20T18:47:29Z</time>
      </trkpt>
      <trkpt lat="57.30259" lon="-5.70981">
        <ele>27.35</ele>
        <time>2021-03-20T18:47:32Z</time>
      </trkpt>
      <trkpt lat="57.30281" lon="-5.70883">
        <ele>27.11</ele>
        <time>2021-03-20T18:47:35Z</time>
      </trkpt>
      <trkpt lat="57.3029" lon="-5.7082">
        <ele>28.43</ele>
        <time>2021-03-20T18:47:38Z</time>
      </trkpt>
      <trkpt lat="57.30315" lon="-5.7058">
        <ele>33.56</ele>
        <time>2021-03-20T18:47:41Z</time>
      </trkpt>
      <trkpt lat="57.30323" lon="-5.70533">
        <ele>36.97</ele>
        <time>2021-03-20T18:47:44Z</time>
      </trkpt>
      <trkpt lat="57.3036" lon="-5.7037">
        <ele>42.31</ele>
        <time>2021-03-20T18:47:47Z</time>
      </trkpt>
      <trkpt lat="57.30395" lon="-5.70204">
        <ele>47.42</ele>
        <time>2021-03-20T18:47:51Z</time>
      </trkpt>
      <trkpt lat="57.30427" lon="-5.70061">
        <ele>52.18</ele>
        <time>2021-03-20T18:47:54Z</time>
      </trkpt>
      <trkpt lat="57.30446" lon="-5.70011">
        <ele>54.01</ele>
        <time>2021-03-20T18:47:57Z</time>
      </trkpt>
      <trkpt lat="57.30473" lon="-5.69974">
        <ele>58.07</ele>
        <time>2021-03-20T18:48:00Z</time>
      </trkpt>
      <trkpt lat="57.30494" lon="-5.69954">
        <ele>61.86</ele>
        <time>2021-03-20T18:48:03Z</time>
      </trkpt>
      <trkpt lat="57.3052" lon="-5.69941">
        <ele>65.89</ele>
        <time>2021-03-20T18:48:06Z</time>
      </trkpt>
      <trkpt lat="57.30573" lon="-5.69938">
        <ele>67.4</ele>
        <time>2021-03-20T18:48:10Z</time>
      </trkpt>
      <trkpt lat="57.30617" lon="-5.69923">
        <ele>68.68</ele>
        <time>2021-03-20T18:48:13Z</time>
      </trkpt>
      <trkpt lat="57.30644" lon="-5.69907">
        <ele>67.25</ele>
        <time>2021-03-20T18:48:16Z</time>
      </trkpt>
      <trkpt lat="57.30723" lon="-5.69842">
        <ele>63.03</ele>
        <time>2021-03-20T18:48:19Z</time>
      </trkpt>
      <trkpt lat="57.30863" lon="-5.69744">
        <ele>61.37</ele>
        <time>2021-03-20T18:48:22Z</time>
      </trkpt>
      <trkpt lat="57.30907" lon="-5.6974">
        <ele>60.27</ele>
        <time>2021-03-20T18:48:25Z</time>
      </trkpt>
      <trkpt lat="57.31025" lon="-5.69768">
        <ele>56.78</ele>
        <time>2021-03-20T18:48:29Z</time>
      </trkpt>
      <trkpt lat="57.31046" lon="-5.69765">
        <ele>54.94</ele>
        <time>2021-03-20T18:48:32Z</time>
      </trkpt>
      <trkpt lat="57.31072" lon="-5.69744">
        <ele>53.75</ele>
        <time>2021-03-20T18:48:35Z</time>
      </trkpt>
      <trkpt lat="57.31093" lon="-5.69709">
        <ele>53.1</ele>
        <time>2021-03-20T18:48:38Z</time>
      </trkpt>
      <trkpt lat="57.31138" lon="-5.69607">
        <ele>49.3</ele>
        <time>2021-03-20T18:48:41Z</time>
      </trkpt>
      <trkpt lat="57.31154" lon="-5.69581">
        <ele>47.48</ele>
        <time>2021-03-20T18:48:44Z</time>
      </trkpt>
      <trkpt lat="57.31179" lon="-5.69566">
        <ele>46.18</ele>
        <time>2021-03-20T18:48:48Z</time>
      </trkpt>
      <trkpt lat="57.31212" lon="-5.69558">
        <ele>44.67</ele>
        <time>2021-03-20T18:48:51Z</time>
      </trkpt>
      <trkpt lat="57.3124" lon="-5.69546">
        <ele>43.42</ele>
        <time>2021-03-20T18:48:54Z</time>
      </trkpt>
      <trkpt lat="57.31285" lon="-5.69519">
        <ele>40.5</ele>
        <time>2021-03-20T18:48:57Z</time>
      </trkpt>
      <trkpt lat="57.31304" lon="-5.69499">
        <ele>38.33</ele>
        <time>2021-03-20T18:49:00Z</time>
      </trkpt>
      <trkpt lat="57.31338" lon="-5.69415">
        <ele>35.73</ele>
        <time>2021-03-20T18:49:03Z</time>
      </trkpt>
      <trkpt lat="57.31346" lon="-5.69405">
        <ele>35.54</ele>
        <time>2021-03-20T18:49:06Z</time>
      </trkpt>
      <trkpt lat="57.31352" lon="-5.69399">
        <ele>35.28</ele>
        <time>2021-03-20T18:49:10Z</time>
      </trkpt>
      <trkpt lat="57.31361" lon="-5.69396">
        <ele>34.76</ele>
        <time>2021-03-20T18:49:13Z</time>
      </trkpt>
      <trkpt lat="57.31414" lon="-5.69394">
        <ele>30.82</ele>
        <time>2021-03-20T18:49:16Z</time>
      </trkpt>
      <trkpt lat="57.31448" lon="-5.69386">
        <ele>28.72</ele>
        <time>2021-03-20T18:49:19Z</time>
      </trkpt>
      <trkpt lat="57.31467" lon="-5.69373">
        <ele>27.13</ele>
        <time>2021-03-20T18:49:22Z</time>
      </trkpt>
      <trkpt lat="57.31483" lon="-5.69356">
        <ele>26.17</ele>
        <time>2021-03-20T18:49:25Z</time>
      </trkpt>
      <trkpt lat="57.31497" lon="-5.69337">
        <ele>25.34</ele>
        <time>2021-03-20T18:49:29Z</time>
      </trkpt>
      <trkpt lat="57.31512" lon="-5.69308">
        <ele>23.21</ele>
        <time>2021-03-20T18:49:32Z</time>
      </trkpt>
      <trkpt lat="57.31519" lon="-5.69293">
        <ele>22.32</ele>
        <time>2021-03-20T18:49:35Z</time>
      </trkpt>
      <trkpt lat="57.3152" lon="-5.69268">
        <ele>22.08</ele>
        <time>2021-03-20T18:49:38Z</time>
      </trkpt>
      <trkpt lat="57.31517" lon="-5.69244">
        <ele>21.86</ele>
        <time>2021-03-20T18:49:41Z</time>
      </trkpt>
      <trkpt lat="57.315" lon="-5.69193">
        <ele>21.91</ele>
        <time>2021-03-20T18:49:44Z</time>
      </trkpt>
      <trkpt lat="57.31491" lon="-5.69154">
        <ele>22.6</ele>
        <time>2021-03-20T18:49:48Z</time>
      </trkpt>
      <trkpt lat="57.31489" lon="-5.69116">
        <ele>23.97</ele>
        <time>2021-03-20T18:49:51Z</time>
      </trkpt>
      <trkpt lat="57.31497" lon="-5.69022">
        <ele>26.51</ele>
        <time>2021-03-20T18:49:54Z</time>
      </trkpt>
      <trkpt lat="57.31491" lon="-5.68941">
        <ele>29.11</ele>
        <time>2021-03-20T18:49:57Z</time>
      </trkpt>
      <trkpt lat="57.31493" lon="-5.68913">
        <ele>30.23</ele>
        <time>2021-03-20T18:50:00Z</time>
      </trkpt>
      <trkpt lat="57.31501" lon="-5.68887">
        <ele>31.14</ele>
        <time>2021-03-20T18:50:03Z</time>
      </trkpt>
      <trkpt lat="57.31555" lon="-5.68838">
        <ele>28.82</ele>
        <time>2021-03-20T18:50:07Z</time>
      </trkpt>
      <trkpt lat="57.31566" lon="-5.68822">
        <ele>28.94</ele>
        <time>2021-03-20T18:50:10Z</time>
      </trkpt>
      <trkpt lat="57.31603" lon="-5.68745">
        <ele>28.03</ele>
        <time>2021-03-20T18:50:13Z</time>
      </trkpt>
      <trkpt lat="57.31612" lon="-5.68736">
        <ele>27.46</ele>
        <time>2021-03-20T18:50:16Z</time>
      </trkpt>
      <trkpt lat="57.31621" lon="-5.68731">
        <ele>27.22</ele>
        <time>2021-03-20T18:50:19Z</time>
      </trkpt>
      <trkpt lat="57.31646" lon="-5.68722">
        <ele>26.74</ele>
        <time>2021-03-20T18:50:22Z</time>
      </trkpt>
      <trkpt lat="57.31667" lon="-5.6871">
        <ele>26.46</ele>
        <time>2021-03-20T18:50:25Z</time>
      </trkpt>
      <trkpt lat="57.3169" lon="-5.68676">
        <ele>27.77</ele>
        <time>2021-03-20T18:50:29Z</time>
      </trkpt>
      <trkpt lat="57.31704" lon="-5.68639">
        <ele>27.56</ele>
        <time>2021-03-20T18:50:32Z</time>
      </trkpt>
      <trkpt lat="57.31713" lon="-5.686">
        <ele>27.36</ele>
        <time>2021-03-20T18:50:35Z</time>
      </trkpt>
      <trkpt lat="57.31719" lon="-5.68549">
        <ele>27.45</ele>
        <time>2021-03-20T18:50:38Z</time>
      </trkpt>
      <trkpt lat="57.31723" lon="-5.68476">
        <ele>28.82</ele>
        <time>2021-03-20T18:50:41Z</time>
      </trkpt>
      <trkpt lat="57.3173" lon="-5.68442">
        <ele>29.57</ele>
        <time>2021-03-20T18:50:44Z</time>
      </trkpt>
      <trkpt lat="57.31756" lon="-5.68391">
        <ele>29.68</ele>
        <time>2021-03-20T18:50:48Z</time>
      </trkpt>
      <trkpt lat="57.31773" lon="-5.6837">
        <ele>30.67</ele>
        <time>2021-03-20T18:50:51Z</time>
      </trkpt>
      <trkpt lat="57.31797" lon="-5.68329">
        <ele>32.33</ele>
        <time>2021-03-20T18:50:54Z</time>
      </trkpt>
      <trkpt lat="57.31822" lon="-5.68238">
        <ele>34.06</ele>
        <time>2021-03-20T18:50:57Z</time>
      </trkpt>
      <trkpt lat="57.31835" lon="-5.68156">
        <ele>33.84</ele>
        <time>2021-03-20T18:51:00Z</time>
      </trkpt>
      <trkpt lat="57.31839" lon="-5.68107">
        <ele>33.59</ele>
        <time>2021-03-20T18:51:03Z</time>
      </trkpt>
      <trkpt lat="57.3184" lon="-5.68057">
        <ele>33.52</ele>
        <time>2021-03-20T18:51:07Z</time>
      </trkpt>
      <trkpt lat="57.31843" lon="-5.68017">
        <ele>33.32</ele>
        <time>2021-03-20T18:51:10Z</time>
      </trkpt>
      <trkpt lat="57.31842" lon="-5.67977">
        <ele>33.37</ele>
        <time>2021-03-20T18:51:13Z</time>
      </trkpt>
      <trkpt lat="57.31809" lon="-5.67803">
        <ele>35.01</ele>
        <time>2021-03-20T18:51:16Z</time>
      </trkpt>
      <trkpt lat="57.31774" lon="-5.67652">
        <ele>39.42</ele>
        <time>2021-03-20T18:51:19Z</time>
      </trkpt>
      <trkpt lat="57.31793" lon="-5.67643">
        <ele>38.46</ele>
        <time>2021-03-20T18:51:22Z</time>
      </trkpt>
      <trkpt lat="57.31804" lon="-5.67641">
        <ele>38.06</ele>
        <time>2021-03-20T18:51:24Z</time>
      </trkpt>
      <trkpt lat="57.31816" lon="-5.67632">
        <ele>39.77</ele>
        <time>2021-03-20T18:51:27Z</time>
      </trkpt>
      <trkpt lat="57.31829" lon="-5.67618">
        <ele>42.19</ele>
        <time>2021-03-20T18:51:29Z</time>
      </trkpt>
      <trkpt lat="57.31842" lon="-5.67591">
        <ele>44.52</ele>
        <time>2021-03-20T18:51:31Z</time>
      </trkpt>
      <trkpt lat="57.31859" lon="-5.67553">
        <ele>47.63</ele>
        <time>2021-03-20T18:51:34Z</time>
      </trkpt>
      <trkpt lat="57.31913" lon="-5.67457">
        <ele>48.25</ele>
        <time>2021-03-20T18:51:36Z</time>
      </trkpt>
      <trkpt lat="57.31881" lon="-5.67332">
        <ele>45.2</ele>
        <time>2021-03-20T18:51:40Z</time>
      </trkpt>
      <trkpt lat="57.31856" lon="-5.67246">
        <ele>45.57</ele>
        <time>2021-03-20T18:51:44Z</time>
      </trkpt>
      <trkpt lat="57.31836" lon="-5.67158">
        <ele>48.93</ele>
        <time>2021-03-20T18:51:47Z</time>
      </trkpt>
      <trkpt lat="57.31827" lon="-5.67105">
        <ele>51.31</ele>
        <time>2021-03-20T18:51:51Z</time>
      </trkpt>
      <trkpt lat="57.31825" lon="-5.67073">
        <ele>51.34</ele>
        <time>2021-03-20T18:51:55Z</time>
      </trkpt>
      <trkpt lat="57.31823" lon="-5.6689">
        <ele>57.44</ele>
        <time>2021-03-20T18:51:59Z</time>
      </trkpt>
      <trkpt lat="57.31832" lon="-5.66717">
        <ele>54.67</ele>
        <time>2021-03-20T18:52:02Z</time>
      </trkpt>
      <trkpt lat="57.31851" lon="-5.66546">
        <ele>56.29</ele>
        <time>2021-03-20T18:52:06Z</time>
      </trkpt>
      <trkpt lat="57.31877" lon="-5.66384">
        <ele>56.11</ele>
        <time>2021-03-20T18:52:10Z</time>
      </trkpt>
      <trkpt lat="57.3192" lon="-5.6628">
        <ele>56.53</ele>
        <time>2021-03-20T18:52:14Z</time>
      </trkpt>
      <trkpt lat="57.31957" lon="-5.66201">
        <ele>62.11</ele>
        <time>2021-03-20T18:52:17Z</time>
      </trkpt>
      <trkpt lat="57.3198" lon="-5.66096">
        <ele>69.24</ele>
        <time>2021-03-20T18:52:21Z</time>
      </trkpt>
      <trkpt lat="57.31984" lon="-5.6601">
        <ele>73.05</ele>
        <time>2021-03-20T18:52:25Z</time>
      </trkpt>
      <trkpt lat="57.31977" lon="-5.65903">
        <ele>78.54</ele>
        <time>2021-03-20T18:52:29Z</time>
      </trkpt>
      <trkpt lat="57.31985" lon="-5.65739">
        <ele>85.8</ele>
        <time>2021-03-20T18:52:32Z</time>
      </trkpt>
      <trkpt lat="57.31997" lon="-5.65608">
        <ele>90.34</ele>
        <time>2021-03-20T18:52:36Z</time>
      </trkpt>
      <trkpt lat="57.32013" lon="-5.65489">
        <ele>99.04</ele>
        <time>2021-03-20T18:52:40Z</time>
      </trkpt>
      <trkpt lat="57.32033" lon="-5.65401">
        <ele>104.44</ele>
        <time>2021-03-20T18:52:43Z</time>
      </trkpt>
      <trkpt lat="57.32049" lon="-5.65257">
        <ele>101.39</ele>
        <time>2021-03-20T18:52:47Z</time>
      </trkpt>
      <trkpt lat="57.32063" lon="-5.65158">
        <ele>99.06</ele>
        <time>2021-03-20T18:52:51Z</time>
      </trkpt>
      <trkpt lat="57.32078" lon="-5.65106">
        <ele>102.21</ele>
        <time>2021-03-20T18:52:55Z</time>
      </trkpt>
      <trkpt lat="57.32103" lon="-5.65036">
        <ele>105.02</ele>
        <time>2021-03-20T18:52:58Z</time>
      </trkpt>
      <trkpt lat="57.32141" lon="-5.64985">
        <ele>109.82</ele>
        <time>2021-03-20T18:53:02Z</time>
      </trkpt>
      <trkpt lat="57.32325" lon="-5.64799">
        <ele>115.97</ele>
        <time>2021-03-20T18:53:06Z</time>
      </trkpt>
      <trkpt lat="57.32351" lon="-5.64755">
        <ele>115.11</ele>
        <time>2021-03-20T18:53:10Z</time>
      </trkpt>
      <trkpt lat="57.32375" lon="-5.64702">
        <ele>114.16</ele>
        <time>2021-03-20T18:53:13Z</time>
      </trkpt>
      <trkpt lat="57.32456" lon="-5.64494">
        <ele>115.91</ele>
        <time>2021-03-20T18:53:17Z</time>
      </trkpt>
      <trkpt lat="57.32485" lon="-5.64451">
        <ele>117.03</ele>
        <time>2021-03-20T18:53:21Z</time>
      </trkpt>
      <trkpt lat="57.32572" lon="-5.64402">
        <ele>116.77</ele>
        <time>2021-03-20T18:53:24Z</time>
      </trkpt>
      <trkpt lat="57.32594" lon="-5.64373">
        <ele>114.83</ele>
        <time>2021-03-20T18:53:28Z</time>
      </trkpt>
      <trkpt lat="57.32693" lon="-5.64124">
        <ele>109.39</ele>
        <time>2021-03-20T18:53:32Z</time>
      </trkpt>
      <trkpt lat="57.32705" lon="-5.64102">
        <ele>109.05</ele>
        <time>2021-03-20T18:53:36Z</time>
      </trkpt>
      <trkpt lat="57.32718" lon="-5.6409">
        <ele>109.1</ele>
        <time>2021-03-20T18:53:39Z</time>
      </trkpt>
      <trkpt lat="57.32744" lon="-5.64086">
        <ele>108.31</ele>
        <time>2021-03-20T18:53:43Z</time>
      </trkpt>
      <trkpt lat="57.32775" lon="-5.64111">
        <ele>109.03</ele>
        <time>2021-03-20T18:53:47Z</time>
      </trkpt>
      <trkpt lat="57.32823" lon="-5.64182">
        <ele>112.15</ele>
        <time>2021-03-20T18:53:51Z</time>
      </trkpt>
      <trkpt lat="57.32841" lon="-5.64198">
        <ele>111.07</ele>
        <time>2021-03-20T18:53:54Z</time>
      </trkpt>
      <trkpt lat="57.32863" lon="-5.642">
        <ele>107.72</ele>
        <time>2021-03-20T18:53:58Z</time>
      </trkpt>
      <trkpt lat="57.32882" lon="-5.64189">
        <ele>104.43</ele>
        <time>2021-03-20T18:54:02Z</time>
      </trkpt>
      <trkpt lat="57.32916" lon="-5.6416">
        <ele>99.07</ele>
        <time>2021-03-20T18:54:06Z</time>
      </trkpt>
      <trkpt lat="57.3299" lon="-5.64068">
        <ele>97.29</ele>
        <time>2021-03-20T18:54:09Z</time>
      </trkpt>
      <trkpt lat="57.33021" lon="-5.64041">
        <ele>93.68</ele>
        <time>2021-03-20T18:54:13Z</time>
      </trkpt>
      <trkpt lat="57.33057" lon="-5.64002">
        <ele>90.9</ele>
        <time>2021-03-20T18:54:17Z</time>
      </trkpt>
      <trkpt lat="57.33072" lon="-5.64">
        <ele>89.84</ele>
        <time>2021-03-20T18:54:20Z</time>
      </trkpt>
      <trkpt lat="57.33089" lon="-5.64017">
        <ele>87.9</ele>
        <time>2021-03-20T18:54:24Z</time>
      </trkpt>
      <trkpt lat="57.33099" lon="-5.64042">
        <ele>85.53</ele>
        <time>2021-03-20T18:54:28Z</time>
      </trkpt>
      <trkpt lat="57.33106" lon="-5.64098">
        <ele>82.76</ele>
        <time>2021-03-20T18:54:32Z</time>
      </trkpt>
      <trkpt lat="57.33106" lon="-5.64229">
        <ele>79.95</ele>
        <time>2021-03-20T18:54:35Z</time>
      </trkpt>
      <trkpt lat="57.33125" lon="-5.64268">
        <ele>75.63</ele>
        <time>2021-03-20T18:54:39Z</time>
      </trkpt>
      <trkpt lat="57.33145" lon="-5.64277">
        <ele>70.45</ele>
        <time>2021-03-20T18:54:42Z</time>
      </trkpt>
      <trkpt lat="57.33156" lon="-5.64274">
        <ele>67.84</ele>
        <time>2021-03-20T18:54:45Z</time>
      </trkpt>
      <trkpt lat="57.33172" lon="-5.64262">
        <ele>64.74</ele>
        <time>2021-03-20T18:54:47Z</time>
      </trkpt>
      <trkpt lat="57.33182" lon="-5.64232">
        <ele>65.04</ele>
        <time>2021-03-20T18:54:50Z</time>
      </trkpt>
      <trkpt lat="57.33192" lon="-5.64209">
        <ele>64.77</ele>
        <time>2021-03-20T18:54:53Z</time>
      </trkpt>
      <trkpt lat="57.33227" lon="-5.64101">
        <ele>62.19</ele>
        <time>2021-03-20T18:54:56Z</time>
      </trkpt>
      <trkpt lat="57.3325" lon="-5.6405">
        <ele>61.38</ele>
        <time>2021-03-20T18:54:59Z</time>
      </trkpt>
      <trkpt lat="57.33271" lon="-5.64011">
        <ele>61.75</ele>
        <time>2021-03-20T18:55:01Z</time>
      </trkpt>
      <trkpt lat="57.33293" lon="-5.63978">
        <ele>61.23</ele>
        <time>2021-03-20T18:55:04Z</time>
      </trkpt>
      <trkpt lat="57.33367" lon="-5.63893">
        <ele>59.53</ele>
        <time>2021-03-20T18:55:07Z</time>
      </trkpt>
      <trkpt lat="57.33393" lon="-5.63833">
        <ele>61.76</ele>
        <time>2021-03-20T18:55:10Z</time>
      </trkpt>
      <trkpt lat="57.3341" lon="-5.63779">
        <ele>60.93</ele>
        <time>2021-03-20T18:55:12Z</time>
      </trkpt>
      <trkpt lat="57.33417" lon="-5.63751">
        <ele>59.99</ele>
        <time>2021-03-20T18:55:15Z</time>
      </trkpt>
      <trkpt lat="57.33423" lon="-5.63715">
        <ele>59.09</ele>
        <time>2021-03-20T18:55:18Z</time>
      </trkpt>
      <trkpt lat="57.33425" lon="-5.63658">
        <ele>57.34</ele>
        <time>2021-03-20T18:55:21Z</time>
      </trkpt>
      <trkpt lat="57.33423" lon="-5.63563">
        <ele>53.35</ele>
        <time>2021-03-20T18:55:23Z</time>
      </trkpt>
      <trkpt lat="57.33411" lon="-5.63493">
        <ele>55.38</ele>
        <time>2021-03-20T18:55:26Z</time>
      </trkpt>
      <trkpt lat="57.33412" lon="-5.63474">
        <ele>55.9</ele>
        <time>2021-03-20T18:55:29Z</time>
      </trkpt>
      <trkpt lat="57.33419" lon="-5.63421">
        <ele>56.15</ele>
        <time>2021-03-20T18:55:32Z</time>
      </trkpt>
      <trkpt lat="57.3342" lon="-5.63396">
        <ele>56.66</ele>
        <time>2021-03-20T18:55:35Z</time>
      </trkpt>
      <trkpt lat="57.33415" lon="-5.63325">
        <ele>59.72</ele>
        <time>2021-03-20T18:55:37Z</time>
      </trkpt>
      <trkpt lat="57.33426" lon="-5.6328">
        <ele>58.35</ele>
        <time>2021-03-20T18:55:40Z</time>
      </trkpt>
      <trkpt lat="57.3344" lon="-5.63236">
        <ele>57.92</ele>
        <time>2021-03-20T18:55:43Z</time>
      </trkpt>
      <trkpt lat="57.33482" lon="-5.63158">
        <ele>56.46</ele>
        <time>2021-03-20T18:55:46Z</time>
      </trkpt>
      <trkpt lat="57.33504" lon="-5.63111">
        <ele>55.77</ele>
        <time>2021-03-20T18:55:48Z</time>
      </trkpt>
      <trkpt lat="57.33557" lon="-5.6297">
        <ele>61.23</ele>
        <time>2021-03-20T18:55:51Z</time>
      </trkpt>
      <trkpt lat="57.33583" lon="-5.62876">
        <ele>65.49</ele>
        <time>2021-03-20T18:55:54Z</time>
      </trkpt>
      <trkpt lat="57.33611" lon="-5.62728">
        <ele>67.1</ele>
        <time>2021-03-20T18:55:57Z</time>
      </trkpt>
      <trkpt lat="57.33619" lon="-5.62654">
        <ele>66.06</ele>
        <time>2021-03-20T18:55:59Z</time>
      </trkpt>
      <trkpt lat="57.33622" lon="-5.62587">
        <ele>67.18</ele>
        <time>2021-03-20T18:56:02Z</time>
      </trkpt>
      <trkpt lat="57.33617" lon="-5.62482">
        <ele>61.34</ele>
        <time>2021-03-20T18:56:05Z</time>
      </trkpt>
      <trkpt lat="57.33599" lon="-5.62314">
        <ele>53.53</ele>
        <time>2021-03-20T18:56:08Z</time>
      </trkpt>
      <trkpt lat="57.33602" lon="-5.62263">
        <ele>49.89</ele>
        <time>2021-03-20T18:56:11Z</time>
      </trkpt>
      <trkpt lat="57.33598" lon="-5.62226">
        <ele>49.45</ele>
        <time>2021-03-20T18:56:13Z</time>
      </trkpt>
      <trkpt lat="57.33587" lon="-5.62184">
        <ele>51.47</ele>
        <time>2021-03-20T18:56:16Z</time>
      </trkpt>
      <trkpt lat="57.33585" lon="-5.62152">
        <ele>52.09</ele>
        <time>2021-03-20T18:56:19Z</time>
      </trkpt>
      <trkpt lat="57.33589" lon="-5.62118">
        <ele>51.52</ele>
        <time>2021-03-20T18:56:22Z</time>
      </trkpt>
      <trkpt lat="57.33635" lon="-5.61967">
        <ele>38.95</ele>
        <time>2021-03-20T18:56:24Z</time>
      </trkpt>
      <trkpt lat="57.33641" lon="-5.6194">
        <ele>37.03</ele>
        <time>2021-03-20T18:56:27Z</time>
      </trkpt>
      <trkpt lat="57.33642" lon="-5.61903">
        <ele>37.26</ele>
        <time>2021-03-20T18:56:30Z</time>
      </trkpt>
      <trkpt lat="57.33647" lon="-5.6185">
        <ele>35.89</ele>
        <time>2021-03-20T18:56:33Z</time>
      </trkpt>
      <trkpt lat="57.3364" lon="-5.61815">
        <ele>37.66</ele>
        <time>2021-03-20T18:56:35Z</time>
      </trkpt>
      <trkpt lat="57.33629" lon="-5.61785">
        <ele>39.91</ele>
        <time>2021-03-20T18:56:38Z</time>
      </trkpt>
      <trkpt lat="57.33626" lon="-5.61767">
        <ele>40.92</ele>
        <time>2021-03-20T18:56:41Z</time>
      </trkpt>
      <trkpt lat="57.33631" lon="-5.61745">
        <ele>41.54</ele>
        <time>2021-03-20T18:56:44Z</time>
      </trkpt>
      <trkpt lat="57.33641" lon="-5.61733">
        <ele>40.88</ele>
        <time>2021-03-20T18:56:47Z</time>
      </trkpt>
      <trkpt lat="57.3365" lon="-5.61727">
        <ele>39.73</ele>
        <time>2021-03-20T18:56:49Z</time>
      </trkpt>
      <trkpt lat="57.33682" lon="-5.61716">
        <ele>33.84</ele>
        <time>2021-03-20T18:56:52Z</time>
      </trkpt>
      <trkpt lat="57.33694" lon="-5.61699">
        <ele>32.72</ele>
        <time>2021-03-20T18:56:55Z</time>
      </trkpt>
      <trkpt lat="57.33703" lon="-5.61673">
        <ele>33.58</ele>
        <time>2021-03-20T18:56:58Z</time>
      </trkpt>
      <trkpt lat="57.33722" lon="-5.61598">
        <ele>34.36</ele>
        <time>2021-03-20T18:57:00Z</time>
      </trkpt>
      <trkpt lat="57.33734" lon="-5.61558">
        <ele>36.68</ele>
        <time>2021-03-20T18:57:03Z</time>
      </trkpt>
      <trkpt lat="57.33756" lon="-5.6151">
        <ele>39.46</ele>
        <time>2021-03-20T18:57:06Z</time>
      </trkpt>
      <trkpt lat="57.33797" lon="-5.61454">
        <ele>37.64</ele>
        <time>2021-03-20T18:57:09Z</time>
      </trkpt>
      <trkpt lat="57.33815" lon="-5.61419">
        <ele>38.1</ele>
        <time>2021-03-20T18:57:11Z</time>
      </trkpt>
      <trkpt lat="57.33869" lon="-5.61271">
        <ele>36.77</ele>
        <time>2021-03-20T18:57:14Z</time>
      </trkpt>
      <trkpt lat="57.33901" lon="-5.6118">
        <ele>34.9</ele>
        <time>2021-03-20T18:57:17Z</time>
      </trkpt>
      <trkpt lat="57.33918" lon="-5.61124">
        <ele>38.24</ele>
        <time>2021-03-20T18:57:20Z</time>
      </trkpt>
      <trkpt lat="57.33925" lon="-5.61083">
        <ele>40.53</ele>
        <time>2021-03-20T18:57:23Z</time>
      </trkpt>
      <trkpt lat="57.3393" lon="-5.61026">
        <ele>45.39</ele>
        <time>2021-03-20T18:57:25Z</time>
      </trkpt>
      <trkpt lat="57.33938" lon="-5.61">
        <ele>46.18</ele>
        <time>2021-03-20T18:57:28Z</time>
      </trkpt>
      <trkpt lat="57.33958" lon="-5.6097">
        <ele>43.5</ele>
        <time>2021-03-20T18:57:31Z</time>
      </trkpt>
      <trkpt lat="57.33968" lon="-5.60944">
        <ele>43.35</ele>
        <time>2021-03-20T18:57:34Z</time>
      </trkpt>
      <trkpt lat="57.33974" lon="-5.60897">
        <ele>45.58</ele>
        <time>2021-03-20T18:57:36Z</time>
      </trkpt>
      <trkpt lat="57.33982" lon="-5.60728">
        <ele>47.64</ele>
        <time>2021-03-20T18:57:39Z</time>
      </trkpt>
      <trkpt lat="57.33989" lon="-5.6066">
        <ele>47.23</ele>
        <time>2021-03-20T18:57:42Z</time>
      </trkpt>
      <trkpt lat="57.33999" lon="-5.60594">
        <ele>47.53</ele>
        <time>2021-03-20T18:57:45Z</time>
      </trkpt>
      <trkpt lat="57.34016" lon="-5.60549">
        <ele>46.71</ele>
        <time>2021-03-20T18:57:47Z</time>
      </trkpt>
      <trkpt lat="57.34066" lon="-5.60447">
        <ele>45.25</ele>
        <time>2021-03-20T18:57:50Z</time>
      </trkpt>
      <trkpt lat="57.34088" lon="-5.60392">
        <ele>44.38</ele>
        <time>2021-03-20T18:57:53Z</time>
      </trkpt>
      <trkpt lat="57.34107" lon="-5.60336">
        <ele>46.03</ele>
        <time>2021-03-20T18:57:56Z</time>
      </trkpt>
      <trkpt lat="57.34132" lon="-5.60229">
        <ele>48.64</ele>
        <time>2021-03-20T18:57:59Z</time>
      </trkpt>
      <trkpt lat="57.34158" lon="-5.60156">
        <ele>48.78</ele>
        <time>2021-03-20T18:58:01Z</time>
      </trkpt>
      <trkpt lat="57.34173" lon="-5.60125">
        <ele>49.65</ele>
        <time>2021-03-20T18:58:04Z</time>
      </trkpt>
      <trkpt lat="57.3419" lon="-5.60095">
        <ele>50.39</ele>
        <time>2021-03-20T18:58:07Z</time>
      </trkpt>
      <trkpt lat="57.34226" lon="-5.60056">
        <ele>49.78</ele>
        <time>2021-03-20T18:58:10Z</time>
      </trkpt>
      <trkpt lat="57.34244" lon="-5.60024">
        <ele>49.54</ele>
        <time>2021-03-20T18:58:12Z</time>
      </trkpt>
      <trkpt lat="57.34257" lon="-5.59982">
        <ele>50.72</ele>
        <time>2021-03-20T18:58:15Z</time>
      </trkpt>
      <trkpt lat="57.34263" lon="-5.59947">
        <ele>53.53</ele>
        <time>2021-03-20T18:58:18Z</time>
      </trkpt>
      <trkpt lat="57.34267" lon="-5.59881">
        <ele>55.06</ele>
        <time>2021-03-20T18:58:21Z</time>
      </trkpt>
      <trkpt lat="57.34283" lon="-5.59764">
        <ele>52.12</ele>
        <time>2021-03-20T18:58:23Z</time>
      </trkpt>
      <trkpt lat="57.34291" lon="-5.59659">
        <ele>68.05</ele>
        <time>2021-03-20T18:58:26Z</time>
      </trkpt>
      <trkpt lat="57.34282" lon="-5.5939">
        <ele>58.61</ele>
        <time>2021-03-20T18:58:29Z</time>
      </trkpt>
      <trkpt lat="57.34287" lon="-5.59294">
        <ele>62.52</ele>
        <time>2021-03-20T18:58:32Z</time>
      </trkpt>
      <trkpt lat="57.34297" lon="-5.59255">
        <ele>56.78</ele>
        <time>2021-03-20T18:58:35Z</time>
      </trkpt>
      <trkpt lat="57.34313" lon="-5.59223">
        <ele>50.58</ele>
        <time>2021-03-20T18:58:37Z</time>
      </trkpt>
      <trkpt lat="57.34354" lon="-5.59152">
        <ele>42.34</ele>
        <time>2021-03-20T18:58:40Z</time>
      </trkpt>
      <trkpt lat="57.34363" lon="-5.59124">
        <ele>38.27</ele>
        <time>2021-03-20T18:58:43Z</time>
      </trkpt>
      <trkpt lat="57.34367" lon="-5.59094">
        <ele>35.86</ele>
        <time>2021-03-20T18:58:46Z</time>
      </trkpt>
      <trkpt lat="57.34363" lon="-5.58982">
        <ele>40.27</ele>
        <time>2021-03-20T18:58:48Z</time>
      </trkpt>
      <trkpt lat="57.34363" lon="-5.58885">
        <ele>34.08</ele>
        <time>2021-03-20T18:58:51Z</time>
      </trkpt>
      <trkpt lat="57.34351" lon="-5.58765">
        <ele>32.77</ele>
        <time>2021-03-20T18:58:54Z</time>
      </trkpt>
      <trkpt lat="57.34336" lon="-5.58661">
        <ele>28.68</ele>
        <time>2021-03-20T18:58:57Z</time>
      </trkpt>
      <trkpt lat="57.34246" lon="-5.58334">
        <ele>20.55</ele>
        <time>2021-03-20T18:59:00Z</time>
      </trkpt>
      <trkpt lat="57.34216" lon="-5.58243">
        <ele>17.24</ele>
        <time>2021-03-20T18:59:02Z</time>
      </trkpt>
      <trkpt lat="57.3418" lon="-5.58164">
        <ele>18.26</ele>
        <time>2021-03-20T18:59:05Z</time>
      </trkpt>
      <trkpt lat="57.34141" lon="-5.58084">
        <ele>19.69</ele>
        <time>2021-03-20T18:59:08Z</time>
      </trkpt>
      <trkpt lat="57.3411" lon="-5.58018">
        <ele>19.51</ele>
        <time>2021-03-20T18:59:11Z</time>
      </trkpt>
      <trkpt lat="57.34085" lon="-5.57954">
        <ele>18.82</ele>
        <time>2021-03-20T18:59:13Z</time>
      </trkpt>
      <trkpt lat="57.34064" lon="-5.5788">
        <ele>16.29</ele>
        <time>2021-03-20T18:59:16Z</time>
      </trkpt>
      <trkpt lat="57.34055" lon="-5.57826">
        <ele>14.94</ele>
        <time>2021-03-20T18:59:19Z</time>
      </trkpt>
      <trkpt lat="57.34037" lon="-5.57762">
        <ele>16.02</ele>
        <time>2021-03-20T18:59:22Z</time>
      </trkpt>
      <trkpt lat="57.34033" lon="-5.57705">
        <ele>15.25</ele>
        <time>2021-03-20T18:59:24Z</time>
      </trkpt>
      <trkpt lat="57.34018" lon="-5.57652">
        <ele>16.81</ele>
        <time>2021-03-20T18:59:27Z</time>
      </trkpt>
      <trkpt lat="57.34015" lon="-5.57631">
        <ele>17.48</ele>
        <time>2021-03-20T18:59:30Z</time>
      </trkpt>
      <trkpt lat="57.34018" lon="-5.57619">
        <ele>17.29</ele>
        <time>2021-03-20T18:59:33Z</time>
      </trkpt>
      <trkpt lat="57.34054" lon="-5.57567">
        <ele>18.24</ele>
        <time>2021-03-20T18:59:36Z</time>
      </trkpt>
      <trkpt lat="57.34071" lon="-5.57532">
        <ele>19.08</ele>
        <time>2021-03-20T18:59:38Z</time>
      </trkpt>
      <trkpt lat="57.34089" lon="-5.57463">
        <ele>24.09</ele>
        <time>2021-03-20T18:59:41Z</time>
      </trkpt>
      <trkpt lat="57.34096" lon="-5.57406">
        <ele>26.74</ele>
        <time>2021-03-20T18:59:44Z</time>
      </trkpt>
      <trkpt lat="57.34096" lon="-5.57329">
        <ele>27.98</ele>
        <time>2021-03-20T18:59:47Z</time>
      </trkpt>
      <trkpt lat="57.34089" lon="-5.5726">
        <ele>26.77</ele>
        <time>2021-03-20T18:59:49Z</time>
      </trkpt>
      <trkpt lat="57.34067" lon="-5.57207">
        <ele>25.67</ele>
        <time>2021-03-20T18:59:52Z</time>
      </trkpt>
      <trkpt lat="57.33956" lon="-5.57037">
        <ele>24.75</ele>
        <time>2021-03-20T18:59:55Z</time>
      </trkpt>
      <trkpt lat="57.33905" lon="-5.56972">
        <ele>23.83</ele>
        <time>2021-03-20T18:59:58Z</time>
      </trkpt>
      <trkpt lat="57.33893" lon="-5.56953">
        <ele>23.42</ele>
        <time>2021-03-20T19:00:00Z</time>
      </trkpt>
      <trkpt lat="57.33877" lon="-5.56921">
        <ele>23.97</ele>
        <time>2021-03-20T19:00:03Z</time>
      </trkpt>
      <trkpt lat="57.3385" lon="-5.56846">
        <ele>23.65</ele>
        <time>2021-03-20T19:00:06Z</time>
      </trkpt>
      <trkpt lat="57.33824" lon="-5.5675">
        <ele>23.63</ele>
        <time>2021-03-20T19:00:09Z</time>
      </trkpt>
      <trkpt lat="57.33812" lon="-5.56661">
        <ele>19.68</ele>
        <time>2021-03-20T19:00:12Z</time>
      </trkpt>
      <trkpt lat="57.33812" lon="-5.56607">
        <ele>17.3</ele>
        <time>2021-03-20T19:00:14Z</time>
      </trkpt>
      <trkpt lat="57.33826" lon="-5.56551">
        <ele>15.55</ele>
        <time>2021-03-20T19:00:17Z</time>
      </trkpt>
      <trkpt lat="57.33847" lon="-5.56511">
        <ele>15.31</ele>
        <time>2021-03-20T19:00:20Z</time>
      </trkpt>
      <trkpt lat="57.33874" lon="-5.56479">
        <ele>15</ele>
        <time>2021-03-20T19:00:23Z</time>
      </trkpt>
      <trkpt lat="57.33909" lon="-5.56463">
        <ele>14.76</ele>
        <time>2021-03-20T19:00:25Z</time>
      </trkpt>
      <trkpt lat="57.33946" lon="-5.56458">
        <ele>15.02</ele>
        <time>2021-03-20T19:00:28Z</time>
      </trkpt>
      <trkpt lat="57.33998" lon="-5.56465">
        <ele>17.59</ele>
        <time>2021-03-20T19:00:31Z</time>
      </trkpt>
      <trkpt lat="57.34158" lon="-5.56477">
        <ele>26</ele>
        <time>2021-03-20T19:00:34Z</time>
      </trkpt>
      <trkpt lat="57.34201" lon="-5.56476">
        <ele>27.22</ele>
        <time>2021-03-20T19:00:36Z</time>
      </trkpt>
      <trkpt lat="57.34234" lon="-5.56466">
        <ele>28</ele>
        <time>2021-03-20T19:00:39Z</time>
      </trkpt>
      <trkpt lat="57.34259" lon="-5.5645">
        <ele>28.06</ele>
        <time>2021-03-20T19:00:42Z</time>
      </trkpt>
      <trkpt lat="57.34285" lon="-5.56421">
        <ele>28.82</ele>
        <time>2021-03-20T19:00:45Z</time>
      </trkpt>
      <trkpt lat="57.34309" lon="-5.56383">
        <ele>32.5</ele>
        <time>2021-03-20T19:00:48Z</time>
      </trkpt>
      <trkpt lat="57.3437" lon="-5.56277">
        <ele>38.91</ele>
        <time>2021-03-20T19:00:50Z</time>
      </trkpt>
      <trkpt lat="57.34376" lon="-5.56272">
        <ele>39.65</ele>
        <time>2021-03-20T19:00:53Z</time>
      </trkpt>
      <trkpt lat="57.3443" lon="-5.56256">
        <ele>44.47</ele>
        <time>2021-03-20T19:00:56Z</time>
      </trkpt>
      <trkpt lat="57.34491" lon="-5.56259">
        <ele>46.91</ele>
        <time>2021-03-20T19:00:59Z</time>
      </trkpt>
      <trkpt lat="57.34507" lon="-5.56255">
        <ele>48.24</ele>
        <time>2021-03-20T19:01:01Z</time>
      </trkpt>
      <trkpt lat="57.34516" lon="-5.56248">
        <ele>49.24</ele>
        <time>2021-03-20T19:01:04Z</time>
      </trkpt>
      <trkpt lat="57.34528" lon="-5.56233">
        <ele>49.84</ele>
        <time>2021-03-20T19:01:07Z</time>
      </trkpt>
      <trkpt lat="57.34562" lon="-5.56173">
        <ele>56.6</ele>
        <time>2021-03-20T19:01:10Z</time>
      </trkpt>
      <trkpt lat="57.34595" lon="-5.5612">
        <ele>59.74</ele>
        <time>2021-03-20T19:01:12Z</time>
      </trkpt>
      <trkpt lat="57.34598" lon="-5.56105">
        <ele>59.57</ele>
        <time>2021-03-20T19:01:15Z</time>
      </trkpt>
      <trkpt lat="57.34598" lon="-5.56089">
        <ele>59.23</ele>
        <time>2021-03-20T19:01:18Z</time>
      </trkpt>
      <trkpt lat="57.3459" lon="-5.56056">
        <ele>56.74</ele>
        <time>2021-03-20T19:01:21Z</time>
      </trkpt>
      <trkpt lat="57.34583" lon="-5.5604">
        <ele>55.96</ele>
        <time>2021-03-20T19:01:24Z</time>
      </trkpt>
      <trkpt lat="57.34601" lon="-5.56013">
        <ele>58.22</ele>
        <time>2021-03-20T19:01:27Z</time>
      </trkpt>
      <trkpt lat="57.34616" lon="-5.55984">
        <ele>61.51</ele>
        <time>2021-03-20T19:01:30Z</time>
      </trkpt>
      <trkpt lat="57.34638" lon="-5.5593">
        <ele>66.86</ele>
        <time>2021-03-20T19:01:33Z</time>
      </trkpt>
      <trkpt lat="57.34651" lon="-5.55891">
        <ele>69.59</ele>
        <time>2021-03-20T19:01:36Z</time>
      </trkpt>
      <trkpt lat="57.34662" lon="-5.55852">
        <ele>71.95</ele>
        <time>2021-03-20T19:01:39Z</time>
      </trkpt>
      <trkpt lat="57.34696" lon="-5.55706">
        <ele>78.18</ele>
        <time>2021-03-20T19:01:42Z</time>
      </trkpt>
      <trkpt lat="57.34722" lon="-5.55598">
        <ele>80.5</ele>
        <time>2021-03-20T19:01:45Z</time>
      </trkpt>
      <trkpt lat="57.34752" lon="-5.55508">
        <ele>83.83</ele>
        <time>2021-03-20T19:01:48Z</time>
      </trkpt>
      <trkpt lat="57.34774" lon="-5.55457">
        <ele>85.81</ele>
        <time>2021-03-20T19:01:51Z</time>
      </trkpt>
      <trkpt lat="57.34798" lon="-5.55407">
        <ele>86.94</ele>
        <time>2021-03-20T19:01:54Z</time>
      </trkpt>
      <trkpt lat="57.34864" lon="-5.55281">
        <ele>87.57</ele>
        <time>2021-03-20T19:01:57Z</time>
      </trkpt>
      <trkpt lat="57.34889" lon="-5.55222">
        <ele>88</ele>
        <time>2021-03-20T19:02:00Z</time>
      </trkpt>
      <trkpt lat="57.34912" lon="-5.55161">
        <ele>90.73</ele>
        <time>2021-03-20T19:02:03Z</time>
      </trkpt>
      <trkpt lat="57.34939" lon="-5.55068">
        <ele>94.22</ele>
        <time>2021-03-20T19:02:06Z</time>
      </trkpt>
      <trkpt lat="57.34965" lon="-5.54955">
        <ele>95.91</ele>
        <time>2021-03-20T19:02:09Z</time>
      </trkpt>
      <trkpt lat="57.34988" lon="-5.54808">
        <ele>103.89</ele>
        <time>2021-03-20T19:02:12Z</time>
      </trkpt>
      <trkpt lat="57.34996" lon="-5.54705">
        <ele>111.07</ele>
        <time>2021-03-20T19:02:15Z</time>
      </trkpt>
      <trkpt lat="57.35043" lon="-5.54376">
        <ele>113.75</ele>
        <time>2021-03-20T19:02:18Z</time>
      </trkpt>
      <trkpt lat="57.35047" lon="-5.54323">
        <ele>115.56</ele>
        <time>2021-03-20T19:02:21Z</time>
      </trkpt>
      <trkpt lat="57.35047" lon="-5.54275">
        <ele>113.61</ele>
        <time>2021-03-20T19:02:24Z</time>
      </trkpt>
      <trkpt lat="57.35039" lon="-5.54204">
        <ele>114.42</ele>
        <time>2021-03-20T19:02:27Z</time>
      </trkpt>
      <trkpt lat="57.35026" lon="-5.54159">
        <ele>116.35</ele>
        <time>2021-03-20T19:02:30Z</time>
      </trkpt>
      <trkpt lat="57.35003" lon="-5.54091">
        <ele>122.95</ele>
        <time>2021-03-20T19:02:33Z</time>
      </trkpt>
      <trkpt lat="57.34986" lon="-5.54029">
        <ele>124.39</ele>
        <time>2021-03-20T19:02:36Z</time>
      </trkpt>
      <trkpt lat="57.34958" lon="-5.53913">
        <ele>128.28</ele>
        <time>2021-03-20T19:02:39Z</time>
      </trkpt>
      <trkpt lat="57.34938" lon="-5.53864">
        <ele>130.18</ele>
        <time>2021-03-20T19:02:42Z</time>
      </trkpt>
      <trkpt lat="57.3492" lon="-5.53839">
        <ele>132.01</ele>
        <time>2021-03-20T19:02:45Z</time>
      </trkpt>
      <trkpt lat="57.34881" lon="-5.53797">
        <ele>134.74</ele>
        <time>2021-03-20T19:02:48Z</time>
      </trkpt>
      <trkpt lat="57.34868" lon="-5.53772">
        <ele>135.92</ele>
        <time>2021-03-20T19:02:51Z</time>
      </trkpt>
      <trkpt lat="57.34859" lon="-5.53742">
        <ele>138.26</ele>
        <time>2021-03-20T19:02:54Z</time>
      </trkpt>
      <trkpt lat="57.34858" lon="-5.53699">
        <ele>138.49</ele>
        <time>2021-03-20T19:02:57Z</time>
      </trkpt>
      <trkpt lat="57.34865" lon="-5.53661">
        <ele>139.37</ele>
        <time>2021-03-20T19:03:00Z</time>
      </trkpt>
      <trkpt lat="57.34895" lon="-5.5357">
        <ele>138.04</ele>
        <time>2021-03-20T19:03:03Z</time>
      </trkpt>
      <trkpt lat="57.34914" lon="-5.53527">
        <ele>133.5</ele>
        <time>2021-03-20T19:03:06Z</time>
      </trkpt>
      <trkpt lat="57.34928" lon="-5.53505">
        <ele>129.57</ele>
        <time>2021-03-20T19:03:09Z</time>
      </trkpt>
      <trkpt lat="57.3496" lon="-5.5347">
        <ele>121.2</ele>
        <time>2021-03-20T19:03:12Z</time>
      </trkpt>
      <trkpt lat="57.34983" lon="-5.53437">
        <ele>118.81</ele>
        <time>2021-03-20T19:03:15Z</time>
      </trkpt>
      <trkpt lat="57.35015" lon="-5.53381">
        <ele>118.44</ele>
        <time>2021-03-20T19:03:18Z</time>
      </trkpt>
      <trkpt lat="57.3505" lon="-5.53305">
        <ele>123.82</ele>
        <time>2021-03-20T19:03:21Z</time>
      </trkpt>
      <trkpt lat="57.35087" lon="-5.5319">
        <ele>131.6</ele>
        <time>2021-03-20T19:03:24Z</time>
      </trkpt>
      <trkpt lat="57.3511" lon="-5.53136">
        <ele>133.13</ele>
        <time>2021-03-20T19:03:27Z</time>
      </trkpt>
      <trkpt lat="57.35144" lon="-5.53069">
        <ele>133.58</ele>
        <time>2021-03-20T19:03:30Z</time>
      </trkpt>
      <trkpt lat="57.35162" lon="-5.53019">
        <ele>133.26</ele>
        <time>2021-03-20T19:03:33Z</time>
      </trkpt>
      <trkpt lat="57.35202" lon="-5.52877">
        <ele>134.82</ele>
        <time>2021-03-20T19:03:36Z</time>
      </trkpt>
      <trkpt lat="57.35236" lon="-5.52799">
        <ele>128.96</ele>
        <time>2021-03-20T19:03:39Z</time>
      </trkpt>
      <trkpt lat="57.35295" lon="-5.5267">
        <ele>122.76</ele>
        <time>2021-03-20T19:03:42Z</time>
      </trkpt>
      <trkpt lat="57.35334" lon="-5.52536">
        <ele>117.47</ele>
        <time>2021-03-20T19:03:45Z</time>
      </trkpt>
      <trkpt lat="57.35359" lon="-5.52483">
        <ele>115.04</ele>
        <time>2021-03-20T19:03:48Z</time>
      </trkpt>
      <trkpt lat="57.35384" lon="-5.52455">
        <ele>114.58</ele>
        <time>2021-03-20T19:03:51Z</time>
      </trkpt>
      <trkpt lat="57.35464" lon="-5.52401">
        <ele>107.83</ele>
        <time>2021-03-20T19:03:54Z</time>
      </trkpt>
      <trkpt lat="57.3548" lon="-5.52379">
        <ele>105.14</ele>
        <time>2021-03-20T19:03:57Z</time>
      </trkpt>
      <trkpt lat="57.35496" lon="-5.52337">
        <ele>103.99</ele>
        <time>2021-03-20T19:04:00Z</time>
      </trkpt>
      <trkpt lat="57.35516" lon="-5.52246">
        <ele>101.54</ele>
        <time>2021-03-20T19:04:03Z</time>
      </trkpt>
      <trkpt lat="57.3553" lon="-5.52196">
        <ele>101.48</ele>
        <time>2021-03-20T19:04:06Z</time>
      </trkpt>
      <trkpt lat="57.35558" lon="-5.52135">
        <ele>105.17</ele>
        <time>2021-03-20T19:04:10Z</time>
      </trkpt>
      <trkpt lat="57.35579" lon="-5.52106">
        <ele>105.65</ele>
        <time>2021-03-20T19:04:13Z</time>
      </trkpt>
      <trkpt lat="57.35644" lon="-5.52037">
        <ele>102.29</ele>
        <time>2021-03-20T19:04:16Z</time>
      </trkpt>
      <trkpt lat="57.35709" lon="-5.5194">
        <ele>99.01</ele>
        <time>2021-03-20T19:04:19Z</time>
      </trkpt>
      <trkpt lat="57.35728" lon="-5.51917">
        <ele>99</ele>
        <time>2021-03-20T19:04:22Z</time>
      </trkpt>
      <trkpt lat="57.35783" lon="-5.51863">
        <ele>94.07</ele>
        <time>2021-03-20T19:04:25Z</time>
      </trkpt>
      <trkpt lat="57.35836" lon="-5.51778">
        <ele>92.58</ele>
        <time>2021-03-20T19:04:28Z</time>
      </trkpt>
      <trkpt lat="57.3588" lon="-5.51726">
        <ele>90.72</ele>
        <time>2021-03-20T19:04:31Z</time>
      </trkpt>
      <trkpt lat="57.3589" lon="-5.517">
        <ele>90.86</ele>
        <time>2021-03-20T19:04:34Z</time>
      </trkpt>
      <trkpt lat="57.35916" lon="-5.51614">
        <ele>89.08</ele>
        <time>2021-03-20T19:04:37Z</time>
      </trkpt>
      <trkpt lat="57.35935" lon="-5.51577">
        <ele>85.54</ele>
        <time>2021-03-20T19:04:40Z</time>
      </trkpt>
      <trkpt lat="57.35992" lon="-5.51486">
        <ele>76.14</ele>
        <time>2021-03-20T19:04:43Z</time>
      </trkpt>
      <trkpt lat="57.36004" lon="-5.51455">
        <ele>75.58</ele>
        <time>2021-03-20T19:04:46Z</time>
      </trkpt>
      <trkpt lat="57.36019" lon="-5.51405">
        <ele>72.78</ele>
        <time>2021-03-20T19:04:49Z</time>
      </trkpt>
      <trkpt lat="57.36043" lon="-5.51275">
        <ele>61.23</ele>
        <time>2021-03-20T19:04:52Z</time>
      </trkpt>
      <trkpt lat="57.36056" lon="-5.51235">
        <ele>59.08</ele>
        <time>2021-03-20T19:04:55Z</time>
      </trkpt>
      <trkpt lat="57.36122" lon="-5.51108">
        <ele>45.42</ele>
        <time>2021-03-20T19:04:58Z</time>
      </trkpt>
      <trkpt lat="57.36164" lon="-5.51012">
        <ele>35.93</ele>
        <time>2021-03-20T19:05:01Z</time>
      </trkpt>
      <trkpt lat="57.36189" lon="-5.5097">
        <ele>30.81</ele>
        <time>2021-03-20T19:05:04Z</time>
      </trkpt>
      <trkpt lat="57.36219" lon="-5.50944">
        <ele>26.67</ele>
        <time>2021-03-20T19:05:07Z</time>
      </trkpt>
      <trkpt lat="57.36297" lon="-5.50891">
        <ele>19.73</ele>
        <time>2021-03-20T19:05:10Z</time>
      </trkpt>
      <trkpt lat="57.36324" lon="-5.50865">
        <ele>17.43</ele>
        <time>2021-03-20T19:05:13Z</time>
      </trkpt>
      <trkpt lat="57.36352" lon="-5.50828">
        <ele>14.72</ele>
        <time>2021-03-20T19:05:16Z</time>
      </trkpt>
      <trkpt lat="57.36384" lon="-5.50773">
        <ele>14.08</ele>
        <time>2021-03-20T19:05:19Z</time>
      </trkpt>
      <trkpt lat="57.36466" lon="-5.50601">
        <ele>22.84</ele>
        <time>2021-03-20T19:05:22Z</time>
      </trkpt>
      <trkpt lat="57.36492" lon="-5.50553">
        <ele>21.67</ele>
        <time>2021-03-20T19:05:25Z</time>
      </trkpt>
      <trkpt lat="57.36518" lon="-5.50514">
        <ele>24.11</ele>
        <time>2021-03-20T19:05:28Z</time>
      </trkpt>
      <trkpt lat="57.36552" lon="-5.50476">
        <ele>23.07</ele>
        <time>2021-03-20T19:05:31Z</time>
      </trkpt>
      <trkpt lat="57.36708" lon="-5.50366">
        <ele>9.8</ele>
        <time>2021-03-20T19:05:34Z</time>
      </trkpt>
      <trkpt lat="57.36735" lon="-5.50338">
        <ele>9</ele>
        <time>2021-03-20T19:05:37Z</time>
      </trkpt>
      <trkpt lat="57.36841" lon="-5.50176">
        <ele>18.32</ele>
        <time>2021-03-20T19:05:40Z</time>
      </trkpt>
      <trkpt lat="57.36872" lon="-5.50137">
        <ele>18.23</ele>
        <time>2021-03-20T19:05:43Z</time>
      </trkpt>
      <trkpt lat="57.3693" lon="-5.50073">
        <ele>15.94</ele>
        <time>2021-03-20T19:05:46Z</time>
      </trkpt>
      <trkpt lat="57.36971" lon="-5.50038">
        <ele>12.43</ele>
        <time>2021-03-20T19:05:49Z</time>
      </trkpt>
      <trkpt lat="57.3708" lon="-5.4997">
        <ele>9.33</ele>
        <time>2021-03-20T19:05:52Z</time>
      </trkpt>
      <trkpt lat="57.37112" lon="-5.49941">
        <ele>8.02</ele>
        <time>2021-03-20T19:05:55Z</time>
      </trkpt>
      <trkpt lat="57.37152" lon="-5.49897">
        <ele>6.35</ele>
        <time>2021-03-20T19:05:58Z</time>
      </trkpt>
      <trkpt lat="57.372" lon="-5.49823">
        <ele>9.28</ele>
        <time>2021-03-20T19:06:01Z</time>
      </trkpt>
      <trkpt lat="57.37305" lon="-5.49647">
        <ele>16.14</ele>
        <time>2021-03-20T19:06:04Z</time>
      </trkpt>
      <trkpt lat="57.3741" lon="-5.49511">
        <ele>10.2</ele>
        <time>2021-03-20T19:06:07Z</time>
      </trkpt>
      <trkpt lat="57.37453" lon="-5.49443">
        <ele>10.2</ele>
        <time>2021-03-20T19:06:10Z</time>
      </trkpt>
      <trkpt lat="57.37477" lon="-5.49381">
        <ele>11.61</ele>
        <time>2021-03-20T19:06:13Z</time>
      </trkpt>
      <trkpt lat="57.3749" lon="-5.49317">
        <ele>11.38</ele>
        <time>2021-03-20T19:06:16Z</time>
      </trkpt>
      <trkpt lat="57.37515" lon="-5.49115">
        <ele>24.18</ele>
        <time>2021-03-20T19:06:19Z</time>
      </trkpt>
      <trkpt lat="57.37559" lon="-5.48956">
        <ele>27.54</ele>
        <time>2021-03-20T19:06:22Z</time>
      </trkpt>
      <trkpt lat="57.37582" lon="-5.4885">
        <ele>28.9</ele>
        <time>2021-03-20T19:06:25Z</time>
      </trkpt>
      <trkpt lat="57.37616" lon="-5.48707">
        <ele>33.71</ele>
        <time>2021-03-20T19:06:28Z</time>
      </trkpt>
      <trkpt lat="57.37639" lon="-5.48633">
        <ele>20.2</ele>
        <time>2021-03-20T19:06:31Z</time>
      </trkpt>
      <trkpt lat="57.37665" lon="-5.48563">
        <ele>15.91</ele>
        <time>2021-03-20T19:06:34Z</time>
      </trkpt>
      <trkpt lat="57.37761" lon="-5.48342">
        <ele>21.96</ele>
        <time>2021-03-20T19:06:37Z</time>
      </trkpt>
      <trkpt lat="57.37795" lon="-5.48285">
        <ele>20.55</ele>
        <time>2021-03-20T19:06:40Z</time>
      </trkpt>
      <trkpt lat="57.37848" lon="-5.4823">
        <ele>16.22</ele>
        <time>2021-03-20T19:06:43Z</time>
      </trkpt>
      <trkpt lat="57.37902" lon="-5.48166">
        <ele>9.07</ele>
        <time>2021-03-20T19:06:46Z</time>
      </trkpt>
      <trkpt lat="57.37929" lon="-5.48108">
        <ele>6.54</ele>
        <time>2021-03-20T19:06:49Z</time>
      </trkpt>
      <trkpt lat="57.37969" lon="-5.47993">
        <ele>16.59</ele>
        <time>2021-03-20T19:06:52Z</time>
      </trkpt>
      <trkpt lat="57.38063" lon="-5.47799">
        <ele>25.07</ele>
        <time>2021-03-20T19:06:55Z</time>
      </trkpt>
      <trkpt lat="57.38102" lon="-5.47692">
        <ele>47.35</ele>
        <time>2021-03-20T19:06:58Z</time>
      </trkpt>
      <trkpt lat="57.38136" lon="-5.47566">
        <ele>47.25</ele>
        <time>2021-03-20T19:07:01Z</time>
      </trkpt>
      <trkpt lat="57.38207" lon="-5.47323">
        <ele>24.43</ele>
        <time>2021-03-20T19:07:04Z</time>
      </trkpt>
      <trkpt lat="57.38227" lon="-5.47268">
        <ele>23.42</ele>
        <time>2021-03-20T19:07:07Z</time>
      </trkpt>
      <trkpt lat="57.38251" lon="-5.47223">
        <ele>22.55</ele>
        <time>2021-03-20T19:07:10Z</time>
      </trkpt>
      <trkpt lat="57.38272" lon="-5.47191">
        <ele>22.07</ele>
        <time>2021-03-20T19:07:13Z</time>
      </trkpt>
      <trkpt lat="57.38329" lon="-5.47115">
        <ele>18.86</ele>
        <time>2021-03-20T19:07:16Z</time>
      </trkpt>
      <trkpt lat="57.38392" lon="-5.47043">
        <ele>15.46</ele>
        <time>2021-03-20T19:07:19Z</time>
      </trkpt>
      <trkpt lat="57.38456" lon="-5.46985">
        <ele>13.03</ele>
        <time>2021-03-20T19:07:22Z</time>
      </trkpt>
      <trkpt lat="57.38494" lon="-5.46948">
        <ele>12.56</ele>
        <time>2021-03-20T19:07:25Z</time>
      </trkpt>
      <trkpt lat="57.38516" lon="-5.46912">
        <ele>15.62</ele>
        <time>2021-03-20T19:07:28Z</time>
      </trkpt>
      <trkpt lat="57.38548" lon="-5.4685">
        <ele>19.34</ele>
        <time>2021-03-20T19:07:32Z</time>
      </trkpt>
      <trkpt lat="57.38557" lon="-5.4682">
        <ele>20.68</ele>
        <time>2021-03-20T19:07:35Z</time>
      </trkpt>
      <trkpt lat="57.38597" lon="-5.46658">
        <ele>22.17</ele>
        <time>2021-03-20T19:07:38Z</time>
      </trkpt>
      <trkpt lat="57.38621" lon="-5.46583">
        <ele>22.57</ele>
        <time>2021-03-20T19:07:41Z</time>
      </trkpt>
      <trkpt lat="57.38699" lon="-5.4639">
        <ele>26.4</ele>
        <time>2021-03-20T19:07:44Z</time>
      </trkpt>
      <trkpt lat="57.38719" lon="-5.46332">
        <ele>30.29</ele>
        <time>2021-03-20T19:07:47Z</time>
      </trkpt>
      <trkpt lat="57.38737" lon="-5.46268">
        <ele>32.13</ele>
        <time>2021-03-20T19:07:50Z</time>
      </trkpt>
      <trkpt lat="57.3877" lon="-5.46107">
        <ele>27.04</ele>
        <time>2021-03-20T19:07:53Z</time>
      </trkpt>
      <trkpt lat="57.38788" lon="-5.46033">
        <ele>23.19</ele>
        <time>2021-03-20T19:07:56Z</time>
      </trkpt>
      <trkpt lat="57.388" lon="-5.4599">
        <ele>20.51</ele>
        <time>2021-03-20T19:07:59Z</time>
      </trkpt>
      <trkpt lat="57.38813" lon="-5.45958">
        <ele>18.49</ele>
        <time>2021-03-20T19:08:02Z</time>
      </trkpt>
      <trkpt lat="57.38824" lon="-5.45934">
        <ele>17.58</ele>
        <time>2021-03-20T19:08:05Z</time>
      </trkpt>
      <trkpt lat="57.38843" lon="-5.45901">
        <ele>16.5</ele>
        <time>2021-03-20T19:08:08Z</time>
      </trkpt>
      <trkpt lat="57.38878" lon="-5.45855">
        <ele>12.62</ele>
        <time>2021-03-20T19:08:11Z</time>
      </trkpt>
      <trkpt lat="57.3909" lon="-5.45649">
        <ele>3.78</ele>
        <time>2021-03-20T19:08:14Z</time>
      </trkpt>
      <trkpt lat="57.39163" lon="-5.45582">
        <ele>3.06</ele>
        <time>2021-03-20T19:08:17Z</time>
      </trkpt>
      <trkpt lat="57.3921" lon="-5.45556">
        <ele>3.97</ele>
        <time>2021-03-20T19:08:20Z</time>
      </trkpt>
      <trkpt lat="57.39285" lon="-5.45524">
        <ele>5.52</ele>
        <time>2021-03-20T19:08:23Z</time>
      </trkpt>
      <trkpt lat="57.39312" lon="-5.45515">
        <ele>6.78</ele>
        <time>2021-03-20T19:08:26Z</time>
      </trkpt>
      <trkpt lat="57.39389" lon="-5.45505">
        <ele>5.83</ele>
        <time>2021-03-20T19:08:29Z</time>
      </trkpt>
      <trkpt lat="57.39433" lon="-5.45503">
        <ele>5.89</ele>
        <time>2021-03-20T19:08:32Z</time>
      </trkpt>
      <trkpt lat="57.39469" lon="-5.4551">
        <ele>6.51</ele>
        <time>2021-03-20T19:08:35Z</time>
      </trkpt>
      <trkpt lat="57.39582" lon="-5.4555">
        <ele>11.73</ele>
        <time>2021-03-20T19:08:38Z</time>
      </trkpt>
      <trkpt lat="57.39645" lon="-5.45585">
        <ele>15.32</ele>
        <time>2021-03-20T19:08:41Z</time>
      </trkpt>
      <trkpt lat="57.39672" lon="-5.45588">
        <ele>16.47</ele>
        <time>2021-03-20T19:08:44Z</time>
      </trkpt>
      <trkpt lat="57.39687" lon="-5.45587">
        <ele>16.25</ele>
        <time>2021-03-20T19:08:47Z</time>
      </trkpt>
      <trkpt lat="57.39721" lon="-5.45571">
        <ele>18.83</ele>
        <time>2021-03-20T19:08:50Z</time>
      </trkpt>
      <trkpt lat="57.39741" lon="-5.45546">
        <ele>23.31</ele>
        <time>2021-03-20T19:08:53Z</time>
      </trkpt>
      <trkpt lat="57.39767" lon="-5.45507">
        <ele>32.81</ele>
        <time>2021-03-20T19:08:56Z</time>
      </trkpt>
      <trkpt lat="57.39795" lon="-5.45482">
        <ele>36.99</ele>
        <time>2021-03-20T19:08:59Z</time>
      </trkpt>
      <trkpt lat="57.39818" lon="-5.4547">
        <ele>39.15</ele>
        <time>2021-03-20T19:09:02Z</time>
      </trkpt>
      <trkpt lat="57.39957" lon="-5.45413">
        <ele>57.35</ele>
        <time>2021-03-20T19:09:05Z</time>
      </trkpt>
      <trkpt lat="57.39978" lon="-5.45396">
        <ele>60.52</ele>
        <time>2021-03-20T19:09:08Z</time>
      </trkpt>
      <trkpt lat="57.39993" lon="-5.45377">
        <ele>63.43</ele>
        <time>2021-03-20T19:09:11Z</time>
      </trkpt>
      <trkpt lat="57.40027" lon="-5.45316">
        <ele>66.41</ele>
        <time>2021-03-20T19:09:14Z</time>
      </trkpt>
      <trkpt lat="57.40049" lon="-5.45264">
        <ele>66.25</ele>
        <time>2021-03-20T19:09:17Z</time>
      </trkpt>
      <trkpt lat="57.40139" lon="-5.45018">
        <ele>76.16</ele>
        <time>2021-03-20T19:09:20Z</time>
      </trkpt>
      <trkpt lat="57.40157" lon="-5.44956">
        <ele>79.18</ele>
        <time>2021-03-20T19:09:23Z</time>
      </trkpt>
      <trkpt lat="57.40172" lon="-5.44887">
        <ele>81.41</ele>
        <time>2021-03-20T19:09:26Z</time>
      </trkpt>
      <trkpt lat="57.40184" lon="-5.44857">
        <ele>80.43</ele>
        <time>2021-03-20T19:09:29Z</time>
      </trkpt>
      <trkpt lat="57.40199" lon="-5.44832">
        <ele>80.07</ele>
        <time>2021-03-20T19:09:32Z</time>
      </trkpt>
      <trkpt lat="57.40218" lon="-5.44818">
        <ele>78.15</ele>
        <time>2021-03-20T19:09:35Z</time>
      </trkpt>
      <trkpt lat="57.40236" lon="-5.44812">
        <ele>74.86</ele>
        <time>2021-03-20T19:09:38Z</time>
      </trkpt>
      <trkpt lat="57.40268" lon="-5.44812">
        <ele>69.04</ele>
        <time>2021-03-20T19:09:41Z</time>
      </trkpt>
      <trkpt lat="57.40304" lon="-5.44804">
        <ele>66.21</ele>
        <time>2021-03-20T19:09:44Z</time>
      </trkpt>
      <trkpt lat="57.40383" lon="-5.44765">
        <ele>59.01</ele>
        <time>2021-03-20T19:09:47Z</time>
      </trkpt>
      <trkpt lat="57.40414" lon="-5.44757">
        <ele>55.56</ele>
        <time>2021-03-20T19:09:50Z</time>
      </trkpt>
      <trkpt lat="57.40575" lon="-5.44758">
        <ele>28.47</ele>
        <time>2021-03-20T19:09:53Z</time>
      </trkpt>
      <trkpt lat="57.40656" lon="-5.44775">
        <ele>14.13</ele>
        <time>2021-03-20T19:09:56Z</time>
      </trkpt>
      <trkpt lat="57.40676" lon="-5.44775">
        <ele>10.84</ele>
        <time>2021-03-20T19:09:59Z</time>
      </trkpt>
      <trkpt lat="57.40694" lon="-5.44769">
        <ele>8.76</ele>
        <time>2021-03-20T19:10:02Z</time>
      </trkpt>
      <trkpt lat="57.40709" lon="-5.44759">
        <ele>7.31</ele>
        <time>2021-03-20T19:10:05Z</time>
      </trkpt>
      <trkpt lat="57.40722" lon="-5.44745">
        <ele>6.58</ele>
        <time>2021-03-20T19:10:08Z</time>
      </trkpt>
      <trkpt lat="57.40735" lon="-5.44726">
        <ele>6.42</ele>
        <time>2021-03-20T19:10:11Z</time>
      </trkpt>
      <trkpt lat="57.40745" lon="-5.44707">
        <ele>5.55</ele>
        <time>2021-03-20T19:10:14Z</time>
      </trkpt>
      <trkpt lat="57.40779" lon="-5.44623">
        <ele>7.08</ele>
        <time>2021-03-20T19:10:17Z</time>
      </trkpt>
      <trkpt lat="57.40802" lon="-5.44573">
        <ele>8.34</ele>
        <time>2021-03-20T19:10:20Z</time>
      </trkpt>
      <trkpt lat="57.40839" lon="-5.44511">
        <ele>4.98</ele>
        <time>2021-03-20T19:10:23Z</time>
      </trkpt>
      <trkpt lat="57.40859" lon="-5.44486">
        <ele>3.7</ele>
        <time>2021-03-20T19:10:26Z</time>
      </trkpt>
      <trkpt lat="57.40883" lon="-5.44461">
        <ele>4.49</ele>
        <time>2021-03-20T19:10:29Z</time>
      </trkpt>
      <trkpt lat="57.40924" lon="-5.44424">
        <ele>4.72</ele>
        <time>2021-03-20T19:10:32Z</time>
      </trkpt>
      <trkpt lat="57.41111" lon="-5.44299">
        <ele>9.31</ele>
        <time>2021-03-20T19:10:35Z</time>
      </trkpt>
      <trkpt lat="57.41143" lon="-5.44274">
        <ele>8.04</ele>
        <time>2021-03-20T19:10:38Z</time>
      </trkpt>
      <trkpt lat="57.41162" lon="-5.44254">
        <ele>8.26</ele>
        <time>2021-03-20T19:10:41Z</time>
      </trkpt>
      <trkpt lat="57.41281" lon="-5.44072">
        <ele>4.7</ele>
        <time>2021-03-20T19:10:44Z</time>
      </trkpt>
      <trkpt lat="57.41345" lon="-5.43969">
        <ele>3.26</ele>
        <time>2021-03-20T19:10:47Z</time>
      </trkpt>
      <trkpt lat="57.41384" lon="-5.43897">
        <ele>3.88</ele>
        <time>2021-03-20T19:10:50Z</time>
      </trkpt>
      <trkpt lat="57.414" lon="-5.43864">
        <ele>3.61</ele>
        <time>2021-03-20T19:10:54Z</time>
      </trkpt>
      <trkpt lat="57.41425" lon="-5.43795">
        <ele>2.53</ele>
        <time>2021-03-20T19:10:57Z</time>
      </trkpt>
      <trkpt lat="57.41436" lon="-5.43756">
        <ele>2.32</ele>
        <time>2021-03-20T19:11:00Z</time>
      </trkpt>
      <trkpt lat="57.41481" lon="-5.4357">
        <ele>5.87</ele>
        <time>2021-03-20T19:11:03Z</time>
      </trkpt>
      <trkpt lat="57.41508" lon="-5.43481">
        <ele>6.12</ele>
        <time>2021-03-20T19:11:06Z</time>
      </trkpt>
      <trkpt lat="57.41523" lon="-5.43439">
        <ele>5.22</ele>
        <time>2021-03-20T19:11:09Z</time>
      </trkpt>
      <trkpt lat="57.41539" lon="-5.434">
        <ele>4</ele>
        <time>2021-03-20T19:11:12Z</time>
      </trkpt>
      <trkpt lat="57.4156" lon="-5.43359">
        <ele>2.99</ele>
        <time>2021-03-20T19:11:15Z</time>
      </trkpt>
      <trkpt lat="57.41581" lon="-5.43321">
        <ele>3.61</ele>
        <time>2021-03-20T19:11:18Z</time>
      </trkpt>
      <trkpt lat="57.41605" lon="-5.43284">
        <ele>4.95</ele>
        <time>2021-03-20T19:11:21Z</time>
      </trkpt>
      <trkpt lat="57.4164" lon="-5.4324">
        <ele>5.34</ele>
        <time>2021-03-20T19:11:24Z</time>
      </trkpt>
      <trkpt lat="57.41671" lon="-5.43208">
        <ele>6.88</ele>
        <time>2021-03-20T19:11:27Z</time>
      </trkpt>
      <trkpt lat="57.41705" lon="-5.4318">
        <ele>7.32</ele>
        <time>2021-03-20T19:11:30Z</time>
      </trkpt>
      <trkpt lat="57.41746" lon="-5.43153">
        <ele>6.62</ele>
        <time>2021-03-20T19:11:33Z</time>
      </trkpt>
      <trkpt lat="57.41805" lon="-5.43122">
        <ele>7.22</ele>
        <time>2021-03-20T19:11:36Z</time>
      </trkpt>
      <trkpt lat="57.41937" lon="-5.43066">
        <ele>9.76</ele>
        <time>2021-03-20T19:11:39Z</time>
      </trkpt>
      <trkpt lat="57.42015" lon="-5.43023">
        <ele>7.64</ele>
        <time>2021-03-20T19:11:42Z</time>
      </trkpt>
      <trkpt lat="57.42025" lon="-5.43014">
        <ele>7.59</ele>
        <time>2021-03-20T19:11:45Z</time>
      </trkpt>
      <trkpt lat="57.42045" lon="-5.42983">
        <ele>7.58</ele>
        <time>2021-03-20T19:11:48Z</time>
      </trkpt>
      <trkpt lat="57.42073" lon="-5.42934">
        <ele>7.53</ele>
        <time>2021-03-20T19:11:51Z</time>
      </trkpt>
      <trkpt lat="57.42087" lon="-5.42913">
        <ele>7.24</ele>
        <time>2021-03-20T19:11:54Z</time>
      </trkpt>
      <trkpt lat="57.42104" lon="-5.42894">
        <ele>7.36</ele>
        <time>2021-03-20T19:11:57Z</time>
      </trkpt>
      <trkpt lat="57.4212" lon="-5.42882">
        <ele>7.48</ele>
        <time>2021-03-20T19:12:00Z</time>
      </trkpt>
      <trkpt lat="57.42139" lon="-5.4288">
        <ele>8</ele>
        <time>2021-03-20T19:12:03Z</time>
      </trkpt>
      <trkpt lat="57.4218" lon="-5.42883">
        <ele>8.47</ele>
        <time>2021-03-20T19:12:06Z</time>
      </trkpt>
      <trkpt lat="57.42208" lon="-5.42877">
        <ele>9.48</ele>
        <time>2021-03-20T19:12:09Z</time>
      </trkpt>
      <trkpt lat="57.42219" lon="-5.42881">
        <ele>9.87</ele>
        <time>2021-03-20T19:12:12Z</time>
      </trkpt>
      <trkpt lat="57.42241" lon="-5.42927">
        <ele>11</ele>
        <time>2021-03-20T19:12:15Z</time>
      </trkpt>
      <trkpt lat="57.4226" lon="-5.43006">
        <ele>10.54</ele>
        <time>2021-03-20T19:12:18Z</time>
      </trkpt>
      <trkpt lat="57.42267" lon="-5.43042">
        <ele>8.49</ele>
        <time>2021-03-20T19:12:21Z</time>
      </trkpt>
      <trkpt lat="57.42277" lon="-5.43106">
        <ele>7</ele>
        <time>2021-03-20T19:12:24Z</time>
      </trkpt>
      <trkpt lat="57.42294" lon="-5.43171">
        <ele>7.1</ele>
        <time>2021-03-20T19:12:27Z</time>
      </trkpt>
      <trkpt lat="57.42344" lon="-5.43291">
        <ele>9.41</ele>
        <time>2021-03-20T19:12:30Z</time>
      </trkpt>
      <trkpt lat="57.4239" lon="-5.43377">
        <ele>7.44</ele>
        <time>2021-03-20T19:12:33Z</time>
      </trkpt>
      <trkpt lat="57.4243" lon="-5.43438">
        <ele>6</ele>
        <time>2021-03-20T19:12:36Z</time>
      </trkpt>
      <trkpt lat="57.42471" lon="-5.43494">
        <ele>6</ele>
        <time>2021-03-20T19:12:39Z</time>
      </trkpt>
      <trkpt lat="57.42535" lon="-5.43571">
        <ele>6</ele>
        <time>2021-03-20T19:12:42Z</time>
      </trkpt>
      <trkpt lat="57.42654" lon="-5.43693">
        <ele>7.57</ele>
        <time>2021-03-20T19:12:45Z</time>
      </trkpt>
      <trkpt lat="57.42683" lon="-5.43731">
        <ele>7.68</ele>
        <time>2021-03-20T19:12:48Z</time>
      </trkpt>
      <trkpt lat="57.42712" lon="-5.43779">
        <ele>6.33</ele>
        <time>2021-03-20T19:12:51Z</time>
      </trkpt>
      <trkpt lat="57.42749" lon="-5.43845">
        <ele>5</ele>
        <time>2021-03-20T19:12:54Z</time>
      </trkpt>
      <trkpt lat="57.42778" lon="-5.43903">
        <ele>4.5</ele>
        <time>2021-03-20T19:12:57Z</time>
      </trkpt>
      <trkpt lat="57.43149" lon="-5.44684">
        <ele>5</ele>
        <time>2021-03-20T19:13:00Z</time>
      </trkpt>
      <trkpt lat="57.42663" lon="-5.45542">
        <ele>9</ele>
        <time>2021-03-20T19:13:05Z</time>
      </trkpt>
      <trkpt lat="57.42635" lon="-5.45589">
        <ele>9.15</ele>
        <time>2021-03-20T19:13:10Z</time>
      </trkpt>
      <trkpt lat="57.42484" lon="-5.45854">
        <ele>9.74</ele>
        <time>2021-03-20T19:13:15Z</time>
      </trkpt>
      <trkpt lat="57.42434" lon="-5.45931">
        <ele>10.15</ele>
        <time>2021-03-20T19:13:20Z</time>
      </trkpt>
      <trkpt lat="57.4217" lon="-5.4632">
        <ele>14.06</ele>
        <time>2021-03-20T19:13:25Z</time>
      </trkpt>
      <trkpt lat="57.41828" lon="-5.46874">
        <ele>4.8</ele>
        <time>2021-03-20T19:13:30Z</time>
      </trkpt>
      <trkpt lat="57.41739" lon="-5.46992">
        <ele>3.38</ele>
        <time>2021-03-20T19:13:35Z</time>
      </trkpt>
      <trkpt lat="57.41599" lon="-5.47158">
        <ele>3.58</ele>
        <time>2021-03-20T19:13:40Z</time>
      </trkpt>
      <trkpt lat="57.41361" lon="-5.47415">
        <ele>4.84</ele>
        <time>2021-03-20T19:13:45Z</time>
      </trkpt>
      <trkpt lat="57.41303" lon="-5.47469">
        <ele>5.56</ele>
        <time>2021-03-20T19:13:50Z</time>
      </trkpt>
      <trkpt lat="57.41234" lon="-5.47512">
        <ele>3.89</ele>
        <time>2021-03-20T19:13:55Z</time>
      </trkpt>
      <trkpt lat="57.41187" lon="-5.47526">
        <ele>2.67</ele>
        <time>2021-03-20T19:14:00Z</time>
      </trkpt>
      <trkpt lat="57.41114" lon="-5.47528">
        <ele>2.91</ele>
        <time>2021-03-20T19:14:05Z</time>
      </trkpt>
      <trkpt lat="57.41079" lon="-5.47537">
        <ele>2.49</ele>
        <time>2021-03-20T19:14:10Z</time>
      </trkpt>
      <trkpt lat="57.41016" lon="-5.47557">
        <ele>4.63</ele>
        <time>2021-03-20T19:14:15Z</time>
      </trkpt>
      <trkpt lat="57.40992" lon="-5.47562">
        <ele>4.21</ele>
        <time>2021-03-20T19:14:20Z</time>
      </trkpt>
      <trkpt lat="57.40941" lon="-5.47586">
        <ele>5.09</ele>
        <time>2021-03-20T19:14:25Z</time>
      </trkpt>
      <trkpt lat="57.40844" lon="-5.47649">
        <ele>3.74</ele>
        <time>2021-03-20T19:14:30Z</time>
      </trkpt>
      <trkpt lat="57.4074" lon="-5.47705">
        <ele>5.91</ele>
        <time>2021-03-20T19:14:35Z</time>
      </trkpt>
      <trkpt lat="57.40704" lon="-5.47728">
        <ele>4.51</ele>
        <time>2021-03-20T19:14:40Z</time>
      </trkpt>
      <trkpt lat="57.4065" lon="-5.47777">
        <ele>7.22</ele>
        <time>2021-03-20T19:14:45Z</time>
      </trkpt>
      <trkpt lat="57.40588" lon="-5.47851">
        <ele>8.23</ele>
        <time>2021-03-20T19:14:50Z</time>
      </trkpt>
      <trkpt lat="57.40558" lon="-5.47884">
        <ele>8.81</ele>
        <time>2021-03-20T19:14:55Z</time>
      </trkpt>
      <trkpt lat="57.40455" lon="-5.4796">
        <ele>6.02</ele>
        <time>2021-03-20T19:15:00Z</time>
      </trkpt>
      <trkpt lat="57.40372" lon="-5.48029">
        <ele>6.09</ele>
        <time>2021-03-20T19:15:05Z</time>
      </trkpt>
      <trkpt lat="57.40347" lon="-5.48057">
        <ele>6.5</ele>
        <time>2021-03-20T19:15:09Z</time>
      </trkpt>
      <trkpt lat="57.40303" lon="-5.48116">
        <ele>4.14</ele>
        <time>2021-03-20T19:15:14Z</time>
      </trkpt>
      <trkpt lat="57.40289" lon="-5.48139">
        <ele>4.83</ele>
        <time>2021-03-20T19:15:19Z</time>
      </trkpt>
      <trkpt lat="57.40273" lon="-5.48182">
        <ele>5.36</ele>
        <time>2021-03-20T19:15:24Z</time>
      </trkpt>
      <trkpt lat="57.4026" lon="-5.48235">
        <ele>6.8</ele>
        <time>2021-03-20T19:15:29Z</time>
      </trkpt>
      <trkpt lat="57.40237" lon="-5.4836">
        <ele>9.04</ele>
        <time>2021-03-20T19:15:34Z</time>
      </trkpt>
      <trkpt lat="57.40207" lon="-5.48497">
        <ele>7.81</ele>
        <time>2021-03-20T19:15:39Z</time>
      </trkpt>
      <trkpt lat="57.40185" lon="-5.4858">
        <ele>6.22</ele>
        <time>2021-03-20T19:15:44Z</time>
      </trkpt>
      <trkpt lat="57.40147" lon="-5.48714">
        <ele>7.83</ele>
        <time>2021-03-20T19:15:49Z</time>
      </trkpt>
      <trkpt lat="57.40109" lon="-5.4887">
        <ele>6.87</ele>
        <time>2021-03-20T19:15:54Z</time>
      </trkpt>
      <trkpt lat="57.4008" lon="-5.48976">
        <ele>10</ele>
        <time>2021-03-20T19:15:59Z</time>
      </trkpt>
      <trkpt lat="57.40052" lon="-5.49053">
        <ele>9.62</ele>
        <time>2021-03-20T19:16:04Z</time>
      </trkpt>
      <trkpt lat="57.39999" lon="-5.49178">
        <ele>10.81</ele>
        <time>2021-03-20T19:16:09Z</time>
      </trkpt>
      <trkpt lat="57.39983" lon="-5.49229">
        <ele>9.04</ele>
        <time>2021-03-20T19:16:14Z</time>
      </trkpt>
      <trkpt lat="57.39968" lon="-5.49294">
        <ele>7.78</ele>
        <time>2021-03-20T19:16:19Z</time>
      </trkpt>
      <trkpt lat="57.39943" lon="-5.49431">
        <ele>8.37</ele>
        <time>2021-03-20T19:16:24Z</time>
      </trkpt>
      <trkpt lat="57.39918" lon="-5.49541">
        <ele>8.13</ele>
        <time>2021-03-20T19:16:29Z</time>
      </trkpt>
      <trkpt lat="57.39871" lon="-5.49706">
        <ele>7.44</ele>
        <time>2021-03-20T19:16:34Z</time>
      </trkpt>
      <trkpt lat="57.39832" lon="-5.49919">
        <ele>10.02</ele>
        <time>2021-03-20T19:16:39Z</time>
      </trkpt>
      <trkpt lat="57.398" lon="-5.50122">
        <ele>10.25</ele>
        <time>2021-03-20T19:16:44Z</time>
      </trkpt>
      <trkpt lat="57.39781" lon="-5.50228">
        <ele>13.91</ele>
        <time>2021-03-20T19:16:49Z</time>
      </trkpt>
      <trkpt lat="57.3976" lon="-5.5031">
        <ele>17.19</ele>
        <time>2021-03-20T19:16:54Z</time>
      </trkpt>
      <trkpt lat="57.3973" lon="-5.50412">
        <ele>20.49</ele>
        <time>2021-03-20T19:16:59Z</time>
      </trkpt>
      <trkpt lat="57.39705" lon="-5.50485">
        <ele>25.22</ele>
        <time>2021-03-20T19:17:04Z</time>
      </trkpt>
      <trkpt lat="57.39691" lon="-5.50556">
        <ele>27.76</ele>
        <time>2021-03-20T19:17:09Z</time>
      </trkpt>
      <trkpt lat="57.39687" lon="-5.50621">
        <ele>29.97</ele>
        <time>2021-03-20T19:17:14Z</time>
      </trkpt>
      <trkpt lat="57.39691" lon="-5.50688">
        <ele>35.37</ele>
        <time>2021-03-20T19:17:19Z</time>
      </trkpt>
      <trkpt lat="57.39698" lon="-5.50727">
        <ele>38.73</ele>
        <time>2021-03-20T19:17:24Z</time>
      </trkpt>
      <trkpt lat="57.39708" lon="-5.50759">
        <ele>42.15</ele>
        <time>2021-03-20T19:17:29Z</time>
      </trkpt>
      <trkpt lat="57.39732" lon="-5.50807">
        <ele>47.49</ele>
        <time>2021-03-20T19:17:34Z</time>
      </trkpt>
      <trkpt lat="57.39751" lon="-5.50833">
        <ele>49.97</ele>
        <time>2021-03-20T19:17:38Z</time>
      </trkpt>
      <trkpt lat="57.39782" lon="-5.50867">
        <ele>55.85</ele>
        <time>2021-03-20T19:17:43Z</time>
      </trkpt>
      <trkpt lat="57.39826" lon="-5.50874">
        <ele>59.34</ele>
        <time>2021-03-20T19:17:48Z</time>
      </trkpt>
      <trkpt lat="57.39863" lon="-5.50865">
        <ele>61.47</ele>
        <time>2021-03-20T19:17:53Z</time>
      </trkpt>
      <trkpt lat="57.39878" lon="-5.50858">
        <ele>62.53</ele>
        <time>2021-03-20T19:17:58Z</time>
      </trkpt>
      <trkpt lat="57.39972" lon="-5.50776">
        <ele>67.85</ele>
        <time>2021-03-20T19:18:03Z</time>
      </trkpt>
      <trkpt lat="57.40018" lon="-5.50748">
        <ele>69.79</ele>
        <time>2021-03-20T19:18:08Z</time>
      </trkpt>
      <trkpt lat="57.40036" lon="-5.50745">
        <ele>71.16</ele>
        <time>2021-03-20T19:18:13Z</time>
      </trkpt>
      <trkpt lat="57.4015" lon="-5.50769">
        <ele>80.77</ele>
        <time>2021-03-20T19:18:18Z</time>
      </trkpt>
      <trkpt lat="57.40168" lon="-5.50779">
        <ele>82.09</ele>
        <time>2021-03-20T19:18:23Z</time>
      </trkpt>
      <trkpt lat="57.40215" lon="-5.50827">
        <ele>85.98</ele>
        <time>2021-03-20T19:18:28Z</time>
      </trkpt>
      <trkpt lat="57.40235" lon="-5.50854">
        <ele>87.17</ele>
        <time>2021-03-20T19:18:33Z</time>
      </trkpt>
      <trkpt lat="57.40252" lon="-5.50888">
        <ele>88.03</ele>
        <time>2021-03-20T19:18:38Z</time>
      </trkpt>
      <trkpt lat="57.40275" lon="-5.50912">
        <ele>90.57</ele>
        <time>2021-03-20T19:18:43Z</time>
      </trkpt>
      <trkpt lat="57.40294" lon="-5.50919">
        <ele>92.88</ele>
        <time>2021-03-20T19:18:48Z</time>
      </trkpt>
      <trkpt lat="57.40336" lon="-5.50922">
        <ele>96.51</ele>
        <time>2021-03-20T19:18:53Z</time>
      </trkpt>
      <trkpt lat="57.40348" lon="-5.50926">
        <ele>97.16</ele>
        <time>2021-03-20T19:18:58Z</time>
      </trkpt>
      <trkpt lat="57.40359" lon="-5.50936">
        <ele>98.35</ele>
        <time>2021-03-20T19:19:03Z</time>
      </trkpt>
      <trkpt lat="57.40394" lon="-5.51016">
        <ele>101.56</ele>
        <time>2021-03-20T19:19:08Z</time>
      </trkpt>
      <trkpt lat="57.40413" lon="-5.51074">
        <ele>104.24</ele>
        <time>2021-03-20T19:19:13Z</time>
      </trkpt>
      <trkpt lat="57.40419" lon="-5.51106">
        <ele>105.83</ele>
        <time>2021-03-20T19:19:18Z</time>
      </trkpt>
      <trkpt lat="57.40423" lon="-5.51155">
        <ele>108.58</ele>
        <time>2021-03-20T19:19:23Z</time>
      </trkpt>
      <trkpt lat="57.40426" lon="-5.51228">
        <ele>111.86</ele>
        <time>2021-03-20T19:19:28Z</time>
      </trkpt>
      <trkpt lat="57.40414" lon="-5.51314">
        <ele>113.19</ele>
        <time>2021-03-20T19:19:33Z</time>
      </trkpt>
      <trkpt lat="57.40404" lon="-5.51369">
        <ele>114.91</ele>
        <time>2021-03-20T19:19:38Z</time>
      </trkpt>
      <trkpt lat="57.40403" lon="-5.51427">
        <ele>117.4</ele>
        <time>2021-03-20T19:19:43Z</time>
      </trkpt>
      <trkpt lat="57.40407" lon="-5.51463">
        <ele>118.36</ele>
        <time>2021-03-20T19:19:48Z</time>
      </trkpt>
      <trkpt lat="57.40424" lon="-5.51505">
        <ele>118.71</ele>
        <time>2021-03-20T19:19:53Z</time>
      </trkpt>
      <trkpt lat="57.40432" lon="-5.51536">
        <ele>120.95</ele>
        <time>2021-03-20T19:19:58Z</time>
      </trkpt>
      <trkpt lat="57.40437" lon="-5.51573">
        <ele>123.46</ele>
        <time>2021-03-20T19:20:03Z</time>
      </trkpt>
      <trkpt lat="57.40444" lon="-5.51787">
        <ele>130.3</ele>
        <time>2021-03-20T19:20:08Z</time>
      </trkpt>
      <trkpt lat="57.40454" lon="-5.51931">
        <ele>137.99</ele>
        <time>2021-03-20T19:20:12Z</time>
      </trkpt>
      <trkpt lat="57.40485" lon="-5.52325">
        <ele>142</ele>
        <time>2021-03-20T19:20:17Z</time>
      </trkpt>
      <trkpt lat="57.40551" lon="-5.52549">
        <ele>141.82</ele>
        <time>2021-03-20T19:20:22Z</time>
      </trkpt>
      <trkpt lat="57.40573" lon="-5.52643">
        <ele>140.91</ele>
        <time>2021-03-20T19:20:27Z</time>
      </trkpt>
      <trkpt lat="57.40615" lon="-5.52901">
        <ele>135.27</ele>
        <time>2021-03-20T19:20:32Z</time>
      </trkpt>
      <trkpt lat="57.40618" lon="-5.53149">
        <ele>128.6</ele>
        <time>2021-03-20T19:20:37Z</time>
      </trkpt>
      <trkpt lat="57.40632" lon="-5.53399">
        <ele>121.82</ele>
        <time>2021-03-20T19:20:42Z</time>
      </trkpt>
      <trkpt lat="57.40629" lon="-5.53471">
        <ele>119.54</ele>
        <time>2021-03-20T19:20:47Z</time>
      </trkpt>
      <trkpt lat="57.40622" lon="-5.5355">
        <ele>116.76</ele>
        <time>2021-03-20T19:20:52Z</time>
      </trkpt>
      <trkpt lat="57.40585" lon="-5.53714">
        <ele>111.89</ele>
        <time>2021-03-20T19:20:57Z</time>
      </trkpt>
      <trkpt lat="57.40578" lon="-5.53773">
        <ele>109.53</ele>
        <time>2021-03-20T19:21:02Z</time>
      </trkpt>
      <trkpt lat="57.40577" lon="-5.53844">
        <ele>107.13</ele>
        <time>2021-03-20T19:21:07Z</time>
      </trkpt>
      <trkpt lat="57.40585" lon="-5.53932">
        <ele>104.55</ele>
        <time>2021-03-20T19:21:12Z</time>
      </trkpt>
      <trkpt lat="57.40596" lon="-5.53999">
        <ele>103.83</ele>
        <time>2021-03-20T19:21:17Z</time>
      </trkpt>
      <trkpt lat="57.406" lon="-5.54044">
        <ele>101</ele>
        <time>2021-03-20T19:21:22Z</time>
      </trkpt>
      <trkpt lat="57.40599" lon="-5.54099">
        <ele>98.6</ele>
        <time>2021-03-20T19:21:27Z</time>
      </trkpt>
      <trkpt lat="57.40602" lon="-5.54256">
        <ele>97.11</ele>
        <time>2021-03-20T19:21:32Z</time>
      </trkpt>
      <trkpt lat="57.40595" lon="-5.54333">
        <ele>93.65</ele>
        <time>2021-03-20T19:21:37Z</time>
      </trkpt>
      <trkpt lat="57.40586" lon="-5.54408">
        <ele>92.72</ele>
        <time>2021-03-20T19:21:42Z</time>
      </trkpt>
      <trkpt lat="57.40603" lon="-5.54534">
        <ele>88.1</ele>
        <time>2021-03-20T19:21:47Z</time>
      </trkpt>
      <trkpt lat="57.40599" lon="-5.54575">
        <ele>88.4</ele>
        <time>2021-03-20T19:21:52Z</time>
      </trkpt>
      <trkpt lat="57.40591" lon="-5.54619">
        <ele>87.88</ele>
        <time>2021-03-20T19:21:57Z</time>
      </trkpt>
      <trkpt lat="57.40577" lon="-5.54657">
        <ele>85.66</ele>
        <time>2021-03-20T19:22:02Z</time>
      </trkpt>
      <trkpt lat="57.40573" lon="-5.54701">
        <ele>82.71</ele>
        <time>2021-03-20T19:22:07Z</time>
      </trkpt>
      <trkpt lat="57.40577" lon="-5.54739">
        <ele>82.39</ele>
        <time>2021-03-20T19:22:12Z</time>
      </trkpt>
      <trkpt lat="57.40598" lon="-5.54841">
        <ele>83.68</ele>
        <time>2021-03-20T19:22:17Z</time>
      </trkpt>
      <trkpt lat="57.40605" lon="-5.54895">
        <ele>82.86</ele>
        <time>2021-03-20T19:22:22Z</time>
      </trkpt>
      <trkpt lat="57.40604" lon="-5.54936">
        <ele>83.65</ele>
        <time>2021-03-20T19:22:27Z</time>
      </trkpt>
      <trkpt lat="57.40599" lon="-5.54997">
        <ele>83.27</ele>
        <time>2021-03-20T19:22:32Z</time>
      </trkpt>
      <trkpt lat="57.40602" lon="-5.55012">
        <ele>81.39</ele>
        <time>2021-03-20T19:22:37Z</time>
      </trkpt>
      <trkpt lat="57.40609" lon="-5.55023">
        <ele>79.55</ele>
        <time>2021-03-20T19:22:41Z</time>
      </trkpt>
      <trkpt lat="57.40609" lon="-5.55062">
        <ele>78.51</ele>
        <time>2021-03-20T19:22:46Z</time>
      </trkpt>
      <trkpt lat="57.40587" lon="-5.5521">
        <ele>87.53</ele>
        <time>2021-03-20T19:22:51Z</time>
      </trkpt>
      <trkpt lat="57.40555" lon="-5.5537">
        <ele>100.5</ele>
        <time>2021-03-20T19:22:56Z</time>
      </trkpt>
      <trkpt lat="57.40547" lon="-5.55541">
        <ele>79.44</ele>
        <time>2021-03-20T19:23:01Z</time>
      </trkpt>
      <trkpt lat="57.40543" lon="-5.558">
        <ele>67.61</ele>
        <time>2021-03-20T19:23:06Z</time>
      </trkpt>
      <trkpt lat="57.40528" lon="-5.55911">
        <ele>67.83</ele>
        <time>2021-03-20T19:23:11Z</time>
      </trkpt>
      <trkpt lat="57.40485" lon="-5.56057">
        <ele>60.6</ele>
        <time>2021-03-20T19:23:16Z</time>
      </trkpt>
      <trkpt lat="57.40457" lon="-5.56244">
        <ele>58.65</ele>
        <time>2021-03-20T19:23:21Z</time>
      </trkpt>
      <trkpt lat="57.4045" lon="-5.56383">
        <ele>54.83</ele>
        <time>2021-03-20T19:23:26Z</time>
      </trkpt>
      <trkpt lat="57.40453" lon="-5.56497">
        <ele>50.28</ele>
        <time>2021-03-20T19:23:31Z</time>
      </trkpt>
      <trkpt lat="57.40458" lon="-5.56543">
        <ele>49.4</ele>
        <time>2021-03-20T19:23:36Z</time>
      </trkpt>
      <trkpt lat="57.40478" lon="-5.56642">
        <ele>47.24</ele>
        <time>2021-03-20T19:23:41Z</time>
      </trkpt>
      <trkpt lat="57.40482" lon="-5.56705">
        <ele>48.7</ele>
        <time>2021-03-20T19:23:46Z</time>
      </trkpt>
      <trkpt lat="57.40478" lon="-5.56751">
        <ele>48.71</ele>
        <time>2021-03-20T19:23:51Z</time>
      </trkpt>
      <trkpt lat="57.40448" lon="-5.56884">
        <ele>45.82</ele>
        <time>2021-03-20T19:23:56Z</time>
      </trkpt>
      <trkpt lat="57.40382" lon="-5.573">
        <ele>41.77</ele>
        <time>2021-03-20T19:24:01Z</time>
      </trkpt>
      <trkpt lat="57.40317" lon="-5.57521">
        <ele>35.47</ele>
        <time>2021-03-20T19:24:06Z</time>
      </trkpt>
      <trkpt lat="57.40284" lon="-5.57645">
        <ele>32.95</ele>
        <time>2021-03-20T19:24:11Z</time>
      </trkpt>
      <trkpt lat="57.40252" lon="-5.579">
        <ele>34.23</ele>
        <time>2021-03-20T19:24:16Z</time>
      </trkpt>
      <trkpt lat="57.40249" lon="-5.57989">
        <ele>32.8</ele>
        <time>2021-03-20T19:24:21Z</time>
      </trkpt>
      <trkpt lat="57.40264" lon="-5.58139">
        <ele>31</ele>
        <time>2021-03-20T19:24:26Z</time>
      </trkpt>
      <trkpt lat="57.40263" lon="-5.58163">
        <ele>30.97</ele>
        <time>2021-03-20T19:24:31Z</time>
      </trkpt>
      <trkpt lat="57.40257" lon="-5.58203">
        <ele>32.86</ele>
        <time>2021-03-20T19:24:36Z</time>
      </trkpt>
      <trkpt lat="57.40238" lon="-5.58261">
        <ele>34.78</ele>
        <time>2021-03-20T19:24:41Z</time>
      </trkpt>
      <trkpt lat="57.40215" lon="-5.58347">
        <ele>37.12</ele>
        <time>2021-03-20T19:24:46Z</time>
      </trkpt>
      <trkpt lat="57.40195" lon="-5.58432">
        <ele>38.17</ele>
        <time>2021-03-20T19:24:51Z</time>
      </trkpt>
      <trkpt lat="57.40149" lon="-5.58553">
        <ele>37.27</ele>
        <time>2021-03-20T19:24:56Z</time>
      </trkpt>
      <trkpt lat="57.40117" lon="-5.58609">
        <ele>35.66</ele>
        <time>2021-03-20T19:25:01Z</time>
      </trkpt>
      <trkpt lat="57.4009" lon="-5.58675">
        <ele>36.2</ele>
        <time>2021-03-20T19:25:06Z</time>
      </trkpt>
      <trkpt lat="57.40017" lon="-5.58877">
        <ele>38.04</ele>
        <time>2021-03-20T19:25:10Z</time>
      </trkpt>
      <trkpt lat="57.3997" lon="-5.59039">
        <ele>35.36</ele>
        <time>2021-03-20T19:25:15Z</time>
      </trkpt>
      <trkpt lat="57.39964" lon="-5.5908">
        <ele>36.57</ele>
        <time>2021-03-20T19:25:20Z</time>
      </trkpt>
      <trkpt lat="57.39937" lon="-5.59318">
        <ele>39.54</ele>
        <time>2021-03-20T19:25:25Z</time>
      </trkpt>
      <trkpt lat="57.39907" lon="-5.59774">
        <ele>31.08</ele>
        <time>2021-03-20T19:25:30Z</time>
      </trkpt>
      <trkpt lat="57.3988" lon="-5.6032">
        <ele>30.02</ele>
        <time>2021-03-20T19:25:35Z</time>
      </trkpt>
      <trkpt lat="57.39876" lon="-5.60413">
        <ele>28.9</ele>
        <time>2021-03-20T19:25:40Z</time>
      </trkpt>
      <trkpt lat="57.39883" lon="-5.60523">
        <ele>23.13</ele>
        <time>2021-03-20T19:25:45Z</time>
      </trkpt>
      <trkpt lat="57.39898" lon="-5.60597">
        <ele>19.74</ele>
        <time>2021-03-20T19:25:50Z</time>
      </trkpt>
      <trkpt lat="57.39919" lon="-5.60648">
        <ele>19.62</ele>
        <time>2021-03-20T19:25:55Z</time>
      </trkpt>
      <trkpt lat="57.39999" lon="-5.60768">
        <ele>21.14</ele>
        <time>2021-03-20T19:26:00Z</time>
      </trkpt>
      <trkpt lat="57.40049" lon="-5.60832">
        <ele>24.32</ele>
        <time>2021-03-20T19:26:05Z</time>
      </trkpt>
      <trkpt lat="57.40109" lon="-5.6089">
        <ele>22.91</ele>
        <time>2021-03-20T19:26:10Z</time>
      </trkpt>
      <trkpt lat="57.40206" lon="-5.60948">
        <ele>23.72</ele>
        <time>2021-03-20T19:26:15Z</time>
      </trkpt>
      <trkpt lat="57.40268" lon="-5.6098">
        <ele>28.04</ele>
        <time>2021-03-20T19:26:20Z</time>
      </trkpt>
      <trkpt lat="57.40336" lon="-5.61009">
        <ele>27.76</ele>
        <time>2021-03-20T19:26:25Z</time>
      </trkpt>
      <trkpt lat="57.40373" lon="-5.61019">
        <ele>28.87</ele>
        <time>2021-03-20T19:26:30Z</time>
      </trkpt>
      <trkpt lat="57.40537" lon="-5.61078">
        <ele>25.22</ele>
        <time>2021-03-20T19:26:35Z</time>
      </trkpt>
      <trkpt lat="57.40603" lon="-5.61077">
        <ele>21.49</ele>
        <time>2021-03-20T19:26:40Z</time>
      </trkpt>
      <trkpt lat="57.40632" lon="-5.61066">
        <ele>20.2</ele>
        <time>2021-03-20T19:26:45Z</time>
      </trkpt>
      <trkpt lat="57.40676" lon="-5.61043">
        <ele>16</ele>
        <time>2021-03-20T19:26:50Z</time>
      </trkpt>
      <trkpt lat="57.40808" lon="-5.60921">
        <ele>14.6</ele>
        <time>2021-03-20T19:26:55Z</time>
      </trkpt>
      <trkpt lat="57.40884" lon="-5.6087">
        <ele>12.03</ele>
        <time>2021-03-20T19:27:00Z</time>
      </trkpt>
      <trkpt lat="57.40966" lon="-5.60819">
        <ele>8.36</ele>
        <time>2021-03-20T19:27:05Z</time>
      </trkpt>
      <trkpt lat="57.41015" lon="-5.60775">
        <ele>7.81</ele>
        <time>2021-03-20T19:27:10Z</time>
      </trkpt>
      <trkpt lat="57.41128" lon="-5.6065">
        <ele>8.61</ele>
        <time>2021-03-20T19:27:15Z</time>
      </trkpt>
      <trkpt lat="57.41337" lon="-5.6053">
        <ele>9.16</ele>
        <time>2021-03-20T19:27:20Z</time>
      </trkpt>
      <trkpt lat="57.41393" lon="-5.60487">
        <ele>8.13</ele>
        <time>2021-03-20T19:27:25Z</time>
      </trkpt>
      <trkpt lat="57.41563" lon="-5.60324">
        <ele>8.1</ele>
        <time>2021-03-20T19:27:30Z</time>
      </trkpt>
      <trkpt lat="57.41607" lon="-5.60294">
        <ele>7.65</ele>
        <time>2021-03-20T19:27:35Z</time>
      </trkpt>
      <trkpt lat="57.41651" lon="-5.60272">
        <ele>8.43</ele>
        <time>2021-03-20T19:27:40Z</time>
      </trkpt>
      <trkpt lat="57.41698" lon="-5.6026">
        <ele>8.44</ele>
        <time>2021-03-20T19:27:44Z</time>
      </trkpt>
      <trkpt lat="57.41832" lon="-5.60256">
        <ele>10.59</ele>
        <time>2021-03-20T19:27:50Z</time>
      </trkpt>
      <trkpt lat="57.4186" lon="-5.60411">
        <ele>4.05</ele>
        <time>2021-03-20T19:27:53Z</time>
      </trkpt>
      <trkpt lat="57.41877" lon="-5.60491">
        <ele>3.42</ele>
        <time>2021-03-20T19:27:55Z</time>
      </trkpt>
      <trkpt lat="57.4192" lon="-5.60737">
        <ele>2</ele>
        <time>2021-03-20T19:27:58Z</time>
      </trkpt>
      <trkpt lat="57.41936" lon="-5.60864">
        <ele>6.88</ele>
        <time>2021-03-20T19:28:01Z</time>
      </trkpt>
      <trkpt lat="57.41937" lon="-5.60877">
        <ele>7.74</ele>
        <time>2021-03-20T19:28:04Z</time>
      </trkpt>
      <trkpt lat="57.41936" lon="-5.60894">
        <ele>9.05</ele>
        <time>2021-03-20T19:28:07Z</time>
      </trkpt>
      <trkpt lat="57.41918" lon="-5.60929">
        <ele>11.41</ele>
        <time>2021-03-20T19:28:10Z</time>
      </trkpt>
      <trkpt lat="57.41863" lon="-5.61004">
        <ele>13.95</ele>
        <time>2021-03-20T19:28:13Z</time>
      </trkpt>
      <trkpt lat="57.41821" lon="-5.61074">
        <ele>15.95</ele>
        <time>2021-03-20T19:28:16Z</time>
      </trkpt>
      <trkpt lat="57.41801" lon="-5.61097">
        <ele>16.02</ele>
        <time>2021-03-20T19:28:19Z</time>
      </trkpt>
      <trkpt lat="57.41772" lon="-5.61117">
        <ele>15.48</ele>
        <time>2021-03-20T19:28:22Z</time>
      </trkpt>
      <trkpt lat="57.41745" lon="-5.61132">
        <ele>15.69</ele>
        <time>2021-03-20T19:28:25Z</time>
      </trkpt>
      <trkpt lat="57.41714" lon="-5.61157">
        <ele>15.81</ele>
        <time>2021-03-20T19:28:28Z</time>
      </trkpt>
      <trkpt lat="57.41686" lon="-5.61189">
        <ele>15.1</ele>
        <time>2021-03-20T19:28:30Z</time>
      </trkpt>
      <trkpt lat="57.41632" lon="-5.61272">
        <ele>17.2</ele>
        <time>2021-03-20T19:28:33Z</time>
      </trkpt>
      <trkpt lat="57.41596" lon="-5.61318">
        <ele>17.1</ele>
        <time>2021-03-20T19:28:36Z</time>
      </trkpt>
      <trkpt lat="57.41559" lon="-5.61356">
        <ele>16.89</ele>
        <time>2021-03-20T19:28:39Z</time>
      </trkpt>
      <trkpt lat="57.41518" lon="-5.61393">
        <ele>16.25</ele>
        <time>2021-03-20T19:28:42Z</time>
      </trkpt>
      <trkpt lat="57.41478" lon="-5.61425">
        <ele>17.5</ele>
        <time>2021-03-20T19:28:45Z</time>
      </trkpt>
      <trkpt lat="57.41456" lon="-5.61439">
        <ele>16.66</ele>
        <time>2021-03-20T19:28:48Z</time>
      </trkpt>
      <trkpt lat="57.41424" lon="-5.61455">
        <ele>17.13</ele>
        <time>2021-03-20T19:28:51Z</time>
      </trkpt>
      <trkpt lat="57.41379" lon="-5.61469">
        <ele>15.72</ele>
        <time>2021-03-20T19:28:54Z</time>
      </trkpt>
      <trkpt lat="57.41341" lon="-5.61488">
        <ele>15.83</ele>
        <time>2021-03-20T19:28:57Z</time>
      </trkpt>
      <trkpt lat="57.41141" lon="-5.61615">
        <ele>20.66</ele>
        <time>2021-03-20T19:29:00Z</time>
      </trkpt>
      <trkpt lat="57.41095" lon="-5.61649">
        <ele>19.35</ele>
        <time>2021-03-20T19:29:03Z</time>
      </trkpt>
      <trkpt lat="57.41081" lon="-5.61664">
        <ele>19.61</ele>
        <time>2021-03-20T19:29:06Z</time>
      </trkpt>
      <trkpt lat="57.41068" lon="-5.61686">
        <ele>21.71</ele>
        <time>2021-03-20T19:29:08Z</time>
      </trkpt>
      <trkpt lat="57.40958" lon="-5.61886">
        <ele>33.65</ele>
        <time>2021-03-20T19:29:11Z</time>
      </trkpt>
      <trkpt lat="57.40928" lon="-5.61933">
        <ele>35.47</ele>
        <time>2021-03-20T19:29:14Z</time>
      </trkpt>
      <trkpt lat="57.40912" lon="-5.61954">
        <ele>35.75</ele>
        <time>2021-03-20T19:29:17Z</time>
      </trkpt>
      <trkpt lat="57.40871" lon="-5.61995">
        <ele>35.56</ele>
        <time>2021-03-20T19:29:20Z</time>
      </trkpt>
      <trkpt lat="57.40854" lon="-5.62023">
        <ele>37.55</ele>
        <time>2021-03-20T19:29:23Z</time>
      </trkpt>
      <trkpt lat="57.40842" lon="-5.62054">
        <ele>39.83</ele>
        <time>2021-03-20T19:29:26Z</time>
      </trkpt>
      <trkpt lat="57.40838" lon="-5.62091">
        <ele>41.81</ele>
        <time>2021-03-20T19:29:29Z</time>
      </trkpt>
      <trkpt lat="57.40833" lon="-5.62174">
        <ele>45.42</ele>
        <time>2021-03-20T19:29:32Z</time>
      </trkpt>
      <trkpt lat="57.40826" lon="-5.62393">
        <ele>53.97</ele>
        <time>2021-03-20T19:29:35Z</time>
      </trkpt>
      <trkpt lat="57.40819" lon="-5.62438">
        <ele>55.25</ele>
        <time>2021-03-20T19:29:38Z</time>
      </trkpt>
      <trkpt lat="57.40809" lon="-5.62468">
        <ele>55.18</ele>
        <time>2021-03-20T19:29:41Z</time>
      </trkpt>
      <trkpt lat="57.40793" lon="-5.62526">
        <ele>55.1</ele>
        <time>2021-03-20T19:29:43Z</time>
      </trkpt>
      <trkpt lat="57.4079" lon="-5.62545">
        <ele>55.01</ele>
        <time>2021-03-20T19:29:46Z</time>
      </trkpt>
      <trkpt lat="57.40791" lon="-5.62566">
        <ele>55.79</ele>
        <time>2021-03-20T19:29:49Z</time>
      </trkpt>
      <trkpt lat="57.40801" lon="-5.62599">
        <ele>58.21</ele>
        <time>2021-03-20T19:29:52Z</time>
      </trkpt>
      <trkpt lat="57.40813" lon="-5.62632">
        <ele>61.57</ele>
        <time>2021-03-20T19:29:55Z</time>
      </trkpt>
      <trkpt lat="57.40817" lon="-5.62659">
        <ele>63.35</ele>
        <time>2021-03-20T19:29:58Z</time>
      </trkpt>
      <trkpt lat="57.40816" lon="-5.62684">
        <ele>64.78</ele>
        <time>2021-03-20T19:30:01Z</time>
      </trkpt>
      <trkpt lat="57.40806" lon="-5.62762">
        <ele>66.41</ele>
        <time>2021-03-20T19:30:04Z</time>
      </trkpt>
      <trkpt lat="57.40797" lon="-5.62855">
        <ele>68.9</ele>
        <time>2021-03-20T19:30:07Z</time>
      </trkpt>
      <trkpt lat="57.40799" lon="-5.62899">
        <ele>70.39</ele>
        <time>2021-03-20T19:30:10Z</time>
      </trkpt>
      <trkpt lat="57.40811" lon="-5.62948">
        <ele>72.64</ele>
        <time>2021-03-20T19:30:13Z</time>
      </trkpt>
      <trkpt lat="57.40824" lon="-5.6299">
        <ele>73.68</ele>
        <time>2021-03-20T19:30:16Z</time>
      </trkpt>
      <trkpt lat="57.4083" lon="-5.63001">
        <ele>74.42</ele>
        <time>2021-03-20T19:30:19Z</time>
      </trkpt>
      <trkpt lat="57.40847" lon="-5.63019">
        <ele>75.05</ele>
        <time>2021-03-20T19:30:21Z</time>
      </trkpt>
      <trkpt lat="57.40921" lon="-5.63084">
        <ele>79.68</ele>
        <time>2021-03-20T19:30:24Z</time>
      </trkpt>
      <trkpt lat="57.40947" lon="-5.6312">
        <ele>84.06</ele>
        <time>2021-03-20T19:30:27Z</time>
      </trkpt>
      <trkpt lat="57.40995" lon="-5.63204">
        <ele>88.77</ele>
        <time>2021-03-20T19:30:30Z</time>
      </trkpt>
      <trkpt lat="57.41031" lon="-5.63278">
        <ele>93.59</ele>
        <time>2021-03-20T19:30:33Z</time>
      </trkpt>
      <trkpt lat="57.4104" lon="-5.63303">
        <ele>94.85</ele>
        <time>2021-03-20T19:30:36Z</time>
      </trkpt>
      <trkpt lat="57.41048" lon="-5.63333">
        <ele>95.95</ele>
        <time>2021-03-20T19:30:39Z</time>
      </trkpt>
      <trkpt lat="57.41053" lon="-5.63365">
        <ele>97.65</ele>
        <time>2021-03-20T19:30:42Z</time>
      </trkpt>
      <trkpt lat="57.41056" lon="-5.63399">
        <ele>98.77</ele>
        <time>2021-03-20T19:30:45Z</time>
      </trkpt>
      <trkpt lat="57.41053" lon="-5.63434">
        <ele>100.41</ele>
        <time>2021-03-20T19:30:48Z</time>
      </trkpt>
      <trkpt lat="57.4105" lon="-5.63445">
        <ele>100.68</ele>
        <time>2021-03-20T19:30:51Z</time>
      </trkpt>
      <trkpt lat="57.41046" lon="-5.63454">
        <ele>100.93</ele>
        <time>2021-03-20T19:30:54Z</time>
      </trkpt>
      <trkpt lat="57.41024" lon="-5.63477">
        <ele>101.08</ele>
        <time>2021-03-20T19:30:57Z</time>
      </trkpt>
      <trkpt lat="57.40989" lon="-5.63511">
        <ele>101.97</ele>
        <time>2021-03-20T19:30:59Z</time>
      </trkpt>
      <trkpt lat="57.40971" lon="-5.63536">
        <ele>102.12</ele>
        <time>2021-03-20T19:31:02Z</time>
      </trkpt>
      <trkpt lat="57.40932" lon="-5.63647">
        <ele>102.21</ele>
        <time>2021-03-20T19:31:05Z</time>
      </trkpt>
      <trkpt lat="57.4091" lon="-5.63689">
        <ele>102.85</ele>
        <time>2021-03-20T19:31:08Z</time>
      </trkpt>
      <trkpt lat="57.40866" lon="-5.63791">
        <ele>103.86</ele>
        <time>2021-03-20T19:31:11Z</time>
      </trkpt>
      <trkpt lat="57.40859" lon="-5.63837">
        <ele>104.72</ele>
        <time>2021-03-20T19:31:14Z</time>
      </trkpt>
      <trkpt lat="57.40857" lon="-5.63876">
        <ele>104.59</ele>
        <time>2021-03-20T19:31:17Z</time>
      </trkpt>
      <trkpt lat="57.409" lon="-5.64082">
        <ele>105.39</ele>
        <time>2021-03-20T19:31:20Z</time>
      </trkpt>
      <trkpt lat="57.40969" lon="-5.64403">
        <ele>118.07</ele>
        <time>2021-03-20T19:31:23Z</time>
      </trkpt>
      <trkpt lat="57.40977" lon="-5.64449">
        <ele>121.28</ele>
        <time>2021-03-20T19:31:26Z</time>
      </trkpt>
      <trkpt lat="57.40976" lon="-5.64463">
        <ele>122.79</ele>
        <time>2021-03-20T19:31:29Z</time>
      </trkpt>
      <trkpt lat="57.40973" lon="-5.64475">
        <ele>124.28</ele>
        <time>2021-03-20T19:31:32Z</time>
      </trkpt>
      <trkpt lat="57.40969" lon="-5.64479">
        <ele>125.06</ele>
        <time>2021-03-20T19:31:34Z</time>
      </trkpt>
      <trkpt lat="57.40961" lon="-5.64482">
        <ele>126.03</ele>
        <time>2021-03-20T19:31:37Z</time>
      </trkpt>
      <trkpt lat="57.40944" lon="-5.64478">
        <ele>126.81</ele>
        <time>2021-03-20T19:31:40Z</time>
      </trkpt>
      <trkpt lat="57.40854" lon="-5.64434">
        <ele>130.07</ele>
        <time>2021-03-20T19:31:43Z</time>
      </trkpt>
      <trkpt lat="57.40804" lon="-5.64403">
        <ele>133.66</ele>
        <time>2021-03-20T19:31:46Z</time>
      </trkpt>
      <trkpt lat="57.40783" lon="-5.64396">
        <ele>136.14</ele>
        <time>2021-03-20T19:31:49Z</time>
      </trkpt>
      <trkpt lat="57.40758" lon="-5.64397">
        <ele>138.64</ele>
        <time>2021-03-20T19:31:52Z</time>
      </trkpt>
      <trkpt lat="57.40725" lon="-5.64411">
        <ele>141.14</ele>
        <time>2021-03-20T19:31:55Z</time>
      </trkpt>
      <trkpt lat="57.40693" lon="-5.64419">
        <ele>142.43</ele>
        <time>2021-03-20T19:31:58Z</time>
      </trkpt>
      <trkpt lat="57.40617" lon="-5.64427">
        <ele>146.55</ele>
        <time>2021-03-20T19:32:01Z</time>
      </trkpt>
      <trkpt lat="57.40512" lon="-5.64462">
        <ele>150.65</ele>
        <time>2021-03-20T19:32:04Z</time>
      </trkpt>
      <trkpt lat="57.40478" lon="-5.64482">
        <ele>151.85</ele>
        <time>2021-03-20T19:32:07Z</time>
      </trkpt>
      <trkpt lat="57.40451" lon="-5.64506">
        <ele>151.56</ele>
        <time>2021-03-20T19:32:10Z</time>
      </trkpt>
      <trkpt lat="57.40442" lon="-5.64521">
        <ele>152.03</ele>
        <time>2021-03-20T19:32:12Z</time>
      </trkpt>
      <trkpt lat="57.40439" lon="-5.64536">
        <ele>152.96</ele>
        <time>2021-03-20T19:32:15Z</time>
      </trkpt>
      <trkpt lat="57.40438" lon="-5.64595">
        <ele>157.9</ele>
        <time>2021-03-20T19:32:18Z</time>
      </trkpt>
      <trkpt lat="57.40434" lon="-5.64613">
        <ele>158.8</ele>
        <time>2021-03-20T19:32:21Z</time>
      </trkpt>
      <trkpt lat="57.40423" lon="-5.64632">
        <ele>161.12</ele>
        <time>2021-03-20T19:32:24Z</time>
      </trkpt>
      <trkpt lat="57.40409" lon="-5.64645">
        <ele>162.1</ele>
        <time>2021-03-20T19:32:27Z</time>
      </trkpt>
      <trkpt lat="57.40347" lon="-5.64697">
        <ele>163.85</ele>
        <time>2021-03-20T19:32:30Z</time>
      </trkpt>
      <trkpt lat="57.40305" lon="-5.64748">
        <ele>164.69</ele>
        <time>2021-03-20T19:32:33Z</time>
      </trkpt>
      <trkpt lat="57.40275" lon="-5.64793">
        <ele>165.94</ele>
        <time>2021-03-20T19:32:36Z</time>
      </trkpt>
      <trkpt lat="57.40245" lon="-5.64857">
        <ele>171.84</ele>
        <time>2021-03-20T19:32:39Z</time>
      </trkpt>
      <trkpt lat="57.40232" lon="-5.64879">
        <ele>173.71</ele>
        <time>2021-03-20T19:32:42Z</time>
      </trkpt>
      <trkpt lat="57.40218" lon="-5.64894">
        <ele>174.49</ele>
        <time>2021-03-20T19:32:45Z</time>
      </trkpt>
      <trkpt lat="57.40206" lon="-5.64904">
        <ele>175.19</ele>
        <time>2021-03-20T19:32:48Z</time>
      </trkpt>
      <trkpt lat="57.40189" lon="-5.64912">
        <ele>175.97</ele>
        <time>2021-03-20T19:32:50Z</time>
      </trkpt>
      <trkpt lat="57.40126" lon="-5.64918">
        <ele>176.24</ele>
        <time>2021-03-20T19:32:53Z</time>
      </trkpt>
      <trkpt lat="57.40096" lon="-5.64934">
        <ele>177.89</ele>
        <time>2021-03-20T19:32:56Z</time>
      </trkpt>
      <trkpt lat="57.4008" lon="-5.64955">
        <ele>179.27</ele>
        <time>2021-03-20T19:32:59Z</time>
      </trkpt>
      <trkpt lat="57.40072" lon="-5.64971">
        <ele>178.97</ele>
        <time>2021-03-20T19:33:02Z</time>
      </trkpt>
      <trkpt lat="57.40068" lon="-5.64985">
        <ele>179.23</ele>
        <time>2021-03-20T19:33:05Z</time>
      </trkpt>
      <trkpt lat="57.40066" lon="-5.65004">
        <ele>180.03</ele>
        <time>2021-03-20T19:33:08Z</time>
      </trkpt>
      <trkpt lat="57.40066" lon="-5.65025">
        <ele>181.02</ele>
        <time>2021-03-20T19:33:11Z</time>
      </trkpt>
      <trkpt lat="57.40073" lon="-5.65042">
        <ele>183.13</ele>
        <time>2021-03-20T19:33:14Z</time>
      </trkpt>
      <trkpt lat="57.40083" lon="-5.65056">
        <ele>185.83</ele>
        <time>2021-03-20T19:33:17Z</time>
      </trkpt>
      <trkpt lat="57.40105" lon="-5.65071">
        <ele>189.03</ele>
        <time>2021-03-20T19:33:20Z</time>
      </trkpt>
      <trkpt lat="57.40134" lon="-5.65083">
        <ele>192.48</ele>
        <time>2021-03-20T19:33:23Z</time>
      </trkpt>
      <trkpt lat="57.40243" lon="-5.65108">
        <ele>202.28</ele>
        <time>2021-03-20T19:33:25Z</time>
      </trkpt>
      <trkpt lat="57.40254" lon="-5.65115">
        <ele>203.51</ele>
        <time>2021-03-20T19:33:28Z</time>
      </trkpt>
      <trkpt lat="57.40264" lon="-5.65128">
        <ele>204.9</ele>
        <time>2021-03-20T19:33:31Z</time>
      </trkpt>
      <trkpt lat="57.40271" lon="-5.65149">
        <ele>206.15</ele>
        <time>2021-03-20T19:33:34Z</time>
      </trkpt>
      <trkpt lat="57.40277" lon="-5.65175">
        <ele>207.57</ele>
        <time>2021-03-20T19:33:37Z</time>
      </trkpt>
      <trkpt lat="57.4028" lon="-5.65197">
        <ele>209.27</ele>
        <time>2021-03-20T19:33:40Z</time>
      </trkpt>
      <trkpt lat="57.40281" lon="-5.65222">
        <ele>210.29</ele>
        <time>2021-03-20T19:33:43Z</time>
      </trkpt>
      <trkpt lat="57.40278" lon="-5.6525">
        <ele>213.05</ele>
        <time>2021-03-20T19:33:46Z</time>
      </trkpt>
      <trkpt lat="57.40275" lon="-5.65276">
        <ele>215.09</ele>
        <time>2021-03-20T19:33:49Z</time>
      </trkpt>
      <trkpt lat="57.40244" lon="-5.65376">
        <ele>214.34</ele>
        <time>2021-03-20T19:33:52Z</time>
      </trkpt>
      <trkpt lat="57.40212" lon="-5.65502">
        <ele>215.82</ele>
        <time>2021-03-20T19:33:55Z</time>
      </trkpt>
      <trkpt lat="57.40209" lon="-5.65526">
        <ele>217.02</ele>
        <time>2021-03-20T19:33:58Z</time>
      </trkpt>
      <trkpt lat="57.40211" lon="-5.65549">
        <ele>218.65</ele>
        <time>2021-03-20T19:34:01Z</time>
      </trkpt>
      <trkpt lat="57.4022" lon="-5.65582">
        <ele>220.61</ele>
        <time>2021-03-20T19:34:03Z</time>
      </trkpt>
      <trkpt lat="57.40229" lon="-5.65604">
        <ele>222.51</ele>
        <time>2021-03-20T19:34:06Z</time>
      </trkpt>
      <trkpt lat="57.40284" lon="-5.657">
        <ele>229</ele>
        <time>2021-03-20T19:34:09Z</time>
      </trkpt>
      <trkpt lat="57.40338" lon="-5.65779">
        <ele>234.61</ele>
        <time>2021-03-20T19:34:12Z</time>
      </trkpt>
      <trkpt lat="57.40386" lon="-5.65864">
        <ele>238.42</ele>
        <time>2021-03-20T19:34:15Z</time>
      </trkpt>
      <trkpt lat="57.404" lon="-5.65904">
        <ele>240.81</ele>
        <time>2021-03-20T19:34:18Z</time>
      </trkpt>
      <trkpt lat="57.40423" lon="-5.66033">
        <ele>245.43</ele>
        <time>2021-03-20T19:34:21Z</time>
      </trkpt>
      <trkpt lat="57.40432" lon="-5.66056">
        <ele>246.71</ele>
        <time>2021-03-20T19:34:24Z</time>
      </trkpt>
      <trkpt lat="57.40445" lon="-5.66077">
        <ele>248.57</ele>
        <time>2021-03-20T19:34:27Z</time>
      </trkpt>
      <trkpt lat="57.40517" lon="-5.66154">
        <ele>261.27</ele>
        <time>2021-03-20T19:34:30Z</time>
      </trkpt>
      <trkpt lat="57.40529" lon="-5.66184">
        <ele>263.79</ele>
        <time>2021-03-20T19:34:33Z</time>
      </trkpt>
      <trkpt lat="57.4058" lon="-5.66398">
        <ele>274.99</ele>
        <time>2021-03-20T19:34:36Z</time>
      </trkpt>
      <trkpt lat="57.4061" lon="-5.66493">
        <ele>280.76</ele>
        <time>2021-03-20T19:34:39Z</time>
      </trkpt>
      <trkpt lat="57.40623" lon="-5.66545">
        <ele>284.46</ele>
        <time>2021-03-20T19:34:41Z</time>
      </trkpt>
      <trkpt lat="57.40634" lon="-5.66641">
        <ele>288.69</ele>
        <time>2021-03-20T19:34:44Z</time>
      </trkpt>
      <trkpt lat="57.4064" lon="-5.66677">
        <ele>290.14</ele>
        <time>2021-03-20T19:34:47Z</time>
      </trkpt>
      <trkpt lat="57.4067" lon="-5.668">
        <ele>300.61</ele>
        <time>2021-03-20T19:34:50Z</time>
      </trkpt>
      <trkpt lat="57.40676" lon="-5.66843">
        <ele>303.86</ele>
        <time>2021-03-20T19:34:53Z</time>
      </trkpt>
      <trkpt lat="57.40695" lon="-5.67002">
        <ele>308.18</ele>
        <time>2021-03-20T19:34:56Z</time>
      </trkpt>
      <trkpt lat="57.40741" lon="-5.67262">
        <ele>324.44</ele>
        <time>2021-03-20T19:34:59Z</time>
      </trkpt>
      <trkpt lat="57.40751" lon="-5.67354">
        <ele>328.64</ele>
        <time>2021-03-20T19:35:02Z</time>
      </trkpt>
      <trkpt lat="57.40765" lon="-5.67453">
        <ele>339.11</ele>
        <time>2021-03-20T19:35:05Z</time>
      </trkpt>
      <trkpt lat="57.40791" lon="-5.6777">
        <ele>376.45</ele>
        <time>2021-03-20T19:35:08Z</time>
      </trkpt>
      <trkpt lat="57.40794" lon="-5.67848">
        <ele>362.79</ele>
        <time>2021-03-20T19:35:11Z</time>
      </trkpt>
      <trkpt lat="57.40793" lon="-5.67933">
        <ele>370.23</ele>
        <time>2021-03-20T19:35:14Z</time>
      </trkpt>
      <trkpt lat="57.40788" lon="-5.67996">
        <ele>369.85</ele>
        <time>2021-03-20T19:35:16Z</time>
      </trkpt>
      <trkpt lat="57.40788" lon="-5.68094">
        <ele>376.22</ele>
        <time>2021-03-20T19:35:19Z</time>
      </trkpt>
      <trkpt lat="57.40784" lon="-5.68118">
        <ele>377.87</ele>
        <time>2021-03-20T19:35:22Z</time>
      </trkpt>
      <trkpt lat="57.40765" lon="-5.68176">
        <ele>373.38</ele>
        <time>2021-03-20T19:35:25Z</time>
      </trkpt>
      <trkpt lat="57.4075" lon="-5.68232">
        <ele>378.62</ele>
        <time>2021-03-20T19:35:28Z</time>
      </trkpt>
      <trkpt lat="57.40727" lon="-5.68339">
        <ele>380.41</ele>
        <time>2021-03-20T19:35:31Z</time>
      </trkpt>
      <trkpt lat="57.40718" lon="-5.68397">
        <ele>385.82</ele>
        <time>2021-03-20T19:35:34Z</time>
      </trkpt>
      <trkpt lat="57.40707" lon="-5.68492">
        <ele>392.22</ele>
        <time>2021-03-20T19:35:37Z</time>
      </trkpt>
      <trkpt lat="57.40704" lon="-5.68579">
        <ele>397.22</ele>
        <time>2021-03-20T19:35:40Z</time>
      </trkpt>
      <trkpt lat="57.40708" lon="-5.68615">
        <ele>398.42</ele>
        <time>2021-03-20T19:35:43Z</time>
      </trkpt>
      <trkpt lat="57.40714" lon="-5.68638">
        <ele>399.88</ele>
        <time>2021-03-20T19:35:46Z</time>
      </trkpt>
      <trkpt lat="57.40742" lon="-5.687">
        <ele>407.57</ele>
        <time>2021-03-20T19:35:49Z</time>
      </trkpt>
      <trkpt lat="57.40752" lon="-5.6873">
        <ele>410.48</ele>
        <time>2021-03-20T19:35:52Z</time>
      </trkpt>
      <trkpt lat="57.40784" lon="-5.689">
        <ele>422.22</ele>
        <time>2021-03-20T19:35:54Z</time>
      </trkpt>
      <trkpt lat="57.40793" lon="-5.68926">
        <ele>423.56</ele>
        <time>2021-03-20T19:35:57Z</time>
      </trkpt>
      <trkpt lat="57.4093" lon="-5.69172">
        <ele>450.09</ele>
        <time>2021-03-20T19:36:00Z</time>
      </trkpt>
      <trkpt lat="57.40955" lon="-5.69225">
        <ele>456.85</ele>
        <time>2021-03-20T19:36:03Z</time>
      </trkpt>
      <trkpt lat="57.4098" lon="-5.69285">
        <ele>463.79</ele>
        <time>2021-03-20T19:36:06Z</time>
      </trkpt>
      <trkpt lat="57.41054" lon="-5.6952">
        <ele>492.11</ele>
        <time>2021-03-20T19:36:09Z</time>
      </trkpt>
      <trkpt lat="57.41069" lon="-5.69585">
        <ele>500.69</ele>
        <time>2021-03-20T19:36:12Z</time>
      </trkpt>
      <trkpt lat="57.41077" lon="-5.69653">
        <ele>509.34</ele>
        <time>2021-03-20T19:36:15Z</time>
      </trkpt>
      <trkpt lat="57.41074" lon="-5.69704">
        <ele>510.77</ele>
        <time>2021-03-20T19:36:18Z</time>
      </trkpt>
      <trkpt lat="57.41069" lon="-5.69751">
        <ele>512.21</ele>
        <time>2021-03-20T19:36:21Z</time>
      </trkpt>
      <trkpt lat="57.4106" lon="-5.6979">
        <ele>512.63</ele>
        <time>2021-03-20T19:36:24Z</time>
      </trkpt>
      <trkpt lat="57.41046" lon="-5.69833">
        <ele>514.93</ele>
        <time>2021-03-20T19:36:27Z</time>
      </trkpt>
      <trkpt lat="57.41026" lon="-5.69861">
        <ele>517.91</ele>
        <time>2021-03-20T19:36:30Z</time>
      </trkpt>
      <trkpt lat="57.40957" lon="-5.69907">
        <ele>528.09</ele>
        <time>2021-03-20T19:36:32Z</time>
      </trkpt>
      <trkpt lat="57.40953" lon="-5.69916">
        <ele>530.94</ele>
        <time>2021-03-20T19:36:35Z</time>
      </trkpt>
      <trkpt lat="57.40958" lon="-5.69923">
        <ele>531.99</ele>
        <time>2021-03-20T19:36:38Z</time>
      </trkpt>
      <trkpt lat="57.40973" lon="-5.69918">
        <ele>529.23</ele>
        <time>2021-03-20T19:36:41Z</time>
      </trkpt>
      <trkpt lat="57.4103" lon="-5.69917">
        <ele>531.1</ele>
        <time>2021-03-20T19:36:44Z</time>
      </trkpt>
      <trkpt lat="57.41047" lon="-5.69932">
        <ele>534.4</ele>
        <time>2021-03-20T19:36:47Z</time>
      </trkpt>
      <trkpt lat="57.4108" lon="-5.69988">
        <ele>547.37</ele>
        <time>2021-03-20T19:36:50Z</time>
      </trkpt>
      <trkpt lat="57.4109" lon="-5.69994">
        <ele>549.74</ele>
        <time>2021-03-20T19:36:53Z</time>
      </trkpt>
      <trkpt lat="57.411" lon="-5.6999">
        <ele>551.41</ele>
        <time>2021-03-20T19:36:56Z</time>
      </trkpt>
      <trkpt lat="57.4111" lon="-5.69975">
        <ele>551.99</ele>
        <time>2021-03-20T19:36:59Z</time>
      </trkpt>
      <trkpt lat="57.41118" lon="-5.69953">
        <ele>551.72</ele>
        <time>2021-03-20T19:37:02Z</time>
      </trkpt>
      <trkpt lat="57.41122" lon="-5.69934">
        <ele>551.77</ele>
        <time>2021-03-20T19:37:05Z</time>
      </trkpt>
      <trkpt lat="57.4113" lon="-5.69882">
        <ele>552.03</ele>
        <time>2021-03-20T19:37:07Z</time>
      </trkpt>
      <trkpt lat="57.41133" lon="-5.69834">
        <ele>550.99</ele>
        <time>2021-03-20T19:37:10Z</time>
      </trkpt>
      <trkpt lat="57.41137" lon="-5.69823">
        <ele>552.97</ele>
        <time>2021-03-20T19:37:13Z</time>
      </trkpt>
      <trkpt lat="57.41144" lon="-5.69823">
        <ele>557.56</ele>
        <time>2021-03-20T19:37:16Z</time>
      </trkpt>
      <trkpt lat="57.41147" lon="-5.69835">
        <ele>559.58</ele>
        <time>2021-03-20T19:37:19Z</time>
      </trkpt>
      <trkpt lat="57.41144" lon="-5.69878">
        <ele>558.23</ele>
        <time>2021-03-20T19:37:22Z</time>
      </trkpt>
      <trkpt lat="57.4115" lon="-5.6998">
        <ele>562.89</ele>
        <time>2021-03-20T19:37:25Z</time>
      </trkpt>
      <trkpt lat="57.41163" lon="-5.7006">
        <ele>570.74</ele>
        <time>2021-03-20T19:37:28Z</time>
      </trkpt>
      <trkpt lat="57.41163" lon="-5.70072">
        <ele>572.11</ele>
        <time>2021-03-20T19:37:31Z</time>
      </trkpt>
      <trkpt lat="57.41159" lon="-5.7008">
        <ele>572.58</ele>
        <time>2021-03-20T19:37:34Z</time>
      </trkpt>
      <trkpt lat="57.41132" lon="-5.70107">
        <ele>573.15</ele>
        <time>2021-03-20T19:37:37Z</time>
      </trkpt>
      <trkpt lat="57.4111" lon="-5.70123">
        <ele>574.65</ele>
        <time>2021-03-20T19:37:40Z</time>
      </trkpt>
      <trkpt lat="57.41103" lon="-5.70137">
        <ele>576.42</ele>
        <time>2021-03-20T19:37:43Z</time>
      </trkpt>
      <trkpt lat="57.41108" lon="-5.7015">
        <ele>578.4</ele>
        <time>2021-03-20T19:37:45Z</time>
      </trkpt>
      <trkpt lat="57.41164" lon="-5.70171">
        <ele>583.17</ele>
        <time>2021-03-20T19:37:48Z</time>
      </trkpt>
      <trkpt lat="57.41192" lon="-5.70178">
        <ele>585.61</ele>
        <time>2021-03-20T19:37:51Z</time>
      </trkpt>
      <trkpt lat="57.41214" lon="-5.70176">
        <ele>587.54</ele>
        <time>2021-03-20T19:37:54Z</time>
      </trkpt>
      <trkpt lat="57.41233" lon="-5.70166">
        <ele>588.79</ele>
        <time>2021-03-20T19:37:57Z</time>
      </trkpt>
      <trkpt lat="57.41263" lon="-5.70144">
        <ele>591.36</ele>
        <time>2021-03-20T19:38:00Z</time>
      </trkpt>
      <trkpt lat="57.41277" lon="-5.7014">
        <ele>592.91</ele>
        <time>2021-03-20T19:38:03Z</time>
      </trkpt>
      <trkpt lat="57.41291" lon="-5.70148">
        <ele>592.98</ele>
        <time>2021-03-20T19:38:06Z</time>
      </trkpt>
      <trkpt lat="57.41418" lon="-5.7036">
        <ele>603.32</ele>
        <time>2021-03-20T19:38:09Z</time>
      </trkpt>
      <trkpt lat="57.41456" lon="-5.70419">
        <ele>610.29</ele>
        <time>2021-03-20T19:38:12Z</time>
      </trkpt>
      <trkpt lat="57.41487" lon="-5.70461">
        <ele>613.14</ele>
        <time>2021-03-20T19:38:15Z</time>
      </trkpt>
      <trkpt lat="57.41524" lon="-5.70501">
        <ele>616.03</ele>
        <time>2021-03-20T19:38:18Z</time>
      </trkpt>
      <trkpt lat="57.41539" lon="-5.70513">
        <ele>618.25</ele>
        <time>2021-03-20T19:38:21Z</time>
      </trkpt>
      <trkpt lat="57.41576" lon="-5.70533">
        <ele>622.21</ele>
        <time>2021-03-20T19:38:23Z</time>
      </trkpt>
      <trkpt lat="57.41591" lon="-5.70545">
        <ele>623.33</ele>
        <time>2021-03-20T19:38:26Z</time>
      </trkpt>
      <trkpt lat="57.41642" lon="-5.7061">
        <ele>625.68</ele>
        <time>2021-03-20T19:38:29Z</time>
      </trkpt>
      <trkpt lat="57.4167" lon="-5.70638">
        <ele>624.85</ele>
        <time>2021-03-20T19:38:32Z</time>
      </trkpt>
      <trkpt lat="57.417" lon="-5.70664">
        <ele>624.91</ele>
        <time>2021-03-20T19:38:35Z</time>
      </trkpt>
      <trkpt lat="57.41798" lon="-5.70714">
        <ele>624.54</ele>
        <time>2021-03-20T19:38:38Z</time>
      </trkpt>
      <trkpt lat="57.41822" lon="-5.70729">
        <ele>621.79</ele>
        <time>2021-03-20T19:38:41Z</time>
      </trkpt>
      <trkpt lat="57.41837" lon="-5.7075">
        <ele>620.73</ele>
        <time>2021-03-20T19:38:44Z</time>
      </trkpt>
      <trkpt lat="57.41863" lon="-5.70801">
        <ele>620.75</ele>
        <time>2021-03-20T19:38:47Z</time>
      </trkpt>
      <trkpt lat="57.41878" lon="-5.70823">
        <ele>620.78</ele>
        <time>2021-03-20T19:38:50Z</time>
      </trkpt>
      <trkpt lat="57.41932" lon="-5.70866">
        <ele>619.66</ele>
        <time>2021-03-20T19:38:53Z</time>
      </trkpt>
      <trkpt lat="57.41998" lon="-5.70911">
        <ele>617.67</ele>
        <time>2021-03-20T19:38:56Z</time>
      </trkpt>
      <trkpt lat="57.42023" lon="-5.70935">
        <ele>614.92</ele>
        <time>2021-03-20T19:38:58Z</time>
      </trkpt>
      <trkpt lat="57.4205" lon="-5.70974">
        <ele>614.55</ele>
        <time>2021-03-20T19:39:01Z</time>
      </trkpt>
      <trkpt lat="57.42088" lon="-5.71037">
        <ele>611.22</ele>
        <time>2021-03-20T19:39:04Z</time>
      </trkpt>
      <trkpt lat="57.42113" lon="-5.71124">
        <ele>608.11</ele>
        <time>2021-03-20T19:39:07Z</time>
      </trkpt>
      <trkpt lat="57.42121" lon="-5.71147">
        <ele>607.49</ele>
        <time>2021-03-20T19:39:10Z</time>
      </trkpt>
      <trkpt lat="57.42138" lon="-5.71179">
        <ele>605.59</ele>
        <time>2021-03-20T19:39:13Z</time>
      </trkpt>
      <trkpt lat="57.42197" lon="-5.71279">
        <ele>596.6</ele>
        <time>2021-03-20T19:39:16Z</time>
      </trkpt>
      <trkpt lat="57.42219" lon="-5.71322">
        <ele>592.62</ele>
        <time>2021-03-20T19:39:19Z</time>
      </trkpt>
      <trkpt lat="57.42294" lon="-5.71502">
        <ele>585.8</ele>
        <time>2021-03-20T19:39:22Z</time>
      </trkpt>
      <trkpt lat="57.42328" lon="-5.7156">
        <ele>582.91</ele>
        <time>2021-03-20T19:39:25Z</time>
      </trkpt>
      <trkpt lat="57.42357" lon="-5.71599">
        <ele>579.42</ele>
        <time>2021-03-20T19:39:28Z</time>
      </trkpt>
      <trkpt lat="57.42388" lon="-5.71625">
        <ele>576.76</ele>
        <time>2021-03-20T19:39:31Z</time>
      </trkpt>
      <trkpt lat="57.4247" lon="-5.71661">
        <ele>568.53</ele>
        <time>2021-03-20T19:39:34Z</time>
      </trkpt>
      <trkpt lat="57.42503" lon="-5.71695">
        <ele>563.26</ele>
        <time>2021-03-20T19:39:36Z</time>
      </trkpt>
      <trkpt lat="57.42533" lon="-5.71754">
        <ele>558.41</ele>
        <time>2021-03-20T19:39:39Z</time>
      </trkpt>
      <trkpt lat="57.4258" lon="-5.71901">
        <ele>548.42</ele>
        <time>2021-03-20T19:39:42Z</time>
      </trkpt>
      <trkpt lat="57.42603" lon="-5.71952">
        <ele>542.12</ele>
        <time>2021-03-20T19:39:45Z</time>
      </trkpt>
      <trkpt lat="57.42647" lon="-5.72015">
        <ele>533.82</ele>
        <time>2021-03-20T19:39:48Z</time>
      </trkpt>
      <trkpt lat="57.42711" lon="-5.72147">
        <ele>522.64</ele>
        <time>2021-03-20T19:39:51Z</time>
      </trkpt>
      <trkpt lat="57.42727" lon="-5.72184">
        <ele>518.71</ele>
        <time>2021-03-20T19:39:54Z</time>
      </trkpt>
      <trkpt lat="57.42767" lon="-5.72319">
        <ele>504.07</ele>
        <time>2021-03-20T19:39:57Z</time>
      </trkpt>
      <trkpt lat="57.42769" lon="-5.72348">
        <ele>503.25</ele>
        <time>2021-03-20T19:40:00Z</time>
      </trkpt>
      <trkpt lat="57.42767" lon="-5.72422">
        <ele>500.38</ele>
        <time>2021-03-20T19:40:03Z</time>
      </trkpt>
      <trkpt lat="57.42768" lon="-5.72521">
        <ele>486.58</ele>
        <time>2021-03-20T19:40:06Z</time>
      </trkpt>
      <trkpt lat="57.42757" lon="-5.72543">
        <ele>484.8</ele>
        <time>2021-03-20T19:40:09Z</time>
      </trkpt>
      <trkpt lat="57.42705" lon="-5.72577">
        <ele>485.1</ele>
        <time>2021-03-20T19:40:12Z</time>
      </trkpt>
      <trkpt lat="57.42695" lon="-5.72592">
        <ele>482.38</ele>
        <time>2021-03-20T19:40:14Z</time>
      </trkpt>
      <trkpt lat="57.42698" lon="-5.72605">
        <ele>479.93</ele>
        <time>2021-03-20T19:40:17Z</time>
      </trkpt>
      <trkpt lat="57.42707" lon="-5.72616">
        <ele>477.53</ele>
        <time>2021-03-20T19:40:20Z</time>
      </trkpt>
      <trkpt lat="57.42764" lon="-5.72645">
        <ele>468.38</ele>
        <time>2021-03-20T19:40:23Z</time>
      </trkpt>
      <trkpt lat="57.42781" lon="-5.72666">
        <ele>465.8</ele>
        <time>2021-03-20T19:40:26Z</time>
      </trkpt>
      <trkpt lat="57.42851" lon="-5.72858">
        <ele>445.64</ele>
        <time>2021-03-20T19:40:29Z</time>
      </trkpt>
      <trkpt lat="57.42917" lon="-5.7301">
        <ele>433.63</ele>
        <time>2021-03-20T19:40:32Z</time>
      </trkpt>
      <trkpt lat="57.42982" lon="-5.73141">
        <ele>425.57</ele>
        <time>2021-03-20T19:40:35Z</time>
      </trkpt>
      <trkpt lat="57.43" lon="-5.73204">
        <ele>423.01</ele>
        <time>2021-03-20T19:40:38Z</time>
      </trkpt>
      <trkpt lat="57.43024" lon="-5.73344">
        <ele>418.58</ele>
        <time>2021-03-20T19:40:41Z</time>
      </trkpt>
      <trkpt lat="57.43047" lon="-5.73701">
        <ele>396.77</ele>
        <time>2021-03-20T19:40:44Z</time>
      </trkpt>
      <trkpt lat="57.43057" lon="-5.73791">
        <ele>395.98</ele>
        <time>2021-03-20T19:40:47Z</time>
      </trkpt>
      <trkpt lat="57.43113" lon="-5.73978">
        <ele>390.55</ele>
        <time>2021-03-20T19:40:49Z</time>
      </trkpt>
      <trkpt lat="57.43132" lon="-5.74065">
        <ele>385.66</ele>
        <time>2021-03-20T19:40:52Z</time>
      </trkpt>
      <trkpt lat="57.43136" lon="-5.74108">
        <ele>385</ele>
        <time>2021-03-20T19:40:55Z</time>
      </trkpt>
      <trkpt lat="57.43134" lon="-5.74162">
        <ele>384.17</ele>
        <time>2021-03-20T19:40:58Z</time>
      </trkpt>
      <trkpt lat="57.43128" lon="-5.74201">
        <ele>385.15</ele>
        <time>2021-03-20T19:41:01Z</time>
      </trkpt>
      <trkpt lat="57.43109" lon="-5.74258">
        <ele>386.02</ele>
        <time>2021-03-20T19:41:04Z</time>
      </trkpt>
      <trkpt lat="57.43094" lon="-5.74287">
        <ele>384.73</ele>
        <time>2021-03-20T19:41:07Z</time>
      </trkpt>
      <trkpt lat="57.43075" lon="-5.74314">
        <ele>381.39</ele>
        <time>2021-03-20T19:41:10Z</time>
      </trkpt>
      <trkpt lat="57.43062" lon="-5.74328">
        <ele>378.5</ele>
        <time>2021-03-20T19:41:13Z</time>
      </trkpt>
      <trkpt lat="57.4305" lon="-5.74355">
        <ele>375.43</ele>
        <time>2021-03-20T19:41:16Z</time>
      </trkpt>
      <trkpt lat="57.43046" lon="-5.74395">
        <ele>373.04</ele>
        <time>2021-03-20T19:41:19Z</time>
      </trkpt>
      <trkpt lat="57.43048" lon="-5.74416">
        <ele>370.89</ele>
        <time>2021-03-20T19:41:22Z</time>
      </trkpt>
      <trkpt lat="57.43053" lon="-5.74441">
        <ele>368.91</ele>
        <time>2021-03-20T19:41:25Z</time>
      </trkpt>
      <trkpt lat="57.43066" lon="-5.74474">
        <ele>365.75</ele>
        <time>2021-03-20T19:41:27Z</time>
      </trkpt>
      <trkpt lat="57.43082" lon="-5.74498">
        <ele>364.92</ele>
        <time>2021-03-20T19:41:30Z</time>
      </trkpt>
      <trkpt lat="57.43146" lon="-5.7458">
        <ele>359.09</ele>
        <time>2021-03-20T19:41:33Z</time>
      </trkpt>
      <trkpt lat="57.43241" lon="-5.74668">
        <ele>351.57</ele>
        <time>2021-03-20T19:41:36Z</time>
      </trkpt>
      <trkpt lat="57.43292" lon="-5.74723">
        <ele>347.39</ele>
        <time>2021-03-20T19:41:39Z</time>
      </trkpt>
      <trkpt lat="57.43307" lon="-5.74751">
        <ele>343.91</ele>
        <time>2021-03-20T19:41:42Z</time>
      </trkpt>
      <trkpt lat="57.43346" lon="-5.7489">
        <ele>334.86</ele>
        <time>2021-03-20T19:41:45Z</time>
      </trkpt>
      <trkpt lat="57.43469" lon="-5.7513">
        <ele>310.75</ele>
        <time>2021-03-20T19:41:48Z</time>
      </trkpt>
      <trkpt lat="57.43474" lon="-5.75155">
        <ele>309.4</ele>
        <time>2021-03-20T19:41:51Z</time>
      </trkpt>
      <trkpt lat="57.43471" lon="-5.75175">
        <ele>308.42</ele>
        <time>2021-03-20T19:41:54Z</time>
      </trkpt>
      <trkpt lat="57.43448" lon="-5.75195">
        <ele>307.87</ele>
        <time>2021-03-20T19:41:57Z</time>
      </trkpt>
      <trkpt lat="57.4321" lon="-5.75341">
        <ele>286.57</ele>
        <time>2021-03-20T19:42:00Z</time>
      </trkpt>
      <trkpt lat="57.43206" lon="-5.75373">
        <ele>284.1</ele>
        <time>2021-03-20T19:42:03Z</time>
      </trkpt>
      <trkpt lat="57.43208" lon="-5.75403">
        <ele>282.48</ele>
        <time>2021-03-20T19:42:05Z</time>
      </trkpt>
      <trkpt lat="57.43222" lon="-5.75455">
        <ele>279.85</ele>
        <time>2021-03-20T19:42:08Z</time>
      </trkpt>
      <trkpt lat="57.43248" lon="-5.75517">
        <ele>275.05</ele>
        <time>2021-03-20T19:42:11Z</time>
      </trkpt>
      <trkpt lat="57.43251" lon="-5.75556">
        <ele>272.02</ele>
        <time>2021-03-20T19:42:14Z</time>
      </trkpt>
      <trkpt lat="57.43244" lon="-5.75581">
        <ele>269.99</ele>
        <time>2021-03-20T19:42:17Z</time>
      </trkpt>
      <trkpt lat="57.43234" lon="-5.75595">
        <ele>268.85</ele>
        <time>2021-03-20T19:42:20Z</time>
      </trkpt>
      <trkpt lat="57.4319" lon="-5.75626">
        <ele>265.75</ele>
        <time>2021-03-20T19:42:23Z</time>
      </trkpt>
      <trkpt lat="57.43162" lon="-5.75654">
        <ele>263.36</ele>
        <time>2021-03-20T19:42:26Z</time>
      </trkpt>
      <trkpt lat="57.43144" lon="-5.75678">
        <ele>261.27</ele>
        <time>2021-03-20T19:42:29Z</time>
      </trkpt>
      <trkpt lat="57.43119" lon="-5.75735">
        <ele>256.38</ele>
        <time>2021-03-20T19:42:32Z</time>
      </trkpt>
      <trkpt lat="57.431" lon="-5.75792">
        <ele>253.78</ele>
        <time>2021-03-20T19:42:35Z</time>
      </trkpt>
      <trkpt lat="57.43094" lon="-5.75813">
        <ele>253.76</ele>
        <time>2021-03-20T19:42:38Z</time>
      </trkpt>
      <trkpt lat="57.43091" lon="-5.75844">
        <ele>254.19</ele>
        <time>2021-03-20T19:42:40Z</time>
      </trkpt>
      <trkpt lat="57.43098" lon="-5.75876">
        <ele>253.44</ele>
        <time>2021-03-20T19:42:43Z</time>
      </trkpt>
      <trkpt lat="57.4319" lon="-5.76105">
        <ele>246.6</ele>
        <time>2021-03-20T19:42:46Z</time>
      </trkpt>
      <trkpt lat="57.43221" lon="-5.76159">
        <ele>243.08</ele>
        <time>2021-03-20T19:42:49Z</time>
      </trkpt>
      <trkpt lat="57.43249" lon="-5.7619">
        <ele>241.85</ele>
        <time>2021-03-20T19:42:52Z</time>
      </trkpt>
      <trkpt lat="57.43285" lon="-5.76209">
        <ele>239.85</ele>
        <time>2021-03-20T19:42:55Z</time>
      </trkpt>
      <trkpt lat="57.43322" lon="-5.76241">
        <ele>237.45</ele>
        <time>2021-03-20T19:42:58Z</time>
      </trkpt>
      <trkpt lat="57.43353" lon="-5.76282">
        <ele>233.19</ele>
        <time>2021-03-20T19:43:01Z</time>
      </trkpt>
      <trkpt lat="57.4349" lon="-5.7651">
        <ele>225.58</ele>
        <time>2021-03-20T19:43:04Z</time>
      </trkpt>
      <trkpt lat="57.4356" lon="-5.76668">
        <ele>220.04</ele>
        <time>2021-03-20T19:43:07Z</time>
      </trkpt>
      <trkpt lat="57.43606" lon="-5.76761">
        <ele>215.34</ele>
        <time>2021-03-20T19:43:10Z</time>
      </trkpt>
      <trkpt lat="57.4363" lon="-5.76826">
        <ele>212.08</ele>
        <time>2021-03-20T19:43:13Z</time>
      </trkpt>
      <trkpt lat="57.43662" lon="-5.76966">
        <ele>210.52</ele>
        <time>2021-03-20T19:43:16Z</time>
      </trkpt>
      <trkpt lat="57.43715" lon="-5.77072">
        <ele>206.25</ele>
        <time>2021-03-20T19:43:18Z</time>
      </trkpt>
      <trkpt lat="57.43749" lon="-5.77183">
        <ele>202.74</ele>
        <time>2021-03-20T19:43:21Z</time>
      </trkpt>
      <trkpt lat="57.43799" lon="-5.77313">
        <ele>203.03</ele>
        <time>2021-03-20T19:43:24Z</time>
      </trkpt>
      <trkpt lat="57.4383" lon="-5.77384">
        <ele>199.51</ele>
        <time>2021-03-20T19:43:27Z</time>
      </trkpt>
      <trkpt lat="57.43858" lon="-5.77439">
        <ele>195.43</ele>
        <time>2021-03-20T19:43:30Z</time>
      </trkpt>
      <trkpt lat="57.43909" lon="-5.77523">
        <ele>192.83</ele>
        <time>2021-03-20T19:43:33Z</time>
      </trkpt>
      <trkpt lat="57.4393" lon="-5.77597">
        <ele>190.07</ele>
        <time>2021-03-20T19:43:36Z</time>
      </trkpt>
      <trkpt lat="57.43935" lon="-5.77653">
        <ele>189.01</ele>
        <time>2021-03-20T19:43:39Z</time>
      </trkpt>
      <trkpt lat="57.43935" lon="-5.77687">
        <ele>188.04</ele>
        <time>2021-03-20T19:43:42Z</time>
      </trkpt>
      <trkpt lat="57.43891" lon="-5.78035">
        <ele>179.82</ele>
        <time>2021-03-20T19:43:45Z</time>
      </trkpt>
      <trkpt lat="57.4388" lon="-5.78073">
        <ele>178.37</ele>
        <time>2021-03-20T19:43:48Z</time>
      </trkpt>
      <trkpt lat="57.43796" lon="-5.78274">
        <ele>170.97</ele>
        <time>2021-03-20T19:43:51Z</time>
      </trkpt>
      <trkpt lat="57.43789" lon="-5.78309">
        <ele>169.06</ele>
        <time>2021-03-20T19:43:54Z</time>
      </trkpt>
      <trkpt lat="57.43788" lon="-5.78327">
        <ele>168.48</ele>
        <time>2021-03-20T19:43:56Z</time>
      </trkpt>
      <trkpt lat="57.43796" lon="-5.78418">
        <ele>160.91</ele>
        <time>2021-03-20T19:43:59Z</time>
      </trkpt>
      <trkpt lat="57.43797" lon="-5.78464">
        <ele>156.16</ele>
        <time>2021-03-20T19:44:02Z</time>
      </trkpt>
      <trkpt lat="57.43774" lon="-5.78564">
        <ele>151.92</ele>
        <time>2021-03-20T19:44:05Z</time>
      </trkpt>
      <trkpt lat="57.43757" lon="-5.78683">
        <ele>146.78</ele>
        <time>2021-03-20T19:44:08Z</time>
      </trkpt>
      <trkpt lat="57.4374" lon="-5.78766">
        <ele>145.96</ele>
        <time>2021-03-20T19:44:11Z</time>
      </trkpt>
      <trkpt lat="57.43685" lon="-5.78977">
        <ele>139.06</ele>
        <time>2021-03-20T19:44:14Z</time>
      </trkpt>
      <trkpt lat="57.43673" lon="-5.79011">
        <ele>137.4</ele>
        <time>2021-03-20T19:44:17Z</time>
      </trkpt>
      <trkpt lat="57.43628" lon="-5.79106">
        <ele>131.95</ele>
        <time>2021-03-20T19:44:20Z</time>
      </trkpt>
      <trkpt lat="57.43618" lon="-5.79137">
        <ele>130.2</ele>
        <time>2021-03-20T19:44:23Z</time>
      </trkpt>
      <trkpt lat="57.43605" lon="-5.7927">
        <ele>124.43</ele>
        <time>2021-03-20T19:44:26Z</time>
      </trkpt>
      <trkpt lat="57.43599" lon="-5.79299">
        <ele>122.9</ele>
        <time>2021-03-20T19:44:29Z</time>
      </trkpt>
      <trkpt lat="57.43568" lon="-5.79385">
        <ele>118.23</ele>
        <time>2021-03-20T19:44:31Z</time>
      </trkpt>
      <trkpt lat="57.43527" lon="-5.79485">
        <ele>113.78</ele>
        <time>2021-03-20T19:44:34Z</time>
      </trkpt>
      <trkpt lat="57.43493" lon="-5.79544">
        <ele>111.67</ele>
        <time>2021-03-20T19:44:37Z</time>
      </trkpt>
      <trkpt lat="57.4347" lon="-5.7957">
        <ele>111.3</ele>
        <time>2021-03-20T19:44:40Z</time>
      </trkpt>
      <trkpt lat="57.43454" lon="-5.79593">
        <ele>110.9</ele>
        <time>2021-03-20T19:44:43Z</time>
      </trkpt>
      <trkpt lat="57.43445" lon="-5.79616">
        <ele>110.39</ele>
        <time>2021-03-20T19:44:46Z</time>
      </trkpt>
      <trkpt lat="57.43438" lon="-5.79665">
        <ele>107.46</ele>
        <time>2021-03-20T19:44:49Z</time>
      </trkpt>
      <trkpt lat="57.43437" lon="-5.79774">
        <ele>99.51</ele>
        <time>2021-03-20T19:44:52Z</time>
      </trkpt>
      <trkpt lat="57.43439" lon="-5.79824">
        <ele>97.2</ele>
        <time>2021-03-20T19:44:55Z</time>
      </trkpt>
      <trkpt lat="57.43469" lon="-5.80021">
        <ele>85.95</ele>
        <time>2021-03-20T19:44:58Z</time>
      </trkpt>
      <trkpt lat="57.43472" lon="-5.80064">
        <ele>83.1</ele>
        <time>2021-03-20T19:45:01Z</time>
      </trkpt>
      <trkpt lat="57.43473" lon="-5.80113">
        <ele>78.82</ele>
        <time>2021-03-20T19:45:04Z</time>
      </trkpt>
      <trkpt lat="57.43451" lon="-5.80286">
        <ele>72.93</ele>
        <time>2021-03-20T19:45:07Z</time>
      </trkpt>
      <trkpt lat="57.43432" lon="-5.80375">
        <ele>67.44</ele>
        <time>2021-03-20T19:45:09Z</time>
      </trkpt>
      <trkpt lat="57.43372" lon="-5.80597">
        <ele>60.5</ele>
        <time>2021-03-20T19:45:12Z</time>
      </trkpt>
      <trkpt lat="57.43282" lon="-5.80941">
        <ele>43</ele>
        <time>2021-03-20T19:45:15Z</time>
      </trkpt>
      <trkpt lat="57.4327" lon="-5.8096">
        <ele>41.47</ele>
        <time>2021-03-20T19:45:18Z</time>
      </trkpt>
      <trkpt lat="57.43198" lon="-5.80952">
        <ele>42.03</ele>
        <time>2021-03-20T19:45:21Z</time>
      </trkpt>
      <trkpt lat="57.43188" lon="-5.8096">
        <ele>40.98</ele>
        <time>2021-03-20T19:45:24Z</time>
      </trkpt>
      <trkpt lat="57.43186" lon="-5.80971">
        <ele>39.47</ele>
        <time>2021-03-20T19:45:27Z</time>
      </trkpt>
      <trkpt lat="57.43188" lon="-5.80978">
        <ele>38.59</ele>
        <time>2021-03-20T19:45:30Z</time>
      </trkpt>
      <trkpt lat="57.43229" lon="-5.80989">
        <ele>36.9</ele>
        <time>2021-03-20T19:45:33Z</time>
      </trkpt>
      <trkpt lat="57.43253" lon="-5.81011">
        <ele>35.18</ele>
        <time>2021-03-20T19:45:35Z</time>
      </trkpt>
      <trkpt lat="57.43277" lon="-5.81056">
        <ele>32.96</ele>
        <time>2021-03-20T19:45:38Z</time>
      </trkpt>
      <trkpt lat="57.43301" lon="-5.81161">
        <ele>29.36</ele>
        <time>2021-03-20T19:45:40Z</time>
      </trkpt>
      <trkpt lat="57.43326" lon="-5.81247">
        <ele>23.08</ele>
        <time>2021-03-20T19:45:43Z</time>
      </trkpt>
      <trkpt lat="57.43343" lon="-5.81296">
        <ele>14.86</ele>
        <time>2021-03-20T19:45:46Z</time>
      </trkpt>
      <trkpt lat="57.43363" lon="-5.81322">
        <ele>8.15</ele>
        <time>2021-03-20T19:45:48Z</time>
      </trkpt>
      <trkpt lat="57.43385" lon="-5.81263">
        <ele>5.59</ele>
        <time>2021-03-20T19:45:51Z</time>
      </trkpt>
      <trkpt lat="57.43467" lon="-5.81098">
        <ele>5.34</ele>
        <time>2021-03-20T19:45:55Z</time>
      </trkpt>
      <trkpt lat="57.43701" lon="-5.80651">
        <ele>11.98</ele>
        <time>2021-03-20T19:45:58Z</time>
      </trkpt>
      <trkpt lat="57.43722" lon="-5.80614">
        <ele>9.54</ele>
        <time>2021-03-20T19:46:01Z</time>
      </trkpt>
      <trkpt lat="57.43769" lon="-5.80555">
        <ele>10.08</ele>
        <time>2021-03-20T19:46:04Z</time>
      </trkpt>
      <trkpt lat="57.43792" lon="-5.80537">
        <ele>10.77</ele>
        <time>2021-03-20T19:46:08Z</time>
      </trkpt>
      <trkpt lat="57.43809" lon="-5.80539">
        <ele>9.84</ele>
        <time>2021-03-20T19:46:11Z</time>
      </trkpt>
      <trkpt lat="57.43899" lon="-5.80574">
        <ele>9.78</ele>
        <time>2021-03-20T19:46:14Z</time>
      </trkpt>
      <trkpt lat="57.4393" lon="-5.80591">
        <ele>9.94</ele>
        <time>2021-03-20T19:46:17Z</time>
      </trkpt>
      <trkpt lat="57.43947" lon="-5.80606">
        <ele>9.53</ele>
        <time>2021-03-20T19:46:21Z</time>
      </trkpt>
      <trkpt lat="57.44009" lon="-5.80671">
        <ele>7.99</ele>
        <time>2021-03-20T19:46:24Z</time>
      </trkpt>
      <trkpt lat="57.44082" lon="-5.80774">
        <ele>4.96</ele>
        <time>2021-03-20T19:46:27Z</time>
      </trkpt>
      <trkpt lat="57.44098" lon="-5.80809">
        <ele>4</ele>
        <time>2021-03-20T19:46:30Z</time>
      </trkpt>
      <trkpt lat="57.44105" lon="-5.80837">
        <ele>3.97</ele>
        <time>2021-03-20T19:46:34Z</time>
      </trkpt>
      <trkpt lat="57.44112" lon="-5.8088">
        <ele>4.03</ele>
        <time>2021-03-20T19:46:37Z</time>
      </trkpt>
      <trkpt lat="57.44123" lon="-5.80919">
        <ele>3.37</ele>
        <time>2021-03-20T19:46:40Z</time>
      </trkpt>
      <trkpt lat="57.44137" lon="-5.80955">
        <ele>2.56</ele>
        <time>2021-03-20T19:46:43Z</time>
      </trkpt>
      <trkpt lat="57.44152" lon="-5.80965">
        <ele>3.18</ele>
        <time>2021-03-20T19:46:47Z</time>
      </trkpt>
      <trkpt lat="57.44181" lon="-5.80965">
        <ele>4.41</ele>
        <time>2021-03-20T19:46:50Z</time>
      </trkpt>
      <trkpt lat="57.44193" lon="-5.80956">
        <ele>5.16</ele>
        <time>2021-03-20T19:46:53Z</time>
      </trkpt>
      <trkpt lat="57.44243" lon="-5.80886">
        <ele>7.35</ele>
        <time>2021-03-20T19:46:56Z</time>
      </trkpt>
      <trkpt lat="57.44255" lon="-5.80877">
        <ele>7.15</ele>
        <time>2021-03-20T19:47:00Z</time>
      </trkpt>
      <trkpt lat="57.44264" lon="-5.80885">
        <ele>6.24</ele>
        <time>2021-03-20T19:47:03Z</time>
      </trkpt>
      <trkpt lat="57.44272" lon="-5.80898">
        <ele>5.01</ele>
        <time>2021-03-20T19:47:06Z</time>
      </trkpt>
      <trkpt lat="57.44295" lon="-5.80958">
        <ele>3.14</ele>
        <time>2021-03-20T19:47:09Z</time>
      </trkpt>
      <trkpt lat="57.4433" lon="-5.81047">
        <ele>3</ele>
        <time>2021-03-20T19:47:13Z</time>
      </trkpt>
      <trkpt lat="57.44363" lon="-5.81001">
        <ele>4.96</ele>
        <time>2021-03-20T19:47:27Z</time>
      </trkpt>
      <trkpt lat="57.4451" lon="-5.80813">
        <ele>6.74</ele>
        <time>2021-03-20T19:47:42Z</time>
      </trkpt>
      <trkpt lat="57.44574" lon="-5.80715">
        <ele>8.98</ele>
        <time>2021-03-20T19:47:57Z</time>
      </trkpt>
      <trkpt lat="57.44646" lon="-5.80596">
        <ele>8.76</ele>
        <time>2021-03-20T19:48:11Z</time>
      </trkpt>
      <trkpt lat="57.44664" lon="-5.80559">
        <ele>8.1</ele>
        <time>2021-03-20T19:48:26Z</time>
      </trkpt>
      <trkpt lat="57.44681" lon="-5.80499">
        <ele>7.02</ele>
        <time>2021-03-20T19:48:41Z</time>
      </trkpt>
      <trkpt lat="57.44691" lon="-5.80403">
        <ele>9.63</ele>
        <time>2021-03-20T19:48:55Z</time>
      </trkpt>
      <trkpt lat="57.44699" lon="-5.80346">
        <ele>11.23</ele>
        <time>2021-03-20T19:49:10Z</time>
      </trkpt>
      <trkpt lat="57.44717" lon="-5.80274">
        <ele>11.61</ele>
        <time>2021-03-20T19:49:24Z</time>
      </trkpt>
      <trkpt lat="57.44767" lon="-5.80153">
        <ele>10.25</ele>
        <time>2021-03-20T19:49:39Z</time>
      </trkpt>
      <trkpt lat="57.4479" lon="-5.80113">
        <ele>10.11</ele>
        <time>2021-03-20T19:49:54Z</time>
      </trkpt>
      <trkpt lat="57.44806" lon="-5.80088">
        <ele>9.03</ele>
        <time>2021-03-20T19:50:08Z</time>
      </trkpt>
      <trkpt lat="57.44828" lon="-5.80062">
        <ele>10.59</ele>
        <time>2021-03-20T19:50:23Z</time>
      </trkpt>
      <trkpt lat="57.44965" lon="-5.7991">
        <ele>14.23</ele>
        <time>2021-03-20T19:50:38Z</time>
      </trkpt>
      <trkpt lat="57.45035" lon="-5.79848">
        <ele>14.23</ele>
        <time>2021-03-20T19:50:52Z</time>
      </trkpt>
      <trkpt lat="57.45067" lon="-5.79843">
        <ele>13.8</ele>
        <time>2021-03-20T19:51:07Z</time>
      </trkpt>
      <trkpt lat="57.45155" lon="-5.79869">
        <ele>15.58</ele>
        <time>2021-03-20T19:51:21Z</time>
      </trkpt>
      <trkpt lat="57.45219" lon="-5.79895">
        <ele>18.99</ele>
        <time>2021-03-20T19:51:36Z</time>
      </trkpt>
      <trkpt lat="57.45252" lon="-5.79901">
        <ele>19.18</ele>
        <time>2021-03-20T19:51:51Z</time>
      </trkpt>
    </trkseg>
  </trk>
  <trk>
    <name><![CDATA[J08b - Hartfield Cave, Applecross - Ullapool Youth Hostel, Ullapool]]></name>
    <trkseg>
      <trkpt lat="57.45234" lon="-5.79898">
        <ele>19.18</ele>
        <time>2021-03-20T20:45:27Z</time>
      </trkpt>
      <trkpt lat="57.45219" lon="-5.79895">
        <ele>18.99</ele>
        <time>2021-03-20T20:45:41Z</time>
      </trkpt>
      <trkpt lat="57.45155" lon="-5.79869">
        <ele>15.58</ele>
        <time>2021-03-20T20:45:56Z</time>
      </trkpt>
      <trkpt lat="57.45067" lon="-5.79843">
        <ele>13.8</ele>
        <time>2021-03-20T20:46:10Z</time>
      </trkpt>
      <trkpt lat="57.45035" lon="-5.79848">
        <ele>14.23</ele>
        <time>2021-03-20T20:46:24Z</time>
      </trkpt>
      <trkpt lat="57.44965" lon="-5.7991">
        <ele>14.23</ele>
        <time>2021-03-20T20:46:39Z</time>
      </trkpt>
      <trkpt lat="57.44828" lon="-5.80062">
        <ele>10.59</ele>
        <time>2021-03-20T20:46:53Z</time>
      </trkpt>
      <trkpt lat="57.44806" lon="-5.80088">
        <ele>9.03</ele>
        <time>2021-03-20T20:47:08Z</time>
      </trkpt>
      <trkpt lat="57.4479" lon="-5.80113">
        <ele>10.11</ele>
        <time>2021-03-20T20:47:22Z</time>
      </trkpt>
      <trkpt lat="57.44767" lon="-5.80153">
        <ele>10.25</ele>
        <time>2021-03-20T20:47:37Z</time>
      </trkpt>
      <trkpt lat="57.44717" lon="-5.80274">
        <ele>11.61</ele>
        <time>2021-03-20T20:47:51Z</time>
      </trkpt>
      <trkpt lat="57.44699" lon="-5.80346">
        <ele>11.23</ele>
        <time>2021-03-20T20:48:05Z</time>
      </trkpt>
      <trkpt lat="57.44691" lon="-5.80403">
        <ele>9.63</ele>
        <time>2021-03-20T20:48:20Z</time>
      </trkpt>
      <trkpt lat="57.44681" lon="-5.80499">
        <ele>7.02</ele>
        <time>2021-03-20T20:48:34Z</time>
      </trkpt>
      <trkpt lat="57.44664" lon="-5.80559">
        <ele>8.1</ele>
        <time>2021-03-20T20:48:49Z</time>
      </trkpt>
      <trkpt lat="57.44646" lon="-5.80596">
        <ele>8.76</ele>
        <time>2021-03-20T20:49:03Z</time>
      </trkpt>
      <trkpt lat="57.44574" lon="-5.80715">
        <ele>8.98</ele>
        <time>2021-03-20T20:49:17Z</time>
      </trkpt>
      <trkpt lat="57.4451" lon="-5.80813">
        <ele>6.74</ele>
        <time>2021-03-20T20:49:32Z</time>
      </trkpt>
      <trkpt lat="57.44363" lon="-5.81001">
        <ele>4.96</ele>
        <time>2021-03-20T20:49:46Z</time>
      </trkpt>
      <trkpt lat="57.4433" lon="-5.81047">
        <ele>3</ele>
        <time>2021-03-20T20:50:01Z</time>
      </trkpt>
      <trkpt lat="57.44352" lon="-5.81111">
        <ele>3.68</ele>
        <time>2021-03-20T20:50:04Z</time>
      </trkpt>
      <trkpt lat="57.44362" lon="-5.81147">
        <ele>4</ele>
        <time>2021-03-20T20:50:08Z</time>
      </trkpt>
      <trkpt lat="57.44374" lon="-5.81207">
        <ele>4.46</ele>
        <time>2021-03-20T20:50:11Z</time>
      </trkpt>
      <trkpt lat="57.44382" lon="-5.81258">
        <ele>4.77</ele>
        <time>2021-03-20T20:50:15Z</time>
      </trkpt>
      <trkpt lat="57.44386" lon="-5.81295">
        <ele>4.96</ele>
        <time>2021-03-20T20:50:19Z</time>
      </trkpt>
      <trkpt lat="57.44392" lon="-5.8139">
        <ele>4.13</ele>
        <time>2021-03-20T20:50:22Z</time>
      </trkpt>
      <trkpt lat="57.44412" lon="-5.8177">
        <ele>12.77</ele>
        <time>2021-03-20T20:50:26Z</time>
      </trkpt>
      <trkpt lat="57.4442" lon="-5.81869">
        <ele>15.06</ele>
        <time>2021-03-20T20:50:30Z</time>
      </trkpt>
      <trkpt lat="57.44423" lon="-5.81926">
        <ele>16.37</ele>
        <time>2021-03-20T20:50:33Z</time>
      </trkpt>
      <trkpt lat="57.44423" lon="-5.82009">
        <ele>17.82</ele>
        <time>2021-03-20T20:50:37Z</time>
      </trkpt>
      <trkpt lat="57.44418" lon="-5.82081">
        <ele>22.03</ele>
        <time>2021-03-20T20:50:41Z</time>
      </trkpt>
      <trkpt lat="57.44409" lon="-5.8217">
        <ele>25.24</ele>
        <time>2021-03-20T20:50:44Z</time>
      </trkpt>
      <trkpt lat="57.44396" lon="-5.82236">
        <ele>23.4</ele>
        <time>2021-03-20T20:50:48Z</time>
      </trkpt>
      <trkpt lat="57.44331" lon="-5.82488">
        <ele>24.53</ele>
        <time>2021-03-20T20:50:51Z</time>
      </trkpt>
      <trkpt lat="57.44318" lon="-5.82544">
        <ele>26.76</ele>
        <time>2021-03-20T20:50:55Z</time>
      </trkpt>
      <trkpt lat="57.44307" lon="-5.82599">
        <ele>31.06</ele>
        <time>2021-03-20T20:50:59Z</time>
      </trkpt>
      <trkpt lat="57.44224" lon="-5.83083">
        <ele>30.75</ele>
        <time>2021-03-20T20:51:02Z</time>
      </trkpt>
      <trkpt lat="57.44215" lon="-5.83163">
        <ele>30.98</ele>
        <time>2021-03-20T20:51:06Z</time>
      </trkpt>
      <trkpt lat="57.44212" lon="-5.83197">
        <ele>31.17</ele>
        <time>2021-03-20T20:51:10Z</time>
      </trkpt>
      <trkpt lat="57.44211" lon="-5.83236">
        <ele>32.07</ele>
        <time>2021-03-20T20:51:13Z</time>
      </trkpt>
      <trkpt lat="57.44215" lon="-5.83384">
        <ele>37.61</ele>
        <time>2021-03-20T20:51:17Z</time>
      </trkpt>
      <trkpt lat="57.44214" lon="-5.83437">
        <ele>36.25</ele>
        <time>2021-03-20T20:51:21Z</time>
      </trkpt>
      <trkpt lat="57.4421" lon="-5.83477">
        <ele>34.04</ele>
        <time>2021-03-20T20:51:24Z</time>
      </trkpt>
      <trkpt lat="57.44204" lon="-5.83513">
        <ele>32.75</ele>
        <time>2021-03-20T20:51:28Z</time>
      </trkpt>
      <trkpt lat="57.44174" lon="-5.83632">
        <ele>29.63</ele>
        <time>2021-03-20T20:51:32Z</time>
      </trkpt>
      <trkpt lat="57.44163" lon="-5.83686">
        <ele>30.36</ele>
        <time>2021-03-20T20:51:35Z</time>
      </trkpt>
      <trkpt lat="57.44156" lon="-5.83737">
        <ele>31.27</ele>
        <time>2021-03-20T20:51:39Z</time>
      </trkpt>
      <trkpt lat="57.44155" lon="-5.83783">
        <ele>32.49</ele>
        <time>2021-03-20T20:51:42Z</time>
      </trkpt>
      <trkpt lat="57.44156" lon="-5.83942">
        <ele>33.47</ele>
        <time>2021-03-20T20:51:46Z</time>
      </trkpt>
      <trkpt lat="57.44155" lon="-5.84001">
        <ele>31.81</ele>
        <time>2021-03-20T20:51:50Z</time>
      </trkpt>
      <trkpt lat="57.4415" lon="-5.84063">
        <ele>27.79</ele>
        <time>2021-03-20T20:51:53Z</time>
      </trkpt>
      <trkpt lat="57.44133" lon="-5.84191">
        <ele>25.42</ele>
        <time>2021-03-20T20:51:57Z</time>
      </trkpt>
      <trkpt lat="57.44131" lon="-5.84235">
        <ele>24.1</ele>
        <time>2021-03-20T20:52:01Z</time>
      </trkpt>
      <trkpt lat="57.44131" lon="-5.84273">
        <ele>23.06</ele>
        <time>2021-03-20T20:52:04Z</time>
      </trkpt>
      <trkpt lat="57.44135" lon="-5.84315">
        <ele>24.45</ele>
        <time>2021-03-20T20:52:08Z</time>
      </trkpt>
      <trkpt lat="57.44145" lon="-5.84378">
        <ele>28.76</ele>
        <time>2021-03-20T20:52:12Z</time>
      </trkpt>
      <trkpt lat="57.4419" lon="-5.84596">
        <ele>29.47</ele>
        <time>2021-03-20T20:52:15Z</time>
      </trkpt>
      <trkpt lat="57.44199" lon="-5.84655">
        <ele>24.52</ele>
        <time>2021-03-20T20:52:19Z</time>
      </trkpt>
      <trkpt lat="57.44205" lon="-5.8472">
        <ele>21.91</ele>
        <time>2021-03-20T20:52:23Z</time>
      </trkpt>
      <trkpt lat="57.44208" lon="-5.84779">
        <ele>20.28</ele>
        <time>2021-03-20T20:52:26Z</time>
      </trkpt>
      <trkpt lat="57.44212" lon="-5.84959">
        <ele>26.08</ele>
        <time>2021-03-20T20:52:30Z</time>
      </trkpt>
      <trkpt lat="57.44216" lon="-5.85031">
        <ele>27.59</ele>
        <time>2021-03-20T20:52:33Z</time>
      </trkpt>
      <trkpt lat="57.44221" lon="-5.85076">
        <ele>27.24</ele>
        <time>2021-03-20T20:52:37Z</time>
      </trkpt>
      <trkpt lat="57.44229" lon="-5.85126">
        <ele>25.83</ele>
        <time>2021-03-20T20:52:41Z</time>
      </trkpt>
      <trkpt lat="57.44242" lon="-5.85182">
        <ele>25.25</ele>
        <time>2021-03-20T20:52:44Z</time>
      </trkpt>
      <trkpt lat="57.44262" lon="-5.85242">
        <ele>26.45</ele>
        <time>2021-03-20T20:52:48Z</time>
      </trkpt>
      <trkpt lat="57.44309" lon="-5.85362">
        <ele>25.94</ele>
        <time>2021-03-20T20:52:52Z</time>
      </trkpt>
      <trkpt lat="57.44333" lon="-5.85415">
        <ele>24.15</ele>
        <time>2021-03-20T20:52:55Z</time>
      </trkpt>
      <trkpt lat="57.44353" lon="-5.85448">
        <ele>23.48</ele>
        <time>2021-03-20T20:52:59Z</time>
      </trkpt>
      <trkpt lat="57.44388" lon="-5.85495">
        <ele>23.75</ele>
        <time>2021-03-20T20:53:03Z</time>
      </trkpt>
      <trkpt lat="57.44512" lon="-5.8563">
        <ele>21.17</ele>
        <time>2021-03-20T20:53:06Z</time>
      </trkpt>
      <trkpt lat="57.44557" lon="-5.85667">
        <ele>20.25</ele>
        <time>2021-03-20T20:53:10Z</time>
      </trkpt>
      <trkpt lat="57.44591" lon="-5.8569">
        <ele>21.23</ele>
        <time>2021-03-20T20:53:13Z</time>
      </trkpt>
      <trkpt lat="57.44714" lon="-5.85742">
        <ele>28.46</ele>
        <time>2021-03-20T20:53:17Z</time>
      </trkpt>
      <trkpt lat="57.44744" lon="-5.8576">
        <ele>27.16</ele>
        <time>2021-03-20T20:53:21Z</time>
      </trkpt>
      <trkpt lat="57.44773" lon="-5.85783">
        <ele>26.36</ele>
        <time>2021-03-20T20:53:24Z</time>
      </trkpt>
      <trkpt lat="57.44856" lon="-5.85875">
        <ele>25.76</ele>
        <time>2021-03-20T20:53:28Z</time>
      </trkpt>
      <trkpt lat="57.44894" lon="-5.85909">
        <ele>24.14</ele>
        <time>2021-03-20T20:53:32Z</time>
      </trkpt>
      <trkpt lat="57.4493" lon="-5.85937">
        <ele>23.55</ele>
        <time>2021-03-20T20:53:35Z</time>
      </trkpt>
      <trkpt lat="57.44958" lon="-5.8595">
        <ele>24.24</ele>
        <time>2021-03-20T20:53:39Z</time>
      </trkpt>
      <trkpt lat="57.45265" lon="-5.86032">
        <ele>27.85</ele>
        <time>2021-03-20T20:53:43Z</time>
      </trkpt>
      <trkpt lat="57.45331" lon="-5.86056">
        <ele>29.69</ele>
        <time>2021-03-20T20:53:46Z</time>
      </trkpt>
      <trkpt lat="57.45514" lon="-5.86129">
        <ele>24.81</ele>
        <time>2021-03-20T20:53:50Z</time>
      </trkpt>
      <trkpt lat="57.45554" lon="-5.86139">
        <ele>22.92</ele>
        <time>2021-03-20T20:53:54Z</time>
      </trkpt>
      <trkpt lat="57.45592" lon="-5.8614">
        <ele>23.48</ele>
        <time>2021-03-20T20:53:57Z</time>
      </trkpt>
      <trkpt lat="57.45665" lon="-5.86127">
        <ele>27</ele>
        <time>2021-03-20T20:54:01Z</time>
      </trkpt>
      <trkpt lat="57.45823" lon="-5.8608">
        <ele>26.35</ele>
        <time>2021-03-20T20:54:04Z</time>
      </trkpt>
      <trkpt lat="57.45866" lon="-5.86071">
        <ele>27.12</ele>
        <time>2021-03-20T20:54:08Z</time>
      </trkpt>
      <trkpt lat="57.45909" lon="-5.86066">
        <ele>28.68</ele>
        <time>2021-03-20T20:54:12Z</time>
      </trkpt>
      <trkpt lat="57.45958" lon="-5.86067">
        <ele>29.31</ele>
        <time>2021-03-20T20:54:15Z</time>
      </trkpt>
      <trkpt lat="57.46014" lon="-5.86072">
        <ele>28.33</ele>
        <time>2021-03-20T20:54:19Z</time>
      </trkpt>
      <trkpt lat="57.46081" lon="-5.86082">
        <ele>27.24</ele>
        <time>2021-03-20T20:54:23Z</time>
      </trkpt>
      <trkpt lat="57.46136" lon="-5.86098">
        <ele>25.82</ele>
        <time>2021-03-20T20:54:26Z</time>
      </trkpt>
      <trkpt lat="57.46363" lon="-5.86198">
        <ele>14.89</ele>
        <time>2021-03-20T20:54:30Z</time>
      </trkpt>
      <trkpt lat="57.46411" lon="-5.8621">
        <ele>18.29</ele>
        <time>2021-03-20T20:54:34Z</time>
      </trkpt>
      <trkpt lat="57.46463" lon="-5.86215">
        <ele>21.14</ele>
        <time>2021-03-20T20:54:37Z</time>
      </trkpt>
      <trkpt lat="57.46534" lon="-5.86206">
        <ele>26.32</ele>
        <time>2021-03-20T20:54:41Z</time>
      </trkpt>
      <trkpt lat="57.46711" lon="-5.86158">
        <ele>47.24</ele>
        <time>2021-03-20T20:54:45Z</time>
      </trkpt>
      <trkpt lat="57.46759" lon="-5.86139">
        <ele>55.9</ele>
        <time>2021-03-20T20:54:48Z</time>
      </trkpt>
      <trkpt lat="57.46837" lon="-5.86103">
        <ele>65.3</ele>
        <time>2021-03-20T20:54:52Z</time>
      </trkpt>
      <trkpt lat="57.4694" lon="-5.86069">
        <ele>70.98</ele>
        <time>2021-03-20T20:54:55Z</time>
      </trkpt>
      <trkpt lat="57.47047" lon="-5.86023">
        <ele>60.31</ele>
        <time>2021-03-20T20:54:59Z</time>
      </trkpt>
      <trkpt lat="57.47079" lon="-5.86016">
        <ele>56.07</ele>
        <time>2021-03-20T20:55:03Z</time>
      </trkpt>
      <trkpt lat="57.47116" lon="-5.86024">
        <ele>54.44</ele>
        <time>2021-03-20T20:55:06Z</time>
      </trkpt>
      <trkpt lat="57.47138" lon="-5.86039">
        <ele>54.33</ele>
        <time>2021-03-20T20:55:10Z</time>
      </trkpt>
      <trkpt lat="57.47174" lon="-5.86076">
        <ele>53.73</ele>
        <time>2021-03-20T20:55:14Z</time>
      </trkpt>
      <trkpt lat="57.47254" lon="-5.86194">
        <ele>45.76</ele>
        <time>2021-03-20T20:55:17Z</time>
      </trkpt>
      <trkpt lat="57.47333" lon="-5.86296">
        <ele>38.57</ele>
        <time>2021-03-20T20:55:21Z</time>
      </trkpt>
      <trkpt lat="57.47368" lon="-5.86318">
        <ele>36.99</ele>
        <time>2021-03-20T20:55:25Z</time>
      </trkpt>
      <trkpt lat="57.47614" lon="-5.86402">
        <ele>28.03</ele>
        <time>2021-03-20T20:55:28Z</time>
      </trkpt>
      <trkpt lat="57.47654" lon="-5.86412">
        <ele>29.27</ele>
        <time>2021-03-20T20:55:32Z</time>
      </trkpt>
      <trkpt lat="57.47688" lon="-5.86409">
        <ele>29.66</ele>
        <time>2021-03-20T20:55:35Z</time>
      </trkpt>
      <trkpt lat="57.47875" lon="-5.86348">
        <ele>42.79</ele>
        <time>2021-03-20T20:55:39Z</time>
      </trkpt>
      <trkpt lat="57.47954" lon="-5.86328">
        <ele>48.52</ele>
        <time>2021-03-20T20:55:43Z</time>
      </trkpt>
      <trkpt lat="57.48009" lon="-5.86321">
        <ele>51.08</ele>
        <time>2021-03-20T20:55:46Z</time>
      </trkpt>
      <trkpt lat="57.48063" lon="-5.86318">
        <ele>53.29</ele>
        <time>2021-03-20T20:55:50Z</time>
      </trkpt>
      <trkpt lat="57.48132" lon="-5.86329">
        <ele>52.89</ele>
        <time>2021-03-20T20:55:54Z</time>
      </trkpt>
      <trkpt lat="57.48265" lon="-5.86377">
        <ele>54.55</ele>
        <time>2021-03-20T20:55:57Z</time>
      </trkpt>
      <trkpt lat="57.48298" lon="-5.86382">
        <ele>55.72</ele>
        <time>2021-03-20T20:56:01Z</time>
      </trkpt>
      <trkpt lat="57.48337" lon="-5.86381">
        <ele>57.72</ele>
        <time>2021-03-20T20:56:05Z</time>
      </trkpt>
      <trkpt lat="57.48377" lon="-5.86373">
        <ele>57.99</ele>
        <time>2021-03-20T20:56:08Z</time>
      </trkpt>
      <trkpt lat="57.48409" lon="-5.86363">
        <ele>58.76</ele>
        <time>2021-03-20T20:56:12Z</time>
      </trkpt>
      <trkpt lat="57.48443" lon="-5.86348">
        <ele>59.01</ele>
        <time>2021-03-20T20:56:16Z</time>
      </trkpt>
      <trkpt lat="57.48514" lon="-5.86306">
        <ele>56.98</ele>
        <time>2021-03-20T20:56:19Z</time>
      </trkpt>
      <trkpt lat="57.48908" lon="-5.86098">
        <ele>68.75</ele>
        <time>2021-03-20T20:56:23Z</time>
      </trkpt>
      <trkpt lat="57.48954" lon="-5.86084">
        <ele>66.63</ele>
        <time>2021-03-20T20:56:26Z</time>
      </trkpt>
      <trkpt lat="57.48982" lon="-5.86082">
        <ele>66.24</ele>
        <time>2021-03-20T20:56:30Z</time>
      </trkpt>
      <trkpt lat="57.49309" lon="-5.86118">
        <ele>55.53</ele>
        <time>2021-03-20T20:56:34Z</time>
      </trkpt>
      <trkpt lat="57.49367" lon="-5.86117">
        <ele>55.79</ele>
        <time>2021-03-20T20:56:37Z</time>
      </trkpt>
      <trkpt lat="57.49938" lon="-5.85983">
        <ele>51.08</ele>
        <time>2021-03-20T20:56:41Z</time>
      </trkpt>
      <trkpt lat="57.49975" lon="-5.85977">
        <ele>52.57</ele>
        <time>2021-03-20T20:56:45Z</time>
      </trkpt>
      <trkpt lat="57.5002" lon="-5.85979">
        <ele>53.08</ele>
        <time>2021-03-20T20:56:48Z</time>
      </trkpt>
      <trkpt lat="57.50118" lon="-5.85992">
        <ele>51.05</ele>
        <time>2021-03-20T20:56:52Z</time>
      </trkpt>
      <trkpt lat="57.50206" lon="-5.85997">
        <ele>52.69</ele>
        <time>2021-03-20T20:56:56Z</time>
      </trkpt>
      <trkpt lat="57.50401" lon="-5.85989">
        <ele>57.22</ele>
        <time>2021-03-20T20:56:59Z</time>
      </trkpt>
      <trkpt lat="57.50859" lon="-5.85955">
        <ele>50.31</ele>
        <time>2021-03-20T20:57:03Z</time>
      </trkpt>
      <trkpt lat="57.50962" lon="-5.85938">
        <ele>47.83</ele>
        <time>2021-03-20T20:57:07Z</time>
      </trkpt>
      <trkpt lat="57.51419" lon="-5.85809">
        <ele>39.68</ele>
        <time>2021-03-20T20:57:10Z</time>
      </trkpt>
      <trkpt lat="57.51592" lon="-5.85764">
        <ele>36.19</ele>
        <time>2021-03-20T20:57:14Z</time>
      </trkpt>
      <trkpt lat="57.51614" lon="-5.85754">
        <ele>35.67</ele>
        <time>2021-03-20T20:57:17Z</time>
      </trkpt>
      <trkpt lat="57.51647" lon="-5.85734">
        <ele>34.58</ele>
        <time>2021-03-20T20:57:21Z</time>
      </trkpt>
      <trkpt lat="57.51681" lon="-5.85705">
        <ele>32.94</ele>
        <time>2021-03-20T20:57:25Z</time>
      </trkpt>
      <trkpt lat="57.51728" lon="-5.8566">
        <ele>30.59</ele>
        <time>2021-03-20T20:57:28Z</time>
      </trkpt>
      <trkpt lat="57.51768" lon="-5.85615">
        <ele>28.58</ele>
        <time>2021-03-20T20:57:32Z</time>
      </trkpt>
      <trkpt lat="57.51813" lon="-5.85573">
        <ele>25.8</ele>
        <time>2021-03-20T20:57:36Z</time>
      </trkpt>
      <trkpt lat="57.51854" lon="-5.85549">
        <ele>24.27</ele>
        <time>2021-03-20T20:57:39Z</time>
      </trkpt>
      <trkpt lat="57.51864" lon="-5.85539">
        <ele>24</ele>
        <time>2021-03-20T20:57:43Z</time>
      </trkpt>
      <trkpt lat="57.51885" lon="-5.85499">
        <ele>24.86</ele>
        <time>2021-03-20T20:57:47Z</time>
      </trkpt>
      <trkpt lat="57.51897" lon="-5.85466">
        <ele>25.24</ele>
        <time>2021-03-20T20:57:50Z</time>
      </trkpt>
      <trkpt lat="57.51918" lon="-5.85387">
        <ele>27.02</ele>
        <time>2021-03-20T20:57:54Z</time>
      </trkpt>
      <trkpt lat="57.51935" lon="-5.85344">
        <ele>27.96</ele>
        <time>2021-03-20T20:57:57Z</time>
      </trkpt>
      <trkpt lat="57.51957" lon="-5.8531">
        <ele>29.94</ele>
        <time>2021-03-20T20:58:01Z</time>
      </trkpt>
      <trkpt lat="57.52028" lon="-5.85236">
        <ele>35.03</ele>
        <time>2021-03-20T20:58:05Z</time>
      </trkpt>
      <trkpt lat="57.52058" lon="-5.85211">
        <ele>36.13</ele>
        <time>2021-03-20T20:58:08Z</time>
      </trkpt>
      <trkpt lat="57.52088" lon="-5.85195">
        <ele>36.97</ele>
        <time>2021-03-20T20:58:12Z</time>
      </trkpt>
      <trkpt lat="57.52149" lon="-5.85171">
        <ele>40.34</ele>
        <time>2021-03-20T20:58:16Z</time>
      </trkpt>
      <trkpt lat="57.52173" lon="-5.85165">
        <ele>41.2</ele>
        <time>2021-03-20T20:58:19Z</time>
      </trkpt>
      <trkpt lat="57.52224" lon="-5.85177">
        <ele>40.09</ele>
        <time>2021-03-20T20:58:23Z</time>
      </trkpt>
      <trkpt lat="57.52255" lon="-5.85169">
        <ele>41.26</ele>
        <time>2021-03-20T20:58:27Z</time>
      </trkpt>
      <trkpt lat="57.52286" lon="-5.85149">
        <ele>42.26</ele>
        <time>2021-03-20T20:58:30Z</time>
      </trkpt>
      <trkpt lat="57.52316" lon="-5.85136">
        <ele>41.95</ele>
        <time>2021-03-20T20:58:34Z</time>
      </trkpt>
      <trkpt lat="57.52417" lon="-5.85112">
        <ele>43.73</ele>
        <time>2021-03-20T20:58:38Z</time>
      </trkpt>
      <trkpt lat="57.52444" lon="-5.8511">
        <ele>45.18</ele>
        <time>2021-03-20T20:58:41Z</time>
      </trkpt>
      <trkpt lat="57.52462" lon="-5.85112">
        <ele>44.85</ele>
        <time>2021-03-20T20:58:45Z</time>
      </trkpt>
      <trkpt lat="57.52517" lon="-5.85127">
        <ele>43.44</ele>
        <time>2021-03-20T20:58:48Z</time>
      </trkpt>
      <trkpt lat="57.52549" lon="-5.85126">
        <ele>43.79</ele>
        <time>2021-03-20T20:58:52Z</time>
      </trkpt>
      <trkpt lat="57.5259" lon="-5.85119">
        <ele>45.01</ele>
        <time>2021-03-20T20:58:56Z</time>
      </trkpt>
      <trkpt lat="57.52627" lon="-5.85121">
        <ele>43.39</ele>
        <time>2021-03-20T20:58:59Z</time>
      </trkpt>
      <trkpt lat="57.52661" lon="-5.85118">
        <ele>43.59</ele>
        <time>2021-03-20T20:59:03Z</time>
      </trkpt>
      <trkpt lat="57.52722" lon="-5.85134">
        <ele>42.05</ele>
        <time>2021-03-20T20:59:07Z</time>
      </trkpt>
      <trkpt lat="57.52788" lon="-5.85169">
        <ele>40.27</ele>
        <time>2021-03-20T20:59:10Z</time>
      </trkpt>
      <trkpt lat="57.52831" lon="-5.85181">
        <ele>38.47</ele>
        <time>2021-03-20T20:59:14Z</time>
      </trkpt>
      <trkpt lat="57.5292" lon="-5.85174">
        <ele>40</ele>
        <time>2021-03-20T20:59:18Z</time>
      </trkpt>
      <trkpt lat="57.53017" lon="-5.85188">
        <ele>40.49</ele>
        <time>2021-03-20T20:59:21Z</time>
      </trkpt>
      <trkpt lat="57.53078" lon="-5.85176">
        <ele>41.56</ele>
        <time>2021-03-20T20:59:25Z</time>
      </trkpt>
      <trkpt lat="57.53111" lon="-5.85165">
        <ele>42.19</ele>
        <time>2021-03-20T20:59:29Z</time>
      </trkpt>
      <trkpt lat="57.53178" lon="-5.85135">
        <ele>45.19</ele>
        <time>2021-03-20T20:59:32Z</time>
      </trkpt>
      <trkpt lat="57.53223" lon="-5.85104">
        <ele>47.76</ele>
        <time>2021-03-20T20:59:36Z</time>
      </trkpt>
      <trkpt lat="57.53253" lon="-5.85088">
        <ele>48.27</ele>
        <time>2021-03-20T20:59:39Z</time>
      </trkpt>
      <trkpt lat="57.53278" lon="-5.8508">
        <ele>47.51</ele>
        <time>2021-03-20T20:59:43Z</time>
      </trkpt>
      <trkpt lat="57.53358" lon="-5.85084">
        <ele>46.82</ele>
        <time>2021-03-20T20:59:47Z</time>
      </trkpt>
      <trkpt lat="57.53473" lon="-5.85104">
        <ele>45.53</ele>
        <time>2021-03-20T20:59:50Z</time>
      </trkpt>
      <trkpt lat="57.53508" lon="-5.85106">
        <ele>46.37</ele>
        <time>2021-03-20T20:59:54Z</time>
      </trkpt>
      <trkpt lat="57.53557" lon="-5.85102">
        <ele>46.28</ele>
        <time>2021-03-20T20:59:58Z</time>
      </trkpt>
      <trkpt lat="57.53672" lon="-5.85074">
        <ele>43.05</ele>
        <time>2021-03-20T21:00:01Z</time>
      </trkpt>
      <trkpt lat="57.53703" lon="-5.85061">
        <ele>41.68</ele>
        <time>2021-03-20T21:00:05Z</time>
      </trkpt>
      <trkpt lat="57.53876" lon="-5.84955">
        <ele>42.57</ele>
        <time>2021-03-20T21:00:09Z</time>
      </trkpt>
      <trkpt lat="57.53895" lon="-5.8494">
        <ele>42.59</ele>
        <time>2021-03-20T21:00:12Z</time>
      </trkpt>
      <trkpt lat="57.53976" lon="-5.84889">
        <ele>53.79</ele>
        <time>2021-03-20T21:00:16Z</time>
      </trkpt>
      <trkpt lat="57.54023" lon="-5.84835">
        <ele>55.22</ele>
        <time>2021-03-20T21:00:19Z</time>
      </trkpt>
      <trkpt lat="57.54049" lon="-5.8482">
        <ele>57.08</ele>
        <time>2021-03-20T21:00:23Z</time>
      </trkpt>
      <trkpt lat="57.54065" lon="-5.84818">
        <ele>58.67</ele>
        <time>2021-03-20T21:00:27Z</time>
      </trkpt>
      <trkpt lat="57.54115" lon="-5.84828">
        <ele>63.07</ele>
        <time>2021-03-20T21:00:30Z</time>
      </trkpt>
      <trkpt lat="57.54158" lon="-5.84823">
        <ele>66.14</ele>
        <time>2021-03-20T21:00:34Z</time>
      </trkpt>
      <trkpt lat="57.54184" lon="-5.84812">
        <ele>66.71</ele>
        <time>2021-03-20T21:00:38Z</time>
      </trkpt>
      <trkpt lat="57.54194" lon="-5.84804">
        <ele>67.23</ele>
        <time>2021-03-20T21:00:41Z</time>
      </trkpt>
      <trkpt lat="57.54221" lon="-5.84753">
        <ele>72.9</ele>
        <time>2021-03-20T21:00:45Z</time>
      </trkpt>
      <trkpt lat="57.54243" lon="-5.84696">
        <ele>73.47</ele>
        <time>2021-03-20T21:00:49Z</time>
      </trkpt>
      <trkpt lat="57.54263" lon="-5.84632">
        <ele>74.23</ele>
        <time>2021-03-20T21:00:52Z</time>
      </trkpt>
      <trkpt lat="57.54353" lon="-5.84261">
        <ele>70.3</ele>
        <time>2021-03-20T21:00:56Z</time>
      </trkpt>
      <trkpt lat="57.54366" lon="-5.84226">
        <ele>69.53</ele>
        <time>2021-03-20T21:01:00Z</time>
      </trkpt>
      <trkpt lat="57.54381" lon="-5.84209">
        <ele>67.9</ele>
        <time>2021-03-20T21:01:03Z</time>
      </trkpt>
      <trkpt lat="57.5443" lon="-5.84172">
        <ele>62.04</ele>
        <time>2021-03-20T21:01:07Z</time>
      </trkpt>
      <trkpt lat="57.54493" lon="-5.84131">
        <ele>55.08</ele>
        <time>2021-03-20T21:01:10Z</time>
      </trkpt>
      <trkpt lat="57.54558" lon="-5.84099">
        <ele>49.92</ele>
        <time>2021-03-20T21:01:14Z</time>
      </trkpt>
      <trkpt lat="57.54673" lon="-5.8405">
        <ele>43</ele>
        <time>2021-03-20T21:01:18Z</time>
      </trkpt>
      <trkpt lat="57.54703" lon="-5.84041">
        <ele>43</ele>
        <time>2021-03-20T21:01:21Z</time>
      </trkpt>
      <trkpt lat="57.54769" lon="-5.84049">
        <ele>43.07</ele>
        <time>2021-03-20T21:01:25Z</time>
      </trkpt>
      <trkpt lat="57.54895" lon="-5.8408">
        <ele>39.13</ele>
        <time>2021-03-20T21:01:29Z</time>
      </trkpt>
      <trkpt lat="57.5497" lon="-5.84112">
        <ele>38.06</ele>
        <time>2021-03-20T21:01:32Z</time>
      </trkpt>
      <trkpt lat="57.55087" lon="-5.84191">
        <ele>30.4</ele>
        <time>2021-03-20T21:01:36Z</time>
      </trkpt>
      <trkpt lat="57.55111" lon="-5.84202">
        <ele>27</ele>
        <time>2021-03-20T21:01:40Z</time>
      </trkpt>
      <trkpt lat="57.55126" lon="-5.84199">
        <ele>25.95</ele>
        <time>2021-03-20T21:01:43Z</time>
      </trkpt>
      <trkpt lat="57.55142" lon="-5.84181">
        <ele>24.38</ele>
        <time>2021-03-20T21:01:47Z</time>
      </trkpt>
      <trkpt lat="57.552" lon="-5.8399">
        <ele>19.42</ele>
        <time>2021-03-20T21:01:51Z</time>
      </trkpt>
      <trkpt lat="57.55209" lon="-5.83958">
        <ele>17.96</ele>
        <time>2021-03-20T21:01:54Z</time>
      </trkpt>
      <trkpt lat="57.55225" lon="-5.83869">
        <ele>13.91</ele>
        <time>2021-03-20T21:01:58Z</time>
      </trkpt>
      <trkpt lat="57.55225" lon="-5.83803">
        <ele>14.99</ele>
        <time>2021-03-20T21:02:01Z</time>
      </trkpt>
      <trkpt lat="57.5521" lon="-5.8364">
        <ele>19.42</ele>
        <time>2021-03-20T21:02:05Z</time>
      </trkpt>
      <trkpt lat="57.55217" lon="-5.83586">
        <ele>20.93</ele>
        <time>2021-03-20T21:02:09Z</time>
      </trkpt>
      <trkpt lat="57.55228" lon="-5.83547">
        <ele>21.78</ele>
        <time>2021-03-20T21:02:12Z</time>
      </trkpt>
      <trkpt lat="57.55245" lon="-5.83518">
        <ele>21.53</ele>
        <time>2021-03-20T21:02:16Z</time>
      </trkpt>
      <trkpt lat="57.5526" lon="-5.835">
        <ele>22.72</ele>
        <time>2021-03-20T21:02:20Z</time>
      </trkpt>
      <trkpt lat="57.55284" lon="-5.83477">
        <ele>25.5</ele>
        <time>2021-03-20T21:02:23Z</time>
      </trkpt>
      <trkpt lat="57.55332" lon="-5.83436">
        <ele>32.91</ele>
        <time>2021-03-20T21:02:27Z</time>
      </trkpt>
      <trkpt lat="57.55391" lon="-5.83402">
        <ele>33.84</ele>
        <time>2021-03-20T21:02:31Z</time>
      </trkpt>
      <trkpt lat="57.55424" lon="-5.83377">
        <ele>31.89</ele>
        <time>2021-03-20T21:02:34Z</time>
      </trkpt>
      <trkpt lat="57.55459" lon="-5.83342">
        <ele>29.97</ele>
        <time>2021-03-20T21:02:38Z</time>
      </trkpt>
      <trkpt lat="57.55482" lon="-5.83304">
        <ele>28.9</ele>
        <time>2021-03-20T21:02:41Z</time>
      </trkpt>
      <trkpt lat="57.55495" lon="-5.83278">
        <ele>27.01</ele>
        <time>2021-03-20T21:02:45Z</time>
      </trkpt>
      <trkpt lat="57.55509" lon="-5.83235">
        <ele>26.12</ele>
        <time>2021-03-20T21:02:49Z</time>
      </trkpt>
      <trkpt lat="57.55529" lon="-5.83196">
        <ele>24.96</ele>
        <time>2021-03-20T21:02:52Z</time>
      </trkpt>
      <trkpt lat="57.55542" lon="-5.83185">
        <ele>24.49</ele>
        <time>2021-03-20T21:02:56Z</time>
      </trkpt>
      <trkpt lat="57.55586" lon="-5.83165">
        <ele>23</ele>
        <time>2021-03-20T21:03:00Z</time>
      </trkpt>
      <trkpt lat="57.55647" lon="-5.83123">
        <ele>22.59</ele>
        <time>2021-03-20T21:03:03Z</time>
      </trkpt>
      <trkpt lat="57.55711" lon="-5.83049">
        <ele>26.07</ele>
        <time>2021-03-20T21:03:07Z</time>
      </trkpt>
      <trkpt lat="57.55854" lon="-5.82934">
        <ele>41.5</ele>
        <time>2021-03-20T21:03:11Z</time>
      </trkpt>
      <trkpt lat="57.55906" lon="-5.82885">
        <ele>41.94</ele>
        <time>2021-03-20T21:03:14Z</time>
      </trkpt>
      <trkpt lat="57.56051" lon="-5.82779">
        <ele>44.28</ele>
        <time>2021-03-20T21:03:18Z</time>
      </trkpt>
      <trkpt lat="57.56153" lon="-5.82722">
        <ele>50</ele>
        <time>2021-03-20T21:03:22Z</time>
      </trkpt>
      <trkpt lat="57.56176" lon="-5.82706">
        <ele>52.04</ele>
        <time>2021-03-20T21:03:25Z</time>
      </trkpt>
      <trkpt lat="57.56188" lon="-5.82689">
        <ele>53.48</ele>
        <time>2021-03-20T21:03:29Z</time>
      </trkpt>
      <trkpt lat="57.56195" lon="-5.82664">
        <ele>55</ele>
        <time>2021-03-20T21:03:32Z</time>
      </trkpt>
      <trkpt lat="57.56201" lon="-5.82611">
        <ele>55.55</ele>
        <time>2021-03-20T21:03:36Z</time>
      </trkpt>
      <trkpt lat="57.56202" lon="-5.82556">
        <ele>54.44</ele>
        <time>2021-03-20T21:03:40Z</time>
      </trkpt>
      <trkpt lat="57.56202" lon="-5.82484">
        <ele>51.78</ele>
        <time>2021-03-20T21:03:43Z</time>
      </trkpt>
      <trkpt lat="57.56207" lon="-5.82459">
        <ele>50.39</ele>
        <time>2021-03-20T21:03:47Z</time>
      </trkpt>
      <trkpt lat="57.56214" lon="-5.82437">
        <ele>49.21</ele>
        <time>2021-03-20T21:03:51Z</time>
      </trkpt>
      <trkpt lat="57.56226" lon="-5.82425">
        <ele>48.86</ele>
        <time>2021-03-20T21:03:54Z</time>
      </trkpt>
      <trkpt lat="57.56309" lon="-5.82403">
        <ele>46.62</ele>
        <time>2021-03-20T21:03:58Z</time>
      </trkpt>
      <trkpt lat="57.5635" lon="-5.82384">
        <ele>48.2</ele>
        <time>2021-03-20T21:04:02Z</time>
      </trkpt>
      <trkpt lat="57.56394" lon="-5.82358">
        <ele>49</ele>
        <time>2021-03-20T21:04:05Z</time>
      </trkpt>
      <trkpt lat="57.56446" lon="-5.82304">
        <ele>47.97</ele>
        <time>2021-03-20T21:04:09Z</time>
      </trkpt>
      <trkpt lat="57.56461" lon="-5.8228">
        <ele>46.79</ele>
        <time>2021-03-20T21:04:13Z</time>
      </trkpt>
      <trkpt lat="57.56485" lon="-5.82237">
        <ele>47.2</ele>
        <time>2021-03-20T21:04:16Z</time>
      </trkpt>
      <trkpt lat="57.56499" lon="-5.82219">
        <ele>48.09</ele>
        <time>2021-03-20T21:04:20Z</time>
      </trkpt>
      <trkpt lat="57.56525" lon="-5.82208">
        <ele>49.01</ele>
        <time>2021-03-20T21:04:23Z</time>
      </trkpt>
      <trkpt lat="57.56608" lon="-5.82182">
        <ele>47.94</ele>
        <time>2021-03-20T21:04:27Z</time>
      </trkpt>
      <trkpt lat="57.5665" lon="-5.82179">
        <ele>47.91</ele>
        <time>2021-03-20T21:04:31Z</time>
      </trkpt>
      <trkpt lat="57.56732" lon="-5.8218">
        <ele>44.15</ele>
        <time>2021-03-20T21:04:34Z</time>
      </trkpt>
      <trkpt lat="57.56761" lon="-5.82178">
        <ele>43.17</ele>
        <time>2021-03-20T21:04:38Z</time>
      </trkpt>
      <trkpt lat="57.56812" lon="-5.82167">
        <ele>42</ele>
        <time>2021-03-20T21:04:42Z</time>
      </trkpt>
      <trkpt lat="57.56867" lon="-5.82163">
        <ele>41</ele>
        <time>2021-03-20T21:04:45Z</time>
      </trkpt>
      <trkpt lat="57.56877" lon="-5.82158">
        <ele>41</ele>
        <time>2021-03-20T21:04:49Z</time>
      </trkpt>
      <trkpt lat="57.56888" lon="-5.82145">
        <ele>41</ele>
        <time>2021-03-20T21:04:53Z</time>
      </trkpt>
      <trkpt lat="57.56935" lon="-5.82056">
        <ele>41.26</ele>
        <time>2021-03-20T21:04:56Z</time>
      </trkpt>
      <trkpt lat="57.56961" lon="-5.82029">
        <ele>42.6</ele>
        <time>2021-03-20T21:05:00Z</time>
      </trkpt>
      <trkpt lat="57.56998" lon="-5.82">
        <ele>42.99</ele>
        <time>2021-03-20T21:05:03Z</time>
      </trkpt>
      <trkpt lat="57.57128" lon="-5.81937">
        <ele>37.74</ele>
        <time>2021-03-20T21:05:07Z</time>
      </trkpt>
      <trkpt lat="57.57185" lon="-5.81893">
        <ele>37.48</ele>
        <time>2021-03-20T21:05:11Z</time>
      </trkpt>
      <trkpt lat="57.57214" lon="-5.81875">
        <ele>37.48</ele>
        <time>2021-03-20T21:05:14Z</time>
      </trkpt>
      <trkpt lat="57.57259" lon="-5.81854">
        <ele>35.8</ele>
        <time>2021-03-20T21:05:18Z</time>
      </trkpt>
      <trkpt lat="57.57293" lon="-5.81828">
        <ele>31.31</ele>
        <time>2021-03-20T21:05:22Z</time>
      </trkpt>
      <trkpt lat="57.57376" lon="-5.8172">
        <ele>25.46</ele>
        <time>2021-03-20T21:05:25Z</time>
      </trkpt>
      <trkpt lat="57.57399" lon="-5.81703">
        <ele>23.66</ele>
        <time>2021-03-20T21:05:29Z</time>
      </trkpt>
      <trkpt lat="57.57462" lon="-5.81669">
        <ele>19.58</ele>
        <time>2021-03-20T21:05:33Z</time>
      </trkpt>
      <trkpt lat="57.5748" lon="-5.81652">
        <ele>19.94</ele>
        <time>2021-03-20T21:05:36Z</time>
      </trkpt>
      <trkpt lat="57.57505" lon="-5.8162">
        <ele>20.78</ele>
        <time>2021-03-20T21:05:40Z</time>
      </trkpt>
      <trkpt lat="57.57589" lon="-5.81501">
        <ele>25.75</ele>
        <time>2021-03-20T21:05:44Z</time>
      </trkpt>
      <trkpt lat="57.57629" lon="-5.8146">
        <ele>29.23</ele>
        <time>2021-03-20T21:05:47Z</time>
      </trkpt>
      <trkpt lat="57.57647" lon="-5.81436">
        <ele>31.67</ele>
        <time>2021-03-20T21:05:51Z</time>
      </trkpt>
      <trkpt lat="57.5766" lon="-5.81411">
        <ele>35.11</ele>
        <time>2021-03-20T21:05:54Z</time>
      </trkpt>
      <trkpt lat="57.57671" lon="-5.81375">
        <ele>39.79</ele>
        <time>2021-03-20T21:05:58Z</time>
      </trkpt>
      <trkpt lat="57.577" lon="-5.81298">
        <ele>43.08</ele>
        <time>2021-03-20T21:06:02Z</time>
      </trkpt>
      <trkpt lat="57.577" lon="-5.81298">
        <ele>43.08</ele>
        <time>2021-03-20T21:06:02Z</time>
      </trkpt>
      <trkpt lat="57.57716" lon="-5.81258">
        <ele>43</ele>
        <time>2021-03-20T21:06:04Z</time>
      </trkpt>
      <trkpt lat="57.57751" lon="-5.8113">
        <ele>38.97</ele>
        <time>2021-03-20T21:06:07Z</time>
      </trkpt>
      <trkpt lat="57.5778" lon="-5.80986">
        <ele>37.84</ele>
        <time>2021-03-20T21:06:09Z</time>
      </trkpt>
      <trkpt lat="57.57784" lon="-5.80944">
        <ele>37.28</ele>
        <time>2021-03-20T21:06:12Z</time>
      </trkpt>
      <trkpt lat="57.57783" lon="-5.80875">
        <ele>37.9</ele>
        <time>2021-03-20T21:06:14Z</time>
      </trkpt>
      <trkpt lat="57.57771" lon="-5.80795">
        <ele>41.07</ele>
        <time>2021-03-20T21:06:17Z</time>
      </trkpt>
      <trkpt lat="57.57761" lon="-5.8076">
        <ele>42.67</ele>
        <time>2021-03-20T21:06:19Z</time>
      </trkpt>
      <trkpt lat="57.57739" lon="-5.80735">
        <ele>43.23</ele>
        <time>2021-03-20T21:06:22Z</time>
      </trkpt>
      <trkpt lat="57.57713" lon="-5.8071">
        <ele>40.97</ele>
        <time>2021-03-20T21:06:24Z</time>
      </trkpt>
      <trkpt lat="57.57655" lon="-5.80665">
        <ele>38.2</ele>
        <time>2021-03-20T21:06:27Z</time>
      </trkpt>
      <trkpt lat="57.57636" lon="-5.80644">
        <ele>38.47</ele>
        <time>2021-03-20T21:06:29Z</time>
      </trkpt>
      <trkpt lat="57.57618" lon="-5.80607">
        <ele>35.63</ele>
        <time>2021-03-20T21:06:32Z</time>
      </trkpt>
      <trkpt lat="57.57472" lon="-5.80179">
        <ele>40.01</ele>
        <time>2021-03-20T21:06:34Z</time>
      </trkpt>
      <trkpt lat="57.57461" lon="-5.80155">
        <ele>41.49</ele>
        <time>2021-03-20T21:06:37Z</time>
      </trkpt>
      <trkpt lat="57.57445" lon="-5.80133">
        <ele>42.71</ele>
        <time>2021-03-20T21:06:39Z</time>
      </trkpt>
      <trkpt lat="57.57397" lon="-5.80085">
        <ele>43.55</ele>
        <time>2021-03-20T21:06:42Z</time>
      </trkpt>
      <trkpt lat="57.57337" lon="-5.80037">
        <ele>45.48</ele>
        <time>2021-03-20T21:06:44Z</time>
      </trkpt>
      <trkpt lat="57.57276" lon="-5.79976">
        <ele>40.74</ele>
        <time>2021-03-20T21:06:47Z</time>
      </trkpt>
      <trkpt lat="57.57238" lon="-5.7995">
        <ele>39.49</ele>
        <time>2021-03-20T21:06:49Z</time>
      </trkpt>
      <trkpt lat="57.57218" lon="-5.79927">
        <ele>37.82</ele>
        <time>2021-03-20T21:06:52Z</time>
      </trkpt>
      <trkpt lat="57.57201" lon="-5.79894">
        <ele>36.11</ele>
        <time>2021-03-20T21:06:54Z</time>
      </trkpt>
      <trkpt lat="57.57193" lon="-5.79859">
        <ele>37.25</ele>
        <time>2021-03-20T21:06:57Z</time>
      </trkpt>
      <trkpt lat="57.57191" lon="-5.79812">
        <ele>41.6</ele>
        <time>2021-03-20T21:06:59Z</time>
      </trkpt>
      <trkpt lat="57.57195" lon="-5.79781">
        <ele>44.53</ele>
        <time>2021-03-20T21:07:02Z</time>
      </trkpt>
      <trkpt lat="57.57204" lon="-5.79752">
        <ele>45.53</ele>
        <time>2021-03-20T21:07:04Z</time>
      </trkpt>
      <trkpt lat="57.57215" lon="-5.79731">
        <ele>44.92</ele>
        <time>2021-03-20T21:07:07Z</time>
      </trkpt>
      <trkpt lat="57.57231" lon="-5.79713">
        <ele>43.25</ele>
        <time>2021-03-20T21:07:09Z</time>
      </trkpt>
      <trkpt lat="57.57268" lon="-5.79701">
        <ele>38.21</ele>
        <time>2021-03-20T21:07:12Z</time>
      </trkpt>
      <trkpt lat="57.57294" lon="-5.7969">
        <ele>35.4</ele>
        <time>2021-03-20T21:07:14Z</time>
      </trkpt>
      <trkpt lat="57.57309" lon="-5.79677">
        <ele>34.5</ele>
        <time>2021-03-20T21:07:17Z</time>
      </trkpt>
      <trkpt lat="57.57321" lon="-5.79657">
        <ele>34.77</ele>
        <time>2021-03-20T21:07:19Z</time>
      </trkpt>
      <trkpt lat="57.57331" lon="-5.7963">
        <ele>35.4</ele>
        <time>2021-03-20T21:07:22Z</time>
      </trkpt>
      <trkpt lat="57.57337" lon="-5.79598">
        <ele>35.74</ele>
        <time>2021-03-20T21:07:24Z</time>
      </trkpt>
      <trkpt lat="57.5734" lon="-5.79567">
        <ele>36.11</ele>
        <time>2021-03-20T21:07:27Z</time>
      </trkpt>
      <trkpt lat="57.57339" lon="-5.79537">
        <ele>35.92</ele>
        <time>2021-03-20T21:07:29Z</time>
      </trkpt>
      <trkpt lat="57.57329" lon="-5.79505">
        <ele>34.62</ele>
        <time>2021-03-20T21:07:32Z</time>
      </trkpt>
      <trkpt lat="57.57311" lon="-5.79463">
        <ele>31.85</ele>
        <time>2021-03-20T21:07:34Z</time>
      </trkpt>
      <trkpt lat="57.57283" lon="-5.79413">
        <ele>27.14</ele>
        <time>2021-03-20T21:07:37Z</time>
      </trkpt>
      <trkpt lat="57.57202" lon="-5.79284">
        <ele>17.23</ele>
        <time>2021-03-20T21:07:39Z</time>
      </trkpt>
      <trkpt lat="57.5717" lon="-5.79219">
        <ele>18.1</ele>
        <time>2021-03-20T21:07:42Z</time>
      </trkpt>
      <trkpt lat="57.57141" lon="-5.79148">
        <ele>22.98</ele>
        <time>2021-03-20T21:07:44Z</time>
      </trkpt>
      <trkpt lat="57.57126" lon="-5.791">
        <ele>24.95</ele>
        <time>2021-03-20T21:07:47Z</time>
      </trkpt>
      <trkpt lat="57.57069" lon="-5.78951">
        <ele>26.76</ele>
        <time>2021-03-20T21:07:49Z</time>
      </trkpt>
      <trkpt lat="57.57046" lon="-5.78906">
        <ele>27.53</ele>
        <time>2021-03-20T21:07:52Z</time>
      </trkpt>
      <trkpt lat="57.5702" lon="-5.78875">
        <ele>28.43</ele>
        <time>2021-03-20T21:07:54Z</time>
      </trkpt>
      <trkpt lat="57.56989" lon="-5.78848">
        <ele>30.57</ele>
        <time>2021-03-20T21:07:57Z</time>
      </trkpt>
      <trkpt lat="57.56958" lon="-5.78832">
        <ele>34.92</ele>
        <time>2021-03-20T21:07:59Z</time>
      </trkpt>
      <trkpt lat="57.56907" lon="-5.78824">
        <ele>39.92</ele>
        <time>2021-03-20T21:08:02Z</time>
      </trkpt>
      <trkpt lat="57.56886" lon="-5.78831">
        <ele>40.57</ele>
        <time>2021-03-20T21:08:04Z</time>
      </trkpt>
      <trkpt lat="57.56843" lon="-5.78861">
        <ele>45.62</ele>
        <time>2021-03-20T21:08:07Z</time>
      </trkpt>
      <trkpt lat="57.5681" lon="-5.7887">
        <ele>47.61</ele>
        <time>2021-03-20T21:08:09Z</time>
      </trkpt>
      <trkpt lat="57.56751" lon="-5.78864">
        <ele>45.34</ele>
        <time>2021-03-20T21:08:12Z</time>
      </trkpt>
      <trkpt lat="57.56727" lon="-5.78855">
        <ele>46.03</ele>
        <time>2021-03-20T21:08:14Z</time>
      </trkpt>
      <trkpt lat="57.56705" lon="-5.78844">
        <ele>45.72</ele>
        <time>2021-03-20T21:08:17Z</time>
      </trkpt>
      <trkpt lat="57.56681" lon="-5.7882">
        <ele>46.63</ele>
        <time>2021-03-20T21:08:19Z</time>
      </trkpt>
      <trkpt lat="57.56654" lon="-5.78782">
        <ele>49.17</ele>
        <time>2021-03-20T21:08:22Z</time>
      </trkpt>
      <trkpt lat="57.5663" lon="-5.78742">
        <ele>50.85</ele>
        <time>2021-03-20T21:08:24Z</time>
      </trkpt>
      <trkpt lat="57.56573" lon="-5.7864">
        <ele>51.41</ele>
        <time>2021-03-20T21:08:26Z</time>
      </trkpt>
      <trkpt lat="57.5655" lon="-5.78608">
        <ele>50.28</ele>
        <time>2021-03-20T21:08:29Z</time>
      </trkpt>
      <trkpt lat="57.56483" lon="-5.78546">
        <ele>47.71</ele>
        <time>2021-03-20T21:08:31Z</time>
      </trkpt>
      <trkpt lat="57.56457" lon="-5.78513">
        <ele>45.17</ele>
        <time>2021-03-20T21:08:34Z</time>
      </trkpt>
      <trkpt lat="57.56372" lon="-5.78373">
        <ele>38.65</ele>
        <time>2021-03-20T21:08:36Z</time>
      </trkpt>
      <trkpt lat="57.562" lon="-5.78085">
        <ele>40.99</ele>
        <time>2021-03-20T21:08:39Z</time>
      </trkpt>
      <trkpt lat="57.55972" lon="-5.77653">
        <ele>33.51</ele>
        <time>2021-03-20T21:08:41Z</time>
      </trkpt>
      <trkpt lat="57.55866" lon="-5.77433">
        <ele>31.98</ele>
        <time>2021-03-20T21:08:44Z</time>
      </trkpt>
      <trkpt lat="57.55847" lon="-5.774">
        <ele>32.29</ele>
        <time>2021-03-20T21:08:46Z</time>
      </trkpt>
      <trkpt lat="57.55733" lon="-5.7722">
        <ele>30.62</ele>
        <time>2021-03-20T21:08:49Z</time>
      </trkpt>
      <trkpt lat="57.55694" lon="-5.77132">
        <ele>30.98</ele>
        <time>2021-03-20T21:08:51Z</time>
      </trkpt>
      <trkpt lat="57.55679" lon="-5.77074">
        <ele>31.34</ele>
        <time>2021-03-20T21:08:54Z</time>
      </trkpt>
      <trkpt lat="57.55674" lon="-5.77044">
        <ele>32.74</ele>
        <time>2021-03-20T21:08:56Z</time>
      </trkpt>
      <trkpt lat="57.55672" lon="-5.77013">
        <ele>34.81</ele>
        <time>2021-03-20T21:08:59Z</time>
      </trkpt>
      <trkpt lat="57.55673" lon="-5.76955">
        <ele>39.22</ele>
        <time>2021-03-20T21:09:01Z</time>
      </trkpt>
      <trkpt lat="57.55677" lon="-5.76909">
        <ele>42.58</ele>
        <time>2021-03-20T21:09:04Z</time>
      </trkpt>
      <trkpt lat="57.55688" lon="-5.76869">
        <ele>46.18</ele>
        <time>2021-03-20T21:09:06Z</time>
      </trkpt>
      <trkpt lat="57.55702" lon="-5.76837">
        <ele>48.38</ele>
        <time>2021-03-20T21:09:09Z</time>
      </trkpt>
      <trkpt lat="57.55719" lon="-5.76809">
        <ele>50.13</ele>
        <time>2021-03-20T21:09:11Z</time>
      </trkpt>
      <trkpt lat="57.55904" lon="-5.76537">
        <ele>31.11</ele>
        <time>2021-03-20T21:09:14Z</time>
      </trkpt>
      <trkpt lat="57.5592" lon="-5.76505">
        <ele>29.23</ele>
        <time>2021-03-20T21:09:16Z</time>
      </trkpt>
      <trkpt lat="57.55932" lon="-5.76454">
        <ele>28.85</ele>
        <time>2021-03-20T21:09:19Z</time>
      </trkpt>
      <trkpt lat="57.55942" lon="-5.76402">
        <ele>26.08</ele>
        <time>2021-03-20T21:09:21Z</time>
      </trkpt>
      <trkpt lat="57.55941" lon="-5.76348">
        <ele>24.28</ele>
        <time>2021-03-20T21:09:24Z</time>
      </trkpt>
      <trkpt lat="57.55938" lon="-5.76318">
        <ele>23.7</ele>
        <time>2021-03-20T21:09:26Z</time>
      </trkpt>
      <trkpt lat="57.5593" lon="-5.76282">
        <ele>21.9</ele>
        <time>2021-03-20T21:09:29Z</time>
      </trkpt>
      <trkpt lat="57.55918" lon="-5.76252">
        <ele>20.08</ele>
        <time>2021-03-20T21:09:31Z</time>
      </trkpt>
      <trkpt lat="57.55892" lon="-5.76197">
        <ele>16.2</ele>
        <time>2021-03-20T21:09:34Z</time>
      </trkpt>
      <trkpt lat="57.55821" lon="-5.76082">
        <ele>13.18</ele>
        <time>2021-03-20T21:09:36Z</time>
      </trkpt>
      <trkpt lat="57.55804" lon="-5.76061">
        <ele>11.98</ele>
        <time>2021-03-20T21:09:39Z</time>
      </trkpt>
      <trkpt lat="57.55777" lon="-5.76037">
        <ele>13.11</ele>
        <time>2021-03-20T21:09:41Z</time>
      </trkpt>
      <trkpt lat="57.55717" lon="-5.76005">
        <ele>17.58</ele>
        <time>2021-03-20T21:09:44Z</time>
      </trkpt>
      <trkpt lat="57.55659" lon="-5.75979">
        <ele>27.05</ele>
        <time>2021-03-20T21:09:46Z</time>
      </trkpt>
      <trkpt lat="57.55644" lon="-5.75967">
        <ele>29.69</ele>
        <time>2021-03-20T21:09:49Z</time>
      </trkpt>
      <trkpt lat="57.55632" lon="-5.7595">
        <ele>32.34</ele>
        <time>2021-03-20T21:09:51Z</time>
      </trkpt>
      <trkpt lat="57.55619" lon="-5.75911">
        <ele>36.4</ele>
        <time>2021-03-20T21:09:54Z</time>
      </trkpt>
      <trkpt lat="57.55613" lon="-5.75876">
        <ele>37.51</ele>
        <time>2021-03-20T21:09:56Z</time>
      </trkpt>
      <trkpt lat="57.55607" lon="-5.75818">
        <ele>39.49</ele>
        <time>2021-03-20T21:09:59Z</time>
      </trkpt>
      <trkpt lat="57.55579" lon="-5.75706">
        <ele>47.03</ele>
        <time>2021-03-20T21:10:01Z</time>
      </trkpt>
      <trkpt lat="57.55558" lon="-5.75638">
        <ele>49.19</ele>
        <time>2021-03-20T21:10:04Z</time>
      </trkpt>
      <trkpt lat="57.55534" lon="-5.75591">
        <ele>52.68</ele>
        <time>2021-03-20T21:10:06Z</time>
      </trkpt>
      <trkpt lat="57.55512" lon="-5.75564">
        <ele>53.73</ele>
        <time>2021-03-20T21:10:09Z</time>
      </trkpt>
      <trkpt lat="57.55486" lon="-5.75545">
        <ele>53.13</ele>
        <time>2021-03-20T21:10:11Z</time>
      </trkpt>
      <trkpt lat="57.5546" lon="-5.75535">
        <ele>52.07</ele>
        <time>2021-03-20T21:10:14Z</time>
      </trkpt>
      <trkpt lat="57.55436" lon="-5.75532">
        <ele>51.55</ele>
        <time>2021-03-20T21:10:16Z</time>
      </trkpt>
      <trkpt lat="57.55416" lon="-5.75533">
        <ele>51.73</ele>
        <time>2021-03-20T21:10:19Z</time>
      </trkpt>
      <trkpt lat="57.55376" lon="-5.75546">
        <ele>51.63</ele>
        <time>2021-03-20T21:10:21Z</time>
      </trkpt>
      <trkpt lat="57.55291" lon="-5.75585">
        <ele>48.01</ele>
        <time>2021-03-20T21:10:24Z</time>
      </trkpt>
      <trkpt lat="57.55267" lon="-5.75598">
        <ele>46.09</ele>
        <time>2021-03-20T21:10:26Z</time>
      </trkpt>
      <trkpt lat="57.55192" lon="-5.7565">
        <ele>37.78</ele>
        <time>2021-03-20T21:10:29Z</time>
      </trkpt>
      <trkpt lat="57.55154" lon="-5.75671">
        <ele>35.19</ele>
        <time>2021-03-20T21:10:31Z</time>
      </trkpt>
      <trkpt lat="57.55132" lon="-5.75675">
        <ele>33.54</ele>
        <time>2021-03-20T21:10:34Z</time>
      </trkpt>
      <trkpt lat="57.55111" lon="-5.75676">
        <ele>31.27</ele>
        <time>2021-03-20T21:10:36Z</time>
      </trkpt>
      <trkpt lat="57.55089" lon="-5.75673">
        <ele>29.06</ele>
        <time>2021-03-20T21:10:39Z</time>
      </trkpt>
      <trkpt lat="57.55066" lon="-5.75663">
        <ele>26.43</ele>
        <time>2021-03-20T21:10:41Z</time>
      </trkpt>
      <trkpt lat="57.55044" lon="-5.75644">
        <ele>24.39</ele>
        <time>2021-03-20T21:10:44Z</time>
      </trkpt>
      <trkpt lat="57.55007" lon="-5.75589">
        <ele>20.26</ele>
        <time>2021-03-20T21:10:46Z</time>
      </trkpt>
      <trkpt lat="57.54978" lon="-5.75532">
        <ele>18.81</ele>
        <time>2021-03-20T21:10:49Z</time>
      </trkpt>
      <trkpt lat="57.54945" lon="-5.75456">
        <ele>19.38</ele>
        <time>2021-03-20T21:10:51Z</time>
      </trkpt>
      <trkpt lat="57.54895" lon="-5.75312">
        <ele>25.32</ele>
        <time>2021-03-20T21:10:54Z</time>
      </trkpt>
      <trkpt lat="57.54856" lon="-5.75232">
        <ele>26.9</ele>
        <time>2021-03-20T21:10:56Z</time>
      </trkpt>
      <trkpt lat="57.54836" lon="-5.75196">
        <ele>26.92</ele>
        <time>2021-03-20T21:10:59Z</time>
      </trkpt>
      <trkpt lat="57.54818" lon="-5.7517">
        <ele>26.97</ele>
        <time>2021-03-20T21:11:01Z</time>
      </trkpt>
      <trkpt lat="57.54794" lon="-5.75143">
        <ele>27.66</ele>
        <time>2021-03-20T21:11:03Z</time>
      </trkpt>
      <trkpt lat="57.54768" lon="-5.7512">
        <ele>27.26</ele>
        <time>2021-03-20T21:11:06Z</time>
      </trkpt>
      <trkpt lat="57.54704" lon="-5.7507">
        <ele>29.61</ele>
        <time>2021-03-20T21:11:08Z</time>
      </trkpt>
      <trkpt lat="57.54672" lon="-5.75038">
        <ele>30.19</ele>
        <time>2021-03-20T21:11:11Z</time>
      </trkpt>
      <trkpt lat="57.54634" lon="-5.7499">
        <ele>29.7</ele>
        <time>2021-03-20T21:11:13Z</time>
      </trkpt>
      <trkpt lat="57.54611" lon="-5.74954">
        <ele>30.35</ele>
        <time>2021-03-20T21:11:16Z</time>
      </trkpt>
      <trkpt lat="57.54597" lon="-5.74923">
        <ele>31.1</ele>
        <time>2021-03-20T21:11:18Z</time>
      </trkpt>
      <trkpt lat="57.54591" lon="-5.74893">
        <ele>31.59</ele>
        <time>2021-03-20T21:11:21Z</time>
      </trkpt>
      <trkpt lat="57.54586" lon="-5.74838">
        <ele>30.75</ele>
        <time>2021-03-20T21:11:23Z</time>
      </trkpt>
      <trkpt lat="57.54582" lon="-5.74773">
        <ele>30.14</ele>
        <time>2021-03-20T21:11:26Z</time>
      </trkpt>
      <trkpt lat="57.54577" lon="-5.74721">
        <ele>31.09</ele>
        <time>2021-03-20T21:11:28Z</time>
      </trkpt>
      <trkpt lat="57.54565" lon="-5.7468">
        <ele>31.58</ele>
        <time>2021-03-20T21:11:31Z</time>
      </trkpt>
      <trkpt lat="57.54553" lon="-5.74657">
        <ele>31.96</ele>
        <time>2021-03-20T21:11:33Z</time>
      </trkpt>
      <trkpt lat="57.54537" lon="-5.74636">
        <ele>31.88</ele>
        <time>2021-03-20T21:11:36Z</time>
      </trkpt>
      <trkpt lat="57.54486" lon="-5.74542">
        <ele>27.11</ele>
        <time>2021-03-20T21:11:38Z</time>
      </trkpt>
      <trkpt lat="57.54463" lon="-5.74514">
        <ele>28.17</ele>
        <time>2021-03-20T21:11:41Z</time>
      </trkpt>
      <trkpt lat="57.54454" lon="-5.74494">
        <ele>27.54</ele>
        <time>2021-03-20T21:11:43Z</time>
      </trkpt>
      <trkpt lat="57.5444" lon="-5.74452">
        <ele>23.69</ele>
        <time>2021-03-20T21:11:46Z</time>
      </trkpt>
      <trkpt lat="57.54423" lon="-5.74406">
        <ele>21.62</ele>
        <time>2021-03-20T21:11:48Z</time>
      </trkpt>
      <trkpt lat="57.54386" lon="-5.74349">
        <ele>25.96</ele>
        <time>2021-03-20T21:11:51Z</time>
      </trkpt>
      <trkpt lat="57.5435" lon="-5.74297">
        <ele>27.58</ele>
        <time>2021-03-20T21:11:53Z</time>
      </trkpt>
      <trkpt lat="57.54334" lon="-5.7429">
        <ele>28.73</ele>
        <time>2021-03-20T21:11:56Z</time>
      </trkpt>
      <trkpt lat="57.54284" lon="-5.7428">
        <ele>37.14</ele>
        <time>2021-03-20T21:11:58Z</time>
      </trkpt>
      <trkpt lat="57.54198" lon="-5.74237">
        <ele>41.66</ele>
        <time>2021-03-20T21:12:01Z</time>
      </trkpt>
      <trkpt lat="57.54102" lon="-5.74193">
        <ele>50.85</ele>
        <time>2021-03-20T21:12:03Z</time>
      </trkpt>
      <trkpt lat="57.54045" lon="-5.74175">
        <ele>54.42</ele>
        <time>2021-03-20T21:12:06Z</time>
      </trkpt>
      <trkpt lat="57.54014" lon="-5.74177">
        <ele>56.98</ele>
        <time>2021-03-20T21:12:08Z</time>
      </trkpt>
      <trkpt lat="57.53982" lon="-5.74189">
        <ele>59.85</ele>
        <time>2021-03-20T21:12:11Z</time>
      </trkpt>
      <trkpt lat="57.53951" lon="-5.74209">
        <ele>62.94</ele>
        <time>2021-03-20T21:12:13Z</time>
      </trkpt>
      <trkpt lat="57.53931" lon="-5.74229">
        <ele>64.71</ele>
        <time>2021-03-20T21:12:16Z</time>
      </trkpt>
      <trkpt lat="57.53903" lon="-5.74247">
        <ele>66.24</ele>
        <time>2021-03-20T21:12:18Z</time>
      </trkpt>
      <trkpt lat="57.5388" lon="-5.74249">
        <ele>66.28</ele>
        <time>2021-03-20T21:12:21Z</time>
      </trkpt>
      <trkpt lat="57.53863" lon="-5.74238">
        <ele>66.06</ele>
        <time>2021-03-20T21:12:23Z</time>
      </trkpt>
      <trkpt lat="57.53835" lon="-5.74206">
        <ele>65</ele>
        <time>2021-03-20T21:12:26Z</time>
      </trkpt>
      <trkpt lat="57.53701" lon="-5.74127">
        <ele>69.57</ele>
        <time>2021-03-20T21:12:28Z</time>
      </trkpt>
      <trkpt lat="57.53683" lon="-5.74111">
        <ele>70.84</ele>
        <time>2021-03-20T21:12:31Z</time>
      </trkpt>
      <trkpt lat="57.5366" lon="-5.74081">
        <ele>73.58</ele>
        <time>2021-03-20T21:12:33Z</time>
      </trkpt>
      <trkpt lat="57.53617" lon="-5.74006">
        <ele>79.72</ele>
        <time>2021-03-20T21:12:36Z</time>
      </trkpt>
      <trkpt lat="57.5356" lon="-5.73938">
        <ele>83.72</ele>
        <time>2021-03-20T21:12:38Z</time>
      </trkpt>
      <trkpt lat="57.53545" lon="-5.73916">
        <ele>84.73</ele>
        <time>2021-03-20T21:12:41Z</time>
      </trkpt>
      <trkpt lat="57.53538" lon="-5.73899">
        <ele>85.88</ele>
        <time>2021-03-20T21:12:43Z</time>
      </trkpt>
      <trkpt lat="57.53525" lon="-5.73831">
        <ele>86.89</ele>
        <time>2021-03-20T21:12:46Z</time>
      </trkpt>
      <trkpt lat="57.53513" lon="-5.73803">
        <ele>86.37</ele>
        <time>2021-03-20T21:12:48Z</time>
      </trkpt>
      <trkpt lat="57.53499" lon="-5.73786">
        <ele>85.28</ele>
        <time>2021-03-20T21:12:51Z</time>
      </trkpt>
      <trkpt lat="57.5348" lon="-5.73776">
        <ele>85</ele>
        <time>2021-03-20T21:12:53Z</time>
      </trkpt>
      <trkpt lat="57.5346" lon="-5.73773">
        <ele>85.43</ele>
        <time>2021-03-20T21:12:56Z</time>
      </trkpt>
      <trkpt lat="57.53428" lon="-5.73761">
        <ele>86.6</ele>
        <time>2021-03-20T21:12:58Z</time>
      </trkpt>
      <trkpt lat="57.53414" lon="-5.73751">
        <ele>87.1</ele>
        <time>2021-03-20T21:13:01Z</time>
      </trkpt>
      <trkpt lat="57.53403" lon="-5.73735">
        <ele>86.94</ele>
        <time>2021-03-20T21:13:03Z</time>
      </trkpt>
      <trkpt lat="57.53389" lon="-5.73703">
        <ele>87</ele>
        <time>2021-03-20T21:13:06Z</time>
      </trkpt>
      <trkpt lat="57.53364" lon="-5.73639">
        <ele>89.22</ele>
        <time>2021-03-20T21:13:08Z</time>
      </trkpt>
      <trkpt lat="57.53339" lon="-5.73585">
        <ele>90.69</ele>
        <time>2021-03-20T21:13:11Z</time>
      </trkpt>
      <trkpt lat="57.5333" lon="-5.73562">
        <ele>90.97</ele>
        <time>2021-03-20T21:13:13Z</time>
      </trkpt>
      <trkpt lat="57.53309" lon="-5.73481">
        <ele>92.44</ele>
        <time>2021-03-20T21:13:16Z</time>
      </trkpt>
      <trkpt lat="57.53302" lon="-5.73412">
        <ele>93.32</ele>
        <time>2021-03-20T21:13:18Z</time>
      </trkpt>
      <trkpt lat="57.53303" lon="-5.73342">
        <ele>92.03</ele>
        <time>2021-03-20T21:13:21Z</time>
      </trkpt>
      <trkpt lat="57.53306" lon="-5.73313">
        <ele>92.13</ele>
        <time>2021-03-20T21:13:23Z</time>
      </trkpt>
      <trkpt lat="57.53313" lon="-5.73288">
        <ele>92.8</ele>
        <time>2021-03-20T21:13:26Z</time>
      </trkpt>
      <trkpt lat="57.53328" lon="-5.73244">
        <ele>93.86</ele>
        <time>2021-03-20T21:13:28Z</time>
      </trkpt>
      <trkpt lat="57.53344" lon="-5.7321">
        <ele>95.72</ele>
        <time>2021-03-20T21:13:31Z</time>
      </trkpt>
      <trkpt lat="57.53363" lon="-5.73179">
        <ele>97.17</ele>
        <time>2021-03-20T21:13:33Z</time>
      </trkpt>
      <trkpt lat="57.53383" lon="-5.73154">
        <ele>98.83</ele>
        <time>2021-03-20T21:13:36Z</time>
      </trkpt>
      <trkpt lat="57.53439" lon="-5.73096">
        <ele>101.98</ele>
        <time>2021-03-20T21:13:38Z</time>
      </trkpt>
      <trkpt lat="57.53475" lon="-5.73077">
        <ele>102.65</ele>
        <time>2021-03-20T21:13:40Z</time>
      </trkpt>
      <trkpt lat="57.53515" lon="-5.73067">
        <ele>103</ele>
        <time>2021-03-20T21:13:43Z</time>
      </trkpt>
      <trkpt lat="57.53555" lon="-5.73064">
        <ele>102.92</ele>
        <time>2021-03-20T21:13:45Z</time>
      </trkpt>
      <trkpt lat="57.5359" lon="-5.73074">
        <ele>104.91</ele>
        <time>2021-03-20T21:13:48Z</time>
      </trkpt>
      <trkpt lat="57.53621" lon="-5.7307">
        <ele>105.08</ele>
        <time>2021-03-20T21:13:50Z</time>
      </trkpt>
      <trkpt lat="57.53645" lon="-5.73055">
        <ele>103.43</ele>
        <time>2021-03-20T21:13:53Z</time>
      </trkpt>
      <trkpt lat="57.53667" lon="-5.73034">
        <ele>104.24</ele>
        <time>2021-03-20T21:13:55Z</time>
      </trkpt>
      <trkpt lat="57.53687" lon="-5.73005">
        <ele>104.65</ele>
        <time>2021-03-20T21:13:58Z</time>
      </trkpt>
      <trkpt lat="57.53695" lon="-5.72984">
        <ele>104.49</ele>
        <time>2021-03-20T21:14:00Z</time>
      </trkpt>
      <trkpt lat="57.53708" lon="-5.72934">
        <ele>103.1</ele>
        <time>2021-03-20T21:14:03Z</time>
      </trkpt>
      <trkpt lat="57.53722" lon="-5.72838">
        <ele>102.02</ele>
        <time>2021-03-20T21:14:05Z</time>
      </trkpt>
      <trkpt lat="57.53731" lon="-5.72804">
        <ele>105.9</ele>
        <time>2021-03-20T21:14:08Z</time>
      </trkpt>
      <trkpt lat="57.53741" lon="-5.72786">
        <ele>107.67</ele>
        <time>2021-03-20T21:14:10Z</time>
      </trkpt>
      <trkpt lat="57.53833" lon="-5.72686">
        <ele>122.93</ele>
        <time>2021-03-20T21:14:13Z</time>
      </trkpt>
      <trkpt lat="57.53861" lon="-5.72642">
        <ele>127.71</ele>
        <time>2021-03-20T21:14:15Z</time>
      </trkpt>
      <trkpt lat="57.53875" lon="-5.72623">
        <ele>129.46</ele>
        <time>2021-03-20T21:14:18Z</time>
      </trkpt>
      <trkpt lat="57.53891" lon="-5.72611">
        <ele>130.16</ele>
        <time>2021-03-20T21:14:20Z</time>
      </trkpt>
      <trkpt lat="57.5397" lon="-5.72575">
        <ele>135.63</ele>
        <time>2021-03-20T21:14:23Z</time>
      </trkpt>
      <trkpt lat="57.54018" lon="-5.72541">
        <ele>138.17</ele>
        <time>2021-03-20T21:14:25Z</time>
      </trkpt>
      <trkpt lat="57.54038" lon="-5.72538">
        <ele>137.44</ele>
        <time>2021-03-20T21:14:28Z</time>
      </trkpt>
      <trkpt lat="57.54058" lon="-5.72543">
        <ele>135.73</ele>
        <time>2021-03-20T21:14:30Z</time>
      </trkpt>
      <trkpt lat="57.54092" lon="-5.72532">
        <ele>132.3</ele>
        <time>2021-03-20T21:14:33Z</time>
      </trkpt>
      <trkpt lat="57.54102" lon="-5.72525">
        <ele>129.89</ele>
        <time>2021-03-20T21:14:35Z</time>
      </trkpt>
      <trkpt lat="57.54123" lon="-5.72475">
        <ele>122.17</ele>
        <time>2021-03-20T21:14:38Z</time>
      </trkpt>
      <trkpt lat="57.54143" lon="-5.72419">
        <ele>113.62</ele>
        <time>2021-03-20T21:14:40Z</time>
      </trkpt>
      <trkpt lat="57.54149" lon="-5.72396">
        <ele>111.04</ele>
        <time>2021-03-20T21:14:43Z</time>
      </trkpt>
      <trkpt lat="57.54152" lon="-5.72346">
        <ele>109.6</ele>
        <time>2021-03-20T21:14:45Z</time>
      </trkpt>
      <trkpt lat="57.54154" lon="-5.72329">
        <ele>108.24</ele>
        <time>2021-03-20T21:14:48Z</time>
      </trkpt>
      <trkpt lat="57.54169" lon="-5.72267">
        <ele>102.2</ele>
        <time>2021-03-20T21:14:50Z</time>
      </trkpt>
      <trkpt lat="57.54175" lon="-5.72222">
        <ele>101.73</ele>
        <time>2021-03-20T21:14:53Z</time>
      </trkpt>
      <trkpt lat="57.54179" lon="-5.72158">
        <ele>97.71</ele>
        <time>2021-03-20T21:14:55Z</time>
      </trkpt>
      <trkpt lat="57.54177" lon="-5.72088">
        <ele>92.89</ele>
        <time>2021-03-20T21:14:58Z</time>
      </trkpt>
      <trkpt lat="57.54172" lon="-5.72055">
        <ele>91.79</ele>
        <time>2021-03-20T21:15:00Z</time>
      </trkpt>
      <trkpt lat="57.54158" lon="-5.72025">
        <ele>90.56</ele>
        <time>2021-03-20T21:15:03Z</time>
      </trkpt>
      <trkpt lat="57.54141" lon="-5.71995">
        <ele>87.76</ele>
        <time>2021-03-20T21:15:05Z</time>
      </trkpt>
      <trkpt lat="57.54119" lon="-5.71975">
        <ele>87.52</ele>
        <time>2021-03-20T21:15:08Z</time>
      </trkpt>
      <trkpt lat="57.54058" lon="-5.71945">
        <ele>88.69</ele>
        <time>2021-03-20T21:15:10Z</time>
      </trkpt>
      <trkpt lat="57.54039" lon="-5.71927">
        <ele>86.74</ele>
        <time>2021-03-20T21:15:13Z</time>
      </trkpt>
      <trkpt lat="57.54023" lon="-5.719">
        <ele>82.97</ele>
        <time>2021-03-20T21:15:15Z</time>
      </trkpt>
      <trkpt lat="57.54004" lon="-5.71881">
        <ele>81.5</ele>
        <time>2021-03-20T21:15:18Z</time>
      </trkpt>
      <trkpt lat="57.5395" lon="-5.71857">
        <ele>84.52</ele>
        <time>2021-03-20T21:15:20Z</time>
      </trkpt>
      <trkpt lat="57.53922" lon="-5.71822">
        <ele>82.03</ele>
        <time>2021-03-20T21:15:23Z</time>
      </trkpt>
      <trkpt lat="57.53897" lon="-5.71782">
        <ele>79.78</ele>
        <time>2021-03-20T21:15:25Z</time>
      </trkpt>
      <trkpt lat="57.53867" lon="-5.71698">
        <ele>73.14</ele>
        <time>2021-03-20T21:15:28Z</time>
      </trkpt>
      <trkpt lat="57.53847" lon="-5.71656">
        <ele>67.27</ele>
        <time>2021-03-20T21:15:30Z</time>
      </trkpt>
      <trkpt lat="57.53829" lon="-5.71629">
        <ele>63.34</ele>
        <time>2021-03-20T21:15:33Z</time>
      </trkpt>
      <trkpt lat="57.53785" lon="-5.7159">
        <ele>63.46</ele>
        <time>2021-03-20T21:15:35Z</time>
      </trkpt>
      <trkpt lat="57.53714" lon="-5.7152">
        <ele>55.28</ele>
        <time>2021-03-20T21:15:38Z</time>
      </trkpt>
      <trkpt lat="57.53666" lon="-5.71457">
        <ele>48.83</ele>
        <time>2021-03-20T21:15:40Z</time>
      </trkpt>
      <trkpt lat="57.53643" lon="-5.71421">
        <ele>46.23</ele>
        <time>2021-03-20T21:15:43Z</time>
      </trkpt>
      <trkpt lat="57.53593" lon="-5.71323">
        <ele>39.94</ele>
        <time>2021-03-20T21:15:45Z</time>
      </trkpt>
      <trkpt lat="57.53595" lon="-5.71287">
        <ele>39.1</ele>
        <time>2021-03-20T21:15:48Z</time>
      </trkpt>
      <trkpt lat="57.53603" lon="-5.7127">
        <ele>38.42</ele>
        <time>2021-03-20T21:15:50Z</time>
      </trkpt>
      <trkpt lat="57.53614" lon="-5.71262">
        <ele>37.91</ele>
        <time>2021-03-20T21:15:53Z</time>
      </trkpt>
      <trkpt lat="57.53667" lon="-5.71246">
        <ele>35.42</ele>
        <time>2021-03-20T21:15:55Z</time>
      </trkpt>
      <trkpt lat="57.53697" lon="-5.71228">
        <ele>34.38</ele>
        <time>2021-03-20T21:15:58Z</time>
      </trkpt>
      <trkpt lat="57.53714" lon="-5.71221">
        <ele>33.02</ele>
        <time>2021-03-20T21:16:00Z</time>
      </trkpt>
      <trkpt lat="57.53772" lon="-5.71221">
        <ele>26.61</ele>
        <time>2021-03-20T21:16:03Z</time>
      </trkpt>
      <trkpt lat="57.5379" lon="-5.71217">
        <ele>25.28</ele>
        <time>2021-03-20T21:16:05Z</time>
      </trkpt>
      <trkpt lat="57.53807" lon="-5.71205">
        <ele>24.52</ele>
        <time>2021-03-20T21:16:08Z</time>
      </trkpt>
      <trkpt lat="57.53838" lon="-5.71165">
        <ele>23.9</ele>
        <time>2021-03-20T21:16:10Z</time>
      </trkpt>
      <trkpt lat="57.5389" lon="-5.71112">
        <ele>21.96</ele>
        <time>2021-03-20T21:16:13Z</time>
      </trkpt>
      <trkpt lat="57.5393" lon="-5.71083">
        <ele>21.54</ele>
        <time>2021-03-20T21:16:15Z</time>
      </trkpt>
      <trkpt lat="57.5397" lon="-5.71058">
        <ele>19.25</ele>
        <time>2021-03-20T21:16:17Z</time>
      </trkpt>
      <trkpt lat="57.53996" lon="-5.71031">
        <ele>18.14</ele>
        <time>2021-03-20T21:16:20Z</time>
      </trkpt>
      <trkpt lat="57.54001" lon="-5.71014">
        <ele>17.4</ele>
        <time>2021-03-20T21:16:22Z</time>
      </trkpt>
      <trkpt lat="57.54002" lon="-5.7099">
        <ele>16.39</ele>
        <time>2021-03-20T21:16:25Z</time>
      </trkpt>
      <trkpt lat="57.54" lon="-5.70977">
        <ele>16.19</ele>
        <time>2021-03-20T21:16:27Z</time>
      </trkpt>
      <trkpt lat="57.53982" lon="-5.70935">
        <ele>15.93</ele>
        <time>2021-03-20T21:16:30Z</time>
      </trkpt>
      <trkpt lat="57.53941" lon="-5.70763">
        <ele>13.71</ele>
        <time>2021-03-20T21:16:32Z</time>
      </trkpt>
      <trkpt lat="57.5393" lon="-5.70737">
        <ele>14.55</ele>
        <time>2021-03-20T21:16:35Z</time>
      </trkpt>
      <trkpt lat="57.53912" lon="-5.70711">
        <ele>15.95</ele>
        <time>2021-03-20T21:16:37Z</time>
      </trkpt>
      <trkpt lat="57.53835" lon="-5.70631">
        <ele>23.26</ele>
        <time>2021-03-20T21:16:40Z</time>
      </trkpt>
      <trkpt lat="57.53697" lon="-5.70447">
        <ele>23.29</ele>
        <time>2021-03-20T21:16:42Z</time>
      </trkpt>
      <trkpt lat="57.53686" lon="-5.70426">
        <ele>24.07</ele>
        <time>2021-03-20T21:16:45Z</time>
      </trkpt>
      <trkpt lat="57.53657" lon="-5.70314">
        <ele>25.8</ele>
        <time>2021-03-20T21:16:47Z</time>
      </trkpt>
      <trkpt lat="57.5364" lon="-5.70265">
        <ele>26.04</ele>
        <time>2021-03-20T21:16:50Z</time>
      </trkpt>
      <trkpt lat="57.53616" lon="-5.70213">
        <ele>25.54</ele>
        <time>2021-03-20T21:16:52Z</time>
      </trkpt>
      <trkpt lat="57.53579" lon="-5.70142">
        <ele>24.01</ele>
        <time>2021-03-20T21:16:55Z</time>
      </trkpt>
      <trkpt lat="57.53549" lon="-5.70098">
        <ele>19.34</ele>
        <time>2021-03-20T21:16:57Z</time>
      </trkpt>
      <trkpt lat="57.53528" lon="-5.70083">
        <ele>18</ele>
        <time>2021-03-20T21:17:00Z</time>
      </trkpt>
      <trkpt lat="57.53505" lon="-5.70072">
        <ele>16.27</ele>
        <time>2021-03-20T21:17:02Z</time>
      </trkpt>
      <trkpt lat="57.53474" lon="-5.70071">
        <ele>16.82</ele>
        <time>2021-03-20T21:17:05Z</time>
      </trkpt>
      <trkpt lat="57.53449" lon="-5.7008">
        <ele>18.56</ele>
        <time>2021-03-20T21:17:07Z</time>
      </trkpt>
      <trkpt lat="57.53407" lon="-5.70117">
        <ele>20.08</ele>
        <time>2021-03-20T21:17:10Z</time>
      </trkpt>
      <trkpt lat="57.53387" lon="-5.70126">
        <ele>20.08</ele>
        <time>2021-03-20T21:17:12Z</time>
      </trkpt>
      <trkpt lat="57.53362" lon="-5.70125">
        <ele>20.51</ele>
        <time>2021-03-20T21:17:15Z</time>
      </trkpt>
      <trkpt lat="57.53336" lon="-5.7012">
        <ele>20.33</ele>
        <time>2021-03-20T21:17:17Z</time>
      </trkpt>
      <trkpt lat="57.53231" lon="-5.70064">
        <ele>25.32</ele>
        <time>2021-03-20T21:17:20Z</time>
      </trkpt>
      <trkpt lat="57.53213" lon="-5.70048">
        <ele>26.47</ele>
        <time>2021-03-20T21:17:22Z</time>
      </trkpt>
      <trkpt lat="57.53193" lon="-5.70018">
        <ele>25.9</ele>
        <time>2021-03-20T21:17:25Z</time>
      </trkpt>
      <trkpt lat="57.53176" lon="-5.69984">
        <ele>23.03</ele>
        <time>2021-03-20T21:17:27Z</time>
      </trkpt>
      <trkpt lat="57.53159" lon="-5.69962">
        <ele>20.65</ele>
        <time>2021-03-20T21:17:30Z</time>
      </trkpt>
      <trkpt lat="57.53134" lon="-5.69941">
        <ele>18.78</ele>
        <time>2021-03-20T21:17:32Z</time>
      </trkpt>
      <trkpt lat="57.53107" lon="-5.69929">
        <ele>19.16</ele>
        <time>2021-03-20T21:17:35Z</time>
      </trkpt>
      <trkpt lat="57.53079" lon="-5.69906">
        <ele>18.17</ele>
        <time>2021-03-20T21:17:37Z</time>
      </trkpt>
      <trkpt lat="57.53056" lon="-5.69877">
        <ele>16.33</ele>
        <time>2021-03-20T21:17:40Z</time>
      </trkpt>
      <trkpt lat="57.53024" lon="-5.69843">
        <ele>14.08</ele>
        <time>2021-03-20T21:17:42Z</time>
      </trkpt>
      <trkpt lat="57.52982" lon="-5.69821">
        <ele>14.03</ele>
        <time>2021-03-20T21:17:45Z</time>
      </trkpt>
      <trkpt lat="57.5296" lon="-5.69778">
        <ele>16.62</ele>
        <time>2021-03-20T21:17:47Z</time>
      </trkpt>
      <trkpt lat="57.5296" lon="-5.69763">
        <ele>18.98</ele>
        <time>2021-03-20T21:17:50Z</time>
      </trkpt>
      <trkpt lat="57.52966" lon="-5.69737">
        <ele>21.16</ele>
        <time>2021-03-20T21:17:52Z</time>
      </trkpt>
      <trkpt lat="57.52979" lon="-5.69705">
        <ele>21.05</ele>
        <time>2021-03-20T21:17:55Z</time>
      </trkpt>
      <trkpt lat="57.53004" lon="-5.6967">
        <ele>16.47</ele>
        <time>2021-03-20T21:17:57Z</time>
      </trkpt>
      <trkpt lat="57.53011" lon="-5.69648">
        <ele>17</ele>
        <time>2021-03-20T21:18:00Z</time>
      </trkpt>
      <trkpt lat="57.53011" lon="-5.69627">
        <ele>19.78</ele>
        <time>2021-03-20T21:18:02Z</time>
      </trkpt>
      <trkpt lat="57.53005" lon="-5.69561">
        <ele>28.31</ele>
        <time>2021-03-20T21:18:05Z</time>
      </trkpt>
      <trkpt lat="57.52991" lon="-5.6948">
        <ele>37.02</ele>
        <time>2021-03-20T21:18:07Z</time>
      </trkpt>
      <trkpt lat="57.52985" lon="-5.69435">
        <ele>39.96</ele>
        <time>2021-03-20T21:18:10Z</time>
      </trkpt>
      <trkpt lat="57.52984" lon="-5.694">
        <ele>41.5</ele>
        <time>2021-03-20T21:18:12Z</time>
      </trkpt>
      <trkpt lat="57.52986" lon="-5.69357">
        <ele>41.64</ele>
        <time>2021-03-20T21:18:15Z</time>
      </trkpt>
      <trkpt lat="57.52983" lon="-5.69327">
        <ele>42.43</ele>
        <time>2021-03-20T21:18:17Z</time>
      </trkpt>
      <trkpt lat="57.52977" lon="-5.69298">
        <ele>44.03</ele>
        <time>2021-03-20T21:18:20Z</time>
      </trkpt>
      <trkpt lat="57.52954" lon="-5.69243">
        <ele>47.54</ele>
        <time>2021-03-20T21:18:22Z</time>
      </trkpt>
      <trkpt lat="57.52929" lon="-5.6919">
        <ele>47.57</ele>
        <time>2021-03-20T21:18:25Z</time>
      </trkpt>
      <trkpt lat="57.52911" lon="-5.69163">
        <ele>47.47</ele>
        <time>2021-03-20T21:18:27Z</time>
      </trkpt>
      <trkpt lat="57.52897" lon="-5.69149">
        <ele>48.19</ele>
        <time>2021-03-20T21:18:30Z</time>
      </trkpt>
      <trkpt lat="57.52873" lon="-5.69138">
        <ele>52.37</ele>
        <time>2021-03-20T21:18:32Z</time>
      </trkpt>
      <trkpt lat="57.52807" lon="-5.69122">
        <ele>60.48</ele>
        <time>2021-03-20T21:18:35Z</time>
      </trkpt>
      <trkpt lat="57.52778" lon="-5.69124">
        <ele>63.14</ele>
        <time>2021-03-20T21:18:37Z</time>
      </trkpt>
      <trkpt lat="57.52732" lon="-5.69151">
        <ele>67.91</ele>
        <time>2021-03-20T21:18:40Z</time>
      </trkpt>
      <trkpt lat="57.52711" lon="-5.69161">
        <ele>68.44</ele>
        <time>2021-03-20T21:18:42Z</time>
      </trkpt>
      <trkpt lat="57.52696" lon="-5.69162">
        <ele>67.64</ele>
        <time>2021-03-20T21:18:45Z</time>
      </trkpt>
      <trkpt lat="57.52682" lon="-5.6915">
        <ele>65.58</ele>
        <time>2021-03-20T21:18:47Z</time>
      </trkpt>
      <trkpt lat="57.52675" lon="-5.69136">
        <ele>63.98</ele>
        <time>2021-03-20T21:18:49Z</time>
      </trkpt>
      <trkpt lat="57.52673" lon="-5.69115">
        <ele>61.44</ele>
        <time>2021-03-20T21:18:52Z</time>
      </trkpt>
      <trkpt lat="57.52675" lon="-5.69091">
        <ele>61.5</ele>
        <time>2021-03-20T21:18:54Z</time>
      </trkpt>
      <trkpt lat="57.52688" lon="-5.69061">
        <ele>60.77</ele>
        <time>2021-03-20T21:18:57Z</time>
      </trkpt>
      <trkpt lat="57.52709" lon="-5.68998">
        <ele>58.35</ele>
        <time>2021-03-20T21:18:59Z</time>
      </trkpt>
      <trkpt lat="57.52712" lon="-5.68977">
        <ele>56.49</ele>
        <time>2021-03-20T21:19:02Z</time>
      </trkpt>
      <trkpt lat="57.52711" lon="-5.68954">
        <ele>55.39</ele>
        <time>2021-03-20T21:19:04Z</time>
      </trkpt>
      <trkpt lat="57.52704" lon="-5.68934">
        <ele>55.19</ele>
        <time>2021-03-20T21:19:07Z</time>
      </trkpt>
      <trkpt lat="57.52695" lon="-5.68926">
        <ele>56.95</ele>
        <time>2021-03-20T21:19:09Z</time>
      </trkpt>
      <trkpt lat="57.52658" lon="-5.68912">
        <ele>59.54</ele>
        <time>2021-03-20T21:19:12Z</time>
      </trkpt>
      <trkpt lat="57.52645" lon="-5.68904">
        <ele>58.6</ele>
        <time>2021-03-20T21:19:14Z</time>
      </trkpt>
      <trkpt lat="57.52633" lon="-5.68887">
        <ele>56.93</ele>
        <time>2021-03-20T21:19:17Z</time>
      </trkpt>
      <trkpt lat="57.52615" lon="-5.68828">
        <ele>53.97</ele>
        <time>2021-03-20T21:19:19Z</time>
      </trkpt>
      <trkpt lat="57.52611" lon="-5.6877">
        <ele>53.79</ele>
        <time>2021-03-20T21:19:22Z</time>
      </trkpt>
      <trkpt lat="57.52598" lon="-5.68716">
        <ele>52.58</ele>
        <time>2021-03-20T21:19:24Z</time>
      </trkpt>
      <trkpt lat="57.52567" lon="-5.68642">
        <ele>47.25</ele>
        <time>2021-03-20T21:19:27Z</time>
      </trkpt>
      <trkpt lat="57.5253" lon="-5.68574">
        <ele>46.74</ele>
        <time>2021-03-20T21:19:29Z</time>
      </trkpt>
      <trkpt lat="57.52523" lon="-5.68541">
        <ele>43.28</ele>
        <time>2021-03-20T21:19:32Z</time>
      </trkpt>
      <trkpt lat="57.52519" lon="-5.68496">
        <ele>37.76</ele>
        <time>2021-03-20T21:19:34Z</time>
      </trkpt>
      <trkpt lat="57.52519" lon="-5.68389">
        <ele>30.33</ele>
        <time>2021-03-20T21:19:37Z</time>
      </trkpt>
      <trkpt lat="57.52512" lon="-5.68309">
        <ele>31.72</ele>
        <time>2021-03-20T21:19:39Z</time>
      </trkpt>
      <trkpt lat="57.52467" lon="-5.68069">
        <ele>38.18</ele>
        <time>2021-03-20T21:19:42Z</time>
      </trkpt>
      <trkpt lat="57.52455" lon="-5.68037">
        <ele>37.8</ele>
        <time>2021-03-20T21:19:44Z</time>
      </trkpt>
      <trkpt lat="57.52445" lon="-5.68022">
        <ele>38.52</ele>
        <time>2021-03-20T21:19:47Z</time>
      </trkpt>
      <trkpt lat="57.52405" lon="-5.68">
        <ele>38.4</ele>
        <time>2021-03-20T21:19:49Z</time>
      </trkpt>
      <trkpt lat="57.5239" lon="-5.67986">
        <ele>37.95</ele>
        <time>2021-03-20T21:19:52Z</time>
      </trkpt>
      <trkpt lat="57.52373" lon="-5.67954">
        <ele>37.5</ele>
        <time>2021-03-20T21:19:54Z</time>
      </trkpt>
      <trkpt lat="57.52318" lon="-5.67831">
        <ele>35.62</ele>
        <time>2021-03-20T21:19:57Z</time>
      </trkpt>
      <trkpt lat="57.52284" lon="-5.67772">
        <ele>33.74</ele>
        <time>2021-03-20T21:19:59Z</time>
      </trkpt>
      <trkpt lat="57.52243" lon="-5.67678">
        <ele>35.61</ele>
        <time>2021-03-20T21:20:02Z</time>
      </trkpt>
      <trkpt lat="57.52212" lon="-5.67572">
        <ele>37.09</ele>
        <time>2021-03-20T21:20:04Z</time>
      </trkpt>
      <trkpt lat="57.52167" lon="-5.67452">
        <ele>35.88</ele>
        <time>2021-03-20T21:20:07Z</time>
      </trkpt>
      <trkpt lat="57.52123" lon="-5.67352">
        <ele>38.48</ele>
        <time>2021-03-20T21:20:09Z</time>
      </trkpt>
      <trkpt lat="57.52087" lon="-5.67279">
        <ele>41.18</ele>
        <time>2021-03-20T21:20:12Z</time>
      </trkpt>
      <trkpt lat="57.52038" lon="-5.6717">
        <ele>50.65</ele>
        <time>2021-03-20T21:20:14Z</time>
      </trkpt>
      <trkpt lat="57.5202" lon="-5.67142">
        <ele>53.12</ele>
        <time>2021-03-20T21:20:17Z</time>
      </trkpt>
      <trkpt lat="57.51995" lon="-5.67118">
        <ele>55.89</ele>
        <time>2021-03-20T21:20:19Z</time>
      </trkpt>
      <trkpt lat="57.51969" lon="-5.67106">
        <ele>58.1</ele>
        <time>2021-03-20T21:20:22Z</time>
      </trkpt>
      <trkpt lat="57.51954" lon="-5.67106">
        <ele>58.65</ele>
        <time>2021-03-20T21:20:24Z</time>
      </trkpt>
      <trkpt lat="57.51932" lon="-5.67114">
        <ele>59.19</ele>
        <time>2021-03-20T21:20:27Z</time>
      </trkpt>
      <trkpt lat="57.51908" lon="-5.67116">
        <ele>59.17</ele>
        <time>2021-03-20T21:20:29Z</time>
      </trkpt>
      <trkpt lat="57.5184" lon="-5.671">
        <ele>59.44</ele>
        <time>2021-03-20T21:20:32Z</time>
      </trkpt>
      <trkpt lat="57.51809" lon="-5.67077">
        <ele>57.71</ele>
        <time>2021-03-20T21:20:34Z</time>
      </trkpt>
      <trkpt lat="57.51779" lon="-5.67041">
        <ele>52.56</ele>
        <time>2021-03-20T21:20:37Z</time>
      </trkpt>
      <trkpt lat="57.51751" lon="-5.67022">
        <ele>48.57</ele>
        <time>2021-03-20T21:20:39Z</time>
      </trkpt>
      <trkpt lat="57.51653" lon="-5.66965">
        <ele>36.62</ele>
        <time>2021-03-20T21:20:42Z</time>
      </trkpt>
      <trkpt lat="57.51629" lon="-5.66934">
        <ele>34.54</ele>
        <time>2021-03-20T21:20:44Z</time>
      </trkpt>
      <trkpt lat="57.51596" lon="-5.66864">
        <ele>32.75</ele>
        <time>2021-03-20T21:20:47Z</time>
      </trkpt>
      <trkpt lat="57.5157" lon="-5.66757">
        <ele>34.41</ele>
        <time>2021-03-20T21:20:49Z</time>
      </trkpt>
      <trkpt lat="57.51561" lon="-5.66692">
        <ele>34.86</ele>
        <time>2021-03-20T21:20:52Z</time>
      </trkpt>
      <trkpt lat="57.51539" lon="-5.66645">
        <ele>36.18</ele>
        <time>2021-03-20T21:20:54Z</time>
      </trkpt>
      <trkpt lat="57.51418" lon="-5.66422">
        <ele>36.36</ele>
        <time>2021-03-20T21:20:57Z</time>
      </trkpt>
      <trkpt lat="57.51404" lon="-5.66401">
        <ele>34.87</ele>
        <time>2021-03-20T21:20:59Z</time>
      </trkpt>
      <trkpt lat="57.51393" lon="-5.66399">
        <ele>34.72</ele>
        <time>2021-03-20T21:21:02Z</time>
      </trkpt>
      <trkpt lat="57.51361" lon="-5.664">
        <ele>33.8</ele>
        <time>2021-03-20T21:21:04Z</time>
      </trkpt>
      <trkpt lat="57.51348" lon="-5.66391">
        <ele>34.05</ele>
        <time>2021-03-20T21:21:07Z</time>
      </trkpt>
      <trkpt lat="57.5134" lon="-5.66375">
        <ele>34.53</ele>
        <time>2021-03-20T21:21:09Z</time>
      </trkpt>
      <trkpt lat="57.51334" lon="-5.66349">
        <ele>34.95</ele>
        <time>2021-03-20T21:21:12Z</time>
      </trkpt>
      <trkpt lat="57.51333" lon="-5.66284">
        <ele>38.67</ele>
        <time>2021-03-20T21:21:14Z</time>
      </trkpt>
      <trkpt lat="57.51335" lon="-5.66198">
        <ele>39.76</ele>
        <time>2021-03-20T21:21:17Z</time>
      </trkpt>
      <trkpt lat="57.51346" lon="-5.66068">
        <ele>42.33</ele>
        <time>2021-03-20T21:21:19Z</time>
      </trkpt>
      <trkpt lat="57.51352" lon="-5.65949">
        <ele>47.64</ele>
        <time>2021-03-20T21:21:22Z</time>
      </trkpt>
      <trkpt lat="57.51351" lon="-5.65904">
        <ele>48.55</ele>
        <time>2021-03-20T21:21:24Z</time>
      </trkpt>
      <trkpt lat="57.51343" lon="-5.65855">
        <ele>49.28</ele>
        <time>2021-03-20T21:21:26Z</time>
      </trkpt>
      <trkpt lat="57.51333" lon="-5.65824">
        <ele>49.4</ele>
        <time>2021-03-20T21:21:29Z</time>
      </trkpt>
      <trkpt lat="57.51298" lon="-5.65738">
        <ele>48.28</ele>
        <time>2021-03-20T21:21:31Z</time>
      </trkpt>
      <trkpt lat="57.51277" lon="-5.65668">
        <ele>48.41</ele>
        <time>2021-03-20T21:21:34Z</time>
      </trkpt>
      <trkpt lat="57.51255" lon="-5.65616">
        <ele>48.46</ele>
        <time>2021-03-20T21:21:36Z</time>
      </trkpt>
      <trkpt lat="57.51218" lon="-5.65555">
        <ele>46.71</ele>
        <time>2021-03-20T21:21:39Z</time>
      </trkpt>
      <trkpt lat="57.51197" lon="-5.6553">
        <ele>46.17</ele>
        <time>2021-03-20T21:21:41Z</time>
      </trkpt>
      <trkpt lat="57.51139" lon="-5.65475">
        <ele>45.37</ele>
        <time>2021-03-20T21:21:44Z</time>
      </trkpt>
      <trkpt lat="57.51121" lon="-5.65449">
        <ele>44.6</ele>
        <time>2021-03-20T21:21:46Z</time>
      </trkpt>
      <trkpt lat="57.51114" lon="-5.65436">
        <ele>44.63</ele>
        <time>2021-03-20T21:21:49Z</time>
      </trkpt>
      <trkpt lat="57.51077" lon="-5.65339">
        <ele>42.18</ele>
        <time>2021-03-20T21:21:51Z</time>
      </trkpt>
      <trkpt lat="57.51029" lon="-5.65259">
        <ele>50.78</ele>
        <time>2021-03-20T21:21:54Z</time>
      </trkpt>
      <trkpt lat="57.50985" lon="-5.65212">
        <ele>51.84</ele>
        <time>2021-03-20T21:21:56Z</time>
      </trkpt>
      <trkpt lat="57.50966" lon="-5.65181">
        <ele>50.63</ele>
        <time>2021-03-20T21:21:59Z</time>
      </trkpt>
      <trkpt lat="57.50932" lon="-5.651">
        <ele>43.3</ele>
        <time>2021-03-20T21:22:01Z</time>
      </trkpt>
      <trkpt lat="57.50923" lon="-5.65085">
        <ele>40.89</ele>
        <time>2021-03-20T21:22:04Z</time>
      </trkpt>
      <trkpt lat="57.50903" lon="-5.65063">
        <ele>38.63</ele>
        <time>2021-03-20T21:22:06Z</time>
      </trkpt>
      <trkpt lat="57.50844" lon="-5.65041">
        <ele>37.86</ele>
        <time>2021-03-20T21:22:09Z</time>
      </trkpt>
      <trkpt lat="57.50835" lon="-5.65032">
        <ele>37.49</ele>
        <time>2021-03-20T21:22:11Z</time>
      </trkpt>
      <trkpt lat="57.50828" lon="-5.65017">
        <ele>35.79</ele>
        <time>2021-03-20T21:22:14Z</time>
      </trkpt>
      <trkpt lat="57.50824" lon="-5.6499">
        <ele>32.33</ele>
        <time>2021-03-20T21:22:16Z</time>
      </trkpt>
      <trkpt lat="57.50825" lon="-5.64954">
        <ele>27.79</ele>
        <time>2021-03-20T21:22:19Z</time>
      </trkpt>
      <trkpt lat="57.50817" lon="-5.6491">
        <ele>23.56</ele>
        <time>2021-03-20T21:22:21Z</time>
      </trkpt>
      <trkpt lat="57.50784" lon="-5.64815">
        <ele>22.36</ele>
        <time>2021-03-20T21:22:24Z</time>
      </trkpt>
      <trkpt lat="57.50786" lon="-5.64788">
        <ele>21.7</ele>
        <time>2021-03-20T21:22:26Z</time>
      </trkpt>
      <trkpt lat="57.50796" lon="-5.64764">
        <ele>20.73</ele>
        <time>2021-03-20T21:22:29Z</time>
      </trkpt>
      <trkpt lat="57.50805" lon="-5.64755">
        <ele>20.07</ele>
        <time>2021-03-20T21:22:31Z</time>
      </trkpt>
      <trkpt lat="57.50838" lon="-5.64739">
        <ele>19.27</ele>
        <time>2021-03-20T21:22:34Z</time>
      </trkpt>
      <trkpt lat="57.50885" lon="-5.64676">
        <ele>21.55</ele>
        <time>2021-03-20T21:22:36Z</time>
      </trkpt>
      <trkpt lat="57.50899" lon="-5.64643">
        <ele>21.62</ele>
        <time>2021-03-20T21:22:39Z</time>
      </trkpt>
      <trkpt lat="57.5093" lon="-5.64547">
        <ele>20.52</ele>
        <time>2021-03-20T21:22:41Z</time>
      </trkpt>
      <trkpt lat="57.50961" lon="-5.64433">
        <ele>19.8</ele>
        <time>2021-03-20T21:22:44Z</time>
      </trkpt>
      <trkpt lat="57.50964" lon="-5.64412">
        <ele>19.47</ele>
        <time>2021-03-20T21:22:46Z</time>
      </trkpt>
      <trkpt lat="57.50962" lon="-5.64396">
        <ele>19</ele>
        <time>2021-03-20T21:22:49Z</time>
      </trkpt>
      <trkpt lat="57.50927" lon="-5.64287">
        <ele>17.96</ele>
        <time>2021-03-20T21:22:51Z</time>
      </trkpt>
      <trkpt lat="57.50922" lon="-5.64252">
        <ele>17.22</ele>
        <time>2021-03-20T21:22:54Z</time>
      </trkpt>
      <trkpt lat="57.50927" lon="-5.64213">
        <ele>14.52</ele>
        <time>2021-03-20T21:22:56Z</time>
      </trkpt>
      <trkpt lat="57.50938" lon="-5.64195">
        <ele>12.91</ele>
        <time>2021-03-20T21:22:59Z</time>
      </trkpt>
      <trkpt lat="57.50952" lon="-5.64192">
        <ele>11.1</ele>
        <time>2021-03-20T21:23:01Z</time>
      </trkpt>
      <trkpt lat="57.50963" lon="-5.64199">
        <ele>10.03</ele>
        <time>2021-03-20T21:23:04Z</time>
      </trkpt>
      <trkpt lat="57.50972" lon="-5.6421">
        <ele>9</ele>
        <time>2021-03-20T21:23:06Z</time>
      </trkpt>
      <trkpt lat="57.50984" lon="-5.64242">
        <ele>10.13</ele>
        <time>2021-03-20T21:23:09Z</time>
      </trkpt>
      <trkpt lat="57.50989" lon="-5.64274">
        <ele>10.94</ele>
        <time>2021-03-20T21:23:11Z</time>
      </trkpt>
      <trkpt lat="57.50994" lon="-5.64301">
        <ele>12.66</ele>
        <time>2021-03-20T21:23:14Z</time>
      </trkpt>
      <trkpt lat="57.51006" lon="-5.64332">
        <ele>14.36</ele>
        <time>2021-03-20T21:23:16Z</time>
      </trkpt>
      <trkpt lat="57.51023" lon="-5.64355">
        <ele>15.79</ele>
        <time>2021-03-20T21:23:19Z</time>
      </trkpt>
      <trkpt lat="57.51046" lon="-5.64376">
        <ele>17.92</ele>
        <time>2021-03-20T21:23:21Z</time>
      </trkpt>
      <trkpt lat="57.5106" lon="-5.64371">
        <ele>19.4</ele>
        <time>2021-03-20T21:23:24Z</time>
      </trkpt>
      <trkpt lat="57.51071" lon="-5.64359">
        <ele>20.78</ele>
        <time>2021-03-20T21:23:26Z</time>
      </trkpt>
      <trkpt lat="57.5108" lon="-5.64328">
        <ele>22.65</ele>
        <time>2021-03-20T21:23:29Z</time>
      </trkpt>
      <trkpt lat="57.51088" lon="-5.64258">
        <ele>23.55</ele>
        <time>2021-03-20T21:23:31Z</time>
      </trkpt>
      <trkpt lat="57.51105" lon="-5.64332">
        <ele>24.57</ele>
        <time>2021-03-20T21:23:35Z</time>
      </trkpt>
      <trkpt lat="57.51123" lon="-5.64375">
        <ele>24.36</ele>
        <time>2021-03-20T21:23:38Z</time>
      </trkpt>
      <trkpt lat="57.51146" lon="-5.64401">
        <ele>24.25</ele>
        <time>2021-03-20T21:23:42Z</time>
      </trkpt>
      <trkpt lat="57.51176" lon="-5.64421">
        <ele>22.99</ele>
        <time>2021-03-20T21:23:45Z</time>
      </trkpt>
      <trkpt lat="57.51409" lon="-5.64518">
        <ele>18.6</ele>
        <time>2021-03-20T21:23:49Z</time>
      </trkpt>
      <trkpt lat="57.51438" lon="-5.64546">
        <ele>16.18</ele>
        <time>2021-03-20T21:23:52Z</time>
      </trkpt>
      <trkpt lat="57.51507" lon="-5.64651">
        <ele>13.4</ele>
        <time>2021-03-20T21:23:56Z</time>
      </trkpt>
      <trkpt lat="57.51542" lon="-5.64687">
        <ele>15.35</ele>
        <time>2021-03-20T21:23:59Z</time>
      </trkpt>
      <trkpt lat="57.51621" lon="-5.64735">
        <ele>16.35</ele>
        <time>2021-03-20T21:24:03Z</time>
      </trkpt>
      <trkpt lat="57.51704" lon="-5.64803">
        <ele>10.5</ele>
        <time>2021-03-20T21:24:06Z</time>
      </trkpt>
      <trkpt lat="57.51778" lon="-5.64833">
        <ele>10.02</ele>
        <time>2021-03-20T21:24:10Z</time>
      </trkpt>
      <trkpt lat="57.51882" lon="-5.64857">
        <ele>10.98</ele>
        <time>2021-03-20T21:24:13Z</time>
      </trkpt>
      <trkpt lat="57.51905" lon="-5.64858">
        <ele>13.43</ele>
        <time>2021-03-20T21:24:17Z</time>
      </trkpt>
      <trkpt lat="57.5193" lon="-5.64854">
        <ele>16.93</ele>
        <time>2021-03-20T21:24:20Z</time>
      </trkpt>
      <trkpt lat="57.51952" lon="-5.64838">
        <ele>21.6</ele>
        <time>2021-03-20T21:24:24Z</time>
      </trkpt>
      <trkpt lat="57.5198" lon="-5.64808">
        <ele>24.27</ele>
        <time>2021-03-20T21:24:27Z</time>
      </trkpt>
      <trkpt lat="57.52004" lon="-5.64764">
        <ele>24.6</ele>
        <time>2021-03-20T21:24:31Z</time>
      </trkpt>
      <trkpt lat="57.52029" lon="-5.64702">
        <ele>25.62</ele>
        <time>2021-03-20T21:24:34Z</time>
      </trkpt>
      <trkpt lat="57.52062" lon="-5.64614">
        <ele>26.44</ele>
        <time>2021-03-20T21:24:38Z</time>
      </trkpt>
      <trkpt lat="57.52081" lon="-5.64578">
        <ele>25.42</ele>
        <time>2021-03-20T21:24:41Z</time>
      </trkpt>
      <trkpt lat="57.52099" lon="-5.64554">
        <ele>25.56</ele>
        <time>2021-03-20T21:24:45Z</time>
      </trkpt>
      <trkpt lat="57.52122" lon="-5.64534">
        <ele>26.98</ele>
        <time>2021-03-20T21:24:48Z</time>
      </trkpt>
      <trkpt lat="57.52145" lon="-5.64525">
        <ele>28.03</ele>
        <time>2021-03-20T21:24:51Z</time>
      </trkpt>
      <trkpt lat="57.52163" lon="-5.64523">
        <ele>27.6</ele>
        <time>2021-03-20T21:24:55Z</time>
      </trkpt>
      <trkpt lat="57.52185" lon="-5.64529">
        <ele>27.53</ele>
        <time>2021-03-20T21:24:58Z</time>
      </trkpt>
      <trkpt lat="57.52225" lon="-5.64549">
        <ele>25.85</ele>
        <time>2021-03-20T21:25:02Z</time>
      </trkpt>
      <trkpt lat="57.52298" lon="-5.64592">
        <ele>23.61</ele>
        <time>2021-03-20T21:25:05Z</time>
      </trkpt>
      <trkpt lat="57.52324" lon="-5.64598">
        <ele>22.93</ele>
        <time>2021-03-20T21:25:09Z</time>
      </trkpt>
      <trkpt lat="57.52346" lon="-5.64597">
        <ele>22.75</ele>
        <time>2021-03-20T21:25:12Z</time>
      </trkpt>
      <trkpt lat="57.52374" lon="-5.6459">
        <ele>21.94</ele>
        <time>2021-03-20T21:25:16Z</time>
      </trkpt>
      <trkpt lat="57.52397" lon="-5.64575">
        <ele>21.28</ele>
        <time>2021-03-20T21:25:19Z</time>
      </trkpt>
      <trkpt lat="57.52427" lon="-5.64542">
        <ele>22</ele>
        <time>2021-03-20T21:25:23Z</time>
      </trkpt>
      <trkpt lat="57.52534" lon="-5.64382">
        <ele>28.67</ele>
        <time>2021-03-20T21:25:26Z</time>
      </trkpt>
      <trkpt lat="57.52556" lon="-5.64325">
        <ele>30.01</ele>
        <time>2021-03-20T21:25:30Z</time>
      </trkpt>
      <trkpt lat="57.52578" lon="-5.64225">
        <ele>31.55</ele>
        <time>2021-03-20T21:25:33Z</time>
      </trkpt>
      <trkpt lat="57.52604" lon="-5.64002">
        <ele>35.26</ele>
        <time>2021-03-20T21:25:37Z</time>
      </trkpt>
      <trkpt lat="57.52606" lon="-5.63936">
        <ele>34.61</ele>
        <time>2021-03-20T21:25:40Z</time>
      </trkpt>
      <trkpt lat="57.52597" lon="-5.63849">
        <ele>33.78</ele>
        <time>2021-03-20T21:25:44Z</time>
      </trkpt>
      <trkpt lat="57.52578" lon="-5.63783">
        <ele>32.87</ele>
        <time>2021-03-20T21:25:47Z</time>
      </trkpt>
      <trkpt lat="57.52547" lon="-5.63684">
        <ele>26.93</ele>
        <time>2021-03-20T21:25:51Z</time>
      </trkpt>
      <trkpt lat="57.52457" lon="-5.63457">
        <ele>24.25</ele>
        <time>2021-03-20T21:25:54Z</time>
      </trkpt>
      <trkpt lat="57.52435" lon="-5.6342">
        <ele>23.16</ele>
        <time>2021-03-20T21:25:58Z</time>
      </trkpt>
      <trkpt lat="57.52412" lon="-5.634">
        <ele>21.26</ele>
        <time>2021-03-20T21:26:01Z</time>
      </trkpt>
      <trkpt lat="57.52355" lon="-5.6339">
        <ele>20.91</ele>
        <time>2021-03-20T21:26:05Z</time>
      </trkpt>
      <trkpt lat="57.523" lon="-5.63393">
        <ele>16.98</ele>
        <time>2021-03-20T21:26:08Z</time>
      </trkpt>
      <trkpt lat="57.5227" lon="-5.63381">
        <ele>15.27</ele>
        <time>2021-03-20T21:26:12Z</time>
      </trkpt>
      <trkpt lat="57.52243" lon="-5.63354">
        <ele>17.82</ele>
        <time>2021-03-20T21:26:15Z</time>
      </trkpt>
      <trkpt lat="57.52215" lon="-5.63294">
        <ele>24.11</ele>
        <time>2021-03-20T21:26:19Z</time>
      </trkpt>
      <trkpt lat="57.52195" lon="-5.63201">
        <ele>25.26</ele>
        <time>2021-03-20T21:26:22Z</time>
      </trkpt>
      <trkpt lat="57.52181" lon="-5.63084">
        <ele>25.99</ele>
        <time>2021-03-20T21:26:26Z</time>
      </trkpt>
      <trkpt lat="57.5218" lon="-5.62982">
        <ele>24.24</ele>
        <time>2021-03-20T21:26:29Z</time>
      </trkpt>
      <trkpt lat="57.52184" lon="-5.62738">
        <ele>17.26</ele>
        <time>2021-03-20T21:26:33Z</time>
      </trkpt>
      <trkpt lat="57.52175" lon="-5.62646">
        <ele>16.36</ele>
        <time>2021-03-20T21:26:36Z</time>
      </trkpt>
      <trkpt lat="57.52166" lon="-5.62564">
        <ele>14.73</ele>
        <time>2021-03-20T21:26:40Z</time>
      </trkpt>
      <trkpt lat="57.52149" lon="-5.62444">
        <ele>13.75</ele>
        <time>2021-03-20T21:26:43Z</time>
      </trkpt>
      <trkpt lat="57.52134" lon="-5.62375">
        <ele>14.89</ele>
        <time>2021-03-20T21:26:46Z</time>
      </trkpt>
      <trkpt lat="57.52082" lon="-5.62211">
        <ele>18.99</ele>
        <time>2021-03-20T21:26:50Z</time>
      </trkpt>
      <trkpt lat="57.52067" lon="-5.62132">
        <ele>18.43</ele>
        <time>2021-03-20T21:26:53Z</time>
      </trkpt>
      <trkpt lat="57.52063" lon="-5.62091">
        <ele>17.27</ele>
        <time>2021-03-20T21:26:57Z</time>
      </trkpt>
      <trkpt lat="57.52066" lon="-5.6204">
        <ele>13.75</ele>
        <time>2021-03-20T21:27:00Z</time>
      </trkpt>
      <trkpt lat="57.52076" lon="-5.61986">
        <ele>11.72</ele>
        <time>2021-03-20T21:27:04Z</time>
      </trkpt>
      <trkpt lat="57.52089" lon="-5.61953">
        <ele>12.24</ele>
        <time>2021-03-20T21:27:07Z</time>
      </trkpt>
      <trkpt lat="57.52122" lon="-5.61896">
        <ele>14.76</ele>
        <time>2021-03-20T21:27:11Z</time>
      </trkpt>
      <trkpt lat="57.52155" lon="-5.61843">
        <ele>14.92</ele>
        <time>2021-03-20T21:27:14Z</time>
      </trkpt>
      <trkpt lat="57.522" lon="-5.6179">
        <ele>15.86</ele>
        <time>2021-03-20T21:27:18Z</time>
      </trkpt>
      <trkpt lat="57.52316" lon="-5.61715">
        <ele>22.57</ele>
        <time>2021-03-20T21:27:21Z</time>
      </trkpt>
      <trkpt lat="57.52427" lon="-5.61605">
        <ele>29.5</ele>
        <time>2021-03-20T21:27:25Z</time>
      </trkpt>
      <trkpt lat="57.52541" lon="-5.61525">
        <ele>30.37</ele>
        <time>2021-03-20T21:27:28Z</time>
      </trkpt>
      <trkpt lat="57.52678" lon="-5.6137">
        <ele>31.89</ele>
        <time>2021-03-20T21:27:32Z</time>
      </trkpt>
      <trkpt lat="57.52849" lon="-5.61231">
        <ele>36.47</ele>
        <time>2021-03-20T21:27:35Z</time>
      </trkpt>
      <trkpt lat="57.52885" lon="-5.61185">
        <ele>37.45</ele>
        <time>2021-03-20T21:27:39Z</time>
      </trkpt>
      <trkpt lat="57.52965" lon="-5.61038">
        <ele>39.1</ele>
        <time>2021-03-20T21:27:42Z</time>
      </trkpt>
      <trkpt lat="57.52992" lon="-5.61">
        <ele>39.2</ele>
        <time>2021-03-20T21:27:46Z</time>
      </trkpt>
      <trkpt lat="57.53045" lon="-5.60952">
        <ele>37.96</ele>
        <time>2021-03-20T21:27:49Z</time>
      </trkpt>
      <trkpt lat="57.53102" lon="-5.60905">
        <ele>38.03</ele>
        <time>2021-03-20T21:27:53Z</time>
      </trkpt>
      <trkpt lat="57.53126" lon="-5.60873">
        <ele>38.76</ele>
        <time>2021-03-20T21:27:56Z</time>
      </trkpt>
      <trkpt lat="57.53149" lon="-5.60811">
        <ele>39.77</ele>
        <time>2021-03-20T21:28:00Z</time>
      </trkpt>
      <trkpt lat="57.53156" lon="-5.6076">
        <ele>39.7</ele>
        <time>2021-03-20T21:28:03Z</time>
      </trkpt>
      <trkpt lat="57.53156" lon="-5.60689">
        <ele>38.06</ele>
        <time>2021-03-20T21:28:07Z</time>
      </trkpt>
      <trkpt lat="57.53147" lon="-5.60645">
        <ele>37.94</ele>
        <time>2021-03-20T21:28:10Z</time>
      </trkpt>
      <trkpt lat="57.53123" lon="-5.60586">
        <ele>39.33</ele>
        <time>2021-03-20T21:28:14Z</time>
      </trkpt>
      <trkpt lat="57.53101" lon="-5.60553">
        <ele>39.06</ele>
        <time>2021-03-20T21:28:17Z</time>
      </trkpt>
      <trkpt lat="57.53031" lon="-5.60468">
        <ele>35.5</ele>
        <time>2021-03-20T21:28:21Z</time>
      </trkpt>
      <trkpt lat="57.52963" lon="-5.60313">
        <ele>30.31</ele>
        <time>2021-03-20T21:28:24Z</time>
      </trkpt>
      <trkpt lat="57.52938" lon="-5.60268">
        <ele>28.78</ele>
        <time>2021-03-20T21:28:28Z</time>
      </trkpt>
      <trkpt lat="57.52813" lon="-5.60112">
        <ele>20.04</ele>
        <time>2021-03-20T21:28:31Z</time>
      </trkpt>
      <trkpt lat="57.52788" lon="-5.6007">
        <ele>17.74</ele>
        <time>2021-03-20T21:28:35Z</time>
      </trkpt>
      <trkpt lat="57.52775" lon="-5.60035">
        <ele>15.14</ele>
        <time>2021-03-20T21:28:38Z</time>
      </trkpt>
      <trkpt lat="57.52763" lon="-5.59982">
        <ele>11.83</ele>
        <time>2021-03-20T21:28:41Z</time>
      </trkpt>
      <trkpt lat="57.52758" lon="-5.59908">
        <ele>9.7</ele>
        <time>2021-03-20T21:28:45Z</time>
      </trkpt>
      <trkpt lat="57.52759" lon="-5.59651">
        <ele>11.31</ele>
        <time>2021-03-20T21:28:48Z</time>
      </trkpt>
      <trkpt lat="57.52754" lon="-5.59573">
        <ele>12.67</ele>
        <time>2021-03-20T21:28:52Z</time>
      </trkpt>
      <trkpt lat="57.52743" lon="-5.59512">
        <ele>15.5</ele>
        <time>2021-03-20T21:28:55Z</time>
      </trkpt>
      <trkpt lat="57.52731" lon="-5.59464">
        <ele>16.79</ele>
        <time>2021-03-20T21:28:59Z</time>
      </trkpt>
      <trkpt lat="57.52633" lon="-5.59158">
        <ele>18.79</ele>
        <time>2021-03-20T21:29:02Z</time>
      </trkpt>
      <trkpt lat="57.52608" lon="-5.59067">
        <ele>20.02</ele>
        <time>2021-03-20T21:29:06Z</time>
      </trkpt>
      <trkpt lat="57.52599" lon="-5.59001">
        <ele>22.57</ele>
        <time>2021-03-20T21:29:09Z</time>
      </trkpt>
      <trkpt lat="57.526" lon="-5.5893">
        <ele>25.92</ele>
        <time>2021-03-20T21:29:13Z</time>
      </trkpt>
      <trkpt lat="57.52638" lon="-5.58665">
        <ele>37</ele>
        <time>2021-03-20T21:29:16Z</time>
      </trkpt>
      <trkpt lat="57.52634" lon="-5.58409">
        <ele>45.29</ele>
        <time>2021-03-20T21:29:20Z</time>
      </trkpt>
      <trkpt lat="57.52635" lon="-5.58326">
        <ele>46.62</ele>
        <time>2021-03-20T21:29:23Z</time>
      </trkpt>
      <trkpt lat="57.52647" lon="-5.58255">
        <ele>47</ele>
        <time>2021-03-20T21:29:27Z</time>
      </trkpt>
      <trkpt lat="57.52683" lon="-5.58079">
        <ele>48.02</ele>
        <time>2021-03-20T21:29:30Z</time>
      </trkpt>
      <trkpt lat="57.5269" lon="-5.58026">
        <ele>48.56</ele>
        <time>2021-03-20T21:29:34Z</time>
      </trkpt>
      <trkpt lat="57.52709" lon="-5.5769">
        <ele>59.93</ele>
        <time>2021-03-20T21:29:37Z</time>
      </trkpt>
      <trkpt lat="57.52705" lon="-5.57558">
        <ele>65.03</ele>
        <time>2021-03-20T21:29:41Z</time>
      </trkpt>
      <trkpt lat="57.52691" lon="-5.5741">
        <ele>67.25</ele>
        <time>2021-03-20T21:29:44Z</time>
      </trkpt>
      <trkpt lat="57.5269" lon="-5.57267">
        <ele>69.51</ele>
        <time>2021-03-20T21:29:48Z</time>
      </trkpt>
      <trkpt lat="57.52684" lon="-5.57128">
        <ele>80.9</ele>
        <time>2021-03-20T21:29:51Z</time>
      </trkpt>
      <trkpt lat="57.52673" lon="-5.56995">
        <ele>87.75</ele>
        <time>2021-03-20T21:29:55Z</time>
      </trkpt>
      <trkpt lat="57.52677" lon="-5.56927">
        <ele>90.71</ele>
        <time>2021-03-20T21:29:58Z</time>
      </trkpt>
      <trkpt lat="57.52699" lon="-5.56833">
        <ele>97.03</ele>
        <time>2021-03-20T21:30:02Z</time>
      </trkpt>
      <trkpt lat="57.5275" lon="-5.56679">
        <ele>103.56</ele>
        <time>2021-03-20T21:30:05Z</time>
      </trkpt>
      <trkpt lat="57.52762" lon="-5.56622">
        <ele>101.6</ele>
        <time>2021-03-20T21:30:09Z</time>
      </trkpt>
      <trkpt lat="57.52766" lon="-5.56565">
        <ele>100.65</ele>
        <time>2021-03-20T21:30:12Z</time>
      </trkpt>
      <trkpt lat="57.52765" lon="-5.56516">
        <ele>101.67</ele>
        <time>2021-03-20T21:30:16Z</time>
      </trkpt>
      <trkpt lat="57.52761" lon="-5.56464">
        <ele>102.96</ele>
        <time>2021-03-20T21:30:19Z</time>
      </trkpt>
      <trkpt lat="57.5274" lon="-5.56306">
        <ele>104.73</ele>
        <time>2021-03-20T21:30:23Z</time>
      </trkpt>
      <trkpt lat="57.52725" lon="-5.56165">
        <ele>105.66</ele>
        <time>2021-03-20T21:30:26Z</time>
      </trkpt>
      <trkpt lat="57.52723" lon="-5.56088">
        <ele>105.79</ele>
        <time>2021-03-20T21:30:30Z</time>
      </trkpt>
      <trkpt lat="57.52725" lon="-5.56054">
        <ele>104.63</ele>
        <time>2021-03-20T21:30:33Z</time>
      </trkpt>
      <trkpt lat="57.52729" lon="-5.56011">
        <ele>104.64</ele>
        <time>2021-03-20T21:30:36Z</time>
      </trkpt>
      <trkpt lat="57.52735" lon="-5.5597">
        <ele>106.35</ele>
        <time>2021-03-20T21:30:40Z</time>
      </trkpt>
      <trkpt lat="57.52745" lon="-5.55921">
        <ele>108.89</ele>
        <time>2021-03-20T21:30:43Z</time>
      </trkpt>
      <trkpt lat="57.52774" lon="-5.55793">
        <ele>114.29</ele>
        <time>2021-03-20T21:30:47Z</time>
      </trkpt>
      <trkpt lat="57.52782" lon="-5.55752">
        <ele>115.5</ele>
        <time>2021-03-20T21:30:50Z</time>
      </trkpt>
      <trkpt lat="57.52791" lon="-5.55669">
        <ele>116.58</ele>
        <time>2021-03-20T21:30:54Z</time>
      </trkpt>
      <trkpt lat="57.52799" lon="-5.55488">
        <ele>116.56</ele>
        <time>2021-03-20T21:30:57Z</time>
      </trkpt>
      <trkpt lat="57.52806" lon="-5.55432">
        <ele>114.03</ele>
        <time>2021-03-20T21:31:01Z</time>
      </trkpt>
      <trkpt lat="57.5281" lon="-5.55406">
        <ele>113.75</ele>
        <time>2021-03-20T21:31:04Z</time>
      </trkpt>
      <trkpt lat="57.52818" lon="-5.55376">
        <ele>112.99</ele>
        <time>2021-03-20T21:31:08Z</time>
      </trkpt>
      <trkpt lat="57.52859" lon="-5.55252">
        <ele>105.54</ele>
        <time>2021-03-20T21:31:11Z</time>
      </trkpt>
      <trkpt lat="57.52873" lon="-5.55191">
        <ele>104.83</ele>
        <time>2021-03-20T21:31:15Z</time>
      </trkpt>
      <trkpt lat="57.52881" lon="-5.55125">
        <ele>106.8</ele>
        <time>2021-03-20T21:31:18Z</time>
      </trkpt>
      <trkpt lat="57.52883" lon="-5.55076">
        <ele>108.47</ele>
        <time>2021-03-20T21:31:22Z</time>
      </trkpt>
      <trkpt lat="57.52877" lon="-5.55022">
        <ele>109</ele>
        <time>2021-03-20T21:31:25Z</time>
      </trkpt>
      <trkpt lat="57.52872" lon="-5.54992">
        <ele>108.92</ele>
        <time>2021-03-20T21:31:29Z</time>
      </trkpt>
      <trkpt lat="57.52864" lon="-5.54958">
        <ele>108.63</ele>
        <time>2021-03-20T21:31:32Z</time>
      </trkpt>
      <trkpt lat="57.52848" lon="-5.54907">
        <ele>107.5</ele>
        <time>2021-03-20T21:31:36Z</time>
      </trkpt>
      <trkpt lat="57.52775" lon="-5.54711">
        <ele>102.58</ele>
        <time>2021-03-20T21:31:39Z</time>
      </trkpt>
      <trkpt lat="57.52765" lon="-5.54648">
        <ele>99.58</ele>
        <time>2021-03-20T21:31:43Z</time>
      </trkpt>
      <trkpt lat="57.52761" lon="-5.54587">
        <ele>95.68</ele>
        <time>2021-03-20T21:31:46Z</time>
      </trkpt>
      <trkpt lat="57.52764" lon="-5.54526">
        <ele>91.38</ele>
        <time>2021-03-20T21:31:50Z</time>
      </trkpt>
      <trkpt lat="57.52781" lon="-5.54397">
        <ele>84.13</ele>
        <time>2021-03-20T21:31:53Z</time>
      </trkpt>
      <trkpt lat="57.52784" lon="-5.5435">
        <ele>81.58</ele>
        <time>2021-03-20T21:31:57Z</time>
      </trkpt>
      <trkpt lat="57.52784" lon="-5.54301">
        <ele>79.51</ele>
        <time>2021-03-20T21:32:00Z</time>
      </trkpt>
      <trkpt lat="57.52762" lon="-5.54049">
        <ele>73.71</ele>
        <time>2021-03-20T21:32:04Z</time>
      </trkpt>
      <trkpt lat="57.5276" lon="-5.54002">
        <ele>70.9</ele>
        <time>2021-03-20T21:32:07Z</time>
      </trkpt>
      <trkpt lat="57.52769" lon="-5.53656">
        <ele>55.46</ele>
        <time>2021-03-20T21:32:11Z</time>
      </trkpt>
      <trkpt lat="57.52774" lon="-5.53499">
        <ele>54.72</ele>
        <time>2021-03-20T21:32:14Z</time>
      </trkpt>
      <trkpt lat="57.52787" lon="-5.53366">
        <ele>51.99</ele>
        <time>2021-03-20T21:32:18Z</time>
      </trkpt>
      <trkpt lat="57.52806" lon="-5.53232">
        <ele>45.26</ele>
        <time>2021-03-20T21:32:21Z</time>
      </trkpt>
      <trkpt lat="57.52807" lon="-5.5318">
        <ele>42.62</ele>
        <time>2021-03-20T21:32:25Z</time>
      </trkpt>
      <trkpt lat="57.52803" lon="-5.5313">
        <ele>42.28</ele>
        <time>2021-03-20T21:32:28Z</time>
      </trkpt>
      <trkpt lat="57.5279" lon="-5.53083">
        <ele>43.89</ele>
        <time>2021-03-20T21:32:31Z</time>
      </trkpt>
      <trkpt lat="57.52732" lon="-5.52966">
        <ele>39.21</ele>
        <time>2021-03-20T21:32:35Z</time>
      </trkpt>
      <trkpt lat="57.52714" lon="-5.52905">
        <ele>31.45</ele>
        <time>2021-03-20T21:32:38Z</time>
      </trkpt>
      <trkpt lat="57.52706" lon="-5.52855">
        <ele>28.94</ele>
        <time>2021-03-20T21:32:42Z</time>
      </trkpt>
      <trkpt lat="57.52706" lon="-5.52797">
        <ele>28.36</ele>
        <time>2021-03-20T21:32:45Z</time>
      </trkpt>
      <trkpt lat="57.52713" lon="-5.52737">
        <ele>28.12</ele>
        <time>2021-03-20T21:32:49Z</time>
      </trkpt>
      <trkpt lat="57.52732" lon="-5.52685">
        <ele>25.63</ele>
        <time>2021-03-20T21:32:52Z</time>
      </trkpt>
      <trkpt lat="57.52757" lon="-5.52643">
        <ele>22.64</ele>
        <time>2021-03-20T21:32:56Z</time>
      </trkpt>
      <trkpt lat="57.52808" lon="-5.52584">
        <ele>16.68</ele>
        <time>2021-03-20T21:32:59Z</time>
      </trkpt>
      <trkpt lat="57.52885" lon="-5.5252">
        <ele>12.73</ele>
        <time>2021-03-20T21:33:03Z</time>
      </trkpt>
      <trkpt lat="57.52919" lon="-5.52486">
        <ele>14.95</ele>
        <time>2021-03-20T21:33:06Z</time>
      </trkpt>
      <trkpt lat="57.5294" lon="-5.52455">
        <ele>17.26</ele>
        <time>2021-03-20T21:33:10Z</time>
      </trkpt>
      <trkpt lat="57.52967" lon="-5.52397">
        <ele>16.37</ele>
        <time>2021-03-20T21:33:13Z</time>
      </trkpt>
      <trkpt lat="57.53071" lon="-5.52046">
        <ele>21.32</ele>
        <time>2021-03-20T21:33:17Z</time>
      </trkpt>
      <trkpt lat="57.53099" lon="-5.5196">
        <ele>15.13</ele>
        <time>2021-03-20T21:33:20Z</time>
      </trkpt>
      <trkpt lat="57.53122" lon="-5.51911">
        <ele>6.84</ele>
        <time>2021-03-20T21:33:24Z</time>
      </trkpt>
      <trkpt lat="57.53187" lon="-5.51797">
        <ele>4.87</ele>
        <time>2021-03-20T21:33:27Z</time>
      </trkpt>
      <trkpt lat="57.53205" lon="-5.51752">
        <ele>5.22</ele>
        <time>2021-03-20T21:33:31Z</time>
      </trkpt>
      <trkpt lat="57.53219" lon="-5.517">
        <ele>5.1</ele>
        <time>2021-03-20T21:33:34Z</time>
      </trkpt>
      <trkpt lat="57.53256" lon="-5.51527">
        <ele>3.81</ele>
        <time>2021-03-20T21:33:38Z</time>
      </trkpt>
      <trkpt lat="57.5327" lon="-5.51491">
        <ele>4.61</ele>
        <time>2021-03-20T21:33:41Z</time>
      </trkpt>
      <trkpt lat="57.53315" lon="-5.51393">
        <ele>6.16</ele>
        <time>2021-03-20T21:33:45Z</time>
      </trkpt>
      <trkpt lat="57.53349" lon="-5.51315">
        <ele>5.16</ele>
        <time>2021-03-20T21:33:48Z</time>
      </trkpt>
      <trkpt lat="57.53364" lon="-5.51263">
        <ele>5</ele>
        <time>2021-03-20T21:33:52Z</time>
      </trkpt>
      <trkpt lat="57.53371" lon="-5.51201">
        <ele>5.66</ele>
        <time>2021-03-20T21:33:55Z</time>
      </trkpt>
      <trkpt lat="57.53372" lon="-5.5116">
        <ele>6.24</ele>
        <time>2021-03-20T21:33:59Z</time>
      </trkpt>
      <trkpt lat="57.53363" lon="-5.51049">
        <ele>9.02</ele>
        <time>2021-03-20T21:34:02Z</time>
      </trkpt>
      <trkpt lat="57.53352" lon="-5.50939">
        <ele>15.04</ele>
        <time>2021-03-20T21:34:06Z</time>
      </trkpt>
      <trkpt lat="57.5335" lon="-5.50884">
        <ele>15.19</ele>
        <time>2021-03-20T21:34:09Z</time>
      </trkpt>
      <trkpt lat="57.53354" lon="-5.50839">
        <ele>14.79</ele>
        <time>2021-03-20T21:34:13Z</time>
      </trkpt>
      <trkpt lat="57.53364" lon="-5.50783">
        <ele>13.6</ele>
        <time>2021-03-20T21:34:16Z</time>
      </trkpt>
      <trkpt lat="57.53383" lon="-5.5074">
        <ele>10.59</ele>
        <time>2021-03-20T21:34:20Z</time>
      </trkpt>
      <trkpt lat="57.53403" lon="-5.50708">
        <ele>9.23</ele>
        <time>2021-03-20T21:34:23Z</time>
      </trkpt>
      <trkpt lat="57.53415" lon="-5.50694">
        <ele>9.07</ele>
        <time>2021-03-20T21:34:27Z</time>
      </trkpt>
      <trkpt lat="57.53446" lon="-5.50673">
        <ele>10.52</ele>
        <time>2021-03-20T21:34:30Z</time>
      </trkpt>
      <trkpt lat="57.53537" lon="-5.50649">
        <ele>10.41</ele>
        <time>2021-03-20T21:34:33Z</time>
      </trkpt>
      <trkpt lat="57.53558" lon="-5.50637">
        <ele>11.04</ele>
        <time>2021-03-20T21:34:37Z</time>
      </trkpt>
      <trkpt lat="57.53661" lon="-5.50541">
        <ele>7.2</ele>
        <time>2021-03-20T21:34:40Z</time>
      </trkpt>
      <trkpt lat="57.53695" lon="-5.50524">
        <ele>8</ele>
        <time>2021-03-20T21:34:44Z</time>
      </trkpt>
      <trkpt lat="57.53835" lon="-5.50482">
        <ele>9.04</ele>
        <time>2021-03-20T21:34:47Z</time>
      </trkpt>
      <trkpt lat="57.54156" lon="-5.5035">
        <ele>9.63</ele>
        <time>2021-03-20T21:34:51Z</time>
      </trkpt>
      <trkpt lat="57.54195" lon="-5.50331">
        <ele>10</ele>
        <time>2021-03-20T21:34:54Z</time>
      </trkpt>
      <trkpt lat="57.54218" lon="-5.50315">
        <ele>10</ele>
        <time>2021-03-20T21:34:58Z</time>
      </trkpt>
      <trkpt lat="57.54235" lon="-5.50295">
        <ele>10.37</ele>
        <time>2021-03-20T21:35:01Z</time>
      </trkpt>
      <trkpt lat="57.54253" lon="-5.50266">
        <ele>11.18</ele>
        <time>2021-03-20T21:35:05Z</time>
      </trkpt>
      <trkpt lat="57.54262" lon="-5.5024">
        <ele>12.09</ele>
        <time>2021-03-20T21:35:08Z</time>
      </trkpt>
      <trkpt lat="57.54271" lon="-5.50211">
        <ele>12.74</ele>
        <time>2021-03-20T21:35:12Z</time>
      </trkpt>
      <trkpt lat="57.54276" lon="-5.50174">
        <ele>12.93</ele>
        <time>2021-03-20T21:35:15Z</time>
      </trkpt>
      <trkpt lat="57.54279" lon="-5.50124">
        <ele>13</ele>
        <time>2021-03-20T21:35:19Z</time>
      </trkpt>
      <trkpt lat="57.54278" lon="-5.50106">
        <ele>13</ele>
        <time>2021-03-20T21:35:22Z</time>
      </trkpt>
      <trkpt lat="57.54263" lon="-5.50024">
        <ele>13.58</ele>
        <time>2021-03-20T21:35:26Z</time>
      </trkpt>
      <trkpt lat="57.5419" lon="-5.49804">
        <ele>13.06</ele>
        <time>2021-03-20T21:35:29Z</time>
      </trkpt>
      <trkpt lat="57.5417" lon="-5.49722">
        <ele>15</ele>
        <time>2021-03-20T21:35:33Z</time>
      </trkpt>
      <trkpt lat="57.54149" lon="-5.49609">
        <ele>15.03</ele>
        <time>2021-03-20T21:35:36Z</time>
      </trkpt>
      <trkpt lat="57.54146" lon="-5.49587">
        <ele>15.21</ele>
        <time>2021-03-20T21:35:40Z</time>
      </trkpt>
      <trkpt lat="57.54114" lon="-5.49239">
        <ele>19.25</ele>
        <time>2021-03-20T21:35:43Z</time>
      </trkpt>
      <trkpt lat="57.54105" lon="-5.49187">
        <ele>20</ele>
        <time>2021-03-20T21:35:47Z</time>
      </trkpt>
      <trkpt lat="57.54076" lon="-5.49052">
        <ele>19.53</ele>
        <time>2021-03-20T21:35:50Z</time>
      </trkpt>
      <trkpt lat="57.54053" lon="-5.48904">
        <ele>22.65</ele>
        <time>2021-03-20T21:35:54Z</time>
      </trkpt>
      <trkpt lat="57.54043" lon="-5.48799">
        <ele>21</ele>
        <time>2021-03-20T21:35:57Z</time>
      </trkpt>
      <trkpt lat="57.54048" lon="-5.48663">
        <ele>23.49</ele>
        <time>2021-03-20T21:36:01Z</time>
      </trkpt>
      <trkpt lat="57.54052" lon="-5.48629">
        <ele>23.75</ele>
        <time>2021-03-20T21:36:04Z</time>
      </trkpt>
      <trkpt lat="57.54065" lon="-5.48543">
        <ele>23.94</ele>
        <time>2021-03-20T21:36:08Z</time>
      </trkpt>
      <trkpt lat="57.54095" lon="-5.48394">
        <ele>28.15</ele>
        <time>2021-03-20T21:36:11Z</time>
      </trkpt>
      <trkpt lat="57.54148" lon="-5.4819">
        <ele>27.42</ele>
        <time>2021-03-20T21:36:15Z</time>
      </trkpt>
      <trkpt lat="57.54282" lon="-5.47859">
        <ele>31.07</ele>
        <time>2021-03-20T21:36:18Z</time>
      </trkpt>
      <trkpt lat="57.54304" lon="-5.4779">
        <ele>30.92</ele>
        <time>2021-03-20T21:36:22Z</time>
      </trkpt>
      <trkpt lat="57.54314" lon="-5.4771">
        <ele>32.58</ele>
        <time>2021-03-20T21:36:25Z</time>
      </trkpt>
      <trkpt lat="57.54318" lon="-5.47618">
        <ele>32.47</ele>
        <time>2021-03-20T21:36:28Z</time>
      </trkpt>
      <trkpt lat="57.54343" lon="-5.47554">
        <ele>34.66</ele>
        <time>2021-03-20T21:36:32Z</time>
      </trkpt>
      <trkpt lat="57.54385" lon="-5.47503">
        <ele>35.1</ele>
        <time>2021-03-20T21:36:35Z</time>
      </trkpt>
      <trkpt lat="57.54436" lon="-5.47455">
        <ele>35.73</ele>
        <time>2021-03-20T21:36:39Z</time>
      </trkpt>
      <trkpt lat="57.54471" lon="-5.47428">
        <ele>36.92</ele>
        <time>2021-03-20T21:36:42Z</time>
      </trkpt>
      <trkpt lat="57.54501" lon="-5.47387">
        <ele>38.06</ele>
        <time>2021-03-20T21:36:46Z</time>
      </trkpt>
      <trkpt lat="57.54545" lon="-5.47297">
        <ele>40.92</ele>
        <time>2021-03-20T21:36:49Z</time>
      </trkpt>
      <trkpt lat="57.54612" lon="-5.47142">
        <ele>43.21</ele>
        <time>2021-03-20T21:36:53Z</time>
      </trkpt>
      <trkpt lat="57.5468" lon="-5.46965">
        <ele>44.71</ele>
        <time>2021-03-20T21:36:56Z</time>
      </trkpt>
      <trkpt lat="57.5479" lon="-5.46611">
        <ele>51.85</ele>
        <time>2021-03-20T21:37:00Z</time>
      </trkpt>
      <trkpt lat="57.54851" lon="-5.46424">
        <ele>54.64</ele>
        <time>2021-03-20T21:37:03Z</time>
      </trkpt>
      <trkpt lat="57.54912" lon="-5.46271">
        <ele>56.85</ele>
        <time>2021-03-20T21:37:07Z</time>
      </trkpt>
      <trkpt lat="57.55011" lon="-5.46076">
        <ele>63.42</ele>
        <time>2021-03-20T21:37:10Z</time>
      </trkpt>
      <trkpt lat="57.55047" lon="-5.46014">
        <ele>61.63</ele>
        <time>2021-03-20T21:37:14Z</time>
      </trkpt>
      <trkpt lat="57.55066" lon="-5.45991">
        <ele>61.71</ele>
        <time>2021-03-20T21:37:17Z</time>
      </trkpt>
      <trkpt lat="57.55183" lon="-5.45896">
        <ele>62.88</ele>
        <time>2021-03-20T21:37:21Z</time>
      </trkpt>
      <trkpt lat="57.55206" lon="-5.45873">
        <ele>61.45</ele>
        <time>2021-03-20T21:37:24Z</time>
      </trkpt>
      <trkpt lat="57.55229" lon="-5.45832">
        <ele>58.14</ele>
        <time>2021-03-20T21:37:28Z</time>
      </trkpt>
      <trkpt lat="57.55242" lon="-5.45776">
        <ele>57.4</ele>
        <time>2021-03-20T21:37:31Z</time>
      </trkpt>
      <trkpt lat="57.55262" lon="-5.45623">
        <ele>57.28</ele>
        <time>2021-03-20T21:37:35Z</time>
      </trkpt>
      <trkpt lat="57.55297" lon="-5.4544">
        <ele>58.79</ele>
        <time>2021-03-20T21:37:38Z</time>
      </trkpt>
      <trkpt lat="57.55298" lon="-5.45405">
        <ele>58.44</ele>
        <time>2021-03-20T21:37:42Z</time>
      </trkpt>
      <trkpt lat="57.55293" lon="-5.45379">
        <ele>57.14</ele>
        <time>2021-03-20T21:37:45Z</time>
      </trkpt>
      <trkpt lat="57.55274" lon="-5.45318">
        <ele>55.69</ele>
        <time>2021-03-20T21:37:49Z</time>
      </trkpt>
      <trkpt lat="57.55268" lon="-5.45291">
        <ele>55.51</ele>
        <time>2021-03-20T21:37:52Z</time>
      </trkpt>
      <trkpt lat="57.55267" lon="-5.45259">
        <ele>55.99</ele>
        <time>2021-03-20T21:37:56Z</time>
      </trkpt>
      <trkpt lat="57.55267" lon="-5.44983">
        <ele>59.87</ele>
        <time>2021-03-20T21:37:59Z</time>
      </trkpt>
      <trkpt lat="57.55266" lon="-5.44846">
        <ele>60.24</ele>
        <time>2021-03-20T21:38:03Z</time>
      </trkpt>
      <trkpt lat="57.55259" lon="-5.44698">
        <ele>62.97</ele>
        <time>2021-03-20T21:38:06Z</time>
      </trkpt>
      <trkpt lat="57.55259" lon="-5.44612">
        <ele>64.31</ele>
        <time>2021-03-20T21:38:10Z</time>
      </trkpt>
      <trkpt lat="57.55271" lon="-5.44355">
        <ele>63.67</ele>
        <time>2021-03-20T21:38:13Z</time>
      </trkpt>
      <trkpt lat="57.55274" lon="-5.44229">
        <ele>65.51</ele>
        <time>2021-03-20T21:38:17Z</time>
      </trkpt>
      <trkpt lat="57.55283" lon="-5.44155">
        <ele>65.03</ele>
        <time>2021-03-20T21:38:20Z</time>
      </trkpt>
      <trkpt lat="57.55302" lon="-5.44056">
        <ele>67.34</ele>
        <time>2021-03-20T21:38:23Z</time>
      </trkpt>
      <trkpt lat="57.55319" lon="-5.43949">
        <ele>67.21</ele>
        <time>2021-03-20T21:38:27Z</time>
      </trkpt>
      <trkpt lat="57.55333" lon="-5.43877">
        <ele>67.99</ele>
        <time>2021-03-20T21:38:30Z</time>
      </trkpt>
      <trkpt lat="57.55335" lon="-5.4384">
        <ele>68.22</ele>
        <time>2021-03-20T21:38:34Z</time>
      </trkpt>
      <trkpt lat="57.55335" lon="-5.4381">
        <ele>68.16</ele>
        <time>2021-03-20T21:38:37Z</time>
      </trkpt>
      <trkpt lat="57.55317" lon="-5.43724">
        <ele>68.79</ele>
        <time>2021-03-20T21:38:41Z</time>
      </trkpt>
      <trkpt lat="57.55315" lon="-5.43672">
        <ele>69.48</ele>
        <time>2021-03-20T21:38:44Z</time>
      </trkpt>
      <trkpt lat="57.55329" lon="-5.43591">
        <ele>70.68</ele>
        <time>2021-03-20T21:38:48Z</time>
      </trkpt>
      <trkpt lat="57.55347" lon="-5.43513">
        <ele>71.42</ele>
        <time>2021-03-20T21:38:51Z</time>
      </trkpt>
      <trkpt lat="57.55355" lon="-5.43448">
        <ele>72.37</ele>
        <time>2021-03-20T21:38:55Z</time>
      </trkpt>
      <trkpt lat="57.55358" lon="-5.43389">
        <ele>73.74</ele>
        <time>2021-03-20T21:38:58Z</time>
      </trkpt>
      <trkpt lat="57.55356" lon="-5.43302">
        <ele>73.47</ele>
        <time>2021-03-20T21:39:02Z</time>
      </trkpt>
      <trkpt lat="57.55325" lon="-5.43109">
        <ele>69.37</ele>
        <time>2021-03-20T21:39:05Z</time>
      </trkpt>
      <trkpt lat="57.55314" lon="-5.43015">
        <ele>70.08</ele>
        <time>2021-03-20T21:39:09Z</time>
      </trkpt>
      <trkpt lat="57.55307" lon="-5.42848">
        <ele>72.64</ele>
        <time>2021-03-20T21:39:12Z</time>
      </trkpt>
      <trkpt lat="57.55307" lon="-5.4278">
        <ele>74.15</ele>
        <time>2021-03-20T21:39:16Z</time>
      </trkpt>
      <trkpt lat="57.55311" lon="-5.42727">
        <ele>76.02</ele>
        <time>2021-03-20T21:39:19Z</time>
      </trkpt>
      <trkpt lat="57.55327" lon="-5.42656">
        <ele>78.5</ele>
        <time>2021-03-20T21:39:23Z</time>
      </trkpt>
      <trkpt lat="57.55351" lon="-5.42433">
        <ele>78.62</ele>
        <time>2021-03-20T21:39:26Z</time>
      </trkpt>
      <trkpt lat="57.55349" lon="-5.42372">
        <ele>78.57</ele>
        <time>2021-03-20T21:39:30Z</time>
      </trkpt>
      <trkpt lat="57.55344" lon="-5.42323">
        <ele>78</ele>
        <time>2021-03-20T21:39:33Z</time>
      </trkpt>
      <trkpt lat="57.55327" lon="-5.42242">
        <ele>79.87</ele>
        <time>2021-03-20T21:39:37Z</time>
      </trkpt>
      <trkpt lat="57.55304" lon="-5.42162">
        <ele>80.86</ele>
        <time>2021-03-20T21:39:40Z</time>
      </trkpt>
      <trkpt lat="57.55304" lon="-5.42129">
        <ele>80.89</ele>
        <time>2021-03-20T21:39:44Z</time>
      </trkpt>
      <trkpt lat="57.55333" lon="-5.42025">
        <ele>82.1</ele>
        <time>2021-03-20T21:39:47Z</time>
      </trkpt>
      <trkpt lat="57.55344" lon="-5.41967">
        <ele>84.01</ele>
        <time>2021-03-20T21:39:51Z</time>
      </trkpt>
      <trkpt lat="57.55344" lon="-5.4194">
        <ele>83.27</ele>
        <time>2021-03-20T21:39:54Z</time>
      </trkpt>
      <trkpt lat="57.5536" lon="-5.41886">
        <ele>83.83</ele>
        <time>2021-03-20T21:39:58Z</time>
      </trkpt>
      <trkpt lat="57.55393" lon="-5.41801">
        <ele>85.93</ele>
        <time>2021-03-20T21:40:01Z</time>
      </trkpt>
      <trkpt lat="57.55427" lon="-5.41675">
        <ele>85</ele>
        <time>2021-03-20T21:40:05Z</time>
      </trkpt>
      <trkpt lat="57.55456" lon="-5.41536">
        <ele>85</ele>
        <time>2021-03-20T21:40:08Z</time>
      </trkpt>
      <trkpt lat="57.5547" lon="-5.41518">
        <ele>84.97</ele>
        <time>2021-03-20T21:40:12Z</time>
      </trkpt>
      <trkpt lat="57.55512" lon="-5.41449">
        <ele>85.62</ele>
        <time>2021-03-20T21:40:15Z</time>
      </trkpt>
      <trkpt lat="57.55522" lon="-5.41426">
        <ele>85.26</ele>
        <time>2021-03-20T21:40:18Z</time>
      </trkpt>
      <trkpt lat="57.55564" lon="-5.41285">
        <ele>85.54</ele>
        <time>2021-03-20T21:40:22Z</time>
      </trkpt>
      <trkpt lat="57.55622" lon="-5.40963">
        <ele>87.38</ele>
        <time>2021-03-20T21:40:25Z</time>
      </trkpt>
      <trkpt lat="57.55652" lon="-5.40835">
        <ele>88.46</ele>
        <time>2021-03-20T21:40:29Z</time>
      </trkpt>
      <trkpt lat="57.55666" lon="-5.40762">
        <ele>88</ele>
        <time>2021-03-20T21:40:32Z</time>
      </trkpt>
      <trkpt lat="57.55672" lon="-5.4071">
        <ele>89</ele>
        <time>2021-03-20T21:40:36Z</time>
      </trkpt>
      <trkpt lat="57.55672" lon="-5.40667">
        <ele>89</ele>
        <time>2021-03-20T21:40:39Z</time>
      </trkpt>
      <trkpt lat="57.5567" lon="-5.40616">
        <ele>89</ele>
        <time>2021-03-20T21:40:43Z</time>
      </trkpt>
      <trkpt lat="57.55653" lon="-5.40567">
        <ele>88.8</ele>
        <time>2021-03-20T21:40:46Z</time>
      </trkpt>
      <trkpt lat="57.55648" lon="-5.40514">
        <ele>89.16</ele>
        <time>2021-03-20T21:40:50Z</time>
      </trkpt>
      <trkpt lat="57.55655" lon="-5.4044">
        <ele>89.67</ele>
        <time>2021-03-20T21:40:53Z</time>
      </trkpt>
      <trkpt lat="57.55667" lon="-5.40373">
        <ele>92.01</ele>
        <time>2021-03-20T21:40:57Z</time>
      </trkpt>
      <trkpt lat="57.55675" lon="-5.40315">
        <ele>92.97</ele>
        <time>2021-03-20T21:41:00Z</time>
      </trkpt>
      <trkpt lat="57.55686" lon="-5.40247">
        <ele>93</ele>
        <time>2021-03-20T21:41:04Z</time>
      </trkpt>
      <trkpt lat="57.557" lon="-5.40195">
        <ele>92.84</ele>
        <time>2021-03-20T21:41:07Z</time>
      </trkpt>
      <trkpt lat="57.55725" lon="-5.4014">
        <ele>93.36</ele>
        <time>2021-03-20T21:41:11Z</time>
      </trkpt>
      <trkpt lat="57.55742" lon="-5.40084">
        <ele>94.08</ele>
        <time>2021-03-20T21:41:14Z</time>
      </trkpt>
      <trkpt lat="57.55762" lon="-5.40037">
        <ele>94.19</ele>
        <time>2021-03-20T21:41:18Z</time>
      </trkpt>
      <trkpt lat="57.55801" lon="-5.39989">
        <ele>94.37</ele>
        <time>2021-03-20T21:41:21Z</time>
      </trkpt>
      <trkpt lat="57.55836" lon="-5.39942">
        <ele>95.19</ele>
        <time>2021-03-20T21:41:25Z</time>
      </trkpt>
      <trkpt lat="57.5587" lon="-5.39886">
        <ele>95.91</ele>
        <time>2021-03-20T21:41:28Z</time>
      </trkpt>
      <trkpt lat="57.55905" lon="-5.39809">
        <ele>96.3</ele>
        <time>2021-03-20T21:41:32Z</time>
      </trkpt>
      <trkpt lat="57.55971" lon="-5.3962">
        <ele>97.29</ele>
        <time>2021-03-20T21:41:35Z</time>
      </trkpt>
      <trkpt lat="57.55991" lon="-5.39555">
        <ele>96.35</ele>
        <time>2021-03-20T21:41:39Z</time>
      </trkpt>
      <trkpt lat="57.56012" lon="-5.39501">
        <ele>96.44</ele>
        <time>2021-03-20T21:41:42Z</time>
      </trkpt>
      <trkpt lat="57.56023" lon="-5.39484">
        <ele>96.83</ele>
        <time>2021-03-20T21:41:46Z</time>
      </trkpt>
      <trkpt lat="57.56041" lon="-5.39477">
        <ele>98.01</ele>
        <time>2021-03-20T21:41:49Z</time>
      </trkpt>
      <trkpt lat="57.56082" lon="-5.39449">
        <ele>99.22</ele>
        <time>2021-03-20T21:41:53Z</time>
      </trkpt>
      <trkpt lat="57.5611" lon="-5.39406">
        <ele>99.11</ele>
        <time>2021-03-20T21:41:56Z</time>
      </trkpt>
      <trkpt lat="57.56147" lon="-5.39333">
        <ele>97.83</ele>
        <time>2021-03-20T21:42:00Z</time>
      </trkpt>
      <trkpt lat="57.56216" lon="-5.39174">
        <ele>101.76</ele>
        <time>2021-03-20T21:42:03Z</time>
      </trkpt>
      <trkpt lat="57.5626" lon="-5.39054">
        <ele>101.34</ele>
        <time>2021-03-20T21:42:07Z</time>
      </trkpt>
      <trkpt lat="57.56288" lon="-5.38967">
        <ele>101.72</ele>
        <time>2021-03-20T21:42:10Z</time>
      </trkpt>
      <trkpt lat="57.56377" lon="-5.38732">
        <ele>101.57</ele>
        <time>2021-03-20T21:42:13Z</time>
      </trkpt>
      <trkpt lat="57.56451" lon="-5.38529">
        <ele>106.23</ele>
        <time>2021-03-20T21:42:17Z</time>
      </trkpt>
      <trkpt lat="57.56469" lon="-5.38453">
        <ele>107.18</ele>
        <time>2021-03-20T21:42:20Z</time>
      </trkpt>
      <trkpt lat="57.56483" lon="-5.38376">
        <ele>106.28</ele>
        <time>2021-03-20T21:42:24Z</time>
      </trkpt>
      <trkpt lat="57.5649" lon="-5.38319">
        <ele>105.27</ele>
        <time>2021-03-20T21:42:27Z</time>
      </trkpt>
      <trkpt lat="57.56501" lon="-5.38024">
        <ele>108.28</ele>
        <time>2021-03-20T21:42:31Z</time>
      </trkpt>
      <trkpt lat="57.56504" lon="-5.37864">
        <ele>112.49</ele>
        <time>2021-03-20T21:42:34Z</time>
      </trkpt>
      <trkpt lat="57.56514" lon="-5.37809">
        <ele>115.06</ele>
        <time>2021-03-20T21:42:38Z</time>
      </trkpt>
      <trkpt lat="57.56532" lon="-5.37703">
        <ele>113.85</ele>
        <time>2021-03-20T21:42:41Z</time>
      </trkpt>
      <trkpt lat="57.56543" lon="-5.37612">
        <ele>110.69</ele>
        <time>2021-03-20T21:42:45Z</time>
      </trkpt>
      <trkpt lat="57.56533" lon="-5.37477">
        <ele>108.43</ele>
        <time>2021-03-20T21:42:48Z</time>
      </trkpt>
      <trkpt lat="57.56517" lon="-5.37423">
        <ele>108.64</ele>
        <time>2021-03-20T21:42:52Z</time>
      </trkpt>
      <trkpt lat="57.5649" lon="-5.37384">
        <ele>108.04</ele>
        <time>2021-03-20T21:42:55Z</time>
      </trkpt>
      <trkpt lat="57.56416" lon="-5.37269">
        <ele>102.24</ele>
        <time>2021-03-20T21:42:59Z</time>
      </trkpt>
      <trkpt lat="57.56379" lon="-5.37191">
        <ele>100.79</ele>
        <time>2021-03-20T21:43:02Z</time>
      </trkpt>
      <trkpt lat="57.56363" lon="-5.37144">
        <ele>100.11</ele>
        <time>2021-03-20T21:43:06Z</time>
      </trkpt>
      <trkpt lat="57.56349" lon="-5.37063">
        <ele>100.18</ele>
        <time>2021-03-20T21:43:09Z</time>
      </trkpt>
      <trkpt lat="57.56352" lon="-5.36934">
        <ele>99.37</ele>
        <time>2021-03-20T21:43:13Z</time>
      </trkpt>
      <trkpt lat="57.56356" lon="-5.36796">
        <ele>98.27</ele>
        <time>2021-03-20T21:43:16Z</time>
      </trkpt>
      <trkpt lat="57.56363" lon="-5.36719">
        <ele>101.21</ele>
        <time>2021-03-20T21:43:20Z</time>
      </trkpt>
      <trkpt lat="57.56377" lon="-5.36655">
        <ele>102.7</ele>
        <time>2021-03-20T21:43:23Z</time>
      </trkpt>
      <trkpt lat="57.56411" lon="-5.36578">
        <ele>102.56</ele>
        <time>2021-03-20T21:43:27Z</time>
      </trkpt>
      <trkpt lat="57.56455" lon="-5.36496">
        <ele>104.01</ele>
        <time>2021-03-20T21:43:30Z</time>
      </trkpt>
      <trkpt lat="57.56487" lon="-5.36427">
        <ele>104.44</ele>
        <time>2021-03-20T21:43:34Z</time>
      </trkpt>
      <trkpt lat="57.56501" lon="-5.36372">
        <ele>103.49</ele>
        <time>2021-03-20T21:43:37Z</time>
      </trkpt>
      <trkpt lat="57.56517" lon="-5.36286">
        <ele>103.86</ele>
        <time>2021-03-20T21:43:41Z</time>
      </trkpt>
      <trkpt lat="57.56531" lon="-5.362">
        <ele>105.36</ele>
        <time>2021-03-20T21:43:44Z</time>
      </trkpt>
      <trkpt lat="57.56547" lon="-5.36118">
        <ele>105.36</ele>
        <time>2021-03-20T21:43:48Z</time>
      </trkpt>
      <trkpt lat="57.56568" lon="-5.36041">
        <ele>106.1</ele>
        <time>2021-03-20T21:43:51Z</time>
      </trkpt>
      <trkpt lat="57.56598" lon="-5.35955">
        <ele>108.47</ele>
        <time>2021-03-20T21:43:55Z</time>
      </trkpt>
      <trkpt lat="57.56625" lon="-5.35861">
        <ele>108.04</ele>
        <time>2021-03-20T21:43:58Z</time>
      </trkpt>
      <trkpt lat="57.56644" lon="-5.35771">
        <ele>105.67</ele>
        <time>2021-03-20T21:44:02Z</time>
      </trkpt>
      <trkpt lat="57.56659" lon="-5.35668">
        <ele>107.15</ele>
        <time>2021-03-20T21:44:05Z</time>
      </trkpt>
      <trkpt lat="57.56676" lon="-5.3553">
        <ele>108.36</ele>
        <time>2021-03-20T21:44:08Z</time>
      </trkpt>
      <trkpt lat="57.56688" lon="-5.35462">
        <ele>107.88</ele>
        <time>2021-03-20T21:44:12Z</time>
      </trkpt>
      <trkpt lat="57.56729" lon="-5.35367">
        <ele>111.28</ele>
        <time>2021-03-20T21:44:15Z</time>
      </trkpt>
      <trkpt lat="57.56738" lon="-5.3532">
        <ele>111.88</ele>
        <time>2021-03-20T21:44:19Z</time>
      </trkpt>
      <trkpt lat="57.56738" lon="-5.35273">
        <ele>113.06</ele>
        <time>2021-03-20T21:44:22Z</time>
      </trkpt>
      <trkpt lat="57.56722" lon="-5.35226">
        <ele>111.86</ele>
        <time>2021-03-20T21:44:26Z</time>
      </trkpt>
      <trkpt lat="57.56693" lon="-5.35162">
        <ele>110.79</ele>
        <time>2021-03-20T21:44:29Z</time>
      </trkpt>
      <trkpt lat="57.56676" lon="-5.3509">
        <ele>109.82</ele>
        <time>2021-03-20T21:44:33Z</time>
      </trkpt>
      <trkpt lat="57.56661" lon="-5.34992">
        <ele>110.39</ele>
        <time>2021-03-20T21:44:36Z</time>
      </trkpt>
      <trkpt lat="57.5666" lon="-5.349">
        <ele>110.13</ele>
        <time>2021-03-20T21:44:40Z</time>
      </trkpt>
      <trkpt lat="57.56674" lon="-5.34788">
        <ele>108.62</ele>
        <time>2021-03-20T21:44:43Z</time>
      </trkpt>
      <trkpt lat="57.567" lon="-5.34689">
        <ele>108.55</ele>
        <time>2021-03-20T21:44:47Z</time>
      </trkpt>
      <trkpt lat="57.56732" lon="-5.34619">
        <ele>109.07</ele>
        <time>2021-03-20T21:44:50Z</time>
      </trkpt>
      <trkpt lat="57.56766" lon="-5.34565">
        <ele>109.09</ele>
        <time>2021-03-20T21:44:54Z</time>
      </trkpt>
      <trkpt lat="57.56796" lon="-5.34509">
        <ele>107.94</ele>
        <time>2021-03-20T21:44:57Z</time>
      </trkpt>
      <trkpt lat="57.56865" lon="-5.34309">
        <ele>106.64</ele>
        <time>2021-03-20T21:45:01Z</time>
      </trkpt>
      <trkpt lat="57.56911" lon="-5.34188">
        <ele>104.66</ele>
        <time>2021-03-20T21:45:04Z</time>
      </trkpt>
      <trkpt lat="57.56957" lon="-5.34071">
        <ele>106.26</ele>
        <time>2021-03-20T21:45:08Z</time>
      </trkpt>
      <trkpt lat="57.57012" lon="-5.33943">
        <ele>104.37</ele>
        <time>2021-03-20T21:45:11Z</time>
      </trkpt>
      <trkpt lat="57.57061" lon="-5.33842">
        <ele>103.9</ele>
        <time>2021-03-20T21:45:15Z</time>
      </trkpt>
      <trkpt lat="57.57105" lon="-5.33727">
        <ele>104.44</ele>
        <time>2021-03-20T21:45:18Z</time>
      </trkpt>
      <trkpt lat="57.5714" lon="-5.33611">
        <ele>102.06</ele>
        <time>2021-03-20T21:45:22Z</time>
      </trkpt>
      <trkpt lat="57.57175" lon="-5.33459">
        <ele>99.42</ele>
        <time>2021-03-20T21:45:25Z</time>
      </trkpt>
      <trkpt lat="57.57191" lon="-5.33383">
        <ele>99.41</ele>
        <time>2021-03-20T21:45:29Z</time>
      </trkpt>
      <trkpt lat="57.572" lon="-5.33323">
        <ele>98.18</ele>
        <time>2021-03-20T21:45:32Z</time>
      </trkpt>
      <trkpt lat="57.57215" lon="-5.33264">
        <ele>96.21</ele>
        <time>2021-03-20T21:45:36Z</time>
      </trkpt>
      <trkpt lat="57.57246" lon="-5.33171">
        <ele>94.38</ele>
        <time>2021-03-20T21:45:39Z</time>
      </trkpt>
      <trkpt lat="57.57265" lon="-5.3308">
        <ele>95.57</ele>
        <time>2021-03-20T21:45:43Z</time>
      </trkpt>
      <trkpt lat="57.57275" lon="-5.33011">
        <ele>93.21</ele>
        <time>2021-03-20T21:45:46Z</time>
      </trkpt>
      <trkpt lat="57.57282" lon="-5.32927">
        <ele>91.05</ele>
        <time>2021-03-20T21:45:50Z</time>
      </trkpt>
      <trkpt lat="57.57285" lon="-5.32908">
        <ele>90.83</ele>
        <time>2021-03-20T21:45:53Z</time>
      </trkpt>
      <trkpt lat="57.57302" lon="-5.32856">
        <ele>90.12</ele>
        <time>2021-03-20T21:45:57Z</time>
      </trkpt>
      <trkpt lat="57.57314" lon="-5.32835">
        <ele>90.33</ele>
        <time>2021-03-20T21:46:00Z</time>
      </trkpt>
      <trkpt lat="57.57436" lon="-5.32681">
        <ele>90.6</ele>
        <time>2021-03-20T21:46:04Z</time>
      </trkpt>
      <trkpt lat="57.57478" lon="-5.32613">
        <ele>88.85</ele>
        <time>2021-03-20T21:46:07Z</time>
      </trkpt>
      <trkpt lat="57.57502" lon="-5.32562">
        <ele>87.81</ele>
        <time>2021-03-20T21:46:10Z</time>
      </trkpt>
      <trkpt lat="57.5752" lon="-5.32512">
        <ele>88.34</ele>
        <time>2021-03-20T21:46:14Z</time>
      </trkpt>
      <trkpt lat="57.57563" lon="-5.32366">
        <ele>83.43</ele>
        <time>2021-03-20T21:46:17Z</time>
      </trkpt>
      <trkpt lat="57.5759" lon="-5.32329">
        <ele>82.07</ele>
        <time>2021-03-20T21:46:21Z</time>
      </trkpt>
      <trkpt lat="57.57636" lon="-5.32252">
        <ele>81.89</ele>
        <time>2021-03-20T21:46:24Z</time>
      </trkpt>
      <trkpt lat="57.57686" lon="-5.32157">
        <ele>80.08</ele>
        <time>2021-03-20T21:46:28Z</time>
      </trkpt>
      <trkpt lat="57.57783" lon="-5.31949">
        <ele>81.36</ele>
        <time>2021-03-20T21:46:31Z</time>
      </trkpt>
      <trkpt lat="57.5786" lon="-5.31772">
        <ele>79.48</ele>
        <time>2021-03-20T21:46:35Z</time>
      </trkpt>
      <trkpt lat="57.57876" lon="-5.31742">
        <ele>77.96</ele>
        <time>2021-03-20T21:46:38Z</time>
      </trkpt>
      <trkpt lat="57.57951" lon="-5.31648">
        <ele>77.09</ele>
        <time>2021-03-20T21:46:42Z</time>
      </trkpt>
      <trkpt lat="57.58227" lon="-5.31325">
        <ele>72.72</ele>
        <time>2021-03-20T21:46:45Z</time>
      </trkpt>
      <trkpt lat="57.58341" lon="-5.31212">
        <ele>70.27</ele>
        <time>2021-03-20T21:46:49Z</time>
      </trkpt>
      <trkpt lat="57.58368" lon="-5.31192">
        <ele>69.07</ele>
        <time>2021-03-20T21:46:52Z</time>
      </trkpt>
      <trkpt lat="57.58604" lon="-5.31089">
        <ele>68.53</ele>
        <time>2021-03-20T21:46:56Z</time>
      </trkpt>
      <trkpt lat="57.58761" lon="-5.31026">
        <ele>66.43</ele>
        <time>2021-03-20T21:46:59Z</time>
      </trkpt>
      <trkpt lat="57.59115" lon="-5.30908">
        <ele>60.31</ele>
        <time>2021-03-20T21:47:03Z</time>
      </trkpt>
      <trkpt lat="57.59245" lon="-5.30849">
        <ele>55.55</ele>
        <time>2021-03-20T21:47:06Z</time>
      </trkpt>
      <trkpt lat="57.5936" lon="-5.30774">
        <ele>50.84</ele>
        <time>2021-03-20T21:47:10Z</time>
      </trkpt>
      <trkpt lat="57.59485" lon="-5.30715">
        <ele>45.28</ele>
        <time>2021-03-20T21:47:13Z</time>
      </trkpt>
      <trkpt lat="57.59529" lon="-5.30691">
        <ele>43.71</ele>
        <time>2021-03-20T21:47:17Z</time>
      </trkpt>
      <trkpt lat="57.59608" lon="-5.30614">
        <ele>41.86</ele>
        <time>2021-03-20T21:47:20Z</time>
      </trkpt>
      <trkpt lat="57.59637" lon="-5.306">
        <ele>42.54</ele>
        <time>2021-03-20T21:47:24Z</time>
      </trkpt>
      <trkpt lat="57.60139" lon="-5.30548">
        <ele>35</ele>
        <time>2021-03-20T21:47:27Z</time>
      </trkpt>
      <trkpt lat="57.6017" lon="-5.30545">
        <ele>35</ele>
        <time>2021-03-20T21:47:31Z</time>
      </trkpt>
      <trkpt lat="57.60202" lon="-5.30537">
        <ele>34.74</ele>
        <time>2021-03-20T21:47:34Z</time>
      </trkpt>
      <trkpt lat="57.6022" lon="-5.30528">
        <ele>34.09</ele>
        <time>2021-03-20T21:47:38Z</time>
      </trkpt>
      <trkpt lat="57.6033" lon="-5.30438">
        <ele>32.13</ele>
        <time>2021-03-20T21:47:41Z</time>
      </trkpt>
      <trkpt lat="57.60404" lon="-5.30383">
        <ele>33</ele>
        <time>2021-03-20T21:47:45Z</time>
      </trkpt>
      <trkpt lat="57.60452" lon="-5.30336">
        <ele>31.76</ele>
        <time>2021-03-20T21:47:48Z</time>
      </trkpt>
      <trkpt lat="57.60443" lon="-5.3029">
        <ele>31.47</ele>
        <time>2021-03-20T21:47:54Z</time>
      </trkpt>
      <trkpt lat="57.60429" lon="-5.30184">
        <ele>30.89</ele>
        <time>2021-03-20T21:48:00Z</time>
      </trkpt>
      <trkpt lat="57.60401" lon="-5.29893">
        <ele>30.12</ele>
        <time>2021-03-20T21:48:06Z</time>
      </trkpt>
      <trkpt lat="57.60385" lon="-5.29773">
        <ele>36.87</ele>
        <time>2021-03-20T21:48:11Z</time>
      </trkpt>
      <trkpt lat="57.60361" lon="-5.29583">
        <ele>41.03</ele>
        <time>2021-03-20T21:48:17Z</time>
      </trkpt>
      <trkpt lat="57.60355" lon="-5.29463">
        <ele>49.83</ele>
        <time>2021-03-20T21:48:23Z</time>
      </trkpt>
      <trkpt lat="57.60357" lon="-5.29384">
        <ele>52.91</ele>
        <time>2021-03-20T21:48:29Z</time>
      </trkpt>
      <trkpt lat="57.60372" lon="-5.29172">
        <ele>47.14</ele>
        <time>2021-03-20T21:48:35Z</time>
      </trkpt>
      <trkpt lat="57.60377" lon="-5.29106">
        <ele>42.69</ele>
        <time>2021-03-20T21:48:41Z</time>
      </trkpt>
      <trkpt lat="57.60375" lon="-5.28973">
        <ele>42.08</ele>
        <time>2021-03-20T21:48:46Z</time>
      </trkpt>
      <trkpt lat="57.60357" lon="-5.28479">
        <ele>50.19</ele>
        <time>2021-03-20T21:48:52Z</time>
      </trkpt>
      <trkpt lat="57.6035" lon="-5.28336">
        <ele>51.39</ele>
        <time>2021-03-20T21:48:58Z</time>
      </trkpt>
      <trkpt lat="57.60341" lon="-5.28219">
        <ele>54.52</ele>
        <time>2021-03-20T21:49:04Z</time>
      </trkpt>
      <trkpt lat="57.60329" lon="-5.28089">
        <ele>52.44</ele>
        <time>2021-03-20T21:49:10Z</time>
      </trkpt>
      <trkpt lat="57.60311" lon="-5.27956">
        <ele>53.54</ele>
        <time>2021-03-20T21:49:15Z</time>
      </trkpt>
      <trkpt lat="57.60277" lon="-5.27687">
        <ele>50.38</ele>
        <time>2021-03-20T21:49:21Z</time>
      </trkpt>
      <trkpt lat="57.60256" lon="-5.27533">
        <ele>57.16</ele>
        <time>2021-03-20T21:49:27Z</time>
      </trkpt>
      <trkpt lat="57.60209" lon="-5.27318">
        <ele>57.44</ele>
        <time>2021-03-20T21:49:33Z</time>
      </trkpt>
      <trkpt lat="57.60182" lon="-5.27219">
        <ele>59.48</ele>
        <time>2021-03-20T21:49:39Z</time>
      </trkpt>
      <trkpt lat="57.60173" lon="-5.27191">
        <ele>58.69</ele>
        <time>2021-03-20T21:49:45Z</time>
      </trkpt>
      <trkpt lat="57.60129" lon="-5.27078">
        <ele>53.6</ele>
        <time>2021-03-20T21:49:50Z</time>
      </trkpt>
      <trkpt lat="57.60052" lon="-5.26922">
        <ele>55.09</ele>
        <time>2021-03-20T21:49:56Z</time>
      </trkpt>
      <trkpt lat="57.59912" lon="-5.267">
        <ele>67.46</ele>
        <time>2021-03-20T21:50:02Z</time>
      </trkpt>
      <trkpt lat="57.59757" lon="-5.26438">
        <ele>72.29</ele>
        <time>2021-03-20T21:50:08Z</time>
      </trkpt>
      <trkpt lat="57.59601" lon="-5.26159">
        <ele>80.02</ele>
        <time>2021-03-20T21:50:14Z</time>
      </trkpt>
      <trkpt lat="57.59551" lon="-5.26059">
        <ele>79.12</ele>
        <time>2021-03-20T21:50:20Z</time>
      </trkpt>
      <trkpt lat="57.59489" lon="-5.25926">
        <ele>80.76</ele>
        <time>2021-03-20T21:50:25Z</time>
      </trkpt>
      <trkpt lat="57.59414" lon="-5.25806">
        <ele>84.89</ele>
        <time>2021-03-20T21:50:31Z</time>
      </trkpt>
      <trkpt lat="57.5937" lon="-5.25721">
        <ele>86.68</ele>
        <time>2021-03-20T21:50:37Z</time>
      </trkpt>
      <trkpt lat="57.59308" lon="-5.2558">
        <ele>89.44</ele>
        <time>2021-03-20T21:50:43Z</time>
      </trkpt>
      <trkpt lat="57.59273" lon="-5.25486">
        <ele>92.69</ele>
        <time>2021-03-20T21:50:49Z</time>
      </trkpt>
      <trkpt lat="57.59246" lon="-5.25421">
        <ele>92.57</ele>
        <time>2021-03-20T21:50:55Z</time>
      </trkpt>
      <trkpt lat="57.59214" lon="-5.25359">
        <ele>94.52</ele>
        <time>2021-03-20T21:51:00Z</time>
      </trkpt>
      <trkpt lat="57.59178" lon="-5.25301">
        <ele>95.66</ele>
        <time>2021-03-20T21:51:06Z</time>
      </trkpt>
      <trkpt lat="57.59129" lon="-5.25228">
        <ele>96.15</ele>
        <time>2021-03-20T21:51:12Z</time>
      </trkpt>
      <trkpt lat="57.58955" lon="-5.25018">
        <ele>104.75</ele>
        <time>2021-03-20T21:51:18Z</time>
      </trkpt>
      <trkpt lat="57.58901" lon="-5.24921">
        <ele>108.44</ele>
        <time>2021-03-20T21:51:24Z</time>
      </trkpt>
      <trkpt lat="57.58882" lon="-5.24872">
        <ele>109.45</ele>
        <time>2021-03-20T21:51:29Z</time>
      </trkpt>
      <trkpt lat="57.58858" lon="-5.24797">
        <ele>111.56</ele>
        <time>2021-03-20T21:51:35Z</time>
      </trkpt>
      <trkpt lat="57.58841" lon="-5.2474">
        <ele>113.61</ele>
        <time>2021-03-20T21:51:41Z</time>
      </trkpt>
      <trkpt lat="57.5881" lon="-5.24627">
        <ele>117.58</ele>
        <time>2021-03-20T21:51:47Z</time>
      </trkpt>
      <trkpt lat="57.5877" lon="-5.2449">
        <ele>124.44</ele>
        <time>2021-03-20T21:51:53Z</time>
      </trkpt>
      <trkpt lat="57.58748" lon="-5.24421">
        <ele>128.69</ele>
        <time>2021-03-20T21:51:59Z</time>
      </trkpt>
      <trkpt lat="57.58714" lon="-5.24332">
        <ele>137.1</ele>
        <time>2021-03-20T21:52:04Z</time>
      </trkpt>
      <trkpt lat="57.58677" lon="-5.24255">
        <ele>141.36</ele>
        <time>2021-03-20T21:52:10Z</time>
      </trkpt>
      <trkpt lat="57.58631" lon="-5.24172">
        <ele>145.55</ele>
        <time>2021-03-20T21:52:16Z</time>
      </trkpt>
      <trkpt lat="57.58598" lon="-5.24125">
        <ele>146.65</ele>
        <time>2021-03-20T21:52:22Z</time>
      </trkpt>
      <trkpt lat="57.58514" lon="-5.24014">
        <ele>149.95</ele>
        <time>2021-03-20T21:52:28Z</time>
      </trkpt>
      <trkpt lat="57.58423" lon="-5.2389">
        <ele>159.27</ele>
        <time>2021-03-20T21:52:34Z</time>
      </trkpt>
      <trkpt lat="57.58285" lon="-5.23709">
        <ele>171.31</ele>
        <time>2021-03-20T21:52:39Z</time>
      </trkpt>
      <trkpt lat="57.58231" lon="-5.23633">
        <ele>181.91</ele>
        <time>2021-03-20T21:52:45Z</time>
      </trkpt>
      <trkpt lat="57.58199" lon="-5.23582">
        <ele>188.3</ele>
        <time>2021-03-20T21:52:51Z</time>
      </trkpt>
      <trkpt lat="57.58155" lon="-5.23502">
        <ele>190.64</ele>
        <time>2021-03-20T21:52:57Z</time>
      </trkpt>
      <trkpt lat="57.5811" lon="-5.2341">
        <ele>192.76</ele>
        <time>2021-03-20T21:53:03Z</time>
      </trkpt>
      <trkpt lat="57.58078" lon="-5.23339">
        <ele>196.26</ele>
        <time>2021-03-20T21:53:08Z</time>
      </trkpt>
      <trkpt lat="57.58052" lon="-5.23262">
        <ele>197.96</ele>
        <time>2021-03-20T21:53:14Z</time>
      </trkpt>
      <trkpt lat="57.58016" lon="-5.23127">
        <ele>205.63</ele>
        <time>2021-03-20T21:53:20Z</time>
      </trkpt>
      <trkpt lat="57.57995" lon="-5.2306">
        <ele>206.25</ele>
        <time>2021-03-20T21:53:26Z</time>
      </trkpt>
      <trkpt lat="57.57949" lon="-5.22955">
        <ele>210.7</ele>
        <time>2021-03-20T21:53:32Z</time>
      </trkpt>
      <trkpt lat="57.57898" lon="-5.22854">
        <ele>218.93</ele>
        <time>2021-03-20T21:53:38Z</time>
      </trkpt>
      <trkpt lat="57.57856" lon="-5.22746">
        <ele>225.11</ele>
        <time>2021-03-20T21:53:43Z</time>
      </trkpt>
      <trkpt lat="57.57699" lon="-5.22304">
        <ele>237.19</ele>
        <time>2021-03-20T21:53:49Z</time>
      </trkpt>
      <trkpt lat="57.57634" lon="-5.22069">
        <ele>233.92</ele>
        <time>2021-03-20T21:53:55Z</time>
      </trkpt>
      <trkpt lat="57.57608" lon="-5.21993">
        <ele>232.8</ele>
        <time>2021-03-20T21:54:01Z</time>
      </trkpt>
      <trkpt lat="57.57453" lon="-5.21618">
        <ele>236.38</ele>
        <time>2021-03-20T21:54:07Z</time>
      </trkpt>
      <trkpt lat="57.57433" lon="-5.21565">
        <ele>235.43</ele>
        <time>2021-03-20T21:54:13Z</time>
      </trkpt>
      <trkpt lat="57.57419" lon="-5.21515">
        <ele>236.24</ele>
        <time>2021-03-20T21:54:18Z</time>
      </trkpt>
      <trkpt lat="57.57401" lon="-5.21435">
        <ele>235.22</ele>
        <time>2021-03-20T21:54:24Z</time>
      </trkpt>
      <trkpt lat="57.57394" lon="-5.2139">
        <ele>233.78</ele>
        <time>2021-03-20T21:54:30Z</time>
      </trkpt>
      <trkpt lat="57.57375" lon="-5.21197">
        <ele>226.93</ele>
        <time>2021-03-20T21:54:36Z</time>
      </trkpt>
      <trkpt lat="57.57352" lon="-5.21054">
        <ele>221.8</ele>
        <time>2021-03-20T21:54:42Z</time>
      </trkpt>
      <trkpt lat="57.57278" lon="-5.20746">
        <ele>210.13</ele>
        <time>2021-03-20T21:54:48Z</time>
      </trkpt>
      <trkpt lat="57.57257" lon="-5.20611">
        <ele>204.77</ele>
        <time>2021-03-20T21:54:53Z</time>
      </trkpt>
      <trkpt lat="57.57242" lon="-5.20458">
        <ele>196.01</ele>
        <time>2021-03-20T21:54:59Z</time>
      </trkpt>
      <trkpt lat="57.57239" lon="-5.20297">
        <ele>195.67</ele>
        <time>2021-03-20T21:55:05Z</time>
      </trkpt>
      <trkpt lat="57.57245" lon="-5.20151">
        <ele>193.47</ele>
        <time>2021-03-20T21:55:11Z</time>
      </trkpt>
      <trkpt lat="57.57261" lon="-5.20015">
        <ele>189.98</ele>
        <time>2021-03-20T21:55:17Z</time>
      </trkpt>
      <trkpt lat="57.5727" lon="-5.19962">
        <ele>188.13</ele>
        <time>2021-03-20T21:55:22Z</time>
      </trkpt>
      <trkpt lat="57.57343" lon="-5.19626">
        <ele>188.87</ele>
        <time>2021-03-20T21:55:28Z</time>
      </trkpt>
      <trkpt lat="57.57476" lon="-5.19086">
        <ele>181.35</ele>
        <time>2021-03-20T21:55:34Z</time>
      </trkpt>
      <trkpt lat="57.57544" lon="-5.18826">
        <ele>176.57</ele>
        <time>2021-03-20T21:55:40Z</time>
      </trkpt>
      <trkpt lat="57.57578" lon="-5.18704">
        <ele>174.98</ele>
        <time>2021-03-20T21:55:46Z</time>
      </trkpt>
      <trkpt lat="57.57615" lon="-5.18583">
        <ele>173.28</ele>
        <time>2021-03-20T21:55:52Z</time>
      </trkpt>
      <trkpt lat="57.57649" lon="-5.18483">
        <ele>172.07</ele>
        <time>2021-03-20T21:55:57Z</time>
      </trkpt>
      <trkpt lat="57.5767" lon="-5.18384">
        <ele>170.05</ele>
        <time>2021-03-20T21:56:03Z</time>
      </trkpt>
      <trkpt lat="57.57689" lon="-5.18284">
        <ele>168.78</ele>
        <time>2021-03-20T21:56:09Z</time>
      </trkpt>
      <trkpt lat="57.57694" lon="-5.18128">
        <ele>168.61</ele>
        <time>2021-03-20T21:56:15Z</time>
      </trkpt>
      <trkpt lat="57.57696" lon="-5.17995">
        <ele>164.87</ele>
        <time>2021-03-20T21:56:21Z</time>
      </trkpt>
      <trkpt lat="57.57703" lon="-5.17879">
        <ele>161.87</ele>
        <time>2021-03-20T21:56:27Z</time>
      </trkpt>
      <trkpt lat="57.57734" lon="-5.17628">
        <ele>160.24</ele>
        <time>2021-03-20T21:56:32Z</time>
      </trkpt>
      <trkpt lat="57.57745" lon="-5.17513">
        <ele>159.53</ele>
        <time>2021-03-20T21:56:38Z</time>
      </trkpt>
      <trkpt lat="57.57754" lon="-5.17353">
        <ele>159.86</ele>
        <time>2021-03-20T21:56:44Z</time>
      </trkpt>
      <trkpt lat="57.57762" lon="-5.17264">
        <ele>160.42</ele>
        <time>2021-03-20T21:56:50Z</time>
      </trkpt>
      <trkpt lat="57.57788" lon="-5.17097">
        <ele>159.36</ele>
        <time>2021-03-20T21:56:56Z</time>
      </trkpt>
      <trkpt lat="57.57841" lon="-5.16875">
        <ele>164.03</ele>
        <time>2021-03-20T21:57:01Z</time>
      </trkpt>
      <trkpt lat="57.57858" lon="-5.16732">
        <ele>165.55</ele>
        <time>2021-03-20T21:57:07Z</time>
      </trkpt>
      <trkpt lat="57.57861" lon="-5.16588">
        <ele>165.87</ele>
        <time>2021-03-20T21:57:13Z</time>
      </trkpt>
      <trkpt lat="57.57858" lon="-5.16319">
        <ele>165.54</ele>
        <time>2021-03-20T21:57:19Z</time>
      </trkpt>
      <trkpt lat="57.57859" lon="-5.16177">
        <ele>165.29</ele>
        <time>2021-03-20T21:57:25Z</time>
      </trkpt>
      <trkpt lat="57.57864" lon="-5.16064">
        <ele>164.1</ele>
        <time>2021-03-20T21:57:31Z</time>
      </trkpt>
      <trkpt lat="57.57896" lon="-5.15855">
        <ele>168.06</ele>
        <time>2021-03-20T21:57:36Z</time>
      </trkpt>
      <trkpt lat="57.57914" lon="-5.15699">
        <ele>170.61</ele>
        <time>2021-03-20T21:57:42Z</time>
      </trkpt>
      <trkpt lat="57.57921" lon="-5.15536">
        <ele>169.18</ele>
        <time>2021-03-20T21:57:48Z</time>
      </trkpt>
      <trkpt lat="57.57933" lon="-5.14446">
        <ele>167.7</ele>
        <time>2021-03-20T21:57:54Z</time>
      </trkpt>
      <trkpt lat="57.57936" lon="-5.14356">
        <ele>168.54</ele>
        <time>2021-03-20T21:58:00Z</time>
      </trkpt>
      <trkpt lat="57.57943" lon="-5.14223">
        <ele>168.79</ele>
        <time>2021-03-20T21:58:06Z</time>
      </trkpt>
      <trkpt lat="57.57962" lon="-5.14075">
        <ele>164.66</ele>
        <time>2021-03-20T21:58:11Z</time>
      </trkpt>
      <trkpt lat="57.57997" lon="-5.13838">
        <ele>162.35</ele>
        <time>2021-03-20T21:58:17Z</time>
      </trkpt>
      <trkpt lat="57.58005" lon="-5.13769">
        <ele>163</ele>
        <time>2021-03-20T21:58:23Z</time>
      </trkpt>
      <trkpt lat="57.58008" lon="-5.1362">
        <ele>166.13</ele>
        <time>2021-03-20T21:58:29Z</time>
      </trkpt>
      <trkpt lat="57.58001" lon="-5.13513">
        <ele>166.75</ele>
        <time>2021-03-20T21:58:35Z</time>
      </trkpt>
      <trkpt lat="57.57902" lon="-5.12578">
        <ele>165.56</ele>
        <time>2021-03-20T21:58:41Z</time>
      </trkpt>
      <trkpt lat="57.57881" lon="-5.12372">
        <ele>164.51</ele>
        <time>2021-03-20T21:58:46Z</time>
      </trkpt>
      <trkpt lat="57.57864" lon="-5.12176">
        <ele>163.38</ele>
        <time>2021-03-20T21:58:52Z</time>
      </trkpt>
      <trkpt lat="57.5786" lon="-5.12076">
        <ele>162.88</ele>
        <time>2021-03-20T21:58:58Z</time>
      </trkpt>
      <trkpt lat="57.57877" lon="-5.11335">
        <ele>162.78</ele>
        <time>2021-03-20T21:59:04Z</time>
      </trkpt>
      <trkpt lat="57.57886" lon="-5.11089">
        <ele>161.9</ele>
        <time>2021-03-20T21:59:10Z</time>
      </trkpt>
      <trkpt lat="57.57892" lon="-5.10863">
        <ele>162.49</ele>
        <time>2021-03-20T21:59:15Z</time>
      </trkpt>
      <trkpt lat="57.57891" lon="-5.10672">
        <ele>161.56</ele>
        <time>2021-03-20T21:59:21Z</time>
      </trkpt>
      <trkpt lat="57.57876" lon="-5.10459">
        <ele>168.05</ele>
        <time>2021-03-20T21:59:27Z</time>
      </trkpt>
      <trkpt lat="57.57855" lon="-5.09867">
        <ele>170.26</ele>
        <time>2021-03-20T21:59:33Z</time>
      </trkpt>
      <trkpt lat="57.5787" lon="-5.09628">
        <ele>173.37</ele>
        <time>2021-03-20T21:59:39Z</time>
      </trkpt>
      <trkpt lat="57.5787" lon="-5.09489">
        <ele>175.53</ele>
        <time>2021-03-20T21:59:45Z</time>
      </trkpt>
      <trkpt lat="57.57866" lon="-5.09386">
        <ele>177.19</ele>
        <time>2021-03-20T21:59:50Z</time>
      </trkpt>
      <trkpt lat="57.5785" lon="-5.09139">
        <ele>169.93</ele>
        <time>2021-03-20T21:59:56Z</time>
      </trkpt>
      <trkpt lat="57.57815" lon="-5.08692">
        <ele>159.79</ele>
        <time>2021-03-20T22:00:02Z</time>
      </trkpt>
      <trkpt lat="57.578" lon="-5.0848">
        <ele>157.18</ele>
        <time>2021-03-20T22:00:08Z</time>
      </trkpt>
      <trkpt lat="57.57798" lon="-5.08336">
        <ele>158.46</ele>
        <time>2021-03-20T22:00:14Z</time>
      </trkpt>
      <trkpt lat="57.57805" lon="-5.08213">
        <ele>155.99</ele>
        <time>2021-03-20T22:00:20Z</time>
      </trkpt>
      <trkpt lat="57.57812" lon="-5.08148">
        <ele>156.74</ele>
        <time>2021-03-20T22:00:25Z</time>
      </trkpt>
      <trkpt lat="57.57839" lon="-5.07944">
        <ele>156.19</ele>
        <time>2021-03-20T22:00:31Z</time>
      </trkpt>
      <trkpt lat="57.57847" lon="-5.07945">
        <ele>156.51</ele>
        <time>2021-03-20T22:00:37Z</time>
      </trkpt>
      <trkpt lat="57.57853" lon="-5.07937">
        <ele>156.7</ele>
        <time>2021-03-20T22:00:42Z</time>
      </trkpt>
      <trkpt lat="57.57855" lon="-5.0792">
        <ele>156.78</ele>
        <time>2021-03-20T22:00:48Z</time>
      </trkpt>
      <trkpt lat="57.57852" lon="-5.07909">
        <ele>156.41</ele>
        <time>2021-03-20T22:00:54Z</time>
      </trkpt>
      <trkpt lat="57.57877" lon="-5.07833">
        <ele>154.58</ele>
        <time>2021-03-20T22:00:59Z</time>
      </trkpt>
      <trkpt lat="57.5791" lon="-5.07726">
        <ele>152.87</ele>
        <time>2021-03-20T22:01:05Z</time>
      </trkpt>
      <trkpt lat="57.57928" lon="-5.07631">
        <ele>152.95</ele>
        <time>2021-03-20T22:01:10Z</time>
      </trkpt>
      <trkpt lat="57.57949" lon="-5.07535">
        <ele>155.36</ele>
        <time>2021-03-20T22:01:16Z</time>
      </trkpt>
      <trkpt lat="57.57977" lon="-5.07442">
        <ele>154.17</ele>
        <time>2021-03-20T22:01:21Z</time>
      </trkpt>
      <trkpt lat="57.58089" lon="-5.0712">
        <ele>153.54</ele>
        <time>2021-03-20T22:01:27Z</time>
      </trkpt>
      <trkpt lat="57.58107" lon="-5.07059">
        <ele>153.72</ele>
        <time>2021-03-20T22:01:32Z</time>
      </trkpt>
      <trkpt lat="57.58133" lon="-5.06952">
        <ele>152.84</ele>
        <time>2021-03-20T22:01:38Z</time>
      </trkpt>
      <trkpt lat="57.58156" lon="-5.06823">
        <ele>154.6</ele>
        <time>2021-03-20T22:01:44Z</time>
      </trkpt>
      <trkpt lat="57.58231" lon="-5.06173">
        <ele>154.15</ele>
        <time>2021-03-20T22:01:49Z</time>
      </trkpt>
      <trkpt lat="57.58259" lon="-5.0594">
        <ele>151.52</ele>
        <time>2021-03-20T22:01:55Z</time>
      </trkpt>
      <trkpt lat="57.58291" lon="-5.05704">
        <ele>154.99</ele>
        <time>2021-03-20T22:02:00Z</time>
      </trkpt>
      <trkpt lat="57.58374" lon="-5.05142">
        <ele>157.43</ele>
        <time>2021-03-20T22:02:06Z</time>
      </trkpt>
      <trkpt lat="57.5842" lon="-5.04903">
        <ele>157.03</ele>
        <time>2021-03-20T22:02:11Z</time>
      </trkpt>
      <trkpt lat="57.58498" lon="-5.04421">
        <ele>159.6</ele>
        <time>2021-03-20T22:02:17Z</time>
      </trkpt>
      <trkpt lat="57.58572" lon="-5.03906">
        <ele>162.79</ele>
        <time>2021-03-20T22:02:23Z</time>
      </trkpt>
      <trkpt lat="57.58637" lon="-5.03361">
        <ele>164.66</ele>
        <time>2021-03-20T22:02:28Z</time>
      </trkpt>
      <trkpt lat="57.5866" lon="-5.03129">
        <ele>159.37</ele>
        <time>2021-03-20T22:02:34Z</time>
      </trkpt>
      <trkpt lat="57.58685" lon="-5.02928">
        <ele>160.93</ele>
        <time>2021-03-20T22:02:39Z</time>
      </trkpt>
      <trkpt lat="57.58708" lon="-5.02795">
        <ele>164.78</ele>
        <time>2021-03-20T22:02:45Z</time>
      </trkpt>
      <trkpt lat="57.58738" lon="-5.02657">
        <ele>163.16</ele>
        <time>2021-03-20T22:02:50Z</time>
      </trkpt>
      <trkpt lat="57.58779" lon="-5.02524">
        <ele>157.88</ele>
        <time>2021-03-20T22:02:56Z</time>
      </trkpt>
      <trkpt lat="57.58837" lon="-5.02383">
        <ele>156.51</ele>
        <time>2021-03-20T22:03:02Z</time>
      </trkpt>
      <trkpt lat="57.58922" lon="-5.02194">
        <ele>160.37</ele>
        <time>2021-03-20T22:03:07Z</time>
      </trkpt>
      <trkpt lat="57.59021" lon="-5.02005">
        <ele>162.92</ele>
        <time>2021-03-20T22:03:13Z</time>
      </trkpt>
      <trkpt lat="57.5912" lon="-5.01829">
        <ele>156.26</ele>
        <time>2021-03-20T22:03:18Z</time>
      </trkpt>
      <trkpt lat="57.59345" lon="-5.01457">
        <ele>146.18</ele>
        <time>2021-03-20T22:03:24Z</time>
      </trkpt>
      <trkpt lat="57.59386" lon="-5.01391">
        <ele>148.88</ele>
        <time>2021-03-20T22:03:29Z</time>
      </trkpt>
      <trkpt lat="57.5946" lon="-5.01254">
        <ele>142.6</ele>
        <time>2021-03-20T22:03:35Z</time>
      </trkpt>
      <trkpt lat="57.59513" lon="-5.01125">
        <ele>137.94</ele>
        <time>2021-03-20T22:03:40Z</time>
      </trkpt>
      <trkpt lat="57.59564" lon="-5.00966">
        <ele>136.15</ele>
        <time>2021-03-20T22:03:46Z</time>
      </trkpt>
      <trkpt lat="57.59621" lon="-5.00799">
        <ele>138.1</ele>
        <time>2021-03-20T22:03:52Z</time>
      </trkpt>
      <trkpt lat="57.59676" lon="-5.00619">
        <ele>137.22</ele>
        <time>2021-03-20T22:03:57Z</time>
      </trkpt>
      <trkpt lat="57.59734" lon="-5.00443">
        <ele>134.15</ele>
        <time>2021-03-20T22:04:03Z</time>
      </trkpt>
      <trkpt lat="57.59844" lon="-5.00151">
        <ele>133.82</ele>
        <time>2021-03-20T22:04:08Z</time>
      </trkpt>
      <trkpt lat="57.599" lon="-5.0003">
        <ele>138.88</ele>
        <time>2021-03-20T22:04:14Z</time>
      </trkpt>
      <trkpt lat="57.59974" lon="-4.99888">
        <ele>139.35</ele>
        <time>2021-03-20T22:04:19Z</time>
      </trkpt>
      <trkpt lat="57.60007" lon="-4.99821">
        <ele>138.41</ele>
        <time>2021-03-20T22:04:25Z</time>
      </trkpt>
      <trkpt lat="57.60042" lon="-4.99735">
        <ele>134.92</ele>
        <time>2021-03-20T22:04:31Z</time>
      </trkpt>
      <trkpt lat="57.60069" lon="-4.9964">
        <ele>137.51</ele>
        <time>2021-03-20T22:04:36Z</time>
      </trkpt>
      <trkpt lat="57.60095" lon="-4.99507">
        <ele>136.87</ele>
        <time>2021-03-20T22:04:42Z</time>
      </trkpt>
      <trkpt lat="57.60118" lon="-4.99361">
        <ele>135.43</ele>
        <time>2021-03-20T22:04:47Z</time>
      </trkpt>
      <trkpt lat="57.60183" lon="-4.98783">
        <ele>127.18</ele>
        <time>2021-03-20T22:04:53Z</time>
      </trkpt>
      <trkpt lat="57.60222" lon="-4.98424">
        <ele>122.98</ele>
        <time>2021-03-20T22:04:58Z</time>
      </trkpt>
      <trkpt lat="57.60292" lon="-4.9781">
        <ele>125.36</ele>
        <time>2021-03-20T22:05:04Z</time>
      </trkpt>
      <trkpt lat="57.60318" lon="-4.9761">
        <ele>123.19</ele>
        <time>2021-03-20T22:05:10Z</time>
      </trkpt>
      <trkpt lat="57.60361" lon="-4.97304">
        <ele>121.91</ele>
        <time>2021-03-20T22:05:15Z</time>
      </trkpt>
      <trkpt lat="57.60402" lon="-4.97031">
        <ele>124.81</ele>
        <time>2021-03-20T22:05:21Z</time>
      </trkpt>
      <trkpt lat="57.60443" lon="-4.96786">
        <ele>126.01</ele>
        <time>2021-03-20T22:05:26Z</time>
      </trkpt>
      <trkpt lat="57.60518" lon="-4.9646">
        <ele>123.28</ele>
        <time>2021-03-20T22:05:32Z</time>
      </trkpt>
      <trkpt lat="57.60531" lon="-4.96376">
        <ele>124.61</ele>
        <time>2021-03-20T22:05:37Z</time>
      </trkpt>
      <trkpt lat="57.60539" lon="-4.96302">
        <ele>126.33</ele>
        <time>2021-03-20T22:05:43Z</time>
      </trkpt>
      <trkpt lat="57.60559" lon="-4.95993">
        <ele>126.9</ele>
        <time>2021-03-20T22:05:49Z</time>
      </trkpt>
      <trkpt lat="57.60563" lon="-4.95953">
        <ele>127.01</ele>
        <time>2021-03-20T22:05:54Z</time>
      </trkpt>
      <trkpt lat="57.60578" lon="-4.95849">
        <ele>125</ele>
        <time>2021-03-20T22:06:00Z</time>
      </trkpt>
      <trkpt lat="57.60745" lon="-4.94864">
        <ele>125.81</ele>
        <time>2021-03-20T22:06:05Z</time>
      </trkpt>
      <trkpt lat="57.60874" lon="-4.9404">
        <ele>128.98</ele>
        <time>2021-03-20T22:06:11Z</time>
      </trkpt>
      <trkpt lat="57.60973" lon="-4.93349">
        <ele>123.7</ele>
        <time>2021-03-20T22:06:16Z</time>
      </trkpt>
      <trkpt lat="57.61003" lon="-4.93109">
        <ele>126.72</ele>
        <time>2021-03-20T22:06:22Z</time>
      </trkpt>
      <trkpt lat="57.61017" lon="-4.92907">
        <ele>124.24</ele>
        <time>2021-03-20T22:06:27Z</time>
      </trkpt>
      <trkpt lat="57.6102" lon="-4.92718">
        <ele>120.67</ele>
        <time>2021-03-20T22:06:33Z</time>
      </trkpt>
      <trkpt lat="57.61024" lon="-4.9222">
        <ele>122.4</ele>
        <time>2021-03-20T22:06:39Z</time>
      </trkpt>
      <trkpt lat="57.6103" lon="-4.91783">
        <ele>124.55</ele>
        <time>2021-03-20T22:06:44Z</time>
      </trkpt>
      <trkpt lat="57.61039" lon="-4.91419">
        <ele>128.23</ele>
        <time>2021-03-20T22:06:50Z</time>
      </trkpt>
      <trkpt lat="57.61051" lon="-4.91122">
        <ele>129.61</ele>
        <time>2021-03-20T22:06:55Z</time>
      </trkpt>
      <trkpt lat="57.61076" lon="-4.90748">
        <ele>127.88</ele>
        <time>2021-03-20T22:07:01Z</time>
      </trkpt>
      <trkpt lat="57.61095" lon="-4.90298">
        <ele>120.19</ele>
        <time>2021-03-20T22:07:06Z</time>
      </trkpt>
      <trkpt lat="57.61102" lon="-4.89929">
        <ele>118.04</ele>
        <time>2021-03-20T22:07:12Z</time>
      </trkpt>
      <trkpt lat="57.61102" lon="-4.89602">
        <ele>118.98</ele>
        <time>2021-03-20T22:07:18Z</time>
      </trkpt>
      <trkpt lat="57.61104" lon="-4.891">
        <ele>129</ele>
        <time>2021-03-20T22:07:23Z</time>
      </trkpt>
      <trkpt lat="57.61088" lon="-4.88493">
        <ele>131.13</ele>
        <time>2021-03-20T22:07:29Z</time>
      </trkpt>
      <trkpt lat="57.61079" lon="-4.8828">
        <ele>131.11</ele>
        <time>2021-03-20T22:07:34Z</time>
      </trkpt>
      <trkpt lat="57.61077" lon="-4.88157">
        <ele>132.72</ele>
        <time>2021-03-20T22:07:40Z</time>
      </trkpt>
      <trkpt lat="57.61081" lon="-4.88026">
        <ele>131.75</ele>
        <time>2021-03-20T22:07:45Z</time>
      </trkpt>
      <trkpt lat="57.61093" lon="-4.87894">
        <ele>128.32</ele>
        <time>2021-03-20T22:07:51Z</time>
      </trkpt>
      <trkpt lat="57.61118" lon="-4.8771">
        <ele>126.41</ele>
        <time>2021-03-20T22:07:57Z</time>
      </trkpt>
      <trkpt lat="57.61197" lon="-4.87393">
        <ele>119.77</ele>
        <time>2021-03-20T22:08:02Z</time>
      </trkpt>
      <trkpt lat="57.61205" lon="-4.87351">
        <ele>118.24</ele>
        <time>2021-03-20T22:08:08Z</time>
      </trkpt>
      <trkpt lat="57.61212" lon="-4.8731">
        <ele>117.61</ele>
        <time>2021-03-20T22:08:13Z</time>
      </trkpt>
      <trkpt lat="57.6122" lon="-4.87211">
        <ele>115.85</ele>
        <time>2021-03-20T22:08:19Z</time>
      </trkpt>
      <trkpt lat="57.6122" lon="-4.87168">
        <ele>115.11</ele>
        <time>2021-03-20T22:08:24Z</time>
      </trkpt>
      <trkpt lat="57.61218" lon="-4.87106">
        <ele>117.31</ele>
        <time>2021-03-20T22:08:30Z</time>
      </trkpt>
      <trkpt lat="57.61215" lon="-4.87058">
        <ele>119.33</ele>
        <time>2021-03-20T22:08:35Z</time>
      </trkpt>
      <trkpt lat="57.61198" lon="-4.86946">
        <ele>119.63</ele>
        <time>2021-03-20T22:08:41Z</time>
      </trkpt>
      <trkpt lat="57.61159" lon="-4.8674">
        <ele>117.63</ele>
        <time>2021-03-20T22:08:47Z</time>
      </trkpt>
      <trkpt lat="57.61136" lon="-4.86564">
        <ele>117.4</ele>
        <time>2021-03-20T22:08:52Z</time>
      </trkpt>
      <trkpt lat="57.61127" lon="-4.86431">
        <ele>118.2</ele>
        <time>2021-03-20T22:08:58Z</time>
      </trkpt>
      <trkpt lat="57.61129" lon="-4.86272">
        <ele>121.76</ele>
        <time>2021-03-20T22:09:03Z</time>
      </trkpt>
      <trkpt lat="57.61136" lon="-4.86053">
        <ele>120.52</ele>
        <time>2021-03-20T22:09:09Z</time>
      </trkpt>
      <trkpt lat="57.61134" lon="-4.85907">
        <ele>121.4</ele>
        <time>2021-03-20T22:09:14Z</time>
      </trkpt>
      <trkpt lat="57.61128" lon="-4.85757">
        <ele>121.56</ele>
        <time>2021-03-20T22:09:20Z</time>
      </trkpt>
      <trkpt lat="57.61125" lon="-4.85611">
        <ele>117.96</ele>
        <time>2021-03-20T22:09:26Z</time>
      </trkpt>
      <trkpt lat="57.61132" lon="-4.85483">
        <ele>117.95</ele>
        <time>2021-03-20T22:09:31Z</time>
      </trkpt>
      <trkpt lat="57.61148" lon="-4.85319">
        <ele>118.43</ele>
        <time>2021-03-20T22:09:37Z</time>
      </trkpt>
      <trkpt lat="57.61185" lon="-4.84976">
        <ele>115.28</ele>
        <time>2021-03-20T22:09:42Z</time>
      </trkpt>
      <trkpt lat="57.61224" lon="-4.8468">
        <ele>116.07</ele>
        <time>2021-03-20T22:09:48Z</time>
      </trkpt>
      <trkpt lat="57.6126" lon="-4.84427">
        <ele>115.25</ele>
        <time>2021-03-20T22:09:53Z</time>
      </trkpt>
      <trkpt lat="57.61288" lon="-4.84259">
        <ele>116.64</ele>
        <time>2021-03-20T22:09:59Z</time>
      </trkpt>
      <trkpt lat="57.61312" lon="-4.84097">
        <ele>115.65</ele>
        <time>2021-03-20T22:10:05Z</time>
      </trkpt>
      <trkpt lat="57.61336" lon="-4.83959">
        <ele>114.93</ele>
        <time>2021-03-20T22:10:10Z</time>
      </trkpt>
      <trkpt lat="57.61371" lon="-4.83843">
        <ele>115.43</ele>
        <time>2021-03-20T22:10:16Z</time>
      </trkpt>
      <trkpt lat="57.61398" lon="-4.83762">
        <ele>115.44</ele>
        <time>2021-03-20T22:10:21Z</time>
      </trkpt>
      <trkpt lat="57.61435" lon="-4.8368">
        <ele>116.27</ele>
        <time>2021-03-20T22:10:27Z</time>
      </trkpt>
      <trkpt lat="57.61497" lon="-4.83573">
        <ele>117.31</ele>
        <time>2021-03-20T22:10:32Z</time>
      </trkpt>
      <trkpt lat="57.61578" lon="-4.83444">
        <ele>116.61</ele>
        <time>2021-03-20T22:10:38Z</time>
      </trkpt>
      <trkpt lat="57.61768" lon="-4.83182">
        <ele>100.22</ele>
        <time>2021-03-20T22:10:44Z</time>
      </trkpt>
      <trkpt lat="57.61831" lon="-4.83109">
        <ele>101.73</ele>
        <time>2021-03-20T22:10:49Z</time>
      </trkpt>
      <trkpt lat="57.61902" lon="-4.83051">
        <ele>97.82</ele>
        <time>2021-03-20T22:10:55Z</time>
      </trkpt>
      <trkpt lat="57.6204" lon="-4.82944">
        <ele>94.33</ele>
        <time>2021-03-20T22:11:00Z</time>
      </trkpt>
      <trkpt lat="57.62072" lon="-4.82912">
        <ele>97.54</ele>
        <time>2021-03-20T22:11:06Z</time>
      </trkpt>
      <trkpt lat="57.62118" lon="-4.82828">
        <ele>102.72</ele>
        <time>2021-03-20T22:11:11Z</time>
      </trkpt>
      <trkpt lat="57.62142" lon="-4.82743">
        <ele>104.11</ele>
        <time>2021-03-20T22:11:17Z</time>
      </trkpt>
      <trkpt lat="57.62157" lon="-4.82657">
        <ele>104.91</ele>
        <time>2021-03-20T22:11:22Z</time>
      </trkpt>
      <trkpt lat="57.62176" lon="-4.82515">
        <ele>104.9</ele>
        <time>2021-03-20T22:11:28Z</time>
      </trkpt>
      <trkpt lat="57.62194" lon="-4.8241">
        <ele>103.67</ele>
        <time>2021-03-20T22:11:34Z</time>
      </trkpt>
      <trkpt lat="57.6222" lon="-4.823">
        <ele>104.25</ele>
        <time>2021-03-20T22:11:39Z</time>
      </trkpt>
      <trkpt lat="57.62269" lon="-4.82126">
        <ele>106.9</ele>
        <time>2021-03-20T22:11:45Z</time>
      </trkpt>
      <trkpt lat="57.62282" lon="-4.82066">
        <ele>108.01</ele>
        <time>2021-03-20T22:11:50Z</time>
      </trkpt>
      <trkpt lat="57.62293" lon="-4.81988">
        <ele>107.24</ele>
        <time>2021-03-20T22:11:56Z</time>
      </trkpt>
      <trkpt lat="57.62297" lon="-4.81939">
        <ele>105.61</ele>
        <time>2021-03-20T22:12:01Z</time>
      </trkpt>
      <trkpt lat="57.623" lon="-4.81837">
        <ele>104.36</ele>
        <time>2021-03-20T22:12:07Z</time>
      </trkpt>
      <trkpt lat="57.62295" lon="-4.81729">
        <ele>104.95</ele>
        <time>2021-03-20T22:12:13Z</time>
      </trkpt>
      <trkpt lat="57.62267" lon="-4.81517">
        <ele>106.22</ele>
        <time>2021-03-20T22:12:18Z</time>
      </trkpt>
      <trkpt lat="57.62258" lon="-4.81393">
        <ele>104.6</ele>
        <time>2021-03-20T22:12:24Z</time>
      </trkpt>
      <trkpt lat="57.62256" lon="-4.81288">
        <ele>105.14</ele>
        <time>2021-03-20T22:12:29Z</time>
      </trkpt>
      <trkpt lat="57.6226" lon="-4.81178">
        <ele>105.89</ele>
        <time>2021-03-20T22:12:35Z</time>
      </trkpt>
      <trkpt lat="57.62268" lon="-4.811">
        <ele>105.29</ele>
        <time>2021-03-20T22:12:40Z</time>
      </trkpt>
      <trkpt lat="57.62279" lon="-4.81024">
        <ele>106.08</ele>
        <time>2021-03-20T22:12:46Z</time>
      </trkpt>
      <trkpt lat="57.62293" lon="-4.80896">
        <ele>106.23</ele>
        <time>2021-03-20T22:12:52Z</time>
      </trkpt>
      <trkpt lat="57.62299" lon="-4.80819">
        <ele>105.14</ele>
        <time>2021-03-20T22:12:57Z</time>
      </trkpt>
      <trkpt lat="57.62303" lon="-4.80734">
        <ele>104.07</ele>
        <time>2021-03-20T22:13:03Z</time>
      </trkpt>
      <trkpt lat="57.62299" lon="-4.80631">
        <ele>104.08</ele>
        <time>2021-03-20T22:13:08Z</time>
      </trkpt>
      <trkpt lat="57.6229" lon="-4.80502">
        <ele>104.67</ele>
        <time>2021-03-20T22:13:14Z</time>
      </trkpt>
      <trkpt lat="57.62298" lon="-4.80422">
        <ele>105.38</ele>
        <time>2021-03-20T22:13:19Z</time>
      </trkpt>
      <trkpt lat="57.62313" lon="-4.80348">
        <ele>104.32</ele>
        <time>2021-03-20T22:13:25Z</time>
      </trkpt>
      <trkpt lat="57.62341" lon="-4.80294">
        <ele>105.78</ele>
        <time>2021-03-20T22:13:30Z</time>
      </trkpt>
      <trkpt lat="57.6237" lon="-4.80247">
        <ele>105.96</ele>
        <time>2021-03-20T22:13:36Z</time>
      </trkpt>
      <trkpt lat="57.62414" lon="-4.80213">
        <ele>107.23</ele>
        <time>2021-03-20T22:13:42Z</time>
      </trkpt>
      <trkpt lat="57.62516" lon="-4.80161">
        <ele>110.76</ele>
        <time>2021-03-20T22:13:47Z</time>
      </trkpt>
      <trkpt lat="57.62547" lon="-4.80122">
        <ele>107.74</ele>
        <time>2021-03-20T22:13:53Z</time>
      </trkpt>
      <trkpt lat="57.6258" lon="-4.80059">
        <ele>106.72</ele>
        <time>2021-03-20T22:13:58Z</time>
      </trkpt>
      <trkpt lat="57.62601" lon="-4.79994">
        <ele>102.37</ele>
        <time>2021-03-20T22:14:04Z</time>
      </trkpt>
      <trkpt lat="57.62628" lon="-4.79956">
        <ele>101.62</ele>
        <time>2021-03-20T22:14:09Z</time>
      </trkpt>
      <trkpt lat="57.62661" lon="-4.79933">
        <ele>102.35</ele>
        <time>2021-03-20T22:14:15Z</time>
      </trkpt>
      <trkpt lat="57.62692" lon="-4.79926">
        <ele>102.24</ele>
        <time>2021-03-20T22:14:21Z</time>
      </trkpt>
      <trkpt lat="57.62752" lon="-4.79934">
        <ele>107.69</ele>
        <time>2021-03-20T22:14:26Z</time>
      </trkpt>
      <trkpt lat="57.62768" lon="-4.79934">
        <ele>109.38</ele>
        <time>2021-03-20T22:14:32Z</time>
      </trkpt>
      <trkpt lat="57.62791" lon="-4.79929">
        <ele>111.24</ele>
        <time>2021-03-20T22:14:37Z</time>
      </trkpt>
      <trkpt lat="57.62824" lon="-4.79908">
        <ele>110.99</ele>
        <time>2021-03-20T22:14:43Z</time>
      </trkpt>
      <trkpt lat="57.62845" lon="-4.79888">
        <ele>110.13</ele>
        <time>2021-03-20T22:14:48Z</time>
      </trkpt>
      <trkpt lat="57.62892" lon="-4.79818">
        <ele>107.83</ele>
        <time>2021-03-20T22:14:54Z</time>
      </trkpt>
      <trkpt lat="57.62974" lon="-4.79713">
        <ele>112.44</ele>
        <time>2021-03-20T22:15:00Z</time>
      </trkpt>
      <trkpt lat="57.62996" lon="-4.79683">
        <ele>111.79</ele>
        <time>2021-03-20T22:15:05Z</time>
      </trkpt>
      <trkpt lat="57.63003" lon="-4.79669">
        <ele>111.5</ele>
        <time>2021-03-20T22:15:11Z</time>
      </trkpt>
      <trkpt lat="57.6303" lon="-4.79599">
        <ele>113.75</ele>
        <time>2021-03-20T22:15:16Z</time>
      </trkpt>
      <trkpt lat="57.63044" lon="-4.79547">
        <ele>117.59</ele>
        <time>2021-03-20T22:15:22Z</time>
      </trkpt>
      <trkpt lat="57.63053" lon="-4.79484">
        <ele>120.71</ele>
        <time>2021-03-20T22:15:27Z</time>
      </trkpt>
      <trkpt lat="57.63056" lon="-4.7943">
        <ele>122.12</ele>
        <time>2021-03-20T22:15:33Z</time>
      </trkpt>
      <trkpt lat="57.63058" lon="-4.79361">
        <ele>123.27</ele>
        <time>2021-03-20T22:15:39Z</time>
      </trkpt>
      <trkpt lat="57.63068" lon="-4.79246">
        <ele>124.83</ele>
        <time>2021-03-20T22:15:44Z</time>
      </trkpt>
      <trkpt lat="57.63079" lon="-4.79153">
        <ele>127.28</ele>
        <time>2021-03-20T22:15:50Z</time>
      </trkpt>
      <trkpt lat="57.63081" lon="-4.79096">
        <ele>126.72</ele>
        <time>2021-03-20T22:15:55Z</time>
      </trkpt>
      <trkpt lat="57.63079" lon="-4.79067">
        <ele>126.62</ele>
        <time>2021-03-20T22:16:01Z</time>
      </trkpt>
      <trkpt lat="57.63073" lon="-4.7901">
        <ele>126.47</ele>
        <time>2021-03-20T22:16:06Z</time>
      </trkpt>
      <trkpt lat="57.63066" lon="-4.78964">
        <ele>126.75</ele>
        <time>2021-03-20T22:16:12Z</time>
      </trkpt>
      <trkpt lat="57.6304" lon="-4.78844">
        <ele>126.21</ele>
        <time>2021-03-20T22:16:17Z</time>
      </trkpt>
      <trkpt lat="57.63029" lon="-4.78788">
        <ele>126.68</ele>
        <time>2021-03-20T22:16:23Z</time>
      </trkpt>
      <trkpt lat="57.63016" lon="-4.78676">
        <ele>129.42</ele>
        <time>2021-03-20T22:16:29Z</time>
      </trkpt>
      <trkpt lat="57.63008" lon="-4.78509">
        <ele>133.91</ele>
        <time>2021-03-20T22:16:34Z</time>
      </trkpt>
      <trkpt lat="57.63004" lon="-4.78383">
        <ele>132.32</ele>
        <time>2021-03-20T22:16:40Z</time>
      </trkpt>
      <trkpt lat="57.63" lon="-4.78059">
        <ele>136.1</ele>
        <time>2021-03-20T22:16:45Z</time>
      </trkpt>
      <trkpt lat="57.63001" lon="-4.77921">
        <ele>135.07</ele>
        <time>2021-03-20T22:16:51Z</time>
      </trkpt>
      <trkpt lat="57.63007" lon="-4.77818">
        <ele>132.19</ele>
        <time>2021-03-20T22:16:56Z</time>
      </trkpt>
      <trkpt lat="57.6303" lon="-4.77685">
        <ele>131.2</ele>
        <time>2021-03-20T22:17:02Z</time>
      </trkpt>
      <trkpt lat="57.63062" lon="-4.77552">
        <ele>135.23</ele>
        <time>2021-03-20T22:17:08Z</time>
      </trkpt>
      <trkpt lat="57.63126" lon="-4.77324">
        <ele>134.1</ele>
        <time>2021-03-20T22:17:13Z</time>
      </trkpt>
      <trkpt lat="57.63166" lon="-4.7717">
        <ele>134.94</ele>
        <time>2021-03-20T22:17:19Z</time>
      </trkpt>
      <trkpt lat="57.63177" lon="-4.77084">
        <ele>133.5</ele>
        <time>2021-03-20T22:17:24Z</time>
      </trkpt>
      <trkpt lat="57.63182" lon="-4.77007">
        <ele>134.08</ele>
        <time>2021-03-20T22:17:30Z</time>
      </trkpt>
      <trkpt lat="57.63184" lon="-4.76917">
        <ele>134.33</ele>
        <time>2021-03-20T22:17:35Z</time>
      </trkpt>
      <trkpt lat="57.63184" lon="-4.76831">
        <ele>132.27</ele>
        <time>2021-03-20T22:17:41Z</time>
      </trkpt>
      <trkpt lat="57.63193" lon="-4.76728">
        <ele>132.03</ele>
        <time>2021-03-20T22:17:47Z</time>
      </trkpt>
      <trkpt lat="57.63209" lon="-4.76651">
        <ele>130.48</ele>
        <time>2021-03-20T22:17:52Z</time>
      </trkpt>
      <trkpt lat="57.6329" lon="-4.76367">
        <ele>126</ele>
        <time>2021-03-20T22:17:58Z</time>
      </trkpt>
      <trkpt lat="57.63299" lon="-4.76312">
        <ele>126.25</ele>
        <time>2021-03-20T22:18:03Z</time>
      </trkpt>
      <trkpt lat="57.63301" lon="-4.76226">
        <ele>125.14</ele>
        <time>2021-03-20T22:18:09Z</time>
      </trkpt>
      <trkpt lat="57.63301" lon="-4.7617">
        <ele>122.97</ele>
        <time>2021-03-20T22:18:14Z</time>
      </trkpt>
      <trkpt lat="57.6329" lon="-4.76028">
        <ele>120.42</ele>
        <time>2021-03-20T22:18:20Z</time>
      </trkpt>
      <trkpt lat="57.63244" lon="-4.75612">
        <ele>118.77</ele>
        <time>2021-03-20T22:18:25Z</time>
      </trkpt>
      <trkpt lat="57.63224" lon="-4.75306">
        <ele>121.18</ele>
        <time>2021-03-20T22:18:31Z</time>
      </trkpt>
      <trkpt lat="57.63162" lon="-4.747">
        <ele>132.23</ele>
        <time>2021-03-20T22:18:37Z</time>
      </trkpt>
      <trkpt lat="57.63154" lon="-4.74353">
        <ele>133.79</ele>
        <time>2021-03-20T22:18:42Z</time>
      </trkpt>
      <trkpt lat="57.63143" lon="-4.74236">
        <ele>134.87</ele>
        <time>2021-03-20T22:18:48Z</time>
      </trkpt>
      <trkpt lat="57.63114" lon="-4.74091">
        <ele>135.16</ele>
        <time>2021-03-20T22:18:53Z</time>
      </trkpt>
      <trkpt lat="57.62983" lon="-4.73717">
        <ele>131.31</ele>
        <time>2021-03-20T22:18:59Z</time>
      </trkpt>
      <trkpt lat="57.62944" lon="-4.7354">
        <ele>130.1</ele>
        <time>2021-03-20T22:19:04Z</time>
      </trkpt>
      <trkpt lat="57.62934" lon="-4.73464">
        <ele>130.58</ele>
        <time>2021-03-20T22:19:10Z</time>
      </trkpt>
      <trkpt lat="57.62933" lon="-4.73355">
        <ele>130.18</ele>
        <time>2021-03-20T22:19:16Z</time>
      </trkpt>
      <trkpt lat="57.62923" lon="-4.72981">
        <ele>127.02</ele>
        <time>2021-03-20T22:19:21Z</time>
      </trkpt>
      <trkpt lat="57.62909" lon="-4.72747">
        <ele>123.25</ele>
        <time>2021-03-20T22:19:27Z</time>
      </trkpt>
      <trkpt lat="57.62883" lon="-4.72503">
        <ele>121.11</ele>
        <time>2021-03-20T22:19:32Z</time>
      </trkpt>
      <trkpt lat="57.62844" lon="-4.72214">
        <ele>120.86</ele>
        <time>2021-03-20T22:19:38Z</time>
      </trkpt>
      <trkpt lat="57.62796" lon="-4.71969">
        <ele>117.07</ele>
        <time>2021-03-20T22:19:43Z</time>
      </trkpt>
      <trkpt lat="57.62768" lon="-4.71762">
        <ele>115.32</ele>
        <time>2021-03-20T22:19:49Z</time>
      </trkpt>
      <trkpt lat="57.62752" lon="-4.71456">
        <ele>111.68</ele>
        <time>2021-03-20T22:19:55Z</time>
      </trkpt>
      <trkpt lat="57.62731" lon="-4.71265">
        <ele>109.71</ele>
        <time>2021-03-20T22:20:00Z</time>
      </trkpt>
      <trkpt lat="57.62709" lon="-4.71131">
        <ele>107.85</ele>
        <time>2021-03-20T22:20:06Z</time>
      </trkpt>
      <trkpt lat="57.62693" lon="-4.71047">
        <ele>106.92</ele>
        <time>2021-03-20T22:20:11Z</time>
      </trkpt>
      <trkpt lat="57.62664" lon="-4.70954">
        <ele>107.14</ele>
        <time>2021-03-20T22:20:17Z</time>
      </trkpt>
      <trkpt lat="57.62626" lon="-4.70879">
        <ele>108.5</ele>
        <time>2021-03-20T22:20:22Z</time>
      </trkpt>
      <trkpt lat="57.62556" lon="-4.70746">
        <ele>105.58</ele>
        <time>2021-03-20T22:20:28Z</time>
      </trkpt>
      <trkpt lat="57.62486" lon="-4.70625">
        <ele>106.04</ele>
        <time>2021-03-20T22:20:34Z</time>
      </trkpt>
      <trkpt lat="57.62429" lon="-4.70471">
        <ele>102.68</ele>
        <time>2021-03-20T22:20:39Z</time>
      </trkpt>
      <trkpt lat="57.62399" lon="-4.70399">
        <ele>98.58</ele>
        <time>2021-03-20T22:20:45Z</time>
      </trkpt>
      <trkpt lat="57.62374" lon="-4.70329">
        <ele>94.27</ele>
        <time>2021-03-20T22:20:50Z</time>
      </trkpt>
      <trkpt lat="57.62355" lon="-4.70261">
        <ele>91.21</ele>
        <time>2021-03-20T22:20:56Z</time>
      </trkpt>
      <trkpt lat="57.62326" lon="-4.70133">
        <ele>85.14</ele>
        <time>2021-03-20T22:21:01Z</time>
      </trkpt>
      <trkpt lat="57.62302" lon="-4.70008">
        <ele>81.3</ele>
        <time>2021-03-20T22:21:07Z</time>
      </trkpt>
      <trkpt lat="57.62299" lon="-4.69972">
        <ele>79.91</ele>
        <time>2021-03-20T22:21:12Z</time>
      </trkpt>
      <trkpt lat="57.62301" lon="-4.69944">
        <ele>77.44</ele>
        <time>2021-03-20T22:21:18Z</time>
      </trkpt>
      <trkpt lat="57.62384" lon="-4.69997">
        <ele>75.9</ele>
        <time>2021-03-20T22:21:20Z</time>
      </trkpt>
      <trkpt lat="57.62407" lon="-4.70005">
        <ele>75.14</ele>
        <time>2021-03-20T22:21:23Z</time>
      </trkpt>
      <trkpt lat="57.62433" lon="-4.7001">
        <ele>74.25</ele>
        <time>2021-03-20T22:21:25Z</time>
      </trkpt>
      <trkpt lat="57.62502" lon="-4.70007">
        <ele>74.75</ele>
        <time>2021-03-20T22:21:27Z</time>
      </trkpt>
      <trkpt lat="57.6253" lon="-4.69998">
        <ele>75</ele>
        <time>2021-03-20T22:21:29Z</time>
      </trkpt>
      <trkpt lat="57.62581" lon="-4.69972">
        <ele>75.91</ele>
        <time>2021-03-20T22:21:31Z</time>
      </trkpt>
      <trkpt lat="57.62602" lon="-4.69958">
        <ele>76.16</ele>
        <time>2021-03-20T22:21:34Z</time>
      </trkpt>
      <trkpt lat="57.62624" lon="-4.69938">
        <ele>76.94</ele>
        <time>2021-03-20T22:21:36Z</time>
      </trkpt>
      <trkpt lat="57.62655" lon="-4.69906">
        <ele>78.23</ele>
        <time>2021-03-20T22:21:38Z</time>
      </trkpt>
      <trkpt lat="57.62637" lon="-4.69824">
        <ele>76.89</ele>
        <time>2021-03-20T22:21:42Z</time>
      </trkpt>
      <trkpt lat="57.62617" lon="-4.69663">
        <ele>77.2</ele>
        <time>2021-03-20T22:21:45Z</time>
      </trkpt>
      <trkpt lat="57.62598" lon="-4.69401">
        <ele>78.34</ele>
        <time>2021-03-20T22:21:48Z</time>
      </trkpt>
      <trkpt lat="57.62598" lon="-4.69371">
        <ele>78.51</ele>
        <time>2021-03-20T22:21:52Z</time>
      </trkpt>
      <trkpt lat="57.62603" lon="-4.69334">
        <ele>78.71</ele>
        <time>2021-03-20T22:21:55Z</time>
      </trkpt>
      <trkpt lat="57.62611" lon="-4.69313">
        <ele>79.01</ele>
        <time>2021-03-20T22:22:00Z</time>
      </trkpt>
      <trkpt lat="57.62625" lon="-4.69283">
        <ele>80.93</ele>
        <time>2021-03-20T22:22:05Z</time>
      </trkpt>
      <trkpt lat="57.6265" lon="-4.69255">
        <ele>83.67</ele>
        <time>2021-03-20T22:22:09Z</time>
      </trkpt>
      <trkpt lat="57.62748" lon="-4.69104">
        <ele>88.68</ele>
        <time>2021-03-20T22:22:14Z</time>
      </trkpt>
      <trkpt lat="57.62823" lon="-4.68972">
        <ele>92.87</ele>
        <time>2021-03-20T22:22:19Z</time>
      </trkpt>
      <trkpt lat="57.6287" lon="-4.68896">
        <ele>97.14</ele>
        <time>2021-03-20T22:22:23Z</time>
      </trkpt>
      <trkpt lat="57.63023" lon="-4.68656">
        <ele>101.26</ele>
        <time>2021-03-20T22:22:28Z</time>
      </trkpt>
      <trkpt lat="57.63224" lon="-4.68356">
        <ele>100.05</ele>
        <time>2021-03-20T22:22:33Z</time>
      </trkpt>
      <trkpt lat="57.63281" lon="-4.68286">
        <ele>101.03</ele>
        <time>2021-03-20T22:22:37Z</time>
      </trkpt>
      <trkpt lat="57.63328" lon="-4.68241">
        <ele>101.49</ele>
        <time>2021-03-20T22:22:42Z</time>
      </trkpt>
      <trkpt lat="57.63344" lon="-4.68238">
        <ele>102.31</ele>
        <time>2021-03-20T22:22:47Z</time>
      </trkpt>
      <trkpt lat="57.6339" lon="-4.68133">
        <ele>100.83</ele>
        <time>2021-03-20T22:22:54Z</time>
      </trkpt>
      <trkpt lat="57.63462" lon="-4.68001">
        <ele>103.3</ele>
        <time>2021-03-20T22:23:02Z</time>
      </trkpt>
      <trkpt lat="57.63608" lon="-4.67787">
        <ele>110.08</ele>
        <time>2021-03-20T22:23:10Z</time>
      </trkpt>
      <trkpt lat="57.63633" lon="-4.67755">
        <ele>109.2</ele>
        <time>2021-03-20T22:23:18Z</time>
      </trkpt>
      <trkpt lat="57.63667" lon="-4.67719">
        <ele>107.24</ele>
        <time>2021-03-20T22:23:26Z</time>
      </trkpt>
      <trkpt lat="57.63695" lon="-4.67696">
        <ele>110.97</ele>
        <time>2021-03-20T22:23:33Z</time>
      </trkpt>
      <trkpt lat="57.63713" lon="-4.67685">
        <ele>114.71</ele>
        <time>2021-03-20T22:23:41Z</time>
      </trkpt>
      <trkpt lat="57.63741" lon="-4.67674">
        <ele>117.92</ele>
        <time>2021-03-20T22:23:49Z</time>
      </trkpt>
      <trkpt lat="57.63778" lon="-4.67667">
        <ele>118.99</ele>
        <time>2021-03-20T22:23:57Z</time>
      </trkpt>
      <trkpt lat="57.63843" lon="-4.67677">
        <ele>120.52</ele>
        <time>2021-03-20T22:24:05Z</time>
      </trkpt>
      <trkpt lat="57.63892" lon="-4.67701">
        <ele>122.75</ele>
        <time>2021-03-20T22:24:13Z</time>
      </trkpt>
      <trkpt lat="57.642" lon="-4.67941">
        <ele>123.06</ele>
        <time>2021-03-20T22:24:20Z</time>
      </trkpt>
      <trkpt lat="57.64398" lon="-4.68071">
        <ele>122.86</ele>
        <time>2021-03-20T22:24:28Z</time>
      </trkpt>
      <trkpt lat="57.64596" lon="-4.68163">
        <ele>122.85</ele>
        <time>2021-03-20T22:24:36Z</time>
      </trkpt>
      <trkpt lat="57.64659" lon="-4.6818">
        <ele>122.78</ele>
        <time>2021-03-20T22:24:44Z</time>
      </trkpt>
      <trkpt lat="57.64731" lon="-4.68188">
        <ele>123.52</ele>
        <time>2021-03-20T22:24:52Z</time>
      </trkpt>
      <trkpt lat="57.64912" lon="-4.68167">
        <ele>125.96</ele>
        <time>2021-03-20T22:24:59Z</time>
      </trkpt>
      <trkpt lat="57.65281" lon="-4.6798">
        <ele>127.23</ele>
        <time>2021-03-20T22:25:07Z</time>
      </trkpt>
      <trkpt lat="57.65639" lon="-4.67788">
        <ele>132</ele>
        <time>2021-03-20T22:25:15Z</time>
      </trkpt>
      <trkpt lat="57.66028" lon="-4.67586">
        <ele>135.72</ele>
        <time>2021-03-20T22:25:23Z</time>
      </trkpt>
      <trkpt lat="57.66028" lon="-4.67586">
        <ele>135.72</ele>
        <time>2021-03-20T22:25:23Z</time>
      </trkpt>
      <trkpt lat="57.66111" lon="-4.67541">
        <ele>137.01</ele>
        <time>2021-03-20T22:25:28Z</time>
      </trkpt>
      <trkpt lat="57.66169" lon="-4.67498">
        <ele>136.08</ele>
        <time>2021-03-20T22:25:33Z</time>
      </trkpt>
      <trkpt lat="57.66222" lon="-4.67448">
        <ele>137.87</ele>
        <time>2021-03-20T22:25:37Z</time>
      </trkpt>
      <trkpt lat="57.66269" lon="-4.67377">
        <ele>140</ele>
        <time>2021-03-20T22:25:42Z</time>
      </trkpt>
      <trkpt lat="57.66337" lon="-4.67232">
        <ele>141.54</ele>
        <time>2021-03-20T22:25:47Z</time>
      </trkpt>
      <trkpt lat="57.66393" lon="-4.67082">
        <ele>143.05</ele>
        <time>2021-03-20T22:25:52Z</time>
      </trkpt>
      <trkpt lat="57.66459" lon="-4.6694">
        <ele>144.19</ele>
        <time>2021-03-20T22:25:57Z</time>
      </trkpt>
      <trkpt lat="57.66529" lon="-4.66817">
        <ele>145.57</ele>
        <time>2021-03-20T22:26:02Z</time>
      </trkpt>
      <trkpt lat="57.66614" lon="-4.66683">
        <ele>144.33</ele>
        <time>2021-03-20T22:26:06Z</time>
      </trkpt>
      <trkpt lat="57.66689" lon="-4.66548">
        <ele>146.76</ele>
        <time>2021-03-20T22:26:11Z</time>
      </trkpt>
      <trkpt lat="57.66741" lon="-4.6647">
        <ele>146.07</ele>
        <time>2021-03-20T22:26:16Z</time>
      </trkpt>
      <trkpt lat="57.66767" lon="-4.66436">
        <ele>146.44</ele>
        <time>2021-03-20T22:26:21Z</time>
      </trkpt>
      <trkpt lat="57.66793" lon="-4.6641">
        <ele>146.82</ele>
        <time>2021-03-20T22:26:26Z</time>
      </trkpt>
      <trkpt lat="57.66859" lon="-4.66378">
        <ele>147.17</ele>
        <time>2021-03-20T22:26:31Z</time>
      </trkpt>
      <trkpt lat="57.66915" lon="-4.6637">
        <ele>148.1</ele>
        <time>2021-03-20T22:26:35Z</time>
      </trkpt>
      <trkpt lat="57.66967" lon="-4.66381">
        <ele>146.55</ele>
        <time>2021-03-20T22:26:40Z</time>
      </trkpt>
      <trkpt lat="57.67117" lon="-4.66427">
        <ele>146.83</ele>
        <time>2021-03-20T22:26:45Z</time>
      </trkpt>
      <trkpt lat="57.67173" lon="-4.66438">
        <ele>148.41</ele>
        <time>2021-03-20T22:26:50Z</time>
      </trkpt>
      <trkpt lat="57.67205" lon="-4.6644">
        <ele>149</ele>
        <time>2021-03-20T22:26:55Z</time>
      </trkpt>
      <trkpt lat="57.67215" lon="-4.66439">
        <ele>149</ele>
        <time>2021-03-20T22:27:00Z</time>
      </trkpt>
      <trkpt lat="57.67291" lon="-4.66417">
        <ele>149.01</ele>
        <time>2021-03-20T22:27:04Z</time>
      </trkpt>
      <trkpt lat="57.67349" lon="-4.66397">
        <ele>148.71</ele>
        <time>2021-03-20T22:27:09Z</time>
      </trkpt>
      <trkpt lat="57.67454" lon="-4.66378">
        <ele>151</ele>
        <time>2021-03-20T22:27:14Z</time>
      </trkpt>
      <trkpt lat="57.67535" lon="-4.66394">
        <ele>150.8</ele>
        <time>2021-03-20T22:27:19Z</time>
      </trkpt>
      <trkpt lat="57.67608" lon="-4.66446">
        <ele>149.84</ele>
        <time>2021-03-20T22:27:24Z</time>
      </trkpt>
      <trkpt lat="57.67705" lon="-4.66523">
        <ele>151.54</ele>
        <time>2021-03-20T22:27:29Z</time>
      </trkpt>
      <trkpt lat="57.67777" lon="-4.66589">
        <ele>152.75</ele>
        <time>2021-03-20T22:27:34Z</time>
      </trkpt>
      <trkpt lat="57.67832" lon="-4.66653">
        <ele>152.41</ele>
        <time>2021-03-20T22:27:38Z</time>
      </trkpt>
      <trkpt lat="57.67897" lon="-4.66749">
        <ele>153.87</ele>
        <time>2021-03-20T22:27:43Z</time>
      </trkpt>
      <trkpt lat="57.67948" lon="-4.66849">
        <ele>155.98</ele>
        <time>2021-03-20T22:27:48Z</time>
      </trkpt>
      <trkpt lat="57.6819" lon="-4.67387">
        <ele>157.6</ele>
        <time>2021-03-20T22:27:53Z</time>
      </trkpt>
      <trkpt lat="57.68205" lon="-4.67423">
        <ele>157.86</ele>
        <time>2021-03-20T22:27:58Z</time>
      </trkpt>
      <trkpt lat="57.68353" lon="-4.67754">
        <ele>159</ele>
        <time>2021-03-20T22:28:03Z</time>
      </trkpt>
      <trkpt lat="57.68431" lon="-4.67914">
        <ele>162.15</ele>
        <time>2021-03-20T22:28:07Z</time>
      </trkpt>
      <trkpt lat="57.68507" lon="-4.68058">
        <ele>164.53</ele>
        <time>2021-03-20T22:28:12Z</time>
      </trkpt>
      <trkpt lat="57.6853" lon="-4.68138">
        <ele>166.5</ele>
        <time>2021-03-20T22:28:17Z</time>
      </trkpt>
      <trkpt lat="57.68671" lon="-4.68773">
        <ele>169</ele>
        <time>2021-03-20T22:28:22Z</time>
      </trkpt>
      <trkpt lat="57.68682" lon="-4.68827">
        <ele>169.57</ele>
        <time>2021-03-20T22:28:27Z</time>
      </trkpt>
      <trkpt lat="57.68697" lon="-4.6891">
        <ele>170.1</ele>
        <time>2021-03-20T22:28:32Z</time>
      </trkpt>
      <trkpt lat="57.68712" lon="-4.69033">
        <ele>171.73</ele>
        <time>2021-03-20T22:28:36Z</time>
      </trkpt>
      <trkpt lat="57.68713" lon="-4.69168">
        <ele>175.01</ele>
        <time>2021-03-20T22:28:41Z</time>
      </trkpt>
      <trkpt lat="57.68706" lon="-4.69332">
        <ele>177.28</ele>
        <time>2021-03-20T22:28:46Z</time>
      </trkpt>
      <trkpt lat="57.68695" lon="-4.69505">
        <ele>179.09</ele>
        <time>2021-03-20T22:28:51Z</time>
      </trkpt>
      <trkpt lat="57.68693" lon="-4.69652">
        <ele>177.8</ele>
        <time>2021-03-20T22:28:56Z</time>
      </trkpt>
      <trkpt lat="57.68695" lon="-4.69834">
        <ele>180.01</ele>
        <time>2021-03-20T22:29:01Z</time>
      </trkpt>
      <trkpt lat="57.68709" lon="-4.69923">
        <ele>180.52</ele>
        <time>2021-03-20T22:29:05Z</time>
      </trkpt>
      <trkpt lat="57.68742" lon="-4.70052">
        <ele>181.3</ele>
        <time>2021-03-20T22:29:10Z</time>
      </trkpt>
      <trkpt lat="57.68786" lon="-4.70195">
        <ele>182</ele>
        <time>2021-03-20T22:29:15Z</time>
      </trkpt>
      <trkpt lat="57.6883" lon="-4.70301">
        <ele>182.98</ele>
        <time>2021-03-20T22:29:20Z</time>
      </trkpt>
      <trkpt lat="57.68896" lon="-4.70429">
        <ele>184.24</ele>
        <time>2021-03-20T22:29:25Z</time>
      </trkpt>
      <trkpt lat="57.68947" lon="-4.7052">
        <ele>185.12</ele>
        <time>2021-03-20T22:29:30Z</time>
      </trkpt>
      <trkpt lat="57.69012" lon="-4.70627">
        <ele>186.27</ele>
        <time>2021-03-20T22:29:35Z</time>
      </trkpt>
      <trkpt lat="57.69072" lon="-4.70713">
        <ele>187.82</ele>
        <time>2021-03-20T22:29:39Z</time>
      </trkpt>
      <trkpt lat="57.6914" lon="-4.70822">
        <ele>189.44</ele>
        <time>2021-03-20T22:29:44Z</time>
      </trkpt>
      <trkpt lat="57.69208" lon="-4.70965">
        <ele>190.08</ele>
        <time>2021-03-20T22:29:49Z</time>
      </trkpt>
      <trkpt lat="57.69304" lon="-4.71254">
        <ele>193.74</ele>
        <time>2021-03-20T22:29:54Z</time>
      </trkpt>
      <trkpt lat="57.69347" lon="-4.71391">
        <ele>194.32</ele>
        <time>2021-03-20T22:29:59Z</time>
      </trkpt>
      <trkpt lat="57.69402" lon="-4.71498">
        <ele>197.51</ele>
        <time>2021-03-20T22:30:04Z</time>
      </trkpt>
      <trkpt lat="57.69571" lon="-4.71786">
        <ele>197.53</ele>
        <time>2021-03-20T22:30:08Z</time>
      </trkpt>
      <trkpt lat="57.69632" lon="-4.71895">
        <ele>200.11</ele>
        <time>2021-03-20T22:30:13Z</time>
      </trkpt>
      <trkpt lat="57.69685" lon="-4.72016">
        <ele>201.71</ele>
        <time>2021-03-20T22:30:18Z</time>
      </trkpt>
      <trkpt lat="57.69722" lon="-4.72155">
        <ele>202</ele>
        <time>2021-03-20T22:30:23Z</time>
      </trkpt>
      <trkpt lat="57.69758" lon="-4.72315">
        <ele>202.29</ele>
        <time>2021-03-20T22:30:28Z</time>
      </trkpt>
      <trkpt lat="57.69778" lon="-4.72471">
        <ele>203.99</ele>
        <time>2021-03-20T22:30:33Z</time>
      </trkpt>
      <trkpt lat="57.69785" lon="-4.72613">
        <ele>205.76</ele>
        <time>2021-03-20T22:30:37Z</time>
      </trkpt>
      <trkpt lat="57.69784" lon="-4.72785">
        <ele>207.48</ele>
        <time>2021-03-20T22:30:42Z</time>
      </trkpt>
      <trkpt lat="57.69775" lon="-4.72918">
        <ele>207.83</ele>
        <time>2021-03-20T22:30:47Z</time>
      </trkpt>
      <trkpt lat="57.69756" lon="-4.7306">
        <ele>207.08</ele>
        <time>2021-03-20T22:30:52Z</time>
      </trkpt>
      <trkpt lat="57.69739" lon="-4.73158">
        <ele>206.41</ele>
        <time>2021-03-20T22:30:57Z</time>
      </trkpt>
      <trkpt lat="57.69704" lon="-4.73312">
        <ele>209.65</ele>
        <time>2021-03-20T22:31:02Z</time>
      </trkpt>
      <trkpt lat="57.69646" lon="-4.73525">
        <ele>212.84</ele>
        <time>2021-03-20T22:31:06Z</time>
      </trkpt>
      <trkpt lat="57.69604" lon="-4.73617">
        <ele>212.33</ele>
        <time>2021-03-20T22:31:11Z</time>
      </trkpt>
      <trkpt lat="57.69452" lon="-4.73817">
        <ele>211</ele>
        <time>2021-03-20T22:31:16Z</time>
      </trkpt>
      <trkpt lat="57.6938" lon="-4.73925">
        <ele>210.34</ele>
        <time>2021-03-20T22:31:21Z</time>
      </trkpt>
      <trkpt lat="57.69332" lon="-4.74018">
        <ele>210.43</ele>
        <time>2021-03-20T22:31:26Z</time>
      </trkpt>
      <trkpt lat="57.69302" lon="-4.74127">
        <ele>210.24</ele>
        <time>2021-03-20T22:31:31Z</time>
      </trkpt>
      <trkpt lat="57.69267" lon="-4.74349">
        <ele>212.38</ele>
        <time>2021-03-20T22:31:36Z</time>
      </trkpt>
      <trkpt lat="57.69259" lon="-4.74541">
        <ele>215.3</ele>
        <time>2021-03-20T22:31:40Z</time>
      </trkpt>
      <trkpt lat="57.69246" lon="-4.74652">
        <ele>216.8</ele>
        <time>2021-03-20T22:31:45Z</time>
      </trkpt>
      <trkpt lat="57.69223" lon="-4.74781">
        <ele>218.84</ele>
        <time>2021-03-20T22:31:50Z</time>
      </trkpt>
      <trkpt lat="57.69186" lon="-4.74953">
        <ele>220.41</ele>
        <time>2021-03-20T22:31:55Z</time>
      </trkpt>
      <trkpt lat="57.69163" lon="-4.75124">
        <ele>221.8</ele>
        <time>2021-03-20T22:32:00Z</time>
      </trkpt>
      <trkpt lat="57.69141" lon="-4.75458">
        <ele>226.35</ele>
        <time>2021-03-20T22:32:05Z</time>
      </trkpt>
      <trkpt lat="57.69143" lon="-4.75611">
        <ele>223.61</ele>
        <time>2021-03-20T22:32:09Z</time>
      </trkpt>
      <trkpt lat="57.69156" lon="-4.75744">
        <ele>224.56</ele>
        <time>2021-03-20T22:32:14Z</time>
      </trkpt>
      <trkpt lat="57.69174" lon="-4.75864">
        <ele>225.74</ele>
        <time>2021-03-20T22:32:19Z</time>
      </trkpt>
      <trkpt lat="57.69246" lon="-4.76292">
        <ele>227.24</ele>
        <time>2021-03-20T22:32:24Z</time>
      </trkpt>
      <trkpt lat="57.69303" lon="-4.76661">
        <ele>227.09</ele>
        <time>2021-03-20T22:32:29Z</time>
      </trkpt>
      <trkpt lat="57.69311" lon="-4.76729">
        <ele>228.04</ele>
        <time>2021-03-20T22:32:34Z</time>
      </trkpt>
      <trkpt lat="57.69314" lon="-4.76783">
        <ele>228.88</ele>
        <time>2021-03-20T22:32:38Z</time>
      </trkpt>
      <trkpt lat="57.69313" lon="-4.76847">
        <ele>229.73</ele>
        <time>2021-03-20T22:32:43Z</time>
      </trkpt>
      <trkpt lat="57.69308" lon="-4.76898">
        <ele>230.21</ele>
        <time>2021-03-20T22:32:48Z</time>
      </trkpt>
      <trkpt lat="57.69298" lon="-4.76952">
        <ele>231.81</ele>
        <time>2021-03-20T22:32:53Z</time>
      </trkpt>
      <trkpt lat="57.69264" lon="-4.77082">
        <ele>235.48</ele>
        <time>2021-03-20T22:32:58Z</time>
      </trkpt>
      <trkpt lat="57.69255" lon="-4.77137">
        <ele>235.81</ele>
        <time>2021-03-20T22:33:03Z</time>
      </trkpt>
      <trkpt lat="57.69249" lon="-4.77222">
        <ele>237.08</ele>
        <time>2021-03-20T22:33:07Z</time>
      </trkpt>
      <trkpt lat="57.69254" lon="-4.77308">
        <ele>240.79</ele>
        <time>2021-03-20T22:33:12Z</time>
      </trkpt>
      <trkpt lat="57.69273" lon="-4.77407">
        <ele>243.67</ele>
        <time>2021-03-20T22:33:17Z</time>
      </trkpt>
      <trkpt lat="57.69299" lon="-4.77492">
        <ele>244.87</ele>
        <time>2021-03-20T22:33:22Z</time>
      </trkpt>
      <trkpt lat="57.69314" lon="-4.77571">
        <ele>245.35</ele>
        <time>2021-03-20T22:33:27Z</time>
      </trkpt>
      <trkpt lat="57.69319" lon="-4.77647">
        <ele>247.82</ele>
        <time>2021-03-20T22:33:32Z</time>
      </trkpt>
      <trkpt lat="57.69317" lon="-4.77832">
        <ele>255.72</ele>
        <time>2021-03-20T22:33:37Z</time>
      </trkpt>
      <trkpt lat="57.69321" lon="-4.77881">
        <ele>256.69</ele>
        <time>2021-03-20T22:33:41Z</time>
      </trkpt>
      <trkpt lat="57.69332" lon="-4.77941">
        <ele>258.04</ele>
        <time>2021-03-20T22:33:46Z</time>
      </trkpt>
      <trkpt lat="57.69371" lon="-4.78077">
        <ele>258.95</ele>
        <time>2021-03-20T22:33:51Z</time>
      </trkpt>
      <trkpt lat="57.69389" lon="-4.78188">
        <ele>258.94</ele>
        <time>2021-03-20T22:33:56Z</time>
      </trkpt>
      <trkpt lat="57.6942" lon="-4.78307">
        <ele>260.89</ele>
        <time>2021-03-20T22:34:01Z</time>
      </trkpt>
      <trkpt lat="57.69453" lon="-4.78413">
        <ele>256.8</ele>
        <time>2021-03-20T22:34:06Z</time>
      </trkpt>
      <trkpt lat="57.69465" lon="-4.78474">
        <ele>256.37</ele>
        <time>2021-03-20T22:34:10Z</time>
      </trkpt>
      <trkpt lat="57.69472" lon="-4.78535">
        <ele>256.3</ele>
        <time>2021-03-20T22:34:15Z</time>
      </trkpt>
      <trkpt lat="57.69472" lon="-4.78654">
        <ele>259.03</ele>
        <time>2021-03-20T22:34:20Z</time>
      </trkpt>
      <trkpt lat="57.69478" lon="-4.78758">
        <ele>259.55</ele>
        <time>2021-03-20T22:34:25Z</time>
      </trkpt>
      <trkpt lat="57.69498" lon="-4.78853">
        <ele>262.21</ele>
        <time>2021-03-20T22:34:30Z</time>
      </trkpt>
      <trkpt lat="57.69519" lon="-4.7897">
        <ele>259.31</ele>
        <time>2021-03-20T22:34:35Z</time>
      </trkpt>
      <trkpt lat="57.6953" lon="-4.79107">
        <ele>256.61</ele>
        <time>2021-03-20T22:34:39Z</time>
      </trkpt>
      <trkpt lat="57.69563" lon="-4.79424">
        <ele>257.23</ele>
        <time>2021-03-20T22:34:44Z</time>
      </trkpt>
      <trkpt lat="57.69576" lon="-4.79501">
        <ele>256.83</ele>
        <time>2021-03-20T22:34:49Z</time>
      </trkpt>
      <trkpt lat="57.69594" lon="-4.79563">
        <ele>257.12</ele>
        <time>2021-03-20T22:34:54Z</time>
      </trkpt>
      <trkpt lat="57.69635" lon="-4.79691">
        <ele>258.23</ele>
        <time>2021-03-20T22:34:59Z</time>
      </trkpt>
      <trkpt lat="57.69688" lon="-4.79969">
        <ele>258.79</ele>
        <time>2021-03-20T22:35:04Z</time>
      </trkpt>
      <trkpt lat="57.69733" lon="-4.80122">
        <ele>261.23</ele>
        <time>2021-03-20T22:35:08Z</time>
      </trkpt>
      <trkpt lat="57.69804" lon="-4.80327">
        <ele>259.99</ele>
        <time>2021-03-20T22:35:13Z</time>
      </trkpt>
      <trkpt lat="57.69897" lon="-4.80678">
        <ele>263.34</ele>
        <time>2021-03-20T22:35:18Z</time>
      </trkpt>
      <trkpt lat="57.69963" lon="-4.80878">
        <ele>266.18</ele>
        <time>2021-03-20T22:35:23Z</time>
      </trkpt>
      <trkpt lat="57.70012" lon="-4.81072">
        <ele>267.15</ele>
        <time>2021-03-20T22:35:28Z</time>
      </trkpt>
      <trkpt lat="57.70038" lon="-4.81152">
        <ele>270.15</ele>
        <time>2021-03-20T22:35:33Z</time>
      </trkpt>
      <trkpt lat="57.70179" lon="-4.81557">
        <ele>261.48</ele>
        <time>2021-03-20T22:35:38Z</time>
      </trkpt>
      <trkpt lat="57.70218" lon="-4.81673">
        <ele>261.39</ele>
        <time>2021-03-20T22:35:42Z</time>
      </trkpt>
      <trkpt lat="57.70301" lon="-4.81931">
        <ele>257.33</ele>
        <time>2021-03-20T22:35:47Z</time>
      </trkpt>
      <trkpt lat="57.70356" lon="-4.82077">
        <ele>258.71</ele>
        <time>2021-03-20T22:35:52Z</time>
      </trkpt>
      <trkpt lat="57.70412" lon="-4.8226">
        <ele>257.84</ele>
        <time>2021-03-20T22:35:57Z</time>
      </trkpt>
      <trkpt lat="57.70483" lon="-4.82441">
        <ele>258.12</ele>
        <time>2021-03-20T22:36:02Z</time>
      </trkpt>
      <trkpt lat="57.70519" lon="-4.82561">
        <ele>259.24</ele>
        <time>2021-03-20T22:36:07Z</time>
      </trkpt>
      <trkpt lat="57.70561" lon="-4.82707">
        <ele>260.63</ele>
        <time>2021-03-20T22:36:11Z</time>
      </trkpt>
      <trkpt lat="57.70599" lon="-4.82823">
        <ele>259.54</ele>
        <time>2021-03-20T22:36:16Z</time>
      </trkpt>
      <trkpt lat="57.70631" lon="-4.82894">
        <ele>260.85</ele>
        <time>2021-03-20T22:36:21Z</time>
      </trkpt>
      <trkpt lat="57.70727" lon="-4.83046">
        <ele>258.33</ele>
        <time>2021-03-20T22:36:26Z</time>
      </trkpt>
      <trkpt lat="57.70772" lon="-4.83132">
        <ele>258.36</ele>
        <time>2021-03-20T22:36:31Z</time>
      </trkpt>
      <trkpt lat="57.70807" lon="-4.83227">
        <ele>257.29</ele>
        <time>2021-03-20T22:36:36Z</time>
      </trkpt>
      <trkpt lat="57.70854" lon="-4.83409">
        <ele>259.51</ele>
        <time>2021-03-20T22:36:40Z</time>
      </trkpt>
      <trkpt lat="57.70899" lon="-4.83553">
        <ele>260.23</ele>
        <time>2021-03-20T22:36:45Z</time>
      </trkpt>
      <trkpt lat="57.70952" lon="-4.8369">
        <ele>259.7</ele>
        <time>2021-03-20T22:36:50Z</time>
      </trkpt>
      <trkpt lat="57.71007" lon="-4.8381">
        <ele>258.76</ele>
        <time>2021-03-20T22:36:55Z</time>
      </trkpt>
      <trkpt lat="57.71063" lon="-4.83946">
        <ele>258.5</ele>
        <time>2021-03-20T22:37:00Z</time>
      </trkpt>
      <trkpt lat="57.71179" lon="-4.84246">
        <ele>258.53</ele>
        <time>2021-03-20T22:37:05Z</time>
      </trkpt>
      <trkpt lat="57.71217" lon="-4.84365">
        <ele>257.85</ele>
        <time>2021-03-20T22:37:10Z</time>
      </trkpt>
      <trkpt lat="57.71217" lon="-4.84365">
        <ele>257.85</ele>
        <time>2021-03-20T22:37:10Z</time>
      </trkpt>
      <trkpt lat="57.71234" lon="-4.84417">
        <ele>257.16</ele>
        <time>2021-03-20T22:37:16Z</time>
      </trkpt>
      <trkpt lat="57.71344" lon="-4.84841">
        <ele>257.49</ele>
        <time>2021-03-20T22:37:22Z</time>
      </trkpt>
      <trkpt lat="57.71374" lon="-4.84951">
        <ele>258.14</ele>
        <time>2021-03-20T22:37:28Z</time>
      </trkpt>
      <trkpt lat="57.71418" lon="-4.85086">
        <ele>256.95</ele>
        <time>2021-03-20T22:37:34Z</time>
      </trkpt>
      <trkpt lat="57.7147" lon="-4.85227">
        <ele>257.35</ele>
        <time>2021-03-20T22:37:40Z</time>
      </trkpt>
      <trkpt lat="57.7151" lon="-4.85323">
        <ele>257.52</ele>
        <time>2021-03-20T22:37:46Z</time>
      </trkpt>
      <trkpt lat="57.71617" lon="-4.85543">
        <ele>262.31</ele>
        <time>2021-03-20T22:37:53Z</time>
      </trkpt>
      <trkpt lat="57.71639" lon="-4.85611">
        <ele>263.96</ele>
        <time>2021-03-20T22:37:59Z</time>
      </trkpt>
      <trkpt lat="57.71658" lon="-4.85709">
        <ele>262.54</ele>
        <time>2021-03-20T22:38:05Z</time>
      </trkpt>
      <trkpt lat="57.71663" lon="-4.85808">
        <ele>263.73</ele>
        <time>2021-03-20T22:38:11Z</time>
      </trkpt>
      <trkpt lat="57.71651" lon="-4.85931">
        <ele>265.36</ele>
        <time>2021-03-20T22:38:17Z</time>
      </trkpt>
      <trkpt lat="57.71626" lon="-4.86145">
        <ele>262.26</ele>
        <time>2021-03-20T22:38:23Z</time>
      </trkpt>
      <trkpt lat="57.71614" lon="-4.86301">
        <ele>263.83</ele>
        <time>2021-03-20T22:38:30Z</time>
      </trkpt>
      <trkpt lat="57.71615" lon="-4.86424">
        <ele>264.96</ele>
        <time>2021-03-20T22:38:36Z</time>
      </trkpt>
      <trkpt lat="57.71628" lon="-4.86537">
        <ele>264</ele>
        <time>2021-03-20T22:38:42Z</time>
      </trkpt>
      <trkpt lat="57.7164" lon="-4.86595">
        <ele>263</ele>
        <time>2021-03-20T22:38:48Z</time>
      </trkpt>
      <trkpt lat="57.71669" lon="-4.86705">
        <ele>262</ele>
        <time>2021-03-20T22:38:54Z</time>
      </trkpt>
      <trkpt lat="57.71736" lon="-4.86892">
        <ele>262.14</ele>
        <time>2021-03-20T22:39:00Z</time>
      </trkpt>
      <trkpt lat="57.71841" lon="-4.87235">
        <ele>259.29</ele>
        <time>2021-03-20T22:39:06Z</time>
      </trkpt>
      <trkpt lat="57.71896" lon="-4.87404">
        <ele>255.96</ele>
        <time>2021-03-20T22:39:13Z</time>
      </trkpt>
      <trkpt lat="57.71952" lon="-4.87537">
        <ele>257.52</ele>
        <time>2021-03-20T22:39:19Z</time>
      </trkpt>
      <trkpt lat="57.72017" lon="-4.87666">
        <ele>257.77</ele>
        <time>2021-03-20T22:39:25Z</time>
      </trkpt>
      <trkpt lat="57.72121" lon="-4.87862">
        <ele>261</ele>
        <time>2021-03-20T22:39:31Z</time>
      </trkpt>
      <trkpt lat="57.72162" lon="-4.87956">
        <ele>260.42</ele>
        <time>2021-03-20T22:39:37Z</time>
      </trkpt>
      <trkpt lat="57.72194" lon="-4.88093">
        <ele>261</ele>
        <time>2021-03-20T22:39:43Z</time>
      </trkpt>
      <trkpt lat="57.7222" lon="-4.88274">
        <ele>261</ele>
        <time>2021-03-20T22:39:49Z</time>
      </trkpt>
      <trkpt lat="57.72278" lon="-4.88698">
        <ele>262.98</ele>
        <time>2021-03-20T22:39:56Z</time>
      </trkpt>
      <trkpt lat="57.72309" lon="-4.88883">
        <ele>262.78</ele>
        <time>2021-03-20T22:40:02Z</time>
      </trkpt>
      <trkpt lat="57.72347" lon="-4.89023">
        <ele>261.5</ele>
        <time>2021-03-20T22:40:08Z</time>
      </trkpt>
      <trkpt lat="57.72434" lon="-4.89227">
        <ele>263.5</ele>
        <time>2021-03-20T22:40:14Z</time>
      </trkpt>
      <trkpt lat="57.72502" lon="-4.89402">
        <ele>266.07</ele>
        <time>2021-03-20T22:40:20Z</time>
      </trkpt>
      <trkpt lat="57.72588" lon="-4.89647">
        <ele>273.17</ele>
        <time>2021-03-20T22:40:26Z</time>
      </trkpt>
      <trkpt lat="57.72657" lon="-4.89861">
        <ele>277.3</ele>
        <time>2021-03-20T22:40:32Z</time>
      </trkpt>
      <trkpt lat="57.72712" lon="-4.90085">
        <ele>278.23</ele>
        <time>2021-03-20T22:40:39Z</time>
      </trkpt>
      <trkpt lat="57.72762" lon="-4.90305">
        <ele>278.92</ele>
        <time>2021-03-20T22:40:45Z</time>
      </trkpt>
      <trkpt lat="57.72808" lon="-4.90476">
        <ele>280.04</ele>
        <time>2021-03-20T22:40:51Z</time>
      </trkpt>
      <trkpt lat="57.72922" lon="-4.90829">
        <ele>278.66</ele>
        <time>2021-03-20T22:40:57Z</time>
      </trkpt>
      <trkpt lat="57.72959" lon="-4.90927">
        <ele>277.87</ele>
        <time>2021-03-20T22:41:03Z</time>
      </trkpt>
      <trkpt lat="57.73032" lon="-4.91053">
        <ele>277.83</ele>
        <time>2021-03-20T22:41:09Z</time>
      </trkpt>
      <trkpt lat="57.73072" lon="-4.91129">
        <ele>277.72</ele>
        <time>2021-03-20T22:41:15Z</time>
      </trkpt>
      <trkpt lat="57.73203" lon="-4.9144">
        <ele>278.46</ele>
        <time>2021-03-20T22:41:22Z</time>
      </trkpt>
      <trkpt lat="57.73257" lon="-4.91594">
        <ele>278.19</ele>
        <time>2021-03-20T22:41:28Z</time>
      </trkpt>
      <trkpt lat="57.73298" lon="-4.91749">
        <ele>275.49</ele>
        <time>2021-03-20T22:41:34Z</time>
      </trkpt>
      <trkpt lat="57.73376" lon="-4.92144">
        <ele>273.44</ele>
        <time>2021-03-20T22:41:40Z</time>
      </trkpt>
      <trkpt lat="57.73421" lon="-4.92413">
        <ele>271.17</ele>
        <time>2021-03-20T22:41:46Z</time>
      </trkpt>
      <trkpt lat="57.73536" lon="-4.9313">
        <ele>275.3</ele>
        <time>2021-03-20T22:41:52Z</time>
      </trkpt>
      <trkpt lat="57.73548" lon="-4.93229">
        <ele>276.74</ele>
        <time>2021-03-20T22:41:59Z</time>
      </trkpt>
      <trkpt lat="57.73554" lon="-4.93357">
        <ele>276.07</ele>
        <time>2021-03-20T22:42:05Z</time>
      </trkpt>
      <trkpt lat="57.73555" lon="-4.93478">
        <ele>278.14</ele>
        <time>2021-03-20T22:42:11Z</time>
      </trkpt>
      <trkpt lat="57.73552" lon="-4.93635">
        <ele>275.77</ele>
        <time>2021-03-20T22:42:17Z</time>
      </trkpt>
      <trkpt lat="57.73547" lon="-4.93798">
        <ele>276.12</ele>
        <time>2021-03-20T22:42:23Z</time>
      </trkpt>
      <trkpt lat="57.7356" lon="-4.93981">
        <ele>276.44</ele>
        <time>2021-03-20T22:42:29Z</time>
      </trkpt>
      <trkpt lat="57.73583" lon="-4.94153">
        <ele>277.97</ele>
        <time>2021-03-20T22:42:35Z</time>
      </trkpt>
      <trkpt lat="57.73604" lon="-4.94375">
        <ele>277.26</ele>
        <time>2021-03-20T22:42:42Z</time>
      </trkpt>
      <trkpt lat="57.73711" lon="-4.95346">
        <ele>271.73</ele>
        <time>2021-03-20T22:42:48Z</time>
      </trkpt>
      <trkpt lat="57.73775" lon="-4.95964">
        <ele>267.2</ele>
        <time>2021-03-20T22:42:54Z</time>
      </trkpt>
      <trkpt lat="57.73805" lon="-4.96306">
        <ele>260.99</ele>
        <time>2021-03-20T22:43:00Z</time>
      </trkpt>
      <trkpt lat="57.73835" lon="-4.96453">
        <ele>261.16</ele>
        <time>2021-03-20T22:43:06Z</time>
      </trkpt>
      <trkpt lat="57.73933" lon="-4.96873">
        <ele>258.16</ele>
        <time>2021-03-20T22:43:12Z</time>
      </trkpt>
      <trkpt lat="57.7399" lon="-4.97097">
        <ele>257.3</ele>
        <time>2021-03-20T22:43:18Z</time>
      </trkpt>
      <trkpt lat="57.74043" lon="-4.97236">
        <ele>255.51</ele>
        <time>2021-03-20T22:43:25Z</time>
      </trkpt>
      <trkpt lat="57.74108" lon="-4.97371">
        <ele>252.54</ele>
        <time>2021-03-20T22:43:31Z</time>
      </trkpt>
      <trkpt lat="57.74265" lon="-4.97595">
        <ele>248</ele>
        <time>2021-03-20T22:43:37Z</time>
      </trkpt>
      <trkpt lat="57.74345" lon="-4.97686">
        <ele>247.84</ele>
        <time>2021-03-20T22:43:43Z</time>
      </trkpt>
      <trkpt lat="57.7454" lon="-4.9793">
        <ele>238.72</ele>
        <time>2021-03-20T22:43:49Z</time>
      </trkpt>
      <trkpt lat="57.7459" lon="-4.98007">
        <ele>235.28</ele>
        <time>2021-03-20T22:43:55Z</time>
      </trkpt>
      <trkpt lat="57.74641" lon="-4.98101">
        <ele>235.52</ele>
        <time>2021-03-20T22:44:01Z</time>
      </trkpt>
      <trkpt lat="57.747" lon="-4.98247">
        <ele>235.85</ele>
        <time>2021-03-20T22:44:08Z</time>
      </trkpt>
      <trkpt lat="57.7476" lon="-4.9841">
        <ele>232.03</ele>
        <time>2021-03-20T22:44:14Z</time>
      </trkpt>
      <trkpt lat="57.74843" lon="-4.98644">
        <ele>224.19</ele>
        <time>2021-03-20T22:44:20Z</time>
      </trkpt>
      <trkpt lat="57.74907" lon="-4.98839">
        <ele>220.29</ele>
        <time>2021-03-20T22:44:26Z</time>
      </trkpt>
      <trkpt lat="57.74962" lon="-4.99066">
        <ele>214.77</ele>
        <time>2021-03-20T22:44:32Z</time>
      </trkpt>
      <trkpt lat="57.75006" lon="-4.99327">
        <ele>214.23</ele>
        <time>2021-03-20T22:44:38Z</time>
      </trkpt>
      <trkpt lat="57.75058" lon="-4.99612">
        <ele>212.05</ele>
        <time>2021-03-20T22:44:44Z</time>
      </trkpt>
      <trkpt lat="57.75098" lon="-4.99877">
        <ele>207</ele>
        <time>2021-03-20T22:44:51Z</time>
      </trkpt>
      <trkpt lat="57.75191" lon="-5.0042">
        <ele>196.49</ele>
        <time>2021-03-20T22:44:57Z</time>
      </trkpt>
      <trkpt lat="57.75233" lon="-5.00759">
        <ele>190.74</ele>
        <time>2021-03-20T22:45:03Z</time>
      </trkpt>
      <trkpt lat="57.75262" lon="-5.00968">
        <ele>187.77</ele>
        <time>2021-03-20T22:45:09Z</time>
      </trkpt>
      <trkpt lat="57.75278" lon="-5.01077">
        <ele>185.31</ele>
        <time>2021-03-20T22:45:15Z</time>
      </trkpt>
      <trkpt lat="57.75307" lon="-5.01248">
        <ele>185.52</ele>
        <time>2021-03-20T22:45:21Z</time>
      </trkpt>
      <trkpt lat="57.75385" lon="-5.0148">
        <ele>172.94</ele>
        <time>2021-03-20T22:45:28Z</time>
      </trkpt>
      <trkpt lat="57.75487" lon="-5.01747">
        <ele>172.38</ele>
        <time>2021-03-20T22:45:34Z</time>
      </trkpt>
      <trkpt lat="57.75593" lon="-5.01994">
        <ele>171.2</ele>
        <time>2021-03-20T22:45:40Z</time>
      </trkpt>
      <trkpt lat="57.75712" lon="-5.02245">
        <ele>153.83</ele>
        <time>2021-03-20T22:45:46Z</time>
      </trkpt>
      <trkpt lat="57.7575" lon="-5.02316">
        <ele>151.41</ele>
        <time>2021-03-20T22:45:52Z</time>
      </trkpt>
      <trkpt lat="57.75808" lon="-5.02407">
        <ele>151.2</ele>
        <time>2021-03-20T22:45:58Z</time>
      </trkpt>
      <trkpt lat="57.75842" lon="-5.02444">
        <ele>150.46</ele>
        <time>2021-03-20T22:46:04Z</time>
      </trkpt>
      <trkpt lat="57.75897" lon="-5.02495">
        <ele>145.2</ele>
        <time>2021-03-20T22:46:11Z</time>
      </trkpt>
      <trkpt lat="57.75939" lon="-5.02554">
        <ele>137.81</ele>
        <time>2021-03-20T22:46:17Z</time>
      </trkpt>
      <trkpt lat="57.76019" lon="-5.02749">
        <ele>128.46</ele>
        <time>2021-03-20T22:46:23Z</time>
      </trkpt>
      <trkpt lat="57.76072" lon="-5.02868">
        <ele>125.06</ele>
        <time>2021-03-20T22:46:29Z</time>
      </trkpt>
      <trkpt lat="57.76132" lon="-5.02971">
        <ele>117.9</ele>
        <time>2021-03-20T22:46:35Z</time>
      </trkpt>
      <trkpt lat="57.76219" lon="-5.03071">
        <ele>106.39</ele>
        <time>2021-03-20T22:46:41Z</time>
      </trkpt>
      <trkpt lat="57.76252" lon="-5.03125">
        <ele>107.06</ele>
        <time>2021-03-20T22:46:47Z</time>
      </trkpt>
      <trkpt lat="57.76353" lon="-5.03273">
        <ele>102.34</ele>
        <time>2021-03-20T22:46:54Z</time>
      </trkpt>
      <trkpt lat="57.7644" lon="-5.03384">
        <ele>93.03</ele>
        <time>2021-03-20T22:47:00Z</time>
      </trkpt>
      <trkpt lat="57.76516" lon="-5.0347">
        <ele>84.34</ele>
        <time>2021-03-20T22:47:06Z</time>
      </trkpt>
      <trkpt lat="57.76565" lon="-5.03513">
        <ele>78.55</ele>
        <time>2021-03-20T22:47:12Z</time>
      </trkpt>
      <trkpt lat="57.76614" lon="-5.03538">
        <ele>75.78</ele>
        <time>2021-03-20T22:47:18Z</time>
      </trkpt>
      <trkpt lat="57.76723" lon="-5.03577">
        <ele>69.98</ele>
        <time>2021-03-20T22:47:24Z</time>
      </trkpt>
      <trkpt lat="57.76901" lon="-5.03655">
        <ele>61.3</ele>
        <time>2021-03-20T22:47:30Z</time>
      </trkpt>
      <trkpt lat="57.77113" lon="-5.03643">
        <ele>59.54</ele>
        <time>2021-03-20T22:47:37Z</time>
      </trkpt>
      <trkpt lat="57.77399" lon="-5.0362">
        <ele>48.01</ele>
        <time>2021-03-20T22:47:43Z</time>
      </trkpt>
      <trkpt lat="57.77623" lon="-5.03582">
        <ele>45.72</ele>
        <time>2021-03-20T22:47:49Z</time>
      </trkpt>
      <trkpt lat="57.77784" lon="-5.03583">
        <ele>47.46</ele>
        <time>2021-03-20T22:47:55Z</time>
      </trkpt>
      <trkpt lat="57.77863" lon="-5.0361">
        <ele>35.34</ele>
        <time>2021-03-20T22:48:01Z</time>
      </trkpt>
      <trkpt lat="57.77983" lon="-5.03642">
        <ele>40.08</ele>
        <time>2021-03-20T22:48:07Z</time>
      </trkpt>
      <trkpt lat="57.78115" lon="-5.03685">
        <ele>40.39</ele>
        <time>2021-03-20T22:48:13Z</time>
      </trkpt>
      <trkpt lat="57.78198" lon="-5.03714">
        <ele>40.89</ele>
        <time>2021-03-20T22:48:20Z</time>
      </trkpt>
      <trkpt lat="57.78282" lon="-5.03752">
        <ele>44.44</ele>
        <time>2021-03-20T22:48:26Z</time>
      </trkpt>
      <trkpt lat="57.78382" lon="-5.03827">
        <ele>38.52</ele>
        <time>2021-03-20T22:48:32Z</time>
      </trkpt>
      <trkpt lat="57.78454" lon="-5.03895">
        <ele>39.31</ele>
        <time>2021-03-20T22:48:38Z</time>
      </trkpt>
      <trkpt lat="57.78525" lon="-5.0395">
        <ele>42.13</ele>
        <time>2021-03-20T22:48:44Z</time>
      </trkpt>
      <trkpt lat="57.78655" lon="-5.04044">
        <ele>47.36</ele>
        <time>2021-03-20T22:48:50Z</time>
      </trkpt>
      <trkpt lat="57.78913" lon="-5.04251">
        <ele>42.28</ele>
        <time>2021-03-20T22:48:57Z</time>
      </trkpt>
      <trkpt lat="57.7904" lon="-5.04339">
        <ele>40.81</ele>
        <time>2021-03-20T22:49:03Z</time>
      </trkpt>
      <trkpt lat="57.79134" lon="-5.0442">
        <ele>35.29</ele>
        <time>2021-03-20T22:49:09Z</time>
      </trkpt>
      <trkpt lat="57.79198" lon="-5.04497">
        <ele>32.79</ele>
        <time>2021-03-20T22:49:15Z</time>
      </trkpt>
      <trkpt lat="57.79252" lon="-5.04579">
        <ele>31.7</ele>
        <time>2021-03-20T22:49:21Z</time>
      </trkpt>
      <trkpt lat="57.79302" lon="-5.0469">
        <ele>26.65</ele>
        <time>2021-03-20T22:49:27Z</time>
      </trkpt>
      <trkpt lat="57.79361" lon="-5.04845">
        <ele>26.57</ele>
        <time>2021-03-20T22:49:33Z</time>
      </trkpt>
      <trkpt lat="57.79495" lon="-5.05007">
        <ele>24.61</ele>
        <time>2021-03-20T22:49:40Z</time>
      </trkpt>
      <trkpt lat="57.79595" lon="-5.05114">
        <ele>24.85</ele>
        <time>2021-03-20T22:49:46Z</time>
      </trkpt>
      <trkpt lat="57.79746" lon="-5.05256">
        <ele>18.82</ele>
        <time>2021-03-20T22:49:52Z</time>
      </trkpt>
      <trkpt lat="57.79965" lon="-5.05453">
        <ele>17</ele>
        <time>2021-03-20T22:49:58Z</time>
      </trkpt>
      <trkpt lat="57.80072" lon="-5.0554">
        <ele>19.35</ele>
        <time>2021-03-20T22:50:04Z</time>
      </trkpt>
      <trkpt lat="57.80146" lon="-5.05576">
        <ele>18.76</ele>
        <time>2021-03-20T22:50:10Z</time>
      </trkpt>
      <trkpt lat="57.80211" lon="-5.05602">
        <ele>17.89</ele>
        <time>2021-03-20T22:50:16Z</time>
      </trkpt>
      <trkpt lat="57.80278" lon="-5.05625">
        <ele>17</ele>
        <time>2021-03-20T22:50:23Z</time>
      </trkpt>
      <trkpt lat="57.80344" lon="-5.05633">
        <ele>16.44</ele>
        <time>2021-03-20T22:50:29Z</time>
      </trkpt>
      <trkpt lat="57.80479" lon="-5.05591">
        <ele>17.32</ele>
        <time>2021-03-20T22:50:35Z</time>
      </trkpt>
      <trkpt lat="57.8057" lon="-5.05602">
        <ele>21.93</ele>
        <time>2021-03-20T22:50:41Z</time>
      </trkpt>
      <trkpt lat="57.80725" lon="-5.05656">
        <ele>20.9</ele>
        <time>2021-03-20T22:50:47Z</time>
      </trkpt>
      <trkpt lat="57.80821" lon="-5.05682">
        <ele>26.2</ele>
        <time>2021-03-20T22:50:53Z</time>
      </trkpt>
      <trkpt lat="57.80999" lon="-5.0574">
        <ele>16.07</ele>
        <time>2021-03-20T22:50:59Z</time>
      </trkpt>
      <trkpt lat="57.81129" lon="-5.05778">
        <ele>14.35</ele>
        <time>2021-03-20T22:51:06Z</time>
      </trkpt>
      <trkpt lat="57.81215" lon="-5.05808">
        <ele>17.83</ele>
        <time>2021-03-20T22:51:12Z</time>
      </trkpt>
      <trkpt lat="57.81304" lon="-5.0586">
        <ele>12.15</ele>
        <time>2021-03-20T22:51:18Z</time>
      </trkpt>
      <trkpt lat="57.81351" lon="-5.05895">
        <ele>11.01</ele>
        <time>2021-03-20T22:51:24Z</time>
      </trkpt>
      <trkpt lat="57.8141" lon="-5.05921">
        <ele>9.52</ele>
        <time>2021-03-20T22:51:30Z</time>
      </trkpt>
      <trkpt lat="57.81462" lon="-5.05922">
        <ele>8.22</ele>
        <time>2021-03-20T22:51:36Z</time>
      </trkpt>
      <trkpt lat="57.81593" lon="-5.05899">
        <ele>9.77</ele>
        <time>2021-03-20T22:51:42Z</time>
      </trkpt>
      <trkpt lat="57.81662" lon="-5.05926">
        <ele>9.18</ele>
        <time>2021-03-20T22:51:49Z</time>
      </trkpt>
      <trkpt lat="57.81715" lon="-5.05985">
        <ele>7</ele>
        <time>2021-03-20T22:51:55Z</time>
      </trkpt>
      <trkpt lat="57.81856" lon="-5.06195">
        <ele>12.74</ele>
        <time>2021-03-20T22:52:01Z</time>
      </trkpt>
      <trkpt lat="57.81891" lon="-5.06226">
        <ele>11.85</ele>
        <time>2021-03-20T22:52:07Z</time>
      </trkpt>
      <trkpt lat="57.81935" lon="-5.06253">
        <ele>11</ele>
        <time>2021-03-20T22:52:13Z</time>
      </trkpt>
      <trkpt lat="57.81972" lon="-5.06266">
        <ele>11</ele>
        <time>2021-03-20T22:52:19Z</time>
      </trkpt>
      <trkpt lat="57.82331" lon="-5.06359">
        <ele>10.17</ele>
        <time>2021-03-20T22:52:26Z</time>
      </trkpt>
      <trkpt lat="57.82518" lon="-5.06437">
        <ele>7</ele>
        <time>2021-03-20T22:52:32Z</time>
      </trkpt>
      <trkpt lat="57.82606" lon="-5.06467">
        <ele>9.01</ele>
        <time>2021-03-20T22:52:38Z</time>
      </trkpt>
      <trkpt lat="57.82787" lon="-5.06545">
        <ele>11.9</ele>
        <time>2021-03-20T22:52:44Z</time>
      </trkpt>
      <trkpt lat="57.82865" lon="-5.06591">
        <ele>20.87</ele>
        <time>2021-03-20T22:52:50Z</time>
      </trkpt>
      <trkpt lat="57.82961" lon="-5.0666">
        <ele>27.12</ele>
        <time>2021-03-20T22:52:56Z</time>
      </trkpt>
      <trkpt lat="57.83052" lon="-5.06747">
        <ele>28.83</ele>
        <time>2021-03-20T22:53:02Z</time>
      </trkpt>
      <trkpt lat="57.8311" lon="-5.06817">
        <ele>22.77</ele>
        <time>2021-03-20T22:53:09Z</time>
      </trkpt>
      <trkpt lat="57.83179" lon="-5.06887">
        <ele>24.16</ele>
        <time>2021-03-20T22:53:15Z</time>
      </trkpt>
      <trkpt lat="57.83252" lon="-5.06967">
        <ele>21.27</ele>
        <time>2021-03-20T22:53:21Z</time>
      </trkpt>
      <trkpt lat="57.83334" lon="-5.07047">
        <ele>18.59</ele>
        <time>2021-03-20T22:53:27Z</time>
      </trkpt>
      <trkpt lat="57.83383" lon="-5.07092">
        <ele>16.91</ele>
        <time>2021-03-20T22:53:33Z</time>
      </trkpt>
      <trkpt lat="57.83424" lon="-5.07123">
        <ele>15.82</ele>
        <time>2021-03-20T22:53:39Z</time>
      </trkpt>
      <trkpt lat="57.83794" lon="-5.07359">
        <ele>19.78</ele>
        <time>2021-03-20T22:53:45Z</time>
      </trkpt>
      <trkpt lat="57.83884" lon="-5.07407">
        <ele>21.4</ele>
        <time>2021-03-20T22:53:52Z</time>
      </trkpt>
      <trkpt lat="57.83975" lon="-5.07476">
        <ele>20.96</ele>
        <time>2021-03-20T22:53:58Z</time>
      </trkpt>
      <trkpt lat="57.84146" lon="-5.07592">
        <ele>23.67</ele>
        <time>2021-03-20T22:54:04Z</time>
      </trkpt>
      <trkpt lat="57.84234" lon="-5.07649">
        <ele>24.2</ele>
        <time>2021-03-20T22:54:10Z</time>
      </trkpt>
      <trkpt lat="57.84292" lon="-5.07673">
        <ele>26.34</ele>
        <time>2021-03-20T22:54:16Z</time>
      </trkpt>
      <trkpt lat="57.84334" lon="-5.07682">
        <ele>26.2</ele>
        <time>2021-03-20T22:54:22Z</time>
      </trkpt>
      <trkpt lat="57.84464" lon="-5.07699">
        <ele>26.25</ele>
        <time>2021-03-20T22:54:28Z</time>
      </trkpt>
      <trkpt lat="57.84528" lon="-5.07716">
        <ele>25.46</ele>
        <time>2021-03-20T22:54:35Z</time>
      </trkpt>
      <trkpt lat="57.8467" lon="-5.07732">
        <ele>23.37</ele>
        <time>2021-03-20T22:54:41Z</time>
      </trkpt>
      <trkpt lat="57.84741" lon="-5.07745">
        <ele>25.01</ele>
        <time>2021-03-20T22:54:47Z</time>
      </trkpt>
      <trkpt lat="57.84793" lon="-5.07758">
        <ele>28.03</ele>
        <time>2021-03-20T22:54:53Z</time>
      </trkpt>
      <trkpt lat="57.84898" lon="-5.07802">
        <ele>29.07</ele>
        <time>2021-03-20T22:54:59Z</time>
      </trkpt>
      <trkpt lat="57.85031" lon="-5.07873">
        <ele>29.9</ele>
        <time>2021-03-20T22:55:05Z</time>
      </trkpt>
      <trkpt lat="57.85101" lon="-5.07918">
        <ele>31.26</ele>
        <time>2021-03-20T22:55:11Z</time>
      </trkpt>
      <trkpt lat="57.8519" lon="-5.08012">
        <ele>35.52</ele>
        <time>2021-03-20T22:55:18Z</time>
      </trkpt>
      <trkpt lat="57.8525" lon="-5.08082">
        <ele>37.41</ele>
        <time>2021-03-20T22:55:24Z</time>
      </trkpt>
      <trkpt lat="57.85317" lon="-5.08153">
        <ele>38.69</ele>
        <time>2021-03-20T22:55:30Z</time>
      </trkpt>
      <trkpt lat="57.85436" lon="-5.08314">
        <ele>50.26</ele>
        <time>2021-03-20T22:55:36Z</time>
      </trkpt>
      <trkpt lat="57.85538" lon="-5.08466">
        <ele>63.09</ele>
        <time>2021-03-20T22:55:42Z</time>
      </trkpt>
      <trkpt lat="57.85576" lon="-5.08531">
        <ele>63.58</ele>
        <time>2021-03-20T22:55:48Z</time>
      </trkpt>
      <trkpt lat="57.85627" lon="-5.08662">
        <ele>52.45</ele>
        <time>2021-03-20T22:55:55Z</time>
      </trkpt>
      <trkpt lat="57.8566" lon="-5.087">
        <ele>54.24</ele>
        <time>2021-03-20T22:56:01Z</time>
      </trkpt>
      <trkpt lat="57.85689" lon="-5.08716">
        <ele>58.31</ele>
        <time>2021-03-20T22:56:07Z</time>
      </trkpt>
      <trkpt lat="57.85753" lon="-5.08724">
        <ele>57.64</ele>
        <time>2021-03-20T22:56:13Z</time>
      </trkpt>
      <trkpt lat="57.85802" lon="-5.08725">
        <ele>58.29</ele>
        <time>2021-03-20T22:56:19Z</time>
      </trkpt>
      <trkpt lat="57.85932" lon="-5.08711">
        <ele>43.6</ele>
        <time>2021-03-20T22:56:25Z</time>
      </trkpt>
      <trkpt lat="57.8601" lon="-5.08693">
        <ele>37.19</ele>
        <time>2021-03-20T22:56:31Z</time>
      </trkpt>
      <trkpt lat="57.86092" lon="-5.08701">
        <ele>37.89</ele>
        <time>2021-03-20T22:56:38Z</time>
      </trkpt>
      <trkpt lat="57.86142" lon="-5.08726">
        <ele>37.77</ele>
        <time>2021-03-20T22:56:44Z</time>
      </trkpt>
      <trkpt lat="57.86323" lon="-5.089">
        <ele>30.18</ele>
        <time>2021-03-20T22:56:50Z</time>
      </trkpt>
      <trkpt lat="57.86419" lon="-5.09012">
        <ele>29.35</ele>
        <time>2021-03-20T22:56:56Z</time>
      </trkpt>
      <trkpt lat="57.86555" lon="-5.09196">
        <ele>27.87</ele>
        <time>2021-03-20T22:57:02Z</time>
      </trkpt>
      <trkpt lat="57.86728" lon="-5.09473">
        <ele>19.36</ele>
        <time>2021-03-20T22:57:08Z</time>
      </trkpt>
      <trkpt lat="57.86781" lon="-5.09532">
        <ele>18.98</ele>
        <time>2021-03-20T22:57:14Z</time>
      </trkpt>
      <trkpt lat="57.86825" lon="-5.09551">
        <ele>21.32</ele>
        <time>2021-03-20T22:57:21Z</time>
      </trkpt>
      <trkpt lat="57.86915" lon="-5.09564">
        <ele>29.48</ele>
        <time>2021-03-20T22:57:27Z</time>
      </trkpt>
      <trkpt lat="57.87012" lon="-5.09587">
        <ele>38.62</ele>
        <time>2021-03-20T22:57:33Z</time>
      </trkpt>
      <trkpt lat="57.87075" lon="-5.09647">
        <ele>45.19</ele>
        <time>2021-03-20T22:57:39Z</time>
      </trkpt>
      <trkpt lat="57.87106" lon="-5.09689">
        <ele>45.79</ele>
        <time>2021-03-20T22:57:45Z</time>
      </trkpt>
      <trkpt lat="57.8713" lon="-5.09732">
        <ele>45.58</ele>
        <time>2021-03-20T22:57:51Z</time>
      </trkpt>
      <trkpt lat="57.87225" lon="-5.09951">
        <ele>42.4</ele>
        <time>2021-03-20T22:57:57Z</time>
      </trkpt>
      <trkpt lat="57.87324" lon="-5.10187">
        <ele>42.88</ele>
        <time>2021-03-20T22:58:04Z</time>
      </trkpt>
      <trkpt lat="57.87443" lon="-5.10534">
        <ele>37.61</ele>
        <time>2021-03-20T22:58:10Z</time>
      </trkpt>
      <trkpt lat="57.8752" lon="-5.10764">
        <ele>32.69</ele>
        <time>2021-03-20T22:58:16Z</time>
      </trkpt>
      <trkpt lat="57.87587" lon="-5.1096">
        <ele>26.72</ele>
        <time>2021-03-20T22:58:22Z</time>
      </trkpt>
      <trkpt lat="57.87721" lon="-5.1138">
        <ele>25.68</ele>
        <time>2021-03-20T22:58:28Z</time>
      </trkpt>
      <trkpt lat="57.87858" lon="-5.11767">
        <ele>27.98</ele>
        <time>2021-03-20T22:58:34Z</time>
      </trkpt>
      <trkpt lat="57.87924" lon="-5.11947">
        <ele>28.69</ele>
        <time>2021-03-20T22:58:40Z</time>
      </trkpt>
      <trkpt lat="57.8802" lon="-5.12215">
        <ele>38.31</ele>
        <time>2021-03-20T22:58:47Z</time>
      </trkpt>
      <trkpt lat="57.8807" lon="-5.12336">
        <ele>42.78</ele>
        <time>2021-03-20T22:58:53Z</time>
      </trkpt>
      <trkpt lat="57.88166" lon="-5.12493">
        <ele>46.64</ele>
        <time>2021-03-20T22:58:59Z</time>
      </trkpt>
      <trkpt lat="57.88201" lon="-5.12544">
        <ele>46.16</ele>
        <time>2021-03-20T22:59:05Z</time>
      </trkpt>
      <trkpt lat="57.88232" lon="-5.12603">
        <ele>45.82</ele>
        <time>2021-03-20T22:59:11Z</time>
      </trkpt>
      <trkpt lat="57.88322" lon="-5.1278">
        <ele>43.47</ele>
        <time>2021-03-20T22:59:17Z</time>
      </trkpt>
      <trkpt lat="57.88429" lon="-5.12934">
        <ele>37.64</ele>
        <time>2021-03-20T22:59:24Z</time>
      </trkpt>
      <trkpt lat="57.88485" lon="-5.12997">
        <ele>39.87</ele>
        <time>2021-03-20T22:59:30Z</time>
      </trkpt>
      <trkpt lat="57.88535" lon="-5.13074">
        <ele>41.44</ele>
        <time>2021-03-20T22:59:36Z</time>
      </trkpt>
      <trkpt lat="57.88565" lon="-5.13149">
        <ele>38.3</ele>
        <time>2021-03-20T22:59:42Z</time>
      </trkpt>
      <trkpt lat="57.88619" lon="-5.13338">
        <ele>31.22</ele>
        <time>2021-03-20T22:59:48Z</time>
      </trkpt>
      <trkpt lat="57.88661" lon="-5.13424">
        <ele>28.67</ele>
        <time>2021-03-20T22:59:54Z</time>
      </trkpt>
      <trkpt lat="57.88722" lon="-5.13495">
        <ele>29.51</ele>
        <time>2021-03-20T23:00:00Z</time>
      </trkpt>
      <trkpt lat="57.88784" lon="-5.13536">
        <ele>31.31</ele>
        <time>2021-03-20T23:00:07Z</time>
      </trkpt>
      <trkpt lat="57.88814" lon="-5.1356">
        <ele>30.97</ele>
        <time>2021-03-20T23:00:13Z</time>
      </trkpt>
      <trkpt lat="57.88835" lon="-5.13582">
        <ele>32.55</ele>
        <time>2021-03-20T23:00:19Z</time>
      </trkpt>
      <trkpt lat="57.88858" lon="-5.13625">
        <ele>32.86</ele>
        <time>2021-03-20T23:00:25Z</time>
      </trkpt>
      <trkpt lat="57.88888" lon="-5.13696">
        <ele>31.56</ele>
        <time>2021-03-20T23:00:31Z</time>
      </trkpt>
      <trkpt lat="57.88928" lon="-5.13785">
        <ele>30.96</ele>
        <time>2021-03-20T23:00:37Z</time>
      </trkpt>
      <trkpt lat="57.88965" lon="-5.13836">
        <ele>34.28</ele>
        <time>2021-03-20T23:00:43Z</time>
      </trkpt>
      <trkpt lat="57.88997" lon="-5.13861">
        <ele>38.15</ele>
        <time>2021-03-20T23:00:50Z</time>
      </trkpt>
      <trkpt lat="57.89049" lon="-5.13916">
        <ele>40.72</ele>
        <time>2021-03-20T23:00:56Z</time>
      </trkpt>
      <trkpt lat="57.89062" lon="-5.13932">
        <ele>39.57</ele>
        <time>2021-03-20T23:01:02Z</time>
      </trkpt>
      <trkpt lat="57.8909" lon="-5.13978">
        <ele>38.91</ele>
        <time>2021-03-20T23:01:08Z</time>
      </trkpt>
      <trkpt lat="57.89125" lon="-5.14059">
        <ele>37.65</ele>
        <time>2021-03-20T23:01:14Z</time>
      </trkpt>
      <trkpt lat="57.89166" lon="-5.14129">
        <ele>39.43</ele>
        <time>2021-03-20T23:01:20Z</time>
      </trkpt>
      <trkpt lat="57.89192" lon="-5.14167">
        <ele>39.26</ele>
        <time>2021-03-20T23:01:26Z</time>
      </trkpt>
      <trkpt lat="57.8923" lon="-5.14197">
        <ele>37.22</ele>
        <time>2021-03-20T23:01:33Z</time>
      </trkpt>
      <trkpt lat="57.89371" lon="-5.14269">
        <ele>41.4</ele>
        <time>2021-03-20T23:01:39Z</time>
      </trkpt>
      <trkpt lat="57.89426" lon="-5.14328">
        <ele>35.79</ele>
        <time>2021-03-20T23:01:45Z</time>
      </trkpt>
      <trkpt lat="57.89463" lon="-5.14385">
        <ele>36.44</ele>
        <time>2021-03-20T23:01:51Z</time>
      </trkpt>
      <trkpt lat="57.89495" lon="-5.14454">
        <ele>34.1</ele>
        <time>2021-03-20T23:01:57Z</time>
      </trkpt>
      <trkpt lat="57.89503" lon="-5.14476">
        <ele>32.47</ele>
        <time>2021-03-20T23:02:03Z</time>
      </trkpt>
      <trkpt lat="57.89518" lon="-5.14531">
        <ele>29.63</ele>
        <time>2021-03-20T23:02:09Z</time>
      </trkpt>
      <trkpt lat="57.896" lon="-5.14922">
        <ele>20.05</ele>
        <time>2021-03-20T23:02:16Z</time>
      </trkpt>
      <trkpt lat="57.89617" lon="-5.14978">
        <ele>17.73</ele>
        <time>2021-03-20T23:02:22Z</time>
      </trkpt>
      <trkpt lat="57.89657" lon="-5.1506">
        <ele>14.84</ele>
        <time>2021-03-20T23:02:28Z</time>
      </trkpt>
      <trkpt lat="57.89671" lon="-5.15104">
        <ele>12.11</ele>
        <time>2021-03-20T23:02:34Z</time>
      </trkpt>
      <trkpt lat="57.89681" lon="-5.15149">
        <ele>11.81</ele>
        <time>2021-03-20T23:02:40Z</time>
      </trkpt>
      <trkpt lat="57.89683" lon="-5.15185">
        <ele>11.09</ele>
        <time>2021-03-20T23:02:46Z</time>
      </trkpt>
      <trkpt lat="57.89684" lon="-5.1523">
        <ele>10.59</ele>
        <time>2021-03-20T23:02:53Z</time>
      </trkpt>
      <trkpt lat="57.89664" lon="-5.15478">
        <ele>8.77</ele>
        <time>2021-03-20T23:02:59Z</time>
      </trkpt>
      <trkpt lat="57.89668" lon="-5.15491">
        <ele>9.12</ele>
        <time>2021-03-20T23:03:03Z</time>
      </trkpt>
      <trkpt lat="57.8968" lon="-5.15503">
        <ele>10.59</ele>
        <time>2021-03-20T23:03:07Z</time>
      </trkpt>
      <trkpt lat="57.89754" lon="-5.15559">
        <ele>14.14</ele>
        <time>2021-03-20T23:03:12Z</time>
      </trkpt>
      <trkpt lat="57.89879" lon="-5.15668">
        <ele>16.37</ele>
        <time>2021-03-20T23:03:16Z</time>
      </trkpt>
      <trkpt lat="57.89938" lon="-5.15712">
        <ele>16.76</ele>
        <time>2021-03-20T23:03:20Z</time>
      </trkpt>
      <trkpt lat="57.8998" lon="-5.1572">
        <ele>18.27</ele>
        <time>2021-03-20T23:03:24Z</time>
      </trkpt>
      <trkpt lat="57.90073" lon="-5.15724">
        <ele>20</ele>
        <time>2021-03-20T23:03:28Z</time>
      </trkpt>
      <trkpt lat="57.90138" lon="-5.15738">
        <ele>21.42</ele>
        <time>2021-03-20T23:03:33Z</time>
      </trkpt>
      <trkpt lat="57.90171" lon="-5.15755">
        <ele>21.23</ele>
        <time>2021-03-20T23:03:37Z</time>
      </trkpt>
      <trkpt lat="57.90272" lon="-5.15832">
        <ele>25.89</ele>
        <time>2021-03-20T23:03:41Z</time>
      </trkpt>
      <trkpt lat="57.90297" lon="-5.15844">
        <ele>25.63</ele>
        <time>2021-03-20T23:03:45Z</time>
      </trkpt>
      <trkpt lat="57.90359" lon="-5.15853">
        <ele>27.44</ele>
        <time>2021-03-20T23:03:50Z</time>
      </trkpt>
      <trkpt lat="57.90395" lon="-5.15868">
        <ele>26.77</ele>
        <time>2021-03-20T23:03:54Z</time>
      </trkpt>
      <trkpt lat="57.90416" lon="-5.15886">
        <ele>26.12</ele>
        <time>2021-03-20T23:03:58Z</time>
      </trkpt>
      <trkpt lat="57.90447" lon="-5.1593">
        <ele>25.55</ele>
        <time>2021-03-20T23:04:02Z</time>
      </trkpt>
      <trkpt lat="57.90461" lon="-5.1596">
        <ele>24.22</ele>
        <time>2021-03-20T23:04:06Z</time>
      </trkpt>
      <trkpt lat="57.90478" lon="-5.16009">
        <ele>23.45</ele>
        <time>2021-03-20T23:04:11Z</time>
      </trkpt>
      <trkpt lat="57.90613" lon="-5.16507">
        <ele>23.07</ele>
        <time>2021-03-20T23:04:15Z</time>
      </trkpt>
      <trkpt lat="57.90673" lon="-5.16724">
        <ele>27.33</ele>
        <time>2021-03-20T23:04:19Z</time>
      </trkpt>
      <trkpt lat="57.90712" lon="-5.16858">
        <ele>30.27</ele>
        <time>2021-03-20T23:04:23Z</time>
      </trkpt>
      <trkpt lat="57.90749" lon="-5.16977">
        <ele>34.67</ele>
        <time>2021-03-20T23:04:28Z</time>
      </trkpt>
      <trkpt lat="57.90755" lon="-5.17001">
        <ele>35.08</ele>
        <time>2021-03-20T23:04:32Z</time>
      </trkpt>
      <trkpt lat="57.9076" lon="-5.17041">
        <ele>36.47</ele>
        <time>2021-03-20T23:04:36Z</time>
      </trkpt>
      <trkpt lat="57.90761" lon="-5.17074">
        <ele>37.04</ele>
        <time>2021-03-20T23:04:40Z</time>
      </trkpt>
      <trkpt lat="57.9076" lon="-5.17193">
        <ele>37.38</ele>
        <time>2021-03-20T23:04:44Z</time>
      </trkpt>
      <trkpt lat="57.90764" lon="-5.17258">
        <ele>39.4</ele>
        <time>2021-03-20T23:04:49Z</time>
      </trkpt>
      <trkpt lat="57.90775" lon="-5.17363">
        <ele>41.32</ele>
        <time>2021-03-20T23:04:53Z</time>
      </trkpt>
      <trkpt lat="57.90782" lon="-5.1741">
        <ele>42.23</ele>
        <time>2021-03-20T23:04:57Z</time>
      </trkpt>
      <trkpt lat="57.90797" lon="-5.17477">
        <ele>42.1</ele>
        <time>2021-03-20T23:05:01Z</time>
      </trkpt>
      <trkpt lat="57.90806" lon="-5.1751">
        <ele>41.65</ele>
        <time>2021-03-20T23:05:06Z</time>
      </trkpt>
      <trkpt lat="57.90816" lon="-5.17539">
        <ele>42.08</ele>
        <time>2021-03-20T23:05:10Z</time>
      </trkpt>
      <trkpt lat="57.90863" lon="-5.17639">
        <ele>41.51</ele>
        <time>2021-03-20T23:05:14Z</time>
      </trkpt>
      <trkpt lat="57.91087" lon="-5.1806">
        <ele>61.59</ele>
        <time>2021-03-20T23:05:18Z</time>
      </trkpt>
      <trkpt lat="57.91266" lon="-5.18343">
        <ele>81.35</ele>
        <time>2021-03-20T23:05:23Z</time>
      </trkpt>
      <trkpt lat="57.91322" lon="-5.18425">
        <ele>86.64</ele>
        <time>2021-03-20T23:05:27Z</time>
      </trkpt>
      <trkpt lat="57.91334" lon="-5.18439">
        <ele>88.25</ele>
        <time>2021-03-20T23:05:31Z</time>
      </trkpt>
      <trkpt lat="57.91349" lon="-5.18452">
        <ele>89.99</ele>
        <time>2021-03-20T23:05:35Z</time>
      </trkpt>
      <trkpt lat="57.91373" lon="-5.18464">
        <ele>91.61</ele>
        <time>2021-03-20T23:05:39Z</time>
      </trkpt>
      <trkpt lat="57.91397" lon="-5.18465">
        <ele>91.71</ele>
        <time>2021-03-20T23:05:44Z</time>
      </trkpt>
      <trkpt lat="57.91412" lon="-5.18462">
        <ele>91.16</ele>
        <time>2021-03-20T23:05:48Z</time>
      </trkpt>
      <trkpt lat="57.91456" lon="-5.18444">
        <ele>90.6</ele>
        <time>2021-03-20T23:05:52Z</time>
      </trkpt>
      <trkpt lat="57.91478" lon="-5.18438">
        <ele>90.18</ele>
        <time>2021-03-20T23:05:56Z</time>
      </trkpt>
      <trkpt lat="57.91495" lon="-5.18439">
        <ele>90.04</ele>
        <time>2021-03-20T23:06:01Z</time>
      </trkpt>
      <trkpt lat="57.91513" lon="-5.18443">
        <ele>89.04</ele>
        <time>2021-03-20T23:06:05Z</time>
      </trkpt>
      <trkpt lat="57.91539" lon="-5.18463">
        <ele>86.2</ele>
        <time>2021-03-20T23:06:09Z</time>
      </trkpt>
      <trkpt lat="57.91552" lon="-5.18483">
        <ele>84.54</ele>
        <time>2021-03-20T23:06:13Z</time>
      </trkpt>
      <trkpt lat="57.91564" lon="-5.18506">
        <ele>82.18</ele>
        <time>2021-03-20T23:06:17Z</time>
      </trkpt>
      <trkpt lat="57.91595" lon="-5.18589">
        <ele>77.87</ele>
        <time>2021-03-20T23:06:22Z</time>
      </trkpt>
      <trkpt lat="57.91637" lon="-5.18707">
        <ele>71.14</ele>
        <time>2021-03-20T23:06:26Z</time>
      </trkpt>
      <trkpt lat="57.91771" lon="-5.19162">
        <ele>42.44</ele>
        <time>2021-03-20T23:06:30Z</time>
      </trkpt>
      <trkpt lat="57.91791" lon="-5.19215">
        <ele>40.08</ele>
        <time>2021-03-20T23:06:34Z</time>
      </trkpt>
      <trkpt lat="57.91802" lon="-5.19237">
        <ele>39.35</ele>
        <time>2021-03-20T23:06:39Z</time>
      </trkpt>
      <trkpt lat="57.91821" lon="-5.19266">
        <ele>38.05</ele>
        <time>2021-03-20T23:06:43Z</time>
      </trkpt>
      <trkpt lat="57.91836" lon="-5.1928">
        <ele>35.76</ele>
        <time>2021-03-20T23:06:47Z</time>
      </trkpt>
      <trkpt lat="57.91846" lon="-5.19286">
        <ele>34.58</ele>
        <time>2021-03-20T23:06:51Z</time>
      </trkpt>
      <trkpt lat="57.9187" lon="-5.1929">
        <ele>31.67</ele>
        <time>2021-03-20T23:06:55Z</time>
      </trkpt>
      <trkpt lat="57.91886" lon="-5.19287">
        <ele>30.22</ele>
        <time>2021-03-20T23:07:00Z</time>
      </trkpt>
      <trkpt lat="57.91907" lon="-5.19275">
        <ele>30</ele>
        <time>2021-03-20T23:07:04Z</time>
      </trkpt>
      <trkpt lat="57.91935" lon="-5.19248">
        <ele>28.67</ele>
        <time>2021-03-20T23:07:08Z</time>
      </trkpt>
      <trkpt lat="57.92018" lon="-5.19131">
        <ele>33.74</ele>
        <time>2021-03-20T23:07:12Z</time>
      </trkpt>
      <trkpt lat="57.92048" lon="-5.19097">
        <ele>34.71</ele>
        <time>2021-03-20T23:07:17Z</time>
      </trkpt>
      <trkpt lat="57.92068" lon="-5.19082">
        <ele>34.95</ele>
        <time>2021-03-20T23:07:21Z</time>
      </trkpt>
      <trkpt lat="57.92085" lon="-5.19072">
        <ele>34.66</ele>
        <time>2021-03-20T23:07:25Z</time>
      </trkpt>
      <trkpt lat="57.92102" lon="-5.19069">
        <ele>35.15</ele>
        <time>2021-03-20T23:07:29Z</time>
      </trkpt>
      <trkpt lat="57.92175" lon="-5.19068">
        <ele>40.28</ele>
        <time>2021-03-20T23:07:34Z</time>
      </trkpt>
      <trkpt lat="57.92227" lon="-5.19073">
        <ele>44.94</ele>
        <time>2021-03-20T23:07:38Z</time>
      </trkpt>
      <trkpt lat="57.92249" lon="-5.19082">
        <ele>46.79</ele>
        <time>2021-03-20T23:07:42Z</time>
      </trkpt>
      <trkpt lat="57.92277" lon="-5.19102">
        <ele>48.95</ele>
        <time>2021-03-20T23:07:46Z</time>
      </trkpt>
      <trkpt lat="57.92291" lon="-5.19117">
        <ele>50.03</ele>
        <time>2021-03-20T23:07:50Z</time>
      </trkpt>
      <trkpt lat="57.92444" lon="-5.1932">
        <ele>56.98</ele>
        <time>2021-03-20T23:07:55Z</time>
      </trkpt>
      <trkpt lat="57.92472" lon="-5.19352">
        <ele>57.67</ele>
        <time>2021-03-20T23:07:59Z</time>
      </trkpt>
      <trkpt lat="57.92496" lon="-5.19368">
        <ele>58.04</ele>
        <time>2021-03-20T23:08:03Z</time>
      </trkpt>
      <trkpt lat="57.92515" lon="-5.19378">
        <ele>57.47</ele>
        <time>2021-03-20T23:08:07Z</time>
      </trkpt>
      <trkpt lat="57.92712" lon="-5.1945">
        <ele>42.17</ele>
        <time>2021-03-20T23:08:12Z</time>
      </trkpt>
      <trkpt lat="57.92727" lon="-5.19462">
        <ele>39.92</ele>
        <time>2021-03-20T23:08:16Z</time>
      </trkpt>
      <trkpt lat="57.92742" lon="-5.19481">
        <ele>37.53</ele>
        <time>2021-03-20T23:08:20Z</time>
      </trkpt>
      <trkpt lat="57.92755" lon="-5.19505">
        <ele>35.97</ele>
        <time>2021-03-20T23:08:24Z</time>
      </trkpt>
      <trkpt lat="57.92823" lon="-5.19677">
        <ele>28.7</ele>
        <time>2021-03-20T23:08:28Z</time>
      </trkpt>
      <trkpt lat="57.92844" lon="-5.19721">
        <ele>24.91</ele>
        <time>2021-03-20T23:08:33Z</time>
      </trkpt>
      <trkpt lat="57.92856" lon="-5.1974">
        <ele>22.93</ele>
        <time>2021-03-20T23:08:37Z</time>
      </trkpt>
      <trkpt lat="57.92872" lon="-5.19758">
        <ele>20.56</ele>
        <time>2021-03-20T23:08:41Z</time>
      </trkpt>
      <trkpt lat="57.92889" lon="-5.19767">
        <ele>18.37</ele>
        <time>2021-03-20T23:08:45Z</time>
      </trkpt>
      <trkpt lat="57.92902" lon="-5.19772">
        <ele>16.45</ele>
        <time>2021-03-20T23:08:50Z</time>
      </trkpt>
      <trkpt lat="57.92914" lon="-5.19771">
        <ele>14.91</ele>
        <time>2021-03-20T23:08:54Z</time>
      </trkpt>
      <trkpt lat="57.92939" lon="-5.1976">
        <ele>11.21</ele>
        <time>2021-03-20T23:08:58Z</time>
      </trkpt>
      <trkpt lat="57.93" lon="-5.19707">
        <ele>7.66</ele>
        <time>2021-03-20T23:09:02Z</time>
      </trkpt>
      <trkpt lat="57.93033" lon="-5.19682">
        <ele>6.93</ele>
        <time>2021-03-20T23:09:06Z</time>
      </trkpt>
      <trkpt lat="57.93089" lon="-5.19652">
        <ele>6.18</ele>
        <time>2021-03-20T23:09:11Z</time>
      </trkpt>
      <trkpt lat="57.93125" lon="-5.19637">
        <ele>6.6</ele>
        <time>2021-03-20T23:09:15Z</time>
      </trkpt>
      <trkpt lat="57.93203" lon="-5.19623">
        <ele>5.58</ele>
        <time>2021-03-20T23:09:19Z</time>
      </trkpt>
      <trkpt lat="57.93252" lon="-5.19621">
        <ele>4.65</ele>
        <time>2021-03-20T23:09:23Z</time>
      </trkpt>
      <trkpt lat="57.93271" lon="-5.19622">
        <ele>4.61</ele>
        <time>2021-03-20T23:09:28Z</time>
      </trkpt>
      <trkpt lat="57.93326" lon="-5.19639">
        <ele>4.01</ele>
        <time>2021-03-20T23:09:32Z</time>
      </trkpt>
      <trkpt lat="57.93346" lon="-5.19641">
        <ele>4</ele>
        <time>2021-03-20T23:09:36Z</time>
      </trkpt>
      <trkpt lat="57.93369" lon="-5.19637">
        <ele>4.34</ele>
        <time>2021-03-20T23:09:40Z</time>
      </trkpt>
      <trkpt lat="57.93384" lon="-5.19629">
        <ele>4.89</ele>
        <time>2021-03-20T23:09:45Z</time>
      </trkpt>
      <trkpt lat="57.93393" lon="-5.19618">
        <ele>5</ele>
        <time>2021-03-20T23:09:49Z</time>
      </trkpt>
      <trkpt lat="57.93403" lon="-5.19603">
        <ele>5</ele>
        <time>2021-03-20T23:09:53Z</time>
      </trkpt>
      <trkpt lat="57.93414" lon="-5.19577">
        <ele>5</ele>
        <time>2021-03-20T23:09:57Z</time>
      </trkpt>
      <trkpt lat="57.93424" lon="-5.19546">
        <ele>5</ele>
        <time>2021-03-20T23:10:01Z</time>
      </trkpt>
      <trkpt lat="57.93496" lon="-5.19273">
        <ele>6.28</ele>
        <time>2021-03-20T23:10:06Z</time>
      </trkpt>
      <trkpt lat="57.9351" lon="-5.19211">
        <ele>6.32</ele>
        <time>2021-03-20T23:10:10Z</time>
      </trkpt>
      <trkpt lat="57.93584" lon="-5.18926">
        <ele>21.69</ele>
        <time>2021-03-20T23:10:14Z</time>
      </trkpt>
      <trkpt lat="57.93606" lon="-5.18868">
        <ele>20.62</ele>
        <time>2021-03-20T23:10:18Z</time>
      </trkpt>
      <trkpt lat="57.93615" lon="-5.18827">
        <ele>16.26</ele>
        <time>2021-03-20T23:10:23Z</time>
      </trkpt>
      <trkpt lat="57.93627" lon="-5.1875">
        <ele>19.78</ele>
        <time>2021-03-20T23:10:27Z</time>
      </trkpt>
      <trkpt lat="57.93641" lon="-5.18679">
        <ele>21.83</ele>
        <time>2021-03-20T23:10:31Z</time>
      </trkpt>
      <trkpt lat="57.93671" lon="-5.18577">
        <ele>25.17</ele>
        <time>2021-03-20T23:10:35Z</time>
      </trkpt>
      <trkpt lat="57.93699" lon="-5.185">
        <ele>22.38</ele>
        <time>2021-03-20T23:10:39Z</time>
      </trkpt>
      <trkpt lat="57.93719" lon="-5.18466">
        <ele>19.83</ele>
        <time>2021-03-20T23:10:44Z</time>
      </trkpt>
      <trkpt lat="57.93746" lon="-5.18441">
        <ele>18.05</ele>
        <time>2021-03-20T23:10:48Z</time>
      </trkpt>
      <trkpt lat="57.93784" lon="-5.18422">
        <ele>18.66</ele>
        <time>2021-03-20T23:10:52Z</time>
      </trkpt>
      <trkpt lat="57.93819" lon="-5.18408">
        <ele>22.05</ele>
        <time>2021-03-20T23:10:56Z</time>
      </trkpt>
      <trkpt lat="57.93855" lon="-5.18365">
        <ele>31.16</ele>
        <time>2021-03-20T23:11:01Z</time>
      </trkpt>
      <trkpt lat="57.93945" lon="-5.18116">
        <ele>46.79</ele>
        <time>2021-03-20T23:11:05Z</time>
      </trkpt>
      <trkpt lat="57.93981" lon="-5.18008">
        <ele>46.35</ele>
        <time>2021-03-20T23:11:09Z</time>
      </trkpt>
      <trkpt lat="57.93994" lon="-5.17947">
        <ele>45.01</ele>
        <time>2021-03-20T23:11:13Z</time>
      </trkpt>
      <trkpt lat="57.9401" lon="-5.17838">
        <ele>41.62</ele>
        <time>2021-03-20T23:11:17Z</time>
      </trkpt>
      <trkpt lat="57.94023" lon="-5.17774">
        <ele>39.88</ele>
        <time>2021-03-20T23:11:22Z</time>
      </trkpt>
      <trkpt lat="57.9404" lon="-5.17716">
        <ele>38.47</ele>
        <time>2021-03-20T23:11:26Z</time>
      </trkpt>
      <trkpt lat="57.94075" lon="-5.17537">
        <ele>32.79</ele>
        <time>2021-03-20T23:11:30Z</time>
      </trkpt>
      <trkpt lat="57.94098" lon="-5.17377">
        <ele>27.78</ele>
        <time>2021-03-20T23:11:34Z</time>
      </trkpt>
      <trkpt lat="57.94114" lon="-5.17291">
        <ele>26.24</ele>
        <time>2021-03-20T23:11:39Z</time>
      </trkpt>
      <trkpt lat="57.94134" lon="-5.17209">
        <ele>23.18</ele>
        <time>2021-03-20T23:11:43Z</time>
      </trkpt>
      <trkpt lat="57.94159" lon="-5.17122">
        <ele>17.91</ele>
        <time>2021-03-20T23:11:47Z</time>
      </trkpt>
      <trkpt lat="57.94171" lon="-5.17072">
        <ele>16.67</ele>
        <time>2021-03-20T23:11:51Z</time>
      </trkpt>
      <trkpt lat="57.94194" lon="-5.17018">
        <ele>15.45</ele>
        <time>2021-03-20T23:11:56Z</time>
      </trkpt>
      <trkpt lat="57.94269" lon="-5.16873">
        <ele>15.69</ele>
        <time>2021-03-20T23:12:00Z</time>
      </trkpt>
      <trkpt lat="57.94373" lon="-5.16742">
        <ele>16.87</ele>
        <time>2021-03-20T23:12:04Z</time>
      </trkpt>
      <trkpt lat="57.9442" lon="-5.16678">
        <ele>18.08</ele>
        <time>2021-03-20T23:12:08Z</time>
      </trkpt>
      <trkpt lat="57.94453" lon="-5.16627">
        <ele>19.48</ele>
        <time>2021-03-20T23:12:12Z</time>
      </trkpt>
      <trkpt lat="57.94485" lon="-5.16557">
        <ele>21.44</ele>
        <time>2021-03-20T23:12:17Z</time>
      </trkpt>
      <trkpt lat="57.94567" lon="-5.16316">
        <ele>24.23</ele>
        <time>2021-03-20T23:12:21Z</time>
      </trkpt>
      <trkpt lat="57.94745" lon="-5.15782">
        <ele>26.9</ele>
        <time>2021-03-20T23:12:25Z</time>
      </trkpt>
      <trkpt lat="57.94867" lon="-5.15348">
        <ele>37.76</ele>
        <time>2021-03-20T23:12:29Z</time>
      </trkpt>
      <trkpt lat="57.94942" lon="-5.15055">
        <ele>50.28</ele>
        <time>2021-03-20T23:12:34Z</time>
      </trkpt>
      <trkpt lat="57.94968" lon="-5.14977">
        <ele>49.58</ele>
        <time>2021-03-20T23:12:38Z</time>
      </trkpt>
      <trkpt lat="57.95065" lon="-5.1473">
        <ele>45.58</ele>
        <time>2021-03-20T23:12:42Z</time>
      </trkpt>
      <trkpt lat="57.95191" lon="-5.14391">
        <ele>62.85</ele>
        <time>2021-03-20T23:12:46Z</time>
      </trkpt>
      <trkpt lat="57.95454" lon="-5.13948">
        <ele>52.44</ele>
        <time>2021-03-20T23:12:50Z</time>
      </trkpt>
      <trkpt lat="57.95695" lon="-5.13498">
        <ele>53</ele>
        <time>2021-03-20T23:12:55Z</time>
      </trkpt>
      <trkpt lat="57.9573" lon="-5.13456">
        <ele>52.14</ele>
        <time>2021-03-20T23:12:59Z</time>
      </trkpt>
      <trkpt lat="57.9576" lon="-5.13436">
        <ele>49.24</ele>
        <time>2021-03-20T23:13:03Z</time>
      </trkpt>
      <trkpt lat="57.95812" lon="-5.13424">
        <ele>40.23</ele>
        <time>2021-03-20T23:13:07Z</time>
      </trkpt>
      <trkpt lat="57.95868" lon="-5.13424">
        <ele>32.76</ele>
        <time>2021-03-20T23:13:12Z</time>
      </trkpt>
      <trkpt lat="57.95915" lon="-5.13439">
        <ele>28.76</ele>
        <time>2021-03-20T23:13:16Z</time>
      </trkpt>
      <trkpt lat="57.95956" lon="-5.1346">
        <ele>23.95</ele>
        <time>2021-03-20T23:13:20Z</time>
      </trkpt>
      <trkpt lat="57.96164" lon="-5.13583">
        <ele>13.01</ele>
        <time>2021-03-20T23:13:24Z</time>
      </trkpt>
      <trkpt lat="57.96208" lon="-5.13595">
        <ele>12</ele>
        <time>2021-03-20T23:13:29Z</time>
      </trkpt>
      <trkpt lat="57.96242" lon="-5.13597">
        <ele>12.72</ele>
        <time>2021-03-20T23:13:33Z</time>
      </trkpt>
      <trkpt lat="57.96277" lon="-5.13584">
        <ele>15.89</ele>
        <time>2021-03-20T23:13:37Z</time>
      </trkpt>
      <trkpt lat="57.96298" lon="-5.13569">
        <ele>17.69</ele>
        <time>2021-03-20T23:13:41Z</time>
      </trkpt>
      <trkpt lat="57.96333" lon="-5.13537">
        <ele>21.33</ele>
        <time>2021-03-20T23:13:45Z</time>
      </trkpt>
      <trkpt lat="57.96392" lon="-5.13468">
        <ele>26.01</ele>
        <time>2021-03-20T23:13:50Z</time>
      </trkpt>
      <trkpt lat="57.96465" lon="-5.13376">
        <ele>26.69</ele>
        <time>2021-03-20T23:13:54Z</time>
      </trkpt>
      <trkpt lat="57.96565" lon="-5.13254">
        <ele>38.5</ele>
        <time>2021-03-20T23:13:58Z</time>
      </trkpt>
      <trkpt lat="57.96701" lon="-5.13079">
        <ele>56.17</ele>
        <time>2021-03-20T23:14:02Z</time>
      </trkpt>
      <trkpt lat="57.96808" lon="-5.12915">
        <ele>68.44</ele>
        <time>2021-03-20T23:14:07Z</time>
      </trkpt>
      <trkpt lat="57.97077" lon="-5.12584">
        <ele>85.6</ele>
        <time>2021-03-20T23:14:11Z</time>
      </trkpt>
      <trkpt lat="57.97157" lon="-5.12495">
        <ele>89.3</ele>
        <time>2021-03-20T23:14:15Z</time>
      </trkpt>
      <trkpt lat="57.97253" lon="-5.12419">
        <ele>95.17</ele>
        <time>2021-03-20T23:14:19Z</time>
      </trkpt>
      <trkpt lat="57.97392" lon="-5.12325">
        <ele>98.33</ele>
        <time>2021-03-20T23:14:23Z</time>
      </trkpt>
      <trkpt lat="57.97392" lon="-5.12325">
        <ele>98.33</ele>
        <time>2021-03-20T23:14:23Z</time>
      </trkpt>
      <trkpt lat="57.97459" lon="-5.1228">
        <ele>101.48</ele>
        <time>2021-03-20T23:14:29Z</time>
      </trkpt>
      <trkpt lat="57.9752" lon="-5.12229">
        <ele>103.72</ele>
        <time>2021-03-20T23:14:35Z</time>
      </trkpt>
      <trkpt lat="57.9766" lon="-5.12097">
        <ele>104.86</ele>
        <time>2021-03-20T23:14:41Z</time>
      </trkpt>
      <trkpt lat="57.97782" lon="-5.11989">
        <ele>98.17</ele>
        <time>2021-03-20T23:14:47Z</time>
      </trkpt>
      <trkpt lat="57.97845" lon="-5.11943">
        <ele>99.61</ele>
        <time>2021-03-20T23:14:53Z</time>
      </trkpt>
      <trkpt lat="57.97911" lon="-5.11908">
        <ele>101.69</ele>
        <time>2021-03-20T23:14:58Z</time>
      </trkpt>
      <trkpt lat="57.97956" lon="-5.11895">
        <ele>105.38</ele>
        <time>2021-03-20T23:15:04Z</time>
      </trkpt>
      <trkpt lat="57.98021" lon="-5.11894">
        <ele>109.15</ele>
        <time>2021-03-20T23:15:10Z</time>
      </trkpt>
      <trkpt lat="57.98121" lon="-5.11914">
        <ele>115.66</ele>
        <time>2021-03-20T23:15:16Z</time>
      </trkpt>
      <trkpt lat="57.98163" lon="-5.11916">
        <ele>117.89</ele>
        <time>2021-03-20T23:15:22Z</time>
      </trkpt>
      <trkpt lat="57.98195" lon="-5.11905">
        <ele>118.25</ele>
        <time>2021-03-20T23:15:28Z</time>
      </trkpt>
      <trkpt lat="57.98225" lon="-5.11889">
        <ele>119</ele>
        <time>2021-03-20T23:15:33Z</time>
      </trkpt>
      <trkpt lat="57.98701" lon="-5.11501">
        <ele>129.18</ele>
        <time>2021-03-20T23:15:39Z</time>
      </trkpt>
      <trkpt lat="57.98817" lon="-5.1141">
        <ele>124.89</ele>
        <time>2021-03-20T23:15:45Z</time>
      </trkpt>
      <trkpt lat="57.98969" lon="-5.11321">
        <ele>125.01</ele>
        <time>2021-03-20T23:15:51Z</time>
      </trkpt>
      <trkpt lat="57.9903" lon="-5.11268">
        <ele>126.07</ele>
        <time>2021-03-20T23:15:57Z</time>
      </trkpt>
      <trkpt lat="57.99085" lon="-5.11205">
        <ele>124.65</ele>
        <time>2021-03-20T23:16:03Z</time>
      </trkpt>
      <trkpt lat="57.99174" lon="-5.11127">
        <ele>121.96</ele>
        <time>2021-03-20T23:16:08Z</time>
      </trkpt>
      <trkpt lat="57.99262" lon="-5.11061">
        <ele>122.82</ele>
        <time>2021-03-20T23:16:14Z</time>
      </trkpt>
      <trkpt lat="57.99454" lon="-5.10941">
        <ele>120.84</ele>
        <time>2021-03-20T23:16:20Z</time>
      </trkpt>
      <trkpt lat="57.99555" lon="-5.10859">
        <ele>117.28</ele>
        <time>2021-03-20T23:16:26Z</time>
      </trkpt>
      <trkpt lat="57.99654" lon="-5.10767">
        <ele>120.7</ele>
        <time>2021-03-20T23:16:32Z</time>
      </trkpt>
      <trkpt lat="57.99744" lon="-5.1066">
        <ele>120.21</ele>
        <time>2021-03-20T23:16:38Z</time>
      </trkpt>
      <trkpt lat="57.9983" lon="-5.10547">
        <ele>121.13</ele>
        <time>2021-03-20T23:16:43Z</time>
      </trkpt>
      <trkpt lat="57.99934" lon="-5.10387">
        <ele>122</ele>
        <time>2021-03-20T23:16:49Z</time>
      </trkpt>
      <trkpt lat="57.9995" lon="-5.10359">
        <ele>121.94</ele>
        <time>2021-03-20T23:16:55Z</time>
      </trkpt>
      <trkpt lat="57.99962" lon="-5.10411">
        <ele>122.49</ele>
        <time>2021-03-20T23:16:58Z</time>
      </trkpt>
      <trkpt lat="57.99971" lon="-5.1053">
        <ele>122.81</ele>
        <time>2021-03-20T23:17:02Z</time>
      </trkpt>
      <trkpt lat="57.99974" lon="-5.10603">
        <ele>122.21</ele>
        <time>2021-03-20T23:17:05Z</time>
      </trkpt>
      <trkpt lat="57.99969" lon="-5.10634">
        <ele>121.63</ele>
        <time>2021-03-20T23:17:08Z</time>
      </trkpt>
      <trkpt lat="57.9992" lon="-5.10778">
        <ele>119.53</ele>
        <time>2021-03-20T23:17:12Z</time>
      </trkpt>
      <trkpt lat="57.99902" lon="-5.10863">
        <ele>117.4</ele>
        <time>2021-03-20T23:17:15Z</time>
      </trkpt>
      <trkpt lat="57.99905" lon="-5.10897">
        <ele>117.34</ele>
        <time>2021-03-20T23:17:18Z</time>
      </trkpt>
      <trkpt lat="57.9994" lon="-5.10971">
        <ele>118.43</ele>
        <time>2021-03-20T23:17:22Z</time>
      </trkpt>
      <trkpt lat="57.9995" lon="-5.11014">
        <ele>118.13</ele>
        <time>2021-03-20T23:17:25Z</time>
      </trkpt>
      <trkpt lat="57.99942" lon="-5.11116">
        <ele>112.24</ele>
        <time>2021-03-20T23:17:28Z</time>
      </trkpt>
      <trkpt lat="57.99953" lon="-5.11189">
        <ele>110.42</ele>
        <time>2021-03-20T23:17:32Z</time>
      </trkpt>
      <trkpt lat="57.99978" lon="-5.11275">
        <ele>110.63</ele>
        <time>2021-03-20T23:17:35Z</time>
      </trkpt>
      <trkpt lat="57.99988" lon="-5.11304">
        <ele>110.74</ele>
        <time>2021-03-20T23:17:38Z</time>
      </trkpt>
      <trkpt lat="57.99988" lon="-5.11432">
        <ele>106.15</ele>
        <time>2021-03-20T23:17:41Z</time>
      </trkpt>
      <trkpt lat="58.00029" lon="-5.11543">
        <ele>101.95</ele>
        <time>2021-03-20T23:17:45Z</time>
      </trkpt>
      <trkpt lat="58.00091" lon="-5.116">
        <ele>98.05</ele>
        <time>2021-03-20T23:17:48Z</time>
      </trkpt>
      <trkpt lat="58.00113" lon="-5.11658">
        <ele>96.42</ele>
        <time>2021-03-20T23:17:51Z</time>
      </trkpt>
      <trkpt lat="58.00142" lon="-5.1183">
        <ele>98.22</ele>
        <time>2021-03-20T23:17:55Z</time>
      </trkpt>
      <trkpt lat="58.0014" lon="-5.11866">
        <ele>100.21</ele>
        <time>2021-03-20T23:17:58Z</time>
      </trkpt>
      <trkpt lat="58.00114" lon="-5.1195">
        <ele>99.85</ele>
        <time>2021-03-20T23:18:01Z</time>
      </trkpt>
      <trkpt lat="58.00096" lon="-5.12036">
        <ele>101.75</ele>
        <time>2021-03-20T23:18:05Z</time>
      </trkpt>
      <trkpt lat="58.00085" lon="-5.1211">
        <ele>102.45</ele>
        <time>2021-03-20T23:18:08Z</time>
      </trkpt>
      <trkpt lat="58.00081" lon="-5.12189">
        <ele>105.1</ele>
        <time>2021-03-20T23:18:11Z</time>
      </trkpt>
      <trkpt lat="58.0009" lon="-5.12282">
        <ele>108.26</ele>
        <time>2021-03-20T23:18:15Z</time>
      </trkpt>
      <trkpt lat="58.00092" lon="-5.12404">
        <ele>110.93</ele>
        <time>2021-03-20T23:18:18Z</time>
      </trkpt>
      <trkpt lat="58.00101" lon="-5.12474">
        <ele>112.54</ele>
        <time>2021-03-20T23:18:21Z</time>
      </trkpt>
      <trkpt lat="58.00122" lon="-5.12533">
        <ele>118.89</ele>
        <time>2021-03-20T23:18:25Z</time>
      </trkpt>
      <trkpt lat="58.00123" lon="-5.12572">
        <ele>120.53</ele>
        <time>2021-03-20T23:18:28Z</time>
      </trkpt>
      <trkpt lat="58.00112" lon="-5.12645">
        <ele>119.32</ele>
        <time>2021-03-20T23:18:31Z</time>
      </trkpt>
      <trkpt lat="58.00115" lon="-5.12691">
        <ele>120.02</ele>
        <time>2021-03-20T23:18:34Z</time>
      </trkpt>
      <trkpt lat="58.00132" lon="-5.1276">
        <ele>123.37</ele>
        <time>2021-03-20T23:18:38Z</time>
      </trkpt>
      <trkpt lat="58.00163" lon="-5.12854">
        <ele>126.46</ele>
        <time>2021-03-20T23:18:41Z</time>
      </trkpt>
      <trkpt lat="58.00214" lon="-5.1307">
        <ele>129.59</ele>
        <time>2021-03-20T23:18:44Z</time>
      </trkpt>
      <trkpt lat="58.00236" lon="-5.13206">
        <ele>125.04</ele>
        <time>2021-03-20T23:18:48Z</time>
      </trkpt>
      <trkpt lat="58.00274" lon="-5.13297">
        <ele>121.76</ele>
        <time>2021-03-20T23:18:51Z</time>
      </trkpt>
      <trkpt lat="58.00317" lon="-5.13446">
        <ele>115.63</ele>
        <time>2021-03-20T23:18:54Z</time>
      </trkpt>
      <trkpt lat="58.00346" lon="-5.1352">
        <ele>113.43</ele>
        <time>2021-03-20T23:18:58Z</time>
      </trkpt>
      <trkpt lat="58.00363" lon="-5.13543">
        <ele>112.69</ele>
        <time>2021-03-20T23:19:01Z</time>
      </trkpt>
      <trkpt lat="58.00399" lon="-5.13557">
        <ele>116.56</ele>
        <time>2021-03-20T23:19:04Z</time>
      </trkpt>
      <trkpt lat="58.00415" lon="-5.1358">
        <ele>116.11</ele>
        <time>2021-03-20T23:19:08Z</time>
      </trkpt>
      <trkpt lat="58.00449" lon="-5.13676">
        <ele>116.83</ele>
        <time>2021-03-20T23:19:11Z</time>
      </trkpt>
      <trkpt lat="58.00458" lon="-5.13711">
        <ele>118.14</ele>
        <time>2021-03-20T23:19:14Z</time>
      </trkpt>
      <trkpt lat="58.00458" lon="-5.13795">
        <ele>112.67</ele>
        <time>2021-03-20T23:19:17Z</time>
      </trkpt>
      <trkpt lat="58.00465" lon="-5.13859">
        <ele>108.97</ele>
        <time>2021-03-20T23:19:21Z</time>
      </trkpt>
      <trkpt lat="58.00496" lon="-5.13957">
        <ele>107.46</ele>
        <time>2021-03-20T23:19:24Z</time>
      </trkpt>
      <trkpt lat="58.00522" lon="-5.13994">
        <ele>109.54</ele>
        <time>2021-03-20T23:19:27Z</time>
      </trkpt>
      <trkpt lat="58.00545" lon="-5.14023">
        <ele>109.43</ele>
        <time>2021-03-20T23:19:31Z</time>
      </trkpt>
      <trkpt lat="58.00581" lon="-5.14057">
        <ele>109.75</ele>
        <time>2021-03-20T23:19:34Z</time>
      </trkpt>
      <trkpt lat="58.006" lon="-5.14083">
        <ele>108.03</ele>
        <time>2021-03-20T23:19:37Z</time>
      </trkpt>
      <trkpt lat="58.00608" lon="-5.14111">
        <ele>106.04</ele>
        <time>2021-03-20T23:19:41Z</time>
      </trkpt>
      <trkpt lat="58.00614" lon="-5.14142">
        <ele>104.24</ele>
        <time>2021-03-20T23:19:44Z</time>
      </trkpt>
      <trkpt lat="58.00628" lon="-5.14185">
        <ele>103.84</ele>
        <time>2021-03-20T23:19:47Z</time>
      </trkpt>
      <trkpt lat="58.00632" lon="-5.14222">
        <ele>103.04</ele>
        <time>2021-03-20T23:19:51Z</time>
      </trkpt>
      <trkpt lat="58.00632" lon="-5.14267">
        <ele>100.68</ele>
        <time>2021-03-20T23:19:54Z</time>
      </trkpt>
      <trkpt lat="58.00641" lon="-5.14286">
        <ele>100.87</ele>
        <time>2021-03-20T23:19:57Z</time>
      </trkpt>
      <trkpt lat="58.00682" lon="-5.14302">
        <ele>100.51</ele>
        <time>2021-03-20T23:20:01Z</time>
      </trkpt>
      <trkpt lat="58.00714" lon="-5.14303">
        <ele>100.2</ele>
        <time>2021-03-20T23:20:04Z</time>
      </trkpt>
      <trkpt lat="58.00735" lon="-5.14313">
        <ele>100.99</ele>
        <time>2021-03-20T23:20:07Z</time>
      </trkpt>
      <trkpt lat="58.00755" lon="-5.14347">
        <ele>99.07</ele>
        <time>2021-03-20T23:20:10Z</time>
      </trkpt>
      <trkpt lat="58.0077" lon="-5.14379">
        <ele>97.27</ele>
        <time>2021-03-20T23:20:14Z</time>
      </trkpt>
      <trkpt lat="58.00791" lon="-5.14424">
        <ele>95.21</ele>
        <time>2021-03-20T23:20:17Z</time>
      </trkpt>
      <trkpt lat="58.00834" lon="-5.14528">
        <ele>90.19</ele>
        <time>2021-03-20T23:20:20Z</time>
      </trkpt>
      <trkpt lat="58.00851" lon="-5.14594">
        <ele>86.26</ele>
        <time>2021-03-20T23:20:24Z</time>
      </trkpt>
      <trkpt lat="58.00902" lon="-5.147">
        <ele>81.54</ele>
        <time>2021-03-20T23:20:27Z</time>
      </trkpt>
      <trkpt lat="58.00925" lon="-5.14736">
        <ele>79.57</ele>
        <time>2021-03-20T23:20:30Z</time>
      </trkpt>
      <trkpt lat="58.00947" lon="-5.14783">
        <ele>76.9</ele>
        <time>2021-03-20T23:20:34Z</time>
      </trkpt>
      <trkpt lat="58.01011" lon="-5.14938">
        <ele>75.27</ele>
        <time>2021-03-20T23:20:37Z</time>
      </trkpt>
      <trkpt lat="58.01039" lon="-5.15018">
        <ele>74.14</ele>
        <time>2021-03-20T23:20:40Z</time>
      </trkpt>
      <trkpt lat="58.01058" lon="-5.15101">
        <ele>70.74</ele>
        <time>2021-03-20T23:20:44Z</time>
      </trkpt>
      <trkpt lat="58.01098" lon="-5.15219">
        <ele>69.29</ele>
        <time>2021-03-20T23:20:47Z</time>
      </trkpt>
      <trkpt lat="58.01123" lon="-5.15287">
        <ele>69.13</ele>
        <time>2021-03-20T23:20:50Z</time>
      </trkpt>
      <trkpt lat="58.01139" lon="-5.15314">
        <ele>69.08</ele>
        <time>2021-03-20T23:20:53Z</time>
      </trkpt>
      <trkpt lat="58.01158" lon="-5.1533">
        <ele>71.55</ele>
        <time>2021-03-20T23:20:57Z</time>
      </trkpt>
      <trkpt lat="58.01172" lon="-5.15352">
        <ele>72.04</ele>
        <time>2021-03-20T23:21:00Z</time>
      </trkpt>
      <trkpt lat="58.01189" lon="-5.15389">
        <ele>70.19</ele>
        <time>2021-03-20T23:21:03Z</time>
      </trkpt>
      <trkpt lat="58.01211" lon="-5.15418">
        <ele>70.24</ele>
        <time>2021-03-20T23:21:07Z</time>
      </trkpt>
      <trkpt lat="58.01296" lon="-5.15505">
        <ele>74.82</ele>
        <time>2021-03-20T23:21:10Z</time>
      </trkpt>
      <trkpt lat="58.01323" lon="-5.1555">
        <ele>74.63</ele>
        <time>2021-03-20T23:21:13Z</time>
      </trkpt>
      <trkpt lat="58.01349" lon="-5.15615">
        <ele>71.04</ele>
        <time>2021-03-20T23:21:17Z</time>
      </trkpt>
      <trkpt lat="58.01408" lon="-5.15697">
        <ele>75.46</ele>
        <time>2021-03-20T23:21:20Z</time>
      </trkpt>
      <trkpt lat="58.01441" lon="-5.15729">
        <ele>77.09</ele>
        <time>2021-03-20T23:21:23Z</time>
      </trkpt>
      <trkpt lat="58.01494" lon="-5.15771">
        <ele>78.24</ele>
        <time>2021-03-20T23:21:27Z</time>
      </trkpt>
      <trkpt lat="58.01502" lon="-5.15784">
        <ele>77.79</ele>
        <time>2021-03-20T23:21:30Z</time>
      </trkpt>
      <trkpt lat="58.01515" lon="-5.15814">
        <ele>77.49</ele>
        <time>2021-03-20T23:21:33Z</time>
      </trkpt>
      <trkpt lat="58.01532" lon="-5.15867">
        <ele>76.4</ele>
        <time>2021-03-20T23:21:37Z</time>
      </trkpt>
      <trkpt lat="58.01547" lon="-5.15898">
        <ele>77.15</ele>
        <time>2021-03-20T23:21:40Z</time>
      </trkpt>
      <trkpt lat="58.01605" lon="-5.15978">
        <ele>82.42</ele>
        <time>2021-03-20T23:21:43Z</time>
      </trkpt>
      <trkpt lat="58.01633" lon="-5.16046">
        <ele>80.92</ele>
        <time>2021-03-20T23:21:46Z</time>
      </trkpt>
      <trkpt lat="58.0165" lon="-5.16078">
        <ele>80.9</ele>
        <time>2021-03-20T23:21:50Z</time>
      </trkpt>
      <trkpt lat="58.01672" lon="-5.16099">
        <ele>83.17</ele>
        <time>2021-03-20T23:21:53Z</time>
      </trkpt>
      <trkpt lat="58.01732" lon="-5.16139">
        <ele>83.69</ele>
        <time>2021-03-20T23:21:56Z</time>
      </trkpt>
      <trkpt lat="58.01761" lon="-5.1618">
        <ele>82.97</ele>
        <time>2021-03-20T23:22:00Z</time>
      </trkpt>
      <trkpt lat="58.01834" lon="-5.16265">
        <ele>84.96</ele>
        <time>2021-03-20T23:22:03Z</time>
      </trkpt>
      <trkpt lat="58.01868" lon="-5.16299">
        <ele>84.55</ele>
        <time>2021-03-20T23:22:06Z</time>
      </trkpt>
      <trkpt lat="58.01906" lon="-5.1632">
        <ele>81.63</ele>
        <time>2021-03-20T23:22:10Z</time>
      </trkpt>
      <trkpt lat="58.01931" lon="-5.16352">
        <ele>78.57</ele>
        <time>2021-03-20T23:22:13Z</time>
      </trkpt>
      <trkpt lat="58.01966" lon="-5.16411">
        <ele>75.14</ele>
        <time>2021-03-20T23:22:16Z</time>
      </trkpt>
      <trkpt lat="58.02026" lon="-5.16478">
        <ele>75.41</ele>
        <time>2021-03-20T23:22:20Z</time>
      </trkpt>
      <trkpt lat="58.0205" lon="-5.16522">
        <ele>74.68</ele>
        <time>2021-03-20T23:22:23Z</time>
      </trkpt>
      <trkpt lat="58.0208" lon="-5.16586">
        <ele>74.47</ele>
        <time>2021-03-20T23:22:26Z</time>
      </trkpt>
      <trkpt lat="58.021" lon="-5.1662">
        <ele>74.15</ele>
        <time>2021-03-20T23:22:29Z</time>
      </trkpt>
      <trkpt lat="58.02158" lon="-5.1673">
        <ele>72.29</ele>
        <time>2021-03-20T23:22:33Z</time>
      </trkpt>
      <trkpt lat="58.02212" lon="-5.16851">
        <ele>71.06</ele>
        <time>2021-03-20T23:22:36Z</time>
      </trkpt>
      <trkpt lat="58.02245" lon="-5.1693">
        <ele>68.47</ele>
        <time>2021-03-20T23:22:39Z</time>
      </trkpt>
      <trkpt lat="58.02263" lon="-5.16957">
        <ele>68.02</ele>
        <time>2021-03-20T23:22:43Z</time>
      </trkpt>
      <trkpt lat="58.02284" lon="-5.16973">
        <ele>68.19</ele>
        <time>2021-03-20T23:22:46Z</time>
      </trkpt>
      <trkpt lat="58.02392" lon="-5.17">
        <ele>70.27</ele>
        <time>2021-03-20T23:22:49Z</time>
      </trkpt>
      <trkpt lat="58.02423" lon="-5.17014">
        <ele>70.87</ele>
        <time>2021-03-20T23:22:53Z</time>
      </trkpt>
      <trkpt lat="58.02439" lon="-5.17028">
        <ele>69.67</ele>
        <time>2021-03-20T23:22:56Z</time>
      </trkpt>
      <trkpt lat="58.02459" lon="-5.17039">
        <ele>69.47</ele>
        <time>2021-03-20T23:22:59Z</time>
      </trkpt>
      <trkpt lat="58.02539" lon="-5.17058">
        <ele>68.52</ele>
        <time>2021-03-20T23:23:03Z</time>
      </trkpt>
      <trkpt lat="58.026" lon="-5.17099">
        <ele>66.25</ele>
        <time>2021-03-20T23:23:06Z</time>
      </trkpt>
      <trkpt lat="58.02678" lon="-5.17134">
        <ele>66.7</ele>
        <time>2021-03-20T23:23:09Z</time>
      </trkpt>
      <trkpt lat="58.02724" lon="-5.1717">
        <ele>67.88</ele>
        <time>2021-03-20T23:23:12Z</time>
      </trkpt>
      <trkpt lat="58.0284" lon="-5.17301">
        <ele>70.35</ele>
        <time>2021-03-20T23:23:16Z</time>
      </trkpt>
      <trkpt lat="58.02914" lon="-5.17372">
        <ele>69.02</ele>
        <time>2021-03-20T23:23:19Z</time>
      </trkpt>
      <trkpt lat="58.02993" lon="-5.17441">
        <ele>72.36</ele>
        <time>2021-03-20T23:23:22Z</time>
      </trkpt>
      <trkpt lat="58.03028" lon="-5.1748">
        <ele>73.24</ele>
        <time>2021-03-20T23:23:26Z</time>
      </trkpt>
      <trkpt lat="58.03058" lon="-5.17549">
        <ele>73.14</ele>
        <time>2021-03-20T23:23:29Z</time>
      </trkpt>
      <trkpt lat="58.03079" lon="-5.17622">
        <ele>71.78</ele>
        <time>2021-03-20T23:23:32Z</time>
      </trkpt>
      <trkpt lat="58.03094" lon="-5.17692">
        <ele>72.72</ele>
        <time>2021-03-20T23:23:36Z</time>
      </trkpt>
      <trkpt lat="58.03104" lon="-5.17802">
        <ele>73.26</ele>
        <time>2021-03-20T23:23:39Z</time>
      </trkpt>
      <trkpt lat="58.03105" lon="-5.17852">
        <ele>72.99</ele>
        <time>2021-03-20T23:23:42Z</time>
      </trkpt>
      <trkpt lat="58.03116" lon="-5.17957">
        <ele>73.45</ele>
        <time>2021-03-20T23:23:46Z</time>
      </trkpt>
      <trkpt lat="58.0312" lon="-5.17969">
        <ele>73.63</ele>
        <time>2021-03-20T23:23:49Z</time>
      </trkpt>
      <trkpt lat="58.03126" lon="-5.18016">
        <ele>73.82</ele>
        <time>2021-03-20T23:23:52Z</time>
      </trkpt>
      <trkpt lat="58.03133" lon="-5.18188">
        <ele>72.21</ele>
        <time>2021-03-20T23:23:56Z</time>
      </trkpt>
      <trkpt lat="58.03134" lon="-5.18343">
        <ele>70.76</ele>
        <time>2021-03-20T23:23:59Z</time>
      </trkpt>
      <trkpt lat="58.03158" lon="-5.1856">
        <ele>71.92</ele>
        <time>2021-03-20T23:24:02Z</time>
      </trkpt>
      <trkpt lat="58.03172" lon="-5.18666">
        <ele>74.07</ele>
        <time>2021-03-20T23:24:05Z</time>
      </trkpt>
      <trkpt lat="58.03176" lon="-5.18759">
        <ele>73.95</ele>
        <time>2021-03-20T23:24:09Z</time>
      </trkpt>
      <trkpt lat="58.03166" lon="-5.19062">
        <ele>70.6</ele>
        <time>2021-03-20T23:24:12Z</time>
      </trkpt>
      <trkpt lat="58.03176" lon="-5.19144">
        <ele>70.45</ele>
        <time>2021-03-20T23:24:15Z</time>
      </trkpt>
      <trkpt lat="58.03234" lon="-5.19444">
        <ele>68.08</ele>
        <time>2021-03-20T23:24:19Z</time>
      </trkpt>
      <trkpt lat="58.03241" lon="-5.19533">
        <ele>63.57</ele>
        <time>2021-03-20T23:24:22Z</time>
      </trkpt>
      <trkpt lat="58.03261" lon="-5.19568">
        <ele>68.3</ele>
        <time>2021-03-20T23:24:25Z</time>
      </trkpt>
      <trkpt lat="58.03275" lon="-5.19621">
        <ele>70.54</ele>
        <time>2021-03-20T23:24:29Z</time>
      </trkpt>
      <trkpt lat="58.03288" lon="-5.19689">
        <ele>69.19</ele>
        <time>2021-03-20T23:24:32Z</time>
      </trkpt>
      <trkpt lat="58.033" lon="-5.19793">
        <ele>65.24</ele>
        <time>2021-03-20T23:24:35Z</time>
      </trkpt>
      <trkpt lat="58.0332" lon="-5.19862">
        <ele>64.62</ele>
        <time>2021-03-20T23:24:39Z</time>
      </trkpt>
      <trkpt lat="58.03346" lon="-5.20001">
        <ele>68.29</ele>
        <time>2021-03-20T23:24:42Z</time>
      </trkpt>
      <trkpt lat="58.03364" lon="-5.20078">
        <ele>66.9</ele>
        <time>2021-03-20T23:24:45Z</time>
      </trkpt>
      <trkpt lat="58.03374" lon="-5.20114">
        <ele>66.18</ele>
        <time>2021-03-20T23:24:48Z</time>
      </trkpt>
      <trkpt lat="58.03393" lon="-5.20167">
        <ele>64.67</ele>
        <time>2021-03-20T23:24:52Z</time>
      </trkpt>
      <trkpt lat="58.03403" lon="-5.20186">
        <ele>64.75</ele>
        <time>2021-03-20T23:24:55Z</time>
      </trkpt>
      <trkpt lat="58.03454" lon="-5.20234">
        <ele>73.5</ele>
        <time>2021-03-20T23:24:58Z</time>
      </trkpt>
      <trkpt lat="58.03461" lon="-5.2025">
        <ele>76.04</ele>
        <time>2021-03-20T23:25:02Z</time>
      </trkpt>
      <trkpt lat="58.03469" lon="-5.20293">
        <ele>78.32</ele>
        <time>2021-03-20T23:25:05Z</time>
      </trkpt>
      <trkpt lat="58.03474" lon="-5.2036">
        <ele>77.65</ele>
        <time>2021-03-20T23:25:08Z</time>
      </trkpt>
      <trkpt lat="58.03465" lon="-5.20778">
        <ele>83.42</ele>
        <time>2021-03-20T23:25:12Z</time>
      </trkpt>
      <trkpt lat="58.03456" lon="-5.20846">
        <ele>84.51</ele>
        <time>2021-03-20T23:25:15Z</time>
      </trkpt>
      <trkpt lat="58.03403" lon="-5.21044">
        <ele>86.04</ele>
        <time>2021-03-20T23:25:18Z</time>
      </trkpt>
      <trkpt lat="58.03379" lon="-5.211">
        <ele>86.78</ele>
        <time>2021-03-20T23:25:22Z</time>
      </trkpt>
      <trkpt lat="58.03338" lon="-5.21177">
        <ele>86.5</ele>
        <time>2021-03-20T23:25:25Z</time>
      </trkpt>
      <trkpt lat="58.03333" lon="-5.21194">
        <ele>86.9</ele>
        <time>2021-03-20T23:25:28Z</time>
      </trkpt>
      <trkpt lat="58.03331" lon="-5.21209">
        <ele>87.1</ele>
        <time>2021-03-20T23:25:32Z</time>
      </trkpt>
      <trkpt lat="58.03331" lon="-5.21235">
        <ele>87.97</ele>
        <time>2021-03-20T23:25:35Z</time>
      </trkpt>
      <trkpt lat="58.0334" lon="-5.21359">
        <ele>91.13</ele>
        <time>2021-03-20T23:25:38Z</time>
      </trkpt>
      <trkpt lat="58.03348" lon="-5.21424">
        <ele>92.57</ele>
        <time>2021-03-20T23:25:41Z</time>
      </trkpt>
      <trkpt lat="58.03349" lon="-5.21459">
        <ele>92.98</ele>
        <time>2021-03-20T23:25:45Z</time>
      </trkpt>
      <trkpt lat="58.03332" lon="-5.21884">
        <ele>96.74</ele>
        <time>2021-03-20T23:25:48Z</time>
      </trkpt>
      <trkpt lat="58.03313" lon="-5.22235">
        <ele>98.25</ele>
        <time>2021-03-20T23:25:51Z</time>
      </trkpt>
      <trkpt lat="58.03314" lon="-5.22266">
        <ele>98.24</ele>
        <time>2021-03-20T23:25:55Z</time>
      </trkpt>
      <trkpt lat="58.03333" lon="-5.22371">
        <ele>96.59</ele>
        <time>2021-03-20T23:25:58Z</time>
      </trkpt>
      <trkpt lat="58.03352" lon="-5.22439">
        <ele>98.8</ele>
        <time>2021-03-20T23:26:01Z</time>
      </trkpt>
      <trkpt lat="58.03356" lon="-5.22461">
        <ele>100</ele>
        <time>2021-03-20T23:26:05Z</time>
      </trkpt>
      <trkpt lat="58.03355" lon="-5.22492">
        <ele>100.72</ele>
        <time>2021-03-20T23:26:08Z</time>
      </trkpt>
      <trkpt lat="58.03347" lon="-5.22609">
        <ele>97.87</ele>
        <time>2021-03-20T23:26:11Z</time>
      </trkpt>
      <trkpt lat="58.03345" lon="-5.2283">
        <ele>97.28</ele>
        <time>2021-03-20T23:26:15Z</time>
      </trkpt>
      <trkpt lat="58.03338" lon="-5.23087">
        <ele>99.76</ele>
        <time>2021-03-20T23:26:18Z</time>
      </trkpt>
      <trkpt lat="58.03338" lon="-5.23198">
        <ele>99.98</ele>
        <time>2021-03-20T23:26:21Z</time>
      </trkpt>
      <trkpt lat="58.03326" lon="-5.2332">
        <ele>96.76</ele>
        <time>2021-03-20T23:26:24Z</time>
      </trkpt>
      <trkpt lat="58.03329" lon="-5.23352">
        <ele>95.16</ele>
        <time>2021-03-20T23:26:28Z</time>
      </trkpt>
      <trkpt lat="58.03335" lon="-5.2337">
        <ele>94.54</ele>
        <time>2021-03-20T23:26:31Z</time>
      </trkpt>
      <trkpt lat="58.03349" lon="-5.23394">
        <ele>94.54</ele>
        <time>2021-03-20T23:26:34Z</time>
      </trkpt>
      <trkpt lat="58.0339" lon="-5.23497">
        <ele>88.57</ele>
        <time>2021-03-20T23:26:38Z</time>
      </trkpt>
      <trkpt lat="58.03419" lon="-5.23556">
        <ele>85.04</ele>
        <time>2021-03-20T23:26:41Z</time>
      </trkpt>
      <trkpt lat="58.03425" lon="-5.23566">
        <ele>84.37</ele>
        <time>2021-03-20T23:26:44Z</time>
      </trkpt>
      <trkpt lat="58.03432" lon="-5.23575">
        <ele>83.58</ele>
        <time>2021-03-20T23:26:48Z</time>
      </trkpt>
      <trkpt lat="58.03478" lon="-5.23598">
        <ele>84.42</ele>
        <time>2021-03-20T23:26:51Z</time>
      </trkpt>
      <trkpt lat="58.03494" lon="-5.23614">
        <ele>83.97</ele>
        <time>2021-03-20T23:26:54Z</time>
      </trkpt>
      <trkpt lat="58.03512" lon="-5.2365">
        <ele>81.1</ele>
        <time>2021-03-20T23:26:58Z</time>
      </trkpt>
      <trkpt lat="58.0353" lon="-5.23665">
        <ele>81.57</ele>
        <time>2021-03-20T23:27:01Z</time>
      </trkpt>
      <trkpt lat="58.03559" lon="-5.23681">
        <ele>83.38</ele>
        <time>2021-03-20T23:27:04Z</time>
      </trkpt>
      <trkpt lat="58.03568" lon="-5.23694">
        <ele>83.21</ele>
        <time>2021-03-20T23:27:08Z</time>
      </trkpt>
      <trkpt lat="58.03575" lon="-5.2371">
        <ele>81.92</ele>
        <time>2021-03-20T23:27:11Z</time>
      </trkpt>
      <trkpt lat="58.03578" lon="-5.23728">
        <ele>79.67</ele>
        <time>2021-03-20T23:27:14Z</time>
      </trkpt>
      <trkpt lat="58.03581" lon="-5.23825">
        <ele>73.21</ele>
        <time>2021-03-20T23:27:17Z</time>
      </trkpt>
      <trkpt lat="58.03588" lon="-5.23902">
        <ele>70.19</ele>
        <time>2021-03-20T23:27:21Z</time>
      </trkpt>
      <trkpt lat="58.03594" lon="-5.23931">
        <ele>70.04</ele>
        <time>2021-03-20T23:27:24Z</time>
      </trkpt>
      <trkpt lat="58.03609" lon="-5.23988">
        <ele>68.87</ele>
        <time>2021-03-20T23:27:27Z</time>
      </trkpt>
      <trkpt lat="58.03623" lon="-5.24016">
        <ele>69.44</ele>
        <time>2021-03-20T23:27:31Z</time>
      </trkpt>
      <trkpt lat="58.03669" lon="-5.24088">
        <ele>71</ele>
        <time>2021-03-20T23:27:34Z</time>
      </trkpt>
      <trkpt lat="58.03693" lon="-5.24138">
        <ele>68.88</ele>
        <time>2021-03-20T23:27:37Z</time>
      </trkpt>
      <trkpt lat="58.03739" lon="-5.24221">
        <ele>65.97</ele>
        <time>2021-03-20T23:27:41Z</time>
      </trkpt>
      <trkpt lat="58.03764" lon="-5.24241">
        <ele>64.9</ele>
        <time>2021-03-20T23:27:44Z</time>
      </trkpt>
      <trkpt lat="58.03795" lon="-5.24272">
        <ele>62.13</ele>
        <time>2021-03-20T23:27:47Z</time>
      </trkpt>
      <trkpt lat="58.03842" lon="-5.24335">
        <ele>60.16</ele>
        <time>2021-03-20T23:27:51Z</time>
      </trkpt>
      <trkpt lat="58.03907" lon="-5.24404">
        <ele>59.53</ele>
        <time>2021-03-20T23:27:54Z</time>
      </trkpt>
      <trkpt lat="58.03952" lon="-5.24448">
        <ele>58.78</ele>
        <time>2021-03-20T23:27:57Z</time>
      </trkpt>
      <trkpt lat="58.03973" lon="-5.24474">
        <ele>60.12</ele>
        <time>2021-03-20T23:28:00Z</time>
      </trkpt>
      <trkpt lat="58.04032" lon="-5.24621">
        <ele>60.91</ele>
        <time>2021-03-20T23:28:04Z</time>
      </trkpt>
      <trkpt lat="58.04072" lon="-5.24709">
        <ele>59.67</ele>
        <time>2021-03-20T23:28:07Z</time>
      </trkpt>
      <trkpt lat="58.04109" lon="-5.24763">
        <ele>59.37</ele>
        <time>2021-03-20T23:28:10Z</time>
      </trkpt>
      <trkpt lat="58.04151" lon="-5.24804">
        <ele>57.57</ele>
        <time>2021-03-20T23:28:14Z</time>
      </trkpt>
      <trkpt lat="58.04219" lon="-5.24861">
        <ele>55.8</ele>
        <time>2021-03-20T23:28:17Z</time>
      </trkpt>
      <trkpt lat="58.04245" lon="-5.24889">
        <ele>56.47</ele>
        <time>2021-03-20T23:28:20Z</time>
      </trkpt>
      <trkpt lat="58.04283" lon="-5.24965">
        <ele>57.7</ele>
        <time>2021-03-20T23:28:24Z</time>
      </trkpt>
      <trkpt lat="58.04338" lon="-5.25099">
        <ele>56.77</ele>
        <time>2021-03-20T23:28:27Z</time>
      </trkpt>
      <trkpt lat="58.0439" lon="-5.25214">
        <ele>54.04</ele>
        <time>2021-03-20T23:28:30Z</time>
      </trkpt>
      <trkpt lat="58.04422" lon="-5.25297">
        <ele>54.5</ele>
        <time>2021-03-20T23:28:34Z</time>
      </trkpt>
      <trkpt lat="58.04439" lon="-5.25376">
        <ele>54</ele>
        <time>2021-03-20T23:28:37Z</time>
      </trkpt>
      <trkpt lat="58.04447" lon="-5.25549">
        <ele>56.3</ele>
        <time>2021-03-20T23:28:40Z</time>
      </trkpt>
      <trkpt lat="58.04459" lon="-5.256">
        <ele>56.6</ele>
        <time>2021-03-20T23:28:43Z</time>
      </trkpt>
      <trkpt lat="58.04514" lon="-5.25771">
        <ele>56.61</ele>
        <time>2021-03-20T23:28:47Z</time>
      </trkpt>
      <trkpt lat="58.04549" lon="-5.25899">
        <ele>56.14</ele>
        <time>2021-03-20T23:28:50Z</time>
      </trkpt>
      <trkpt lat="58.04573" lon="-5.25996">
        <ele>56.6</ele>
        <time>2021-03-20T23:28:53Z</time>
      </trkpt>
      <trkpt lat="58.04588" lon="-5.26075">
        <ele>57</ele>
        <time>2021-03-20T23:28:57Z</time>
      </trkpt>
      <trkpt lat="58.04612" lon="-5.26229">
        <ele>55.92</ele>
        <time>2021-03-20T23:29:00Z</time>
      </trkpt>
      <trkpt lat="58.04639" lon="-5.26372">
        <ele>54.06</ele>
        <time>2021-03-20T23:29:03Z</time>
      </trkpt>
      <trkpt lat="58.04658" lon="-5.26481">
        <ele>56.02</ele>
        <time>2021-03-20T23:29:07Z</time>
      </trkpt>
      <trkpt lat="58.04662" lon="-5.26726">
        <ele>55.82</ele>
        <time>2021-03-20T23:29:10Z</time>
      </trkpt>
      <trkpt lat="58.04669" lon="-5.26848">
        <ele>56.89</ele>
        <time>2021-03-20T23:29:13Z</time>
      </trkpt>
      <trkpt lat="58.04673" lon="-5.27">
        <ele>59.9</ele>
        <time>2021-03-20T23:29:17Z</time>
      </trkpt>
      <trkpt lat="58.04667" lon="-5.273">
        <ele>59.21</ele>
        <time>2021-03-20T23:29:20Z</time>
      </trkpt>
      <trkpt lat="58.04661" lon="-5.27476">
        <ele>59.43</ele>
        <time>2021-03-20T23:29:23Z</time>
      </trkpt>
      <trkpt lat="58.0467" lon="-5.27566">
        <ele>58.08</ele>
        <time>2021-03-20T23:29:27Z</time>
      </trkpt>
      <trkpt lat="58.04703" lon="-5.27697">
        <ele>59.46</ele>
        <time>2021-03-20T23:29:30Z</time>
      </trkpt>
      <trkpt lat="58.04714" lon="-5.27787">
        <ele>58.48</ele>
        <time>2021-03-20T23:29:33Z</time>
      </trkpt>
      <trkpt lat="58.04721" lon="-5.2788">
        <ele>58.85</ele>
        <time>2021-03-20T23:29:36Z</time>
      </trkpt>
      <trkpt lat="58.04719" lon="-5.27921">
        <ele>59.58</ele>
        <time>2021-03-20T23:29:40Z</time>
      </trkpt>
      <trkpt lat="58.04715" lon="-5.2796">
        <ele>59</ele>
        <time>2021-03-20T23:29:43Z</time>
      </trkpt>
      <trkpt lat="58.04716" lon="-5.27997">
        <ele>59.07</ele>
        <time>2021-03-20T23:29:46Z</time>
      </trkpt>
      <trkpt lat="58.04736" lon="-5.28132">
        <ele>60.21</ele>
        <time>2021-03-20T23:29:50Z</time>
      </trkpt>
      <trkpt lat="58.04738" lon="-5.28173">
        <ele>60.42</ele>
        <time>2021-03-20T23:29:53Z</time>
      </trkpt>
      <trkpt lat="58.04733" lon="-5.28262">
        <ele>59.76</ele>
        <time>2021-03-20T23:29:56Z</time>
      </trkpt>
      <trkpt lat="58.04734" lon="-5.28303">
        <ele>59.84</ele>
        <time>2021-03-20T23:30:00Z</time>
      </trkpt>
      <trkpt lat="58.04741" lon="-5.28337">
        <ele>60.27</ele>
        <time>2021-03-20T23:30:03Z</time>
      </trkpt>
      <trkpt lat="58.04771" lon="-5.28435">
        <ele>60.74</ele>
        <time>2021-03-20T23:30:06Z</time>
      </trkpt>
      <trkpt lat="58.04791" lon="-5.28383">
        <ele>62.98</ele>
        <time>2021-03-20T23:30:09Z</time>
      </trkpt>
      <trkpt lat="58.04804" lon="-5.28288">
        <ele>66.45</ele>
        <time>2021-03-20T23:30:12Z</time>
      </trkpt>
      <trkpt lat="58.04812" lon="-5.28172">
        <ele>71.03</ele>
        <time>2021-03-20T23:30:15Z</time>
      </trkpt>
      <trkpt lat="58.04818" lon="-5.28128">
        <ele>73.18</ele>
        <time>2021-03-20T23:30:17Z</time>
      </trkpt>
      <trkpt lat="58.04828" lon="-5.28052">
        <ele>76.15</ele>
        <time>2021-03-20T23:30:20Z</time>
      </trkpt>
      <trkpt lat="58.04848" lon="-5.27934">
        <ele>81.66</ele>
        <time>2021-03-20T23:30:23Z</time>
      </trkpt>
      <trkpt lat="58.04879" lon="-5.27806">
        <ele>87.53</ele>
        <time>2021-03-20T23:30:25Z</time>
      </trkpt>
      <trkpt lat="58.04939" lon="-5.27616">
        <ele>96.07</ele>
        <time>2021-03-20T23:30:28Z</time>
      </trkpt>
      <trkpt lat="58.04954" lon="-5.27562">
        <ele>98.37</ele>
        <time>2021-03-20T23:30:31Z</time>
      </trkpt>
      <trkpt lat="58.04963" lon="-5.27506">
        <ele>99.78</ele>
        <time>2021-03-20T23:30:34Z</time>
      </trkpt>
      <trkpt lat="58.04986" lon="-5.27323">
        <ele>105.01</ele>
        <time>2021-03-20T23:30:36Z</time>
      </trkpt>
      <trkpt lat="58.05008" lon="-5.27084">
        <ele>111.83</ele>
        <time>2021-03-20T23:30:39Z</time>
      </trkpt>
      <trkpt lat="58.05026" lon="-5.26922">
        <ele>117.75</ele>
        <time>2021-03-20T23:30:42Z</time>
      </trkpt>
      <trkpt lat="58.05048" lon="-5.26795">
        <ele>124.28</ele>
        <time>2021-03-20T23:30:44Z</time>
      </trkpt>
      <trkpt lat="58.05083" lon="-5.26682">
        <ele>127.96</ele>
        <time>2021-03-20T23:30:47Z</time>
      </trkpt>
      <trkpt lat="58.05118" lon="-5.26632">
        <ele>130.23</ele>
        <time>2021-03-20T23:30:50Z</time>
      </trkpt>
      <trkpt lat="58.05159" lon="-5.26595">
        <ele>131.71</ele>
        <time>2021-03-20T23:30:53Z</time>
      </trkpt>
      <trkpt lat="58.05238" lon="-5.26546">
        <ele>130.43</ele>
        <time>2021-03-20T23:30:55Z</time>
      </trkpt>
      <trkpt lat="58.05293" lon="-5.26507">
        <ele>126.65</ele>
        <time>2021-03-20T23:30:58Z</time>
      </trkpt>
      <trkpt lat="58.05307" lon="-5.2648">
        <ele>124.83</ele>
        <time>2021-03-20T23:31:01Z</time>
      </trkpt>
      <trkpt lat="58.05315" lon="-5.26445">
        <ele>123.23</ele>
        <time>2021-03-20T23:31:03Z</time>
      </trkpt>
      <trkpt lat="58.05322" lon="-5.26365">
        <ele>120.52</ele>
        <time>2021-03-20T23:31:06Z</time>
      </trkpt>
      <trkpt lat="58.05329" lon="-5.26342">
        <ele>118.14</ele>
        <time>2021-03-20T23:31:09Z</time>
      </trkpt>
      <trkpt lat="58.05335" lon="-5.26339">
        <ele>116.88</ele>
        <time>2021-03-20T23:31:12Z</time>
      </trkpt>
      <trkpt lat="58.05341" lon="-5.26348">
        <ele>116.22</ele>
        <time>2021-03-20T23:31:14Z</time>
      </trkpt>
      <trkpt lat="58.05354" lon="-5.26397">
        <ele>114.49</ele>
        <time>2021-03-20T23:31:17Z</time>
      </trkpt>
      <trkpt lat="58.05369" lon="-5.26426">
        <ele>112.93</ele>
        <time>2021-03-20T23:31:20Z</time>
      </trkpt>
      <trkpt lat="58.05415" lon="-5.26457">
        <ele>108.13</ele>
        <time>2021-03-20T23:31:22Z</time>
      </trkpt>
      <trkpt lat="58.05469" lon="-5.26505">
        <ele>104.42</ele>
        <time>2021-03-20T23:31:25Z</time>
      </trkpt>
      <trkpt lat="58.05513" lon="-5.26586">
        <ele>101.12</ele>
        <time>2021-03-20T23:31:28Z</time>
      </trkpt>
      <trkpt lat="58.05534" lon="-5.26616">
        <ele>99.14</ele>
        <time>2021-03-20T23:31:30Z</time>
      </trkpt>
      <trkpt lat="58.05565" lon="-5.26629">
        <ele>99</ele>
        <time>2021-03-20T23:31:33Z</time>
      </trkpt>
      <trkpt lat="58.05601" lon="-5.26609">
        <ele>98.85</ele>
        <time>2021-03-20T23:31:36Z</time>
      </trkpt>
      <trkpt lat="58.05639" lon="-5.26573">
        <ele>94.91</ele>
        <time>2021-03-20T23:31:39Z</time>
      </trkpt>
      <trkpt lat="58.05662" lon="-5.26558">
        <ele>90.68</ele>
        <time>2021-03-20T23:31:41Z</time>
      </trkpt>
      <trkpt lat="58.05682" lon="-5.26563">
        <ele>88.87</ele>
        <time>2021-03-20T23:31:44Z</time>
      </trkpt>
      <trkpt lat="58.05707" lon="-5.26591">
        <ele>89.83</ele>
        <time>2021-03-20T23:31:47Z</time>
      </trkpt>
      <trkpt lat="58.05729" lon="-5.2659">
        <ele>85.58</ele>
        <time>2021-03-20T23:31:49Z</time>
      </trkpt>
      <trkpt lat="58.05741" lon="-5.26596">
        <ele>84.13</ele>
        <time>2021-03-20T23:31:52Z</time>
      </trkpt>
      <trkpt lat="58.05757" lon="-5.26621">
        <ele>83.54</ele>
        <time>2021-03-20T23:31:55Z</time>
      </trkpt>
      <trkpt lat="58.0577" lon="-5.26656">
        <ele>83.91</ele>
        <time>2021-03-20T23:31:58Z</time>
      </trkpt>
      <trkpt lat="58.05793" lon="-5.26683">
        <ele>82.26</ele>
        <time>2021-03-20T23:32:00Z</time>
      </trkpt>
      <trkpt lat="58.05817" lon="-5.26689">
        <ele>80.16</ele>
        <time>2021-03-20T23:32:03Z</time>
      </trkpt>
      <trkpt lat="58.05855" lon="-5.26675">
        <ele>77.85</ele>
        <time>2021-03-20T23:32:06Z</time>
      </trkpt>
      <trkpt lat="58.05891" lon="-5.26656">
        <ele>76.55</ele>
        <time>2021-03-20T23:32:08Z</time>
      </trkpt>
      <trkpt lat="58.05929" lon="-5.26672">
        <ele>75.94</ele>
        <time>2021-03-20T23:32:11Z</time>
      </trkpt>
      <trkpt lat="58.05952" lon="-5.2669">
        <ele>75.57</ele>
        <time>2021-03-20T23:32:14Z</time>
      </trkpt>
      <trkpt lat="58.06001" lon="-5.26761">
        <ele>68.94</ele>
        <time>2021-03-20T23:32:17Z</time>
      </trkpt>
      <trkpt lat="58.06025" lon="-5.26776">
        <ele>67.19</ele>
        <time>2021-03-20T23:32:19Z</time>
      </trkpt>
      <trkpt lat="58.06057" lon="-5.26763">
        <ele>65.32</ele>
        <time>2021-03-20T23:32:22Z</time>
      </trkpt>
      <trkpt lat="58.06089" lon="-5.26767">
        <ele>62.4</ele>
        <time>2021-03-20T23:32:25Z</time>
      </trkpt>
      <trkpt lat="58.06118" lon="-5.26785">
        <ele>59.23</ele>
        <time>2021-03-20T23:32:27Z</time>
      </trkpt>
      <trkpt lat="58.06142" lon="-5.26813">
        <ele>56.78</ele>
        <time>2021-03-20T23:32:30Z</time>
      </trkpt>
      <trkpt lat="58.06197" lon="-5.26846">
        <ele>53.27</ele>
        <time>2021-03-20T23:32:33Z</time>
      </trkpt>
      <trkpt lat="58.06234" lon="-5.26837">
        <ele>50.32</ele>
        <time>2021-03-20T23:32:36Z</time>
      </trkpt>
      <trkpt lat="58.06263" lon="-5.26813">
        <ele>48.51</ele>
        <time>2021-03-20T23:32:38Z</time>
      </trkpt>
      <trkpt lat="58.06294" lon="-5.26759">
        <ele>49.58</ele>
        <time>2021-03-20T23:32:41Z</time>
      </trkpt>
      <trkpt lat="58.06324" lon="-5.26628">
        <ele>48.56</ele>
        <time>2021-03-20T23:32:44Z</time>
      </trkpt>
      <trkpt lat="58.06344" lon="-5.26578">
        <ele>44.78</ele>
        <time>2021-03-20T23:32:46Z</time>
      </trkpt>
      <trkpt lat="58.06372" lon="-5.26541">
        <ele>40.42</ele>
        <time>2021-03-20T23:32:49Z</time>
      </trkpt>
      <trkpt lat="58.06428" lon="-5.26517">
        <ele>34.04</ele>
        <time>2021-03-20T23:32:52Z</time>
      </trkpt>
      <trkpt lat="58.06468" lon="-5.26529">
        <ele>29.15</ele>
        <time>2021-03-20T23:32:55Z</time>
      </trkpt>
      <trkpt lat="58.06495" lon="-5.26546">
        <ele>25.55</ele>
        <time>2021-03-20T23:32:57Z</time>
      </trkpt>
      <trkpt lat="58.06516" lon="-5.26572">
        <ele>23.42</ele>
        <time>2021-03-20T23:33:00Z</time>
      </trkpt>
      <trkpt lat="58.06594" lon="-5.26714">
        <ele>14.52</ele>
        <time>2021-03-20T23:33:03Z</time>
      </trkpt>
      <trkpt lat="58.06615" lon="-5.26747">
        <ele>13.36</ele>
        <time>2021-03-20T23:33:05Z</time>
      </trkpt>
      <trkpt lat="58.06644" lon="-5.2677">
        <ele>10.66</ele>
        <time>2021-03-20T23:33:08Z</time>
      </trkpt>
      <trkpt lat="58.06664" lon="-5.2677">
        <ele>9.22</ele>
        <time>2021-03-20T23:33:11Z</time>
      </trkpt>
      <trkpt lat="58.06709" lon="-5.26725">
        <ele>9.89</ele>
        <time>2021-03-20T23:33:14Z</time>
      </trkpt>
      <trkpt lat="58.06731" lon="-5.26693">
        <ele>9.96</ele>
        <time>2021-03-20T23:33:16Z</time>
      </trkpt>
      <trkpt lat="58.06769" lon="-5.26626">
        <ele>9</ele>
        <time>2021-03-20T23:33:19Z</time>
      </trkpt>
      <trkpt lat="58.06808" lon="-5.26601">
        <ele>10.13</ele>
        <time>2021-03-20T23:33:22Z</time>
      </trkpt>
      <trkpt lat="58.06815" lon="-5.26588">
        <ele>10.59</ele>
        <time>2021-03-20T23:33:24Z</time>
      </trkpt>
      <trkpt lat="58.06825" lon="-5.26552">
        <ele>12.55</ele>
        <time>2021-03-20T23:33:27Z</time>
      </trkpt>
      <trkpt lat="58.06837" lon="-5.26447">
        <ele>17.19</ele>
        <time>2021-03-20T23:33:30Z</time>
      </trkpt>
      <trkpt lat="58.06838" lon="-5.26379">
        <ele>21.09</ele>
        <time>2021-03-20T23:33:32Z</time>
      </trkpt>
      <trkpt lat="58.06834" lon="-5.26327">
        <ele>24.8</ele>
        <time>2021-03-20T23:33:35Z</time>
      </trkpt>
      <trkpt lat="58.06815" lon="-5.26258">
        <ele>29.6</ele>
        <time>2021-03-20T23:33:38Z</time>
      </trkpt>
      <trkpt lat="58.06808" lon="-5.26148">
        <ele>31.47</ele>
        <time>2021-03-20T23:33:41Z</time>
      </trkpt>
      <trkpt lat="58.06814" lon="-5.26032">
        <ele>37.25</ele>
        <time>2021-03-20T23:33:43Z</time>
      </trkpt>
      <trkpt lat="58.0683" lon="-5.25886">
        <ele>47.49</ele>
        <time>2021-03-20T23:33:46Z</time>
      </trkpt>
      <trkpt lat="58.06848" lon="-5.25747">
        <ele>53.42</ele>
        <time>2021-03-20T23:33:49Z</time>
      </trkpt>
      <trkpt lat="58.06859" lon="-5.25688">
        <ele>50.12</ele>
        <time>2021-03-20T23:33:51Z</time>
      </trkpt>
      <trkpt lat="58.06872" lon="-5.25643">
        <ele>50.31</ele>
        <time>2021-03-20T23:33:54Z</time>
      </trkpt>
      <trkpt lat="58.06904" lon="-5.256">
        <ele>52.88</ele>
        <time>2021-03-20T23:33:57Z</time>
      </trkpt>
      <trkpt lat="58.06947" lon="-5.25553">
        <ele>58.81</ele>
        <time>2021-03-20T23:34:00Z</time>
      </trkpt>
      <trkpt lat="58.06991" lon="-5.25447">
        <ele>63.49</ele>
        <time>2021-03-20T23:34:02Z</time>
      </trkpt>
      <trkpt lat="58.07007" lon="-5.2538">
        <ele>64.16</ele>
        <time>2021-03-20T23:34:05Z</time>
      </trkpt>
      <trkpt lat="58.07045" lon="-5.25309">
        <ele>71.56</ele>
        <time>2021-03-20T23:34:08Z</time>
      </trkpt>
      <trkpt lat="58.07064" lon="-5.25237">
        <ele>74.85</ele>
        <time>2021-03-20T23:34:10Z</time>
      </trkpt>
      <trkpt lat="58.07078" lon="-5.25199">
        <ele>76.67</ele>
        <time>2021-03-20T23:34:13Z</time>
      </trkpt>
      <trkpt lat="58.07152" lon="-5.25108">
        <ele>82.02</ele>
        <time>2021-03-20T23:34:16Z</time>
      </trkpt>
      <trkpt lat="58.07191" lon="-5.25083">
        <ele>86.54</ele>
        <time>2021-03-20T23:34:19Z</time>
      </trkpt>
      <trkpt lat="58.0736" lon="-5.24905">
        <ele>98.49</ele>
        <time>2021-03-20T23:34:21Z</time>
      </trkpt>
      <trkpt lat="58.074" lon="-5.2488">
        <ele>98.59</ele>
        <time>2021-03-20T23:34:24Z</time>
      </trkpt>
      <trkpt lat="58.07438" lon="-5.24874">
        <ele>98.65</ele>
        <time>2021-03-20T23:34:27Z</time>
      </trkpt>
      <trkpt lat="58.07472" lon="-5.24879">
        <ele>99</ele>
        <time>2021-03-20T23:34:29Z</time>
      </trkpt>
      <trkpt lat="58.07495" lon="-5.24876">
        <ele>99.81</ele>
        <time>2021-03-20T23:34:32Z</time>
      </trkpt>
      <trkpt lat="58.07529" lon="-5.24847">
        <ele>99.01</ele>
        <time>2021-03-20T23:34:35Z</time>
      </trkpt>
      <trkpt lat="58.07562" lon="-5.2484">
        <ele>98</ele>
        <time>2021-03-20T23:34:38Z</time>
      </trkpt>
      <trkpt lat="58.07598" lon="-5.24853">
        <ele>98.41</ele>
        <time>2021-03-20T23:34:40Z</time>
      </trkpt>
      <trkpt lat="58.07621" lon="-5.24853">
        <ele>96.28</ele>
        <time>2021-03-20T23:34:43Z</time>
      </trkpt>
      <trkpt lat="58.07642" lon="-5.24833">
        <ele>93.87</ele>
        <time>2021-03-20T23:34:46Z</time>
      </trkpt>
      <trkpt lat="58.07658" lon="-5.24794">
        <ele>93.17</ele>
        <time>2021-03-20T23:34:48Z</time>
      </trkpt>
      <trkpt lat="58.07666" lon="-5.24767">
        <ele>93.01</ele>
        <time>2021-03-20T23:34:51Z</time>
      </trkpt>
      <trkpt lat="58.07715" lon="-5.24688">
        <ele>93.57</ele>
        <time>2021-03-20T23:34:54Z</time>
      </trkpt>
      <trkpt lat="58.07742" lon="-5.24663">
        <ele>92.8</ele>
        <time>2021-03-20T23:34:57Z</time>
      </trkpt>
      <trkpt lat="58.07786" lon="-5.24634">
        <ele>91.56</ele>
        <time>2021-03-20T23:34:59Z</time>
      </trkpt>
      <trkpt lat="58.07847" lon="-5.24589">
        <ele>91.4</ele>
        <time>2021-03-20T23:35:02Z</time>
      </trkpt>
      <trkpt lat="58.0787" lon="-5.24541">
        <ele>90.68</ele>
        <time>2021-03-20T23:35:05Z</time>
      </trkpt>
      <trkpt lat="58.07879" lon="-5.24504">
        <ele>89.78</ele>
        <time>2021-03-20T23:35:07Z</time>
      </trkpt>
      <trkpt lat="58.07891" lon="-5.24385">
        <ele>89.93</ele>
        <time>2021-03-20T23:35:10Z</time>
      </trkpt>
      <trkpt lat="58.07909" lon="-5.24287">
        <ele>91.69</ele>
        <time>2021-03-20T23:35:13Z</time>
      </trkpt>
      <trkpt lat="58.07923" lon="-5.24258">
        <ele>92.48</ele>
        <time>2021-03-20T23:35:15Z</time>
      </trkpt>
      <trkpt lat="58.07964" lon="-5.24232">
        <ele>91.46</ele>
        <time>2021-03-20T23:35:18Z</time>
      </trkpt>
      <trkpt lat="58.07968" lon="-5.24218">
        <ele>91.54</ele>
        <time>2021-03-20T23:35:21Z</time>
      </trkpt>
      <trkpt lat="58.07971" lon="-5.24147">
        <ele>95.44</ele>
        <time>2021-03-20T23:35:24Z</time>
      </trkpt>
      <trkpt lat="58.07977" lon="-5.24125">
        <ele>97.25</ele>
        <time>2021-03-20T23:35:26Z</time>
      </trkpt>
      <trkpt lat="58.07987" lon="-5.2412">
        <ele>98.25</ele>
        <time>2021-03-20T23:35:29Z</time>
      </trkpt>
      <trkpt lat="58.08008" lon="-5.24134">
        <ele>98.08</ele>
        <time>2021-03-20T23:35:32Z</time>
      </trkpt>
      <trkpt lat="58.08027" lon="-5.24132">
        <ele>99.66</ele>
        <time>2021-03-20T23:35:34Z</time>
      </trkpt>
      <trkpt lat="58.08054" lon="-5.24102">
        <ele>104.56</ele>
        <time>2021-03-20T23:35:37Z</time>
      </trkpt>
      <trkpt lat="58.08068" lon="-5.2407">
        <ele>108.08</ele>
        <time>2021-03-20T23:35:40Z</time>
      </trkpt>
      <trkpt lat="58.08134" lon="-5.23842">
        <ele>106.89</ele>
        <time>2021-03-20T23:35:43Z</time>
      </trkpt>
      <trkpt lat="58.08176" lon="-5.23764">
        <ele>103.51</ele>
        <time>2021-03-20T23:35:45Z</time>
      </trkpt>
      <trkpt lat="58.08221" lon="-5.23708">
        <ele>101.84</ele>
        <time>2021-03-20T23:35:48Z</time>
      </trkpt>
      <trkpt lat="58.08251" lon="-5.23684">
        <ele>100.86</ele>
        <time>2021-03-20T23:35:51Z</time>
      </trkpt>
      <trkpt lat="58.08297" lon="-5.2368">
        <ele>105.16</ele>
        <time>2021-03-20T23:35:53Z</time>
      </trkpt>
      <trkpt lat="58.0832" lon="-5.23675">
        <ele>107.33</ele>
        <time>2021-03-20T23:35:56Z</time>
      </trkpt>
      <trkpt lat="58.08354" lon="-5.23659">
        <ele>108.93</ele>
        <time>2021-03-20T23:35:59Z</time>
      </trkpt>
      <trkpt lat="58.084" lon="-5.23645">
        <ele>109.31</ele>
        <time>2021-03-20T23:36:02Z</time>
      </trkpt>
      <trkpt lat="58.08427" lon="-5.23615">
        <ele>105.07</ele>
        <time>2021-03-20T23:36:04Z</time>
      </trkpt>
      <trkpt lat="58.08467" lon="-5.23579">
        <ele>102.34</ele>
        <time>2021-03-20T23:36:07Z</time>
      </trkpt>
      <trkpt lat="58.0851" lon="-5.23535">
        <ele>99.63</ele>
        <time>2021-03-20T23:36:10Z</time>
      </trkpt>
      <trkpt lat="58.08542" lon="-5.23511">
        <ele>96.44</ele>
        <time>2021-03-20T23:36:12Z</time>
      </trkpt>
      <trkpt lat="58.08558" lon="-5.23512">
        <ele>95.62</ele>
        <time>2021-03-20T23:36:15Z</time>
      </trkpt>
      <trkpt lat="58.08593" lon="-5.23535">
        <ele>96.97</ele>
        <time>2021-03-20T23:36:18Z</time>
      </trkpt>
      <trkpt lat="58.08618" lon="-5.23532">
        <ele>97.85</ele>
        <time>2021-03-20T23:36:21Z</time>
      </trkpt>
      <trkpt lat="58.0863" lon="-5.2351">
        <ele>96.47</ele>
        <time>2021-03-20T23:36:23Z</time>
      </trkpt>
      <trkpt lat="58.08658" lon="-5.23419">
        <ele>91.11</ele>
        <time>2021-03-20T23:36:26Z</time>
      </trkpt>
      <trkpt lat="58.08702" lon="-5.23343">
        <ele>90.47</ele>
        <time>2021-03-20T23:36:29Z</time>
      </trkpt>
      <trkpt lat="58.08724" lon="-5.23316">
        <ele>90.19</ele>
        <time>2021-03-20T23:36:31Z</time>
      </trkpt>
      <trkpt lat="58.08766" lon="-5.23292">
        <ele>88.06</ele>
        <time>2021-03-20T23:36:34Z</time>
      </trkpt>
      <trkpt lat="58.08785" lon="-5.23287">
        <ele>86.83</ele>
        <time>2021-03-20T23:36:37Z</time>
      </trkpt>
      <trkpt lat="58.08805" lon="-5.23295">
        <ele>86.6</ele>
        <time>2021-03-20T23:36:40Z</time>
      </trkpt>
      <trkpt lat="58.08821" lon="-5.23318">
        <ele>88.51</ele>
        <time>2021-03-20T23:36:42Z</time>
      </trkpt>
      <trkpt lat="58.08833" lon="-5.23321">
        <ele>88.18</ele>
        <time>2021-03-20T23:36:45Z</time>
      </trkpt>
      <trkpt lat="58.0884" lon="-5.23312">
        <ele>88.55</ele>
        <time>2021-03-20T23:36:48Z</time>
      </trkpt>
      <trkpt lat="58.0885" lon="-5.23247">
        <ele>86.07</ele>
        <time>2021-03-20T23:36:50Z</time>
      </trkpt>
      <trkpt lat="58.08866" lon="-5.23208">
        <ele>84.57</ele>
        <time>2021-03-20T23:36:53Z</time>
      </trkpt>
      <trkpt lat="58.08894" lon="-5.23173">
        <ele>84.01</ele>
        <time>2021-03-20T23:36:56Z</time>
      </trkpt>
      <trkpt lat="58.08958" lon="-5.23182">
        <ele>87.66</ele>
        <time>2021-03-20T23:36:59Z</time>
      </trkpt>
      <trkpt lat="58.09006" lon="-5.23202">
        <ele>87.14</ele>
        <time>2021-03-20T23:37:01Z</time>
      </trkpt>
      <trkpt lat="58.0903" lon="-5.23228">
        <ele>87.07</ele>
        <time>2021-03-20T23:37:04Z</time>
      </trkpt>
      <trkpt lat="58.09052" lon="-5.23288">
        <ele>87.65</ele>
        <time>2021-03-20T23:37:07Z</time>
      </trkpt>
      <trkpt lat="58.0909" lon="-5.23348">
        <ele>83.8</ele>
        <time>2021-03-20T23:37:09Z</time>
      </trkpt>
      <trkpt lat="58.09116" lon="-5.23374">
        <ele>81.18</ele>
        <time>2021-03-20T23:37:12Z</time>
      </trkpt>
      <trkpt lat="58.09134" lon="-5.23405">
        <ele>81.88</ele>
        <time>2021-03-20T23:37:15Z</time>
      </trkpt>
      <trkpt lat="58.09147" lon="-5.23418">
        <ele>82.22</ele>
        <time>2021-03-20T23:37:17Z</time>
      </trkpt>
      <trkpt lat="58.09164" lon="-5.23424">
        <ele>81.18</ele>
        <time>2021-03-20T23:37:20Z</time>
      </trkpt>
      <trkpt lat="58.09183" lon="-5.2342">
        <ele>80.95</ele>
        <time>2021-03-20T23:37:23Z</time>
      </trkpt>
      <trkpt lat="58.09209" lon="-5.23382">
        <ele>79.43</ele>
        <time>2021-03-20T23:37:26Z</time>
      </trkpt>
      <trkpt lat="58.09241" lon="-5.23322">
        <ele>75.96</ele>
        <time>2021-03-20T23:37:28Z</time>
      </trkpt>
      <trkpt lat="58.09311" lon="-5.23243">
        <ele>74.79</ele>
        <time>2021-03-20T23:37:31Z</time>
      </trkpt>
      <trkpt lat="58.09399" lon="-5.23191">
        <ele>73.27</ele>
        <time>2021-03-20T23:37:34Z</time>
      </trkpt>
      <trkpt lat="58.09466" lon="-5.23141">
        <ele>64.77</ele>
        <time>2021-03-20T23:37:36Z</time>
      </trkpt>
      <trkpt lat="58.09492" lon="-5.23142">
        <ele>61.48</ele>
        <time>2021-03-20T23:37:39Z</time>
      </trkpt>
      <trkpt lat="58.09519" lon="-5.23151">
        <ele>60.31</ele>
        <time>2021-03-20T23:37:42Z</time>
      </trkpt>
      <trkpt lat="58.09548" lon="-5.23155">
        <ele>58.68</ele>
        <time>2021-03-20T23:37:45Z</time>
      </trkpt>
      <trkpt lat="58.09566" lon="-5.23162">
        <ele>57.53</ele>
        <time>2021-03-20T23:37:47Z</time>
      </trkpt>
      <trkpt lat="58.09609" lon="-5.2321">
        <ele>52.13</ele>
        <time>2021-03-20T23:37:50Z</time>
      </trkpt>
      <trkpt lat="58.09629" lon="-5.23245">
        <ele>48.61</ele>
        <time>2021-03-20T23:37:53Z</time>
      </trkpt>
      <trkpt lat="58.09637" lon="-5.23271">
        <ele>46.68</ele>
        <time>2021-03-20T23:37:55Z</time>
      </trkpt>
      <trkpt lat="58.0964" lon="-5.23321">
        <ele>46.7</ele>
        <time>2021-03-20T23:37:58Z</time>
      </trkpt>
      <trkpt lat="58.09647" lon="-5.23361">
        <ele>44.83</ele>
        <time>2021-03-20T23:38:01Z</time>
      </trkpt>
      <trkpt lat="58.09671" lon="-5.23393">
        <ele>41.85</ele>
        <time>2021-03-20T23:38:04Z</time>
      </trkpt>
      <trkpt lat="58.09675" lon="-5.23414">
        <ele>41.11</ele>
        <time>2021-03-20T23:38:06Z</time>
      </trkpt>
      <trkpt lat="58.09675" lon="-5.23438">
        <ele>41</ele>
        <time>2021-03-20T23:38:09Z</time>
      </trkpt>
      <trkpt lat="58.09648" lon="-5.23554">
        <ele>36.7</ele>
        <time>2021-03-20T23:38:12Z</time>
      </trkpt>
      <trkpt lat="58.09618" lon="-5.23653">
        <ele>37.96</ele>
        <time>2021-03-20T23:38:14Z</time>
      </trkpt>
      <trkpt lat="58.0957" lon="-5.23793">
        <ele>34.7</ele>
        <time>2021-03-20T23:38:17Z</time>
      </trkpt>
      <trkpt lat="58.09507" lon="-5.23966">
        <ele>32.46</ele>
        <time>2021-03-20T23:38:20Z</time>
      </trkpt>
      <trkpt lat="58.09419" lon="-5.24137">
        <ele>32.01</ele>
        <time>2021-03-20T23:38:23Z</time>
      </trkpt>
      <trkpt lat="58.09396" lon="-5.24164">
        <ele>32.35</ele>
        <time>2021-03-20T23:38:25Z</time>
      </trkpt>
      <trkpt lat="58.09331" lon="-5.24198">
        <ele>31.03</ele>
        <time>2021-03-20T23:38:28Z</time>
      </trkpt>
      <trkpt lat="58.09313" lon="-5.24246">
        <ele>31.66</ele>
        <time>2021-03-20T23:38:31Z</time>
      </trkpt>
      <trkpt lat="58.09305" lon="-5.24311">
        <ele>32.89</ele>
        <time>2021-03-20T23:38:33Z</time>
      </trkpt>
      <trkpt lat="58.09301" lon="-5.24378">
        <ele>32.49</ele>
        <time>2021-03-20T23:38:36Z</time>
      </trkpt>
      <trkpt lat="58.09294" lon="-5.2443">
        <ele>31.5</ele>
        <time>2021-03-20T23:38:39Z</time>
      </trkpt>
      <trkpt lat="58.09295" lon="-5.24455">
        <ele>32.21</ele>
        <time>2021-03-20T23:38:42Z</time>
      </trkpt>
      <trkpt lat="58.09383" lon="-5.24627">
        <ele>25.78</ele>
        <time>2021-03-20T23:38:44Z</time>
      </trkpt>
      <trkpt lat="58.09437" lon="-5.24705">
        <ele>21.37</ele>
        <time>2021-03-20T23:38:47Z</time>
      </trkpt>
      <trkpt lat="58.09575" lon="-5.2505">
        <ele>20.36</ele>
        <time>2021-03-20T23:38:50Z</time>
      </trkpt>
      <trkpt lat="58.09603" lon="-5.2515">
        <ele>21.42</ele>
        <time>2021-03-20T23:38:52Z</time>
      </trkpt>
      <trkpt lat="58.09636" lon="-5.25247">
        <ele>21.09</ele>
        <time>2021-03-20T23:38:55Z</time>
      </trkpt>
      <trkpt lat="58.0965" lon="-5.25311">
        <ele>23.19</ele>
        <time>2021-03-20T23:38:58Z</time>
      </trkpt>
      <trkpt lat="58.09659" lon="-5.25392">
        <ele>24.92</ele>
        <time>2021-03-20T23:39:01Z</time>
      </trkpt>
      <trkpt lat="58.09663" lon="-5.25418">
        <ele>24.19</ele>
        <time>2021-03-20T23:39:03Z</time>
      </trkpt>
      <trkpt lat="58.09669" lon="-5.25438">
        <ele>23.12</ele>
        <time>2021-03-20T23:39:06Z</time>
      </trkpt>
      <trkpt lat="58.09713" lon="-5.25498">
        <ele>22.21</ele>
        <time>2021-03-20T23:39:09Z</time>
      </trkpt>
      <trkpt lat="58.09756" lon="-5.25569">
        <ele>17.47</ele>
        <time>2021-03-20T23:39:11Z</time>
      </trkpt>
      <trkpt lat="58.09787" lon="-5.25615">
        <ele>13.75</ele>
        <time>2021-03-20T23:39:14Z</time>
      </trkpt>
      <trkpt lat="58.09851" lon="-5.25781">
        <ele>14.78</ele>
        <time>2021-03-20T23:39:17Z</time>
      </trkpt>
      <trkpt lat="58.09869" lon="-5.25838">
        <ele>15.46</ele>
        <time>2021-03-20T23:39:19Z</time>
      </trkpt>
      <trkpt lat="58.09888" lon="-5.25946">
        <ele>13.96</ele>
        <time>2021-03-20T23:39:22Z</time>
      </trkpt>
      <trkpt lat="58.09916" lon="-5.26048">
        <ele>14.32</ele>
        <time>2021-03-20T23:39:25Z</time>
      </trkpt>
      <trkpt lat="58.09979" lon="-5.26153">
        <ele>17.19</ele>
        <time>2021-03-20T23:39:28Z</time>
      </trkpt>
      <trkpt lat="58.09988" lon="-5.26195">
        <ele>19.76</ele>
        <time>2021-03-20T23:39:30Z</time>
      </trkpt>
      <trkpt lat="58.09983" lon="-5.2623">
        <ele>18.67</ele>
        <time>2021-03-20T23:39:33Z</time>
      </trkpt>
      <trkpt lat="58.09983" lon="-5.26251">
        <ele>18.16</ele>
        <time>2021-03-20T23:39:36Z</time>
      </trkpt>
      <trkpt lat="58.10011" lon="-5.26318">
        <ele>18.49</ele>
        <time>2021-03-20T23:39:38Z</time>
      </trkpt>
      <trkpt lat="58.10018" lon="-5.26365">
        <ele>17.21</ele>
        <time>2021-03-20T23:39:41Z</time>
      </trkpt>
      <trkpt lat="58.10019" lon="-5.26413">
        <ele>16.63</ele>
        <time>2021-03-20T23:39:44Z</time>
      </trkpt>
      <trkpt lat="58.10066" lon="-5.26532">
        <ele>13.28</ele>
        <time>2021-03-20T23:39:47Z</time>
      </trkpt>
      <trkpt lat="58.10087" lon="-5.26564">
        <ele>12.5</ele>
        <time>2021-03-20T23:39:49Z</time>
      </trkpt>
      <trkpt lat="58.10146" lon="-5.26645">
        <ele>11.2</ele>
        <time>2021-03-20T23:39:52Z</time>
      </trkpt>
      <trkpt lat="58.10187" lon="-5.26662">
        <ele>13.22</ele>
        <time>2021-03-20T23:39:55Z</time>
      </trkpt>
      <trkpt lat="58.10198" lon="-5.26672">
        <ele>12.88</ele>
        <time>2021-03-20T23:39:57Z</time>
      </trkpt>
      <trkpt lat="58.10207" lon="-5.26699">
        <ele>10.7</ele>
        <time>2021-03-20T23:40:00Z</time>
      </trkpt>
      <trkpt lat="58.1024" lon="-5.26743">
        <ele>9.52</ele>
        <time>2021-03-20T23:40:03Z</time>
      </trkpt>
      <trkpt lat="58.10248" lon="-5.26752">
        <ele>9.33</ele>
        <time>2021-03-20T23:40:06Z</time>
      </trkpt>
      <trkpt lat="58.10274" lon="-5.26764">
        <ele>11.42</ele>
        <time>2021-03-20T23:40:08Z</time>
      </trkpt>
      <trkpt lat="58.10283" lon="-5.26788">
        <ele>9.88</ele>
        <time>2021-03-20T23:40:11Z</time>
      </trkpt>
      <trkpt lat="58.10289" lon="-5.26795">
        <ele>10.15</ele>
        <time>2021-03-20T23:40:14Z</time>
      </trkpt>
      <trkpt lat="58.10312" lon="-5.26809">
        <ele>13.28</ele>
        <time>2021-03-20T23:40:16Z</time>
      </trkpt>
      <trkpt lat="58.1032" lon="-5.2682">
        <ele>14.11</ele>
        <time>2021-03-20T23:40:19Z</time>
      </trkpt>
      <trkpt lat="58.10322" lon="-5.26829">
        <ele>13.72</ele>
        <time>2021-03-20T23:40:22Z</time>
      </trkpt>
      <trkpt lat="58.10322" lon="-5.26858">
        <ele>10.82</ele>
        <time>2021-03-20T23:40:25Z</time>
      </trkpt>
      <trkpt lat="58.10325" lon="-5.26872">
        <ele>10.27</ele>
        <time>2021-03-20T23:40:27Z</time>
      </trkpt>
      <trkpt lat="58.10335" lon="-5.269">
        <ele>9.04</ele>
        <time>2021-03-20T23:40:30Z</time>
      </trkpt>
      <trkpt lat="58.10342" lon="-5.26912">
        <ele>8.42</ele>
        <time>2021-03-20T23:40:33Z</time>
      </trkpt>
      <trkpt lat="58.10351" lon="-5.26918">
        <ele>8.71</ele>
        <time>2021-03-20T23:40:35Z</time>
      </trkpt>
      <trkpt lat="58.1038" lon="-5.26929">
        <ele>8.99</ele>
        <time>2021-03-20T23:40:38Z</time>
      </trkpt>
      <trkpt lat="58.10398" lon="-5.26925">
        <ele>9.46</ele>
        <time>2021-03-20T23:40:41Z</time>
      </trkpt>
      <trkpt lat="58.10421" lon="-5.26912">
        <ele>10.37</ele>
        <time>2021-03-20T23:40:44Z</time>
      </trkpt>
      <trkpt lat="58.10455" lon="-5.26876">
        <ele>11.75</ele>
        <time>2021-03-20T23:40:46Z</time>
      </trkpt>
      <trkpt lat="58.10479" lon="-5.26867">
        <ele>9.97</ele>
        <time>2021-03-20T23:40:49Z</time>
      </trkpt>
      <trkpt lat="58.10503" lon="-5.2687">
        <ele>7.36</ele>
        <time>2021-03-20T23:40:52Z</time>
      </trkpt>
      <trkpt lat="58.1052" lon="-5.26857">
        <ele>10.67</ele>
        <time>2021-03-20T23:40:54Z</time>
      </trkpt>
      <trkpt lat="58.10526" lon="-5.26857">
        <ele>11.31</ele>
        <time>2021-03-20T23:40:57Z</time>
      </trkpt>
      <trkpt lat="58.10537" lon="-5.26871">
        <ele>12.53</ele>
        <time>2021-03-20T23:41:00Z</time>
      </trkpt>
      <trkpt lat="58.10549" lon="-5.26905">
        <ele>12.63</ele>
        <time>2021-03-20T23:41:03Z</time>
      </trkpt>
      <trkpt lat="58.10554" lon="-5.26931">
        <ele>11.15</ele>
        <time>2021-03-20T23:41:05Z</time>
      </trkpt>
      <trkpt lat="58.10559" lon="-5.26994">
        <ele>7.93</ele>
        <time>2021-03-20T23:41:08Z</time>
      </trkpt>
      <trkpt lat="58.10566" lon="-5.27013">
        <ele>8.01</ele>
        <time>2021-03-20T23:41:11Z</time>
      </trkpt>
      <trkpt lat="58.10576" lon="-5.27024">
        <ele>8.48</ele>
        <time>2021-03-20T23:41:13Z</time>
      </trkpt>
      <trkpt lat="58.10607" lon="-5.27019">
        <ele>12.8</ele>
        <time>2021-03-20T23:41:16Z</time>
      </trkpt>
      <trkpt lat="58.10614" lon="-5.27029">
        <ele>12.54</ele>
        <time>2021-03-20T23:41:19Z</time>
      </trkpt>
      <trkpt lat="58.10632" lon="-5.27068">
        <ele>11.22</ele>
        <time>2021-03-20T23:41:21Z</time>
      </trkpt>
      <trkpt lat="58.10648" lon="-5.27095">
        <ele>12.38</ele>
        <time>2021-03-20T23:41:24Z</time>
      </trkpt>
      <trkpt lat="58.10684" lon="-5.27121">
        <ele>17.99</ele>
        <time>2021-03-20T23:41:27Z</time>
      </trkpt>
      <trkpt lat="58.10703" lon="-5.27131">
        <ele>20.84</ele>
        <time>2021-03-20T23:41:30Z</time>
      </trkpt>
      <trkpt lat="58.10712" lon="-5.27145">
        <ele>20.28</ele>
        <time>2021-03-20T23:41:32Z</time>
      </trkpt>
      <trkpt lat="58.10733" lon="-5.27189">
        <ele>17.09</ele>
        <time>2021-03-20T23:41:35Z</time>
      </trkpt>
      <trkpt lat="58.10738" lon="-5.27217">
        <ele>14.9</ele>
        <time>2021-03-20T23:41:38Z</time>
      </trkpt>
      <trkpt lat="58.10742" lon="-5.27283">
        <ele>16.04</ele>
        <time>2021-03-20T23:41:40Z</time>
      </trkpt>
      <trkpt lat="58.10726" lon="-5.27347">
        <ele>14.21</ele>
        <time>2021-03-20T23:41:43Z</time>
      </trkpt>
      <trkpt lat="58.10728" lon="-5.27367">
        <ele>13.79</ele>
        <time>2021-03-20T23:41:46Z</time>
      </trkpt>
      <trkpt lat="58.10744" lon="-5.27446">
        <ele>11.03</ele>
        <time>2021-03-20T23:41:49Z</time>
      </trkpt>
      <trkpt lat="58.1076" lon="-5.27478">
        <ele>9.52</ele>
        <time>2021-03-20T23:41:51Z</time>
      </trkpt>
      <trkpt lat="58.10771" lon="-5.27483">
        <ele>9.9</ele>
        <time>2021-03-20T23:41:54Z</time>
      </trkpt>
      <trkpt lat="58.10788" lon="-5.27485">
        <ele>10.36</ele>
        <time>2021-03-20T23:41:57Z</time>
      </trkpt>
      <trkpt lat="58.10825" lon="-5.27475">
        <ele>11.82</ele>
        <time>2021-03-20T23:41:59Z</time>
      </trkpt>
      <trkpt lat="58.10863" lon="-5.2746">
        <ele>11.73</ele>
        <time>2021-03-20T23:42:02Z</time>
      </trkpt>
      <trkpt lat="58.10871" lon="-5.27452">
        <ele>12.22</ele>
        <time>2021-03-20T23:42:05Z</time>
      </trkpt>
      <trkpt lat="58.10945" lon="-5.27341">
        <ele>16.13</ele>
        <time>2021-03-20T23:42:08Z</time>
      </trkpt>
      <trkpt lat="58.1096" lon="-5.27278">
        <ele>18.25</ele>
        <time>2021-03-20T23:42:10Z</time>
      </trkpt>
      <trkpt lat="58.11018" lon="-5.27197">
        <ele>26.52</ele>
        <time>2021-03-20T23:42:13Z</time>
      </trkpt>
      <trkpt lat="58.11084" lon="-5.27175">
        <ele>28.76</ele>
        <time>2021-03-20T23:42:16Z</time>
      </trkpt>
      <trkpt lat="58.11099" lon="-5.27151">
        <ele>31.87</ele>
        <time>2021-03-20T23:42:18Z</time>
      </trkpt>
      <trkpt lat="58.11122" lon="-5.27082">
        <ele>41.45</ele>
        <time>2021-03-20T23:42:21Z</time>
      </trkpt>
      <trkpt lat="58.11155" lon="-5.27003">
        <ele>47.38</ele>
        <time>2021-03-20T23:42:24Z</time>
      </trkpt>
      <trkpt lat="58.1122" lon="-5.26886">
        <ele>56.86</ele>
        <time>2021-03-20T23:42:27Z</time>
      </trkpt>
      <trkpt lat="58.11248" lon="-5.26872">
        <ele>58.51</ele>
        <time>2021-03-20T23:42:29Z</time>
      </trkpt>
      <trkpt lat="58.11281" lon="-5.26849">
        <ele>62.63</ele>
        <time>2021-03-20T23:42:32Z</time>
      </trkpt>
      <trkpt lat="58.11302" lon="-5.26819">
        <ele>66.49</ele>
        <time>2021-03-20T23:42:35Z</time>
      </trkpt>
      <trkpt lat="58.11439" lon="-5.26558">
        <ele>69.19</ele>
        <time>2021-03-20T23:42:37Z</time>
      </trkpt>
      <trkpt lat="58.1147" lon="-5.26416">
        <ele>68.08</ele>
        <time>2021-03-20T23:42:40Z</time>
      </trkpt>
      <trkpt lat="58.11512" lon="-5.26204">
        <ele>69.18</ele>
        <time>2021-03-20T23:42:43Z</time>
      </trkpt>
      <trkpt lat="58.11537" lon="-5.26123">
        <ele>70.28</ele>
        <time>2021-03-20T23:42:46Z</time>
      </trkpt>
      <trkpt lat="58.1155" lon="-5.26107">
        <ele>69.72</ele>
        <time>2021-03-20T23:42:48Z</time>
      </trkpt>
      <trkpt lat="58.11649" lon="-5.26064">
        <ele>69.33</ele>
        <time>2021-03-20T23:42:51Z</time>
      </trkpt>
      <trkpt lat="58.11762" lon="-5.2592">
        <ele>73.23</ele>
        <time>2021-03-20T23:42:54Z</time>
      </trkpt>
      <trkpt lat="58.11847" lon="-5.25741">
        <ele>75.69</ele>
        <time>2021-03-20T23:42:56Z</time>
      </trkpt>
      <trkpt lat="58.11859" lon="-5.25699">
        <ele>69.05</ele>
        <time>2021-03-20T23:42:59Z</time>
      </trkpt>
      <trkpt lat="58.11859" lon="-5.25668">
        <ele>65.75</ele>
        <time>2021-03-20T23:43:02Z</time>
      </trkpt>
      <trkpt lat="58.1184" lon="-5.25553">
        <ele>61.25</ele>
        <time>2021-03-20T23:43:04Z</time>
      </trkpt>
      <trkpt lat="58.11846" lon="-5.25527">
        <ele>60.2</ele>
        <time>2021-03-20T23:43:07Z</time>
      </trkpt>
      <trkpt lat="58.11911" lon="-5.25488">
        <ele>49.58</ele>
        <time>2021-03-20T23:43:10Z</time>
      </trkpt>
      <trkpt lat="58.11944" lon="-5.2546">
        <ele>48.46</ele>
        <time>2021-03-20T23:43:13Z</time>
      </trkpt>
      <trkpt lat="58.11963" lon="-5.254">
        <ele>45.77</ele>
        <time>2021-03-20T23:43:15Z</time>
      </trkpt>
      <trkpt lat="58.11983" lon="-5.25362">
        <ele>40.33</ele>
        <time>2021-03-20T23:43:18Z</time>
      </trkpt>
      <trkpt lat="58.12006" lon="-5.25334">
        <ele>35.97</ele>
        <time>2021-03-20T23:43:21Z</time>
      </trkpt>
      <trkpt lat="58.12009" lon="-5.25326">
        <ele>35.56</ele>
        <time>2021-03-20T23:43:24Z</time>
      </trkpt>
      <trkpt lat="58.12009" lon="-5.25326">
        <ele>35.56</ele>
        <time>2021-03-20T23:43:24Z</time>
      </trkpt>
      <trkpt lat="58.12011" lon="-5.25316">
        <ele>35.47</ele>
        <time>2021-03-20T23:43:26Z</time>
      </trkpt>
      <trkpt lat="58.1201" lon="-5.25302">
        <ele>35.93</ele>
        <time>2021-03-20T23:43:28Z</time>
      </trkpt>
      <trkpt lat="58.12015" lon="-5.25268">
        <ele>36.17</ele>
        <time>2021-03-20T23:43:30Z</time>
      </trkpt>
      <trkpt lat="58.12056" lon="-5.25219">
        <ele>28.03</ele>
        <time>2021-03-20T23:43:33Z</time>
      </trkpt>
      <trkpt lat="58.12076" lon="-5.25204">
        <ele>21.92</ele>
        <time>2021-03-20T23:43:35Z</time>
      </trkpt>
      <trkpt lat="58.12084" lon="-5.25194">
        <ele>19.85</ele>
        <time>2021-03-20T23:43:37Z</time>
      </trkpt>
      <trkpt lat="58.12106" lon="-5.25156">
        <ele>16.88</ele>
        <time>2021-03-20T23:43:40Z</time>
      </trkpt>
      <trkpt lat="58.12143" lon="-5.25143">
        <ele>17.03</ele>
        <time>2021-03-20T23:43:42Z</time>
      </trkpt>
      <trkpt lat="58.12152" lon="-5.25146">
        <ele>19.87</ele>
        <time>2021-03-20T23:43:44Z</time>
      </trkpt>
      <trkpt lat="58.12155" lon="-5.25154">
        <ele>20.68</ele>
        <time>2021-03-20T23:43:46Z</time>
      </trkpt>
      <trkpt lat="58.12157" lon="-5.25163">
        <ele>21.17</ele>
        <time>2021-03-20T23:43:49Z</time>
      </trkpt>
      <trkpt lat="58.12158" lon="-5.2524">
        <ele>20.58</ele>
        <time>2021-03-20T23:43:51Z</time>
      </trkpt>
      <trkpt lat="58.12149" lon="-5.25361">
        <ele>19.17</ele>
        <time>2021-03-20T23:43:53Z</time>
      </trkpt>
      <trkpt lat="58.12148" lon="-5.25491">
        <ele>17.81</ele>
        <time>2021-03-20T23:43:56Z</time>
      </trkpt>
      <trkpt lat="58.1215" lon="-5.25541">
        <ele>17.61</ele>
        <time>2021-03-20T23:43:58Z</time>
      </trkpt>
      <trkpt lat="58.12159" lon="-5.25594">
        <ele>17.54</ele>
        <time>2021-03-20T23:44:00Z</time>
      </trkpt>
      <trkpt lat="58.12203" lon="-5.25711">
        <ele>10.4</ele>
        <time>2021-03-20T23:44:02Z</time>
      </trkpt>
      <trkpt lat="58.12201" lon="-5.25777">
        <ele>8.92</ele>
        <time>2021-03-20T23:44:05Z</time>
      </trkpt>
      <trkpt lat="58.12203" lon="-5.25847">
        <ele>8.74</ele>
        <time>2021-03-20T23:44:07Z</time>
      </trkpt>
      <trkpt lat="58.12215" lon="-5.25939">
        <ele>9.45</ele>
        <time>2021-03-20T23:44:09Z</time>
      </trkpt>
      <trkpt lat="58.1221" lon="-5.2605">
        <ele>8.56</ele>
        <time>2021-03-20T23:44:12Z</time>
      </trkpt>
      <trkpt lat="58.12219" lon="-5.26118">
        <ele>10.79</ele>
        <time>2021-03-20T23:44:14Z</time>
      </trkpt>
      <trkpt lat="58.12238" lon="-5.26174">
        <ele>13.02</ele>
        <time>2021-03-20T23:44:16Z</time>
      </trkpt>
      <trkpt lat="58.12255" lon="-5.26302">
        <ele>11.55</ele>
        <time>2021-03-20T23:44:18Z</time>
      </trkpt>
      <trkpt lat="58.12271" lon="-5.26367">
        <ele>7.57</ele>
        <time>2021-03-20T23:44:21Z</time>
      </trkpt>
      <trkpt lat="58.12284" lon="-5.26409">
        <ele>8.1</ele>
        <time>2021-03-20T23:44:23Z</time>
      </trkpt>
      <trkpt lat="58.12298" lon="-5.26413">
        <ele>8.05</ele>
        <time>2021-03-20T23:44:25Z</time>
      </trkpt>
      <trkpt lat="58.12339" lon="-5.26404">
        <ele>6.79</ele>
        <time>2021-03-20T23:44:28Z</time>
      </trkpt>
      <trkpt lat="58.12386" lon="-5.26403">
        <ele>5.09</ele>
        <time>2021-03-20T23:44:30Z</time>
      </trkpt>
      <trkpt lat="58.12429" lon="-5.26407">
        <ele>5.89</ele>
        <time>2021-03-20T23:44:32Z</time>
      </trkpt>
      <trkpt lat="58.12456" lon="-5.26414">
        <ele>8.09</ele>
        <time>2021-03-20T23:44:34Z</time>
      </trkpt>
      <trkpt lat="58.12539" lon="-5.26467">
        <ele>7.92</ele>
        <time>2021-03-20T23:44:37Z</time>
      </trkpt>
      <trkpt lat="58.12575" lon="-5.26501">
        <ele>7.36</ele>
        <time>2021-03-20T23:44:39Z</time>
      </trkpt>
      <trkpt lat="58.12592" lon="-5.26533">
        <ele>7.81</ele>
        <time>2021-03-20T23:44:41Z</time>
      </trkpt>
      <trkpt lat="58.12615" lon="-5.2656">
        <ele>10.56</ele>
        <time>2021-03-20T23:44:44Z</time>
      </trkpt>
      <trkpt lat="58.12646" lon="-5.26567">
        <ele>14.67</ele>
        <time>2021-03-20T23:44:46Z</time>
      </trkpt>
      <trkpt lat="58.1268" lon="-5.26553">
        <ele>20.37</ele>
        <time>2021-03-20T23:44:48Z</time>
      </trkpt>
      <trkpt lat="58.12704" lon="-5.26524">
        <ele>23.94</ele>
        <time>2021-03-20T23:44:51Z</time>
      </trkpt>
      <trkpt lat="58.12719" lon="-5.26492">
        <ele>26.19</ele>
        <time>2021-03-20T23:44:53Z</time>
      </trkpt>
      <trkpt lat="58.12754" lon="-5.26376">
        <ele>32.17</ele>
        <time>2021-03-20T23:44:55Z</time>
      </trkpt>
      <trkpt lat="58.12765" lon="-5.26346">
        <ele>34.4</ele>
        <time>2021-03-20T23:44:57Z</time>
      </trkpt>
      <trkpt lat="58.12775" lon="-5.26318">
        <ele>35.96</ele>
        <time>2021-03-20T23:45:00Z</time>
      </trkpt>
      <trkpt lat="58.12805" lon="-5.26253">
        <ele>38.11</ele>
        <time>2021-03-20T23:45:02Z</time>
      </trkpt>
      <trkpt lat="58.12823" lon="-5.26225">
        <ele>38.06</ele>
        <time>2021-03-20T23:45:04Z</time>
      </trkpt>
      <trkpt lat="58.1284" lon="-5.26201">
        <ele>39.81</ele>
        <time>2021-03-20T23:45:07Z</time>
      </trkpt>
      <trkpt lat="58.12874" lon="-5.26163">
        <ele>43.24</ele>
        <time>2021-03-20T23:45:09Z</time>
      </trkpt>
      <trkpt lat="58.12889" lon="-5.2614">
        <ele>45.97</ele>
        <time>2021-03-20T23:45:11Z</time>
      </trkpt>
      <trkpt lat="58.12902" lon="-5.26106">
        <ele>46.27</ele>
        <time>2021-03-20T23:45:13Z</time>
      </trkpt>
      <trkpt lat="58.12921" lon="-5.26012">
        <ele>47.4</ele>
        <time>2021-03-20T23:45:16Z</time>
      </trkpt>
      <trkpt lat="58.13013" lon="-5.2575">
        <ele>53.48</ele>
        <time>2021-03-20T23:45:18Z</time>
      </trkpt>
      <trkpt lat="58.13036" lon="-5.25696">
        <ele>52.4</ele>
        <time>2021-03-20T23:45:20Z</time>
      </trkpt>
      <trkpt lat="58.13055" lon="-5.25664">
        <ele>50.06</ele>
        <time>2021-03-20T23:45:23Z</time>
      </trkpt>
      <trkpt lat="58.13066" lon="-5.25659">
        <ele>48.19</ele>
        <time>2021-03-20T23:45:25Z</time>
      </trkpt>
      <trkpt lat="58.13076" lon="-5.25667">
        <ele>46.32</ele>
        <time>2021-03-20T23:45:27Z</time>
      </trkpt>
      <trkpt lat="58.13091" lon="-5.25692">
        <ele>45.39</ele>
        <time>2021-03-20T23:45:29Z</time>
      </trkpt>
      <trkpt lat="58.13138" lon="-5.25796">
        <ele>46.37</ele>
        <time>2021-03-20T23:45:32Z</time>
      </trkpt>
      <trkpt lat="58.13179" lon="-5.25873">
        <ele>46.89</ele>
        <time>2021-03-20T23:45:34Z</time>
      </trkpt>
      <trkpt lat="58.13196" lon="-5.25886">
        <ele>44.79</ele>
        <time>2021-03-20T23:45:36Z</time>
      </trkpt>
      <trkpt lat="58.13264" lon="-5.25906">
        <ele>42.6</ele>
        <time>2021-03-20T23:45:39Z</time>
      </trkpt>
      <trkpt lat="58.13286" lon="-5.2592">
        <ele>43.62</ele>
        <time>2021-03-20T23:45:41Z</time>
      </trkpt>
      <trkpt lat="58.13296" lon="-5.2593">
        <ele>44.32</ele>
        <time>2021-03-20T23:45:43Z</time>
      </trkpt>
      <trkpt lat="58.13327" lon="-5.25977">
        <ele>46.22</ele>
        <time>2021-03-20T23:45:45Z</time>
      </trkpt>
      <trkpt lat="58.13391" lon="-5.26089">
        <ele>42.81</ele>
        <time>2021-03-20T23:45:48Z</time>
      </trkpt>
      <trkpt lat="58.13409" lon="-5.26125">
        <ele>41.51</ele>
        <time>2021-03-20T23:45:50Z</time>
      </trkpt>
      <trkpt lat="58.13415" lon="-5.26144">
        <ele>41</ele>
        <time>2021-03-20T23:45:52Z</time>
      </trkpt>
      <trkpt lat="58.1342" lon="-5.26172">
        <ele>41.01</ele>
        <time>2021-03-20T23:45:55Z</time>
      </trkpt>
      <trkpt lat="58.13424" lon="-5.26212">
        <ele>39.61</ele>
        <time>2021-03-20T23:45:57Z</time>
      </trkpt>
      <trkpt lat="58.13427" lon="-5.26222">
        <ele>39.38</ele>
        <time>2021-03-20T23:45:59Z</time>
      </trkpt>
      <trkpt lat="58.13435" lon="-5.26236">
        <ele>38.86</ele>
        <time>2021-03-20T23:46:01Z</time>
      </trkpt>
      <trkpt lat="58.13467" lon="-5.26259">
        <ele>36.62</ele>
        <time>2021-03-20T23:46:04Z</time>
      </trkpt>
      <trkpt lat="58.13488" lon="-5.26265">
        <ele>35.59</ele>
        <time>2021-03-20T23:46:06Z</time>
      </trkpt>
      <trkpt lat="58.13606" lon="-5.26216">
        <ele>35.81</ele>
        <time>2021-03-20T23:46:08Z</time>
      </trkpt>
      <trkpt lat="58.13619" lon="-5.26207">
        <ele>34.97</ele>
        <time>2021-03-20T23:46:11Z</time>
      </trkpt>
      <trkpt lat="58.13625" lon="-5.26198">
        <ele>34.31</ele>
        <time>2021-03-20T23:46:13Z</time>
      </trkpt>
      <trkpt lat="58.13667" lon="-5.26103">
        <ele>27.03</ele>
        <time>2021-03-20T23:46:15Z</time>
      </trkpt>
      <trkpt lat="58.13706" lon="-5.25954">
        <ele>24.15</ele>
        <time>2021-03-20T23:46:18Z</time>
      </trkpt>
      <trkpt lat="58.1372" lon="-5.25863">
        <ele>18.84</ele>
        <time>2021-03-20T23:46:20Z</time>
      </trkpt>
      <trkpt lat="58.13719" lon="-5.25809">
        <ele>18.09</ele>
        <time>2021-03-20T23:46:22Z</time>
      </trkpt>
      <trkpt lat="58.13712" lon="-5.25757">
        <ele>18.56</ele>
        <time>2021-03-20T23:46:24Z</time>
      </trkpt>
      <trkpt lat="58.13688" lon="-5.25652">
        <ele>23.05</ele>
        <time>2021-03-20T23:46:27Z</time>
      </trkpt>
      <trkpt lat="58.13663" lon="-5.25593">
        <ele>24.7</ele>
        <time>2021-03-20T23:46:29Z</time>
      </trkpt>
      <trkpt lat="58.13645" lon="-5.25518">
        <ele>24.07</ele>
        <time>2021-03-20T23:46:31Z</time>
      </trkpt>
      <trkpt lat="58.1364" lon="-5.25488">
        <ele>23.07</ele>
        <time>2021-03-20T23:46:34Z</time>
      </trkpt>
      <trkpt lat="58.13638" lon="-5.25406">
        <ele>24.7</ele>
        <time>2021-03-20T23:46:36Z</time>
      </trkpt>
      <trkpt lat="58.13634" lon="-5.25373">
        <ele>25.92</ele>
        <time>2021-03-20T23:46:38Z</time>
      </trkpt>
      <trkpt lat="58.13618" lon="-5.25318">
        <ele>25.82</ele>
        <time>2021-03-20T23:46:40Z</time>
      </trkpt>
      <trkpt lat="58.13616" lon="-5.25292">
        <ele>26.32</ele>
        <time>2021-03-20T23:46:43Z</time>
      </trkpt>
      <trkpt lat="58.13623" lon="-5.25245">
        <ele>28.24</ele>
        <time>2021-03-20T23:46:45Z</time>
      </trkpt>
      <trkpt lat="58.13628" lon="-5.25185">
        <ele>30.62</ele>
        <time>2021-03-20T23:46:47Z</time>
      </trkpt>
      <trkpt lat="58.13625" lon="-5.25095">
        <ele>31</ele>
        <time>2021-03-20T23:46:50Z</time>
      </trkpt>
      <trkpt lat="58.13624" lon="-5.24957">
        <ele>31.14</ele>
        <time>2021-03-20T23:46:52Z</time>
      </trkpt>
      <trkpt lat="58.13626" lon="-5.24935">
        <ele>30.74</ele>
        <time>2021-03-20T23:46:54Z</time>
      </trkpt>
      <trkpt lat="58.1363" lon="-5.24912">
        <ele>30.49</ele>
        <time>2021-03-20T23:46:56Z</time>
      </trkpt>
      <trkpt lat="58.13648" lon="-5.24859">
        <ele>31.32</ele>
        <time>2021-03-20T23:46:59Z</time>
      </trkpt>
      <trkpt lat="58.13656" lon="-5.24842">
        <ele>32.06</ele>
        <time>2021-03-20T23:47:01Z</time>
      </trkpt>
      <trkpt lat="58.13691" lon="-5.24792">
        <ele>36.72</ele>
        <time>2021-03-20T23:47:03Z</time>
      </trkpt>
      <trkpt lat="58.13732" lon="-5.2471">
        <ele>41</ele>
        <time>2021-03-20T23:47:06Z</time>
      </trkpt>
      <trkpt lat="58.13763" lon="-5.24656">
        <ele>46.24</ele>
        <time>2021-03-20T23:47:08Z</time>
      </trkpt>
      <trkpt lat="58.13817" lon="-5.24514">
        <ele>48.19</ele>
        <time>2021-03-20T23:47:10Z</time>
      </trkpt>
      <trkpt lat="58.13869" lon="-5.24344">
        <ele>59.81</ele>
        <time>2021-03-20T23:47:12Z</time>
      </trkpt>
      <trkpt lat="58.13939" lon="-5.24145">
        <ele>61.76</ele>
        <time>2021-03-20T23:47:15Z</time>
      </trkpt>
      <trkpt lat="58.13941" lon="-5.24128">
        <ele>59.58</ele>
        <time>2021-03-20T23:47:17Z</time>
      </trkpt>
      <trkpt lat="58.13939" lon="-5.24116">
        <ele>58.03</ele>
        <time>2021-03-20T23:47:19Z</time>
      </trkpt>
      <trkpt lat="58.13921" lon="-5.24055">
        <ele>52.5</ele>
        <time>2021-03-20T23:47:22Z</time>
      </trkpt>
      <trkpt lat="58.13917" lon="-5.24026">
        <ele>51.8</ele>
        <time>2021-03-20T23:47:24Z</time>
      </trkpt>
      <trkpt lat="58.13917" lon="-5.24009">
        <ele>50.59</ele>
        <time>2021-03-20T23:47:26Z</time>
      </trkpt>
      <trkpt lat="58.13923" lon="-5.2399">
        <ele>48.54</ele>
        <time>2021-03-20T23:47:28Z</time>
      </trkpt>
      <trkpt lat="58.13933" lon="-5.23979">
        <ele>45.94</ele>
        <time>2021-03-20T23:47:31Z</time>
      </trkpt>
      <trkpt lat="58.13939" lon="-5.23978">
        <ele>44.54</ele>
        <time>2021-03-20T23:47:33Z</time>
      </trkpt>
      <trkpt lat="58.13952" lon="-5.23982">
        <ele>41.94</ele>
        <time>2021-03-20T23:47:35Z</time>
      </trkpt>
      <trkpt lat="58.1399" lon="-5.24022">
        <ele>39.64</ele>
        <time>2021-03-20T23:47:38Z</time>
      </trkpt>
      <trkpt lat="58.14005" lon="-5.24027">
        <ele>38.24</ele>
        <time>2021-03-20T23:47:40Z</time>
      </trkpt>
      <trkpt lat="58.14022" lon="-5.24022">
        <ele>35.16</ele>
        <time>2021-03-20T23:47:42Z</time>
      </trkpt>
      <trkpt lat="58.14036" lon="-5.24024">
        <ele>33.44</ele>
        <time>2021-03-20T23:47:44Z</time>
      </trkpt>
      <trkpt lat="58.14044" lon="-5.24039">
        <ele>33.85</ele>
        <time>2021-03-20T23:47:47Z</time>
      </trkpt>
      <trkpt lat="58.14061" lon="-5.24107">
        <ele>38.16</ele>
        <time>2021-03-20T23:47:49Z</time>
      </trkpt>
      <trkpt lat="58.14066" lon="-5.24123">
        <ele>38.43</ele>
        <time>2021-03-20T23:47:51Z</time>
      </trkpt>
      <trkpt lat="58.14072" lon="-5.2413">
        <ele>37.76</ele>
        <time>2021-03-20T23:47:54Z</time>
      </trkpt>
      <trkpt lat="58.1408" lon="-5.24132">
        <ele>36.51</ele>
        <time>2021-03-20T23:47:56Z</time>
      </trkpt>
      <trkpt lat="58.14085" lon="-5.24125">
        <ele>36.18</ele>
        <time>2021-03-20T23:47:58Z</time>
      </trkpt>
      <trkpt lat="58.14094" lon="-5.24099">
        <ele>37.21</ele>
        <time>2021-03-20T23:48:01Z</time>
      </trkpt>
      <trkpt lat="58.14106" lon="-5.23999">
        <ele>37.36</ele>
        <time>2021-03-20T23:48:03Z</time>
      </trkpt>
      <trkpt lat="58.1412" lon="-5.2393">
        <ele>37.67</ele>
        <time>2021-03-20T23:48:05Z</time>
      </trkpt>
      <trkpt lat="58.14126" lon="-5.23912">
        <ele>37.9</ele>
        <time>2021-03-20T23:48:07Z</time>
      </trkpt>
      <trkpt lat="58.14136" lon="-5.2389">
        <ele>37.65</ele>
        <time>2021-03-20T23:48:10Z</time>
      </trkpt>
      <trkpt lat="58.14144" lon="-5.23877">
        <ele>38.22</ele>
        <time>2021-03-20T23:48:12Z</time>
      </trkpt>
      <trkpt lat="58.14168" lon="-5.23856">
        <ele>40.85</ele>
        <time>2021-03-20T23:48:14Z</time>
      </trkpt>
      <trkpt lat="58.14175" lon="-5.23846">
        <ele>41.04</ele>
        <time>2021-03-20T23:48:17Z</time>
      </trkpt>
      <trkpt lat="58.14185" lon="-5.23817">
        <ele>39.69</ele>
        <time>2021-03-20T23:48:19Z</time>
      </trkpt>
      <trkpt lat="58.14192" lon="-5.23775">
        <ele>36.56</ele>
        <time>2021-03-20T23:48:21Z</time>
      </trkpt>
      <trkpt lat="58.142" lon="-5.23751">
        <ele>35.69</ele>
        <time>2021-03-20T23:48:23Z</time>
      </trkpt>
      <trkpt lat="58.14225" lon="-5.23702">
        <ele>34.41</ele>
        <time>2021-03-20T23:48:26Z</time>
      </trkpt>
      <trkpt lat="58.14244" lon="-5.23685">
        <ele>34.08</ele>
        <time>2021-03-20T23:48:28Z</time>
      </trkpt>
      <trkpt lat="58.14255" lon="-5.23681">
        <ele>34.03</ele>
        <time>2021-03-20T23:48:30Z</time>
      </trkpt>
      <trkpt lat="58.1427" lon="-5.23677">
        <ele>33.71</ele>
        <time>2021-03-20T23:48:33Z</time>
      </trkpt>
      <trkpt lat="58.14305" lon="-5.23689">
        <ele>32.62</ele>
        <time>2021-03-20T23:48:35Z</time>
      </trkpt>
      <trkpt lat="58.14351" lon="-5.23699">
        <ele>30.1</ele>
        <time>2021-03-20T23:48:37Z</time>
      </trkpt>
      <trkpt lat="58.14375" lon="-5.23708">
        <ele>29.21</ele>
        <time>2021-03-20T23:48:39Z</time>
      </trkpt>
      <trkpt lat="58.14402" lon="-5.23724">
        <ele>28.71</ele>
        <time>2021-03-20T23:48:42Z</time>
      </trkpt>
      <trkpt lat="58.14426" lon="-5.23752">
        <ele>29.03</ele>
        <time>2021-03-20T23:48:44Z</time>
      </trkpt>
      <trkpt lat="58.14452" lon="-5.23879">
        <ele>25.94</ele>
        <time>2021-03-20T23:48:46Z</time>
      </trkpt>
      <trkpt lat="58.14467" lon="-5.23911">
        <ele>24.61</ele>
        <time>2021-03-20T23:48:49Z</time>
      </trkpt>
      <trkpt lat="58.14482" lon="-5.23917">
        <ele>22.97</ele>
        <time>2021-03-20T23:48:51Z</time>
      </trkpt>
      <trkpt lat="58.14508" lon="-5.23918">
        <ele>20.74</ele>
        <time>2021-03-20T23:48:53Z</time>
      </trkpt>
      <trkpt lat="58.14538" lon="-5.23938">
        <ele>19.28</ele>
        <time>2021-03-20T23:48:55Z</time>
      </trkpt>
      <trkpt lat="58.14569" lon="-5.23968">
        <ele>18.58</ele>
        <time>2021-03-20T23:48:58Z</time>
      </trkpt>
      <trkpt lat="58.14587" lon="-5.23973">
        <ele>17.48</ele>
        <time>2021-03-20T23:49:00Z</time>
      </trkpt>
      <trkpt lat="58.1463" lon="-5.23963">
        <ele>11.48</ele>
        <time>2021-03-20T23:49:02Z</time>
      </trkpt>
      <trkpt lat="58.14647" lon="-5.23964">
        <ele>10.31</ele>
        <time>2021-03-20T23:49:05Z</time>
      </trkpt>
      <trkpt lat="58.14661" lon="-5.23971">
        <ele>9.44</ele>
        <time>2021-03-20T23:49:07Z</time>
      </trkpt>
      <trkpt lat="58.14667" lon="-5.23951">
        <ele>9.77</ele>
        <time>2021-03-20T23:49:09Z</time>
      </trkpt>
      <trkpt lat="58.14673" lon="-5.23943">
        <ele>10.31</ele>
        <time>2021-03-20T23:49:11Z</time>
      </trkpt>
      <trkpt lat="58.14691" lon="-5.2394">
        <ele>11.05</ele>
        <time>2021-03-20T23:49:14Z</time>
      </trkpt>
      <trkpt lat="58.14708" lon="-5.23975">
        <ele>8.33</ele>
        <time>2021-03-20T23:49:16Z</time>
      </trkpt>
      <trkpt lat="58.14744" lon="-5.24001">
        <ele>6.72</ele>
        <time>2021-03-20T23:49:18Z</time>
      </trkpt>
      <trkpt lat="58.14747" lon="-5.24008">
        <ele>6.33</ele>
        <time>2021-03-20T23:49:21Z</time>
      </trkpt>
      <trkpt lat="58.14751" lon="-5.24036">
        <ele>4.47</ele>
        <time>2021-03-20T23:49:23Z</time>
      </trkpt>
      <trkpt lat="58.14763" lon="-5.24031">
        <ele>5.24</ele>
        <time>2021-03-20T23:49:29Z</time>
      </trkpt>
      <trkpt lat="58.14779" lon="-5.24036">
        <ele>5.41</ele>
        <time>2021-03-20T23:49:34Z</time>
      </trkpt>
      <trkpt lat="58.14818" lon="-5.2406">
        <ele>4.66</ele>
        <time>2021-03-20T23:49:40Z</time>
      </trkpt>
      <trkpt lat="58.14843" lon="-5.24069">
        <ele>4.01</ele>
        <time>2021-03-20T23:49:46Z</time>
      </trkpt>
      <trkpt lat="58.15019" lon="-5.24108">
        <ele>4.07</ele>
        <time>2021-03-20T23:49:51Z</time>
      </trkpt>
      <trkpt lat="58.15041" lon="-5.24108">
        <ele>5.05</ele>
        <time>2021-03-20T23:49:57Z</time>
      </trkpt>
      <trkpt lat="58.15186" lon="-5.24043">
        <ele>6.61</ele>
        <time>2021-03-20T23:50:03Z</time>
      </trkpt>
      <trkpt lat="58.15205" lon="-5.24042">
        <ele>6.1</ele>
        <time>2021-03-20T23:50:08Z</time>
      </trkpt>
      <trkpt lat="58.1522" lon="-5.24045">
        <ele>5.44</ele>
        <time>2021-03-20T23:50:14Z</time>
      </trkpt>
      <trkpt lat="58.15283" lon="-5.24069">
        <ele>4.33</ele>
        <time>2021-03-20T23:50:20Z</time>
      </trkpt>
      <trkpt lat="58.15298" lon="-5.2407">
        <ele>3.73</ele>
        <time>2021-03-20T23:50:25Z</time>
      </trkpt>
      <trkpt lat="58.15309" lon="-5.24065">
        <ele>3.55</ele>
        <time>2021-03-20T23:50:31Z</time>
      </trkpt>
      <trkpt lat="58.1533" lon="-5.24038">
        <ele>3.13</ele>
        <time>2021-03-20T23:50:37Z</time>
      </trkpt>
      <trkpt lat="58.15399" lon="-5.2394">
        <ele>6</ele>
        <time>2021-03-20T23:50:42Z</time>
      </trkpt>
      <trkpt lat="58.15465" lon="-5.23842">
        <ele>9.29</ele>
        <time>2021-03-20T23:50:48Z</time>
      </trkpt>
      <trkpt lat="58.15503" lon="-5.23773">
        <ele>10.17</ele>
        <time>2021-03-20T23:50:54Z</time>
      </trkpt>
      <trkpt lat="58.15517" lon="-5.23749">
        <ele>10.02</ele>
        <time>2021-03-20T23:50:59Z</time>
      </trkpt>
      <trkpt lat="58.15535" lon="-5.23725">
        <ele>9.55</ele>
        <time>2021-03-20T23:51:05Z</time>
      </trkpt>
      <trkpt lat="58.1558" lon="-5.23685">
        <ele>11.39</ele>
        <time>2021-03-20T23:51:11Z</time>
      </trkpt>
      <trkpt lat="58.15612" lon="-5.23666">
        <ele>14.08</ele>
        <time>2021-03-20T23:51:16Z</time>
      </trkpt>
      <trkpt lat="58.1568" lon="-5.2363">
        <ele>23.23</ele>
        <time>2021-03-20T23:51:22Z</time>
      </trkpt>
      <trkpt lat="58.15769" lon="-5.23576">
        <ele>35.8</ele>
        <time>2021-03-20T23:51:27Z</time>
      </trkpt>
      <trkpt lat="58.15799" lon="-5.23548">
        <ele>41.47</ele>
        <time>2021-03-20T23:51:33Z</time>
      </trkpt>
      <trkpt lat="58.15824" lon="-5.23519">
        <ele>47.04</ele>
        <time>2021-03-20T23:51:39Z</time>
      </trkpt>
      <trkpt lat="58.15868" lon="-5.23425">
        <ele>53.63</ele>
        <time>2021-03-20T23:51:44Z</time>
      </trkpt>
      <trkpt lat="58.15934" lon="-5.23268">
        <ele>49.4</ele>
        <time>2021-03-20T23:51:50Z</time>
      </trkpt>
      <trkpt lat="58.15956" lon="-5.23218">
        <ele>48.95</ele>
        <time>2021-03-20T23:51:56Z</time>
      </trkpt>
      <trkpt lat="58.15975" lon="-5.23248">
        <ele>51</ele>
        <time>2021-03-20T23:51:58Z</time>
      </trkpt>
      <trkpt lat="58.16002" lon="-5.23335">
        <ele>54.05</ele>
        <time>2021-03-20T23:52:01Z</time>
      </trkpt>
      <trkpt lat="58.16011" lon="-5.23375">
        <ele>54.19</ele>
        <time>2021-03-20T23:52:03Z</time>
      </trkpt>
      <trkpt lat="58.1602" lon="-5.23483">
        <ele>53.34</ele>
        <time>2021-03-20T23:52:06Z</time>
      </trkpt>
      <trkpt lat="58.16026" lon="-5.23511">
        <ele>52.75</ele>
        <time>2021-03-20T23:52:09Z</time>
      </trkpt>
      <trkpt lat="58.16033" lon="-5.23529">
        <ele>53.06</ele>
        <time>2021-03-20T23:52:11Z</time>
      </trkpt>
      <trkpt lat="58.16042" lon="-5.23542">
        <ele>53.49</ele>
        <time>2021-03-20T23:52:14Z</time>
      </trkpt>
      <trkpt lat="58.16053" lon="-5.23544">
        <ele>53.59</ele>
        <time>2021-03-20T23:52:16Z</time>
      </trkpt>
      <trkpt lat="58.16064" lon="-5.23543">
        <ele>54.05</ele>
        <time>2021-03-20T23:52:19Z</time>
      </trkpt>
      <trkpt lat="58.16095" lon="-5.2353">
        <ele>54.58</ele>
        <time>2021-03-20T23:52:21Z</time>
      </trkpt>
      <trkpt lat="58.16143" lon="-5.2353">
        <ele>57.31</ele>
        <time>2021-03-20T23:52:24Z</time>
      </trkpt>
      <trkpt lat="58.16159" lon="-5.23536">
        <ele>58.11</ele>
        <time>2021-03-20T23:52:26Z</time>
      </trkpt>
      <trkpt lat="58.16168" lon="-5.23548">
        <ele>58.81</ele>
        <time>2021-03-20T23:52:29Z</time>
      </trkpt>
      <trkpt lat="58.16179" lon="-5.23568">
        <ele>60.78</ele>
        <time>2021-03-20T23:52:32Z</time>
      </trkpt>
      <trkpt lat="58.16187" lon="-5.23597">
        <ele>62.63</ele>
        <time>2021-03-20T23:52:34Z</time>
      </trkpt>
      <trkpt lat="58.16217" lon="-5.23774">
        <ele>67.2</ele>
        <time>2021-03-20T23:52:37Z</time>
      </trkpt>
      <trkpt lat="58.16257" lon="-5.24159">
        <ele>71.08</ele>
        <time>2021-03-20T23:52:39Z</time>
      </trkpt>
      <trkpt lat="58.16264" lon="-5.2427">
        <ele>66.75</ele>
        <time>2021-03-20T23:52:42Z</time>
      </trkpt>
      <trkpt lat="58.16268" lon="-5.24364">
        <ele>64.74</ele>
        <time>2021-03-20T23:52:44Z</time>
      </trkpt>
      <trkpt lat="58.16313" lon="-5.24572">
        <ele>62.01</ele>
        <time>2021-03-20T23:52:47Z</time>
      </trkpt>
      <trkpt lat="58.16342" lon="-5.24673">
        <ele>62.95</ele>
        <time>2021-03-20T23:52:49Z</time>
      </trkpt>
      <trkpt lat="58.16354" lon="-5.24696">
        <ele>62.03</ele>
        <time>2021-03-20T23:52:52Z</time>
      </trkpt>
      <trkpt lat="58.16367" lon="-5.24708">
        <ele>61.5</ele>
        <time>2021-03-20T23:52:54Z</time>
      </trkpt>
      <trkpt lat="58.16379" lon="-5.24714">
        <ele>61.72</ele>
        <time>2021-03-20T23:52:57Z</time>
      </trkpt>
      <trkpt lat="58.16443" lon="-5.24718">
        <ele>68.73</ele>
        <time>2021-03-20T23:53:00Z</time>
      </trkpt>
      <trkpt lat="58.16465" lon="-5.24726">
        <ele>67.95</ele>
        <time>2021-03-20T23:53:02Z</time>
      </trkpt>
      <trkpt lat="58.16554" lon="-5.24802">
        <ele>61.07</ele>
        <time>2021-03-20T23:53:05Z</time>
      </trkpt>
      <trkpt lat="58.16576" lon="-5.24826">
        <ele>58.07</ele>
        <time>2021-03-20T23:53:07Z</time>
      </trkpt>
      <trkpt lat="58.16603" lon="-5.24876">
        <ele>52.86</ele>
        <time>2021-03-20T23:53:10Z</time>
      </trkpt>
      <trkpt lat="58.16644" lon="-5.24973">
        <ele>45.65</ele>
        <time>2021-03-20T23:53:12Z</time>
      </trkpt>
      <trkpt lat="58.16683" lon="-5.25141">
        <ele>44.98</ele>
        <time>2021-03-20T23:53:15Z</time>
      </trkpt>
      <trkpt lat="58.16695" lon="-5.25203">
        <ele>42.99</ele>
        <time>2021-03-20T23:53:17Z</time>
      </trkpt>
      <trkpt lat="58.16744" lon="-5.25592">
        <ele>33.97</ele>
        <time>2021-03-20T23:53:20Z</time>
      </trkpt>
      <trkpt lat="58.16752" lon="-5.25638">
        <ele>32</ele>
        <time>2021-03-20T23:53:23Z</time>
      </trkpt>
      <trkpt lat="58.16835" lon="-5.25882">
        <ele>24.92</ele>
        <time>2021-03-20T23:53:25Z</time>
      </trkpt>
      <trkpt lat="58.1686" lon="-5.25946">
        <ele>23.12</ele>
        <time>2021-03-20T23:53:28Z</time>
      </trkpt>
      <trkpt lat="58.16877" lon="-5.25995">
        <ele>21.53</ele>
        <time>2021-03-20T23:53:30Z</time>
      </trkpt>
      <trkpt lat="58.16893" lon="-5.26055">
        <ele>17.01</ele>
        <time>2021-03-20T23:53:33Z</time>
      </trkpt>
      <trkpt lat="58.16911" lon="-5.26106">
        <ele>14.8</ele>
        <time>2021-03-20T23:53:35Z</time>
      </trkpt>
      <trkpt lat="58.16923" lon="-5.26124">
        <ele>13.21</ele>
        <time>2021-03-20T23:53:38Z</time>
      </trkpt>
      <trkpt lat="58.16937" lon="-5.26131">
        <ele>12.09</ele>
        <time>2021-03-20T23:53:40Z</time>
      </trkpt>
      <trkpt lat="58.16983" lon="-5.2613">
        <ele>12.66</ele>
        <time>2021-03-20T23:53:43Z</time>
      </trkpt>
      <trkpt lat="58.16994" lon="-5.26135">
        <ele>12.28</ele>
        <time>2021-03-20T23:53:46Z</time>
      </trkpt>
      <trkpt lat="58.17005" lon="-5.26159">
        <ele>11.57</ele>
        <time>2021-03-20T23:53:48Z</time>
      </trkpt>
      <trkpt lat="58.17043" lon="-5.26182">
        <ele>15.19</ele>
        <time>2021-03-20T23:53:51Z</time>
      </trkpt>
      <trkpt lat="58.17056" lon="-5.26184">
        <ele>17.39</ele>
        <time>2021-03-20T23:53:53Z</time>
      </trkpt>
      <trkpt lat="58.17069" lon="-5.26178">
        <ele>18.9</ele>
        <time>2021-03-20T23:53:56Z</time>
      </trkpt>
      <trkpt lat="58.17133" lon="-5.26085">
        <ele>22.24</ele>
        <time>2021-03-20T23:53:58Z</time>
      </trkpt>
      <trkpt lat="58.17156" lon="-5.26045">
        <ele>23.79</ele>
        <time>2021-03-20T23:54:01Z</time>
      </trkpt>
      <trkpt lat="58.17183" lon="-5.25983">
        <ele>26.89</ele>
        <time>2021-03-20T23:54:03Z</time>
      </trkpt>
      <trkpt lat="58.17195" lon="-5.25966">
        <ele>27.9</ele>
        <time>2021-03-20T23:54:06Z</time>
      </trkpt>
      <trkpt lat="58.17203" lon="-5.25962">
        <ele>28.78</ele>
        <time>2021-03-20T23:54:08Z</time>
      </trkpt>
      <trkpt lat="58.1721" lon="-5.25963">
        <ele>29.79</ele>
        <time>2021-03-20T23:54:11Z</time>
      </trkpt>
      <trkpt lat="58.17217" lon="-5.2597">
        <ele>31.09</ele>
        <time>2021-03-20T23:54:14Z</time>
      </trkpt>
      <trkpt lat="58.17256" lon="-5.26017">
        <ele>35.16</ele>
        <time>2021-03-20T23:54:16Z</time>
      </trkpt>
      <trkpt lat="58.17318" lon="-5.26085">
        <ele>40.07</ele>
        <time>2021-03-20T23:54:19Z</time>
      </trkpt>
      <trkpt lat="58.1733" lon="-5.26107">
        <ele>40.97</ele>
        <time>2021-03-20T23:54:21Z</time>
      </trkpt>
      <trkpt lat="58.17352" lon="-5.26201">
        <ele>43.06</ele>
        <time>2021-03-20T23:54:24Z</time>
      </trkpt>
      <trkpt lat="58.17356" lon="-5.2625">
        <ele>41.74</ele>
        <time>2021-03-20T23:54:26Z</time>
      </trkpt>
      <trkpt lat="58.17356" lon="-5.26289">
        <ele>40.53</ele>
        <time>2021-03-20T23:54:29Z</time>
      </trkpt>
      <trkpt lat="58.17352" lon="-5.26349">
        <ele>40.76</ele>
        <time>2021-03-20T23:54:31Z</time>
      </trkpt>
      <trkpt lat="58.17353" lon="-5.26411">
        <ele>43.08</ele>
        <time>2021-03-20T23:54:34Z</time>
      </trkpt>
      <trkpt lat="58.17363" lon="-5.26518">
        <ele>43.36</ele>
        <time>2021-03-20T23:54:37Z</time>
      </trkpt>
      <trkpt lat="58.17371" lon="-5.26564">
        <ele>44.01</ele>
        <time>2021-03-20T23:54:39Z</time>
      </trkpt>
      <trkpt lat="58.17383" lon="-5.26617">
        <ele>46.7</ele>
        <time>2021-03-20T23:54:42Z</time>
      </trkpt>
      <trkpt lat="58.17434" lon="-5.26758">
        <ele>59.91</ele>
        <time>2021-03-20T23:54:44Z</time>
      </trkpt>
      <trkpt lat="58.1747" lon="-5.26869">
        <ele>66.54</ele>
        <time>2021-03-20T23:54:47Z</time>
      </trkpt>
      <trkpt lat="58.1749" lon="-5.26922">
        <ele>70.39</ele>
        <time>2021-03-20T23:54:49Z</time>
      </trkpt>
      <trkpt lat="58.17513" lon="-5.2697">
        <ele>74.83</ele>
        <time>2021-03-20T23:54:52Z</time>
      </trkpt>
      <trkpt lat="58.17539" lon="-5.2701">
        <ele>77.15</ele>
        <time>2021-03-20T23:54:54Z</time>
      </trkpt>
      <trkpt lat="58.17566" lon="-5.27045">
        <ele>80.86</ele>
        <time>2021-03-20T23:54:57Z</time>
      </trkpt>
      <trkpt lat="58.17588" lon="-5.27079">
        <ele>85.27</ele>
        <time>2021-03-20T23:54:59Z</time>
      </trkpt>
      <trkpt lat="58.17605" lon="-5.27111">
        <ele>88.52</ele>
        <time>2021-03-20T23:55:02Z</time>
      </trkpt>
      <trkpt lat="58.17708" lon="-5.27388">
        <ele>109.84</ele>
        <time>2021-03-20T23:55:05Z</time>
      </trkpt>
      <trkpt lat="58.17716" lon="-5.27425">
        <ele>112.98</ele>
        <time>2021-03-20T23:55:07Z</time>
      </trkpt>
      <trkpt lat="58.17732" lon="-5.27507">
        <ele>115.76</ele>
        <time>2021-03-20T23:55:10Z</time>
      </trkpt>
      <trkpt lat="58.17735" lon="-5.27604">
        <ele>118.39</ele>
        <time>2021-03-20T23:55:12Z</time>
      </trkpt>
      <trkpt lat="58.17747" lon="-5.27737">
        <ele>116.29</ele>
        <time>2021-03-20T23:55:15Z</time>
      </trkpt>
      <trkpt lat="58.17748" lon="-5.27774">
        <ele>113.54</ele>
        <time>2021-03-20T23:55:17Z</time>
      </trkpt>
      <trkpt lat="58.17745" lon="-5.27809">
        <ele>112.55</ele>
        <time>2021-03-20T23:55:20Z</time>
      </trkpt>
      <trkpt lat="58.17722" lon="-5.2794">
        <ele>114.05</ele>
        <time>2021-03-20T23:55:22Z</time>
      </trkpt>
      <trkpt lat="58.17719" lon="-5.27973">
        <ele>115.72</ele>
        <time>2021-03-20T23:55:25Z</time>
      </trkpt>
      <trkpt lat="58.17719" lon="-5.28004">
        <ele>115.86</ele>
        <time>2021-03-20T23:55:28Z</time>
      </trkpt>
      <trkpt lat="58.17736" lon="-5.28113">
        <ele>108.56</ele>
        <time>2021-03-20T23:55:30Z</time>
      </trkpt>
      <trkpt lat="58.17743" lon="-5.28134">
        <ele>105.81</ele>
        <time>2021-03-20T23:55:33Z</time>
      </trkpt>
      <trkpt lat="58.17766" lon="-5.28165">
        <ele>102.1</ele>
        <time>2021-03-20T23:55:35Z</time>
      </trkpt>
      <trkpt lat="58.17776" lon="-5.28193">
        <ele>98.39</ele>
        <time>2021-03-20T23:55:38Z</time>
      </trkpt>
      <trkpt lat="58.17784" lon="-5.28234">
        <ele>94.59</ele>
        <time>2021-03-20T23:55:40Z</time>
      </trkpt>
      <trkpt lat="58.1779" lon="-5.28322">
        <ele>84.95</ele>
        <time>2021-03-20T23:55:43Z</time>
      </trkpt>
      <trkpt lat="58.17794" lon="-5.28336">
        <ele>83.04</ele>
        <time>2021-03-20T23:55:45Z</time>
      </trkpt>
      <trkpt lat="58.17799" lon="-5.2834">
        <ele>82.22</ele>
        <time>2021-03-20T23:55:48Z</time>
      </trkpt>
      <trkpt lat="58.17807" lon="-5.28339">
        <ele>82.06</ele>
        <time>2021-03-20T23:55:51Z</time>
      </trkpt>
      <trkpt lat="58.17864" lon="-5.28261">
        <ele>81.93</ele>
        <time>2021-03-20T23:55:53Z</time>
      </trkpt>
      <trkpt lat="58.17899" lon="-5.28236">
        <ele>77.55</ele>
        <time>2021-03-20T23:55:56Z</time>
      </trkpt>
      <trkpt lat="58.17952" lon="-5.28189">
        <ele>72.04</ele>
        <time>2021-03-20T23:55:58Z</time>
      </trkpt>
      <trkpt lat="58.17961" lon="-5.28188">
        <ele>69.84</ele>
        <time>2021-03-20T23:56:01Z</time>
      </trkpt>
      <trkpt lat="58.17969" lon="-5.28196">
        <ele>67.6</ele>
        <time>2021-03-20T23:56:03Z</time>
      </trkpt>
      <trkpt lat="58.17975" lon="-5.28215">
        <ele>66.04</ele>
        <time>2021-03-20T23:56:06Z</time>
      </trkpt>
      <trkpt lat="58.17979" lon="-5.2824">
        <ele>65.33</ele>
        <time>2021-03-20T23:56:08Z</time>
      </trkpt>
      <trkpt lat="58.1798" lon="-5.28273">
        <ele>65.16</ele>
        <time>2021-03-20T23:56:11Z</time>
      </trkpt>
      <trkpt lat="58.17976" lon="-5.28306">
        <ele>65.4</ele>
        <time>2021-03-20T23:56:13Z</time>
      </trkpt>
      <trkpt lat="58.17951" lon="-5.28466">
        <ele>64.5</ele>
        <time>2021-03-20T23:56:16Z</time>
      </trkpt>
      <trkpt lat="58.17944" lon="-5.28493">
        <ele>63.56</ele>
        <time>2021-03-20T23:56:19Z</time>
      </trkpt>
      <trkpt lat="58.17924" lon="-5.28526">
        <ele>63.03</ele>
        <time>2021-03-20T23:56:21Z</time>
      </trkpt>
      <trkpt lat="58.17914" lon="-5.28552">
        <ele>62.77</ele>
        <time>2021-03-20T23:56:24Z</time>
      </trkpt>
      <trkpt lat="58.17909" lon="-5.28577">
        <ele>62.19</ele>
        <time>2021-03-20T23:56:26Z</time>
      </trkpt>
      <trkpt lat="58.17901" lon="-5.28648">
        <ele>58.76</ele>
        <time>2021-03-20T23:56:29Z</time>
      </trkpt>
      <trkpt lat="58.17896" lon="-5.28677">
        <ele>58.12</ele>
        <time>2021-03-20T23:56:31Z</time>
      </trkpt>
      <trkpt lat="58.17888" lon="-5.28701">
        <ele>57.65</ele>
        <time>2021-03-20T23:56:34Z</time>
      </trkpt>
      <trkpt lat="58.17849" lon="-5.28758">
        <ele>57.45</ele>
        <time>2021-03-20T23:56:36Z</time>
      </trkpt>
      <trkpt lat="58.17831" lon="-5.28796">
        <ele>57.36</ele>
        <time>2021-03-20T23:56:39Z</time>
      </trkpt>
      <trkpt lat="58.17819" lon="-5.28834">
        <ele>57.01</ele>
        <time>2021-03-20T23:56:42Z</time>
      </trkpt>
      <trkpt lat="58.17807" lon="-5.28881">
        <ele>58.7</ele>
        <time>2021-03-20T23:56:44Z</time>
      </trkpt>
      <trkpt lat="58.17803" lon="-5.28917">
        <ele>60.51</ele>
        <time>2021-03-20T23:56:47Z</time>
      </trkpt>
      <trkpt lat="58.17801" lon="-5.28953">
        <ele>61.9</ele>
        <time>2021-03-20T23:56:49Z</time>
      </trkpt>
      <trkpt lat="58.17809" lon="-5.29149">
        <ele>66.63</ele>
        <time>2021-03-20T23:56:52Z</time>
      </trkpt>
      <trkpt lat="58.17815" lon="-5.29197">
        <ele>67.14</ele>
        <time>2021-03-20T23:56:54Z</time>
      </trkpt>
      <trkpt lat="58.17822" lon="-5.29233">
        <ele>65.83</ele>
        <time>2021-03-20T23:56:57Z</time>
      </trkpt>
      <trkpt lat="58.17913" lon="-5.29549">
        <ele>61.1</ele>
        <time>2021-03-20T23:56:59Z</time>
      </trkpt>
      <trkpt lat="58.17923" lon="-5.29594">
        <ele>61.4</ele>
        <time>2021-03-20T23:57:02Z</time>
      </trkpt>
      <trkpt lat="58.17964" lon="-5.29885">
        <ele>61.36</ele>
        <time>2021-03-20T23:57:04Z</time>
      </trkpt>
      <trkpt lat="58.1797" lon="-5.29936">
        <ele>59.62</ele>
        <time>2021-03-20T23:57:07Z</time>
      </trkpt>
      <trkpt lat="58.17971" lon="-5.29999">
        <ele>58.54</ele>
        <time>2021-03-20T23:57:10Z</time>
      </trkpt>
      <trkpt lat="58.17997" lon="-5.30241">
        <ele>52.95</ele>
        <time>2021-03-20T23:57:12Z</time>
      </trkpt>
      <trkpt lat="58.18002" lon="-5.30276">
        <ele>52.09</ele>
        <time>2021-03-20T23:57:15Z</time>
      </trkpt>
      <trkpt lat="58.18018" lon="-5.30299">
        <ele>53.4</ele>
        <time>2021-03-20T23:57:17Z</time>
      </trkpt>
      <trkpt lat="58.18065" lon="-5.30351">
        <ele>56.55</ele>
        <time>2021-03-20T23:57:20Z</time>
      </trkpt>
      <trkpt lat="58.18184" lon="-5.30613">
        <ele>46.24</ele>
        <time>2021-03-20T23:57:22Z</time>
      </trkpt>
      <trkpt lat="58.18223" lon="-5.30727">
        <ele>49.06</ele>
        <time>2021-03-20T23:57:25Z</time>
      </trkpt>
      <trkpt lat="58.18235" lon="-5.30788">
        <ele>48.84</ele>
        <time>2021-03-20T23:57:27Z</time>
      </trkpt>
      <trkpt lat="58.18239" lon="-5.30813">
        <ele>48.24</ele>
        <time>2021-03-20T23:57:30Z</time>
      </trkpt>
      <trkpt lat="58.18275" lon="-5.30909">
        <ele>45.03</ele>
        <time>2021-03-20T23:57:33Z</time>
      </trkpt>
      <trkpt lat="58.18283" lon="-5.30958">
        <ele>45.14</ele>
        <time>2021-03-20T23:57:35Z</time>
      </trkpt>
      <trkpt lat="58.18281" lon="-5.31002">
        <ele>44.5</ele>
        <time>2021-03-20T23:57:38Z</time>
      </trkpt>
      <trkpt lat="58.18282" lon="-5.31021">
        <ele>45.34</ele>
        <time>2021-03-20T23:57:40Z</time>
      </trkpt>
      <trkpt lat="58.183" lon="-5.31116">
        <ele>51.59</ele>
        <time>2021-03-20T23:57:43Z</time>
      </trkpt>
      <trkpt lat="58.18324" lon="-5.31217">
        <ele>54.57</ele>
        <time>2021-03-20T23:57:45Z</time>
      </trkpt>
      <trkpt lat="58.18347" lon="-5.31292">
        <ele>54.06</ele>
        <time>2021-03-20T23:57:48Z</time>
      </trkpt>
      <trkpt lat="58.18412" lon="-5.31432">
        <ele>52.88</ele>
        <time>2021-03-20T23:57:50Z</time>
      </trkpt>
      <trkpt lat="58.18469" lon="-5.31612">
        <ele>60.85</ele>
        <time>2021-03-20T23:57:53Z</time>
      </trkpt>
      <trkpt lat="58.18478" lon="-5.31668">
        <ele>60.05</ele>
        <time>2021-03-20T23:57:56Z</time>
      </trkpt>
      <trkpt lat="58.18477" lon="-5.31803">
        <ele>59.85</ele>
        <time>2021-03-20T23:57:58Z</time>
      </trkpt>
      <trkpt lat="58.18485" lon="-5.31975">
        <ele>53.3</ele>
        <time>2021-03-20T23:58:01Z</time>
      </trkpt>
      <trkpt lat="58.18532" lon="-5.32158">
        <ele>40.41</ele>
        <time>2021-03-20T23:58:03Z</time>
      </trkpt>
      <trkpt lat="58.18549" lon="-5.32204">
        <ele>41.51</ele>
        <time>2021-03-20T23:58:06Z</time>
      </trkpt>
      <trkpt lat="58.18579" lon="-5.32251">
        <ele>44.03</ele>
        <time>2021-03-20T23:58:08Z</time>
      </trkpt>
      <trkpt lat="58.18595" lon="-5.32308">
        <ele>45.25</ele>
        <time>2021-03-20T23:58:11Z</time>
      </trkpt>
      <trkpt lat="58.18608" lon="-5.32431">
        <ele>48.44</ele>
        <time>2021-03-20T23:58:13Z</time>
      </trkpt>
      <trkpt lat="58.18666" lon="-5.32633">
        <ele>46.28</ele>
        <time>2021-03-20T23:58:16Z</time>
      </trkpt>
      <trkpt lat="58.18696" lon="-5.32685">
        <ele>44.35</ele>
        <time>2021-03-20T23:58:18Z</time>
      </trkpt>
      <trkpt lat="58.18773" lon="-5.32743">
        <ele>38.96</ele>
        <time>2021-03-20T23:58:21Z</time>
      </trkpt>
      <trkpt lat="58.18858" lon="-5.32845">
        <ele>41.93</ele>
        <time>2021-03-20T23:58:24Z</time>
      </trkpt>
      <trkpt lat="58.18882" lon="-5.32917">
        <ele>40.24</ele>
        <time>2021-03-20T23:58:26Z</time>
      </trkpt>
      <trkpt lat="58.1889" lon="-5.33062">
        <ele>30.21</ele>
        <time>2021-03-20T23:58:29Z</time>
      </trkpt>
      <trkpt lat="58.18911" lon="-5.33203">
        <ele>18.21</ele>
        <time>2021-03-20T23:58:31Z</time>
      </trkpt>
      <trkpt lat="58.18916" lon="-5.3322">
        <ele>17.07</ele>
        <time>2021-03-20T23:58:34Z</time>
      </trkpt>
      <trkpt lat="58.18934" lon="-5.33231">
        <ele>14.07</ele>
        <time>2021-03-20T23:58:36Z</time>
      </trkpt>
      <trkpt lat="58.19072" lon="-5.3324">
        <ele>12.8</ele>
        <time>2021-03-20T23:58:39Z</time>
      </trkpt>
      <trkpt lat="58.19115" lon="-5.33237">
        <ele>14.07</ele>
        <time>2021-03-20T23:58:41Z</time>
      </trkpt>
      <trkpt lat="58.19157" lon="-5.33223">
        <ele>14.65</ele>
        <time>2021-03-20T23:58:44Z</time>
      </trkpt>
      <trkpt lat="58.19209" lon="-5.33192">
        <ele>14.96</ele>
        <time>2021-03-20T23:58:47Z</time>
      </trkpt>
      <trkpt lat="58.193" lon="-5.33172">
        <ele>14.19</ele>
        <time>2021-03-20T23:58:49Z</time>
      </trkpt>
      <trkpt lat="58.19331" lon="-5.33173">
        <ele>13.34</ele>
        <time>2021-03-20T23:58:52Z</time>
      </trkpt>
      <trkpt lat="58.19372" lon="-5.33191">
        <ele>12.67</ele>
        <time>2021-03-20T23:58:54Z</time>
      </trkpt>
      <trkpt lat="58.19434" lon="-5.33247">
        <ele>12</ele>
        <time>2021-03-20T23:58:57Z</time>
      </trkpt>
      <trkpt lat="58.19483" lon="-5.333">
        <ele>11.61</ele>
        <time>2021-03-20T23:58:59Z</time>
      </trkpt>
      <trkpt lat="58.19507" lon="-5.3333">
        <ele>10.75</ele>
        <time>2021-03-20T23:59:02Z</time>
      </trkpt>
      <trkpt lat="58.19541" lon="-5.33381">
        <ele>11</ele>
        <time>2021-03-20T23:59:04Z</time>
      </trkpt>
      <trkpt lat="58.19574" lon="-5.33424">
        <ele>11.95</ele>
        <time>2021-03-20T23:59:07Z</time>
      </trkpt>
      <trkpt lat="58.19623" lon="-5.33469">
        <ele>9.55</ele>
        <time>2021-03-20T23:59:09Z</time>
      </trkpt>
      <trkpt lat="58.19662" lon="-5.33522">
        <ele>7.38</ele>
        <time>2021-03-20T23:59:12Z</time>
      </trkpt>
      <trkpt lat="58.19716" lon="-5.3364">
        <ele>7.44</ele>
        <time>2021-03-20T23:59:15Z</time>
      </trkpt>
      <trkpt lat="58.19748" lon="-5.33674">
        <ele>6.34</ele>
        <time>2021-03-20T23:59:17Z</time>
      </trkpt>
      <trkpt lat="58.19755" lon="-5.33676">
        <ele>6.16</ele>
        <time>2021-03-20T23:59:20Z</time>
      </trkpt>
      <trkpt lat="58.19771" lon="-5.33673">
        <ele>5.48</ele>
        <time>2021-03-20T23:59:22Z</time>
      </trkpt>
      <trkpt lat="58.19789" lon="-5.3366">
        <ele>5.41</ele>
        <time>2021-03-20T23:59:25Z</time>
      </trkpt>
      <trkpt lat="58.19821" lon="-5.33645">
        <ele>6</ele>
        <time>2021-03-20T23:59:27Z</time>
      </trkpt>
      <trkpt lat="58.19829" lon="-5.33644">
        <ele>6</ele>
        <time>2021-03-20T23:59:30Z</time>
      </trkpt>
      <trkpt lat="58.1987" lon="-5.33654">
        <ele>6</ele>
        <time>2021-03-20T23:59:32Z</time>
      </trkpt>
      <trkpt lat="58.19954" lon="-5.33681">
        <ele>9.72</ele>
        <time>2021-03-20T23:59:35Z</time>
      </trkpt>
      <trkpt lat="58.19983" lon="-5.33696">
        <ele>12.48</ele>
        <time>2021-03-20T23:59:38Z</time>
      </trkpt>
      <trkpt lat="58.19998" lon="-5.33712">
        <ele>14.69</ele>
        <time>2021-03-20T23:59:40Z</time>
      </trkpt>
      <trkpt lat="58.20007" lon="-5.33726">
        <ele>15.89</ele>
        <time>2021-03-20T23:59:43Z</time>
      </trkpt>
      <trkpt lat="58.20032" lon="-5.33788">
        <ele>17.71</ele>
        <time>2021-03-20T23:59:45Z</time>
      </trkpt>
      <trkpt lat="58.20038" lon="-5.33796">
        <ele>18.67</ele>
        <time>2021-03-20T23:59:48Z</time>
      </trkpt>
      <trkpt lat="58.20046" lon="-5.33802">
        <ele>20.12</ele>
        <time>2021-03-20T23:59:50Z</time>
      </trkpt>
      <trkpt lat="58.20059" lon="-5.338">
        <ele>22.22</ele>
        <time>2021-03-20T23:59:53Z</time>
      </trkpt>
      <trkpt lat="58.201" lon="-5.33759">
        <ele>26.22</ele>
        <time>2021-03-20T23:59:55Z</time>
      </trkpt>
      <trkpt lat="58.20117" lon="-5.33755">
        <ele>27.61</ele>
        <time>2021-03-20T23:59:58Z</time>
      </trkpt>
      <trkpt lat="58.20246" lon="-5.33827">
        <ele>41.7</ele>
        <time>2021-03-21T00:00:01Z</time>
      </trkpt>
      <trkpt lat="58.20282" lon="-5.33862">
        <ele>45</ele>
        <time>2021-03-21T00:00:03Z</time>
      </trkpt>
      <trkpt lat="58.20294" lon="-5.3388">
        <ele>45</ele>
        <time>2021-03-21T00:00:06Z</time>
      </trkpt>
      <trkpt lat="58.20306" lon="-5.33956">
        <ele>45.4</ele>
        <time>2021-03-21T00:00:08Z</time>
      </trkpt>
      <trkpt lat="58.20332" lon="-5.3401">
        <ele>47.08</ele>
        <time>2021-03-21T00:00:11Z</time>
      </trkpt>
      <trkpt lat="58.20345" lon="-5.34028">
        <ele>48.58</ele>
        <time>2021-03-21T00:00:13Z</time>
      </trkpt>
      <trkpt lat="58.20465" lon="-5.34139">
        <ele>52.01</ele>
        <time>2021-03-21T00:00:16Z</time>
      </trkpt>
      <trkpt lat="58.20491" lon="-5.34146">
        <ele>53.45</ele>
        <time>2021-03-21T00:00:18Z</time>
      </trkpt>
      <trkpt lat="58.20518" lon="-5.34134">
        <ele>55.24</ele>
        <time>2021-03-21T00:00:21Z</time>
      </trkpt>
      <trkpt lat="58.20529" lon="-5.34125">
        <ele>56.14</ele>
        <time>2021-03-21T00:00:23Z</time>
      </trkpt>
      <trkpt lat="58.20557" lon="-5.34048">
        <ele>59.07</ele>
        <time>2021-03-21T00:00:26Z</time>
      </trkpt>
      <trkpt lat="58.2057" lon="-5.34026">
        <ele>59.49</ele>
        <time>2021-03-21T00:00:29Z</time>
      </trkpt>
      <trkpt lat="58.20584" lon="-5.34015">
        <ele>59.5</ele>
        <time>2021-03-21T00:00:31Z</time>
      </trkpt>
      <trkpt lat="58.20672" lon="-5.33965">
        <ele>57.93</ele>
        <time>2021-03-21T00:00:34Z</time>
      </trkpt>
      <trkpt lat="58.208" lon="-5.33833">
        <ele>59.8</ele>
        <time>2021-03-21T00:00:36Z</time>
      </trkpt>
      <trkpt lat="58.20817" lon="-5.33819">
        <ele>60.12</ele>
        <time>2021-03-21T00:00:39Z</time>
      </trkpt>
      <trkpt lat="58.20836" lon="-5.33812">
        <ele>60.69</ele>
        <time>2021-03-21T00:00:41Z</time>
      </trkpt>
      <trkpt lat="58.20914" lon="-5.33795">
        <ele>61.81</ele>
        <time>2021-03-21T00:00:44Z</time>
      </trkpt>
      <trkpt lat="58.20994" lon="-5.3378">
        <ele>63.98</ele>
        <time>2021-03-21T00:00:46Z</time>
      </trkpt>
      <trkpt lat="58.21039" lon="-5.33767">
        <ele>64</ele>
        <time>2021-03-21T00:00:49Z</time>
      </trkpt>
      <trkpt lat="58.21123" lon="-5.33755">
        <ele>59.31</ele>
        <time>2021-03-21T00:00:52Z</time>
      </trkpt>
      <trkpt lat="58.21139" lon="-5.33745">
        <ele>57.67</ele>
        <time>2021-03-21T00:00:54Z</time>
      </trkpt>
      <trkpt lat="58.21151" lon="-5.33735">
        <ele>56.05</ele>
        <time>2021-03-21T00:00:57Z</time>
      </trkpt>
      <trkpt lat="58.21244" lon="-5.3364">
        <ele>49.21</ele>
        <time>2021-03-21T00:00:59Z</time>
      </trkpt>
      <trkpt lat="58.21285" lon="-5.33602">
        <ele>48.73</ele>
        <time>2021-03-21T00:01:02Z</time>
      </trkpt>
      <trkpt lat="58.21499" lon="-5.33385">
        <ele>47.35</ele>
        <time>2021-03-21T00:01:04Z</time>
      </trkpt>
      <trkpt lat="58.21531" lon="-5.33357">
        <ele>45.3</ele>
        <time>2021-03-21T00:01:07Z</time>
      </trkpt>
      <trkpt lat="58.21586" lon="-5.33269">
        <ele>49.4</ele>
        <time>2021-03-21T00:01:09Z</time>
      </trkpt>
      <trkpt lat="58.21608" lon="-5.33207">
        <ele>52.36</ele>
        <time>2021-03-21T00:01:12Z</time>
      </trkpt>
      <trkpt lat="58.21634" lon="-5.33098">
        <ele>53.31</ele>
        <time>2021-03-21T00:01:14Z</time>
      </trkpt>
      <trkpt lat="58.21723" lon="-5.32811">
        <ele>54.12</ele>
        <time>2021-03-21T00:01:17Z</time>
      </trkpt>
      <trkpt lat="58.21764" lon="-5.32653">
        <ele>55.77</ele>
        <time>2021-03-21T00:01:20Z</time>
      </trkpt>
      <trkpt lat="58.21817" lon="-5.32531">
        <ele>52.93</ele>
        <time>2021-03-21T00:01:22Z</time>
      </trkpt>
      <trkpt lat="58.21869" lon="-5.32461">
        <ele>52.58</ele>
        <time>2021-03-21T00:01:25Z</time>
      </trkpt>
      <trkpt lat="58.21937" lon="-5.32381">
        <ele>50.45</ele>
        <time>2021-03-21T00:01:27Z</time>
      </trkpt>
      <trkpt lat="58.21988" lon="-5.32329">
        <ele>51.9</ele>
        <time>2021-03-21T00:01:30Z</time>
      </trkpt>
      <trkpt lat="58.22025" lon="-5.32252">
        <ele>51.6</ele>
        <time>2021-03-21T00:01:32Z</time>
      </trkpt>
      <trkpt lat="58.22059" lon="-5.32205">
        <ele>52.68</ele>
        <time>2021-03-21T00:01:35Z</time>
      </trkpt>
      <trkpt lat="58.22114" lon="-5.32101">
        <ele>48.76</ele>
        <time>2021-03-21T00:01:37Z</time>
      </trkpt>
      <trkpt lat="58.22138" lon="-5.32021">
        <ele>46.76</ele>
        <time>2021-03-21T00:01:40Z</time>
      </trkpt>
      <trkpt lat="58.22163" lon="-5.31812">
        <ele>39.17</ele>
        <time>2021-03-21T00:01:43Z</time>
      </trkpt>
      <trkpt lat="58.2217" lon="-5.31775">
        <ele>37.92</ele>
        <time>2021-03-21T00:01:45Z</time>
      </trkpt>
      <trkpt lat="58.22189" lon="-5.31705">
        <ele>36.16</ele>
        <time>2021-03-21T00:01:48Z</time>
      </trkpt>
      <trkpt lat="58.22199" lon="-5.31676">
        <ele>34.81</ele>
        <time>2021-03-21T00:01:50Z</time>
      </trkpt>
      <trkpt lat="58.22232" lon="-5.31608">
        <ele>31.57</ele>
        <time>2021-03-21T00:01:53Z</time>
      </trkpt>
      <trkpt lat="58.22245" lon="-5.31564">
        <ele>29.42</ele>
        <time>2021-03-21T00:01:55Z</time>
      </trkpt>
      <trkpt lat="58.22253" lon="-5.31525">
        <ele>26.97</ele>
        <time>2021-03-21T00:01:58Z</time>
      </trkpt>
      <trkpt lat="58.22261" lon="-5.31463">
        <ele>23.17</ele>
        <time>2021-03-21T00:02:00Z</time>
      </trkpt>
      <trkpt lat="58.22269" lon="-5.31439">
        <ele>21.91</ele>
        <time>2021-03-21T00:02:03Z</time>
      </trkpt>
      <trkpt lat="58.22284" lon="-5.31406">
        <ele>19.04</ele>
        <time>2021-03-21T00:02:05Z</time>
      </trkpt>
      <trkpt lat="58.22291" lon="-5.31384">
        <ele>17.2</ele>
        <time>2021-03-21T00:02:08Z</time>
      </trkpt>
      <trkpt lat="58.22299" lon="-5.31342">
        <ele>14.15</ele>
        <time>2021-03-21T00:02:11Z</time>
      </trkpt>
      <trkpt lat="58.22296" lon="-5.31279">
        <ele>12.67</ele>
        <time>2021-03-21T00:02:13Z</time>
      </trkpt>
      <trkpt lat="58.22296" lon="-5.31279">
        <ele>12.67</ele>
        <time>2021-03-21T00:02:13Z</time>
      </trkpt>
      <trkpt lat="58.22294" lon="-5.31245">
        <ele>12.24</ele>
        <time>2021-03-21T00:02:16Z</time>
      </trkpt>
      <trkpt lat="58.22301" lon="-5.31163">
        <ele>11.18</ele>
        <time>2021-03-21T00:02:19Z</time>
      </trkpt>
      <trkpt lat="58.22308" lon="-5.31119">
        <ele>11.37</ele>
        <time>2021-03-21T00:02:22Z</time>
      </trkpt>
      <trkpt lat="58.22316" lon="-5.31079">
        <ele>10.53</ele>
        <time>2021-03-21T00:02:24Z</time>
      </trkpt>
      <trkpt lat="58.22338" lon="-5.31013">
        <ele>10.48</ele>
        <time>2021-03-21T00:02:27Z</time>
      </trkpt>
      <trkpt lat="58.22374" lon="-5.30928">
        <ele>13.56</ele>
        <time>2021-03-21T00:02:30Z</time>
      </trkpt>
      <trkpt lat="58.22402" lon="-5.30897">
        <ele>13.05</ele>
        <time>2021-03-21T00:02:33Z</time>
      </trkpt>
      <trkpt lat="58.2242" lon="-5.30869">
        <ele>13.33</ele>
        <time>2021-03-21T00:02:36Z</time>
      </trkpt>
      <trkpt lat="58.22488" lon="-5.30635">
        <ele>16.46</ele>
        <time>2021-03-21T00:02:39Z</time>
      </trkpt>
      <trkpt lat="58.225" lon="-5.30557">
        <ele>19.79</ele>
        <time>2021-03-21T00:02:41Z</time>
      </trkpt>
      <trkpt lat="58.22524" lon="-5.30499">
        <ele>14.39</ele>
        <time>2021-03-21T00:02:44Z</time>
      </trkpt>
      <trkpt lat="58.22527" lon="-5.30466">
        <ele>15.5</ele>
        <time>2021-03-21T00:02:47Z</time>
      </trkpt>
      <trkpt lat="58.22537" lon="-5.30439">
        <ele>15.19</ele>
        <time>2021-03-21T00:02:50Z</time>
      </trkpt>
      <trkpt lat="58.22574" lon="-5.30417">
        <ele>10.04</ele>
        <time>2021-03-21T00:02:53Z</time>
      </trkpt>
      <trkpt lat="58.22603" lon="-5.30373">
        <ele>10.12</ele>
        <time>2021-03-21T00:02:56Z</time>
      </trkpt>
      <trkpt lat="58.22622" lon="-5.30321">
        <ele>10.76</ele>
        <time>2021-03-21T00:02:58Z</time>
      </trkpt>
      <trkpt lat="58.22627" lon="-5.3026">
        <ele>14.43</ele>
        <time>2021-03-21T00:03:01Z</time>
      </trkpt>
      <trkpt lat="58.22634" lon="-5.30209">
        <ele>17.44</ele>
        <time>2021-03-21T00:03:04Z</time>
      </trkpt>
      <trkpt lat="58.22649" lon="-5.30161">
        <ele>20.03</ele>
        <time>2021-03-21T00:03:07Z</time>
      </trkpt>
      <trkpt lat="58.2269" lon="-5.30092">
        <ele>20.78</ele>
        <time>2021-03-21T00:03:10Z</time>
      </trkpt>
      <trkpt lat="58.22748" lon="-5.30041">
        <ele>16.55</ele>
        <time>2021-03-21T00:03:13Z</time>
      </trkpt>
      <trkpt lat="58.22823" lon="-5.29958">
        <ele>14.43</ele>
        <time>2021-03-21T00:03:15Z</time>
      </trkpt>
      <trkpt lat="58.22853" lon="-5.29908">
        <ele>13.7</ele>
        <time>2021-03-21T00:03:18Z</time>
      </trkpt>
      <trkpt lat="58.22871" lon="-5.29863">
        <ele>11.28</ele>
        <time>2021-03-21T00:03:21Z</time>
      </trkpt>
      <trkpt lat="58.22881" lon="-5.29782">
        <ele>12.46</ele>
        <time>2021-03-21T00:03:24Z</time>
      </trkpt>
      <trkpt lat="58.22886" lon="-5.29758">
        <ele>12.41</ele>
        <time>2021-03-21T00:03:27Z</time>
      </trkpt>
      <trkpt lat="58.22904" lon="-5.29718">
        <ele>11.69</ele>
        <time>2021-03-21T00:03:30Z</time>
      </trkpt>
      <trkpt lat="58.23005" lon="-5.29607">
        <ele>13.75</ele>
        <time>2021-03-21T00:03:32Z</time>
      </trkpt>
      <trkpt lat="58.23087" lon="-5.29499">
        <ele>10.14</ele>
        <time>2021-03-21T00:03:35Z</time>
      </trkpt>
      <trkpt lat="58.2309" lon="-5.2948">
        <ele>11.2</ele>
        <time>2021-03-21T00:03:38Z</time>
      </trkpt>
      <trkpt lat="58.23086" lon="-5.29444">
        <ele>17.02</ele>
        <time>2021-03-21T00:03:41Z</time>
      </trkpt>
      <trkpt lat="58.23088" lon="-5.29418">
        <ele>17.98</ele>
        <time>2021-03-21T00:03:44Z</time>
      </trkpt>
      <trkpt lat="58.23099" lon="-5.29381">
        <ele>16.68</ele>
        <time>2021-03-21T00:03:46Z</time>
      </trkpt>
      <trkpt lat="58.23103" lon="-5.29327">
        <ele>16.85</ele>
        <time>2021-03-21T00:03:49Z</time>
      </trkpt>
      <trkpt lat="58.23109" lon="-5.29294">
        <ele>15.24</ele>
        <time>2021-03-21T00:03:52Z</time>
      </trkpt>
      <trkpt lat="58.23129" lon="-5.29141">
        <ele>18.26</ele>
        <time>2021-03-21T00:03:55Z</time>
      </trkpt>
      <trkpt lat="58.23139" lon="-5.29025">
        <ele>22.15</ele>
        <time>2021-03-21T00:03:58Z</time>
      </trkpt>
      <trkpt lat="58.23119" lon="-5.28776">
        <ele>24.71</ele>
        <time>2021-03-21T00:04:01Z</time>
      </trkpt>
      <trkpt lat="58.23089" lon="-5.28543">
        <ele>26.66</ele>
        <time>2021-03-21T00:04:03Z</time>
      </trkpt>
      <trkpt lat="58.23057" lon="-5.28453">
        <ele>23.99</ele>
        <time>2021-03-21T00:04:06Z</time>
      </trkpt>
      <trkpt lat="58.23037" lon="-5.28371">
        <ele>24.07</ele>
        <time>2021-03-21T00:04:09Z</time>
      </trkpt>
      <trkpt lat="58.23002" lon="-5.2821">
        <ele>20.88</ele>
        <time>2021-03-21T00:04:12Z</time>
      </trkpt>
      <trkpt lat="58.22963" lon="-5.28004">
        <ele>24.42</ele>
        <time>2021-03-21T00:04:15Z</time>
      </trkpt>
      <trkpt lat="58.22941" lon="-5.27905">
        <ele>24.29</ele>
        <time>2021-03-21T00:04:18Z</time>
      </trkpt>
      <trkpt lat="58.22917" lon="-5.27822">
        <ele>25.43</ele>
        <time>2021-03-21T00:04:20Z</time>
      </trkpt>
      <trkpt lat="58.22834" lon="-5.27507">
        <ele>41.57</ele>
        <time>2021-03-21T00:04:23Z</time>
      </trkpt>
      <trkpt lat="58.22773" lon="-5.27174">
        <ele>51.41</ele>
        <time>2021-03-21T00:04:26Z</time>
      </trkpt>
      <trkpt lat="58.22725" lon="-5.26876">
        <ele>56.58</ele>
        <time>2021-03-21T00:04:29Z</time>
      </trkpt>
      <trkpt lat="58.22712" lon="-5.26765">
        <ele>60.42</ele>
        <time>2021-03-21T00:04:32Z</time>
      </trkpt>
      <trkpt lat="58.22707" lon="-5.26697">
        <ele>61.1</ele>
        <time>2021-03-21T00:04:35Z</time>
      </trkpt>
      <trkpt lat="58.22716" lon="-5.26581">
        <ele>60.86</ele>
        <time>2021-03-21T00:04:37Z</time>
      </trkpt>
      <trkpt lat="58.22724" lon="-5.26544">
        <ele>62.15</ele>
        <time>2021-03-21T00:04:40Z</time>
      </trkpt>
      <trkpt lat="58.2273" lon="-5.26535">
        <ele>62.56</ele>
        <time>2021-03-21T00:04:43Z</time>
      </trkpt>
      <trkpt lat="58.2283" lon="-5.26421">
        <ele>66.88</ele>
        <time>2021-03-21T00:04:46Z</time>
      </trkpt>
      <trkpt lat="58.22849" lon="-5.26391">
        <ele>66.07</ele>
        <time>2021-03-21T00:04:49Z</time>
      </trkpt>
      <trkpt lat="58.22852" lon="-5.26368">
        <ele>66</ele>
        <time>2021-03-21T00:04:52Z</time>
      </trkpt>
      <trkpt lat="58.22851" lon="-5.26292">
        <ele>65.96</ele>
        <time>2021-03-21T00:04:54Z</time>
      </trkpt>
      <trkpt lat="58.22841" lon="-5.26047">
        <ele>69.85</ele>
        <time>2021-03-21T00:04:57Z</time>
      </trkpt>
      <trkpt lat="58.22845" lon="-5.26003">
        <ele>71.19</ele>
        <time>2021-03-21T00:05:00Z</time>
      </trkpt>
      <trkpt lat="58.22912" lon="-5.25859">
        <ele>78.77</ele>
        <time>2021-03-21T00:05:03Z</time>
      </trkpt>
      <trkpt lat="58.22976" lon="-5.25755">
        <ele>77.18</ele>
        <time>2021-03-21T00:05:06Z</time>
      </trkpt>
      <trkpt lat="58.23011" lon="-5.25728">
        <ele>76.6</ele>
        <time>2021-03-21T00:05:08Z</time>
      </trkpt>
      <trkpt lat="58.23045" lon="-5.25708">
        <ele>76.69</ele>
        <time>2021-03-21T00:05:11Z</time>
      </trkpt>
      <trkpt lat="58.23112" lon="-5.25723">
        <ele>76.05</ele>
        <time>2021-03-21T00:05:14Z</time>
      </trkpt>
      <trkpt lat="58.23126" lon="-5.25707">
        <ele>77.07</ele>
        <time>2021-03-21T00:05:17Z</time>
      </trkpt>
      <trkpt lat="58.23131" lon="-5.25673">
        <ele>76.67</ele>
        <time>2021-03-21T00:05:20Z</time>
      </trkpt>
      <trkpt lat="58.23129" lon="-5.25599">
        <ele>75.29</ele>
        <time>2021-03-21T00:05:23Z</time>
      </trkpt>
      <trkpt lat="58.23138" lon="-5.25529">
        <ele>75</ele>
        <time>2021-03-21T00:05:25Z</time>
      </trkpt>
      <trkpt lat="58.23148" lon="-5.25477">
        <ele>75.65</ele>
        <time>2021-03-21T00:05:28Z</time>
      </trkpt>
      <trkpt lat="58.23148" lon="-5.25437">
        <ele>74.68</ele>
        <time>2021-03-21T00:05:31Z</time>
      </trkpt>
      <trkpt lat="58.2313" lon="-5.25342">
        <ele>76.36</ele>
        <time>2021-03-21T00:05:34Z</time>
      </trkpt>
      <trkpt lat="58.23115" lon="-5.25278">
        <ele>77.26</ele>
        <time>2021-03-21T00:05:37Z</time>
      </trkpt>
      <trkpt lat="58.2311" lon="-5.2524">
        <ele>76.57</ele>
        <time>2021-03-21T00:05:40Z</time>
      </trkpt>
      <trkpt lat="58.23118" lon="-5.2516">
        <ele>74.93</ele>
        <time>2021-03-21T00:05:42Z</time>
      </trkpt>
      <trkpt lat="58.23142" lon="-5.25038">
        <ele>77.48</ele>
        <time>2021-03-21T00:05:45Z</time>
      </trkpt>
      <trkpt lat="58.23154" lon="-5.25005">
        <ele>79.34</ele>
        <time>2021-03-21T00:05:48Z</time>
      </trkpt>
      <trkpt lat="58.2323" lon="-5.24878">
        <ele>85.07</ele>
        <time>2021-03-21T00:05:51Z</time>
      </trkpt>
      <trkpt lat="58.23305" lon="-5.24761">
        <ele>82.97</ele>
        <time>2021-03-21T00:05:54Z</time>
      </trkpt>
      <trkpt lat="58.23366" lon="-5.24675">
        <ele>78.58</ele>
        <time>2021-03-21T00:05:57Z</time>
      </trkpt>
      <trkpt lat="58.23466" lon="-5.24528">
        <ele>77</ele>
        <time>2021-03-21T00:05:59Z</time>
      </trkpt>
      <trkpt lat="58.23486" lon="-5.24467">
        <ele>75.81</ele>
        <time>2021-03-21T00:06:02Z</time>
      </trkpt>
      <trkpt lat="58.23556" lon="-5.24344">
        <ele>63.71</ele>
        <time>2021-03-21T00:06:05Z</time>
      </trkpt>
      <trkpt lat="58.23639" lon="-5.24217">
        <ele>55.41</ele>
        <time>2021-03-21T00:06:08Z</time>
      </trkpt>
      <trkpt lat="58.23672" lon="-5.24173">
        <ele>50</ele>
        <time>2021-03-21T00:06:11Z</time>
      </trkpt>
      <trkpt lat="58.23709" lon="-5.24138">
        <ele>44.34</ele>
        <time>2021-03-21T00:06:14Z</time>
      </trkpt>
      <trkpt lat="58.23739" lon="-5.24122">
        <ele>40.43</ele>
        <time>2021-03-21T00:06:16Z</time>
      </trkpt>
      <trkpt lat="58.23826" lon="-5.24145">
        <ele>37.46</ele>
        <time>2021-03-21T00:06:19Z</time>
      </trkpt>
      <trkpt lat="58.23864" lon="-5.24135">
        <ele>27.88</ele>
        <time>2021-03-21T00:06:22Z</time>
      </trkpt>
      <trkpt lat="58.2389" lon="-5.24109">
        <ele>19.73</ele>
        <time>2021-03-21T00:06:25Z</time>
      </trkpt>
      <trkpt lat="58.23953" lon="-5.24009">
        <ele>12</ele>
        <time>2021-03-21T00:06:28Z</time>
      </trkpt>
      <trkpt lat="58.23976" lon="-5.23981">
        <ele>11.96</ele>
        <time>2021-03-21T00:06:31Z</time>
      </trkpt>
      <trkpt lat="58.23988" lon="-5.23977">
        <ele>11.9</ele>
        <time>2021-03-21T00:06:33Z</time>
      </trkpt>
      <trkpt lat="58.2404" lon="-5.23986">
        <ele>12.95</ele>
        <time>2021-03-21T00:06:36Z</time>
      </trkpt>
      <trkpt lat="58.24087" lon="-5.23999">
        <ele>12.91</ele>
        <time>2021-03-21T00:06:39Z</time>
      </trkpt>
      <trkpt lat="58.24101" lon="-5.24">
        <ele>12.37</ele>
        <time>2021-03-21T00:06:42Z</time>
      </trkpt>
      <trkpt lat="58.24119" lon="-5.23994">
        <ele>11.94</ele>
        <time>2021-03-21T00:06:45Z</time>
      </trkpt>
      <trkpt lat="58.24137" lon="-5.23981">
        <ele>11.75</ele>
        <time>2021-03-21T00:06:47Z</time>
      </trkpt>
      <trkpt lat="58.24152" lon="-5.23962">
        <ele>11.88</ele>
        <time>2021-03-21T00:06:50Z</time>
      </trkpt>
      <trkpt lat="58.24181" lon="-5.23914">
        <ele>12.6</ele>
        <time>2021-03-21T00:06:53Z</time>
      </trkpt>
      <trkpt lat="58.2419" lon="-5.23889">
        <ele>13.15</ele>
        <time>2021-03-21T00:06:56Z</time>
      </trkpt>
      <trkpt lat="58.24223" lon="-5.23769">
        <ele>12</ele>
        <time>2021-03-21T00:06:59Z</time>
      </trkpt>
      <trkpt lat="58.24228" lon="-5.2376">
        <ele>12</ele>
        <time>2021-03-21T00:07:02Z</time>
      </trkpt>
      <trkpt lat="58.24398" lon="-5.2357">
        <ele>11.22</ele>
        <time>2021-03-21T00:07:04Z</time>
      </trkpt>
      <trkpt lat="58.24405" lon="-5.23559">
        <ele>10.82</ele>
        <time>2021-03-21T00:07:07Z</time>
      </trkpt>
      <trkpt lat="58.24424" lon="-5.23518">
        <ele>9.55</ele>
        <time>2021-03-21T00:07:10Z</time>
      </trkpt>
      <trkpt lat="58.24439" lon="-5.23497">
        <ele>8.36</ele>
        <time>2021-03-21T00:07:13Z</time>
      </trkpt>
      <trkpt lat="58.24495" lon="-5.23384">
        <ele>6.11</ele>
        <time>2021-03-21T00:07:16Z</time>
      </trkpt>
      <trkpt lat="58.24514" lon="-5.23341">
        <ele>6.59</ele>
        <time>2021-03-21T00:07:19Z</time>
      </trkpt>
      <trkpt lat="58.24518" lon="-5.23321">
        <ele>6.85</ele>
        <time>2021-03-21T00:07:21Z</time>
      </trkpt>
      <trkpt lat="58.24519" lon="-5.23312">
        <ele>7.08</ele>
        <time>2021-03-21T00:07:24Z</time>
      </trkpt>
      <trkpt lat="58.24518" lon="-5.23302">
        <ele>7.57</ele>
        <time>2021-03-21T00:07:27Z</time>
      </trkpt>
      <trkpt lat="58.2451" lon="-5.23278">
        <ele>9.53</ele>
        <time>2021-03-21T00:07:30Z</time>
      </trkpt>
      <trkpt lat="58.24492" lon="-5.23194">
        <ele>12.59</ele>
        <time>2021-03-21T00:07:33Z</time>
      </trkpt>
      <trkpt lat="58.24448" lon="-5.2304">
        <ele>13</ele>
        <time>2021-03-21T00:07:36Z</time>
      </trkpt>
      <trkpt lat="58.24398" lon="-5.22836">
        <ele>13.09</ele>
        <time>2021-03-21T00:07:38Z</time>
      </trkpt>
      <trkpt lat="58.24363" lon="-5.22702">
        <ele>14.64</ele>
        <time>2021-03-21T00:07:41Z</time>
      </trkpt>
      <trkpt lat="58.24339" lon="-5.22623">
        <ele>19.22</ele>
        <time>2021-03-21T00:07:44Z</time>
      </trkpt>
      <trkpt lat="58.24299" lon="-5.22552">
        <ele>25.47</ele>
        <time>2021-03-21T00:07:47Z</time>
      </trkpt>
      <trkpt lat="58.24277" lon="-5.225">
        <ele>29.08</ele>
        <time>2021-03-21T00:07:50Z</time>
      </trkpt>
      <trkpt lat="58.24271" lon="-5.22467">
        <ele>31.81</ele>
        <time>2021-03-21T00:07:53Z</time>
      </trkpt>
      <trkpt lat="58.24272" lon="-5.22437">
        <ele>33.49</ele>
        <time>2021-03-21T00:07:55Z</time>
      </trkpt>
      <trkpt lat="58.24279" lon="-5.22319">
        <ele>36.09</ele>
        <time>2021-03-21T00:07:58Z</time>
      </trkpt>
      <trkpt lat="58.24285" lon="-5.22269">
        <ele>36.24</ele>
        <time>2021-03-21T00:08:01Z</time>
      </trkpt>
      <trkpt lat="58.24295" lon="-5.22234">
        <ele>36.03</ele>
        <time>2021-03-21T00:08:04Z</time>
      </trkpt>
      <trkpt lat="58.2432" lon="-5.22202">
        <ele>36.33</ele>
        <time>2021-03-21T00:08:07Z</time>
      </trkpt>
      <trkpt lat="58.24331" lon="-5.22184">
        <ele>36.42</ele>
        <time>2021-03-21T00:08:09Z</time>
      </trkpt>
      <trkpt lat="58.24337" lon="-5.22163">
        <ele>36.44</ele>
        <time>2021-03-21T00:08:12Z</time>
      </trkpt>
      <trkpt lat="58.24343" lon="-5.22124">
        <ele>36.87</ele>
        <time>2021-03-21T00:08:15Z</time>
      </trkpt>
      <trkpt lat="58.24344" lon="-5.22101">
        <ele>36.79</ele>
        <time>2021-03-21T00:08:18Z</time>
      </trkpt>
      <trkpt lat="58.24343" lon="-5.2207">
        <ele>36.9</ele>
        <time>2021-03-21T00:08:21Z</time>
      </trkpt>
      <trkpt lat="58.2434" lon="-5.22012">
        <ele>36.82</ele>
        <time>2021-03-21T00:08:24Z</time>
      </trkpt>
      <trkpt lat="58.24335" lon="-5.21966">
        <ele>37.49</ele>
        <time>2021-03-21T00:08:26Z</time>
      </trkpt>
      <trkpt lat="58.2433" lon="-5.21937">
        <ele>37.78</ele>
        <time>2021-03-21T00:08:29Z</time>
      </trkpt>
      <trkpt lat="58.24283" lon="-5.21749">
        <ele>39.74</ele>
        <time>2021-03-21T00:08:32Z</time>
      </trkpt>
      <trkpt lat="58.2424" lon="-5.21555">
        <ele>39.5</ele>
        <time>2021-03-21T00:08:35Z</time>
      </trkpt>
      <trkpt lat="58.24234" lon="-5.21514">
        <ele>38.93</ele>
        <time>2021-03-21T00:08:38Z</time>
      </trkpt>
      <trkpt lat="58.24233" lon="-5.21489">
        <ele>38.76</ele>
        <time>2021-03-21T00:08:41Z</time>
      </trkpt>
      <trkpt lat="58.24236" lon="-5.21464">
        <ele>38.08</ele>
        <time>2021-03-21T00:08:43Z</time>
      </trkpt>
      <trkpt lat="58.24247" lon="-5.21438">
        <ele>37.57</ele>
        <time>2021-03-21T00:08:46Z</time>
      </trkpt>
      <trkpt lat="58.2429" lon="-5.21388">
        <ele>37.38</ele>
        <time>2021-03-21T00:08:49Z</time>
      </trkpt>
      <trkpt lat="58.24312" lon="-5.21357">
        <ele>36.61</ele>
        <time>2021-03-21T00:08:52Z</time>
      </trkpt>
      <trkpt lat="58.24321" lon="-5.21353">
        <ele>36.17</ele>
        <time>2021-03-21T00:08:55Z</time>
      </trkpt>
      <trkpt lat="58.24331" lon="-5.21359">
        <ele>36.03</ele>
        <time>2021-03-21T00:08:58Z</time>
      </trkpt>
      <trkpt lat="58.2435" lon="-5.21396">
        <ele>36.29</ele>
        <time>2021-03-21T00:09:00Z</time>
      </trkpt>
      <trkpt lat="58.24373" lon="-5.21426">
        <ele>36.49</ele>
        <time>2021-03-21T00:09:03Z</time>
      </trkpt>
      <trkpt lat="58.24392" lon="-5.21431">
        <ele>35.4</ele>
        <time>2021-03-21T00:09:06Z</time>
      </trkpt>
      <trkpt lat="58.2441" lon="-5.21427">
        <ele>34.64</ele>
        <time>2021-03-21T00:09:09Z</time>
      </trkpt>
      <trkpt lat="58.24424" lon="-5.21415">
        <ele>34.42</ele>
        <time>2021-03-21T00:09:12Z</time>
      </trkpt>
      <trkpt lat="58.24436" lon="-5.21397">
        <ele>34.64</ele>
        <time>2021-03-21T00:09:15Z</time>
      </trkpt>
      <trkpt lat="58.24453" lon="-5.21322">
        <ele>37.28</ele>
        <time>2021-03-21T00:09:17Z</time>
      </trkpt>
      <trkpt lat="58.2447" lon="-5.21205">
        <ele>42.56</ele>
        <time>2021-03-21T00:09:20Z</time>
      </trkpt>
      <trkpt lat="58.24469" lon="-5.21169">
        <ele>43.27</ele>
        <time>2021-03-21T00:09:23Z</time>
      </trkpt>
      <trkpt lat="58.2446" lon="-5.2105">
        <ele>42</ele>
        <time>2021-03-21T00:09:26Z</time>
      </trkpt>
      <trkpt lat="58.24455" lon="-5.2101">
        <ele>41.55</ele>
        <time>2021-03-21T00:09:29Z</time>
      </trkpt>
      <trkpt lat="58.24447" lon="-5.20965">
        <ele>39.94</ele>
        <time>2021-03-21T00:09:31Z</time>
      </trkpt>
      <trkpt lat="58.24444" lon="-5.20935">
        <ele>39.99</ele>
        <time>2021-03-21T00:09:34Z</time>
      </trkpt>
      <trkpt lat="58.24449" lon="-5.20915">
        <ele>41.08</ele>
        <time>2021-03-21T00:09:37Z</time>
      </trkpt>
      <trkpt lat="58.24468" lon="-5.20858">
        <ele>42.88</ele>
        <time>2021-03-21T00:09:40Z</time>
      </trkpt>
      <trkpt lat="58.24473" lon="-5.20832">
        <ele>42.18</ele>
        <time>2021-03-21T00:09:43Z</time>
      </trkpt>
      <trkpt lat="58.24477" lon="-5.20803">
        <ele>42.85</ele>
        <time>2021-03-21T00:09:46Z</time>
      </trkpt>
      <trkpt lat="58.24477" lon="-5.20778">
        <ele>41.86</ele>
        <time>2021-03-21T00:09:48Z</time>
      </trkpt>
      <trkpt lat="58.24472" lon="-5.207">
        <ele>43.79</ele>
        <time>2021-03-21T00:09:51Z</time>
      </trkpt>
      <trkpt lat="58.24468" lon="-5.20675">
        <ele>44.65</ele>
        <time>2021-03-21T00:09:54Z</time>
      </trkpt>
      <trkpt lat="58.24463" lon="-5.2062">
        <ele>45.79</ele>
        <time>2021-03-21T00:09:57Z</time>
      </trkpt>
      <trkpt lat="58.24457" lon="-5.20587">
        <ele>47.17</ele>
        <time>2021-03-21T00:10:00Z</time>
      </trkpt>
      <trkpt lat="58.24446" lon="-5.2055">
        <ele>49.79</ele>
        <time>2021-03-21T00:10:03Z</time>
      </trkpt>
      <trkpt lat="58.24438" lon="-5.20515">
        <ele>50.5</ele>
        <time>2021-03-21T00:10:05Z</time>
      </trkpt>
      <trkpt lat="58.24437" lon="-5.20496">
        <ele>50.36</ele>
        <time>2021-03-21T00:10:08Z</time>
      </trkpt>
      <trkpt lat="58.24423" lon="-5.20451">
        <ele>48.23</ele>
        <time>2021-03-21T00:10:11Z</time>
      </trkpt>
      <trkpt lat="58.24413" lon="-5.20426">
        <ele>47.01</ele>
        <time>2021-03-21T00:10:14Z</time>
      </trkpt>
      <trkpt lat="58.24392" lon="-5.20388">
        <ele>44.24</ele>
        <time>2021-03-21T00:10:17Z</time>
      </trkpt>
      <trkpt lat="58.24382" lon="-5.20362">
        <ele>43.99</ele>
        <time>2021-03-21T00:10:20Z</time>
      </trkpt>
      <trkpt lat="58.24376" lon="-5.20341">
        <ele>43.92</ele>
        <time>2021-03-21T00:10:22Z</time>
      </trkpt>
      <trkpt lat="58.24341" lon="-5.20237">
        <ele>47.64</ele>
        <time>2021-03-21T00:10:25Z</time>
      </trkpt>
      <trkpt lat="58.2431" lon="-5.20163">
        <ele>49.55</ele>
        <time>2021-03-21T00:10:28Z</time>
      </trkpt>
      <trkpt lat="58.24282" lon="-5.20106">
        <ele>49.14</ele>
        <time>2021-03-21T00:10:31Z</time>
      </trkpt>
      <trkpt lat="58.24225" lon="-5.2">
        <ele>46.31</ele>
        <time>2021-03-21T00:10:34Z</time>
      </trkpt>
      <trkpt lat="58.24202" lon="-5.19946">
        <ele>47.91</ele>
        <time>2021-03-21T00:10:37Z</time>
      </trkpt>
      <trkpt lat="58.24128" lon="-5.19814">
        <ele>52.09</ele>
        <time>2021-03-21T00:10:39Z</time>
      </trkpt>
      <trkpt lat="58.2411" lon="-5.19785">
        <ele>52.71</ele>
        <time>2021-03-21T00:10:42Z</time>
      </trkpt>
      <trkpt lat="58.24099" lon="-5.19741">
        <ele>54.6</ele>
        <time>2021-03-21T00:10:45Z</time>
      </trkpt>
      <trkpt lat="58.24091" lon="-5.19658">
        <ele>58.12</ele>
        <time>2021-03-21T00:10:48Z</time>
      </trkpt>
      <trkpt lat="58.24094" lon="-5.19608">
        <ele>62.63</ele>
        <time>2021-03-21T00:10:51Z</time>
      </trkpt>
      <trkpt lat="58.24129" lon="-5.19495">
        <ele>67.5</ele>
        <time>2021-03-21T00:10:54Z</time>
      </trkpt>
      <trkpt lat="58.24185" lon="-5.1936">
        <ele>63.92</ele>
        <time>2021-03-21T00:10:56Z</time>
      </trkpt>
      <trkpt lat="58.24224" lon="-5.19272">
        <ele>55.72</ele>
        <time>2021-03-21T00:10:59Z</time>
      </trkpt>
      <trkpt lat="58.24238" lon="-5.19255">
        <ele>53.51</ele>
        <time>2021-03-21T00:11:02Z</time>
      </trkpt>
      <trkpt lat="58.24246" lon="-5.19233">
        <ele>53.12</ele>
        <time>2021-03-21T00:11:05Z</time>
      </trkpt>
      <trkpt lat="58.24252" lon="-5.19185">
        <ele>55.33</ele>
        <time>2021-03-21T00:11:08Z</time>
      </trkpt>
      <trkpt lat="58.24258" lon="-5.19157">
        <ele>56.13</ele>
        <time>2021-03-21T00:11:10Z</time>
      </trkpt>
      <trkpt lat="58.24282" lon="-5.19103">
        <ele>54.96</ele>
        <time>2021-03-21T00:11:13Z</time>
      </trkpt>
      <trkpt lat="58.24295" lon="-5.19033">
        <ele>54.81</ele>
        <time>2021-03-21T00:11:16Z</time>
      </trkpt>
      <trkpt lat="58.24304" lon="-5.18977">
        <ele>55.12</ele>
        <time>2021-03-21T00:11:19Z</time>
      </trkpt>
      <trkpt lat="58.24305" lon="-5.18929">
        <ele>56.69</ele>
        <time>2021-03-21T00:11:22Z</time>
      </trkpt>
      <trkpt lat="58.24302" lon="-5.18885">
        <ele>59.13</ele>
        <time>2021-03-21T00:11:25Z</time>
      </trkpt>
      <trkpt lat="58.24257" lon="-5.18731">
        <ele>72.75</ele>
        <time>2021-03-21T00:11:27Z</time>
      </trkpt>
      <trkpt lat="58.242" lon="-5.18518">
        <ele>74.21</ele>
        <time>2021-03-21T00:11:30Z</time>
      </trkpt>
      <trkpt lat="58.24189" lon="-5.18443">
        <ele>72.86</ele>
        <time>2021-03-21T00:11:33Z</time>
      </trkpt>
      <trkpt lat="58.24173" lon="-5.18249">
        <ele>68.66</ele>
        <time>2021-03-21T00:11:36Z</time>
      </trkpt>
      <trkpt lat="58.24168" lon="-5.18127">
        <ele>68.75</ele>
        <time>2021-03-21T00:11:39Z</time>
      </trkpt>
      <trkpt lat="58.24153" lon="-5.18087">
        <ele>67.01</ele>
        <time>2021-03-21T00:11:42Z</time>
      </trkpt>
      <trkpt lat="58.24079" lon="-5.18017">
        <ele>61.33</ele>
        <time>2021-03-21T00:11:44Z</time>
      </trkpt>
      <trkpt lat="58.24053" lon="-5.17911">
        <ele>58.96</ele>
        <time>2021-03-21T00:11:47Z</time>
      </trkpt>
      <trkpt lat="58.24051" lon="-5.1783">
        <ele>54.11</ele>
        <time>2021-03-21T00:11:50Z</time>
      </trkpt>
      <trkpt lat="58.24034" lon="-5.17782">
        <ele>50.78</ele>
        <time>2021-03-21T00:11:53Z</time>
      </trkpt>
      <trkpt lat="58.23986" lon="-5.17729">
        <ele>45.08</ele>
        <time>2021-03-21T00:11:56Z</time>
      </trkpt>
      <trkpt lat="58.23967" lon="-5.17716">
        <ele>42.74</ele>
        <time>2021-03-21T00:11:59Z</time>
      </trkpt>
      <trkpt lat="58.23938" lon="-5.17733">
        <ele>48.28</ele>
        <time>2021-03-21T00:12:01Z</time>
      </trkpt>
      <trkpt lat="58.23894" lon="-5.17705">
        <ele>44.39</ele>
        <time>2021-03-21T00:12:04Z</time>
      </trkpt>
      <trkpt lat="58.23827" lon="-5.17645">
        <ele>40.99</ele>
        <time>2021-03-21T00:12:07Z</time>
      </trkpt>
      <trkpt lat="58.23786" lon="-5.17614">
        <ele>42.23</ele>
        <time>2021-03-21T00:12:10Z</time>
      </trkpt>
      <trkpt lat="58.23653" lon="-5.17574">
        <ele>45.7</ele>
        <time>2021-03-21T00:12:13Z</time>
      </trkpt>
      <trkpt lat="58.2362" lon="-5.17486">
        <ele>41.67</ele>
        <time>2021-03-21T00:12:16Z</time>
      </trkpt>
      <trkpt lat="58.23613" lon="-5.17423">
        <ele>43.82</ele>
        <time>2021-03-21T00:12:18Z</time>
      </trkpt>
      <trkpt lat="58.23608" lon="-5.17341">
        <ele>43.97</ele>
        <time>2021-03-21T00:12:21Z</time>
      </trkpt>
      <trkpt lat="58.23567" lon="-5.17217">
        <ele>40.83</ele>
        <time>2021-03-21T00:12:24Z</time>
      </trkpt>
      <trkpt lat="58.23541" lon="-5.17154">
        <ele>39.52</ele>
        <time>2021-03-21T00:12:27Z</time>
      </trkpt>
      <trkpt lat="58.23534" lon="-5.17127">
        <ele>39.55</ele>
        <time>2021-03-21T00:12:30Z</time>
      </trkpt>
      <trkpt lat="58.23539" lon="-5.17084">
        <ele>36.31</ele>
        <time>2021-03-21T00:12:32Z</time>
      </trkpt>
      <trkpt lat="58.23546" lon="-5.17042">
        <ele>31.97</ele>
        <time>2021-03-21T00:12:35Z</time>
      </trkpt>
      <trkpt lat="58.23544" lon="-5.16963">
        <ele>27.74</ele>
        <time>2021-03-21T00:12:38Z</time>
      </trkpt>
      <trkpt lat="58.23549" lon="-5.16912">
        <ele>23.91</ele>
        <time>2021-03-21T00:12:41Z</time>
      </trkpt>
      <trkpt lat="58.23548" lon="-5.16814">
        <ele>18</ele>
        <time>2021-03-21T00:12:44Z</time>
      </trkpt>
      <trkpt lat="58.23527" lon="-5.16624">
        <ele>7.19</ele>
        <time>2021-03-21T00:12:47Z</time>
      </trkpt>
      <trkpt lat="58.23474" lon="-5.16477">
        <ele>10.25</ele>
        <time>2021-03-21T00:12:49Z</time>
      </trkpt>
      <trkpt lat="58.23443" lon="-5.16418">
        <ele>12.96</ele>
        <time>2021-03-21T00:12:52Z</time>
      </trkpt>
      <trkpt lat="58.23433" lon="-5.16366">
        <ele>11.85</ele>
        <time>2021-03-21T00:12:55Z</time>
      </trkpt>
      <trkpt lat="58.23442" lon="-5.16313">
        <ele>7.93</ele>
        <time>2021-03-21T00:12:58Z</time>
      </trkpt>
      <trkpt lat="58.23437" lon="-5.16252">
        <ele>7.5</ele>
        <time>2021-03-21T00:13:01Z</time>
      </trkpt>
      <trkpt lat="58.23395" lon="-5.16132">
        <ele>11.18</ele>
        <time>2021-03-21T00:13:04Z</time>
      </trkpt>
      <trkpt lat="58.23326" lon="-5.15987">
        <ele>9.29</ele>
        <time>2021-03-21T00:13:06Z</time>
      </trkpt>
      <trkpt lat="58.23294" lon="-5.15893">
        <ele>6.94</ele>
        <time>2021-03-21T00:13:09Z</time>
      </trkpt>
      <trkpt lat="58.23284" lon="-5.15843">
        <ele>6.67</ele>
        <time>2021-03-21T00:13:12Z</time>
      </trkpt>
      <trkpt lat="58.23291" lon="-5.15796">
        <ele>5.54</ele>
        <time>2021-03-21T00:13:15Z</time>
      </trkpt>
      <trkpt lat="58.23301" lon="-5.15772">
        <ele>5.18</ele>
        <time>2021-03-21T00:13:18Z</time>
      </trkpt>
      <trkpt lat="58.2336" lon="-5.15712">
        <ele>8.27</ele>
        <time>2021-03-21T00:13:21Z</time>
      </trkpt>
      <trkpt lat="58.23368" lon="-5.15696">
        <ele>9.75</ele>
        <time>2021-03-21T00:13:23Z</time>
      </trkpt>
      <trkpt lat="58.23374" lon="-5.15667">
        <ele>11.35</ele>
        <time>2021-03-21T00:13:26Z</time>
      </trkpt>
      <trkpt lat="58.23376" lon="-5.15627">
        <ele>13.43</ele>
        <time>2021-03-21T00:13:29Z</time>
      </trkpt>
      <trkpt lat="58.23354" lon="-5.15523">
        <ele>24.16</ele>
        <time>2021-03-21T00:13:32Z</time>
      </trkpt>
      <trkpt lat="58.23336" lon="-5.15466">
        <ele>29.75</ele>
        <time>2021-03-21T00:13:35Z</time>
      </trkpt>
      <trkpt lat="58.23309" lon="-5.15394">
        <ele>32.37</ele>
        <time>2021-03-21T00:13:38Z</time>
      </trkpt>
      <trkpt lat="58.23286" lon="-5.1536">
        <ele>30.26</ele>
        <time>2021-03-21T00:13:40Z</time>
      </trkpt>
      <trkpt lat="58.23282" lon="-5.15308">
        <ele>33.89</ele>
        <time>2021-03-21T00:13:43Z</time>
      </trkpt>
      <trkpt lat="58.23286" lon="-5.15246">
        <ele>40.42</ele>
        <time>2021-03-21T00:13:46Z</time>
      </trkpt>
      <trkpt lat="58.23284" lon="-5.15204">
        <ele>42.93</ele>
        <time>2021-03-21T00:13:49Z</time>
      </trkpt>
      <trkpt lat="58.23268" lon="-5.15057">
        <ele>52.33</ele>
        <time>2021-03-21T00:13:52Z</time>
      </trkpt>
      <trkpt lat="58.23243" lon="-5.14967">
        <ele>58.35</ele>
        <time>2021-03-21T00:13:55Z</time>
      </trkpt>
      <trkpt lat="58.23211" lon="-5.1491">
        <ele>60.37</ele>
        <time>2021-03-21T00:13:57Z</time>
      </trkpt>
      <trkpt lat="58.23206" lon="-5.14882">
        <ele>63.69</ele>
        <time>2021-03-21T00:14:00Z</time>
      </trkpt>
      <trkpt lat="58.23214" lon="-5.14853">
        <ele>67.02</ele>
        <time>2021-03-21T00:14:03Z</time>
      </trkpt>
      <trkpt lat="58.23233" lon="-5.148">
        <ele>74.51</ele>
        <time>2021-03-21T00:14:06Z</time>
      </trkpt>
      <trkpt lat="58.23237" lon="-5.1474">
        <ele>80.35</ele>
        <time>2021-03-21T00:14:09Z</time>
      </trkpt>
      <trkpt lat="58.23232" lon="-5.14686">
        <ele>82.15</ele>
        <time>2021-03-21T00:14:11Z</time>
      </trkpt>
      <trkpt lat="58.23224" lon="-5.14563">
        <ele>86.11</ele>
        <time>2021-03-21T00:14:14Z</time>
      </trkpt>
      <trkpt lat="58.23233" lon="-5.14463">
        <ele>90.66</ele>
        <time>2021-03-21T00:14:17Z</time>
      </trkpt>
      <trkpt lat="58.2323" lon="-5.14342">
        <ele>87.83</ele>
        <time>2021-03-21T00:14:20Z</time>
      </trkpt>
      <trkpt lat="58.23237" lon="-5.14173">
        <ele>91.11</ele>
        <time>2021-03-21T00:14:23Z</time>
      </trkpt>
      <trkpt lat="58.23236" lon="-5.14008">
        <ele>94.68</ele>
        <time>2021-03-21T00:14:26Z</time>
      </trkpt>
      <trkpt lat="58.23245" lon="-5.13901">
        <ele>96.57</ele>
        <time>2021-03-21T00:14:28Z</time>
      </trkpt>
      <trkpt lat="58.23291" lon="-5.138">
        <ele>103.51</ele>
        <time>2021-03-21T00:14:31Z</time>
      </trkpt>
      <trkpt lat="58.23297" lon="-5.13743">
        <ele>104.77</ele>
        <time>2021-03-21T00:14:34Z</time>
      </trkpt>
      <trkpt lat="58.23333" lon="-5.13718">
        <ele>108.94</ele>
        <time>2021-03-21T00:14:37Z</time>
      </trkpt>
      <trkpt lat="58.23372" lon="-5.13682">
        <ele>109.74</ele>
        <time>2021-03-21T00:14:40Z</time>
      </trkpt>
      <trkpt lat="58.23417" lon="-5.13708">
        <ele>109.01</ele>
        <time>2021-03-21T00:14:43Z</time>
      </trkpt>
      <trkpt lat="58.23446" lon="-5.13705">
        <ele>110.05</ele>
        <time>2021-03-21T00:14:45Z</time>
      </trkpt>
      <trkpt lat="58.23518" lon="-5.13672">
        <ele>113.48</ele>
        <time>2021-03-21T00:14:48Z</time>
      </trkpt>
      <trkpt lat="58.23546" lon="-5.13673">
        <ele>114.9</ele>
        <time>2021-03-21T00:14:51Z</time>
      </trkpt>
      <trkpt lat="58.23572" lon="-5.13699">
        <ele>114.99</ele>
        <time>2021-03-21T00:14:54Z</time>
      </trkpt>
      <trkpt lat="58.23601" lon="-5.13764">
        <ele>117.1</ele>
        <time>2021-03-21T00:14:57Z</time>
      </trkpt>
      <trkpt lat="58.23618" lon="-5.13771">
        <ele>120.67</ele>
        <time>2021-03-21T00:15:00Z</time>
      </trkpt>
      <trkpt lat="58.23629" lon="-5.13759">
        <ele>123.48</ele>
        <time>2021-03-21T00:15:02Z</time>
      </trkpt>
      <trkpt lat="58.23637" lon="-5.1372">
        <ele>125.66</ele>
        <time>2021-03-21T00:15:05Z</time>
      </trkpt>
      <trkpt lat="58.23646" lon="-5.13632">
        <ele>130.25</ele>
        <time>2021-03-21T00:15:08Z</time>
      </trkpt>
      <trkpt lat="58.23694" lon="-5.13548">
        <ele>133.29</ele>
        <time>2021-03-21T00:15:11Z</time>
      </trkpt>
      <trkpt lat="58.23736" lon="-5.13458">
        <ele>131.73</ele>
        <time>2021-03-21T00:15:14Z</time>
      </trkpt>
      <trkpt lat="58.2374" lon="-5.13423">
        <ele>131.5</ele>
        <time>2021-03-21T00:15:17Z</time>
      </trkpt>
      <trkpt lat="58.23734" lon="-5.13385">
        <ele>131.24</ele>
        <time>2021-03-21T00:15:19Z</time>
      </trkpt>
      <trkpt lat="58.2373" lon="-5.13333">
        <ele>131.11</ele>
        <time>2021-03-21T00:15:22Z</time>
      </trkpt>
      <trkpt lat="58.23733" lon="-5.13269">
        <ele>132.06</ele>
        <time>2021-03-21T00:15:25Z</time>
      </trkpt>
      <trkpt lat="58.23744" lon="-5.13229">
        <ele>131.68</ele>
        <time>2021-03-21T00:15:28Z</time>
      </trkpt>
      <trkpt lat="58.23764" lon="-5.13204">
        <ele>131.14</ele>
        <time>2021-03-21T00:15:31Z</time>
      </trkpt>
      <trkpt lat="58.23789" lon="-5.13213">
        <ele>130.35</ele>
        <time>2021-03-21T00:15:33Z</time>
      </trkpt>
      <trkpt lat="58.23857" lon="-5.13265">
        <ele>130</ele>
        <time>2021-03-21T00:15:36Z</time>
      </trkpt>
      <trkpt lat="58.23875" lon="-5.13257">
        <ele>129.49</ele>
        <time>2021-03-21T00:15:39Z</time>
      </trkpt>
      <trkpt lat="58.23925" lon="-5.13181">
        <ele>129.18</ele>
        <time>2021-03-21T00:15:42Z</time>
      </trkpt>
      <trkpt lat="58.23963" lon="-5.13113">
        <ele>128.63</ele>
        <time>2021-03-21T00:15:45Z</time>
      </trkpt>
      <trkpt lat="58.2399" lon="-5.12992">
        <ele>129.28</ele>
        <time>2021-03-21T00:15:48Z</time>
      </trkpt>
      <trkpt lat="58.23993" lon="-5.12953">
        <ele>130.21</ele>
        <time>2021-03-21T00:15:50Z</time>
      </trkpt>
      <trkpt lat="58.23985" lon="-5.12892">
        <ele>131.1</ele>
        <time>2021-03-21T00:15:53Z</time>
      </trkpt>
      <trkpt lat="58.23988" lon="-5.12847">
        <ele>131.93</ele>
        <time>2021-03-21T00:15:56Z</time>
      </trkpt>
      <trkpt lat="58.24025" lon="-5.12791">
        <ele>133.16</ele>
        <time>2021-03-21T00:15:59Z</time>
      </trkpt>
      <trkpt lat="58.24157" lon="-5.12475">
        <ele>136.36</ele>
        <time>2021-03-21T00:16:02Z</time>
      </trkpt>
      <trkpt lat="58.24196" lon="-5.12397">
        <ele>134.07</ele>
        <time>2021-03-21T00:16:05Z</time>
      </trkpt>
      <trkpt lat="58.24202" lon="-5.12374">
        <ele>132.31</ele>
        <time>2021-03-21T00:16:07Z</time>
      </trkpt>
      <trkpt lat="58.24184" lon="-5.12268">
        <ele>131.89</ele>
        <time>2021-03-21T00:16:10Z</time>
      </trkpt>
      <trkpt lat="58.24192" lon="-5.12215">
        <ele>129.42</ele>
        <time>2021-03-21T00:16:13Z</time>
      </trkpt>
      <trkpt lat="58.24193" lon="-5.12006">
        <ele>120.79</ele>
        <time>2021-03-21T00:16:16Z</time>
      </trkpt>
      <trkpt lat="58.24183" lon="-5.11818">
        <ele>109.79</ele>
        <time>2021-03-21T00:16:19Z</time>
      </trkpt>
      <trkpt lat="58.24186" lon="-5.11753">
        <ele>107.28</ele>
        <time>2021-03-21T00:16:22Z</time>
      </trkpt>
      <trkpt lat="58.242" lon="-5.11694">
        <ele>105.44</ele>
        <time>2021-03-21T00:16:24Z</time>
      </trkpt>
      <trkpt lat="58.24222" lon="-5.11647">
        <ele>102.1</ele>
        <time>2021-03-21T00:16:27Z</time>
      </trkpt>
      <trkpt lat="58.2427" lon="-5.11525">
        <ele>96.56</ele>
        <time>2021-03-21T00:16:30Z</time>
      </trkpt>
      <trkpt lat="58.24306" lon="-5.11493">
        <ele>91.69</ele>
        <time>2021-03-21T00:16:33Z</time>
      </trkpt>
      <trkpt lat="58.24312" lon="-5.11467">
        <ele>89.89</ele>
        <time>2021-03-21T00:16:36Z</time>
      </trkpt>
      <trkpt lat="58.24312" lon="-5.11431">
        <ele>88.39</ele>
        <time>2021-03-21T00:16:39Z</time>
      </trkpt>
      <trkpt lat="58.24318" lon="-5.11406">
        <ele>86.58</ele>
        <time>2021-03-21T00:16:41Z</time>
      </trkpt>
      <trkpt lat="58.24368" lon="-5.11302">
        <ele>83.09</ele>
        <time>2021-03-21T00:16:44Z</time>
      </trkpt>
      <trkpt lat="58.24401" lon="-5.11238">
        <ele>80.66</ele>
        <time>2021-03-21T00:16:47Z</time>
      </trkpt>
      <trkpt lat="58.24423" lon="-5.1124">
        <ele>78.72</ele>
        <time>2021-03-21T00:16:50Z</time>
      </trkpt>
      <trkpt lat="58.24444" lon="-5.11235">
        <ele>75.58</ele>
        <time>2021-03-21T00:16:53Z</time>
      </trkpt>
      <trkpt lat="58.24461" lon="-5.11183">
        <ele>70.65</ele>
        <time>2021-03-21T00:16:55Z</time>
      </trkpt>
      <trkpt lat="58.24462" lon="-5.11132">
        <ele>68.64</ele>
        <time>2021-03-21T00:16:58Z</time>
      </trkpt>
      <trkpt lat="58.24429" lon="-5.11015">
        <ele>70.68</ele>
        <time>2021-03-21T00:17:01Z</time>
      </trkpt>
      <trkpt lat="58.24422" lon="-5.10956">
        <ele>70.83</ele>
        <time>2021-03-21T00:17:04Z</time>
      </trkpt>
      <trkpt lat="58.24444" lon="-5.10874">
        <ele>75.09</ele>
        <time>2021-03-21T00:17:07Z</time>
      </trkpt>
      <trkpt lat="58.24443" lon="-5.10786">
        <ele>81.68</ele>
        <time>2021-03-21T00:17:10Z</time>
      </trkpt>
      <trkpt lat="58.2445" lon="-5.10716">
        <ele>86.01</ele>
        <time>2021-03-21T00:17:12Z</time>
      </trkpt>
      <trkpt lat="58.24467" lon="-5.10634">
        <ele>89.59</ele>
        <time>2021-03-21T00:17:15Z</time>
      </trkpt>
      <trkpt lat="58.24484" lon="-5.10537">
        <ele>94.49</ele>
        <time>2021-03-21T00:17:18Z</time>
      </trkpt>
      <trkpt lat="58.24487" lon="-5.10429">
        <ele>100.54</ele>
        <time>2021-03-21T00:17:21Z</time>
      </trkpt>
      <trkpt lat="58.24488" lon="-5.10346">
        <ele>104.59</ele>
        <time>2021-03-21T00:17:24Z</time>
      </trkpt>
      <trkpt lat="58.245" lon="-5.10299">
        <ele>104.71</ele>
        <time>2021-03-21T00:17:27Z</time>
      </trkpt>
      <trkpt lat="58.2453" lon="-5.10267">
        <ele>105.65</ele>
        <time>2021-03-21T00:17:29Z</time>
      </trkpt>
      <trkpt lat="58.24651" lon="-5.1022">
        <ele>115.51</ele>
        <time>2021-03-21T00:17:32Z</time>
      </trkpt>
      <trkpt lat="58.24679" lon="-5.10145">
        <ele>113.05</ele>
        <time>2021-03-21T00:17:35Z</time>
      </trkpt>
      <trkpt lat="58.24681" lon="-5.1008">
        <ele>109.22</ele>
        <time>2021-03-21T00:17:38Z</time>
      </trkpt>
      <trkpt lat="58.24659" lon="-5.09855">
        <ele>103.44</ele>
        <time>2021-03-21T00:17:41Z</time>
      </trkpt>
      <trkpt lat="58.24665" lon="-5.09812">
        <ele>99.83</ele>
        <time>2021-03-21T00:17:44Z</time>
      </trkpt>
      <trkpt lat="58.2469" lon="-5.09794">
        <ele>95.54</ele>
        <time>2021-03-21T00:17:46Z</time>
      </trkpt>
      <trkpt lat="58.24715" lon="-5.09798">
        <ele>91.82</ele>
        <time>2021-03-21T00:17:49Z</time>
      </trkpt>
      <trkpt lat="58.2475" lon="-5.09821">
        <ele>84.91</ele>
        <time>2021-03-21T00:17:52Z</time>
      </trkpt>
      <trkpt lat="58.24803" lon="-5.09933">
        <ele>73.89</ele>
        <time>2021-03-21T00:17:55Z</time>
      </trkpt>
      <trkpt lat="58.24819" lon="-5.09952">
        <ele>69.94</ele>
        <time>2021-03-21T00:17:58Z</time>
      </trkpt>
      <trkpt lat="58.24836" lon="-5.09942">
        <ele>66.43</ele>
        <time>2021-03-21T00:18:01Z</time>
      </trkpt>
      <trkpt lat="58.24854" lon="-5.09886">
        <ele>62.34</ele>
        <time>2021-03-21T00:18:03Z</time>
      </trkpt>
      <trkpt lat="58.2486" lon="-5.09837">
        <ele>60.32</ele>
        <time>2021-03-21T00:18:06Z</time>
      </trkpt>
      <trkpt lat="58.24858" lon="-5.09783">
        <ele>61.1</ele>
        <time>2021-03-21T00:18:09Z</time>
      </trkpt>
      <trkpt lat="58.24862" lon="-5.09767">
        <ele>59.48</ele>
        <time>2021-03-21T00:18:12Z</time>
      </trkpt>
      <trkpt lat="58.24872" lon="-5.09764">
        <ele>56.12</ele>
        <time>2021-03-21T00:18:15Z</time>
      </trkpt>
      <trkpt lat="58.24895" lon="-5.09799">
        <ele>51.6</ele>
        <time>2021-03-21T00:18:18Z</time>
      </trkpt>
      <trkpt lat="58.24909" lon="-5.09799">
        <ele>49.1</ele>
        <time>2021-03-21T00:18:20Z</time>
      </trkpt>
      <trkpt lat="58.24935" lon="-5.09743">
        <ele>47.74</ele>
        <time>2021-03-21T00:18:23Z</time>
      </trkpt>
      <trkpt lat="58.24947" lon="-5.09695">
        <ele>51.57</ele>
        <time>2021-03-21T00:18:26Z</time>
      </trkpt>
      <trkpt lat="58.24948" lon="-5.09578">
        <ele>58.5</ele>
        <time>2021-03-21T00:18:29Z</time>
      </trkpt>
      <trkpt lat="58.24988" lon="-5.09482">
        <ele>72.8</ele>
        <time>2021-03-21T00:18:32Z</time>
      </trkpt>
      <trkpt lat="58.25018" lon="-5.0942">
        <ele>82.03</ele>
        <time>2021-03-21T00:18:34Z</time>
      </trkpt>
      <trkpt lat="58.2502" lon="-5.09395">
        <ele>82.87</ele>
        <time>2021-03-21T00:18:37Z</time>
      </trkpt>
      <trkpt lat="58.25016" lon="-5.09337">
        <ele>86.17</ele>
        <time>2021-03-21T00:18:40Z</time>
      </trkpt>
      <trkpt lat="58.25114" lon="-5.09087">
        <ele>88.13</ele>
        <time>2021-03-21T00:18:43Z</time>
      </trkpt>
      <trkpt lat="58.251" lon="-5.08963">
        <ele>86.25</ele>
        <time>2021-03-21T00:18:46Z</time>
      </trkpt>
      <trkpt lat="58.25106" lon="-5.08906">
        <ele>83.48</ele>
        <time>2021-03-21T00:18:49Z</time>
      </trkpt>
      <trkpt lat="58.25098" lon="-5.08855">
        <ele>84.36</ele>
        <time>2021-03-21T00:18:51Z</time>
      </trkpt>
      <trkpt lat="58.25092" lon="-5.08651">
        <ele>86.8</ele>
        <time>2021-03-21T00:18:54Z</time>
      </trkpt>
      <trkpt lat="58.25077" lon="-5.08604">
        <ele>86.68</ele>
        <time>2021-03-21T00:18:57Z</time>
      </trkpt>
      <trkpt lat="58.25013" lon="-5.08557">
        <ele>85.18</ele>
        <time>2021-03-21T00:19:00Z</time>
      </trkpt>
      <trkpt lat="58.25" lon="-5.08529">
        <ele>84.07</ele>
        <time>2021-03-21T00:19:03Z</time>
      </trkpt>
      <trkpt lat="58.24987" lon="-5.08436">
        <ele>80.28</ele>
        <time>2021-03-21T00:19:06Z</time>
      </trkpt>
      <trkpt lat="58.24922" lon="-5.0813">
        <ele>82.44</ele>
        <time>2021-03-21T00:19:08Z</time>
      </trkpt>
      <trkpt lat="58.24927" lon="-5.08077">
        <ele>77.27</ele>
        <time>2021-03-21T00:19:11Z</time>
      </trkpt>
      <trkpt lat="58.24943" lon="-5.08027">
        <ele>71.53</ele>
        <time>2021-03-21T00:19:14Z</time>
      </trkpt>
      <trkpt lat="58.24942" lon="-5.07908">
        <ele>69.24</ele>
        <time>2021-03-21T00:19:17Z</time>
      </trkpt>
      <trkpt lat="58.24917" lon="-5.07824">
        <ele>70.68</ele>
        <time>2021-03-21T00:19:20Z</time>
      </trkpt>
      <trkpt lat="58.24917" lon="-5.07686">
        <ele>68.05</ele>
        <time>2021-03-21T00:19:23Z</time>
      </trkpt>
      <trkpt lat="58.2493" lon="-5.07589">
        <ele>66.49</ele>
        <time>2021-03-21T00:19:25Z</time>
      </trkpt>
      <trkpt lat="58.24933" lon="-5.07491">
        <ele>70.26</ele>
        <time>2021-03-21T00:19:28Z</time>
      </trkpt>
      <trkpt lat="58.24922" lon="-5.07433">
        <ele>72.1</ele>
        <time>2021-03-21T00:19:31Z</time>
      </trkpt>
      <trkpt lat="58.24902" lon="-5.07384">
        <ele>72.07</ele>
        <time>2021-03-21T00:19:34Z</time>
      </trkpt>
      <trkpt lat="58.24888" lon="-5.07306">
        <ele>61.31</ele>
        <time>2021-03-21T00:19:37Z</time>
      </trkpt>
      <trkpt lat="58.24885" lon="-5.07194">
        <ele>47.93</ele>
        <time>2021-03-21T00:19:40Z</time>
      </trkpt>
      <trkpt lat="58.24873" lon="-5.07017">
        <ele>40.17</ele>
        <time>2021-03-21T00:19:42Z</time>
      </trkpt>
      <trkpt lat="58.24899" lon="-5.06902">
        <ele>34.42</ele>
        <time>2021-03-21T00:19:45Z</time>
      </trkpt>
      <trkpt lat="58.24921" lon="-5.06818">
        <ele>29.1</ele>
        <time>2021-03-21T00:19:48Z</time>
      </trkpt>
      <trkpt lat="58.2494" lon="-5.0672">
        <ele>22.25</ele>
        <time>2021-03-21T00:19:51Z</time>
      </trkpt>
      <trkpt lat="58.24943" lon="-5.0667">
        <ele>19.52</ele>
        <time>2021-03-21T00:19:54Z</time>
      </trkpt>
      <trkpt lat="58.24917" lon="-5.06564">
        <ele>18.2</ele>
        <time>2021-03-21T00:19:56Z</time>
      </trkpt>
      <trkpt lat="58.24883" lon="-5.06499">
        <ele>21.23</ele>
        <time>2021-03-21T00:19:59Z</time>
      </trkpt>
      <trkpt lat="58.24833" lon="-5.06455">
        <ele>27.43</ele>
        <time>2021-03-21T00:20:02Z</time>
      </trkpt>
      <trkpt lat="58.24792" lon="-5.06411">
        <ele>31.12</ele>
        <time>2021-03-21T00:20:05Z</time>
      </trkpt>
      <trkpt lat="58.24737" lon="-5.06368">
        <ele>40.39</ele>
        <time>2021-03-21T00:20:08Z</time>
      </trkpt>
      <trkpt lat="58.24722" lon="-5.06339">
        <ele>40.01</ele>
        <time>2021-03-21T00:20:11Z</time>
      </trkpt>
      <trkpt lat="58.24706" lon="-5.06278">
        <ele>37.92</ele>
        <time>2021-03-21T00:20:13Z</time>
      </trkpt>
      <trkpt lat="58.24654" lon="-5.06223">
        <ele>47.48</ele>
        <time>2021-03-21T00:20:16Z</time>
      </trkpt>
      <trkpt lat="58.24639" lon="-5.06109">
        <ele>41.79</ele>
        <time>2021-03-21T00:20:19Z</time>
      </trkpt>
      <trkpt lat="58.24615" lon="-5.06001">
        <ele>38.99</ele>
        <time>2021-03-21T00:20:22Z</time>
      </trkpt>
      <trkpt lat="58.24593" lon="-5.05928">
        <ele>40.49</ele>
        <time>2021-03-21T00:20:25Z</time>
      </trkpt>
      <trkpt lat="58.24577" lon="-5.05839">
        <ele>37.96</ele>
        <time>2021-03-21T00:20:28Z</time>
      </trkpt>
      <trkpt lat="58.24548" lon="-5.05766">
        <ele>37.57</ele>
        <time>2021-03-21T00:20:30Z</time>
      </trkpt>
      <trkpt lat="58.24535" lon="-5.05693">
        <ele>38.89</ele>
        <time>2021-03-21T00:20:33Z</time>
      </trkpt>
      <trkpt lat="58.24525" lon="-5.05606">
        <ele>41.97</ele>
        <time>2021-03-21T00:20:36Z</time>
      </trkpt>
      <trkpt lat="58.24529" lon="-5.05512">
        <ele>38.51</ele>
        <time>2021-03-21T00:20:39Z</time>
      </trkpt>
      <trkpt lat="58.24531" lon="-5.05429">
        <ele>36.35</ele>
        <time>2021-03-21T00:20:42Z</time>
      </trkpt>
      <trkpt lat="58.24518" lon="-5.05386">
        <ele>38.73</ele>
        <time>2021-03-21T00:20:45Z</time>
      </trkpt>
      <trkpt lat="58.2449" lon="-5.05318">
        <ele>42.81</ele>
        <time>2021-03-21T00:20:47Z</time>
      </trkpt>
      <trkpt lat="58.24467" lon="-5.05228">
        <ele>44.71</ele>
        <time>2021-03-21T00:20:50Z</time>
      </trkpt>
      <trkpt lat="58.2443" lon="-5.05161">
        <ele>49.21</ele>
        <time>2021-03-21T00:20:53Z</time>
      </trkpt>
      <trkpt lat="58.24373" lon="-5.04967">
        <ele>53.51</ele>
        <time>2021-03-21T00:20:56Z</time>
      </trkpt>
      <trkpt lat="58.24327" lon="-5.04835">
        <ele>60.68</ele>
        <time>2021-03-21T00:20:59Z</time>
      </trkpt>
      <trkpt lat="58.2429" lon="-5.04744">
        <ele>64.21</ele>
        <time>2021-03-21T00:21:02Z</time>
      </trkpt>
      <trkpt lat="58.24279" lon="-5.04678">
        <ele>58.29</ele>
        <time>2021-03-21T00:21:04Z</time>
      </trkpt>
      <trkpt lat="58.24281" lon="-5.04613">
        <ele>61.44</ele>
        <time>2021-03-21T00:21:07Z</time>
      </trkpt>
      <trkpt lat="58.24275" lon="-5.04571">
        <ele>66.55</ele>
        <time>2021-03-21T00:21:10Z</time>
      </trkpt>
      <trkpt lat="58.24255" lon="-5.04495">
        <ele>69.38</ele>
        <time>2021-03-21T00:21:13Z</time>
      </trkpt>
      <trkpt lat="58.24231" lon="-5.04432">
        <ele>66.44</ele>
        <time>2021-03-21T00:21:16Z</time>
      </trkpt>
      <trkpt lat="58.24202" lon="-5.04335">
        <ele>64.41</ele>
        <time>2021-03-21T00:21:18Z</time>
      </trkpt>
      <trkpt lat="58.24193" lon="-5.04255">
        <ele>62.88</ele>
        <time>2021-03-21T00:21:21Z</time>
      </trkpt>
      <trkpt lat="58.24195" lon="-5.04204">
        <ele>63.18</ele>
        <time>2021-03-21T00:21:24Z</time>
      </trkpt>
      <trkpt lat="58.24211" lon="-5.04094">
        <ele>67.57</ele>
        <time>2021-03-21T00:21:27Z</time>
      </trkpt>
      <trkpt lat="58.24206" lon="-5.04034">
        <ele>68.72</ele>
        <time>2021-03-21T00:21:30Z</time>
      </trkpt>
      <trkpt lat="58.24174" lon="-5.03866">
        <ele>77.31</ele>
        <time>2021-03-21T00:21:33Z</time>
      </trkpt>
      <trkpt lat="58.24158" lon="-5.03814">
        <ele>82.16</ele>
        <time>2021-03-21T00:21:35Z</time>
      </trkpt>
      <trkpt lat="58.24112" lon="-5.03726">
        <ele>89.53</ele>
        <time>2021-03-21T00:21:38Z</time>
      </trkpt>
      <trkpt lat="58.24085" lon="-5.03532">
        <ele>98.84</ele>
        <time>2021-03-21T00:21:41Z</time>
      </trkpt>
      <trkpt lat="58.24082" lon="-5.03466">
        <ele>103.77</ele>
        <time>2021-03-21T00:21:44Z</time>
      </trkpt>
      <trkpt lat="58.24074" lon="-5.03413">
        <ele>108.73</ele>
        <time>2021-03-21T00:21:47Z</time>
      </trkpt>
      <trkpt lat="58.24003" lon="-5.03198">
        <ele>116.22</ele>
        <time>2021-03-21T00:21:50Z</time>
      </trkpt>
      <trkpt lat="58.2399" lon="-5.03147">
        <ele>113.54</ele>
        <time>2021-03-21T00:21:52Z</time>
      </trkpt>
      <trkpt lat="58.2399" lon="-5.03102">
        <ele>110.7</ele>
        <time>2021-03-21T00:21:55Z</time>
      </trkpt>
      <trkpt lat="58.24003" lon="-5.02972">
        <ele>105.86</ele>
        <time>2021-03-21T00:21:58Z</time>
      </trkpt>
      <trkpt lat="58.24002" lon="-5.02854">
        <ele>101.66</ele>
        <time>2021-03-21T00:22:01Z</time>
      </trkpt>
      <trkpt lat="58.2399" lon="-5.02751">
        <ele>98.13</ele>
        <time>2021-03-21T00:22:04Z</time>
      </trkpt>
      <trkpt lat="58.23951" lon="-5.02661">
        <ele>97.49</ele>
        <time>2021-03-21T00:22:07Z</time>
      </trkpt>
      <trkpt lat="58.23915" lon="-5.02551">
        <ele>96.14</ele>
        <time>2021-03-21T00:22:09Z</time>
      </trkpt>
      <trkpt lat="58.23883" lon="-5.025">
        <ele>97.85</ele>
        <time>2021-03-21T00:22:12Z</time>
      </trkpt>
      <trkpt lat="58.23842" lon="-5.02403">
        <ele>97.41</ele>
        <time>2021-03-21T00:22:15Z</time>
      </trkpt>
      <trkpt lat="58.23803" lon="-5.02244">
        <ele>98</ele>
        <time>2021-03-21T00:22:18Z</time>
      </trkpt>
      <trkpt lat="58.23777" lon="-5.02186">
        <ele>97.29</ele>
        <time>2021-03-21T00:22:21Z</time>
      </trkpt>
      <trkpt lat="58.23756" lon="-5.02075">
        <ele>94.22</ele>
        <time>2021-03-21T00:22:24Z</time>
      </trkpt>
      <trkpt lat="58.23719" lon="-5.0202">
        <ele>96.11</ele>
        <time>2021-03-21T00:22:26Z</time>
      </trkpt>
      <trkpt lat="58.23701" lon="-5.01941">
        <ele>95.15</ele>
        <time>2021-03-21T00:22:29Z</time>
      </trkpt>
      <trkpt lat="58.23666" lon="-5.01869">
        <ele>94.62</ele>
        <time>2021-03-21T00:22:32Z</time>
      </trkpt>
      <trkpt lat="58.23603" lon="-5.01791">
        <ele>94.07</ele>
        <time>2021-03-21T00:22:35Z</time>
      </trkpt>
      <trkpt lat="58.2357" lon="-5.01739">
        <ele>90.01</ele>
        <time>2021-03-21T00:22:38Z</time>
      </trkpt>
      <trkpt lat="58.23566" lon="-5.01703">
        <ele>87.25</ele>
        <time>2021-03-21T00:22:41Z</time>
      </trkpt>
      <trkpt lat="58.23581" lon="-5.01626">
        <ele>82.83</ele>
        <time>2021-03-21T00:22:43Z</time>
      </trkpt>
      <trkpt lat="58.23588" lon="-5.01528">
        <ele>77.16</ele>
        <time>2021-03-21T00:22:46Z</time>
      </trkpt>
      <trkpt lat="58.23587" lon="-5.01475">
        <ele>76</ele>
        <time>2021-03-21T00:22:49Z</time>
      </trkpt>
      <trkpt lat="58.23584" lon="-5.01434">
        <ele>74.63</ele>
        <time>2021-03-21T00:22:52Z</time>
      </trkpt>
      <trkpt lat="58.23599" lon="-5.01354">
        <ele>72.2</ele>
        <time>2021-03-21T00:22:55Z</time>
      </trkpt>
      <trkpt lat="58.23598" lon="-5.01322">
        <ele>70.61</ele>
        <time>2021-03-21T00:22:58Z</time>
      </trkpt>
      <trkpt lat="58.23483" lon="-5.01469">
        <ele>77.89</ele>
        <time>2021-03-21T00:23:00Z</time>
      </trkpt>
      <trkpt lat="58.23459" lon="-5.01491">
        <ele>80.14</ele>
        <time>2021-03-21T00:23:03Z</time>
      </trkpt>
      <trkpt lat="58.2344" lon="-5.015">
        <ele>82.57</ele>
        <time>2021-03-21T00:23:06Z</time>
      </trkpt>
      <trkpt lat="58.2342" lon="-5.01504">
        <ele>85.08</ele>
        <time>2021-03-21T00:23:09Z</time>
      </trkpt>
      <trkpt lat="58.23398" lon="-5.01498">
        <ele>86.17</ele>
        <time>2021-03-21T00:23:12Z</time>
      </trkpt>
      <trkpt lat="58.23375" lon="-5.01475">
        <ele>88.23</ele>
        <time>2021-03-21T00:23:14Z</time>
      </trkpt>
      <trkpt lat="58.23333" lon="-5.01403">
        <ele>92.15</ele>
        <time>2021-03-21T00:23:17Z</time>
      </trkpt>
      <trkpt lat="58.23303" lon="-5.01345">
        <ele>95.57</ele>
        <time>2021-03-21T00:23:20Z</time>
      </trkpt>
      <trkpt lat="58.23272" lon="-5.01221">
        <ele>99.29</ele>
        <time>2021-03-21T00:23:23Z</time>
      </trkpt>
      <trkpt lat="58.23256" lon="-5.01172">
        <ele>103</ele>
        <time>2021-03-21T00:23:25Z</time>
      </trkpt>
      <trkpt lat="58.23199" lon="-5.01078">
        <ele>108.35</ele>
        <time>2021-03-21T00:23:28Z</time>
      </trkpt>
      <trkpt lat="58.23171" lon="-5.01041">
        <ele>112.4</ele>
        <time>2021-03-21T00:23:31Z</time>
      </trkpt>
      <trkpt lat="58.23083" lon="-5.00993">
        <ele>123.56</ele>
        <time>2021-03-21T00:23:34Z</time>
      </trkpt>
      <trkpt lat="58.23059" lon="-5.00963">
        <ele>126.68</ele>
        <time>2021-03-21T00:23:37Z</time>
      </trkpt>
      <trkpt lat="58.22996" lon="-5.00869">
        <ele>130.49</ele>
        <time>2021-03-21T00:23:39Z</time>
      </trkpt>
      <trkpt lat="58.22976" lon="-5.00851">
        <ele>133.28</ele>
        <time>2021-03-21T00:23:42Z</time>
      </trkpt>
      <trkpt lat="58.22892" lon="-5.00817">
        <ele>138.79</ele>
        <time>2021-03-21T00:23:45Z</time>
      </trkpt>
      <trkpt lat="58.22697" lon="-5.00652">
        <ele>148.77</ele>
        <time>2021-03-21T00:23:48Z</time>
      </trkpt>
      <trkpt lat="58.22675" lon="-5.00631">
        <ele>147.32</ele>
        <time>2021-03-21T00:23:51Z</time>
      </trkpt>
      <trkpt lat="58.22656" lon="-5.00601">
        <ele>146.16</ele>
        <time>2021-03-21T00:23:53Z</time>
      </trkpt>
      <trkpt lat="58.22643" lon="-5.00575">
        <ele>146.33</ele>
        <time>2021-03-21T00:23:56Z</time>
      </trkpt>
      <trkpt lat="58.22623" lon="-5.00526">
        <ele>147.72</ele>
        <time>2021-03-21T00:23:59Z</time>
      </trkpt>
      <trkpt lat="58.22596" lon="-5.00438">
        <ele>150.54</ele>
        <time>2021-03-21T00:24:02Z</time>
      </trkpt>
      <trkpt lat="58.22569" lon="-5.00361">
        <ele>150.48</ele>
        <time>2021-03-21T00:24:05Z</time>
      </trkpt>
      <trkpt lat="58.22528" lon="-5.00281">
        <ele>150.99</ele>
        <time>2021-03-21T00:24:07Z</time>
      </trkpt>
      <trkpt lat="58.22508" lon="-5.00246">
        <ele>152.56</ele>
        <time>2021-03-21T00:24:10Z</time>
      </trkpt>
      <trkpt lat="58.22494" lon="-5.00231">
        <ele>154.07</ele>
        <time>2021-03-21T00:24:13Z</time>
      </trkpt>
      <trkpt lat="58.22482" lon="-5.00225">
        <ele>155.18</ele>
        <time>2021-03-21T00:24:16Z</time>
      </trkpt>
      <trkpt lat="58.22466" lon="-5.00224">
        <ele>156.85</ele>
        <time>2021-03-21T00:24:19Z</time>
      </trkpt>
      <trkpt lat="58.22382" lon="-5.0028">
        <ele>164.34</ele>
        <time>2021-03-21T00:24:21Z</time>
      </trkpt>
      <trkpt lat="58.22368" lon="-5.0028">
        <ele>165.35</ele>
        <time>2021-03-21T00:24:24Z</time>
      </trkpt>
      <trkpt lat="58.22356" lon="-5.00272">
        <ele>166.35</ele>
        <time>2021-03-21T00:24:27Z</time>
      </trkpt>
      <trkpt lat="58.22336" lon="-5.00238">
        <ele>167.42</ele>
        <time>2021-03-21T00:24:30Z</time>
      </trkpt>
      <trkpt lat="58.22275" lon="-5.00027">
        <ele>168.8</ele>
        <time>2021-03-21T00:24:32Z</time>
      </trkpt>
      <trkpt lat="58.22259" lon="-4.99991">
        <ele>169.01</ele>
        <time>2021-03-21T00:24:35Z</time>
      </trkpt>
      <trkpt lat="58.22233" lon="-4.99955">
        <ele>169.66</ele>
        <time>2021-03-21T00:24:38Z</time>
      </trkpt>
      <trkpt lat="58.22188" lon="-4.99924">
        <ele>170.73</ele>
        <time>2021-03-21T00:24:41Z</time>
      </trkpt>
      <trkpt lat="58.22083" lon="-4.99861">
        <ele>172.93</ele>
        <time>2021-03-21T00:24:44Z</time>
      </trkpt>
      <trkpt lat="58.21997" lon="-4.99781">
        <ele>179.21</ele>
        <time>2021-03-21T00:24:46Z</time>
      </trkpt>
      <trkpt lat="58.21958" lon="-4.99756">
        <ele>179.55</ele>
        <time>2021-03-21T00:24:49Z</time>
      </trkpt>
      <trkpt lat="58.21932" lon="-4.99747">
        <ele>179.72</ele>
        <time>2021-03-21T00:24:52Z</time>
      </trkpt>
      <trkpt lat="58.21907" lon="-4.99748">
        <ele>181.83</ele>
        <time>2021-03-21T00:24:55Z</time>
      </trkpt>
      <trkpt lat="58.21864" lon="-4.99791">
        <ele>186.53</ele>
        <time>2021-03-21T00:24:58Z</time>
      </trkpt>
      <trkpt lat="58.21816" lon="-4.99858">
        <ele>186.67</ele>
        <time>2021-03-21T00:25:00Z</time>
      </trkpt>
      <trkpt lat="58.21798" lon="-4.99872">
        <ele>188.25</ele>
        <time>2021-03-21T00:25:03Z</time>
      </trkpt>
      <trkpt lat="58.21776" lon="-4.99883">
        <ele>190.82</ele>
        <time>2021-03-21T00:25:06Z</time>
      </trkpt>
      <trkpt lat="58.21728" lon="-4.99888">
        <ele>196.54</ele>
        <time>2021-03-21T00:25:09Z</time>
      </trkpt>
      <trkpt lat="58.21703" lon="-4.99899">
        <ele>199.59</ele>
        <time>2021-03-21T00:25:12Z</time>
      </trkpt>
      <trkpt lat="58.21684" lon="-4.99932">
        <ele>202.43</ele>
        <time>2021-03-21T00:25:14Z</time>
      </trkpt>
      <trkpt lat="58.21661" lon="-5.00048">
        <ele>202.99</ele>
        <time>2021-03-21T00:25:17Z</time>
      </trkpt>
      <trkpt lat="58.21643" lon="-5.00075">
        <ele>206.03</ele>
        <time>2021-03-21T00:25:20Z</time>
      </trkpt>
      <trkpt lat="58.21625" lon="-5.00076">
        <ele>212.13</ele>
        <time>2021-03-21T00:25:23Z</time>
      </trkpt>
      <trkpt lat="58.21611" lon="-5.00055">
        <ele>217.15</ele>
        <time>2021-03-21T00:25:26Z</time>
      </trkpt>
      <trkpt lat="58.21608" lon="-5.00032">
        <ele>218.59</ele>
        <time>2021-03-21T00:25:28Z</time>
      </trkpt>
      <trkpt lat="58.21609" lon="-5.00001">
        <ele>217.86</ele>
        <time>2021-03-21T00:25:31Z</time>
      </trkpt>
      <trkpt lat="58.21636" lon="-4.99816">
        <ele>222.96</ele>
        <time>2021-03-21T00:25:34Z</time>
      </trkpt>
      <trkpt lat="58.21637" lon="-4.99776">
        <ele>226.35</ele>
        <time>2021-03-21T00:25:37Z</time>
      </trkpt>
      <trkpt lat="58.21635" lon="-4.99753">
        <ele>227.49</ele>
        <time>2021-03-21T00:25:39Z</time>
      </trkpt>
      <trkpt lat="58.2163" lon="-4.99735">
        <ele>229.05</ele>
        <time>2021-03-21T00:25:42Z</time>
      </trkpt>
      <trkpt lat="58.21622" lon="-4.99724">
        <ele>230.14</ele>
        <time>2021-03-21T00:25:45Z</time>
      </trkpt>
      <trkpt lat="58.21611" lon="-4.99715">
        <ele>230.5</ele>
        <time>2021-03-21T00:25:48Z</time>
      </trkpt>
      <trkpt lat="58.21598" lon="-4.99712">
        <ele>230.76</ele>
        <time>2021-03-21T00:25:51Z</time>
      </trkpt>
      <trkpt lat="58.21571" lon="-4.99717">
        <ele>231.6</ele>
        <time>2021-03-21T00:25:53Z</time>
      </trkpt>
      <trkpt lat="58.21418" lon="-4.99765">
        <ele>234.52</ele>
        <time>2021-03-21T00:25:56Z</time>
      </trkpt>
      <trkpt lat="58.21272" lon="-4.99822">
        <ele>240.95</ele>
        <time>2021-03-21T00:25:59Z</time>
      </trkpt>
      <trkpt lat="58.21132" lon="-4.99896">
        <ele>247.43</ele>
        <time>2021-03-21T00:26:02Z</time>
      </trkpt>
      <trkpt lat="58.20971" lon="-4.99999">
        <ele>253.11</ele>
        <time>2021-03-21T00:26:05Z</time>
      </trkpt>
      <trkpt lat="58.20915" lon="-5.00073">
        <ele>255.47</ele>
        <time>2021-03-21T00:26:07Z</time>
      </trkpt>
      <trkpt lat="58.20843" lon="-5.00176">
        <ele>258.29</ele>
        <time>2021-03-21T00:26:10Z</time>
      </trkpt>
      <trkpt lat="58.2082" lon="-5.00198">
        <ele>258.42</ele>
        <time>2021-03-21T00:26:13Z</time>
      </trkpt>
      <trkpt lat="58.20777" lon="-5.00223">
        <ele>257.99</ele>
        <time>2021-03-21T00:26:16Z</time>
      </trkpt>
      <trkpt lat="58.20749" lon="-5.00246">
        <ele>258.19</ele>
        <time>2021-03-21T00:26:19Z</time>
      </trkpt>
      <trkpt lat="58.2073" lon="-5.00274">
        <ele>259.46</ele>
        <time>2021-03-21T00:26:21Z</time>
      </trkpt>
      <trkpt lat="58.20651" lon="-5.00435">
        <ele>262</ele>
        <time>2021-03-21T00:26:24Z</time>
      </trkpt>
      <trkpt lat="58.20633" lon="-5.00456">
        <ele>262.12</ele>
        <time>2021-03-21T00:26:27Z</time>
      </trkpt>
      <trkpt lat="58.20606" lon="-5.00471">
        <ele>261.85</ele>
        <time>2021-03-21T00:26:30Z</time>
      </trkpt>
      <trkpt lat="58.20537" lon="-5.00494">
        <ele>259.56</ele>
        <time>2021-03-21T00:26:33Z</time>
      </trkpt>
      <trkpt lat="58.20467" lon="-5.00533">
        <ele>258.82</ele>
        <time>2021-03-21T00:26:35Z</time>
      </trkpt>
      <trkpt lat="58.20347" lon="-5.00674">
        <ele>256.23</ele>
        <time>2021-03-21T00:26:38Z</time>
      </trkpt>
      <trkpt lat="58.20331" lon="-5.00687">
        <ele>255.26</ele>
        <time>2021-03-21T00:26:41Z</time>
      </trkpt>
      <trkpt lat="58.20309" lon="-5.00695">
        <ele>254.97</ele>
        <time>2021-03-21T00:26:44Z</time>
      </trkpt>
      <trkpt lat="58.20238" lon="-5.00683">
        <ele>252.82</ele>
        <time>2021-03-21T00:26:46Z</time>
      </trkpt>
      <trkpt lat="58.2021" lon="-5.00682">
        <ele>253.35</ele>
        <time>2021-03-21T00:26:49Z</time>
      </trkpt>
      <trkpt lat="58.20145" lon="-5.00717">
        <ele>252.41</ele>
        <time>2021-03-21T00:26:52Z</time>
      </trkpt>
      <trkpt lat="58.20088" lon="-5.00736">
        <ele>251.03</ele>
        <time>2021-03-21T00:26:55Z</time>
      </trkpt>
      <trkpt lat="58.20068" lon="-5.00746">
        <ele>250.29</ele>
        <time>2021-03-21T00:26:58Z</time>
      </trkpt>
      <trkpt lat="58.20054" lon="-5.00758">
        <ele>249.85</ele>
        <time>2021-03-21T00:27:00Z</time>
      </trkpt>
      <trkpt lat="58.20036" lon="-5.00784">
        <ele>250.2</ele>
        <time>2021-03-21T00:27:03Z</time>
      </trkpt>
      <trkpt lat="58.19973" lon="-5.00954">
        <ele>248.64</ele>
        <time>2021-03-21T00:27:06Z</time>
      </trkpt>
      <trkpt lat="58.19957" lon="-5.00984">
        <ele>248.32</ele>
        <time>2021-03-21T00:27:09Z</time>
      </trkpt>
      <trkpt lat="58.19941" lon="-5.00999">
        <ele>248.17</ele>
        <time>2021-03-21T00:27:12Z</time>
      </trkpt>
      <trkpt lat="58.1992" lon="-5.01012">
        <ele>248.49</ele>
        <time>2021-03-21T00:27:14Z</time>
      </trkpt>
      <trkpt lat="58.19894" lon="-5.0102">
        <ele>249.08</ele>
        <time>2021-03-21T00:27:17Z</time>
      </trkpt>
      <trkpt lat="58.1979" lon="-5.0102">
        <ele>248.56</ele>
        <time>2021-03-21T00:27:20Z</time>
      </trkpt>
      <trkpt lat="58.19659" lon="-5.01037">
        <ele>245.62</ele>
        <time>2021-03-21T00:27:23Z</time>
      </trkpt>
      <trkpt lat="58.1959" lon="-5.01061">
        <ele>243.9</ele>
        <time>2021-03-21T00:27:26Z</time>
      </trkpt>
      <trkpt lat="58.19518" lon="-5.01097">
        <ele>241.04</ele>
        <time>2021-03-21T00:27:28Z</time>
      </trkpt>
      <trkpt lat="58.19452" lon="-5.0112">
        <ele>241.12</ele>
        <time>2021-03-21T00:27:31Z</time>
      </trkpt>
      <trkpt lat="58.19425" lon="-5.01138">
        <ele>240.1</ele>
        <time>2021-03-21T00:27:34Z</time>
      </trkpt>
      <trkpt lat="58.19334" lon="-5.01244">
        <ele>239.19</ele>
        <time>2021-03-21T00:27:37Z</time>
      </trkpt>
      <trkpt lat="58.19258" lon="-5.01309">
        <ele>235.91</ele>
        <time>2021-03-21T00:27:40Z</time>
      </trkpt>
      <trkpt lat="58.19112" lon="-5.01365">
        <ele>229.9</ele>
        <time>2021-03-21T00:27:42Z</time>
      </trkpt>
      <trkpt lat="58.18995" lon="-5.01443">
        <ele>222.32</ele>
        <time>2021-03-21T00:27:45Z</time>
      </trkpt>
      <trkpt lat="58.18964" lon="-5.01442">
        <ele>217.54</ele>
        <time>2021-03-21T00:27:48Z</time>
      </trkpt>
      <trkpt lat="58.1894" lon="-5.01425">
        <ele>214.06</ele>
        <time>2021-03-21T00:27:51Z</time>
      </trkpt>
      <trkpt lat="58.18874" lon="-5.01332">
        <ele>208.95</ele>
        <time>2021-03-21T00:27:54Z</time>
      </trkpt>
      <trkpt lat="58.18804" lon="-5.01263">
        <ele>203.27</ele>
        <time>2021-03-21T00:27:56Z</time>
      </trkpt>
      <trkpt lat="58.18735" lon="-5.01171">
        <ele>196.5</ele>
        <time>2021-03-21T00:27:59Z</time>
      </trkpt>
      <trkpt lat="58.18657" lon="-5.01099">
        <ele>189.05</ele>
        <time>2021-03-21T00:28:02Z</time>
      </trkpt>
      <trkpt lat="58.18615" lon="-5.01058">
        <ele>183.71</ele>
        <time>2021-03-21T00:28:05Z</time>
      </trkpt>
      <trkpt lat="58.18578" lon="-5.0101">
        <ele>180.66</ele>
        <time>2021-03-21T00:28:07Z</time>
      </trkpt>
      <trkpt lat="58.18551" lon="-5.00968">
        <ele>177.65</ele>
        <time>2021-03-21T00:28:10Z</time>
      </trkpt>
      <trkpt lat="58.18531" lon="-5.00927">
        <ele>177.07</ele>
        <time>2021-03-21T00:28:13Z</time>
      </trkpt>
      <trkpt lat="58.18482" lon="-5.008">
        <ele>172.37</ele>
        <time>2021-03-21T00:28:16Z</time>
      </trkpt>
      <trkpt lat="58.18472" lon="-5.00757">
        <ele>170.92</ele>
        <time>2021-03-21T00:28:19Z</time>
      </trkpt>
      <trkpt lat="58.18452" lon="-5.00646">
        <ele>166.29</ele>
        <time>2021-03-21T00:28:21Z</time>
      </trkpt>
      <trkpt lat="58.18446" lon="-5.00625">
        <ele>164.32</ele>
        <time>2021-03-21T00:28:24Z</time>
      </trkpt>
      <trkpt lat="58.18437" lon="-5.00599">
        <ele>161.59</ele>
        <time>2021-03-21T00:28:27Z</time>
      </trkpt>
      <trkpt lat="58.18411" lon="-5.00551">
        <ele>156.39</ele>
        <time>2021-03-21T00:28:30Z</time>
      </trkpt>
      <trkpt lat="58.18395" lon="-5.0053">
        <ele>154.79</ele>
        <time>2021-03-21T00:28:33Z</time>
      </trkpt>
      <trkpt lat="58.18379" lon="-5.00522">
        <ele>153.77</ele>
        <time>2021-03-21T00:28:35Z</time>
      </trkpt>
      <trkpt lat="58.18359" lon="-5.0052">
        <ele>152.79</ele>
        <time>2021-03-21T00:28:38Z</time>
      </trkpt>
      <trkpt lat="58.18131" lon="-5.00549">
        <ele>130.81</ele>
        <time>2021-03-21T00:28:41Z</time>
      </trkpt>
      <trkpt lat="58.18103" lon="-5.00548">
        <ele>129.07</ele>
        <time>2021-03-21T00:28:44Z</time>
      </trkpt>
      <trkpt lat="58.18087" lon="-5.00537">
        <ele>129.88</ele>
        <time>2021-03-21T00:28:47Z</time>
      </trkpt>
      <trkpt lat="58.1807" lon="-5.00518">
        <ele>130.48</ele>
        <time>2021-03-21T00:28:49Z</time>
      </trkpt>
      <trkpt lat="58.18054" lon="-5.0049">
        <ele>131.52</ele>
        <time>2021-03-21T00:28:52Z</time>
      </trkpt>
      <trkpt lat="58.18008" lon="-5.00387">
        <ele>129.25</ele>
        <time>2021-03-21T00:28:55Z</time>
      </trkpt>
      <trkpt lat="58.17979" lon="-5.00343">
        <ele>125.22</ele>
        <time>2021-03-21T00:28:58Z</time>
      </trkpt>
      <trkpt lat="58.17957" lon="-5.00325">
        <ele>122.28</ele>
        <time>2021-03-21T00:29:01Z</time>
      </trkpt>
      <trkpt lat="58.17875" lon="-5.00292">
        <ele>113.72</ele>
        <time>2021-03-21T00:29:03Z</time>
      </trkpt>
      <trkpt lat="58.17847" lon="-5.00292">
        <ele>111.98</ele>
        <time>2021-03-21T00:29:06Z</time>
      </trkpt>
      <trkpt lat="58.17827" lon="-5.00299">
        <ele>111.28</ele>
        <time>2021-03-21T00:29:09Z</time>
      </trkpt>
      <trkpt lat="58.1781" lon="-5.0031">
        <ele>110.85</ele>
        <time>2021-03-21T00:29:12Z</time>
      </trkpt>
      <trkpt lat="58.17739" lon="-5.00392">
        <ele>108.19</ele>
        <time>2021-03-21T00:29:14Z</time>
      </trkpt>
      <trkpt lat="58.17712" lon="-5.00408">
        <ele>107.3</ele>
        <time>2021-03-21T00:29:17Z</time>
      </trkpt>
      <trkpt lat="58.17698" lon="-5.00409">
        <ele>106.68</ele>
        <time>2021-03-21T00:29:20Z</time>
      </trkpt>
      <trkpt lat="58.17684" lon="-5.00405">
        <ele>104.9</ele>
        <time>2021-03-21T00:29:23Z</time>
      </trkpt>
      <trkpt lat="58.17665" lon="-5.00395">
        <ele>102.37</ele>
        <time>2021-03-21T00:29:26Z</time>
      </trkpt>
      <trkpt lat="58.17542" lon="-5.00262">
        <ele>91.94</ele>
        <time>2021-03-21T00:29:28Z</time>
      </trkpt>
      <trkpt lat="58.17523" lon="-5.00246">
        <ele>90.78</ele>
        <time>2021-03-21T00:29:31Z</time>
      </trkpt>
      <trkpt lat="58.17503" lon="-5.00235">
        <ele>89.5</ele>
        <time>2021-03-21T00:29:34Z</time>
      </trkpt>
      <trkpt lat="58.1748" lon="-5.00231">
        <ele>86.86</ele>
        <time>2021-03-21T00:29:37Z</time>
      </trkpt>
      <trkpt lat="58.17426" lon="-5.00235">
        <ele>82.27</ele>
        <time>2021-03-21T00:29:40Z</time>
      </trkpt>
      <trkpt lat="58.17388" lon="-5.00243">
        <ele>80.6</ele>
        <time>2021-03-21T00:29:42Z</time>
      </trkpt>
      <trkpt lat="58.17284" lon="-5.00298">
        <ele>71.58</ele>
        <time>2021-03-21T00:29:45Z</time>
      </trkpt>
      <trkpt lat="58.17241" lon="-5.00213">
        <ele>74.67</ele>
        <time>2021-03-21T00:29:49Z</time>
      </trkpt>
      <trkpt lat="58.17186" lon="-5.0015">
        <ele>72.44</ele>
        <time>2021-03-21T00:29:52Z</time>
      </trkpt>
      <trkpt lat="58.17128" lon="-5.00068">
        <ele>71.29</ele>
        <time>2021-03-21T00:29:56Z</time>
      </trkpt>
      <trkpt lat="58.17013" lon="-4.99872">
        <ele>74.26</ele>
        <time>2021-03-21T00:30:00Z</time>
      </trkpt>
      <trkpt lat="58.16997" lon="-4.99839">
        <ele>74.26</ele>
        <time>2021-03-21T00:30:03Z</time>
      </trkpt>
      <trkpt lat="58.16989" lon="-4.99806">
        <ele>74.33</ele>
        <time>2021-03-21T00:30:07Z</time>
      </trkpt>
      <trkpt lat="58.16981" lon="-4.99765">
        <ele>74.06</ele>
        <time>2021-03-21T00:30:10Z</time>
      </trkpt>
      <trkpt lat="58.16954" lon="-4.9952">
        <ele>74.28</ele>
        <time>2021-03-21T00:30:14Z</time>
      </trkpt>
      <trkpt lat="58.16948" lon="-4.9949">
        <ele>74.76</ele>
        <time>2021-03-21T00:30:18Z</time>
      </trkpt>
      <trkpt lat="58.16938" lon="-4.99457">
        <ele>75.25</ele>
        <time>2021-03-21T00:30:21Z</time>
      </trkpt>
      <trkpt lat="58.16927" lon="-4.99432">
        <ele>74.13</ele>
        <time>2021-03-21T00:30:25Z</time>
      </trkpt>
      <trkpt lat="58.16903" lon="-4.9939">
        <ele>73.58</ele>
        <time>2021-03-21T00:30:28Z</time>
      </trkpt>
      <trkpt lat="58.16892" lon="-4.99374">
        <ele>73.42</ele>
        <time>2021-03-21T00:30:32Z</time>
      </trkpt>
      <trkpt lat="58.16854" lon="-4.99301">
        <ele>73.34</ele>
        <time>2021-03-21T00:30:35Z</time>
      </trkpt>
      <trkpt lat="58.16841" lon="-4.99269">
        <ele>72.86</ele>
        <time>2021-03-21T00:30:39Z</time>
      </trkpt>
      <trkpt lat="58.16802" lon="-4.99104">
        <ele>75.38</ele>
        <time>2021-03-21T00:30:43Z</time>
      </trkpt>
      <trkpt lat="58.16791" lon="-4.99072">
        <ele>77.69</ele>
        <time>2021-03-21T00:30:46Z</time>
      </trkpt>
      <trkpt lat="58.16768" lon="-4.99036">
        <ele>79.49</ele>
        <time>2021-03-21T00:30:50Z</time>
      </trkpt>
      <trkpt lat="58.16687" lon="-4.9897">
        <ele>75.79</ele>
        <time>2021-03-21T00:30:53Z</time>
      </trkpt>
      <trkpt lat="58.16657" lon="-4.9894">
        <ele>75.61</ele>
        <time>2021-03-21T00:30:57Z</time>
      </trkpt>
      <trkpt lat="58.16619" lon="-4.98888">
        <ele>75.89</ele>
        <time>2021-03-21T00:31:00Z</time>
      </trkpt>
      <trkpt lat="58.16507" lon="-4.98712">
        <ele>70</ele>
        <time>2021-03-21T00:31:04Z</time>
      </trkpt>
      <trkpt lat="58.16478" lon="-4.9867">
        <ele>70.89</ele>
        <time>2021-03-21T00:31:08Z</time>
      </trkpt>
      <trkpt lat="58.16453" lon="-4.98647">
        <ele>71.7</ele>
        <time>2021-03-21T00:31:11Z</time>
      </trkpt>
      <trkpt lat="58.16425" lon="-4.9864">
        <ele>71.96</ele>
        <time>2021-03-21T00:31:15Z</time>
      </trkpt>
      <trkpt lat="58.16399" lon="-4.98645">
        <ele>72.32</ele>
        <time>2021-03-21T00:31:18Z</time>
      </trkpt>
      <trkpt lat="58.16327" lon="-4.98683">
        <ele>71.37</ele>
        <time>2021-03-21T00:31:22Z</time>
      </trkpt>
      <trkpt lat="58.16299" lon="-4.98689">
        <ele>72.17</ele>
        <time>2021-03-21T00:31:26Z</time>
      </trkpt>
      <trkpt lat="58.16272" lon="-4.98682">
        <ele>71.79</ele>
        <time>2021-03-21T00:31:29Z</time>
      </trkpt>
      <trkpt lat="58.16246" lon="-4.98657">
        <ele>70.6</ele>
        <time>2021-03-21T00:31:33Z</time>
      </trkpt>
      <trkpt lat="58.162" lon="-4.98578">
        <ele>77.16</ele>
        <time>2021-03-21T00:31:36Z</time>
      </trkpt>
      <trkpt lat="58.16133" lon="-4.98447">
        <ele>85.22</ele>
        <time>2021-03-21T00:31:40Z</time>
      </trkpt>
      <trkpt lat="58.16114" lon="-4.98417">
        <ele>88.24</ele>
        <time>2021-03-21T00:31:43Z</time>
      </trkpt>
      <trkpt lat="58.16056" lon="-4.98371">
        <ele>79.28</ele>
        <time>2021-03-21T00:31:47Z</time>
      </trkpt>
      <trkpt lat="58.1603" lon="-4.98346">
        <ele>77.32</ele>
        <time>2021-03-21T00:31:51Z</time>
      </trkpt>
      <trkpt lat="58.16013" lon="-4.98318">
        <ele>77.98</ele>
        <time>2021-03-21T00:31:54Z</time>
      </trkpt>
      <trkpt lat="58.15921" lon="-4.98096">
        <ele>88.96</ele>
        <time>2021-03-21T00:31:58Z</time>
      </trkpt>
      <trkpt lat="58.15826" lon="-4.97888">
        <ele>95.07</ele>
        <time>2021-03-21T00:32:01Z</time>
      </trkpt>
      <trkpt lat="58.15806" lon="-4.97853">
        <ele>96.58</ele>
        <time>2021-03-21T00:32:05Z</time>
      </trkpt>
      <trkpt lat="58.15786" lon="-4.97831">
        <ele>98.25</ele>
        <time>2021-03-21T00:32:09Z</time>
      </trkpt>
      <trkpt lat="58.15761" lon="-4.97814">
        <ele>99.68</ele>
        <time>2021-03-21T00:32:12Z</time>
      </trkpt>
      <trkpt lat="58.15616" lon="-4.97735">
        <ele>92.71</ele>
        <time>2021-03-21T00:32:16Z</time>
      </trkpt>
      <trkpt lat="58.15592" lon="-4.97712">
        <ele>90.67</ele>
        <time>2021-03-21T00:32:19Z</time>
      </trkpt>
      <trkpt lat="58.15532" lon="-4.97634">
        <ele>85.7</ele>
        <time>2021-03-21T00:32:23Z</time>
      </trkpt>
      <trkpt lat="58.15506" lon="-4.97607">
        <ele>84.59</ele>
        <time>2021-03-21T00:32:26Z</time>
      </trkpt>
      <trkpt lat="58.15398" lon="-4.97547">
        <ele>85.33</ele>
        <time>2021-03-21T00:32:30Z</time>
      </trkpt>
      <trkpt lat="58.15293" lon="-4.975">
        <ele>81.06</ele>
        <time>2021-03-21T00:32:34Z</time>
      </trkpt>
      <trkpt lat="58.15142" lon="-4.9746">
        <ele>75.96</ele>
        <time>2021-03-21T00:32:37Z</time>
      </trkpt>
      <trkpt lat="58.15043" lon="-4.9743">
        <ele>73.56</ele>
        <time>2021-03-21T00:32:41Z</time>
      </trkpt>
      <trkpt lat="58.14955" lon="-4.97376">
        <ele>74</ele>
        <time>2021-03-21T00:32:44Z</time>
      </trkpt>
      <trkpt lat="58.1493" lon="-4.97369">
        <ele>74.37</ele>
        <time>2021-03-21T00:32:48Z</time>
      </trkpt>
      <trkpt lat="58.14913" lon="-4.97368">
        <ele>74.8</ele>
        <time>2021-03-21T00:32:52Z</time>
      </trkpt>
      <trkpt lat="58.14876" lon="-4.97379">
        <ele>75</ele>
        <time>2021-03-21T00:32:55Z</time>
      </trkpt>
      <trkpt lat="58.1473" lon="-4.97452">
        <ele>71.8</ele>
        <time>2021-03-21T00:32:59Z</time>
      </trkpt>
      <trkpt lat="58.14589" lon="-4.9758">
        <ele>73.93</ele>
        <time>2021-03-21T00:33:02Z</time>
      </trkpt>
      <trkpt lat="58.14568" lon="-4.97589">
        <ele>75.07</ele>
        <time>2021-03-21T00:33:06Z</time>
      </trkpt>
      <trkpt lat="58.14548" lon="-4.97593">
        <ele>75.91</ele>
        <time>2021-03-21T00:33:09Z</time>
      </trkpt>
      <trkpt lat="58.14485" lon="-4.97589">
        <ele>74.26</ele>
        <time>2021-03-21T00:33:13Z</time>
      </trkpt>
      <trkpt lat="58.14449" lon="-4.97595">
        <ele>74.41</ele>
        <time>2021-03-21T00:33:17Z</time>
      </trkpt>
      <trkpt lat="58.14424" lon="-4.97606">
        <ele>74.94</ele>
        <time>2021-03-21T00:33:20Z</time>
      </trkpt>
      <trkpt lat="58.14354" lon="-4.97645">
        <ele>72.75</ele>
        <time>2021-03-21T00:33:24Z</time>
      </trkpt>
      <trkpt lat="58.14226" lon="-4.97673">
        <ele>71.63</ele>
        <time>2021-03-21T00:33:27Z</time>
      </trkpt>
      <trkpt lat="58.14184" lon="-4.97673">
        <ele>72.76</ele>
        <time>2021-03-21T00:33:31Z</time>
      </trkpt>
      <trkpt lat="58.14123" lon="-4.97643">
        <ele>73.28</ele>
        <time>2021-03-21T00:33:35Z</time>
      </trkpt>
      <trkpt lat="58.141" lon="-4.97626">
        <ele>73.06</ele>
        <time>2021-03-21T00:33:38Z</time>
      </trkpt>
      <trkpt lat="58.14074" lon="-4.97611">
        <ele>72.65</ele>
        <time>2021-03-21T00:33:42Z</time>
      </trkpt>
      <trkpt lat="58.1405" lon="-4.97605">
        <ele>72.24</ele>
        <time>2021-03-21T00:33:45Z</time>
      </trkpt>
      <trkpt lat="58.14021" lon="-4.97606">
        <ele>72.2</ele>
        <time>2021-03-21T00:33:49Z</time>
      </trkpt>
      <trkpt lat="58.13728" lon="-4.97689">
        <ele>74.42</ele>
        <time>2021-03-21T00:33:52Z</time>
      </trkpt>
      <trkpt lat="58.13623" lon="-4.97712">
        <ele>75.75</ele>
        <time>2021-03-21T00:33:56Z</time>
      </trkpt>
      <trkpt lat="58.1349" lon="-4.97697">
        <ele>78.18</ele>
        <time>2021-03-21T00:34:00Z</time>
      </trkpt>
      <trkpt lat="58.13372" lon="-4.97717">
        <ele>77.57</ele>
        <time>2021-03-21T00:34:03Z</time>
      </trkpt>
      <trkpt lat="58.13269" lon="-4.97779">
        <ele>78.98</ele>
        <time>2021-03-21T00:34:07Z</time>
      </trkpt>
      <trkpt lat="58.13255" lon="-4.97779">
        <ele>78.95</ele>
        <time>2021-03-21T00:34:10Z</time>
      </trkpt>
      <trkpt lat="58.13048" lon="-4.97723">
        <ele>85.23</ele>
        <time>2021-03-21T00:34:14Z</time>
      </trkpt>
      <trkpt lat="58.12856" lon="-4.97651">
        <ele>94.28</ele>
        <time>2021-03-21T00:34:18Z</time>
      </trkpt>
      <trkpt lat="58.12835" lon="-4.97648">
        <ele>94.69</ele>
        <time>2021-03-21T00:34:21Z</time>
      </trkpt>
      <trkpt lat="58.12759" lon="-4.97646">
        <ele>95.7</ele>
        <time>2021-03-21T00:34:25Z</time>
      </trkpt>
      <trkpt lat="58.12723" lon="-4.97642">
        <ele>94.82</ele>
        <time>2021-03-21T00:34:28Z</time>
      </trkpt>
      <trkpt lat="58.12651" lon="-4.97601">
        <ele>96.05</ele>
        <time>2021-03-21T00:34:32Z</time>
      </trkpt>
      <trkpt lat="58.12545" lon="-4.97578">
        <ele>102.14</ele>
        <time>2021-03-21T00:34:35Z</time>
      </trkpt>
      <trkpt lat="58.12526" lon="-4.97567">
        <ele>104.2</ele>
        <time>2021-03-21T00:34:39Z</time>
      </trkpt>
      <trkpt lat="58.12504" lon="-4.97545">
        <ele>105.02</ele>
        <time>2021-03-21T00:34:43Z</time>
      </trkpt>
      <trkpt lat="58.12504" lon="-4.97545">
        <ele>105.02</ele>
        <time>2021-03-21T00:34:43Z</time>
      </trkpt>
      <trkpt lat="58.12476" lon="-4.97498">
        <ele>109.07</ele>
        <time>2021-03-21T00:34:47Z</time>
      </trkpt>
      <trkpt lat="58.124" lon="-4.97344">
        <ele>114.32</ele>
        <time>2021-03-21T00:34:52Z</time>
      </trkpt>
      <trkpt lat="58.12366" lon="-4.97295">
        <ele>113.54</ele>
        <time>2021-03-21T00:34:57Z</time>
      </trkpt>
      <trkpt lat="58.12284" lon="-4.97201">
        <ele>115.13</ele>
        <time>2021-03-21T00:35:02Z</time>
      </trkpt>
      <trkpt lat="58.12219" lon="-4.97137">
        <ele>117.13</ele>
        <time>2021-03-21T00:35:07Z</time>
      </trkpt>
      <trkpt lat="58.12118" lon="-4.97063">
        <ele>124.46</ele>
        <time>2021-03-21T00:35:12Z</time>
      </trkpt>
      <trkpt lat="58.12011" lon="-4.96976">
        <ele>130.12</ele>
        <time>2021-03-21T00:35:17Z</time>
      </trkpt>
      <trkpt lat="58.11977" lon="-4.96956">
        <ele>131.15</ele>
        <time>2021-03-21T00:35:21Z</time>
      </trkpt>
      <trkpt lat="58.11826" lon="-4.969">
        <ele>138.87</ele>
        <time>2021-03-21T00:35:26Z</time>
      </trkpt>
      <trkpt lat="58.11781" lon="-4.96878">
        <ele>140.38</ele>
        <time>2021-03-21T00:35:31Z</time>
      </trkpt>
      <trkpt lat="58.11732" lon="-4.96851">
        <ele>139.87</ele>
        <time>2021-03-21T00:35:36Z</time>
      </trkpt>
      <trkpt lat="58.11699" lon="-4.96838">
        <ele>138.85</ele>
        <time>2021-03-21T00:35:41Z</time>
      </trkpt>
      <trkpt lat="58.11596" lon="-4.96814">
        <ele>137.56</ele>
        <time>2021-03-21T00:35:46Z</time>
      </trkpt>
      <trkpt lat="58.11576" lon="-4.96801">
        <ele>137.88</ele>
        <time>2021-03-21T00:35:51Z</time>
      </trkpt>
      <trkpt lat="58.11556" lon="-4.96781">
        <ele>137.91</ele>
        <time>2021-03-21T00:35:55Z</time>
      </trkpt>
      <trkpt lat="58.1154" lon="-4.96758">
        <ele>138.13</ele>
        <time>2021-03-21T00:36:00Z</time>
      </trkpt>
      <trkpt lat="58.11526" lon="-4.96734">
        <ele>138.54</ele>
        <time>2021-03-21T00:36:05Z</time>
      </trkpt>
      <trkpt lat="58.11483" lon="-4.96666">
        <ele>140.64</ele>
        <time>2021-03-21T00:36:10Z</time>
      </trkpt>
      <trkpt lat="58.11459" lon="-4.96631">
        <ele>142.27</ele>
        <time>2021-03-21T00:36:15Z</time>
      </trkpt>
      <trkpt lat="58.11428" lon="-4.96596">
        <ele>142.96</ele>
        <time>2021-03-21T00:36:20Z</time>
      </trkpt>
      <trkpt lat="58.11391" lon="-4.96576">
        <ele>143.5</ele>
        <time>2021-03-21T00:36:25Z</time>
      </trkpt>
      <trkpt lat="58.1129" lon="-4.96559">
        <ele>144.76</ele>
        <time>2021-03-21T00:36:29Z</time>
      </trkpt>
      <trkpt lat="58.11249" lon="-4.96559">
        <ele>146.71</ele>
        <time>2021-03-21T00:36:34Z</time>
      </trkpt>
      <trkpt lat="58.11047" lon="-4.96584">
        <ele>150.59</ele>
        <time>2021-03-21T00:36:39Z</time>
      </trkpt>
      <trkpt lat="58.10803" lon="-4.96687">
        <ele>156.81</ele>
        <time>2021-03-21T00:36:44Z</time>
      </trkpt>
      <trkpt lat="58.10774" lon="-4.96694">
        <ele>156.31</ele>
        <time>2021-03-21T00:36:49Z</time>
      </trkpt>
      <trkpt lat="58.10687" lon="-4.96698">
        <ele>158.16</ele>
        <time>2021-03-21T00:36:54Z</time>
      </trkpt>
      <trkpt lat="58.10658" lon="-4.96709">
        <ele>159.38</ele>
        <time>2021-03-21T00:36:59Z</time>
      </trkpt>
      <trkpt lat="58.10527" lon="-4.96782">
        <ele>161.74</ele>
        <time>2021-03-21T00:37:03Z</time>
      </trkpt>
      <trkpt lat="58.10474" lon="-4.96818">
        <ele>162.63</ele>
        <time>2021-03-21T00:37:08Z</time>
      </trkpt>
      <trkpt lat="58.10407" lon="-4.96843">
        <ele>163.57</ele>
        <time>2021-03-21T00:37:13Z</time>
      </trkpt>
      <trkpt lat="58.10281" lon="-4.96881">
        <ele>163.94</ele>
        <time>2021-03-21T00:37:18Z</time>
      </trkpt>
      <trkpt lat="58.10043" lon="-4.97028">
        <ele>164.4</ele>
        <time>2021-03-21T00:37:23Z</time>
      </trkpt>
      <trkpt lat="58.09993" lon="-4.9705">
        <ele>166.61</ele>
        <time>2021-03-21T00:37:28Z</time>
      </trkpt>
      <trkpt lat="58.09737" lon="-4.97118">
        <ele>164.85</ele>
        <time>2021-03-21T00:37:33Z</time>
      </trkpt>
      <trkpt lat="58.09636" lon="-4.97122">
        <ele>168.1</ele>
        <time>2021-03-21T00:37:37Z</time>
      </trkpt>
      <trkpt lat="58.09593" lon="-4.97133">
        <ele>166.45</ele>
        <time>2021-03-21T00:37:42Z</time>
      </trkpt>
      <trkpt lat="58.09505" lon="-4.97206">
        <ele>164.47</ele>
        <time>2021-03-21T00:37:47Z</time>
      </trkpt>
      <trkpt lat="58.09392" lon="-4.97284">
        <ele>163.57</ele>
        <time>2021-03-21T00:37:52Z</time>
      </trkpt>
      <trkpt lat="58.0937" lon="-4.97288">
        <ele>163.93</ele>
        <time>2021-03-21T00:37:57Z</time>
      </trkpt>
      <trkpt lat="58.09336" lon="-4.97288">
        <ele>164.26</ele>
        <time>2021-03-21T00:38:02Z</time>
      </trkpt>
      <trkpt lat="58.09158" lon="-4.97267">
        <ele>167.68</ele>
        <time>2021-03-21T00:38:07Z</time>
      </trkpt>
      <trkpt lat="58.08963" lon="-4.97307">
        <ele>166.93</ele>
        <time>2021-03-21T00:38:11Z</time>
      </trkpt>
      <trkpt lat="58.08487" lon="-4.97174">
        <ele>157.72</ele>
        <time>2021-03-21T00:38:16Z</time>
      </trkpt>
      <trkpt lat="58.08294" lon="-4.97095">
        <ele>154.25</ele>
        <time>2021-03-21T00:38:21Z</time>
      </trkpt>
      <trkpt lat="58.08271" lon="-4.97094">
        <ele>154</ele>
        <time>2021-03-21T00:38:26Z</time>
      </trkpt>
      <trkpt lat="58.0824" lon="-4.97099">
        <ele>154</ele>
        <time>2021-03-21T00:38:31Z</time>
      </trkpt>
      <trkpt lat="58.08205" lon="-4.9711">
        <ele>153.39</ele>
        <time>2021-03-21T00:38:36Z</time>
      </trkpt>
      <trkpt lat="58.0813" lon="-4.97166">
        <ele>152.33</ele>
        <time>2021-03-21T00:38:41Z</time>
      </trkpt>
      <trkpt lat="58.07989" lon="-4.97312">
        <ele>153</ele>
        <time>2021-03-21T00:38:45Z</time>
      </trkpt>
      <trkpt lat="58.07942" lon="-4.97342">
        <ele>152.3</ele>
        <time>2021-03-21T00:38:50Z</time>
      </trkpt>
      <trkpt lat="58.07893" lon="-4.97365">
        <ele>152.15</ele>
        <time>2021-03-21T00:38:55Z</time>
      </trkpt>
      <trkpt lat="58.07689" lon="-4.97521">
        <ele>148.24</ele>
        <time>2021-03-21T00:39:00Z</time>
      </trkpt>
      <trkpt lat="58.07575" lon="-4.97628">
        <ele>149.41</ele>
        <time>2021-03-21T00:39:05Z</time>
      </trkpt>
      <trkpt lat="58.07546" lon="-4.97659">
        <ele>149.44</ele>
        <time>2021-03-21T00:39:10Z</time>
      </trkpt>
      <trkpt lat="58.07485" lon="-4.97758">
        <ele>148.26</ele>
        <time>2021-03-21T00:39:15Z</time>
      </trkpt>
      <trkpt lat="58.0744" lon="-4.9781">
        <ele>147.88</ele>
        <time>2021-03-21T00:39:19Z</time>
      </trkpt>
      <trkpt lat="58.07388" lon="-4.97861">
        <ele>147</ele>
        <time>2021-03-21T00:39:24Z</time>
      </trkpt>
      <trkpt lat="58.0732" lon="-4.97913">
        <ele>146.75</ele>
        <time>2021-03-21T00:39:29Z</time>
      </trkpt>
      <trkpt lat="58.07275" lon="-4.97936">
        <ele>144.74</ele>
        <time>2021-03-21T00:39:34Z</time>
      </trkpt>
      <trkpt lat="58.0725" lon="-4.97936">
        <ele>145.9</ele>
        <time>2021-03-21T00:39:39Z</time>
      </trkpt>
      <trkpt lat="58.07223" lon="-4.97928">
        <ele>146.23</ele>
        <time>2021-03-21T00:39:44Z</time>
      </trkpt>
      <trkpt lat="58.07192" lon="-4.97904">
        <ele>146.24</ele>
        <time>2021-03-21T00:39:49Z</time>
      </trkpt>
      <trkpt lat="58.0716" lon="-4.97872">
        <ele>146.62</ele>
        <time>2021-03-21T00:39:53Z</time>
      </trkpt>
      <trkpt lat="58.07128" lon="-4.97816">
        <ele>147.64</ele>
        <time>2021-03-21T00:39:58Z</time>
      </trkpt>
      <trkpt lat="58.07032" lon="-4.97627">
        <ele>147.36</ele>
        <time>2021-03-21T00:40:03Z</time>
      </trkpt>
      <trkpt lat="58.06981" lon="-4.97537">
        <ele>147.3</ele>
        <time>2021-03-21T00:40:08Z</time>
      </trkpt>
      <trkpt lat="58.06942" lon="-4.97477">
        <ele>148.44</ele>
        <time>2021-03-21T00:40:13Z</time>
      </trkpt>
      <trkpt lat="58.06896" lon="-4.97425">
        <ele>148.62</ele>
        <time>2021-03-21T00:40:18Z</time>
      </trkpt>
      <trkpt lat="58.06665" lon="-4.97197">
        <ele>146.82</ele>
        <time>2021-03-21T00:40:23Z</time>
      </trkpt>
      <trkpt lat="58.06638" lon="-4.97326">
        <ele>142.24</ele>
        <time>2021-03-21T00:40:27Z</time>
      </trkpt>
      <trkpt lat="58.06632" lon="-4.97368">
        <ele>140.94</ele>
        <time>2021-03-21T00:40:32Z</time>
      </trkpt>
      <trkpt lat="58.06628" lon="-4.97437">
        <ele>139.59</ele>
        <time>2021-03-21T00:40:36Z</time>
      </trkpt>
      <trkpt lat="58.06613" lon="-4.97768">
        <ele>131.41</ele>
        <time>2021-03-21T00:40:41Z</time>
      </trkpt>
      <trkpt lat="58.06618" lon="-4.97941">
        <ele>128</ele>
        <time>2021-03-21T00:40:45Z</time>
      </trkpt>
      <trkpt lat="58.06616" lon="-4.97986">
        <ele>129</ele>
        <time>2021-03-21T00:40:50Z</time>
      </trkpt>
      <trkpt lat="58.06612" lon="-4.98035">
        <ele>130</ele>
        <time>2021-03-21T00:40:54Z</time>
      </trkpt>
      <trkpt lat="58.06601" lon="-4.98084">
        <ele>131</ele>
        <time>2021-03-21T00:40:59Z</time>
      </trkpt>
      <trkpt lat="58.06498" lon="-4.98271">
        <ele>133</ele>
        <time>2021-03-21T00:41:04Z</time>
      </trkpt>
      <trkpt lat="58.06414" lon="-4.98439">
        <ele>135.61</ele>
        <time>2021-03-21T00:41:08Z</time>
      </trkpt>
      <trkpt lat="58.06387" lon="-4.98524">
        <ele>136.68</ele>
        <time>2021-03-21T00:41:13Z</time>
      </trkpt>
      <trkpt lat="58.06375" lon="-4.98608">
        <ele>134.98</ele>
        <time>2021-03-21T00:41:17Z</time>
      </trkpt>
      <trkpt lat="58.06383" lon="-4.99035">
        <ele>131.6</ele>
        <time>2021-03-21T00:41:22Z</time>
      </trkpt>
      <trkpt lat="58.0639" lon="-4.99195">
        <ele>130.1</ele>
        <time>2021-03-21T00:41:26Z</time>
      </trkpt>
      <trkpt lat="58.06376" lon="-4.99324">
        <ele>129.65</ele>
        <time>2021-03-21T00:41:31Z</time>
      </trkpt>
      <trkpt lat="58.06332" lon="-4.99495">
        <ele>131.83</ele>
        <time>2021-03-21T00:41:36Z</time>
      </trkpt>
      <trkpt lat="58.06298" lon="-4.99818">
        <ele>134.16</ele>
        <time>2021-03-21T00:41:40Z</time>
      </trkpt>
      <trkpt lat="58.06267" lon="-5.00131">
        <ele>128.85</ele>
        <time>2021-03-21T00:41:45Z</time>
      </trkpt>
      <trkpt lat="58.06256" lon="-5.002">
        <ele>127.65</ele>
        <time>2021-03-21T00:41:49Z</time>
      </trkpt>
      <trkpt lat="58.06188" lon="-5.00414">
        <ele>126.44</ele>
        <time>2021-03-21T00:41:54Z</time>
      </trkpt>
      <trkpt lat="58.06179" lon="-5.00485">
        <ele>127.14</ele>
        <time>2021-03-21T00:41:58Z</time>
      </trkpt>
      <trkpt lat="58.06176" lon="-5.00546">
        <ele>127.04</ele>
        <time>2021-03-21T00:42:03Z</time>
      </trkpt>
      <trkpt lat="58.0618" lon="-5.00616">
        <ele>127.69</ele>
        <time>2021-03-21T00:42:08Z</time>
      </trkpt>
      <trkpt lat="58.06192" lon="-5.00701">
        <ele>128.33</ele>
        <time>2021-03-21T00:42:12Z</time>
      </trkpt>
      <trkpt lat="58.06219" lon="-5.00811">
        <ele>129.41</ele>
        <time>2021-03-21T00:42:17Z</time>
      </trkpt>
      <trkpt lat="58.06251" lon="-5.01065">
        <ele>129.23</ele>
        <time>2021-03-21T00:42:21Z</time>
      </trkpt>
      <trkpt lat="58.06286" lon="-5.0132">
        <ele>130.75</ele>
        <time>2021-03-21T00:42:26Z</time>
      </trkpt>
      <trkpt lat="58.06289" lon="-5.01361">
        <ele>131.74</ele>
        <time>2021-03-21T00:42:30Z</time>
      </trkpt>
      <trkpt lat="58.06288" lon="-5.01401">
        <ele>133</ele>
        <time>2021-03-21T00:42:35Z</time>
      </trkpt>
      <trkpt lat="58.06276" lon="-5.01543">
        <ele>136.34</ele>
        <time>2021-03-21T00:42:40Z</time>
      </trkpt>
      <trkpt lat="58.06263" lon="-5.01615">
        <ele>136.45</ele>
        <time>2021-03-21T00:42:44Z</time>
      </trkpt>
      <trkpt lat="58.06201" lon="-5.019">
        <ele>138.51</ele>
        <time>2021-03-21T00:42:49Z</time>
      </trkpt>
      <trkpt lat="58.06191" lon="-5.01982">
        <ele>140.14</ele>
        <time>2021-03-21T00:42:53Z</time>
      </trkpt>
      <trkpt lat="58.06172" lon="-5.0224">
        <ele>140.89</ele>
        <time>2021-03-21T00:42:58Z</time>
      </trkpt>
      <trkpt lat="58.06157" lon="-5.02306">
        <ele>142.44</ele>
        <time>2021-03-21T00:43:02Z</time>
      </trkpt>
      <trkpt lat="58.06075" lon="-5.02595">
        <ele>140.11</ele>
        <time>2021-03-21T00:43:07Z</time>
      </trkpt>
      <trkpt lat="58.06016" lon="-5.02778">
        <ele>137.82</ele>
        <time>2021-03-21T00:43:11Z</time>
      </trkpt>
      <trkpt lat="58.06" lon="-5.0281">
        <ele>136.84</ele>
        <time>2021-03-21T00:43:16Z</time>
      </trkpt>
      <trkpt lat="58.05982" lon="-5.02837">
        <ele>137.09</ele>
        <time>2021-03-21T00:43:21Z</time>
      </trkpt>
      <trkpt lat="58.05944" lon="-5.02876">
        <ele>136.48</ele>
        <time>2021-03-21T00:43:25Z</time>
      </trkpt>
      <trkpt lat="58.059" lon="-5.0291">
        <ele>136.07</ele>
        <time>2021-03-21T00:43:30Z</time>
      </trkpt>
      <trkpt lat="58.05851" lon="-5.02921">
        <ele>135.56</ele>
        <time>2021-03-21T00:43:34Z</time>
      </trkpt>
      <trkpt lat="58.05624" lon="-5.02949">
        <ele>137.92</ele>
        <time>2021-03-21T00:43:39Z</time>
      </trkpt>
      <trkpt lat="58.05566" lon="-5.02962">
        <ele>138.24</ele>
        <time>2021-03-21T00:43:43Z</time>
      </trkpt>
      <trkpt lat="58.05376" lon="-5.03049">
        <ele>146.4</ele>
        <time>2021-03-21T00:43:48Z</time>
      </trkpt>
      <trkpt lat="58.05277" lon="-5.03071">
        <ele>145.5</ele>
        <time>2021-03-21T00:43:53Z</time>
      </trkpt>
      <trkpt lat="58.05262" lon="-5.03085">
        <ele>144.89</ele>
        <time>2021-03-21T00:43:57Z</time>
      </trkpt>
      <trkpt lat="58.05248" lon="-5.03103">
        <ele>143.88</ele>
        <time>2021-03-21T00:44:02Z</time>
      </trkpt>
      <trkpt lat="58.0522" lon="-5.03162">
        <ele>141.09</ele>
        <time>2021-03-21T00:44:06Z</time>
      </trkpt>
      <trkpt lat="58.05191" lon="-5.0322">
        <ele>140.88</ele>
        <time>2021-03-21T00:44:11Z</time>
      </trkpt>
      <trkpt lat="58.05179" lon="-5.03239">
        <ele>142.4</ele>
        <time>2021-03-21T00:44:15Z</time>
      </trkpt>
      <trkpt lat="58.05155" lon="-5.03263">
        <ele>144.76</ele>
        <time>2021-03-21T00:44:20Z</time>
      </trkpt>
      <trkpt lat="58.05147" lon="-5.03269">
        <ele>145.17</ele>
        <time>2021-03-21T00:44:25Z</time>
      </trkpt>
      <trkpt lat="58.05129" lon="-5.03276">
        <ele>145.53</ele>
        <time>2021-03-21T00:44:29Z</time>
      </trkpt>
      <trkpt lat="58.05111" lon="-5.03276">
        <ele>146.24</ele>
        <time>2021-03-21T00:44:34Z</time>
      </trkpt>
      <trkpt lat="58.05092" lon="-5.03268">
        <ele>149.18</ele>
        <time>2021-03-21T00:44:38Z</time>
      </trkpt>
      <trkpt lat="58.05066" lon="-5.03252">
        <ele>153.74</ele>
        <time>2021-03-21T00:44:43Z</time>
      </trkpt>
      <trkpt lat="58.05047" lon="-5.03229">
        <ele>159</ele>
        <time>2021-03-21T00:44:47Z</time>
      </trkpt>
      <trkpt lat="58.04978" lon="-5.03057">
        <ele>162.52</ele>
        <time>2021-03-21T00:44:52Z</time>
      </trkpt>
      <trkpt lat="58.04949" lon="-5.03022">
        <ele>161.26</ele>
        <time>2021-03-21T00:44:57Z</time>
      </trkpt>
      <trkpt lat="58.0492" lon="-5.03006">
        <ele>158.87</ele>
        <time>2021-03-21T00:45:01Z</time>
      </trkpt>
      <trkpt lat="58.04887" lon="-5.03009">
        <ele>157.1</ele>
        <time>2021-03-21T00:45:06Z</time>
      </trkpt>
      <trkpt lat="58.04854" lon="-5.03035">
        <ele>157.85</ele>
        <time>2021-03-21T00:45:10Z</time>
      </trkpt>
      <trkpt lat="58.04831" lon="-5.0307">
        <ele>161.09</ele>
        <time>2021-03-21T00:45:15Z</time>
      </trkpt>
      <trkpt lat="58.04822" lon="-5.03092">
        <ele>162.48</ele>
        <time>2021-03-21T00:45:19Z</time>
      </trkpt>
      <trkpt lat="58.04783" lon="-5.03218">
        <ele>159.91</ele>
        <time>2021-03-21T00:45:24Z</time>
      </trkpt>
      <trkpt lat="58.0473" lon="-5.03398">
        <ele>159.57</ele>
        <time>2021-03-21T00:45:29Z</time>
      </trkpt>
      <trkpt lat="58.04714" lon="-5.03438">
        <ele>160.97</ele>
        <time>2021-03-21T00:45:33Z</time>
      </trkpt>
      <trkpt lat="58.04694" lon="-5.03475">
        <ele>160.68</ele>
        <time>2021-03-21T00:45:38Z</time>
      </trkpt>
      <trkpt lat="58.046" lon="-5.03625">
        <ele>163.39</ele>
        <time>2021-03-21T00:45:42Z</time>
      </trkpt>
      <trkpt lat="58.04585" lon="-5.03658">
        <ele>164.25</ele>
        <time>2021-03-21T00:45:47Z</time>
      </trkpt>
      <trkpt lat="58.04584" lon="-5.03664">
        <ele>164.04</ele>
        <time>2021-03-21T00:45:51Z</time>
      </trkpt>
      <trkpt lat="58.04599" lon="-5.03652">
        <ele>161.97</ele>
        <time>2021-03-21T00:45:56Z</time>
      </trkpt>
      <trkpt lat="58.04617" lon="-5.03622">
        <ele>160.71</ele>
        <time>2021-03-21T00:46:01Z</time>
      </trkpt>
      <trkpt lat="58.04617" lon="-5.03622">
        <ele>160.71</ele>
        <time>2021-03-21T00:46:01Z</time>
      </trkpt>
      <trkpt lat="58.04599" lon="-5.03652">
        <ele>161.97</ele>
        <time>2021-03-21T00:46:05Z</time>
      </trkpt>
      <trkpt lat="58.04584" lon="-5.03664">
        <ele>164.04</ele>
        <time>2021-03-21T00:46:10Z</time>
      </trkpt>
      <trkpt lat="58.04578" lon="-5.03695">
        <ele>163.7</ele>
        <time>2021-03-21T00:46:14Z</time>
      </trkpt>
      <trkpt lat="58.04585" lon="-5.03766">
        <ele>164.4</ele>
        <time>2021-03-21T00:46:19Z</time>
      </trkpt>
      <trkpt lat="58.04616" lon="-5.0386">
        <ele>167.24</ele>
        <time>2021-03-21T00:46:24Z</time>
      </trkpt>
      <trkpt lat="58.04639" lon="-5.03938">
        <ele>166.76</ele>
        <time>2021-03-21T00:46:29Z</time>
      </trkpt>
      <trkpt lat="58.04643" lon="-5.03994">
        <ele>165.64</ele>
        <time>2021-03-21T00:46:33Z</time>
      </trkpt>
      <trkpt lat="58.0464" lon="-5.04059">
        <ele>166.6</ele>
        <time>2021-03-21T00:46:38Z</time>
      </trkpt>
      <trkpt lat="58.04617" lon="-5.04238">
        <ele>168.63</ele>
        <time>2021-03-21T00:46:43Z</time>
      </trkpt>
      <trkpt lat="58.04588" lon="-5.04409">
        <ele>175.63</ele>
        <time>2021-03-21T00:46:47Z</time>
      </trkpt>
      <trkpt lat="58.04559" lon="-5.04679">
        <ele>187.4</ele>
        <time>2021-03-21T00:46:52Z</time>
      </trkpt>
      <trkpt lat="58.0454" lon="-5.04801">
        <ele>192.1</ele>
        <time>2021-03-21T00:46:57Z</time>
      </trkpt>
      <trkpt lat="58.04526" lon="-5.04858">
        <ele>195.77</ele>
        <time>2021-03-21T00:47:02Z</time>
      </trkpt>
      <trkpt lat="58.04509" lon="-5.04919">
        <ele>200.56</ele>
        <time>2021-03-21T00:47:06Z</time>
      </trkpt>
      <trkpt lat="58.04394" lon="-5.05255">
        <ele>216.43</ele>
        <time>2021-03-21T00:47:11Z</time>
      </trkpt>
      <trkpt lat="58.04244" lon="-5.05651">
        <ele>226.49</ele>
        <time>2021-03-21T00:47:16Z</time>
      </trkpt>
      <trkpt lat="58.04217" lon="-5.05715">
        <ele>228.44</ele>
        <time>2021-03-21T00:47:20Z</time>
      </trkpt>
      <trkpt lat="58.0401" lon="-5.06114">
        <ele>244.1</ele>
        <time>2021-03-21T00:47:25Z</time>
      </trkpt>
      <trkpt lat="58.03991" lon="-5.06162">
        <ele>246.77</ele>
        <time>2021-03-21T00:47:30Z</time>
      </trkpt>
      <trkpt lat="58.03925" lon="-5.0635">
        <ele>246.8</ele>
        <time>2021-03-21T00:47:35Z</time>
      </trkpt>
      <trkpt lat="58.03909" lon="-5.06384">
        <ele>246.28</ele>
        <time>2021-03-21T00:47:39Z</time>
      </trkpt>
      <trkpt lat="58.03839" lon="-5.06507">
        <ele>244.87</ele>
        <time>2021-03-21T00:47:44Z</time>
      </trkpt>
      <trkpt lat="58.03817" lon="-5.06554">
        <ele>243.32</ele>
        <time>2021-03-21T00:47:49Z</time>
      </trkpt>
      <trkpt lat="58.03681" lon="-5.06882">
        <ele>234.37</ele>
        <time>2021-03-21T00:47:53Z</time>
      </trkpt>
      <trkpt lat="58.03654" lon="-5.0694">
        <ele>233.29</ele>
        <time>2021-03-21T00:47:58Z</time>
      </trkpt>
      <trkpt lat="58.0363" lon="-5.06983">
        <ele>232.2</ele>
        <time>2021-03-21T00:48:03Z</time>
      </trkpt>
      <trkpt lat="58.03606" lon="-5.07018">
        <ele>230.21</ele>
        <time>2021-03-21T00:48:08Z</time>
      </trkpt>
      <trkpt lat="58.03567" lon="-5.07065">
        <ele>229.56</ele>
        <time>2021-03-21T00:48:12Z</time>
      </trkpt>
      <trkpt lat="58.0347" lon="-5.07136">
        <ele>228.25</ele>
        <time>2021-03-21T00:48:17Z</time>
      </trkpt>
      <trkpt lat="58.03187" lon="-5.07337">
        <ele>228.19</ele>
        <time>2021-03-21T00:48:22Z</time>
      </trkpt>
      <trkpt lat="58.03157" lon="-5.07353">
        <ele>229.28</ele>
        <time>2021-03-21T00:48:26Z</time>
      </trkpt>
      <trkpt lat="58.03128" lon="-5.07364">
        <ele>231.56</ele>
        <time>2021-03-21T00:48:31Z</time>
      </trkpt>
      <trkpt lat="58.03101" lon="-5.07368">
        <ele>232.27</ele>
        <time>2021-03-21T00:48:36Z</time>
      </trkpt>
      <trkpt lat="58.03058" lon="-5.07362">
        <ele>232</ele>
        <time>2021-03-21T00:48:41Z</time>
      </trkpt>
      <trkpt lat="58.02884" lon="-5.07314">
        <ele>234.66</ele>
        <time>2021-03-21T00:48:45Z</time>
      </trkpt>
      <trkpt lat="58.02852" lon="-5.07309">
        <ele>234.89</ele>
        <time>2021-03-21T00:48:50Z</time>
      </trkpt>
      <trkpt lat="58.0282" lon="-5.07312">
        <ele>236.87</ele>
        <time>2021-03-21T00:48:55Z</time>
      </trkpt>
      <trkpt lat="58.02775" lon="-5.07329">
        <ele>240.18</ele>
        <time>2021-03-21T00:48:59Z</time>
      </trkpt>
      <trkpt lat="58.02696" lon="-5.07367">
        <ele>241.73</ele>
        <time>2021-03-21T00:49:04Z</time>
      </trkpt>
      <trkpt lat="58.02296" lon="-5.07581">
        <ele>246.63</ele>
        <time>2021-03-21T00:49:09Z</time>
      </trkpt>
      <trkpt lat="58.02052" lon="-5.07704">
        <ele>237.25</ele>
        <time>2021-03-21T00:49:14Z</time>
      </trkpt>
      <trkpt lat="58.01845" lon="-5.07815">
        <ele>233.28</ele>
        <time>2021-03-21T00:49:18Z</time>
      </trkpt>
      <trkpt lat="58.01755" lon="-5.07859">
        <ele>235.95</ele>
        <time>2021-03-21T00:49:23Z</time>
      </trkpt>
      <trkpt lat="58.01644" lon="-5.07893">
        <ele>233.45</ele>
        <time>2021-03-21T00:49:28Z</time>
      </trkpt>
      <trkpt lat="58.01604" lon="-5.07909">
        <ele>232.26</ele>
        <time>2021-03-21T00:49:32Z</time>
      </trkpt>
      <trkpt lat="58.01557" lon="-5.07948">
        <ele>231.37</ele>
        <time>2021-03-21T00:49:37Z</time>
      </trkpt>
      <trkpt lat="58.01397" lon="-5.08182">
        <ele>226.24</ele>
        <time>2021-03-21T00:49:42Z</time>
      </trkpt>
      <trkpt lat="58.013" lon="-5.08296">
        <ele>219.47</ele>
        <time>2021-03-21T00:49:47Z</time>
      </trkpt>
      <trkpt lat="58.01223" lon="-5.08379">
        <ele>212.08</ele>
        <time>2021-03-21T00:49:51Z</time>
      </trkpt>
      <trkpt lat="58.01202" lon="-5.08406">
        <ele>211.14</ele>
        <time>2021-03-21T00:49:56Z</time>
      </trkpt>
      <trkpt lat="58.0115" lon="-5.0846">
        <ele>208.93</ele>
        <time>2021-03-21T00:50:01Z</time>
      </trkpt>
      <trkpt lat="58.00982" lon="-5.08604">
        <ele>198.88</ele>
        <time>2021-03-21T00:50:05Z</time>
      </trkpt>
      <trkpt lat="58.00945" lon="-5.08638">
        <ele>195.08</ele>
        <time>2021-03-21T00:50:10Z</time>
      </trkpt>
      <trkpt lat="58.00913" lon="-5.08676">
        <ele>191.82</ele>
        <time>2021-03-21T00:50:15Z</time>
      </trkpt>
      <trkpt lat="58.00768" lon="-5.08872">
        <ele>185.76</ele>
        <time>2021-03-21T00:50:20Z</time>
      </trkpt>
      <trkpt lat="58.00722" lon="-5.08925">
        <ele>179.4</ele>
        <time>2021-03-21T00:50:24Z</time>
      </trkpt>
      <trkpt lat="58.00593" lon="-5.09041">
        <ele>169.87</ele>
        <time>2021-03-21T00:50:29Z</time>
      </trkpt>
      <trkpt lat="58.00563" lon="-5.09076">
        <ele>167.92</ele>
        <time>2021-03-21T00:50:34Z</time>
      </trkpt>
      <trkpt lat="58.00538" lon="-5.09126">
        <ele>166.03</ele>
        <time>2021-03-21T00:50:38Z</time>
      </trkpt>
      <trkpt lat="58.00498" lon="-5.09242">
        <ele>159.34</ele>
        <time>2021-03-21T00:50:43Z</time>
      </trkpt>
      <trkpt lat="58.00334" lon="-5.09555">
        <ele>146.23</ele>
        <time>2021-03-21T00:50:48Z</time>
      </trkpt>
      <trkpt lat="58.00284" lon="-5.09666">
        <ele>142.62</ele>
        <time>2021-03-21T00:50:53Z</time>
      </trkpt>
      <trkpt lat="58.00241" lon="-5.09784">
        <ele>139.42</ele>
        <time>2021-03-21T00:50:57Z</time>
      </trkpt>
      <trkpt lat="58.00227" lon="-5.09841">
        <ele>138.59</ele>
        <time>2021-03-21T00:51:02Z</time>
      </trkpt>
      <trkpt lat="58.00205" lon="-5.10012">
        <ele>138.36</ele>
        <time>2021-03-21T00:51:07Z</time>
      </trkpt>
      <trkpt lat="58.00195" lon="-5.10054">
        <ele>136</ele>
        <time>2021-03-21T00:51:11Z</time>
      </trkpt>
      <trkpt lat="58.0018" lon="-5.10089">
        <ele>134.79</ele>
        <time>2021-03-21T00:51:16Z</time>
      </trkpt>
      <trkpt lat="58.00156" lon="-5.10126">
        <ele>132.84</ele>
        <time>2021-03-21T00:51:21Z</time>
      </trkpt>
      <trkpt lat="57.9995" lon="-5.10359">
        <ele>121.94</ele>
        <time>2021-03-21T00:51:26Z</time>
      </trkpt>
      <trkpt lat="57.99934" lon="-5.10387">
        <ele>122</ele>
        <time>2021-03-21T00:51:30Z</time>
      </trkpt>
      <trkpt lat="57.9983" lon="-5.10547">
        <ele>121.13</ele>
        <time>2021-03-21T00:51:35Z</time>
      </trkpt>
      <trkpt lat="57.99744" lon="-5.1066">
        <ele>120.21</ele>
        <time>2021-03-21T00:51:40Z</time>
      </trkpt>
      <trkpt lat="57.99654" lon="-5.10767">
        <ele>120.7</ele>
        <time>2021-03-21T00:51:44Z</time>
      </trkpt>
      <trkpt lat="57.99555" lon="-5.10859">
        <ele>117.28</ele>
        <time>2021-03-21T00:51:49Z</time>
      </trkpt>
      <trkpt lat="57.99454" lon="-5.10941">
        <ele>120.84</ele>
        <time>2021-03-21T00:51:54Z</time>
      </trkpt>
      <trkpt lat="57.99262" lon="-5.11061">
        <ele>122.82</ele>
        <time>2021-03-21T00:51:59Z</time>
      </trkpt>
      <trkpt lat="57.99174" lon="-5.11127">
        <ele>121.96</ele>
        <time>2021-03-21T00:52:03Z</time>
      </trkpt>
      <trkpt lat="57.99085" lon="-5.11205">
        <ele>124.65</ele>
        <time>2021-03-21T00:52:08Z</time>
      </trkpt>
      <trkpt lat="57.9903" lon="-5.11268">
        <ele>126.07</ele>
        <time>2021-03-21T00:52:13Z</time>
      </trkpt>
      <trkpt lat="57.98969" lon="-5.11321">
        <ele>125.01</ele>
        <time>2021-03-21T00:52:17Z</time>
      </trkpt>
      <trkpt lat="57.98817" lon="-5.1141">
        <ele>124.89</ele>
        <time>2021-03-21T00:52:22Z</time>
      </trkpt>
      <trkpt lat="57.98701" lon="-5.11501">
        <ele>129.18</ele>
        <time>2021-03-21T00:52:27Z</time>
      </trkpt>
      <trkpt lat="57.98225" lon="-5.11889">
        <ele>119</ele>
        <time>2021-03-21T00:52:32Z</time>
      </trkpt>
      <trkpt lat="57.98195" lon="-5.11905">
        <ele>118.25</ele>
        <time>2021-03-21T00:52:36Z</time>
      </trkpt>
      <trkpt lat="57.98163" lon="-5.11916">
        <ele>117.89</ele>
        <time>2021-03-21T00:52:41Z</time>
      </trkpt>
      <trkpt lat="57.98121" lon="-5.11914">
        <ele>115.66</ele>
        <time>2021-03-21T00:52:46Z</time>
      </trkpt>
      <trkpt lat="57.98021" lon="-5.11894">
        <ele>109.15</ele>
        <time>2021-03-21T00:52:50Z</time>
      </trkpt>
      <trkpt lat="57.97956" lon="-5.11895">
        <ele>105.38</ele>
        <time>2021-03-21T00:52:55Z</time>
      </trkpt>
      <trkpt lat="57.97911" lon="-5.11908">
        <ele>101.69</ele>
        <time>2021-03-21T00:53:00Z</time>
      </trkpt>
      <trkpt lat="57.97845" lon="-5.11943">
        <ele>99.61</ele>
        <time>2021-03-21T00:53:05Z</time>
      </trkpt>
      <trkpt lat="57.97782" lon="-5.11989">
        <ele>98.17</ele>
        <time>2021-03-21T00:53:09Z</time>
      </trkpt>
      <trkpt lat="57.9766" lon="-5.12097">
        <ele>104.86</ele>
        <time>2021-03-21T00:53:14Z</time>
      </trkpt>
      <trkpt lat="57.9752" lon="-5.12229">
        <ele>103.72</ele>
        <time>2021-03-21T00:53:19Z</time>
      </trkpt>
      <trkpt lat="57.97459" lon="-5.1228">
        <ele>101.48</ele>
        <time>2021-03-21T00:53:23Z</time>
      </trkpt>
      <trkpt lat="57.97253" lon="-5.12419">
        <ele>95.17</ele>
        <time>2021-03-21T00:53:28Z</time>
      </trkpt>
      <trkpt lat="57.97157" lon="-5.12495">
        <ele>89.3</ele>
        <time>2021-03-21T00:53:33Z</time>
      </trkpt>
      <trkpt lat="57.97077" lon="-5.12584">
        <ele>85.6</ele>
        <time>2021-03-21T00:53:38Z</time>
      </trkpt>
      <trkpt lat="57.96808" lon="-5.12915">
        <ele>68.44</ele>
        <time>2021-03-21T00:53:42Z</time>
      </trkpt>
      <trkpt lat="57.96701" lon="-5.13079">
        <ele>56.17</ele>
        <time>2021-03-21T00:53:47Z</time>
      </trkpt>
      <trkpt lat="57.96565" lon="-5.13254">
        <ele>38.5</ele>
        <time>2021-03-21T00:53:52Z</time>
      </trkpt>
      <trkpt lat="57.96465" lon="-5.13376">
        <ele>26.69</ele>
        <time>2021-03-21T00:53:56Z</time>
      </trkpt>
      <trkpt lat="57.96392" lon="-5.13468">
        <ele>26.01</ele>
        <time>2021-03-21T00:54:01Z</time>
      </trkpt>
      <trkpt lat="57.96333" lon="-5.13537">
        <ele>21.33</ele>
        <time>2021-03-21T00:54:06Z</time>
      </trkpt>
      <trkpt lat="57.96298" lon="-5.13569">
        <ele>17.69</ele>
        <time>2021-03-21T00:54:11Z</time>
      </trkpt>
      <trkpt lat="57.96277" lon="-5.13584">
        <ele>15.89</ele>
        <time>2021-03-21T00:54:15Z</time>
      </trkpt>
      <trkpt lat="57.96242" lon="-5.13597">
        <ele>12.72</ele>
        <time>2021-03-21T00:54:20Z</time>
      </trkpt>
      <trkpt lat="57.96208" lon="-5.13595">
        <ele>12</ele>
        <time>2021-03-21T00:54:25Z</time>
      </trkpt>
      <trkpt lat="57.96164" lon="-5.13583">
        <ele>13.01</ele>
        <time>2021-03-21T00:54:29Z</time>
      </trkpt>
      <trkpt lat="57.95956" lon="-5.1346">
        <ele>23.95</ele>
        <time>2021-03-21T00:54:34Z</time>
      </trkpt>
      <trkpt lat="57.95915" lon="-5.13439">
        <ele>28.76</ele>
        <time>2021-03-21T00:54:39Z</time>
      </trkpt>
      <trkpt lat="57.95868" lon="-5.13424">
        <ele>32.76</ele>
        <time>2021-03-21T00:54:44Z</time>
      </trkpt>
      <trkpt lat="57.95812" lon="-5.13424">
        <ele>40.23</ele>
        <time>2021-03-21T00:54:48Z</time>
      </trkpt>
      <trkpt lat="57.9576" lon="-5.13436">
        <ele>49.24</ele>
        <time>2021-03-21T00:54:53Z</time>
      </trkpt>
      <trkpt lat="57.9573" lon="-5.13456">
        <ele>52.14</ele>
        <time>2021-03-21T00:54:58Z</time>
      </trkpt>
      <trkpt lat="57.95695" lon="-5.13498">
        <ele>53</ele>
        <time>2021-03-21T00:55:02Z</time>
      </trkpt>
      <trkpt lat="57.95454" lon="-5.13948">
        <ele>52.44</ele>
        <time>2021-03-21T00:55:07Z</time>
      </trkpt>
      <trkpt lat="57.95191" lon="-5.14391">
        <ele>62.85</ele>
        <time>2021-03-21T00:55:12Z</time>
      </trkpt>
      <trkpt lat="57.95065" lon="-5.1473">
        <ele>45.58</ele>
        <time>2021-03-21T00:55:17Z</time>
      </trkpt>
      <trkpt lat="57.94968" lon="-5.14977">
        <ele>49.58</ele>
        <time>2021-03-21T00:55:21Z</time>
      </trkpt>
      <trkpt lat="57.94942" lon="-5.15055">
        <ele>50.28</ele>
        <time>2021-03-21T00:55:26Z</time>
      </trkpt>
      <trkpt lat="57.94867" lon="-5.15348">
        <ele>37.76</ele>
        <time>2021-03-21T00:55:31Z</time>
      </trkpt>
      <trkpt lat="57.94745" lon="-5.15782">
        <ele>26.9</ele>
        <time>2021-03-21T00:55:35Z</time>
      </trkpt>
      <trkpt lat="57.94567" lon="-5.16316">
        <ele>24.23</ele>
        <time>2021-03-21T00:55:40Z</time>
      </trkpt>
      <trkpt lat="57.94485" lon="-5.16557">
        <ele>21.44</ele>
        <time>2021-03-21T00:55:45Z</time>
      </trkpt>
      <trkpt lat="57.94453" lon="-5.16627">
        <ele>19.48</ele>
        <time>2021-03-21T00:55:50Z</time>
      </trkpt>
      <trkpt lat="57.9442" lon="-5.16678">
        <ele>18.08</ele>
        <time>2021-03-21T00:55:54Z</time>
      </trkpt>
      <trkpt lat="57.94373" lon="-5.16742">
        <ele>16.87</ele>
        <time>2021-03-21T00:55:59Z</time>
      </trkpt>
      <trkpt lat="57.94269" lon="-5.16873">
        <ele>15.69</ele>
        <time>2021-03-21T00:56:04Z</time>
      </trkpt>
      <trkpt lat="57.94194" lon="-5.17018">
        <ele>15.45</ele>
        <time>2021-03-21T00:56:08Z</time>
      </trkpt>
      <trkpt lat="57.94171" lon="-5.17072">
        <ele>16.67</ele>
        <time>2021-03-21T00:56:13Z</time>
      </trkpt>
      <trkpt lat="57.94159" lon="-5.17122">
        <ele>17.91</ele>
        <time>2021-03-21T00:56:18Z</time>
      </trkpt>
      <trkpt lat="57.94134" lon="-5.17209">
        <ele>23.18</ele>
        <time>2021-03-21T00:56:23Z</time>
      </trkpt>
      <trkpt lat="57.94114" lon="-5.17291">
        <ele>26.24</ele>
        <time>2021-03-21T00:56:27Z</time>
      </trkpt>
      <trkpt lat="57.94098" lon="-5.17377">
        <ele>27.78</ele>
        <time>2021-03-21T00:56:32Z</time>
      </trkpt>
      <trkpt lat="57.94075" lon="-5.17537">
        <ele>32.79</ele>
        <time>2021-03-21T00:56:37Z</time>
      </trkpt>
      <trkpt lat="57.9404" lon="-5.17716">
        <ele>38.47</ele>
        <time>2021-03-21T00:56:41Z</time>
      </trkpt>
      <trkpt lat="57.94023" lon="-5.17774">
        <ele>39.88</ele>
        <time>2021-03-21T00:56:46Z</time>
      </trkpt>
      <trkpt lat="57.9401" lon="-5.17838">
        <ele>41.62</ele>
        <time>2021-03-21T00:56:51Z</time>
      </trkpt>
      <trkpt lat="57.93994" lon="-5.17947">
        <ele>45.01</ele>
        <time>2021-03-21T00:56:56Z</time>
      </trkpt>
      <trkpt lat="57.93981" lon="-5.18008">
        <ele>46.35</ele>
        <time>2021-03-21T00:57:00Z</time>
      </trkpt>
      <trkpt lat="57.93945" lon="-5.18116">
        <ele>46.79</ele>
        <time>2021-03-21T00:57:05Z</time>
      </trkpt>
      <trkpt lat="57.93855" lon="-5.18365">
        <ele>31.16</ele>
        <time>2021-03-21T00:57:10Z</time>
      </trkpt>
      <trkpt lat="57.93819" lon="-5.18408">
        <ele>22.05</ele>
        <time>2021-03-21T00:57:14Z</time>
      </trkpt>
      <trkpt lat="57.93784" lon="-5.18422">
        <ele>18.66</ele>
        <time>2021-03-21T00:57:19Z</time>
      </trkpt>
      <trkpt lat="57.93746" lon="-5.18441">
        <ele>18.05</ele>
        <time>2021-03-21T00:57:24Z</time>
      </trkpt>
      <trkpt lat="57.93719" lon="-5.18466">
        <ele>19.83</ele>
        <time>2021-03-21T00:57:29Z</time>
      </trkpt>
      <trkpt lat="57.93699" lon="-5.185">
        <ele>22.38</ele>
        <time>2021-03-21T00:57:33Z</time>
      </trkpt>
      <trkpt lat="57.93671" lon="-5.18577">
        <ele>25.17</ele>
        <time>2021-03-21T00:57:38Z</time>
      </trkpt>
      <trkpt lat="57.93641" lon="-5.18679">
        <ele>21.83</ele>
        <time>2021-03-21T00:57:43Z</time>
      </trkpt>
      <trkpt lat="57.93627" lon="-5.1875">
        <ele>19.78</ele>
        <time>2021-03-21T00:57:47Z</time>
      </trkpt>
      <trkpt lat="57.93615" lon="-5.18827">
        <ele>16.26</ele>
        <time>2021-03-21T00:57:52Z</time>
      </trkpt>
      <trkpt lat="57.93606" lon="-5.18868">
        <ele>20.62</ele>
        <time>2021-03-21T00:57:57Z</time>
      </trkpt>
      <trkpt lat="57.93584" lon="-5.18926">
        <ele>21.69</ele>
        <time>2021-03-21T00:58:02Z</time>
      </trkpt>
      <trkpt lat="57.9351" lon="-5.19211">
        <ele>6.32</ele>
        <time>2021-03-21T00:58:06Z</time>
      </trkpt>
      <trkpt lat="57.93496" lon="-5.19273">
        <ele>6.28</ele>
        <time>2021-03-21T00:58:11Z</time>
      </trkpt>
      <trkpt lat="57.93424" lon="-5.19546">
        <ele>5</ele>
        <time>2021-03-21T00:58:16Z</time>
      </trkpt>
      <trkpt lat="57.93414" lon="-5.19577">
        <ele>5</ele>
        <time>2021-03-21T00:58:20Z</time>
      </trkpt>
      <trkpt lat="57.93403" lon="-5.19603">
        <ele>5</ele>
        <time>2021-03-21T00:58:25Z</time>
      </trkpt>
      <trkpt lat="57.93393" lon="-5.19618">
        <ele>5</ele>
        <time>2021-03-21T00:58:30Z</time>
      </trkpt>
      <trkpt lat="57.93384" lon="-5.19629">
        <ele>4.89</ele>
        <time>2021-03-21T00:58:35Z</time>
      </trkpt>
      <trkpt lat="57.93369" lon="-5.19637">
        <ele>4.34</ele>
        <time>2021-03-21T00:58:39Z</time>
      </trkpt>
      <trkpt lat="57.93346" lon="-5.19641">
        <ele>4</ele>
        <time>2021-03-21T00:58:44Z</time>
      </trkpt>
      <trkpt lat="57.93326" lon="-5.19639">
        <ele>4.01</ele>
        <time>2021-03-21T00:58:49Z</time>
      </trkpt>
      <trkpt lat="57.93271" lon="-5.19622">
        <ele>4.61</ele>
        <time>2021-03-21T00:58:53Z</time>
      </trkpt>
      <trkpt lat="57.93252" lon="-5.19621">
        <ele>4.65</ele>
        <time>2021-03-21T00:58:58Z</time>
      </trkpt>
      <trkpt lat="57.93203" lon="-5.19623">
        <ele>5.58</ele>
        <time>2021-03-21T00:59:03Z</time>
      </trkpt>
      <trkpt lat="57.93125" lon="-5.19637">
        <ele>6.6</ele>
        <time>2021-03-21T00:59:08Z</time>
      </trkpt>
      <trkpt lat="57.93089" lon="-5.19652">
        <ele>6.18</ele>
        <time>2021-03-21T00:59:12Z</time>
      </trkpt>
      <trkpt lat="57.93033" lon="-5.19682">
        <ele>6.93</ele>
        <time>2021-03-21T00:59:17Z</time>
      </trkpt>
      <trkpt lat="57.93" lon="-5.19707">
        <ele>7.66</ele>
        <time>2021-03-21T00:59:22Z</time>
      </trkpt>
      <trkpt lat="57.92939" lon="-5.1976">
        <ele>11.21</ele>
        <time>2021-03-21T00:59:26Z</time>
      </trkpt>
      <trkpt lat="57.92914" lon="-5.19771">
        <ele>14.91</ele>
        <time>2021-03-21T00:59:31Z</time>
      </trkpt>
      <trkpt lat="57.92902" lon="-5.19772">
        <ele>16.45</ele>
        <time>2021-03-21T00:59:36Z</time>
      </trkpt>
      <trkpt lat="57.92889" lon="-5.19767">
        <ele>18.37</ele>
        <time>2021-03-21T00:59:41Z</time>
      </trkpt>
      <trkpt lat="57.92872" lon="-5.19758">
        <ele>20.56</ele>
        <time>2021-03-21T00:59:45Z</time>
      </trkpt>
      <trkpt lat="57.92856" lon="-5.1974">
        <ele>22.93</ele>
        <time>2021-03-21T00:59:50Z</time>
      </trkpt>
      <trkpt lat="57.92844" lon="-5.19721">
        <ele>24.91</ele>
        <time>2021-03-21T00:59:55Z</time>
      </trkpt>
      <trkpt lat="57.92823" lon="-5.19677">
        <ele>28.7</ele>
        <time>2021-03-21T00:59:59Z</time>
      </trkpt>
      <trkpt lat="57.92755" lon="-5.19505">
        <ele>35.97</ele>
        <time>2021-03-21T01:00:04Z</time>
      </trkpt>
      <trkpt lat="57.92742" lon="-5.19481">
        <ele>37.53</ele>
        <time>2021-03-21T01:00:09Z</time>
      </trkpt>
      <trkpt lat="57.92727" lon="-5.19462">
        <ele>39.92</ele>
        <time>2021-03-21T01:00:14Z</time>
      </trkpt>
      <trkpt lat="57.92712" lon="-5.1945">
        <ele>42.17</ele>
        <time>2021-03-21T01:00:18Z</time>
      </trkpt>
      <trkpt lat="57.92515" lon="-5.19378">
        <ele>57.47</ele>
        <time>2021-03-21T01:00:23Z</time>
      </trkpt>
      <trkpt lat="57.92496" lon="-5.19368">
        <ele>58.04</ele>
        <time>2021-03-21T01:00:28Z</time>
      </trkpt>
      <trkpt lat="57.92472" lon="-5.19352">
        <ele>57.67</ele>
        <time>2021-03-21T01:00:32Z</time>
      </trkpt>
      <trkpt lat="57.92444" lon="-5.1932">
        <ele>56.98</ele>
        <time>2021-03-21T01:00:37Z</time>
      </trkpt>
      <trkpt lat="57.92291" lon="-5.19117">
        <ele>50.03</ele>
        <time>2021-03-21T01:00:42Z</time>
      </trkpt>
      <trkpt lat="57.92277" lon="-5.19102">
        <ele>48.95</ele>
        <time>2021-03-21T01:00:47Z</time>
      </trkpt>
      <trkpt lat="57.92249" lon="-5.19082">
        <ele>46.79</ele>
        <time>2021-03-21T01:00:51Z</time>
      </trkpt>
      <trkpt lat="57.92227" lon="-5.19073">
        <ele>44.94</ele>
        <time>2021-03-21T01:00:56Z</time>
      </trkpt>
      <trkpt lat="57.92175" lon="-5.19068">
        <ele>40.28</ele>
        <time>2021-03-21T01:01:01Z</time>
      </trkpt>
      <trkpt lat="57.92102" lon="-5.19069">
        <ele>35.15</ele>
        <time>2021-03-21T01:01:05Z</time>
      </trkpt>
      <trkpt lat="57.92085" lon="-5.19072">
        <ele>34.66</ele>
        <time>2021-03-21T01:01:10Z</time>
      </trkpt>
      <trkpt lat="57.92068" lon="-5.19082">
        <ele>34.95</ele>
        <time>2021-03-21T01:01:15Z</time>
      </trkpt>
      <trkpt lat="57.92048" lon="-5.19097">
        <ele>34.71</ele>
        <time>2021-03-21T01:01:20Z</time>
      </trkpt>
      <trkpt lat="57.92018" lon="-5.19131">
        <ele>33.74</ele>
        <time>2021-03-21T01:01:24Z</time>
      </trkpt>
      <trkpt lat="57.91935" lon="-5.19248">
        <ele>28.67</ele>
        <time>2021-03-21T01:01:29Z</time>
      </trkpt>
      <trkpt lat="57.91907" lon="-5.19275">
        <ele>30</ele>
        <time>2021-03-21T01:01:34Z</time>
      </trkpt>
      <trkpt lat="57.91886" lon="-5.19287">
        <ele>30.22</ele>
        <time>2021-03-21T01:01:38Z</time>
      </trkpt>
      <trkpt lat="57.9187" lon="-5.1929">
        <ele>31.67</ele>
        <time>2021-03-21T01:01:43Z</time>
      </trkpt>
      <trkpt lat="57.91846" lon="-5.19286">
        <ele>34.58</ele>
        <time>2021-03-21T01:01:48Z</time>
      </trkpt>
      <trkpt lat="57.91836" lon="-5.1928">
        <ele>35.76</ele>
        <time>2021-03-21T01:01:53Z</time>
      </trkpt>
      <trkpt lat="57.91821" lon="-5.19266">
        <ele>38.05</ele>
        <time>2021-03-21T01:01:57Z</time>
      </trkpt>
      <trkpt lat="57.91802" lon="-5.19237">
        <ele>39.35</ele>
        <time>2021-03-21T01:02:02Z</time>
      </trkpt>
      <trkpt lat="57.91791" lon="-5.19215">
        <ele>40.08</ele>
        <time>2021-03-21T01:02:07Z</time>
      </trkpt>
      <trkpt lat="57.91771" lon="-5.19162">
        <ele>42.44</ele>
        <time>2021-03-21T01:02:11Z</time>
      </trkpt>
      <trkpt lat="57.91637" lon="-5.18707">
        <ele>71.14</ele>
        <time>2021-03-21T01:02:16Z</time>
      </trkpt>
      <trkpt lat="57.91595" lon="-5.18589">
        <ele>77.87</ele>
        <time>2021-03-21T01:02:21Z</time>
      </trkpt>
      <trkpt lat="57.91564" lon="-5.18506">
        <ele>82.18</ele>
        <time>2021-03-21T01:02:26Z</time>
      </trkpt>
      <trkpt lat="57.91552" lon="-5.18483">
        <ele>84.54</ele>
        <time>2021-03-21T01:02:30Z</time>
      </trkpt>
      <trkpt lat="57.91539" lon="-5.18463">
        <ele>86.2</ele>
        <time>2021-03-21T01:02:35Z</time>
      </trkpt>
      <trkpt lat="57.91513" lon="-5.18443">
        <ele>89.04</ele>
        <time>2021-03-21T01:02:40Z</time>
      </trkpt>
      <trkpt lat="57.91495" lon="-5.18439">
        <ele>90.04</ele>
        <time>2021-03-21T01:02:44Z</time>
      </trkpt>
      <trkpt lat="57.91478" lon="-5.18438">
        <ele>90.18</ele>
        <time>2021-03-21T01:02:49Z</time>
      </trkpt>
      <trkpt lat="57.91456" lon="-5.18444">
        <ele>90.6</ele>
        <time>2021-03-21T01:02:54Z</time>
      </trkpt>
      <trkpt lat="57.91412" lon="-5.18462">
        <ele>91.16</ele>
        <time>2021-03-21T01:02:59Z</time>
      </trkpt>
      <trkpt lat="57.91397" lon="-5.18465">
        <ele>91.71</ele>
        <time>2021-03-21T01:03:03Z</time>
      </trkpt>
      <trkpt lat="57.91373" lon="-5.18464">
        <ele>91.61</ele>
        <time>2021-03-21T01:03:08Z</time>
      </trkpt>
      <trkpt lat="57.91349" lon="-5.18452">
        <ele>89.99</ele>
        <time>2021-03-21T01:03:13Z</time>
      </trkpt>
      <trkpt lat="57.91334" lon="-5.18439">
        <ele>88.25</ele>
        <time>2021-03-21T01:03:17Z</time>
      </trkpt>
      <trkpt lat="57.91322" lon="-5.18425">
        <ele>86.64</ele>
        <time>2021-03-21T01:03:22Z</time>
      </trkpt>
      <trkpt lat="57.91266" lon="-5.18343">
        <ele>81.35</ele>
        <time>2021-03-21T01:03:27Z</time>
      </trkpt>
      <trkpt lat="57.91087" lon="-5.1806">
        <ele>61.59</ele>
        <time>2021-03-21T01:03:32Z</time>
      </trkpt>
      <trkpt lat="57.90863" lon="-5.17639">
        <ele>41.51</ele>
        <time>2021-03-21T01:03:36Z</time>
      </trkpt>
      <trkpt lat="57.90816" lon="-5.17539">
        <ele>42.08</ele>
        <time>2021-03-21T01:03:41Z</time>
      </trkpt>
      <trkpt lat="57.90806" lon="-5.1751">
        <ele>41.65</ele>
        <time>2021-03-21T01:03:46Z</time>
      </trkpt>
      <trkpt lat="57.90797" lon="-5.17477">
        <ele>42.1</ele>
        <time>2021-03-21T01:03:50Z</time>
      </trkpt>
      <trkpt lat="57.90782" lon="-5.1741">
        <ele>42.23</ele>
        <time>2021-03-21T01:03:55Z</time>
      </trkpt>
      <trkpt lat="57.90775" lon="-5.17363">
        <ele>41.32</ele>
        <time>2021-03-21T01:04:00Z</time>
      </trkpt>
      <trkpt lat="57.90764" lon="-5.17258">
        <ele>39.4</ele>
        <time>2021-03-21T01:04:05Z</time>
      </trkpt>
      <trkpt lat="57.9076" lon="-5.17193">
        <ele>37.38</ele>
        <time>2021-03-21T01:04:09Z</time>
      </trkpt>
      <trkpt lat="57.90761" lon="-5.17074">
        <ele>37.04</ele>
        <time>2021-03-21T01:04:14Z</time>
      </trkpt>
      <trkpt lat="57.9076" lon="-5.17041">
        <ele>36.47</ele>
        <time>2021-03-21T01:04:19Z</time>
      </trkpt>
      <trkpt lat="57.90755" lon="-5.17001">
        <ele>35.08</ele>
        <time>2021-03-21T01:04:23Z</time>
      </trkpt>
      <trkpt lat="57.90749" lon="-5.16977">
        <ele>34.67</ele>
        <time>2021-03-21T01:04:28Z</time>
      </trkpt>
      <trkpt lat="57.90712" lon="-5.16858">
        <ele>30.27</ele>
        <time>2021-03-21T01:04:33Z</time>
      </trkpt>
      <trkpt lat="57.90673" lon="-5.16724">
        <ele>27.33</ele>
        <time>2021-03-21T01:04:38Z</time>
      </trkpt>
      <trkpt lat="57.90613" lon="-5.16507">
        <ele>23.07</ele>
        <time>2021-03-21T01:04:42Z</time>
      </trkpt>
      <trkpt lat="57.90478" lon="-5.16009">
        <ele>23.45</ele>
        <time>2021-03-21T01:04:47Z</time>
      </trkpt>
      <trkpt lat="57.90461" lon="-5.1596">
        <ele>24.22</ele>
        <time>2021-03-21T01:04:52Z</time>
      </trkpt>
      <trkpt lat="57.90447" lon="-5.1593">
        <ele>25.55</ele>
        <time>2021-03-21T01:04:56Z</time>
      </trkpt>
      <trkpt lat="57.90416" lon="-5.15886">
        <ele>26.12</ele>
        <time>2021-03-21T01:05:01Z</time>
      </trkpt>
      <trkpt lat="57.90395" lon="-5.15868">
        <ele>26.77</ele>
        <time>2021-03-21T01:05:06Z</time>
      </trkpt>
      <trkpt lat="57.90359" lon="-5.15853">
        <ele>27.44</ele>
        <time>2021-03-21T01:05:11Z</time>
      </trkpt>
      <trkpt lat="57.90297" lon="-5.15844">
        <ele>25.63</ele>
        <time>2021-03-21T01:05:15Z</time>
      </trkpt>
      <trkpt lat="57.90272" lon="-5.15832">
        <ele>25.89</ele>
        <time>2021-03-21T01:05:20Z</time>
      </trkpt>
      <trkpt lat="57.90171" lon="-5.15755">
        <ele>21.23</ele>
        <time>2021-03-21T01:05:25Z</time>
      </trkpt>
      <trkpt lat="57.90138" lon="-5.15738">
        <ele>21.42</ele>
        <time>2021-03-21T01:05:29Z</time>
      </trkpt>
      <trkpt lat="57.90073" lon="-5.15724">
        <ele>20</ele>
        <time>2021-03-21T01:05:34Z</time>
      </trkpt>
      <trkpt lat="57.8998" lon="-5.1572">
        <ele>18.27</ele>
        <time>2021-03-21T01:05:39Z</time>
      </trkpt>
      <trkpt lat="57.89938" lon="-5.15712">
        <ele>16.76</ele>
        <time>2021-03-21T01:05:44Z</time>
      </trkpt>
      <trkpt lat="57.89879" lon="-5.15668">
        <ele>16.37</ele>
        <time>2021-03-21T01:05:48Z</time>
      </trkpt>
      <trkpt lat="57.89754" lon="-5.15559">
        <ele>14.14</ele>
        <time>2021-03-21T01:05:53Z</time>
      </trkpt>
      <trkpt lat="57.8968" lon="-5.15503">
        <ele>10.59</ele>
        <time>2021-03-21T01:05:58Z</time>
      </trkpt>
      <trkpt lat="57.89668" lon="-5.15491">
        <ele>9.12</ele>
        <time>2021-03-21T01:06:02Z</time>
      </trkpt>
      <trkpt lat="57.89664" lon="-5.15478">
        <ele>8.77</ele>
        <time>2021-03-21T01:06:07Z</time>
      </trkpt>
      <trkpt lat="57.8963" lon="-5.15651">
        <ele>7.61</ele>
        <time>2021-03-21T01:06:20Z</time>
      </trkpt>
    </trkseg>
  </trk>
  <trk>
    <name><![CDATA[J09t - Ullapool Youth Hostel, Shore Street, IV26 2UJ, Écosse, Royaume-Uni - Borgie Lodge Hotel, Skerray, Tongue, Lairg]]></name>
    <trkseg>
      <trkpt lat="57.9019" lon="-5.16594">
        <ele>11.15</ele>
        <time>2021-03-20T20:55:50Z</time>
      </trkpt>
      <trkpt lat="57.90172" lon="-5.16459">
        <ele>13.85</ele>
        <time>2021-03-20T20:55:56Z</time>
      </trkpt>
      <trkpt lat="57.90174" lon="-5.16437">
        <ele>14.51</ele>
        <time>2021-03-20T20:56:03Z</time>
      </trkpt>
      <trkpt lat="57.90191" lon="-5.16443">
        <ele>15.72</ele>
        <time>2021-03-20T20:56:09Z</time>
      </trkpt>
      <trkpt lat="57.90199" lon="-5.1644">
        <ele>16.52</ele>
        <time>2021-03-20T20:56:15Z</time>
      </trkpt>
      <trkpt lat="57.90218" lon="-5.16459">
        <ele>18.05</ele>
        <time>2021-03-20T20:56:19Z</time>
      </trkpt>
      <trkpt lat="57.90243" lon="-5.16497">
        <ele>18.74</ele>
        <time>2021-03-20T20:56:23Z</time>
      </trkpt>
      <trkpt lat="57.90269" lon="-5.16527">
        <ele>19.68</ele>
        <time>2021-03-20T20:56:26Z</time>
      </trkpt>
      <trkpt lat="57.90289" lon="-5.16494">
        <ele>20</ele>
        <time>2021-03-20T20:56:35Z</time>
      </trkpt>
      <trkpt lat="57.90317" lon="-5.16431">
        <ele>20</ele>
        <time>2021-03-20T20:56:44Z</time>
      </trkpt>
      <trkpt lat="57.9035" lon="-5.16351">
        <ele>20.63</ele>
        <time>2021-03-20T20:56:53Z</time>
      </trkpt>
      <trkpt lat="57.9041" lon="-5.16211">
        <ele>21.75</ele>
        <time>2021-03-20T20:57:02Z</time>
      </trkpt>
      <trkpt lat="57.90494" lon="-5.16067">
        <ele>24.43</ele>
        <time>2021-03-20T20:57:10Z</time>
      </trkpt>
      <trkpt lat="57.90613" lon="-5.16507">
        <ele>23.07</ele>
        <time>2021-03-20T20:57:15Z</time>
      </trkpt>
      <trkpt lat="57.90673" lon="-5.16724">
        <ele>27.33</ele>
        <time>2021-03-20T20:57:19Z</time>
      </trkpt>
      <trkpt lat="57.90712" lon="-5.16858">
        <ele>30.27</ele>
        <time>2021-03-20T20:57:24Z</time>
      </trkpt>
      <trkpt lat="57.90749" lon="-5.16977">
        <ele>34.67</ele>
        <time>2021-03-20T20:57:29Z</time>
      </trkpt>
      <trkpt lat="57.90755" lon="-5.17001">
        <ele>35.08</ele>
        <time>2021-03-20T20:57:33Z</time>
      </trkpt>
      <trkpt lat="57.9076" lon="-5.17041">
        <ele>36.47</ele>
        <time>2021-03-20T20:57:38Z</time>
      </trkpt>
      <trkpt lat="57.90761" lon="-5.17074">
        <ele>37.04</ele>
        <time>2021-03-20T20:57:42Z</time>
      </trkpt>
      <trkpt lat="57.9076" lon="-5.17193">
        <ele>37.38</ele>
        <time>2021-03-20T20:57:47Z</time>
      </trkpt>
      <trkpt lat="57.90764" lon="-5.17258">
        <ele>39.4</ele>
        <time>2021-03-20T20:57:51Z</time>
      </trkpt>
      <trkpt lat="57.90775" lon="-5.17363">
        <ele>41.32</ele>
        <time>2021-03-20T20:57:56Z</time>
      </trkpt>
      <trkpt lat="57.90782" lon="-5.1741">
        <ele>42.23</ele>
        <time>2021-03-20T20:58:00Z</time>
      </trkpt>
      <trkpt lat="57.90797" lon="-5.17477">
        <ele>42.1</ele>
        <time>2021-03-20T20:58:05Z</time>
      </trkpt>
      <trkpt lat="57.90806" lon="-5.1751">
        <ele>41.65</ele>
        <time>2021-03-20T20:58:10Z</time>
      </trkpt>
      <trkpt lat="57.90816" lon="-5.17539">
        <ele>42.08</ele>
        <time>2021-03-20T20:58:14Z</time>
      </trkpt>
      <trkpt lat="57.90863" lon="-5.17639">
        <ele>41.51</ele>
        <time>2021-03-20T20:58:19Z</time>
      </trkpt>
      <trkpt lat="57.91087" lon="-5.1806">
        <ele>61.59</ele>
        <time>2021-03-20T20:58:23Z</time>
      </trkpt>
      <trkpt lat="57.91266" lon="-5.18343">
        <ele>81.35</ele>
        <time>2021-03-20T20:58:28Z</time>
      </trkpt>
      <trkpt lat="57.91322" lon="-5.18425">
        <ele>86.64</ele>
        <time>2021-03-20T20:58:32Z</time>
      </trkpt>
      <trkpt lat="57.91334" lon="-5.18439">
        <ele>88.25</ele>
        <time>2021-03-20T20:58:37Z</time>
      </trkpt>
      <trkpt lat="57.91349" lon="-5.18452">
        <ele>89.99</ele>
        <time>2021-03-20T20:58:42Z</time>
      </trkpt>
      <trkpt lat="57.91373" lon="-5.18464">
        <ele>91.61</ele>
        <time>2021-03-20T20:58:46Z</time>
      </trkpt>
      <trkpt lat="57.91397" lon="-5.18465">
        <ele>91.71</ele>
        <time>2021-03-20T20:58:51Z</time>
      </trkpt>
      <trkpt lat="57.91412" lon="-5.18462">
        <ele>91.16</ele>
        <time>2021-03-20T20:58:55Z</time>
      </trkpt>
      <trkpt lat="57.91456" lon="-5.18444">
        <ele>90.6</ele>
        <time>2021-03-20T20:59:00Z</time>
      </trkpt>
      <trkpt lat="57.91478" lon="-5.18438">
        <ele>90.18</ele>
        <time>2021-03-20T20:59:04Z</time>
      </trkpt>
      <trkpt lat="57.91495" lon="-5.18439">
        <ele>90.04</ele>
        <time>2021-03-20T20:59:09Z</time>
      </trkpt>
      <trkpt lat="57.91513" lon="-5.18443">
        <ele>89.04</ele>
        <time>2021-03-20T20:59:14Z</time>
      </trkpt>
      <trkpt lat="57.91539" lon="-5.18463">
        <ele>86.2</ele>
        <time>2021-03-20T20:59:18Z</time>
      </trkpt>
      <trkpt lat="57.91552" lon="-5.18483">
        <ele>84.54</ele>
        <time>2021-03-20T20:59:23Z</time>
      </trkpt>
      <trkpt lat="57.91564" lon="-5.18506">
        <ele>82.18</ele>
        <time>2021-03-20T20:59:27Z</time>
      </trkpt>
      <trkpt lat="57.91595" lon="-5.18589">
        <ele>77.87</ele>
        <time>2021-03-20T20:59:32Z</time>
      </trkpt>
      <trkpt lat="57.91637" lon="-5.18707">
        <ele>71.14</ele>
        <time>2021-03-20T20:59:36Z</time>
      </trkpt>
      <trkpt lat="57.91771" lon="-5.19162">
        <ele>42.44</ele>
        <time>2021-03-20T20:59:41Z</time>
      </trkpt>
      <trkpt lat="57.91791" lon="-5.19215">
        <ele>40.08</ele>
        <time>2021-03-20T20:59:45Z</time>
      </trkpt>
      <trkpt lat="57.91802" lon="-5.19237">
        <ele>39.35</ele>
        <time>2021-03-20T20:59:50Z</time>
      </trkpt>
      <trkpt lat="57.91821" lon="-5.19266">
        <ele>38.05</ele>
        <time>2021-03-20T20:59:55Z</time>
      </trkpt>
      <trkpt lat="57.91836" lon="-5.1928">
        <ele>35.76</ele>
        <time>2021-03-20T20:59:59Z</time>
      </trkpt>
      <trkpt lat="57.91846" lon="-5.19286">
        <ele>34.58</ele>
        <time>2021-03-20T21:00:04Z</time>
      </trkpt>
      <trkpt lat="57.9187" lon="-5.1929">
        <ele>31.67</ele>
        <time>2021-03-20T21:00:08Z</time>
      </trkpt>
      <trkpt lat="57.91886" lon="-5.19287">
        <ele>30.22</ele>
        <time>2021-03-20T21:00:13Z</time>
      </trkpt>
      <trkpt lat="57.91907" lon="-5.19275">
        <ele>30</ele>
        <time>2021-03-20T21:00:17Z</time>
      </trkpt>
      <trkpt lat="57.91935" lon="-5.19248">
        <ele>28.67</ele>
        <time>2021-03-20T21:00:22Z</time>
      </trkpt>
      <trkpt lat="57.92018" lon="-5.19131">
        <ele>33.74</ele>
        <time>2021-03-20T21:00:27Z</time>
      </trkpt>
      <trkpt lat="57.92048" lon="-5.19097">
        <ele>34.71</ele>
        <time>2021-03-20T21:00:31Z</time>
      </trkpt>
      <trkpt lat="57.92068" lon="-5.19082">
        <ele>34.95</ele>
        <time>2021-03-20T21:00:36Z</time>
      </trkpt>
      <trkpt lat="57.92085" lon="-5.19072">
        <ele>34.66</ele>
        <time>2021-03-20T21:00:40Z</time>
      </trkpt>
      <trkpt lat="57.92102" lon="-5.19069">
        <ele>35.15</ele>
        <time>2021-03-20T21:00:45Z</time>
      </trkpt>
      <trkpt lat="57.92175" lon="-5.19068">
        <ele>40.28</ele>
        <time>2021-03-20T21:00:49Z</time>
      </trkpt>
      <trkpt lat="57.92227" lon="-5.19073">
        <ele>44.94</ele>
        <time>2021-03-20T21:00:54Z</time>
      </trkpt>
      <trkpt lat="57.92249" lon="-5.19082">
        <ele>46.79</ele>
        <time>2021-03-20T21:00:59Z</time>
      </trkpt>
      <trkpt lat="57.92277" lon="-5.19102">
        <ele>48.95</ele>
        <time>2021-03-20T21:01:03Z</time>
      </trkpt>
      <trkpt lat="57.92291" lon="-5.19117">
        <ele>50.03</ele>
        <time>2021-03-20T21:01:08Z</time>
      </trkpt>
      <trkpt lat="57.92444" lon="-5.1932">
        <ele>56.98</ele>
        <time>2021-03-20T21:01:12Z</time>
      </trkpt>
      <trkpt lat="57.92472" lon="-5.19352">
        <ele>57.67</ele>
        <time>2021-03-20T21:01:17Z</time>
      </trkpt>
      <trkpt lat="57.92496" lon="-5.19368">
        <ele>58.04</ele>
        <time>2021-03-20T21:01:21Z</time>
      </trkpt>
      <trkpt lat="57.92515" lon="-5.19378">
        <ele>57.47</ele>
        <time>2021-03-20T21:01:26Z</time>
      </trkpt>
      <trkpt lat="57.92712" lon="-5.1945">
        <ele>42.17</ele>
        <time>2021-03-20T21:01:30Z</time>
      </trkpt>
      <trkpt lat="57.92727" lon="-5.19462">
        <ele>39.92</ele>
        <time>2021-03-20T21:01:35Z</time>
      </trkpt>
      <trkpt lat="57.92742" lon="-5.19481">
        <ele>37.53</ele>
        <time>2021-03-20T21:01:40Z</time>
      </trkpt>
      <trkpt lat="57.92755" lon="-5.19505">
        <ele>35.97</ele>
        <time>2021-03-20T21:01:44Z</time>
      </trkpt>
      <trkpt lat="57.92823" lon="-5.19677">
        <ele>28.7</ele>
        <time>2021-03-20T21:01:49Z</time>
      </trkpt>
      <trkpt lat="57.92844" lon="-5.19721">
        <ele>24.91</ele>
        <time>2021-03-20T21:01:53Z</time>
      </trkpt>
      <trkpt lat="57.92856" lon="-5.1974">
        <ele>22.93</ele>
        <time>2021-03-20T21:01:58Z</time>
      </trkpt>
      <trkpt lat="57.92872" lon="-5.19758">
        <ele>20.56</ele>
        <time>2021-03-20T21:02:02Z</time>
      </trkpt>
      <trkpt lat="57.92889" lon="-5.19767">
        <ele>18.37</ele>
        <time>2021-03-20T21:02:07Z</time>
      </trkpt>
      <trkpt lat="57.92902" lon="-5.19772">
        <ele>16.45</ele>
        <time>2021-03-20T21:02:12Z</time>
      </trkpt>
      <trkpt lat="57.92914" lon="-5.19771">
        <ele>14.91</ele>
        <time>2021-03-20T21:02:16Z</time>
      </trkpt>
      <trkpt lat="57.92939" lon="-5.1976">
        <ele>11.21</ele>
        <time>2021-03-20T21:02:21Z</time>
      </trkpt>
      <trkpt lat="57.93" lon="-5.19707">
        <ele>7.66</ele>
        <time>2021-03-20T21:02:25Z</time>
      </trkpt>
      <trkpt lat="57.93033" lon="-5.19682">
        <ele>6.93</ele>
        <time>2021-03-20T21:02:30Z</time>
      </trkpt>
      <trkpt lat="57.93089" lon="-5.19652">
        <ele>6.18</ele>
        <time>2021-03-20T21:02:34Z</time>
      </trkpt>
      <trkpt lat="57.93125" lon="-5.19637">
        <ele>6.6</ele>
        <time>2021-03-20T21:02:39Z</time>
      </trkpt>
      <trkpt lat="57.93203" lon="-5.19623">
        <ele>5.58</ele>
        <time>2021-03-20T21:02:44Z</time>
      </trkpt>
      <trkpt lat="57.93252" lon="-5.19621">
        <ele>4.65</ele>
        <time>2021-03-20T21:02:48Z</time>
      </trkpt>
      <trkpt lat="57.93271" lon="-5.19622">
        <ele>4.61</ele>
        <time>2021-03-20T21:02:53Z</time>
      </trkpt>
      <trkpt lat="57.93326" lon="-5.19639">
        <ele>4.01</ele>
        <time>2021-03-20T21:02:57Z</time>
      </trkpt>
      <trkpt lat="57.93346" lon="-5.19641">
        <ele>4</ele>
        <time>2021-03-20T21:03:02Z</time>
      </trkpt>
      <trkpt lat="57.93369" lon="-5.19637">
        <ele>4.34</ele>
        <time>2021-03-20T21:03:06Z</time>
      </trkpt>
      <trkpt lat="57.93384" lon="-5.19629">
        <ele>4.89</ele>
        <time>2021-03-20T21:03:11Z</time>
      </trkpt>
      <trkpt lat="57.93393" lon="-5.19618">
        <ele>5</ele>
        <time>2021-03-20T21:03:15Z</time>
      </trkpt>
      <trkpt lat="57.93403" lon="-5.19603">
        <ele>5</ele>
        <time>2021-03-20T21:03:20Z</time>
      </trkpt>
      <trkpt lat="57.93414" lon="-5.19577">
        <ele>5</ele>
        <time>2021-03-20T21:03:25Z</time>
      </trkpt>
      <trkpt lat="57.93424" lon="-5.19546">
        <ele>5</ele>
        <time>2021-03-20T21:03:29Z</time>
      </trkpt>
      <trkpt lat="57.93496" lon="-5.19273">
        <ele>6.28</ele>
        <time>2021-03-20T21:03:34Z</time>
      </trkpt>
      <trkpt lat="57.9351" lon="-5.19211">
        <ele>6.32</ele>
        <time>2021-03-20T21:03:38Z</time>
      </trkpt>
      <trkpt lat="57.93584" lon="-5.18926">
        <ele>21.69</ele>
        <time>2021-03-20T21:03:43Z</time>
      </trkpt>
      <trkpt lat="57.93606" lon="-5.18868">
        <ele>20.62</ele>
        <time>2021-03-20T21:03:47Z</time>
      </trkpt>
      <trkpt lat="57.93615" lon="-5.18827">
        <ele>16.26</ele>
        <time>2021-03-20T21:03:52Z</time>
      </trkpt>
      <trkpt lat="57.93627" lon="-5.1875">
        <ele>19.78</ele>
        <time>2021-03-20T21:03:57Z</time>
      </trkpt>
      <trkpt lat="57.93641" lon="-5.18679">
        <ele>21.83</ele>
        <time>2021-03-20T21:04:01Z</time>
      </trkpt>
      <trkpt lat="57.93671" lon="-5.18577">
        <ele>25.17</ele>
        <time>2021-03-20T21:04:06Z</time>
      </trkpt>
      <trkpt lat="57.93699" lon="-5.185">
        <ele>22.38</ele>
        <time>2021-03-20T21:04:10Z</time>
      </trkpt>
      <trkpt lat="57.93719" lon="-5.18466">
        <ele>19.83</ele>
        <time>2021-03-20T21:04:15Z</time>
      </trkpt>
      <trkpt lat="57.93746" lon="-5.18441">
        <ele>18.05</ele>
        <time>2021-03-20T21:04:19Z</time>
      </trkpt>
      <trkpt lat="57.93784" lon="-5.18422">
        <ele>18.66</ele>
        <time>2021-03-20T21:04:24Z</time>
      </trkpt>
      <trkpt lat="57.93819" lon="-5.18408">
        <ele>22.05</ele>
        <time>2021-03-20T21:04:29Z</time>
      </trkpt>
      <trkpt lat="57.93855" lon="-5.18365">
        <ele>31.16</ele>
        <time>2021-03-20T21:04:33Z</time>
      </trkpt>
      <trkpt lat="57.93945" lon="-5.18116">
        <ele>46.79</ele>
        <time>2021-03-20T21:04:38Z</time>
      </trkpt>
      <trkpt lat="57.93981" lon="-5.18008">
        <ele>46.35</ele>
        <time>2021-03-20T21:04:42Z</time>
      </trkpt>
      <trkpt lat="57.93994" lon="-5.17947">
        <ele>45.01</ele>
        <time>2021-03-20T21:04:47Z</time>
      </trkpt>
      <trkpt lat="57.9401" lon="-5.17838">
        <ele>41.62</ele>
        <time>2021-03-20T21:04:51Z</time>
      </trkpt>
      <trkpt lat="57.94023" lon="-5.17774">
        <ele>39.88</ele>
        <time>2021-03-20T21:04:56Z</time>
      </trkpt>
      <trkpt lat="57.9404" lon="-5.17716">
        <ele>38.47</ele>
        <time>2021-03-20T21:05:00Z</time>
      </trkpt>
      <trkpt lat="57.94075" lon="-5.17537">
        <ele>32.79</ele>
        <time>2021-03-20T21:05:05Z</time>
      </trkpt>
      <trkpt lat="57.94098" lon="-5.17377">
        <ele>27.78</ele>
        <time>2021-03-20T21:05:10Z</time>
      </trkpt>
      <trkpt lat="57.94114" lon="-5.17291">
        <ele>26.24</ele>
        <time>2021-03-20T21:05:14Z</time>
      </trkpt>
      <trkpt lat="57.94134" lon="-5.17209">
        <ele>23.18</ele>
        <time>2021-03-20T21:05:19Z</time>
      </trkpt>
      <trkpt lat="57.94159" lon="-5.17122">
        <ele>17.91</ele>
        <time>2021-03-20T21:05:23Z</time>
      </trkpt>
      <trkpt lat="57.94171" lon="-5.17072">
        <ele>16.67</ele>
        <time>2021-03-20T21:05:28Z</time>
      </trkpt>
      <trkpt lat="57.94194" lon="-5.17018">
        <ele>15.45</ele>
        <time>2021-03-20T21:05:32Z</time>
      </trkpt>
      <trkpt lat="57.94269" lon="-5.16873">
        <ele>15.69</ele>
        <time>2021-03-20T21:05:37Z</time>
      </trkpt>
      <trkpt lat="57.94373" lon="-5.16742">
        <ele>16.87</ele>
        <time>2021-03-20T21:05:42Z</time>
      </trkpt>
      <trkpt lat="57.9442" lon="-5.16678">
        <ele>18.08</ele>
        <time>2021-03-20T21:05:46Z</time>
      </trkpt>
      <trkpt lat="57.94453" lon="-5.16627">
        <ele>19.48</ele>
        <time>2021-03-20T21:05:51Z</time>
      </trkpt>
      <trkpt lat="57.94485" lon="-5.16557">
        <ele>21.44</ele>
        <time>2021-03-20T21:05:55Z</time>
      </trkpt>
      <trkpt lat="57.94567" lon="-5.16316">
        <ele>24.23</ele>
        <time>2021-03-20T21:06:00Z</time>
      </trkpt>
      <trkpt lat="57.94745" lon="-5.15782">
        <ele>26.9</ele>
        <time>2021-03-20T21:06:04Z</time>
      </trkpt>
      <trkpt lat="57.94867" lon="-5.15348">
        <ele>37.76</ele>
        <time>2021-03-20T21:06:09Z</time>
      </trkpt>
      <trkpt lat="57.94942" lon="-5.15055">
        <ele>50.28</ele>
        <time>2021-03-20T21:06:14Z</time>
      </trkpt>
      <trkpt lat="57.94968" lon="-5.14977">
        <ele>49.58</ele>
        <time>2021-03-20T21:06:18Z</time>
      </trkpt>
      <trkpt lat="57.95065" lon="-5.1473">
        <ele>45.58</ele>
        <time>2021-03-20T21:06:23Z</time>
      </trkpt>
      <trkpt lat="57.95191" lon="-5.14391">
        <ele>62.85</ele>
        <time>2021-03-20T21:06:27Z</time>
      </trkpt>
      <trkpt lat="57.95454" lon="-5.13948">
        <ele>52.44</ele>
        <time>2021-03-20T21:06:32Z</time>
      </trkpt>
      <trkpt lat="57.95695" lon="-5.13498">
        <ele>53</ele>
        <time>2021-03-20T21:06:36Z</time>
      </trkpt>
      <trkpt lat="57.9573" lon="-5.13456">
        <ele>52.14</ele>
        <time>2021-03-20T21:06:41Z</time>
      </trkpt>
      <trkpt lat="57.9576" lon="-5.13436">
        <ele>49.24</ele>
        <time>2021-03-20T21:06:45Z</time>
      </trkpt>
      <trkpt lat="57.95812" lon="-5.13424">
        <ele>40.23</ele>
        <time>2021-03-20T21:06:50Z</time>
      </trkpt>
      <trkpt lat="57.95868" lon="-5.13424">
        <ele>32.76</ele>
        <time>2021-03-20T21:06:55Z</time>
      </trkpt>
      <trkpt lat="57.95915" lon="-5.13439">
        <ele>28.76</ele>
        <time>2021-03-20T21:06:59Z</time>
      </trkpt>
      <trkpt lat="57.95956" lon="-5.1346">
        <ele>23.95</ele>
        <time>2021-03-20T21:07:04Z</time>
      </trkpt>
      <trkpt lat="57.96164" lon="-5.13583">
        <ele>13.01</ele>
        <time>2021-03-20T21:07:08Z</time>
      </trkpt>
      <trkpt lat="57.96208" lon="-5.13595">
        <ele>12</ele>
        <time>2021-03-20T21:07:13Z</time>
      </trkpt>
      <trkpt lat="57.96242" lon="-5.13597">
        <ele>12.72</ele>
        <time>2021-03-20T21:07:17Z</time>
      </trkpt>
      <trkpt lat="57.96277" lon="-5.13584">
        <ele>15.89</ele>
        <time>2021-03-20T21:07:22Z</time>
      </trkpt>
      <trkpt lat="57.96298" lon="-5.13569">
        <ele>17.69</ele>
        <time>2021-03-20T21:07:27Z</time>
      </trkpt>
      <trkpt lat="57.96333" lon="-5.13537">
        <ele>21.33</ele>
        <time>2021-03-20T21:07:31Z</time>
      </trkpt>
      <trkpt lat="57.96392" lon="-5.13468">
        <ele>26.01</ele>
        <time>2021-03-20T21:07:36Z</time>
      </trkpt>
      <trkpt lat="57.96465" lon="-5.13376">
        <ele>26.69</ele>
        <time>2021-03-20T21:07:40Z</time>
      </trkpt>
      <trkpt lat="57.96565" lon="-5.13254">
        <ele>38.5</ele>
        <time>2021-03-20T21:07:45Z</time>
      </trkpt>
      <trkpt lat="57.96701" lon="-5.13079">
        <ele>56.17</ele>
        <time>2021-03-20T21:07:49Z</time>
      </trkpt>
      <trkpt lat="57.96808" lon="-5.12915">
        <ele>68.44</ele>
        <time>2021-03-20T21:07:54Z</time>
      </trkpt>
      <trkpt lat="57.97077" lon="-5.12584">
        <ele>85.6</ele>
        <time>2021-03-20T21:07:59Z</time>
      </trkpt>
      <trkpt lat="57.97157" lon="-5.12495">
        <ele>89.3</ele>
        <time>2021-03-20T21:08:03Z</time>
      </trkpt>
      <trkpt lat="57.97253" lon="-5.12419">
        <ele>95.17</ele>
        <time>2021-03-20T21:08:08Z</time>
      </trkpt>
      <trkpt lat="57.97459" lon="-5.1228">
        <ele>101.48</ele>
        <time>2021-03-20T21:08:12Z</time>
      </trkpt>
      <trkpt lat="57.9752" lon="-5.12229">
        <ele>103.72</ele>
        <time>2021-03-20T21:08:17Z</time>
      </trkpt>
      <trkpt lat="57.9766" lon="-5.12097">
        <ele>104.86</ele>
        <time>2021-03-20T21:08:21Z</time>
      </trkpt>
      <trkpt lat="57.97782" lon="-5.11989">
        <ele>98.17</ele>
        <time>2021-03-20T21:08:26Z</time>
      </trkpt>
      <trkpt lat="57.97845" lon="-5.11943">
        <ele>99.61</ele>
        <time>2021-03-20T21:08:30Z</time>
      </trkpt>
      <trkpt lat="57.97911" lon="-5.11908">
        <ele>101.69</ele>
        <time>2021-03-20T21:08:35Z</time>
      </trkpt>
      <trkpt lat="57.97956" lon="-5.11895">
        <ele>105.38</ele>
        <time>2021-03-20T21:08:40Z</time>
      </trkpt>
      <trkpt lat="57.98021" lon="-5.11894">
        <ele>109.15</ele>
        <time>2021-03-20T21:08:44Z</time>
      </trkpt>
      <trkpt lat="57.98121" lon="-5.11914">
        <ele>115.66</ele>
        <time>2021-03-20T21:08:49Z</time>
      </trkpt>
      <trkpt lat="57.98163" lon="-5.11916">
        <ele>117.89</ele>
        <time>2021-03-20T21:08:53Z</time>
      </trkpt>
      <trkpt lat="57.98195" lon="-5.11905">
        <ele>118.25</ele>
        <time>2021-03-20T21:08:58Z</time>
      </trkpt>
      <trkpt lat="57.98225" lon="-5.11889">
        <ele>119</ele>
        <time>2021-03-20T21:09:02Z</time>
      </trkpt>
      <trkpt lat="57.98701" lon="-5.11501">
        <ele>129.18</ele>
        <time>2021-03-20T21:09:07Z</time>
      </trkpt>
      <trkpt lat="57.98817" lon="-5.1141">
        <ele>124.89</ele>
        <time>2021-03-20T21:09:12Z</time>
      </trkpt>
      <trkpt lat="57.98969" lon="-5.11321">
        <ele>125.01</ele>
        <time>2021-03-20T21:09:16Z</time>
      </trkpt>
      <trkpt lat="57.9903" lon="-5.11268">
        <ele>126.07</ele>
        <time>2021-03-20T21:09:21Z</time>
      </trkpt>
      <trkpt lat="57.99085" lon="-5.11205">
        <ele>124.65</ele>
        <time>2021-03-20T21:09:25Z</time>
      </trkpt>
      <trkpt lat="57.99174" lon="-5.11127">
        <ele>121.96</ele>
        <time>2021-03-20T21:09:30Z</time>
      </trkpt>
      <trkpt lat="57.99262" lon="-5.11061">
        <ele>122.82</ele>
        <time>2021-03-20T21:09:34Z</time>
      </trkpt>
      <trkpt lat="57.99454" lon="-5.10941">
        <ele>120.84</ele>
        <time>2021-03-20T21:09:39Z</time>
      </trkpt>
      <trkpt lat="57.99555" lon="-5.10859">
        <ele>117.28</ele>
        <time>2021-03-20T21:09:43Z</time>
      </trkpt>
      <trkpt lat="57.99654" lon="-5.10767">
        <ele>120.7</ele>
        <time>2021-03-20T21:09:48Z</time>
      </trkpt>
      <trkpt lat="57.99744" lon="-5.1066">
        <ele>120.21</ele>
        <time>2021-03-20T21:09:53Z</time>
      </trkpt>
      <trkpt lat="57.9983" lon="-5.10547">
        <ele>121.13</ele>
        <time>2021-03-20T21:09:57Z</time>
      </trkpt>
      <trkpt lat="57.99934" lon="-5.10387">
        <ele>122</ele>
        <time>2021-03-20T21:10:02Z</time>
      </trkpt>
      <trkpt lat="57.9995" lon="-5.10359">
        <ele>121.94</ele>
        <time>2021-03-20T21:10:06Z</time>
      </trkpt>
      <trkpt lat="58.00156" lon="-5.10126">
        <ele>132.84</ele>
        <time>2021-03-20T21:10:11Z</time>
      </trkpt>
      <trkpt lat="58.0018" lon="-5.10089">
        <ele>134.79</ele>
        <time>2021-03-20T21:10:15Z</time>
      </trkpt>
      <trkpt lat="58.00195" lon="-5.10054">
        <ele>136</ele>
        <time>2021-03-20T21:10:20Z</time>
      </trkpt>
      <trkpt lat="58.00205" lon="-5.10012">
        <ele>138.36</ele>
        <time>2021-03-20T21:10:25Z</time>
      </trkpt>
      <trkpt lat="58.00227" lon="-5.09841">
        <ele>138.59</ele>
        <time>2021-03-20T21:10:29Z</time>
      </trkpt>
      <trkpt lat="58.00241" lon="-5.09784">
        <ele>139.42</ele>
        <time>2021-03-20T21:10:34Z</time>
      </trkpt>
      <trkpt lat="58.00284" lon="-5.09666">
        <ele>142.62</ele>
        <time>2021-03-20T21:10:38Z</time>
      </trkpt>
      <trkpt lat="58.00334" lon="-5.09555">
        <ele>146.23</ele>
        <time>2021-03-20T21:10:43Z</time>
      </trkpt>
      <trkpt lat="58.00498" lon="-5.09242">
        <ele>159.34</ele>
        <time>2021-03-20T21:10:47Z</time>
      </trkpt>
      <trkpt lat="58.00538" lon="-5.09126">
        <ele>166.03</ele>
        <time>2021-03-20T21:10:52Z</time>
      </trkpt>
      <trkpt lat="58.00563" lon="-5.09076">
        <ele>167.92</ele>
        <time>2021-03-20T21:10:57Z</time>
      </trkpt>
      <trkpt lat="58.00593" lon="-5.09041">
        <ele>169.87</ele>
        <time>2021-03-20T21:11:01Z</time>
      </trkpt>
      <trkpt lat="58.00722" lon="-5.08925">
        <ele>179.4</ele>
        <time>2021-03-20T21:11:06Z</time>
      </trkpt>
      <trkpt lat="58.00768" lon="-5.08872">
        <ele>185.76</ele>
        <time>2021-03-20T21:11:10Z</time>
      </trkpt>
      <trkpt lat="58.00913" lon="-5.08676">
        <ele>191.82</ele>
        <time>2021-03-20T21:11:15Z</time>
      </trkpt>
      <trkpt lat="58.00945" lon="-5.08638">
        <ele>195.08</ele>
        <time>2021-03-20T21:11:19Z</time>
      </trkpt>
      <trkpt lat="58.00982" lon="-5.08604">
        <ele>198.88</ele>
        <time>2021-03-20T21:11:24Z</time>
      </trkpt>
      <trkpt lat="58.0115" lon="-5.0846">
        <ele>208.93</ele>
        <time>2021-03-20T21:11:28Z</time>
      </trkpt>
      <trkpt lat="58.01202" lon="-5.08406">
        <ele>211.14</ele>
        <time>2021-03-20T21:11:33Z</time>
      </trkpt>
      <trkpt lat="58.01223" lon="-5.08379">
        <ele>212.08</ele>
        <time>2021-03-20T21:11:38Z</time>
      </trkpt>
      <trkpt lat="58.013" lon="-5.08296">
        <ele>219.47</ele>
        <time>2021-03-20T21:11:42Z</time>
      </trkpt>
      <trkpt lat="58.01397" lon="-5.08182">
        <ele>226.24</ele>
        <time>2021-03-20T21:11:47Z</time>
      </trkpt>
      <trkpt lat="58.01557" lon="-5.07948">
        <ele>231.37</ele>
        <time>2021-03-20T21:11:51Z</time>
      </trkpt>
      <trkpt lat="58.01604" lon="-5.07909">
        <ele>232.26</ele>
        <time>2021-03-20T21:11:56Z</time>
      </trkpt>
      <trkpt lat="58.01644" lon="-5.07893">
        <ele>233.45</ele>
        <time>2021-03-20T21:12:00Z</time>
      </trkpt>
      <trkpt lat="58.01755" lon="-5.07859">
        <ele>235.95</ele>
        <time>2021-03-20T21:12:05Z</time>
      </trkpt>
      <trkpt lat="58.01845" lon="-5.07815">
        <ele>233.28</ele>
        <time>2021-03-20T21:12:10Z</time>
      </trkpt>
      <trkpt lat="58.02052" lon="-5.07704">
        <ele>237.25</ele>
        <time>2021-03-20T21:12:14Z</time>
      </trkpt>
      <trkpt lat="58.02296" lon="-5.07581">
        <ele>246.63</ele>
        <time>2021-03-20T21:12:19Z</time>
      </trkpt>
      <trkpt lat="58.02696" lon="-5.07367">
        <ele>241.73</ele>
        <time>2021-03-20T21:12:23Z</time>
      </trkpt>
      <trkpt lat="58.02775" lon="-5.07329">
        <ele>240.18</ele>
        <time>2021-03-20T21:12:28Z</time>
      </trkpt>
      <trkpt lat="58.0282" lon="-5.07312">
        <ele>236.87</ele>
        <time>2021-03-20T21:12:32Z</time>
      </trkpt>
      <trkpt lat="58.02852" lon="-5.07309">
        <ele>234.89</ele>
        <time>2021-03-20T21:12:37Z</time>
      </trkpt>
      <trkpt lat="58.02884" lon="-5.07314">
        <ele>234.66</ele>
        <time>2021-03-20T21:12:42Z</time>
      </trkpt>
      <trkpt lat="58.03058" lon="-5.07362">
        <ele>232</ele>
        <time>2021-03-20T21:12:46Z</time>
      </trkpt>
      <trkpt lat="58.03101" lon="-5.07368">
        <ele>232.27</ele>
        <time>2021-03-20T21:12:51Z</time>
      </trkpt>
      <trkpt lat="58.03128" lon="-5.07364">
        <ele>231.56</ele>
        <time>2021-03-20T21:12:55Z</time>
      </trkpt>
      <trkpt lat="58.03157" lon="-5.07353">
        <ele>229.28</ele>
        <time>2021-03-20T21:13:00Z</time>
      </trkpt>
      <trkpt lat="58.03187" lon="-5.07337">
        <ele>228.19</ele>
        <time>2021-03-20T21:13:04Z</time>
      </trkpt>
      <trkpt lat="58.0347" lon="-5.07136">
        <ele>228.25</ele>
        <time>2021-03-20T21:13:09Z</time>
      </trkpt>
      <trkpt lat="58.03567" lon="-5.07065">
        <ele>229.56</ele>
        <time>2021-03-20T21:13:13Z</time>
      </trkpt>
      <trkpt lat="58.03606" lon="-5.07018">
        <ele>230.21</ele>
        <time>2021-03-20T21:13:18Z</time>
      </trkpt>
      <trkpt lat="58.0363" lon="-5.06983">
        <ele>232.2</ele>
        <time>2021-03-20T21:13:23Z</time>
      </trkpt>
      <trkpt lat="58.03654" lon="-5.0694">
        <ele>233.29</ele>
        <time>2021-03-20T21:13:27Z</time>
      </trkpt>
      <trkpt lat="58.03681" lon="-5.06882">
        <ele>234.37</ele>
        <time>2021-03-20T21:13:32Z</time>
      </trkpt>
      <trkpt lat="58.03817" lon="-5.06554">
        <ele>243.32</ele>
        <time>2021-03-20T21:13:36Z</time>
      </trkpt>
      <trkpt lat="58.03839" lon="-5.06507">
        <ele>244.87</ele>
        <time>2021-03-20T21:13:41Z</time>
      </trkpt>
      <trkpt lat="58.03909" lon="-5.06384">
        <ele>246.28</ele>
        <time>2021-03-20T21:13:45Z</time>
      </trkpt>
      <trkpt lat="58.03925" lon="-5.0635">
        <ele>246.8</ele>
        <time>2021-03-20T21:13:50Z</time>
      </trkpt>
      <trkpt lat="58.03991" lon="-5.06162">
        <ele>246.77</ele>
        <time>2021-03-20T21:13:55Z</time>
      </trkpt>
      <trkpt lat="58.0401" lon="-5.06114">
        <ele>244.1</ele>
        <time>2021-03-20T21:13:59Z</time>
      </trkpt>
      <trkpt lat="58.04217" lon="-5.05715">
        <ele>228.44</ele>
        <time>2021-03-20T21:14:04Z</time>
      </trkpt>
      <trkpt lat="58.04244" lon="-5.05651">
        <ele>226.49</ele>
        <time>2021-03-20T21:14:08Z</time>
      </trkpt>
      <trkpt lat="58.04394" lon="-5.05255">
        <ele>216.43</ele>
        <time>2021-03-20T21:14:13Z</time>
      </trkpt>
      <trkpt lat="58.04509" lon="-5.04919">
        <ele>200.56</ele>
        <time>2021-03-20T21:14:17Z</time>
      </trkpt>
      <trkpt lat="58.04526" lon="-5.04858">
        <ele>195.77</ele>
        <time>2021-03-20T21:14:22Z</time>
      </trkpt>
      <trkpt lat="58.0454" lon="-5.04801">
        <ele>192.1</ele>
        <time>2021-03-20T21:14:27Z</time>
      </trkpt>
      <trkpt lat="58.04559" lon="-5.04679">
        <ele>187.4</ele>
        <time>2021-03-20T21:14:31Z</time>
      </trkpt>
      <trkpt lat="58.04588" lon="-5.04409">
        <ele>175.63</ele>
        <time>2021-03-20T21:14:36Z</time>
      </trkpt>
      <trkpt lat="58.04617" lon="-5.04238">
        <ele>168.63</ele>
        <time>2021-03-20T21:14:40Z</time>
      </trkpt>
      <trkpt lat="58.0464" lon="-5.04059">
        <ele>166.6</ele>
        <time>2021-03-20T21:14:45Z</time>
      </trkpt>
      <trkpt lat="58.04643" lon="-5.03994">
        <ele>165.64</ele>
        <time>2021-03-20T21:14:49Z</time>
      </trkpt>
      <trkpt lat="58.04639" lon="-5.03938">
        <ele>166.76</ele>
        <time>2021-03-20T21:14:54Z</time>
      </trkpt>
      <trkpt lat="58.04616" lon="-5.0386">
        <ele>167.24</ele>
        <time>2021-03-20T21:14:58Z</time>
      </trkpt>
      <trkpt lat="58.04585" lon="-5.03766">
        <ele>164.4</ele>
        <time>2021-03-20T21:15:03Z</time>
      </trkpt>
      <trkpt lat="58.04578" lon="-5.03695">
        <ele>163.7</ele>
        <time>2021-03-20T21:15:08Z</time>
      </trkpt>
      <trkpt lat="58.04585" lon="-5.03658">
        <ele>164.25</ele>
        <time>2021-03-20T21:15:12Z</time>
      </trkpt>
      <trkpt lat="58.046" lon="-5.03625">
        <ele>163.39</ele>
        <time>2021-03-20T21:15:17Z</time>
      </trkpt>
      <trkpt lat="58.04694" lon="-5.03475">
        <ele>160.68</ele>
        <time>2021-03-20T21:15:21Z</time>
      </trkpt>
      <trkpt lat="58.04714" lon="-5.03438">
        <ele>160.97</ele>
        <time>2021-03-20T21:15:26Z</time>
      </trkpt>
      <trkpt lat="58.0473" lon="-5.03398">
        <ele>159.57</ele>
        <time>2021-03-20T21:15:30Z</time>
      </trkpt>
      <trkpt lat="58.04783" lon="-5.03218">
        <ele>159.91</ele>
        <time>2021-03-20T21:15:35Z</time>
      </trkpt>
      <trkpt lat="58.04822" lon="-5.03092">
        <ele>162.48</ele>
        <time>2021-03-20T21:15:40Z</time>
      </trkpt>
      <trkpt lat="58.04831" lon="-5.0307">
        <ele>161.09</ele>
        <time>2021-03-20T21:15:44Z</time>
      </trkpt>
      <trkpt lat="58.04854" lon="-5.03035">
        <ele>157.85</ele>
        <time>2021-03-20T21:15:49Z</time>
      </trkpt>
      <trkpt lat="58.04887" lon="-5.03009">
        <ele>157.1</ele>
        <time>2021-03-20T21:15:53Z</time>
      </trkpt>
      <trkpt lat="58.0492" lon="-5.03006">
        <ele>158.87</ele>
        <time>2021-03-20T21:15:58Z</time>
      </trkpt>
      <trkpt lat="58.04949" lon="-5.03022">
        <ele>161.26</ele>
        <time>2021-03-20T21:16:02Z</time>
      </trkpt>
      <trkpt lat="58.04978" lon="-5.03057">
        <ele>162.52</ele>
        <time>2021-03-20T21:16:07Z</time>
      </trkpt>
      <trkpt lat="58.05047" lon="-5.03229">
        <ele>159</ele>
        <time>2021-03-20T21:16:12Z</time>
      </trkpt>
      <trkpt lat="58.05066" lon="-5.03252">
        <ele>153.74</ele>
        <time>2021-03-20T21:16:16Z</time>
      </trkpt>
      <trkpt lat="58.05092" lon="-5.03268">
        <ele>149.18</ele>
        <time>2021-03-20T21:16:21Z</time>
      </trkpt>
      <trkpt lat="58.05111" lon="-5.03276">
        <ele>146.24</ele>
        <time>2021-03-20T21:16:25Z</time>
      </trkpt>
      <trkpt lat="58.05129" lon="-5.03276">
        <ele>145.53</ele>
        <time>2021-03-20T21:16:30Z</time>
      </trkpt>
      <trkpt lat="58.05147" lon="-5.03269">
        <ele>145.17</ele>
        <time>2021-03-20T21:16:34Z</time>
      </trkpt>
      <trkpt lat="58.05155" lon="-5.03263">
        <ele>144.76</ele>
        <time>2021-03-20T21:16:39Z</time>
      </trkpt>
      <trkpt lat="58.05179" lon="-5.03239">
        <ele>142.4</ele>
        <time>2021-03-20T21:16:43Z</time>
      </trkpt>
      <trkpt lat="58.05191" lon="-5.0322">
        <ele>140.88</ele>
        <time>2021-03-20T21:16:48Z</time>
      </trkpt>
      <trkpt lat="58.0522" lon="-5.03162">
        <ele>141.09</ele>
        <time>2021-03-20T21:16:53Z</time>
      </trkpt>
      <trkpt lat="58.05248" lon="-5.03103">
        <ele>143.88</ele>
        <time>2021-03-20T21:16:57Z</time>
      </trkpt>
      <trkpt lat="58.05262" lon="-5.03085">
        <ele>144.89</ele>
        <time>2021-03-20T21:17:02Z</time>
      </trkpt>
      <trkpt lat="58.05277" lon="-5.03071">
        <ele>145.5</ele>
        <time>2021-03-20T21:17:06Z</time>
      </trkpt>
      <trkpt lat="58.05376" lon="-5.03049">
        <ele>146.4</ele>
        <time>2021-03-20T21:17:11Z</time>
      </trkpt>
      <trkpt lat="58.05566" lon="-5.02962">
        <ele>138.24</ele>
        <time>2021-03-20T21:17:15Z</time>
      </trkpt>
      <trkpt lat="58.05624" lon="-5.02949">
        <ele>137.92</ele>
        <time>2021-03-20T21:17:20Z</time>
      </trkpt>
      <trkpt lat="58.05851" lon="-5.02921">
        <ele>135.56</ele>
        <time>2021-03-20T21:17:25Z</time>
      </trkpt>
      <trkpt lat="58.059" lon="-5.0291">
        <ele>136.07</ele>
        <time>2021-03-20T21:17:29Z</time>
      </trkpt>
      <trkpt lat="58.05944" lon="-5.02876">
        <ele>136.48</ele>
        <time>2021-03-20T21:17:34Z</time>
      </trkpt>
      <trkpt lat="58.05982" lon="-5.02837">
        <ele>137.09</ele>
        <time>2021-03-20T21:17:38Z</time>
      </trkpt>
      <trkpt lat="58.06" lon="-5.0281">
        <ele>136.84</ele>
        <time>2021-03-20T21:17:43Z</time>
      </trkpt>
      <trkpt lat="58.06016" lon="-5.02778">
        <ele>137.82</ele>
        <time>2021-03-20T21:17:47Z</time>
      </trkpt>
      <trkpt lat="58.06075" lon="-5.02595">
        <ele>140.11</ele>
        <time>2021-03-20T21:17:52Z</time>
      </trkpt>
      <trkpt lat="58.06157" lon="-5.02306">
        <ele>142.44</ele>
        <time>2021-03-20T21:17:57Z</time>
      </trkpt>
      <trkpt lat="58.06172" lon="-5.0224">
        <ele>140.89</ele>
        <time>2021-03-20T21:18:01Z</time>
      </trkpt>
      <trkpt lat="58.06191" lon="-5.01982">
        <ele>140.14</ele>
        <time>2021-03-20T21:18:06Z</time>
      </trkpt>
      <trkpt lat="58.06201" lon="-5.019">
        <ele>138.51</ele>
        <time>2021-03-20T21:18:10Z</time>
      </trkpt>
      <trkpt lat="58.06263" lon="-5.01615">
        <ele>136.45</ele>
        <time>2021-03-20T21:18:15Z</time>
      </trkpt>
      <trkpt lat="58.06276" lon="-5.01543">
        <ele>136.34</ele>
        <time>2021-03-20T21:18:19Z</time>
      </trkpt>
      <trkpt lat="58.06288" lon="-5.01401">
        <ele>133</ele>
        <time>2021-03-20T21:18:24Z</time>
      </trkpt>
      <trkpt lat="58.06289" lon="-5.01361">
        <ele>131.74</ele>
        <time>2021-03-20T21:18:28Z</time>
      </trkpt>
      <trkpt lat="58.06286" lon="-5.0132">
        <ele>130.75</ele>
        <time>2021-03-20T21:18:33Z</time>
      </trkpt>
      <trkpt lat="58.06251" lon="-5.01065">
        <ele>129.23</ele>
        <time>2021-03-20T21:18:38Z</time>
      </trkpt>
      <trkpt lat="58.06219" lon="-5.00811">
        <ele>129.41</ele>
        <time>2021-03-20T21:18:42Z</time>
      </trkpt>
      <trkpt lat="58.06192" lon="-5.00701">
        <ele>128.33</ele>
        <time>2021-03-20T21:18:47Z</time>
      </trkpt>
      <trkpt lat="58.0618" lon="-5.00616">
        <ele>127.69</ele>
        <time>2021-03-20T21:18:51Z</time>
      </trkpt>
      <trkpt lat="58.06176" lon="-5.00546">
        <ele>127.04</ele>
        <time>2021-03-20T21:18:56Z</time>
      </trkpt>
      <trkpt lat="58.06179" lon="-5.00485">
        <ele>127.14</ele>
        <time>2021-03-20T21:19:00Z</time>
      </trkpt>
      <trkpt lat="58.06188" lon="-5.00414">
        <ele>126.44</ele>
        <time>2021-03-20T21:19:05Z</time>
      </trkpt>
      <trkpt lat="58.06256" lon="-5.002">
        <ele>127.65</ele>
        <time>2021-03-20T21:19:10Z</time>
      </trkpt>
      <trkpt lat="58.06267" lon="-5.00131">
        <ele>128.85</ele>
        <time>2021-03-20T21:19:14Z</time>
      </trkpt>
      <trkpt lat="58.06298" lon="-4.99818">
        <ele>134.16</ele>
        <time>2021-03-20T21:19:19Z</time>
      </trkpt>
      <trkpt lat="58.06332" lon="-4.99495">
        <ele>131.83</ele>
        <time>2021-03-20T21:19:23Z</time>
      </trkpt>
      <trkpt lat="58.06376" lon="-4.99324">
        <ele>129.65</ele>
        <time>2021-03-20T21:19:28Z</time>
      </trkpt>
      <trkpt lat="58.0639" lon="-4.99195">
        <ele>130.1</ele>
        <time>2021-03-20T21:19:32Z</time>
      </trkpt>
      <trkpt lat="58.06383" lon="-4.99035">
        <ele>131.6</ele>
        <time>2021-03-20T21:19:37Z</time>
      </trkpt>
      <trkpt lat="58.06375" lon="-4.98608">
        <ele>134.98</ele>
        <time>2021-03-20T21:19:42Z</time>
      </trkpt>
      <trkpt lat="58.06387" lon="-4.98524">
        <ele>136.68</ele>
        <time>2021-03-20T21:19:46Z</time>
      </trkpt>
      <trkpt lat="58.06414" lon="-4.98439">
        <ele>135.61</ele>
        <time>2021-03-20T21:19:51Z</time>
      </trkpt>
      <trkpt lat="58.06498" lon="-4.98271">
        <ele>133</ele>
        <time>2021-03-20T21:19:55Z</time>
      </trkpt>
      <trkpt lat="58.06601" lon="-4.98084">
        <ele>131</ele>
        <time>2021-03-20T21:20:00Z</time>
      </trkpt>
      <trkpt lat="58.06612" lon="-4.98035">
        <ele>130</ele>
        <time>2021-03-20T21:20:04Z</time>
      </trkpt>
      <trkpt lat="58.06616" lon="-4.97986">
        <ele>129</ele>
        <time>2021-03-20T21:20:09Z</time>
      </trkpt>
      <trkpt lat="58.06618" lon="-4.97941">
        <ele>128</ele>
        <time>2021-03-20T21:20:13Z</time>
      </trkpt>
      <trkpt lat="58.06613" lon="-4.97768">
        <ele>131.41</ele>
        <time>2021-03-20T21:20:18Z</time>
      </trkpt>
      <trkpt lat="58.06628" lon="-4.97437">
        <ele>139.59</ele>
        <time>2021-03-20T21:20:23Z</time>
      </trkpt>
      <trkpt lat="58.06632" lon="-4.97368">
        <ele>140.94</ele>
        <time>2021-03-20T21:20:27Z</time>
      </trkpt>
      <trkpt lat="58.06638" lon="-4.97326">
        <ele>142.24</ele>
        <time>2021-03-20T21:20:32Z</time>
      </trkpt>
      <trkpt lat="58.06665" lon="-4.97197">
        <ele>146.82</ele>
        <time>2021-03-20T21:20:37Z</time>
      </trkpt>
      <trkpt lat="58.06554" lon="-4.97098">
        <ele>146.93</ele>
        <time>2021-03-20T21:20:42Z</time>
      </trkpt>
      <trkpt lat="58.06473" lon="-4.96994">
        <ele>144.04</ele>
        <time>2021-03-20T21:20:47Z</time>
      </trkpt>
      <trkpt lat="58.06132" lon="-4.96472">
        <ele>143.49</ele>
        <time>2021-03-20T21:20:52Z</time>
      </trkpt>
      <trkpt lat="58.06094" lon="-4.96388">
        <ele>145.51</ele>
        <time>2021-03-20T21:20:58Z</time>
      </trkpt>
      <trkpt lat="58.05994" lon="-4.96136">
        <ele>146.57</ele>
        <time>2021-03-20T21:21:03Z</time>
      </trkpt>
      <trkpt lat="58.0594" lon="-4.95991">
        <ele>147.17</ele>
        <time>2021-03-20T21:21:08Z</time>
      </trkpt>
      <trkpt lat="58.05893" lon="-4.95848">
        <ele>146.3</ele>
        <time>2021-03-20T21:21:13Z</time>
      </trkpt>
      <trkpt lat="58.0568" lon="-4.95155">
        <ele>148.69</ele>
        <time>2021-03-20T21:21:18Z</time>
      </trkpt>
      <trkpt lat="58.05662" lon="-4.95118">
        <ele>147.68</ele>
        <time>2021-03-20T21:21:24Z</time>
      </trkpt>
      <trkpt lat="58.05567" lon="-4.94986">
        <ele>147.8</ele>
        <time>2021-03-20T21:21:29Z</time>
      </trkpt>
      <trkpt lat="58.05545" lon="-4.94953">
        <ele>146.52</ele>
        <time>2021-03-20T21:21:34Z</time>
      </trkpt>
      <trkpt lat="58.05494" lon="-4.94849">
        <ele>144.86</ele>
        <time>2021-03-20T21:21:39Z</time>
      </trkpt>
      <trkpt lat="58.05458" lon="-4.94768">
        <ele>145.02</ele>
        <time>2021-03-20T21:21:45Z</time>
      </trkpt>
      <trkpt lat="58.05424" lon="-4.9464">
        <ele>147.3</ele>
        <time>2021-03-20T21:21:50Z</time>
      </trkpt>
      <trkpt lat="58.05364" lon="-4.94501">
        <ele>142.17</ele>
        <time>2021-03-20T21:21:55Z</time>
      </trkpt>
      <trkpt lat="58.05329" lon="-4.94398">
        <ele>143</ele>
        <time>2021-03-20T21:22:00Z</time>
      </trkpt>
      <trkpt lat="58.05306" lon="-4.9428">
        <ele>143</ele>
        <time>2021-03-20T21:22:06Z</time>
      </trkpt>
      <trkpt lat="58.05274" lon="-4.94096">
        <ele>144.07</ele>
        <time>2021-03-20T21:22:11Z</time>
      </trkpt>
      <trkpt lat="58.0523" lon="-4.93893">
        <ele>146.13</ele>
        <time>2021-03-20T21:22:16Z</time>
      </trkpt>
      <trkpt lat="58.05114" lon="-4.93527">
        <ele>144.14</ele>
        <time>2021-03-20T21:22:21Z</time>
      </trkpt>
      <trkpt lat="58.05085" lon="-4.93461">
        <ele>144.51</ele>
        <time>2021-03-20T21:22:26Z</time>
      </trkpt>
      <trkpt lat="58.05044" lon="-4.93409">
        <ele>144.63</ele>
        <time>2021-03-20T21:22:32Z</time>
      </trkpt>
      <trkpt lat="58.04932" lon="-4.93283">
        <ele>145.25</ele>
        <time>2021-03-20T21:22:37Z</time>
      </trkpt>
      <trkpt lat="58.0482" lon="-4.93131">
        <ele>146.8</ele>
        <time>2021-03-20T21:22:42Z</time>
      </trkpt>
      <trkpt lat="58.04761" lon="-4.93039">
        <ele>147.65</ele>
        <time>2021-03-20T21:22:47Z</time>
      </trkpt>
      <trkpt lat="58.04731" lon="-4.92964">
        <ele>148.61</ele>
        <time>2021-03-20T21:22:53Z</time>
      </trkpt>
      <trkpt lat="58.04707" lon="-4.92868">
        <ele>148.92</ele>
        <time>2021-03-20T21:22:58Z</time>
      </trkpt>
      <trkpt lat="58.04677" lon="-4.92677">
        <ele>150.64</ele>
        <time>2021-03-20T21:23:03Z</time>
      </trkpt>
      <trkpt lat="58.04651" lon="-4.92593">
        <ele>152.09</ele>
        <time>2021-03-20T21:23:08Z</time>
      </trkpt>
      <trkpt lat="58.0461" lon="-4.92496">
        <ele>153.92</ele>
        <time>2021-03-20T21:23:14Z</time>
      </trkpt>
      <trkpt lat="58.0447" lon="-4.91958">
        <ele>152.91</ele>
        <time>2021-03-20T21:23:19Z</time>
      </trkpt>
      <trkpt lat="58.04428" lon="-4.91812">
        <ele>156.16</ele>
        <time>2021-03-20T21:23:24Z</time>
      </trkpt>
      <trkpt lat="58.04373" lon="-4.91643">
        <ele>159.41</ele>
        <time>2021-03-20T21:23:29Z</time>
      </trkpt>
      <trkpt lat="58.04359" lon="-4.91586">
        <ele>159.93</ele>
        <time>2021-03-20T21:23:34Z</time>
      </trkpt>
      <trkpt lat="58.04348" lon="-4.91528">
        <ele>159.53</ele>
        <time>2021-03-20T21:23:40Z</time>
      </trkpt>
      <trkpt lat="58.04308" lon="-4.91226">
        <ele>160.14</ele>
        <time>2021-03-20T21:23:45Z</time>
      </trkpt>
      <trkpt lat="58.04297" lon="-4.91128">
        <ele>161.51</ele>
        <time>2021-03-20T21:23:50Z</time>
      </trkpt>
      <trkpt lat="58.04298" lon="-4.9095">
        <ele>161.19</ele>
        <time>2021-03-20T21:23:55Z</time>
      </trkpt>
      <trkpt lat="58.04295" lon="-4.90872">
        <ele>160.85</ele>
        <time>2021-03-20T21:24:01Z</time>
      </trkpt>
      <trkpt lat="58.04282" lon="-4.90789">
        <ele>159.18</ele>
        <time>2021-03-20T21:24:06Z</time>
      </trkpt>
      <trkpt lat="58.04223" lon="-4.90593">
        <ele>156.05</ele>
        <time>2021-03-20T21:24:11Z</time>
      </trkpt>
      <trkpt lat="58.04162" lon="-4.90357">
        <ele>153.82</ele>
        <time>2021-03-20T21:24:16Z</time>
      </trkpt>
      <trkpt lat="58.04129" lon="-4.90282">
        <ele>155.07</ele>
        <time>2021-03-20T21:24:22Z</time>
      </trkpt>
      <trkpt lat="58.04102" lon="-4.90226">
        <ele>155.19</ele>
        <time>2021-03-20T21:24:27Z</time>
      </trkpt>
      <trkpt lat="58.03692" lon="-4.89577">
        <ele>154.12</ele>
        <time>2021-03-20T21:24:32Z</time>
      </trkpt>
      <trkpt lat="58.03589" lon="-4.89391">
        <ele>150.27</ele>
        <time>2021-03-20T21:24:37Z</time>
      </trkpt>
      <trkpt lat="58.03443" lon="-4.89109">
        <ele>151</ele>
        <time>2021-03-20T21:24:42Z</time>
      </trkpt>
      <trkpt lat="58.03357" lon="-4.88947">
        <ele>151.3</ele>
        <time>2021-03-20T21:24:48Z</time>
      </trkpt>
      <trkpt lat="58.03315" lon="-4.88896">
        <ele>154.41</ele>
        <time>2021-03-20T21:24:53Z</time>
      </trkpt>
      <trkpt lat="58.03261" lon="-4.88844">
        <ele>156.38</ele>
        <time>2021-03-20T21:24:58Z</time>
      </trkpt>
      <trkpt lat="58.03208" lon="-4.88808">
        <ele>157.91</ele>
        <time>2021-03-20T21:25:03Z</time>
      </trkpt>
      <trkpt lat="58.03159" lon="-4.88785">
        <ele>159.24</ele>
        <time>2021-03-20T21:25:09Z</time>
      </trkpt>
      <trkpt lat="58.03129" lon="-4.88753">
        <ele>160.1</ele>
        <time>2021-03-20T21:25:14Z</time>
      </trkpt>
      <trkpt lat="58.03113" lon="-4.8872">
        <ele>161.22</ele>
        <time>2021-03-20T21:25:19Z</time>
      </trkpt>
      <trkpt lat="58.03099" lon="-4.88682">
        <ele>162.49</ele>
        <time>2021-03-20T21:25:24Z</time>
      </trkpt>
      <trkpt lat="58.03084" lon="-4.88633">
        <ele>163.24</ele>
        <time>2021-03-20T21:25:30Z</time>
      </trkpt>
      <trkpt lat="58.03041" lon="-4.88472">
        <ele>163.47</ele>
        <time>2021-03-20T21:25:35Z</time>
      </trkpt>
      <trkpt lat="58.02965" lon="-4.88167">
        <ele>163.74</ele>
        <time>2021-03-20T21:25:40Z</time>
      </trkpt>
      <trkpt lat="58.02902" lon="-4.87991">
        <ele>164.48</ele>
        <time>2021-03-20T21:25:45Z</time>
      </trkpt>
      <trkpt lat="58.02723" lon="-4.87518">
        <ele>162.39</ele>
        <time>2021-03-20T21:25:51Z</time>
      </trkpt>
      <trkpt lat="58.02547" lon="-4.87253">
        <ele>162.02</ele>
        <time>2021-03-20T21:25:56Z</time>
      </trkpt>
      <trkpt lat="58.02516" lon="-4.8718">
        <ele>160.27</ele>
        <time>2021-03-20T21:26:01Z</time>
      </trkpt>
      <trkpt lat="58.02496" lon="-4.87099">
        <ele>159.55</ele>
        <time>2021-03-20T21:26:06Z</time>
      </trkpt>
      <trkpt lat="58.02456" lon="-4.86783">
        <ele>157.63</ele>
        <time>2021-03-20T21:26:11Z</time>
      </trkpt>
      <trkpt lat="58.0244" lon="-4.86722">
        <ele>157.41</ele>
        <time>2021-03-20T21:26:17Z</time>
      </trkpt>
      <trkpt lat="58.02425" lon="-4.86691">
        <ele>156.01</ele>
        <time>2021-03-20T21:26:22Z</time>
      </trkpt>
      <trkpt lat="58.02376" lon="-4.86647">
        <ele>154.22</ele>
        <time>2021-03-20T21:26:27Z</time>
      </trkpt>
      <trkpt lat="58.02217" lon="-4.8654">
        <ele>150</ele>
        <time>2021-03-20T21:26:32Z</time>
      </trkpt>
      <trkpt lat="58.01949" lon="-4.86288">
        <ele>160.63</ele>
        <time>2021-03-20T21:26:38Z</time>
      </trkpt>
      <trkpt lat="58.01823" lon="-4.86097">
        <ele>165</ele>
        <time>2021-03-20T21:26:43Z</time>
      </trkpt>
      <trkpt lat="58.01759" lon="-4.86037">
        <ele>167</ele>
        <time>2021-03-20T21:26:48Z</time>
      </trkpt>
      <trkpt lat="58.01616" lon="-4.85921">
        <ele>170</ele>
        <time>2021-03-20T21:26:53Z</time>
      </trkpt>
      <trkpt lat="58.01508" lon="-4.85778">
        <ele>173.29</ele>
        <time>2021-03-20T21:26:59Z</time>
      </trkpt>
      <trkpt lat="58.01456" lon="-4.85659">
        <ele>175</ele>
        <time>2021-03-20T21:27:04Z</time>
      </trkpt>
      <trkpt lat="58.01371" lon="-4.85443">
        <ele>175</ele>
        <time>2021-03-20T21:27:09Z</time>
      </trkpt>
      <trkpt lat="58.01281" lon="-4.85165">
        <ele>173.12</ele>
        <time>2021-03-20T21:27:14Z</time>
      </trkpt>
      <trkpt lat="58.01265" lon="-4.85048">
        <ele>171.04</ele>
        <time>2021-03-20T21:27:19Z</time>
      </trkpt>
      <trkpt lat="58.01251" lon="-4.84877">
        <ele>169.03</ele>
        <time>2021-03-20T21:27:25Z</time>
      </trkpt>
      <trkpt lat="58.01229" lon="-4.84738">
        <ele>168.8</ele>
        <time>2021-03-20T21:27:30Z</time>
      </trkpt>
      <trkpt lat="58.01197" lon="-4.84607">
        <ele>169.2</ele>
        <time>2021-03-20T21:27:35Z</time>
      </trkpt>
      <trkpt lat="58.01119" lon="-4.84412">
        <ele>168.99</ele>
        <time>2021-03-20T21:27:40Z</time>
      </trkpt>
      <trkpt lat="58.00973" lon="-4.84184">
        <ele>164.96</ele>
        <time>2021-03-20T21:27:46Z</time>
      </trkpt>
      <trkpt lat="58.00912" lon="-4.84028">
        <ele>165.32</ele>
        <time>2021-03-20T21:27:51Z</time>
      </trkpt>
      <trkpt lat="58.00809" lon="-4.83722">
        <ele>165.82</ele>
        <time>2021-03-20T21:27:56Z</time>
      </trkpt>
      <trkpt lat="58.00736" lon="-4.83563">
        <ele>163.71</ele>
        <time>2021-03-20T21:28:01Z</time>
      </trkpt>
      <trkpt lat="58.0068" lon="-4.83455">
        <ele>163.09</ele>
        <time>2021-03-20T21:28:07Z</time>
      </trkpt>
      <trkpt lat="58.00625" lon="-4.83296">
        <ele>163.07</ele>
        <time>2021-03-20T21:28:12Z</time>
      </trkpt>
      <trkpt lat="58.00546" lon="-4.83084">
        <ele>162.04</ele>
        <time>2021-03-20T21:28:17Z</time>
      </trkpt>
      <trkpt lat="58.00453" lon="-4.82985">
        <ele>162.5</ele>
        <time>2021-03-20T21:28:22Z</time>
      </trkpt>
      <trkpt lat="58.00393" lon="-4.829">
        <ele>156.99</ele>
        <time>2021-03-20T21:28:27Z</time>
      </trkpt>
      <trkpt lat="58.00362" lon="-4.82836">
        <ele>157.13</ele>
        <time>2021-03-20T21:28:33Z</time>
      </trkpt>
      <trkpt lat="58.00285" lon="-4.82707">
        <ele>159.84</ele>
        <time>2021-03-20T21:28:38Z</time>
      </trkpt>
      <trkpt lat="58.00185" lon="-4.8257">
        <ele>159.43</ele>
        <time>2021-03-20T21:28:43Z</time>
      </trkpt>
      <trkpt lat="58.00126" lon="-4.82485">
        <ele>159.58</ele>
        <time>2021-03-20T21:28:48Z</time>
      </trkpt>
      <trkpt lat="58.00037" lon="-4.82378">
        <ele>154.13</ele>
        <time>2021-03-20T21:28:54Z</time>
      </trkpt>
      <trkpt lat="58.00006" lon="-4.82345">
        <ele>154.39</ele>
        <time>2021-03-20T21:28:59Z</time>
      </trkpt>
      <trkpt lat="57.99959" lon="-4.82304">
        <ele>155.86</ele>
        <time>2021-03-20T21:29:04Z</time>
      </trkpt>
      <trkpt lat="57.99872" lon="-4.82251">
        <ele>154.91</ele>
        <time>2021-03-20T21:29:09Z</time>
      </trkpt>
      <trkpt lat="57.99834" lon="-4.82223">
        <ele>155.05</ele>
        <time>2021-03-20T21:29:15Z</time>
      </trkpt>
      <trkpt lat="57.99789" lon="-4.82183">
        <ele>155.47</ele>
        <time>2021-03-20T21:29:20Z</time>
      </trkpt>
      <trkpt lat="57.99757" lon="-4.82147">
        <ele>154.95</ele>
        <time>2021-03-20T21:29:25Z</time>
      </trkpt>
      <trkpt lat="57.9972" lon="-4.82113">
        <ele>155.6</ele>
        <time>2021-03-20T21:29:30Z</time>
      </trkpt>
      <trkpt lat="57.99675" lon="-4.82067">
        <ele>155.76</ele>
        <time>2021-03-20T21:29:35Z</time>
      </trkpt>
      <trkpt lat="57.99629" lon="-4.82028">
        <ele>156.08</ele>
        <time>2021-03-20T21:29:41Z</time>
      </trkpt>
      <trkpt lat="57.99508" lon="-4.81951">
        <ele>154.39</ele>
        <time>2021-03-20T21:29:46Z</time>
      </trkpt>
      <trkpt lat="57.99485" lon="-4.81931">
        <ele>154.39</ele>
        <time>2021-03-20T21:29:51Z</time>
      </trkpt>
      <trkpt lat="57.99461" lon="-4.81903">
        <ele>153.46</ele>
        <time>2021-03-20T21:29:56Z</time>
      </trkpt>
      <trkpt lat="57.99429" lon="-4.81854">
        <ele>150.64</ele>
        <time>2021-03-20T21:30:02Z</time>
      </trkpt>
      <trkpt lat="57.99381" lon="-4.81791">
        <ele>148.29</ele>
        <time>2021-03-20T21:30:07Z</time>
      </trkpt>
      <trkpt lat="57.9931" lon="-4.81714">
        <ele>145.98</ele>
        <time>2021-03-20T21:30:12Z</time>
      </trkpt>
      <trkpt lat="57.99242" lon="-4.81653">
        <ele>143.68</ele>
        <time>2021-03-20T21:30:17Z</time>
      </trkpt>
      <trkpt lat="57.99091" lon="-4.81565">
        <ele>144.43</ele>
        <time>2021-03-20T21:30:23Z</time>
      </trkpt>
      <trkpt lat="57.99058" lon="-4.81531">
        <ele>145.83</ele>
        <time>2021-03-20T21:30:28Z</time>
      </trkpt>
      <trkpt lat="57.98964" lon="-4.81335">
        <ele>139.96</ele>
        <time>2021-03-20T21:30:33Z</time>
      </trkpt>
      <trkpt lat="57.98925" lon="-4.81262">
        <ele>139.84</ele>
        <time>2021-03-20T21:30:38Z</time>
      </trkpt>
      <trkpt lat="57.98825" lon="-4.81103">
        <ele>138.02</ele>
        <time>2021-03-20T21:30:44Z</time>
      </trkpt>
      <trkpt lat="57.98742" lon="-4.81012">
        <ele>133.42</ele>
        <time>2021-03-20T21:30:49Z</time>
      </trkpt>
      <trkpt lat="57.98668" lon="-4.80952">
        <ele>130.47</ele>
        <time>2021-03-20T21:30:54Z</time>
      </trkpt>
      <trkpt lat="57.98488" lon="-4.8067">
        <ele>121.15</ele>
        <time>2021-03-20T21:30:59Z</time>
      </trkpt>
      <trkpt lat="57.98425" lon="-4.80491">
        <ele>116.5</ele>
        <time>2021-03-20T21:31:04Z</time>
      </trkpt>
      <trkpt lat="57.98273" lon="-4.79827">
        <ele>97.07</ele>
        <time>2021-03-20T21:31:10Z</time>
      </trkpt>
      <trkpt lat="57.98206" lon="-4.79657">
        <ele>90.93</ele>
        <time>2021-03-20T21:31:15Z</time>
      </trkpt>
      <trkpt lat="57.98098" lon="-4.79359">
        <ele>85.39</ele>
        <time>2021-03-20T21:31:20Z</time>
      </trkpt>
      <trkpt lat="57.97984" lon="-4.79058">
        <ele>77.93</ele>
        <time>2021-03-20T21:31:25Z</time>
      </trkpt>
      <trkpt lat="57.97965" lon="-4.79017">
        <ele>76.75</ele>
        <time>2021-03-20T21:31:31Z</time>
      </trkpt>
      <trkpt lat="57.97692" lon="-4.78562">
        <ele>62.72</ele>
        <time>2021-03-20T21:31:36Z</time>
      </trkpt>
      <trkpt lat="57.97671" lon="-4.78544">
        <ele>63.72</ele>
        <time>2021-03-20T21:31:41Z</time>
      </trkpt>
      <trkpt lat="57.97644" lon="-4.78537">
        <ele>64.47</ele>
        <time>2021-03-20T21:31:46Z</time>
      </trkpt>
      <trkpt lat="57.97608" lon="-4.78544">
        <ele>66.12</ele>
        <time>2021-03-20T21:31:52Z</time>
      </trkpt>
      <trkpt lat="57.97558" lon="-4.78527">
        <ele>64.06</ele>
        <time>2021-03-20T21:31:57Z</time>
      </trkpt>
      <trkpt lat="57.97475" lon="-4.78479">
        <ele>62.02</ele>
        <time>2021-03-20T21:32:02Z</time>
      </trkpt>
      <trkpt lat="57.97456" lon="-4.7846">
        <ele>64.03</ele>
        <time>2021-03-20T21:32:07Z</time>
      </trkpt>
      <trkpt lat="57.97447" lon="-4.78443">
        <ele>65.65</ele>
        <time>2021-03-20T21:32:12Z</time>
      </trkpt>
      <trkpt lat="57.9744" lon="-4.78344">
        <ele>67.57</ele>
        <time>2021-03-20T21:32:18Z</time>
      </trkpt>
      <trkpt lat="57.97434" lon="-4.78302">
        <ele>67.57</ele>
        <time>2021-03-20T21:32:23Z</time>
      </trkpt>
      <trkpt lat="57.97421" lon="-4.78255">
        <ele>66</ele>
        <time>2021-03-20T21:32:28Z</time>
      </trkpt>
      <trkpt lat="57.97401" lon="-4.78198">
        <ele>65.79</ele>
        <time>2021-03-20T21:32:33Z</time>
      </trkpt>
      <trkpt lat="57.97375" lon="-4.78132">
        <ele>66.73</ele>
        <time>2021-03-20T21:32:39Z</time>
      </trkpt>
      <trkpt lat="57.97367" lon="-4.78024">
        <ele>68.29</ele>
        <time>2021-03-20T21:32:44Z</time>
      </trkpt>
      <trkpt lat="57.97364" lon="-4.77709">
        <ele>65.46</ele>
        <time>2021-03-20T21:32:49Z</time>
      </trkpt>
      <trkpt lat="57.97353" lon="-4.77623">
        <ele>63.72</ele>
        <time>2021-03-20T21:32:54Z</time>
      </trkpt>
      <trkpt lat="57.97307" lon="-4.77476">
        <ele>63.87</ele>
        <time>2021-03-20T21:33:00Z</time>
      </trkpt>
      <trkpt lat="57.97256" lon="-4.77387">
        <ele>61</ele>
        <time>2021-03-20T21:33:05Z</time>
      </trkpt>
      <trkpt lat="57.97231" lon="-4.77257">
        <ele>65.15</ele>
        <time>2021-03-20T21:33:10Z</time>
      </trkpt>
      <trkpt lat="57.97226" lon="-4.76975">
        <ele>66.76</ele>
        <time>2021-03-20T21:33:15Z</time>
      </trkpt>
      <trkpt lat="57.97196" lon="-4.76873">
        <ele>65.96</ele>
        <time>2021-03-20T21:33:20Z</time>
      </trkpt>
      <trkpt lat="57.97168" lon="-4.76708">
        <ele>69</ele>
        <time>2021-03-20T21:33:26Z</time>
      </trkpt>
      <trkpt lat="57.97108" lon="-4.76476">
        <ele>68.23</ele>
        <time>2021-03-20T21:33:31Z</time>
      </trkpt>
      <trkpt lat="57.97084" lon="-4.76321">
        <ele>67.96</ele>
        <time>2021-03-20T21:33:36Z</time>
      </trkpt>
      <trkpt lat="57.97062" lon="-4.76104">
        <ele>68</ele>
        <time>2021-03-20T21:33:41Z</time>
      </trkpt>
      <trkpt lat="57.97078" lon="-4.75957">
        <ele>66.05</ele>
        <time>2021-03-20T21:33:47Z</time>
      </trkpt>
      <trkpt lat="57.97081" lon="-4.75785">
        <ele>64.64</ele>
        <time>2021-03-20T21:33:52Z</time>
      </trkpt>
      <trkpt lat="57.9709" lon="-4.75665">
        <ele>62.75</ele>
        <time>2021-03-20T21:33:57Z</time>
      </trkpt>
      <trkpt lat="57.97082" lon="-4.75544">
        <ele>59.65</ele>
        <time>2021-03-20T21:34:02Z</time>
      </trkpt>
      <trkpt lat="57.97075" lon="-4.75479">
        <ele>58.63</ele>
        <time>2021-03-20T21:34:08Z</time>
      </trkpt>
      <trkpt lat="57.97066" lon="-4.75339">
        <ele>55.15</ele>
        <time>2021-03-20T21:34:13Z</time>
      </trkpt>
      <trkpt lat="57.97041" lon="-4.75208">
        <ele>54.04</ele>
        <time>2021-03-20T21:34:18Z</time>
      </trkpt>
      <trkpt lat="57.97013" lon="-4.75115">
        <ele>53.21</ele>
        <time>2021-03-20T21:34:23Z</time>
      </trkpt>
      <trkpt lat="57.97" lon="-4.74983">
        <ele>52.97</ele>
        <time>2021-03-20T21:34:28Z</time>
      </trkpt>
      <trkpt lat="57.96998" lon="-4.74764">
        <ele>51</ele>
        <time>2021-03-20T21:34:34Z</time>
      </trkpt>
      <trkpt lat="57.96969" lon="-4.74486">
        <ele>55.33</ele>
        <time>2021-03-20T21:34:39Z</time>
      </trkpt>
      <trkpt lat="57.96914" lon="-4.74216">
        <ele>52.46</ele>
        <time>2021-03-20T21:34:44Z</time>
      </trkpt>
      <trkpt lat="57.96889" lon="-4.73874">
        <ele>47.01</ele>
        <time>2021-03-20T21:34:49Z</time>
      </trkpt>
      <trkpt lat="57.96879" lon="-4.73832">
        <ele>47.66</ele>
        <time>2021-03-20T21:34:55Z</time>
      </trkpt>
      <trkpt lat="57.96827" lon="-4.73519">
        <ele>42.31</ele>
        <time>2021-03-20T21:35:00Z</time>
      </trkpt>
      <trkpt lat="57.96787" lon="-4.73231">
        <ele>40.47</ele>
        <time>2021-03-20T21:35:05Z</time>
      </trkpt>
      <trkpt lat="57.96778" lon="-4.7315">
        <ele>39.4</ele>
        <time>2021-03-20T21:35:10Z</time>
      </trkpt>
      <trkpt lat="57.96777" lon="-4.73124">
        <ele>37.87</ele>
        <time>2021-03-20T21:35:16Z</time>
      </trkpt>
      <trkpt lat="57.96778" lon="-4.731">
        <ele>36.6</ele>
        <time>2021-03-20T21:35:21Z</time>
      </trkpt>
      <trkpt lat="57.96783" lon="-4.7306">
        <ele>35.16</ele>
        <time>2021-03-20T21:35:26Z</time>
      </trkpt>
      <trkpt lat="57.9681" lon="-4.72902">
        <ele>39.75</ele>
        <time>2021-03-20T21:35:31Z</time>
      </trkpt>
      <trkpt lat="57.96812" lon="-4.72875">
        <ele>41.94</ele>
        <time>2021-03-20T21:35:36Z</time>
      </trkpt>
      <trkpt lat="57.96814" lon="-4.72649">
        <ele>55.94</ele>
        <time>2021-03-20T21:35:42Z</time>
      </trkpt>
      <trkpt lat="57.96822" lon="-4.72476">
        <ele>63.58</ele>
        <time>2021-03-20T21:35:47Z</time>
      </trkpt>
      <trkpt lat="57.96802" lon="-4.72236">
        <ele>67.18</ele>
        <time>2021-03-20T21:35:52Z</time>
      </trkpt>
      <trkpt lat="57.96846" lon="-4.71536">
        <ele>75.32</ele>
        <time>2021-03-20T21:35:57Z</time>
      </trkpt>
      <trkpt lat="57.96843" lon="-4.71355">
        <ele>74.3</ele>
        <time>2021-03-20T21:36:03Z</time>
      </trkpt>
      <trkpt lat="57.96832" lon="-4.71196">
        <ele>71.84</ele>
        <time>2021-03-20T21:36:08Z</time>
      </trkpt>
      <trkpt lat="57.96841" lon="-4.70961">
        <ele>72.37</ele>
        <time>2021-03-20T21:36:13Z</time>
      </trkpt>
      <trkpt lat="57.96857" lon="-4.70752">
        <ele>70.54</ele>
        <time>2021-03-20T21:36:18Z</time>
      </trkpt>
      <trkpt lat="57.96869" lon="-4.70526">
        <ele>64.83</ele>
        <time>2021-03-20T21:36:24Z</time>
      </trkpt>
      <trkpt lat="57.96889" lon="-4.70364">
        <ele>64.98</ele>
        <time>2021-03-20T21:36:29Z</time>
      </trkpt>
      <trkpt lat="57.96957" lon="-4.6994">
        <ele>64.83</ele>
        <time>2021-03-20T21:36:34Z</time>
      </trkpt>
      <trkpt lat="57.96968" lon="-4.69836">
        <ele>64.93</ele>
        <time>2021-03-20T21:36:39Z</time>
      </trkpt>
      <trkpt lat="57.96979" lon="-4.69687">
        <ele>62.99</ele>
        <time>2021-03-20T21:36:45Z</time>
      </trkpt>
      <trkpt lat="57.96986" lon="-4.69632">
        <ele>63.19</ele>
        <time>2021-03-20T21:36:50Z</time>
      </trkpt>
      <trkpt lat="57.97017" lon="-4.69517">
        <ele>60.47</ele>
        <time>2021-03-20T21:36:55Z</time>
      </trkpt>
      <trkpt lat="57.9707" lon="-4.69397">
        <ele>56.36</ele>
        <time>2021-03-20T21:37:00Z</time>
      </trkpt>
      <trkpt lat="57.97246" lon="-4.69151">
        <ele>44.26</ele>
        <time>2021-03-20T21:37:05Z</time>
      </trkpt>
      <trkpt lat="57.97291" lon="-4.69059">
        <ele>35.76</ele>
        <time>2021-03-20T21:37:11Z</time>
      </trkpt>
      <trkpt lat="57.97313" lon="-4.68983">
        <ele>38.89</ele>
        <time>2021-03-20T21:37:16Z</time>
      </trkpt>
      <trkpt lat="57.97323" lon="-4.68904">
        <ele>45.81</ele>
        <time>2021-03-20T21:37:21Z</time>
      </trkpt>
      <trkpt lat="57.97326" lon="-4.68797">
        <ele>46.76</ele>
        <time>2021-03-20T21:37:26Z</time>
      </trkpt>
      <trkpt lat="57.97308" lon="-4.68559">
        <ele>44.8</ele>
        <time>2021-03-20T21:37:32Z</time>
      </trkpt>
      <trkpt lat="57.97283" lon="-4.68066">
        <ele>43.42</ele>
        <time>2021-03-20T21:37:37Z</time>
      </trkpt>
      <trkpt lat="57.97263" lon="-4.67819">
        <ele>44.7</ele>
        <time>2021-03-20T21:37:42Z</time>
      </trkpt>
      <trkpt lat="57.97228" lon="-4.67501">
        <ele>40.05</ele>
        <time>2021-03-20T21:37:47Z</time>
      </trkpt>
      <trkpt lat="57.9717" lon="-4.67099">
        <ele>41.1</ele>
        <time>2021-03-20T21:37:53Z</time>
      </trkpt>
      <trkpt lat="57.97113" lon="-4.66762">
        <ele>34.67</ele>
        <time>2021-03-20T21:37:58Z</time>
      </trkpt>
      <trkpt lat="57.97084" lon="-4.66529">
        <ele>35.22</ele>
        <time>2021-03-20T21:38:03Z</time>
      </trkpt>
      <trkpt lat="57.97075" lon="-4.66199">
        <ele>33.89</ele>
        <time>2021-03-20T21:38:08Z</time>
      </trkpt>
      <trkpt lat="57.97091" lon="-4.65714">
        <ele>35.39</ele>
        <time>2021-03-20T21:38:13Z</time>
      </trkpt>
      <trkpt lat="57.97106" lon="-4.65618">
        <ele>36.01</ele>
        <time>2021-03-20T21:38:19Z</time>
      </trkpt>
      <trkpt lat="57.97115" lon="-4.65583">
        <ele>36</ele>
        <time>2021-03-20T21:38:24Z</time>
      </trkpt>
      <trkpt lat="57.97131" lon="-4.65536">
        <ele>35.08</ele>
        <time>2021-03-20T21:38:29Z</time>
      </trkpt>
      <trkpt lat="57.9718" lon="-4.65427">
        <ele>32.86</ele>
        <time>2021-03-20T21:38:34Z</time>
      </trkpt>
      <trkpt lat="57.97192" lon="-4.6541">
        <ele>32.65</ele>
        <time>2021-03-20T21:38:40Z</time>
      </trkpt>
      <trkpt lat="57.97224" lon="-4.65371">
        <ele>31.75</ele>
        <time>2021-03-20T21:38:45Z</time>
      </trkpt>
      <trkpt lat="57.97284" lon="-4.65329">
        <ele>30.85</ele>
        <time>2021-03-20T21:38:50Z</time>
      </trkpt>
      <trkpt lat="57.97304" lon="-4.65298">
        <ele>28.97</ele>
        <time>2021-03-20T21:38:55Z</time>
      </trkpt>
      <trkpt lat="57.97333" lon="-4.65219">
        <ele>26.61</ele>
        <time>2021-03-20T21:39:01Z</time>
      </trkpt>
      <trkpt lat="57.97344" lon="-4.65185">
        <ele>24.99</ele>
        <time>2021-03-20T21:39:06Z</time>
      </trkpt>
      <trkpt lat="57.97401" lon="-4.65093">
        <ele>25.71</ele>
        <time>2021-03-20T21:39:11Z</time>
      </trkpt>
      <trkpt lat="57.97428" lon="-4.65036">
        <ele>23.61</ele>
        <time>2021-03-20T21:39:16Z</time>
      </trkpt>
      <trkpt lat="57.97436" lon="-4.65004">
        <ele>20.38</ele>
        <time>2021-03-20T21:39:21Z</time>
      </trkpt>
      <trkpt lat="57.97457" lon="-4.64956">
        <ele>20.61</ele>
        <time>2021-03-20T21:39:27Z</time>
      </trkpt>
      <trkpt lat="57.97468" lon="-4.64908">
        <ele>20.53</ele>
        <time>2021-03-20T21:39:32Z</time>
      </trkpt>
      <trkpt lat="57.97472" lon="-4.6487">
        <ele>19.33</ele>
        <time>2021-03-20T21:39:37Z</time>
      </trkpt>
      <trkpt lat="57.97468" lon="-4.64785">
        <ele>17.2</ele>
        <time>2021-03-20T21:39:42Z</time>
      </trkpt>
      <trkpt lat="57.9747" lon="-4.64761">
        <ele>17.06</ele>
        <time>2021-03-20T21:39:48Z</time>
      </trkpt>
      <trkpt lat="57.97489" lon="-4.64676">
        <ele>16.14</ele>
        <time>2021-03-20T21:39:53Z</time>
      </trkpt>
      <trkpt lat="57.97514" lon="-4.6453">
        <ele>14.61</ele>
        <time>2021-03-20T21:39:58Z</time>
      </trkpt>
      <trkpt lat="57.97533" lon="-4.64472">
        <ele>14.76</ele>
        <time>2021-03-20T21:40:03Z</time>
      </trkpt>
      <trkpt lat="57.97537" lon="-4.6445">
        <ele>14.87</ele>
        <time>2021-03-20T21:40:09Z</time>
      </trkpt>
      <trkpt lat="57.9754" lon="-4.64414">
        <ele>15.28</ele>
        <time>2021-03-20T21:40:14Z</time>
      </trkpt>
      <trkpt lat="57.97538" lon="-4.64368">
        <ele>15.8</ele>
        <time>2021-03-20T21:40:19Z</time>
      </trkpt>
      <trkpt lat="57.9753" lon="-4.64324">
        <ele>14.44</ele>
        <time>2021-03-20T21:40:24Z</time>
      </trkpt>
      <trkpt lat="57.9748" lon="-4.6415">
        <ele>10.99</ele>
        <time>2021-03-20T21:40:29Z</time>
      </trkpt>
      <trkpt lat="57.97474" lon="-4.64121">
        <ele>10.92</ele>
        <time>2021-03-20T21:40:35Z</time>
      </trkpt>
      <trkpt lat="57.97473" lon="-4.6408">
        <ele>11.19</ele>
        <time>2021-03-20T21:40:40Z</time>
      </trkpt>
      <trkpt lat="57.97475" lon="-4.64042">
        <ele>12.5</ele>
        <time>2021-03-20T21:40:45Z</time>
      </trkpt>
      <trkpt lat="57.97487" lon="-4.6395">
        <ele>13.76</ele>
        <time>2021-03-20T21:40:50Z</time>
      </trkpt>
      <trkpt lat="57.9749" lon="-4.63906">
        <ele>14.29</ele>
        <time>2021-03-20T21:40:56Z</time>
      </trkpt>
      <trkpt lat="57.9749" lon="-4.63785">
        <ele>16.87</ele>
        <time>2021-03-20T21:41:01Z</time>
      </trkpt>
      <trkpt lat="57.97474" lon="-4.63274">
        <ele>14.21</ele>
        <time>2021-03-20T21:41:06Z</time>
      </trkpt>
      <trkpt lat="57.97475" lon="-4.63211">
        <ele>14.22</ele>
        <time>2021-03-20T21:41:11Z</time>
      </trkpt>
      <trkpt lat="57.97519" lon="-4.62802">
        <ele>15.77</ele>
        <time>2021-03-20T21:41:17Z</time>
      </trkpt>
      <trkpt lat="57.97526" lon="-4.62587">
        <ele>16.6</ele>
        <time>2021-03-20T21:41:22Z</time>
      </trkpt>
      <trkpt lat="57.97529" lon="-4.62385">
        <ele>17.51</ele>
        <time>2021-03-20T21:41:27Z</time>
      </trkpt>
      <trkpt lat="57.97504" lon="-4.61928">
        <ele>13.89</ele>
        <time>2021-03-20T21:41:32Z</time>
      </trkpt>
      <trkpt lat="57.97508" lon="-4.61669">
        <ele>11.16</ele>
        <time>2021-03-20T21:41:38Z</time>
      </trkpt>
      <trkpt lat="57.97504" lon="-4.61496">
        <ele>10.03</ele>
        <time>2021-03-20T21:41:43Z</time>
      </trkpt>
      <trkpt lat="57.97504" lon="-4.60981">
        <ele>10.09</ele>
        <time>2021-03-20T21:41:48Z</time>
      </trkpt>
      <trkpt lat="57.97468" lon="-4.60498">
        <ele>10.58</ele>
        <time>2021-03-20T21:41:53Z</time>
      </trkpt>
      <trkpt lat="57.97471" lon="-4.60405">
        <ele>9.47</ele>
        <time>2021-03-20T21:41:58Z</time>
      </trkpt>
      <trkpt lat="57.97478" lon="-4.60313">
        <ele>9.01</ele>
        <time>2021-03-20T21:42:04Z</time>
      </trkpt>
      <trkpt lat="57.9749" lon="-4.60096">
        <ele>9.27</ele>
        <time>2021-03-20T21:42:09Z</time>
      </trkpt>
      <trkpt lat="57.97499" lon="-4.60032">
        <ele>9.86</ele>
        <time>2021-03-20T21:42:14Z</time>
      </trkpt>
      <trkpt lat="57.97542" lon="-4.59857">
        <ele>10.35</ele>
        <time>2021-03-20T21:42:19Z</time>
      </trkpt>
      <trkpt lat="57.97582" lon="-4.59702">
        <ele>12.82</ele>
        <time>2021-03-20T21:42:25Z</time>
      </trkpt>
      <trkpt lat="57.97712" lon="-4.5917">
        <ele>11</ele>
        <time>2021-03-20T21:42:30Z</time>
      </trkpt>
      <trkpt lat="57.97723" lon="-4.59145">
        <ele>12.12</ele>
        <time>2021-03-20T21:42:35Z</time>
      </trkpt>
      <trkpt lat="57.97742" lon="-4.59102">
        <ele>14.64</ele>
        <time>2021-03-20T21:42:40Z</time>
      </trkpt>
      <trkpt lat="57.97779" lon="-4.59055">
        <ele>16.07</ele>
        <time>2021-03-20T21:42:46Z</time>
      </trkpt>
      <trkpt lat="57.97864" lon="-4.58989">
        <ele>17.61</ele>
        <time>2021-03-20T21:42:51Z</time>
      </trkpt>
      <trkpt lat="57.98238" lon="-4.58788">
        <ele>14.91</ele>
        <time>2021-03-20T21:42:56Z</time>
      </trkpt>
      <trkpt lat="57.98283" lon="-4.58751">
        <ele>14.85</ele>
        <time>2021-03-20T21:43:01Z</time>
      </trkpt>
      <trkpt lat="57.9829" lon="-4.58742">
        <ele>14.27</ele>
        <time>2021-03-20T21:43:06Z</time>
      </trkpt>
      <trkpt lat="57.98319" lon="-4.58679">
        <ele>10.41</ele>
        <time>2021-03-20T21:43:12Z</time>
      </trkpt>
      <trkpt lat="57.98326" lon="-4.58658">
        <ele>9.28</ele>
        <time>2021-03-20T21:43:17Z</time>
      </trkpt>
      <trkpt lat="57.98352" lon="-4.58531">
        <ele>11.84</ele>
        <time>2021-03-20T21:43:22Z</time>
      </trkpt>
      <trkpt lat="57.98364" lon="-4.58431">
        <ele>17.61</ele>
        <time>2021-03-20T21:43:27Z</time>
      </trkpt>
      <trkpt lat="57.98361" lon="-4.58376">
        <ele>23.41</ele>
        <time>2021-03-20T21:43:33Z</time>
      </trkpt>
      <trkpt lat="57.98344" lon="-4.58326">
        <ele>27.99</ele>
        <time>2021-03-20T21:43:38Z</time>
      </trkpt>
      <trkpt lat="57.98311" lon="-4.5826">
        <ele>32.46</ele>
        <time>2021-03-20T21:43:43Z</time>
      </trkpt>
      <trkpt lat="57.98277" lon="-4.58202">
        <ele>34.71</ele>
        <time>2021-03-20T21:43:48Z</time>
      </trkpt>
      <trkpt lat="57.98257" lon="-4.58154">
        <ele>37.59</ele>
        <time>2021-03-20T21:43:54Z</time>
      </trkpt>
      <trkpt lat="57.98236" lon="-4.58098">
        <ele>40.24</ele>
        <time>2021-03-20T21:43:59Z</time>
      </trkpt>
      <trkpt lat="57.98217" lon="-4.58035">
        <ele>41.37</ele>
        <time>2021-03-20T21:44:04Z</time>
      </trkpt>
      <trkpt lat="57.98197" lon="-4.57983">
        <ele>41.82</ele>
        <time>2021-03-20T21:44:09Z</time>
      </trkpt>
      <trkpt lat="57.98168" lon="-4.57943">
        <ele>42.19</ele>
        <time>2021-03-20T21:44:14Z</time>
      </trkpt>
      <trkpt lat="57.98122" lon="-4.57906">
        <ele>41.35</ele>
        <time>2021-03-20T21:44:20Z</time>
      </trkpt>
      <trkpt lat="57.98092" lon="-4.5785">
        <ele>43.83</ele>
        <time>2021-03-20T21:44:25Z</time>
      </trkpt>
      <trkpt lat="57.98048" lon="-4.57727">
        <ele>47.78</ele>
        <time>2021-03-20T21:44:30Z</time>
      </trkpt>
      <trkpt lat="57.9799" lon="-4.57514">
        <ele>53.78</ele>
        <time>2021-03-20T21:44:35Z</time>
      </trkpt>
      <trkpt lat="57.97969" lon="-4.57355">
        <ele>56.96</ele>
        <time>2021-03-20T21:44:41Z</time>
      </trkpt>
      <trkpt lat="57.97963" lon="-4.57296">
        <ele>57.7</ele>
        <time>2021-03-20T21:44:46Z</time>
      </trkpt>
      <trkpt lat="57.97956" lon="-4.57173">
        <ele>58.31</ele>
        <time>2021-03-20T21:44:51Z</time>
      </trkpt>
      <trkpt lat="57.97946" lon="-4.5706">
        <ele>61.68</ele>
        <time>2021-03-20T21:44:56Z</time>
      </trkpt>
      <trkpt lat="57.97928" lon="-4.56969">
        <ele>66.78</ele>
        <time>2021-03-20T21:45:02Z</time>
      </trkpt>
      <trkpt lat="57.97886" lon="-4.5684">
        <ele>69.68</ele>
        <time>2021-03-20T21:45:07Z</time>
      </trkpt>
      <trkpt lat="57.97867" lon="-4.56792">
        <ele>69.19</ele>
        <time>2021-03-20T21:45:12Z</time>
      </trkpt>
      <trkpt lat="57.9787" lon="-4.56777">
        <ele>69.32</ele>
        <time>2021-03-20T21:45:16Z</time>
      </trkpt>
      <trkpt lat="57.97868" lon="-4.56753">
        <ele>69.23</ele>
        <time>2021-03-20T21:45:19Z</time>
      </trkpt>
      <trkpt lat="57.97847" lon="-4.56668">
        <ele>68.48</ele>
        <time>2021-03-20T21:45:22Z</time>
      </trkpt>
      <trkpt lat="57.97825" lon="-4.56602">
        <ele>71.65</ele>
        <time>2021-03-20T21:45:25Z</time>
      </trkpt>
      <trkpt lat="57.97781" lon="-4.56446">
        <ele>74.38</ele>
        <time>2021-03-20T21:45:29Z</time>
      </trkpt>
      <trkpt lat="57.97769" lon="-4.5639">
        <ele>73.34</ele>
        <time>2021-03-20T21:45:32Z</time>
      </trkpt>
      <trkpt lat="57.97763" lon="-4.5632">
        <ele>72.84</ele>
        <time>2021-03-20T21:45:35Z</time>
      </trkpt>
      <trkpt lat="57.97763" lon="-4.56263">
        <ele>72.04</ele>
        <time>2021-03-20T21:45:39Z</time>
      </trkpt>
      <trkpt lat="57.97768" lon="-4.562">
        <ele>70.96</ele>
        <time>2021-03-20T21:45:42Z</time>
      </trkpt>
      <trkpt lat="57.97771" lon="-4.56122">
        <ele>74.5</ele>
        <time>2021-03-20T21:45:45Z</time>
      </trkpt>
      <trkpt lat="57.97764" lon="-4.5604">
        <ele>78.57</ele>
        <time>2021-03-20T21:45:49Z</time>
      </trkpt>
      <trkpt lat="57.97747" lon="-4.558">
        <ele>84.76</ele>
        <time>2021-03-20T21:45:52Z</time>
      </trkpt>
      <trkpt lat="57.97741" lon="-4.55673">
        <ele>90.28</ele>
        <time>2021-03-20T21:45:55Z</time>
      </trkpt>
      <trkpt lat="57.9775" lon="-4.55532">
        <ele>95.92</ele>
        <time>2021-03-20T21:45:58Z</time>
      </trkpt>
      <trkpt lat="57.97775" lon="-4.5525">
        <ele>100.7</ele>
        <time>2021-03-20T21:46:02Z</time>
      </trkpt>
      <trkpt lat="57.97774" lon="-4.55168">
        <ele>100.86</ele>
        <time>2021-03-20T21:46:05Z</time>
      </trkpt>
      <trkpt lat="57.97769" lon="-4.55094">
        <ele>100.7</ele>
        <time>2021-03-20T21:46:08Z</time>
      </trkpt>
      <trkpt lat="57.97771" lon="-4.5507">
        <ele>100.77</ele>
        <time>2021-03-20T21:46:12Z</time>
      </trkpt>
      <trkpt lat="57.97778" lon="-4.55055">
        <ele>101.04</ele>
        <time>2021-03-20T21:46:15Z</time>
      </trkpt>
      <trkpt lat="57.97826" lon="-4.54998">
        <ele>104.88</ele>
        <time>2021-03-20T21:46:18Z</time>
      </trkpt>
      <trkpt lat="57.97837" lon="-4.54974">
        <ele>105.91</ele>
        <time>2021-03-20T21:46:22Z</time>
      </trkpt>
      <trkpt lat="57.97844" lon="-4.54949">
        <ele>105.96</ele>
        <time>2021-03-20T21:46:25Z</time>
      </trkpt>
      <trkpt lat="57.9785" lon="-4.54903">
        <ele>107.65</ele>
        <time>2021-03-20T21:46:28Z</time>
      </trkpt>
      <trkpt lat="57.97849" lon="-4.54885">
        <ele>107.97</ele>
        <time>2021-03-20T21:46:31Z</time>
      </trkpt>
      <trkpt lat="57.9784" lon="-4.54833">
        <ele>106.75</ele>
        <time>2021-03-20T21:46:35Z</time>
      </trkpt>
      <trkpt lat="57.97838" lon="-4.54805">
        <ele>106.18</ele>
        <time>2021-03-20T21:46:38Z</time>
      </trkpt>
      <trkpt lat="57.97838" lon="-4.54775">
        <ele>106.22</ele>
        <time>2021-03-20T21:46:41Z</time>
      </trkpt>
      <trkpt lat="57.97842" lon="-4.54702">
        <ele>106.11</ele>
        <time>2021-03-20T21:46:45Z</time>
      </trkpt>
      <trkpt lat="57.97839" lon="-4.54674">
        <ele>105.37</ele>
        <time>2021-03-20T21:46:48Z</time>
      </trkpt>
      <trkpt lat="57.97833" lon="-4.54639">
        <ele>105.03</ele>
        <time>2021-03-20T21:46:51Z</time>
      </trkpt>
      <trkpt lat="57.97817" lon="-4.5458">
        <ele>104.83</ele>
        <time>2021-03-20T21:46:54Z</time>
      </trkpt>
      <trkpt lat="57.97807" lon="-4.54516">
        <ele>104.72</ele>
        <time>2021-03-20T21:46:58Z</time>
      </trkpt>
      <trkpt lat="57.97803" lon="-4.5445">
        <ele>106.19</ele>
        <time>2021-03-20T21:47:01Z</time>
      </trkpt>
      <trkpt lat="57.97798" lon="-4.5431">
        <ele>107.57</ele>
        <time>2021-03-20T21:47:04Z</time>
      </trkpt>
      <trkpt lat="57.97796" lon="-4.54099">
        <ele>112.8</ele>
        <time>2021-03-20T21:47:08Z</time>
      </trkpt>
      <trkpt lat="57.97801" lon="-4.54034">
        <ele>114.14</ele>
        <time>2021-03-20T21:47:11Z</time>
      </trkpt>
      <trkpt lat="57.97817" lon="-4.539">
        <ele>116.35</ele>
        <time>2021-03-20T21:47:14Z</time>
      </trkpt>
      <trkpt lat="57.97837" lon="-4.53776">
        <ele>122.61</ele>
        <time>2021-03-20T21:47:18Z</time>
      </trkpt>
      <trkpt lat="57.97898" lon="-4.53531">
        <ele>120.06</ele>
        <time>2021-03-20T21:47:21Z</time>
      </trkpt>
      <trkpt lat="57.97907" lon="-4.53457">
        <ele>119.46</ele>
        <time>2021-03-20T21:47:24Z</time>
      </trkpt>
      <trkpt lat="57.97914" lon="-4.53343">
        <ele>119.84</ele>
        <time>2021-03-20T21:47:27Z</time>
      </trkpt>
      <trkpt lat="57.97917" lon="-4.53261">
        <ele>120.01</ele>
        <time>2021-03-20T21:47:31Z</time>
      </trkpt>
      <trkpt lat="57.97911" lon="-4.532">
        <ele>118.4</ele>
        <time>2021-03-20T21:47:34Z</time>
      </trkpt>
      <trkpt lat="57.979" lon="-4.53127">
        <ele>117.61</ele>
        <time>2021-03-20T21:47:37Z</time>
      </trkpt>
      <trkpt lat="57.97887" lon="-4.53058">
        <ele>117.92</ele>
        <time>2021-03-20T21:47:41Z</time>
      </trkpt>
      <trkpt lat="57.97865" lon="-4.52958">
        <ele>114.62</ele>
        <time>2021-03-20T21:47:44Z</time>
      </trkpt>
      <trkpt lat="57.97858" lon="-4.52937">
        <ele>113.87</ele>
        <time>2021-03-20T21:47:47Z</time>
      </trkpt>
      <trkpt lat="57.97849" lon="-4.5292">
        <ele>113.57</ele>
        <time>2021-03-20T21:47:51Z</time>
      </trkpt>
      <trkpt lat="57.97815" lon="-4.52892">
        <ele>113</ele>
        <time>2021-03-20T21:47:54Z</time>
      </trkpt>
      <trkpt lat="57.97811" lon="-4.5288">
        <ele>113</ele>
        <time>2021-03-20T21:47:57Z</time>
      </trkpt>
      <trkpt lat="57.9781" lon="-4.52844">
        <ele>113.62</ele>
        <time>2021-03-20T21:48:00Z</time>
      </trkpt>
      <trkpt lat="57.97817" lon="-4.52765">
        <ele>115.4</ele>
        <time>2021-03-20T21:48:04Z</time>
      </trkpt>
      <trkpt lat="57.97818" lon="-4.52692">
        <ele>116</ele>
        <time>2021-03-20T21:48:07Z</time>
      </trkpt>
      <trkpt lat="57.97817" lon="-4.52642">
        <ele>116</ele>
        <time>2021-03-20T21:48:10Z</time>
      </trkpt>
      <trkpt lat="57.9779" lon="-4.52391">
        <ele>124.71</ele>
        <time>2021-03-20T21:48:14Z</time>
      </trkpt>
      <trkpt lat="57.97784" lon="-4.52307">
        <ele>127.46</ele>
        <time>2021-03-20T21:48:17Z</time>
      </trkpt>
      <trkpt lat="57.9779" lon="-4.52258">
        <ele>129.59</ele>
        <time>2021-03-20T21:48:20Z</time>
      </trkpt>
      <trkpt lat="57.97819" lon="-4.52175">
        <ele>134.69</ele>
        <time>2021-03-20T21:48:23Z</time>
      </trkpt>
      <trkpt lat="57.97843" lon="-4.52139">
        <ele>136.66</ele>
        <time>2021-03-20T21:48:27Z</time>
      </trkpt>
      <trkpt lat="57.97916" lon="-4.52054">
        <ele>140.92</ele>
        <time>2021-03-20T21:48:30Z</time>
      </trkpt>
      <trkpt lat="57.97927" lon="-4.52034">
        <ele>141</ele>
        <time>2021-03-20T21:48:33Z</time>
      </trkpt>
      <trkpt lat="57.97935" lon="-4.52004">
        <ele>141.56</ele>
        <time>2021-03-20T21:48:37Z</time>
      </trkpt>
      <trkpt lat="57.97938" lon="-4.51961">
        <ele>143.16</ele>
        <time>2021-03-20T21:48:40Z</time>
      </trkpt>
      <trkpt lat="57.97932" lon="-4.51669">
        <ele>151</ele>
        <time>2021-03-20T21:48:43Z</time>
      </trkpt>
      <trkpt lat="57.97922" lon="-4.51507">
        <ele>154.79</ele>
        <time>2021-03-20T21:48:47Z</time>
      </trkpt>
      <trkpt lat="57.97932" lon="-4.51449">
        <ele>156.29</ele>
        <time>2021-03-20T21:48:50Z</time>
      </trkpt>
      <trkpt lat="57.9795" lon="-4.51402">
        <ele>157.53</ele>
        <time>2021-03-20T21:48:53Z</time>
      </trkpt>
      <trkpt lat="57.97978" lon="-4.51283">
        <ele>161.7</ele>
        <time>2021-03-20T21:48:56Z</time>
      </trkpt>
      <trkpt lat="57.97996" lon="-4.51152">
        <ele>164.15</ele>
        <time>2021-03-20T21:49:00Z</time>
      </trkpt>
      <trkpt lat="57.98006" lon="-4.5095">
        <ele>160.59</ele>
        <time>2021-03-20T21:49:03Z</time>
      </trkpt>
      <trkpt lat="57.98032" lon="-4.5083">
        <ele>162.95</ele>
        <time>2021-03-20T21:49:06Z</time>
      </trkpt>
      <trkpt lat="57.98054" lon="-4.50701">
        <ele>163.99</ele>
        <time>2021-03-20T21:49:10Z</time>
      </trkpt>
      <trkpt lat="57.98053" lon="-4.50563">
        <ele>166.08</ele>
        <time>2021-03-20T21:49:13Z</time>
      </trkpt>
      <trkpt lat="57.98027" lon="-4.50363">
        <ele>168.02</ele>
        <time>2021-03-20T21:49:16Z</time>
      </trkpt>
      <trkpt lat="57.98027" lon="-4.50293">
        <ele>169</ele>
        <time>2021-03-20T21:49:20Z</time>
      </trkpt>
      <trkpt lat="57.98048" lon="-4.50174">
        <ele>168.89</ele>
        <time>2021-03-20T21:49:23Z</time>
      </trkpt>
      <trkpt lat="57.98141" lon="-4.49765">
        <ele>171.08</ele>
        <time>2021-03-20T21:49:26Z</time>
      </trkpt>
      <trkpt lat="57.98361" lon="-4.48997">
        <ele>184</ele>
        <time>2021-03-20T21:49:29Z</time>
      </trkpt>
      <trkpt lat="57.9842" lon="-4.4882">
        <ele>182.88</ele>
        <time>2021-03-20T21:49:33Z</time>
      </trkpt>
      <trkpt lat="57.98541" lon="-4.48553">
        <ele>183.56</ele>
        <time>2021-03-20T21:49:36Z</time>
      </trkpt>
      <trkpt lat="57.98582" lon="-4.48436">
        <ele>185.1</ele>
        <time>2021-03-20T21:49:39Z</time>
      </trkpt>
      <trkpt lat="57.986" lon="-4.48305">
        <ele>184.99</ele>
        <time>2021-03-20T21:49:43Z</time>
      </trkpt>
      <trkpt lat="57.98641" lon="-4.47539">
        <ele>178.07</ele>
        <time>2021-03-20T21:49:46Z</time>
      </trkpt>
      <trkpt lat="57.98654" lon="-4.47329">
        <ele>170.35</ele>
        <time>2021-03-20T21:49:49Z</time>
      </trkpt>
      <trkpt lat="57.98656" lon="-4.47189">
        <ele>170.09</ele>
        <time>2021-03-20T21:49:53Z</time>
      </trkpt>
      <trkpt lat="57.98651" lon="-4.47056">
        <ele>169.7</ele>
        <time>2021-03-20T21:49:56Z</time>
      </trkpt>
      <trkpt lat="57.98651" lon="-4.46998">
        <ele>168.67</ele>
        <time>2021-03-20T21:49:59Z</time>
      </trkpt>
      <trkpt lat="57.98658" lon="-4.46956">
        <ele>167.72</ele>
        <time>2021-03-20T21:50:02Z</time>
      </trkpt>
      <trkpt lat="57.98665" lon="-4.46931">
        <ele>167.07</ele>
        <time>2021-03-20T21:50:06Z</time>
      </trkpt>
      <trkpt lat="57.98686" lon="-4.46867">
        <ele>167.71</ele>
        <time>2021-03-20T21:50:09Z</time>
      </trkpt>
      <trkpt lat="57.9871" lon="-4.46833">
        <ele>169.08</ele>
        <time>2021-03-20T21:50:12Z</time>
      </trkpt>
      <trkpt lat="57.98738" lon="-4.46799">
        <ele>170.55</ele>
        <time>2021-03-20T21:50:16Z</time>
      </trkpt>
      <trkpt lat="57.98799" lon="-4.4673">
        <ele>171.21</ele>
        <time>2021-03-20T21:50:19Z</time>
      </trkpt>
      <trkpt lat="57.98862" lon="-4.46652">
        <ele>169.49</ele>
        <time>2021-03-20T21:50:22Z</time>
      </trkpt>
      <trkpt lat="57.98891" lon="-4.46606">
        <ele>169.05</ele>
        <time>2021-03-20T21:50:25Z</time>
      </trkpt>
      <trkpt lat="57.98917" lon="-4.4655">
        <ele>169.9</ele>
        <time>2021-03-20T21:50:29Z</time>
      </trkpt>
      <trkpt lat="57.98959" lon="-4.46432">
        <ele>169.37</ele>
        <time>2021-03-20T21:50:32Z</time>
      </trkpt>
      <trkpt lat="57.98971" lon="-4.46369">
        <ele>167.2</ele>
        <time>2021-03-20T21:50:35Z</time>
      </trkpt>
      <trkpt lat="57.98979" lon="-4.46302">
        <ele>166.05</ele>
        <time>2021-03-20T21:50:39Z</time>
      </trkpt>
      <trkpt lat="57.98992" lon="-4.46238">
        <ele>164.39</ele>
        <time>2021-03-20T21:50:42Z</time>
      </trkpt>
      <trkpt lat="57.99059" lon="-4.46077">
        <ele>162.68</ele>
        <time>2021-03-20T21:50:45Z</time>
      </trkpt>
      <trkpt lat="57.99084" lon="-4.46028">
        <ele>161.02</ele>
        <time>2021-03-20T21:50:49Z</time>
      </trkpt>
      <trkpt lat="57.99112" lon="-4.45986">
        <ele>160.02</ele>
        <time>2021-03-20T21:50:52Z</time>
      </trkpt>
      <trkpt lat="57.99143" lon="-4.45951">
        <ele>157.96</ele>
        <time>2021-03-20T21:50:55Z</time>
      </trkpt>
      <trkpt lat="57.99305" lon="-4.45781">
        <ele>151.2</ele>
        <time>2021-03-20T21:50:58Z</time>
      </trkpt>
      <trkpt lat="57.99361" lon="-4.45692">
        <ele>148.87</ele>
        <time>2021-03-20T21:51:02Z</time>
      </trkpt>
      <trkpt lat="57.99453" lon="-4.45576">
        <ele>140.79</ele>
        <time>2021-03-20T21:51:05Z</time>
      </trkpt>
      <trkpt lat="57.99507" lon="-4.45482">
        <ele>137.35</ele>
        <time>2021-03-20T21:51:08Z</time>
      </trkpt>
      <trkpt lat="57.99601" lon="-4.45278">
        <ele>136.54</ele>
        <time>2021-03-20T21:51:12Z</time>
      </trkpt>
      <trkpt lat="57.9964" lon="-4.45174">
        <ele>134.58</ele>
        <time>2021-03-20T21:51:15Z</time>
      </trkpt>
      <trkpt lat="57.99648" lon="-4.45146">
        <ele>133.59</ele>
        <time>2021-03-20T21:51:18Z</time>
      </trkpt>
      <trkpt lat="57.99654" lon="-4.45118">
        <ele>132.45</ele>
        <time>2021-03-20T21:51:22Z</time>
      </trkpt>
      <trkpt lat="57.99657" lon="-4.45079">
        <ele>131.77</ele>
        <time>2021-03-20T21:51:25Z</time>
      </trkpt>
      <trkpt lat="57.99659" lon="-4.44938">
        <ele>134.96</ele>
        <time>2021-03-20T21:51:28Z</time>
      </trkpt>
      <trkpt lat="57.99665" lon="-4.44822">
        <ele>137</ele>
        <time>2021-03-20T21:51:31Z</time>
      </trkpt>
      <trkpt lat="57.99668" lon="-4.4479">
        <ele>137.09</ele>
        <time>2021-03-20T21:51:35Z</time>
      </trkpt>
      <trkpt lat="57.99672" lon="-4.44769">
        <ele>137.18</ele>
        <time>2021-03-20T21:51:38Z</time>
      </trkpt>
      <trkpt lat="57.9974" lon="-4.44462">
        <ele>141.88</ele>
        <time>2021-03-20T21:51:41Z</time>
      </trkpt>
      <trkpt lat="57.99748" lon="-4.44415">
        <ele>141.89</ele>
        <time>2021-03-20T21:51:45Z</time>
      </trkpt>
      <trkpt lat="57.9983" lon="-4.44051">
        <ele>140</ele>
        <time>2021-03-20T21:51:48Z</time>
      </trkpt>
      <trkpt lat="57.99855" lon="-4.43928">
        <ele>143.33</ele>
        <time>2021-03-20T21:51:51Z</time>
      </trkpt>
      <trkpt lat="57.99864" lon="-4.4387">
        <ele>144.19</ele>
        <time>2021-03-20T21:51:55Z</time>
      </trkpt>
      <trkpt lat="57.99865" lon="-4.43806">
        <ele>143.42</ele>
        <time>2021-03-20T21:51:58Z</time>
      </trkpt>
      <trkpt lat="57.99862" lon="-4.43686">
        <ele>141.68</ele>
        <time>2021-03-20T21:52:01Z</time>
      </trkpt>
      <trkpt lat="57.99872" lon="-4.43572">
        <ele>137.95</ele>
        <time>2021-03-20T21:52:04Z</time>
      </trkpt>
      <trkpt lat="57.99881" lon="-4.43517">
        <ele>138.08</ele>
        <time>2021-03-20T21:52:08Z</time>
      </trkpt>
      <trkpt lat="57.99897" lon="-4.43469">
        <ele>139.79</ele>
        <time>2021-03-20T21:52:11Z</time>
      </trkpt>
      <trkpt lat="57.99919" lon="-4.43433">
        <ele>138.91</ele>
        <time>2021-03-20T21:52:14Z</time>
      </trkpt>
      <trkpt lat="57.99945" lon="-4.43399">
        <ele>137.98</ele>
        <time>2021-03-20T21:52:18Z</time>
      </trkpt>
      <trkpt lat="57.99972" lon="-4.4337">
        <ele>136.33</ele>
        <time>2021-03-20T21:52:21Z</time>
      </trkpt>
      <trkpt lat="58" lon="-4.43351">
        <ele>136.62</ele>
        <time>2021-03-20T21:52:24Z</time>
      </trkpt>
      <trkpt lat="58.00058" lon="-4.43331">
        <ele>138.03</ele>
        <time>2021-03-20T21:52:27Z</time>
      </trkpt>
      <trkpt lat="58.00085" lon="-4.43311">
        <ele>137.69</ele>
        <time>2021-03-20T21:52:31Z</time>
      </trkpt>
      <trkpt lat="58.00133" lon="-4.43253">
        <ele>131.42</ele>
        <time>2021-03-20T21:52:34Z</time>
      </trkpt>
      <trkpt lat="58.00159" lon="-4.43232">
        <ele>127.6</ele>
        <time>2021-03-20T21:52:37Z</time>
      </trkpt>
      <trkpt lat="58.00187" lon="-4.43221">
        <ele>122.99</ele>
        <time>2021-03-20T21:52:41Z</time>
      </trkpt>
      <trkpt lat="58.00216" lon="-4.43202">
        <ele>116.87</ele>
        <time>2021-03-20T21:52:44Z</time>
      </trkpt>
      <trkpt lat="58.00243" lon="-4.43176">
        <ele>109.82</ele>
        <time>2021-03-20T21:52:47Z</time>
      </trkpt>
      <trkpt lat="58.00333" lon="-4.43107">
        <ele>106.85</ele>
        <time>2021-03-20T21:52:51Z</time>
      </trkpt>
      <trkpt lat="58.00366" lon="-4.43076">
        <ele>106.88</ele>
        <time>2021-03-20T21:52:54Z</time>
      </trkpt>
      <trkpt lat="58.00415" lon="-4.43014">
        <ele>106.44</ele>
        <time>2021-03-20T21:52:57Z</time>
      </trkpt>
      <trkpt lat="58.00438" lon="-4.42996">
        <ele>105.86</ele>
        <time>2021-03-20T21:53:00Z</time>
      </trkpt>
      <trkpt lat="58.00491" lon="-4.42992">
        <ele>105.48</ele>
        <time>2021-03-20T21:53:04Z</time>
      </trkpt>
      <trkpt lat="58.00514" lon="-4.42981">
        <ele>105.66</ele>
        <time>2021-03-20T21:53:07Z</time>
      </trkpt>
      <trkpt lat="58.00597" lon="-4.42926">
        <ele>106</ele>
        <time>2021-03-20T21:53:10Z</time>
      </trkpt>
      <trkpt lat="58.00652" lon="-4.42882">
        <ele>106</ele>
        <time>2021-03-20T21:53:14Z</time>
      </trkpt>
      <trkpt lat="58.0067" lon="-4.42852">
        <ele>106.13</ele>
        <time>2021-03-20T21:53:17Z</time>
      </trkpt>
      <trkpt lat="58.00684" lon="-4.42811">
        <ele>106.62</ele>
        <time>2021-03-20T21:53:20Z</time>
      </trkpt>
      <trkpt lat="58.00687" lon="-4.42791">
        <ele>107.15</ele>
        <time>2021-03-20T21:53:24Z</time>
      </trkpt>
      <trkpt lat="58.00689" lon="-4.42757">
        <ele>107.64</ele>
        <time>2021-03-20T21:53:27Z</time>
      </trkpt>
      <trkpt lat="58.00689" lon="-4.42718">
        <ele>107.6</ele>
        <time>2021-03-20T21:53:30Z</time>
      </trkpt>
      <trkpt lat="58.00687" lon="-4.42683">
        <ele>107.56</ele>
        <time>2021-03-20T21:53:33Z</time>
      </trkpt>
      <trkpt lat="58.0068" lon="-4.42632">
        <ele>107.72</ele>
        <time>2021-03-20T21:53:37Z</time>
      </trkpt>
      <trkpt lat="58.00661" lon="-4.42521">
        <ele>110.04</ele>
        <time>2021-03-20T21:53:40Z</time>
      </trkpt>
      <trkpt lat="58.0066" lon="-4.42493">
        <ele>110.93</ele>
        <time>2021-03-20T21:53:43Z</time>
      </trkpt>
      <trkpt lat="58.00662" lon="-4.42463">
        <ele>112.03</ele>
        <time>2021-03-20T21:53:47Z</time>
      </trkpt>
      <trkpt lat="58.00668" lon="-4.42435">
        <ele>113.08</ele>
        <time>2021-03-20T21:53:50Z</time>
      </trkpt>
      <trkpt lat="58.00678" lon="-4.42406">
        <ele>114.18</ele>
        <time>2021-03-20T21:53:53Z</time>
      </trkpt>
      <trkpt lat="58.00867" lon="-4.42021">
        <ele>119.44</ele>
        <time>2021-03-20T21:53:56Z</time>
      </trkpt>
      <trkpt lat="58.00881" lon="-4.41974">
        <ele>120.72</ele>
        <time>2021-03-20T21:54:00Z</time>
      </trkpt>
      <trkpt lat="58.00894" lon="-4.41923">
        <ele>120</ele>
        <time>2021-03-20T21:54:03Z</time>
      </trkpt>
      <trkpt lat="58.00938" lon="-4.41702">
        <ele>118.24</ele>
        <time>2021-03-20T21:54:06Z</time>
      </trkpt>
      <trkpt lat="58.01079" lon="-4.41084">
        <ele>107</ele>
        <time>2021-03-20T21:54:10Z</time>
      </trkpt>
      <trkpt lat="58.01095" lon="-4.40971">
        <ele>106.39</ele>
        <time>2021-03-20T21:54:13Z</time>
      </trkpt>
      <trkpt lat="58.01099" lon="-4.40794">
        <ele>103.75</ele>
        <time>2021-03-20T21:54:16Z</time>
      </trkpt>
      <trkpt lat="58.01094" lon="-4.40586">
        <ele>101.37</ele>
        <time>2021-03-20T21:54:20Z</time>
      </trkpt>
      <trkpt lat="58.01095" lon="-4.40558">
        <ele>100.53</ele>
        <time>2021-03-20T21:54:23Z</time>
      </trkpt>
      <trkpt lat="58.01101" lon="-4.40526">
        <ele>99.54</ele>
        <time>2021-03-20T21:54:26Z</time>
      </trkpt>
      <trkpt lat="58.01123" lon="-4.40429">
        <ele>95.87</ele>
        <time>2021-03-20T21:54:29Z</time>
      </trkpt>
      <trkpt lat="58.01131" lon="-4.40399">
        <ele>94.65</ele>
        <time>2021-03-20T21:54:33Z</time>
      </trkpt>
      <trkpt lat="58.01141" lon="-4.40376">
        <ele>93.55</ele>
        <time>2021-03-20T21:54:36Z</time>
      </trkpt>
      <trkpt lat="58.01168" lon="-4.4034">
        <ele>92.23</ele>
        <time>2021-03-20T21:54:39Z</time>
      </trkpt>
      <trkpt lat="58.01195" lon="-4.40326">
        <ele>91.74</ele>
        <time>2021-03-20T21:54:43Z</time>
      </trkpt>
      <trkpt lat="58.01213" lon="-4.40325">
        <ele>91.01</ele>
        <time>2021-03-20T21:54:46Z</time>
      </trkpt>
      <trkpt lat="58.01234" lon="-4.40334">
        <ele>90.2</ele>
        <time>2021-03-20T21:54:49Z</time>
      </trkpt>
      <trkpt lat="58.01425" lon="-4.40435">
        <ele>87.71</ele>
        <time>2021-03-20T21:54:53Z</time>
      </trkpt>
      <trkpt lat="58.01509" lon="-4.405">
        <ele>88</ele>
        <time>2021-03-20T21:54:56Z</time>
      </trkpt>
      <trkpt lat="58.01674" lon="-4.40648">
        <ele>94.75</ele>
        <time>2021-03-20T21:54:59Z</time>
      </trkpt>
      <trkpt lat="58.01688" lon="-4.40655">
        <ele>94.23</ele>
        <time>2021-03-20T21:55:02Z</time>
      </trkpt>
      <trkpt lat="58.01703" lon="-4.40656">
        <ele>93.4</ele>
        <time>2021-03-20T21:55:06Z</time>
      </trkpt>
      <trkpt lat="58.01719" lon="-4.40651">
        <ele>92.24</ele>
        <time>2021-03-20T21:55:09Z</time>
      </trkpt>
      <trkpt lat="58.01731" lon="-4.40641">
        <ele>92</ele>
        <time>2021-03-20T21:55:12Z</time>
      </trkpt>
      <trkpt lat="58.01746" lon="-4.40618">
        <ele>92.11</ele>
        <time>2021-03-20T21:55:16Z</time>
      </trkpt>
      <trkpt lat="58.01779" lon="-4.40552">
        <ele>88.97</ele>
        <time>2021-03-20T21:55:19Z</time>
      </trkpt>
      <trkpt lat="58.01795" lon="-4.40525">
        <ele>88.28</ele>
        <time>2021-03-20T21:55:22Z</time>
      </trkpt>
      <trkpt lat="58.0181" lon="-4.40508">
        <ele>87.43</ele>
        <time>2021-03-20T21:55:26Z</time>
      </trkpt>
      <trkpt lat="58.01823" lon="-4.40496">
        <ele>87.62</ele>
        <time>2021-03-20T21:55:29Z</time>
      </trkpt>
      <trkpt lat="58.01849" lon="-4.40485">
        <ele>88</ele>
        <time>2021-03-20T21:55:32Z</time>
      </trkpt>
      <trkpt lat="58.01873" lon="-4.40486">
        <ele>88.22</ele>
        <time>2021-03-20T21:55:35Z</time>
      </trkpt>
      <trkpt lat="58.0201" lon="-4.40515">
        <ele>86.54</ele>
        <time>2021-03-20T21:55:39Z</time>
      </trkpt>
      <trkpt lat="58.0202" lon="-4.40507">
        <ele>86.27</ele>
        <time>2021-03-20T21:55:42Z</time>
      </trkpt>
      <trkpt lat="58.02026" lon="-4.40499">
        <ele>86</ele>
        <time>2021-03-20T21:55:45Z</time>
      </trkpt>
      <trkpt lat="58.02031" lon="-4.40485">
        <ele>85.89</ele>
        <time>2021-03-20T21:55:49Z</time>
      </trkpt>
      <trkpt lat="58.02047" lon="-4.40399">
        <ele>86.96</ele>
        <time>2021-03-20T21:55:52Z</time>
      </trkpt>
      <trkpt lat="58.02136" lon="-4.4042">
        <ele>86.76</ele>
        <time>2021-03-20T21:56:01Z</time>
      </trkpt>
      <trkpt lat="58.02156" lon="-4.40417">
        <ele>86.38</ele>
        <time>2021-03-20T21:56:10Z</time>
      </trkpt>
      <trkpt lat="58.02185" lon="-4.40403">
        <ele>86.49</ele>
        <time>2021-03-20T21:56:19Z</time>
      </trkpt>
      <trkpt lat="58.02219" lon="-4.40381">
        <ele>87.03</ele>
        <time>2021-03-20T21:56:27Z</time>
      </trkpt>
      <trkpt lat="58.02265" lon="-4.40343">
        <ele>86.45</ele>
        <time>2021-03-20T21:56:36Z</time>
      </trkpt>
      <trkpt lat="58.02427" lon="-4.40201">
        <ele>86.29</ele>
        <time>2021-03-20T21:56:45Z</time>
      </trkpt>
      <trkpt lat="58.0241" lon="-4.40116">
        <ele>88.94</ele>
        <time>2021-03-20T21:56:52Z</time>
      </trkpt>
      <trkpt lat="58.02398" lon="-4.40032">
        <ele>91.3</ele>
        <time>2021-03-20T21:56:58Z</time>
      </trkpt>
      <trkpt lat="58.02379" lon="-4.3994">
        <ele>93.37</ele>
        <time>2021-03-20T21:57:04Z</time>
      </trkpt>
      <trkpt lat="58.0243" lon="-4.39898">
        <ele>94.43</ele>
        <time>2021-03-20T21:57:08Z</time>
      </trkpt>
      <trkpt lat="58.02455" lon="-4.39868">
        <ele>96.64</ele>
        <time>2021-03-20T21:57:12Z</time>
      </trkpt>
      <trkpt lat="58.02468" lon="-4.39865">
        <ele>97.59</ele>
        <time>2021-03-20T21:57:16Z</time>
      </trkpt>
      <trkpt lat="58.02475" lon="-4.39868">
        <ele>97.77</ele>
        <time>2021-03-20T21:57:20Z</time>
      </trkpt>
      <trkpt lat="58.02484" lon="-4.39885">
        <ele>97.52</ele>
        <time>2021-03-20T21:57:24Z</time>
      </trkpt>
      <trkpt lat="58.0251" lon="-4.39988">
        <ele>96.72</ele>
        <time>2021-03-20T21:57:28Z</time>
      </trkpt>
      <trkpt lat="58.02539" lon="-4.40015">
        <ele>96.91</ele>
        <time>2021-03-20T21:57:35Z</time>
      </trkpt>
      <trkpt lat="58.02539" lon="-4.40015">
        <ele>96.91</ele>
        <time>2021-03-20T21:57:35Z</time>
      </trkpt>
      <trkpt lat="58.0251" lon="-4.39988">
        <ele>96.72</ele>
        <time>2021-03-20T21:57:43Z</time>
      </trkpt>
      <trkpt lat="58.02484" lon="-4.39885">
        <ele>97.52</ele>
        <time>2021-03-20T21:57:47Z</time>
      </trkpt>
      <trkpt lat="58.02475" lon="-4.39868">
        <ele>97.77</ele>
        <time>2021-03-20T21:57:51Z</time>
      </trkpt>
      <trkpt lat="58.02468" lon="-4.39865">
        <ele>97.59</ele>
        <time>2021-03-20T21:57:55Z</time>
      </trkpt>
      <trkpt lat="58.02455" lon="-4.39868">
        <ele>96.64</ele>
        <time>2021-03-20T21:57:59Z</time>
      </trkpt>
      <trkpt lat="58.0243" lon="-4.39898">
        <ele>94.43</ele>
        <time>2021-03-20T21:58:02Z</time>
      </trkpt>
      <trkpt lat="58.02379" lon="-4.3994">
        <ele>93.37</ele>
        <time>2021-03-20T21:58:06Z</time>
      </trkpt>
      <trkpt lat="58.02398" lon="-4.40032">
        <ele>91.3</ele>
        <time>2021-03-20T21:58:13Z</time>
      </trkpt>
      <trkpt lat="58.0241" lon="-4.40116">
        <ele>88.94</ele>
        <time>2021-03-20T21:58:19Z</time>
      </trkpt>
      <trkpt lat="58.02427" lon="-4.40201">
        <ele>86.29</ele>
        <time>2021-03-20T21:58:26Z</time>
      </trkpt>
      <trkpt lat="58.02455" lon="-4.40184">
        <ele>85.72</ele>
        <time>2021-03-20T21:58:31Z</time>
      </trkpt>
      <trkpt lat="58.02513" lon="-4.40162">
        <ele>86.73</ele>
        <time>2021-03-20T21:58:36Z</time>
      </trkpt>
      <trkpt lat="58.02624" lon="-4.40139">
        <ele>87</ele>
        <time>2021-03-20T21:58:41Z</time>
      </trkpt>
      <trkpt lat="58.02636" lon="-4.40139">
        <ele>87.01</ele>
        <time>2021-03-20T21:58:46Z</time>
      </trkpt>
      <trkpt lat="58.02645" lon="-4.40143">
        <ele>87.28</ele>
        <time>2021-03-20T21:58:51Z</time>
      </trkpt>
      <trkpt lat="58.02653" lon="-4.40153">
        <ele>87.52</ele>
        <time>2021-03-20T21:58:56Z</time>
      </trkpt>
      <trkpt lat="58.0266" lon="-4.40167">
        <ele>87.49</ele>
        <time>2021-03-20T21:59:01Z</time>
      </trkpt>
      <trkpt lat="58.02671" lon="-4.40204">
        <ele>88.14</ele>
        <time>2021-03-20T21:59:06Z</time>
      </trkpt>
      <trkpt lat="58.02687" lon="-4.40278">
        <ele>88.75</ele>
        <time>2021-03-20T21:59:11Z</time>
      </trkpt>
      <trkpt lat="58.02705" lon="-4.40322">
        <ele>88.74</ele>
        <time>2021-03-20T21:59:16Z</time>
      </trkpt>
      <trkpt lat="58.02771" lon="-4.40432">
        <ele>89.94</ele>
        <time>2021-03-20T21:59:21Z</time>
      </trkpt>
      <trkpt lat="58.0279" lon="-4.4048">
        <ele>90.16</ele>
        <time>2021-03-20T21:59:27Z</time>
      </trkpt>
      <trkpt lat="58.02802" lon="-4.4052">
        <ele>90.79</ele>
        <time>2021-03-20T21:59:32Z</time>
      </trkpt>
      <trkpt lat="58.02814" lon="-4.4058">
        <ele>91.68</ele>
        <time>2021-03-20T21:59:37Z</time>
      </trkpt>
      <trkpt lat="58.02847" lon="-4.40774">
        <ele>91.13</ele>
        <time>2021-03-20T21:59:42Z</time>
      </trkpt>
      <trkpt lat="58.02856" lon="-4.40814">
        <ele>90.31</ele>
        <time>2021-03-20T21:59:47Z</time>
      </trkpt>
      <trkpt lat="58.02867" lon="-4.40854">
        <ele>89.89</ele>
        <time>2021-03-20T21:59:52Z</time>
      </trkpt>
      <trkpt lat="58.029" lon="-4.4094">
        <ele>91.77</ele>
        <time>2021-03-20T21:59:57Z</time>
      </trkpt>
      <trkpt lat="58.03015" lon="-4.41163">
        <ele>100.12</ele>
        <time>2021-03-20T22:00:02Z</time>
      </trkpt>
      <trkpt lat="58.03037" lon="-4.41212">
        <ele>100.45</ele>
        <time>2021-03-20T22:00:07Z</time>
      </trkpt>
      <trkpt lat="58.03058" lon="-4.41295">
        <ele>100.58</ele>
        <time>2021-03-20T22:00:12Z</time>
      </trkpt>
      <trkpt lat="58.03082" lon="-4.41461">
        <ele>100.23</ele>
        <time>2021-03-20T22:00:17Z</time>
      </trkpt>
      <trkpt lat="58.03105" lon="-4.41533">
        <ele>99.76</ele>
        <time>2021-03-20T22:00:22Z</time>
      </trkpt>
      <trkpt lat="58.0316" lon="-4.41652">
        <ele>98.58</ele>
        <time>2021-03-20T22:00:27Z</time>
      </trkpt>
      <trkpt lat="58.03176" lon="-4.41692">
        <ele>99.51</ele>
        <time>2021-03-20T22:00:33Z</time>
      </trkpt>
      <trkpt lat="58.03203" lon="-4.41826">
        <ele>101.28</ele>
        <time>2021-03-20T22:00:38Z</time>
      </trkpt>
      <trkpt lat="58.03216" lon="-4.41882">
        <ele>100.23</ele>
        <time>2021-03-20T22:00:43Z</time>
      </trkpt>
      <trkpt lat="58.03235" lon="-4.41926">
        <ele>99.75</ele>
        <time>2021-03-20T22:00:48Z</time>
      </trkpt>
      <trkpt lat="58.03385" lon="-4.42142">
        <ele>100.48</ele>
        <time>2021-03-20T22:00:53Z</time>
      </trkpt>
      <trkpt lat="58.0342" lon="-4.42186">
        <ele>99.93</ele>
        <time>2021-03-20T22:00:58Z</time>
      </trkpt>
      <trkpt lat="58.03462" lon="-4.42225">
        <ele>102.14</ele>
        <time>2021-03-20T22:01:03Z</time>
      </trkpt>
      <trkpt lat="58.03526" lon="-4.42276">
        <ele>104.93</ele>
        <time>2021-03-20T22:01:08Z</time>
      </trkpt>
      <trkpt lat="58.03563" lon="-4.42314">
        <ele>105</ele>
        <time>2021-03-20T22:01:13Z</time>
      </trkpt>
      <trkpt lat="58.03615" lon="-4.42356">
        <ele>105.11</ele>
        <time>2021-03-20T22:01:18Z</time>
      </trkpt>
      <trkpt lat="58.03671" lon="-4.42408">
        <ele>105.88</ele>
        <time>2021-03-20T22:01:23Z</time>
      </trkpt>
      <trkpt lat="58.03766" lon="-4.42469">
        <ele>103.39</ele>
        <time>2021-03-20T22:01:28Z</time>
      </trkpt>
      <trkpt lat="58.03837" lon="-4.42499">
        <ele>105.26</ele>
        <time>2021-03-20T22:01:33Z</time>
      </trkpt>
      <trkpt lat="58.03865" lon="-4.42507">
        <ele>106.44</ele>
        <time>2021-03-20T22:01:38Z</time>
      </trkpt>
      <trkpt lat="58.03907" lon="-4.42501">
        <ele>107.96</ele>
        <time>2021-03-20T22:01:44Z</time>
      </trkpt>
      <trkpt lat="58.04101" lon="-4.42455">
        <ele>106.6</ele>
        <time>2021-03-20T22:01:49Z</time>
      </trkpt>
      <trkpt lat="58.04258" lon="-4.42412">
        <ele>107.18</ele>
        <time>2021-03-20T22:01:54Z</time>
      </trkpt>
      <trkpt lat="58.04324" lon="-4.4239">
        <ele>107.22</ele>
        <time>2021-03-20T22:01:59Z</time>
      </trkpt>
      <trkpt lat="58.04376" lon="-4.42367">
        <ele>110.16</ele>
        <time>2021-03-20T22:02:04Z</time>
      </trkpt>
      <trkpt lat="58.04502" lon="-4.42279">
        <ele>110.11</ele>
        <time>2021-03-20T22:02:09Z</time>
      </trkpt>
      <trkpt lat="58.04548" lon="-4.42255">
        <ele>110.19</ele>
        <time>2021-03-20T22:02:14Z</time>
      </trkpt>
      <trkpt lat="58.04645" lon="-4.42216">
        <ele>111.58</ele>
        <time>2021-03-20T22:02:19Z</time>
      </trkpt>
      <trkpt lat="58.04733" lon="-4.42185">
        <ele>107.56</ele>
        <time>2021-03-20T22:02:24Z</time>
      </trkpt>
      <trkpt lat="58.04954" lon="-4.42112">
        <ele>97.99</ele>
        <time>2021-03-20T22:02:29Z</time>
      </trkpt>
      <trkpt lat="58.05459" lon="-4.41954">
        <ele>99.5</ele>
        <time>2021-03-20T22:02:34Z</time>
      </trkpt>
      <trkpt lat="58.05562" lon="-4.41917">
        <ele>100</ele>
        <time>2021-03-20T22:02:39Z</time>
      </trkpt>
      <trkpt lat="58.05578" lon="-4.42179">
        <ele>95.91</ele>
        <time>2021-03-20T22:02:47Z</time>
      </trkpt>
      <trkpt lat="58.05592" lon="-4.42369">
        <ele>95</ele>
        <time>2021-03-20T22:02:55Z</time>
      </trkpt>
      <trkpt lat="58.056" lon="-4.42435">
        <ele>95</ele>
        <time>2021-03-20T22:03:03Z</time>
      </trkpt>
      <trkpt lat="58.05685" lon="-4.42888">
        <ele>98.38</ele>
        <time>2021-03-20T22:03:10Z</time>
      </trkpt>
      <trkpt lat="58.05702" lon="-4.42958">
        <ele>96.51</ele>
        <time>2021-03-20T22:03:18Z</time>
      </trkpt>
      <trkpt lat="58.05802" lon="-4.43158">
        <ele>96.78</ele>
        <time>2021-03-20T22:03:26Z</time>
      </trkpt>
      <trkpt lat="58.05828" lon="-4.43237">
        <ele>97.37</ele>
        <time>2021-03-20T22:03:34Z</time>
      </trkpt>
      <trkpt lat="58.05829" lon="-4.43256">
        <ele>97</ele>
        <time>2021-03-20T22:03:41Z</time>
      </trkpt>
      <trkpt lat="58.05821" lon="-4.43282">
        <ele>97</ele>
        <time>2021-03-20T22:03:49Z</time>
      </trkpt>
      <trkpt lat="58.05692" lon="-4.43436">
        <ele>94.9</ele>
        <time>2021-03-20T22:03:57Z</time>
      </trkpt>
      <trkpt lat="58.05675" lon="-4.43475">
        <ele>95.36</ele>
        <time>2021-03-20T22:04:05Z</time>
      </trkpt>
      <trkpt lat="58.05662" lon="-4.43519">
        <ele>95.82</ele>
        <time>2021-03-20T22:04:13Z</time>
      </trkpt>
      <trkpt lat="58.0565" lon="-4.43615">
        <ele>95.06</ele>
        <time>2021-03-20T22:04:20Z</time>
      </trkpt>
      <trkpt lat="58.05644" lon="-4.43705">
        <ele>96</ele>
        <time>2021-03-20T22:04:28Z</time>
      </trkpt>
      <trkpt lat="58.05648" lon="-4.43775">
        <ele>96</ele>
        <time>2021-03-20T22:04:36Z</time>
      </trkpt>
      <trkpt lat="58.05667" lon="-4.43844">
        <ele>95.62</ele>
        <time>2021-03-20T22:04:44Z</time>
      </trkpt>
      <trkpt lat="58.05711" lon="-4.43923">
        <ele>96.6</ele>
        <time>2021-03-20T22:04:51Z</time>
      </trkpt>
      <trkpt lat="58.05922" lon="-4.44258">
        <ele>101.18</ele>
        <time>2021-03-20T22:04:59Z</time>
      </trkpt>
      <trkpt lat="58.06038" lon="-4.44422">
        <ele>102.35</ele>
        <time>2021-03-20T22:05:07Z</time>
      </trkpt>
      <trkpt lat="58.06351" lon="-4.44762">
        <ele>106.58</ele>
        <time>2021-03-20T22:05:15Z</time>
      </trkpt>
      <trkpt lat="58.06507" lon="-4.4494">
        <ele>107.09</ele>
        <time>2021-03-20T22:05:22Z</time>
      </trkpt>
      <trkpt lat="58.06671" lon="-4.45181">
        <ele>105.14</ele>
        <time>2021-03-20T22:05:30Z</time>
      </trkpt>
      <trkpt lat="58.06813" lon="-4.45407">
        <ele>104.01</ele>
        <time>2021-03-20T22:05:38Z</time>
      </trkpt>
      <trkpt lat="58.06969" lon="-4.4567">
        <ele>101.54</ele>
        <time>2021-03-20T22:05:46Z</time>
      </trkpt>
      <trkpt lat="58.07106" lon="-4.45907">
        <ele>103.21</ele>
        <time>2021-03-20T22:05:54Z</time>
      </trkpt>
      <trkpt lat="58.07154" lon="-4.45979">
        <ele>104.3</ele>
        <time>2021-03-20T22:06:01Z</time>
      </trkpt>
      <trkpt lat="58.0726" lon="-4.46094">
        <ele>106.36</ele>
        <time>2021-03-20T22:06:09Z</time>
      </trkpt>
      <trkpt lat="58.0736" lon="-4.46233">
        <ele>106.13</ele>
        <time>2021-03-20T22:06:17Z</time>
      </trkpt>
      <trkpt lat="58.07417" lon="-4.46383">
        <ele>104.43</ele>
        <time>2021-03-20T22:06:25Z</time>
      </trkpt>
      <trkpt lat="58.07444" lon="-4.46449">
        <ele>101.56</ele>
        <time>2021-03-20T22:06:32Z</time>
      </trkpt>
      <trkpt lat="58.07494" lon="-4.46523">
        <ele>100.72</ele>
        <time>2021-03-20T22:06:40Z</time>
      </trkpt>
      <trkpt lat="58.07652" lon="-4.46837">
        <ele>96.88</ele>
        <time>2021-03-20T22:06:48Z</time>
      </trkpt>
      <trkpt lat="58.07751" lon="-4.46962">
        <ele>96.36</ele>
        <time>2021-03-20T22:06:56Z</time>
      </trkpt>
      <trkpt lat="58.07863" lon="-4.47092">
        <ele>94.05</ele>
        <time>2021-03-20T22:07:03Z</time>
      </trkpt>
      <trkpt lat="58.07965" lon="-4.47167">
        <ele>94.75</ele>
        <time>2021-03-20T22:07:11Z</time>
      </trkpt>
      <trkpt lat="58.08259" lon="-4.47498">
        <ele>97.74</ele>
        <time>2021-03-20T22:07:19Z</time>
      </trkpt>
      <trkpt lat="58.08368" lon="-4.47657">
        <ele>100.84</ele>
        <time>2021-03-20T22:07:27Z</time>
      </trkpt>
      <trkpt lat="58.08894" lon="-4.48168">
        <ele>103.89</ele>
        <time>2021-03-20T22:07:34Z</time>
      </trkpt>
      <trkpt lat="58.09085" lon="-4.48438">
        <ele>98.34</ele>
        <time>2021-03-20T22:07:42Z</time>
      </trkpt>
      <trkpt lat="58.09222" lon="-4.48672">
        <ele>97.75</ele>
        <time>2021-03-20T22:07:50Z</time>
      </trkpt>
      <trkpt lat="58.09303" lon="-4.48799">
        <ele>97.32</ele>
        <time>2021-03-20T22:07:58Z</time>
      </trkpt>
      <trkpt lat="58.09439" lon="-4.48924">
        <ele>98.56</ele>
        <time>2021-03-20T22:08:06Z</time>
      </trkpt>
      <trkpt lat="58.09547" lon="-4.49038">
        <ele>99.68</ele>
        <time>2021-03-20T22:08:13Z</time>
      </trkpt>
      <trkpt lat="58.09593" lon="-4.49067">
        <ele>101.79</ele>
        <time>2021-03-20T22:08:21Z</time>
      </trkpt>
      <trkpt lat="58.09671" lon="-4.49085">
        <ele>103.24</ele>
        <time>2021-03-20T22:08:29Z</time>
      </trkpt>
      <trkpt lat="58.09716" lon="-4.49113">
        <ele>105.34</ele>
        <time>2021-03-20T22:08:37Z</time>
      </trkpt>
      <trkpt lat="58.09766" lon="-4.49156">
        <ele>104.24</ele>
        <time>2021-03-20T22:08:44Z</time>
      </trkpt>
      <trkpt lat="58.0989" lon="-4.4931">
        <ele>106.95</ele>
        <time>2021-03-20T22:08:52Z</time>
      </trkpt>
      <trkpt lat="58.10098" lon="-4.49574">
        <ele>107.87</ele>
        <time>2021-03-20T22:09:00Z</time>
      </trkpt>
      <trkpt lat="58.10245" lon="-4.49784">
        <ele>109.77</ele>
        <time>2021-03-20T22:09:08Z</time>
      </trkpt>
      <trkpt lat="58.10394" lon="-4.50014">
        <ele>113.01</ele>
        <time>2021-03-20T22:09:15Z</time>
      </trkpt>
      <trkpt lat="58.10537" lon="-4.5026">
        <ele>119.47</ele>
        <time>2021-03-20T22:09:23Z</time>
      </trkpt>
      <trkpt lat="58.1102" lon="-4.51124">
        <ele>128.97</ele>
        <time>2021-03-20T22:09:31Z</time>
      </trkpt>
      <trkpt lat="58.11183" lon="-4.51406">
        <ele>132.51</ele>
        <time>2021-03-20T22:09:39Z</time>
      </trkpt>
      <trkpt lat="58.11366" lon="-4.5167">
        <ele>134.89</ele>
        <time>2021-03-20T22:09:47Z</time>
      </trkpt>
      <trkpt lat="58.1155" lon="-4.51895">
        <ele>138.8</ele>
        <time>2021-03-20T22:09:54Z</time>
      </trkpt>
      <trkpt lat="58.11729" lon="-4.52137">
        <ele>141.32</ele>
        <time>2021-03-20T22:10:02Z</time>
      </trkpt>
      <trkpt lat="58.11871" lon="-4.52283">
        <ele>142.66</ele>
        <time>2021-03-20T22:10:10Z</time>
      </trkpt>
      <trkpt lat="58.12209" lon="-4.5282">
        <ele>150.27</ele>
        <time>2021-03-20T22:10:18Z</time>
      </trkpt>
      <trkpt lat="58.12275" lon="-4.52959">
        <ele>155.5</ele>
        <time>2021-03-20T22:10:25Z</time>
      </trkpt>
      <trkpt lat="58.12366" lon="-4.53174">
        <ele>159.39</ele>
        <time>2021-03-20T22:10:33Z</time>
      </trkpt>
      <trkpt lat="58.12564" lon="-4.53597">
        <ele>158.32</ele>
        <time>2021-03-20T22:10:41Z</time>
      </trkpt>
      <trkpt lat="58.12808" lon="-4.54008">
        <ele>151.76</ele>
        <time>2021-03-20T22:10:49Z</time>
      </trkpt>
      <trkpt lat="58.13139" lon="-4.54371">
        <ele>145.65</ele>
        <time>2021-03-20T22:10:56Z</time>
      </trkpt>
      <trkpt lat="58.13473" lon="-4.54812">
        <ele>145.04</ele>
        <time>2021-03-20T22:11:04Z</time>
      </trkpt>
      <trkpt lat="58.13545" lon="-4.54936">
        <ele>145.81</ele>
        <time>2021-03-20T22:11:12Z</time>
      </trkpt>
      <trkpt lat="58.13596" lon="-4.55054">
        <ele>143.49</ele>
        <time>2021-03-20T22:11:20Z</time>
      </trkpt>
      <trkpt lat="58.1363" lon="-4.55195">
        <ele>141.99</ele>
        <time>2021-03-20T22:11:28Z</time>
      </trkpt>
      <trkpt lat="58.13858" lon="-4.55771">
        <ele>132.75</ele>
        <time>2021-03-20T22:11:35Z</time>
      </trkpt>
      <trkpt lat="58.14069" lon="-4.5627">
        <ele>127.65</ele>
        <time>2021-03-20T22:11:43Z</time>
      </trkpt>
      <trkpt lat="58.14112" lon="-4.56408">
        <ele>125</ele>
        <time>2021-03-20T22:11:51Z</time>
      </trkpt>
      <trkpt lat="58.14144" lon="-4.56569">
        <ele>123.72</ele>
        <time>2021-03-20T22:11:59Z</time>
      </trkpt>
      <trkpt lat="58.14192" lon="-4.56869">
        <ele>122</ele>
        <time>2021-03-20T22:12:06Z</time>
      </trkpt>
      <trkpt lat="58.14182" lon="-4.57332">
        <ele>124</ele>
        <time>2021-03-20T22:12:14Z</time>
      </trkpt>
      <trkpt lat="58.1415" lon="-4.57788">
        <ele>117.18</ele>
        <time>2021-03-20T22:12:22Z</time>
      </trkpt>
      <trkpt lat="58.14107" lon="-4.58358">
        <ele>109.85</ele>
        <time>2021-03-20T22:12:30Z</time>
      </trkpt>
      <trkpt lat="58.14101" lon="-4.58495">
        <ele>110.27</ele>
        <time>2021-03-20T22:12:37Z</time>
      </trkpt>
      <trkpt lat="58.14108" lon="-4.58637">
        <ele>107.82</ele>
        <time>2021-03-20T22:12:45Z</time>
      </trkpt>
      <trkpt lat="58.14151" lon="-4.58879">
        <ele>105.87</ele>
        <time>2021-03-20T22:12:53Z</time>
      </trkpt>
      <trkpt lat="58.14198" lon="-4.59189">
        <ele>103.46</ele>
        <time>2021-03-20T22:13:01Z</time>
      </trkpt>
      <trkpt lat="58.14216" lon="-4.59433">
        <ele>102.37</ele>
        <time>2021-03-20T22:13:08Z</time>
      </trkpt>
      <trkpt lat="58.14236" lon="-4.59546">
        <ele>100.78</ele>
        <time>2021-03-20T22:13:16Z</time>
      </trkpt>
      <trkpt lat="58.14287" lon="-4.59661">
        <ele>98.04</ele>
        <time>2021-03-20T22:13:24Z</time>
      </trkpt>
      <trkpt lat="58.14367" lon="-4.59771">
        <ele>101.81</ele>
        <time>2021-03-20T22:13:32Z</time>
      </trkpt>
      <trkpt lat="58.14433" lon="-4.59873">
        <ele>99.07</ele>
        <time>2021-03-20T22:13:40Z</time>
      </trkpt>
      <trkpt lat="58.14466" lon="-4.5995">
        <ele>99.08</ele>
        <time>2021-03-20T22:13:47Z</time>
      </trkpt>
      <trkpt lat="58.14535" lon="-4.60178">
        <ele>97.39</ele>
        <time>2021-03-20T22:13:55Z</time>
      </trkpt>
      <trkpt lat="58.14599" lon="-4.60427">
        <ele>96.93</ele>
        <time>2021-03-20T22:14:03Z</time>
      </trkpt>
      <trkpt lat="58.14612" lon="-4.60519">
        <ele>95.32</ele>
        <time>2021-03-20T22:14:11Z</time>
      </trkpt>
      <trkpt lat="58.14607" lon="-4.60583">
        <ele>94.32</ele>
        <time>2021-03-20T22:14:18Z</time>
      </trkpt>
      <trkpt lat="58.14587" lon="-4.60762">
        <ele>97.05</ele>
        <time>2021-03-20T22:14:26Z</time>
      </trkpt>
      <trkpt lat="58.14584" lon="-4.60836">
        <ele>97.12</ele>
        <time>2021-03-20T22:14:34Z</time>
      </trkpt>
      <trkpt lat="58.14592" lon="-4.60914">
        <ele>98</ele>
        <time>2021-03-20T22:14:42Z</time>
      </trkpt>
      <trkpt lat="58.14637" lon="-4.61226">
        <ele>102.3</ele>
        <time>2021-03-20T22:14:49Z</time>
      </trkpt>
      <trkpt lat="58.14708" lon="-4.6185">
        <ele>103.89</ele>
        <time>2021-03-20T22:14:57Z</time>
      </trkpt>
      <trkpt lat="58.14761" lon="-4.62202">
        <ele>103.33</ele>
        <time>2021-03-20T22:15:05Z</time>
      </trkpt>
      <trkpt lat="58.14783" lon="-4.62462">
        <ele>101.41</ele>
        <time>2021-03-20T22:15:13Z</time>
      </trkpt>
      <trkpt lat="58.14942" lon="-4.63357">
        <ele>103.96</ele>
        <time>2021-03-20T22:15:21Z</time>
      </trkpt>
      <trkpt lat="58.15179" lon="-4.64094">
        <ele>101.19</ele>
        <time>2021-03-20T22:15:28Z</time>
      </trkpt>
      <trkpt lat="58.15432" lon="-4.64779">
        <ele>103.77</ele>
        <time>2021-03-20T22:15:36Z</time>
      </trkpt>
      <trkpt lat="58.1555" lon="-4.65247">
        <ele>99.55</ele>
        <time>2021-03-20T22:15:44Z</time>
      </trkpt>
      <trkpt lat="58.15794" lon="-4.65964">
        <ele>105.21</ele>
        <time>2021-03-20T22:15:52Z</time>
      </trkpt>
      <trkpt lat="58.15951" lon="-4.66163">
        <ele>104.57</ele>
        <time>2021-03-20T22:15:59Z</time>
      </trkpt>
      <trkpt lat="58.16225" lon="-4.66572">
        <ele>108.68</ele>
        <time>2021-03-20T22:16:07Z</time>
      </trkpt>
      <trkpt lat="58.16283" lon="-4.66729">
        <ele>111.4</ele>
        <time>2021-03-20T22:16:15Z</time>
      </trkpt>
      <trkpt lat="58.16363" lon="-4.67215">
        <ele>115.1</ele>
        <time>2021-03-20T22:16:23Z</time>
      </trkpt>
      <trkpt lat="58.16445" lon="-4.67705">
        <ele>110.63</ele>
        <time>2021-03-20T22:16:30Z</time>
      </trkpt>
      <trkpt lat="58.16592" lon="-4.6814">
        <ele>113.59</ele>
        <time>2021-03-20T22:16:38Z</time>
      </trkpt>
      <trkpt lat="58.16702" lon="-4.68573">
        <ele>115.94</ele>
        <time>2021-03-20T22:16:46Z</time>
      </trkpt>
      <trkpt lat="58.16889" lon="-4.69005">
        <ele>115.82</ele>
        <time>2021-03-20T22:16:54Z</time>
      </trkpt>
      <trkpt lat="58.16941" lon="-4.6916">
        <ele>117.79</ele>
        <time>2021-03-20T22:17:01Z</time>
      </trkpt>
      <trkpt lat="58.16977" lon="-4.69316">
        <ele>118.12</ele>
        <time>2021-03-20T22:17:09Z</time>
      </trkpt>
      <trkpt lat="58.17013" lon="-4.69445">
        <ele>115.89</ele>
        <time>2021-03-20T22:17:17Z</time>
      </trkpt>
      <trkpt lat="58.17036" lon="-4.69673">
        <ele>114.68</ele>
        <time>2021-03-20T22:17:25Z</time>
      </trkpt>
      <trkpt lat="58.17131" lon="-4.69921">
        <ele>116.31</ele>
        <time>2021-03-20T22:17:33Z</time>
      </trkpt>
      <trkpt lat="58.17148" lon="-4.70021">
        <ele>115.66</ele>
        <time>2021-03-20T22:17:40Z</time>
      </trkpt>
      <trkpt lat="58.17266" lon="-4.70548">
        <ele>125.13</ele>
        <time>2021-03-20T22:17:48Z</time>
      </trkpt>
      <trkpt lat="58.17354" lon="-4.70772">
        <ele>122.69</ele>
        <time>2021-03-20T22:17:56Z</time>
      </trkpt>
      <trkpt lat="58.17388" lon="-4.7088">
        <ele>122.94</ele>
        <time>2021-03-20T22:18:04Z</time>
      </trkpt>
      <trkpt lat="58.17487" lon="-4.71154">
        <ele>119.99</ele>
        <time>2021-03-20T22:18:11Z</time>
      </trkpt>
      <trkpt lat="58.17597" lon="-4.71293">
        <ele>118.46</ele>
        <time>2021-03-20T22:18:19Z</time>
      </trkpt>
      <trkpt lat="58.1783" lon="-4.7157">
        <ele>120.63</ele>
        <time>2021-03-20T22:18:27Z</time>
      </trkpt>
      <trkpt lat="58.17928" lon="-4.71663">
        <ele>119.55</ele>
        <time>2021-03-20T22:18:35Z</time>
      </trkpt>
      <trkpt lat="58.17979" lon="-4.71707">
        <ele>122.24</ele>
        <time>2021-03-20T22:18:42Z</time>
      </trkpt>
      <trkpt lat="58.18066" lon="-4.71757">
        <ele>124.36</ele>
        <time>2021-03-20T22:18:50Z</time>
      </trkpt>
      <trkpt lat="58.18666" lon="-4.72404">
        <ele>129.88</ele>
        <time>2021-03-20T22:18:58Z</time>
      </trkpt>
      <trkpt lat="58.18796" lon="-4.72476">
        <ele>125.71</ele>
        <time>2021-03-20T22:19:06Z</time>
      </trkpt>
      <trkpt lat="58.18885" lon="-4.72539">
        <ele>121.17</ele>
        <time>2021-03-20T22:19:14Z</time>
      </trkpt>
      <trkpt lat="58.18925" lon="-4.72589">
        <ele>121.64</ele>
        <time>2021-03-20T22:19:21Z</time>
      </trkpt>
      <trkpt lat="58.18964" lon="-4.72683">
        <ele>119.83</ele>
        <time>2021-03-20T22:19:29Z</time>
      </trkpt>
      <trkpt lat="58.19026" lon="-4.72783">
        <ele>115.74</ele>
        <time>2021-03-20T22:19:37Z</time>
      </trkpt>
      <trkpt lat="58.19205" lon="-4.73056">
        <ele>112.72</ele>
        <time>2021-03-20T22:19:45Z</time>
      </trkpt>
      <trkpt lat="58.19274" lon="-4.73144">
        <ele>108.47</ele>
        <time>2021-03-20T22:19:52Z</time>
      </trkpt>
      <trkpt lat="58.19343" lon="-4.7321">
        <ele>105.67</ele>
        <time>2021-03-20T22:20:00Z</time>
      </trkpt>
      <trkpt lat="58.19431" lon="-4.73265">
        <ele>104.9</ele>
        <time>2021-03-20T22:20:08Z</time>
      </trkpt>
      <trkpt lat="58.19616" lon="-4.73362">
        <ele>102.09</ele>
        <time>2021-03-20T22:20:16Z</time>
      </trkpt>
      <trkpt lat="58.1969" lon="-4.73396">
        <ele>101</ele>
        <time>2021-03-20T22:20:23Z</time>
      </trkpt>
      <trkpt lat="58.19874" lon="-4.7346">
        <ele>101.68</ele>
        <time>2021-03-20T22:20:31Z</time>
      </trkpt>
      <trkpt lat="58.20043" lon="-4.73491">
        <ele>102.68</ele>
        <time>2021-03-20T22:20:39Z</time>
      </trkpt>
      <trkpt lat="58.20202" lon="-4.73555">
        <ele>101.51</ele>
        <time>2021-03-20T22:20:47Z</time>
      </trkpt>
      <trkpt lat="58.20358" lon="-4.73655">
        <ele>99.44</ele>
        <time>2021-03-20T22:20:55Z</time>
      </trkpt>
      <trkpt lat="58.20442" lon="-4.73682">
        <ele>98.41</ele>
        <time>2021-03-20T22:21:02Z</time>
      </trkpt>
      <trkpt lat="58.20542" lon="-4.73693">
        <ele>99.14</ele>
        <time>2021-03-20T22:21:10Z</time>
      </trkpt>
      <trkpt lat="58.20673" lon="-4.73701">
        <ele>101.76</ele>
        <time>2021-03-20T22:21:18Z</time>
      </trkpt>
      <trkpt lat="58.20729" lon="-4.73691">
        <ele>102.11</ele>
        <time>2021-03-20T22:21:26Z</time>
      </trkpt>
      <trkpt lat="58.2078" lon="-4.73655">
        <ele>103.64</ele>
        <time>2021-03-20T22:21:33Z</time>
      </trkpt>
      <trkpt lat="58.20906" lon="-4.73547">
        <ele>102.63</ele>
        <time>2021-03-20T22:21:41Z</time>
      </trkpt>
      <trkpt lat="58.21201" lon="-4.73278">
        <ele>105.48</ele>
        <time>2021-03-20T22:21:49Z</time>
      </trkpt>
      <trkpt lat="58.21319" lon="-4.73153">
        <ele>104.22</ele>
        <time>2021-03-20T22:21:57Z</time>
      </trkpt>
      <trkpt lat="58.21402" lon="-4.731">
        <ele>104.24</ele>
        <time>2021-03-20T22:22:04Z</time>
      </trkpt>
      <trkpt lat="58.21448" lon="-4.73049">
        <ele>105.64</ele>
        <time>2021-03-20T22:22:12Z</time>
      </trkpt>
      <trkpt lat="58.21596" lon="-4.72975">
        <ele>104.5</ele>
        <time>2021-03-20T22:22:20Z</time>
      </trkpt>
      <trkpt lat="58.21721" lon="-4.7288">
        <ele>107.67</ele>
        <time>2021-03-20T22:22:28Z</time>
      </trkpt>
      <trkpt lat="58.21772" lon="-4.72816">
        <ele>107.9</ele>
        <time>2021-03-20T22:22:35Z</time>
      </trkpt>
      <trkpt lat="58.21814" lon="-4.72755">
        <ele>108.81</ele>
        <time>2021-03-20T22:22:43Z</time>
      </trkpt>
      <trkpt lat="58.21844" lon="-4.72722">
        <ele>108.31</ele>
        <time>2021-03-20T22:22:51Z</time>
      </trkpt>
      <trkpt lat="58.22123" lon="-4.72496">
        <ele>114.77</ele>
        <time>2021-03-20T22:22:59Z</time>
      </trkpt>
      <trkpt lat="58.22211" lon="-4.72415">
        <ele>118.89</ele>
        <time>2021-03-20T22:23:07Z</time>
      </trkpt>
      <trkpt lat="58.22264" lon="-4.72384">
        <ele>119.58</ele>
        <time>2021-03-20T22:23:14Z</time>
      </trkpt>
      <trkpt lat="58.22361" lon="-4.72363">
        <ele>121.93</ele>
        <time>2021-03-20T22:23:22Z</time>
      </trkpt>
      <trkpt lat="58.22408" lon="-4.72366">
        <ele>121.74</ele>
        <time>2021-03-20T22:23:30Z</time>
      </trkpt>
      <trkpt lat="58.22508" lon="-4.72393">
        <ele>117.74</ele>
        <time>2021-03-20T22:23:38Z</time>
      </trkpt>
      <trkpt lat="58.22654" lon="-4.72437">
        <ele>116.12</ele>
        <time>2021-03-20T22:23:45Z</time>
      </trkpt>
      <trkpt lat="58.2271" lon="-4.72467">
        <ele>118.49</ele>
        <time>2021-03-20T22:23:53Z</time>
      </trkpt>
      <trkpt lat="58.22945" lon="-4.72619">
        <ele>124.71</ele>
        <time>2021-03-20T22:24:01Z</time>
      </trkpt>
      <trkpt lat="58.23325" lon="-4.72915">
        <ele>124.51</ele>
        <time>2021-03-20T22:24:09Z</time>
      </trkpt>
      <trkpt lat="58.23724" lon="-4.73219">
        <ele>125.36</ele>
        <time>2021-03-20T22:24:16Z</time>
      </trkpt>
      <trkpt lat="58.23797" lon="-4.73278">
        <ele>126.65</ele>
        <time>2021-03-20T22:24:24Z</time>
      </trkpt>
      <trkpt lat="58.24036" lon="-4.73505">
        <ele>125.13</ele>
        <time>2021-03-20T22:24:32Z</time>
      </trkpt>
      <trkpt lat="58.24188" lon="-4.73691">
        <ele>123.55</ele>
        <time>2021-03-20T22:24:40Z</time>
      </trkpt>
      <trkpt lat="58.24382" lon="-4.73908">
        <ele>120.66</ele>
        <time>2021-03-20T22:24:48Z</time>
      </trkpt>
      <trkpt lat="58.24527" lon="-4.74091">
        <ele>121.36</ele>
        <time>2021-03-20T22:24:55Z</time>
      </trkpt>
      <trkpt lat="58.24554" lon="-4.74112">
        <ele>121.81</ele>
        <time>2021-03-20T22:25:03Z</time>
      </trkpt>
      <trkpt lat="58.24609" lon="-4.74135">
        <ele>121.48</ele>
        <time>2021-03-20T22:25:11Z</time>
      </trkpt>
      <trkpt lat="58.24642" lon="-4.74161">
        <ele>121.01</ele>
        <time>2021-03-20T22:25:19Z</time>
      </trkpt>
      <trkpt lat="58.24684" lon="-4.74209">
        <ele>121.81</ele>
        <time>2021-03-20T22:25:26Z</time>
      </trkpt>
      <trkpt lat="58.2485" lon="-4.74436">
        <ele>123.54</ele>
        <time>2021-03-20T22:25:34Z</time>
      </trkpt>
      <trkpt lat="58.24989" lon="-4.74592">
        <ele>121.17</ele>
        <time>2021-03-20T22:25:42Z</time>
      </trkpt>
      <trkpt lat="58.25076" lon="-4.74675">
        <ele>120.11</ele>
        <time>2021-03-20T22:25:50Z</time>
      </trkpt>
      <trkpt lat="58.25118" lon="-4.74733">
        <ele>119.72</ele>
        <time>2021-03-20T22:25:57Z</time>
      </trkpt>
      <trkpt lat="58.25206" lon="-4.74873">
        <ele>118.39</ele>
        <time>2021-03-20T22:26:05Z</time>
      </trkpt>
      <trkpt lat="58.25347" lon="-4.75156">
        <ele>118.84</ele>
        <time>2021-03-20T22:26:13Z</time>
      </trkpt>
      <trkpt lat="58.25492" lon="-4.75416">
        <ele>117.46</ele>
        <time>2021-03-20T22:26:21Z</time>
      </trkpt>
      <trkpt lat="58.25515" lon="-4.75473">
        <ele>117.1</ele>
        <time>2021-03-20T22:26:28Z</time>
      </trkpt>
      <trkpt lat="58.25523" lon="-4.75512">
        <ele>117.65</ele>
        <time>2021-03-20T22:26:36Z</time>
      </trkpt>
      <trkpt lat="58.2554" lon="-4.75741">
        <ele>120.58</ele>
        <time>2021-03-20T22:26:44Z</time>
      </trkpt>
      <trkpt lat="58.2557" lon="-4.76405">
        <ele>119.7</ele>
        <time>2021-03-20T22:26:52Z</time>
      </trkpt>
      <trkpt lat="58.2558" lon="-4.76527">
        <ele>123.14</ele>
        <time>2021-03-20T22:27:00Z</time>
      </trkpt>
      <trkpt lat="58.25675" lon="-4.77064">
        <ele>117.39</ele>
        <time>2021-03-20T22:27:07Z</time>
      </trkpt>
      <trkpt lat="58.25706" lon="-4.77375">
        <ele>117.41</ele>
        <time>2021-03-20T22:27:15Z</time>
      </trkpt>
      <trkpt lat="58.25775" lon="-4.77656">
        <ele>118.05</ele>
        <time>2021-03-20T22:27:23Z</time>
      </trkpt>
      <trkpt lat="58.25806" lon="-4.77874">
        <ele>123.15</ele>
        <time>2021-03-20T22:27:31Z</time>
      </trkpt>
      <trkpt lat="58.25806" lon="-4.78024">
        <ele>125.86</ele>
        <time>2021-03-20T22:27:38Z</time>
      </trkpt>
      <trkpt lat="58.25784" lon="-4.78227">
        <ele>130.15</ele>
        <time>2021-03-20T22:27:46Z</time>
      </trkpt>
      <trkpt lat="58.25716" lon="-4.78723">
        <ele>140.79</ele>
        <time>2021-03-20T22:27:54Z</time>
      </trkpt>
      <trkpt lat="58.25685" lon="-4.78969">
        <ele>145.28</ele>
        <time>2021-03-20T22:28:02Z</time>
      </trkpt>
      <trkpt lat="58.25685" lon="-4.79033">
        <ele>144.31</ele>
        <time>2021-03-20T22:28:09Z</time>
      </trkpt>
      <trkpt lat="58.25731" lon="-4.79531">
        <ele>135.58</ele>
        <time>2021-03-20T22:28:17Z</time>
      </trkpt>
      <trkpt lat="58.25757" lon="-4.79775">
        <ele>133.07</ele>
        <time>2021-03-20T22:28:25Z</time>
      </trkpt>
      <trkpt lat="58.25791" lon="-4.80011">
        <ele>130.01</ele>
        <time>2021-03-20T22:28:33Z</time>
      </trkpt>
      <trkpt lat="58.25817" lon="-4.80184">
        <ele>128.07</ele>
        <time>2021-03-20T22:28:41Z</time>
      </trkpt>
      <trkpt lat="58.25866" lon="-4.80452">
        <ele>123.27</ele>
        <time>2021-03-20T22:28:48Z</time>
      </trkpt>
      <trkpt lat="58.25891" lon="-4.80542">
        <ele>122.33</ele>
        <time>2021-03-20T22:28:56Z</time>
      </trkpt>
      <trkpt lat="58.25946" lon="-4.80722">
        <ele>117.28</ele>
        <time>2021-03-20T22:29:04Z</time>
      </trkpt>
      <trkpt lat="58.25982" lon="-4.8083">
        <ele>113.96</ele>
        <time>2021-03-20T22:29:12Z</time>
      </trkpt>
      <trkpt lat="58.26015" lon="-4.80959">
        <ele>110.12</ele>
        <time>2021-03-20T22:29:19Z</time>
      </trkpt>
      <trkpt lat="58.26099" lon="-4.81234">
        <ele>103.81</ele>
        <time>2021-03-20T22:29:27Z</time>
      </trkpt>
      <trkpt lat="58.26133" lon="-4.8132">
        <ele>99.55</ele>
        <time>2021-03-20T22:29:35Z</time>
      </trkpt>
      <trkpt lat="58.26176" lon="-4.81385">
        <ele>98.15</ele>
        <time>2021-03-20T22:29:43Z</time>
      </trkpt>
      <trkpt lat="58.26234" lon="-4.81464">
        <ele>92.64</ele>
        <time>2021-03-20T22:29:50Z</time>
      </trkpt>
      <trkpt lat="58.26375" lon="-4.81618">
        <ele>80.84</ele>
        <time>2021-03-20T22:29:58Z</time>
      </trkpt>
      <trkpt lat="58.26443" lon="-4.81671">
        <ele>76.5</ele>
        <time>2021-03-20T22:30:06Z</time>
      </trkpt>
      <trkpt lat="58.26635" lon="-4.81782">
        <ele>59.87</ele>
        <time>2021-03-20T22:30:14Z</time>
      </trkpt>
      <trkpt lat="58.26728" lon="-4.81878">
        <ele>54.62</ele>
        <time>2021-03-20T22:30:21Z</time>
      </trkpt>
      <trkpt lat="58.26792" lon="-4.81923">
        <ele>52.72</ele>
        <time>2021-03-20T22:30:29Z</time>
      </trkpt>
      <trkpt lat="58.26825" lon="-4.81938">
        <ele>52.78</ele>
        <time>2021-03-20T22:30:37Z</time>
      </trkpt>
      <trkpt lat="58.26876" lon="-4.81953">
        <ele>52.21</ele>
        <time>2021-03-20T22:30:45Z</time>
      </trkpt>
      <trkpt lat="58.27027" lon="-4.81985">
        <ele>49.49</ele>
        <time>2021-03-20T22:30:53Z</time>
      </trkpt>
      <trkpt lat="58.27148" lon="-4.82003">
        <ele>48.71</ele>
        <time>2021-03-20T22:31:00Z</time>
      </trkpt>
      <trkpt lat="58.27215" lon="-4.82056">
        <ele>48.03</ele>
        <time>2021-03-20T22:31:08Z</time>
      </trkpt>
      <trkpt lat="58.27346" lon="-4.82207">
        <ele>50.78</ele>
        <time>2021-03-20T22:31:16Z</time>
      </trkpt>
      <trkpt lat="58.27459" lon="-4.82312">
        <ele>47.3</ele>
        <time>2021-03-20T22:31:24Z</time>
      </trkpt>
      <trkpt lat="58.27533" lon="-4.82418">
        <ele>47.54</ele>
        <time>2021-03-20T22:31:31Z</time>
      </trkpt>
      <trkpt lat="58.27592" lon="-4.8252">
        <ele>48.11</ele>
        <time>2021-03-20T22:31:39Z</time>
      </trkpt>
      <trkpt lat="58.27676" lon="-4.82681">
        <ele>50.21</ele>
        <time>2021-03-20T22:31:47Z</time>
      </trkpt>
      <trkpt lat="58.27817" lon="-4.82872">
        <ele>49.79</ele>
        <time>2021-03-20T22:31:55Z</time>
      </trkpt>
      <trkpt lat="58.27938" lon="-4.83026">
        <ele>48.65</ele>
        <time>2021-03-20T22:32:02Z</time>
      </trkpt>
      <trkpt lat="58.28001" lon="-4.83122">
        <ele>48.98</ele>
        <time>2021-03-20T22:32:10Z</time>
      </trkpt>
      <trkpt lat="58.28091" lon="-4.83353">
        <ele>49.81</ele>
        <time>2021-03-20T22:32:18Z</time>
      </trkpt>
      <trkpt lat="58.28252" lon="-4.83734">
        <ele>48.9</ele>
        <time>2021-03-20T22:32:26Z</time>
      </trkpt>
      <trkpt lat="58.28366" lon="-4.83965">
        <ele>49.74</ele>
        <time>2021-03-20T22:32:34Z</time>
      </trkpt>
      <trkpt lat="58.28457" lon="-4.84176">
        <ele>51.79</ele>
        <time>2021-03-20T22:32:41Z</time>
      </trkpt>
      <trkpt lat="58.28502" lon="-4.84323">
        <ele>50.88</ele>
        <time>2021-03-20T22:32:49Z</time>
      </trkpt>
      <trkpt lat="58.28537" lon="-4.84418">
        <ele>53.55</ele>
        <time>2021-03-20T22:32:57Z</time>
      </trkpt>
      <trkpt lat="58.28667" lon="-4.84727">
        <ele>53.76</ele>
        <time>2021-03-20T22:33:05Z</time>
      </trkpt>
      <trkpt lat="58.2878" lon="-4.85011">
        <ele>58.09</ele>
        <time>2021-03-20T22:33:12Z</time>
      </trkpt>
      <trkpt lat="58.28858" lon="-4.85242">
        <ele>58.55</ele>
        <time>2021-03-20T22:33:20Z</time>
      </trkpt>
      <trkpt lat="58.29025" lon="-4.85779">
        <ele>51.72</ele>
        <time>2021-03-20T22:33:28Z</time>
      </trkpt>
      <trkpt lat="58.29093" lon="-4.85986">
        <ele>51.17</ele>
        <time>2021-03-20T22:33:36Z</time>
      </trkpt>
      <trkpt lat="58.29157" lon="-4.86153">
        <ele>50.7</ele>
        <time>2021-03-20T22:33:43Z</time>
      </trkpt>
      <trkpt lat="58.29188" lon="-4.86256">
        <ele>50.19</ele>
        <time>2021-03-20T22:33:51Z</time>
      </trkpt>
      <trkpt lat="58.29211" lon="-4.86365">
        <ele>49.54</ele>
        <time>2021-03-20T22:33:59Z</time>
      </trkpt>
      <trkpt lat="58.29256" lon="-4.86502">
        <ele>46.73</ele>
        <time>2021-03-20T22:34:07Z</time>
      </trkpt>
      <trkpt lat="58.29346" lon="-4.86713">
        <ele>47.01</ele>
        <time>2021-03-20T22:34:15Z</time>
      </trkpt>
      <trkpt lat="58.29409" lon="-4.86906">
        <ele>44.43</ele>
        <time>2021-03-20T22:34:22Z</time>
      </trkpt>
      <trkpt lat="58.29453" lon="-4.87008">
        <ele>46.46</ele>
        <time>2021-03-20T22:34:30Z</time>
      </trkpt>
      <trkpt lat="58.29487" lon="-4.87112">
        <ele>47.46</ele>
        <time>2021-03-20T22:34:38Z</time>
      </trkpt>
      <trkpt lat="58.29554" lon="-4.87331">
        <ele>48.37</ele>
        <time>2021-03-20T22:34:46Z</time>
      </trkpt>
      <trkpt lat="58.2978" lon="-4.88162">
        <ele>48.37</ele>
        <time>2021-03-20T22:34:53Z</time>
      </trkpt>
      <trkpt lat="58.29881" lon="-4.88539">
        <ele>47.9</ele>
        <time>2021-03-20T22:35:01Z</time>
      </trkpt>
      <trkpt lat="58.29918" lon="-4.88686">
        <ele>46.28</ele>
        <time>2021-03-20T22:35:09Z</time>
      </trkpt>
      <trkpt lat="58.29976" lon="-4.88863">
        <ele>44.7</ele>
        <time>2021-03-20T22:35:17Z</time>
      </trkpt>
      <trkpt lat="58.30178" lon="-4.89466">
        <ele>46.17</ele>
        <time>2021-03-20T22:35:24Z</time>
      </trkpt>
      <trkpt lat="58.30257" lon="-4.89718">
        <ele>46.53</ele>
        <time>2021-03-20T22:35:32Z</time>
      </trkpt>
      <trkpt lat="58.30323" lon="-4.89995">
        <ele>45.6</ele>
        <time>2021-03-20T22:35:40Z</time>
      </trkpt>
      <trkpt lat="58.30374" lon="-4.90185">
        <ele>44.19</ele>
        <time>2021-03-20T22:35:48Z</time>
      </trkpt>
      <trkpt lat="58.30405" lon="-4.90279">
        <ele>43.88</ele>
        <time>2021-03-20T22:35:55Z</time>
      </trkpt>
      <trkpt lat="58.30439" lon="-4.90371">
        <ele>43.72</ele>
        <time>2021-03-20T22:36:03Z</time>
      </trkpt>
      <trkpt lat="58.30523" lon="-4.90583">
        <ele>47.28</ele>
        <time>2021-03-20T22:36:11Z</time>
      </trkpt>
      <trkpt lat="58.30641" lon="-4.90845">
        <ele>43.72</ele>
        <time>2021-03-20T22:36:19Z</time>
      </trkpt>
      <trkpt lat="58.30806" lon="-4.91183">
        <ele>43.56</ele>
        <time>2021-03-20T22:36:27Z</time>
      </trkpt>
      <trkpt lat="58.31014" lon="-4.91551">
        <ele>46.43</ele>
        <time>2021-03-20T22:36:34Z</time>
      </trkpt>
      <trkpt lat="58.31037" lon="-4.91575">
        <ele>45.69</ele>
        <time>2021-03-20T22:36:42Z</time>
      </trkpt>
      <trkpt lat="58.31067" lon="-4.91599">
        <ele>46</ele>
        <time>2021-03-20T22:36:50Z</time>
      </trkpt>
      <trkpt lat="58.31088" lon="-4.91607">
        <ele>46.15</ele>
        <time>2021-03-20T22:36:58Z</time>
      </trkpt>
      <trkpt lat="58.31104" lon="-4.91608">
        <ele>46.74</ele>
        <time>2021-03-20T22:37:05Z</time>
      </trkpt>
      <trkpt lat="58.31122" lon="-4.916">
        <ele>47.8</ele>
        <time>2021-03-20T22:37:13Z</time>
      </trkpt>
      <trkpt lat="58.31147" lon="-4.91583">
        <ele>49</ele>
        <time>2021-03-20T22:37:21Z</time>
      </trkpt>
      <trkpt lat="58.31167" lon="-4.91563">
        <ele>48.28</ele>
        <time>2021-03-20T22:37:29Z</time>
      </trkpt>
      <trkpt lat="58.31357" lon="-4.91333">
        <ele>42.84</ele>
        <time>2021-03-20T22:37:36Z</time>
      </trkpt>
      <trkpt lat="58.31536" lon="-4.91231">
        <ele>41.31</ele>
        <time>2021-03-20T22:37:44Z</time>
      </trkpt>
      <trkpt lat="58.31633" lon="-4.91126">
        <ele>39.54</ele>
        <time>2021-03-20T22:37:52Z</time>
      </trkpt>
      <trkpt lat="58.31737" lon="-4.9101">
        <ele>40.07</ele>
        <time>2021-03-20T22:38:00Z</time>
      </trkpt>
      <trkpt lat="58.31748" lon="-4.90994">
        <ele>39.91</ele>
        <time>2021-03-20T22:38:08Z</time>
      </trkpt>
      <trkpt lat="58.31773" lon="-4.90979">
        <ele>41</ele>
        <time>2021-03-20T22:38:15Z</time>
      </trkpt>
      <trkpt lat="58.31857" lon="-4.90964">
        <ele>40.4</ele>
        <time>2021-03-20T22:38:23Z</time>
      </trkpt>
      <trkpt lat="58.32026" lon="-4.90998">
        <ele>38.85</ele>
        <time>2021-03-20T22:38:31Z</time>
      </trkpt>
      <trkpt lat="58.32119" lon="-4.91036">
        <ele>40.57</ele>
        <time>2021-03-20T22:38:39Z</time>
      </trkpt>
      <trkpt lat="58.32461" lon="-4.91283">
        <ele>50.12</ele>
        <time>2021-03-20T22:38:46Z</time>
      </trkpt>
      <trkpt lat="58.32538" lon="-4.91334">
        <ele>49.03</ele>
        <time>2021-03-20T22:38:54Z</time>
      </trkpt>
      <trkpt lat="58.3282" lon="-4.9154">
        <ele>64.79</ele>
        <time>2021-03-20T22:39:02Z</time>
      </trkpt>
      <trkpt lat="58.32928" lon="-4.91745">
        <ele>65.51</ele>
        <time>2021-03-20T22:39:10Z</time>
      </trkpt>
      <trkpt lat="58.33042" lon="-4.91797">
        <ele>57.56</ele>
        <time>2021-03-20T22:39:17Z</time>
      </trkpt>
      <trkpt lat="58.33066" lon="-4.91836">
        <ele>56.02</ele>
        <time>2021-03-20T22:39:25Z</time>
      </trkpt>
      <trkpt lat="58.33076" lon="-4.91894">
        <ele>56.18</ele>
        <time>2021-03-20T22:39:33Z</time>
      </trkpt>
      <trkpt lat="58.33081" lon="-4.92">
        <ele>53.84</ele>
        <time>2021-03-20T22:39:41Z</time>
      </trkpt>
      <trkpt lat="58.33114" lon="-4.92131">
        <ele>50.53</ele>
        <time>2021-03-20T22:39:48Z</time>
      </trkpt>
      <trkpt lat="58.33145" lon="-4.92212">
        <ele>48.35</ele>
        <time>2021-03-20T22:39:56Z</time>
      </trkpt>
      <trkpt lat="58.3319" lon="-4.92294">
        <ele>49.4</ele>
        <time>2021-03-20T22:40:04Z</time>
      </trkpt>
      <trkpt lat="58.3322" lon="-4.92393">
        <ele>54.13</ele>
        <time>2021-03-20T22:40:12Z</time>
      </trkpt>
      <trkpt lat="58.33314" lon="-4.92633">
        <ele>47.65</ele>
        <time>2021-03-20T22:40:20Z</time>
      </trkpt>
      <trkpt lat="58.3337" lon="-4.92751">
        <ele>45.31</ele>
        <time>2021-03-20T22:40:27Z</time>
      </trkpt>
      <trkpt lat="58.33426" lon="-4.92883">
        <ele>42.33</ele>
        <time>2021-03-20T22:40:35Z</time>
      </trkpt>
      <trkpt lat="58.33511" lon="-4.92985">
        <ele>44.58</ele>
        <time>2021-03-20T22:40:43Z</time>
      </trkpt>
      <trkpt lat="58.33584" lon="-4.93179">
        <ele>44.26</ele>
        <time>2021-03-20T22:40:51Z</time>
      </trkpt>
      <trkpt lat="58.33665" lon="-4.93296">
        <ele>44.34</ele>
        <time>2021-03-20T22:40:58Z</time>
      </trkpt>
      <trkpt lat="58.33718" lon="-4.93419">
        <ele>46.06</ele>
        <time>2021-03-20T22:41:06Z</time>
      </trkpt>
      <trkpt lat="58.33781" lon="-4.9364">
        <ele>45.49</ele>
        <time>2021-03-20T22:41:14Z</time>
      </trkpt>
      <trkpt lat="58.33824" lon="-4.93765">
        <ele>47.8</ele>
        <time>2021-03-20T22:41:22Z</time>
      </trkpt>
      <trkpt lat="58.33878" lon="-4.93895">
        <ele>46.04</ele>
        <time>2021-03-20T22:41:29Z</time>
      </trkpt>
      <trkpt lat="58.33912" lon="-4.94005">
        <ele>46.43</ele>
        <time>2021-03-20T22:41:37Z</time>
      </trkpt>
      <trkpt lat="58.33952" lon="-4.94085">
        <ele>46.51</ele>
        <time>2021-03-20T22:41:45Z</time>
      </trkpt>
      <trkpt lat="58.34003" lon="-4.94261">
        <ele>46.43</ele>
        <time>2021-03-20T22:41:53Z</time>
      </trkpt>
      <trkpt lat="58.34062" lon="-4.94368">
        <ele>43.1</ele>
        <time>2021-03-20T22:42:01Z</time>
      </trkpt>
      <trkpt lat="58.34113" lon="-4.94501">
        <ele>41.95</ele>
        <time>2021-03-20T22:42:08Z</time>
      </trkpt>
      <trkpt lat="58.34172" lon="-4.94611">
        <ele>40.67</ele>
        <time>2021-03-20T22:42:16Z</time>
      </trkpt>
      <trkpt lat="58.34226" lon="-4.94756">
        <ele>41.84</ele>
        <time>2021-03-20T22:42:24Z</time>
      </trkpt>
      <trkpt lat="58.34278" lon="-4.95076">
        <ele>43.46</ele>
        <time>2021-03-20T22:42:32Z</time>
      </trkpt>
      <trkpt lat="58.34309" lon="-4.95206">
        <ele>44.24</ele>
        <time>2021-03-20T22:42:39Z</time>
      </trkpt>
      <trkpt lat="58.34414" lon="-4.95538">
        <ele>45.58</ele>
        <time>2021-03-20T22:42:47Z</time>
      </trkpt>
      <trkpt lat="58.34474" lon="-4.95717">
        <ele>40.88</ele>
        <time>2021-03-20T22:42:55Z</time>
      </trkpt>
      <trkpt lat="58.3454" lon="-4.95867">
        <ele>43.46</ele>
        <time>2021-03-20T22:43:03Z</time>
      </trkpt>
      <trkpt lat="58.34754" lon="-4.96562">
        <ele>45.77</ele>
        <time>2021-03-20T22:43:10Z</time>
      </trkpt>
      <trkpt lat="58.34764" lon="-4.96608">
        <ele>44.96</ele>
        <time>2021-03-20T22:43:18Z</time>
      </trkpt>
      <trkpt lat="58.34808" lon="-4.96719">
        <ele>43.6</ele>
        <time>2021-03-20T22:43:26Z</time>
      </trkpt>
      <trkpt lat="58.34945" lon="-4.96955">
        <ele>41.71</ele>
        <time>2021-03-20T22:43:34Z</time>
      </trkpt>
      <trkpt lat="58.35132" lon="-4.97266">
        <ele>44.68</ele>
        <time>2021-03-20T22:43:41Z</time>
      </trkpt>
      <trkpt lat="58.35546" lon="-4.97945">
        <ele>40.4</ele>
        <time>2021-03-20T22:43:49Z</time>
      </trkpt>
      <trkpt lat="58.35647" lon="-4.9812">
        <ele>40.49</ele>
        <time>2021-03-20T22:43:57Z</time>
      </trkpt>
      <trkpt lat="58.35756" lon="-4.98332">
        <ele>38.27</ele>
        <time>2021-03-20T22:44:05Z</time>
      </trkpt>
      <trkpt lat="58.35813" lon="-4.98421">
        <ele>34.88</ele>
        <time>2021-03-20T22:44:13Z</time>
      </trkpt>
      <trkpt lat="58.36197" lon="-4.98589">
        <ele>33</ele>
        <time>2021-03-20T22:44:20Z</time>
      </trkpt>
      <trkpt lat="58.36247" lon="-4.9862">
        <ele>33.92</ele>
        <time>2021-03-20T22:44:28Z</time>
      </trkpt>
      <trkpt lat="58.36313" lon="-4.98688">
        <ele>37.99</ele>
        <time>2021-03-20T22:44:36Z</time>
      </trkpt>
      <trkpt lat="58.36342" lon="-4.98704">
        <ele>38.46</ele>
        <time>2021-03-20T22:44:44Z</time>
      </trkpt>
      <trkpt lat="58.36376" lon="-4.98705">
        <ele>37.15</ele>
        <time>2021-03-20T22:44:51Z</time>
      </trkpt>
      <trkpt lat="58.3644" lon="-4.987">
        <ele>38.06</ele>
        <time>2021-03-20T22:44:59Z</time>
      </trkpt>
      <trkpt lat="58.36492" lon="-4.98733">
        <ele>40.56</ele>
        <time>2021-03-20T22:45:07Z</time>
      </trkpt>
      <trkpt lat="58.36573" lon="-4.98831">
        <ele>46.53</ele>
        <time>2021-03-20T22:45:15Z</time>
      </trkpt>
      <trkpt lat="58.36641" lon="-4.98931">
        <ele>58.05</ele>
        <time>2021-03-20T22:45:22Z</time>
      </trkpt>
      <trkpt lat="58.3669" lon="-4.98992">
        <ele>63.3</ele>
        <time>2021-03-20T22:45:30Z</time>
      </trkpt>
      <trkpt lat="58.36806" lon="-4.99104">
        <ele>62.06</ele>
        <time>2021-03-20T22:45:38Z</time>
      </trkpt>
      <trkpt lat="58.36881" lon="-4.99168">
        <ele>56.44</ele>
        <time>2021-03-20T22:45:46Z</time>
      </trkpt>
      <trkpt lat="58.36971" lon="-4.9923">
        <ele>53.19</ele>
        <time>2021-03-20T22:45:54Z</time>
      </trkpt>
      <trkpt lat="58.37187" lon="-4.99362">
        <ele>30.08</ele>
        <time>2021-03-20T22:46:01Z</time>
      </trkpt>
      <trkpt lat="58.37228" lon="-4.99406">
        <ele>27.46</ele>
        <time>2021-03-20T22:46:09Z</time>
      </trkpt>
      <trkpt lat="58.37258" lon="-4.99459">
        <ele>23.99</ele>
        <time>2021-03-20T22:46:17Z</time>
      </trkpt>
      <trkpt lat="58.37287" lon="-4.99524">
        <ele>22.15</ele>
        <time>2021-03-20T22:46:25Z</time>
      </trkpt>
      <trkpt lat="58.37359" lon="-4.99715">
        <ele>20.18</ele>
        <time>2021-03-20T22:46:32Z</time>
      </trkpt>
      <trkpt lat="58.37406" lon="-4.99876">
        <ele>22.01</ele>
        <time>2021-03-20T22:46:40Z</time>
      </trkpt>
      <trkpt lat="58.37476" lon="-5.00171">
        <ele>17.79</ele>
        <time>2021-03-20T22:46:48Z</time>
      </trkpt>
      <trkpt lat="58.37525" lon="-5.00414">
        <ele>21.43</ele>
        <time>2021-03-20T22:46:56Z</time>
      </trkpt>
      <trkpt lat="58.3754" lon="-5.00507">
        <ele>21.31</ele>
        <time>2021-03-20T22:47:03Z</time>
      </trkpt>
      <trkpt lat="58.3755" lon="-5.00599">
        <ele>16.76</ele>
        <time>2021-03-20T22:47:11Z</time>
      </trkpt>
      <trkpt lat="58.37547" lon="-5.00728">
        <ele>15.79</ele>
        <time>2021-03-20T22:47:19Z</time>
      </trkpt>
      <trkpt lat="58.37542" lon="-5.00782">
        <ele>15.19</ele>
        <time>2021-03-20T22:47:27Z</time>
      </trkpt>
      <trkpt lat="58.37456" lon="-5.01318">
        <ele>11.81</ele>
        <time>2021-03-20T22:47:35Z</time>
      </trkpt>
      <trkpt lat="58.37369" lon="-5.01649">
        <ele>15.18</ele>
        <time>2021-03-20T22:47:42Z</time>
      </trkpt>
      <trkpt lat="58.37371" lon="-5.01672">
        <ele>14.97</ele>
        <time>2021-03-20T22:47:50Z</time>
      </trkpt>
      <trkpt lat="58.37386" lon="-5.01715">
        <ele>18.31</ele>
        <time>2021-03-20T22:47:58Z</time>
      </trkpt>
      <trkpt lat="58.37409" lon="-5.01696">
        <ele>15.73</ele>
        <time>2021-03-20T22:48:01Z</time>
      </trkpt>
      <trkpt lat="58.37463" lon="-5.01677">
        <ele>10.47</ele>
        <time>2021-03-20T22:48:03Z</time>
      </trkpt>
      <trkpt lat="58.37535" lon="-5.01668">
        <ele>9.48</ele>
        <time>2021-03-20T22:48:06Z</time>
      </trkpt>
      <trkpt lat="58.37569" lon="-5.01676">
        <ele>11.14</ele>
        <time>2021-03-20T22:48:09Z</time>
      </trkpt>
      <trkpt lat="58.37627" lon="-5.01705">
        <ele>12.59</ele>
        <time>2021-03-20T22:48:12Z</time>
      </trkpt>
      <trkpt lat="58.37658" lon="-5.01734">
        <ele>13.29</ele>
        <time>2021-03-20T22:48:15Z</time>
      </trkpt>
      <trkpt lat="58.37688" lon="-5.01777">
        <ele>13.03</ele>
        <time>2021-03-20T22:48:17Z</time>
      </trkpt>
      <trkpt lat="58.37722" lon="-5.01841">
        <ele>12.65</ele>
        <time>2021-03-20T22:48:20Z</time>
      </trkpt>
      <trkpt lat="58.37731" lon="-5.01866">
        <ele>13.8</ele>
        <time>2021-03-20T22:48:23Z</time>
      </trkpt>
      <trkpt lat="58.37754" lon="-5.01943">
        <ele>14.18</ele>
        <time>2021-03-20T22:48:26Z</time>
      </trkpt>
      <trkpt lat="58.37881" lon="-5.0246">
        <ele>8.93</ele>
        <time>2021-03-20T22:48:28Z</time>
      </trkpt>
      <trkpt lat="58.37913" lon="-5.02605">
        <ele>8.4</ele>
        <time>2021-03-20T22:48:31Z</time>
      </trkpt>
      <trkpt lat="58.37947" lon="-5.02789">
        <ele>9.81</ele>
        <time>2021-03-20T22:48:34Z</time>
      </trkpt>
      <trkpt lat="58.37978" lon="-5.02936">
        <ele>10.87</ele>
        <time>2021-03-20T22:48:37Z</time>
      </trkpt>
      <trkpt lat="58.37992" lon="-5.02991">
        <ele>9.35</ele>
        <time>2021-03-20T22:48:39Z</time>
      </trkpt>
      <trkpt lat="58.38005" lon="-5.03035">
        <ele>8.44</ele>
        <time>2021-03-20T22:48:42Z</time>
      </trkpt>
      <trkpt lat="58.3802" lon="-5.03079">
        <ele>8.21</ele>
        <time>2021-03-20T22:48:45Z</time>
      </trkpt>
      <trkpt lat="58.38039" lon="-5.0312">
        <ele>8.16</ele>
        <time>2021-03-20T22:48:48Z</time>
      </trkpt>
      <trkpt lat="58.3806" lon="-5.03161">
        <ele>7.96</ele>
        <time>2021-03-20T22:48:50Z</time>
      </trkpt>
      <trkpt lat="58.38076" lon="-5.03186">
        <ele>7.98</ele>
        <time>2021-03-20T22:48:53Z</time>
      </trkpt>
      <trkpt lat="58.38094" lon="-5.03209">
        <ele>8.91</ele>
        <time>2021-03-20T22:48:56Z</time>
      </trkpt>
      <trkpt lat="58.38116" lon="-5.03234">
        <ele>9.56</ele>
        <time>2021-03-20T22:48:59Z</time>
      </trkpt>
      <trkpt lat="58.38138" lon="-5.03256">
        <ele>10.99</ele>
        <time>2021-03-20T22:49:01Z</time>
      </trkpt>
      <trkpt lat="58.38164" lon="-5.03276">
        <ele>9.18</ele>
        <time>2021-03-20T22:49:04Z</time>
      </trkpt>
      <trkpt lat="58.38215" lon="-5.03304">
        <ele>5.37</ele>
        <time>2021-03-20T22:49:07Z</time>
      </trkpt>
      <trkpt lat="58.38246" lon="-5.03314">
        <ele>4.7</ele>
        <time>2021-03-20T22:49:10Z</time>
      </trkpt>
      <trkpt lat="58.38283" lon="-5.03317">
        <ele>5.17</ele>
        <time>2021-03-20T22:49:13Z</time>
      </trkpt>
      <trkpt lat="58.38316" lon="-5.03312">
        <ele>8.24</ele>
        <time>2021-03-20T22:49:15Z</time>
      </trkpt>
      <trkpt lat="58.38356" lon="-5.03295">
        <ele>12.17</ele>
        <time>2021-03-20T22:49:18Z</time>
      </trkpt>
      <trkpt lat="58.38384" lon="-5.03279">
        <ele>15.12</ele>
        <time>2021-03-20T22:49:21Z</time>
      </trkpt>
      <trkpt lat="58.38432" lon="-5.03237">
        <ele>22.69</ele>
        <time>2021-03-20T22:49:24Z</time>
      </trkpt>
      <trkpt lat="58.38463" lon="-5.03196">
        <ele>30.27</ele>
        <time>2021-03-20T22:49:26Z</time>
      </trkpt>
      <trkpt lat="58.38545" lon="-5.03072">
        <ele>44.4</ele>
        <time>2021-03-20T22:49:29Z</time>
      </trkpt>
      <trkpt lat="58.38545" lon="-5.03072">
        <ele>44.4</ele>
        <time>2021-03-20T22:49:29Z</time>
      </trkpt>
      <trkpt lat="58.38777" lon="-5.02725">
        <ele>54</ele>
        <time>2021-03-20T22:49:35Z</time>
      </trkpt>
      <trkpt lat="58.38801" lon="-5.02693">
        <ele>50.87</ele>
        <time>2021-03-20T22:49:41Z</time>
      </trkpt>
      <trkpt lat="58.3888" lon="-5.02607">
        <ele>43.6</ele>
        <time>2021-03-20T22:49:47Z</time>
      </trkpt>
      <trkpt lat="58.39295" lon="-5.02277">
        <ele>44.26</ele>
        <time>2021-03-20T22:49:53Z</time>
      </trkpt>
      <trkpt lat="58.39384" lon="-5.02196">
        <ele>39.28</ele>
        <time>2021-03-20T22:49:59Z</time>
      </trkpt>
      <trkpt lat="58.39474" lon="-5.0208">
        <ele>43.31</ele>
        <time>2021-03-20T22:50:05Z</time>
      </trkpt>
      <trkpt lat="58.39709" lon="-5.01642">
        <ele>62.17</ele>
        <time>2021-03-20T22:50:11Z</time>
      </trkpt>
      <trkpt lat="58.39792" lon="-5.01522">
        <ele>64.58</ele>
        <time>2021-03-20T22:50:16Z</time>
      </trkpt>
      <trkpt lat="58.39923" lon="-5.01386">
        <ele>63.82</ele>
        <time>2021-03-20T22:50:22Z</time>
      </trkpt>
      <trkpt lat="58.40109" lon="-5.01226">
        <ele>61.94</ele>
        <time>2021-03-20T22:50:28Z</time>
      </trkpt>
      <trkpt lat="58.40364" lon="-5.00992">
        <ele>40.36</ele>
        <time>2021-03-20T22:50:34Z</time>
      </trkpt>
      <trkpt lat="58.40406" lon="-5.00937">
        <ele>42.38</ele>
        <time>2021-03-20T22:50:40Z</time>
      </trkpt>
      <trkpt lat="58.40446" lon="-5.00869">
        <ele>43.63</ele>
        <time>2021-03-20T22:50:46Z</time>
      </trkpt>
      <trkpt lat="58.40485" lon="-5.00771">
        <ele>44.49</ele>
        <time>2021-03-20T22:50:52Z</time>
      </trkpt>
      <trkpt lat="58.40538" lon="-5.00595">
        <ele>39.64</ele>
        <time>2021-03-20T22:50:58Z</time>
      </trkpt>
      <trkpt lat="58.40569" lon="-5.0051">
        <ele>41.1</ele>
        <time>2021-03-20T22:51:04Z</time>
      </trkpt>
      <trkpt lat="58.4061" lon="-5.00429">
        <ele>43.57</ele>
        <time>2021-03-20T22:51:10Z</time>
      </trkpt>
      <trkpt lat="58.40655" lon="-5.00359">
        <ele>43.44</ele>
        <time>2021-03-20T22:51:16Z</time>
      </trkpt>
      <trkpt lat="58.40691" lon="-5.0032">
        <ele>43.26</ele>
        <time>2021-03-20T22:51:21Z</time>
      </trkpt>
      <trkpt lat="58.40729" lon="-5.00287">
        <ele>42.51</ele>
        <time>2021-03-20T22:51:27Z</time>
      </trkpt>
      <trkpt lat="58.40767" lon="-5.00266">
        <ele>42.17</ele>
        <time>2021-03-20T22:51:33Z</time>
      </trkpt>
      <trkpt lat="58.40812" lon="-5.00253">
        <ele>42</ele>
        <time>2021-03-20T22:51:39Z</time>
      </trkpt>
      <trkpt lat="58.40874" lon="-5.00255">
        <ele>42.45</ele>
        <time>2021-03-20T22:51:45Z</time>
      </trkpt>
      <trkpt lat="58.4103" lon="-5.00279">
        <ele>46.06</ele>
        <time>2021-03-20T22:51:51Z</time>
      </trkpt>
      <trkpt lat="58.41127" lon="-5.00299">
        <ele>50.24</ele>
        <time>2021-03-20T22:51:57Z</time>
      </trkpt>
      <trkpt lat="58.41867" lon="-5.00434">
        <ele>31.01</ele>
        <time>2021-03-20T22:52:03Z</time>
      </trkpt>
      <trkpt lat="58.41956" lon="-5.00418">
        <ele>36.79</ele>
        <time>2021-03-20T22:52:09Z</time>
      </trkpt>
      <trkpt lat="58.41981" lon="-5.00408">
        <ele>38.81</ele>
        <time>2021-03-20T22:52:15Z</time>
      </trkpt>
      <trkpt lat="58.42026" lon="-5.0038">
        <ele>41.57</ele>
        <time>2021-03-20T22:52:21Z</time>
      </trkpt>
      <trkpt lat="58.42081" lon="-5.00303">
        <ele>37.93</ele>
        <time>2021-03-20T22:52:27Z</time>
      </trkpt>
      <trkpt lat="58.42137" lon="-5.00206">
        <ele>32.19</ele>
        <time>2021-03-20T22:52:32Z</time>
      </trkpt>
      <trkpt lat="58.42185" lon="-5.00021">
        <ele>27.45</ele>
        <time>2021-03-20T22:52:38Z</time>
      </trkpt>
      <trkpt lat="58.42291" lon="-4.993">
        <ele>8.26</ele>
        <time>2021-03-20T22:52:44Z</time>
      </trkpt>
      <trkpt lat="58.4234" lon="-4.99141">
        <ele>5.93</ele>
        <time>2021-03-20T22:52:50Z</time>
      </trkpt>
      <trkpt lat="58.42414" lon="-4.99016">
        <ele>12.29</ele>
        <time>2021-03-20T22:52:56Z</time>
      </trkpt>
      <trkpt lat="58.42431" lon="-4.98985">
        <ele>14.57</ele>
        <time>2021-03-20T22:53:02Z</time>
      </trkpt>
      <trkpt lat="58.42443" lon="-4.98943">
        <ele>18.15</ele>
        <time>2021-03-20T22:53:08Z</time>
      </trkpt>
      <trkpt lat="58.42463" lon="-4.9891">
        <ele>18.94</ele>
        <time>2021-03-20T22:53:14Z</time>
      </trkpt>
      <trkpt lat="58.42473" lon="-4.9889">
        <ele>18.76</ele>
        <time>2021-03-20T22:53:20Z</time>
      </trkpt>
      <trkpt lat="58.42476" lon="-4.98866">
        <ele>18.27</ele>
        <time>2021-03-20T22:53:26Z</time>
      </trkpt>
      <trkpt lat="58.42475" lon="-4.98792">
        <ele>19.45</ele>
        <time>2021-03-20T22:53:32Z</time>
      </trkpt>
      <trkpt lat="58.42465" lon="-4.98706">
        <ele>21.56</ele>
        <time>2021-03-20T22:53:37Z</time>
      </trkpt>
      <trkpt lat="58.42456" lon="-4.98593">
        <ele>23.6</ele>
        <time>2021-03-20T22:53:43Z</time>
      </trkpt>
      <trkpt lat="58.42457" lon="-4.98551">
        <ele>25</ele>
        <time>2021-03-20T22:53:49Z</time>
      </trkpt>
      <trkpt lat="58.42462" lon="-4.9851">
        <ele>27.42</ele>
        <time>2021-03-20T22:53:55Z</time>
      </trkpt>
      <trkpt lat="58.42475" lon="-4.98466">
        <ele>28.99</ele>
        <time>2021-03-20T22:54:01Z</time>
      </trkpt>
      <trkpt lat="58.42492" lon="-4.98438">
        <ele>28.6</ele>
        <time>2021-03-20T22:54:07Z</time>
      </trkpt>
      <trkpt lat="58.42516" lon="-4.98419">
        <ele>27.14</ele>
        <time>2021-03-20T22:54:13Z</time>
      </trkpt>
      <trkpt lat="58.42531" lon="-4.98413">
        <ele>26.63</ele>
        <time>2021-03-20T22:54:19Z</time>
      </trkpt>
      <trkpt lat="58.4257" lon="-4.98414">
        <ele>29.94</ele>
        <time>2021-03-20T22:54:25Z</time>
      </trkpt>
      <trkpt lat="58.42665" lon="-4.98462">
        <ele>34.56</ele>
        <time>2021-03-20T22:54:31Z</time>
      </trkpt>
      <trkpt lat="58.42723" lon="-4.98447">
        <ele>34.72</ele>
        <time>2021-03-20T22:54:37Z</time>
      </trkpt>
      <trkpt lat="58.42783" lon="-4.98311">
        <ele>39.85</ele>
        <time>2021-03-20T22:54:43Z</time>
      </trkpt>
      <trkpt lat="58.42808" lon="-4.98233">
        <ele>42.38</ele>
        <time>2021-03-20T22:54:48Z</time>
      </trkpt>
      <trkpt lat="58.42831" lon="-4.98128">
        <ele>48.98</ele>
        <time>2021-03-20T22:54:54Z</time>
      </trkpt>
      <trkpt lat="58.42877" lon="-4.97809">
        <ele>60.33</ele>
        <time>2021-03-20T22:55:00Z</time>
      </trkpt>
      <trkpt lat="58.42908" lon="-4.97564">
        <ele>70</ele>
        <time>2021-03-20T22:55:06Z</time>
      </trkpt>
      <trkpt lat="58.42996" lon="-4.97237">
        <ele>74.4</ele>
        <time>2021-03-20T22:55:12Z</time>
      </trkpt>
      <trkpt lat="58.43025" lon="-4.97195">
        <ele>74</ele>
        <time>2021-03-20T22:55:18Z</time>
      </trkpt>
      <trkpt lat="58.43042" lon="-4.97177">
        <ele>74.32</ele>
        <time>2021-03-20T22:55:24Z</time>
      </trkpt>
      <trkpt lat="58.43075" lon="-4.97155">
        <ele>75.73</ele>
        <time>2021-03-20T22:55:30Z</time>
      </trkpt>
      <trkpt lat="58.43237" lon="-4.971">
        <ele>72.35</ele>
        <time>2021-03-20T22:55:36Z</time>
      </trkpt>
      <trkpt lat="58.4343" lon="-4.96862">
        <ele>69.73</ele>
        <time>2021-03-20T22:55:42Z</time>
      </trkpt>
      <trkpt lat="58.43612" lon="-4.96552">
        <ele>61.4</ele>
        <time>2021-03-20T22:55:48Z</time>
      </trkpt>
      <trkpt lat="58.43671" lon="-4.96463">
        <ele>60.04</ele>
        <time>2021-03-20T22:55:53Z</time>
      </trkpt>
      <trkpt lat="58.43793" lon="-4.96196">
        <ele>66.36</ele>
        <time>2021-03-20T22:55:59Z</time>
      </trkpt>
      <trkpt lat="58.44069" lon="-4.95771">
        <ele>75.89</ele>
        <time>2021-03-20T22:56:05Z</time>
      </trkpt>
      <trkpt lat="58.4434" lon="-4.9513">
        <ele>96.85</ele>
        <time>2021-03-20T22:56:11Z</time>
      </trkpt>
      <trkpt lat="58.44423" lon="-4.95048">
        <ele>101.07</ele>
        <time>2021-03-20T22:56:17Z</time>
      </trkpt>
      <trkpt lat="58.44541" lon="-4.94822">
        <ele>112.72</ele>
        <time>2021-03-20T22:56:23Z</time>
      </trkpt>
      <trkpt lat="58.44849" lon="-4.94097">
        <ele>136.57</ele>
        <time>2021-03-20T22:56:29Z</time>
      </trkpt>
      <trkpt lat="58.45085" lon="-4.93747">
        <ele>145.08</ele>
        <time>2021-03-20T22:56:35Z</time>
      </trkpt>
      <trkpt lat="58.45256" lon="-4.93424">
        <ele>153.95</ele>
        <time>2021-03-20T22:56:41Z</time>
      </trkpt>
      <trkpt lat="58.45318" lon="-4.93234">
        <ele>154.57</ele>
        <time>2021-03-20T22:56:47Z</time>
      </trkpt>
      <trkpt lat="58.45342" lon="-4.93143">
        <ele>155.64</ele>
        <time>2021-03-20T22:56:53Z</time>
      </trkpt>
      <trkpt lat="58.45379" lon="-4.93055">
        <ele>156.97</ele>
        <time>2021-03-20T22:56:58Z</time>
      </trkpt>
      <trkpt lat="58.45541" lon="-4.92808">
        <ele>158.62</ele>
        <time>2021-03-20T22:57:04Z</time>
      </trkpt>
      <trkpt lat="58.45589" lon="-4.92694">
        <ele>159.75</ele>
        <time>2021-03-20T22:57:10Z</time>
      </trkpt>
      <trkpt lat="58.45791" lon="-4.92239">
        <ele>165.07</ele>
        <time>2021-03-20T22:57:16Z</time>
      </trkpt>
      <trkpt lat="58.45921" lon="-4.92056">
        <ele>163.51</ele>
        <time>2021-03-20T22:57:22Z</time>
      </trkpt>
      <trkpt lat="58.46149" lon="-4.91359">
        <ele>174.66</ele>
        <time>2021-03-20T22:57:28Z</time>
      </trkpt>
      <trkpt lat="58.46194" lon="-4.91232">
        <ele>176.24</ele>
        <time>2021-03-20T22:57:34Z</time>
      </trkpt>
      <trkpt lat="58.4623" lon="-4.91057">
        <ele>179.82</ele>
        <time>2021-03-20T22:57:40Z</time>
      </trkpt>
      <trkpt lat="58.46281" lon="-4.90891">
        <ele>183.71</ele>
        <time>2021-03-20T22:57:46Z</time>
      </trkpt>
      <trkpt lat="58.46348" lon="-4.90768">
        <ele>191.25</ele>
        <time>2021-03-20T22:57:52Z</time>
      </trkpt>
      <trkpt lat="58.46394" lon="-4.90647">
        <ele>190.38</ele>
        <time>2021-03-20T22:57:58Z</time>
      </trkpt>
      <trkpt lat="58.46458" lon="-4.90404">
        <ele>180.56</ele>
        <time>2021-03-20T22:58:04Z</time>
      </trkpt>
      <trkpt lat="58.46492" lon="-4.90306">
        <ele>175.76</ele>
        <time>2021-03-20T22:58:09Z</time>
      </trkpt>
      <trkpt lat="58.46512" lon="-4.90266">
        <ele>174.7</ele>
        <time>2021-03-20T22:58:15Z</time>
      </trkpt>
      <trkpt lat="58.46565" lon="-4.90189">
        <ele>173.12</ele>
        <time>2021-03-20T22:58:21Z</time>
      </trkpt>
      <trkpt lat="58.46809" lon="-4.89983">
        <ele>166.84</ele>
        <time>2021-03-20T22:58:27Z</time>
      </trkpt>
      <trkpt lat="58.46838" lon="-4.8993">
        <ele>166.62</ele>
        <time>2021-03-20T22:58:33Z</time>
      </trkpt>
      <trkpt lat="58.46859" lon="-4.89863">
        <ele>167.8</ele>
        <time>2021-03-20T22:58:39Z</time>
      </trkpt>
      <trkpt lat="58.46916" lon="-4.89593">
        <ele>166.96</ele>
        <time>2021-03-20T22:58:45Z</time>
      </trkpt>
      <trkpt lat="58.46956" lon="-4.89486">
        <ele>166.05</ele>
        <time>2021-03-20T22:58:51Z</time>
      </trkpt>
      <trkpt lat="58.47031" lon="-4.89303">
        <ele>167.39</ele>
        <time>2021-03-20T22:58:57Z</time>
      </trkpt>
      <trkpt lat="58.47099" lon="-4.89192">
        <ele>159.99</ele>
        <time>2021-03-20T22:59:03Z</time>
      </trkpt>
      <trkpt lat="58.47202" lon="-4.89096">
        <ele>159.91</ele>
        <time>2021-03-20T22:59:09Z</time>
      </trkpt>
      <trkpt lat="58.47339" lon="-4.88917">
        <ele>151.71</ele>
        <time>2021-03-20T22:59:14Z</time>
      </trkpt>
      <trkpt lat="58.47517" lon="-4.8875">
        <ele>143.8</ele>
        <time>2021-03-20T22:59:20Z</time>
      </trkpt>
      <trkpt lat="58.47627" lon="-4.88615">
        <ele>136.17</ele>
        <time>2021-03-20T22:59:26Z</time>
      </trkpt>
      <trkpt lat="58.47796" lon="-4.88377">
        <ele>122.88</ele>
        <time>2021-03-20T22:59:32Z</time>
      </trkpt>
      <trkpt lat="58.47933" lon="-4.88109">
        <ele>113.58</ele>
        <time>2021-03-20T22:59:38Z</time>
      </trkpt>
      <trkpt lat="58.48092" lon="-4.87806">
        <ele>100.57</ele>
        <time>2021-03-20T22:59:44Z</time>
      </trkpt>
      <trkpt lat="58.48159" lon="-4.87699">
        <ele>96.65</ele>
        <time>2021-03-20T22:59:50Z</time>
      </trkpt>
      <trkpt lat="58.48316" lon="-4.87461">
        <ele>90.35</ele>
        <time>2021-03-20T22:59:56Z</time>
      </trkpt>
      <trkpt lat="58.48464" lon="-4.87174">
        <ele>79.56</ele>
        <time>2021-03-20T23:00:02Z</time>
      </trkpt>
      <trkpt lat="58.48529" lon="-4.87091">
        <ele>77.11</ele>
        <time>2021-03-20T23:00:08Z</time>
      </trkpt>
      <trkpt lat="58.48599" lon="-4.86971">
        <ele>76.7</ele>
        <time>2021-03-20T23:00:14Z</time>
      </trkpt>
      <trkpt lat="58.48733" lon="-4.86666">
        <ele>68.45</ele>
        <time>2021-03-20T23:00:19Z</time>
      </trkpt>
      <trkpt lat="58.48784" lon="-4.86554">
        <ele>65.9</ele>
        <time>2021-03-20T23:00:25Z</time>
      </trkpt>
      <trkpt lat="58.48832" lon="-4.86473">
        <ele>65.89</ele>
        <time>2021-03-20T23:00:31Z</time>
      </trkpt>
      <trkpt lat="58.48878" lon="-4.86354">
        <ele>64.87</ele>
        <time>2021-03-20T23:00:37Z</time>
      </trkpt>
      <trkpt lat="58.48916" lon="-4.86223">
        <ele>61.01</ele>
        <time>2021-03-20T23:00:43Z</time>
      </trkpt>
      <trkpt lat="58.48937" lon="-4.86144">
        <ele>60.36</ele>
        <time>2021-03-20T23:00:49Z</time>
      </trkpt>
      <trkpt lat="58.49019" lon="-4.85936">
        <ele>56.39</ele>
        <time>2021-03-20T23:00:55Z</time>
      </trkpt>
      <trkpt lat="58.49067" lon="-4.85798">
        <ele>54</ele>
        <time>2021-03-20T23:01:01Z</time>
      </trkpt>
      <trkpt lat="58.49162" lon="-4.85491">
        <ele>51.79</ele>
        <time>2021-03-20T23:01:07Z</time>
      </trkpt>
      <trkpt lat="58.49241" lon="-4.85223">
        <ele>47.39</ele>
        <time>2021-03-20T23:01:13Z</time>
      </trkpt>
      <trkpt lat="58.49318" lon="-4.84899">
        <ele>43.84</ele>
        <time>2021-03-20T23:01:19Z</time>
      </trkpt>
      <trkpt lat="58.49427" lon="-4.8402">
        <ele>31.45</ele>
        <time>2021-03-20T23:01:25Z</time>
      </trkpt>
      <trkpt lat="58.49475" lon="-4.83659">
        <ele>31</ele>
        <time>2021-03-20T23:01:30Z</time>
      </trkpt>
      <trkpt lat="58.49561" lon="-4.83274">
        <ele>28.29</ele>
        <time>2021-03-20T23:01:36Z</time>
      </trkpt>
      <trkpt lat="58.49573" lon="-4.83187">
        <ele>26.94</ele>
        <time>2021-03-20T23:01:42Z</time>
      </trkpt>
      <trkpt lat="58.49603" lon="-4.82909">
        <ele>25.58</ele>
        <time>2021-03-20T23:01:48Z</time>
      </trkpt>
      <trkpt lat="58.49634" lon="-4.82767">
        <ele>24.86</ele>
        <time>2021-03-20T23:01:54Z</time>
      </trkpt>
      <trkpt lat="58.4968" lon="-4.82564">
        <ele>20.43</ele>
        <time>2021-03-20T23:02:00Z</time>
      </trkpt>
      <trkpt lat="58.49732" lon="-4.82454">
        <ele>22.45</ele>
        <time>2021-03-20T23:02:06Z</time>
      </trkpt>
      <trkpt lat="58.49794" lon="-4.82269">
        <ele>20.78</ele>
        <time>2021-03-20T23:02:12Z</time>
      </trkpt>
      <trkpt lat="58.49855" lon="-4.82128">
        <ele>20.7</ele>
        <time>2021-03-20T23:02:18Z</time>
      </trkpt>
      <trkpt lat="58.49891" lon="-4.82017">
        <ele>18.42</ele>
        <time>2021-03-20T23:02:24Z</time>
      </trkpt>
      <trkpt lat="58.4992" lon="-4.81916">
        <ele>17.24</ele>
        <time>2021-03-20T23:02:30Z</time>
      </trkpt>
      <trkpt lat="58.49955" lon="-4.81829">
        <ele>17.23</ele>
        <time>2021-03-20T23:02:35Z</time>
      </trkpt>
      <trkpt lat="58.50018" lon="-4.8169">
        <ele>14.49</ele>
        <time>2021-03-20T23:02:41Z</time>
      </trkpt>
      <trkpt lat="58.50038" lon="-4.81656">
        <ele>14</ele>
        <time>2021-03-20T23:02:47Z</time>
      </trkpt>
      <trkpt lat="58.50056" lon="-4.81634">
        <ele>13.81</ele>
        <time>2021-03-20T23:02:53Z</time>
      </trkpt>
      <trkpt lat="58.50077" lon="-4.81622">
        <ele>12.62</ele>
        <time>2021-03-20T23:02:59Z</time>
      </trkpt>
      <trkpt lat="58.50091" lon="-4.8162">
        <ele>12.02</ele>
        <time>2021-03-20T23:03:05Z</time>
      </trkpt>
      <trkpt lat="58.50103" lon="-4.81621">
        <ele>11.64</ele>
        <time>2021-03-20T23:03:11Z</time>
      </trkpt>
      <trkpt lat="58.5015" lon="-4.81638">
        <ele>11.99</ele>
        <time>2021-03-20T23:03:17Z</time>
      </trkpt>
      <trkpt lat="58.50166" lon="-4.81641">
        <ele>12</ele>
        <time>2021-03-20T23:03:23Z</time>
      </trkpt>
      <trkpt lat="58.50189" lon="-4.81629">
        <ele>13.17</ele>
        <time>2021-03-20T23:03:29Z</time>
      </trkpt>
      <trkpt lat="58.502" lon="-4.81617">
        <ele>13.81</ele>
        <time>2021-03-20T23:03:35Z</time>
      </trkpt>
      <trkpt lat="58.50346" lon="-4.81364">
        <ele>17</ele>
        <time>2021-03-20T23:03:40Z</time>
      </trkpt>
      <trkpt lat="58.50391" lon="-4.81295">
        <ele>16.92</ele>
        <time>2021-03-20T23:03:46Z</time>
      </trkpt>
      <trkpt lat="58.50433" lon="-4.81251">
        <ele>15.43</ele>
        <time>2021-03-20T23:03:52Z</time>
      </trkpt>
      <trkpt lat="58.50477" lon="-4.81214">
        <ele>15.18</ele>
        <time>2021-03-20T23:03:58Z</time>
      </trkpt>
      <trkpt lat="58.50553" lon="-4.81161">
        <ele>14.54</ele>
        <time>2021-03-20T23:04:04Z</time>
      </trkpt>
      <trkpt lat="58.50788" lon="-4.81009">
        <ele>16.97</ele>
        <time>2021-03-20T23:04:10Z</time>
      </trkpt>
      <trkpt lat="58.50831" lon="-4.80993">
        <ele>16.64</ele>
        <time>2021-03-20T23:04:16Z</time>
      </trkpt>
      <trkpt lat="58.50896" lon="-4.8098">
        <ele>17.45</ele>
        <time>2021-03-20T23:04:22Z</time>
      </trkpt>
      <trkpt lat="58.50984" lon="-4.80968">
        <ele>17.3</ele>
        <time>2021-03-20T23:04:28Z</time>
      </trkpt>
      <trkpt lat="58.51025" lon="-4.80957">
        <ele>18.08</ele>
        <time>2021-03-20T23:04:34Z</time>
      </trkpt>
      <trkpt lat="58.51109" lon="-4.80919">
        <ele>16.91</ele>
        <time>2021-03-20T23:04:40Z</time>
      </trkpt>
      <trkpt lat="58.51545" lon="-4.80614">
        <ele>13</ele>
        <time>2021-03-20T23:04:46Z</time>
      </trkpt>
      <trkpt lat="58.5172" lon="-4.80484">
        <ele>12.65</ele>
        <time>2021-03-20T23:04:51Z</time>
      </trkpt>
      <trkpt lat="58.51824" lon="-4.80411">
        <ele>11.54</ele>
        <time>2021-03-20T23:04:57Z</time>
      </trkpt>
      <trkpt lat="58.51899" lon="-4.80355">
        <ele>11.14</ele>
        <time>2021-03-20T23:05:03Z</time>
      </trkpt>
      <trkpt lat="58.51947" lon="-4.80314">
        <ele>10</ele>
        <time>2021-03-20T23:05:09Z</time>
      </trkpt>
      <trkpt lat="58.51988" lon="-4.80273">
        <ele>10.63</ele>
        <time>2021-03-20T23:05:15Z</time>
      </trkpt>
      <trkpt lat="58.52046" lon="-4.80187">
        <ele>10.09</ele>
        <time>2021-03-20T23:05:21Z</time>
      </trkpt>
      <trkpt lat="58.52131" lon="-4.80045">
        <ele>9.27</ele>
        <time>2021-03-20T23:05:27Z</time>
      </trkpt>
      <trkpt lat="58.52166" lon="-4.79976">
        <ele>8.02</ele>
        <time>2021-03-20T23:05:33Z</time>
      </trkpt>
      <trkpt lat="58.52226" lon="-4.79845">
        <ele>8.41</ele>
        <time>2021-03-20T23:05:39Z</time>
      </trkpt>
      <trkpt lat="58.52248" lon="-4.79808">
        <ele>8</ele>
        <time>2021-03-20T23:05:45Z</time>
      </trkpt>
      <trkpt lat="58.52265" lon="-4.79786">
        <ele>7.63</ele>
        <time>2021-03-20T23:05:51Z</time>
      </trkpt>
      <trkpt lat="58.52289" lon="-4.79766">
        <ele>7</ele>
        <time>2021-03-20T23:05:56Z</time>
      </trkpt>
      <trkpt lat="58.52315" lon="-4.79751">
        <ele>6.65</ele>
        <time>2021-03-20T23:06:02Z</time>
      </trkpt>
      <trkpt lat="58.52328" lon="-4.79747">
        <ele>6.1</ele>
        <time>2021-03-20T23:06:08Z</time>
      </trkpt>
      <trkpt lat="58.5235" lon="-4.79744">
        <ele>5.44</ele>
        <time>2021-03-20T23:06:14Z</time>
      </trkpt>
      <trkpt lat="58.52465" lon="-4.79752">
        <ele>8.38</ele>
        <time>2021-03-20T23:06:20Z</time>
      </trkpt>
      <trkpt lat="58.52642" lon="-4.79755">
        <ele>10.68</ele>
        <time>2021-03-20T23:06:26Z</time>
      </trkpt>
      <trkpt lat="58.52716" lon="-4.79734">
        <ele>11.38</ele>
        <time>2021-03-20T23:06:32Z</time>
      </trkpt>
      <trkpt lat="58.5275" lon="-4.7972">
        <ele>11.3</ele>
        <time>2021-03-20T23:06:38Z</time>
      </trkpt>
      <trkpt lat="58.52784" lon="-4.79699">
        <ele>11.68</ele>
        <time>2021-03-20T23:06:44Z</time>
      </trkpt>
      <trkpt lat="58.52859" lon="-4.79622">
        <ele>12.21</ele>
        <time>2021-03-20T23:06:50Z</time>
      </trkpt>
      <trkpt lat="58.52922" lon="-4.7955">
        <ele>9.76</ele>
        <time>2021-03-20T23:06:56Z</time>
      </trkpt>
      <trkpt lat="58.53032" lon="-4.79368">
        <ele>12.49</ele>
        <time>2021-03-20T23:07:02Z</time>
      </trkpt>
      <trkpt lat="58.53117" lon="-4.79203">
        <ele>14.41</ele>
        <time>2021-03-20T23:07:07Z</time>
      </trkpt>
      <trkpt lat="58.53238" lon="-4.79045">
        <ele>13.76</ele>
        <time>2021-03-20T23:07:13Z</time>
      </trkpt>
      <trkpt lat="58.53256" lon="-4.79033">
        <ele>12.95</ele>
        <time>2021-03-20T23:07:19Z</time>
      </trkpt>
      <trkpt lat="58.53419" lon="-4.79006">
        <ele>15.77</ele>
        <time>2021-03-20T23:07:25Z</time>
      </trkpt>
      <trkpt lat="58.53435" lon="-4.78998">
        <ele>15.89</ele>
        <time>2021-03-20T23:07:31Z</time>
      </trkpt>
      <trkpt lat="58.53446" lon="-4.78986">
        <ele>16.34</ele>
        <time>2021-03-20T23:07:37Z</time>
      </trkpt>
      <trkpt lat="58.53482" lon="-4.78935">
        <ele>18.44</ele>
        <time>2021-03-20T23:07:43Z</time>
      </trkpt>
      <trkpt lat="58.53588" lon="-4.78826">
        <ele>11.59</ele>
        <time>2021-03-20T23:07:49Z</time>
      </trkpt>
      <trkpt lat="58.53655" lon="-4.78719">
        <ele>9.28</ele>
        <time>2021-03-20T23:07:55Z</time>
      </trkpt>
      <trkpt lat="58.5367" lon="-4.78669">
        <ele>7.59</ele>
        <time>2021-03-20T23:08:01Z</time>
      </trkpt>
      <trkpt lat="58.53682" lon="-4.78619">
        <ele>6.43</ele>
        <time>2021-03-20T23:08:07Z</time>
      </trkpt>
      <trkpt lat="58.53737" lon="-4.78458">
        <ele>3.21</ele>
        <time>2021-03-20T23:08:12Z</time>
      </trkpt>
      <trkpt lat="58.53759" lon="-4.78406">
        <ele>3.07</ele>
        <time>2021-03-20T23:08:18Z</time>
      </trkpt>
      <trkpt lat="58.5378" lon="-4.78379">
        <ele>3.36</ele>
        <time>2021-03-20T23:08:24Z</time>
      </trkpt>
      <trkpt lat="58.53843" lon="-4.78324">
        <ele>4.32</ele>
        <time>2021-03-20T23:08:30Z</time>
      </trkpt>
      <trkpt lat="58.53991" lon="-4.78185">
        <ele>3.81</ele>
        <time>2021-03-20T23:08:36Z</time>
      </trkpt>
      <trkpt lat="58.54033" lon="-4.78156">
        <ele>3.76</ele>
        <time>2021-03-20T23:08:42Z</time>
      </trkpt>
      <trkpt lat="58.54108" lon="-4.78115">
        <ele>3.93</ele>
        <time>2021-03-20T23:08:48Z</time>
      </trkpt>
      <trkpt lat="58.54127" lon="-4.7811">
        <ele>4.09</ele>
        <time>2021-03-20T23:08:54Z</time>
      </trkpt>
      <trkpt lat="58.54219" lon="-4.78107">
        <ele>3.47</ele>
        <time>2021-03-20T23:09:00Z</time>
      </trkpt>
      <trkpt lat="58.54238" lon="-4.78103">
        <ele>4.29</ele>
        <time>2021-03-20T23:09:06Z</time>
      </trkpt>
      <trkpt lat="58.54257" lon="-4.78092">
        <ele>4.97</ele>
        <time>2021-03-20T23:09:12Z</time>
      </trkpt>
      <trkpt lat="58.54273" lon="-4.78075">
        <ele>4.68</ele>
        <time>2021-03-20T23:09:17Z</time>
      </trkpt>
      <trkpt lat="58.54313" lon="-4.78021">
        <ele>3.98</ele>
        <time>2021-03-20T23:09:23Z</time>
      </trkpt>
      <trkpt lat="58.54341" lon="-4.77996">
        <ele>4.13</ele>
        <time>2021-03-20T23:09:29Z</time>
      </trkpt>
      <trkpt lat="58.54422" lon="-4.77934">
        <ele>6.17</ele>
        <time>2021-03-20T23:09:35Z</time>
      </trkpt>
      <trkpt lat="58.54453" lon="-4.77921">
        <ele>6.1</ele>
        <time>2021-03-20T23:09:41Z</time>
      </trkpt>
      <trkpt lat="58.54534" lon="-4.77901">
        <ele>5.45</ele>
        <time>2021-03-20T23:09:47Z</time>
      </trkpt>
      <trkpt lat="58.54625" lon="-4.7787">
        <ele>5.86</ele>
        <time>2021-03-20T23:09:53Z</time>
      </trkpt>
      <trkpt lat="58.54722" lon="-4.77816">
        <ele>4.86</ele>
        <time>2021-03-20T23:09:59Z</time>
      </trkpt>
      <trkpt lat="58.54852" lon="-4.77784">
        <ele>10.52</ele>
        <time>2021-03-20T23:10:05Z</time>
      </trkpt>
      <trkpt lat="58.54878" lon="-4.77771">
        <ele>11.34</ele>
        <time>2021-03-20T23:10:11Z</time>
      </trkpt>
      <trkpt lat="58.5491" lon="-4.77746">
        <ele>12.92</ele>
        <time>2021-03-20T23:10:17Z</time>
      </trkpt>
      <trkpt lat="58.54941" lon="-4.77715">
        <ele>13.64</ele>
        <time>2021-03-20T23:10:23Z</time>
      </trkpt>
      <trkpt lat="58.55024" lon="-4.77553">
        <ele>16.62</ele>
        <time>2021-03-20T23:10:28Z</time>
      </trkpt>
      <trkpt lat="58.55067" lon="-4.77502">
        <ele>19.44</ele>
        <time>2021-03-20T23:10:34Z</time>
      </trkpt>
      <trkpt lat="58.55131" lon="-4.77448">
        <ele>22.61</ele>
        <time>2021-03-20T23:10:40Z</time>
      </trkpt>
      <trkpt lat="58.55277" lon="-4.77368">
        <ele>31.53</ele>
        <time>2021-03-20T23:10:46Z</time>
      </trkpt>
      <trkpt lat="58.55441" lon="-4.77184">
        <ele>45.26</ele>
        <time>2021-03-20T23:10:52Z</time>
      </trkpt>
      <trkpt lat="58.55524" lon="-4.77055">
        <ele>51.87</ele>
        <time>2021-03-20T23:10:58Z</time>
      </trkpt>
      <trkpt lat="58.55572" lon="-4.76894">
        <ele>52.8</ele>
        <time>2021-03-20T23:11:04Z</time>
      </trkpt>
      <trkpt lat="58.55666" lon="-4.76819">
        <ele>50.01</ele>
        <time>2021-03-20T23:11:10Z</time>
      </trkpt>
      <trkpt lat="58.55708" lon="-4.76757">
        <ele>46.32</ele>
        <time>2021-03-20T23:11:16Z</time>
      </trkpt>
      <trkpt lat="58.55769" lon="-4.76736">
        <ele>42.65</ele>
        <time>2021-03-20T23:11:22Z</time>
      </trkpt>
      <trkpt lat="58.55853" lon="-4.76624">
        <ele>39.55</ele>
        <time>2021-03-20T23:11:28Z</time>
      </trkpt>
      <trkpt lat="58.55947" lon="-4.76548">
        <ele>38.73</ele>
        <time>2021-03-20T23:11:33Z</time>
      </trkpt>
      <trkpt lat="58.56024" lon="-4.76495">
        <ele>40.84</ele>
        <time>2021-03-20T23:11:39Z</time>
      </trkpt>
      <trkpt lat="58.56097" lon="-4.76418">
        <ele>38.9</ele>
        <time>2021-03-20T23:11:45Z</time>
      </trkpt>
      <trkpt lat="58.56273" lon="-4.76107">
        <ele>42.47</ele>
        <time>2021-03-20T23:11:51Z</time>
      </trkpt>
      <trkpt lat="58.56404" lon="-4.75725">
        <ele>45.1</ele>
        <time>2021-03-20T23:11:57Z</time>
      </trkpt>
      <trkpt lat="58.56573" lon="-4.75283">
        <ele>43</ele>
        <time>2021-03-20T23:12:03Z</time>
      </trkpt>
      <trkpt lat="58.56609" lon="-4.7518">
        <ele>43.52</ele>
        <time>2021-03-20T23:12:09Z</time>
      </trkpt>
      <trkpt lat="58.56663" lon="-4.74973">
        <ele>44.12</ele>
        <time>2021-03-20T23:12:15Z</time>
      </trkpt>
      <trkpt lat="58.56699" lon="-4.74838">
        <ele>47.03</ele>
        <time>2021-03-20T23:12:21Z</time>
      </trkpt>
      <trkpt lat="58.56712" lon="-4.74807">
        <ele>47.61</ele>
        <time>2021-03-20T23:12:27Z</time>
      </trkpt>
      <trkpt lat="58.56727" lon="-4.74783">
        <ele>48.03</ele>
        <time>2021-03-20T23:12:33Z</time>
      </trkpt>
      <trkpt lat="58.56854" lon="-4.74675">
        <ele>41.05</ele>
        <time>2021-03-20T23:12:39Z</time>
      </trkpt>
      <trkpt lat="58.5686" lon="-4.74689">
        <ele>40.99</ele>
        <time>2021-03-20T23:12:40Z</time>
      </trkpt>
      <trkpt lat="58.5686" lon="-4.74689">
        <ele>40.99</ele>
        <time>2021-03-20T23:12:40Z</time>
      </trkpt>
      <trkpt lat="58.56854" lon="-4.74675">
        <ele>41.05</ele>
        <time>2021-03-20T23:12:41Z</time>
      </trkpt>
      <trkpt lat="58.56859" lon="-4.74644">
        <ele>40.25</ele>
        <time>2021-03-20T23:12:50Z</time>
      </trkpt>
      <trkpt lat="58.56848" lon="-4.74334">
        <ele>33.51</ele>
        <time>2021-03-20T23:12:58Z</time>
      </trkpt>
      <trkpt lat="58.56831" lon="-4.74217">
        <ele>29.78</ele>
        <time>2021-03-20T23:13:06Z</time>
      </trkpt>
      <trkpt lat="58.56801" lon="-4.74082">
        <ele>23.78</ele>
        <time>2021-03-20T23:13:15Z</time>
      </trkpt>
      <trkpt lat="58.56786" lon="-4.74024">
        <ele>21.12</ele>
        <time>2021-03-20T23:13:23Z</time>
      </trkpt>
      <trkpt lat="58.56768" lon="-4.73987">
        <ele>19.2</ele>
        <time>2021-03-20T23:13:31Z</time>
      </trkpt>
      <trkpt lat="58.56762" lon="-4.73941">
        <ele>16.31</ele>
        <time>2021-03-20T23:13:35Z</time>
      </trkpt>
      <trkpt lat="58.56747" lon="-4.73889">
        <ele>13.9</ele>
        <time>2021-03-20T23:13:39Z</time>
      </trkpt>
      <trkpt lat="58.56717" lon="-4.73815">
        <ele>12</ele>
        <time>2021-03-20T23:13:43Z</time>
      </trkpt>
      <trkpt lat="58.56695" lon="-4.7377">
        <ele>12.98</ele>
        <time>2021-03-20T23:13:47Z</time>
      </trkpt>
      <trkpt lat="58.56642" lon="-4.7368">
        <ele>18.24</ele>
        <time>2021-03-20T23:13:51Z</time>
      </trkpt>
      <trkpt lat="58.56581" lon="-4.73553">
        <ele>28.5</ele>
        <time>2021-03-20T23:13:55Z</time>
      </trkpt>
      <trkpt lat="58.56564" lon="-4.7353">
        <ele>33.1</ele>
        <time>2021-03-20T23:13:58Z</time>
      </trkpt>
      <trkpt lat="58.56555" lon="-4.73526">
        <ele>35.18</ele>
        <time>2021-03-20T23:14:02Z</time>
      </trkpt>
      <trkpt lat="58.56539" lon="-4.73531">
        <ele>37.13</ele>
        <time>2021-03-20T23:14:06Z</time>
      </trkpt>
      <trkpt lat="58.56532" lon="-4.73527">
        <ele>38.45</ele>
        <time>2021-03-20T23:14:10Z</time>
      </trkpt>
      <trkpt lat="58.5651" lon="-4.73408">
        <ele>43.26</ele>
        <time>2021-03-20T23:14:14Z</time>
      </trkpt>
      <trkpt lat="58.56501" lon="-4.7335">
        <ele>43.58</ele>
        <time>2021-03-20T23:14:17Z</time>
      </trkpt>
      <trkpt lat="58.56433" lon="-4.73088">
        <ele>42.72</ele>
        <time>2021-03-20T23:14:20Z</time>
      </trkpt>
      <trkpt lat="58.56429" lon="-4.73058">
        <ele>44.07</ele>
        <time>2021-03-20T23:14:23Z</time>
      </trkpt>
      <trkpt lat="58.56425" lon="-4.72999">
        <ele>45.72</ele>
        <time>2021-03-20T23:14:26Z</time>
      </trkpt>
      <trkpt lat="58.56434" lon="-4.72866">
        <ele>50</ele>
        <time>2021-03-20T23:14:29Z</time>
      </trkpt>
      <trkpt lat="58.56435" lon="-4.72829">
        <ele>51</ele>
        <time>2021-03-20T23:14:32Z</time>
      </trkpt>
      <trkpt lat="58.56433" lon="-4.72782">
        <ele>51</ele>
        <time>2021-03-20T23:14:35Z</time>
      </trkpt>
      <trkpt lat="58.56424" lon="-4.72684">
        <ele>48.63</ele>
        <time>2021-03-20T23:14:38Z</time>
      </trkpt>
      <trkpt lat="58.56419" lon="-4.72644">
        <ele>48</ele>
        <time>2021-03-20T23:14:41Z</time>
      </trkpt>
      <trkpt lat="58.56392" lon="-4.72486">
        <ele>45.51</ele>
        <time>2021-03-20T23:14:44Z</time>
      </trkpt>
      <trkpt lat="58.56381" lon="-4.72445">
        <ele>44</ele>
        <time>2021-03-20T23:14:47Z</time>
      </trkpt>
      <trkpt lat="58.56366" lon="-4.72397">
        <ele>43.12</ele>
        <time>2021-03-20T23:14:50Z</time>
      </trkpt>
      <trkpt lat="58.56349" lon="-4.72326">
        <ele>39.19</ele>
        <time>2021-03-20T23:14:54Z</time>
      </trkpt>
      <trkpt lat="58.56345" lon="-4.72304">
        <ele>38.52</ele>
        <time>2021-03-20T23:14:57Z</time>
      </trkpt>
      <trkpt lat="58.56337" lon="-4.72143">
        <ele>33.02</ele>
        <time>2021-03-20T23:15:00Z</time>
      </trkpt>
      <trkpt lat="58.56331" lon="-4.72093">
        <ele>31.39</ele>
        <time>2021-03-20T23:15:03Z</time>
      </trkpt>
      <trkpt lat="58.56322" lon="-4.72059">
        <ele>30.53</ele>
        <time>2021-03-20T23:15:06Z</time>
      </trkpt>
      <trkpt lat="58.56309" lon="-4.7203">
        <ele>30.89</ele>
        <time>2021-03-20T23:15:09Z</time>
      </trkpt>
      <trkpt lat="58.56297" lon="-4.72018">
        <ele>31.64</ele>
        <time>2021-03-20T23:15:12Z</time>
      </trkpt>
      <trkpt lat="58.56203" lon="-4.71975">
        <ele>36.8</ele>
        <time>2021-03-20T23:15:15Z</time>
      </trkpt>
      <trkpt lat="58.56135" lon="-4.71934">
        <ele>40.75</ele>
        <time>2021-03-20T23:15:18Z</time>
      </trkpt>
      <trkpt lat="58.56081" lon="-4.71892">
        <ele>44.89</ele>
        <time>2021-03-20T23:15:21Z</time>
      </trkpt>
      <trkpt lat="58.5605" lon="-4.71859">
        <ele>47.08</ele>
        <time>2021-03-20T23:15:24Z</time>
      </trkpt>
      <trkpt lat="58.56029" lon="-4.71832">
        <ele>48</ele>
        <time>2021-03-20T23:15:27Z</time>
      </trkpt>
      <trkpt lat="58.55992" lon="-4.71781">
        <ele>48.38</ele>
        <time>2021-03-20T23:15:30Z</time>
      </trkpt>
      <trkpt lat="58.55955" lon="-4.71705">
        <ele>47.97</ele>
        <time>2021-03-20T23:15:33Z</time>
      </trkpt>
      <trkpt lat="58.55911" lon="-4.71602">
        <ele>43.87</ele>
        <time>2021-03-20T23:15:36Z</time>
      </trkpt>
      <trkpt lat="58.5585" lon="-4.71435">
        <ele>38.56</ele>
        <time>2021-03-20T23:15:39Z</time>
      </trkpt>
      <trkpt lat="58.55843" lon="-4.71397">
        <ele>38.06</ele>
        <time>2021-03-20T23:15:42Z</time>
      </trkpt>
      <trkpt lat="58.55842" lon="-4.71366">
        <ele>37.75</ele>
        <time>2021-03-20T23:15:45Z</time>
      </trkpt>
      <trkpt lat="58.55847" lon="-4.71123">
        <ele>37.32</ele>
        <time>2021-03-20T23:15:48Z</time>
      </trkpt>
      <trkpt lat="58.55827" lon="-4.70788">
        <ele>34.41</ele>
        <time>2021-03-20T23:15:51Z</time>
      </trkpt>
      <trkpt lat="58.55819" lon="-4.70748">
        <ele>33.38</ele>
        <time>2021-03-20T23:15:54Z</time>
      </trkpt>
      <trkpt lat="58.55804" lon="-4.70709">
        <ele>32.86</ele>
        <time>2021-03-20T23:15:57Z</time>
      </trkpt>
      <trkpt lat="58.55789" lon="-4.70684">
        <ele>31.87</ele>
        <time>2021-03-20T23:16:00Z</time>
      </trkpt>
      <trkpt lat="58.55768" lon="-4.70668">
        <ele>31.61</ele>
        <time>2021-03-20T23:16:03Z</time>
      </trkpt>
      <trkpt lat="58.55717" lon="-4.7065">
        <ele>29.16</ele>
        <time>2021-03-20T23:16:06Z</time>
      </trkpt>
      <trkpt lat="58.5561" lon="-4.70604">
        <ele>22.63</ele>
        <time>2021-03-20T23:16:09Z</time>
      </trkpt>
      <trkpt lat="58.55578" lon="-4.706">
        <ele>20.23</ele>
        <time>2021-03-20T23:16:13Z</time>
      </trkpt>
      <trkpt lat="58.55562" lon="-4.70605">
        <ele>19.24</ele>
        <time>2021-03-20T23:16:16Z</time>
      </trkpt>
      <trkpt lat="58.55531" lon="-4.70632">
        <ele>18.83</ele>
        <time>2021-03-20T23:16:19Z</time>
      </trkpt>
      <trkpt lat="58.55515" lon="-4.70636">
        <ele>18.35</ele>
        <time>2021-03-20T23:16:22Z</time>
      </trkpt>
      <trkpt lat="58.55499" lon="-4.7063">
        <ele>17.46</ele>
        <time>2021-03-20T23:16:25Z</time>
      </trkpt>
      <trkpt lat="58.55427" lon="-4.70486">
        <ele>14.15</ele>
        <time>2021-03-20T23:16:28Z</time>
      </trkpt>
      <trkpt lat="58.55414" lon="-4.70441">
        <ele>14.54</ele>
        <time>2021-03-20T23:16:31Z</time>
      </trkpt>
      <trkpt lat="58.55408" lon="-4.70403">
        <ele>15.03</ele>
        <time>2021-03-20T23:16:34Z</time>
      </trkpt>
      <trkpt lat="58.55405" lon="-4.7035">
        <ele>15.26</ele>
        <time>2021-03-20T23:16:37Z</time>
      </trkpt>
      <trkpt lat="58.55413" lon="-4.70203">
        <ele>19.22</ele>
        <time>2021-03-20T23:16:40Z</time>
      </trkpt>
      <trkpt lat="58.55425" lon="-4.7006">
        <ele>22.21</ele>
        <time>2021-03-20T23:16:43Z</time>
      </trkpt>
      <trkpt lat="58.55443" lon="-4.69911">
        <ele>25.27</ele>
        <time>2021-03-20T23:16:46Z</time>
      </trkpt>
      <trkpt lat="58.55444" lon="-4.69866">
        <ele>26.82</ele>
        <time>2021-03-20T23:16:49Z</time>
      </trkpt>
      <trkpt lat="58.55436" lon="-4.69809">
        <ele>28.87</ele>
        <time>2021-03-20T23:16:52Z</time>
      </trkpt>
      <trkpt lat="58.55408" lon="-4.69663">
        <ele>32.85</ele>
        <time>2021-03-20T23:16:55Z</time>
      </trkpt>
      <trkpt lat="58.55382" lon="-4.69536">
        <ele>37.23</ele>
        <time>2021-03-20T23:16:58Z</time>
      </trkpt>
      <trkpt lat="58.55374" lon="-4.69423">
        <ele>39.81</ele>
        <time>2021-03-20T23:17:01Z</time>
      </trkpt>
      <trkpt lat="58.55371" lon="-4.6934">
        <ele>41.47</ele>
        <time>2021-03-20T23:17:04Z</time>
      </trkpt>
      <trkpt lat="58.55364" lon="-4.693">
        <ele>40.72</ele>
        <time>2021-03-20T23:17:07Z</time>
      </trkpt>
      <trkpt lat="58.55352" lon="-4.69266">
        <ele>40.74</ele>
        <time>2021-03-20T23:17:10Z</time>
      </trkpt>
      <trkpt lat="58.55205" lon="-4.69065">
        <ele>43.89</ele>
        <time>2021-03-20T23:17:13Z</time>
      </trkpt>
      <trkpt lat="58.5518" lon="-4.6902">
        <ele>47.38</ele>
        <time>2021-03-20T23:17:16Z</time>
      </trkpt>
      <trkpt lat="58.5517" lon="-4.68979">
        <ele>48.38</ele>
        <time>2021-03-20T23:17:19Z</time>
      </trkpt>
      <trkpt lat="58.55166" lon="-4.68926">
        <ele>49.9</ele>
        <time>2021-03-20T23:17:22Z</time>
      </trkpt>
      <trkpt lat="58.55164" lon="-4.68867">
        <ele>51.45</ele>
        <time>2021-03-20T23:17:25Z</time>
      </trkpt>
      <trkpt lat="58.55157" lon="-4.68793">
        <ele>52.56</ele>
        <time>2021-03-20T23:17:28Z</time>
      </trkpt>
      <trkpt lat="58.55128" lon="-4.68614">
        <ele>54.46</ele>
        <time>2021-03-20T23:17:32Z</time>
      </trkpt>
      <trkpt lat="58.55123" lon="-4.68572">
        <ele>56.78</ele>
        <time>2021-03-20T23:17:35Z</time>
      </trkpt>
      <trkpt lat="58.55117" lon="-4.68506">
        <ele>60.67</ele>
        <time>2021-03-20T23:17:38Z</time>
      </trkpt>
      <trkpt lat="58.55113" lon="-4.6841">
        <ele>59.35</ele>
        <time>2021-03-20T23:17:41Z</time>
      </trkpt>
      <trkpt lat="58.55083" lon="-4.68288">
        <ele>58.46</ele>
        <time>2021-03-20T23:17:44Z</time>
      </trkpt>
      <trkpt lat="58.55071" lon="-4.68262">
        <ele>57.8</ele>
        <time>2021-03-20T23:17:47Z</time>
      </trkpt>
      <trkpt lat="58.55016" lon="-4.68175">
        <ele>53.07</ele>
        <time>2021-03-20T23:17:50Z</time>
      </trkpt>
      <trkpt lat="58.55005" lon="-4.68164">
        <ele>52.06</ele>
        <time>2021-03-20T23:17:53Z</time>
      </trkpt>
      <trkpt lat="58.5499" lon="-4.68154">
        <ele>51.05</ele>
        <time>2021-03-20T23:17:56Z</time>
      </trkpt>
      <trkpt lat="58.54896" lon="-4.68126">
        <ele>47.88</ele>
        <time>2021-03-20T23:17:59Z</time>
      </trkpt>
      <trkpt lat="58.54885" lon="-4.68121">
        <ele>47.27</ele>
        <time>2021-03-20T23:18:02Z</time>
      </trkpt>
      <trkpt lat="58.54878" lon="-4.68112">
        <ele>45.95</ele>
        <time>2021-03-20T23:18:05Z</time>
      </trkpt>
      <trkpt lat="58.54874" lon="-4.68102">
        <ele>45.39</ele>
        <time>2021-03-20T23:18:08Z</time>
      </trkpt>
      <trkpt lat="58.54872" lon="-4.6808">
        <ele>44.3</ele>
        <time>2021-03-20T23:18:11Z</time>
      </trkpt>
      <trkpt lat="58.54874" lon="-4.68051">
        <ele>42.32</ele>
        <time>2021-03-20T23:18:14Z</time>
      </trkpt>
      <trkpt lat="58.54906" lon="-4.6796">
        <ele>33.47</ele>
        <time>2021-03-20T23:18:17Z</time>
      </trkpt>
      <trkpt lat="58.54913" lon="-4.67932">
        <ele>31.72</ele>
        <time>2021-03-20T23:18:20Z</time>
      </trkpt>
      <trkpt lat="58.5492" lon="-4.67874">
        <ele>30.92</ele>
        <time>2021-03-20T23:18:23Z</time>
      </trkpt>
      <trkpt lat="58.5492" lon="-4.67837">
        <ele>30.93</ele>
        <time>2021-03-20T23:18:26Z</time>
      </trkpt>
      <trkpt lat="58.54913" lon="-4.67793">
        <ele>29.83</ele>
        <time>2021-03-20T23:18:29Z</time>
      </trkpt>
      <trkpt lat="58.54902" lon="-4.67766">
        <ele>29.01</ele>
        <time>2021-03-20T23:18:32Z</time>
      </trkpt>
      <trkpt lat="58.54892" lon="-4.6775">
        <ele>28.42</ele>
        <time>2021-03-20T23:18:35Z</time>
      </trkpt>
      <trkpt lat="58.5482" lon="-4.67675">
        <ele>26.91</ele>
        <time>2021-03-20T23:18:38Z</time>
      </trkpt>
      <trkpt lat="58.54814" lon="-4.67663">
        <ele>25.67</ele>
        <time>2021-03-20T23:18:41Z</time>
      </trkpt>
      <trkpt lat="58.54776" lon="-4.67518">
        <ele>23.21</ele>
        <time>2021-03-20T23:18:44Z</time>
      </trkpt>
      <trkpt lat="58.54762" lon="-4.67479">
        <ele>25.22</ele>
        <time>2021-03-20T23:18:47Z</time>
      </trkpt>
      <trkpt lat="58.54749" lon="-4.6746">
        <ele>26.97</ele>
        <time>2021-03-20T23:18:50Z</time>
      </trkpt>
      <trkpt lat="58.54731" lon="-4.67445">
        <ele>28.65</ele>
        <time>2021-03-20T23:18:54Z</time>
      </trkpt>
      <trkpt lat="58.54664" lon="-4.67433">
        <ele>34.26</ele>
        <time>2021-03-20T23:18:57Z</time>
      </trkpt>
      <trkpt lat="58.54601" lon="-4.67402">
        <ele>38.08</ele>
        <time>2021-03-20T23:19:00Z</time>
      </trkpt>
      <trkpt lat="58.54517" lon="-4.67388">
        <ele>38.08</ele>
        <time>2021-03-20T23:19:03Z</time>
      </trkpt>
      <trkpt lat="58.54418" lon="-4.67361">
        <ele>42</ele>
        <time>2021-03-20T23:19:06Z</time>
      </trkpt>
      <trkpt lat="58.54318" lon="-4.67323">
        <ele>43.35</ele>
        <time>2021-03-20T23:19:09Z</time>
      </trkpt>
      <trkpt lat="58.54294" lon="-4.67318">
        <ele>43.69</ele>
        <time>2021-03-20T23:19:12Z</time>
      </trkpt>
      <trkpt lat="58.5427" lon="-4.67336">
        <ele>43.96</ele>
        <time>2021-03-20T23:19:15Z</time>
      </trkpt>
      <trkpt lat="58.54184" lon="-4.67468">
        <ele>50.19</ele>
        <time>2021-03-20T23:19:18Z</time>
      </trkpt>
      <trkpt lat="58.5415" lon="-4.67509">
        <ele>51.71</ele>
        <time>2021-03-20T23:19:21Z</time>
      </trkpt>
      <trkpt lat="58.54125" lon="-4.67527">
        <ele>52.46</ele>
        <time>2021-03-20T23:19:24Z</time>
      </trkpt>
      <trkpt lat="58.54048" lon="-4.67557">
        <ele>50.83</ele>
        <time>2021-03-20T23:19:27Z</time>
      </trkpt>
      <trkpt lat="58.54005" lon="-4.67569">
        <ele>50.99</ele>
        <time>2021-03-20T23:19:30Z</time>
      </trkpt>
      <trkpt lat="58.53956" lon="-4.67567">
        <ele>52.84</ele>
        <time>2021-03-20T23:19:33Z</time>
      </trkpt>
      <trkpt lat="58.53885" lon="-4.67555">
        <ele>53.95</ele>
        <time>2021-03-20T23:19:36Z</time>
      </trkpt>
      <trkpt lat="58.53644" lon="-4.67617">
        <ele>55.07</ele>
        <time>2021-03-20T23:19:39Z</time>
      </trkpt>
      <trkpt lat="58.53616" lon="-4.67615">
        <ele>55.13</ele>
        <time>2021-03-20T23:19:42Z</time>
      </trkpt>
      <trkpt lat="58.53587" lon="-4.67607">
        <ele>54.87</ele>
        <time>2021-03-20T23:19:45Z</time>
      </trkpt>
      <trkpt lat="58.53472" lon="-4.67546">
        <ele>54.32</ele>
        <time>2021-03-20T23:19:48Z</time>
      </trkpt>
      <trkpt lat="58.53445" lon="-4.6754">
        <ele>53.88</ele>
        <time>2021-03-20T23:19:51Z</time>
      </trkpt>
      <trkpt lat="58.53423" lon="-4.67544">
        <ele>53.34</ele>
        <time>2021-03-20T23:19:54Z</time>
      </trkpt>
      <trkpt lat="58.5323" lon="-4.67655">
        <ele>48.32</ele>
        <time>2021-03-20T23:19:57Z</time>
      </trkpt>
      <trkpt lat="58.532" lon="-4.67686">
        <ele>47.78</ele>
        <time>2021-03-20T23:20:00Z</time>
      </trkpt>
      <trkpt lat="58.52996" lon="-4.67929">
        <ele>50.41</ele>
        <time>2021-03-20T23:20:03Z</time>
      </trkpt>
      <trkpt lat="58.52839" lon="-4.6808">
        <ele>51.02</ele>
        <time>2021-03-20T23:20:06Z</time>
      </trkpt>
      <trkpt lat="58.52749" lon="-4.68193">
        <ele>54.71</ele>
        <time>2021-03-20T23:20:09Z</time>
      </trkpt>
      <trkpt lat="58.5269" lon="-4.6824">
        <ele>54.19</ele>
        <time>2021-03-20T23:20:13Z</time>
      </trkpt>
      <trkpt lat="58.5253" lon="-4.68403">
        <ele>52.65</ele>
        <time>2021-03-20T23:20:16Z</time>
      </trkpt>
      <trkpt lat="58.52509" lon="-4.68412">
        <ele>52.03</ele>
        <time>2021-03-20T23:20:19Z</time>
      </trkpt>
      <trkpt lat="58.52486" lon="-4.6841">
        <ele>51</ele>
        <time>2021-03-20T23:20:22Z</time>
      </trkpt>
      <trkpt lat="58.52462" lon="-4.68392">
        <ele>49.24</ele>
        <time>2021-03-20T23:20:25Z</time>
      </trkpt>
      <trkpt lat="58.5244" lon="-4.68381">
        <ele>48.28</ele>
        <time>2021-03-20T23:20:28Z</time>
      </trkpt>
      <trkpt lat="58.52407" lon="-4.68387">
        <ele>47.48</ele>
        <time>2021-03-20T23:20:31Z</time>
      </trkpt>
      <trkpt lat="58.52388" lon="-4.68403">
        <ele>48.45</ele>
        <time>2021-03-20T23:20:34Z</time>
      </trkpt>
      <trkpt lat="58.52357" lon="-4.68445">
        <ele>49.77</ele>
        <time>2021-03-20T23:20:37Z</time>
      </trkpt>
      <trkpt lat="58.52333" lon="-4.68471">
        <ele>49.92</ele>
        <time>2021-03-20T23:20:40Z</time>
      </trkpt>
      <trkpt lat="58.52306" lon="-4.68491">
        <ele>49.68</ele>
        <time>2021-03-20T23:20:43Z</time>
      </trkpt>
      <trkpt lat="58.52251" lon="-4.68505">
        <ele>48.41</ele>
        <time>2021-03-20T23:20:46Z</time>
      </trkpt>
      <trkpt lat="58.52173" lon="-4.68509">
        <ele>48.09</ele>
        <time>2021-03-20T23:20:49Z</time>
      </trkpt>
      <trkpt lat="58.52133" lon="-4.68515">
        <ele>49.62</ele>
        <time>2021-03-20T23:20:52Z</time>
      </trkpt>
      <trkpt lat="58.52104" lon="-4.68536">
        <ele>49.73</ele>
        <time>2021-03-20T23:20:55Z</time>
      </trkpt>
      <trkpt lat="58.52081" lon="-4.68572">
        <ele>49.49</ele>
        <time>2021-03-20T23:20:58Z</time>
      </trkpt>
      <trkpt lat="58.52022" lon="-4.6875">
        <ele>52.54</ele>
        <time>2021-03-20T23:21:01Z</time>
      </trkpt>
      <trkpt lat="58.51981" lon="-4.68858">
        <ele>53.14</ele>
        <time>2021-03-20T23:21:04Z</time>
      </trkpt>
      <trkpt lat="58.51883" lon="-4.69047">
        <ele>52.15</ele>
        <time>2021-03-20T23:21:07Z</time>
      </trkpt>
      <trkpt lat="58.51866" lon="-4.69084">
        <ele>50.56</ele>
        <time>2021-03-20T23:21:10Z</time>
      </trkpt>
      <trkpt lat="58.51842" lon="-4.69153">
        <ele>49.96</ele>
        <time>2021-03-20T23:21:13Z</time>
      </trkpt>
      <trkpt lat="58.51816" lon="-4.69192">
        <ele>50.29</ele>
        <time>2021-03-20T23:21:16Z</time>
      </trkpt>
      <trkpt lat="58.51789" lon="-4.69216">
        <ele>49.39</ele>
        <time>2021-03-20T23:21:19Z</time>
      </trkpt>
      <trkpt lat="58.51607" lon="-4.69316">
        <ele>45.08</ele>
        <time>2021-03-20T23:21:22Z</time>
      </trkpt>
      <trkpt lat="58.5158" lon="-4.69335">
        <ele>43.77</ele>
        <time>2021-03-20T23:21:25Z</time>
      </trkpt>
      <trkpt lat="58.51549" lon="-4.69371">
        <ele>43.24</ele>
        <time>2021-03-20T23:21:28Z</time>
      </trkpt>
      <trkpt lat="58.51518" lon="-4.69414">
        <ele>44.09</ele>
        <time>2021-03-20T23:21:32Z</time>
      </trkpt>
      <trkpt lat="58.51503" lon="-4.6945">
        <ele>45.4</ele>
        <time>2021-03-20T23:21:35Z</time>
      </trkpt>
      <trkpt lat="58.51483" lon="-4.69512">
        <ele>44.86</ele>
        <time>2021-03-20T23:21:38Z</time>
      </trkpt>
      <trkpt lat="58.5146" lon="-4.69575">
        <ele>44.67</ele>
        <time>2021-03-20T23:21:41Z</time>
      </trkpt>
      <trkpt lat="58.51435" lon="-4.69612">
        <ele>44.63</ele>
        <time>2021-03-20T23:21:44Z</time>
      </trkpt>
      <trkpt lat="58.51402" lon="-4.69636">
        <ele>42.19</ele>
        <time>2021-03-20T23:21:47Z</time>
      </trkpt>
      <trkpt lat="58.51346" lon="-4.69655">
        <ele>38.16</ele>
        <time>2021-03-20T23:21:50Z</time>
      </trkpt>
      <trkpt lat="58.51327" lon="-4.69668">
        <ele>36.41</ele>
        <time>2021-03-20T23:21:53Z</time>
      </trkpt>
      <trkpt lat="58.51308" lon="-4.69692">
        <ele>35.12</ele>
        <time>2021-03-20T23:21:56Z</time>
      </trkpt>
      <trkpt lat="58.51204" lon="-4.69834">
        <ele>32.06</ele>
        <time>2021-03-20T23:21:59Z</time>
      </trkpt>
      <trkpt lat="58.51181" lon="-4.69873">
        <ele>29.56</ele>
        <time>2021-03-20T23:22:02Z</time>
      </trkpt>
      <trkpt lat="58.51168" lon="-4.69904">
        <ele>28.09</ele>
        <time>2021-03-20T23:22:05Z</time>
      </trkpt>
      <trkpt lat="58.51158" lon="-4.69935">
        <ele>27.02</ele>
        <time>2021-03-20T23:22:08Z</time>
      </trkpt>
      <trkpt lat="58.51126" lon="-4.70074">
        <ele>29.28</ele>
        <time>2021-03-20T23:22:11Z</time>
      </trkpt>
      <trkpt lat="58.5111" lon="-4.70115">
        <ele>28.09</ele>
        <time>2021-03-20T23:22:14Z</time>
      </trkpt>
      <trkpt lat="58.51094" lon="-4.70136">
        <ele>27.4</ele>
        <time>2021-03-20T23:22:17Z</time>
      </trkpt>
      <trkpt lat="58.51075" lon="-4.70155">
        <ele>26.28</ele>
        <time>2021-03-20T23:22:20Z</time>
      </trkpt>
      <trkpt lat="58.51056" lon="-4.70168">
        <ele>26.08</ele>
        <time>2021-03-20T23:22:23Z</time>
      </trkpt>
      <trkpt lat="58.51029" lon="-4.7017">
        <ele>26.34</ele>
        <time>2021-03-20T23:22:26Z</time>
      </trkpt>
      <trkpt lat="58.51009" lon="-4.70165">
        <ele>26.52</ele>
        <time>2021-03-20T23:22:29Z</time>
      </trkpt>
      <trkpt lat="58.50974" lon="-4.70148">
        <ele>26.93</ele>
        <time>2021-03-20T23:22:32Z</time>
      </trkpt>
      <trkpt lat="58.50945" lon="-4.70139">
        <ele>28</ele>
        <time>2021-03-20T23:22:35Z</time>
      </trkpt>
      <trkpt lat="58.50926" lon="-4.7014">
        <ele>28.1</ele>
        <time>2021-03-20T23:22:38Z</time>
      </trkpt>
      <trkpt lat="58.50909" lon="-4.70146">
        <ele>27.95</ele>
        <time>2021-03-20T23:22:41Z</time>
      </trkpt>
      <trkpt lat="58.50895" lon="-4.70158">
        <ele>27.78</ele>
        <time>2021-03-20T23:22:44Z</time>
      </trkpt>
      <trkpt lat="58.5088" lon="-4.70177">
        <ele>28.13</ele>
        <time>2021-03-20T23:22:47Z</time>
      </trkpt>
      <trkpt lat="58.50866" lon="-4.70205">
        <ele>28.82</ele>
        <time>2021-03-20T23:22:50Z</time>
      </trkpt>
      <trkpt lat="58.50808" lon="-4.70352">
        <ele>35.69</ele>
        <time>2021-03-20T23:22:54Z</time>
      </trkpt>
      <trkpt lat="58.50784" lon="-4.70403">
        <ele>38.37</ele>
        <time>2021-03-20T23:22:57Z</time>
      </trkpt>
      <trkpt lat="58.50771" lon="-4.70421">
        <ele>39.83</ele>
        <time>2021-03-20T23:23:00Z</time>
      </trkpt>
      <trkpt lat="58.50705" lon="-4.70499">
        <ele>40.8</ele>
        <time>2021-03-20T23:23:03Z</time>
      </trkpt>
      <trkpt lat="58.5068" lon="-4.70548">
        <ele>40.27</ele>
        <time>2021-03-20T23:23:06Z</time>
      </trkpt>
      <trkpt lat="58.50663" lon="-4.70585">
        <ele>39.79</ele>
        <time>2021-03-20T23:23:09Z</time>
      </trkpt>
      <trkpt lat="58.50634" lon="-4.7063">
        <ele>39.88</ele>
        <time>2021-03-20T23:23:12Z</time>
      </trkpt>
      <trkpt lat="58.50585" lon="-4.70661">
        <ele>39.45</ele>
        <time>2021-03-20T23:23:15Z</time>
      </trkpt>
      <trkpt lat="58.50563" lon="-4.70663">
        <ele>39.55</ele>
        <time>2021-03-20T23:23:18Z</time>
      </trkpt>
      <trkpt lat="58.50519" lon="-4.70648">
        <ele>39.67</ele>
        <time>2021-03-20T23:23:21Z</time>
      </trkpt>
      <trkpt lat="58.50497" lon="-4.70648">
        <ele>40.28</ele>
        <time>2021-03-20T23:23:24Z</time>
      </trkpt>
      <trkpt lat="58.50443" lon="-4.70663">
        <ele>42.49</ele>
        <time>2021-03-20T23:23:27Z</time>
      </trkpt>
      <trkpt lat="58.50422" lon="-4.70678">
        <ele>43.36</ele>
        <time>2021-03-20T23:23:30Z</time>
      </trkpt>
      <trkpt lat="58.50406" lon="-4.70699">
        <ele>44.14</ele>
        <time>2021-03-20T23:23:33Z</time>
      </trkpt>
      <trkpt lat="58.50382" lon="-4.70751">
        <ele>45.29</ele>
        <time>2021-03-20T23:23:36Z</time>
      </trkpt>
      <trkpt lat="58.50328" lon="-4.70827">
        <ele>44.01</ele>
        <time>2021-03-20T23:23:39Z</time>
      </trkpt>
      <trkpt lat="58.50233" lon="-4.7089">
        <ele>41.85</ele>
        <time>2021-03-20T23:23:42Z</time>
      </trkpt>
      <trkpt lat="58.50211" lon="-4.70917">
        <ele>41.83</ele>
        <time>2021-03-20T23:23:45Z</time>
      </trkpt>
      <trkpt lat="58.5019" lon="-4.7095">
        <ele>41.98</ele>
        <time>2021-03-20T23:23:48Z</time>
      </trkpt>
      <trkpt lat="58.50075" lon="-4.71144">
        <ele>43.12</ele>
        <time>2021-03-20T23:23:51Z</time>
      </trkpt>
      <trkpt lat="58.50016" lon="-4.71247">
        <ele>42.13</ele>
        <time>2021-03-20T23:23:54Z</time>
      </trkpt>
      <trkpt lat="58.50004" lon="-4.7127">
        <ele>41.31</ele>
        <time>2021-03-20T23:23:57Z</time>
      </trkpt>
      <trkpt lat="58.49969" lon="-4.71357">
        <ele>42.49</ele>
        <time>2021-03-20T23:24:00Z</time>
      </trkpt>
      <trkpt lat="58.49941" lon="-4.71416">
        <ele>42.44</ele>
        <time>2021-03-20T23:24:03Z</time>
      </trkpt>
      <trkpt lat="58.49923" lon="-4.71438">
        <ele>41.26</ele>
        <time>2021-03-20T23:24:06Z</time>
      </trkpt>
      <trkpt lat="58.49851" lon="-4.71509">
        <ele>40.96</ele>
        <time>2021-03-20T23:24:09Z</time>
      </trkpt>
      <trkpt lat="58.498" lon="-4.71583">
        <ele>42.78</ele>
        <time>2021-03-20T23:24:13Z</time>
      </trkpt>
      <trkpt lat="58.49766" lon="-4.71636">
        <ele>43.03</ele>
        <time>2021-03-20T23:24:16Z</time>
      </trkpt>
      <trkpt lat="58.49754" lon="-4.71661">
        <ele>43.08</ele>
        <time>2021-03-20T23:24:19Z</time>
      </trkpt>
      <trkpt lat="58.49718" lon="-4.71761">
        <ele>44.09</ele>
        <time>2021-03-20T23:24:22Z</time>
      </trkpt>
      <trkpt lat="58.49691" lon="-4.71816">
        <ele>44.85</ele>
        <time>2021-03-20T23:24:25Z</time>
      </trkpt>
      <trkpt lat="58.4968" lon="-4.71832">
        <ele>43.89</ele>
        <time>2021-03-20T23:24:28Z</time>
      </trkpt>
      <trkpt lat="58.49655" lon="-4.71862">
        <ele>42.76</ele>
        <time>2021-03-20T23:24:31Z</time>
      </trkpt>
      <trkpt lat="58.49602" lon="-4.71898">
        <ele>40.65</ele>
        <time>2021-03-20T23:24:34Z</time>
      </trkpt>
      <trkpt lat="58.49566" lon="-4.7193">
        <ele>39.07</ele>
        <time>2021-03-20T23:24:37Z</time>
      </trkpt>
      <trkpt lat="58.4955" lon="-4.71951">
        <ele>38.81</ele>
        <time>2021-03-20T23:24:40Z</time>
      </trkpt>
      <trkpt lat="58.49519" lon="-4.71998">
        <ele>38.6</ele>
        <time>2021-03-20T23:24:43Z</time>
      </trkpt>
      <trkpt lat="58.4949" lon="-4.72049">
        <ele>38.39</ele>
        <time>2021-03-20T23:24:46Z</time>
      </trkpt>
      <trkpt lat="58.49475" lon="-4.72064">
        <ele>38.24</ele>
        <time>2021-03-20T23:24:49Z</time>
      </trkpt>
      <trkpt lat="58.49443" lon="-4.72096">
        <ele>37.69</ele>
        <time>2021-03-20T23:24:52Z</time>
      </trkpt>
      <trkpt lat="58.49359" lon="-4.72162">
        <ele>35.5</ele>
        <time>2021-03-20T23:24:55Z</time>
      </trkpt>
      <trkpt lat="58.49325" lon="-4.72195">
        <ele>35.45</ele>
        <time>2021-03-20T23:24:58Z</time>
      </trkpt>
      <trkpt lat="58.49305" lon="-4.7222">
        <ele>35.75</ele>
        <time>2021-03-20T23:25:01Z</time>
      </trkpt>
      <trkpt lat="58.49263" lon="-4.72297">
        <ele>35.59</ele>
        <time>2021-03-20T23:25:04Z</time>
      </trkpt>
      <trkpt lat="58.49247" lon="-4.7232">
        <ele>35.26</ele>
        <time>2021-03-20T23:25:07Z</time>
      </trkpt>
      <trkpt lat="58.49217" lon="-4.72352">
        <ele>35.02</ele>
        <time>2021-03-20T23:25:10Z</time>
      </trkpt>
      <trkpt lat="58.49183" lon="-4.72383">
        <ele>34.37</ele>
        <time>2021-03-20T23:25:13Z</time>
      </trkpt>
      <trkpt lat="58.49152" lon="-4.72396">
        <ele>32.81</ele>
        <time>2021-03-20T23:25:16Z</time>
      </trkpt>
      <trkpt lat="58.49057" lon="-4.7241">
        <ele>30.88</ele>
        <time>2021-03-20T23:25:19Z</time>
      </trkpt>
      <trkpt lat="58.49027" lon="-4.72418">
        <ele>29.03</ele>
        <time>2021-03-20T23:25:22Z</time>
      </trkpt>
      <trkpt lat="58.49003" lon="-4.72449">
        <ele>29.24</ele>
        <time>2021-03-20T23:25:25Z</time>
      </trkpt>
      <trkpt lat="58.48972" lon="-4.72511">
        <ele>29.35</ele>
        <time>2021-03-20T23:25:28Z</time>
      </trkpt>
      <trkpt lat="58.48957" lon="-4.72536">
        <ele>29.2</ele>
        <time>2021-03-20T23:25:32Z</time>
      </trkpt>
      <trkpt lat="58.48945" lon="-4.7255">
        <ele>28.86</ele>
        <time>2021-03-20T23:25:35Z</time>
      </trkpt>
      <trkpt lat="58.4891" lon="-4.72579">
        <ele>29.41</ele>
        <time>2021-03-20T23:25:38Z</time>
      </trkpt>
      <trkpt lat="58.48879" lon="-4.72595">
        <ele>28.69</ele>
        <time>2021-03-20T23:25:41Z</time>
      </trkpt>
      <trkpt lat="58.48822" lon="-4.72601">
        <ele>26.62</ele>
        <time>2021-03-20T23:25:44Z</time>
      </trkpt>
      <trkpt lat="58.48806" lon="-4.72605">
        <ele>26.77</ele>
        <time>2021-03-20T23:25:47Z</time>
      </trkpt>
      <trkpt lat="58.48793" lon="-4.72613">
        <ele>26.69</ele>
        <time>2021-03-20T23:25:50Z</time>
      </trkpt>
      <trkpt lat="58.48748" lon="-4.72649">
        <ele>28.69</ele>
        <time>2021-03-20T23:25:53Z</time>
      </trkpt>
      <trkpt lat="58.4867" lon="-4.72674">
        <ele>28.56</ele>
        <time>2021-03-20T23:25:56Z</time>
      </trkpt>
      <trkpt lat="58.48652" lon="-4.72684">
        <ele>28.72</ele>
        <time>2021-03-20T23:25:59Z</time>
      </trkpt>
      <trkpt lat="58.48596" lon="-4.72725">
        <ele>27.66</ele>
        <time>2021-03-20T23:26:02Z</time>
      </trkpt>
      <trkpt lat="58.48577" lon="-4.72733">
        <ele>27.35</ele>
        <time>2021-03-20T23:26:05Z</time>
      </trkpt>
      <trkpt lat="58.48523" lon="-4.72744">
        <ele>25.36</ele>
        <time>2021-03-20T23:26:08Z</time>
      </trkpt>
      <trkpt lat="58.48503" lon="-4.72752">
        <ele>25.17</ele>
        <time>2021-03-20T23:26:11Z</time>
      </trkpt>
      <trkpt lat="58.48482" lon="-4.72771">
        <ele>24.44</ele>
        <time>2021-03-20T23:26:14Z</time>
      </trkpt>
      <trkpt lat="58.48459" lon="-4.72801">
        <ele>24.77</ele>
        <time>2021-03-20T23:26:17Z</time>
      </trkpt>
      <trkpt lat="58.48433" lon="-4.7284">
        <ele>24.05</ele>
        <time>2021-03-20T23:26:20Z</time>
      </trkpt>
      <trkpt lat="58.48385" lon="-4.7289">
        <ele>24.77</ele>
        <time>2021-03-20T23:26:23Z</time>
      </trkpt>
      <trkpt lat="58.48268" lon="-4.72978">
        <ele>24.34</ele>
        <time>2021-03-20T23:26:26Z</time>
      </trkpt>
      <trkpt lat="58.48194" lon="-4.73049">
        <ele>22.75</ele>
        <time>2021-03-20T23:26:29Z</time>
      </trkpt>
      <trkpt lat="58.48162" lon="-4.73074">
        <ele>23.31</ele>
        <time>2021-03-20T23:26:32Z</time>
      </trkpt>
      <trkpt lat="58.48135" lon="-4.73086">
        <ele>24.19</ele>
        <time>2021-03-20T23:26:35Z</time>
      </trkpt>
      <trkpt lat="58.48056" lon="-4.73113">
        <ele>24.17</ele>
        <time>2021-03-20T23:26:38Z</time>
      </trkpt>
      <trkpt lat="58.48027" lon="-4.73127">
        <ele>25.13</ele>
        <time>2021-03-20T23:26:41Z</time>
      </trkpt>
      <trkpt lat="58.47973" lon="-4.73174">
        <ele>26.52</ele>
        <time>2021-03-20T23:26:44Z</time>
      </trkpt>
      <trkpt lat="58.47957" lon="-4.73192">
        <ele>26.72</ele>
        <time>2021-03-20T23:26:47Z</time>
      </trkpt>
      <trkpt lat="58.47913" lon="-4.73258">
        <ele>28.3</ele>
        <time>2021-03-20T23:26:50Z</time>
      </trkpt>
      <trkpt lat="58.47891" lon="-4.73276">
        <ele>28.95</ele>
        <time>2021-03-20T23:26:54Z</time>
      </trkpt>
      <trkpt lat="58.47827" lon="-4.73311">
        <ele>28.74</ele>
        <time>2021-03-20T23:26:57Z</time>
      </trkpt>
      <trkpt lat="58.47806" lon="-4.73327">
        <ele>27.82</ele>
        <time>2021-03-20T23:27:00Z</time>
      </trkpt>
      <trkpt lat="58.47767" lon="-4.7337">
        <ele>27.95</ele>
        <time>2021-03-20T23:27:03Z</time>
      </trkpt>
      <trkpt lat="58.47731" lon="-4.73396">
        <ele>27.8</ele>
        <time>2021-03-20T23:27:06Z</time>
      </trkpt>
      <trkpt lat="58.47666" lon="-4.73435">
        <ele>27.61</ele>
        <time>2021-03-20T23:27:09Z</time>
      </trkpt>
      <trkpt lat="58.47558" lon="-4.73515">
        <ele>26.74</ele>
        <time>2021-03-20T23:27:12Z</time>
      </trkpt>
      <trkpt lat="58.47361" lon="-4.73654">
        <ele>25.53</ele>
        <time>2021-03-20T23:27:15Z</time>
      </trkpt>
      <trkpt lat="58.4733" lon="-4.73687">
        <ele>25.33</ele>
        <time>2021-03-20T23:27:18Z</time>
      </trkpt>
      <trkpt lat="58.473" lon="-4.73733">
        <ele>25.97</ele>
        <time>2021-03-20T23:27:21Z</time>
      </trkpt>
      <trkpt lat="58.47161" lon="-4.74023">
        <ele>26.43</ele>
        <time>2021-03-20T23:27:24Z</time>
      </trkpt>
      <trkpt lat="58.47137" lon="-4.74066">
        <ele>26.14</ele>
        <time>2021-03-20T23:27:27Z</time>
      </trkpt>
      <trkpt lat="58.47054" lon="-4.74161">
        <ele>25.65</ele>
        <time>2021-03-20T23:27:30Z</time>
      </trkpt>
      <trkpt lat="58.47032" lon="-4.74196">
        <ele>25.27</ele>
        <time>2021-03-20T23:27:33Z</time>
      </trkpt>
      <trkpt lat="58.46959" lon="-4.74356">
        <ele>27.34</ele>
        <time>2021-03-20T23:27:36Z</time>
      </trkpt>
      <trkpt lat="58.4694" lon="-4.74394">
        <ele>27.86</ele>
        <time>2021-03-20T23:27:39Z</time>
      </trkpt>
      <trkpt lat="58.46915" lon="-4.74422">
        <ele>27.09</ele>
        <time>2021-03-20T23:27:42Z</time>
      </trkpt>
      <trkpt lat="58.46832" lon="-4.74475">
        <ele>26.08</ele>
        <time>2021-03-20T23:27:45Z</time>
      </trkpt>
      <trkpt lat="58.46789" lon="-4.74508">
        <ele>25.32</ele>
        <time>2021-03-20T23:27:48Z</time>
      </trkpt>
      <trkpt lat="58.46759" lon="-4.74545">
        <ele>25.27</ele>
        <time>2021-03-20T23:27:51Z</time>
      </trkpt>
      <trkpt lat="58.46721" lon="-4.74611">
        <ele>24.91</ele>
        <time>2021-03-20T23:27:54Z</time>
      </trkpt>
      <trkpt lat="58.467" lon="-4.74632">
        <ele>24.9</ele>
        <time>2021-03-20T23:27:57Z</time>
      </trkpt>
      <trkpt lat="58.46551" lon="-4.74745">
        <ele>23.29</ele>
        <time>2021-03-20T23:28:00Z</time>
      </trkpt>
      <trkpt lat="58.46505" lon="-4.74796">
        <ele>22.72</ele>
        <time>2021-03-20T23:28:03Z</time>
      </trkpt>
      <trkpt lat="58.46495" lon="-4.7482">
        <ele>22.94</ele>
        <time>2021-03-20T23:28:06Z</time>
      </trkpt>
      <trkpt lat="58.46465" lon="-4.74905">
        <ele>22.99</ele>
        <time>2021-03-20T23:28:09Z</time>
      </trkpt>
      <trkpt lat="58.46438" lon="-4.74961">
        <ele>23.46</ele>
        <time>2021-03-20T23:28:13Z</time>
      </trkpt>
      <trkpt lat="58.46394" lon="-4.75034">
        <ele>22.95</ele>
        <time>2021-03-20T23:28:16Z</time>
      </trkpt>
      <trkpt lat="58.46359" lon="-4.75127">
        <ele>23.88</ele>
        <time>2021-03-20T23:28:19Z</time>
      </trkpt>
      <trkpt lat="58.4632" lon="-4.75188">
        <ele>21.68</ele>
        <time>2021-03-20T23:28:22Z</time>
      </trkpt>
      <trkpt lat="58.46307" lon="-4.75216">
        <ele>21.92</ele>
        <time>2021-03-20T23:28:25Z</time>
      </trkpt>
      <trkpt lat="58.46256" lon="-4.75357">
        <ele>21.26</ele>
        <time>2021-03-20T23:28:28Z</time>
      </trkpt>
      <trkpt lat="58.46225" lon="-4.75418">
        <ele>22.26</ele>
        <time>2021-03-20T23:28:31Z</time>
      </trkpt>
      <trkpt lat="58.46196" lon="-4.75465">
        <ele>22.58</ele>
        <time>2021-03-20T23:28:34Z</time>
      </trkpt>
      <trkpt lat="58.46167" lon="-4.75501">
        <ele>23.07</ele>
        <time>2021-03-20T23:28:37Z</time>
      </trkpt>
      <trkpt lat="58.46096" lon="-4.75575">
        <ele>23.45</ele>
        <time>2021-03-20T23:28:40Z</time>
      </trkpt>
      <trkpt lat="58.46038" lon="-4.75664">
        <ele>25.25</ele>
        <time>2021-03-20T23:28:43Z</time>
      </trkpt>
      <trkpt lat="58.46005" lon="-4.75709">
        <ele>26.39</ele>
        <time>2021-03-20T23:28:46Z</time>
      </trkpt>
      <trkpt lat="58.45975" lon="-4.75737">
        <ele>26.28</ele>
        <time>2021-03-20T23:28:49Z</time>
      </trkpt>
      <trkpt lat="58.4577" lon="-4.7588">
        <ele>24.04</ele>
        <time>2021-03-20T23:28:52Z</time>
      </trkpt>
      <trkpt lat="58.45682" lon="-4.75962">
        <ele>24.75</ele>
        <time>2021-03-20T23:28:55Z</time>
      </trkpt>
      <trkpt lat="58.45661" lon="-4.7597">
        <ele>23.7</ele>
        <time>2021-03-20T23:28:58Z</time>
      </trkpt>
      <trkpt lat="58.45643" lon="-4.75969">
        <ele>23.02</ele>
        <time>2021-03-20T23:29:01Z</time>
      </trkpt>
      <trkpt lat="58.45555" lon="-4.75938">
        <ele>18.97</ele>
        <time>2021-03-20T23:29:04Z</time>
      </trkpt>
      <trkpt lat="58.45524" lon="-4.75933">
        <ele>17.88</ele>
        <time>2021-03-20T23:29:07Z</time>
      </trkpt>
      <trkpt lat="58.45484" lon="-4.75939">
        <ele>16.41</ele>
        <time>2021-03-20T23:29:10Z</time>
      </trkpt>
      <trkpt lat="58.45459" lon="-4.75933">
        <ele>15.23</ele>
        <time>2021-03-20T23:29:13Z</time>
      </trkpt>
      <trkpt lat="58.45327" lon="-4.75884">
        <ele>12.18</ele>
        <time>2021-03-20T23:29:16Z</time>
      </trkpt>
      <trkpt lat="58.45305" lon="-4.75881">
        <ele>12.29</ele>
        <time>2021-03-20T23:29:19Z</time>
      </trkpt>
      <trkpt lat="58.4527" lon="-4.75891">
        <ele>11.64</ele>
        <time>2021-03-20T23:29:22Z</time>
      </trkpt>
      <trkpt lat="58.45199" lon="-4.7592">
        <ele>9.98</ele>
        <time>2021-03-20T23:29:25Z</time>
      </trkpt>
      <trkpt lat="58.45156" lon="-4.7594">
        <ele>8.4</ele>
        <time>2021-03-20T23:29:28Z</time>
      </trkpt>
      <trkpt lat="58.45121" lon="-4.75966">
        <ele>6.36</ele>
        <time>2021-03-20T23:29:32Z</time>
      </trkpt>
      <trkpt lat="58.44998" lon="-4.76101">
        <ele>7.47</ele>
        <time>2021-03-20T23:29:35Z</time>
      </trkpt>
      <trkpt lat="58.44937" lon="-4.76206">
        <ele>8.3</ele>
        <time>2021-03-20T23:29:38Z</time>
      </trkpt>
      <trkpt lat="58.44919" lon="-4.76224">
        <ele>8.17</ele>
        <time>2021-03-20T23:29:41Z</time>
      </trkpt>
      <trkpt lat="58.449" lon="-4.76233">
        <ele>8.99</ele>
        <time>2021-03-20T23:29:44Z</time>
      </trkpt>
      <trkpt lat="58.44878" lon="-4.76233">
        <ele>10.04</ele>
        <time>2021-03-20T23:29:47Z</time>
      </trkpt>
      <trkpt lat="58.44858" lon="-4.76221">
        <ele>11</ele>
        <time>2021-03-20T23:29:50Z</time>
      </trkpt>
      <trkpt lat="58.44836" lon="-4.76198">
        <ele>11</ele>
        <time>2021-03-20T23:29:53Z</time>
      </trkpt>
      <trkpt lat="58.4482" lon="-4.76163">
        <ele>12</ele>
        <time>2021-03-20T23:29:56Z</time>
      </trkpt>
      <trkpt lat="58.4481" lon="-4.76127">
        <ele>12.36</ele>
        <time>2021-03-20T23:29:59Z</time>
      </trkpt>
      <trkpt lat="58.44772" lon="-4.75877">
        <ele>13</ele>
        <time>2021-03-20T23:30:02Z</time>
      </trkpt>
      <trkpt lat="58.44764" lon="-4.75845">
        <ele>13.6</ele>
        <time>2021-03-20T23:30:05Z</time>
      </trkpt>
      <trkpt lat="58.44749" lon="-4.75812">
        <ele>13.96</ele>
        <time>2021-03-20T23:30:08Z</time>
      </trkpt>
      <trkpt lat="58.44725" lon="-4.75778">
        <ele>14.11</ele>
        <time>2021-03-20T23:30:11Z</time>
      </trkpt>
      <trkpt lat="58.44602" lon="-4.75577">
        <ele>10.11</ele>
        <time>2021-03-20T23:30:14Z</time>
      </trkpt>
      <trkpt lat="58.44591" lon="-4.75563">
        <ele>9.99</ele>
        <time>2021-03-20T23:30:17Z</time>
      </trkpt>
      <trkpt lat="58.44421" lon="-4.75413">
        <ele>12.84</ele>
        <time>2021-03-20T23:30:20Z</time>
      </trkpt>
      <trkpt lat="58.44409" lon="-4.75395">
        <ele>13.35</ele>
        <time>2021-03-20T23:30:23Z</time>
      </trkpt>
      <trkpt lat="58.44399" lon="-4.75371">
        <ele>13.64</ele>
        <time>2021-03-20T23:30:26Z</time>
      </trkpt>
      <trkpt lat="58.44391" lon="-4.75341">
        <ele>14.62</ele>
        <time>2021-03-20T23:30:29Z</time>
      </trkpt>
      <trkpt lat="58.44385" lon="-4.7529">
        <ele>16.25</ele>
        <time>2021-03-20T23:30:32Z</time>
      </trkpt>
      <trkpt lat="58.44386" lon="-4.75251">
        <ele>17.69</ele>
        <time>2021-03-20T23:30:35Z</time>
      </trkpt>
      <trkpt lat="58.44486" lon="-4.74538">
        <ele>14.04</ele>
        <time>2021-03-20T23:30:38Z</time>
      </trkpt>
      <trkpt lat="58.4449" lon="-4.74484">
        <ele>13.72</ele>
        <time>2021-03-20T23:30:41Z</time>
      </trkpt>
      <trkpt lat="58.44483" lon="-4.74259">
        <ele>12.43</ele>
        <time>2021-03-20T23:30:44Z</time>
      </trkpt>
      <trkpt lat="58.44482" lon="-4.74195">
        <ele>10.65</ele>
        <time>2021-03-20T23:30:47Z</time>
      </trkpt>
      <trkpt lat="58.4449" lon="-4.73978">
        <ele>6.69</ele>
        <time>2021-03-20T23:30:51Z</time>
      </trkpt>
      <trkpt lat="58.44501" lon="-4.73908">
        <ele>4.96</ele>
        <time>2021-03-20T23:30:54Z</time>
      </trkpt>
      <trkpt lat="58.44515" lon="-4.73852">
        <ele>4.71</ele>
        <time>2021-03-20T23:30:57Z</time>
      </trkpt>
      <trkpt lat="58.44532" lon="-4.73805">
        <ele>4.72</ele>
        <time>2021-03-20T23:31:00Z</time>
      </trkpt>
      <trkpt lat="58.44555" lon="-4.73761">
        <ele>4.63</ele>
        <time>2021-03-20T23:31:03Z</time>
      </trkpt>
      <trkpt lat="58.44671" lon="-4.73588">
        <ele>9.04</ele>
        <time>2021-03-20T23:31:06Z</time>
      </trkpt>
      <trkpt lat="58.44724" lon="-4.73529">
        <ele>13.34</ele>
        <time>2021-03-20T23:31:09Z</time>
      </trkpt>
      <trkpt lat="58.44766" lon="-4.73492">
        <ele>12.22</ele>
        <time>2021-03-20T23:31:12Z</time>
      </trkpt>
      <trkpt lat="58.45016" lon="-4.73306">
        <ele>10.09</ele>
        <time>2021-03-20T23:31:15Z</time>
      </trkpt>
      <trkpt lat="58.45068" lon="-4.73278">
        <ele>9.01</ele>
        <time>2021-03-20T23:31:18Z</time>
      </trkpt>
      <trkpt lat="58.45082" lon="-4.73265">
        <ele>9.51</ele>
        <time>2021-03-20T23:31:21Z</time>
      </trkpt>
      <trkpt lat="58.45103" lon="-4.73237">
        <ele>7.95</ele>
        <time>2021-03-20T23:31:24Z</time>
      </trkpt>
      <trkpt lat="58.45161" lon="-4.7314">
        <ele>7.74</ele>
        <time>2021-03-20T23:31:27Z</time>
      </trkpt>
      <trkpt lat="58.45181" lon="-4.73115">
        <ele>8.42</ele>
        <time>2021-03-20T23:31:30Z</time>
      </trkpt>
      <trkpt lat="58.45308" lon="-4.73009">
        <ele>7.72</ele>
        <time>2021-03-20T23:31:33Z</time>
      </trkpt>
      <trkpt lat="58.45328" lon="-4.7298">
        <ele>7.96</ele>
        <time>2021-03-20T23:31:36Z</time>
      </trkpt>
      <trkpt lat="58.45354" lon="-4.72932">
        <ele>9.14</ele>
        <time>2021-03-20T23:31:39Z</time>
      </trkpt>
      <trkpt lat="58.45379" lon="-4.72896">
        <ele>9.28</ele>
        <time>2021-03-20T23:31:42Z</time>
      </trkpt>
      <trkpt lat="58.45406" lon="-4.72865">
        <ele>8.48</ele>
        <time>2021-03-20T23:31:45Z</time>
      </trkpt>
      <trkpt lat="58.45444" lon="-4.72831">
        <ele>7.47</ele>
        <time>2021-03-20T23:31:48Z</time>
      </trkpt>
      <trkpt lat="58.45473" lon="-4.728">
        <ele>7.76</ele>
        <time>2021-03-20T23:31:51Z</time>
      </trkpt>
      <trkpt lat="58.45556" lon="-4.72692">
        <ele>10.26</ele>
        <time>2021-03-20T23:31:54Z</time>
      </trkpt>
      <trkpt lat="58.45568" lon="-4.72679">
        <ele>10.58</ele>
        <time>2021-03-20T23:31:57Z</time>
      </trkpt>
      <trkpt lat="58.45609" lon="-4.72649">
        <ele>9.76</ele>
        <time>2021-03-20T23:32:00Z</time>
      </trkpt>
      <trkpt lat="58.45639" lon="-4.72633">
        <ele>8.77</ele>
        <time>2021-03-20T23:32:03Z</time>
      </trkpt>
      <trkpt lat="58.45673" lon="-4.72622">
        <ele>7.49</ele>
        <time>2021-03-20T23:32:06Z</time>
      </trkpt>
      <trkpt lat="58.45689" lon="-4.72608">
        <ele>7.58</ele>
        <time>2021-03-20T23:32:09Z</time>
      </trkpt>
      <trkpt lat="58.45697" lon="-4.72583">
        <ele>8.8</ele>
        <time>2021-03-20T23:32:13Z</time>
      </trkpt>
      <trkpt lat="58.457" lon="-4.72552">
        <ele>10.36</ele>
        <time>2021-03-20T23:32:16Z</time>
      </trkpt>
      <trkpt lat="58.457" lon="-4.72523">
        <ele>10.47</ele>
        <time>2021-03-20T23:32:19Z</time>
      </trkpt>
      <trkpt lat="58.45693" lon="-4.72496">
        <ele>11.19</ele>
        <time>2021-03-20T23:32:22Z</time>
      </trkpt>
      <trkpt lat="58.45677" lon="-4.7246">
        <ele>12.61</ele>
        <time>2021-03-20T23:32:25Z</time>
      </trkpt>
      <trkpt lat="58.45614" lon="-4.72347">
        <ele>12.43</ele>
        <time>2021-03-20T23:32:28Z</time>
      </trkpt>
      <trkpt lat="58.45586" lon="-4.72289">
        <ele>13.25</ele>
        <time>2021-03-20T23:32:31Z</time>
      </trkpt>
      <trkpt lat="58.45575" lon="-4.72251">
        <ele>13.31</ele>
        <time>2021-03-20T23:32:34Z</time>
      </trkpt>
      <trkpt lat="58.45565" lon="-4.72207">
        <ele>12.67</ele>
        <time>2021-03-20T23:32:37Z</time>
      </trkpt>
      <trkpt lat="58.45561" lon="-4.72164">
        <ele>13</ele>
        <time>2021-03-20T23:32:40Z</time>
      </trkpt>
      <trkpt lat="58.45563" lon="-4.72104">
        <ele>14.19</ele>
        <time>2021-03-20T23:32:43Z</time>
      </trkpt>
      <trkpt lat="58.4557" lon="-4.72046">
        <ele>16.27</ele>
        <time>2021-03-20T23:32:46Z</time>
      </trkpt>
      <trkpt lat="58.45598" lon="-4.71954">
        <ele>20.8</ele>
        <time>2021-03-20T23:32:49Z</time>
      </trkpt>
      <trkpt lat="58.45668" lon="-4.71748">
        <ele>27.99</ele>
        <time>2021-03-20T23:32:52Z</time>
      </trkpt>
      <trkpt lat="58.45684" lon="-4.71694">
        <ele>29.18</ele>
        <time>2021-03-20T23:32:55Z</time>
      </trkpt>
      <trkpt lat="58.45701" lon="-4.71616">
        <ele>30.37</ele>
        <time>2021-03-20T23:32:58Z</time>
      </trkpt>
      <trkpt lat="58.45754" lon="-4.7127">
        <ele>34.55</ele>
        <time>2021-03-20T23:33:01Z</time>
      </trkpt>
      <trkpt lat="58.45754" lon="-4.7123">
        <ele>35.1</ele>
        <time>2021-03-20T23:33:04Z</time>
      </trkpt>
      <trkpt lat="58.45749" lon="-4.71193">
        <ele>36.06</ele>
        <time>2021-03-20T23:33:07Z</time>
      </trkpt>
      <trkpt lat="58.45737" lon="-4.71153">
        <ele>37.01</ele>
        <time>2021-03-20T23:33:10Z</time>
      </trkpt>
      <trkpt lat="58.45732" lon="-4.71117">
        <ele>37.03</ele>
        <time>2021-03-20T23:33:13Z</time>
      </trkpt>
      <trkpt lat="58.45731" lon="-4.71092">
        <ele>37.03</ele>
        <time>2021-03-20T23:33:16Z</time>
      </trkpt>
      <trkpt lat="58.45734" lon="-4.71059">
        <ele>36.85</ele>
        <time>2021-03-20T23:33:19Z</time>
      </trkpt>
      <trkpt lat="58.45753" lon="-4.70962">
        <ele>37.26</ele>
        <time>2021-03-20T23:33:22Z</time>
      </trkpt>
      <trkpt lat="58.45785" lon="-4.70853">
        <ele>35.69</ele>
        <time>2021-03-20T23:33:25Z</time>
      </trkpt>
      <trkpt lat="58.45802" lon="-4.70811">
        <ele>35.13</ele>
        <time>2021-03-20T23:33:28Z</time>
      </trkpt>
      <trkpt lat="58.45819" lon="-4.7078">
        <ele>35.43</ele>
        <time>2021-03-20T23:33:32Z</time>
      </trkpt>
      <trkpt lat="58.45835" lon="-4.70761">
        <ele>36.1</ele>
        <time>2021-03-20T23:33:35Z</time>
      </trkpt>
      <trkpt lat="58.45865" lon="-4.70742">
        <ele>36.85</ele>
        <time>2021-03-20T23:33:38Z</time>
      </trkpt>
      <trkpt lat="58.45913" lon="-4.70729">
        <ele>36.66</ele>
        <time>2021-03-20T23:33:41Z</time>
      </trkpt>
      <trkpt lat="58.45934" lon="-4.70719">
        <ele>36.57</ele>
        <time>2021-03-20T23:33:44Z</time>
      </trkpt>
      <trkpt lat="58.45949" lon="-4.70703">
        <ele>36.28</ele>
        <time>2021-03-20T23:33:47Z</time>
      </trkpt>
      <trkpt lat="58.45962" lon="-4.70679">
        <ele>35.83</ele>
        <time>2021-03-20T23:33:50Z</time>
      </trkpt>
      <trkpt lat="58.45995" lon="-4.70591">
        <ele>36.97</ele>
        <time>2021-03-20T23:33:53Z</time>
      </trkpt>
      <trkpt lat="58.46008" lon="-4.70571">
        <ele>37.34</ele>
        <time>2021-03-20T23:33:56Z</time>
      </trkpt>
      <trkpt lat="58.46062" lon="-4.70508">
        <ele>35.69</ele>
        <time>2021-03-20T23:33:59Z</time>
      </trkpt>
      <trkpt lat="58.46076" lon="-4.70486">
        <ele>35.28</ele>
        <time>2021-03-20T23:34:02Z</time>
      </trkpt>
      <trkpt lat="58.46087" lon="-4.70464">
        <ele>34.94</ele>
        <time>2021-03-20T23:34:05Z</time>
      </trkpt>
      <trkpt lat="58.46114" lon="-4.70359">
        <ele>33.85</ele>
        <time>2021-03-20T23:34:08Z</time>
      </trkpt>
      <trkpt lat="58.46126" lon="-4.7033">
        <ele>34.03</ele>
        <time>2021-03-20T23:34:11Z</time>
      </trkpt>
      <trkpt lat="58.46142" lon="-4.70308">
        <ele>33.9</ele>
        <time>2021-03-20T23:34:14Z</time>
      </trkpt>
      <trkpt lat="58.46162" lon="-4.70291">
        <ele>35.04</ele>
        <time>2021-03-20T23:34:17Z</time>
      </trkpt>
      <trkpt lat="58.4619" lon="-4.70285">
        <ele>34.66</ele>
        <time>2021-03-20T23:34:20Z</time>
      </trkpt>
      <trkpt lat="58.46216" lon="-4.70273">
        <ele>34.61</ele>
        <time>2021-03-20T23:34:23Z</time>
      </trkpt>
      <trkpt lat="58.46237" lon="-4.7025">
        <ele>34.4</ele>
        <time>2021-03-20T23:34:26Z</time>
      </trkpt>
      <trkpt lat="58.46279" lon="-4.70185">
        <ele>33.42</ele>
        <time>2021-03-20T23:34:29Z</time>
      </trkpt>
      <trkpt lat="58.46293" lon="-4.70148">
        <ele>33.82</ele>
        <time>2021-03-20T23:34:32Z</time>
      </trkpt>
      <trkpt lat="58.4631" lon="-4.70073">
        <ele>35.37</ele>
        <time>2021-03-20T23:34:35Z</time>
      </trkpt>
      <trkpt lat="58.46313" lon="-4.7003">
        <ele>36</ele>
        <time>2021-03-20T23:34:38Z</time>
      </trkpt>
      <trkpt lat="58.46311" lon="-4.69995">
        <ele>34.82</ele>
        <time>2021-03-20T23:34:41Z</time>
      </trkpt>
      <trkpt lat="58.46302" lon="-4.69932">
        <ele>33.55</ele>
        <time>2021-03-20T23:34:44Z</time>
      </trkpt>
      <trkpt lat="58.46303" lon="-4.69906">
        <ele>33.28</ele>
        <time>2021-03-20T23:34:47Z</time>
      </trkpt>
      <trkpt lat="58.46315" lon="-4.69833">
        <ele>33.34</ele>
        <time>2021-03-20T23:34:51Z</time>
      </trkpt>
      <trkpt lat="58.46328" lon="-4.69777">
        <ele>35.22</ele>
        <time>2021-03-20T23:34:54Z</time>
      </trkpt>
      <trkpt lat="58.46339" lon="-4.69747">
        <ele>36.01</ele>
        <time>2021-03-20T23:34:57Z</time>
      </trkpt>
      <trkpt lat="58.46353" lon="-4.69723">
        <ele>37.22</ele>
        <time>2021-03-20T23:35:00Z</time>
      </trkpt>
      <trkpt lat="58.4637" lon="-4.6971">
        <ele>38.16</ele>
        <time>2021-03-20T23:35:03Z</time>
      </trkpt>
      <trkpt lat="58.46402" lon="-4.69701">
        <ele>40.49</ele>
        <time>2021-03-20T23:35:06Z</time>
      </trkpt>
      <trkpt lat="58.46529" lon="-4.69696">
        <ele>51.94</ele>
        <time>2021-03-20T23:35:09Z</time>
      </trkpt>
      <trkpt lat="58.46545" lon="-4.69692">
        <ele>53.49</ele>
        <time>2021-03-20T23:35:12Z</time>
      </trkpt>
      <trkpt lat="58.4656" lon="-4.69683">
        <ele>55.41</ele>
        <time>2021-03-20T23:35:15Z</time>
      </trkpt>
      <trkpt lat="58.46577" lon="-4.6966">
        <ele>58.25</ele>
        <time>2021-03-20T23:35:18Z</time>
      </trkpt>
      <trkpt lat="58.46596" lon="-4.69621">
        <ele>61.02</ele>
        <time>2021-03-20T23:35:21Z</time>
      </trkpt>
      <trkpt lat="58.46642" lon="-4.69477">
        <ele>69.47</ele>
        <time>2021-03-20T23:35:24Z</time>
      </trkpt>
      <trkpt lat="58.46656" lon="-4.69412">
        <ele>71.9</ele>
        <time>2021-03-20T23:35:27Z</time>
      </trkpt>
      <trkpt lat="58.46662" lon="-4.69359">
        <ele>72.42</ele>
        <time>2021-03-20T23:35:30Z</time>
      </trkpt>
      <trkpt lat="58.46663" lon="-4.69311">
        <ele>73.24</ele>
        <time>2021-03-20T23:35:33Z</time>
      </trkpt>
      <trkpt lat="58.46653" lon="-4.69087">
        <ele>69.52</ele>
        <time>2021-03-20T23:35:36Z</time>
      </trkpt>
      <trkpt lat="58.46659" lon="-4.69003">
        <ele>66.68</ele>
        <time>2021-03-20T23:35:39Z</time>
      </trkpt>
      <trkpt lat="58.46674" lon="-4.68954">
        <ele>64.08</ele>
        <time>2021-03-20T23:35:42Z</time>
      </trkpt>
      <trkpt lat="58.4674" lon="-4.68779">
        <ele>59.4</ele>
        <time>2021-03-20T23:35:45Z</time>
      </trkpt>
      <trkpt lat="58.46794" lon="-4.68626">
        <ele>52.88</ele>
        <time>2021-03-20T23:35:48Z</time>
      </trkpt>
      <trkpt lat="58.46823" lon="-4.68572">
        <ele>50.3</ele>
        <time>2021-03-20T23:35:51Z</time>
      </trkpt>
      <trkpt lat="58.46884" lon="-4.68467">
        <ele>48.48</ele>
        <time>2021-03-20T23:35:54Z</time>
      </trkpt>
      <trkpt lat="58.46929" lon="-4.68402">
        <ele>47.12</ele>
        <time>2021-03-20T23:35:57Z</time>
      </trkpt>
      <trkpt lat="58.46979" lon="-4.6835">
        <ele>46.33</ele>
        <time>2021-03-20T23:36:00Z</time>
      </trkpt>
      <trkpt lat="58.4704" lon="-4.68274">
        <ele>46.89</ele>
        <time>2021-03-20T23:36:03Z</time>
      </trkpt>
      <trkpt lat="58.47057" lon="-4.68249">
        <ele>46.77</ele>
        <time>2021-03-20T23:36:06Z</time>
      </trkpt>
      <trkpt lat="58.47074" lon="-4.68214">
        <ele>47.81</ele>
        <time>2021-03-20T23:36:09Z</time>
      </trkpt>
      <trkpt lat="58.47102" lon="-4.68166">
        <ele>50.74</ele>
        <time>2021-03-20T23:36:13Z</time>
      </trkpt>
      <trkpt lat="58.47123" lon="-4.68148">
        <ele>51.5</ele>
        <time>2021-03-20T23:36:16Z</time>
      </trkpt>
      <trkpt lat="58.47153" lon="-4.68139">
        <ele>51.99</ele>
        <time>2021-03-20T23:36:19Z</time>
      </trkpt>
      <trkpt lat="58.47174" lon="-4.68142">
        <ele>51.17</ele>
        <time>2021-03-20T23:36:22Z</time>
      </trkpt>
      <trkpt lat="58.47266" lon="-4.68191">
        <ele>47.94</ele>
        <time>2021-03-20T23:36:25Z</time>
      </trkpt>
      <trkpt lat="58.47284" lon="-4.68193">
        <ele>48.15</ele>
        <time>2021-03-20T23:36:28Z</time>
      </trkpt>
      <trkpt lat="58.47303" lon="-4.68189">
        <ele>48.44</ele>
        <time>2021-03-20T23:36:31Z</time>
      </trkpt>
      <trkpt lat="58.4733" lon="-4.68164">
        <ele>49.45</ele>
        <time>2021-03-20T23:36:34Z</time>
      </trkpt>
      <trkpt lat="58.47408" lon="-4.6808">
        <ele>49.58</ele>
        <time>2021-03-20T23:36:37Z</time>
      </trkpt>
      <trkpt lat="58.47427" lon="-4.68073">
        <ele>49.99</ele>
        <time>2021-03-20T23:36:40Z</time>
      </trkpt>
      <trkpt lat="58.47447" lon="-4.68072">
        <ele>50.39</ele>
        <time>2021-03-20T23:36:43Z</time>
      </trkpt>
      <trkpt lat="58.47512" lon="-4.68087">
        <ele>50.85</ele>
        <time>2021-03-20T23:36:46Z</time>
      </trkpt>
      <trkpt lat="58.47531" lon="-4.68081">
        <ele>52.01</ele>
        <time>2021-03-20T23:36:49Z</time>
      </trkpt>
      <trkpt lat="58.47557" lon="-4.68057">
        <ele>52.87</ele>
        <time>2021-03-20T23:36:52Z</time>
      </trkpt>
      <trkpt lat="58.47592" lon="-4.68017">
        <ele>52.89</ele>
        <time>2021-03-20T23:36:55Z</time>
      </trkpt>
      <trkpt lat="58.47619" lon="-4.67977">
        <ele>53.24</ele>
        <time>2021-03-20T23:36:58Z</time>
      </trkpt>
      <trkpt lat="58.47638" lon="-4.67943">
        <ele>54.13</ele>
        <time>2021-03-20T23:37:01Z</time>
      </trkpt>
      <trkpt lat="58.47658" lon="-4.67892">
        <ele>53.11</ele>
        <time>2021-03-20T23:37:04Z</time>
      </trkpt>
      <trkpt lat="58.47681" lon="-4.67819">
        <ele>53.44</ele>
        <time>2021-03-20T23:37:07Z</time>
      </trkpt>
      <trkpt lat="58.47695" lon="-4.6778">
        <ele>53.69</ele>
        <time>2021-03-20T23:37:10Z</time>
      </trkpt>
      <trkpt lat="58.47709" lon="-4.67753">
        <ele>53.68</ele>
        <time>2021-03-20T23:37:13Z</time>
      </trkpt>
      <trkpt lat="58.4782" lon="-4.67625">
        <ele>53.66</ele>
        <time>2021-03-20T23:37:16Z</time>
      </trkpt>
      <trkpt lat="58.47843" lon="-4.67604">
        <ele>54.47</ele>
        <time>2021-03-20T23:37:19Z</time>
      </trkpt>
      <trkpt lat="58.47874" lon="-4.67596">
        <ele>54.53</ele>
        <time>2021-03-20T23:37:22Z</time>
      </trkpt>
      <trkpt lat="58.47957" lon="-4.67609">
        <ele>53.21</ele>
        <time>2021-03-20T23:37:25Z</time>
      </trkpt>
      <trkpt lat="58.47975" lon="-4.67609">
        <ele>54.13</ele>
        <time>2021-03-20T23:37:28Z</time>
      </trkpt>
      <trkpt lat="58.47999" lon="-4.67599">
        <ele>54.35</ele>
        <time>2021-03-20T23:37:32Z</time>
      </trkpt>
      <trkpt lat="58.4809" lon="-4.67543">
        <ele>52.58</ele>
        <time>2021-03-20T23:37:35Z</time>
      </trkpt>
      <trkpt lat="58.48151" lon="-4.67492">
        <ele>54.86</ele>
        <time>2021-03-20T23:37:38Z</time>
      </trkpt>
      <trkpt lat="58.48195" lon="-4.67451">
        <ele>54.47</ele>
        <time>2021-03-20T23:37:41Z</time>
      </trkpt>
      <trkpt lat="58.48222" lon="-4.67415">
        <ele>49.19</ele>
        <time>2021-03-20T23:37:44Z</time>
      </trkpt>
      <trkpt lat="58.48238" lon="-4.67387">
        <ele>47.63</ele>
        <time>2021-03-20T23:37:47Z</time>
      </trkpt>
      <trkpt lat="58.48256" lon="-4.67338">
        <ele>45.8</ele>
        <time>2021-03-20T23:37:50Z</time>
      </trkpt>
      <trkpt lat="58.48267" lon="-4.67282">
        <ele>44.27</ele>
        <time>2021-03-20T23:37:53Z</time>
      </trkpt>
      <trkpt lat="58.48267" lon="-4.67234">
        <ele>42.24</ele>
        <time>2021-03-20T23:37:56Z</time>
      </trkpt>
      <trkpt lat="58.48261" lon="-4.6719">
        <ele>38.66</ele>
        <time>2021-03-20T23:37:59Z</time>
      </trkpt>
      <trkpt lat="58.48227" lon="-4.6702">
        <ele>31.8</ele>
        <time>2021-03-20T23:38:02Z</time>
      </trkpt>
      <trkpt lat="58.48215" lon="-4.66988">
        <ele>30.11</ele>
        <time>2021-03-20T23:38:05Z</time>
      </trkpt>
      <trkpt lat="58.4817" lon="-4.66921">
        <ele>28.18</ele>
        <time>2021-03-20T23:38:08Z</time>
      </trkpt>
      <trkpt lat="58.48157" lon="-4.66892">
        <ele>26.45</ele>
        <time>2021-03-20T23:38:11Z</time>
      </trkpt>
      <trkpt lat="58.48147" lon="-4.66854">
        <ele>25.78</ele>
        <time>2021-03-20T23:38:14Z</time>
      </trkpt>
      <trkpt lat="58.48115" lon="-4.66637">
        <ele>24.71</ele>
        <time>2021-03-20T23:38:17Z</time>
      </trkpt>
      <trkpt lat="58.48112" lon="-4.66587">
        <ele>25.38</ele>
        <time>2021-03-20T23:38:20Z</time>
      </trkpt>
      <trkpt lat="58.48114" lon="-4.66542">
        <ele>26.55</ele>
        <time>2021-03-20T23:38:23Z</time>
      </trkpt>
      <trkpt lat="58.48121" lon="-4.66514">
        <ele>26.06</ele>
        <time>2021-03-20T23:38:26Z</time>
      </trkpt>
      <trkpt lat="58.48138" lon="-4.66488">
        <ele>23.18</ele>
        <time>2021-03-20T23:38:29Z</time>
      </trkpt>
      <trkpt lat="58.4816" lon="-4.6647">
        <ele>20.43</ele>
        <time>2021-03-20T23:38:32Z</time>
      </trkpt>
      <trkpt lat="58.48185" lon="-4.66456">
        <ele>15.78</ele>
        <time>2021-03-20T23:38:35Z</time>
      </trkpt>
      <trkpt lat="58.482" lon="-4.6643">
        <ele>16.4</ele>
        <time>2021-03-20T23:38:38Z</time>
      </trkpt>
      <trkpt lat="58.48213" lon="-4.66394">
        <ele>19.55</ele>
        <time>2021-03-20T23:38:41Z</time>
      </trkpt>
      <trkpt lat="58.48227" lon="-4.66368">
        <ele>20.36</ele>
        <time>2021-03-20T23:38:44Z</time>
      </trkpt>
      <trkpt lat="58.48321" lon="-4.66248">
        <ele>18.42</ele>
        <time>2021-03-20T23:38:47Z</time>
      </trkpt>
      <trkpt lat="58.48351" lon="-4.66213">
        <ele>17.15</ele>
        <time>2021-03-20T23:38:51Z</time>
      </trkpt>
      <trkpt lat="58.48435" lon="-4.66133">
        <ele>14.87</ele>
        <time>2021-03-20T23:38:54Z</time>
      </trkpt>
      <trkpt lat="58.48481" lon="-4.66096">
        <ele>14.88</ele>
        <time>2021-03-20T23:38:57Z</time>
      </trkpt>
      <trkpt lat="58.48543" lon="-4.66064">
        <ele>14.84</ele>
        <time>2021-03-20T23:39:00Z</time>
      </trkpt>
      <trkpt lat="58.48574" lon="-4.66051">
        <ele>15.64</ele>
        <time>2021-03-20T23:39:03Z</time>
      </trkpt>
      <trkpt lat="58.48594" lon="-4.66053">
        <ele>15.73</ele>
        <time>2021-03-20T23:39:06Z</time>
      </trkpt>
      <trkpt lat="58.48621" lon="-4.66068">
        <ele>15.24</ele>
        <time>2021-03-20T23:39:09Z</time>
      </trkpt>
      <trkpt lat="58.48651" lon="-4.66094">
        <ele>13.14</ele>
        <time>2021-03-20T23:39:12Z</time>
      </trkpt>
      <trkpt lat="58.48674" lon="-4.66104">
        <ele>12.06</ele>
        <time>2021-03-20T23:39:15Z</time>
      </trkpt>
      <trkpt lat="58.48696" lon="-4.6611">
        <ele>11.12</ele>
        <time>2021-03-20T23:39:18Z</time>
      </trkpt>
      <trkpt lat="58.48741" lon="-4.6611">
        <ele>10.82</ele>
        <time>2021-03-20T23:39:21Z</time>
      </trkpt>
      <trkpt lat="58.48755" lon="-4.66113">
        <ele>11.02</ele>
        <time>2021-03-20T23:39:24Z</time>
      </trkpt>
      <trkpt lat="58.48839" lon="-4.66149">
        <ele>11.78</ele>
        <time>2021-03-20T23:39:27Z</time>
      </trkpt>
      <trkpt lat="58.48887" lon="-4.66163">
        <ele>11.64</ele>
        <time>2021-03-20T23:39:30Z</time>
      </trkpt>
      <trkpt lat="58.48938" lon="-4.66189">
        <ele>11.22</ele>
        <time>2021-03-20T23:39:33Z</time>
      </trkpt>
      <trkpt lat="58.4905" lon="-4.66223">
        <ele>13.9</ele>
        <time>2021-03-20T23:39:36Z</time>
      </trkpt>
      <trkpt lat="58.49078" lon="-4.66225">
        <ele>13.43</ele>
        <time>2021-03-20T23:39:39Z</time>
      </trkpt>
      <trkpt lat="58.49182" lon="-4.66189">
        <ele>13.63</ele>
        <time>2021-03-20T23:39:42Z</time>
      </trkpt>
      <trkpt lat="58.49328" lon="-4.66108">
        <ele>16.24</ele>
        <time>2021-03-20T23:39:45Z</time>
      </trkpt>
      <trkpt lat="58.4946" lon="-4.66045">
        <ele>17.44</ele>
        <time>2021-03-20T23:39:48Z</time>
      </trkpt>
      <trkpt lat="58.49529" lon="-4.66003">
        <ele>21.27</ele>
        <time>2021-03-20T23:39:51Z</time>
      </trkpt>
      <trkpt lat="58.49568" lon="-4.65967">
        <ele>23.02</ele>
        <time>2021-03-20T23:39:54Z</time>
      </trkpt>
      <trkpt lat="58.49644" lon="-4.65887">
        <ele>29.98</ele>
        <time>2021-03-20T23:39:57Z</time>
      </trkpt>
      <trkpt lat="58.49727" lon="-4.65809">
        <ele>39.17</ele>
        <time>2021-03-20T23:40:00Z</time>
      </trkpt>
      <trkpt lat="58.49756" lon="-4.65788">
        <ele>42.46</ele>
        <time>2021-03-20T23:40:03Z</time>
      </trkpt>
      <trkpt lat="58.49799" lon="-4.65775">
        <ele>47.73</ele>
        <time>2021-03-20T23:40:06Z</time>
      </trkpt>
      <trkpt lat="58.49819" lon="-4.65778">
        <ele>49.97</ele>
        <time>2021-03-20T23:40:09Z</time>
      </trkpt>
      <trkpt lat="58.49911" lon="-4.65813">
        <ele>57.69</ele>
        <time>2021-03-20T23:40:13Z</time>
      </trkpt>
      <trkpt lat="58.49945" lon="-4.65816">
        <ele>60.25</ele>
        <time>2021-03-20T23:40:16Z</time>
      </trkpt>
      <trkpt lat="58.49977" lon="-4.65805">
        <ele>63.21</ele>
        <time>2021-03-20T23:40:19Z</time>
      </trkpt>
      <trkpt lat="58.50006" lon="-4.65782">
        <ele>66.98</ele>
        <time>2021-03-20T23:40:22Z</time>
      </trkpt>
      <trkpt lat="58.5036" lon="-4.65429">
        <ele>89.48</ele>
        <time>2021-03-20T23:40:25Z</time>
      </trkpt>
      <trkpt lat="58.50376" lon="-4.65407">
        <ele>87.73</ele>
        <time>2021-03-20T23:40:28Z</time>
      </trkpt>
      <trkpt lat="58.50392" lon="-4.65365">
        <ele>83.95</ele>
        <time>2021-03-20T23:40:31Z</time>
      </trkpt>
      <trkpt lat="58.50404" lon="-4.65318">
        <ele>78.51</ele>
        <time>2021-03-20T23:40:34Z</time>
      </trkpt>
      <trkpt lat="58.50409" lon="-4.65273">
        <ele>74.66</ele>
        <time>2021-03-20T23:40:37Z</time>
      </trkpt>
      <trkpt lat="58.50409" lon="-4.65227">
        <ele>71.9</ele>
        <time>2021-03-20T23:40:40Z</time>
      </trkpt>
      <trkpt lat="58.50402" lon="-4.65184">
        <ele>70.29</ele>
        <time>2021-03-20T23:40:43Z</time>
      </trkpt>
      <trkpt lat="58.50382" lon="-4.65096">
        <ele>65.99</ele>
        <time>2021-03-20T23:40:46Z</time>
      </trkpt>
      <trkpt lat="58.50375" lon="-4.65038">
        <ele>63.64</ele>
        <time>2021-03-20T23:40:49Z</time>
      </trkpt>
      <trkpt lat="58.50375" lon="-4.65005">
        <ele>62.37</ele>
        <time>2021-03-20T23:40:52Z</time>
      </trkpt>
      <trkpt lat="58.50381" lon="-4.64915">
        <ele>55.8</ele>
        <time>2021-03-20T23:40:55Z</time>
      </trkpt>
      <trkpt lat="58.50381" lon="-4.64871">
        <ele>53.38</ele>
        <time>2021-03-20T23:40:58Z</time>
      </trkpt>
      <trkpt lat="58.50377" lon="-4.64829">
        <ele>52.24</ele>
        <time>2021-03-20T23:41:01Z</time>
      </trkpt>
      <trkpt lat="58.50365" lon="-4.64782">
        <ele>50</ele>
        <time>2021-03-20T23:41:04Z</time>
      </trkpt>
      <trkpt lat="58.50346" lon="-4.6475">
        <ele>49.14</ele>
        <time>2021-03-20T23:41:07Z</time>
      </trkpt>
      <trkpt lat="58.50308" lon="-4.64694">
        <ele>47.69</ele>
        <time>2021-03-20T23:41:10Z</time>
      </trkpt>
      <trkpt lat="58.50193" lon="-4.64571">
        <ele>42.35</ele>
        <time>2021-03-20T23:41:13Z</time>
      </trkpt>
      <trkpt lat="58.50168" lon="-4.64541">
        <ele>41.8</ele>
        <time>2021-03-20T23:41:16Z</time>
      </trkpt>
      <trkpt lat="58.50155" lon="-4.64509">
        <ele>39.84</ele>
        <time>2021-03-20T23:41:19Z</time>
      </trkpt>
      <trkpt lat="58.50146" lon="-4.64481">
        <ele>39.46</ele>
        <time>2021-03-20T23:41:22Z</time>
      </trkpt>
      <trkpt lat="58.50139" lon="-4.6443">
        <ele>39.01</ele>
        <time>2021-03-20T23:41:25Z</time>
      </trkpt>
      <trkpt lat="58.50136" lon="-4.64384">
        <ele>40.27</ele>
        <time>2021-03-20T23:41:28Z</time>
      </trkpt>
      <trkpt lat="58.50139" lon="-4.64328">
        <ele>43</ele>
        <time>2021-03-20T23:41:32Z</time>
      </trkpt>
      <trkpt lat="58.50191" lon="-4.63887">
        <ele>55.89</ele>
        <time>2021-03-20T23:41:35Z</time>
      </trkpt>
      <trkpt lat="58.50193" lon="-4.63828">
        <ele>57.19</ele>
        <time>2021-03-20T23:41:38Z</time>
      </trkpt>
      <trkpt lat="58.50189" lon="-4.63763">
        <ele>59.53</ele>
        <time>2021-03-20T23:41:41Z</time>
      </trkpt>
      <trkpt lat="58.50178" lon="-4.63703">
        <ele>62.71</ele>
        <time>2021-03-20T23:41:44Z</time>
      </trkpt>
      <trkpt lat="58.50162" lon="-4.63634">
        <ele>63.87</ele>
        <time>2021-03-20T23:41:47Z</time>
      </trkpt>
      <trkpt lat="58.50126" lon="-4.63505">
        <ele>60.74</ele>
        <time>2021-03-20T23:41:50Z</time>
      </trkpt>
      <trkpt lat="58.50108" lon="-4.63469">
        <ele>58.77</ele>
        <time>2021-03-20T23:41:53Z</time>
      </trkpt>
      <trkpt lat="58.50083" lon="-4.63438">
        <ele>56.51</ele>
        <time>2021-03-20T23:41:56Z</time>
      </trkpt>
      <trkpt lat="58.50053" lon="-4.63413">
        <ele>54.49</ele>
        <time>2021-03-20T23:41:59Z</time>
      </trkpt>
      <trkpt lat="58.49981" lon="-4.63386">
        <ele>50.32</ele>
        <time>2021-03-20T23:42:02Z</time>
      </trkpt>
      <trkpt lat="58.49962" lon="-4.63372">
        <ele>49.76</ele>
        <time>2021-03-20T23:42:05Z</time>
      </trkpt>
      <trkpt lat="58.49941" lon="-4.63347">
        <ele>48.44</ele>
        <time>2021-03-20T23:42:08Z</time>
      </trkpt>
      <trkpt lat="58.49924" lon="-4.63314">
        <ele>47.26</ele>
        <time>2021-03-20T23:42:11Z</time>
      </trkpt>
      <trkpt lat="58.49913" lon="-4.63273">
        <ele>46.75</ele>
        <time>2021-03-20T23:42:14Z</time>
      </trkpt>
      <trkpt lat="58.49908" lon="-4.63224">
        <ele>46.35</ele>
        <time>2021-03-20T23:42:17Z</time>
      </trkpt>
      <trkpt lat="58.49908" lon="-4.63185">
        <ele>46.02</ele>
        <time>2021-03-20T23:42:20Z</time>
      </trkpt>
      <trkpt lat="58.49912" lon="-4.63151">
        <ele>45.08</ele>
        <time>2021-03-20T23:42:23Z</time>
      </trkpt>
      <trkpt lat="58.49919" lon="-4.63119">
        <ele>44.38</ele>
        <time>2021-03-20T23:42:26Z</time>
      </trkpt>
      <trkpt lat="58.49931" lon="-4.63088">
        <ele>42.85</ele>
        <time>2021-03-20T23:42:29Z</time>
      </trkpt>
      <trkpt lat="58.50316" lon="-4.62536">
        <ele>27</ele>
        <time>2021-03-20T23:42:32Z</time>
      </trkpt>
      <trkpt lat="58.50336" lon="-4.62512">
        <ele>27.1</ele>
        <time>2021-03-20T23:42:35Z</time>
      </trkpt>
      <trkpt lat="58.50387" lon="-4.62465">
        <ele>26.82</ele>
        <time>2021-03-20T23:42:38Z</time>
      </trkpt>
      <trkpt lat="58.50405" lon="-4.62436">
        <ele>25.11</ele>
        <time>2021-03-20T23:42:41Z</time>
      </trkpt>
      <trkpt lat="58.50417" lon="-4.62408">
        <ele>23.32</ele>
        <time>2021-03-20T23:42:44Z</time>
      </trkpt>
      <trkpt lat="58.50426" lon="-4.62383">
        <ele>21.46</ele>
        <time>2021-03-20T23:42:47Z</time>
      </trkpt>
      <trkpt lat="58.50435" lon="-4.62312">
        <ele>16.84</ele>
        <time>2021-03-20T23:42:51Z</time>
      </trkpt>
      <trkpt lat="58.50435" lon="-4.62268">
        <ele>12.68</ele>
        <time>2021-03-20T23:42:54Z</time>
      </trkpt>
      <trkpt lat="58.50429" lon="-4.6223">
        <ele>10.09</ele>
        <time>2021-03-20T23:42:57Z</time>
      </trkpt>
      <trkpt lat="58.50417" lon="-4.62192">
        <ele>8.82</ele>
        <time>2021-03-20T23:43:00Z</time>
      </trkpt>
      <trkpt lat="58.50375" lon="-4.62102">
        <ele>13.33</ele>
        <time>2021-03-20T23:43:03Z</time>
      </trkpt>
      <trkpt lat="58.50356" lon="-4.62092">
        <ele>15.89</ele>
        <time>2021-03-20T23:43:06Z</time>
      </trkpt>
      <trkpt lat="58.50339" lon="-4.62093">
        <ele>16.36</ele>
        <time>2021-03-20T23:43:09Z</time>
      </trkpt>
      <trkpt lat="58.50299" lon="-4.62149">
        <ele>12.15</ele>
        <time>2021-03-20T23:43:12Z</time>
      </trkpt>
      <trkpt lat="58.50281" lon="-4.62149">
        <ele>12.79</ele>
        <time>2021-03-20T23:43:15Z</time>
      </trkpt>
      <trkpt lat="58.5026" lon="-4.62145">
        <ele>12.2</ele>
        <time>2021-03-20T23:43:18Z</time>
      </trkpt>
      <trkpt lat="58.50241" lon="-4.62128">
        <ele>12.75</ele>
        <time>2021-03-20T23:43:21Z</time>
      </trkpt>
      <trkpt lat="58.50187" lon="-4.62048">
        <ele>17.51</ele>
        <time>2021-03-20T23:43:24Z</time>
      </trkpt>
      <trkpt lat="58.50172" lon="-4.62022">
        <ele>20.21</ele>
        <time>2021-03-20T23:43:27Z</time>
      </trkpt>
      <trkpt lat="58.50167" lon="-4.62">
        <ele>23.04</ele>
        <time>2021-03-20T23:43:30Z</time>
      </trkpt>
      <trkpt lat="58.50166" lon="-4.61976">
        <ele>25.58</ele>
        <time>2021-03-20T23:43:33Z</time>
      </trkpt>
      <trkpt lat="58.50167" lon="-4.6195">
        <ele>28.41</ele>
        <time>2021-03-20T23:43:36Z</time>
      </trkpt>
      <trkpt lat="58.50173" lon="-4.6193">
        <ele>30.91</ele>
        <time>2021-03-20T23:43:39Z</time>
      </trkpt>
      <trkpt lat="58.50184" lon="-4.61912">
        <ele>33.24</ele>
        <time>2021-03-20T23:43:42Z</time>
      </trkpt>
      <trkpt lat="58.502" lon="-4.61903">
        <ele>34.69</ele>
        <time>2021-03-20T23:43:45Z</time>
      </trkpt>
      <trkpt lat="58.50241" lon="-4.61905">
        <ele>36.33</ele>
        <time>2021-03-20T23:43:48Z</time>
      </trkpt>
      <trkpt lat="58.50251" lon="-4.61908">
        <ele>36.68</ele>
        <time>2021-03-20T23:43:51Z</time>
      </trkpt>
      <trkpt lat="58.50296" lon="-4.61904">
        <ele>40.24</ele>
        <time>2021-03-20T23:43:54Z</time>
      </trkpt>
      <trkpt lat="58.50316" lon="-4.61888">
        <ele>43.19</ele>
        <time>2021-03-20T23:43:57Z</time>
      </trkpt>
      <trkpt lat="58.50338" lon="-4.61852">
        <ele>47.84</ele>
        <time>2021-03-20T23:44:00Z</time>
      </trkpt>
      <trkpt lat="58.5035" lon="-4.61821">
        <ele>52.29</ele>
        <time>2021-03-20T23:44:03Z</time>
      </trkpt>
      <trkpt lat="58.50356" lon="-4.61795">
        <ele>54.19</ele>
        <time>2021-03-20T23:44:06Z</time>
      </trkpt>
      <trkpt lat="58.50358" lon="-4.61767">
        <ele>55.71</ele>
        <time>2021-03-20T23:44:09Z</time>
      </trkpt>
      <trkpt lat="58.50358" lon="-4.61732">
        <ele>56.83</ele>
        <time>2021-03-20T23:44:13Z</time>
      </trkpt>
      <trkpt lat="58.50353" lon="-4.61694">
        <ele>58.21</ele>
        <time>2021-03-20T23:44:16Z</time>
      </trkpt>
      <trkpt lat="58.50337" lon="-4.61638">
        <ele>60.65</ele>
        <time>2021-03-20T23:44:19Z</time>
      </trkpt>
      <trkpt lat="58.50311" lon="-4.61578">
        <ele>63.31</ele>
        <time>2021-03-20T23:44:22Z</time>
      </trkpt>
      <trkpt lat="58.50302" lon="-4.61546">
        <ele>66.44</ele>
        <time>2021-03-20T23:44:25Z</time>
      </trkpt>
      <trkpt lat="58.50298" lon="-4.61497">
        <ele>70.56</ele>
        <time>2021-03-20T23:44:28Z</time>
      </trkpt>
      <trkpt lat="58.50299" lon="-4.61461">
        <ele>72.23</ele>
        <time>2021-03-20T23:44:31Z</time>
      </trkpt>
      <trkpt lat="58.5031" lon="-4.61428">
        <ele>74.92</ele>
        <time>2021-03-20T23:44:34Z</time>
      </trkpt>
      <trkpt lat="58.50325" lon="-4.61407">
        <ele>77.1</ele>
        <time>2021-03-20T23:44:37Z</time>
      </trkpt>
      <trkpt lat="58.50428" lon="-4.61306">
        <ele>86.35</ele>
        <time>2021-03-20T23:44:40Z</time>
      </trkpt>
      <trkpt lat="58.50456" lon="-4.61269">
        <ele>90.18</ele>
        <time>2021-03-20T23:44:43Z</time>
      </trkpt>
      <trkpt lat="58.50482" lon="-4.61224">
        <ele>93.61</ele>
        <time>2021-03-20T23:44:46Z</time>
      </trkpt>
      <trkpt lat="58.50514" lon="-4.61158">
        <ele>96.52</ele>
        <time>2021-03-20T23:44:49Z</time>
      </trkpt>
      <trkpt lat="58.50552" lon="-4.61029">
        <ele>100.64</ele>
        <time>2021-03-20T23:44:52Z</time>
      </trkpt>
      <trkpt lat="58.50568" lon="-4.60943">
        <ele>103.94</ele>
        <time>2021-03-20T23:44:55Z</time>
      </trkpt>
      <trkpt lat="58.50622" lon="-4.60254">
        <ele>127.99</ele>
        <time>2021-03-20T23:44:58Z</time>
      </trkpt>
      <trkpt lat="58.50629" lon="-4.6014">
        <ele>132.61</ele>
        <time>2021-03-20T23:45:01Z</time>
      </trkpt>
      <trkpt lat="58.50632" lon="-4.59997">
        <ele>137</ele>
        <time>2021-03-20T23:45:04Z</time>
      </trkpt>
      <trkpt lat="58.50627" lon="-4.59894">
        <ele>140.3</ele>
        <time>2021-03-20T23:45:07Z</time>
      </trkpt>
      <trkpt lat="58.50615" lon="-4.59814">
        <ele>142.82</ele>
        <time>2021-03-20T23:45:10Z</time>
      </trkpt>
      <trkpt lat="58.50597" lon="-4.59757">
        <ele>143.76</ele>
        <time>2021-03-20T23:45:13Z</time>
      </trkpt>
      <trkpt lat="58.50566" lon="-4.59709">
        <ele>144.83</ele>
        <time>2021-03-20T23:45:16Z</time>
      </trkpt>
      <trkpt lat="58.5054" lon="-4.59675">
        <ele>146.4</ele>
        <time>2021-03-20T23:45:19Z</time>
      </trkpt>
      <trkpt lat="58.50428" lon="-4.59591">
        <ele>151.72</ele>
        <time>2021-03-20T23:45:22Z</time>
      </trkpt>
      <trkpt lat="58.5037" lon="-4.59533">
        <ele>156.6</ele>
        <time>2021-03-20T23:45:25Z</time>
      </trkpt>
      <trkpt lat="58.50281" lon="-4.5943">
        <ele>163.24</ele>
        <time>2021-03-20T23:45:28Z</time>
      </trkpt>
      <trkpt lat="58.5026" lon="-4.59387">
        <ele>165.8</ele>
        <time>2021-03-20T23:45:32Z</time>
      </trkpt>
      <trkpt lat="58.5024" lon="-4.59339">
        <ele>167.84</ele>
        <time>2021-03-20T23:45:35Z</time>
      </trkpt>
      <trkpt lat="58.50222" lon="-4.59279">
        <ele>168.94</ele>
        <time>2021-03-20T23:45:38Z</time>
      </trkpt>
      <trkpt lat="58.5021" lon="-4.59216">
        <ele>171.8</ele>
        <time>2021-03-20T23:45:41Z</time>
      </trkpt>
      <trkpt lat="58.502" lon="-4.59143">
        <ele>174.1</ele>
        <time>2021-03-20T23:45:44Z</time>
      </trkpt>
      <trkpt lat="58.50197" lon="-4.58746">
        <ele>176.24</ele>
        <time>2021-03-20T23:45:47Z</time>
      </trkpt>
      <trkpt lat="58.50195" lon="-4.58703">
        <ele>177.7</ele>
        <time>2021-03-20T23:45:50Z</time>
      </trkpt>
      <trkpt lat="58.50169" lon="-4.58385">
        <ele>181.08</ele>
        <time>2021-03-20T23:45:53Z</time>
      </trkpt>
      <trkpt lat="58.50156" lon="-4.57992">
        <ele>179</ele>
        <time>2021-03-20T23:45:56Z</time>
      </trkpt>
      <trkpt lat="58.50158" lon="-4.57866">
        <ele>180</ele>
        <time>2021-03-20T23:45:59Z</time>
      </trkpt>
      <trkpt lat="58.50164" lon="-4.57747">
        <ele>183.19</ele>
        <time>2021-03-20T23:46:02Z</time>
      </trkpt>
      <trkpt lat="58.50174" lon="-4.57664">
        <ele>185.78</ele>
        <time>2021-03-20T23:46:05Z</time>
      </trkpt>
      <trkpt lat="58.50196" lon="-4.57567">
        <ele>187.42</ele>
        <time>2021-03-20T23:46:08Z</time>
      </trkpt>
      <trkpt lat="58.50215" lon="-4.57501">
        <ele>187.79</ele>
        <time>2021-03-20T23:46:11Z</time>
      </trkpt>
      <trkpt lat="58.50237" lon="-4.5744">
        <ele>190.78</ele>
        <time>2021-03-20T23:46:14Z</time>
      </trkpt>
      <trkpt lat="58.50284" lon="-4.57344">
        <ele>195.05</ele>
        <time>2021-03-20T23:46:17Z</time>
      </trkpt>
      <trkpt lat="58.50366" lon="-4.57216">
        <ele>198.85</ele>
        <time>2021-03-20T23:46:20Z</time>
      </trkpt>
      <trkpt lat="58.50387" lon="-4.57178">
        <ele>199.33</ele>
        <time>2021-03-20T23:46:23Z</time>
      </trkpt>
      <trkpt lat="58.50405" lon="-4.57137">
        <ele>199.39</ele>
        <time>2021-03-20T23:46:26Z</time>
      </trkpt>
      <trkpt lat="58.50437" lon="-4.57046">
        <ele>201.55</ele>
        <time>2021-03-20T23:46:29Z</time>
      </trkpt>
      <trkpt lat="58.5045" lon="-4.56998">
        <ele>201.82</ele>
        <time>2021-03-20T23:46:32Z</time>
      </trkpt>
      <trkpt lat="58.50465" lon="-4.56919">
        <ele>203.67</ele>
        <time>2021-03-20T23:46:35Z</time>
      </trkpt>
      <trkpt lat="58.50476" lon="-4.56829">
        <ele>207.02</ele>
        <time>2021-03-20T23:46:38Z</time>
      </trkpt>
      <trkpt lat="58.50483" lon="-4.56716">
        <ele>212.6</ele>
        <time>2021-03-20T23:46:41Z</time>
      </trkpt>
      <trkpt lat="58.50482" lon="-4.56647">
        <ele>215.04</ele>
        <time>2021-03-20T23:46:44Z</time>
      </trkpt>
      <trkpt lat="58.50472" lon="-4.56486">
        <ele>218.97</ele>
        <time>2021-03-20T23:46:47Z</time>
      </trkpt>
      <trkpt lat="58.50467" lon="-4.56319">
        <ele>220.81</ele>
        <time>2021-03-20T23:46:51Z</time>
      </trkpt>
      <trkpt lat="58.50475" lon="-4.56195">
        <ele>220.1</ele>
        <time>2021-03-20T23:46:54Z</time>
      </trkpt>
      <trkpt lat="58.50493" lon="-4.56081">
        <ele>219.93</ele>
        <time>2021-03-20T23:46:57Z</time>
      </trkpt>
      <trkpt lat="58.50529" lon="-4.55942">
        <ele>219.08</ele>
        <time>2021-03-20T23:47:00Z</time>
      </trkpt>
      <trkpt lat="58.5055" lon="-4.5585">
        <ele>220.82</ele>
        <time>2021-03-20T23:47:03Z</time>
      </trkpt>
      <trkpt lat="58.50571" lon="-4.55746">
        <ele>220.57</ele>
        <time>2021-03-20T23:47:06Z</time>
      </trkpt>
      <trkpt lat="58.5059" lon="-4.55606">
        <ele>218.22</ele>
        <time>2021-03-20T23:47:09Z</time>
      </trkpt>
      <trkpt lat="58.50597" lon="-4.55413">
        <ele>218</ele>
        <time>2021-03-20T23:47:12Z</time>
      </trkpt>
      <trkpt lat="58.50593" lon="-4.55292">
        <ele>218</ele>
        <time>2021-03-20T23:47:15Z</time>
      </trkpt>
      <trkpt lat="58.50584" lon="-4.55178">
        <ele>218.99</ele>
        <time>2021-03-20T23:47:18Z</time>
      </trkpt>
      <trkpt lat="58.50564" lon="-4.55042">
        <ele>220</ele>
        <time>2021-03-20T23:47:21Z</time>
      </trkpt>
      <trkpt lat="58.50532" lon="-4.54903">
        <ele>222.93</ele>
        <time>2021-03-20T23:47:24Z</time>
      </trkpt>
      <trkpt lat="58.50265" lon="-4.5387">
        <ele>211.68</ele>
        <time>2021-03-20T23:47:27Z</time>
      </trkpt>
      <trkpt lat="58.50241" lon="-4.53759">
        <ele>207.99</ele>
        <time>2021-03-20T23:47:30Z</time>
      </trkpt>
      <trkpt lat="58.50225" lon="-4.53669">
        <ele>205.08</ele>
        <time>2021-03-20T23:47:33Z</time>
      </trkpt>
      <trkpt lat="58.50215" lon="-4.53596">
        <ele>203</ele>
        <time>2021-03-20T23:47:36Z</time>
      </trkpt>
      <trkpt lat="58.50196" lon="-4.53427">
        <ele>197.97</ele>
        <time>2021-03-20T23:47:39Z</time>
      </trkpt>
      <trkpt lat="58.50185" lon="-4.53248">
        <ele>192.94</ele>
        <time>2021-03-20T23:47:42Z</time>
      </trkpt>
      <trkpt lat="58.50178" lon="-4.52916">
        <ele>184.97</ele>
        <time>2021-03-20T23:47:45Z</time>
      </trkpt>
      <trkpt lat="58.50187" lon="-4.52553">
        <ele>179.28</ele>
        <time>2021-03-20T23:47:48Z</time>
      </trkpt>
      <trkpt lat="58.50198" lon="-4.52349">
        <ele>175.57</ele>
        <time>2021-03-20T23:47:51Z</time>
      </trkpt>
      <trkpt lat="58.50219" lon="-4.52185">
        <ele>172.64</ele>
        <time>2021-03-20T23:47:54Z</time>
      </trkpt>
      <trkpt lat="58.50237" lon="-4.52091">
        <ele>170</ele>
        <time>2021-03-20T23:47:57Z</time>
      </trkpt>
      <trkpt lat="58.5025" lon="-4.52034">
        <ele>168.22</ele>
        <time>2021-03-20T23:48:00Z</time>
      </trkpt>
      <trkpt lat="58.50289" lon="-4.51901">
        <ele>165.45</ele>
        <time>2021-03-20T23:48:03Z</time>
      </trkpt>
      <trkpt lat="58.50348" lon="-4.51727">
        <ele>162.17</ele>
        <time>2021-03-20T23:48:06Z</time>
      </trkpt>
      <trkpt lat="58.50369" lon="-4.51645">
        <ele>161</ele>
        <time>2021-03-20T23:48:09Z</time>
      </trkpt>
      <trkpt lat="58.50395" lon="-4.51507">
        <ele>161</ele>
        <time>2021-03-20T23:48:13Z</time>
      </trkpt>
      <trkpt lat="58.5041" lon="-4.51354">
        <ele>159.93</ele>
        <time>2021-03-20T23:48:16Z</time>
      </trkpt>
      <trkpt lat="58.50413" lon="-4.51241">
        <ele>157.69</ele>
        <time>2021-03-20T23:48:19Z</time>
      </trkpt>
      <trkpt lat="58.50432" lon="-4.50001">
        <ele>129.48</ele>
        <time>2021-03-20T23:48:22Z</time>
      </trkpt>
      <trkpt lat="58.50433" lon="-4.49684">
        <ele>127.63</ele>
        <time>2021-03-20T23:48:25Z</time>
      </trkpt>
      <trkpt lat="58.50431" lon="-4.49611">
        <ele>127</ele>
        <time>2021-03-20T23:48:28Z</time>
      </trkpt>
      <trkpt lat="58.50423" lon="-4.49519">
        <ele>127</ele>
        <time>2021-03-20T23:48:31Z</time>
      </trkpt>
      <trkpt lat="58.50405" lon="-4.49435">
        <ele>126</ele>
        <time>2021-03-20T23:48:34Z</time>
      </trkpt>
      <trkpt lat="58.50378" lon="-4.49342">
        <ele>125.87</ele>
        <time>2021-03-20T23:48:37Z</time>
      </trkpt>
      <trkpt lat="58.5035" lon="-4.49264">
        <ele>126</ele>
        <time>2021-03-20T23:48:40Z</time>
      </trkpt>
      <trkpt lat="58.50285" lon="-4.49137">
        <ele>126.02</ele>
        <time>2021-03-20T23:48:43Z</time>
      </trkpt>
      <trkpt lat="58.50231" lon="-4.48999">
        <ele>125</ele>
        <time>2021-03-20T23:48:46Z</time>
      </trkpt>
      <trkpt lat="58.50201" lon="-4.48916">
        <ele>124</ele>
        <time>2021-03-20T23:48:49Z</time>
      </trkpt>
      <trkpt lat="58.50169" lon="-4.48808">
        <ele>123.09</ele>
        <time>2021-03-20T23:48:52Z</time>
      </trkpt>
      <trkpt lat="58.50133" lon="-4.48719">
        <ele>120.79</ele>
        <time>2021-03-20T23:48:55Z</time>
      </trkpt>
      <trkpt lat="58.50094" lon="-4.4864">
        <ele>120</ele>
        <time>2021-03-20T23:48:58Z</time>
      </trkpt>
      <trkpt lat="58.50043" lon="-4.48575">
        <ele>118.86</ele>
        <time>2021-03-20T23:49:01Z</time>
      </trkpt>
      <trkpt lat="58.49997" lon="-4.4852">
        <ele>117.14</ele>
        <time>2021-03-20T23:49:04Z</time>
      </trkpt>
      <trkpt lat="58.4994" lon="-4.4848">
        <ele>115.31</ele>
        <time>2021-03-20T23:49:07Z</time>
      </trkpt>
      <trkpt lat="58.49883" lon="-4.48448">
        <ele>112.43</ele>
        <time>2021-03-20T23:49:10Z</time>
      </trkpt>
      <trkpt lat="58.49793" lon="-4.48414">
        <ele>106.72</ele>
        <time>2021-03-20T23:49:13Z</time>
      </trkpt>
      <trkpt lat="58.49767" lon="-4.48396">
        <ele>105.98</ele>
        <time>2021-03-20T23:49:16Z</time>
      </trkpt>
      <trkpt lat="58.49749" lon="-4.48379">
        <ele>104.91</ele>
        <time>2021-03-20T23:49:19Z</time>
      </trkpt>
      <trkpt lat="58.49733" lon="-4.48354">
        <ele>103.85</ele>
        <time>2021-03-20T23:49:22Z</time>
      </trkpt>
      <trkpt lat="58.49711" lon="-4.48309">
        <ele>102.22</ele>
        <time>2021-03-20T23:49:25Z</time>
      </trkpt>
      <trkpt lat="58.49697" lon="-4.48269">
        <ele>101.19</ele>
        <time>2021-03-20T23:49:28Z</time>
      </trkpt>
      <trkpt lat="58.49686" lon="-4.48212">
        <ele>98.68</ele>
        <time>2021-03-20T23:49:32Z</time>
      </trkpt>
      <trkpt lat="58.49671" lon="-4.48103">
        <ele>91.17</ele>
        <time>2021-03-20T23:49:35Z</time>
      </trkpt>
      <trkpt lat="58.49615" lon="-4.47605">
        <ele>76.28</ele>
        <time>2021-03-20T23:49:38Z</time>
      </trkpt>
      <trkpt lat="58.49608" lon="-4.4747">
        <ele>73.6</ele>
        <time>2021-03-20T23:49:41Z</time>
      </trkpt>
      <trkpt lat="58.49608" lon="-4.47324">
        <ele>67.76</ele>
        <time>2021-03-20T23:49:44Z</time>
      </trkpt>
      <trkpt lat="58.49617" lon="-4.47199">
        <ele>63.02</ele>
        <time>2021-03-20T23:49:47Z</time>
      </trkpt>
      <trkpt lat="58.49651" lon="-4.46961">
        <ele>49.93</ele>
        <time>2021-03-20T23:49:50Z</time>
      </trkpt>
      <trkpt lat="58.49771" lon="-4.46154">
        <ele>26.06</ele>
        <time>2021-03-20T23:49:53Z</time>
      </trkpt>
      <trkpt lat="58.49777" lon="-4.46074">
        <ele>23.56</ele>
        <time>2021-03-20T23:49:56Z</time>
      </trkpt>
      <trkpt lat="58.49777" lon="-4.45953">
        <ele>19.19</ele>
        <time>2021-03-20T23:49:59Z</time>
      </trkpt>
      <trkpt lat="58.49774" lon="-4.45872">
        <ele>16.05</ele>
        <time>2021-03-20T23:50:02Z</time>
      </trkpt>
      <trkpt lat="58.49765" lon="-4.45779">
        <ele>13.1</ele>
        <time>2021-03-20T23:50:05Z</time>
      </trkpt>
      <trkpt lat="58.49739" lon="-4.4563">
        <ele>9.61</ele>
        <time>2021-03-20T23:50:08Z</time>
      </trkpt>
      <trkpt lat="58.49719" lon="-4.4555">
        <ele>7.7</ele>
        <time>2021-03-20T23:50:11Z</time>
      </trkpt>
      <trkpt lat="58.49695" lon="-4.45473">
        <ele>4.04</ele>
        <time>2021-03-20T23:50:14Z</time>
      </trkpt>
      <trkpt lat="58.49475" lon="-4.44985">
        <ele>1</ele>
        <time>2021-03-20T23:50:17Z</time>
      </trkpt>
      <trkpt lat="58.49408" lon="-4.44848">
        <ele>1.84</ele>
        <time>2021-03-20T23:50:20Z</time>
      </trkpt>
      <trkpt lat="58.4935" lon="-4.44688">
        <ele>2</ele>
        <time>2021-03-20T23:50:23Z</time>
      </trkpt>
      <trkpt lat="58.49323" lon="-4.44594">
        <ele>1.39</ele>
        <time>2021-03-20T23:50:26Z</time>
      </trkpt>
      <trkpt lat="58.493" lon="-4.44504">
        <ele>2.19</ele>
        <time>2021-03-20T23:50:29Z</time>
      </trkpt>
      <trkpt lat="58.4926" lon="-4.44316">
        <ele>2</ele>
        <time>2021-03-20T23:50:32Z</time>
      </trkpt>
      <trkpt lat="58.49232" lon="-4.44125">
        <ele>1</ele>
        <time>2021-03-20T23:50:35Z</time>
      </trkpt>
      <trkpt lat="58.49215" lon="-4.43899">
        <ele>-12.6</ele>
        <time>2021-03-20T23:50:38Z</time>
      </trkpt>
      <trkpt lat="58.49213" lon="-4.43771">
        <ele>1.33</ele>
        <time>2021-03-20T23:50:41Z</time>
      </trkpt>
      <trkpt lat="58.49213" lon="-4.43636">
        <ele>1.32</ele>
        <time>2021-03-20T23:50:44Z</time>
      </trkpt>
      <trkpt lat="58.49246" lon="-4.43106">
        <ele>2</ele>
        <time>2021-03-20T23:50:47Z</time>
      </trkpt>
      <trkpt lat="58.49245" lon="-4.43039">
        <ele>2</ele>
        <time>2021-03-20T23:50:51Z</time>
      </trkpt>
      <trkpt lat="58.49241" lon="-4.4298">
        <ele>2.49</ele>
        <time>2021-03-20T23:50:54Z</time>
      </trkpt>
      <trkpt lat="58.4926" lon="-4.42972">
        <ele>2.67</ele>
        <time>2021-03-20T23:50:59Z</time>
      </trkpt>
      <trkpt lat="58.49264" lon="-4.42961">
        <ele>2.7</ele>
        <time>2021-03-20T23:51:04Z</time>
      </trkpt>
      <trkpt lat="58.49268" lon="-4.42936">
        <ele>2.79</ele>
        <time>2021-03-20T23:51:09Z</time>
      </trkpt>
      <trkpt lat="58.49275" lon="-4.42873">
        <ele>3.85</ele>
        <time>2021-03-20T23:51:14Z</time>
      </trkpt>
      <trkpt lat="58.49281" lon="-4.42761">
        <ele>5.48</ele>
        <time>2021-03-20T23:51:19Z</time>
      </trkpt>
      <trkpt lat="58.49289" lon="-4.42651">
        <ele>6.32</ele>
        <time>2021-03-20T23:51:24Z</time>
      </trkpt>
      <trkpt lat="58.49315" lon="-4.42481">
        <ele>5.6</ele>
        <time>2021-03-20T23:51:29Z</time>
      </trkpt>
      <trkpt lat="58.49325" lon="-4.42392">
        <ele>5.7</ele>
        <time>2021-03-20T23:51:34Z</time>
      </trkpt>
      <trkpt lat="58.49334" lon="-4.42264">
        <ele>5.87</ele>
        <time>2021-03-20T23:51:40Z</time>
      </trkpt>
      <trkpt lat="58.49326" lon="-4.42135">
        <ele>7.25</ele>
        <time>2021-03-20T23:51:45Z</time>
      </trkpt>
      <trkpt lat="58.4933" lon="-4.42068">
        <ele>6.69</ele>
        <time>2021-03-20T23:51:50Z</time>
      </trkpt>
      <trkpt lat="58.49335" lon="-4.42011">
        <ele>7.38</ele>
        <time>2021-03-20T23:51:55Z</time>
      </trkpt>
      <trkpt lat="58.49348" lon="-4.41978">
        <ele>7.28</ele>
        <time>2021-03-20T23:52:00Z</time>
      </trkpt>
      <trkpt lat="58.49424" lon="-4.41899">
        <ele>3.11</ele>
        <time>2021-03-20T23:52:05Z</time>
      </trkpt>
      <trkpt lat="58.49442" lon="-4.41872">
        <ele>2.88</ele>
        <time>2021-03-20T23:52:10Z</time>
      </trkpt>
      <trkpt lat="58.49474" lon="-4.41779">
        <ele>4.81</ele>
        <time>2021-03-20T23:52:15Z</time>
      </trkpt>
      <trkpt lat="58.49533" lon="-4.41642">
        <ele>6.99</ele>
        <time>2021-03-20T23:52:20Z</time>
      </trkpt>
      <trkpt lat="58.4958" lon="-4.41542">
        <ele>12</ele>
        <time>2021-03-20T23:52:25Z</time>
      </trkpt>
      <trkpt lat="58.49644" lon="-4.4144">
        <ele>14.85</ele>
        <time>2021-03-20T23:52:30Z</time>
      </trkpt>
      <trkpt lat="58.49663" lon="-4.41399">
        <ele>17.87</ele>
        <time>2021-03-20T23:52:35Z</time>
      </trkpt>
      <trkpt lat="58.49732" lon="-4.41228">
        <ele>30.25</ele>
        <time>2021-03-20T23:52:40Z</time>
      </trkpt>
      <trkpt lat="58.49792" lon="-4.41101">
        <ele>30.36</ele>
        <time>2021-03-20T23:52:45Z</time>
      </trkpt>
      <trkpt lat="58.49815" lon="-4.41038">
        <ele>35.45</ele>
        <time>2021-03-20T23:52:49Z</time>
      </trkpt>
      <trkpt lat="58.49837" lon="-4.4096">
        <ele>44.79</ele>
        <time>2021-03-20T23:52:54Z</time>
      </trkpt>
      <trkpt lat="58.49838" lon="-4.40939">
        <ele>48.56</ele>
        <time>2021-03-20T23:52:59Z</time>
      </trkpt>
      <trkpt lat="58.49832" lon="-4.40926">
        <ele>51.44</ele>
        <time>2021-03-20T23:53:04Z</time>
      </trkpt>
      <trkpt lat="58.49811" lon="-4.40919">
        <ele>54.33</ele>
        <time>2021-03-20T23:53:09Z</time>
      </trkpt>
      <trkpt lat="58.49734" lon="-4.40921">
        <ele>58.27</ele>
        <time>2021-03-20T23:53:14Z</time>
      </trkpt>
      <trkpt lat="58.49703" lon="-4.40926">
        <ele>60.65</ele>
        <time>2021-03-20T23:53:19Z</time>
      </trkpt>
      <trkpt lat="58.49673" lon="-4.40939">
        <ele>64.37</ele>
        <time>2021-03-20T23:53:24Z</time>
      </trkpt>
      <trkpt lat="58.49653" lon="-4.40959">
        <ele>65.3</ele>
        <time>2021-03-20T23:53:29Z</time>
      </trkpt>
      <trkpt lat="58.49637" lon="-4.40981">
        <ele>65.3</ele>
        <time>2021-03-20T23:53:34Z</time>
      </trkpt>
      <trkpt lat="58.49624" lon="-4.40992">
        <ele>65.67</ele>
        <time>2021-03-20T23:53:39Z</time>
      </trkpt>
      <trkpt lat="58.49602" lon="-4.40995">
        <ele>68.12</ele>
        <time>2021-03-20T23:53:44Z</time>
      </trkpt>
      <trkpt lat="58.49591" lon="-4.4099">
        <ele>70.56</ele>
        <time>2021-03-20T23:53:49Z</time>
      </trkpt>
      <trkpt lat="58.49587" lon="-4.40976">
        <ele>73.71</ele>
        <time>2021-03-20T23:53:54Z</time>
      </trkpt>
      <trkpt lat="58.49612" lon="-4.40965">
        <ele>71.07</ele>
        <time>2021-03-20T23:53:57Z</time>
      </trkpt>
      <trkpt lat="58.49636" lon="-4.40942">
        <ele>70.72</ele>
        <time>2021-03-20T23:54:00Z</time>
      </trkpt>
      <trkpt lat="58.49662" lon="-4.4091">
        <ele>69.61</ele>
        <time>2021-03-20T23:54:04Z</time>
      </trkpt>
      <trkpt lat="58.49742" lon="-4.4073">
        <ele>81.96</ele>
        <time>2021-03-20T23:54:07Z</time>
      </trkpt>
      <trkpt lat="58.4979" lon="-4.40606">
        <ele>80.1</ele>
        <time>2021-03-20T23:54:10Z</time>
      </trkpt>
      <trkpt lat="58.49796" lon="-4.40581">
        <ele>79.62</ele>
        <time>2021-03-20T23:54:13Z</time>
      </trkpt>
      <trkpt lat="58.4981" lon="-4.40502">
        <ele>77.38</ele>
        <time>2021-03-20T23:54:16Z</time>
      </trkpt>
      <trkpt lat="58.49838" lon="-4.4038">
        <ele>77.74</ele>
        <time>2021-03-20T23:54:19Z</time>
      </trkpt>
      <trkpt lat="58.49866" lon="-4.40301">
        <ele>76.61</ele>
        <time>2021-03-20T23:54:23Z</time>
      </trkpt>
      <trkpt lat="58.49918" lon="-4.40189">
        <ele>77.28</ele>
        <time>2021-03-20T23:54:26Z</time>
      </trkpt>
      <trkpt lat="58.49941" lon="-4.40135">
        <ele>76.38</ele>
        <time>2021-03-20T23:54:29Z</time>
      </trkpt>
      <trkpt lat="58.50045" lon="-4.39919">
        <ele>73.83</ele>
        <time>2021-03-20T23:54:32Z</time>
      </trkpt>
      <trkpt lat="58.50134" lon="-4.39647">
        <ele>76.67</ele>
        <time>2021-03-20T23:54:35Z</time>
      </trkpt>
      <trkpt lat="58.50163" lon="-4.3958">
        <ele>78.47</ele>
        <time>2021-03-20T23:54:38Z</time>
      </trkpt>
      <trkpt lat="58.50214" lon="-4.39513">
        <ele>78.24</ele>
        <time>2021-03-20T23:54:42Z</time>
      </trkpt>
      <trkpt lat="58.50273" lon="-4.39449">
        <ele>77.24</ele>
        <time>2021-03-20T23:54:45Z</time>
      </trkpt>
      <trkpt lat="58.50325" lon="-4.39416">
        <ele>77.69</ele>
        <time>2021-03-20T23:54:48Z</time>
      </trkpt>
      <trkpt lat="58.50448" lon="-4.39357">
        <ele>74.98</ele>
        <time>2021-03-20T23:54:51Z</time>
      </trkpt>
      <trkpt lat="58.50477" lon="-4.39335">
        <ele>73.82</ele>
        <time>2021-03-20T23:54:54Z</time>
      </trkpt>
      <trkpt lat="58.50499" lon="-4.3931">
        <ele>73.09</ele>
        <time>2021-03-20T23:54:57Z</time>
      </trkpt>
      <trkpt lat="58.50632" lon="-4.39095">
        <ele>67.5</ele>
        <time>2021-03-20T23:55:01Z</time>
      </trkpt>
      <trkpt lat="58.50648" lon="-4.3906">
        <ele>66.39</ele>
        <time>2021-03-20T23:55:04Z</time>
      </trkpt>
      <trkpt lat="58.50661" lon="-4.39003">
        <ele>63.85</ele>
        <time>2021-03-20T23:55:07Z</time>
      </trkpt>
      <trkpt lat="58.50666" lon="-4.3897">
        <ele>62.03</ele>
        <time>2021-03-20T23:55:10Z</time>
      </trkpt>
      <trkpt lat="58.50667" lon="-4.38914">
        <ele>59.69</ele>
        <time>2021-03-20T23:55:13Z</time>
      </trkpt>
      <trkpt lat="58.50656" lon="-4.38816">
        <ele>57.26</ele>
        <time>2021-03-20T23:55:17Z</time>
      </trkpt>
      <trkpt lat="58.50636" lon="-4.38683">
        <ele>54</ele>
        <time>2021-03-20T23:55:20Z</time>
      </trkpt>
      <trkpt lat="58.50625" lon="-4.38625">
        <ele>52.43</ele>
        <time>2021-03-20T23:55:23Z</time>
      </trkpt>
      <trkpt lat="58.5061" lon="-4.38592">
        <ele>54.02</ele>
        <time>2021-03-20T23:55:26Z</time>
      </trkpt>
      <trkpt lat="58.506" lon="-4.38557">
        <ele>53.94</ele>
        <time>2021-03-20T23:55:29Z</time>
      </trkpt>
      <trkpt lat="58.50597" lon="-4.38531">
        <ele>54.67</ele>
        <time>2021-03-20T23:55:32Z</time>
      </trkpt>
      <trkpt lat="58.50596" lon="-4.38505">
        <ele>54.75</ele>
        <time>2021-03-20T23:55:36Z</time>
      </trkpt>
      <trkpt lat="58.50602" lon="-4.38485">
        <ele>53.96</ele>
        <time>2021-03-20T23:55:39Z</time>
      </trkpt>
      <trkpt lat="58.50618" lon="-4.384">
        <ele>55.19</ele>
        <time>2021-03-20T23:55:42Z</time>
      </trkpt>
      <trkpt lat="58.5062" lon="-4.38383">
        <ele>55.83</ele>
        <time>2021-03-20T23:55:45Z</time>
      </trkpt>
      <trkpt lat="58.50611" lon="-4.38089">
        <ele>62.02</ele>
        <time>2021-03-20T23:55:48Z</time>
      </trkpt>
      <trkpt lat="58.50612" lon="-4.37952">
        <ele>63.81</ele>
        <time>2021-03-20T23:55:51Z</time>
      </trkpt>
      <trkpt lat="58.5061" lon="-4.37908">
        <ele>64.12</ele>
        <time>2021-03-20T23:55:55Z</time>
      </trkpt>
      <trkpt lat="58.50606" lon="-4.37884">
        <ele>64.24</ele>
        <time>2021-03-20T23:55:58Z</time>
      </trkpt>
      <trkpt lat="58.506" lon="-4.37866">
        <ele>63.13</ele>
        <time>2021-03-20T23:56:01Z</time>
      </trkpt>
      <trkpt lat="58.50585" lon="-4.37838">
        <ele>62.22</ele>
        <time>2021-03-20T23:56:04Z</time>
      </trkpt>
      <trkpt lat="58.50555" lon="-4.37816">
        <ele>63.59</ele>
        <time>2021-03-20T23:56:07Z</time>
      </trkpt>
      <trkpt lat="58.50498" lon="-4.37803">
        <ele>64.64</ele>
        <time>2021-03-20T23:56:10Z</time>
      </trkpt>
      <trkpt lat="58.5045" lon="-4.37783">
        <ele>63.67</ele>
        <time>2021-03-20T23:56:14Z</time>
      </trkpt>
      <trkpt lat="58.50372" lon="-4.37716">
        <ele>64.31</ele>
        <time>2021-03-20T23:56:17Z</time>
      </trkpt>
      <trkpt lat="58.50311" lon="-4.37654">
        <ele>67.64</ele>
        <time>2021-03-20T23:56:20Z</time>
      </trkpt>
      <trkpt lat="58.50292" lon="-4.37617">
        <ele>66.28</ele>
        <time>2021-03-20T23:56:23Z</time>
      </trkpt>
      <trkpt lat="58.50278" lon="-4.37538">
        <ele>63.03</ele>
        <time>2021-03-20T23:56:26Z</time>
      </trkpt>
      <trkpt lat="58.50234" lon="-4.37323">
        <ele>63.23</ele>
        <time>2021-03-20T23:56:29Z</time>
      </trkpt>
      <trkpt lat="58.5016" lon="-4.37149">
        <ele>55.49</ele>
        <time>2021-03-20T23:56:33Z</time>
      </trkpt>
      <trkpt lat="58.50047" lon="-4.36891">
        <ele>55.62</ele>
        <time>2021-03-20T23:56:36Z</time>
      </trkpt>
      <trkpt lat="58.50032" lon="-4.36841">
        <ele>56.99</ele>
        <time>2021-03-20T23:56:39Z</time>
      </trkpt>
      <trkpt lat="58.50022" lon="-4.36786">
        <ele>58.43</ele>
        <time>2021-03-20T23:56:42Z</time>
      </trkpt>
      <trkpt lat="58.50027" lon="-4.36719">
        <ele>62.06</ele>
        <time>2021-03-20T23:56:45Z</time>
      </trkpt>
      <trkpt lat="58.50044" lon="-4.36672">
        <ele>64.74</ele>
        <time>2021-03-20T23:56:49Z</time>
      </trkpt>
      <trkpt lat="58.50077" lon="-4.36633">
        <ele>66.81</ele>
        <time>2021-03-20T23:56:52Z</time>
      </trkpt>
      <trkpt lat="58.50115" lon="-4.36609">
        <ele>67.25</ele>
        <time>2021-03-20T23:56:55Z</time>
      </trkpt>
      <trkpt lat="58.50146" lon="-4.36605">
        <ele>69.49</ele>
        <time>2021-03-20T23:56:58Z</time>
      </trkpt>
      <trkpt lat="58.50173" lon="-4.36577">
        <ele>71.47</ele>
        <time>2021-03-20T23:57:01Z</time>
      </trkpt>
      <trkpt lat="58.50185" lon="-4.36553">
        <ele>72.93</ele>
        <time>2021-03-20T23:57:04Z</time>
      </trkpt>
      <trkpt lat="58.50193" lon="-4.36521">
        <ele>73.62</ele>
        <time>2021-03-20T23:57:08Z</time>
      </trkpt>
      <trkpt lat="58.50195" lon="-4.36506">
        <ele>73.29</ele>
        <time>2021-03-20T23:57:11Z</time>
      </trkpt>
      <trkpt lat="58.50195" lon="-4.36453">
        <ele>74.72</ele>
        <time>2021-03-20T23:57:14Z</time>
      </trkpt>
      <trkpt lat="58.50179" lon="-4.36366">
        <ele>79.29</ele>
        <time>2021-03-20T23:57:17Z</time>
      </trkpt>
      <trkpt lat="58.5016" lon="-4.36277">
        <ele>80.1</ele>
        <time>2021-03-20T23:57:20Z</time>
      </trkpt>
      <trkpt lat="58.5015" lon="-4.36158">
        <ele>81.25</ele>
        <time>2021-03-20T23:57:23Z</time>
      </trkpt>
      <trkpt lat="58.50148" lon="-4.36086">
        <ele>83.59</ele>
        <time>2021-03-20T23:57:27Z</time>
      </trkpt>
      <trkpt lat="58.50144" lon="-4.36024">
        <ele>85.04</ele>
        <time>2021-03-20T23:57:30Z</time>
      </trkpt>
      <trkpt lat="58.50147" lon="-4.35959">
        <ele>86.7</ele>
        <time>2021-03-20T23:57:33Z</time>
      </trkpt>
      <trkpt lat="58.50145" lon="-4.35854">
        <ele>86.66</ele>
        <time>2021-03-20T23:57:36Z</time>
      </trkpt>
      <trkpt lat="58.50143" lon="-4.35795">
        <ele>86.78</ele>
        <time>2021-03-20T23:57:39Z</time>
      </trkpt>
      <trkpt lat="58.50136" lon="-4.35766">
        <ele>87.69</ele>
        <time>2021-03-20T23:57:42Z</time>
      </trkpt>
      <trkpt lat="58.50122" lon="-4.3573">
        <ele>89.22</ele>
        <time>2021-03-20T23:57:46Z</time>
      </trkpt>
      <trkpt lat="58.50081" lon="-4.35684">
        <ele>90.09</ele>
        <time>2021-03-20T23:57:49Z</time>
      </trkpt>
      <trkpt lat="58.49963" lon="-4.35583">
        <ele>96.03</ele>
        <time>2021-03-20T23:57:52Z</time>
      </trkpt>
      <trkpt lat="58.49833" lon="-4.35464">
        <ele>99.7</ele>
        <time>2021-03-20T23:57:55Z</time>
      </trkpt>
      <trkpt lat="58.49798" lon="-4.35412">
        <ele>101.08</ele>
        <time>2021-03-20T23:57:58Z</time>
      </trkpt>
      <trkpt lat="58.49781" lon="-4.35334">
        <ele>100.76</ele>
        <time>2021-03-20T23:58:01Z</time>
      </trkpt>
      <trkpt lat="58.49773" lon="-4.35222">
        <ele>100.7</ele>
        <time>2021-03-20T23:58:05Z</time>
      </trkpt>
      <trkpt lat="58.49768" lon="-4.35112">
        <ele>100.09</ele>
        <time>2021-03-20T23:58:08Z</time>
      </trkpt>
      <trkpt lat="58.49771" lon="-4.35037">
        <ele>100.49</ele>
        <time>2021-03-20T23:58:11Z</time>
      </trkpt>
      <trkpt lat="58.49775" lon="-4.35005">
        <ele>100.24</ele>
        <time>2021-03-20T23:58:14Z</time>
      </trkpt>
      <trkpt lat="58.49781" lon="-4.34979">
        <ele>100.5</ele>
        <time>2021-03-20T23:58:17Z</time>
      </trkpt>
      <trkpt lat="58.4979" lon="-4.3495">
        <ele>100.93</ele>
        <time>2021-03-20T23:58:21Z</time>
      </trkpt>
      <trkpt lat="58.49872" lon="-4.34756">
        <ele>99.61</ele>
        <time>2021-03-20T23:58:24Z</time>
      </trkpt>
      <trkpt lat="58.49931" lon="-4.34624">
        <ele>95.22</ele>
        <time>2021-03-20T23:58:27Z</time>
      </trkpt>
      <trkpt lat="58.50029" lon="-4.34393">
        <ele>90.2</ele>
        <time>2021-03-20T23:58:30Z</time>
      </trkpt>
      <trkpt lat="58.501" lon="-4.34257">
        <ele>88.44</ele>
        <time>2021-03-20T23:58:33Z</time>
      </trkpt>
      <trkpt lat="58.50133" lon="-4.3421">
        <ele>87.01</ele>
        <time>2021-03-20T23:58:36Z</time>
      </trkpt>
      <trkpt lat="58.50179" lon="-4.34163">
        <ele>83.59</ele>
        <time>2021-03-20T23:58:40Z</time>
      </trkpt>
      <trkpt lat="58.50214" lon="-4.34101">
        <ele>79.97</ele>
        <time>2021-03-20T23:58:43Z</time>
      </trkpt>
      <trkpt lat="58.50216" lon="-4.34069">
        <ele>77.33</ele>
        <time>2021-03-20T23:58:46Z</time>
      </trkpt>
      <trkpt lat="58.50215" lon="-4.34">
        <ele>73.28</ele>
        <time>2021-03-20T23:58:49Z</time>
      </trkpt>
      <trkpt lat="58.50208" lon="-4.33912">
        <ele>73.68</ele>
        <time>2021-03-20T23:58:52Z</time>
      </trkpt>
      <trkpt lat="58.50211" lon="-4.33847">
        <ele>75.92</ele>
        <time>2021-03-20T23:58:55Z</time>
      </trkpt>
      <trkpt lat="58.5022" lon="-4.33799">
        <ele>78.6</ele>
        <time>2021-03-20T23:58:59Z</time>
      </trkpt>
      <trkpt lat="58.50296" lon="-4.33565">
        <ele>88.39</ele>
        <time>2021-03-20T23:59:02Z</time>
      </trkpt>
      <trkpt lat="58.50307" lon="-4.33507">
        <ele>90.47</ele>
        <time>2021-03-20T23:59:05Z</time>
      </trkpt>
      <trkpt lat="58.50309" lon="-4.33445">
        <ele>91.99</ele>
        <time>2021-03-20T23:59:08Z</time>
      </trkpt>
      <trkpt lat="58.50283" lon="-4.33181">
        <ele>104.05</ele>
        <time>2021-03-20T23:59:11Z</time>
      </trkpt>
      <trkpt lat="58.50259" lon="-4.33034">
        <ele>107</ele>
        <time>2021-03-20T23:59:14Z</time>
      </trkpt>
      <trkpt lat="58.50239" lon="-4.32976">
        <ele>108</ele>
        <time>2021-03-20T23:59:18Z</time>
      </trkpt>
      <trkpt lat="58.50078" lon="-4.32721">
        <ele>112.82</ele>
        <time>2021-03-20T23:59:21Z</time>
      </trkpt>
      <trkpt lat="58.50065" lon="-4.32677">
        <ele>112.99</ele>
        <time>2021-03-20T23:59:24Z</time>
      </trkpt>
      <trkpt lat="58.50039" lon="-4.32559">
        <ele>114.88</ele>
        <time>2021-03-20T23:59:27Z</time>
      </trkpt>
      <trkpt lat="58.5002" lon="-4.32523">
        <ele>115.24</ele>
        <time>2021-03-20T23:59:30Z</time>
      </trkpt>
      <trkpt lat="58.49967" lon="-4.32441">
        <ele>117.54</ele>
        <time>2021-03-20T23:59:33Z</time>
      </trkpt>
      <trkpt lat="58.49896" lon="-4.32309">
        <ele>117.74</ele>
        <time>2021-03-20T23:59:37Z</time>
      </trkpt>
      <trkpt lat="58.49878" lon="-4.32263">
        <ele>117</ele>
        <time>2021-03-20T23:59:40Z</time>
      </trkpt>
      <trkpt lat="58.49862" lon="-4.32209">
        <ele>117.01</ele>
        <time>2021-03-20T23:59:43Z</time>
      </trkpt>
      <trkpt lat="58.49839" lon="-4.32105">
        <ele>118.19</ele>
        <time>2021-03-20T23:59:46Z</time>
      </trkpt>
      <trkpt lat="58.49768" lon="-4.31705">
        <ele>115</ele>
        <time>2021-03-20T23:59:49Z</time>
      </trkpt>
      <trkpt lat="58.49688" lon="-4.3135">
        <ele>110.84</ele>
        <time>2021-03-20T23:59:52Z</time>
      </trkpt>
      <trkpt lat="58.4967" lon="-4.31147">
        <ele>109</ele>
        <time>2021-03-20T23:59:56Z</time>
      </trkpt>
      <trkpt lat="58.49638" lon="-4.30866">
        <ele>108.04</ele>
        <time>2021-03-20T23:59:59Z</time>
      </trkpt>
      <trkpt lat="58.49621" lon="-4.30801">
        <ele>107.5</ele>
        <time>2021-03-21T00:00:02Z</time>
      </trkpt>
      <trkpt lat="58.496" lon="-4.30747">
        <ele>105.83</ele>
        <time>2021-03-21T00:00:05Z</time>
      </trkpt>
      <trkpt lat="58.49508" lon="-4.30538">
        <ele>99.56</ele>
        <time>2021-03-21T00:00:08Z</time>
      </trkpt>
      <trkpt lat="58.49491" lon="-4.30475">
        <ele>96.81</ele>
        <time>2021-03-21T00:00:12Z</time>
      </trkpt>
      <trkpt lat="58.4948" lon="-4.30426">
        <ele>93.88</ele>
        <time>2021-03-21T00:00:15Z</time>
      </trkpt>
      <trkpt lat="58.49478" lon="-4.30355">
        <ele>91.37</ele>
        <time>2021-03-21T00:00:18Z</time>
      </trkpt>
      <trkpt lat="58.49517" lon="-4.30077">
        <ele>79.31</ele>
        <time>2021-03-21T00:00:21Z</time>
      </trkpt>
      <trkpt lat="58.49521" lon="-4.29969">
        <ele>75.06</ele>
        <time>2021-03-21T00:00:24Z</time>
      </trkpt>
      <trkpt lat="58.49519" lon="-4.29834">
        <ele>71.41</ele>
        <time>2021-03-21T00:00:27Z</time>
      </trkpt>
      <trkpt lat="58.49579" lon="-4.29397">
        <ele>61.85</ele>
        <time>2021-03-21T00:00:31Z</time>
      </trkpt>
      <trkpt lat="58.49574" lon="-4.29311">
        <ele>59.01</ele>
        <time>2021-03-21T00:00:34Z</time>
      </trkpt>
      <trkpt lat="58.49566" lon="-4.29225">
        <ele>55.53</ele>
        <time>2021-03-21T00:00:37Z</time>
      </trkpt>
      <trkpt lat="58.49564" lon="-4.29166">
        <ele>52.22</ele>
        <time>2021-03-21T00:00:40Z</time>
      </trkpt>
      <trkpt lat="58.49571" lon="-4.29101">
        <ele>48.49</ele>
        <time>2021-03-21T00:00:43Z</time>
      </trkpt>
      <trkpt lat="58.49589" lon="-4.29023">
        <ele>43.42</ele>
        <time>2021-03-21T00:00:46Z</time>
      </trkpt>
      <trkpt lat="58.49625" lon="-4.28895">
        <ele>39.57</ele>
        <time>2021-03-21T00:00:50Z</time>
      </trkpt>
      <trkpt lat="58.49633" lon="-4.28851">
        <ele>38.43</ele>
        <time>2021-03-21T00:00:53Z</time>
      </trkpt>
      <trkpt lat="58.49653" lon="-4.28776">
        <ele>36.45</ele>
        <time>2021-03-21T00:00:56Z</time>
      </trkpt>
      <trkpt lat="58.49654" lon="-4.28765">
        <ele>36.05</ele>
        <time>2021-03-21T00:00:59Z</time>
      </trkpt>
      <trkpt lat="58.49671" lon="-4.28726">
        <ele>35.28</ele>
        <time>2021-03-21T00:01:04Z</time>
      </trkpt>
      <trkpt lat="58.49697" lon="-4.28672">
        <ele>36.05</ele>
        <time>2021-03-21T00:01:10Z</time>
      </trkpt>
      <trkpt lat="58.49713" lon="-4.28631">
        <ele>35.67</ele>
        <time>2021-03-21T00:01:16Z</time>
      </trkpt>
      <trkpt lat="58.49739" lon="-4.28551">
        <ele>37.81</ele>
        <time>2021-03-21T00:01:21Z</time>
      </trkpt>
      <trkpt lat="58.49747" lon="-4.28506">
        <ele>36.97</ele>
        <time>2021-03-21T00:01:27Z</time>
      </trkpt>
      <trkpt lat="58.49765" lon="-4.28385">
        <ele>38.01</ele>
        <time>2021-03-21T00:01:33Z</time>
      </trkpt>
      <trkpt lat="58.49776" lon="-4.28326">
        <ele>36.42</ele>
        <time>2021-03-21T00:01:38Z</time>
      </trkpt>
      <trkpt lat="58.49803" lon="-4.28238">
        <ele>38.55</ele>
        <time>2021-03-21T00:01:44Z</time>
      </trkpt>
      <trkpt lat="58.49851" lon="-4.28109">
        <ele>39.15</ele>
        <time>2021-03-21T00:01:50Z</time>
      </trkpt>
      <trkpt lat="58.4987" lon="-4.28063">
        <ele>38.17</ele>
        <time>2021-03-21T00:01:56Z</time>
      </trkpt>
      <trkpt lat="58.5003" lon="-4.27824">
        <ele>37.48</ele>
        <time>2021-03-21T00:02:01Z</time>
      </trkpt>
      <trkpt lat="58.50125" lon="-4.27709">
        <ele>36.53</ele>
        <time>2021-03-21T00:02:07Z</time>
      </trkpt>
      <trkpt lat="58.5032" lon="-4.2751">
        <ele>35.62</ele>
        <time>2021-03-21T00:02:13Z</time>
      </trkpt>
    </trkseg>
  </trk>
  <trk>
    <name><![CDATA[J10 - Borgie Lodge Hotel, Skerray, Tongue, Lairg - Corran Bunkhouse, Corran]]></name>
    <trkseg>
      <trkpt lat="58.50315" lon="-4.27515">
        <ele>35.62</ele>
        <time>2021-03-20T14:10:44Z</time>
      </trkpt>
      <trkpt lat="58.50125" lon="-4.27709">
        <ele>36.53</ele>
        <time>2021-03-20T14:10:50Z</time>
      </trkpt>
      <trkpt lat="58.5003" lon="-4.27824">
        <ele>37.48</ele>
        <time>2021-03-20T14:10:55Z</time>
      </trkpt>
      <trkpt lat="58.4987" lon="-4.28063">
        <ele>38.17</ele>
        <time>2021-03-20T14:11:01Z</time>
      </trkpt>
      <trkpt lat="58.49851" lon="-4.28109">
        <ele>39.15</ele>
        <time>2021-03-20T14:11:07Z</time>
      </trkpt>
      <trkpt lat="58.49803" lon="-4.28238">
        <ele>38.55</ele>
        <time>2021-03-20T14:11:12Z</time>
      </trkpt>
      <trkpt lat="58.49776" lon="-4.28326">
        <ele>36.42</ele>
        <time>2021-03-20T14:11:18Z</time>
      </trkpt>
      <trkpt lat="58.49765" lon="-4.28385">
        <ele>38.01</ele>
        <time>2021-03-20T14:11:24Z</time>
      </trkpt>
      <trkpt lat="58.49747" lon="-4.28506">
        <ele>36.97</ele>
        <time>2021-03-20T14:11:29Z</time>
      </trkpt>
      <trkpt lat="58.49739" lon="-4.28551">
        <ele>37.81</ele>
        <time>2021-03-20T14:11:35Z</time>
      </trkpt>
      <trkpt lat="58.49713" lon="-4.28631">
        <ele>35.67</ele>
        <time>2021-03-20T14:11:41Z</time>
      </trkpt>
      <trkpt lat="58.49697" lon="-4.28672">
        <ele>36.05</ele>
        <time>2021-03-20T14:11:46Z</time>
      </trkpt>
      <trkpt lat="58.49671" lon="-4.28726">
        <ele>35.28</ele>
        <time>2021-03-20T14:11:52Z</time>
      </trkpt>
      <trkpt lat="58.49654" lon="-4.28765">
        <ele>36.05</ele>
        <time>2021-03-20T14:11:58Z</time>
      </trkpt>
      <trkpt lat="58.49653" lon="-4.28776">
        <ele>36.45</ele>
        <time>2021-03-20T14:12:01Z</time>
      </trkpt>
      <trkpt lat="58.49633" lon="-4.28851">
        <ele>38.43</ele>
        <time>2021-03-20T14:12:04Z</time>
      </trkpt>
      <trkpt lat="58.49625" lon="-4.28895">
        <ele>39.57</ele>
        <time>2021-03-20T14:12:07Z</time>
      </trkpt>
      <trkpt lat="58.49589" lon="-4.29023">
        <ele>43.42</ele>
        <time>2021-03-20T14:12:10Z</time>
      </trkpt>
      <trkpt lat="58.49571" lon="-4.29101">
        <ele>48.49</ele>
        <time>2021-03-20T14:12:13Z</time>
      </trkpt>
      <trkpt lat="58.49564" lon="-4.29166">
        <ele>52.22</ele>
        <time>2021-03-20T14:12:16Z</time>
      </trkpt>
      <trkpt lat="58.49566" lon="-4.29225">
        <ele>55.53</ele>
        <time>2021-03-20T14:12:20Z</time>
      </trkpt>
      <trkpt lat="58.49574" lon="-4.29311">
        <ele>59.01</ele>
        <time>2021-03-20T14:12:23Z</time>
      </trkpt>
      <trkpt lat="58.49579" lon="-4.29397">
        <ele>61.85</ele>
        <time>2021-03-20T14:12:26Z</time>
      </trkpt>
      <trkpt lat="58.49519" lon="-4.29834">
        <ele>71.41</ele>
        <time>2021-03-20T14:12:29Z</time>
      </trkpt>
      <trkpt lat="58.49521" lon="-4.29969">
        <ele>75.06</ele>
        <time>2021-03-20T14:12:32Z</time>
      </trkpt>
      <trkpt lat="58.49517" lon="-4.30077">
        <ele>79.31</ele>
        <time>2021-03-20T14:12:36Z</time>
      </trkpt>
      <trkpt lat="58.49478" lon="-4.30355">
        <ele>91.37</ele>
        <time>2021-03-20T14:12:39Z</time>
      </trkpt>
      <trkpt lat="58.4948" lon="-4.30426">
        <ele>93.88</ele>
        <time>2021-03-20T14:12:42Z</time>
      </trkpt>
      <trkpt lat="58.49491" lon="-4.30475">
        <ele>96.81</ele>
        <time>2021-03-20T14:12:45Z</time>
      </trkpt>
      <trkpt lat="58.49508" lon="-4.30538">
        <ele>99.56</ele>
        <time>2021-03-20T14:12:48Z</time>
      </trkpt>
      <trkpt lat="58.496" lon="-4.30747">
        <ele>105.83</ele>
        <time>2021-03-20T14:12:52Z</time>
      </trkpt>
      <trkpt lat="58.49621" lon="-4.30801">
        <ele>107.5</ele>
        <time>2021-03-20T14:12:55Z</time>
      </trkpt>
      <trkpt lat="58.49638" lon="-4.30866">
        <ele>108.04</ele>
        <time>2021-03-20T14:12:58Z</time>
      </trkpt>
      <trkpt lat="58.4967" lon="-4.31147">
        <ele>109</ele>
        <time>2021-03-20T14:13:01Z</time>
      </trkpt>
      <trkpt lat="58.49688" lon="-4.3135">
        <ele>110.84</ele>
        <time>2021-03-20T14:13:04Z</time>
      </trkpt>
      <trkpt lat="58.49768" lon="-4.31705">
        <ele>115</ele>
        <time>2021-03-20T14:13:08Z</time>
      </trkpt>
      <trkpt lat="58.49839" lon="-4.32105">
        <ele>118.19</ele>
        <time>2021-03-20T14:13:11Z</time>
      </trkpt>
      <trkpt lat="58.49862" lon="-4.32209">
        <ele>117.01</ele>
        <time>2021-03-20T14:13:14Z</time>
      </trkpt>
      <trkpt lat="58.49878" lon="-4.32263">
        <ele>117</ele>
        <time>2021-03-20T14:13:17Z</time>
      </trkpt>
      <trkpt lat="58.49896" lon="-4.32309">
        <ele>117.74</ele>
        <time>2021-03-20T14:13:21Z</time>
      </trkpt>
      <trkpt lat="58.49967" lon="-4.32441">
        <ele>117.54</ele>
        <time>2021-03-20T14:13:24Z</time>
      </trkpt>
      <trkpt lat="58.5002" lon="-4.32523">
        <ele>115.24</ele>
        <time>2021-03-20T14:13:27Z</time>
      </trkpt>
      <trkpt lat="58.50039" lon="-4.32559">
        <ele>114.88</ele>
        <time>2021-03-20T14:13:30Z</time>
      </trkpt>
      <trkpt lat="58.50065" lon="-4.32677">
        <ele>112.99</ele>
        <time>2021-03-20T14:13:33Z</time>
      </trkpt>
      <trkpt lat="58.50078" lon="-4.32721">
        <ele>112.82</ele>
        <time>2021-03-20T14:13:37Z</time>
      </trkpt>
      <trkpt lat="58.50239" lon="-4.32976">
        <ele>108</ele>
        <time>2021-03-20T14:13:40Z</time>
      </trkpt>
      <trkpt lat="58.50259" lon="-4.33034">
        <ele>107</ele>
        <time>2021-03-20T14:13:43Z</time>
      </trkpt>
      <trkpt lat="58.50283" lon="-4.33181">
        <ele>104.05</ele>
        <time>2021-03-20T14:13:46Z</time>
      </trkpt>
      <trkpt lat="58.50309" lon="-4.33445">
        <ele>91.99</ele>
        <time>2021-03-20T14:13:49Z</time>
      </trkpt>
      <trkpt lat="58.50307" lon="-4.33507">
        <ele>90.47</ele>
        <time>2021-03-20T14:13:53Z</time>
      </trkpt>
      <trkpt lat="58.50296" lon="-4.33565">
        <ele>88.39</ele>
        <time>2021-03-20T14:13:56Z</time>
      </trkpt>
      <trkpt lat="58.5022" lon="-4.33799">
        <ele>78.6</ele>
        <time>2021-03-20T14:13:59Z</time>
      </trkpt>
      <trkpt lat="58.50211" lon="-4.33847">
        <ele>75.92</ele>
        <time>2021-03-20T14:14:02Z</time>
      </trkpt>
      <trkpt lat="58.50208" lon="-4.33912">
        <ele>73.68</ele>
        <time>2021-03-20T14:14:05Z</time>
      </trkpt>
      <trkpt lat="58.50215" lon="-4.34">
        <ele>73.28</ele>
        <time>2021-03-20T14:14:09Z</time>
      </trkpt>
      <trkpt lat="58.50216" lon="-4.34069">
        <ele>77.33</ele>
        <time>2021-03-20T14:14:12Z</time>
      </trkpt>
      <trkpt lat="58.50214" lon="-4.34101">
        <ele>79.97</ele>
        <time>2021-03-20T14:14:15Z</time>
      </trkpt>
      <trkpt lat="58.50179" lon="-4.34163">
        <ele>83.59</ele>
        <time>2021-03-20T14:14:18Z</time>
      </trkpt>
      <trkpt lat="58.50133" lon="-4.3421">
        <ele>87.01</ele>
        <time>2021-03-20T14:14:21Z</time>
      </trkpt>
      <trkpt lat="58.501" lon="-4.34257">
        <ele>88.44</ele>
        <time>2021-03-20T14:14:25Z</time>
      </trkpt>
      <trkpt lat="58.50029" lon="-4.34393">
        <ele>90.2</ele>
        <time>2021-03-20T14:14:28Z</time>
      </trkpt>
      <trkpt lat="58.49931" lon="-4.34624">
        <ele>95.22</ele>
        <time>2021-03-20T14:14:31Z</time>
      </trkpt>
      <trkpt lat="58.49872" lon="-4.34756">
        <ele>99.61</ele>
        <time>2021-03-20T14:14:34Z</time>
      </trkpt>
      <trkpt lat="58.4979" lon="-4.3495">
        <ele>100.93</ele>
        <time>2021-03-20T14:14:38Z</time>
      </trkpt>
      <trkpt lat="58.49781" lon="-4.34979">
        <ele>100.5</ele>
        <time>2021-03-20T14:14:41Z</time>
      </trkpt>
      <trkpt lat="58.49775" lon="-4.35005">
        <ele>100.24</ele>
        <time>2021-03-20T14:14:44Z</time>
      </trkpt>
      <trkpt lat="58.49771" lon="-4.35037">
        <ele>100.49</ele>
        <time>2021-03-20T14:14:47Z</time>
      </trkpt>
      <trkpt lat="58.49768" lon="-4.35112">
        <ele>100.09</ele>
        <time>2021-03-20T14:14:50Z</time>
      </trkpt>
      <trkpt lat="58.49773" lon="-4.35222">
        <ele>100.7</ele>
        <time>2021-03-20T14:14:54Z</time>
      </trkpt>
      <trkpt lat="58.49781" lon="-4.35334">
        <ele>100.76</ele>
        <time>2021-03-20T14:14:57Z</time>
      </trkpt>
      <trkpt lat="58.49798" lon="-4.35412">
        <ele>101.08</ele>
        <time>2021-03-20T14:15:00Z</time>
      </trkpt>
      <trkpt lat="58.49833" lon="-4.35464">
        <ele>99.7</ele>
        <time>2021-03-20T14:15:03Z</time>
      </trkpt>
      <trkpt lat="58.49963" lon="-4.35583">
        <ele>96.03</ele>
        <time>2021-03-20T14:15:06Z</time>
      </trkpt>
      <trkpt lat="58.50081" lon="-4.35684">
        <ele>90.09</ele>
        <time>2021-03-20T14:15:10Z</time>
      </trkpt>
      <trkpt lat="58.50122" lon="-4.3573">
        <ele>89.22</ele>
        <time>2021-03-20T14:15:13Z</time>
      </trkpt>
      <trkpt lat="58.50136" lon="-4.35766">
        <ele>87.69</ele>
        <time>2021-03-20T14:15:16Z</time>
      </trkpt>
      <trkpt lat="58.50143" lon="-4.35795">
        <ele>86.78</ele>
        <time>2021-03-20T14:15:19Z</time>
      </trkpt>
      <trkpt lat="58.50145" lon="-4.35854">
        <ele>86.66</ele>
        <time>2021-03-20T14:15:22Z</time>
      </trkpt>
      <trkpt lat="58.50147" lon="-4.35959">
        <ele>86.7</ele>
        <time>2021-03-20T14:15:26Z</time>
      </trkpt>
      <trkpt lat="58.50144" lon="-4.36024">
        <ele>85.04</ele>
        <time>2021-03-20T14:15:29Z</time>
      </trkpt>
      <trkpt lat="58.50148" lon="-4.36086">
        <ele>83.59</ele>
        <time>2021-03-20T14:15:32Z</time>
      </trkpt>
      <trkpt lat="58.5015" lon="-4.36158">
        <ele>81.25</ele>
        <time>2021-03-20T14:15:35Z</time>
      </trkpt>
      <trkpt lat="58.5016" lon="-4.36277">
        <ele>80.1</ele>
        <time>2021-03-20T14:15:38Z</time>
      </trkpt>
      <trkpt lat="58.50179" lon="-4.36366">
        <ele>79.29</ele>
        <time>2021-03-20T14:15:42Z</time>
      </trkpt>
      <trkpt lat="58.50195" lon="-4.36453">
        <ele>74.72</ele>
        <time>2021-03-20T14:15:45Z</time>
      </trkpt>
      <trkpt lat="58.50195" lon="-4.36506">
        <ele>73.29</ele>
        <time>2021-03-20T14:15:48Z</time>
      </trkpt>
      <trkpt lat="58.50193" lon="-4.36521">
        <ele>73.62</ele>
        <time>2021-03-20T14:15:51Z</time>
      </trkpt>
      <trkpt lat="58.50185" lon="-4.36553">
        <ele>72.93</ele>
        <time>2021-03-20T14:15:55Z</time>
      </trkpt>
      <trkpt lat="58.50173" lon="-4.36577">
        <ele>71.47</ele>
        <time>2021-03-20T14:15:58Z</time>
      </trkpt>
      <trkpt lat="58.50146" lon="-4.36605">
        <ele>69.49</ele>
        <time>2021-03-20T14:16:01Z</time>
      </trkpt>
      <trkpt lat="58.50115" lon="-4.36609">
        <ele>67.25</ele>
        <time>2021-03-20T14:16:04Z</time>
      </trkpt>
      <trkpt lat="58.50077" lon="-4.36633">
        <ele>66.81</ele>
        <time>2021-03-20T14:16:07Z</time>
      </trkpt>
      <trkpt lat="58.50044" lon="-4.36672">
        <ele>64.74</ele>
        <time>2021-03-20T14:16:11Z</time>
      </trkpt>
      <trkpt lat="58.50027" lon="-4.36719">
        <ele>62.06</ele>
        <time>2021-03-20T14:16:14Z</time>
      </trkpt>
      <trkpt lat="58.50022" lon="-4.36786">
        <ele>58.43</ele>
        <time>2021-03-20T14:16:17Z</time>
      </trkpt>
      <trkpt lat="58.50032" lon="-4.36841">
        <ele>56.99</ele>
        <time>2021-03-20T14:16:20Z</time>
      </trkpt>
      <trkpt lat="58.50047" lon="-4.36891">
        <ele>55.62</ele>
        <time>2021-03-20T14:16:23Z</time>
      </trkpt>
      <trkpt lat="58.5016" lon="-4.37149">
        <ele>55.49</ele>
        <time>2021-03-20T14:16:27Z</time>
      </trkpt>
      <trkpt lat="58.50234" lon="-4.37323">
        <ele>63.23</ele>
        <time>2021-03-20T14:16:30Z</time>
      </trkpt>
      <trkpt lat="58.50278" lon="-4.37538">
        <ele>63.03</ele>
        <time>2021-03-20T14:16:33Z</time>
      </trkpt>
      <trkpt lat="58.50292" lon="-4.37617">
        <ele>66.28</ele>
        <time>2021-03-20T14:16:36Z</time>
      </trkpt>
      <trkpt lat="58.50311" lon="-4.37654">
        <ele>67.64</ele>
        <time>2021-03-20T14:16:39Z</time>
      </trkpt>
      <trkpt lat="58.50372" lon="-4.37716">
        <ele>64.31</ele>
        <time>2021-03-20T14:16:43Z</time>
      </trkpt>
      <trkpt lat="58.5045" lon="-4.37783">
        <ele>63.67</ele>
        <time>2021-03-20T14:16:46Z</time>
      </trkpt>
      <trkpt lat="58.50498" lon="-4.37803">
        <ele>64.64</ele>
        <time>2021-03-20T14:16:49Z</time>
      </trkpt>
      <trkpt lat="58.50555" lon="-4.37816">
        <ele>63.59</ele>
        <time>2021-03-20T14:16:52Z</time>
      </trkpt>
      <trkpt lat="58.50585" lon="-4.37838">
        <ele>62.22</ele>
        <time>2021-03-20T14:16:55Z</time>
      </trkpt>
      <trkpt lat="58.506" lon="-4.37866">
        <ele>63.13</ele>
        <time>2021-03-20T14:16:59Z</time>
      </trkpt>
      <trkpt lat="58.50606" lon="-4.37884">
        <ele>64.24</ele>
        <time>2021-03-20T14:17:02Z</time>
      </trkpt>
      <trkpt lat="58.5061" lon="-4.37908">
        <ele>64.12</ele>
        <time>2021-03-20T14:17:05Z</time>
      </trkpt>
      <trkpt lat="58.50612" lon="-4.37952">
        <ele>63.81</ele>
        <time>2021-03-20T14:17:08Z</time>
      </trkpt>
      <trkpt lat="58.50611" lon="-4.38089">
        <ele>62.02</ele>
        <time>2021-03-20T14:17:11Z</time>
      </trkpt>
      <trkpt lat="58.5062" lon="-4.38383">
        <ele>55.83</ele>
        <time>2021-03-20T14:17:15Z</time>
      </trkpt>
      <trkpt lat="58.50618" lon="-4.384">
        <ele>55.19</ele>
        <time>2021-03-20T14:17:18Z</time>
      </trkpt>
      <trkpt lat="58.50602" lon="-4.38485">
        <ele>53.96</ele>
        <time>2021-03-20T14:17:21Z</time>
      </trkpt>
      <trkpt lat="58.50596" lon="-4.38505">
        <ele>54.75</ele>
        <time>2021-03-20T14:17:24Z</time>
      </trkpt>
      <trkpt lat="58.50597" lon="-4.38531">
        <ele>54.67</ele>
        <time>2021-03-20T14:17:28Z</time>
      </trkpt>
      <trkpt lat="58.506" lon="-4.38557">
        <ele>53.94</ele>
        <time>2021-03-20T14:17:31Z</time>
      </trkpt>
      <trkpt lat="58.5061" lon="-4.38592">
        <ele>54.02</ele>
        <time>2021-03-20T14:17:34Z</time>
      </trkpt>
      <trkpt lat="58.50625" lon="-4.38625">
        <ele>52.43</ele>
        <time>2021-03-20T14:17:37Z</time>
      </trkpt>
      <trkpt lat="58.50636" lon="-4.38683">
        <ele>54</ele>
        <time>2021-03-20T14:17:40Z</time>
      </trkpt>
      <trkpt lat="58.50656" lon="-4.38816">
        <ele>57.26</ele>
        <time>2021-03-20T14:17:44Z</time>
      </trkpt>
      <trkpt lat="58.50667" lon="-4.38914">
        <ele>59.69</ele>
        <time>2021-03-20T14:17:47Z</time>
      </trkpt>
      <trkpt lat="58.50666" lon="-4.3897">
        <ele>62.03</ele>
        <time>2021-03-20T14:17:50Z</time>
      </trkpt>
      <trkpt lat="58.50661" lon="-4.39003">
        <ele>63.85</ele>
        <time>2021-03-20T14:17:53Z</time>
      </trkpt>
      <trkpt lat="58.50648" lon="-4.3906">
        <ele>66.39</ele>
        <time>2021-03-20T14:17:56Z</time>
      </trkpt>
      <trkpt lat="58.50632" lon="-4.39095">
        <ele>67.5</ele>
        <time>2021-03-20T14:18:00Z</time>
      </trkpt>
      <trkpt lat="58.50499" lon="-4.3931">
        <ele>73.09</ele>
        <time>2021-03-20T14:18:03Z</time>
      </trkpt>
      <trkpt lat="58.50477" lon="-4.39335">
        <ele>73.82</ele>
        <time>2021-03-20T14:18:06Z</time>
      </trkpt>
      <trkpt lat="58.50448" lon="-4.39357">
        <ele>74.98</ele>
        <time>2021-03-20T14:18:09Z</time>
      </trkpt>
      <trkpt lat="58.50325" lon="-4.39416">
        <ele>77.69</ele>
        <time>2021-03-20T14:18:12Z</time>
      </trkpt>
      <trkpt lat="58.50273" lon="-4.39449">
        <ele>77.24</ele>
        <time>2021-03-20T14:18:16Z</time>
      </trkpt>
      <trkpt lat="58.50214" lon="-4.39513">
        <ele>78.24</ele>
        <time>2021-03-20T14:18:19Z</time>
      </trkpt>
      <trkpt lat="58.50163" lon="-4.3958">
        <ele>78.47</ele>
        <time>2021-03-20T14:18:22Z</time>
      </trkpt>
      <trkpt lat="58.50134" lon="-4.39647">
        <ele>76.67</ele>
        <time>2021-03-20T14:18:25Z</time>
      </trkpt>
      <trkpt lat="58.50045" lon="-4.39919">
        <ele>73.83</ele>
        <time>2021-03-20T14:18:28Z</time>
      </trkpt>
      <trkpt lat="58.49941" lon="-4.40135">
        <ele>76.38</ele>
        <time>2021-03-20T14:18:32Z</time>
      </trkpt>
      <trkpt lat="58.49918" lon="-4.40189">
        <ele>77.28</ele>
        <time>2021-03-20T14:18:35Z</time>
      </trkpt>
      <trkpt lat="58.49866" lon="-4.40301">
        <ele>76.61</ele>
        <time>2021-03-20T14:18:38Z</time>
      </trkpt>
      <trkpt lat="58.49838" lon="-4.4038">
        <ele>77.74</ele>
        <time>2021-03-20T14:18:41Z</time>
      </trkpt>
      <trkpt lat="58.4981" lon="-4.40502">
        <ele>77.38</ele>
        <time>2021-03-20T14:18:45Z</time>
      </trkpt>
      <trkpt lat="58.49796" lon="-4.40581">
        <ele>79.62</ele>
        <time>2021-03-20T14:18:48Z</time>
      </trkpt>
      <trkpt lat="58.4979" lon="-4.40606">
        <ele>80.1</ele>
        <time>2021-03-20T14:18:51Z</time>
      </trkpt>
      <trkpt lat="58.49742" lon="-4.4073">
        <ele>81.96</ele>
        <time>2021-03-20T14:18:54Z</time>
      </trkpt>
      <trkpt lat="58.49662" lon="-4.4091">
        <ele>69.61</ele>
        <time>2021-03-20T14:18:57Z</time>
      </trkpt>
      <trkpt lat="58.49636" lon="-4.40942">
        <ele>70.72</ele>
        <time>2021-03-20T14:19:01Z</time>
      </trkpt>
      <trkpt lat="58.49612" lon="-4.40965">
        <ele>71.07</ele>
        <time>2021-03-20T14:19:04Z</time>
      </trkpt>
      <trkpt lat="58.49587" lon="-4.40976">
        <ele>73.71</ele>
        <time>2021-03-20T14:19:07Z</time>
      </trkpt>
      <trkpt lat="58.49448" lon="-4.41046">
        <ele>82.74</ele>
        <time>2021-03-20T14:19:10Z</time>
      </trkpt>
      <trkpt lat="58.49311" lon="-4.4106">
        <ele>86.76</ele>
        <time>2021-03-20T14:19:13Z</time>
      </trkpt>
      <trkpt lat="58.49268" lon="-4.41073">
        <ele>89.76</ele>
        <time>2021-03-20T14:19:17Z</time>
      </trkpt>
      <trkpt lat="58.49238" lon="-4.41089">
        <ele>88.9</ele>
        <time>2021-03-20T14:19:20Z</time>
      </trkpt>
      <trkpt lat="58.4918" lon="-4.41109">
        <ele>87.74</ele>
        <time>2021-03-20T14:19:23Z</time>
      </trkpt>
      <trkpt lat="58.49054" lon="-4.41142">
        <ele>85.8</ele>
        <time>2021-03-20T14:19:26Z</time>
      </trkpt>
      <trkpt lat="58.49032" lon="-4.4114">
        <ele>85.94</ele>
        <time>2021-03-20T14:19:29Z</time>
      </trkpt>
      <trkpt lat="58.48968" lon="-4.41123">
        <ele>86.12</ele>
        <time>2021-03-20T14:19:33Z</time>
      </trkpt>
      <trkpt lat="58.4894" lon="-4.41123">
        <ele>86.63</ele>
        <time>2021-03-20T14:19:36Z</time>
      </trkpt>
      <trkpt lat="58.48907" lon="-4.41134">
        <ele>89.37</ele>
        <time>2021-03-20T14:19:39Z</time>
      </trkpt>
      <trkpt lat="58.48883" lon="-4.41159">
        <ele>90</ele>
        <time>2021-03-20T14:19:42Z</time>
      </trkpt>
      <trkpt lat="58.48826" lon="-4.41241">
        <ele>89.16</ele>
        <time>2021-03-20T14:19:45Z</time>
      </trkpt>
      <trkpt lat="58.48745" lon="-4.41291">
        <ele>90.36</ele>
        <time>2021-03-20T14:19:49Z</time>
      </trkpt>
      <trkpt lat="58.48649" lon="-4.41334">
        <ele>87.9</ele>
        <time>2021-03-20T14:19:52Z</time>
      </trkpt>
      <trkpt lat="58.48644" lon="-4.41308">
        <ele>89.84</ele>
        <time>2021-03-20T14:19:57Z</time>
      </trkpt>
      <trkpt lat="58.48631" lon="-4.41297">
        <ele>90.96</ele>
        <time>2021-03-20T14:20:01Z</time>
      </trkpt>
      <trkpt lat="58.48514" lon="-4.4126">
        <ele>97.27</ele>
        <time>2021-03-20T14:20:06Z</time>
      </trkpt>
      <trkpt lat="58.48421" lon="-4.41236">
        <ele>100.32</ele>
        <time>2021-03-20T14:20:10Z</time>
      </trkpt>
      <trkpt lat="58.48279" lon="-4.41181">
        <ele>105.95</ele>
        <time>2021-03-20T14:20:15Z</time>
      </trkpt>
      <trkpt lat="58.48169" lon="-4.41125">
        <ele>108.89</ele>
        <time>2021-03-20T14:20:19Z</time>
      </trkpt>
      <trkpt lat="58.48169" lon="-4.41125">
        <ele>108.89</ele>
        <time>2021-03-20T14:20:19Z</time>
      </trkpt>
      <trkpt lat="58.47946" lon="-4.41006">
        <ele>116.61</ele>
        <time>2021-03-20T14:20:23Z</time>
      </trkpt>
      <trkpt lat="58.47805" lon="-4.40926">
        <ele>123.32</ele>
        <time>2021-03-20T14:20:28Z</time>
      </trkpt>
      <trkpt lat="58.47623" lon="-4.40769">
        <ele>127.76</ele>
        <time>2021-03-20T14:20:32Z</time>
      </trkpt>
      <trkpt lat="58.47491" lon="-4.40642">
        <ele>132.45</ele>
        <time>2021-03-20T14:20:36Z</time>
      </trkpt>
      <trkpt lat="58.47392" lon="-4.40533">
        <ele>135.92</ele>
        <time>2021-03-20T14:20:40Z</time>
      </trkpt>
      <trkpt lat="58.4729" lon="-4.40428">
        <ele>137.87</ele>
        <time>2021-03-20T14:20:44Z</time>
      </trkpt>
      <trkpt lat="58.47221" lon="-4.40365">
        <ele>138.7</ele>
        <time>2021-03-20T14:20:49Z</time>
      </trkpt>
      <trkpt lat="58.47167" lon="-4.40329">
        <ele>139.34</ele>
        <time>2021-03-20T14:20:53Z</time>
      </trkpt>
      <trkpt lat="58.47043" lon="-4.40277">
        <ele>144.46</ele>
        <time>2021-03-20T14:20:57Z</time>
      </trkpt>
      <trkpt lat="58.46963" lon="-4.40252">
        <ele>149.44</ele>
        <time>2021-03-20T14:21:01Z</time>
      </trkpt>
      <trkpt lat="58.46769" lon="-4.40199">
        <ele>157.14</ele>
        <time>2021-03-20T14:21:05Z</time>
      </trkpt>
      <trkpt lat="58.46673" lon="-4.40149">
        <ele>158.92</ele>
        <time>2021-03-20T14:21:09Z</time>
      </trkpt>
      <trkpt lat="58.46614" lon="-4.40095">
        <ele>162.24</ele>
        <time>2021-03-20T14:21:14Z</time>
      </trkpt>
      <trkpt lat="58.46555" lon="-4.40026">
        <ele>165.09</ele>
        <time>2021-03-20T14:21:18Z</time>
      </trkpt>
      <trkpt lat="58.46497" lon="-4.39886">
        <ele>170.71</ele>
        <time>2021-03-20T14:21:22Z</time>
      </trkpt>
      <trkpt lat="58.4639" lon="-4.39522">
        <ele>171.27</ele>
        <time>2021-03-20T14:21:26Z</time>
      </trkpt>
      <trkpt lat="58.46352" lon="-4.39409">
        <ele>170.92</ele>
        <time>2021-03-20T14:21:30Z</time>
      </trkpt>
      <trkpt lat="58.46304" lon="-4.39311">
        <ele>169.93</ele>
        <time>2021-03-20T14:21:35Z</time>
      </trkpt>
      <trkpt lat="58.46082" lon="-4.38963">
        <ele>169</ele>
        <time>2021-03-20T14:21:39Z</time>
      </trkpt>
      <trkpt lat="58.45968" lon="-4.38792">
        <ele>171.14</ele>
        <time>2021-03-20T14:21:43Z</time>
      </trkpt>
      <trkpt lat="58.45929" lon="-4.38746">
        <ele>172.42</ele>
        <time>2021-03-20T14:21:47Z</time>
      </trkpt>
      <trkpt lat="58.45884" lon="-4.38718">
        <ele>172.16</ele>
        <time>2021-03-20T14:21:51Z</time>
      </trkpt>
      <trkpt lat="58.45808" lon="-4.38695">
        <ele>173.9</ele>
        <time>2021-03-20T14:21:56Z</time>
      </trkpt>
      <trkpt lat="58.45645" lon="-4.38672">
        <ele>174.35</ele>
        <time>2021-03-20T14:22:00Z</time>
      </trkpt>
      <trkpt lat="58.45612" lon="-4.3868">
        <ele>175.95</ele>
        <time>2021-03-20T14:22:04Z</time>
      </trkpt>
      <trkpt lat="58.45569" lon="-4.38701">
        <ele>177.46</ele>
        <time>2021-03-20T14:22:08Z</time>
      </trkpt>
      <trkpt lat="58.45506" lon="-4.38739">
        <ele>178.41</ele>
        <time>2021-03-20T14:22:12Z</time>
      </trkpt>
      <trkpt lat="58.45407" lon="-4.38783">
        <ele>178.38</ele>
        <time>2021-03-20T14:22:17Z</time>
      </trkpt>
      <trkpt lat="58.45304" lon="-4.38817">
        <ele>179.38</ele>
        <time>2021-03-20T14:22:21Z</time>
      </trkpt>
      <trkpt lat="58.45184" lon="-4.38841">
        <ele>177.57</ele>
        <time>2021-03-20T14:22:25Z</time>
      </trkpt>
      <trkpt lat="58.45073" lon="-4.38855">
        <ele>177.8</ele>
        <time>2021-03-20T14:22:29Z</time>
      </trkpt>
      <trkpt lat="58.45023" lon="-4.38855">
        <ele>177.8</ele>
        <time>2021-03-20T14:22:33Z</time>
      </trkpt>
      <trkpt lat="58.44967" lon="-4.38847">
        <ele>177.5</ele>
        <time>2021-03-20T14:22:38Z</time>
      </trkpt>
      <trkpt lat="58.44901" lon="-4.38815">
        <ele>176.45</ele>
        <time>2021-03-20T14:22:42Z</time>
      </trkpt>
      <trkpt lat="58.44845" lon="-4.3876">
        <ele>175</ele>
        <time>2021-03-20T14:22:46Z</time>
      </trkpt>
      <trkpt lat="58.44812" lon="-4.3872">
        <ele>175</ele>
        <time>2021-03-20T14:22:50Z</time>
      </trkpt>
      <trkpt lat="58.44766" lon="-4.3865">
        <ele>175</ele>
        <time>2021-03-20T14:22:54Z</time>
      </trkpt>
      <trkpt lat="58.44584" lon="-4.38333">
        <ele>176.96</ele>
        <time>2021-03-20T14:22:59Z</time>
      </trkpt>
      <trkpt lat="58.44554" lon="-4.38277">
        <ele>177.02</ele>
        <time>2021-03-20T14:23:03Z</time>
      </trkpt>
      <trkpt lat="58.44523" lon="-4.38232">
        <ele>175.87</ele>
        <time>2021-03-20T14:23:07Z</time>
      </trkpt>
      <trkpt lat="58.4448" lon="-4.38191">
        <ele>175.89</ele>
        <time>2021-03-20T14:23:11Z</time>
      </trkpt>
      <trkpt lat="58.44425" lon="-4.38156">
        <ele>174.22</ele>
        <time>2021-03-20T14:23:15Z</time>
      </trkpt>
      <trkpt lat="58.44401" lon="-4.38143">
        <ele>173.28</ele>
        <time>2021-03-20T14:23:20Z</time>
      </trkpt>
      <trkpt lat="58.44379" lon="-4.38142">
        <ele>172.52</ele>
        <time>2021-03-20T14:23:24Z</time>
      </trkpt>
      <trkpt lat="58.4436" lon="-4.3815">
        <ele>171.73</ele>
        <time>2021-03-20T14:23:28Z</time>
      </trkpt>
      <trkpt lat="58.44326" lon="-4.38172">
        <ele>170.99</ele>
        <time>2021-03-20T14:23:32Z</time>
      </trkpt>
      <trkpt lat="58.44156" lon="-4.38295">
        <ele>173.78</ele>
        <time>2021-03-20T14:23:36Z</time>
      </trkpt>
      <trkpt lat="58.44109" lon="-4.38315">
        <ele>172.88</ele>
        <time>2021-03-20T14:23:41Z</time>
      </trkpt>
      <trkpt lat="58.43993" lon="-4.38352">
        <ele>170.96</ele>
        <time>2021-03-20T14:23:45Z</time>
      </trkpt>
      <trkpt lat="58.43949" lon="-4.38378">
        <ele>168.43</ele>
        <time>2021-03-20T14:23:49Z</time>
      </trkpt>
      <trkpt lat="58.4389" lon="-4.38424">
        <ele>166.99</ele>
        <time>2021-03-20T14:23:53Z</time>
      </trkpt>
      <trkpt lat="58.43788" lon="-4.38517">
        <ele>163.51</ele>
        <time>2021-03-20T14:23:57Z</time>
      </trkpt>
      <trkpt lat="58.43736" lon="-4.38553">
        <ele>159.13</ele>
        <time>2021-03-20T14:24:02Z</time>
      </trkpt>
      <trkpt lat="58.43606" lon="-4.38629">
        <ele>155.89</ele>
        <time>2021-03-20T14:24:06Z</time>
      </trkpt>
      <trkpt lat="58.43566" lon="-4.3865">
        <ele>153.09</ele>
        <time>2021-03-20T14:24:10Z</time>
      </trkpt>
      <trkpt lat="58.43484" lon="-4.38701">
        <ele>152.4</ele>
        <time>2021-03-20T14:24:14Z</time>
      </trkpt>
      <trkpt lat="58.43449" lon="-4.3873">
        <ele>150.68</ele>
        <time>2021-03-20T14:24:18Z</time>
      </trkpt>
      <trkpt lat="58.43387" lon="-4.38795">
        <ele>150.09</ele>
        <time>2021-03-20T14:24:23Z</time>
      </trkpt>
      <trkpt lat="58.43296" lon="-4.38874">
        <ele>146.93</ele>
        <time>2021-03-20T14:24:27Z</time>
      </trkpt>
      <trkpt lat="58.43275" lon="-4.38891">
        <ele>146.96</ele>
        <time>2021-03-20T14:24:31Z</time>
      </trkpt>
      <trkpt lat="58.43257" lon="-4.38891">
        <ele>145.68</ele>
        <time>2021-03-20T14:24:35Z</time>
      </trkpt>
      <trkpt lat="58.43239" lon="-4.38876">
        <ele>143.82</ele>
        <time>2021-03-20T14:24:39Z</time>
      </trkpt>
      <trkpt lat="58.43221" lon="-4.3884">
        <ele>141.57</ele>
        <time>2021-03-20T14:24:44Z</time>
      </trkpt>
      <trkpt lat="58.43119" lon="-4.386">
        <ele>139.01</ele>
        <time>2021-03-20T14:24:48Z</time>
      </trkpt>
      <trkpt lat="58.43104" lon="-4.38557">
        <ele>137.64</ele>
        <time>2021-03-20T14:24:52Z</time>
      </trkpt>
      <trkpt lat="58.43072" lon="-4.38494">
        <ele>138.01</ele>
        <time>2021-03-20T14:24:56Z</time>
      </trkpt>
      <trkpt lat="58.43053" lon="-4.38475">
        <ele>139.12</ele>
        <time>2021-03-20T14:25:00Z</time>
      </trkpt>
      <trkpt lat="58.43029" lon="-4.3846">
        <ele>138.14</ele>
        <time>2021-03-20T14:25:05Z</time>
      </trkpt>
      <trkpt lat="58.42983" lon="-4.38466">
        <ele>138.94</ele>
        <time>2021-03-20T14:25:09Z</time>
      </trkpt>
      <trkpt lat="58.42918" lon="-4.38491">
        <ele>139.33</ele>
        <time>2021-03-20T14:25:13Z</time>
      </trkpt>
      <trkpt lat="58.42898" lon="-4.38491">
        <ele>140.94</ele>
        <time>2021-03-20T14:25:17Z</time>
      </trkpt>
      <trkpt lat="58.42877" lon="-4.38479">
        <ele>143.45</ele>
        <time>2021-03-20T14:25:21Z</time>
      </trkpt>
      <trkpt lat="58.42862" lon="-4.38448">
        <ele>143.26</ele>
        <time>2021-03-20T14:25:26Z</time>
      </trkpt>
      <trkpt lat="58.42847" lon="-4.38409">
        <ele>144.4</ele>
        <time>2021-03-20T14:25:30Z</time>
      </trkpt>
      <trkpt lat="58.42837" lon="-4.3834">
        <ele>141.97</ele>
        <time>2021-03-20T14:25:34Z</time>
      </trkpt>
      <trkpt lat="58.42812" lon="-4.38216">
        <ele>140.63</ele>
        <time>2021-03-20T14:25:38Z</time>
      </trkpt>
      <trkpt lat="58.42796" lon="-4.38153">
        <ele>137.74</ele>
        <time>2021-03-20T14:25:42Z</time>
      </trkpt>
      <trkpt lat="58.42763" lon="-4.38091">
        <ele>135.68</ele>
        <time>2021-03-20T14:25:46Z</time>
      </trkpt>
      <trkpt lat="58.42718" lon="-4.38028">
        <ele>134.49</ele>
        <time>2021-03-20T14:25:51Z</time>
      </trkpt>
      <trkpt lat="58.42681" lon="-4.37968">
        <ele>134.59</ele>
        <time>2021-03-20T14:25:55Z</time>
      </trkpt>
      <trkpt lat="58.42644" lon="-4.37871">
        <ele>130.95</ele>
        <time>2021-03-20T14:25:59Z</time>
      </trkpt>
      <trkpt lat="58.42628" lon="-4.3784">
        <ele>129.88</ele>
        <time>2021-03-20T14:26:03Z</time>
      </trkpt>
      <trkpt lat="58.42608" lon="-4.37815">
        <ele>130.01</ele>
        <time>2021-03-20T14:26:07Z</time>
      </trkpt>
      <trkpt lat="58.42561" lon="-4.3778">
        <ele>130.95</ele>
        <time>2021-03-20T14:26:12Z</time>
      </trkpt>
      <trkpt lat="58.42498" lon="-4.37728">
        <ele>129.45</ele>
        <time>2021-03-20T14:26:16Z</time>
      </trkpt>
      <trkpt lat="58.42428" lon="-4.3766">
        <ele>127.18</ele>
        <time>2021-03-20T14:26:20Z</time>
      </trkpt>
      <trkpt lat="58.42346" lon="-4.37563">
        <ele>125.96</ele>
        <time>2021-03-20T14:26:24Z</time>
      </trkpt>
      <trkpt lat="58.42258" lon="-4.37454">
        <ele>123.39</ele>
        <time>2021-03-20T14:26:28Z</time>
      </trkpt>
      <trkpt lat="58.4224" lon="-4.3742">
        <ele>122.46</ele>
        <time>2021-03-20T14:26:33Z</time>
      </trkpt>
      <trkpt lat="58.42199" lon="-4.37298">
        <ele>121.59</ele>
        <time>2021-03-20T14:26:37Z</time>
      </trkpt>
      <trkpt lat="58.42177" lon="-4.37258">
        <ele>120.27</ele>
        <time>2021-03-20T14:26:41Z</time>
      </trkpt>
      <trkpt lat="58.42156" lon="-4.37235">
        <ele>118.54</ele>
        <time>2021-03-20T14:26:45Z</time>
      </trkpt>
      <trkpt lat="58.42136" lon="-4.37226">
        <ele>117.24</ele>
        <time>2021-03-20T14:26:49Z</time>
      </trkpt>
      <trkpt lat="58.42118" lon="-4.37229">
        <ele>117.47</ele>
        <time>2021-03-20T14:26:54Z</time>
      </trkpt>
      <trkpt lat="58.42084" lon="-4.37241">
        <ele>118.32</ele>
        <time>2021-03-20T14:26:58Z</time>
      </trkpt>
      <trkpt lat="58.41987" lon="-4.37297">
        <ele>116.9</ele>
        <time>2021-03-20T14:27:02Z</time>
      </trkpt>
      <trkpt lat="58.41944" lon="-4.3734">
        <ele>117.7</ele>
        <time>2021-03-20T14:27:06Z</time>
      </trkpt>
      <trkpt lat="58.41907" lon="-4.3737">
        <ele>119.5</ele>
        <time>2021-03-20T14:27:10Z</time>
      </trkpt>
      <trkpt lat="58.4185" lon="-4.37396">
        <ele>121</ele>
        <time>2021-03-20T14:27:15Z</time>
      </trkpt>
      <trkpt lat="58.41792" lon="-4.37417">
        <ele>123.04</ele>
        <time>2021-03-20T14:27:19Z</time>
      </trkpt>
      <trkpt lat="58.41736" lon="-4.37432">
        <ele>121.83</ele>
        <time>2021-03-20T14:27:23Z</time>
      </trkpt>
      <trkpt lat="58.41694" lon="-4.37439">
        <ele>119.79</ele>
        <time>2021-03-20T14:27:27Z</time>
      </trkpt>
      <trkpt lat="58.41636" lon="-4.37466">
        <ele>119.5</ele>
        <time>2021-03-20T14:27:31Z</time>
      </trkpt>
      <trkpt lat="58.41598" lon="-4.37477">
        <ele>119.94</ele>
        <time>2021-03-20T14:27:36Z</time>
      </trkpt>
      <trkpt lat="58.41583" lon="-4.37488">
        <ele>120.77</ele>
        <time>2021-03-20T14:27:40Z</time>
      </trkpt>
      <trkpt lat="58.41565" lon="-4.37495">
        <ele>122.46</ele>
        <time>2021-03-20T14:27:44Z</time>
      </trkpt>
      <trkpt lat="58.41539" lon="-4.37493">
        <ele>124.91</ele>
        <time>2021-03-20T14:27:48Z</time>
      </trkpt>
      <trkpt lat="58.41519" lon="-4.37471">
        <ele>124.14</ele>
        <time>2021-03-20T14:27:52Z</time>
      </trkpt>
      <trkpt lat="58.41481" lon="-4.37434">
        <ele>120.6</ele>
        <time>2021-03-20T14:27:57Z</time>
      </trkpt>
      <trkpt lat="58.41458" lon="-4.3742">
        <ele>119.16</ele>
        <time>2021-03-20T14:28:01Z</time>
      </trkpt>
      <trkpt lat="58.41407" lon="-4.37439">
        <ele>120.06</ele>
        <time>2021-03-20T14:28:05Z</time>
      </trkpt>
      <trkpt lat="58.41364" lon="-4.37429">
        <ele>120.95</ele>
        <time>2021-03-20T14:28:09Z</time>
      </trkpt>
      <trkpt lat="58.41328" lon="-4.37407">
        <ele>121.52</ele>
        <time>2021-03-20T14:28:13Z</time>
      </trkpt>
      <trkpt lat="58.41254" lon="-4.37372">
        <ele>120.11</ele>
        <time>2021-03-20T14:28:18Z</time>
      </trkpt>
      <trkpt lat="58.41187" lon="-4.37368">
        <ele>118.81</ele>
        <time>2021-03-20T14:28:22Z</time>
      </trkpt>
      <trkpt lat="58.41149" lon="-4.3737">
        <ele>120.17</ele>
        <time>2021-03-20T14:28:26Z</time>
      </trkpt>
      <trkpt lat="58.41043" lon="-4.37362">
        <ele>117.55</ele>
        <time>2021-03-20T14:28:30Z</time>
      </trkpt>
      <trkpt lat="58.41001" lon="-4.37353">
        <ele>119.12</ele>
        <time>2021-03-20T14:28:34Z</time>
      </trkpt>
      <trkpt lat="58.40935" lon="-4.37345">
        <ele>117.85</ele>
        <time>2021-03-20T14:28:39Z</time>
      </trkpt>
      <trkpt lat="58.40893" lon="-4.37334">
        <ele>117.04</ele>
        <time>2021-03-20T14:28:43Z</time>
      </trkpt>
      <trkpt lat="58.40708" lon="-4.37258">
        <ele>116.28</ele>
        <time>2021-03-20T14:28:47Z</time>
      </trkpt>
      <trkpt lat="58.40681" lon="-4.37238">
        <ele>115.63</ele>
        <time>2021-03-20T14:28:51Z</time>
      </trkpt>
      <trkpt lat="58.40652" lon="-4.37181">
        <ele>115.05</ele>
        <time>2021-03-20T14:28:55Z</time>
      </trkpt>
      <trkpt lat="58.40623" lon="-4.37111">
        <ele>114.59</ele>
        <time>2021-03-20T14:29:00Z</time>
      </trkpt>
      <trkpt lat="58.40611" lon="-4.37088">
        <ele>115</ele>
        <time>2021-03-20T14:29:04Z</time>
      </trkpt>
      <trkpt lat="58.40598" lon="-4.37067">
        <ele>114.92</ele>
        <time>2021-03-20T14:29:08Z</time>
      </trkpt>
      <trkpt lat="58.4052" lon="-4.36996">
        <ele>114</ele>
        <time>2021-03-20T14:29:12Z</time>
      </trkpt>
      <trkpt lat="58.40436" lon="-4.36929">
        <ele>114.13</ele>
        <time>2021-03-20T14:29:16Z</time>
      </trkpt>
      <trkpt lat="58.40391" lon="-4.36929">
        <ele>114.96</ele>
        <time>2021-03-20T14:29:21Z</time>
      </trkpt>
      <trkpt lat="58.40352" lon="-4.36932">
        <ele>115</ele>
        <time>2021-03-20T14:29:25Z</time>
      </trkpt>
      <trkpt lat="58.40332" lon="-4.36928">
        <ele>115</ele>
        <time>2021-03-20T14:29:29Z</time>
      </trkpt>
      <trkpt lat="58.40311" lon="-4.36918">
        <ele>115</ele>
        <time>2021-03-20T14:29:33Z</time>
      </trkpt>
      <trkpt lat="58.4027" lon="-4.36877">
        <ele>115.17</ele>
        <time>2021-03-20T14:29:37Z</time>
      </trkpt>
      <trkpt lat="58.40225" lon="-4.36843">
        <ele>115.32</ele>
        <time>2021-03-20T14:29:42Z</time>
      </trkpt>
      <trkpt lat="58.40153" lon="-4.36825">
        <ele>115</ele>
        <time>2021-03-20T14:29:46Z</time>
      </trkpt>
      <trkpt lat="58.401" lon="-4.36822">
        <ele>115.98</ele>
        <time>2021-03-20T14:29:50Z</time>
      </trkpt>
      <trkpt lat="58.39982" lon="-4.36802">
        <ele>116.86</ele>
        <time>2021-03-20T14:29:54Z</time>
      </trkpt>
      <trkpt lat="58.39967" lon="-4.36796">
        <ele>116.64</ele>
        <time>2021-03-20T14:29:58Z</time>
      </trkpt>
      <trkpt lat="58.39956" lon="-4.36789">
        <ele>116.39</ele>
        <time>2021-03-20T14:30:03Z</time>
      </trkpt>
      <trkpt lat="58.39939" lon="-4.36773">
        <ele>116.15</ele>
        <time>2021-03-20T14:30:07Z</time>
      </trkpt>
      <trkpt lat="58.39926" lon="-4.36755">
        <ele>116.11</ele>
        <time>2021-03-20T14:30:11Z</time>
      </trkpt>
      <trkpt lat="58.39906" lon="-4.36719">
        <ele>115.87</ele>
        <time>2021-03-20T14:30:15Z</time>
      </trkpt>
      <trkpt lat="58.39895" lon="-4.36703">
        <ele>115.31</ele>
        <time>2021-03-20T14:30:19Z</time>
      </trkpt>
      <trkpt lat="58.39874" lon="-4.36684">
        <ele>115</ele>
        <time>2021-03-20T14:30:23Z</time>
      </trkpt>
      <trkpt lat="58.39852" lon="-4.36679">
        <ele>115</ele>
        <time>2021-03-20T14:30:28Z</time>
      </trkpt>
      <trkpt lat="58.39828" lon="-4.36687">
        <ele>114.95</ele>
        <time>2021-03-20T14:30:32Z</time>
      </trkpt>
      <trkpt lat="58.39752" lon="-4.36741">
        <ele>115</ele>
        <time>2021-03-20T14:30:36Z</time>
      </trkpt>
      <trkpt lat="58.39734" lon="-4.36766">
        <ele>115.25</ele>
        <time>2021-03-20T14:30:40Z</time>
      </trkpt>
      <trkpt lat="58.39671" lon="-4.36869">
        <ele>118.04</ele>
        <time>2021-03-20T14:30:44Z</time>
      </trkpt>
      <trkpt lat="58.39636" lon="-4.36911">
        <ele>116.7</ele>
        <time>2021-03-20T14:30:49Z</time>
      </trkpt>
      <trkpt lat="58.39617" lon="-4.36927">
        <ele>116.21</ele>
        <time>2021-03-20T14:30:53Z</time>
      </trkpt>
      <trkpt lat="58.3954" lon="-4.36959">
        <ele>113</ele>
        <time>2021-03-20T14:30:57Z</time>
      </trkpt>
      <trkpt lat="58.39506" lon="-4.36967">
        <ele>113.79</ele>
        <time>2021-03-20T14:31:01Z</time>
      </trkpt>
      <trkpt lat="58.3947" lon="-4.36971">
        <ele>114</ele>
        <time>2021-03-20T14:31:05Z</time>
      </trkpt>
      <trkpt lat="58.39447" lon="-4.36963">
        <ele>114</ele>
        <time>2021-03-20T14:31:10Z</time>
      </trkpt>
      <trkpt lat="58.39424" lon="-4.36946">
        <ele>115.42</ele>
        <time>2021-03-20T14:31:14Z</time>
      </trkpt>
      <trkpt lat="58.39391" lon="-4.36913">
        <ele>116.92</ele>
        <time>2021-03-20T14:31:18Z</time>
      </trkpt>
      <trkpt lat="58.39352" lon="-4.36865">
        <ele>118</ele>
        <time>2021-03-20T14:31:22Z</time>
      </trkpt>
      <trkpt lat="58.39316" lon="-4.36829">
        <ele>119</ele>
        <time>2021-03-20T14:31:26Z</time>
      </trkpt>
      <trkpt lat="58.39294" lon="-4.36809">
        <ele>119.05</ele>
        <time>2021-03-20T14:31:31Z</time>
      </trkpt>
      <trkpt lat="58.39264" lon="-4.36792">
        <ele>119.01</ele>
        <time>2021-03-20T14:31:35Z</time>
      </trkpt>
      <trkpt lat="58.39236" lon="-4.36785">
        <ele>119.76</ele>
        <time>2021-03-20T14:31:39Z</time>
      </trkpt>
      <trkpt lat="58.3915" lon="-4.36809">
        <ele>121.11</ele>
        <time>2021-03-20T14:31:43Z</time>
      </trkpt>
      <trkpt lat="58.39105" lon="-4.36826">
        <ele>120.96</ele>
        <time>2021-03-20T14:31:47Z</time>
      </trkpt>
      <trkpt lat="58.3906" lon="-4.36817">
        <ele>123.12</ele>
        <time>2021-03-20T14:31:52Z</time>
      </trkpt>
      <trkpt lat="58.39028" lon="-4.36777">
        <ele>121.99</ele>
        <time>2021-03-20T14:31:56Z</time>
      </trkpt>
      <trkpt lat="58.38986" lon="-4.36715">
        <ele>121</ele>
        <time>2021-03-20T14:32:00Z</time>
      </trkpt>
      <trkpt lat="58.38943" lon="-4.36646">
        <ele>120.01</ele>
        <time>2021-03-20T14:32:04Z</time>
      </trkpt>
      <trkpt lat="58.38862" lon="-4.36534">
        <ele>117</ele>
        <time>2021-03-20T14:32:08Z</time>
      </trkpt>
      <trkpt lat="58.38827" lon="-4.36505">
        <ele>116.21</ele>
        <time>2021-03-20T14:32:13Z</time>
      </trkpt>
      <trkpt lat="58.38781" lon="-4.36488">
        <ele>116.89</ele>
        <time>2021-03-20T14:32:17Z</time>
      </trkpt>
      <trkpt lat="58.38735" lon="-4.36466">
        <ele>116.74</ele>
        <time>2021-03-20T14:32:21Z</time>
      </trkpt>
      <trkpt lat="58.38697" lon="-4.36403">
        <ele>117.97</ele>
        <time>2021-03-20T14:32:25Z</time>
      </trkpt>
      <trkpt lat="58.38672" lon="-4.36323">
        <ele>115.62</ele>
        <time>2021-03-20T14:32:29Z</time>
      </trkpt>
      <trkpt lat="58.38652" lon="-4.36306">
        <ele>115.56</ele>
        <time>2021-03-20T14:32:34Z</time>
      </trkpt>
      <trkpt lat="58.38632" lon="-4.36306">
        <ele>116</ele>
        <time>2021-03-20T14:32:38Z</time>
      </trkpt>
      <trkpt lat="58.38613" lon="-4.36319">
        <ele>116</ele>
        <time>2021-03-20T14:32:42Z</time>
      </trkpt>
      <trkpt lat="58.38561" lon="-4.36387">
        <ele>118.69</ele>
        <time>2021-03-20T14:32:46Z</time>
      </trkpt>
      <trkpt lat="58.38532" lon="-4.36409">
        <ele>121.27</ele>
        <time>2021-03-20T14:32:50Z</time>
      </trkpt>
      <trkpt lat="58.38458" lon="-4.36426">
        <ele>121.7</ele>
        <time>2021-03-20T14:32:55Z</time>
      </trkpt>
      <trkpt lat="58.38415" lon="-4.36433">
        <ele>120.95</ele>
        <time>2021-03-20T14:32:59Z</time>
      </trkpt>
      <trkpt lat="58.38143" lon="-4.36423">
        <ele>118.29</ele>
        <time>2021-03-20T14:33:03Z</time>
      </trkpt>
      <trkpt lat="58.38106" lon="-4.36429">
        <ele>117.92</ele>
        <time>2021-03-20T14:33:07Z</time>
      </trkpt>
      <trkpt lat="58.38092" lon="-4.36434">
        <ele>117.56</ele>
        <time>2021-03-20T14:33:11Z</time>
      </trkpt>
      <trkpt lat="58.37941" lon="-4.3651">
        <ele>123.63</ele>
        <time>2021-03-20T14:33:16Z</time>
      </trkpt>
      <trkpt lat="58.37834" lon="-4.36548">
        <ele>120.57</ele>
        <time>2021-03-20T14:33:20Z</time>
      </trkpt>
      <trkpt lat="58.37719" lon="-4.36598">
        <ele>119.78</ele>
        <time>2021-03-20T14:33:24Z</time>
      </trkpt>
      <trkpt lat="58.37643" lon="-4.36658">
        <ele>120.15</ele>
        <time>2021-03-20T14:33:28Z</time>
      </trkpt>
      <trkpt lat="58.37576" lon="-4.36731">
        <ele>118.87</ele>
        <time>2021-03-20T14:33:32Z</time>
      </trkpt>
      <trkpt lat="58.37487" lon="-4.36837">
        <ele>119.41</ele>
        <time>2021-03-20T14:33:37Z</time>
      </trkpt>
      <trkpt lat="58.37436" lon="-4.36904">
        <ele>120.81</ele>
        <time>2021-03-20T14:33:41Z</time>
      </trkpt>
      <trkpt lat="58.37357" lon="-4.36995">
        <ele>118.54</ele>
        <time>2021-03-20T14:33:45Z</time>
      </trkpt>
      <trkpt lat="58.37309" lon="-4.37064">
        <ele>119.73</ele>
        <time>2021-03-20T14:33:49Z</time>
      </trkpt>
      <trkpt lat="58.37262" lon="-4.37144">
        <ele>119.96</ele>
        <time>2021-03-20T14:33:53Z</time>
      </trkpt>
      <trkpt lat="58.37236" lon="-4.37183">
        <ele>119.68</ele>
        <time>2021-03-20T14:33:58Z</time>
      </trkpt>
      <trkpt lat="58.37202" lon="-4.37222">
        <ele>119.53</ele>
        <time>2021-03-20T14:34:02Z</time>
      </trkpt>
      <trkpt lat="58.37179" lon="-4.37253">
        <ele>118.94</ele>
        <time>2021-03-20T14:34:06Z</time>
      </trkpt>
      <trkpt lat="58.37151" lon="-4.37306">
        <ele>118.88</ele>
        <time>2021-03-20T14:34:10Z</time>
      </trkpt>
      <trkpt lat="58.37052" lon="-4.37522">
        <ele>119.5</ele>
        <time>2021-03-20T14:34:14Z</time>
      </trkpt>
      <trkpt lat="58.37015" lon="-4.37606">
        <ele>119.55</ele>
        <time>2021-03-20T14:34:19Z</time>
      </trkpt>
      <trkpt lat="58.369" lon="-4.37852">
        <ele>120.33</ele>
        <time>2021-03-20T14:34:23Z</time>
      </trkpt>
      <trkpt lat="58.36866" lon="-4.3793">
        <ele>121.81</ele>
        <time>2021-03-20T14:34:27Z</time>
      </trkpt>
      <trkpt lat="58.36846" lon="-4.37981">
        <ele>122.22</ele>
        <time>2021-03-20T14:34:31Z</time>
      </trkpt>
      <trkpt lat="58.36829" lon="-4.38035">
        <ele>122.68</ele>
        <time>2021-03-20T14:34:35Z</time>
      </trkpt>
      <trkpt lat="58.36817" lon="-4.38105">
        <ele>122.24</ele>
        <time>2021-03-20T14:34:40Z</time>
      </trkpt>
      <trkpt lat="58.36766" lon="-4.38473">
        <ele>119.18</ele>
        <time>2021-03-20T14:34:44Z</time>
      </trkpt>
      <trkpt lat="58.36746" lon="-4.38588">
        <ele>120</ele>
        <time>2021-03-20T14:34:48Z</time>
      </trkpt>
      <trkpt lat="58.36716" lon="-4.38733">
        <ele>121.86</ele>
        <time>2021-03-20T14:34:52Z</time>
      </trkpt>
      <trkpt lat="58.36701" lon="-4.38813">
        <ele>121.81</ele>
        <time>2021-03-20T14:34:56Z</time>
      </trkpt>
      <trkpt lat="58.36678" lon="-4.38915">
        <ele>122.74</ele>
        <time>2021-03-20T14:35:01Z</time>
      </trkpt>
      <trkpt lat="58.36658" lon="-4.39035">
        <ele>122.07</ele>
        <time>2021-03-20T14:35:05Z</time>
      </trkpt>
      <trkpt lat="58.36575" lon="-4.39643">
        <ele>120.41</ele>
        <time>2021-03-20T14:35:09Z</time>
      </trkpt>
      <trkpt lat="58.36559" lon="-4.39751">
        <ele>121.39</ele>
        <time>2021-03-20T14:35:13Z</time>
      </trkpt>
      <trkpt lat="58.3655" lon="-4.39779">
        <ele>120.48</ele>
        <time>2021-03-20T14:35:17Z</time>
      </trkpt>
      <trkpt lat="58.36526" lon="-4.39819">
        <ele>118.93</ele>
        <time>2021-03-20T14:35:21Z</time>
      </trkpt>
      <trkpt lat="58.36507" lon="-4.39825">
        <ele>118.26</ele>
        <time>2021-03-20T14:35:26Z</time>
      </trkpt>
      <trkpt lat="58.3649" lon="-4.39825">
        <ele>117.64</ele>
        <time>2021-03-20T14:35:30Z</time>
      </trkpt>
      <trkpt lat="58.36471" lon="-4.39813">
        <ele>116.96</ele>
        <time>2021-03-20T14:35:34Z</time>
      </trkpt>
      <trkpt lat="58.36458" lon="-4.398">
        <ele>116.37</ele>
        <time>2021-03-20T14:35:38Z</time>
      </trkpt>
      <trkpt lat="58.36414" lon="-4.39726">
        <ele>115</ele>
        <time>2021-03-20T14:35:42Z</time>
      </trkpt>
      <trkpt lat="58.36387" lon="-4.39696">
        <ele>115.05</ele>
        <time>2021-03-20T14:35:47Z</time>
      </trkpt>
      <trkpt lat="58.36365" lon="-4.3968">
        <ele>115.86</ele>
        <time>2021-03-20T14:35:51Z</time>
      </trkpt>
      <trkpt lat="58.36348" lon="-4.39678">
        <ele>116.2</ele>
        <time>2021-03-20T14:35:55Z</time>
      </trkpt>
      <trkpt lat="58.36331" lon="-4.39683">
        <ele>116.68</ele>
        <time>2021-03-20T14:35:59Z</time>
      </trkpt>
      <trkpt lat="58.36302" lon="-4.39699">
        <ele>118.14</ele>
        <time>2021-03-20T14:36:03Z</time>
      </trkpt>
      <trkpt lat="58.3628" lon="-4.39721">
        <ele>118.93</ele>
        <time>2021-03-20T14:36:08Z</time>
      </trkpt>
      <trkpt lat="58.36227" lon="-4.39786">
        <ele>122.69</ele>
        <time>2021-03-20T14:36:12Z</time>
      </trkpt>
      <trkpt lat="58.36193" lon="-4.39858">
        <ele>124.22</ele>
        <time>2021-03-20T14:36:16Z</time>
      </trkpt>
      <trkpt lat="58.36162" lon="-4.39929">
        <ele>124.34</ele>
        <time>2021-03-20T14:36:20Z</time>
      </trkpt>
      <trkpt lat="58.36119" lon="-4.40057">
        <ele>127.18</ele>
        <time>2021-03-20T14:36:24Z</time>
      </trkpt>
      <trkpt lat="58.36056" lon="-4.40263">
        <ele>131.41</ele>
        <time>2021-03-20T14:36:29Z</time>
      </trkpt>
      <trkpt lat="58.36032" lon="-4.4033">
        <ele>133.56</ele>
        <time>2021-03-20T14:36:33Z</time>
      </trkpt>
      <trkpt lat="58.358" lon="-4.40763">
        <ele>147.74</ele>
        <time>2021-03-20T14:36:37Z</time>
      </trkpt>
      <trkpt lat="58.35749" lon="-4.40899">
        <ele>151.79</ele>
        <time>2021-03-20T14:36:41Z</time>
      </trkpt>
      <trkpt lat="58.35734" lon="-4.40925">
        <ele>152.74</ele>
        <time>2021-03-20T14:36:45Z</time>
      </trkpt>
      <trkpt lat="58.35717" lon="-4.40945">
        <ele>154.56</ele>
        <time>2021-03-20T14:36:50Z</time>
      </trkpt>
      <trkpt lat="58.35689" lon="-4.40971">
        <ele>156.46</ele>
        <time>2021-03-20T14:36:54Z</time>
      </trkpt>
      <trkpt lat="58.35653" lon="-4.40998">
        <ele>158.58</ele>
        <time>2021-03-20T14:36:58Z</time>
      </trkpt>
      <trkpt lat="58.35639" lon="-4.41013">
        <ele>159.52</ele>
        <time>2021-03-20T14:37:02Z</time>
      </trkpt>
      <trkpt lat="58.35626" lon="-4.41032">
        <ele>159.82</ele>
        <time>2021-03-20T14:37:06Z</time>
      </trkpt>
      <trkpt lat="58.35611" lon="-4.4107">
        <ele>159.57</ele>
        <time>2021-03-20T14:37:11Z</time>
      </trkpt>
      <trkpt lat="58.35518" lon="-4.41413">
        <ele>167.35</ele>
        <time>2021-03-20T14:37:15Z</time>
      </trkpt>
      <trkpt lat="58.35469" lon="-4.41529">
        <ele>171.24</ele>
        <time>2021-03-20T14:37:19Z</time>
      </trkpt>
      <trkpt lat="58.35442" lon="-4.41598">
        <ele>173.24</ele>
        <time>2021-03-20T14:37:23Z</time>
      </trkpt>
      <trkpt lat="58.35419" lon="-4.41638">
        <ele>174.83</ele>
        <time>2021-03-20T14:37:27Z</time>
      </trkpt>
      <trkpt lat="58.35375" lon="-4.417">
        <ele>178.47</ele>
        <time>2021-03-20T14:37:32Z</time>
      </trkpt>
      <trkpt lat="58.35337" lon="-4.41743">
        <ele>181.84</ele>
        <time>2021-03-20T14:37:36Z</time>
      </trkpt>
      <trkpt lat="58.35256" lon="-4.41856">
        <ele>185.75</ele>
        <time>2021-03-20T14:37:40Z</time>
      </trkpt>
      <trkpt lat="58.35176" lon="-4.41948">
        <ele>190.88</ele>
        <time>2021-03-20T14:37:44Z</time>
      </trkpt>
      <trkpt lat="58.35088" lon="-4.42076">
        <ele>198.52</ele>
        <time>2021-03-20T14:37:48Z</time>
      </trkpt>
      <trkpt lat="58.35039" lon="-4.42176">
        <ele>201.51</ele>
        <time>2021-03-20T14:37:53Z</time>
      </trkpt>
      <trkpt lat="58.3498" lon="-4.4228">
        <ele>205.81</ele>
        <time>2021-03-20T14:37:57Z</time>
      </trkpt>
      <trkpt lat="58.34959" lon="-4.4233">
        <ele>206.59</ele>
        <time>2021-03-20T14:38:01Z</time>
      </trkpt>
      <trkpt lat="58.34928" lon="-4.42395">
        <ele>208</ele>
        <time>2021-03-20T14:38:05Z</time>
      </trkpt>
      <trkpt lat="58.34898" lon="-4.42415">
        <ele>208.05</ele>
        <time>2021-03-20T14:38:09Z</time>
      </trkpt>
      <trkpt lat="58.34878" lon="-4.42413">
        <ele>208.16</ele>
        <time>2021-03-20T14:38:14Z</time>
      </trkpt>
      <trkpt lat="58.34831" lon="-4.42416">
        <ele>208.09</ele>
        <time>2021-03-20T14:38:18Z</time>
      </trkpt>
      <trkpt lat="58.34803" lon="-4.42426">
        <ele>208.81</ele>
        <time>2021-03-20T14:38:22Z</time>
      </trkpt>
      <trkpt lat="58.34788" lon="-4.42437">
        <ele>209.53</ele>
        <time>2021-03-20T14:38:26Z</time>
      </trkpt>
      <trkpt lat="58.34772" lon="-4.42454">
        <ele>210.12</ele>
        <time>2021-03-20T14:38:30Z</time>
      </trkpt>
      <trkpt lat="58.34744" lon="-4.4249">
        <ele>210.97</ele>
        <time>2021-03-20T14:38:35Z</time>
      </trkpt>
      <trkpt lat="58.34726" lon="-4.42533">
        <ele>211.41</ele>
        <time>2021-03-20T14:38:39Z</time>
      </trkpt>
      <trkpt lat="58.34707" lon="-4.42611">
        <ele>212.22</ele>
        <time>2021-03-20T14:38:43Z</time>
      </trkpt>
      <trkpt lat="58.34662" lon="-4.42808">
        <ele>214.53</ele>
        <time>2021-03-20T14:38:47Z</time>
      </trkpt>
      <trkpt lat="58.3463" lon="-4.42963">
        <ele>217.04</ele>
        <time>2021-03-20T14:38:51Z</time>
      </trkpt>
      <trkpt lat="58.34605" lon="-4.43073">
        <ele>217.22</ele>
        <time>2021-03-20T14:38:56Z</time>
      </trkpt>
      <trkpt lat="58.34575" lon="-4.43173">
        <ele>219.85</ele>
        <time>2021-03-20T14:39:00Z</time>
      </trkpt>
      <trkpt lat="58.34553" lon="-4.43231">
        <ele>221.67</ele>
        <time>2021-03-20T14:39:04Z</time>
      </trkpt>
      <trkpt lat="58.34525" lon="-4.43291">
        <ele>220.42</ele>
        <time>2021-03-20T14:39:08Z</time>
      </trkpt>
      <trkpt lat="58.34505" lon="-4.43322">
        <ele>220.77</ele>
        <time>2021-03-20T14:39:12Z</time>
      </trkpt>
      <trkpt lat="58.34455" lon="-4.4339">
        <ele>224.82</ele>
        <time>2021-03-20T14:39:17Z</time>
      </trkpt>
      <trkpt lat="58.34402" lon="-4.43449">
        <ele>226.35</ele>
        <time>2021-03-20T14:39:21Z</time>
      </trkpt>
      <trkpt lat="58.34304" lon="-4.43546">
        <ele>227.43</ele>
        <time>2021-03-20T14:39:25Z</time>
      </trkpt>
      <trkpt lat="58.3423" lon="-4.43605">
        <ele>226.17</ele>
        <time>2021-03-20T14:39:29Z</time>
      </trkpt>
      <trkpt lat="58.34162" lon="-4.43641">
        <ele>226.11</ele>
        <time>2021-03-20T14:39:33Z</time>
      </trkpt>
      <trkpt lat="58.3409" lon="-4.43632">
        <ele>230.01</ele>
        <time>2021-03-20T14:39:38Z</time>
      </trkpt>
      <trkpt lat="58.34012" lon="-4.43627">
        <ele>229.99</ele>
        <time>2021-03-20T14:39:42Z</time>
      </trkpt>
      <trkpt lat="58.33829" lon="-4.43603">
        <ele>229</ele>
        <time>2021-03-20T14:39:46Z</time>
      </trkpt>
      <trkpt lat="58.33726" lon="-4.43582">
        <ele>225.25</ele>
        <time>2021-03-20T14:39:50Z</time>
      </trkpt>
      <trkpt lat="58.3365" lon="-4.43559">
        <ele>221.88</ele>
        <time>2021-03-20T14:39:54Z</time>
      </trkpt>
      <trkpt lat="58.33633" lon="-4.43562">
        <ele>221.75</ele>
        <time>2021-03-20T14:39:58Z</time>
      </trkpt>
      <trkpt lat="58.33623" lon="-4.43568">
        <ele>221.54</ele>
        <time>2021-03-20T14:40:03Z</time>
      </trkpt>
      <trkpt lat="58.33592" lon="-4.43597">
        <ele>220.29</ele>
        <time>2021-03-20T14:40:07Z</time>
      </trkpt>
      <trkpt lat="58.33536" lon="-4.43639">
        <ele>217.99</ele>
        <time>2021-03-20T14:40:11Z</time>
      </trkpt>
      <trkpt lat="58.33488" lon="-4.43664">
        <ele>217.5</ele>
        <time>2021-03-20T14:40:15Z</time>
      </trkpt>
      <trkpt lat="58.33427" lon="-4.43681">
        <ele>217.51</ele>
        <time>2021-03-20T14:40:19Z</time>
      </trkpt>
      <trkpt lat="58.33373" lon="-4.43675">
        <ele>217.3</ele>
        <time>2021-03-20T14:40:24Z</time>
      </trkpt>
      <trkpt lat="58.33336" lon="-4.43664">
        <ele>217</ele>
        <time>2021-03-20T14:40:28Z</time>
      </trkpt>
      <trkpt lat="58.3329" lon="-4.43642">
        <ele>216.45</ele>
        <time>2021-03-20T14:40:32Z</time>
      </trkpt>
      <trkpt lat="58.33252" lon="-4.43617">
        <ele>216</ele>
        <time>2021-03-20T14:40:36Z</time>
      </trkpt>
      <trkpt lat="58.33184" lon="-4.43564">
        <ele>219.76</ele>
        <time>2021-03-20T14:40:40Z</time>
      </trkpt>
      <trkpt lat="58.33136" lon="-4.43516">
        <ele>219.17</ele>
        <time>2021-03-20T14:40:45Z</time>
      </trkpt>
      <trkpt lat="58.33024" lon="-4.43368">
        <ele>216.37</ele>
        <time>2021-03-20T14:40:49Z</time>
      </trkpt>
      <trkpt lat="58.32967" lon="-4.43298">
        <ele>215.92</ele>
        <time>2021-03-20T14:40:53Z</time>
      </trkpt>
      <trkpt lat="58.32916" lon="-4.43245">
        <ele>215.82</ele>
        <time>2021-03-20T14:40:57Z</time>
      </trkpt>
      <trkpt lat="58.32864" lon="-4.43204">
        <ele>215</ele>
        <time>2021-03-20T14:41:01Z</time>
      </trkpt>
      <trkpt lat="58.32782" lon="-4.43151">
        <ele>213</ele>
        <time>2021-03-20T14:41:06Z</time>
      </trkpt>
      <trkpt lat="58.32761" lon="-4.43134">
        <ele>212.33</ele>
        <time>2021-03-20T14:41:10Z</time>
      </trkpt>
      <trkpt lat="58.32735" lon="-4.43106">
        <ele>210.93</ele>
        <time>2021-03-20T14:41:14Z</time>
      </trkpt>
      <trkpt lat="58.327" lon="-4.43082">
        <ele>210.05</ele>
        <time>2021-03-20T14:41:18Z</time>
      </trkpt>
      <trkpt lat="58.32679" lon="-4.43076">
        <ele>210.85</ele>
        <time>2021-03-20T14:41:22Z</time>
      </trkpt>
      <trkpt lat="58.32666" lon="-4.43075">
        <ele>211.3</ele>
        <time>2021-03-20T14:41:27Z</time>
      </trkpt>
      <trkpt lat="58.32652" lon="-4.43078">
        <ele>211.69</ele>
        <time>2021-03-20T14:41:31Z</time>
      </trkpt>
      <trkpt lat="58.32626" lon="-4.43091">
        <ele>211.85</ele>
        <time>2021-03-20T14:41:35Z</time>
      </trkpt>
      <trkpt lat="58.32607" lon="-4.43107">
        <ele>212.15</ele>
        <time>2021-03-20T14:41:39Z</time>
      </trkpt>
      <trkpt lat="58.32571" lon="-4.4312">
        <ele>212.69</ele>
        <time>2021-03-20T14:41:43Z</time>
      </trkpt>
      <trkpt lat="58.32503" lon="-4.43135">
        <ele>211.26</ele>
        <time>2021-03-20T14:41:48Z</time>
      </trkpt>
      <trkpt lat="58.324" lon="-4.43147">
        <ele>208.72</ele>
        <time>2021-03-20T14:41:52Z</time>
      </trkpt>
      <trkpt lat="58.32233" lon="-4.4308">
        <ele>205.62</ele>
        <time>2021-03-20T14:41:56Z</time>
      </trkpt>
      <trkpt lat="58.32143" lon="-4.43055">
        <ele>205.19</ele>
        <time>2021-03-20T14:42:00Z</time>
      </trkpt>
      <trkpt lat="58.32044" lon="-4.43023">
        <ele>202.52</ele>
        <time>2021-03-20T14:42:04Z</time>
      </trkpt>
      <trkpt lat="58.31844" lon="-4.42973">
        <ele>196.34</ele>
        <time>2021-03-20T14:42:09Z</time>
      </trkpt>
      <trkpt lat="58.31717" lon="-4.42907">
        <ele>191.98</ele>
        <time>2021-03-20T14:42:13Z</time>
      </trkpt>
      <trkpt lat="58.31632" lon="-4.42858">
        <ele>186.65</ele>
        <time>2021-03-20T14:42:17Z</time>
      </trkpt>
      <trkpt lat="58.31563" lon="-4.42821">
        <ele>183.71</ele>
        <time>2021-03-20T14:42:21Z</time>
      </trkpt>
      <trkpt lat="58.31479" lon="-4.42759">
        <ele>178.36</ele>
        <time>2021-03-20T14:42:25Z</time>
      </trkpt>
      <trkpt lat="58.31455" lon="-4.42747">
        <ele>176.26</ele>
        <time>2021-03-20T14:42:30Z</time>
      </trkpt>
      <trkpt lat="58.31414" lon="-4.42738">
        <ele>172.27</ele>
        <time>2021-03-20T14:42:34Z</time>
      </trkpt>
      <trkpt lat="58.31368" lon="-4.42745">
        <ele>169.46</ele>
        <time>2021-03-20T14:42:38Z</time>
      </trkpt>
      <trkpt lat="58.31287" lon="-4.42798">
        <ele>164.52</ele>
        <time>2021-03-20T14:42:42Z</time>
      </trkpt>
      <trkpt lat="58.31247" lon="-4.42833">
        <ele>161.78</ele>
        <time>2021-03-20T14:42:46Z</time>
      </trkpt>
      <trkpt lat="58.31199" lon="-4.42887">
        <ele>158.32</ele>
        <time>2021-03-20T14:42:51Z</time>
      </trkpt>
      <trkpt lat="58.31117" lon="-4.42964">
        <ele>153.3</ele>
        <time>2021-03-20T14:42:55Z</time>
      </trkpt>
      <trkpt lat="58.31052" lon="-4.4299">
        <ele>150.73</ele>
        <time>2021-03-20T14:42:59Z</time>
      </trkpt>
      <trkpt lat="58.31035" lon="-4.42983">
        <ele>149.52</ele>
        <time>2021-03-20T14:43:03Z</time>
      </trkpt>
      <trkpt lat="58.30996" lon="-4.42985">
        <ele>147.75</ele>
        <time>2021-03-20T14:43:07Z</time>
      </trkpt>
      <trkpt lat="58.30896" lon="-4.4304">
        <ele>144.11</ele>
        <time>2021-03-20T14:43:12Z</time>
      </trkpt>
      <trkpt lat="58.30765" lon="-4.43122">
        <ele>140.53</ele>
        <time>2021-03-20T14:43:16Z</time>
      </trkpt>
      <trkpt lat="58.30677" lon="-4.43168">
        <ele>137.4</ele>
        <time>2021-03-20T14:43:20Z</time>
      </trkpt>
      <trkpt lat="58.30537" lon="-4.4322">
        <ele>133.32</ele>
        <time>2021-03-20T14:43:24Z</time>
      </trkpt>
      <trkpt lat="58.30496" lon="-4.43246">
        <ele>133.32</ele>
        <time>2021-03-20T14:43:28Z</time>
      </trkpt>
      <trkpt lat="58.30461" lon="-4.43274">
        <ele>133.53</ele>
        <time>2021-03-20T14:43:33Z</time>
      </trkpt>
      <trkpt lat="58.30362" lon="-4.43364">
        <ele>132.87</ele>
        <time>2021-03-20T14:43:37Z</time>
      </trkpt>
      <trkpt lat="58.30315" lon="-4.43414">
        <ele>132.1</ele>
        <time>2021-03-20T14:43:41Z</time>
      </trkpt>
      <trkpt lat="58.30257" lon="-4.43487">
        <ele>131</ele>
        <time>2021-03-20T14:43:45Z</time>
      </trkpt>
      <trkpt lat="58.30236" lon="-4.43516">
        <ele>129.91</ele>
        <time>2021-03-20T14:43:49Z</time>
      </trkpt>
      <trkpt lat="58.30203" lon="-4.43555">
        <ele>129</ele>
        <time>2021-03-20T14:43:54Z</time>
      </trkpt>
      <trkpt lat="58.301" lon="-4.4359">
        <ele>128.9</ele>
        <time>2021-03-20T14:43:58Z</time>
      </trkpt>
      <trkpt lat="58.29881" lon="-4.43677">
        <ele>123</ele>
        <time>2021-03-20T14:44:02Z</time>
      </trkpt>
      <trkpt lat="58.29811" lon="-4.43694">
        <ele>121.18</ele>
        <time>2021-03-20T14:44:06Z</time>
      </trkpt>
      <trkpt lat="58.29618" lon="-4.43752">
        <ele>119.02</ele>
        <time>2021-03-20T14:44:10Z</time>
      </trkpt>
      <trkpt lat="58.29564" lon="-4.43778">
        <ele>117.31</ele>
        <time>2021-03-20T14:44:15Z</time>
      </trkpt>
      <trkpt lat="58.29446" lon="-4.43825">
        <ele>113.06</ele>
        <time>2021-03-20T14:44:19Z</time>
      </trkpt>
      <trkpt lat="58.29362" lon="-4.43871">
        <ele>109.48</ele>
        <time>2021-03-20T14:44:23Z</time>
      </trkpt>
      <trkpt lat="58.29269" lon="-4.43929">
        <ele>104.54</ele>
        <time>2021-03-20T14:44:27Z</time>
      </trkpt>
      <trkpt lat="58.29233" lon="-4.43956">
        <ele>102.14</ele>
        <time>2021-03-20T14:44:31Z</time>
      </trkpt>
      <trkpt lat="58.29113" lon="-4.44066">
        <ele>93.76</ele>
        <time>2021-03-20T14:44:35Z</time>
      </trkpt>
      <trkpt lat="58.29091" lon="-4.4409">
        <ele>91.56</ele>
        <time>2021-03-20T14:44:40Z</time>
      </trkpt>
      <trkpt lat="58.29064" lon="-4.44112">
        <ele>89.63</ele>
        <time>2021-03-20T14:44:44Z</time>
      </trkpt>
      <trkpt lat="58.29004" lon="-4.44166">
        <ele>88.29</ele>
        <time>2021-03-20T14:44:48Z</time>
      </trkpt>
      <trkpt lat="58.28968" lon="-4.44188">
        <ele>87.46</ele>
        <time>2021-03-20T14:44:52Z</time>
      </trkpt>
      <trkpt lat="58.2893" lon="-4.44205">
        <ele>84.63</ele>
        <time>2021-03-20T14:44:56Z</time>
      </trkpt>
      <trkpt lat="58.28842" lon="-4.44202">
        <ele>80.59</ele>
        <time>2021-03-20T14:45:01Z</time>
      </trkpt>
      <trkpt lat="58.28779" lon="-4.44203">
        <ele>80</ele>
        <time>2021-03-20T14:45:05Z</time>
      </trkpt>
      <trkpt lat="58.28748" lon="-4.44214">
        <ele>78.94</ele>
        <time>2021-03-20T14:45:09Z</time>
      </trkpt>
      <trkpt lat="58.2872" lon="-4.44235">
        <ele>77.91</ele>
        <time>2021-03-20T14:45:13Z</time>
      </trkpt>
      <trkpt lat="58.28697" lon="-4.44266">
        <ele>77.09</ele>
        <time>2021-03-20T14:45:17Z</time>
      </trkpt>
      <trkpt lat="58.28671" lon="-4.44311">
        <ele>77</ele>
        <time>2021-03-20T14:45:22Z</time>
      </trkpt>
      <trkpt lat="58.28647" lon="-4.4436">
        <ele>78.67</ele>
        <time>2021-03-20T14:45:26Z</time>
      </trkpt>
      <trkpt lat="58.2862" lon="-4.44402">
        <ele>80.28</ele>
        <time>2021-03-20T14:45:30Z</time>
      </trkpt>
      <trkpt lat="58.28608" lon="-4.44415">
        <ele>80.97</ele>
        <time>2021-03-20T14:45:34Z</time>
      </trkpt>
      <trkpt lat="58.28585" lon="-4.44429">
        <ele>82.82</ele>
        <time>2021-03-20T14:45:38Z</time>
      </trkpt>
      <trkpt lat="58.28558" lon="-4.44429">
        <ele>82.86</ele>
        <time>2021-03-20T14:45:43Z</time>
      </trkpt>
      <trkpt lat="58.28489" lon="-4.44405">
        <ele>83.58</ele>
        <time>2021-03-20T14:45:47Z</time>
      </trkpt>
      <trkpt lat="58.28391" lon="-4.44378">
        <ele>83.56</ele>
        <time>2021-03-20T14:45:51Z</time>
      </trkpt>
      <trkpt lat="58.28292" lon="-4.44361">
        <ele>84.01</ele>
        <time>2021-03-20T14:45:55Z</time>
      </trkpt>
      <trkpt lat="58.28258" lon="-4.44361">
        <ele>84</ele>
        <time>2021-03-20T14:45:59Z</time>
      </trkpt>
      <trkpt lat="58.28193" lon="-4.44376">
        <ele>85.03</ele>
        <time>2021-03-20T14:46:04Z</time>
      </trkpt>
      <trkpt lat="58.2815" lon="-4.44373">
        <ele>84.77</ele>
        <time>2021-03-20T14:46:08Z</time>
      </trkpt>
      <trkpt lat="58.28126" lon="-4.44357">
        <ele>85.32</ele>
        <time>2021-03-20T14:46:12Z</time>
      </trkpt>
      <trkpt lat="58.28109" lon="-4.4433">
        <ele>85.2</ele>
        <time>2021-03-20T14:46:16Z</time>
      </trkpt>
      <trkpt lat="58.28094" lon="-4.44296">
        <ele>87.22</ele>
        <time>2021-03-20T14:46:20Z</time>
      </trkpt>
      <trkpt lat="58.28061" lon="-4.44191">
        <ele>91.87</ele>
        <time>2021-03-20T14:46:25Z</time>
      </trkpt>
      <trkpt lat="58.27916" lon="-4.43698">
        <ele>100.02</ele>
        <time>2021-03-20T14:46:29Z</time>
      </trkpt>
      <trkpt lat="58.27903" lon="-4.43657">
        <ele>100.48</ele>
        <time>2021-03-20T14:46:33Z</time>
      </trkpt>
      <trkpt lat="58.27882" lon="-4.43605">
        <ele>102.65</ele>
        <time>2021-03-20T14:46:37Z</time>
      </trkpt>
      <trkpt lat="58.27867" lon="-4.43574">
        <ele>104.13</ele>
        <time>2021-03-20T14:46:41Z</time>
      </trkpt>
      <trkpt lat="58.27843" lon="-4.43542">
        <ele>105.98</ele>
        <time>2021-03-20T14:46:46Z</time>
      </trkpt>
      <trkpt lat="58.27817" lon="-4.43515">
        <ele>106.41</ele>
        <time>2021-03-20T14:46:50Z</time>
      </trkpt>
      <trkpt lat="58.27791" lon="-4.43504">
        <ele>106.79</ele>
        <time>2021-03-20T14:46:54Z</time>
      </trkpt>
      <trkpt lat="58.27766" lon="-4.43498">
        <ele>107</ele>
        <time>2021-03-20T14:46:58Z</time>
      </trkpt>
      <trkpt lat="58.27619" lon="-4.43488">
        <ele>102.11</ele>
        <time>2021-03-20T14:47:02Z</time>
      </trkpt>
      <trkpt lat="58.27592" lon="-4.43495">
        <ele>101.07</ele>
        <time>2021-03-20T14:47:07Z</time>
      </trkpt>
      <trkpt lat="58.27465" lon="-4.43645">
        <ele>102.8</ele>
        <time>2021-03-20T14:47:11Z</time>
      </trkpt>
      <trkpt lat="58.2743" lon="-4.43691">
        <ele>103.54</ele>
        <time>2021-03-20T14:47:15Z</time>
      </trkpt>
      <trkpt lat="58.27417" lon="-4.43713">
        <ele>103.32</ele>
        <time>2021-03-20T14:47:19Z</time>
      </trkpt>
      <trkpt lat="58.27388" lon="-4.43774">
        <ele>103.31</ele>
        <time>2021-03-20T14:47:23Z</time>
      </trkpt>
      <trkpt lat="58.2737" lon="-4.43806">
        <ele>104.01</ele>
        <time>2021-03-20T14:47:28Z</time>
      </trkpt>
      <trkpt lat="58.27341" lon="-4.4385">
        <ele>101.05</ele>
        <time>2021-03-20T14:47:32Z</time>
      </trkpt>
      <trkpt lat="58.27326" lon="-4.43881">
        <ele>99.3</ele>
        <time>2021-03-20T14:47:36Z</time>
      </trkpt>
      <trkpt lat="58.27308" lon="-4.43989">
        <ele>98.87</ele>
        <time>2021-03-20T14:47:40Z</time>
      </trkpt>
      <trkpt lat="58.27299" lon="-4.4402">
        <ele>99.58</ele>
        <time>2021-03-20T14:47:44Z</time>
      </trkpt>
      <trkpt lat="58.2728" lon="-4.44076">
        <ele>100.61</ele>
        <time>2021-03-20T14:47:49Z</time>
      </trkpt>
      <trkpt lat="58.27255" lon="-4.44129">
        <ele>101.01</ele>
        <time>2021-03-20T14:47:53Z</time>
      </trkpt>
      <trkpt lat="58.27218" lon="-4.4419">
        <ele>100.04</ele>
        <time>2021-03-20T14:47:57Z</time>
      </trkpt>
      <trkpt lat="58.27177" lon="-4.44245">
        <ele>99.75</ele>
        <time>2021-03-20T14:48:01Z</time>
      </trkpt>
      <trkpt lat="58.27155" lon="-4.4427">
        <ele>98.88</ele>
        <time>2021-03-20T14:48:05Z</time>
      </trkpt>
      <trkpt lat="58.27137" lon="-4.44284">
        <ele>98.61</ele>
        <time>2021-03-20T14:48:10Z</time>
      </trkpt>
      <trkpt lat="58.27082" lon="-4.44311">
        <ele>99.31</ele>
        <time>2021-03-20T14:48:14Z</time>
      </trkpt>
      <trkpt lat="58.27065" lon="-4.44324">
        <ele>99.19</ele>
        <time>2021-03-20T14:48:18Z</time>
      </trkpt>
      <trkpt lat="58.27042" lon="-4.44351">
        <ele>100.93</ele>
        <time>2021-03-20T14:48:22Z</time>
      </trkpt>
      <trkpt lat="58.27007" lon="-4.444">
        <ele>102.79</ele>
        <time>2021-03-20T14:48:26Z</time>
      </trkpt>
      <trkpt lat="58.26985" lon="-4.44434">
        <ele>103.6</ele>
        <time>2021-03-20T14:48:31Z</time>
      </trkpt>
      <trkpt lat="58.26955" lon="-4.44503">
        <ele>104.86</ele>
        <time>2021-03-20T14:48:35Z</time>
      </trkpt>
      <trkpt lat="58.26925" lon="-4.44562">
        <ele>105.75</ele>
        <time>2021-03-20T14:48:39Z</time>
      </trkpt>
      <trkpt lat="58.26875" lon="-4.44635">
        <ele>108.64</ele>
        <time>2021-03-20T14:48:43Z</time>
      </trkpt>
      <trkpt lat="58.26823" lon="-4.44692">
        <ele>110.1</ele>
        <time>2021-03-20T14:48:47Z</time>
      </trkpt>
      <trkpt lat="58.26687" lon="-4.44806">
        <ele>111.94</ele>
        <time>2021-03-20T14:48:52Z</time>
      </trkpt>
      <trkpt lat="58.26676" lon="-4.44825">
        <ele>111.86</ele>
        <time>2021-03-20T14:48:56Z</time>
      </trkpt>
      <trkpt lat="58.26648" lon="-4.44886">
        <ele>114.01</ele>
        <time>2021-03-20T14:49:00Z</time>
      </trkpt>
      <trkpt lat="58.26603" lon="-4.4495">
        <ele>116.15</ele>
        <time>2021-03-20T14:49:04Z</time>
      </trkpt>
      <trkpt lat="58.26494" lon="-4.45035">
        <ele>121.82</ele>
        <time>2021-03-20T14:49:08Z</time>
      </trkpt>
      <trkpt lat="58.26395" lon="-4.45127">
        <ele>126.08</ele>
        <time>2021-03-20T14:49:12Z</time>
      </trkpt>
      <trkpt lat="58.26372" lon="-4.45157">
        <ele>127.91</ele>
        <time>2021-03-20T14:49:17Z</time>
      </trkpt>
      <trkpt lat="58.26324" lon="-4.45203">
        <ele>130.43</ele>
        <time>2021-03-20T14:49:21Z</time>
      </trkpt>
      <trkpt lat="58.26233" lon="-4.45275">
        <ele>134.6</ele>
        <time>2021-03-20T14:49:25Z</time>
      </trkpt>
      <trkpt lat="58.2618" lon="-4.45403">
        <ele>141.5</ele>
        <time>2021-03-20T14:49:29Z</time>
      </trkpt>
      <trkpt lat="58.26099" lon="-4.45517">
        <ele>145.21</ele>
        <time>2021-03-20T14:49:33Z</time>
      </trkpt>
      <trkpt lat="58.2607" lon="-4.45612">
        <ele>148.7</ele>
        <time>2021-03-20T14:49:38Z</time>
      </trkpt>
      <trkpt lat="58.26047" lon="-4.45663">
        <ele>151.02</ele>
        <time>2021-03-20T14:49:42Z</time>
      </trkpt>
      <trkpt lat="58.25926" lon="-4.4582">
        <ele>152.7</ele>
        <time>2021-03-20T14:49:46Z</time>
      </trkpt>
      <trkpt lat="58.25863" lon="-4.4589">
        <ele>155.29</ele>
        <time>2021-03-20T14:49:50Z</time>
      </trkpt>
      <trkpt lat="58.25832" lon="-4.45972">
        <ele>156.72</ele>
        <time>2021-03-20T14:49:54Z</time>
      </trkpt>
      <trkpt lat="58.2581" lon="-4.46042">
        <ele>159.3</ele>
        <time>2021-03-20T14:49:59Z</time>
      </trkpt>
      <trkpt lat="58.25755" lon="-4.46121">
        <ele>158.12</ele>
        <time>2021-03-20T14:50:03Z</time>
      </trkpt>
      <trkpt lat="58.25714" lon="-4.46207">
        <ele>159.32</ele>
        <time>2021-03-20T14:50:07Z</time>
      </trkpt>
      <trkpt lat="58.25597" lon="-4.46521">
        <ele>167.6</ele>
        <time>2021-03-20T14:50:11Z</time>
      </trkpt>
      <trkpt lat="58.25588" lon="-4.46542">
        <ele>168.3</ele>
        <time>2021-03-20T14:50:15Z</time>
      </trkpt>
      <trkpt lat="58.25564" lon="-4.46581">
        <ele>168.41</ele>
        <time>2021-03-20T14:50:20Z</time>
      </trkpt>
      <trkpt lat="58.25515" lon="-4.46628">
        <ele>165.34</ele>
        <time>2021-03-20T14:50:24Z</time>
      </trkpt>
      <trkpt lat="58.25454" lon="-4.46704">
        <ele>163.55</ele>
        <time>2021-03-20T14:50:28Z</time>
      </trkpt>
      <trkpt lat="58.25417" lon="-4.4678">
        <ele>164.27</ele>
        <time>2021-03-20T14:50:32Z</time>
      </trkpt>
      <trkpt lat="58.25385" lon="-4.46824">
        <ele>164.44</ele>
        <time>2021-03-20T14:50:36Z</time>
      </trkpt>
      <trkpt lat="58.25354" lon="-4.46856">
        <ele>163.99</ele>
        <time>2021-03-20T14:50:41Z</time>
      </trkpt>
      <trkpt lat="58.2527" lon="-4.46917">
        <ele>163.19</ele>
        <time>2021-03-20T14:50:45Z</time>
      </trkpt>
      <trkpt lat="58.2523" lon="-4.46963">
        <ele>163.77</ele>
        <time>2021-03-20T14:50:49Z</time>
      </trkpt>
      <trkpt lat="58.25064" lon="-4.47134">
        <ele>162.24</ele>
        <time>2021-03-20T14:50:53Z</time>
      </trkpt>
      <trkpt lat="58.24983" lon="-4.47229">
        <ele>160.56</ele>
        <time>2021-03-20T14:50:57Z</time>
      </trkpt>
      <trkpt lat="58.24874" lon="-4.47314">
        <ele>161.04</ele>
        <time>2021-03-20T14:51:02Z</time>
      </trkpt>
      <trkpt lat="58.24811" lon="-4.47349">
        <ele>162.4</ele>
        <time>2021-03-20T14:51:06Z</time>
      </trkpt>
      <trkpt lat="58.24642" lon="-4.47467">
        <ele>163.65</ele>
        <time>2021-03-20T14:51:10Z</time>
      </trkpt>
      <trkpt lat="58.24485" lon="-4.47568">
        <ele>168.28</ele>
        <time>2021-03-20T14:51:14Z</time>
      </trkpt>
      <trkpt lat="58.24441" lon="-4.47606">
        <ele>168.38</ele>
        <time>2021-03-20T14:51:18Z</time>
      </trkpt>
      <trkpt lat="58.24401" lon="-4.47665">
        <ele>170.1</ele>
        <time>2021-03-20T14:51:23Z</time>
      </trkpt>
      <trkpt lat="58.24365" lon="-4.47785">
        <ele>172.88</ele>
        <time>2021-03-20T14:51:27Z</time>
      </trkpt>
      <trkpt lat="58.24303" lon="-4.47906">
        <ele>178.43</ele>
        <time>2021-03-20T14:51:31Z</time>
      </trkpt>
      <trkpt lat="58.24179" lon="-4.47958">
        <ele>178.35</ele>
        <time>2021-03-20T14:51:35Z</time>
      </trkpt>
      <trkpt lat="58.24127" lon="-4.4796">
        <ele>177.26</ele>
        <time>2021-03-20T14:51:39Z</time>
      </trkpt>
      <trkpt lat="58.24064" lon="-4.47949">
        <ele>174.85</ele>
        <time>2021-03-20T14:51:44Z</time>
      </trkpt>
      <trkpt lat="58.23993" lon="-4.47924">
        <ele>172.75</ele>
        <time>2021-03-20T14:51:48Z</time>
      </trkpt>
      <trkpt lat="58.23945" lon="-4.4792">
        <ele>173.34</ele>
        <time>2021-03-20T14:51:52Z</time>
      </trkpt>
      <trkpt lat="58.23849" lon="-4.47965">
        <ele>175.74</ele>
        <time>2021-03-20T14:51:56Z</time>
      </trkpt>
      <trkpt lat="58.2376" lon="-4.48012">
        <ele>178.53</ele>
        <time>2021-03-20T14:52:00Z</time>
      </trkpt>
      <trkpt lat="58.23719" lon="-4.48016">
        <ele>179.35</ele>
        <time>2021-03-20T14:52:05Z</time>
      </trkpt>
      <trkpt lat="58.23674" lon="-4.47994">
        <ele>177.73</ele>
        <time>2021-03-20T14:52:09Z</time>
      </trkpt>
      <trkpt lat="58.23663" lon="-4.47993">
        <ele>177.6</ele>
        <time>2021-03-20T14:52:13Z</time>
      </trkpt>
      <trkpt lat="58.23647" lon="-4.47996">
        <ele>177.14</ele>
        <time>2021-03-20T14:52:17Z</time>
      </trkpt>
      <trkpt lat="58.23633" lon="-4.48005">
        <ele>176.75</ele>
        <time>2021-03-20T14:52:21Z</time>
      </trkpt>
      <trkpt lat="58.23604" lon="-4.48037">
        <ele>175.84</ele>
        <time>2021-03-20T14:52:26Z</time>
      </trkpt>
      <trkpt lat="58.2346" lon="-4.48095">
        <ele>177</ele>
        <time>2021-03-20T14:52:30Z</time>
      </trkpt>
      <trkpt lat="58.23401" lon="-4.48139">
        <ele>176.87</ele>
        <time>2021-03-20T14:52:34Z</time>
      </trkpt>
      <trkpt lat="58.23351" lon="-4.4817">
        <ele>176.91</ele>
        <time>2021-03-20T14:52:38Z</time>
      </trkpt>
      <trkpt lat="58.23294" lon="-4.48211">
        <ele>177.34</ele>
        <time>2021-03-20T14:52:42Z</time>
      </trkpt>
      <trkpt lat="58.23223" lon="-4.48274">
        <ele>176.87</ele>
        <time>2021-03-20T14:52:47Z</time>
      </trkpt>
      <trkpt lat="58.23185" lon="-4.48318">
        <ele>177.12</ele>
        <time>2021-03-20T14:52:51Z</time>
      </trkpt>
      <trkpt lat="58.23157" lon="-4.4837">
        <ele>177.33</ele>
        <time>2021-03-20T14:52:55Z</time>
      </trkpt>
      <trkpt lat="58.23134" lon="-4.48431">
        <ele>178</ele>
        <time>2021-03-20T14:52:59Z</time>
      </trkpt>
      <trkpt lat="58.23044" lon="-4.48612">
        <ele>177.9</ele>
        <time>2021-03-20T14:53:03Z</time>
      </trkpt>
      <trkpt lat="58.22963" lon="-4.48756">
        <ele>178.56</ele>
        <time>2021-03-20T14:53:08Z</time>
      </trkpt>
      <trkpt lat="58.22882" lon="-4.48868">
        <ele>179.72</ele>
        <time>2021-03-20T14:53:12Z</time>
      </trkpt>
      <trkpt lat="58.22774" lon="-4.48981">
        <ele>179.03</ele>
        <time>2021-03-20T14:53:16Z</time>
      </trkpt>
      <trkpt lat="58.22664" lon="-4.49104">
        <ele>181.73</ele>
        <time>2021-03-20T14:53:20Z</time>
      </trkpt>
      <trkpt lat="58.22625" lon="-4.49154">
        <ele>183.02</ele>
        <time>2021-03-20T14:53:24Z</time>
      </trkpt>
      <trkpt lat="58.22586" lon="-4.49212">
        <ele>182.77</ele>
        <time>2021-03-20T14:53:29Z</time>
      </trkpt>
      <trkpt lat="58.2256" lon="-4.49243">
        <ele>183.69</ele>
        <time>2021-03-20T14:53:33Z</time>
      </trkpt>
      <trkpt lat="58.22515" lon="-4.49276">
        <ele>183.45</ele>
        <time>2021-03-20T14:53:37Z</time>
      </trkpt>
      <trkpt lat="58.22465" lon="-4.49289">
        <ele>183.53</ele>
        <time>2021-03-20T14:53:41Z</time>
      </trkpt>
      <trkpt lat="58.22423" lon="-4.49277">
        <ele>181.97</ele>
        <time>2021-03-20T14:53:45Z</time>
      </trkpt>
      <trkpt lat="58.22384" lon="-4.49282">
        <ele>182.14</ele>
        <time>2021-03-20T14:53:49Z</time>
      </trkpt>
      <trkpt lat="58.22339" lon="-4.493">
        <ele>182.61</ele>
        <time>2021-03-20T14:53:54Z</time>
      </trkpt>
      <trkpt lat="58.22285" lon="-4.49326">
        <ele>185.48</ele>
        <time>2021-03-20T14:53:58Z</time>
      </trkpt>
      <trkpt lat="58.22069" lon="-4.4951">
        <ele>185.36</ele>
        <time>2021-03-20T14:54:02Z</time>
      </trkpt>
      <trkpt lat="58.21992" lon="-4.49579">
        <ele>185.83</ele>
        <time>2021-03-20T14:54:06Z</time>
      </trkpt>
      <trkpt lat="58.21948" lon="-4.49607">
        <ele>185.86</ele>
        <time>2021-03-20T14:54:10Z</time>
      </trkpt>
      <trkpt lat="58.21909" lon="-4.49612">
        <ele>186.31</ele>
        <time>2021-03-20T14:54:15Z</time>
      </trkpt>
      <trkpt lat="58.21874" lon="-4.49597">
        <ele>186.51</ele>
        <time>2021-03-20T14:54:19Z</time>
      </trkpt>
      <trkpt lat="58.21845" lon="-4.49593">
        <ele>186.35</ele>
        <time>2021-03-20T14:54:23Z</time>
      </trkpt>
      <trkpt lat="58.21821" lon="-4.49601">
        <ele>187.1</ele>
        <time>2021-03-20T14:54:27Z</time>
      </trkpt>
      <trkpt lat="58.21703" lon="-4.49662">
        <ele>189.84</ele>
        <time>2021-03-20T14:54:31Z</time>
      </trkpt>
      <trkpt lat="58.21645" lon="-4.49677">
        <ele>190.48</ele>
        <time>2021-03-20T14:54:36Z</time>
      </trkpt>
      <trkpt lat="58.21596" lon="-4.49673">
        <ele>190.35</ele>
        <time>2021-03-20T14:54:40Z</time>
      </trkpt>
      <trkpt lat="58.21517" lon="-4.49656">
        <ele>190.99</ele>
        <time>2021-03-20T14:54:44Z</time>
      </trkpt>
      <trkpt lat="58.21495" lon="-4.49654">
        <ele>191.56</ele>
        <time>2021-03-20T14:54:48Z</time>
      </trkpt>
      <trkpt lat="58.21472" lon="-4.49669">
        <ele>192.14</ele>
        <time>2021-03-20T14:54:52Z</time>
      </trkpt>
      <trkpt lat="58.21397" lon="-4.49733">
        <ele>191.52</ele>
        <time>2021-03-20T14:54:57Z</time>
      </trkpt>
      <trkpt lat="58.21373" lon="-4.49737">
        <ele>191.85</ele>
        <time>2021-03-20T14:55:01Z</time>
      </trkpt>
      <trkpt lat="58.21342" lon="-4.49738">
        <ele>192.85</ele>
        <time>2021-03-20T14:55:05Z</time>
      </trkpt>
      <trkpt lat="58.21192" lon="-4.49723">
        <ele>194.04</ele>
        <time>2021-03-20T14:55:09Z</time>
      </trkpt>
      <trkpt lat="58.21105" lon="-4.49752">
        <ele>195.64</ele>
        <time>2021-03-20T14:55:13Z</time>
      </trkpt>
      <trkpt lat="58.21035" lon="-4.49785">
        <ele>194.25</ele>
        <time>2021-03-20T14:55:18Z</time>
      </trkpt>
      <trkpt lat="58.20947" lon="-4.49838">
        <ele>195.16</ele>
        <time>2021-03-20T14:55:22Z</time>
      </trkpt>
      <trkpt lat="58.20873" lon="-4.49893">
        <ele>197.48</ele>
        <time>2021-03-20T14:55:26Z</time>
      </trkpt>
      <trkpt lat="58.20785" lon="-4.49943">
        <ele>202.23</ele>
        <time>2021-03-20T14:55:30Z</time>
      </trkpt>
      <trkpt lat="58.20685" lon="-4.50012">
        <ele>209.79</ele>
        <time>2021-03-20T14:55:34Z</time>
      </trkpt>
      <trkpt lat="58.20579" lon="-4.50154">
        <ele>216.77</ele>
        <time>2021-03-20T14:55:39Z</time>
      </trkpt>
      <trkpt lat="58.20486" lon="-4.50327">
        <ele>221.55</ele>
        <time>2021-03-20T14:55:43Z</time>
      </trkpt>
      <trkpt lat="58.204" lon="-4.50507">
        <ele>228.73</ele>
        <time>2021-03-20T14:55:47Z</time>
      </trkpt>
      <trkpt lat="58.20345" lon="-4.50643">
        <ele>231.76</ele>
        <time>2021-03-20T14:55:51Z</time>
      </trkpt>
      <trkpt lat="58.20311" lon="-4.50745">
        <ele>235.53</ele>
        <time>2021-03-20T14:55:55Z</time>
      </trkpt>
      <trkpt lat="58.20282" lon="-4.50886">
        <ele>241.16</ele>
        <time>2021-03-20T14:56:00Z</time>
      </trkpt>
      <trkpt lat="58.20255" lon="-4.51053">
        <ele>243.27</ele>
        <time>2021-03-20T14:56:04Z</time>
      </trkpt>
      <trkpt lat="58.20231" lon="-4.51139">
        <ele>245.04</ele>
        <time>2021-03-20T14:56:08Z</time>
      </trkpt>
      <trkpt lat="58.20196" lon="-4.51228">
        <ele>249.2</ele>
        <time>2021-03-20T14:56:12Z</time>
      </trkpt>
      <trkpt lat="58.20168" lon="-4.51284">
        <ele>252.21</ele>
        <time>2021-03-20T14:56:16Z</time>
      </trkpt>
      <trkpt lat="58.20137" lon="-4.51357">
        <ele>252.66</ele>
        <time>2021-03-20T14:56:21Z</time>
      </trkpt>
      <trkpt lat="58.2009" lon="-4.51444">
        <ele>255.85</ele>
        <time>2021-03-20T14:56:25Z</time>
      </trkpt>
      <trkpt lat="58.20056" lon="-4.51494">
        <ele>258.33</ele>
        <time>2021-03-20T14:56:29Z</time>
      </trkpt>
      <trkpt lat="58.19993" lon="-4.51577">
        <ele>260.74</ele>
        <time>2021-03-20T14:56:33Z</time>
      </trkpt>
      <trkpt lat="58.19885" lon="-4.51687">
        <ele>263.17</ele>
        <time>2021-03-20T14:56:37Z</time>
      </trkpt>
      <trkpt lat="58.19839" lon="-4.51723">
        <ele>263.73</ele>
        <time>2021-03-20T14:56:42Z</time>
      </trkpt>
      <trkpt lat="58.19781" lon="-4.51745">
        <ele>264.26</ele>
        <time>2021-03-20T14:56:46Z</time>
      </trkpt>
      <trkpt lat="58.19712" lon="-4.51746">
        <ele>263.92</ele>
        <time>2021-03-20T14:56:50Z</time>
      </trkpt>
      <trkpt lat="58.19668" lon="-4.51729">
        <ele>263.57</ele>
        <time>2021-03-20T14:56:54Z</time>
      </trkpt>
      <trkpt lat="58.19539" lon="-4.51621">
        <ele>261.42</ele>
        <time>2021-03-20T14:56:58Z</time>
      </trkpt>
      <trkpt lat="58.19502" lon="-4.51573">
        <ele>260.08</ele>
        <time>2021-03-20T14:57:03Z</time>
      </trkpt>
      <trkpt lat="58.19447" lon="-4.51518">
        <ele>257.51</ele>
        <time>2021-03-20T14:57:07Z</time>
      </trkpt>
      <trkpt lat="58.19418" lon="-4.51495">
        <ele>256.08</ele>
        <time>2021-03-20T14:57:11Z</time>
      </trkpt>
      <trkpt lat="58.194" lon="-4.51484">
        <ele>255.38</ele>
        <time>2021-03-20T14:57:15Z</time>
      </trkpt>
      <trkpt lat="58.19312" lon="-4.51457">
        <ele>252.77</ele>
        <time>2021-03-20T14:57:19Z</time>
      </trkpt>
      <trkpt lat="58.19186" lon="-4.51445">
        <ele>249.66</ele>
        <time>2021-03-20T14:57:24Z</time>
      </trkpt>
      <trkpt lat="58.18976" lon="-4.51435">
        <ele>244.41</ele>
        <time>2021-03-20T14:57:28Z</time>
      </trkpt>
      <trkpt lat="58.18896" lon="-4.51388">
        <ele>241.27</ele>
        <time>2021-03-20T14:57:32Z</time>
      </trkpt>
      <trkpt lat="58.18801" lon="-4.51324">
        <ele>236.28</ele>
        <time>2021-03-20T14:57:36Z</time>
      </trkpt>
      <trkpt lat="58.18739" lon="-4.51278">
        <ele>233.19</ele>
        <time>2021-03-20T14:57:40Z</time>
      </trkpt>
      <trkpt lat="58.18665" lon="-4.51232">
        <ele>229.6</ele>
        <time>2021-03-20T14:57:45Z</time>
      </trkpt>
      <trkpt lat="58.18608" lon="-4.51192">
        <ele>226.96</ele>
        <time>2021-03-20T14:57:49Z</time>
      </trkpt>
      <trkpt lat="58.18571" lon="-4.5117">
        <ele>225.09</ele>
        <time>2021-03-20T14:57:53Z</time>
      </trkpt>
      <trkpt lat="58.18475" lon="-4.51138">
        <ele>220.12</ele>
        <time>2021-03-20T14:57:57Z</time>
      </trkpt>
      <trkpt lat="58.18442" lon="-4.51141">
        <ele>221.2</ele>
        <time>2021-03-20T14:58:01Z</time>
      </trkpt>
      <trkpt lat="58.18382" lon="-4.51184">
        <ele>224.86</ele>
        <time>2021-03-20T14:58:06Z</time>
      </trkpt>
      <trkpt lat="58.18324" lon="-4.51231">
        <ele>227.02</ele>
        <time>2021-03-20T14:58:10Z</time>
      </trkpt>
      <trkpt lat="58.18121" lon="-4.51451">
        <ele>238.06</ele>
        <time>2021-03-20T14:58:14Z</time>
      </trkpt>
      <trkpt lat="58.18035" lon="-4.51519">
        <ele>238.33</ele>
        <time>2021-03-20T14:58:18Z</time>
      </trkpt>
      <trkpt lat="58.17973" lon="-4.5155">
        <ele>238.2</ele>
        <time>2021-03-20T14:58:22Z</time>
      </trkpt>
      <trkpt lat="58.17924" lon="-4.51556">
        <ele>235.28</ele>
        <time>2021-03-20T14:58:26Z</time>
      </trkpt>
      <trkpt lat="58.17876" lon="-4.51538">
        <ele>234.62</ele>
        <time>2021-03-20T14:58:31Z</time>
      </trkpt>
      <trkpt lat="58.17812" lon="-4.5151">
        <ele>234.89</ele>
        <time>2021-03-20T14:58:35Z</time>
      </trkpt>
      <trkpt lat="58.17732" lon="-4.51453">
        <ele>233.06</ele>
        <time>2021-03-20T14:58:39Z</time>
      </trkpt>
      <trkpt lat="58.1755" lon="-4.513">
        <ele>229.05</ele>
        <time>2021-03-20T14:58:43Z</time>
      </trkpt>
      <trkpt lat="58.17483" lon="-4.51224">
        <ele>229.75</ele>
        <time>2021-03-20T14:58:47Z</time>
      </trkpt>
      <trkpt lat="58.17401" lon="-4.51119">
        <ele>227.18</ele>
        <time>2021-03-20T14:58:52Z</time>
      </trkpt>
      <trkpt lat="58.17294" lon="-4.50995">
        <ele>224.79</ele>
        <time>2021-03-20T14:58:56Z</time>
      </trkpt>
      <trkpt lat="58.17173" lon="-4.50842">
        <ele>222.85</ele>
        <time>2021-03-20T14:59:00Z</time>
      </trkpt>
      <trkpt lat="58.16887" lon="-4.50577">
        <ele>213.94</ele>
        <time>2021-03-20T14:59:04Z</time>
      </trkpt>
      <trkpt lat="58.16807" lon="-4.50447">
        <ele>210.13</ele>
        <time>2021-03-20T14:59:08Z</time>
      </trkpt>
      <trkpt lat="58.16741" lon="-4.5029">
        <ele>206.91</ele>
        <time>2021-03-20T14:59:13Z</time>
      </trkpt>
      <trkpt lat="58.16663" lon="-4.50117">
        <ele>203.29</ele>
        <time>2021-03-20T14:59:17Z</time>
      </trkpt>
      <trkpt lat="58.16534" lon="-4.49918">
        <ele>196.22</ele>
        <time>2021-03-20T14:59:21Z</time>
      </trkpt>
      <trkpt lat="58.16434" lon="-4.49771">
        <ele>193.29</ele>
        <time>2021-03-20T14:59:25Z</time>
      </trkpt>
      <trkpt lat="58.16317" lon="-4.49606">
        <ele>194.4</ele>
        <time>2021-03-20T14:59:29Z</time>
      </trkpt>
      <trkpt lat="58.16063" lon="-4.49274">
        <ele>198.14</ele>
        <time>2021-03-20T14:59:34Z</time>
      </trkpt>
      <trkpt lat="58.15911" lon="-4.49139">
        <ele>198.23</ele>
        <time>2021-03-20T14:59:38Z</time>
      </trkpt>
      <trkpt lat="58.15613" lon="-4.48891">
        <ele>203.96</ele>
        <time>2021-03-20T14:59:42Z</time>
      </trkpt>
      <trkpt lat="58.15434" lon="-4.48725">
        <ele>207.44</ele>
        <time>2021-03-20T14:59:46Z</time>
      </trkpt>
      <trkpt lat="58.15319" lon="-4.48603">
        <ele>205.66</ele>
        <time>2021-03-20T14:59:50Z</time>
      </trkpt>
      <trkpt lat="58.15255" lon="-4.48543">
        <ele>205.36</ele>
        <time>2021-03-20T14:59:55Z</time>
      </trkpt>
      <trkpt lat="58.15186" lon="-4.48473">
        <ele>206.35</ele>
        <time>2021-03-20T14:59:59Z</time>
      </trkpt>
      <trkpt lat="58.15147" lon="-4.48426">
        <ele>205.78</ele>
        <time>2021-03-20T15:00:03Z</time>
      </trkpt>
      <trkpt lat="58.14992" lon="-4.48077">
        <ele>205.04</ele>
        <time>2021-03-20T15:00:07Z</time>
      </trkpt>
      <trkpt lat="58.14953" lon="-4.48015">
        <ele>204.55</ele>
        <time>2021-03-20T15:00:11Z</time>
      </trkpt>
      <trkpt lat="58.14888" lon="-4.47927">
        <ele>201.98</ele>
        <time>2021-03-20T15:00:16Z</time>
      </trkpt>
      <trkpt lat="58.14853" lon="-4.47856">
        <ele>203</ele>
        <time>2021-03-20T15:00:20Z</time>
      </trkpt>
      <trkpt lat="58.14769" lon="-4.47598">
        <ele>207.34</ele>
        <time>2021-03-20T15:00:24Z</time>
      </trkpt>
      <trkpt lat="58.14663" lon="-4.47253">
        <ele>203.1</ele>
        <time>2021-03-20T15:00:28Z</time>
      </trkpt>
      <trkpt lat="58.14624" lon="-4.47118">
        <ele>202.84</ele>
        <time>2021-03-20T15:00:32Z</time>
      </trkpt>
      <trkpt lat="58.14611" lon="-4.47075">
        <ele>202.43</ele>
        <time>2021-03-20T15:00:37Z</time>
      </trkpt>
      <trkpt lat="58.14588" lon="-4.47042">
        <ele>201</ele>
        <time>2021-03-20T15:00:41Z</time>
      </trkpt>
      <trkpt lat="58.14563" lon="-4.47022">
        <ele>199.67</ele>
        <time>2021-03-20T15:00:45Z</time>
      </trkpt>
      <trkpt lat="58.14538" lon="-4.47015">
        <ele>198.86</ele>
        <time>2021-03-20T15:00:49Z</time>
      </trkpt>
      <trkpt lat="58.14495" lon="-4.47012">
        <ele>198.1</ele>
        <time>2021-03-20T15:00:53Z</time>
      </trkpt>
      <trkpt lat="58.14406" lon="-4.47019">
        <ele>197.65</ele>
        <time>2021-03-20T15:00:58Z</time>
      </trkpt>
      <trkpt lat="58.14379" lon="-4.46995">
        <ele>198.45</ele>
        <time>2021-03-20T15:01:02Z</time>
      </trkpt>
      <trkpt lat="58.14324" lon="-4.46909">
        <ele>200.19</ele>
        <time>2021-03-20T15:01:06Z</time>
      </trkpt>
      <trkpt lat="58.14302" lon="-4.46879">
        <ele>201.11</ele>
        <time>2021-03-20T15:01:10Z</time>
      </trkpt>
      <trkpt lat="58.14264" lon="-4.46855">
        <ele>199.93</ele>
        <time>2021-03-20T15:01:14Z</time>
      </trkpt>
      <trkpt lat="58.14191" lon="-4.46828">
        <ele>199.97</ele>
        <time>2021-03-20T15:01:19Z</time>
      </trkpt>
      <trkpt lat="58.14132" lon="-4.46798">
        <ele>199.14</ele>
        <time>2021-03-20T15:01:23Z</time>
      </trkpt>
      <trkpt lat="58.14027" lon="-4.46713">
        <ele>199.59</ele>
        <time>2021-03-20T15:01:27Z</time>
      </trkpt>
      <trkpt lat="58.13984" lon="-4.46671">
        <ele>199.82</ele>
        <time>2021-03-20T15:01:31Z</time>
      </trkpt>
      <trkpt lat="58.13949" lon="-4.46613">
        <ele>200.62</ele>
        <time>2021-03-20T15:01:35Z</time>
      </trkpt>
      <trkpt lat="58.139" lon="-4.46522">
        <ele>200.74</ele>
        <time>2021-03-20T15:01:40Z</time>
      </trkpt>
      <trkpt lat="58.1386" lon="-4.46459">
        <ele>197.85</ele>
        <time>2021-03-20T15:01:44Z</time>
      </trkpt>
      <trkpt lat="58.13691" lon="-4.46299">
        <ele>199.15</ele>
        <time>2021-03-20T15:01:48Z</time>
      </trkpt>
      <trkpt lat="58.13575" lon="-4.46285">
        <ele>200.54</ele>
        <time>2021-03-20T15:01:52Z</time>
      </trkpt>
      <trkpt lat="58.1349" lon="-4.46266">
        <ele>201.3</ele>
        <time>2021-03-20T15:01:56Z</time>
      </trkpt>
      <trkpt lat="58.13364" lon="-4.46231">
        <ele>199.36</ele>
        <time>2021-03-20T15:02:01Z</time>
      </trkpt>
      <trkpt lat="58.13319" lon="-4.4621">
        <ele>200.6</ele>
        <time>2021-03-20T15:02:05Z</time>
      </trkpt>
      <trkpt lat="58.13263" lon="-4.46141">
        <ele>200.75</ele>
        <time>2021-03-20T15:02:09Z</time>
      </trkpt>
      <trkpt lat="58.13185" lon="-4.46053">
        <ele>198.15</ele>
        <time>2021-03-20T15:02:13Z</time>
      </trkpt>
      <trkpt lat="58.13082" lon="-4.45961">
        <ele>196.93</ele>
        <time>2021-03-20T15:02:17Z</time>
      </trkpt>
      <trkpt lat="58.12848" lon="-4.45726">
        <ele>191.22</ele>
        <time>2021-03-20T15:02:22Z</time>
      </trkpt>
      <trkpt lat="58.12673" lon="-4.45576">
        <ele>184.74</ele>
        <time>2021-03-20T15:02:26Z</time>
      </trkpt>
      <trkpt lat="58.12612" lon="-4.45511">
        <ele>181.44</ele>
        <time>2021-03-20T15:02:30Z</time>
      </trkpt>
      <trkpt lat="58.12541" lon="-4.45416">
        <ele>178.97</ele>
        <time>2021-03-20T15:02:34Z</time>
      </trkpt>
      <trkpt lat="58.12391" lon="-4.45191">
        <ele>176.8</ele>
        <time>2021-03-20T15:02:38Z</time>
      </trkpt>
      <trkpt lat="58.12333" lon="-4.4509">
        <ele>174.27</ele>
        <time>2021-03-20T15:02:43Z</time>
      </trkpt>
      <trkpt lat="58.12145" lon="-4.44784">
        <ele>169.23</ele>
        <time>2021-03-20T15:02:47Z</time>
      </trkpt>
      <trkpt lat="58.12022" lon="-4.44633">
        <ele>167.16</ele>
        <time>2021-03-20T15:02:51Z</time>
      </trkpt>
      <trkpt lat="58.11893" lon="-4.44486">
        <ele>163.24</ele>
        <time>2021-03-20T15:02:55Z</time>
      </trkpt>
      <trkpt lat="58.11807" lon="-4.44384">
        <ele>162.06</ele>
        <time>2021-03-20T15:02:59Z</time>
      </trkpt>
      <trkpt lat="58.11716" lon="-4.44283">
        <ele>158.81</ele>
        <time>2021-03-20T15:03:03Z</time>
      </trkpt>
      <trkpt lat="58.11646" lon="-4.44202">
        <ele>157.25</ele>
        <time>2021-03-20T15:03:08Z</time>
      </trkpt>
      <trkpt lat="58.11573" lon="-4.44112">
        <ele>154.69</ele>
        <time>2021-03-20T15:03:12Z</time>
      </trkpt>
      <trkpt lat="58.11534" lon="-4.44068">
        <ele>152.67</ele>
        <time>2021-03-20T15:03:16Z</time>
      </trkpt>
      <trkpt lat="58.11488" lon="-4.44039">
        <ele>152</ele>
        <time>2021-03-20T15:03:20Z</time>
      </trkpt>
      <trkpt lat="58.11442" lon="-4.43991">
        <ele>153</ele>
        <time>2021-03-20T15:03:24Z</time>
      </trkpt>
      <trkpt lat="58.11343" lon="-4.43867">
        <ele>152.34</ele>
        <time>2021-03-20T15:03:29Z</time>
      </trkpt>
      <trkpt lat="58.10743" lon="-4.43343">
        <ele>146.76</ele>
        <time>2021-03-20T15:03:33Z</time>
      </trkpt>
      <trkpt lat="58.104" lon="-4.42912">
        <ele>141.57</ele>
        <time>2021-03-20T15:03:37Z</time>
      </trkpt>
      <trkpt lat="58.10246" lon="-4.42722">
        <ele>138.85</ele>
        <time>2021-03-20T15:03:41Z</time>
      </trkpt>
      <trkpt lat="58.10068" lon="-4.42493">
        <ele>142.02</ele>
        <time>2021-03-20T15:03:45Z</time>
      </trkpt>
      <trkpt lat="58.09939" lon="-4.42339">
        <ele>138.62</ele>
        <time>2021-03-20T15:03:50Z</time>
      </trkpt>
      <trkpt lat="58.09898" lon="-4.42301">
        <ele>135.01</ele>
        <time>2021-03-20T15:03:54Z</time>
      </trkpt>
      <trkpt lat="58.09848" lon="-4.42268">
        <ele>134.18</ele>
        <time>2021-03-20T15:03:58Z</time>
      </trkpt>
      <trkpt lat="58.09641" lon="-4.42185">
        <ele>131.32</ele>
        <time>2021-03-20T15:04:02Z</time>
      </trkpt>
      <trkpt lat="58.09416" lon="-4.42099">
        <ele>131</ele>
        <time>2021-03-20T15:04:06Z</time>
      </trkpt>
      <trkpt lat="58.09333" lon="-4.42063">
        <ele>130</ele>
        <time>2021-03-20T15:04:11Z</time>
      </trkpt>
      <trkpt lat="58.0927" lon="-4.42024">
        <ele>130.12</ele>
        <time>2021-03-20T15:04:15Z</time>
      </trkpt>
      <trkpt lat="58.09182" lon="-4.41963">
        <ele>128.69</ele>
        <time>2021-03-20T15:04:19Z</time>
      </trkpt>
      <trkpt lat="58.09162" lon="-4.41934">
        <ele>129</ele>
        <time>2021-03-20T15:04:23Z</time>
      </trkpt>
      <trkpt lat="58.09143" lon="-4.41893">
        <ele>129.85</ele>
        <time>2021-03-20T15:04:27Z</time>
      </trkpt>
      <trkpt lat="58.09115" lon="-4.41856">
        <ele>131.33</ele>
        <time>2021-03-20T15:04:32Z</time>
      </trkpt>
      <trkpt lat="58.09084" lon="-4.41863">
        <ele>131.93</ele>
        <time>2021-03-20T15:04:36Z</time>
      </trkpt>
      <trkpt lat="58.09046" lon="-4.41881">
        <ele>131.3</ele>
        <time>2021-03-20T15:04:40Z</time>
      </trkpt>
      <trkpt lat="58.09008" lon="-4.41923">
        <ele>129.78</ele>
        <time>2021-03-20T15:04:44Z</time>
      </trkpt>
      <trkpt lat="58.08977" lon="-4.4194">
        <ele>130.1</ele>
        <time>2021-03-20T15:04:48Z</time>
      </trkpt>
      <trkpt lat="58.08927" lon="-4.41951">
        <ele>129.75</ele>
        <time>2021-03-20T15:04:53Z</time>
      </trkpt>
      <trkpt lat="58.08879" lon="-4.41954">
        <ele>129.3</ele>
        <time>2021-03-20T15:04:57Z</time>
      </trkpt>
      <trkpt lat="58.08833" lon="-4.41943">
        <ele>129</ele>
        <time>2021-03-20T15:05:01Z</time>
      </trkpt>
      <trkpt lat="58.08712" lon="-4.41862">
        <ele>127.33</ele>
        <time>2021-03-20T15:05:05Z</time>
      </trkpt>
      <trkpt lat="58.08661" lon="-4.41853">
        <ele>129.34</ele>
        <time>2021-03-20T15:05:09Z</time>
      </trkpt>
      <trkpt lat="58.08629" lon="-4.41835">
        <ele>129.2</ele>
        <time>2021-03-20T15:05:14Z</time>
      </trkpt>
      <trkpt lat="58.08563" lon="-4.41743">
        <ele>126.79</ele>
        <time>2021-03-20T15:05:18Z</time>
      </trkpt>
      <trkpt lat="58.08478" lon="-4.41642">
        <ele>127</ele>
        <time>2021-03-20T15:05:22Z</time>
      </trkpt>
      <trkpt lat="58.08277" lon="-4.41519">
        <ele>126.98</ele>
        <time>2021-03-20T15:05:26Z</time>
      </trkpt>
      <trkpt lat="58.08229" lon="-4.41495">
        <ele>126.75</ele>
        <time>2021-03-20T15:05:30Z</time>
      </trkpt>
      <trkpt lat="58.08147" lon="-4.41439">
        <ele>125.29</ele>
        <time>2021-03-20T15:05:35Z</time>
      </trkpt>
      <trkpt lat="58.08114" lon="-4.41432">
        <ele>124.09</ele>
        <time>2021-03-20T15:05:39Z</time>
      </trkpt>
      <trkpt lat="58.0808" lon="-4.41454">
        <ele>122.71</ele>
        <time>2021-03-20T15:05:43Z</time>
      </trkpt>
      <trkpt lat="58.07973" lon="-4.41548">
        <ele>123.98</ele>
        <time>2021-03-20T15:05:47Z</time>
      </trkpt>
      <trkpt lat="58.07948" lon="-4.41552">
        <ele>124</ele>
        <time>2021-03-20T15:05:51Z</time>
      </trkpt>
      <trkpt lat="58.07905" lon="-4.41538">
        <ele>124</ele>
        <time>2021-03-20T15:05:56Z</time>
      </trkpt>
      <trkpt lat="58.07733" lon="-4.41429">
        <ele>122.39</ele>
        <time>2021-03-20T15:06:00Z</time>
      </trkpt>
      <trkpt lat="58.07662" lon="-4.41331">
        <ele>122.72</ele>
        <time>2021-03-20T15:06:04Z</time>
      </trkpt>
      <trkpt lat="58.07606" lon="-4.41277">
        <ele>120.87</ele>
        <time>2021-03-20T15:06:08Z</time>
      </trkpt>
      <trkpt lat="58.07561" lon="-4.41246">
        <ele>121.14</ele>
        <time>2021-03-20T15:06:12Z</time>
      </trkpt>
      <trkpt lat="58.0748" lon="-4.41211">
        <ele>123.81</ele>
        <time>2021-03-20T15:06:17Z</time>
      </trkpt>
      <trkpt lat="58.07425" lon="-4.41212">
        <ele>122.07</ele>
        <time>2021-03-20T15:06:21Z</time>
      </trkpt>
      <trkpt lat="58.07373" lon="-4.41235">
        <ele>122.09</ele>
        <time>2021-03-20T15:06:25Z</time>
      </trkpt>
      <trkpt lat="58.07221" lon="-4.41357">
        <ele>120.36</ele>
        <time>2021-03-20T15:06:29Z</time>
      </trkpt>
      <trkpt lat="58.06989" lon="-4.41448">
        <ele>117.87</ele>
        <time>2021-03-20T15:06:33Z</time>
      </trkpt>
      <trkpt lat="58.06232" lon="-4.41645">
        <ele>108</ele>
        <time>2021-03-20T15:06:38Z</time>
      </trkpt>
      <trkpt lat="58.06053" lon="-4.41714">
        <ele>109.55</ele>
        <time>2021-03-20T15:06:42Z</time>
      </trkpt>
      <trkpt lat="58.05562" lon="-4.41917">
        <ele>100</ele>
        <time>2021-03-20T15:06:46Z</time>
      </trkpt>
      <trkpt lat="58.05459" lon="-4.41954">
        <ele>99.5</ele>
        <time>2021-03-20T15:06:50Z</time>
      </trkpt>
      <trkpt lat="58.04954" lon="-4.42112">
        <ele>97.99</ele>
        <time>2021-03-20T15:06:54Z</time>
      </trkpt>
      <trkpt lat="58.04733" lon="-4.42185">
        <ele>107.56</ele>
        <time>2021-03-20T15:06:59Z</time>
      </trkpt>
      <trkpt lat="58.04645" lon="-4.42216">
        <ele>111.58</ele>
        <time>2021-03-20T15:07:03Z</time>
      </trkpt>
      <trkpt lat="58.04548" lon="-4.42255">
        <ele>110.19</ele>
        <time>2021-03-20T15:07:07Z</time>
      </trkpt>
      <trkpt lat="58.04502" lon="-4.42279">
        <ele>110.11</ele>
        <time>2021-03-20T15:07:11Z</time>
      </trkpt>
      <trkpt lat="58.04376" lon="-4.42367">
        <ele>110.16</ele>
        <time>2021-03-20T15:07:15Z</time>
      </trkpt>
      <trkpt lat="58.04324" lon="-4.4239">
        <ele>107.22</ele>
        <time>2021-03-20T15:07:20Z</time>
      </trkpt>
      <trkpt lat="58.04258" lon="-4.42412">
        <ele>107.18</ele>
        <time>2021-03-20T15:07:24Z</time>
      </trkpt>
      <trkpt lat="58.04101" lon="-4.42455">
        <ele>106.6</ele>
        <time>2021-03-20T15:07:28Z</time>
      </trkpt>
      <trkpt lat="58.03907" lon="-4.42501">
        <ele>107.96</ele>
        <time>2021-03-20T15:07:32Z</time>
      </trkpt>
      <trkpt lat="58.03865" lon="-4.42507">
        <ele>106.44</ele>
        <time>2021-03-20T15:07:36Z</time>
      </trkpt>
      <trkpt lat="58.03837" lon="-4.42499">
        <ele>105.26</ele>
        <time>2021-03-20T15:07:40Z</time>
      </trkpt>
      <trkpt lat="58.03766" lon="-4.42469">
        <ele>103.39</ele>
        <time>2021-03-20T15:07:45Z</time>
      </trkpt>
      <trkpt lat="58.03671" lon="-4.42408">
        <ele>105.88</ele>
        <time>2021-03-20T15:07:49Z</time>
      </trkpt>
      <trkpt lat="58.03615" lon="-4.42356">
        <ele>105.11</ele>
        <time>2021-03-20T15:07:53Z</time>
      </trkpt>
      <trkpt lat="58.03563" lon="-4.42314">
        <ele>105</ele>
        <time>2021-03-20T15:07:57Z</time>
      </trkpt>
      <trkpt lat="58.03526" lon="-4.42276">
        <ele>104.93</ele>
        <time>2021-03-20T15:08:01Z</time>
      </trkpt>
      <trkpt lat="58.03462" lon="-4.42225">
        <ele>102.14</ele>
        <time>2021-03-20T15:08:06Z</time>
      </trkpt>
      <trkpt lat="58.0342" lon="-4.42186">
        <ele>99.93</ele>
        <time>2021-03-20T15:08:10Z</time>
      </trkpt>
      <trkpt lat="58.03385" lon="-4.42142">
        <ele>100.48</ele>
        <time>2021-03-20T15:08:14Z</time>
      </trkpt>
      <trkpt lat="58.03235" lon="-4.41926">
        <ele>99.75</ele>
        <time>2021-03-20T15:08:18Z</time>
      </trkpt>
      <trkpt lat="58.03216" lon="-4.41882">
        <ele>100.23</ele>
        <time>2021-03-20T15:08:22Z</time>
      </trkpt>
      <trkpt lat="58.03203" lon="-4.41826">
        <ele>101.28</ele>
        <time>2021-03-20T15:08:27Z</time>
      </trkpt>
      <trkpt lat="58.03176" lon="-4.41692">
        <ele>99.51</ele>
        <time>2021-03-20T15:08:31Z</time>
      </trkpt>
      <trkpt lat="58.0316" lon="-4.41652">
        <ele>98.58</ele>
        <time>2021-03-20T15:08:35Z</time>
      </trkpt>
      <trkpt lat="58.03105" lon="-4.41533">
        <ele>99.76</ele>
        <time>2021-03-20T15:08:39Z</time>
      </trkpt>
      <trkpt lat="58.03082" lon="-4.41461">
        <ele>100.23</ele>
        <time>2021-03-20T15:08:43Z</time>
      </trkpt>
      <trkpt lat="58.03058" lon="-4.41295">
        <ele>100.58</ele>
        <time>2021-03-20T15:08:48Z</time>
      </trkpt>
      <trkpt lat="58.03037" lon="-4.41212">
        <ele>100.45</ele>
        <time>2021-03-20T15:08:52Z</time>
      </trkpt>
      <trkpt lat="58.03015" lon="-4.41163">
        <ele>100.12</ele>
        <time>2021-03-20T15:08:56Z</time>
      </trkpt>
      <trkpt lat="58.029" lon="-4.4094">
        <ele>91.77</ele>
        <time>2021-03-20T15:09:00Z</time>
      </trkpt>
      <trkpt lat="58.02867" lon="-4.40854">
        <ele>89.89</ele>
        <time>2021-03-20T15:09:04Z</time>
      </trkpt>
      <trkpt lat="58.02856" lon="-4.40814">
        <ele>90.31</ele>
        <time>2021-03-20T15:09:09Z</time>
      </trkpt>
      <trkpt lat="58.02847" lon="-4.40774">
        <ele>91.13</ele>
        <time>2021-03-20T15:09:13Z</time>
      </trkpt>
      <trkpt lat="58.02814" lon="-4.4058">
        <ele>91.68</ele>
        <time>2021-03-20T15:09:17Z</time>
      </trkpt>
      <trkpt lat="58.02802" lon="-4.4052">
        <ele>90.79</ele>
        <time>2021-03-20T15:09:21Z</time>
      </trkpt>
      <trkpt lat="58.0279" lon="-4.4048">
        <ele>90.16</ele>
        <time>2021-03-20T15:09:25Z</time>
      </trkpt>
      <trkpt lat="58.02771" lon="-4.40432">
        <ele>89.94</ele>
        <time>2021-03-20T15:09:30Z</time>
      </trkpt>
      <trkpt lat="58.02705" lon="-4.40322">
        <ele>88.74</ele>
        <time>2021-03-20T15:09:34Z</time>
      </trkpt>
      <trkpt lat="58.02687" lon="-4.40278">
        <ele>88.75</ele>
        <time>2021-03-20T15:09:38Z</time>
      </trkpt>
      <trkpt lat="58.02671" lon="-4.40204">
        <ele>88.14</ele>
        <time>2021-03-20T15:09:42Z</time>
      </trkpt>
      <trkpt lat="58.0266" lon="-4.40167">
        <ele>87.49</ele>
        <time>2021-03-20T15:09:46Z</time>
      </trkpt>
      <trkpt lat="58.02653" lon="-4.40153">
        <ele>87.52</ele>
        <time>2021-03-20T15:09:51Z</time>
      </trkpt>
      <trkpt lat="58.02645" lon="-4.40143">
        <ele>87.28</ele>
        <time>2021-03-20T15:09:55Z</time>
      </trkpt>
      <trkpt lat="58.02636" lon="-4.40139">
        <ele>87.01</ele>
        <time>2021-03-20T15:09:59Z</time>
      </trkpt>
      <trkpt lat="58.02617" lon="-4.4014">
        <ele>86.96</ele>
        <time>2021-03-20T15:10:03Z</time>
      </trkpt>
      <trkpt lat="58.02513" lon="-4.40162">
        <ele>86.73</ele>
        <time>2021-03-20T15:10:07Z</time>
      </trkpt>
      <trkpt lat="58.02455" lon="-4.40184">
        <ele>85.72</ele>
        <time>2021-03-20T15:10:12Z</time>
      </trkpt>
      <trkpt lat="58.02427" lon="-4.40201">
        <ele>86.29</ele>
        <time>2021-03-20T15:10:16Z</time>
      </trkpt>
      <trkpt lat="58.02265" lon="-4.40343">
        <ele>86.45</ele>
        <time>2021-03-20T15:10:20Z</time>
      </trkpt>
      <trkpt lat="58.02219" lon="-4.40381">
        <ele>87.03</ele>
        <time>2021-03-20T15:10:24Z</time>
      </trkpt>
      <trkpt lat="58.02185" lon="-4.40403">
        <ele>86.49</ele>
        <time>2021-03-20T15:10:28Z</time>
      </trkpt>
      <trkpt lat="58.02156" lon="-4.40417">
        <ele>86.38</ele>
        <time>2021-03-20T15:10:33Z</time>
      </trkpt>
      <trkpt lat="58.02136" lon="-4.4042">
        <ele>86.76</ele>
        <time>2021-03-20T15:10:37Z</time>
      </trkpt>
      <trkpt lat="58.02047" lon="-4.40399">
        <ele>86.96</ele>
        <time>2021-03-20T15:10:41Z</time>
      </trkpt>
      <trkpt lat="58.02031" lon="-4.40485">
        <ele>85.89</ele>
        <time>2021-03-20T15:10:45Z</time>
      </trkpt>
      <trkpt lat="58.02026" lon="-4.40499">
        <ele>86</ele>
        <time>2021-03-20T15:10:49Z</time>
      </trkpt>
      <trkpt lat="58.0202" lon="-4.40507">
        <ele>86.27</ele>
        <time>2021-03-20T15:10:53Z</time>
      </trkpt>
      <trkpt lat="58.0201" lon="-4.40515">
        <ele>86.54</ele>
        <time>2021-03-20T15:10:57Z</time>
      </trkpt>
      <trkpt lat="58.01873" lon="-4.40486">
        <ele>88.22</ele>
        <time>2021-03-20T15:11:01Z</time>
      </trkpt>
      <trkpt lat="58.01849" lon="-4.40485">
        <ele>88</ele>
        <time>2021-03-20T15:11:04Z</time>
      </trkpt>
      <trkpt lat="58.01823" lon="-4.40496">
        <ele>87.62</ele>
        <time>2021-03-20T15:11:08Z</time>
      </trkpt>
      <trkpt lat="58.0181" lon="-4.40508">
        <ele>87.43</ele>
        <time>2021-03-20T15:11:12Z</time>
      </trkpt>
      <trkpt lat="58.01795" lon="-4.40525">
        <ele>88.28</ele>
        <time>2021-03-20T15:11:16Z</time>
      </trkpt>
      <trkpt lat="58.01779" lon="-4.40552">
        <ele>88.97</ele>
        <time>2021-03-20T15:11:20Z</time>
      </trkpt>
      <trkpt lat="58.01746" lon="-4.40618">
        <ele>92.11</ele>
        <time>2021-03-20T15:11:24Z</time>
      </trkpt>
      <trkpt lat="58.01731" lon="-4.40641">
        <ele>92</ele>
        <time>2021-03-20T15:11:28Z</time>
      </trkpt>
      <trkpt lat="58.01719" lon="-4.40651">
        <ele>92.24</ele>
        <time>2021-03-20T15:11:32Z</time>
      </trkpt>
      <trkpt lat="58.01703" lon="-4.40656">
        <ele>93.4</ele>
        <time>2021-03-20T15:11:36Z</time>
      </trkpt>
      <trkpt lat="58.01688" lon="-4.40655">
        <ele>94.23</ele>
        <time>2021-03-20T15:11:39Z</time>
      </trkpt>
      <trkpt lat="58.01674" lon="-4.40648">
        <ele>94.75</ele>
        <time>2021-03-20T15:11:43Z</time>
      </trkpt>
      <trkpt lat="58.01509" lon="-4.405">
        <ele>88</ele>
        <time>2021-03-20T15:11:47Z</time>
      </trkpt>
      <trkpt lat="58.01425" lon="-4.40435">
        <ele>87.71</ele>
        <time>2021-03-20T15:11:51Z</time>
      </trkpt>
      <trkpt lat="58.01213" lon="-4.40325">
        <ele>91.01</ele>
        <time>2021-03-20T15:11:55Z</time>
      </trkpt>
      <trkpt lat="58.01195" lon="-4.40326">
        <ele>91.74</ele>
        <time>2021-03-20T15:11:59Z</time>
      </trkpt>
      <trkpt lat="58.01168" lon="-4.4034">
        <ele>92.23</ele>
        <time>2021-03-20T15:12:03Z</time>
      </trkpt>
      <trkpt lat="58.01162" lon="-4.40317">
        <ele>91.39</ele>
        <time>2021-03-20T15:12:06Z</time>
      </trkpt>
      <trkpt lat="58.01148" lon="-4.40293">
        <ele>90.26</ele>
        <time>2021-03-20T15:12:09Z</time>
      </trkpt>
      <trkpt lat="58.01138" lon="-4.40289">
        <ele>89.83</ele>
        <time>2021-03-20T15:12:12Z</time>
      </trkpt>
      <trkpt lat="58.0111" lon="-4.40286">
        <ele>90.31</ele>
        <time>2021-03-20T15:12:15Z</time>
      </trkpt>
      <trkpt lat="58.01062" lon="-4.40287">
        <ele>89.56</ele>
        <time>2021-03-20T15:12:17Z</time>
      </trkpt>
      <trkpt lat="58.01011" lon="-4.40299">
        <ele>88.9</ele>
        <time>2021-03-20T15:12:20Z</time>
      </trkpt>
      <trkpt lat="58.00882" lon="-4.40356">
        <ele>87.57</ele>
        <time>2021-03-20T15:12:23Z</time>
      </trkpt>
      <trkpt lat="58.00802" lon="-4.40395">
        <ele>86.43</ele>
        <time>2021-03-20T15:12:26Z</time>
      </trkpt>
      <trkpt lat="58.00721" lon="-4.40454">
        <ele>86.35</ele>
        <time>2021-03-20T15:12:29Z</time>
      </trkpt>
      <trkpt lat="58.00612" lon="-4.40542">
        <ele>85.55</ele>
        <time>2021-03-20T15:12:32Z</time>
      </trkpt>
      <trkpt lat="58.00518" lon="-4.40609">
        <ele>84.57</ele>
        <time>2021-03-20T15:12:35Z</time>
      </trkpt>
      <trkpt lat="58.00474" lon="-4.40653">
        <ele>83.69</ele>
        <time>2021-03-20T15:12:38Z</time>
      </trkpt>
      <trkpt lat="58.00422" lon="-4.40715">
        <ele>83.16</ele>
        <time>2021-03-20T15:12:41Z</time>
      </trkpt>
      <trkpt lat="58.00354" lon="-4.40759">
        <ele>82.06</ele>
        <time>2021-03-20T15:12:44Z</time>
      </trkpt>
      <trkpt lat="58.00297" lon="-4.40789">
        <ele>81.47</ele>
        <time>2021-03-20T15:12:47Z</time>
      </trkpt>
      <trkpt lat="58.00205" lon="-4.40822">
        <ele>82.56</ele>
        <time>2021-03-20T15:12:50Z</time>
      </trkpt>
      <trkpt lat="58.00183" lon="-4.40833">
        <ele>82.14</ele>
        <time>2021-03-20T15:12:52Z</time>
      </trkpt>
      <trkpt lat="58.00025" lon="-4.409">
        <ele>79.38</ele>
        <time>2021-03-20T15:12:55Z</time>
      </trkpt>
      <trkpt lat="57.99948" lon="-4.40925">
        <ele>77.26</ele>
        <time>2021-03-20T15:12:58Z</time>
      </trkpt>
      <trkpt lat="57.99855" lon="-4.40963">
        <ele>75.65</ele>
        <time>2021-03-20T15:13:01Z</time>
      </trkpt>
      <trkpt lat="57.99807" lon="-4.40978">
        <ele>75.25</ele>
        <time>2021-03-20T15:13:04Z</time>
      </trkpt>
      <trkpt lat="57.99779" lon="-4.40982">
        <ele>76.31</ele>
        <time>2021-03-20T15:13:07Z</time>
      </trkpt>
      <trkpt lat="57.99711" lon="-4.40976">
        <ele>76.58</ele>
        <time>2021-03-20T15:13:10Z</time>
      </trkpt>
      <trkpt lat="57.99679" lon="-4.4098">
        <ele>76</ele>
        <time>2021-03-20T15:13:13Z</time>
      </trkpt>
      <trkpt lat="57.99645" lon="-4.4098">
        <ele>76.21</ele>
        <time>2021-03-20T15:13:16Z</time>
      </trkpt>
      <trkpt lat="57.99583" lon="-4.40971">
        <ele>74.96</ele>
        <time>2021-03-20T15:13:19Z</time>
      </trkpt>
      <trkpt lat="57.99555" lon="-4.40974">
        <ele>73.98</ele>
        <time>2021-03-20T15:13:22Z</time>
      </trkpt>
      <trkpt lat="57.99523" lon="-4.40983">
        <ele>73</ele>
        <time>2021-03-20T15:13:25Z</time>
      </trkpt>
      <trkpt lat="57.99325" lon="-4.4105">
        <ele>74.71</ele>
        <time>2021-03-20T15:13:28Z</time>
      </trkpt>
      <trkpt lat="57.99107" lon="-4.41109">
        <ele>69.84</ele>
        <time>2021-03-20T15:13:30Z</time>
      </trkpt>
      <trkpt lat="57.98971" lon="-4.41132">
        <ele>67.27</ele>
        <time>2021-03-20T15:13:33Z</time>
      </trkpt>
      <trkpt lat="57.98894" lon="-4.41139">
        <ele>67.19</ele>
        <time>2021-03-20T15:13:36Z</time>
      </trkpt>
      <trkpt lat="57.9885" lon="-4.4115">
        <ele>67.39</ele>
        <time>2021-03-20T15:13:39Z</time>
      </trkpt>
      <trkpt lat="57.98815" lon="-4.41172">
        <ele>68</ele>
        <time>2021-03-20T15:13:42Z</time>
      </trkpt>
      <trkpt lat="57.98792" lon="-4.41194">
        <ele>67.5</ele>
        <time>2021-03-20T15:13:45Z</time>
      </trkpt>
      <trkpt lat="57.98759" lon="-4.41234">
        <ele>66.59</ele>
        <time>2021-03-20T15:13:48Z</time>
      </trkpt>
      <trkpt lat="57.98711" lon="-4.413">
        <ele>66.79</ele>
        <time>2021-03-20T15:13:51Z</time>
      </trkpt>
      <trkpt lat="57.98669" lon="-4.41377">
        <ele>67.61</ele>
        <time>2021-03-20T15:13:54Z</time>
      </trkpt>
      <trkpt lat="57.98619" lon="-4.41497">
        <ele>68.72</ele>
        <time>2021-03-20T15:13:57Z</time>
      </trkpt>
      <trkpt lat="57.98591" lon="-4.4158">
        <ele>67.79</ele>
        <time>2021-03-20T15:14:00Z</time>
      </trkpt>
      <trkpt lat="57.98567" lon="-4.41677">
        <ele>66.79</ele>
        <time>2021-03-20T15:14:03Z</time>
      </trkpt>
      <trkpt lat="57.98514" lon="-4.41873">
        <ele>70.45</ele>
        <time>2021-03-20T15:14:05Z</time>
      </trkpt>
      <trkpt lat="57.985" lon="-4.41901">
        <ele>70.45</ele>
        <time>2021-03-20T15:14:08Z</time>
      </trkpt>
      <trkpt lat="57.98483" lon="-4.41906">
        <ele>69.99</ele>
        <time>2021-03-20T15:14:11Z</time>
      </trkpt>
      <trkpt lat="57.9846" lon="-4.419">
        <ele>68.97</ele>
        <time>2021-03-20T15:14:14Z</time>
      </trkpt>
      <trkpt lat="57.98402" lon="-4.41908">
        <ele>68.35</ele>
        <time>2021-03-20T15:14:17Z</time>
      </trkpt>
      <trkpt lat="57.98347" lon="-4.41909">
        <ele>70.25</ele>
        <time>2021-03-20T15:14:20Z</time>
      </trkpt>
      <trkpt lat="57.98326" lon="-4.419">
        <ele>70.47</ele>
        <time>2021-03-20T15:14:23Z</time>
      </trkpt>
      <trkpt lat="57.98288" lon="-4.41867">
        <ele>69.84</ele>
        <time>2021-03-20T15:14:26Z</time>
      </trkpt>
      <trkpt lat="57.98257" lon="-4.41831">
        <ele>70.13</ele>
        <time>2021-03-20T15:14:29Z</time>
      </trkpt>
      <trkpt lat="57.98185" lon="-4.41735">
        <ele>68.04</ele>
        <time>2021-03-20T15:14:32Z</time>
      </trkpt>
      <trkpt lat="57.98146" lon="-4.41676">
        <ele>68.83</ele>
        <time>2021-03-20T15:14:35Z</time>
      </trkpt>
      <trkpt lat="57.98136" lon="-4.41665">
        <ele>69.03</ele>
        <time>2021-03-20T15:14:38Z</time>
      </trkpt>
      <trkpt lat="57.98099" lon="-4.41637">
        <ele>68.5</ele>
        <time>2021-03-20T15:14:41Z</time>
      </trkpt>
      <trkpt lat="57.98057" lon="-4.41599">
        <ele>66.03</ele>
        <time>2021-03-20T15:14:43Z</time>
      </trkpt>
      <trkpt lat="57.98003" lon="-4.41569">
        <ele>63.99</ele>
        <time>2021-03-20T15:14:46Z</time>
      </trkpt>
      <trkpt lat="57.9795" lon="-4.41549">
        <ele>63.82</ele>
        <time>2021-03-20T15:14:49Z</time>
      </trkpt>
      <trkpt lat="57.97754" lon="-4.415">
        <ele>60.87</ele>
        <time>2021-03-20T15:14:52Z</time>
      </trkpt>
      <trkpt lat="57.97607" lon="-4.41519">
        <ele>58.74</ele>
        <time>2021-03-20T15:14:55Z</time>
      </trkpt>
      <trkpt lat="57.97541" lon="-4.41513">
        <ele>58.76</ele>
        <time>2021-03-20T15:14:58Z</time>
      </trkpt>
      <trkpt lat="57.97496" lon="-4.41493">
        <ele>58.74</ele>
        <time>2021-03-20T15:15:01Z</time>
      </trkpt>
      <trkpt lat="57.9746" lon="-4.41488">
        <ele>59.86</ele>
        <time>2021-03-20T15:15:04Z</time>
      </trkpt>
      <trkpt lat="57.97427" lon="-4.41477">
        <ele>60.1</ele>
        <time>2021-03-20T15:15:07Z</time>
      </trkpt>
      <trkpt lat="57.97235" lon="-4.41382">
        <ele>60.3</ele>
        <time>2021-03-20T15:15:10Z</time>
      </trkpt>
      <trkpt lat="57.97185" lon="-4.4136">
        <ele>61.52</ele>
        <time>2021-03-20T15:15:13Z</time>
      </trkpt>
      <trkpt lat="57.97147" lon="-4.41337">
        <ele>60.25</ele>
        <time>2021-03-20T15:15:16Z</time>
      </trkpt>
      <trkpt lat="57.97097" lon="-4.41297">
        <ele>57.62</ele>
        <time>2021-03-20T15:15:18Z</time>
      </trkpt>
      <trkpt lat="57.97021" lon="-4.41254">
        <ele>55.28</ele>
        <time>2021-03-20T15:15:21Z</time>
      </trkpt>
      <trkpt lat="57.97" lon="-4.4125">
        <ele>55</ele>
        <time>2021-03-20T15:15:24Z</time>
      </trkpt>
      <trkpt lat="57.96981" lon="-4.41256">
        <ele>55.62</ele>
        <time>2021-03-20T15:15:27Z</time>
      </trkpt>
      <trkpt lat="57.96962" lon="-4.41254">
        <ele>55.45</ele>
        <time>2021-03-20T15:15:30Z</time>
      </trkpt>
      <trkpt lat="57.96932" lon="-4.41242">
        <ele>54.48</ele>
        <time>2021-03-20T15:15:33Z</time>
      </trkpt>
      <trkpt lat="57.96887" lon="-4.41212">
        <ele>52.32</ele>
        <time>2021-03-20T15:15:36Z</time>
      </trkpt>
      <trkpt lat="57.96849" lon="-4.41197">
        <ele>53.02</ele>
        <time>2021-03-20T15:15:39Z</time>
      </trkpt>
      <trkpt lat="57.96678" lon="-4.41162">
        <ele>47</ele>
        <time>2021-03-20T15:15:42Z</time>
      </trkpt>
      <trkpt lat="57.96637" lon="-4.41148">
        <ele>47.71</ele>
        <time>2021-03-20T15:15:45Z</time>
      </trkpt>
      <trkpt lat="57.96608" lon="-4.4113">
        <ele>49.95</ele>
        <time>2021-03-20T15:15:48Z</time>
      </trkpt>
      <trkpt lat="57.96578" lon="-4.41122">
        <ele>51.32</ele>
        <time>2021-03-20T15:15:51Z</time>
      </trkpt>
      <trkpt lat="57.96552" lon="-4.41109">
        <ele>50.96</ele>
        <time>2021-03-20T15:15:53Z</time>
      </trkpt>
      <trkpt lat="57.96524" lon="-4.41104">
        <ele>51.16</ele>
        <time>2021-03-20T15:15:56Z</time>
      </trkpt>
      <trkpt lat="57.96489" lon="-4.41092">
        <ele>51.21</ele>
        <time>2021-03-20T15:15:59Z</time>
      </trkpt>
      <trkpt lat="57.96464" lon="-4.41078">
        <ele>53.12</ele>
        <time>2021-03-20T15:16:02Z</time>
      </trkpt>
      <trkpt lat="57.96444" lon="-4.41051">
        <ele>52.39</ele>
        <time>2021-03-20T15:16:05Z</time>
      </trkpt>
      <trkpt lat="57.96403" lon="-4.40982">
        <ele>50.56</ele>
        <time>2021-03-20T15:16:08Z</time>
      </trkpt>
      <trkpt lat="57.96315" lon="-4.40872">
        <ele>49.97</ele>
        <time>2021-03-20T15:16:11Z</time>
      </trkpt>
      <trkpt lat="57.96266" lon="-4.40829">
        <ele>49.73</ele>
        <time>2021-03-20T15:16:14Z</time>
      </trkpt>
      <trkpt lat="57.96241" lon="-4.40811">
        <ele>49.77</ele>
        <time>2021-03-20T15:16:17Z</time>
      </trkpt>
      <trkpt lat="57.96188" lon="-4.40798">
        <ele>51.88</ele>
        <time>2021-03-20T15:16:20Z</time>
      </trkpt>
      <trkpt lat="57.96162" lon="-4.40809">
        <ele>54.36</ele>
        <time>2021-03-20T15:16:23Z</time>
      </trkpt>
      <trkpt lat="57.9613" lon="-4.40815">
        <ele>54.07</ele>
        <time>2021-03-20T15:16:26Z</time>
      </trkpt>
      <trkpt lat="57.96103" lon="-4.40812">
        <ele>52.49</ele>
        <time>2021-03-20T15:16:29Z</time>
      </trkpt>
      <trkpt lat="57.96052" lon="-4.40798">
        <ele>53.68</ele>
        <time>2021-03-20T15:16:31Z</time>
      </trkpt>
      <trkpt lat="57.95963" lon="-4.40746">
        <ele>56.21</ele>
        <time>2021-03-20T15:16:34Z</time>
      </trkpt>
      <trkpt lat="57.95924" lon="-4.40728">
        <ele>54</ele>
        <time>2021-03-20T15:16:37Z</time>
      </trkpt>
      <trkpt lat="57.95906" lon="-4.40728">
        <ele>51.6</ele>
        <time>2021-03-20T15:16:40Z</time>
      </trkpt>
      <trkpt lat="57.95897" lon="-4.40733">
        <ele>50.14</ele>
        <time>2021-03-20T15:16:43Z</time>
      </trkpt>
      <trkpt lat="57.95888" lon="-4.40747">
        <ele>49.53</ele>
        <time>2021-03-20T15:16:46Z</time>
      </trkpt>
      <trkpt lat="57.95866" lon="-4.40807">
        <ele>46.38</ele>
        <time>2021-03-20T15:16:49Z</time>
      </trkpt>
      <trkpt lat="57.95847" lon="-4.40847">
        <ele>44.38</ele>
        <time>2021-03-20T15:16:52Z</time>
      </trkpt>
      <trkpt lat="57.95821" lon="-4.40885">
        <ele>46.15</ele>
        <time>2021-03-20T15:16:55Z</time>
      </trkpt>
      <trkpt lat="57.95785" lon="-4.40907">
        <ele>45.17</ele>
        <time>2021-03-20T15:16:58Z</time>
      </trkpt>
      <trkpt lat="57.95764" lon="-4.40914">
        <ele>45.44</ele>
        <time>2021-03-20T15:17:01Z</time>
      </trkpt>
      <trkpt lat="57.95742" lon="-4.40906">
        <ele>44.74</ele>
        <time>2021-03-20T15:17:04Z</time>
      </trkpt>
      <trkpt lat="57.95705" lon="-4.4087">
        <ele>41.28</ele>
        <time>2021-03-20T15:17:06Z</time>
      </trkpt>
      <trkpt lat="57.9566" lon="-4.40848">
        <ele>38.12</ele>
        <time>2021-03-20T15:17:09Z</time>
      </trkpt>
      <trkpt lat="57.95633" lon="-4.40852">
        <ele>38.19</ele>
        <time>2021-03-20T15:17:12Z</time>
      </trkpt>
      <trkpt lat="57.95605" lon="-4.40861">
        <ele>38.52</ele>
        <time>2021-03-20T15:17:15Z</time>
      </trkpt>
      <trkpt lat="57.95581" lon="-4.40864">
        <ele>37.51</ele>
        <time>2021-03-20T15:17:18Z</time>
      </trkpt>
      <trkpt lat="57.95553" lon="-4.40861">
        <ele>38</ele>
        <time>2021-03-20T15:17:21Z</time>
      </trkpt>
      <trkpt lat="57.95531" lon="-4.4085">
        <ele>37.12</ele>
        <time>2021-03-20T15:17:24Z</time>
      </trkpt>
      <trkpt lat="57.95512" lon="-4.40822">
        <ele>36.37</ele>
        <time>2021-03-20T15:17:27Z</time>
      </trkpt>
      <trkpt lat="57.95468" lon="-4.40783">
        <ele>36.74</ele>
        <time>2021-03-20T15:17:30Z</time>
      </trkpt>
      <trkpt lat="57.9543" lon="-4.40768">
        <ele>33.46</ele>
        <time>2021-03-20T15:17:33Z</time>
      </trkpt>
      <trkpt lat="57.95335" lon="-4.40773">
        <ele>33.33</ele>
        <time>2021-03-20T15:17:36Z</time>
      </trkpt>
      <trkpt lat="57.95302" lon="-4.40755">
        <ele>32.77</ele>
        <time>2021-03-20T15:17:39Z</time>
      </trkpt>
      <trkpt lat="57.95251" lon="-4.4072">
        <ele>31.66</ele>
        <time>2021-03-20T15:17:41Z</time>
      </trkpt>
      <trkpt lat="57.95229" lon="-4.40712">
        <ele>32.42</ele>
        <time>2021-03-20T15:17:44Z</time>
      </trkpt>
      <trkpt lat="57.95202" lon="-4.40686">
        <ele>32.66</ele>
        <time>2021-03-20T15:17:47Z</time>
      </trkpt>
      <trkpt lat="57.95174" lon="-4.4062">
        <ele>29.88</ele>
        <time>2021-03-20T15:17:50Z</time>
      </trkpt>
      <trkpt lat="57.9515" lon="-4.4058">
        <ele>30.56</ele>
        <time>2021-03-20T15:17:53Z</time>
      </trkpt>
      <trkpt lat="57.95102" lon="-4.40514">
        <ele>28.47</ele>
        <time>2021-03-20T15:17:56Z</time>
      </trkpt>
      <trkpt lat="57.9504" lon="-4.40455">
        <ele>29.19</ele>
        <time>2021-03-20T15:17:59Z</time>
      </trkpt>
      <trkpt lat="57.95" lon="-4.40398">
        <ele>28.68</ele>
        <time>2021-03-20T15:18:02Z</time>
      </trkpt>
      <trkpt lat="57.94961" lon="-4.40357">
        <ele>28.87</ele>
        <time>2021-03-20T15:18:05Z</time>
      </trkpt>
      <trkpt lat="57.94938" lon="-4.40322">
        <ele>29.05</ele>
        <time>2021-03-20T15:18:08Z</time>
      </trkpt>
      <trkpt lat="57.9492" lon="-4.403">
        <ele>27.78</ele>
        <time>2021-03-20T15:18:11Z</time>
      </trkpt>
      <trkpt lat="57.94903" lon="-4.40293">
        <ele>27.32</ele>
        <time>2021-03-20T15:18:14Z</time>
      </trkpt>
      <trkpt lat="57.9482" lon="-4.40434">
        <ele>21.51</ele>
        <time>2021-03-20T15:18:17Z</time>
      </trkpt>
      <trkpt lat="57.94749" lon="-4.40577">
        <ele>19.25</ele>
        <time>2021-03-20T15:18:19Z</time>
      </trkpt>
      <trkpt lat="57.94715" lon="-4.40599">
        <ele>18.71</ele>
        <time>2021-03-20T15:18:22Z</time>
      </trkpt>
      <trkpt lat="57.94703" lon="-4.40618">
        <ele>20.28</ele>
        <time>2021-03-20T15:18:25Z</time>
      </trkpt>
      <trkpt lat="57.94655" lon="-4.40682">
        <ele>24.72</ele>
        <time>2021-03-20T15:18:28Z</time>
      </trkpt>
      <trkpt lat="57.94629" lon="-4.40705">
        <ele>24.13</ele>
        <time>2021-03-20T15:18:31Z</time>
      </trkpt>
      <trkpt lat="57.94614" lon="-4.40726">
        <ele>24.97</ele>
        <time>2021-03-20T15:18:34Z</time>
      </trkpt>
      <trkpt lat="57.94578" lon="-4.40767">
        <ele>24.07</ele>
        <time>2021-03-20T15:18:37Z</time>
      </trkpt>
      <trkpt lat="57.94512" lon="-4.40868">
        <ele>19.74</ele>
        <time>2021-03-20T15:18:40Z</time>
      </trkpt>
      <trkpt lat="57.94458" lon="-4.40958">
        <ele>16.86</ele>
        <time>2021-03-20T15:18:43Z</time>
      </trkpt>
      <trkpt lat="57.94439" lon="-4.40957">
        <ele>13.86</ele>
        <time>2021-03-20T15:18:44Z</time>
      </trkpt>
      <trkpt lat="57.9441" lon="-4.40872">
        <ele>13.96</ele>
        <time>2021-03-20T15:18:47Z</time>
      </trkpt>
      <trkpt lat="57.94389" lon="-4.40815">
        <ele>19.63</ele>
        <time>2021-03-20T15:18:49Z</time>
      </trkpt>
      <trkpt lat="57.94375" lon="-4.40788">
        <ele>20.32</ele>
        <time>2021-03-20T15:18:52Z</time>
      </trkpt>
      <trkpt lat="57.94357" lon="-4.40763">
        <ele>20.47</ele>
        <time>2021-03-20T15:18:55Z</time>
      </trkpt>
      <trkpt lat="57.94341" lon="-4.40751">
        <ele>20.26</ele>
        <time>2021-03-20T15:18:58Z</time>
      </trkpt>
      <trkpt lat="57.9431" lon="-4.40736">
        <ele>19.67</ele>
        <time>2021-03-20T15:19:01Z</time>
      </trkpt>
      <trkpt lat="57.94267" lon="-4.40722">
        <ele>19.6</ele>
        <time>2021-03-20T15:19:03Z</time>
      </trkpt>
      <trkpt lat="57.94105" lon="-4.40691">
        <ele>18.24</ele>
        <time>2021-03-20T15:19:06Z</time>
      </trkpt>
      <trkpt lat="57.93986" lon="-4.40643">
        <ele>20.36</ele>
        <time>2021-03-20T15:19:09Z</time>
      </trkpt>
      <trkpt lat="57.93872" lon="-4.40568">
        <ele>26.76</ele>
        <time>2021-03-20T15:19:12Z</time>
      </trkpt>
      <trkpt lat="57.93768" lon="-4.4051">
        <ele>26.91</ele>
        <time>2021-03-20T15:19:15Z</time>
      </trkpt>
      <trkpt lat="57.93733" lon="-4.40499">
        <ele>25.86</ele>
        <time>2021-03-20T15:19:17Z</time>
      </trkpt>
      <trkpt lat="57.93668" lon="-4.4049">
        <ele>24.1</ele>
        <time>2021-03-20T15:19:20Z</time>
      </trkpt>
      <trkpt lat="57.93585" lon="-4.40505">
        <ele>23.5</ele>
        <time>2021-03-20T15:19:23Z</time>
      </trkpt>
      <trkpt lat="57.93559" lon="-4.40501">
        <ele>23.02</ele>
        <time>2021-03-20T15:19:26Z</time>
      </trkpt>
      <trkpt lat="57.93541" lon="-4.40496">
        <ele>22.63</ele>
        <time>2021-03-20T15:19:29Z</time>
      </trkpt>
      <trkpt lat="57.93523" lon="-4.40479">
        <ele>22.31</ele>
        <time>2021-03-20T15:19:31Z</time>
      </trkpt>
      <trkpt lat="57.93511" lon="-4.40457">
        <ele>21.71</ele>
        <time>2021-03-20T15:19:34Z</time>
      </trkpt>
      <trkpt lat="57.93506" lon="-4.40435">
        <ele>22.27</ele>
        <time>2021-03-20T15:19:37Z</time>
      </trkpt>
      <trkpt lat="57.93505" lon="-4.40412">
        <ele>23.84</ele>
        <time>2021-03-20T15:19:40Z</time>
      </trkpt>
      <trkpt lat="57.93387" lon="-4.40413">
        <ele>18.45</ele>
        <time>2021-03-20T15:19:46Z</time>
      </trkpt>
      <trkpt lat="57.9332" lon="-4.40404">
        <ele>20.92</ele>
        <time>2021-03-20T15:19:53Z</time>
      </trkpt>
      <trkpt lat="57.93283" lon="-4.40391">
        <ele>20.1</ele>
        <time>2021-03-20T15:20:00Z</time>
      </trkpt>
      <trkpt lat="57.93233" lon="-4.40361">
        <ele>17.19</ele>
        <time>2021-03-20T15:20:06Z</time>
      </trkpt>
      <trkpt lat="57.93097" lon="-4.4021">
        <ele>22.95</ele>
        <time>2021-03-20T15:20:13Z</time>
      </trkpt>
      <trkpt lat="57.93041" lon="-4.40172">
        <ele>20.72</ele>
        <time>2021-03-20T15:20:19Z</time>
      </trkpt>
      <trkpt lat="57.92915" lon="-4.40105">
        <ele>19.07</ele>
        <time>2021-03-20T15:20:26Z</time>
      </trkpt>
      <trkpt lat="57.92799" lon="-4.40049">
        <ele>15</ele>
        <time>2021-03-20T15:20:33Z</time>
      </trkpt>
      <trkpt lat="57.92731" lon="-4.40045">
        <ele>15.26</ele>
        <time>2021-03-20T15:20:39Z</time>
      </trkpt>
      <trkpt lat="57.92681" lon="-4.40058">
        <ele>15.46</ele>
        <time>2021-03-20T15:20:46Z</time>
      </trkpt>
      <trkpt lat="57.92611" lon="-4.40093">
        <ele>14.67</ele>
        <time>2021-03-20T15:20:52Z</time>
      </trkpt>
      <trkpt lat="57.92585" lon="-4.40099">
        <ele>13.89</ele>
        <time>2021-03-20T15:20:59Z</time>
      </trkpt>
      <trkpt lat="57.92546" lon="-4.40098">
        <ele>12.79</ele>
        <time>2021-03-20T15:21:06Z</time>
      </trkpt>
      <trkpt lat="57.92524" lon="-4.40092">
        <ele>12.83</ele>
        <time>2021-03-20T15:21:12Z</time>
      </trkpt>
      <trkpt lat="57.92502" lon="-4.40082">
        <ele>12.31</ele>
        <time>2021-03-20T15:21:19Z</time>
      </trkpt>
      <trkpt lat="57.92472" lon="-4.40061">
        <ele>10.6</ele>
        <time>2021-03-20T15:21:25Z</time>
      </trkpt>
      <trkpt lat="57.92389" lon="-4.39974">
        <ele>7.95</ele>
        <time>2021-03-20T15:21:32Z</time>
      </trkpt>
      <trkpt lat="57.92342" lon="-4.39938">
        <ele>9.56</ele>
        <time>2021-03-20T15:21:39Z</time>
      </trkpt>
      <trkpt lat="57.92292" lon="-4.39915">
        <ele>9.1</ele>
        <time>2021-03-20T15:21:45Z</time>
      </trkpt>
      <trkpt lat="57.92209" lon="-4.39892">
        <ele>7.4</ele>
        <time>2021-03-20T15:21:52Z</time>
      </trkpt>
      <trkpt lat="57.92136" lon="-4.39864">
        <ele>7.86</ele>
        <time>2021-03-20T15:21:58Z</time>
      </trkpt>
      <trkpt lat="57.92012" lon="-4.39798">
        <ele>9.01</ele>
        <time>2021-03-20T15:22:05Z</time>
      </trkpt>
      <trkpt lat="57.9192" lon="-4.39715">
        <ele>12.37</ele>
        <time>2021-03-20T15:22:12Z</time>
      </trkpt>
      <trkpt lat="57.91883" lon="-4.39676">
        <ele>13.47</ele>
        <time>2021-03-20T15:22:18Z</time>
      </trkpt>
      <trkpt lat="57.91846" lon="-4.39613">
        <ele>14.41</ele>
        <time>2021-03-20T15:22:25Z</time>
      </trkpt>
      <trkpt lat="57.91808" lon="-4.39524">
        <ele>15.21</ele>
        <time>2021-03-20T15:22:32Z</time>
      </trkpt>
      <trkpt lat="57.91771" lon="-4.39407">
        <ele>17.14</ele>
        <time>2021-03-20T15:22:38Z</time>
      </trkpt>
      <trkpt lat="57.91728" lon="-4.39277">
        <ele>14.99</ele>
        <time>2021-03-20T15:22:45Z</time>
      </trkpt>
      <trkpt lat="57.91203" lon="-4.37603">
        <ele>11.29</ele>
        <time>2021-03-20T15:22:51Z</time>
      </trkpt>
      <trkpt lat="57.91121" lon="-4.37371">
        <ele>6.34</ele>
        <time>2021-03-20T15:22:58Z</time>
      </trkpt>
      <trkpt lat="57.91077" lon="-4.37298">
        <ele>7.05</ele>
        <time>2021-03-20T15:23:05Z</time>
      </trkpt>
      <trkpt lat="57.91022" lon="-4.37163">
        <ele>9.91</ele>
        <time>2021-03-20T15:23:11Z</time>
      </trkpt>
      <trkpt lat="57.90983" lon="-4.37028">
        <ele>11.79</ele>
        <time>2021-03-20T15:23:18Z</time>
      </trkpt>
      <trkpt lat="57.90949" lon="-4.3687">
        <ele>11.64</ele>
        <time>2021-03-20T15:23:24Z</time>
      </trkpt>
      <trkpt lat="57.90906" lon="-4.36686">
        <ele>13.01</ele>
        <time>2021-03-20T15:23:31Z</time>
      </trkpt>
      <trkpt lat="57.90849" lon="-4.36482">
        <ele>16.87</ele>
        <time>2021-03-20T15:23:38Z</time>
      </trkpt>
      <trkpt lat="57.90802" lon="-4.36345">
        <ele>20.54</ele>
        <time>2021-03-20T15:23:44Z</time>
      </trkpt>
      <trkpt lat="57.9074" lon="-4.362">
        <ele>19.32</ele>
        <time>2021-03-20T15:23:51Z</time>
      </trkpt>
      <trkpt lat="57.90687" lon="-4.36119">
        <ele>19.24</ele>
        <time>2021-03-20T15:23:57Z</time>
      </trkpt>
      <trkpt lat="57.90633" lon="-4.36069">
        <ele>20.81</ele>
        <time>2021-03-20T15:24:04Z</time>
      </trkpt>
      <trkpt lat="57.90523" lon="-4.35973">
        <ele>22.64</ele>
        <time>2021-03-20T15:24:11Z</time>
      </trkpt>
      <trkpt lat="57.90465" lon="-4.35909">
        <ele>22.5</ele>
        <time>2021-03-20T15:24:17Z</time>
      </trkpt>
      <trkpt lat="57.90409" lon="-4.35835">
        <ele>19.8</ele>
        <time>2021-03-20T15:24:24Z</time>
      </trkpt>
      <trkpt lat="57.90143" lon="-4.35453">
        <ele>13.86</ele>
        <time>2021-03-20T15:24:30Z</time>
      </trkpt>
      <trkpt lat="57.90022" lon="-4.35296">
        <ele>13.74</ele>
        <time>2021-03-20T15:24:37Z</time>
      </trkpt>
      <trkpt lat="57.89926" lon="-4.35191">
        <ele>12.87</ele>
        <time>2021-03-20T15:24:44Z</time>
      </trkpt>
      <trkpt lat="57.89767" lon="-4.3503">
        <ele>11.08</ele>
        <time>2021-03-20T15:24:50Z</time>
      </trkpt>
      <trkpt lat="57.89678" lon="-4.34943">
        <ele>12.47</ele>
        <time>2021-03-20T15:24:57Z</time>
      </trkpt>
      <trkpt lat="57.8958" lon="-4.34863">
        <ele>12.94</ele>
        <time>2021-03-20T15:25:03Z</time>
      </trkpt>
      <trkpt lat="57.89507" lon="-4.34809">
        <ele>13.35</ele>
        <time>2021-03-20T15:25:10Z</time>
      </trkpt>
      <trkpt lat="57.89275" lon="-4.34674">
        <ele>13.31</ele>
        <time>2021-03-20T15:25:17Z</time>
      </trkpt>
      <trkpt lat="57.89188" lon="-4.34634">
        <ele>8.3</ele>
        <time>2021-03-20T15:25:23Z</time>
      </trkpt>
      <trkpt lat="57.89176" lon="-4.34636">
        <ele>7.64</ele>
        <time>2021-03-20T15:25:30Z</time>
      </trkpt>
      <trkpt lat="57.89171" lon="-4.3464">
        <ele>7.04</ele>
        <time>2021-03-20T15:25:37Z</time>
      </trkpt>
      <trkpt lat="57.89174" lon="-4.34656">
        <ele>5.87</ele>
        <time>2021-03-20T15:25:42Z</time>
      </trkpt>
      <trkpt lat="57.89172" lon="-4.34683">
        <ele>5.12</ele>
        <time>2021-03-20T15:25:47Z</time>
      </trkpt>
      <trkpt lat="57.89142" lon="-4.34836">
        <ele>3</ele>
        <time>2021-03-20T15:25:53Z</time>
      </trkpt>
      <trkpt lat="57.89123" lon="-4.34922">
        <ele>2.59</ele>
        <time>2021-03-20T15:25:58Z</time>
      </trkpt>
      <trkpt lat="57.89111" lon="-4.34965">
        <ele>2.99</ele>
        <time>2021-03-20T15:26:03Z</time>
      </trkpt>
      <trkpt lat="57.89092" lon="-4.35028">
        <ele>3.71</ele>
        <time>2021-03-20T15:26:09Z</time>
      </trkpt>
      <trkpt lat="57.89061" lon="-4.35103">
        <ele>4</ele>
        <time>2021-03-20T15:26:14Z</time>
      </trkpt>
      <trkpt lat="57.89019" lon="-4.35201">
        <ele>4</ele>
        <time>2021-03-20T15:26:19Z</time>
      </trkpt>
      <trkpt lat="57.8894" lon="-4.35373">
        <ele>2</ele>
        <time>2021-03-20T15:26:25Z</time>
      </trkpt>
      <trkpt lat="57.88886" lon="-4.35485">
        <ele>3</ele>
        <time>2021-03-20T15:26:30Z</time>
      </trkpt>
      <trkpt lat="57.88789" lon="-4.35672">
        <ele>3.4</ele>
        <time>2021-03-20T15:26:36Z</time>
      </trkpt>
      <trkpt lat="57.88701" lon="-4.35822">
        <ele>4</ele>
        <time>2021-03-20T15:26:41Z</time>
      </trkpt>
      <trkpt lat="57.88661" lon="-4.35879">
        <ele>3.8</ele>
        <time>2021-03-20T15:26:46Z</time>
      </trkpt>
      <trkpt lat="57.88635" lon="-4.35913">
        <ele>3.02</ele>
        <time>2021-03-20T15:26:52Z</time>
      </trkpt>
      <trkpt lat="57.886" lon="-4.35953">
        <ele>3.52</ele>
        <time>2021-03-20T15:26:57Z</time>
      </trkpt>
      <trkpt lat="57.88509" lon="-4.3604">
        <ele>5.67</ele>
        <time>2021-03-20T15:27:02Z</time>
      </trkpt>
      <trkpt lat="57.8845" lon="-4.36092">
        <ele>5.18</ele>
        <time>2021-03-20T15:27:08Z</time>
      </trkpt>
      <trkpt lat="57.88393" lon="-4.36133">
        <ele>5.8</ele>
        <time>2021-03-20T15:27:13Z</time>
      </trkpt>
      <trkpt lat="57.88249" lon="-4.36242">
        <ele>9.81</ele>
        <time>2021-03-20T15:27:19Z</time>
      </trkpt>
      <trkpt lat="57.88226" lon="-4.36271">
        <ele>12.49</ele>
        <time>2021-03-20T15:27:24Z</time>
      </trkpt>
      <trkpt lat="57.88187" lon="-4.36311">
        <ele>14.73</ele>
        <time>2021-03-20T15:27:29Z</time>
      </trkpt>
      <trkpt lat="57.88177" lon="-4.36315">
        <ele>14.37</ele>
        <time>2021-03-20T15:27:35Z</time>
      </trkpt>
      <trkpt lat="57.8816" lon="-4.36316">
        <ele>13.76</ele>
        <time>2021-03-20T15:27:40Z</time>
      </trkpt>
      <trkpt lat="57.88145" lon="-4.36311">
        <ele>13.22</ele>
        <time>2021-03-20T15:27:45Z</time>
      </trkpt>
      <trkpt lat="57.88114" lon="-4.36288">
        <ele>13.91</ele>
        <time>2021-03-20T15:27:51Z</time>
      </trkpt>
      <trkpt lat="57.88056" lon="-4.36237">
        <ele>14.49</ele>
        <time>2021-03-20T15:27:56Z</time>
      </trkpt>
      <trkpt lat="57.88021" lon="-4.36198">
        <ele>13.77</ele>
        <time>2021-03-20T15:28:02Z</time>
      </trkpt>
      <trkpt lat="57.87956" lon="-4.36122">
        <ele>13.89</ele>
        <time>2021-03-20T15:28:07Z</time>
      </trkpt>
      <trkpt lat="57.87912" lon="-4.36064">
        <ele>14.8</ele>
        <time>2021-03-20T15:28:12Z</time>
      </trkpt>
      <trkpt lat="57.87855" lon="-4.3599">
        <ele>16.97</ele>
        <time>2021-03-20T15:28:18Z</time>
      </trkpt>
      <trkpt lat="57.87795" lon="-4.35933">
        <ele>19.2</ele>
        <time>2021-03-20T15:28:23Z</time>
      </trkpt>
      <trkpt lat="57.87698" lon="-4.35834">
        <ele>16.9</ele>
        <time>2021-03-20T15:28:28Z</time>
      </trkpt>
      <trkpt lat="57.87617" lon="-4.35755">
        <ele>16.17</ele>
        <time>2021-03-20T15:28:34Z</time>
      </trkpt>
      <trkpt lat="57.87576" lon="-4.35698">
        <ele>14.39</ele>
        <time>2021-03-20T15:28:39Z</time>
      </trkpt>
      <trkpt lat="57.87537" lon="-4.35634">
        <ele>14.15</ele>
        <time>2021-03-20T15:28:45Z</time>
      </trkpt>
      <trkpt lat="57.87465" lon="-4.35492">
        <ele>11.73</ele>
        <time>2021-03-20T15:28:50Z</time>
      </trkpt>
      <trkpt lat="57.87398" lon="-4.35391">
        <ele>10.71</ele>
        <time>2021-03-20T15:28:55Z</time>
      </trkpt>
      <trkpt lat="57.87303" lon="-4.35304">
        <ele>17.21</ele>
        <time>2021-03-20T15:29:01Z</time>
      </trkpt>
      <trkpt lat="57.87269" lon="-4.35269">
        <ele>19.33</ele>
        <time>2021-03-20T15:29:06Z</time>
      </trkpt>
      <trkpt lat="57.87224" lon="-4.3521">
        <ele>18.49</ele>
        <time>2021-03-20T15:29:11Z</time>
      </trkpt>
      <trkpt lat="57.87216" lon="-4.35194">
        <ele>18.47</ele>
        <time>2021-03-20T15:29:17Z</time>
      </trkpt>
      <trkpt lat="57.87197" lon="-4.35142">
        <ele>18.77</ele>
        <time>2021-03-20T15:29:22Z</time>
      </trkpt>
      <trkpt lat="57.87164" lon="-4.35024">
        <ele>20.18</ele>
        <time>2021-03-20T15:29:27Z</time>
      </trkpt>
      <trkpt lat="57.8711" lon="-4.34805">
        <ele>19.1</ele>
        <time>2021-03-20T15:29:33Z</time>
      </trkpt>
      <trkpt lat="57.87059" lon="-4.34574">
        <ele>21.05</ele>
        <time>2021-03-20T15:29:38Z</time>
      </trkpt>
      <trkpt lat="57.87041" lon="-4.34497">
        <ele>20.99</ele>
        <time>2021-03-20T15:29:44Z</time>
      </trkpt>
      <trkpt lat="57.86949" lon="-4.34138">
        <ele>19.88</ele>
        <time>2021-03-20T15:29:49Z</time>
      </trkpt>
      <trkpt lat="57.86909" lon="-4.33974">
        <ele>17.11</ele>
        <time>2021-03-20T15:29:54Z</time>
      </trkpt>
      <trkpt lat="57.86888" lon="-4.33895">
        <ele>17.36</ele>
        <time>2021-03-20T15:30:00Z</time>
      </trkpt>
      <trkpt lat="57.86863" lon="-4.33818">
        <ele>17.28</ele>
        <time>2021-03-20T15:30:05Z</time>
      </trkpt>
      <trkpt lat="57.8672" lon="-4.33435">
        <ele>14.01</ele>
        <time>2021-03-20T15:30:10Z</time>
      </trkpt>
      <trkpt lat="57.86552" lon="-4.33001">
        <ele>16.51</ele>
        <time>2021-03-20T15:30:16Z</time>
      </trkpt>
      <trkpt lat="57.86479" lon="-4.32827">
        <ele>21.03</ele>
        <time>2021-03-20T15:30:21Z</time>
      </trkpt>
      <trkpt lat="57.86448" lon="-4.32758">
        <ele>24.4</ele>
        <time>2021-03-20T15:30:27Z</time>
      </trkpt>
      <trkpt lat="57.86428" lon="-4.32692">
        <ele>24.56</ele>
        <time>2021-03-20T15:30:32Z</time>
      </trkpt>
      <trkpt lat="57.86356" lon="-4.3239">
        <ele>17.61</ele>
        <time>2021-03-20T15:30:37Z</time>
      </trkpt>
      <trkpt lat="57.86325" lon="-4.32294">
        <ele>19.53</ele>
        <time>2021-03-20T15:30:43Z</time>
      </trkpt>
      <trkpt lat="57.86292" lon="-4.32171">
        <ele>17.6</ele>
        <time>2021-03-20T15:30:48Z</time>
      </trkpt>
      <trkpt lat="57.86257" lon="-4.31973">
        <ele>16.68</ele>
        <time>2021-03-20T15:30:53Z</time>
      </trkpt>
      <trkpt lat="57.86215" lon="-4.31853">
        <ele>12.58</ele>
        <time>2021-03-20T15:30:59Z</time>
      </trkpt>
      <trkpt lat="57.86197" lon="-4.3179">
        <ele>8.27</ele>
        <time>2021-03-20T15:31:04Z</time>
      </trkpt>
      <trkpt lat="57.86179" lon="-4.3175">
        <ele>9.23</ele>
        <time>2021-03-20T15:31:10Z</time>
      </trkpt>
      <trkpt lat="57.86097" lon="-4.31656">
        <ele>13.6</ele>
        <time>2021-03-20T15:31:15Z</time>
      </trkpt>
      <trkpt lat="57.86063" lon="-4.31592">
        <ele>11.79</ele>
        <time>2021-03-20T15:31:20Z</time>
      </trkpt>
      <trkpt lat="57.86032" lon="-4.31501">
        <ele>10.48</ele>
        <time>2021-03-20T15:31:26Z</time>
      </trkpt>
      <trkpt lat="57.85999" lon="-4.31443">
        <ele>11.12</ele>
        <time>2021-03-20T15:31:31Z</time>
      </trkpt>
      <trkpt lat="57.85874" lon="-4.31238">
        <ele>14.44</ele>
        <time>2021-03-20T15:31:36Z</time>
      </trkpt>
      <trkpt lat="57.85839" lon="-4.31218">
        <ele>14</ele>
        <time>2021-03-20T15:31:42Z</time>
      </trkpt>
      <trkpt lat="57.85739" lon="-4.31195">
        <ele>13.4</ele>
        <time>2021-03-20T15:31:47Z</time>
      </trkpt>
      <trkpt lat="57.85685" lon="-4.31165">
        <ele>15.67</ele>
        <time>2021-03-20T15:31:52Z</time>
      </trkpt>
      <trkpt lat="57.85654" lon="-4.31142">
        <ele>17.44</ele>
        <time>2021-03-20T15:31:58Z</time>
      </trkpt>
      <trkpt lat="57.85644" lon="-4.31124">
        <ele>17.37</ele>
        <time>2021-03-20T15:32:03Z</time>
      </trkpt>
      <trkpt lat="57.85621" lon="-4.31066">
        <ele>18.03</ele>
        <time>2021-03-20T15:32:09Z</time>
      </trkpt>
      <trkpt lat="57.85517" lon="-4.30745">
        <ele>28.39</ele>
        <time>2021-03-20T15:32:14Z</time>
      </trkpt>
      <trkpt lat="57.85488" lon="-4.30565">
        <ele>27.52</ele>
        <time>2021-03-20T15:32:19Z</time>
      </trkpt>
      <trkpt lat="57.85474" lon="-4.30531">
        <ele>24.29</ele>
        <time>2021-03-20T15:32:25Z</time>
      </trkpt>
      <trkpt lat="57.85456" lon="-4.30508">
        <ele>22.44</ele>
        <time>2021-03-20T15:32:30Z</time>
      </trkpt>
      <trkpt lat="57.85393" lon="-4.30478">
        <ele>23.11</ele>
        <time>2021-03-20T15:32:35Z</time>
      </trkpt>
      <trkpt lat="57.85382" lon="-4.30469">
        <ele>23.76</ele>
        <time>2021-03-20T15:32:41Z</time>
      </trkpt>
      <trkpt lat="57.85376" lon="-4.30473">
        <ele>24.91</ele>
        <time>2021-03-20T15:32:46Z</time>
      </trkpt>
      <trkpt lat="57.85373" lon="-4.30471">
        <ele>25.28</ele>
        <time>2021-03-20T15:32:50Z</time>
      </trkpt>
      <trkpt lat="57.85358" lon="-4.30447">
        <ele>25.68</ele>
        <time>2021-03-20T15:32:55Z</time>
      </trkpt>
      <trkpt lat="57.85312" lon="-4.30345">
        <ele>29.93</ele>
        <time>2021-03-20T15:33:00Z</time>
      </trkpt>
      <trkpt lat="57.85227" lon="-4.30101">
        <ele>43.1</ele>
        <time>2021-03-20T15:33:04Z</time>
      </trkpt>
      <trkpt lat="57.85191" lon="-4.29974">
        <ele>41.51</ele>
        <time>2021-03-20T15:33:09Z</time>
      </trkpt>
      <trkpt lat="57.85164" lon="-4.2987">
        <ele>42.99</ele>
        <time>2021-03-20T15:33:14Z</time>
      </trkpt>
      <trkpt lat="57.85113" lon="-4.29736">
        <ele>46.06</ele>
        <time>2021-03-20T15:33:18Z</time>
      </trkpt>
      <trkpt lat="57.85103" lon="-4.29692">
        <ele>47.41</ele>
        <time>2021-03-20T15:33:23Z</time>
      </trkpt>
      <trkpt lat="57.85086" lon="-4.29525">
        <ele>51.87</ele>
        <time>2021-03-20T15:33:28Z</time>
      </trkpt>
      <trkpt lat="57.85053" lon="-4.29224">
        <ele>55.96</ele>
        <time>2021-03-20T15:33:32Z</time>
      </trkpt>
      <trkpt lat="57.8503" lon="-4.29123">
        <ele>59.91</ele>
        <time>2021-03-20T15:33:37Z</time>
      </trkpt>
      <trkpt lat="57.85" lon="-4.29028">
        <ele>64.89</ele>
        <time>2021-03-20T15:33:42Z</time>
      </trkpt>
      <trkpt lat="57.8496" lon="-4.28958">
        <ele>67.99</ele>
        <time>2021-03-20T15:33:47Z</time>
      </trkpt>
      <trkpt lat="57.84936" lon="-4.28905">
        <ele>70.49</ele>
        <time>2021-03-20T15:33:51Z</time>
      </trkpt>
      <trkpt lat="57.84909" lon="-4.288">
        <ele>68.68</ele>
        <time>2021-03-20T15:33:56Z</time>
      </trkpt>
      <trkpt lat="57.84895" lon="-4.28791">
        <ele>67.43</ele>
        <time>2021-03-20T15:34:01Z</time>
      </trkpt>
      <trkpt lat="57.84875" lon="-4.28801">
        <ele>68.88</ele>
        <time>2021-03-20T15:34:05Z</time>
      </trkpt>
      <trkpt lat="57.84854" lon="-4.28832">
        <ele>76.33</ele>
        <time>2021-03-20T15:34:10Z</time>
      </trkpt>
      <trkpt lat="57.84832" lon="-4.28895">
        <ele>86.38</ele>
        <time>2021-03-20T15:34:15Z</time>
      </trkpt>
      <trkpt lat="57.84811" lon="-4.28934">
        <ele>94.57</ele>
        <time>2021-03-20T15:34:19Z</time>
      </trkpt>
      <trkpt lat="57.84727" lon="-4.29016">
        <ele>102.68</ele>
        <time>2021-03-20T15:34:24Z</time>
      </trkpt>
      <trkpt lat="57.84647" lon="-4.29085">
        <ele>98.63</ele>
        <time>2021-03-20T15:34:29Z</time>
      </trkpt>
      <trkpt lat="57.84562" lon="-4.29226">
        <ele>100.27</ele>
        <time>2021-03-20T15:34:33Z</time>
      </trkpt>
      <trkpt lat="57.84552" lon="-4.2923">
        <ele>98.91</ele>
        <time>2021-03-20T15:34:38Z</time>
      </trkpt>
      <trkpt lat="57.84544" lon="-4.29228">
        <ele>97.29</ele>
        <time>2021-03-20T15:34:43Z</time>
      </trkpt>
      <trkpt lat="57.84542" lon="-4.29212">
        <ele>95.1</ele>
        <time>2021-03-20T15:34:47Z</time>
      </trkpt>
      <trkpt lat="57.84539" lon="-4.29176">
        <ele>91.28</ele>
        <time>2021-03-20T15:34:52Z</time>
      </trkpt>
      <trkpt lat="57.84533" lon="-4.29146">
        <ele>90.04</ele>
        <time>2021-03-20T15:34:57Z</time>
      </trkpt>
      <trkpt lat="57.84521" lon="-4.29114">
        <ele>92.25</ele>
        <time>2021-03-20T15:35:02Z</time>
      </trkpt>
      <trkpt lat="57.84508" lon="-4.29094">
        <ele>95.68</ele>
        <time>2021-03-20T15:35:06Z</time>
      </trkpt>
      <trkpt lat="57.84494" lon="-4.29081">
        <ele>98.57</ele>
        <time>2021-03-20T15:35:11Z</time>
      </trkpt>
      <trkpt lat="57.84428" lon="-4.29055">
        <ele>103.02</ele>
        <time>2021-03-20T15:35:16Z</time>
      </trkpt>
      <trkpt lat="57.84373" lon="-4.29023">
        <ele>109.86</ele>
        <time>2021-03-20T15:35:20Z</time>
      </trkpt>
      <trkpt lat="57.84345" lon="-4.28994">
        <ele>115.45</ele>
        <time>2021-03-20T15:35:25Z</time>
      </trkpt>
      <trkpt lat="57.8433" lon="-4.28945">
        <ele>119.04</ele>
        <time>2021-03-20T15:35:30Z</time>
      </trkpt>
      <trkpt lat="57.84329" lon="-4.28854">
        <ele>120.81</ele>
        <time>2021-03-20T15:35:34Z</time>
      </trkpt>
      <trkpt lat="57.8433" lon="-4.28735">
        <ele>123.42</ele>
        <time>2021-03-20T15:35:39Z</time>
      </trkpt>
      <trkpt lat="57.84313" lon="-4.28426">
        <ele>130.74</ele>
        <time>2021-03-20T15:35:44Z</time>
      </trkpt>
      <trkpt lat="57.84265" lon="-4.27976">
        <ele>146.62</ele>
        <time>2021-03-20T15:35:48Z</time>
      </trkpt>
      <trkpt lat="57.84146" lon="-4.27304">
        <ele>173.23</ele>
        <time>2021-03-20T15:35:53Z</time>
      </trkpt>
      <trkpt lat="57.84115" lon="-4.27171">
        <ele>179.32</ele>
        <time>2021-03-20T15:35:58Z</time>
      </trkpt>
      <trkpt lat="57.84086" lon="-4.27084">
        <ele>183.73</ele>
        <time>2021-03-20T15:36:02Z</time>
      </trkpt>
      <trkpt lat="57.84046" lon="-4.26996">
        <ele>189.73</ele>
        <time>2021-03-20T15:36:07Z</time>
      </trkpt>
      <trkpt lat="57.84" lon="-4.26912">
        <ele>195.83</ele>
        <time>2021-03-20T15:36:12Z</time>
      </trkpt>
      <trkpt lat="57.8395" lon="-4.26863">
        <ele>200.23</ele>
        <time>2021-03-20T15:36:17Z</time>
      </trkpt>
      <trkpt lat="57.83916" lon="-4.2685">
        <ele>203.32</ele>
        <time>2021-03-20T15:36:21Z</time>
      </trkpt>
      <trkpt lat="57.83875" lon="-4.26866">
        <ele>209.34</ele>
        <time>2021-03-20T15:36:26Z</time>
      </trkpt>
      <trkpt lat="57.83851" lon="-4.26881">
        <ele>213.25</ele>
        <time>2021-03-20T15:36:31Z</time>
      </trkpt>
      <trkpt lat="57.83814" lon="-4.26925">
        <ele>217.08</ele>
        <time>2021-03-20T15:36:35Z</time>
      </trkpt>
      <trkpt lat="57.83768" lon="-4.26994">
        <ele>218</ele>
        <time>2021-03-20T15:36:40Z</time>
      </trkpt>
      <trkpt lat="57.83683" lon="-4.27149">
        <ele>217.26</ele>
        <time>2021-03-20T15:36:45Z</time>
      </trkpt>
      <trkpt lat="57.8359" lon="-4.27288">
        <ele>215.4</ele>
        <time>2021-03-20T15:36:49Z</time>
      </trkpt>
      <trkpt lat="57.83404" lon="-4.27403">
        <ele>209.04</ele>
        <time>2021-03-20T15:36:54Z</time>
      </trkpt>
      <trkpt lat="57.83373" lon="-4.27409">
        <ele>209.15</ele>
        <time>2021-03-20T15:36:59Z</time>
      </trkpt>
      <trkpt lat="57.8335" lon="-4.27403">
        <ele>209.65</ele>
        <time>2021-03-20T15:37:03Z</time>
      </trkpt>
      <trkpt lat="57.83301" lon="-4.27353">
        <ele>209.87</ele>
        <time>2021-03-20T15:37:08Z</time>
      </trkpt>
      <trkpt lat="57.8321" lon="-4.27203">
        <ele>208.48</ele>
        <time>2021-03-20T15:37:13Z</time>
      </trkpt>
      <trkpt lat="57.83149" lon="-4.27118">
        <ele>206.88</ele>
        <time>2021-03-20T15:37:17Z</time>
      </trkpt>
      <trkpt lat="57.82953" lon="-4.26907">
        <ele>207.7</ele>
        <time>2021-03-20T15:37:22Z</time>
      </trkpt>
      <trkpt lat="57.82691" lon="-4.26673">
        <ele>209.24</ele>
        <time>2021-03-20T15:37:27Z</time>
      </trkpt>
      <trkpt lat="57.82577" lon="-4.2651">
        <ele>208.68</ele>
        <time>2021-03-20T15:37:32Z</time>
      </trkpt>
      <trkpt lat="57.82498" lon="-4.26359">
        <ele>207.95</ele>
        <time>2021-03-20T15:37:36Z</time>
      </trkpt>
      <trkpt lat="57.82387" lon="-4.26187">
        <ele>207.57</ele>
        <time>2021-03-20T15:37:41Z</time>
      </trkpt>
      <trkpt lat="57.82257" lon="-4.25922">
        <ele>206.36</ele>
        <time>2021-03-20T15:37:46Z</time>
      </trkpt>
      <trkpt lat="57.82201" lon="-4.25817">
        <ele>206.53</ele>
        <time>2021-03-20T15:37:50Z</time>
      </trkpt>
      <trkpt lat="57.82161" lon="-4.25766">
        <ele>206.61</ele>
        <time>2021-03-20T15:37:55Z</time>
      </trkpt>
      <trkpt lat="57.82108" lon="-4.25741">
        <ele>207.15</ele>
        <time>2021-03-20T15:38:00Z</time>
      </trkpt>
      <trkpt lat="57.82018" lon="-4.25711">
        <ele>208.87</ele>
        <time>2021-03-20T15:38:04Z</time>
      </trkpt>
      <trkpt lat="57.81924" lon="-4.2567">
        <ele>210.14</ele>
        <time>2021-03-20T15:38:09Z</time>
      </trkpt>
      <trkpt lat="57.81888" lon="-4.25653">
        <ele>210.03</ele>
        <time>2021-03-20T15:38:14Z</time>
      </trkpt>
      <trkpt lat="57.8179" lon="-4.25573">
        <ele>211.18</ele>
        <time>2021-03-20T15:38:18Z</time>
      </trkpt>
      <trkpt lat="57.81724" lon="-4.25552">
        <ele>212.68</ele>
        <time>2021-03-20T15:38:23Z</time>
      </trkpt>
      <trkpt lat="57.81521" lon="-4.25563">
        <ele>213.29</ele>
        <time>2021-03-20T15:38:28Z</time>
      </trkpt>
      <trkpt lat="57.81232" lon="-4.25613">
        <ele>208.06</ele>
        <time>2021-03-20T15:38:32Z</time>
      </trkpt>
      <trkpt lat="57.81091" lon="-4.25641">
        <ele>204.07</ele>
        <time>2021-03-20T15:38:37Z</time>
      </trkpt>
      <trkpt lat="57.8105" lon="-4.25639">
        <ele>204</ele>
        <time>2021-03-20T15:38:42Z</time>
      </trkpt>
      <trkpt lat="57.81015" lon="-4.25629">
        <ele>204.44</ele>
        <time>2021-03-20T15:38:47Z</time>
      </trkpt>
      <trkpt lat="57.80909" lon="-4.25569">
        <ele>204.04</ele>
        <time>2021-03-20T15:38:51Z</time>
      </trkpt>
      <trkpt lat="57.80532" lon="-4.25095">
        <ele>210.86</ele>
        <time>2021-03-20T15:38:56Z</time>
      </trkpt>
      <trkpt lat="57.79684" lon="-4.24153">
        <ele>211.52</ele>
        <time>2021-03-20T15:39:01Z</time>
      </trkpt>
      <trkpt lat="57.79647" lon="-4.2413">
        <ele>211.39</ele>
        <time>2021-03-20T15:39:05Z</time>
      </trkpt>
      <trkpt lat="57.79598" lon="-4.24109">
        <ele>210.44</ele>
        <time>2021-03-20T15:39:10Z</time>
      </trkpt>
      <trkpt lat="57.79547" lon="-4.24095">
        <ele>207.4</ele>
        <time>2021-03-20T15:39:15Z</time>
      </trkpt>
      <trkpt lat="57.79512" lon="-4.24077">
        <ele>207.93</ele>
        <time>2021-03-20T15:39:19Z</time>
      </trkpt>
      <trkpt lat="57.79476" lon="-4.2403">
        <ele>209.55</ele>
        <time>2021-03-20T15:39:24Z</time>
      </trkpt>
      <trkpt lat="57.79445" lon="-4.23936">
        <ele>210.98</ele>
        <time>2021-03-20T15:39:29Z</time>
      </trkpt>
      <trkpt lat="57.79411" lon="-4.23869">
        <ele>216.78</ele>
        <time>2021-03-20T15:39:33Z</time>
      </trkpt>
      <trkpt lat="57.79379" lon="-4.23846">
        <ele>220.51</ele>
        <time>2021-03-20T15:39:38Z</time>
      </trkpt>
      <trkpt lat="57.79343" lon="-4.23832">
        <ele>221</ele>
        <time>2021-03-20T15:39:43Z</time>
      </trkpt>
      <trkpt lat="57.79258" lon="-4.23861">
        <ele>224</ele>
        <time>2021-03-20T15:39:48Z</time>
      </trkpt>
      <trkpt lat="57.79102" lon="-4.2388">
        <ele>229.91</ele>
        <time>2021-03-20T15:39:52Z</time>
      </trkpt>
      <trkpt lat="57.79026" lon="-4.23905">
        <ele>232.08</ele>
        <time>2021-03-20T15:39:57Z</time>
      </trkpt>
      <trkpt lat="57.78946" lon="-4.23958">
        <ele>232.07</ele>
        <time>2021-03-20T15:40:02Z</time>
      </trkpt>
      <trkpt lat="57.78601" lon="-4.24355">
        <ele>240.72</ele>
        <time>2021-03-20T15:40:06Z</time>
      </trkpt>
      <trkpt lat="57.78565" lon="-4.24381">
        <ele>240.73</ele>
        <time>2021-03-20T15:40:11Z</time>
      </trkpt>
      <trkpt lat="57.78479" lon="-4.244">
        <ele>241.24</ele>
        <time>2021-03-20T15:40:16Z</time>
      </trkpt>
      <trkpt lat="57.78394" lon="-4.24411">
        <ele>241.75</ele>
        <time>2021-03-20T15:40:20Z</time>
      </trkpt>
      <trkpt lat="57.78365" lon="-4.24428">
        <ele>241.99</ele>
        <time>2021-03-20T15:40:25Z</time>
      </trkpt>
      <trkpt lat="57.78336" lon="-4.24455">
        <ele>242.88</ele>
        <time>2021-03-20T15:40:30Z</time>
      </trkpt>
      <trkpt lat="57.78291" lon="-4.24528">
        <ele>242.44</ele>
        <time>2021-03-20T15:40:34Z</time>
      </trkpt>
      <trkpt lat="57.78266" lon="-4.24552">
        <ele>242.35</ele>
        <time>2021-03-20T15:40:39Z</time>
      </trkpt>
      <trkpt lat="57.7823" lon="-4.24569">
        <ele>243.54</ele>
        <time>2021-03-20T15:40:44Z</time>
      </trkpt>
      <trkpt lat="57.78198" lon="-4.24564">
        <ele>242.61</ele>
        <time>2021-03-20T15:40:48Z</time>
      </trkpt>
      <trkpt lat="57.78174" lon="-4.24549">
        <ele>241.54</ele>
        <time>2021-03-20T15:40:53Z</time>
      </trkpt>
      <trkpt lat="57.78098" lon="-4.24439">
        <ele>244.78</ele>
        <time>2021-03-20T15:40:58Z</time>
      </trkpt>
      <trkpt lat="57.7806" lon="-4.24413">
        <ele>243.98</ele>
        <time>2021-03-20T15:41:03Z</time>
      </trkpt>
      <trkpt lat="57.77864" lon="-4.2437">
        <ele>240.72</ele>
        <time>2021-03-20T15:41:07Z</time>
      </trkpt>
      <trkpt lat="57.77632" lon="-4.24376">
        <ele>232.13</ele>
        <time>2021-03-20T15:41:12Z</time>
      </trkpt>
      <trkpt lat="57.77572" lon="-4.24354">
        <ele>229.83</ele>
        <time>2021-03-20T15:41:17Z</time>
      </trkpt>
      <trkpt lat="57.77511" lon="-4.24298">
        <ele>230.06</ele>
        <time>2021-03-20T15:41:21Z</time>
      </trkpt>
      <trkpt lat="57.77281" lon="-4.24247">
        <ele>217.21</ele>
        <time>2021-03-20T15:41:26Z</time>
      </trkpt>
      <trkpt lat="57.77115" lon="-4.24197">
        <ele>207.04</ele>
        <time>2021-03-20T15:41:31Z</time>
      </trkpt>
      <trkpt lat="57.77059" lon="-4.24201">
        <ele>205.26</ele>
        <time>2021-03-20T15:41:35Z</time>
      </trkpt>
      <trkpt lat="57.77019" lon="-4.24236">
        <ele>201.58</ele>
        <time>2021-03-20T15:41:40Z</time>
      </trkpt>
      <trkpt lat="57.76986" lon="-4.24299">
        <ele>198.42</ele>
        <time>2021-03-20T15:41:45Z</time>
      </trkpt>
      <trkpt lat="57.76975" lon="-4.24337">
        <ele>196.8</ele>
        <time>2021-03-20T15:41:49Z</time>
      </trkpt>
      <trkpt lat="57.76964" lon="-4.24403">
        <ele>196.12</ele>
        <time>2021-03-20T15:41:54Z</time>
      </trkpt>
      <trkpt lat="57.76955" lon="-4.24467">
        <ele>195.4</ele>
        <time>2021-03-20T15:41:59Z</time>
      </trkpt>
      <trkpt lat="57.76941" lon="-4.24732">
        <ele>190.96</ele>
        <time>2021-03-20T15:42:03Z</time>
      </trkpt>
      <trkpt lat="57.76942" lon="-4.24904">
        <ele>189.04</ele>
        <time>2021-03-20T15:42:08Z</time>
      </trkpt>
      <trkpt lat="57.76941" lon="-4.25025">
        <ele>186.69</ele>
        <time>2021-03-20T15:42:13Z</time>
      </trkpt>
      <trkpt lat="57.76935" lon="-4.25095">
        <ele>185.94</ele>
        <time>2021-03-20T15:42:18Z</time>
      </trkpt>
      <trkpt lat="57.76925" lon="-4.2516">
        <ele>184.85</ele>
        <time>2021-03-20T15:42:22Z</time>
      </trkpt>
      <trkpt lat="57.76891" lon="-4.25274">
        <ele>184.26</ele>
        <time>2021-03-20T15:42:27Z</time>
      </trkpt>
      <trkpt lat="57.76864" lon="-4.25326">
        <ele>183.23</ele>
        <time>2021-03-20T15:42:32Z</time>
      </trkpt>
      <trkpt lat="57.7684" lon="-4.25347">
        <ele>182.35</ele>
        <time>2021-03-20T15:42:36Z</time>
      </trkpt>
      <trkpt lat="57.76782" lon="-4.2536">
        <ele>181.82</ele>
        <time>2021-03-20T15:42:41Z</time>
      </trkpt>
      <trkpt lat="57.76753" lon="-4.2537">
        <ele>184.73</ele>
        <time>2021-03-20T15:42:46Z</time>
      </trkpt>
      <trkpt lat="57.76746" lon="-4.25373">
        <ele>186.13</ele>
        <time>2021-03-20T15:42:50Z</time>
      </trkpt>
      <trkpt lat="57.76739" lon="-4.25382">
        <ele>187.87</ele>
        <time>2021-03-20T15:42:55Z</time>
      </trkpt>
      <trkpt lat="57.76735" lon="-4.25392">
        <ele>188.69</ele>
        <time>2021-03-20T15:43:00Z</time>
      </trkpt>
      <trkpt lat="57.76733" lon="-4.25405">
        <ele>188.96</ele>
        <time>2021-03-20T15:43:04Z</time>
      </trkpt>
      <trkpt lat="57.76736" lon="-4.25504">
        <ele>188.73</ele>
        <time>2021-03-20T15:43:09Z</time>
      </trkpt>
      <trkpt lat="57.76734" lon="-4.25554">
        <ele>190.64</ele>
        <time>2021-03-20T15:43:14Z</time>
      </trkpt>
      <trkpt lat="57.767" lon="-4.2587">
        <ele>195.37</ele>
        <time>2021-03-20T15:43:18Z</time>
      </trkpt>
      <trkpt lat="57.76681" lon="-4.25998">
        <ele>197.98</ele>
        <time>2021-03-20T15:43:23Z</time>
      </trkpt>
      <trkpt lat="57.76633" lon="-4.26248">
        <ele>204.89</ele>
        <time>2021-03-20T15:43:28Z</time>
      </trkpt>
      <trkpt lat="57.76596" lon="-4.26391">
        <ele>209.78</ele>
        <time>2021-03-20T15:43:33Z</time>
      </trkpt>
      <trkpt lat="57.7656" lon="-4.26478">
        <ele>212.82</ele>
        <time>2021-03-20T15:43:37Z</time>
      </trkpt>
      <trkpt lat="57.76532" lon="-4.26523">
        <ele>211.04</ele>
        <time>2021-03-20T15:43:42Z</time>
      </trkpt>
      <trkpt lat="57.76497" lon="-4.2655">
        <ele>214.46</ele>
        <time>2021-03-20T15:43:47Z</time>
      </trkpt>
      <trkpt lat="57.76391" lon="-4.26566">
        <ele>217.43</ele>
        <time>2021-03-20T15:43:51Z</time>
      </trkpt>
      <trkpt lat="57.7636" lon="-4.26565">
        <ele>217.96</ele>
        <time>2021-03-20T15:43:56Z</time>
      </trkpt>
      <trkpt lat="57.76332" lon="-4.26557">
        <ele>218.92</ele>
        <time>2021-03-20T15:44:01Z</time>
      </trkpt>
      <trkpt lat="57.76287" lon="-4.26531">
        <ele>220.66</ele>
        <time>2021-03-20T15:44:05Z</time>
      </trkpt>
      <trkpt lat="57.76197" lon="-4.26438">
        <ele>221.91</ele>
        <time>2021-03-20T15:44:10Z</time>
      </trkpt>
      <trkpt lat="57.7607" lon="-4.26293">
        <ele>220.41</ele>
        <time>2021-03-20T15:44:15Z</time>
      </trkpt>
      <trkpt lat="57.7601" lon="-4.26248">
        <ele>217.98</ele>
        <time>2021-03-20T15:44:19Z</time>
      </trkpt>
      <trkpt lat="57.75962" lon="-4.26227">
        <ele>218.11</ele>
        <time>2021-03-20T15:44:24Z</time>
      </trkpt>
      <trkpt lat="57.75895" lon="-4.26205">
        <ele>216.04</ele>
        <time>2021-03-20T15:44:29Z</time>
      </trkpt>
      <trkpt lat="57.75745" lon="-4.26186">
        <ele>213.31</ele>
        <time>2021-03-20T15:44:33Z</time>
      </trkpt>
      <trkpt lat="57.75661" lon="-4.26204">
        <ele>208.87</ele>
        <time>2021-03-20T15:44:38Z</time>
      </trkpt>
      <trkpt lat="57.75449" lon="-4.26316">
        <ele>208.98</ele>
        <time>2021-03-20T15:44:43Z</time>
      </trkpt>
      <trkpt lat="57.75384" lon="-4.26366">
        <ele>205.84</ele>
        <time>2021-03-20T15:44:48Z</time>
      </trkpt>
      <trkpt lat="57.75336" lon="-4.26413">
        <ele>205.96</ele>
        <time>2021-03-20T15:44:52Z</time>
      </trkpt>
      <trkpt lat="57.75293" lon="-4.26475">
        <ele>203.59</ele>
        <time>2021-03-20T15:44:57Z</time>
      </trkpt>
      <trkpt lat="57.75252" lon="-4.26526">
        <ele>200.1</ele>
        <time>2021-03-20T15:45:02Z</time>
      </trkpt>
      <trkpt lat="57.7521" lon="-4.26546">
        <ele>200.84</ele>
        <time>2021-03-20T15:45:06Z</time>
      </trkpt>
      <trkpt lat="57.75171" lon="-4.26556">
        <ele>199.97</ele>
        <time>2021-03-20T15:45:11Z</time>
      </trkpt>
      <trkpt lat="57.74993" lon="-4.26563">
        <ele>198.77</ele>
        <time>2021-03-20T15:45:16Z</time>
      </trkpt>
      <trkpt lat="57.74723" lon="-4.26561">
        <ele>191.36</ele>
        <time>2021-03-20T15:45:20Z</time>
      </trkpt>
      <trkpt lat="57.74614" lon="-4.26596">
        <ele>182.17</ele>
        <time>2021-03-20T15:45:25Z</time>
      </trkpt>
      <trkpt lat="57.74562" lon="-4.2661">
        <ele>185.4</ele>
        <time>2021-03-20T15:45:30Z</time>
      </trkpt>
      <trkpt lat="57.74521" lon="-4.26615">
        <ele>189.54</ele>
        <time>2021-03-20T15:45:34Z</time>
      </trkpt>
      <trkpt lat="57.74491" lon="-4.266">
        <ele>188.75</ele>
        <time>2021-03-20T15:45:39Z</time>
      </trkpt>
      <trkpt lat="57.74443" lon="-4.26566">
        <ele>185.06</ele>
        <time>2021-03-20T15:45:44Z</time>
      </trkpt>
      <trkpt lat="57.74348" lon="-4.26513">
        <ele>182.34</ele>
        <time>2021-03-20T15:45:48Z</time>
      </trkpt>
      <trkpt lat="57.74267" lon="-4.26526">
        <ele>179.94</ele>
        <time>2021-03-20T15:45:53Z</time>
      </trkpt>
      <trkpt lat="57.74186" lon="-4.26576">
        <ele>181.12</ele>
        <time>2021-03-20T15:45:58Z</time>
      </trkpt>
      <trkpt lat="57.74145" lon="-4.26612">
        <ele>179.65</ele>
        <time>2021-03-20T15:46:03Z</time>
      </trkpt>
      <trkpt lat="57.74079" lon="-4.26656">
        <ele>177.07</ele>
        <time>2021-03-20T15:46:07Z</time>
      </trkpt>
      <trkpt lat="57.74017" lon="-4.26665">
        <ele>175.86</ele>
        <time>2021-03-20T15:46:12Z</time>
      </trkpt>
      <trkpt lat="57.73959" lon="-4.26666">
        <ele>175.96</ele>
        <time>2021-03-20T15:46:17Z</time>
      </trkpt>
      <trkpt lat="57.73848" lon="-4.26716">
        <ele>174.53</ele>
        <time>2021-03-20T15:46:21Z</time>
      </trkpt>
      <trkpt lat="57.73775" lon="-4.26787">
        <ele>172.83</ele>
        <time>2021-03-20T15:46:26Z</time>
      </trkpt>
      <trkpt lat="57.73748" lon="-4.26854">
        <ele>170.02</ele>
        <time>2021-03-20T15:46:31Z</time>
      </trkpt>
      <trkpt lat="57.73741" lon="-4.26915">
        <ele>167.8</ele>
        <time>2021-03-20T15:46:35Z</time>
      </trkpt>
      <trkpt lat="57.73755" lon="-4.27044">
        <ele>164.57</ele>
        <time>2021-03-20T15:46:40Z</time>
      </trkpt>
      <trkpt lat="57.73748" lon="-4.27103">
        <ele>163.86</ele>
        <time>2021-03-20T15:46:45Z</time>
      </trkpt>
      <trkpt lat="57.73717" lon="-4.27145">
        <ele>163.22</ele>
        <time>2021-03-20T15:46:49Z</time>
      </trkpt>
      <trkpt lat="57.7346" lon="-4.2738">
        <ele>156.55</ele>
        <time>2021-03-20T15:46:54Z</time>
      </trkpt>
      <trkpt lat="57.73027" lon="-4.28065">
        <ele>136.64</ele>
        <time>2021-03-20T15:46:59Z</time>
      </trkpt>
      <trkpt lat="57.72926" lon="-4.28222">
        <ele>134</ele>
        <time>2021-03-20T15:47:03Z</time>
      </trkpt>
      <trkpt lat="57.72877" lon="-4.28293">
        <ele>132.44</ele>
        <time>2021-03-20T15:47:08Z</time>
      </trkpt>
      <trkpt lat="57.72849" lon="-4.28313">
        <ele>132</ele>
        <time>2021-03-20T15:47:13Z</time>
      </trkpt>
      <trkpt lat="57.72804" lon="-4.28336">
        <ele>132.75</ele>
        <time>2021-03-20T15:47:18Z</time>
      </trkpt>
      <trkpt lat="57.72754" lon="-4.28353">
        <ele>128.55</ele>
        <time>2021-03-20T15:47:22Z</time>
      </trkpt>
      <trkpt lat="57.72666" lon="-4.28365">
        <ele>124.85</ele>
        <time>2021-03-20T15:47:27Z</time>
      </trkpt>
      <trkpt lat="57.72642" lon="-4.28375">
        <ele>124.49</ele>
        <time>2021-03-20T15:47:32Z</time>
      </trkpt>
      <trkpt lat="57.72599" lon="-4.28403">
        <ele>123.66</ele>
        <time>2021-03-20T15:47:36Z</time>
      </trkpt>
      <trkpt lat="57.72494" lon="-4.28489">
        <ele>122.4</ele>
        <time>2021-03-20T15:47:41Z</time>
      </trkpt>
      <trkpt lat="57.72455" lon="-4.28516">
        <ele>124.35</ele>
        <time>2021-03-20T15:47:46Z</time>
      </trkpt>
      <trkpt lat="57.7241" lon="-4.28538">
        <ele>123.65</ele>
        <time>2021-03-20T15:47:50Z</time>
      </trkpt>
      <trkpt lat="57.72381" lon="-4.28528">
        <ele>123.72</ele>
        <time>2021-03-20T15:47:55Z</time>
      </trkpt>
      <trkpt lat="57.72358" lon="-4.28516">
        <ele>123.69</ele>
        <time>2021-03-20T15:48:00Z</time>
      </trkpt>
      <trkpt lat="57.72332" lon="-4.28492">
        <ele>124.12</ele>
        <time>2021-03-20T15:48:04Z</time>
      </trkpt>
      <trkpt lat="57.72299" lon="-4.28446">
        <ele>123.15</ele>
        <time>2021-03-20T15:48:09Z</time>
      </trkpt>
      <trkpt lat="57.72193" lon="-4.28289">
        <ele>119.13</ele>
        <time>2021-03-20T15:48:14Z</time>
      </trkpt>
      <trkpt lat="57.7216" lon="-4.28243">
        <ele>118.8</ele>
        <time>2021-03-20T15:48:18Z</time>
      </trkpt>
      <trkpt lat="57.72125" lon="-4.28206">
        <ele>118.86</ele>
        <time>2021-03-20T15:48:23Z</time>
      </trkpt>
      <trkpt lat="57.7209" lon="-4.28174">
        <ele>118.23</ele>
        <time>2021-03-20T15:48:28Z</time>
      </trkpt>
      <trkpt lat="57.7205" lon="-4.2815">
        <ele>116.42</ele>
        <time>2021-03-20T15:48:33Z</time>
      </trkpt>
      <trkpt lat="57.72023" lon="-4.28137">
        <ele>118.12</ele>
        <time>2021-03-20T15:48:37Z</time>
      </trkpt>
      <trkpt lat="57.71945" lon="-4.28111">
        <ele>119.11</ele>
        <time>2021-03-20T15:48:42Z</time>
      </trkpt>
      <trkpt lat="57.71864" lon="-4.2805">
        <ele>114.32</ele>
        <time>2021-03-20T15:48:47Z</time>
      </trkpt>
      <trkpt lat="57.71772" lon="-4.2801">
        <ele>105.61</ele>
        <time>2021-03-20T15:48:51Z</time>
      </trkpt>
      <trkpt lat="57.71629" lon="-4.27999">
        <ele>91.36</ele>
        <time>2021-03-20T15:48:56Z</time>
      </trkpt>
      <trkpt lat="57.71573" lon="-4.28022">
        <ele>82.76</ele>
        <time>2021-03-20T15:49:01Z</time>
      </trkpt>
      <trkpt lat="57.71507" lon="-4.27989">
        <ele>74.16</ele>
        <time>2021-03-20T15:49:05Z</time>
      </trkpt>
      <trkpt lat="57.71466" lon="-4.28012">
        <ele>64.8</ele>
        <time>2021-03-20T15:49:10Z</time>
      </trkpt>
      <trkpt lat="57.71415" lon="-4.2807">
        <ele>59.38</ele>
        <time>2021-03-20T15:49:15Z</time>
      </trkpt>
      <trkpt lat="57.71389" lon="-4.28123">
        <ele>58.41</ele>
        <time>2021-03-20T15:49:19Z</time>
      </trkpt>
      <trkpt lat="57.71372" lon="-4.28175">
        <ele>58.81</ele>
        <time>2021-03-20T15:49:24Z</time>
      </trkpt>
      <trkpt lat="57.71373" lon="-4.28281">
        <ele>69.34</ele>
        <time>2021-03-20T15:49:29Z</time>
      </trkpt>
      <trkpt lat="57.71363" lon="-4.28317">
        <ele>77.84</ele>
        <time>2021-03-20T15:49:34Z</time>
      </trkpt>
      <trkpt lat="57.71334" lon="-4.28322">
        <ele>83.71</ele>
        <time>2021-03-20T15:49:38Z</time>
      </trkpt>
      <trkpt lat="57.7131" lon="-4.2831">
        <ele>84.53</ele>
        <time>2021-03-20T15:49:43Z</time>
      </trkpt>
      <trkpt lat="57.71272" lon="-4.2827">
        <ele>82.9</ele>
        <time>2021-03-20T15:49:48Z</time>
      </trkpt>
      <trkpt lat="57.71223" lon="-4.28187">
        <ele>86.89</ele>
        <time>2021-03-20T15:49:52Z</time>
      </trkpt>
      <trkpt lat="57.71204" lon="-4.28101">
        <ele>85.4</ele>
        <time>2021-03-20T15:49:57Z</time>
      </trkpt>
      <trkpt lat="57.71194" lon="-4.28004">
        <ele>89.88</ele>
        <time>2021-03-20T15:50:02Z</time>
      </trkpt>
      <trkpt lat="57.71174" lon="-4.27959">
        <ele>92.32</ele>
        <time>2021-03-20T15:50:06Z</time>
      </trkpt>
      <trkpt lat="57.71127" lon="-4.27951">
        <ele>93.22</ele>
        <time>2021-03-20T15:50:11Z</time>
      </trkpt>
      <trkpt lat="57.71034" lon="-4.28016">
        <ele>94.24</ele>
        <time>2021-03-20T15:50:16Z</time>
      </trkpt>
      <trkpt lat="57.70898" lon="-4.28147">
        <ele>90.31</ele>
        <time>2021-03-20T15:50:20Z</time>
      </trkpt>
      <trkpt lat="57.70717" lon="-4.28388">
        <ele>85.8</ele>
        <time>2021-03-20T15:50:25Z</time>
      </trkpt>
      <trkpt lat="57.70586" lon="-4.28484">
        <ele>82.53</ele>
        <time>2021-03-20T15:50:30Z</time>
      </trkpt>
      <trkpt lat="57.70341" lon="-4.28586">
        <ele>77.27</ele>
        <time>2021-03-20T15:50:34Z</time>
      </trkpt>
      <trkpt lat="57.70077" lon="-4.28736">
        <ele>71.27</ele>
        <time>2021-03-20T15:50:39Z</time>
      </trkpt>
      <trkpt lat="57.69968" lon="-4.288">
        <ele>69</ele>
        <time>2021-03-20T15:50:44Z</time>
      </trkpt>
      <trkpt lat="57.69887" lon="-4.2883">
        <ele>68.06</ele>
        <time>2021-03-20T15:50:49Z</time>
      </trkpt>
      <trkpt lat="57.69852" lon="-4.2883">
        <ele>68.89</ele>
        <time>2021-03-20T15:50:53Z</time>
      </trkpt>
      <trkpt lat="57.69756" lon="-4.28812">
        <ele>66.65</ele>
        <time>2021-03-20T15:50:58Z</time>
      </trkpt>
      <trkpt lat="57.69732" lon="-4.2882">
        <ele>65.68</ele>
        <time>2021-03-20T15:51:03Z</time>
      </trkpt>
      <trkpt lat="57.69696" lon="-4.28861">
        <ele>65.27</ele>
        <time>2021-03-20T15:51:07Z</time>
      </trkpt>
      <trkpt lat="57.6962" lon="-4.28965">
        <ele>61.13</ele>
        <time>2021-03-20T15:51:12Z</time>
      </trkpt>
      <trkpt lat="57.69551" lon="-4.29079">
        <ele>56.6</ele>
        <time>2021-03-20T15:51:17Z</time>
      </trkpt>
      <trkpt lat="57.69453" lon="-4.29244">
        <ele>51.87</ele>
        <time>2021-03-20T15:51:21Z</time>
      </trkpt>
      <trkpt lat="57.69383" lon="-4.29327">
        <ele>51.1</ele>
        <time>2021-03-20T15:51:26Z</time>
      </trkpt>
      <trkpt lat="57.69296" lon="-4.29377">
        <ele>47.79</ele>
        <time>2021-03-20T15:51:31Z</time>
      </trkpt>
      <trkpt lat="57.69214" lon="-4.29412">
        <ele>46.16</ele>
        <time>2021-03-20T15:51:35Z</time>
      </trkpt>
      <trkpt lat="57.69083" lon="-4.29417">
        <ele>36.97</ele>
        <time>2021-03-20T15:51:40Z</time>
      </trkpt>
      <trkpt lat="57.69007" lon="-4.29411">
        <ele>33.03</ele>
        <time>2021-03-20T15:51:45Z</time>
      </trkpt>
      <trkpt lat="57.68789" lon="-4.29406">
        <ele>32.38</ele>
        <time>2021-03-20T15:51:49Z</time>
      </trkpt>
      <trkpt lat="57.68409" lon="-4.29521">
        <ele>20.54</ele>
        <time>2021-03-20T15:51:54Z</time>
      </trkpt>
      <trkpt lat="57.68318" lon="-4.29559">
        <ele>21.38</ele>
        <time>2021-03-20T15:52:06Z</time>
      </trkpt>
      <trkpt lat="57.68185" lon="-4.29654">
        <ele>19</ele>
        <time>2021-03-20T15:52:18Z</time>
      </trkpt>
      <trkpt lat="57.68201" lon="-4.2973">
        <ele>20.84</ele>
        <time>2021-03-20T15:52:24Z</time>
      </trkpt>
      <trkpt lat="57.68201" lon="-4.2975">
        <ele>21.73</ele>
        <time>2021-03-20T15:52:30Z</time>
      </trkpt>
      <trkpt lat="57.68196" lon="-4.2977">
        <ele>21.97</ele>
        <time>2021-03-20T15:52:36Z</time>
      </trkpt>
      <trkpt lat="57.68188" lon="-4.29786">
        <ele>22.35</ele>
        <time>2021-03-20T15:52:43Z</time>
      </trkpt>
      <trkpt lat="57.68163" lon="-4.29803">
        <ele>22.82</ele>
        <time>2021-03-20T15:52:49Z</time>
      </trkpt>
      <trkpt lat="57.68132" lon="-4.29831">
        <ele>24.61</ele>
        <time>2021-03-20T15:52:55Z</time>
      </trkpt>
      <trkpt lat="57.68097" lon="-4.29879">
        <ele>25.16</ele>
        <time>2021-03-20T15:53:01Z</time>
      </trkpt>
      <trkpt lat="57.68064" lon="-4.29934">
        <ele>24.96</ele>
        <time>2021-03-20T15:53:07Z</time>
      </trkpt>
      <trkpt lat="57.67969" lon="-4.30123">
        <ele>24.62</ele>
        <time>2021-03-20T15:53:13Z</time>
      </trkpt>
      <trkpt lat="57.6795" lon="-4.30165">
        <ele>26.26</ele>
        <time>2021-03-20T15:53:19Z</time>
      </trkpt>
      <trkpt lat="57.67896" lon="-4.30325">
        <ele>23.9</ele>
        <time>2021-03-20T15:53:25Z</time>
      </trkpt>
      <trkpt lat="57.67868" lon="-4.30412">
        <ele>24.61</ele>
        <time>2021-03-20T15:53:31Z</time>
      </trkpt>
      <trkpt lat="57.67805" lon="-4.30688">
        <ele>24.96</ele>
        <time>2021-03-20T15:53:37Z</time>
      </trkpt>
      <trkpt lat="57.67789" lon="-4.30752">
        <ele>23.39</ele>
        <time>2021-03-20T15:53:43Z</time>
      </trkpt>
      <trkpt lat="57.67765" lon="-4.30839">
        <ele>23.67</ele>
        <time>2021-03-20T15:53:49Z</time>
      </trkpt>
      <trkpt lat="57.67736" lon="-4.30921">
        <ele>25.58</ele>
        <time>2021-03-20T15:53:55Z</time>
      </trkpt>
      <trkpt lat="57.67673" lon="-4.31087">
        <ele>27.1</ele>
        <time>2021-03-20T15:54:01Z</time>
      </trkpt>
      <trkpt lat="57.67627" lon="-4.31266">
        <ele>31.16</ele>
        <time>2021-03-20T15:54:07Z</time>
      </trkpt>
      <trkpt lat="57.67577" lon="-4.31415">
        <ele>28.81</ele>
        <time>2021-03-20T15:54:13Z</time>
      </trkpt>
      <trkpt lat="57.67495" lon="-4.31608">
        <ele>33.5</ele>
        <time>2021-03-20T15:54:19Z</time>
      </trkpt>
      <trkpt lat="57.67425" lon="-4.31797">
        <ele>34.41</ele>
        <time>2021-03-20T15:54:25Z</time>
      </trkpt>
      <trkpt lat="57.67399" lon="-4.31862">
        <ele>33</ele>
        <time>2021-03-20T15:54:31Z</time>
      </trkpt>
      <trkpt lat="57.67379" lon="-4.31897">
        <ele>32.38</ele>
        <time>2021-03-20T15:54:37Z</time>
      </trkpt>
      <trkpt lat="57.67251" lon="-4.32064">
        <ele>26.82</ele>
        <time>2021-03-20T15:54:43Z</time>
      </trkpt>
      <trkpt lat="57.67235" lon="-4.32082">
        <ele>25.47</ele>
        <time>2021-03-20T15:54:49Z</time>
      </trkpt>
      <trkpt lat="57.67007" lon="-4.32383">
        <ele>25</ele>
        <time>2021-03-20T15:54:55Z</time>
      </trkpt>
      <trkpt lat="57.6688" lon="-4.32548">
        <ele>24.33</ele>
        <time>2021-03-20T15:55:01Z</time>
      </trkpt>
      <trkpt lat="57.66675" lon="-4.32811">
        <ele>25.98</ele>
        <time>2021-03-20T15:55:07Z</time>
      </trkpt>
      <trkpt lat="57.66667" lon="-4.32833">
        <ele>26.99</ele>
        <time>2021-03-20T15:55:13Z</time>
      </trkpt>
      <trkpt lat="57.66658" lon="-4.32892">
        <ele>28.2</ele>
        <time>2021-03-20T15:55:19Z</time>
      </trkpt>
      <trkpt lat="57.66612" lon="-4.33249">
        <ele>32.99</ele>
        <time>2021-03-20T15:55:25Z</time>
      </trkpt>
      <trkpt lat="57.66604" lon="-4.33334">
        <ele>31.25</ele>
        <time>2021-03-20T15:55:31Z</time>
      </trkpt>
      <trkpt lat="57.66591" lon="-4.3337">
        <ele>29.14</ele>
        <time>2021-03-20T15:55:37Z</time>
      </trkpt>
      <trkpt lat="57.66492" lon="-4.33529">
        <ele>26.64</ele>
        <time>2021-03-20T15:55:43Z</time>
      </trkpt>
      <trkpt lat="57.66477" lon="-4.33546">
        <ele>28.83</ele>
        <time>2021-03-20T15:55:49Z</time>
      </trkpt>
      <trkpt lat="57.66437" lon="-4.33579">
        <ele>31.85</ele>
        <time>2021-03-20T15:55:55Z</time>
      </trkpt>
      <trkpt lat="57.66419" lon="-4.3359">
        <ele>32.02</ele>
        <time>2021-03-20T15:56:01Z</time>
      </trkpt>
      <trkpt lat="57.66357" lon="-4.3364">
        <ele>30</ele>
        <time>2021-03-20T15:56:07Z</time>
      </trkpt>
      <trkpt lat="57.66142" lon="-4.33827">
        <ele>25.3</ele>
        <time>2021-03-20T15:56:13Z</time>
      </trkpt>
      <trkpt lat="57.66067" lon="-4.33888">
        <ele>26.97</ele>
        <time>2021-03-20T15:56:19Z</time>
      </trkpt>
      <trkpt lat="57.66039" lon="-4.33905">
        <ele>27.58</ele>
        <time>2021-03-20T15:56:25Z</time>
      </trkpt>
      <trkpt lat="57.66001" lon="-4.33923">
        <ele>28</ele>
        <time>2021-03-20T15:56:31Z</time>
      </trkpt>
      <trkpt lat="57.65961" lon="-4.33928">
        <ele>30.4</ele>
        <time>2021-03-20T15:56:37Z</time>
      </trkpt>
      <trkpt lat="57.65922" lon="-4.33924">
        <ele>31.81</ele>
        <time>2021-03-20T15:56:43Z</time>
      </trkpt>
      <trkpt lat="57.65871" lon="-4.33911">
        <ele>34.59</ele>
        <time>2021-03-20T15:56:49Z</time>
      </trkpt>
      <trkpt lat="57.65792" lon="-4.33872">
        <ele>35.52</ele>
        <time>2021-03-20T15:56:55Z</time>
      </trkpt>
      <trkpt lat="57.65738" lon="-4.33877">
        <ele>33.57</ele>
        <time>2021-03-20T15:57:01Z</time>
      </trkpt>
      <trkpt lat="57.65724" lon="-4.33881">
        <ele>33.71</ele>
        <time>2021-03-20T15:57:07Z</time>
      </trkpt>
      <trkpt lat="57.65729" lon="-4.33919">
        <ele>35.07</ele>
        <time>2021-03-20T15:57:11Z</time>
      </trkpt>
      <trkpt lat="57.65776" lon="-4.34134">
        <ele>37.84</ele>
        <time>2021-03-20T15:57:15Z</time>
      </trkpt>
      <trkpt lat="57.65785" lon="-4.34192">
        <ele>36.62</ele>
        <time>2021-03-20T15:57:19Z</time>
      </trkpt>
      <trkpt lat="57.65789" lon="-4.34279">
        <ele>34.58</ele>
        <time>2021-03-20T15:57:23Z</time>
      </trkpt>
      <trkpt lat="57.65787" lon="-4.34563">
        <ele>32.6</ele>
        <time>2021-03-20T15:57:27Z</time>
      </trkpt>
      <trkpt lat="57.6577" lon="-4.34606">
        <ele>33.29</ele>
        <time>2021-03-20T15:57:33Z</time>
      </trkpt>
      <trkpt lat="57.65759" lon="-4.34649">
        <ele>33.39</ele>
        <time>2021-03-20T15:57:38Z</time>
      </trkpt>
      <trkpt lat="57.65734" lon="-4.34701">
        <ele>35.58</ele>
        <time>2021-03-20T15:57:43Z</time>
      </trkpt>
      <trkpt lat="57.65616" lon="-4.34895">
        <ele>37.04</ele>
        <time>2021-03-20T15:57:49Z</time>
      </trkpt>
      <trkpt lat="57.65492" lon="-4.35156">
        <ele>38.3</ele>
        <time>2021-03-20T15:57:54Z</time>
      </trkpt>
      <trkpt lat="57.65447" lon="-4.35259">
        <ele>40</ele>
        <time>2021-03-20T15:57:59Z</time>
      </trkpt>
      <trkpt lat="57.65417" lon="-4.35322">
        <ele>40.99</ele>
        <time>2021-03-20T15:58:05Z</time>
      </trkpt>
      <trkpt lat="57.65406" lon="-4.35339">
        <ele>41.4</ele>
        <time>2021-03-20T15:58:10Z</time>
      </trkpt>
      <trkpt lat="57.65372" lon="-4.3536">
        <ele>42.6</ele>
        <time>2021-03-20T15:58:16Z</time>
      </trkpt>
      <trkpt lat="57.65334" lon="-4.35376">
        <ele>44.97</ele>
        <time>2021-03-20T15:58:21Z</time>
      </trkpt>
      <trkpt lat="57.65268" lon="-4.35389">
        <ele>47.34</ele>
        <time>2021-03-20T15:58:26Z</time>
      </trkpt>
      <trkpt lat="57.65226" lon="-4.35384">
        <ele>49.76</ele>
        <time>2021-03-20T15:58:32Z</time>
      </trkpt>
      <trkpt lat="57.6513" lon="-4.3534">
        <ele>48.24</ele>
        <time>2021-03-20T15:58:37Z</time>
      </trkpt>
      <trkpt lat="57.65058" lon="-4.35296">
        <ele>47.21</ele>
        <time>2021-03-20T15:58:42Z</time>
      </trkpt>
      <trkpt lat="57.65014" lon="-4.35263">
        <ele>45.62</ele>
        <time>2021-03-20T15:58:48Z</time>
      </trkpt>
      <trkpt lat="57.64942" lon="-4.35195">
        <ele>41.22</ele>
        <time>2021-03-20T15:58:53Z</time>
      </trkpt>
      <trkpt lat="57.64911" lon="-4.3517">
        <ele>41.8</ele>
        <time>2021-03-20T15:58:58Z</time>
      </trkpt>
      <trkpt lat="57.64894" lon="-4.35162">
        <ele>43.26</ele>
        <time>2021-03-20T15:59:04Z</time>
      </trkpt>
      <trkpt lat="57.64862" lon="-4.35154">
        <ele>45.08</ele>
        <time>2021-03-20T15:59:09Z</time>
      </trkpt>
      <trkpt lat="57.6478" lon="-4.35158">
        <ele>42.48</ele>
        <time>2021-03-20T15:59:14Z</time>
      </trkpt>
      <trkpt lat="57.64761" lon="-4.35162">
        <ele>42.08</ele>
        <time>2021-03-20T15:59:20Z</time>
      </trkpt>
      <trkpt lat="57.64723" lon="-4.35184">
        <ele>43.89</ele>
        <time>2021-03-20T15:59:25Z</time>
      </trkpt>
      <trkpt lat="57.64438" lon="-4.35512">
        <ele>44.87</ele>
        <time>2021-03-20T15:59:30Z</time>
      </trkpt>
      <trkpt lat="57.64274" lon="-4.35695">
        <ele>47.39</ele>
        <time>2021-03-20T15:59:36Z</time>
      </trkpt>
      <trkpt lat="57.6421" lon="-4.35763">
        <ele>54.3</ele>
        <time>2021-03-20T15:59:41Z</time>
      </trkpt>
      <trkpt lat="57.64134" lon="-4.35855">
        <ele>55.75</ele>
        <time>2021-03-20T15:59:47Z</time>
      </trkpt>
      <trkpt lat="57.64075" lon="-4.35919">
        <ele>51.78</ele>
        <time>2021-03-20T15:59:52Z</time>
      </trkpt>
      <trkpt lat="57.64004" lon="-4.36009">
        <ele>46.33</ele>
        <time>2021-03-20T15:59:57Z</time>
      </trkpt>
      <trkpt lat="57.63758" lon="-4.36364">
        <ele>46.29</ele>
        <time>2021-03-20T16:00:03Z</time>
      </trkpt>
      <trkpt lat="57.63743" lon="-4.36396">
        <ele>45.98</ele>
        <time>2021-03-20T16:00:08Z</time>
      </trkpt>
      <trkpt lat="57.6371" lon="-4.36471">
        <ele>47.94</ele>
        <time>2021-03-20T16:00:13Z</time>
      </trkpt>
      <trkpt lat="57.63691" lon="-4.36524">
        <ele>49.72</ele>
        <time>2021-03-20T16:00:19Z</time>
      </trkpt>
      <trkpt lat="57.63672" lon="-4.36581">
        <ele>50.93</ele>
        <time>2021-03-20T16:00:24Z</time>
      </trkpt>
      <trkpt lat="57.63594" lon="-4.36849">
        <ele>56</ele>
        <time>2021-03-20T16:00:29Z</time>
      </trkpt>
      <trkpt lat="57.63532" lon="-4.37081">
        <ele>59.9</ele>
        <time>2021-03-20T16:00:35Z</time>
      </trkpt>
      <trkpt lat="57.63518" lon="-4.37154">
        <ele>61.83</ele>
        <time>2021-03-20T16:00:40Z</time>
      </trkpt>
      <trkpt lat="57.63507" lon="-4.37242">
        <ele>63.45</ele>
        <time>2021-03-20T16:00:45Z</time>
      </trkpt>
      <trkpt lat="57.63503" lon="-4.37304">
        <ele>64.82</ele>
        <time>2021-03-20T16:00:51Z</time>
      </trkpt>
      <trkpt lat="57.63503" lon="-4.37409">
        <ele>66.88</ele>
        <time>2021-03-20T16:00:56Z</time>
      </trkpt>
      <trkpt lat="57.63498" lon="-4.37433">
        <ele>66.94</ele>
        <time>2021-03-20T16:01:01Z</time>
      </trkpt>
      <trkpt lat="57.63489" lon="-4.37453">
        <ele>66.27</ele>
        <time>2021-03-20T16:01:07Z</time>
      </trkpt>
      <trkpt lat="57.63368" lon="-4.37613">
        <ele>64</ele>
        <time>2021-03-20T16:01:12Z</time>
      </trkpt>
      <trkpt lat="57.63297" lon="-4.37713">
        <ele>65</ele>
        <time>2021-03-20T16:01:17Z</time>
      </trkpt>
      <trkpt lat="57.63223" lon="-4.37809">
        <ele>66</ele>
        <time>2021-03-20T16:01:23Z</time>
      </trkpt>
      <trkpt lat="57.63159" lon="-4.37885">
        <ele>67.54</ele>
        <time>2021-03-20T16:01:28Z</time>
      </trkpt>
      <trkpt lat="57.63097" lon="-4.37949">
        <ele>72.52</ele>
        <time>2021-03-20T16:01:34Z</time>
      </trkpt>
      <trkpt lat="57.63076" lon="-4.37996">
        <ele>74</ele>
        <time>2021-03-20T16:01:39Z</time>
      </trkpt>
      <trkpt lat="57.63054" lon="-4.38053">
        <ele>72.93</ele>
        <time>2021-03-20T16:01:44Z</time>
      </trkpt>
      <trkpt lat="57.63008" lon="-4.38151">
        <ele>72.72</ele>
        <time>2021-03-20T16:01:50Z</time>
      </trkpt>
      <trkpt lat="57.62969" lon="-4.38241">
        <ele>76.08</ele>
        <time>2021-03-20T16:01:55Z</time>
      </trkpt>
      <trkpt lat="57.62923" lon="-4.38385">
        <ele>78.56</ele>
        <time>2021-03-20T16:02:00Z</time>
      </trkpt>
      <trkpt lat="57.62885" lon="-4.38523">
        <ele>83.99</ele>
        <time>2021-03-20T16:02:06Z</time>
      </trkpt>
      <trkpt lat="57.62861" lon="-4.38571">
        <ele>86.87</ele>
        <time>2021-03-20T16:02:11Z</time>
      </trkpt>
      <trkpt lat="57.62813" lon="-4.38654">
        <ele>87.76</ele>
        <time>2021-03-20T16:02:16Z</time>
      </trkpt>
      <trkpt lat="57.62782" lon="-4.38706">
        <ele>86.44</ele>
        <time>2021-03-20T16:02:22Z</time>
      </trkpt>
      <trkpt lat="57.62748" lon="-4.38751">
        <ele>86</ele>
        <time>2021-03-20T16:02:27Z</time>
      </trkpt>
      <trkpt lat="57.62705" lon="-4.38838">
        <ele>88.58</ele>
        <time>2021-03-20T16:02:32Z</time>
      </trkpt>
      <trkpt lat="57.62569" lon="-4.39125">
        <ele>94.47</ele>
        <time>2021-03-20T16:02:38Z</time>
      </trkpt>
      <trkpt lat="57.62535" lon="-4.39204">
        <ele>94.51</ele>
        <time>2021-03-20T16:02:43Z</time>
      </trkpt>
      <trkpt lat="57.62499" lon="-4.39279">
        <ele>97.04</ele>
        <time>2021-03-20T16:02:48Z</time>
      </trkpt>
      <trkpt lat="57.62474" lon="-4.39317">
        <ele>97.1</ele>
        <time>2021-03-20T16:02:54Z</time>
      </trkpt>
      <trkpt lat="57.62452" lon="-4.39345">
        <ele>96.69</ele>
        <time>2021-03-20T16:02:59Z</time>
      </trkpt>
      <trkpt lat="57.62437" lon="-4.39355">
        <ele>96.77</ele>
        <time>2021-03-20T16:03:05Z</time>
      </trkpt>
      <trkpt lat="57.62383" lon="-4.39378">
        <ele>96.38</ele>
        <time>2021-03-20T16:03:10Z</time>
      </trkpt>
      <trkpt lat="57.62361" lon="-4.39394">
        <ele>96.19</ele>
        <time>2021-03-20T16:03:15Z</time>
      </trkpt>
      <trkpt lat="57.62338" lon="-4.39421">
        <ele>96.18</ele>
        <time>2021-03-20T16:03:21Z</time>
      </trkpt>
      <trkpt lat="57.62305" lon="-4.39478">
        <ele>97</ele>
        <time>2021-03-20T16:03:26Z</time>
      </trkpt>
      <trkpt lat="57.62269" lon="-4.39548">
        <ele>98.69</ele>
        <time>2021-03-20T16:03:31Z</time>
      </trkpt>
      <trkpt lat="57.62226" lon="-4.39615">
        <ele>97.57</ele>
        <time>2021-03-20T16:03:37Z</time>
      </trkpt>
      <trkpt lat="57.62197" lon="-4.39678">
        <ele>98.92</ele>
        <time>2021-03-20T16:03:42Z</time>
      </trkpt>
      <trkpt lat="57.62167" lon="-4.39756">
        <ele>101.23</ele>
        <time>2021-03-20T16:03:47Z</time>
      </trkpt>
      <trkpt lat="57.62135" lon="-4.39826">
        <ele>103.35</ele>
        <time>2021-03-20T16:03:53Z</time>
      </trkpt>
      <trkpt lat="57.62084" lon="-4.39932">
        <ele>106.57</ele>
        <time>2021-03-20T16:03:58Z</time>
      </trkpt>
      <trkpt lat="57.62062" lon="-4.39991">
        <ele>108.89</ele>
        <time>2021-03-20T16:04:03Z</time>
      </trkpt>
      <trkpt lat="57.62036" lon="-4.40075">
        <ele>111</ele>
        <time>2021-03-20T16:04:09Z</time>
      </trkpt>
      <trkpt lat="57.62003" lon="-4.40152">
        <ele>113.64</ele>
        <time>2021-03-20T16:04:14Z</time>
      </trkpt>
      <trkpt lat="57.61976" lon="-4.402">
        <ele>113.49</ele>
        <time>2021-03-20T16:04:19Z</time>
      </trkpt>
      <trkpt lat="57.61914" lon="-4.40281">
        <ele>112.21</ele>
        <time>2021-03-20T16:04:25Z</time>
      </trkpt>
      <trkpt lat="57.61885" lon="-4.40314">
        <ele>112.35</ele>
        <time>2021-03-20T16:04:30Z</time>
      </trkpt>
      <trkpt lat="57.61836" lon="-4.40384">
        <ele>112.86</ele>
        <time>2021-03-20T16:04:36Z</time>
      </trkpt>
      <trkpt lat="57.61592" lon="-4.40747">
        <ele>105.96</ele>
        <time>2021-03-20T16:04:41Z</time>
      </trkpt>
      <trkpt lat="57.6156" lon="-4.408">
        <ele>104.25</ele>
        <time>2021-03-20T16:04:46Z</time>
      </trkpt>
      <trkpt lat="57.6152" lon="-4.40897">
        <ele>103.49</ele>
        <time>2021-03-20T16:04:52Z</time>
      </trkpt>
      <trkpt lat="57.61463" lon="-4.41057">
        <ele>105.76</ele>
        <time>2021-03-20T16:04:57Z</time>
      </trkpt>
      <trkpt lat="57.61427" lon="-4.41142">
        <ele>105.67</ele>
        <time>2021-03-20T16:05:02Z</time>
      </trkpt>
      <trkpt lat="57.61326" lon="-4.41336">
        <ele>95.41</ele>
        <time>2021-03-20T16:05:08Z</time>
      </trkpt>
      <trkpt lat="57.61274" lon="-4.41439">
        <ele>88.44</ele>
        <time>2021-03-20T16:05:13Z</time>
      </trkpt>
      <trkpt lat="57.61145" lon="-4.41609">
        <ele>78.23</ele>
        <time>2021-03-20T16:05:18Z</time>
      </trkpt>
      <trkpt lat="57.61122" lon="-4.41647">
        <ele>76.78</ele>
        <time>2021-03-20T16:05:24Z</time>
      </trkpt>
      <trkpt lat="57.61108" lon="-4.4168">
        <ele>76.37</ele>
        <time>2021-03-20T16:05:29Z</time>
      </trkpt>
      <trkpt lat="57.61061" lon="-4.41807">
        <ele>79.4</ele>
        <time>2021-03-20T16:05:34Z</time>
      </trkpt>
      <trkpt lat="57.61021" lon="-4.41892">
        <ele>77.86</ele>
        <time>2021-03-20T16:05:40Z</time>
      </trkpt>
      <trkpt lat="57.60994" lon="-4.41944">
        <ele>77.54</ele>
        <time>2021-03-20T16:05:45Z</time>
      </trkpt>
      <trkpt lat="57.60974" lon="-4.41968">
        <ele>76.96</ele>
        <time>2021-03-20T16:05:50Z</time>
      </trkpt>
      <trkpt lat="57.60935" lon="-4.41993">
        <ele>73.32</ele>
        <time>2021-03-20T16:05:56Z</time>
      </trkpt>
      <trkpt lat="57.60894" lon="-4.42041">
        <ele>70.58</ele>
        <time>2021-03-20T16:06:01Z</time>
      </trkpt>
      <trkpt lat="57.60787" lon="-4.42177">
        <ele>60.23</ele>
        <time>2021-03-20T16:06:06Z</time>
      </trkpt>
      <trkpt lat="57.60696" lon="-4.42288">
        <ele>54.25</ele>
        <time>2021-03-20T16:06:12Z</time>
      </trkpt>
      <trkpt lat="57.60684" lon="-4.42318">
        <ele>52.82</ele>
        <time>2021-03-20T16:06:17Z</time>
      </trkpt>
      <trkpt lat="57.60615" lon="-4.4255">
        <ele>50.3</ele>
        <time>2021-03-20T16:06:23Z</time>
      </trkpt>
      <trkpt lat="57.60577" lon="-4.42669">
        <ele>45.64</ele>
        <time>2021-03-20T16:06:28Z</time>
      </trkpt>
      <trkpt lat="57.60473" lon="-4.4302">
        <ele>39.03</ele>
        <time>2021-03-20T16:06:33Z</time>
      </trkpt>
      <trkpt lat="57.60454" lon="-4.43076">
        <ele>38.6</ele>
        <time>2021-03-20T16:06:39Z</time>
      </trkpt>
      <trkpt lat="57.60304" lon="-4.42984">
        <ele>26.86</ele>
        <time>2021-03-20T16:06:51Z</time>
      </trkpt>
      <trkpt lat="57.60146" lon="-4.4288">
        <ele>8.5</ele>
        <time>2021-03-20T16:07:03Z</time>
      </trkpt>
      <trkpt lat="57.60114" lon="-4.4285">
        <ele>7.62</ele>
        <time>2021-03-20T16:07:16Z</time>
      </trkpt>
      <trkpt lat="57.60105" lon="-4.42837">
        <ele>7.09</ele>
        <time>2021-03-20T16:07:28Z</time>
      </trkpt>
      <trkpt lat="57.60065" lon="-4.42931">
        <ele>7</ele>
        <time>2021-03-20T16:07:36Z</time>
      </trkpt>
      <trkpt lat="57.60052" lon="-4.42917">
        <ele>6.87</ele>
        <time>2021-03-20T16:07:41Z</time>
      </trkpt>
      <trkpt lat="57.60045" lon="-4.42916">
        <ele>6.64</ele>
        <time>2021-03-20T16:07:45Z</time>
      </trkpt>
      <trkpt lat="57.6002" lon="-4.42925">
        <ele>5.72</ele>
        <time>2021-03-20T16:07:50Z</time>
      </trkpt>
      <trkpt lat="57.60002" lon="-4.42927">
        <ele>5.08</ele>
        <time>2021-03-20T16:07:55Z</time>
      </trkpt>
      <trkpt lat="57.59868" lon="-4.42907">
        <ele>4</ele>
        <time>2021-03-20T16:07:59Z</time>
      </trkpt>
      <trkpt lat="57.59837" lon="-4.42899">
        <ele>3.69</ele>
        <time>2021-03-20T16:08:04Z</time>
      </trkpt>
      <trkpt lat="57.59817" lon="-4.42888">
        <ele>4.59</ele>
        <time>2021-03-20T16:08:08Z</time>
      </trkpt>
      <trkpt lat="57.59801" lon="-4.42872">
        <ele>5.15</ele>
        <time>2021-03-20T16:08:13Z</time>
      </trkpt>
      <trkpt lat="57.59733" lon="-4.42794">
        <ele>6.38</ele>
        <time>2021-03-20T16:08:17Z</time>
      </trkpt>
      <trkpt lat="57.59716" lon="-4.42778">
        <ele>6</ele>
        <time>2021-03-20T16:08:22Z</time>
      </trkpt>
      <trkpt lat="57.59676" lon="-4.42748">
        <ele>6</ele>
        <time>2021-03-20T16:08:27Z</time>
      </trkpt>
      <trkpt lat="57.5965" lon="-4.42733">
        <ele>6</ele>
        <time>2021-03-20T16:08:31Z</time>
      </trkpt>
      <trkpt lat="57.59621" lon="-4.42726">
        <ele>6.09</ele>
        <time>2021-03-20T16:08:36Z</time>
      </trkpt>
      <trkpt lat="57.59551" lon="-4.42723">
        <ele>8.18</ele>
        <time>2021-03-20T16:08:40Z</time>
      </trkpt>
      <trkpt lat="57.59543" lon="-4.42719">
        <ele>8.46</ele>
        <time>2021-03-20T16:08:45Z</time>
      </trkpt>
      <trkpt lat="57.59536" lon="-4.4271">
        <ele>8.69</ele>
        <time>2021-03-20T16:08:49Z</time>
      </trkpt>
      <trkpt lat="57.59526" lon="-4.42534">
        <ele>8</ele>
        <time>2021-03-20T16:08:55Z</time>
      </trkpt>
      <trkpt lat="57.59509" lon="-4.42425">
        <ele>7.68</ele>
        <time>2021-03-20T16:09:00Z</time>
      </trkpt>
      <trkpt lat="57.59502" lon="-4.42393">
        <ele>7.92</ele>
        <time>2021-03-20T16:09:05Z</time>
      </trkpt>
      <trkpt lat="57.59493" lon="-4.42363">
        <ele>8.26</ele>
        <time>2021-03-20T16:09:10Z</time>
      </trkpt>
      <trkpt lat="57.59483" lon="-4.42347">
        <ele>8.12</ele>
        <time>2021-03-20T16:09:15Z</time>
      </trkpt>
      <trkpt lat="57.59461" lon="-4.42331">
        <ele>8</ele>
        <time>2021-03-20T16:09:20Z</time>
      </trkpt>
      <trkpt lat="57.59454" lon="-4.42329">
        <ele>8</ele>
        <time>2021-03-20T16:09:25Z</time>
      </trkpt>
      <trkpt lat="57.59306" lon="-4.42361">
        <ele>7</ele>
        <time>2021-03-20T16:09:31Z</time>
      </trkpt>
      <trkpt lat="57.59258" lon="-4.42362">
        <ele>7.01</ele>
        <time>2021-03-20T16:09:36Z</time>
      </trkpt>
      <trkpt lat="57.59252" lon="-4.42363">
        <ele>7.06</ele>
        <time>2021-03-20T16:09:41Z</time>
      </trkpt>
      <trkpt lat="57.59237" lon="-4.42385">
        <ele>8.68</ele>
        <time>2021-03-20T16:09:46Z</time>
      </trkpt>
      <trkpt lat="57.59227" lon="-4.42392">
        <ele>10.11</ele>
        <time>2021-03-20T16:09:51Z</time>
      </trkpt>
      <trkpt lat="57.59178" lon="-4.42388">
        <ele>9.37</ele>
        <time>2021-03-20T16:10:01Z</time>
      </trkpt>
      <trkpt lat="57.59129" lon="-4.42396">
        <ele>8.92</ele>
        <time>2021-03-20T16:10:10Z</time>
      </trkpt>
      <trkpt lat="57.59015" lon="-4.4242">
        <ele>10.12</ele>
        <time>2021-03-20T16:10:19Z</time>
      </trkpt>
      <trkpt lat="57.58985" lon="-4.42431">
        <ele>10.81</ele>
        <time>2021-03-20T16:10:29Z</time>
      </trkpt>
      <trkpt lat="57.5893" lon="-4.42462">
        <ele>14.12</ele>
        <time>2021-03-20T16:10:38Z</time>
      </trkpt>
      <trkpt lat="57.58889" lon="-4.42499">
        <ele>15.87</ele>
        <time>2021-03-20T16:10:48Z</time>
      </trkpt>
      <trkpt lat="57.58833" lon="-4.42571">
        <ele>14.07</ele>
        <time>2021-03-20T16:10:57Z</time>
      </trkpt>
      <trkpt lat="57.58784" lon="-4.42641">
        <ele>14.64</ele>
        <time>2021-03-20T16:11:07Z</time>
      </trkpt>
      <trkpt lat="57.58721" lon="-4.42708">
        <ele>14.89</ele>
        <time>2021-03-20T16:11:16Z</time>
      </trkpt>
      <trkpt lat="57.58685" lon="-4.42745">
        <ele>13.61</ele>
        <time>2021-03-20T16:11:25Z</time>
      </trkpt>
      <trkpt lat="57.58643" lon="-4.42803">
        <ele>12.2</ele>
        <time>2021-03-20T16:11:35Z</time>
      </trkpt>
      <trkpt lat="57.58464" lon="-4.43071">
        <ele>13.25</ele>
        <time>2021-03-20T16:11:44Z</time>
      </trkpt>
      <trkpt lat="57.58331" lon="-4.43264">
        <ele>14.54</ele>
        <time>2021-03-20T16:11:54Z</time>
      </trkpt>
      <trkpt lat="57.58331" lon="-4.43264">
        <ele>14.54</ele>
        <time>2021-03-20T16:11:54Z</time>
      </trkpt>
      <trkpt lat="57.58206" lon="-4.43444">
        <ele>15.82</ele>
        <time>2021-03-20T16:12:03Z</time>
      </trkpt>
      <trkpt lat="57.5802" lon="-4.43686">
        <ele>12.49</ele>
        <time>2021-03-20T16:12:13Z</time>
      </trkpt>
      <trkpt lat="57.57989" lon="-4.43716">
        <ele>11.61</ele>
        <time>2021-03-20T16:12:23Z</time>
      </trkpt>
      <trkpt lat="57.57961" lon="-4.43739">
        <ele>11.61</ele>
        <time>2021-03-20T16:12:32Z</time>
      </trkpt>
      <trkpt lat="57.5794" lon="-4.43738">
        <ele>11.58</ele>
        <time>2021-03-20T16:12:42Z</time>
      </trkpt>
      <trkpt lat="57.57934" lon="-4.43735">
        <ele>11.45</ele>
        <time>2021-03-20T16:12:50Z</time>
      </trkpt>
      <trkpt lat="57.57901" lon="-4.43692">
        <ele>10.4</ele>
        <time>2021-03-20T16:12:58Z</time>
      </trkpt>
      <trkpt lat="57.57849" lon="-4.43594">
        <ele>10</ele>
        <time>2021-03-20T16:13:07Z</time>
      </trkpt>
      <trkpt lat="57.57798" lon="-4.43517">
        <ele>8.71</ele>
        <time>2021-03-20T16:13:15Z</time>
      </trkpt>
      <trkpt lat="57.57785" lon="-4.43499">
        <ele>8.69</ele>
        <time>2021-03-20T16:13:23Z</time>
      </trkpt>
      <trkpt lat="57.57716" lon="-4.43418">
        <ele>6.79</ele>
        <time>2021-03-20T16:13:31Z</time>
      </trkpt>
      <trkpt lat="57.57534" lon="-4.43245">
        <ele>6.81</ele>
        <time>2021-03-20T16:13:39Z</time>
      </trkpt>
      <trkpt lat="57.57429" lon="-4.43136">
        <ele>3.87</ele>
        <time>2021-03-20T16:13:48Z</time>
      </trkpt>
      <trkpt lat="57.57317" lon="-4.43027">
        <ele>4.57</ele>
        <time>2021-03-20T16:13:56Z</time>
      </trkpt>
      <trkpt lat="57.56642" lon="-4.42387">
        <ele>28</ele>
        <time>2021-03-20T16:14:04Z</time>
      </trkpt>
      <trkpt lat="57.56658" lon="-4.42329">
        <ele>28.32</ele>
        <time>2021-03-20T16:14:09Z</time>
      </trkpt>
      <trkpt lat="57.56668" lon="-4.42309">
        <ele>27.97</ele>
        <time>2021-03-20T16:14:13Z</time>
      </trkpt>
      <trkpt lat="57.56681" lon="-4.42292">
        <ele>27.74</ele>
        <time>2021-03-20T16:14:18Z</time>
      </trkpt>
      <trkpt lat="57.56722" lon="-4.42257">
        <ele>27.01</ele>
        <time>2021-03-20T16:14:23Z</time>
      </trkpt>
      <trkpt lat="57.56737" lon="-4.42239">
        <ele>26.47</ele>
        <time>2021-03-20T16:14:27Z</time>
      </trkpt>
      <trkpt lat="57.56757" lon="-4.42202">
        <ele>26</ele>
        <time>2021-03-20T16:14:32Z</time>
      </trkpt>
      <trkpt lat="57.5683" lon="-4.42005">
        <ele>26.98</ele>
        <time>2021-03-20T16:14:36Z</time>
      </trkpt>
      <trkpt lat="57.56876" lon="-4.41801">
        <ele>27.53</ele>
        <time>2021-03-20T16:14:41Z</time>
      </trkpt>
      <trkpt lat="57.56914" lon="-4.41713">
        <ele>27.43</ele>
        <time>2021-03-20T16:14:46Z</time>
      </trkpt>
      <trkpt lat="57.57029" lon="-4.4147">
        <ele>29.04</ele>
        <time>2021-03-20T16:14:50Z</time>
      </trkpt>
      <trkpt lat="57.57148" lon="-4.41248">
        <ele>27.84</ele>
        <time>2021-03-20T16:14:55Z</time>
      </trkpt>
      <trkpt lat="57.5732" lon="-4.41026">
        <ele>25.56</ele>
        <time>2021-03-20T16:14:59Z</time>
      </trkpt>
      <trkpt lat="57.57621" lon="-4.40702">
        <ele>25.76</ele>
        <time>2021-03-20T16:15:04Z</time>
      </trkpt>
      <trkpt lat="57.5785" lon="-4.40416">
        <ele>22</ele>
        <time>2021-03-20T16:15:09Z</time>
      </trkpt>
      <trkpt lat="57.57875" lon="-4.40358">
        <ele>21.49</ele>
        <time>2021-03-20T16:15:13Z</time>
      </trkpt>
      <trkpt lat="57.57909" lon="-4.40265">
        <ele>19.29</ele>
        <time>2021-03-20T16:15:18Z</time>
      </trkpt>
      <trkpt lat="57.57928" lon="-4.40223">
        <ele>19</ele>
        <time>2021-03-20T16:15:23Z</time>
      </trkpt>
      <trkpt lat="57.57954" lon="-4.40178">
        <ele>18.65</ele>
        <time>2021-03-20T16:15:27Z</time>
      </trkpt>
      <trkpt lat="57.57991" lon="-4.40133">
        <ele>18</ele>
        <time>2021-03-20T16:15:32Z</time>
      </trkpt>
      <trkpt lat="57.58189" lon="-4.39956">
        <ele>14.67</ele>
        <time>2021-03-20T16:15:36Z</time>
      </trkpt>
      <trkpt lat="57.58206" lon="-4.39928">
        <ele>15</ele>
        <time>2021-03-20T16:15:41Z</time>
      </trkpt>
      <trkpt lat="57.58212" lon="-4.39903">
        <ele>15</ele>
        <time>2021-03-20T16:15:46Z</time>
      </trkpt>
      <trkpt lat="57.58213" lon="-4.39864">
        <ele>15</ele>
        <time>2021-03-20T16:15:50Z</time>
      </trkpt>
      <trkpt lat="57.5821" lon="-4.3985">
        <ele>15</ele>
        <time>2021-03-20T16:15:55Z</time>
      </trkpt>
      <trkpt lat="57.58203" lon="-4.39827">
        <ele>15</ele>
        <time>2021-03-20T16:16:00Z</time>
      </trkpt>
      <trkpt lat="57.58176" lon="-4.39775">
        <ele>15</ele>
        <time>2021-03-20T16:16:04Z</time>
      </trkpt>
      <trkpt lat="57.58339" lon="-4.39413">
        <ele>14.32</ele>
        <time>2021-03-20T16:16:10Z</time>
      </trkpt>
      <trkpt lat="57.58416" lon="-4.39252">
        <ele>19.05</ele>
        <time>2021-03-20T16:16:16Z</time>
      </trkpt>
      <trkpt lat="57.58901" lon="-4.38362">
        <ele>14.58</ele>
        <time>2021-03-20T16:16:22Z</time>
      </trkpt>
      <trkpt lat="57.58911" lon="-4.38335">
        <ele>14.94</ele>
        <time>2021-03-20T16:16:28Z</time>
      </trkpt>
      <trkpt lat="57.5892" lon="-4.38284">
        <ele>14.86</ele>
        <time>2021-03-20T16:16:35Z</time>
      </trkpt>
      <trkpt lat="57.58932" lon="-4.38132">
        <ele>17.56</ele>
        <time>2021-03-20T16:16:41Z</time>
      </trkpt>
      <trkpt lat="57.58932" lon="-4.38115">
        <ele>17.84</ele>
        <time>2021-03-20T16:16:47Z</time>
      </trkpt>
      <trkpt lat="57.58928" lon="-4.38098">
        <ele>18.17</ele>
        <time>2021-03-20T16:16:53Z</time>
      </trkpt>
      <trkpt lat="57.58897" lon="-4.38039">
        <ele>21.39</ele>
        <time>2021-03-20T16:16:59Z</time>
      </trkpt>
      <trkpt lat="57.58836" lon="-4.3793">
        <ele>26.9</ele>
        <time>2021-03-20T16:17:05Z</time>
      </trkpt>
      <trkpt lat="57.58831" lon="-4.37917">
        <ele>27.1</ele>
        <time>2021-03-20T16:17:11Z</time>
      </trkpt>
      <trkpt lat="57.5883" lon="-4.37895">
        <ele>27.1</ele>
        <time>2021-03-20T16:17:17Z</time>
      </trkpt>
      <trkpt lat="57.58921" lon="-4.37817">
        <ele>25.6</ele>
        <time>2021-03-20T16:17:21Z</time>
      </trkpt>
      <trkpt lat="57.59023" lon="-4.37725">
        <ele>24.24</ele>
        <time>2021-03-20T16:17:24Z</time>
      </trkpt>
      <trkpt lat="57.59073" lon="-4.37669">
        <ele>23.29</ele>
        <time>2021-03-20T16:17:28Z</time>
      </trkpt>
      <trkpt lat="57.59106" lon="-4.37645">
        <ele>23.78</ele>
        <time>2021-03-20T16:17:31Z</time>
      </trkpt>
      <trkpt lat="57.59249" lon="-4.37571">
        <ele>19.52</ele>
        <time>2021-03-20T16:17:35Z</time>
      </trkpt>
      <trkpt lat="57.59343" lon="-4.3756">
        <ele>13.48</ele>
        <time>2021-03-20T16:17:38Z</time>
      </trkpt>
      <trkpt lat="57.59394" lon="-4.37506">
        <ele>13.61</ele>
        <time>2021-03-20T16:17:42Z</time>
      </trkpt>
      <trkpt lat="57.5946" lon="-4.37473">
        <ele>11.41</ele>
        <time>2021-03-20T16:17:45Z</time>
      </trkpt>
      <trkpt lat="57.59498" lon="-4.37417">
        <ele>12.98</ele>
        <time>2021-03-20T16:17:49Z</time>
      </trkpt>
      <trkpt lat="57.59548" lon="-4.37365">
        <ele>13.12</ele>
        <time>2021-03-20T16:17:52Z</time>
      </trkpt>
      <trkpt lat="57.59619" lon="-4.37325">
        <ele>12.73</ele>
        <time>2021-03-20T16:17:56Z</time>
      </trkpt>
      <trkpt lat="57.5964" lon="-4.37247">
        <ele>10.94</ele>
        <time>2021-03-20T16:17:59Z</time>
      </trkpt>
      <trkpt lat="57.59703" lon="-4.37145">
        <ele>8</ele>
        <time>2021-03-20T16:18:03Z</time>
      </trkpt>
      <trkpt lat="57.5976" lon="-4.37063">
        <ele>8.74</ele>
        <time>2021-03-20T16:18:06Z</time>
      </trkpt>
      <trkpt lat="57.59793" lon="-4.37041">
        <ele>9.52</ele>
        <time>2021-03-20T16:18:10Z</time>
      </trkpt>
      <trkpt lat="57.59836" lon="-4.37044">
        <ele>8.3</ele>
        <time>2021-03-20T16:18:13Z</time>
      </trkpt>
      <trkpt lat="57.59909" lon="-4.37064">
        <ele>3.97</ele>
        <time>2021-03-20T16:18:17Z</time>
      </trkpt>
      <trkpt lat="57.59937" lon="-4.37052">
        <ele>4.11</ele>
        <time>2021-03-20T16:18:21Z</time>
      </trkpt>
      <trkpt lat="57.5998" lon="-4.37003">
        <ele>4.04</ele>
        <time>2021-03-20T16:18:24Z</time>
      </trkpt>
      <trkpt lat="57.60002" lon="-4.36954">
        <ele>3.41</ele>
        <time>2021-03-20T16:18:28Z</time>
      </trkpt>
      <trkpt lat="57.60013" lon="-4.36916">
        <ele>3.09</ele>
        <time>2021-03-20T16:18:31Z</time>
      </trkpt>
      <trkpt lat="57.60018" lon="-4.36832">
        <ele>5.39</ele>
        <time>2021-03-20T16:18:35Z</time>
      </trkpt>
      <trkpt lat="57.60023" lon="-4.36808">
        <ele>6.05</ele>
        <time>2021-03-20T16:18:38Z</time>
      </trkpt>
      <trkpt lat="57.60035" lon="-4.36783">
        <ele>7.37</ele>
        <time>2021-03-20T16:18:42Z</time>
      </trkpt>
      <trkpt lat="57.60054" lon="-4.36733">
        <ele>7.68</ele>
        <time>2021-03-20T16:18:45Z</time>
      </trkpt>
      <trkpt lat="57.6008" lon="-4.3669">
        <ele>7.41</ele>
        <time>2021-03-20T16:18:49Z</time>
      </trkpt>
      <trkpt lat="57.60128" lon="-4.36648">
        <ele>5.49</ele>
        <time>2021-03-20T16:18:52Z</time>
      </trkpt>
      <trkpt lat="57.60225" lon="-4.36513">
        <ele>7.08</ele>
        <time>2021-03-20T16:18:56Z</time>
      </trkpt>
      <trkpt lat="57.60243" lon="-4.36471">
        <ele>9.34</ele>
        <time>2021-03-20T16:18:59Z</time>
      </trkpt>
      <trkpt lat="57.60262" lon="-4.36386">
        <ele>14.8</ele>
        <time>2021-03-20T16:19:03Z</time>
      </trkpt>
      <trkpt lat="57.60299" lon="-4.36263">
        <ele>16.67</ele>
        <time>2021-03-20T16:19:06Z</time>
      </trkpt>
      <trkpt lat="57.60339" lon="-4.36181">
        <ele>13.67</ele>
        <time>2021-03-20T16:19:10Z</time>
      </trkpt>
      <trkpt lat="57.60392" lon="-4.36082">
        <ele>13.04</ele>
        <time>2021-03-20T16:19:13Z</time>
      </trkpt>
      <trkpt lat="57.60481" lon="-4.35898">
        <ele>13.67</ele>
        <time>2021-03-20T16:19:17Z</time>
      </trkpt>
      <trkpt lat="57.60556" lon="-4.35785">
        <ele>13.73</ele>
        <time>2021-03-20T16:19:20Z</time>
      </trkpt>
      <trkpt lat="57.60594" lon="-4.35707">
        <ele>14.61</ele>
        <time>2021-03-20T16:19:24Z</time>
      </trkpt>
      <trkpt lat="57.60858" lon="-4.35475">
        <ele>10.1</ele>
        <time>2021-03-20T16:19:27Z</time>
      </trkpt>
      <trkpt lat="57.60874" lon="-4.35451">
        <ele>10.29</ele>
        <time>2021-03-20T16:19:31Z</time>
      </trkpt>
      <trkpt lat="57.60888" lon="-4.35408">
        <ele>10.36</ele>
        <time>2021-03-20T16:19:35Z</time>
      </trkpt>
      <trkpt lat="57.60895" lon="-4.35366">
        <ele>11.84</ele>
        <time>2021-03-20T16:19:38Z</time>
      </trkpt>
      <trkpt lat="57.60845" lon="-4.3533">
        <ele>13.1</ele>
        <time>2021-03-20T16:19:41Z</time>
      </trkpt>
      <trkpt lat="57.60856" lon="-4.35281">
        <ele>14.89</ele>
        <time>2021-03-20T16:19:46Z</time>
      </trkpt>
      <trkpt lat="57.61011" lon="-4.34874">
        <ele>18.6</ele>
        <time>2021-03-20T16:19:50Z</time>
      </trkpt>
      <trkpt lat="57.61063" lon="-4.34749">
        <ele>22.29</ele>
        <time>2021-03-20T16:19:55Z</time>
      </trkpt>
      <trkpt lat="57.61091" lon="-4.34698">
        <ele>24</ele>
        <time>2021-03-20T16:20:00Z</time>
      </trkpt>
      <trkpt lat="57.61124" lon="-4.34654">
        <ele>23.05</ele>
        <time>2021-03-20T16:20:05Z</time>
      </trkpt>
      <trkpt lat="57.61173" lon="-4.34608">
        <ele>19.78</ele>
        <time>2021-03-20T16:20:09Z</time>
      </trkpt>
      <trkpt lat="57.61199" lon="-4.34567">
        <ele>19.42</ele>
        <time>2021-03-20T16:20:14Z</time>
      </trkpt>
      <trkpt lat="57.61231" lon="-4.34501">
        <ele>19.33</ele>
        <time>2021-03-20T16:20:19Z</time>
      </trkpt>
      <trkpt lat="57.614" lon="-4.34316">
        <ele>19.21</ele>
        <time>2021-03-20T16:20:24Z</time>
      </trkpt>
      <trkpt lat="57.61425" lon="-4.34285">
        <ele>18.46</ele>
        <time>2021-03-20T16:20:29Z</time>
      </trkpt>
      <trkpt lat="57.61484" lon="-4.34171">
        <ele>18.83</ele>
        <time>2021-03-20T16:20:33Z</time>
      </trkpt>
      <trkpt lat="57.61609" lon="-4.34067">
        <ele>18.04</ele>
        <time>2021-03-20T16:20:38Z</time>
      </trkpt>
      <trkpt lat="57.61618" lon="-4.34055">
        <ele>18</ele>
        <time>2021-03-20T16:20:43Z</time>
      </trkpt>
      <trkpt lat="57.61671" lon="-4.33912">
        <ele>19</ele>
        <time>2021-03-20T16:20:48Z</time>
      </trkpt>
      <trkpt lat="57.61713" lon="-4.33848">
        <ele>18.66</ele>
        <time>2021-03-20T16:20:52Z</time>
      </trkpt>
      <trkpt lat="57.61786" lon="-4.33777">
        <ele>20.02</ele>
        <time>2021-03-20T16:20:57Z</time>
      </trkpt>
      <trkpt lat="57.61825" lon="-4.33712">
        <ele>21</ele>
        <time>2021-03-20T16:21:02Z</time>
      </trkpt>
      <trkpt lat="57.61843" lon="-4.33645">
        <ele>21.65</ele>
        <time>2021-03-20T16:21:07Z</time>
      </trkpt>
      <trkpt lat="57.6185" lon="-4.33529">
        <ele>23.38</ele>
        <time>2021-03-20T16:21:11Z</time>
      </trkpt>
      <trkpt lat="57.61902" lon="-4.33313">
        <ele>26.39</ele>
        <time>2021-03-20T16:21:16Z</time>
      </trkpt>
      <trkpt lat="57.6193" lon="-4.33141">
        <ele>29.93</ele>
        <time>2021-03-20T16:21:21Z</time>
      </trkpt>
      <trkpt lat="57.61972" lon="-4.32998">
        <ele>35.08</ele>
        <time>2021-03-20T16:21:26Z</time>
      </trkpt>
      <trkpt lat="57.62038" lon="-4.32861">
        <ele>39.01</ele>
        <time>2021-03-20T16:21:30Z</time>
      </trkpt>
      <trkpt lat="57.62074" lon="-4.32716">
        <ele>44.04</ele>
        <time>2021-03-20T16:21:35Z</time>
      </trkpt>
      <trkpt lat="57.6216" lon="-4.32529">
        <ele>53.21</ele>
        <time>2021-03-20T16:21:40Z</time>
      </trkpt>
      <trkpt lat="57.62297" lon="-4.3228">
        <ele>64.16</ele>
        <time>2021-03-20T16:21:45Z</time>
      </trkpt>
      <trkpt lat="57.62376" lon="-4.32017">
        <ele>74.89</ele>
        <time>2021-03-20T16:21:50Z</time>
      </trkpt>
      <trkpt lat="57.62464" lon="-4.31622">
        <ele>84.89</ele>
        <time>2021-03-20T16:21:54Z</time>
      </trkpt>
      <trkpt lat="57.62475" lon="-4.3155">
        <ele>87.17</ele>
        <time>2021-03-20T16:21:59Z</time>
      </trkpt>
      <trkpt lat="57.62482" lon="-4.31455">
        <ele>89.28</ele>
        <time>2021-03-20T16:22:04Z</time>
      </trkpt>
      <trkpt lat="57.62505" lon="-4.31347">
        <ele>91.53</ele>
        <time>2021-03-20T16:22:09Z</time>
      </trkpt>
      <trkpt lat="57.62521" lon="-4.31251">
        <ele>93.26</ele>
        <time>2021-03-20T16:22:13Z</time>
      </trkpt>
      <trkpt lat="57.62513" lon="-4.31222">
        <ele>94.53</ele>
        <time>2021-03-20T16:22:18Z</time>
      </trkpt>
      <trkpt lat="57.62552" lon="-4.31165">
        <ele>95.86</ele>
        <time>2021-03-20T16:22:25Z</time>
      </trkpt>
      <trkpt lat="57.6262" lon="-4.31055">
        <ele>98</ele>
        <time>2021-03-20T16:22:32Z</time>
      </trkpt>
      <trkpt lat="57.62704" lon="-4.30908">
        <ele>100.34</ele>
        <time>2021-03-20T16:22:39Z</time>
      </trkpt>
      <trkpt lat="57.62966" lon="-4.30436">
        <ele>111.77</ele>
        <time>2021-03-20T16:22:46Z</time>
      </trkpt>
      <trkpt lat="57.63542" lon="-4.2937">
        <ele>119.5</ele>
        <time>2021-03-20T16:22:53Z</time>
      </trkpt>
      <trkpt lat="57.63617" lon="-4.29226">
        <ele>121.54</ele>
        <time>2021-03-20T16:23:00Z</time>
      </trkpt>
      <trkpt lat="57.63884" lon="-4.2847">
        <ele>108.18</ele>
        <time>2021-03-20T16:23:07Z</time>
      </trkpt>
      <trkpt lat="57.64151" lon="-4.27721">
        <ele>95.57</ele>
        <time>2021-03-20T16:23:14Z</time>
      </trkpt>
      <trkpt lat="57.64405" lon="-4.26982">
        <ele>86.58</ele>
        <time>2021-03-20T16:23:21Z</time>
      </trkpt>
      <trkpt lat="57.64588" lon="-4.26483">
        <ele>83.85</ele>
        <time>2021-03-20T16:23:28Z</time>
      </trkpt>
      <trkpt lat="57.64669" lon="-4.26238">
        <ele>81.57</ele>
        <time>2021-03-20T16:23:35Z</time>
      </trkpt>
      <trkpt lat="57.64877" lon="-4.25659">
        <ele>75</ele>
        <time>2021-03-20T16:23:42Z</time>
      </trkpt>
      <trkpt lat="57.65476" lon="-4.23974">
        <ele>67</ele>
        <time>2021-03-20T16:23:48Z</time>
      </trkpt>
      <trkpt lat="57.65531" lon="-4.23831">
        <ele>65</ele>
        <time>2021-03-20T16:23:55Z</time>
      </trkpt>
      <trkpt lat="57.65606" lon="-4.23741">
        <ele>66.66</ele>
        <time>2021-03-20T16:24:02Z</time>
      </trkpt>
      <trkpt lat="57.65616" lon="-4.23726">
        <ele>66.1</ele>
        <time>2021-03-20T16:24:09Z</time>
      </trkpt>
      <trkpt lat="57.65624" lon="-4.23705">
        <ele>66</ele>
        <time>2021-03-20T16:24:16Z</time>
      </trkpt>
      <trkpt lat="57.65719" lon="-4.23381">
        <ele>68</ele>
        <time>2021-03-20T16:24:23Z</time>
      </trkpt>
      <trkpt lat="57.65969" lon="-4.2264">
        <ele>68.1</ele>
        <time>2021-03-20T16:24:30Z</time>
      </trkpt>
      <trkpt lat="57.66033" lon="-4.22463">
        <ele>69.87</ele>
        <time>2021-03-20T16:24:37Z</time>
      </trkpt>
      <trkpt lat="57.66045" lon="-4.22422">
        <ele>70</ele>
        <time>2021-03-20T16:24:44Z</time>
      </trkpt>
      <trkpt lat="57.66134" lon="-4.21864">
        <ele>73</ele>
        <time>2021-03-20T16:24:51Z</time>
      </trkpt>
      <trkpt lat="57.66238" lon="-4.21468">
        <ele>73.35</ele>
        <time>2021-03-20T16:24:58Z</time>
      </trkpt>
      <trkpt lat="57.66338" lon="-4.21115">
        <ele>71.03</ele>
        <time>2021-03-20T16:25:05Z</time>
      </trkpt>
      <trkpt lat="57.66384" lon="-4.20959">
        <ele>69.58</ele>
        <time>2021-03-20T16:25:12Z</time>
      </trkpt>
      <trkpt lat="57.66449" lon="-4.2071">
        <ele>67.82</ele>
        <time>2021-03-20T16:25:19Z</time>
      </trkpt>
      <trkpt lat="57.6652" lon="-4.20473">
        <ele>64.29</ele>
        <time>2021-03-20T16:25:26Z</time>
      </trkpt>
      <trkpt lat="57.66553" lon="-4.20334">
        <ele>63.09</ele>
        <time>2021-03-20T16:25:33Z</time>
      </trkpt>
      <trkpt lat="57.666" lon="-4.20089">
        <ele>63.62</ele>
        <time>2021-03-20T16:25:40Z</time>
      </trkpt>
      <trkpt lat="57.66623" lon="-4.19944">
        <ele>60.57</ele>
        <time>2021-03-20T16:25:47Z</time>
      </trkpt>
      <trkpt lat="57.66649" lon="-4.19785">
        <ele>59.09</ele>
        <time>2021-03-20T16:25:54Z</time>
      </trkpt>
      <trkpt lat="57.66684" lon="-4.196">
        <ele>57.63</ele>
        <time>2021-03-20T16:26:01Z</time>
      </trkpt>
      <trkpt lat="57.66712" lon="-4.19409">
        <ele>56.08</ele>
        <time>2021-03-20T16:26:08Z</time>
      </trkpt>
      <trkpt lat="57.66747" lon="-4.19074">
        <ele>53.48</ele>
        <time>2021-03-20T16:26:14Z</time>
      </trkpt>
      <trkpt lat="57.66811" lon="-4.18526">
        <ele>45.13</ele>
        <time>2021-03-20T16:26:21Z</time>
      </trkpt>
      <trkpt lat="57.66931" lon="-4.18109">
        <ele>42</ele>
        <time>2021-03-20T16:26:28Z</time>
      </trkpt>
      <trkpt lat="57.66966" lon="-4.17993">
        <ele>41</ele>
        <time>2021-03-20T16:26:35Z</time>
      </trkpt>
      <trkpt lat="57.66983" lon="-4.17953">
        <ele>41</ele>
        <time>2021-03-20T16:26:42Z</time>
      </trkpt>
      <trkpt lat="57.67023" lon="-4.17887">
        <ele>40</ele>
        <time>2021-03-20T16:26:49Z</time>
      </trkpt>
      <trkpt lat="57.67036" lon="-4.17856">
        <ele>39.56</ele>
        <time>2021-03-20T16:26:56Z</time>
      </trkpt>
      <trkpt lat="57.67044" lon="-4.17822">
        <ele>39</ele>
        <time>2021-03-20T16:27:03Z</time>
      </trkpt>
      <trkpt lat="57.67047" lon="-4.17787">
        <ele>39</ele>
        <time>2021-03-20T16:27:10Z</time>
      </trkpt>
      <trkpt lat="57.67047" lon="-4.17746">
        <ele>39</ele>
        <time>2021-03-20T16:27:17Z</time>
      </trkpt>
      <trkpt lat="57.67045" lon="-4.17705">
        <ele>39</ele>
        <time>2021-03-20T16:27:24Z</time>
      </trkpt>
      <trkpt lat="57.67036" lon="-4.17654">
        <ele>38</ele>
        <time>2021-03-20T16:27:31Z</time>
      </trkpt>
      <trkpt lat="57.67028" lon="-4.17624">
        <ele>37.47</ele>
        <time>2021-03-20T16:27:38Z</time>
      </trkpt>
      <trkpt lat="57.67019" lon="-4.17602">
        <ele>37</ele>
        <time>2021-03-20T16:27:45Z</time>
      </trkpt>
      <trkpt lat="57.66937" lon="-4.17461">
        <ele>34.58</ele>
        <time>2021-03-20T16:27:52Z</time>
      </trkpt>
      <trkpt lat="57.66846" lon="-4.17277">
        <ele>29</ele>
        <time>2021-03-20T16:27:59Z</time>
      </trkpt>
      <trkpt lat="57.66829" lon="-4.17271">
        <ele>28.83</ele>
        <time>2021-03-20T16:28:06Z</time>
      </trkpt>
      <trkpt lat="57.6681" lon="-4.1727">
        <ele>28.17</ele>
        <time>2021-03-20T16:28:13Z</time>
      </trkpt>
      <trkpt lat="57.66756" lon="-4.17216">
        <ele>25.03</ele>
        <time>2021-03-20T16:28:20Z</time>
      </trkpt>
      <trkpt lat="57.66739" lon="-4.17204">
        <ele>23.79</ele>
        <time>2021-03-20T16:28:27Z</time>
      </trkpt>
      <trkpt lat="57.66707" lon="-4.17189">
        <ele>22.23</ele>
        <time>2021-03-20T16:28:34Z</time>
      </trkpt>
      <trkpt lat="57.66691" lon="-4.17179">
        <ele>21.3</ele>
        <time>2021-03-20T16:28:41Z</time>
      </trkpt>
      <trkpt lat="57.66674" lon="-4.17165">
        <ele>20.22</ele>
        <time>2021-03-20T16:28:47Z</time>
      </trkpt>
      <trkpt lat="57.66662" lon="-4.17159">
        <ele>19.55</ele>
        <time>2021-03-20T16:28:54Z</time>
      </trkpt>
      <trkpt lat="57.66649" lon="-4.17161">
        <ele>19.14</ele>
        <time>2021-03-20T16:29:01Z</time>
      </trkpt>
      <trkpt lat="57.66612" lon="-4.17177">
        <ele>18.42</ele>
        <time>2021-03-20T16:29:08Z</time>
      </trkpt>
      <trkpt lat="57.66594" lon="-4.17181">
        <ele>17.91</ele>
        <time>2021-03-20T16:29:15Z</time>
      </trkpt>
      <trkpt lat="57.66579" lon="-4.17182">
        <ele>17.39</ele>
        <time>2021-03-20T16:29:22Z</time>
      </trkpt>
      <trkpt lat="57.66541" lon="-4.17168">
        <ele>15.52</ele>
        <time>2021-03-20T16:29:29Z</time>
      </trkpt>
      <trkpt lat="57.66531" lon="-4.1717">
        <ele>15.23</ele>
        <time>2021-03-20T16:29:36Z</time>
      </trkpt>
      <trkpt lat="57.66465" lon="-4.17212">
        <ele>13.45</ele>
        <time>2021-03-20T16:29:43Z</time>
      </trkpt>
      <trkpt lat="57.66445" lon="-4.17216">
        <ele>13</ele>
        <time>2021-03-20T16:29:50Z</time>
      </trkpt>
      <trkpt lat="57.66429" lon="-4.17204">
        <ele>12.45</ele>
        <time>2021-03-20T16:29:57Z</time>
      </trkpt>
      <trkpt lat="57.66403" lon="-4.17195">
        <ele>11.52</ele>
        <time>2021-03-20T16:30:04Z</time>
      </trkpt>
      <trkpt lat="57.6639" lon="-4.17195">
        <ele>11.04</ele>
        <time>2021-03-20T16:30:11Z</time>
      </trkpt>
      <trkpt lat="57.66367" lon="-4.17206">
        <ele>8.98</ele>
        <time>2021-03-20T16:30:18Z</time>
      </trkpt>
      <trkpt lat="57.66359" lon="-4.17214">
        <ele>8.52</ele>
        <time>2021-03-20T16:30:25Z</time>
      </trkpt>
      <trkpt lat="57.66343" lon="-4.17239">
        <ele>8.33</ele>
        <time>2021-03-20T16:30:32Z</time>
      </trkpt>
      <trkpt lat="57.6628" lon="-4.17374">
        <ele>8.16</ele>
        <time>2021-03-20T16:30:39Z</time>
      </trkpt>
      <trkpt lat="57.66244" lon="-4.17427">
        <ele>8.37</ele>
        <time>2021-03-20T16:30:46Z</time>
      </trkpt>
      <trkpt lat="57.66229" lon="-4.17439">
        <ele>8.81</ele>
        <time>2021-03-20T16:30:53Z</time>
      </trkpt>
      <trkpt lat="57.66208" lon="-4.17451">
        <ele>8.72</ele>
        <time>2021-03-20T16:31:00Z</time>
      </trkpt>
      <trkpt lat="57.65954" lon="-4.17585">
        <ele>11.32</ele>
        <time>2021-03-20T16:31:07Z</time>
      </trkpt>
      <trkpt lat="57.65913" lon="-4.17613">
        <ele>15.01</ele>
        <time>2021-03-20T16:31:13Z</time>
      </trkpt>
      <trkpt lat="57.65841" lon="-4.1768">
        <ele>13.42</ele>
        <time>2021-03-20T16:31:20Z</time>
      </trkpt>
      <trkpt lat="57.65826" lon="-4.17689">
        <ele>12.48</ele>
        <time>2021-03-20T16:31:27Z</time>
      </trkpt>
      <trkpt lat="57.65818" lon="-4.17689">
        <ele>11.92</ele>
        <time>2021-03-20T16:31:34Z</time>
      </trkpt>
      <trkpt lat="57.65807" lon="-4.1767">
        <ele>11.1</ele>
        <time>2021-03-20T16:31:37Z</time>
      </trkpt>
      <trkpt lat="57.65768" lon="-4.17563">
        <ele>8.93</ele>
        <time>2021-03-20T16:31:39Z</time>
      </trkpt>
      <trkpt lat="57.65749" lon="-4.17522">
        <ele>7.79</ele>
        <time>2021-03-20T16:31:41Z</time>
      </trkpt>
      <trkpt lat="57.6573" lon="-4.17495">
        <ele>7</ele>
        <time>2021-03-20T16:31:44Z</time>
      </trkpt>
      <trkpt lat="57.65698" lon="-4.17473">
        <ele>7.88</ele>
        <time>2021-03-20T16:31:46Z</time>
      </trkpt>
      <trkpt lat="57.6561" lon="-4.17439">
        <ele>9</ele>
        <time>2021-03-20T16:31:49Z</time>
      </trkpt>
      <trkpt lat="57.6561" lon="-4.17424">
        <ele>9</ele>
        <time>2021-03-20T16:31:54Z</time>
      </trkpt>
      <trkpt lat="57.65606" lon="-4.17386">
        <ele>8</ele>
        <time>2021-03-20T16:32:00Z</time>
      </trkpt>
      <trkpt lat="57.65589" lon="-4.17174">
        <ele>7.78</ele>
        <time>2021-03-20T16:32:06Z</time>
      </trkpt>
      <trkpt lat="57.6556" lon="-4.16742">
        <ele>9.02</ele>
        <time>2021-03-20T16:32:11Z</time>
      </trkpt>
      <trkpt lat="57.6556" lon="-4.16708">
        <ele>9.98</ele>
        <time>2021-03-20T16:32:17Z</time>
      </trkpt>
      <trkpt lat="57.65562" lon="-4.1666">
        <ele>11.27</ele>
        <time>2021-03-20T16:32:23Z</time>
      </trkpt>
      <trkpt lat="57.6559" lon="-4.16511">
        <ele>8.12</ele>
        <time>2021-03-20T16:32:28Z</time>
      </trkpt>
      <trkpt lat="57.65653" lon="-4.16272">
        <ele>5.55</ele>
        <time>2021-03-20T16:32:34Z</time>
      </trkpt>
      <trkpt lat="57.65674" lon="-4.16174">
        <ele>5.45</ele>
        <time>2021-03-20T16:32:40Z</time>
      </trkpt>
      <trkpt lat="57.6573" lon="-4.15732">
        <ele>5.22</ele>
        <time>2021-03-20T16:32:45Z</time>
      </trkpt>
      <trkpt lat="57.65733" lon="-4.15685">
        <ele>5.22</ele>
        <time>2021-03-20T16:32:51Z</time>
      </trkpt>
      <trkpt lat="57.65732" lon="-4.15535">
        <ele>4.92</ele>
        <time>2021-03-20T16:32:57Z</time>
      </trkpt>
      <trkpt lat="57.65736" lon="-4.15432">
        <ele>4.45</ele>
        <time>2021-03-20T16:33:02Z</time>
      </trkpt>
      <trkpt lat="57.65744" lon="-4.15381">
        <ele>2.92</ele>
        <time>2021-03-20T16:33:08Z</time>
      </trkpt>
      <trkpt lat="57.65778" lon="-4.15221">
        <ele>5.06</ele>
        <time>2021-03-20T16:33:14Z</time>
      </trkpt>
      <trkpt lat="57.65785" lon="-4.15186">
        <ele>5.81</ele>
        <time>2021-03-20T16:33:19Z</time>
      </trkpt>
      <trkpt lat="57.65801" lon="-4.15014">
        <ele>9.16</ele>
        <time>2021-03-20T16:33:25Z</time>
      </trkpt>
      <trkpt lat="57.65822" lon="-4.14771">
        <ele>8.42</ele>
        <time>2021-03-20T16:33:31Z</time>
      </trkpt>
      <trkpt lat="57.65846" lon="-4.14441">
        <ele>9.53</ele>
        <time>2021-03-20T16:33:36Z</time>
      </trkpt>
      <trkpt lat="57.65853" lon="-4.14336">
        <ele>9.56</ele>
        <time>2021-03-20T16:33:42Z</time>
      </trkpt>
      <trkpt lat="57.6586" lon="-4.14206">
        <ele>6.49</ele>
        <time>2021-03-20T16:33:48Z</time>
      </trkpt>
      <trkpt lat="57.65862" lon="-4.14065">
        <ele>4.63</ele>
        <time>2021-03-20T16:33:53Z</time>
      </trkpt>
      <trkpt lat="57.65871" lon="-4.13991">
        <ele>5.9</ele>
        <time>2021-03-20T16:33:59Z</time>
      </trkpt>
      <trkpt lat="57.65894" lon="-4.13893">
        <ele>2.79</ele>
        <time>2021-03-20T16:34:05Z</time>
      </trkpt>
      <trkpt lat="57.65899" lon="-4.13775">
        <ele>2.28</ele>
        <time>2021-03-20T16:34:10Z</time>
      </trkpt>
      <trkpt lat="57.65887" lon="-4.13563">
        <ele>5.38</ele>
        <time>2021-03-20T16:34:16Z</time>
      </trkpt>
      <trkpt lat="57.65895" lon="-4.13474">
        <ele>5.04</ele>
        <time>2021-03-20T16:34:22Z</time>
      </trkpt>
      <trkpt lat="57.65922" lon="-4.13388">
        <ele>6.43</ele>
        <time>2021-03-20T16:34:27Z</time>
      </trkpt>
      <trkpt lat="57.65932" lon="-4.13326">
        <ele>7.1</ele>
        <time>2021-03-20T16:34:33Z</time>
      </trkpt>
      <trkpt lat="57.65933" lon="-4.13263">
        <ele>4.84</ele>
        <time>2021-03-20T16:34:39Z</time>
      </trkpt>
      <trkpt lat="57.65927" lon="-4.13199">
        <ele>4.24</ele>
        <time>2021-03-20T16:34:44Z</time>
      </trkpt>
      <trkpt lat="57.65909" lon="-4.12876">
        <ele>4.39</ele>
        <time>2021-03-20T16:34:50Z</time>
      </trkpt>
      <trkpt lat="57.65907" lon="-4.12791">
        <ele>4.81</ele>
        <time>2021-03-20T16:34:56Z</time>
      </trkpt>
      <trkpt lat="57.65912" lon="-4.12713">
        <ele>3.9</ele>
        <time>2021-03-20T16:35:01Z</time>
      </trkpt>
      <trkpt lat="57.65924" lon="-4.1264">
        <ele>2.69</ele>
        <time>2021-03-20T16:35:07Z</time>
      </trkpt>
      <trkpt lat="57.6594" lon="-4.12572">
        <ele>3.92</ele>
        <time>2021-03-20T16:35:13Z</time>
      </trkpt>
      <trkpt lat="57.65948" lon="-4.12495">
        <ele>2.86</ele>
        <time>2021-03-20T16:35:18Z</time>
      </trkpt>
      <trkpt lat="57.65955" lon="-4.12274">
        <ele>3.52</ele>
        <time>2021-03-20T16:35:24Z</time>
      </trkpt>
      <trkpt lat="57.65969" lon="-4.12109">
        <ele>10.04</ele>
        <time>2021-03-20T16:35:30Z</time>
      </trkpt>
      <trkpt lat="57.65998" lon="-4.11969">
        <ele>12.18</ele>
        <time>2021-03-20T16:35:35Z</time>
      </trkpt>
      <trkpt lat="57.66026" lon="-4.1181">
        <ele>10.76</ele>
        <time>2021-03-20T16:35:41Z</time>
      </trkpt>
      <trkpt lat="57.66053" lon="-4.11731">
        <ele>6.81</ele>
        <time>2021-03-20T16:35:47Z</time>
      </trkpt>
      <trkpt lat="57.66099" lon="-4.11647">
        <ele>3.63</ele>
        <time>2021-03-20T16:35:52Z</time>
      </trkpt>
      <trkpt lat="57.66119" lon="-4.11574">
        <ele>4.77</ele>
        <time>2021-03-20T16:35:58Z</time>
      </trkpt>
      <trkpt lat="57.66133" lon="-4.11456">
        <ele>3.7</ele>
        <time>2021-03-20T16:36:04Z</time>
      </trkpt>
      <trkpt lat="57.66185" lon="-4.11154">
        <ele>5.72</ele>
        <time>2021-03-20T16:36:09Z</time>
      </trkpt>
      <trkpt lat="57.66226" lon="-4.11013">
        <ele>4.86</ele>
        <time>2021-03-20T16:36:15Z</time>
      </trkpt>
      <trkpt lat="57.66252" lon="-4.10908">
        <ele>3.14</ele>
        <time>2021-03-20T16:36:21Z</time>
      </trkpt>
      <trkpt lat="57.66285" lon="-4.10761">
        <ele>4.9</ele>
        <time>2021-03-20T16:36:26Z</time>
      </trkpt>
      <trkpt lat="57.66341" lon="-4.10328">
        <ele>3.18</ele>
        <time>2021-03-20T16:36:32Z</time>
      </trkpt>
      <trkpt lat="57.66364" lon="-4.10088">
        <ele>3.75</ele>
        <time>2021-03-20T16:36:38Z</time>
      </trkpt>
      <trkpt lat="57.6637" lon="-4.09924">
        <ele>2.67</ele>
        <time>2021-03-20T16:36:43Z</time>
      </trkpt>
      <trkpt lat="57.66373" lon="-4.09721">
        <ele>4.32</ele>
        <time>2021-03-20T16:36:49Z</time>
      </trkpt>
      <trkpt lat="57.66382" lon="-4.09331">
        <ele>4.47</ele>
        <time>2021-03-20T16:36:55Z</time>
      </trkpt>
      <trkpt lat="57.66403" lon="-4.08931">
        <ele>8.09</ele>
        <time>2021-03-20T16:37:00Z</time>
      </trkpt>
      <trkpt lat="57.66425" lon="-4.08769">
        <ele>5.45</ele>
        <time>2021-03-20T16:37:06Z</time>
      </trkpt>
      <trkpt lat="57.66473" lon="-4.08565">
        <ele>5.59</ele>
        <time>2021-03-20T16:37:12Z</time>
      </trkpt>
      <trkpt lat="57.66519" lon="-4.08431">
        <ele>6.65</ele>
        <time>2021-03-20T16:37:17Z</time>
      </trkpt>
      <trkpt lat="57.66529" lon="-4.08407">
        <ele>6.89</ele>
        <time>2021-03-20T16:37:23Z</time>
      </trkpt>
      <trkpt lat="57.66598" lon="-4.08273">
        <ele>7.79</ele>
        <time>2021-03-20T16:37:29Z</time>
      </trkpt>
      <trkpt lat="57.66641" lon="-4.08185">
        <ele>6.77</ele>
        <time>2021-03-20T16:37:34Z</time>
      </trkpt>
      <trkpt lat="57.66691" lon="-4.08059">
        <ele>5.67</ele>
        <time>2021-03-20T16:37:40Z</time>
      </trkpt>
      <trkpt lat="57.66738" lon="-4.07958">
        <ele>5.77</ele>
        <time>2021-03-20T16:37:46Z</time>
      </trkpt>
      <trkpt lat="57.66783" lon="-4.0783">
        <ele>6.02</ele>
        <time>2021-03-20T16:37:51Z</time>
      </trkpt>
      <trkpt lat="57.66832" lon="-4.07585">
        <ele>7.35</ele>
        <time>2021-03-20T16:37:57Z</time>
      </trkpt>
      <trkpt lat="57.66946" lon="-4.07277">
        <ele>7.82</ele>
        <time>2021-03-20T16:38:03Z</time>
      </trkpt>
      <trkpt lat="57.66992" lon="-4.07106">
        <ele>5.47</ele>
        <time>2021-03-20T16:38:08Z</time>
      </trkpt>
      <trkpt lat="57.6702" lon="-4.07029">
        <ele>7.49</ele>
        <time>2021-03-20T16:38:14Z</time>
      </trkpt>
      <trkpt lat="57.67089" lon="-4.06913">
        <ele>9.57</ele>
        <time>2021-03-20T16:38:20Z</time>
      </trkpt>
      <trkpt lat="57.67151" lon="-4.06778">
        <ele>7.05</ele>
        <time>2021-03-20T16:38:25Z</time>
      </trkpt>
      <trkpt lat="57.67231" lon="-4.06586">
        <ele>6.94</ele>
        <time>2021-03-20T16:38:31Z</time>
      </trkpt>
      <trkpt lat="57.67383" lon="-4.06244">
        <ele>2.67</ele>
        <time>2021-03-20T16:38:37Z</time>
      </trkpt>
      <trkpt lat="57.6739" lon="-4.06223">
        <ele>3.03</ele>
        <time>2021-03-20T16:38:42Z</time>
      </trkpt>
      <trkpt lat="57.67447" lon="-4.06074">
        <ele>2.7</ele>
        <time>2021-03-20T16:38:48Z</time>
      </trkpt>
      <trkpt lat="57.67532" lon="-4.05754">
        <ele>2.72</ele>
        <time>2021-03-20T16:38:54Z</time>
      </trkpt>
      <trkpt lat="57.67549" lon="-4.05585">
        <ele>3.74</ele>
        <time>2021-03-20T16:38:59Z</time>
      </trkpt>
      <trkpt lat="57.6756" lon="-4.05408">
        <ele>4.06</ele>
        <time>2021-03-20T16:39:05Z</time>
      </trkpt>
      <trkpt lat="57.67575" lon="-4.0523">
        <ele>2.29</ele>
        <time>2021-03-20T16:39:11Z</time>
      </trkpt>
      <trkpt lat="57.67601" lon="-4.0503">
        <ele>3.53</ele>
        <time>2021-03-20T16:39:16Z</time>
      </trkpt>
      <trkpt lat="57.67619" lon="-4.04844">
        <ele>3.6</ele>
        <time>2021-03-20T16:39:22Z</time>
      </trkpt>
      <trkpt lat="57.67644" lon="-4.04667">
        <ele>4.31</ele>
        <time>2021-03-20T16:39:28Z</time>
      </trkpt>
      <trkpt lat="57.67678" lon="-4.04478">
        <ele>6.15</ele>
        <time>2021-03-20T16:39:33Z</time>
      </trkpt>
      <trkpt lat="57.67727" lon="-4.04312">
        <ele>3.95</ele>
        <time>2021-03-20T16:39:39Z</time>
      </trkpt>
      <trkpt lat="57.67747" lon="-4.04258">
        <ele>3.98</ele>
        <time>2021-03-20T16:39:45Z</time>
      </trkpt>
      <trkpt lat="57.67797" lon="-4.0416">
        <ele>4.3</ele>
        <time>2021-03-20T16:39:50Z</time>
      </trkpt>
      <trkpt lat="57.67836" lon="-4.04103">
        <ele>1.26</ele>
        <time>2021-03-20T16:39:56Z</time>
      </trkpt>
      <trkpt lat="57.67899" lon="-4.04027">
        <ele>1.66</ele>
        <time>2021-03-20T16:40:02Z</time>
      </trkpt>
      <trkpt lat="57.67992" lon="-4.03774">
        <ele>7.76</ele>
        <time>2021-03-20T16:40:07Z</time>
      </trkpt>
      <trkpt lat="57.68019" lon="-4.03715">
        <ele>9</ele>
        <time>2021-03-20T16:40:13Z</time>
      </trkpt>
      <trkpt lat="57.68028" lon="-4.03684">
        <ele>9.37</ele>
        <time>2021-03-20T16:40:19Z</time>
      </trkpt>
      <trkpt lat="57.68035" lon="-4.03682">
        <ele>9.46</ele>
        <time>2021-03-20T16:40:24Z</time>
      </trkpt>
      <trkpt lat="57.68041" lon="-4.03676">
        <ele>9.68</ele>
        <time>2021-03-20T16:40:28Z</time>
      </trkpt>
      <trkpt lat="57.68052" lon="-4.03647">
        <ele>10.61</ele>
        <time>2021-03-20T16:40:33Z</time>
      </trkpt>
      <trkpt lat="57.68063" lon="-4.03556">
        <ele>11.74</ele>
        <time>2021-03-20T16:40:38Z</time>
      </trkpt>
      <trkpt lat="57.68082" lon="-4.03469">
        <ele>11.04</ele>
        <time>2021-03-20T16:40:43Z</time>
      </trkpt>
      <trkpt lat="57.68171" lon="-4.03608">
        <ele>9</ele>
        <time>2021-03-20T16:41:05Z</time>
      </trkpt>
      <trkpt lat="57.68179" lon="-4.03592">
        <ele>9</ele>
        <time>2021-03-20T16:41:07Z</time>
      </trkpt>
      <trkpt lat="57.68184" lon="-4.036">
        <ele>9</ele>
        <time>2021-03-20T16:41:09Z</time>
      </trkpt>
      <trkpt lat="57.68184" lon="-4.036">
        <ele>9</ele>
        <time>2021-03-20T16:41:09Z</time>
      </trkpt>
      <trkpt lat="57.68179" lon="-4.03592">
        <ele>9</ele>
        <time>2021-03-20T16:41:11Z</time>
      </trkpt>
      <trkpt lat="57.68171" lon="-4.03608">
        <ele>9</ele>
        <time>2021-03-20T16:41:13Z</time>
      </trkpt>
      <trkpt lat="57.68082" lon="-4.03469">
        <ele>11.04</ele>
        <time>2021-03-20T16:41:34Z</time>
      </trkpt>
      <trkpt lat="57.68063" lon="-4.03556">
        <ele>11.74</ele>
        <time>2021-03-20T16:41:38Z</time>
      </trkpt>
      <trkpt lat="57.68052" lon="-4.03647">
        <ele>10.61</ele>
        <time>2021-03-20T16:41:42Z</time>
      </trkpt>
      <trkpt lat="57.68045" lon="-4.03668">
        <ele>9.95</ele>
        <time>2021-03-20T16:41:46Z</time>
      </trkpt>
      <trkpt lat="57.68041" lon="-4.03676">
        <ele>9.68</ele>
        <time>2021-03-20T16:41:49Z</time>
      </trkpt>
      <trkpt lat="57.68035" lon="-4.03682">
        <ele>9.46</ele>
        <time>2021-03-20T16:41:53Z</time>
      </trkpt>
      <trkpt lat="57.68021" lon="-4.03685">
        <ele>9.26</ele>
        <time>2021-03-20T16:41:57Z</time>
      </trkpt>
      <trkpt lat="57.68007" lon="-4.03675">
        <ele>9.18</ele>
        <time>2021-03-20T16:42:01Z</time>
      </trkpt>
      <trkpt lat="57.67987" lon="-4.0365">
        <ele>9</ele>
        <time>2021-03-20T16:42:05Z</time>
      </trkpt>
      <trkpt lat="57.67911" lon="-4.03559">
        <ele>16.82</ele>
        <time>2021-03-20T16:42:08Z</time>
      </trkpt>
      <trkpt lat="57.67851" lon="-4.0348">
        <ele>30.35</ele>
        <time>2021-03-20T16:42:12Z</time>
      </trkpt>
      <trkpt lat="57.67799" lon="-4.03437">
        <ele>31.23</ele>
        <time>2021-03-20T16:42:16Z</time>
      </trkpt>
      <trkpt lat="57.67771" lon="-4.03435">
        <ele>32</ele>
        <time>2021-03-20T16:42:20Z</time>
      </trkpt>
      <trkpt lat="57.67736" lon="-4.03443">
        <ele>32.52</ele>
        <time>2021-03-20T16:42:23Z</time>
      </trkpt>
      <trkpt lat="57.67683" lon="-4.03485">
        <ele>38.11</ele>
        <time>2021-03-20T16:42:27Z</time>
      </trkpt>
      <trkpt lat="57.67649" lon="-4.03524">
        <ele>39.64</ele>
        <time>2021-03-20T16:42:31Z</time>
      </trkpt>
      <trkpt lat="57.67628" lon="-4.03553">
        <ele>39.62</ele>
        <time>2021-03-20T16:42:35Z</time>
      </trkpt>
      <trkpt lat="57.67617" lon="-4.03574">
        <ele>39.06</ele>
        <time>2021-03-20T16:42:39Z</time>
      </trkpt>
      <trkpt lat="57.676" lon="-4.03605">
        <ele>39.81</ele>
        <time>2021-03-20T16:42:42Z</time>
      </trkpt>
      <trkpt lat="57.67543" lon="-4.03726">
        <ele>44.38</ele>
        <time>2021-03-20T16:42:46Z</time>
      </trkpt>
      <trkpt lat="57.67522" lon="-4.0376">
        <ele>45.22</ele>
        <time>2021-03-20T16:42:50Z</time>
      </trkpt>
      <trkpt lat="57.67443" lon="-4.03864">
        <ele>47.04</ele>
        <time>2021-03-20T16:42:54Z</time>
      </trkpt>
      <trkpt lat="57.67426" lon="-4.03902">
        <ele>47.83</ele>
        <time>2021-03-20T16:42:57Z</time>
      </trkpt>
      <trkpt lat="57.67383" lon="-4.04001">
        <ele>50.01</ele>
        <time>2021-03-20T16:43:01Z</time>
      </trkpt>
      <trkpt lat="57.67373" lon="-4.04029">
        <ele>50.58</ele>
        <time>2021-03-20T16:43:05Z</time>
      </trkpt>
      <trkpt lat="57.67341" lon="-4.04139">
        <ele>52</ele>
        <time>2021-03-20T16:43:09Z</time>
      </trkpt>
      <trkpt lat="57.67289" lon="-4.04279">
        <ele>53.61</ele>
        <time>2021-03-20T16:43:13Z</time>
      </trkpt>
      <trkpt lat="57.67218" lon="-4.04483">
        <ele>59.13</ele>
        <time>2021-03-20T16:43:16Z</time>
      </trkpt>
      <trkpt lat="57.67195" lon="-4.0453">
        <ele>59</ele>
        <time>2021-03-20T16:43:20Z</time>
      </trkpt>
      <trkpt lat="57.67157" lon="-4.046">
        <ele>60.69</ele>
        <time>2021-03-20T16:43:24Z</time>
      </trkpt>
      <trkpt lat="57.67098" lon="-4.04728">
        <ele>63.01</ele>
        <time>2021-03-20T16:43:28Z</time>
      </trkpt>
      <trkpt lat="57.67085" lon="-4.04751">
        <ele>64.8</ele>
        <time>2021-03-20T16:43:31Z</time>
      </trkpt>
      <trkpt lat="57.67066" lon="-4.04779">
        <ele>65.65</ele>
        <time>2021-03-20T16:43:35Z</time>
      </trkpt>
      <trkpt lat="57.67046" lon="-4.04797">
        <ele>67.02</ele>
        <time>2021-03-20T16:43:39Z</time>
      </trkpt>
      <trkpt lat="57.67008" lon="-4.04819">
        <ele>68.48</ele>
        <time>2021-03-20T16:43:43Z</time>
      </trkpt>
      <trkpt lat="57.66967" lon="-4.04848">
        <ele>69</ele>
        <time>2021-03-20T16:43:47Z</time>
      </trkpt>
      <trkpt lat="57.6694" lon="-4.0487">
        <ele>69.15</ele>
        <time>2021-03-20T16:43:50Z</time>
      </trkpt>
      <trkpt lat="57.6692" lon="-4.04893">
        <ele>69.88</ele>
        <time>2021-03-20T16:43:54Z</time>
      </trkpt>
      <trkpt lat="57.66899" lon="-4.0487">
        <ele>70</ele>
        <time>2021-03-20T16:43:58Z</time>
      </trkpt>
      <trkpt lat="57.66864" lon="-4.04841">
        <ele>69.92</ele>
        <time>2021-03-20T16:44:01Z</time>
      </trkpt>
      <trkpt lat="57.6683" lon="-4.04772">
        <ele>72.14</ele>
        <time>2021-03-20T16:44:05Z</time>
      </trkpt>
      <trkpt lat="57.66788" lon="-4.04713">
        <ele>75.25</ele>
        <time>2021-03-20T16:44:08Z</time>
      </trkpt>
      <trkpt lat="57.66596" lon="-4.04488">
        <ele>89.53</ele>
        <time>2021-03-20T16:44:12Z</time>
      </trkpt>
      <trkpt lat="57.66494" lon="-4.04373">
        <ele>96.43</ele>
        <time>2021-03-20T16:44:15Z</time>
      </trkpt>
      <trkpt lat="57.66298" lon="-4.04141">
        <ele>113.32</ele>
        <time>2021-03-20T16:44:19Z</time>
      </trkpt>
      <trkpt lat="57.66168" lon="-4.03995">
        <ele>114</ele>
        <time>2021-03-20T16:44:23Z</time>
      </trkpt>
      <trkpt lat="57.66142" lon="-4.03983">
        <ele>114</ele>
        <time>2021-03-20T16:44:26Z</time>
      </trkpt>
      <trkpt lat="57.66109" lon="-4.04">
        <ele>114.01</ele>
        <time>2021-03-20T16:44:30Z</time>
      </trkpt>
      <trkpt lat="57.65936" lon="-4.04201">
        <ele>118.76</ele>
        <time>2021-03-20T16:44:33Z</time>
      </trkpt>
      <trkpt lat="57.65876" lon="-4.04245">
        <ele>118.42</ele>
        <time>2021-03-20T16:44:37Z</time>
      </trkpt>
      <trkpt lat="57.65735" lon="-4.04405">
        <ele>119.05</ele>
        <time>2021-03-20T16:44:40Z</time>
      </trkpt>
      <trkpt lat="57.65665" lon="-4.04537">
        <ele>118.26</ele>
        <time>2021-03-20T16:44:44Z</time>
      </trkpt>
      <trkpt lat="57.65622" lon="-4.04654">
        <ele>119.39</ele>
        <time>2021-03-20T16:44:48Z</time>
      </trkpt>
      <trkpt lat="57.65563" lon="-4.0475">
        <ele>116.84</ele>
        <time>2021-03-20T16:44:51Z</time>
      </trkpt>
      <trkpt lat="57.65342" lon="-4.05204">
        <ele>113.11</ele>
        <time>2021-03-20T16:44:55Z</time>
      </trkpt>
      <trkpt lat="57.65288" lon="-4.05297">
        <ele>113.04</ele>
        <time>2021-03-20T16:44:58Z</time>
      </trkpt>
      <trkpt lat="57.65198" lon="-4.05439">
        <ele>111.76</ele>
        <time>2021-03-20T16:45:02Z</time>
      </trkpt>
      <trkpt lat="57.65189" lon="-4.05447">
        <ele>111.9</ele>
        <time>2021-03-20T16:45:05Z</time>
      </trkpt>
      <trkpt lat="57.65145" lon="-4.05465">
        <ele>109.94</ele>
        <time>2021-03-20T16:45:09Z</time>
      </trkpt>
      <trkpt lat="57.65074" lon="-4.05571">
        <ele>105.16</ele>
        <time>2021-03-20T16:45:12Z</time>
      </trkpt>
      <trkpt lat="57.65068" lon="-4.05577">
        <ele>104.86</ele>
        <time>2021-03-20T16:45:16Z</time>
      </trkpt>
      <trkpt lat="57.65042" lon="-4.05589">
        <ele>102.53</ele>
        <time>2021-03-20T16:45:20Z</time>
      </trkpt>
      <trkpt lat="57.65033" lon="-4.05598">
        <ele>101.95</ele>
        <time>2021-03-20T16:45:23Z</time>
      </trkpt>
      <trkpt lat="57.65029" lon="-4.05616">
        <ele>102.38</ele>
        <time>2021-03-20T16:45:27Z</time>
      </trkpt>
      <trkpt lat="57.65022" lon="-4.05728">
        <ele>105.51</ele>
        <time>2021-03-20T16:45:30Z</time>
      </trkpt>
      <trkpt lat="57.65017" lon="-4.0575">
        <ele>106.48</ele>
        <time>2021-03-20T16:45:34Z</time>
      </trkpt>
      <trkpt lat="57.65002" lon="-4.05791">
        <ele>107.14</ele>
        <time>2021-03-20T16:45:37Z</time>
      </trkpt>
      <trkpt lat="57.64986" lon="-4.05811">
        <ele>106.22</ele>
        <time>2021-03-20T16:45:41Z</time>
      </trkpt>
      <trkpt lat="57.64967" lon="-4.05846">
        <ele>105.11</ele>
        <time>2021-03-20T16:45:45Z</time>
      </trkpt>
      <trkpt lat="57.64963" lon="-4.05857">
        <ele>104.97</ele>
        <time>2021-03-20T16:45:48Z</time>
      </trkpt>
      <trkpt lat="57.64953" lon="-4.05912">
        <ele>103.15</ele>
        <time>2021-03-20T16:45:52Z</time>
      </trkpt>
      <trkpt lat="57.64943" lon="-4.05927">
        <ele>102.14</ele>
        <time>2021-03-20T16:45:55Z</time>
      </trkpt>
      <trkpt lat="57.6493" lon="-4.05932">
        <ele>103.6</ele>
        <time>2021-03-20T16:45:59Z</time>
      </trkpt>
      <trkpt lat="57.64916" lon="-4.05922">
        <ele>105.06</ele>
        <time>2021-03-20T16:46:02Z</time>
      </trkpt>
      <trkpt lat="57.64912" lon="-4.05908">
        <ele>106.45</ele>
        <time>2021-03-20T16:46:06Z</time>
      </trkpt>
      <trkpt lat="57.64904" lon="-4.05857">
        <ele>109.26</ele>
        <time>2021-03-20T16:46:09Z</time>
      </trkpt>
      <trkpt lat="57.64902" lon="-4.05808">
        <ele>110.65</ele>
        <time>2021-03-20T16:46:13Z</time>
      </trkpt>
      <trkpt lat="57.64904" lon="-4.05768">
        <ele>111.42</ele>
        <time>2021-03-20T16:46:17Z</time>
      </trkpt>
      <trkpt lat="57.64904" lon="-4.05734">
        <ele>112.78</ele>
        <time>2021-03-20T16:46:20Z</time>
      </trkpt>
      <trkpt lat="57.64899" lon="-4.05723">
        <ele>113.83</ele>
        <time>2021-03-20T16:46:24Z</time>
      </trkpt>
      <trkpt lat="57.64891" lon="-4.05714">
        <ele>114.75</ele>
        <time>2021-03-20T16:46:27Z</time>
      </trkpt>
      <trkpt lat="57.64869" lon="-4.05698">
        <ele>115</ele>
        <time>2021-03-20T16:46:31Z</time>
      </trkpt>
      <trkpt lat="57.64848" lon="-4.05701">
        <ele>115.49</ele>
        <time>2021-03-20T16:46:34Z</time>
      </trkpt>
      <trkpt lat="57.64826" lon="-4.05718">
        <ele>116</ele>
        <time>2021-03-20T16:46:38Z</time>
      </trkpt>
      <trkpt lat="57.648" lon="-4.05771">
        <ele>117.21</ele>
        <time>2021-03-20T16:46:42Z</time>
      </trkpt>
      <trkpt lat="57.64775" lon="-4.05941">
        <ele>120.09</ele>
        <time>2021-03-20T16:46:45Z</time>
      </trkpt>
      <trkpt lat="57.64743" lon="-4.06201">
        <ele>125.26</ele>
        <time>2021-03-20T16:46:49Z</time>
      </trkpt>
      <trkpt lat="57.64716" lon="-4.06313">
        <ele>126.43</ele>
        <time>2021-03-20T16:46:52Z</time>
      </trkpt>
      <trkpt lat="57.64707" lon="-4.06342">
        <ele>127.09</ele>
        <time>2021-03-20T16:46:56Z</time>
      </trkpt>
      <trkpt lat="57.64702" lon="-4.06349">
        <ele>127.48</ele>
        <time>2021-03-20T16:46:59Z</time>
      </trkpt>
      <trkpt lat="57.64694" lon="-4.06352">
        <ele>128.02</ele>
        <time>2021-03-20T16:47:03Z</time>
      </trkpt>
      <trkpt lat="57.64564" lon="-4.06319">
        <ele>136.38</ele>
        <time>2021-03-20T16:47:06Z</time>
      </trkpt>
      <trkpt lat="57.64557" lon="-4.06318">
        <ele>136.9</ele>
        <time>2021-03-20T16:47:10Z</time>
      </trkpt>
      <trkpt lat="57.64548" lon="-4.06323">
        <ele>137.58</ele>
        <time>2021-03-20T16:47:14Z</time>
      </trkpt>
      <trkpt lat="57.64529" lon="-4.06335">
        <ele>138.94</ele>
        <time>2021-03-20T16:47:17Z</time>
      </trkpt>
      <trkpt lat="57.64466" lon="-4.06393">
        <ele>149.05</ele>
        <time>2021-03-20T16:47:21Z</time>
      </trkpt>
      <trkpt lat="57.6441" lon="-4.06453">
        <ele>154.77</ele>
        <time>2021-03-20T16:47:24Z</time>
      </trkpt>
      <trkpt lat="57.64365" lon="-4.06512">
        <ele>160.03</ele>
        <time>2021-03-20T16:47:28Z</time>
      </trkpt>
      <trkpt lat="57.64328" lon="-4.06551">
        <ele>162.88</ele>
        <time>2021-03-20T16:47:31Z</time>
      </trkpt>
      <trkpt lat="57.6429" lon="-4.06575">
        <ele>166.64</ele>
        <time>2021-03-20T16:47:35Z</time>
      </trkpt>
      <trkpt lat="57.64206" lon="-4.06622">
        <ele>176.35</ele>
        <time>2021-03-20T16:47:39Z</time>
      </trkpt>
      <trkpt lat="57.64176" lon="-4.06644">
        <ele>178.17</ele>
        <time>2021-03-20T16:47:42Z</time>
      </trkpt>
      <trkpt lat="57.6411" lon="-4.06663">
        <ele>181.18</ele>
        <time>2021-03-20T16:47:46Z</time>
      </trkpt>
      <trkpt lat="57.64049" lon="-4.06684">
        <ele>182.82</ele>
        <time>2021-03-20T16:47:49Z</time>
      </trkpt>
      <trkpt lat="57.64021" lon="-4.06701">
        <ele>183.82</ele>
        <time>2021-03-20T16:47:53Z</time>
      </trkpt>
      <trkpt lat="57.63994" lon="-4.06729">
        <ele>184.2</ele>
        <time>2021-03-20T16:47:56Z</time>
      </trkpt>
      <trkpt lat="57.63921" lon="-4.06833">
        <ele>189.54</ele>
        <time>2021-03-20T16:48:00Z</time>
      </trkpt>
      <trkpt lat="57.6383" lon="-4.0694">
        <ele>193.25</ele>
        <time>2021-03-20T16:48:03Z</time>
      </trkpt>
      <trkpt lat="57.63642" lon="-4.07179">
        <ele>201.72</ele>
        <time>2021-03-20T16:48:07Z</time>
      </trkpt>
      <trkpt lat="57.63583" lon="-4.0726">
        <ele>205</ele>
        <time>2021-03-20T16:48:11Z</time>
      </trkpt>
      <trkpt lat="57.63529" lon="-4.07351">
        <ele>206.9</ele>
        <time>2021-03-20T16:48:14Z</time>
      </trkpt>
      <trkpt lat="57.63494" lon="-4.07418">
        <ele>208.21</ele>
        <time>2021-03-20T16:48:18Z</time>
      </trkpt>
      <trkpt lat="57.63469" lon="-4.07475">
        <ele>208.3</ele>
        <time>2021-03-20T16:48:21Z</time>
      </trkpt>
      <trkpt lat="57.63447" lon="-4.07511">
        <ele>210.38</ele>
        <time>2021-03-20T16:48:25Z</time>
      </trkpt>
      <trkpt lat="57.63363" lon="-4.07624">
        <ele>211.54</ele>
        <time>2021-03-20T16:48:28Z</time>
      </trkpt>
      <trkpt lat="57.63337" lon="-4.07686">
        <ele>210.05</ele>
        <time>2021-03-20T16:48:32Z</time>
      </trkpt>
      <trkpt lat="57.63321" lon="-4.07738">
        <ele>208.67</ele>
        <time>2021-03-20T16:48:36Z</time>
      </trkpt>
      <trkpt lat="57.63299" lon="-4.07793">
        <ele>206.81</ele>
        <time>2021-03-20T16:48:39Z</time>
      </trkpt>
      <trkpt lat="57.63259" lon="-4.07867">
        <ele>205</ele>
        <time>2021-03-20T16:48:43Z</time>
      </trkpt>
      <trkpt lat="57.6312" lon="-4.08173">
        <ele>204</ele>
        <time>2021-03-20T16:48:46Z</time>
      </trkpt>
      <trkpt lat="57.63063" lon="-4.08326">
        <ele>207.49</ele>
        <time>2021-03-20T16:48:50Z</time>
      </trkpt>
      <trkpt lat="57.63055" lon="-4.08342">
        <ele>208.3</ele>
        <time>2021-03-20T16:48:53Z</time>
      </trkpt>
      <trkpt lat="57.63037" lon="-4.08395">
        <ele>210.38</ele>
        <time>2021-03-20T16:48:57Z</time>
      </trkpt>
      <trkpt lat="57.63035" lon="-4.08397">
        <ele>210.51</ele>
        <time>2021-03-20T16:49:00Z</time>
      </trkpt>
      <trkpt lat="57.62931" lon="-4.08711">
        <ele>220.9</ele>
        <time>2021-03-20T16:49:04Z</time>
      </trkpt>
      <trkpt lat="57.62922" lon="-4.08748">
        <ele>222.87</ele>
        <time>2021-03-20T16:49:08Z</time>
      </trkpt>
      <trkpt lat="57.62823" lon="-4.09051">
        <ele>224.64</ele>
        <time>2021-03-20T16:49:11Z</time>
      </trkpt>
      <trkpt lat="57.62808" lon="-4.09089">
        <ele>222.98</ele>
        <time>2021-03-20T16:49:15Z</time>
      </trkpt>
      <trkpt lat="57.62792" lon="-4.09113">
        <ele>223.03</ele>
        <time>2021-03-20T16:49:18Z</time>
      </trkpt>
      <trkpt lat="57.62743" lon="-4.09141">
        <ele>220.36</ele>
        <time>2021-03-20T16:49:22Z</time>
      </trkpt>
      <trkpt lat="57.62697" lon="-4.092">
        <ele>217.62</ele>
        <time>2021-03-20T16:49:25Z</time>
      </trkpt>
      <trkpt lat="57.62643" lon="-4.09238">
        <ele>212.11</ele>
        <time>2021-03-20T16:49:29Z</time>
      </trkpt>
      <trkpt lat="57.62573" lon="-4.09283">
        <ele>204.57</ele>
        <time>2021-03-20T16:49:33Z</time>
      </trkpt>
      <trkpt lat="57.62545" lon="-4.09314">
        <ele>203.38</ele>
        <time>2021-03-20T16:49:36Z</time>
      </trkpt>
      <trkpt lat="57.6243" lon="-4.09493">
        <ele>204.38</ele>
        <time>2021-03-20T16:49:40Z</time>
      </trkpt>
      <trkpt lat="57.62387" lon="-4.0959">
        <ele>204.08</ele>
        <time>2021-03-20T16:49:43Z</time>
      </trkpt>
      <trkpt lat="57.62349" lon="-4.09645">
        <ele>203</ele>
        <time>2021-03-20T16:49:47Z</time>
      </trkpt>
      <trkpt lat="57.62313" lon="-4.09707">
        <ele>203</ele>
        <time>2021-03-20T16:49:50Z</time>
      </trkpt>
      <trkpt lat="57.62274" lon="-4.09785">
        <ele>203.68</ele>
        <time>2021-03-20T16:49:54Z</time>
      </trkpt>
      <trkpt lat="57.62247" lon="-4.09832">
        <ele>206.2</ele>
        <time>2021-03-20T16:49:57Z</time>
      </trkpt>
      <trkpt lat="57.62123" lon="-4.09928">
        <ele>200.57</ele>
        <time>2021-03-20T16:50:01Z</time>
      </trkpt>
      <trkpt lat="57.6209" lon="-4.09959">
        <ele>195.36</ele>
        <time>2021-03-20T16:50:05Z</time>
      </trkpt>
      <trkpt lat="57.62056" lon="-4.10011">
        <ele>192.9</ele>
        <time>2021-03-20T16:50:08Z</time>
      </trkpt>
      <trkpt lat="57.61926" lon="-4.10247">
        <ele>187.11</ele>
        <time>2021-03-20T16:50:12Z</time>
      </trkpt>
      <trkpt lat="57.6172" lon="-4.10636">
        <ele>182.97</ele>
        <time>2021-03-20T16:50:15Z</time>
      </trkpt>
      <trkpt lat="57.61686" lon="-4.10705">
        <ele>180.35</ele>
        <time>2021-03-20T16:50:19Z</time>
      </trkpt>
      <trkpt lat="57.61271" lon="-4.11507">
        <ele>154.52</ele>
        <time>2021-03-20T16:50:24Z</time>
      </trkpt>
      <trkpt lat="57.61211" lon="-4.11634">
        <ele>151.63</ele>
        <time>2021-03-20T16:50:29Z</time>
      </trkpt>
      <trkpt lat="57.61187" lon="-4.11677">
        <ele>150.58</ele>
        <time>2021-03-20T16:50:35Z</time>
      </trkpt>
      <trkpt lat="57.6097" lon="-4.12004">
        <ele>143.06</ele>
        <time>2021-03-20T16:50:40Z</time>
      </trkpt>
      <trkpt lat="57.60949" lon="-4.12046">
        <ele>143.15</ele>
        <time>2021-03-20T16:50:45Z</time>
      </trkpt>
      <trkpt lat="57.60857" lon="-4.12298">
        <ele>139.76</ele>
        <time>2021-03-20T16:50:51Z</time>
      </trkpt>
      <trkpt lat="57.60829" lon="-4.1237">
        <ele>138.71</ele>
        <time>2021-03-20T16:50:56Z</time>
      </trkpt>
      <trkpt lat="57.60792" lon="-4.12447">
        <ele>135.69</ele>
        <time>2021-03-20T16:51:01Z</time>
      </trkpt>
      <trkpt lat="57.6072" lon="-4.12566">
        <ele>132.43</ele>
        <time>2021-03-20T16:51:06Z</time>
      </trkpt>
      <trkpt lat="57.607" lon="-4.12604">
        <ele>133.11</ele>
        <time>2021-03-20T16:51:12Z</time>
      </trkpt>
      <trkpt lat="57.60585" lon="-4.12838">
        <ele>129.59</ele>
        <time>2021-03-20T16:51:17Z</time>
      </trkpt>
      <trkpt lat="57.60489" lon="-4.13048">
        <ele>120.83</ele>
        <time>2021-03-20T16:51:22Z</time>
      </trkpt>
      <trkpt lat="57.60443" lon="-4.1316">
        <ele>113.77</ele>
        <time>2021-03-20T16:51:27Z</time>
      </trkpt>
      <trkpt lat="57.60354" lon="-4.13426">
        <ele>97.5</ele>
        <time>2021-03-20T16:51:33Z</time>
      </trkpt>
      <trkpt lat="57.60336" lon="-4.13464">
        <ele>95.54</ele>
        <time>2021-03-20T16:51:38Z</time>
      </trkpt>
      <trkpt lat="57.60312" lon="-4.13487">
        <ele>93.07</ele>
        <time>2021-03-20T16:51:43Z</time>
      </trkpt>
      <trkpt lat="57.60285" lon="-4.13503">
        <ele>90.39</ele>
        <time>2021-03-20T16:51:48Z</time>
      </trkpt>
      <trkpt lat="57.60222" lon="-4.13501">
        <ele>87.93</ele>
        <time>2021-03-20T16:51:54Z</time>
      </trkpt>
      <trkpt lat="57.60199" lon="-4.13487">
        <ele>86.76</ele>
        <time>2021-03-20T16:51:59Z</time>
      </trkpt>
      <trkpt lat="57.60031" lon="-4.133">
        <ele>76.71</ele>
        <time>2021-03-20T16:52:04Z</time>
      </trkpt>
      <trkpt lat="57.60023" lon="-4.13287">
        <ele>75.99</ele>
        <time>2021-03-20T16:52:10Z</time>
      </trkpt>
      <trkpt lat="57.60015" lon="-4.13257">
        <ele>75.9</ele>
        <time>2021-03-20T16:52:15Z</time>
      </trkpt>
      <trkpt lat="57.59991" lon="-4.13226">
        <ele>74.76</ele>
        <time>2021-03-20T16:52:20Z</time>
      </trkpt>
      <trkpt lat="57.59978" lon="-4.13214">
        <ele>73.94</ele>
        <time>2021-03-20T16:52:25Z</time>
      </trkpt>
      <trkpt lat="57.59968" lon="-4.13217">
        <ele>72.79</ele>
        <time>2021-03-20T16:52:31Z</time>
      </trkpt>
      <trkpt lat="57.5994" lon="-4.13177">
        <ele>71.76</ele>
        <time>2021-03-20T16:52:34Z</time>
      </trkpt>
      <trkpt lat="57.59866" lon="-4.13059">
        <ele>67.69</ele>
        <time>2021-03-20T16:52:37Z</time>
      </trkpt>
      <trkpt lat="57.59792" lon="-4.12966">
        <ele>66.88</ele>
        <time>2021-03-20T16:52:40Z</time>
      </trkpt>
      <trkpt lat="57.59762" lon="-4.12944">
        <ele>63.59</ele>
        <time>2021-03-20T16:52:44Z</time>
      </trkpt>
      <trkpt lat="57.59732" lon="-4.12929">
        <ele>59.99</ele>
        <time>2021-03-20T16:52:47Z</time>
      </trkpt>
      <trkpt lat="57.59708" lon="-4.12914">
        <ele>57.28</ele>
        <time>2021-03-20T16:52:50Z</time>
      </trkpt>
      <trkpt lat="57.59685" lon="-4.12893">
        <ele>54.62</ele>
        <time>2021-03-20T16:52:53Z</time>
      </trkpt>
      <trkpt lat="57.59609" lon="-4.12719">
        <ele>51.6</ele>
        <time>2021-03-20T16:52:57Z</time>
      </trkpt>
      <trkpt lat="57.59572" lon="-4.12617">
        <ele>50.17</ele>
        <time>2021-03-20T16:53:00Z</time>
      </trkpt>
      <trkpt lat="57.59544" lon="-4.12557">
        <ele>51.71</ele>
        <time>2021-03-20T16:53:03Z</time>
      </trkpt>
      <trkpt lat="57.59459" lon="-4.12473">
        <ele>45.07</ele>
        <time>2021-03-20T16:53:06Z</time>
      </trkpt>
      <trkpt lat="57.59412" lon="-4.12419">
        <ele>38.04</ele>
        <time>2021-03-20T16:53:09Z</time>
      </trkpt>
      <trkpt lat="57.59405" lon="-4.12403">
        <ele>37.6</ele>
        <time>2021-03-20T16:53:13Z</time>
      </trkpt>
      <trkpt lat="57.59398" lon="-4.12378">
        <ele>36.9</ele>
        <time>2021-03-20T16:53:16Z</time>
      </trkpt>
      <trkpt lat="57.59345" lon="-4.1203">
        <ele>30.16</ele>
        <time>2021-03-20T16:53:19Z</time>
      </trkpt>
      <trkpt lat="57.59322" lon="-4.11893">
        <ele>31.53</ele>
        <time>2021-03-20T16:53:22Z</time>
      </trkpt>
      <trkpt lat="57.59317" lon="-4.11878">
        <ele>30.67</ele>
        <time>2021-03-20T16:53:26Z</time>
      </trkpt>
      <trkpt lat="57.59309" lon="-4.11875">
        <ele>28.84</ele>
        <time>2021-03-20T16:53:29Z</time>
      </trkpt>
      <trkpt lat="57.59302" lon="-4.11874">
        <ele>27.38</ele>
        <time>2021-03-20T16:53:32Z</time>
      </trkpt>
      <trkpt lat="57.5928" lon="-4.1188">
        <ele>23.31</ele>
        <time>2021-03-20T16:53:35Z</time>
      </trkpt>
      <trkpt lat="57.5927" lon="-4.11872">
        <ele>23.51</ele>
        <time>2021-03-20T16:53:39Z</time>
      </trkpt>
      <trkpt lat="57.59263" lon="-4.11853">
        <ele>23.36</ele>
        <time>2021-03-20T16:53:42Z</time>
      </trkpt>
      <trkpt lat="57.59243" lon="-4.11705">
        <ele>15.91</ele>
        <time>2021-03-20T16:53:45Z</time>
      </trkpt>
      <trkpt lat="57.59243" lon="-4.11705">
        <ele>15.91</ele>
        <time>2021-03-20T16:53:45Z</time>
      </trkpt>
      <trkpt lat="57.59228" lon="-4.11594">
        <ele>13.8</ele>
        <time>2021-03-20T16:53:49Z</time>
      </trkpt>
      <trkpt lat="57.59221" lon="-4.11571">
        <ele>12.98</ele>
        <time>2021-03-20T16:53:54Z</time>
      </trkpt>
      <trkpt lat="57.59213" lon="-4.11554">
        <ele>12.67</ele>
        <time>2021-03-20T16:53:58Z</time>
      </trkpt>
      <trkpt lat="57.59182" lon="-4.11501">
        <ele>12.01</ele>
        <time>2021-03-20T16:54:02Z</time>
      </trkpt>
      <trkpt lat="57.59155" lon="-4.11492">
        <ele>13.25</ele>
        <time>2021-03-20T16:54:06Z</time>
      </trkpt>
      <trkpt lat="57.59144" lon="-4.11491">
        <ele>14.48</ele>
        <time>2021-03-20T16:54:11Z</time>
      </trkpt>
      <trkpt lat="57.59114" lon="-4.11499">
        <ele>15.91</ele>
        <time>2021-03-20T16:54:15Z</time>
      </trkpt>
      <trkpt lat="57.59054" lon="-4.11526">
        <ele>16.86</ele>
        <time>2021-03-20T16:54:19Z</time>
      </trkpt>
      <trkpt lat="57.59" lon="-4.11556">
        <ele>16.03</ele>
        <time>2021-03-20T16:54:24Z</time>
      </trkpt>
      <trkpt lat="57.58999" lon="-4.1156">
        <ele>16.18</ele>
        <time>2021-03-20T16:54:30Z</time>
      </trkpt>
      <trkpt lat="57.58996" lon="-4.11633">
        <ele>20.25</ele>
        <time>2021-03-20T16:54:37Z</time>
      </trkpt>
      <trkpt lat="57.5899" lon="-4.11667">
        <ele>22.67</ele>
        <time>2021-03-20T16:54:44Z</time>
      </trkpt>
      <trkpt lat="57.58987" lon="-4.11676">
        <ele>23.64</ele>
        <time>2021-03-20T16:54:51Z</time>
      </trkpt>
      <trkpt lat="57.58917" lon="-4.11745">
        <ele>25.47</ele>
        <time>2021-03-20T16:54:58Z</time>
      </trkpt>
      <trkpt lat="57.58898" lon="-4.11766">
        <ele>26.34</ele>
        <time>2021-03-20T16:55:05Z</time>
      </trkpt>
      <trkpt lat="57.58884" lon="-4.11785">
        <ele>27.69</ele>
        <time>2021-03-20T16:55:12Z</time>
      </trkpt>
      <trkpt lat="57.58832" lon="-4.11875">
        <ele>31.94</ele>
        <time>2021-03-20T16:55:19Z</time>
      </trkpt>
      <trkpt lat="57.58795" lon="-4.11945">
        <ele>31.36</ele>
        <time>2021-03-20T16:55:26Z</time>
      </trkpt>
      <trkpt lat="57.58773" lon="-4.12001">
        <ele>31.13</ele>
        <time>2021-03-20T16:55:32Z</time>
      </trkpt>
      <trkpt lat="57.58765" lon="-4.12018">
        <ele>30.83</ele>
        <time>2021-03-20T16:55:39Z</time>
      </trkpt>
      <trkpt lat="57.5869" lon="-4.12111">
        <ele>30.17</ele>
        <time>2021-03-20T16:55:46Z</time>
      </trkpt>
      <trkpt lat="57.5866" lon="-4.12153">
        <ele>30.11</ele>
        <time>2021-03-20T16:55:53Z</time>
      </trkpt>
      <trkpt lat="57.58632" lon="-4.12201">
        <ele>30</ele>
        <time>2021-03-20T16:56:00Z</time>
      </trkpt>
      <trkpt lat="57.58429" lon="-4.12581">
        <ele>28.95</ele>
        <time>2021-03-20T16:56:07Z</time>
      </trkpt>
      <trkpt lat="57.5834" lon="-4.12735">
        <ele>29.44</ele>
        <time>2021-03-20T16:56:14Z</time>
      </trkpt>
      <trkpt lat="57.58227" lon="-4.12952">
        <ele>28.18</ele>
        <time>2021-03-20T16:56:21Z</time>
      </trkpt>
      <trkpt lat="57.58208" lon="-4.12992">
        <ele>27.47</ele>
        <time>2021-03-20T16:56:28Z</time>
      </trkpt>
      <trkpt lat="57.58165" lon="-4.13097">
        <ele>27</ele>
        <time>2021-03-20T16:56:34Z</time>
      </trkpt>
      <trkpt lat="57.58117" lon="-4.13198">
        <ele>25</ele>
        <time>2021-03-20T16:56:41Z</time>
      </trkpt>
      <trkpt lat="57.58094" lon="-4.13258">
        <ele>25</ele>
        <time>2021-03-20T16:56:48Z</time>
      </trkpt>
      <trkpt lat="57.58058" lon="-4.13362">
        <ele>24.96</ele>
        <time>2021-03-20T16:56:55Z</time>
      </trkpt>
      <trkpt lat="57.58027" lon="-4.1343">
        <ele>22.92</ele>
        <time>2021-03-20T16:57:02Z</time>
      </trkpt>
      <trkpt lat="57.5801" lon="-4.13457">
        <ele>22.02</ele>
        <time>2021-03-20T16:57:09Z</time>
      </trkpt>
      <trkpt lat="57.57922" lon="-4.13576">
        <ele>16.9</ele>
        <time>2021-03-20T16:57:16Z</time>
      </trkpt>
      <trkpt lat="57.57906" lon="-4.13607">
        <ele>16</ele>
        <time>2021-03-20T16:57:23Z</time>
      </trkpt>
      <trkpt lat="57.57889" lon="-4.13652">
        <ele>14.44</ele>
        <time>2021-03-20T16:57:30Z</time>
      </trkpt>
      <trkpt lat="57.57841" lon="-4.13806">
        <ele>13.9</ele>
        <time>2021-03-20T16:57:36Z</time>
      </trkpt>
      <trkpt lat="57.57791" lon="-4.13981">
        <ele>16.2</ele>
        <time>2021-03-20T16:57:43Z</time>
      </trkpt>
      <trkpt lat="57.57738" lon="-4.14184">
        <ele>18.43</ele>
        <time>2021-03-20T16:57:50Z</time>
      </trkpt>
      <trkpt lat="57.5773" lon="-4.1421">
        <ele>18.58</ele>
        <time>2021-03-20T16:57:57Z</time>
      </trkpt>
      <trkpt lat="57.57717" lon="-4.14238">
        <ele>18.93</ele>
        <time>2021-03-20T16:58:04Z</time>
      </trkpt>
      <trkpt lat="57.57673" lon="-4.14326">
        <ele>21.45</ele>
        <time>2021-03-20T16:58:11Z</time>
      </trkpt>
      <trkpt lat="57.57655" lon="-4.14367">
        <ele>21.07</ele>
        <time>2021-03-20T16:58:18Z</time>
      </trkpt>
      <trkpt lat="57.57601" lon="-4.14522">
        <ele>20.98</ele>
        <time>2021-03-20T16:58:25Z</time>
      </trkpt>
      <trkpt lat="57.57551" lon="-4.14645">
        <ele>18.71</ele>
        <time>2021-03-20T16:58:32Z</time>
      </trkpt>
      <trkpt lat="57.57463" lon="-4.14811">
        <ele>21.9</ele>
        <time>2021-03-20T16:58:38Z</time>
      </trkpt>
      <trkpt lat="57.57416" lon="-4.14929">
        <ele>27.7</ele>
        <time>2021-03-20T16:58:45Z</time>
      </trkpt>
      <trkpt lat="57.57342" lon="-4.15137">
        <ele>26.43</ele>
        <time>2021-03-20T16:58:52Z</time>
      </trkpt>
      <trkpt lat="57.57302" lon="-4.15236">
        <ele>19.47</ele>
        <time>2021-03-20T16:58:59Z</time>
      </trkpt>
      <trkpt lat="57.57274" lon="-4.15336">
        <ele>23.44</ele>
        <time>2021-03-20T16:59:06Z</time>
      </trkpt>
      <trkpt lat="57.57265" lon="-4.15374">
        <ele>26.2</ele>
        <time>2021-03-20T16:59:13Z</time>
      </trkpt>
      <trkpt lat="57.57248" lon="-4.1543">
        <ele>27.44</ele>
        <time>2021-03-20T16:59:20Z</time>
      </trkpt>
      <trkpt lat="57.57226" lon="-4.15491">
        <ele>28.03</ele>
        <time>2021-03-20T16:59:27Z</time>
      </trkpt>
      <trkpt lat="57.57207" lon="-4.15521">
        <ele>26.14</ele>
        <time>2021-03-20T16:59:34Z</time>
      </trkpt>
      <trkpt lat="57.57166" lon="-4.15633">
        <ele>20.65</ele>
        <time>2021-03-20T16:59:40Z</time>
      </trkpt>
      <trkpt lat="57.57156" lon="-4.15691">
        <ele>23.52</ele>
        <time>2021-03-20T16:59:47Z</time>
      </trkpt>
      <trkpt lat="57.57136" lon="-4.15752">
        <ele>27.22</ele>
        <time>2021-03-20T16:59:54Z</time>
      </trkpt>
      <trkpt lat="57.57061" lon="-4.15929">
        <ele>16.64</ele>
        <time>2021-03-20T17:00:01Z</time>
      </trkpt>
      <trkpt lat="57.56979" lon="-4.16101">
        <ele>20.94</ele>
        <time>2021-03-20T17:00:08Z</time>
      </trkpt>
      <trkpt lat="57.56888" lon="-4.16301">
        <ele>20.2</ele>
        <time>2021-03-20T17:00:15Z</time>
      </trkpt>
      <trkpt lat="57.56825" lon="-4.16474">
        <ele>20.6</ele>
        <time>2021-03-20T17:00:22Z</time>
      </trkpt>
      <trkpt lat="57.56777" lon="-4.16633">
        <ele>15.54</ele>
        <time>2021-03-20T17:00:29Z</time>
      </trkpt>
      <trkpt lat="57.56736" lon="-4.16792">
        <ele>10.98</ele>
        <time>2021-03-20T17:00:36Z</time>
      </trkpt>
      <trkpt lat="57.56724" lon="-4.16865">
        <ele>10.28</ele>
        <time>2021-03-20T17:00:42Z</time>
      </trkpt>
      <trkpt lat="57.56721" lon="-4.16975">
        <ele>11.86</ele>
        <time>2021-03-20T17:00:49Z</time>
      </trkpt>
      <trkpt lat="57.56722" lon="-4.17026">
        <ele>12.01</ele>
        <time>2021-03-20T17:00:56Z</time>
      </trkpt>
      <trkpt lat="57.56732" lon="-4.17145">
        <ele>11.27</ele>
        <time>2021-03-20T17:01:03Z</time>
      </trkpt>
      <trkpt lat="57.5674" lon="-4.1722">
        <ele>10.3</ele>
        <time>2021-03-20T17:01:10Z</time>
      </trkpt>
      <trkpt lat="57.56739" lon="-4.17305">
        <ele>9.36</ele>
        <time>2021-03-20T17:01:17Z</time>
      </trkpt>
      <trkpt lat="57.56732" lon="-4.1743">
        <ele>6.7</ele>
        <time>2021-03-20T17:01:24Z</time>
      </trkpt>
      <trkpt lat="57.56727" lon="-4.1748">
        <ele>7.37</ele>
        <time>2021-03-20T17:01:31Z</time>
      </trkpt>
      <trkpt lat="57.56711" lon="-4.17668">
        <ele>13.29</ele>
        <time>2021-03-20T17:01:38Z</time>
      </trkpt>
      <trkpt lat="57.5671" lon="-4.17705">
        <ele>14.55</ele>
        <time>2021-03-20T17:01:44Z</time>
      </trkpt>
      <trkpt lat="57.56711" lon="-4.17735">
        <ele>15.1</ele>
        <time>2021-03-20T17:01:51Z</time>
      </trkpt>
      <trkpt lat="57.56715" lon="-4.17775">
        <ele>15.26</ele>
        <time>2021-03-20T17:01:58Z</time>
      </trkpt>
      <trkpt lat="57.56727" lon="-4.17843">
        <ele>17.25</ele>
        <time>2021-03-20T17:02:05Z</time>
      </trkpt>
      <trkpt lat="57.56747" lon="-4.17927">
        <ele>20.04</ele>
        <time>2021-03-20T17:02:12Z</time>
      </trkpt>
      <trkpt lat="57.56771" lon="-4.18011">
        <ele>20.55</ele>
        <time>2021-03-20T17:02:19Z</time>
      </trkpt>
      <trkpt lat="57.56858" lon="-4.18345">
        <ele>23.54</ele>
        <time>2021-03-20T17:02:26Z</time>
      </trkpt>
      <trkpt lat="57.56869" lon="-4.18396">
        <ele>24.73</ele>
        <time>2021-03-20T17:02:33Z</time>
      </trkpt>
      <trkpt lat="57.56886" lon="-4.18623">
        <ele>23.77</ele>
        <time>2021-03-20T17:02:40Z</time>
      </trkpt>
      <trkpt lat="57.569" lon="-4.18849">
        <ele>24.5</ele>
        <time>2021-03-20T17:02:47Z</time>
      </trkpt>
      <trkpt lat="57.56885" lon="-4.18853">
        <ele>26.11</ele>
        <time>2021-03-20T17:02:48Z</time>
      </trkpt>
      <trkpt lat="57.56862" lon="-4.18971">
        <ele>28.92</ele>
        <time>2021-03-20T17:02:49Z</time>
      </trkpt>
      <trkpt lat="57.56861" lon="-4.19021">
        <ele>29.05</ele>
        <time>2021-03-20T17:02:51Z</time>
      </trkpt>
      <trkpt lat="57.56871" lon="-4.19074">
        <ele>27.51</ele>
        <time>2021-03-20T17:02:52Z</time>
      </trkpt>
      <trkpt lat="57.56875" lon="-4.19115">
        <ele>26.9</ele>
        <time>2021-03-20T17:02:54Z</time>
      </trkpt>
      <trkpt lat="57.56872" lon="-4.19142">
        <ele>26.81</ele>
        <time>2021-03-20T17:02:55Z</time>
      </trkpt>
      <trkpt lat="57.56875" lon="-4.19159">
        <ele>26.52</ele>
        <time>2021-03-20T17:02:57Z</time>
      </trkpt>
      <trkpt lat="57.56777" lon="-4.19586">
        <ele>28.08</ele>
        <time>2021-03-20T17:03:11Z</time>
      </trkpt>
      <trkpt lat="57.56688" lon="-4.19951">
        <ele>30.99</ele>
        <time>2021-03-20T17:03:26Z</time>
      </trkpt>
      <trkpt lat="57.56528" lon="-4.20527">
        <ele>36.11</ele>
        <time>2021-03-20T17:03:41Z</time>
      </trkpt>
      <trkpt lat="57.56528" lon="-4.20527">
        <ele>36.11</ele>
        <time>2021-03-20T17:03:41Z</time>
      </trkpt>
      <trkpt lat="57.56491" lon="-4.20662">
        <ele>37</ele>
        <time>2021-03-20T17:03:57Z</time>
      </trkpt>
      <trkpt lat="57.56237" lon="-4.21494">
        <ele>38.54</ele>
        <time>2021-03-20T17:04:14Z</time>
      </trkpt>
      <trkpt lat="57.56147" lon="-4.21768">
        <ele>35.58</ele>
        <time>2021-03-20T17:04:31Z</time>
      </trkpt>
      <trkpt lat="57.55824" lon="-4.22714">
        <ele>36</ele>
        <time>2021-03-20T17:04:47Z</time>
      </trkpt>
      <trkpt lat="57.55699" lon="-4.23048">
        <ele>33.83</ele>
        <time>2021-03-20T17:05:04Z</time>
      </trkpt>
      <trkpt lat="57.55559" lon="-4.23588">
        <ele>32.13</ele>
        <time>2021-03-20T17:05:21Z</time>
      </trkpt>
      <trkpt lat="57.55466" lon="-4.24208">
        <ele>25.56</ele>
        <time>2021-03-20T17:05:37Z</time>
      </trkpt>
      <trkpt lat="57.554" lon="-4.24838">
        <ele>26.97</ele>
        <time>2021-03-20T17:05:54Z</time>
      </trkpt>
      <trkpt lat="57.55281" lon="-4.25639">
        <ele>35.26</ele>
        <time>2021-03-20T17:06:10Z</time>
      </trkpt>
      <trkpt lat="57.55275" lon="-4.25694">
        <ele>36.78</ele>
        <time>2021-03-20T17:06:27Z</time>
      </trkpt>
      <trkpt lat="57.5525" lon="-4.25701">
        <ele>35.21</ele>
        <time>2021-03-20T17:06:32Z</time>
      </trkpt>
      <trkpt lat="57.55235" lon="-4.25712">
        <ele>34.57</ele>
        <time>2021-03-20T17:06:37Z</time>
      </trkpt>
      <trkpt lat="57.55053" lon="-4.2591">
        <ele>27.56</ele>
        <time>2021-03-20T17:06:42Z</time>
      </trkpt>
      <trkpt lat="57.55003" lon="-4.25962">
        <ele>24.81</ele>
        <time>2021-03-20T17:06:47Z</time>
      </trkpt>
      <trkpt lat="57.54989" lon="-4.25989">
        <ele>24.21</ele>
        <time>2021-03-20T17:06:52Z</time>
      </trkpt>
      <trkpt lat="57.54952" lon="-4.26126">
        <ele>19.52</ele>
        <time>2021-03-20T17:06:57Z</time>
      </trkpt>
      <trkpt lat="57.54944" lon="-4.2615">
        <ele>18.97</ele>
        <time>2021-03-20T17:07:02Z</time>
      </trkpt>
      <trkpt lat="57.54923" lon="-4.2619">
        <ele>19.24</ele>
        <time>2021-03-20T17:07:07Z</time>
      </trkpt>
      <trkpt lat="57.54903" lon="-4.26223">
        <ele>17.06</ele>
        <time>2021-03-20T17:07:11Z</time>
      </trkpt>
      <trkpt lat="57.54855" lon="-4.26329">
        <ele>14.22</ele>
        <time>2021-03-20T17:07:16Z</time>
      </trkpt>
      <trkpt lat="57.54827" lon="-4.2638">
        <ele>16.75</ele>
        <time>2021-03-20T17:07:21Z</time>
      </trkpt>
      <trkpt lat="57.54807" lon="-4.26395">
        <ele>17.23</ele>
        <time>2021-03-20T17:07:26Z</time>
      </trkpt>
      <trkpt lat="57.54788" lon="-4.26401">
        <ele>16.8</ele>
        <time>2021-03-20T17:07:31Z</time>
      </trkpt>
      <trkpt lat="57.54752" lon="-4.26402">
        <ele>14.57</ele>
        <time>2021-03-20T17:07:36Z</time>
      </trkpt>
      <trkpt lat="57.54733" lon="-4.26396">
        <ele>13.02</ele>
        <time>2021-03-20T17:07:41Z</time>
      </trkpt>
      <trkpt lat="57.54708" lon="-4.26377">
        <ele>10.46</ele>
        <time>2021-03-20T17:07:46Z</time>
      </trkpt>
      <trkpt lat="57.54653" lon="-4.26312">
        <ele>9.06</ele>
        <time>2021-03-20T17:07:51Z</time>
      </trkpt>
      <trkpt lat="57.54532" lon="-4.26141">
        <ele>5</ele>
        <time>2021-03-20T17:07:56Z</time>
      </trkpt>
      <trkpt lat="57.54475" lon="-4.2604">
        <ele>5</ele>
        <time>2021-03-20T17:08:01Z</time>
      </trkpt>
      <trkpt lat="57.54451" lon="-4.25981">
        <ele>5</ele>
        <time>2021-03-20T17:08:06Z</time>
      </trkpt>
      <trkpt lat="57.54435" lon="-4.25887">
        <ele>4</ele>
        <time>2021-03-20T17:08:11Z</time>
      </trkpt>
      <trkpt lat="57.54424" lon="-4.2586">
        <ele>4</ele>
        <time>2021-03-20T17:08:15Z</time>
      </trkpt>
      <trkpt lat="57.54406" lon="-4.25836">
        <ele>4.33</ele>
        <time>2021-03-20T17:08:20Z</time>
      </trkpt>
      <trkpt lat="57.54378" lon="-4.25819">
        <ele>6.3</ele>
        <time>2021-03-20T17:08:25Z</time>
      </trkpt>
      <trkpt lat="57.54362" lon="-4.25815">
        <ele>7.57</ele>
        <time>2021-03-20T17:08:30Z</time>
      </trkpt>
      <trkpt lat="57.54344" lon="-4.25819">
        <ele>7.53</ele>
        <time>2021-03-20T17:08:35Z</time>
      </trkpt>
      <trkpt lat="57.54326" lon="-4.25826">
        <ele>7.74</ele>
        <time>2021-03-20T17:08:40Z</time>
      </trkpt>
      <trkpt lat="57.54286" lon="-4.2585">
        <ele>10.82</ele>
        <time>2021-03-20T17:08:45Z</time>
      </trkpt>
      <trkpt lat="57.54076" lon="-4.26044">
        <ele>24.44</ele>
        <time>2021-03-20T17:08:50Z</time>
      </trkpt>
      <trkpt lat="57.54019" lon="-4.26056">
        <ele>31.89</ele>
        <time>2021-03-20T17:08:56Z</time>
      </trkpt>
      <trkpt lat="57.5388" lon="-4.26067">
        <ele>48.6</ele>
        <time>2021-03-20T17:09:02Z</time>
      </trkpt>
      <trkpt lat="57.53824" lon="-4.26078">
        <ele>55.33</ele>
        <time>2021-03-20T17:09:08Z</time>
      </trkpt>
      <trkpt lat="57.5344" lon="-4.26255">
        <ele>73.51</ele>
        <time>2021-03-20T17:09:14Z</time>
      </trkpt>
      <trkpt lat="57.52639" lon="-4.26372">
        <ele>96.39</ele>
        <time>2021-03-20T17:09:20Z</time>
      </trkpt>
      <trkpt lat="57.52598" lon="-4.26321">
        <ele>96.49</ele>
        <time>2021-03-20T17:09:26Z</time>
      </trkpt>
      <trkpt lat="57.52385" lon="-4.26141">
        <ele>90.84</ele>
        <time>2021-03-20T17:09:31Z</time>
      </trkpt>
      <trkpt lat="57.52241" lon="-4.26007">
        <ele>84.92</ele>
        <time>2021-03-20T17:09:37Z</time>
      </trkpt>
      <trkpt lat="57.52179" lon="-4.25955">
        <ele>83.74</ele>
        <time>2021-03-20T17:09:43Z</time>
      </trkpt>
      <trkpt lat="57.52037" lon="-4.25863">
        <ele>89.68</ele>
        <time>2021-03-20T17:09:49Z</time>
      </trkpt>
      <trkpt lat="57.51854" lon="-4.25782">
        <ele>103.54</ele>
        <time>2021-03-20T17:09:55Z</time>
      </trkpt>
      <trkpt lat="57.51753" lon="-4.25705">
        <ele>99.81</ele>
        <time>2021-03-20T17:10:01Z</time>
      </trkpt>
      <trkpt lat="57.51736" lon="-4.257">
        <ele>98.36</ele>
        <time>2021-03-20T17:10:07Z</time>
      </trkpt>
      <trkpt lat="57.51722" lon="-4.25703">
        <ele>97.52</ele>
        <time>2021-03-20T17:10:13Z</time>
      </trkpt>
      <trkpt lat="57.51703" lon="-4.25713">
        <ele>95.99</ele>
        <time>2021-03-20T17:10:19Z</time>
      </trkpt>
      <trkpt lat="57.51676" lon="-4.25734">
        <ele>94.62</ele>
        <time>2021-03-20T17:10:25Z</time>
      </trkpt>
      <trkpt lat="57.51574" lon="-4.25859">
        <ele>90.15</ele>
        <time>2021-03-20T17:10:31Z</time>
      </trkpt>
      <trkpt lat="57.5143" lon="-4.25883">
        <ele>74.67</ele>
        <time>2021-03-20T17:10:37Z</time>
      </trkpt>
      <trkpt lat="57.51415" lon="-4.25881">
        <ele>73.36</ele>
        <time>2021-03-20T17:10:43Z</time>
      </trkpt>
      <trkpt lat="57.51311" lon="-4.25831">
        <ele>65.32</ele>
        <time>2021-03-20T17:10:49Z</time>
      </trkpt>
      <trkpt lat="57.5127" lon="-4.25835">
        <ele>62.54</ele>
        <time>2021-03-20T17:10:55Z</time>
      </trkpt>
      <trkpt lat="57.51259" lon="-4.25832">
        <ele>61.59</ele>
        <time>2021-03-20T17:11:01Z</time>
      </trkpt>
      <trkpt lat="57.51226" lon="-4.25811">
        <ele>59.16</ele>
        <time>2021-03-20T17:11:06Z</time>
      </trkpt>
      <trkpt lat="57.51214" lon="-4.25811">
        <ele>58.72</ele>
        <time>2021-03-20T17:11:12Z</time>
      </trkpt>
      <trkpt lat="57.51168" lon="-4.25842">
        <ele>58.33</ele>
        <time>2021-03-20T17:11:18Z</time>
      </trkpt>
      <trkpt lat="57.51157" lon="-4.2584">
        <ele>58.5</ele>
        <time>2021-03-20T17:11:24Z</time>
      </trkpt>
      <trkpt lat="57.51139" lon="-4.25825">
        <ele>59</ele>
        <time>2021-03-20T17:11:30Z</time>
      </trkpt>
      <trkpt lat="57.51122" lon="-4.25816">
        <ele>59</ele>
        <time>2021-03-20T17:11:36Z</time>
      </trkpt>
      <trkpt lat="57.51116" lon="-4.25818">
        <ele>59</ele>
        <time>2021-03-20T17:11:42Z</time>
      </trkpt>
      <trkpt lat="57.51104" lon="-4.25835">
        <ele>59.25</ele>
        <time>2021-03-20T17:11:48Z</time>
      </trkpt>
      <trkpt lat="57.51096" lon="-4.25852">
        <ele>59.55</ele>
        <time>2021-03-20T17:11:54Z</time>
      </trkpt>
      <trkpt lat="57.51072" lon="-4.25986">
        <ele>58.4</ele>
        <time>2021-03-20T17:12:00Z</time>
      </trkpt>
      <trkpt lat="57.51048" lon="-4.26065">
        <ele>56.93</ele>
        <time>2021-03-20T17:12:06Z</time>
      </trkpt>
      <trkpt lat="57.51012" lon="-4.26138">
        <ele>56.43</ele>
        <time>2021-03-20T17:12:12Z</time>
      </trkpt>
      <trkpt lat="57.50964" lon="-4.26194">
        <ele>55.37</ele>
        <time>2021-03-20T17:12:18Z</time>
      </trkpt>
      <trkpt lat="57.50928" lon="-4.26225">
        <ele>52.83</ele>
        <time>2021-03-20T17:12:24Z</time>
      </trkpt>
      <trkpt lat="57.50907" lon="-4.26238">
        <ele>50.07</ele>
        <time>2021-03-20T17:12:30Z</time>
      </trkpt>
      <trkpt lat="57.50892" lon="-4.26256">
        <ele>46.6</ele>
        <time>2021-03-20T17:12:35Z</time>
      </trkpt>
      <trkpt lat="57.50885" lon="-4.26246">
        <ele>45.32</ele>
        <time>2021-03-20T17:12:43Z</time>
      </trkpt>
      <trkpt lat="57.50879" lon="-4.26242">
        <ele>44.23</ele>
        <time>2021-03-20T17:12:50Z</time>
      </trkpt>
      <trkpt lat="57.50872" lon="-4.26238">
        <ele>42.83</ele>
        <time>2021-03-20T17:12:58Z</time>
      </trkpt>
      <trkpt lat="57.50861" lon="-4.26239">
        <ele>40.34</ele>
        <time>2021-03-20T17:13:05Z</time>
      </trkpt>
      <trkpt lat="57.50838" lon="-4.26228">
        <ele>35.88</ele>
        <time>2021-03-20T17:13:13Z</time>
      </trkpt>
      <trkpt lat="57.5083" lon="-4.26209">
        <ele>35.05</ele>
        <time>2021-03-20T17:13:20Z</time>
      </trkpt>
      <trkpt lat="57.50812" lon="-4.26135">
        <ele>35.45</ele>
        <time>2021-03-20T17:13:28Z</time>
      </trkpt>
      <trkpt lat="57.50799" lon="-4.26067">
        <ele>36.1</ele>
        <time>2021-03-20T17:13:35Z</time>
      </trkpt>
      <trkpt lat="57.50767" lon="-4.25941">
        <ele>39.27</ele>
        <time>2021-03-20T17:13:43Z</time>
      </trkpt>
      <trkpt lat="57.50694" lon="-4.25747">
        <ele>34.12</ele>
        <time>2021-03-20T17:13:50Z</time>
      </trkpt>
      <trkpt lat="57.50618" lon="-4.25574">
        <ele>35.89</ele>
        <time>2021-03-20T17:13:58Z</time>
      </trkpt>
      <trkpt lat="57.50531" lon="-4.25388">
        <ele>39.38</ele>
        <time>2021-03-20T17:14:05Z</time>
      </trkpt>
      <trkpt lat="57.50358" lon="-4.25007">
        <ele>36.05</ele>
        <time>2021-03-20T17:14:12Z</time>
      </trkpt>
      <trkpt lat="57.5032" lon="-4.24901">
        <ele>32.59</ele>
        <time>2021-03-20T17:14:20Z</time>
      </trkpt>
      <trkpt lat="57.50296" lon="-4.24824">
        <ele>29.39</ele>
        <time>2021-03-20T17:14:27Z</time>
      </trkpt>
      <trkpt lat="57.50276" lon="-4.24744">
        <ele>29.27</ele>
        <time>2021-03-20T17:14:35Z</time>
      </trkpt>
      <trkpt lat="57.50255" lon="-4.24645">
        <ele>31.58</ele>
        <time>2021-03-20T17:14:42Z</time>
      </trkpt>
      <trkpt lat="57.50236" lon="-4.24531">
        <ele>32.46</ele>
        <time>2021-03-20T17:14:50Z</time>
      </trkpt>
      <trkpt lat="57.50223" lon="-4.24425">
        <ele>34.92</ele>
        <time>2021-03-20T17:14:57Z</time>
      </trkpt>
      <trkpt lat="57.50216" lon="-4.24348">
        <ele>37.62</ele>
        <time>2021-03-20T17:15:05Z</time>
      </trkpt>
      <trkpt lat="57.50201" lon="-4.23843">
        <ele>33.43</ele>
        <time>2021-03-20T17:15:12Z</time>
      </trkpt>
      <trkpt lat="57.50198" lon="-4.23755">
        <ele>32.33</ele>
        <time>2021-03-20T17:15:20Z</time>
      </trkpt>
      <trkpt lat="57.5019" lon="-4.23683">
        <ele>32.22</ele>
        <time>2021-03-20T17:15:27Z</time>
      </trkpt>
      <trkpt lat="57.5018" lon="-4.23613">
        <ele>30.57</ele>
        <time>2021-03-20T17:15:34Z</time>
      </trkpt>
      <trkpt lat="57.50139" lon="-4.23441">
        <ele>28.12</ele>
        <time>2021-03-20T17:15:42Z</time>
      </trkpt>
      <trkpt lat="57.50129" lon="-4.23408">
        <ele>27.64</ele>
        <time>2021-03-20T17:15:49Z</time>
      </trkpt>
      <trkpt lat="57.50012" lon="-4.23135">
        <ele>23.53</ele>
        <time>2021-03-20T17:15:57Z</time>
      </trkpt>
      <trkpt lat="57.49869" lon="-4.22825">
        <ele>18.8</ele>
        <time>2021-03-20T17:16:04Z</time>
      </trkpt>
      <trkpt lat="57.49602" lon="-4.22222">
        <ele>9.63</ele>
        <time>2021-03-20T17:16:12Z</time>
      </trkpt>
      <trkpt lat="57.49492" lon="-4.21995">
        <ele>5</ele>
        <time>2021-03-20T17:16:19Z</time>
      </trkpt>
      <trkpt lat="57.49358" lon="-4.21741">
        <ele>6.08</ele>
        <time>2021-03-20T17:16:27Z</time>
      </trkpt>
      <trkpt lat="57.49216" lon="-4.21535">
        <ele>4</ele>
        <time>2021-03-20T17:16:34Z</time>
      </trkpt>
      <trkpt lat="57.49211" lon="-4.21523">
        <ele>4</ele>
        <time>2021-03-20T17:16:42Z</time>
      </trkpt>
      <trkpt lat="57.49205" lon="-4.21505">
        <ele>4</ele>
        <time>2021-03-20T17:16:49Z</time>
      </trkpt>
      <trkpt lat="57.49204" lon="-4.21488">
        <ele>4.42</ele>
        <time>2021-03-20T17:16:54Z</time>
      </trkpt>
      <trkpt lat="57.492" lon="-4.21475">
        <ele>4.91</ele>
        <time>2021-03-20T17:16:58Z</time>
      </trkpt>
      <trkpt lat="57.49189" lon="-4.21456">
        <ele>5.58</ele>
        <time>2021-03-20T17:17:03Z</time>
      </trkpt>
      <trkpt lat="57.49178" lon="-4.2145">
        <ele>5.8</ele>
        <time>2021-03-20T17:17:08Z</time>
      </trkpt>
      <trkpt lat="57.49166" lon="-4.21452">
        <ele>5.71</ele>
        <time>2021-03-20T17:17:12Z</time>
      </trkpt>
      <trkpt lat="57.49155" lon="-4.21462">
        <ele>5.21</ele>
        <time>2021-03-20T17:17:17Z</time>
      </trkpt>
      <trkpt lat="57.49149" lon="-4.21476">
        <ele>5</ele>
        <time>2021-03-20T17:17:22Z</time>
      </trkpt>
      <trkpt lat="57.49145" lon="-4.21491">
        <ele>5</ele>
        <time>2021-03-20T17:17:27Z</time>
      </trkpt>
      <trkpt lat="57.49143" lon="-4.21537">
        <ele>5.87</ele>
        <time>2021-03-20T17:17:31Z</time>
      </trkpt>
      <trkpt lat="57.49138" lon="-4.21561">
        <ele>5.97</ele>
        <time>2021-03-20T17:17:36Z</time>
      </trkpt>
      <trkpt lat="57.49132" lon="-4.2158">
        <ele>5.76</ele>
        <time>2021-03-20T17:17:41Z</time>
      </trkpt>
      <trkpt lat="57.49089" lon="-4.21669">
        <ele>4.21</ele>
        <time>2021-03-20T17:17:45Z</time>
      </trkpt>
      <trkpt lat="57.49051" lon="-4.21737">
        <ele>3.68</ele>
        <time>2021-03-20T17:17:50Z</time>
      </trkpt>
      <trkpt lat="57.4902" lon="-4.21781">
        <ele>4.91</ele>
        <time>2021-03-20T17:17:55Z</time>
      </trkpt>
      <trkpt lat="57.48976" lon="-4.2183">
        <ele>5</ele>
        <time>2021-03-20T17:17:59Z</time>
      </trkpt>
      <trkpt lat="57.48941" lon="-4.21861">
        <ele>4.01</ele>
        <time>2021-03-20T17:18:04Z</time>
      </trkpt>
      <trkpt lat="57.48774" lon="-4.2196">
        <ele>5.39</ele>
        <time>2021-03-20T17:18:09Z</time>
      </trkpt>
      <trkpt lat="57.48615" lon="-4.22049">
        <ele>5</ele>
        <time>2021-03-20T17:18:13Z</time>
      </trkpt>
      <trkpt lat="57.4859" lon="-4.22051">
        <ele>5.76</ele>
        <time>2021-03-20T17:18:18Z</time>
      </trkpt>
      <trkpt lat="57.48581" lon="-4.22041">
        <ele>6</ele>
        <time>2021-03-20T17:18:22Z</time>
      </trkpt>
      <trkpt lat="57.48571" lon="-4.22041">
        <ele>6</ele>
        <time>2021-03-20T17:18:27Z</time>
      </trkpt>
      <trkpt lat="57.48561" lon="-4.22053">
        <ele>6</ele>
        <time>2021-03-20T17:18:31Z</time>
      </trkpt>
      <trkpt lat="57.48559" lon="-4.22063">
        <ele>5.77</ele>
        <time>2021-03-20T17:18:35Z</time>
      </trkpt>
      <trkpt lat="57.48558" lon="-4.22084">
        <ele>5.1</ele>
        <time>2021-03-20T17:18:40Z</time>
      </trkpt>
      <trkpt lat="57.48561" lon="-4.22094">
        <ele>5.19</ele>
        <time>2021-03-20T17:18:44Z</time>
      </trkpt>
      <trkpt lat="57.4857" lon="-4.22106">
        <ele>5.5</ele>
        <time>2021-03-20T17:18:49Z</time>
      </trkpt>
      <trkpt lat="57.4858" lon="-4.22108">
        <ele>5.89</ele>
        <time>2021-03-20T17:18:53Z</time>
      </trkpt>
      <trkpt lat="57.48607" lon="-4.22565">
        <ele>5</ele>
        <time>2021-03-20T17:18:57Z</time>
      </trkpt>
      <trkpt lat="57.48609" lon="-4.2262">
        <ele>4.97</ele>
        <time>2021-03-20T17:19:02Z</time>
      </trkpt>
      <trkpt lat="57.48607" lon="-4.22647">
        <ele>4.87</ele>
        <time>2021-03-20T17:19:06Z</time>
      </trkpt>
      <trkpt lat="57.48603" lon="-4.22709">
        <ele>3.34</ele>
        <time>2021-03-20T17:19:10Z</time>
      </trkpt>
      <trkpt lat="57.48596" lon="-4.22772">
        <ele>3</ele>
        <time>2021-03-20T17:19:15Z</time>
      </trkpt>
      <trkpt lat="57.486" lon="-4.22847">
        <ele>2.5</ele>
        <time>2021-03-20T17:19:19Z</time>
      </trkpt>
      <trkpt lat="57.48604" lon="-4.22881">
        <ele>2</ele>
        <time>2021-03-20T17:19:23Z</time>
      </trkpt>
      <trkpt lat="57.48569" lon="-4.22927">
        <ele>0.82</ele>
        <time>2021-03-20T17:19:32Z</time>
      </trkpt>
      <trkpt lat="57.48493" lon="-4.2296">
        <ele>1.44</ele>
        <time>2021-03-20T17:19:41Z</time>
      </trkpt>
      <trkpt lat="57.48414" lon="-4.22986">
        <ele>3.1</ele>
        <time>2021-03-20T17:19:50Z</time>
      </trkpt>
      <trkpt lat="57.48368" lon="-4.23005">
        <ele>3.82</ele>
        <time>2021-03-20T17:19:59Z</time>
      </trkpt>
      <trkpt lat="57.48285" lon="-4.23052">
        <ele>4</ele>
        <time>2021-03-20T17:20:07Z</time>
      </trkpt>
      <trkpt lat="57.4828" lon="-4.23034">
        <ele>4</ele>
        <time>2021-03-20T17:20:11Z</time>
      </trkpt>
      <trkpt lat="57.4827" lon="-4.23023">
        <ele>4.34</ele>
        <time>2021-03-20T17:20:15Z</time>
      </trkpt>
      <trkpt lat="57.48263" lon="-4.23022">
        <ele>4.63</ele>
        <time>2021-03-20T17:20:19Z</time>
      </trkpt>
      <trkpt lat="57.48256" lon="-4.23026">
        <ele>4.84</ele>
        <time>2021-03-20T17:20:23Z</time>
      </trkpt>
      <trkpt lat="57.48251" lon="-4.23032">
        <ele>4.97</ele>
        <time>2021-03-20T17:20:26Z</time>
      </trkpt>
      <trkpt lat="57.48248" lon="-4.2304">
        <ele>5.06</ele>
        <time>2021-03-20T17:20:30Z</time>
      </trkpt>
      <trkpt lat="57.48208" lon="-4.23038">
        <ele>6</ele>
        <time>2021-03-20T17:20:34Z</time>
      </trkpt>
      <trkpt lat="57.48191" lon="-4.2303">
        <ele>5.87</ele>
        <time>2021-03-20T17:20:38Z</time>
      </trkpt>
      <trkpt lat="57.48132" lon="-4.22926">
        <ele>7</ele>
        <time>2021-03-20T17:20:41Z</time>
      </trkpt>
      <trkpt lat="57.48081" lon="-4.22832">
        <ele>8.14</ele>
        <time>2021-03-20T17:20:45Z</time>
      </trkpt>
      <trkpt lat="57.48073" lon="-4.22852">
        <ele>9.41</ele>
        <time>2021-03-20T17:20:56Z</time>
      </trkpt>
      <trkpt lat="57.48062" lon="-4.22869">
        <ele>10.74</ele>
        <time>2021-03-20T17:21:07Z</time>
      </trkpt>
      <trkpt lat="57.48055" lon="-4.22875">
        <ele>11.5</ele>
        <time>2021-03-20T17:21:19Z</time>
      </trkpt>
      <trkpt lat="57.48019" lon="-4.22936">
        <ele>11.19</ele>
        <time>2021-03-20T17:21:30Z</time>
      </trkpt>
      <trkpt lat="57.47992" lon="-4.22972">
        <ele>6.47</ele>
        <time>2021-03-20T17:21:41Z</time>
      </trkpt>
      <trkpt lat="57.47986" lon="-4.22975">
        <ele>5.91</ele>
        <time>2021-03-20T17:21:52Z</time>
      </trkpt>
      <trkpt lat="57.47976" lon="-4.22964">
        <ele>5.59</ele>
        <time>2021-03-20T17:22:03Z</time>
      </trkpt>
      <trkpt lat="57.47945" lon="-4.22912">
        <ele>4.19</ele>
        <time>2021-03-20T17:22:14Z</time>
      </trkpt>
      <trkpt lat="57.47925" lon="-4.22886">
        <ele>5</ele>
        <time>2021-03-20T17:22:25Z</time>
      </trkpt>
      <trkpt lat="57.4787" lon="-4.22823">
        <ele>8.06</ele>
        <time>2021-03-20T17:22:36Z</time>
      </trkpt>
      <trkpt lat="57.47794" lon="-4.22752">
        <ele>6.93</ele>
        <time>2021-03-20T17:22:47Z</time>
      </trkpt>
      <trkpt lat="57.47709" lon="-4.22685">
        <ele>7.18</ele>
        <time>2021-03-20T17:22:58Z</time>
      </trkpt>
      <trkpt lat="57.47674" lon="-4.22665">
        <ele>9.66</ele>
        <time>2021-03-20T17:23:10Z</time>
      </trkpt>
      <trkpt lat="57.47464" lon="-4.22582">
        <ele>11.56</ele>
        <time>2021-03-20T17:23:21Z</time>
      </trkpt>
      <trkpt lat="57.47428" lon="-4.2257">
        <ele>10.55</ele>
        <time>2021-03-20T17:23:32Z</time>
      </trkpt>
      <trkpt lat="57.47413" lon="-4.22576">
        <ele>9.34</ele>
        <time>2021-03-20T17:23:43Z</time>
      </trkpt>
      <trkpt lat="57.47364" lon="-4.22592">
        <ele>8.61</ele>
        <time>2021-03-20T17:23:54Z</time>
      </trkpt>
      <trkpt lat="57.47291" lon="-4.22624">
        <ele>7.72</ele>
        <time>2021-03-20T17:24:05Z</time>
      </trkpt>
      <trkpt lat="57.47103" lon="-4.22718">
        <ele>7.7</ele>
        <time>2021-03-20T17:24:16Z</time>
      </trkpt>
      <trkpt lat="57.46907" lon="-4.22734">
        <ele>8.85</ele>
        <time>2021-03-20T17:24:27Z</time>
      </trkpt>
      <trkpt lat="57.46647" lon="-4.22745">
        <ele>12.49</ele>
        <time>2021-03-20T17:24:38Z</time>
      </trkpt>
      <trkpt lat="57.46563" lon="-4.22761">
        <ele>12.34</ele>
        <time>2021-03-20T17:24:50Z</time>
      </trkpt>
      <trkpt lat="57.46535" lon="-4.2277">
        <ele>14.45</ele>
        <time>2021-03-20T17:25:01Z</time>
      </trkpt>
      <trkpt lat="57.46477" lon="-4.22806">
        <ele>13.99</ele>
        <time>2021-03-20T17:25:12Z</time>
      </trkpt>
      <trkpt lat="57.46381" lon="-4.22884">
        <ele>12.47</ele>
        <time>2021-03-20T17:25:23Z</time>
      </trkpt>
      <trkpt lat="57.46358" lon="-4.22905">
        <ele>12.4</ele>
        <time>2021-03-20T17:25:34Z</time>
      </trkpt>
      <trkpt lat="57.46181" lon="-4.23116">
        <ele>14.8</ele>
        <time>2021-03-20T17:25:45Z</time>
      </trkpt>
      <trkpt lat="57.46132" lon="-4.23177">
        <ele>15.9</ele>
        <time>2021-03-20T17:25:56Z</time>
      </trkpt>
      <trkpt lat="57.46118" lon="-4.23199">
        <ele>15.76</ele>
        <time>2021-03-20T17:26:07Z</time>
      </trkpt>
      <trkpt lat="57.46016" lon="-4.23383">
        <ele>19.61</ele>
        <time>2021-03-20T17:26:18Z</time>
      </trkpt>
      <trkpt lat="57.46" lon="-4.23423">
        <ele>26.02</ele>
        <time>2021-03-20T17:26:29Z</time>
      </trkpt>
      <trkpt lat="57.4594" lon="-4.23627">
        <ele>27.9</ele>
        <time>2021-03-20T17:26:41Z</time>
      </trkpt>
      <trkpt lat="57.45924" lon="-4.23674">
        <ele>24.5</ele>
        <time>2021-03-20T17:26:52Z</time>
      </trkpt>
      <trkpt lat="57.4591" lon="-4.23705">
        <ele>23.63</ele>
        <time>2021-03-20T17:27:03Z</time>
      </trkpt>
      <trkpt lat="57.45856" lon="-4.23807">
        <ele>21.64</ele>
        <time>2021-03-20T17:27:14Z</time>
      </trkpt>
      <trkpt lat="57.45832" lon="-4.23858">
        <ele>18.42</ele>
        <time>2021-03-20T17:27:25Z</time>
      </trkpt>
      <trkpt lat="57.4579" lon="-4.23958">
        <ele>15.5</ele>
        <time>2021-03-20T17:27:36Z</time>
      </trkpt>
      <trkpt lat="57.45764" lon="-4.24003">
        <ele>16.05</ele>
        <time>2021-03-20T17:27:47Z</time>
      </trkpt>
      <trkpt lat="57.45603" lon="-4.24248">
        <ele>17.32</ele>
        <time>2021-03-20T17:27:58Z</time>
      </trkpt>
      <trkpt lat="57.4553" lon="-4.24356">
        <ele>17.68</ele>
        <time>2021-03-20T17:28:09Z</time>
      </trkpt>
      <trkpt lat="57.45404" lon="-4.24549">
        <ele>18</ele>
        <time>2021-03-20T17:28:20Z</time>
      </trkpt>
      <trkpt lat="57.45324" lon="-4.24693">
        <ele>19</ele>
        <time>2021-03-20T17:28:32Z</time>
      </trkpt>
      <trkpt lat="57.45267" lon="-4.24782">
        <ele>20.24</ele>
        <time>2021-03-20T17:28:43Z</time>
      </trkpt>
      <trkpt lat="57.45145" lon="-4.24951">
        <ele>21.36</ele>
        <time>2021-03-20T17:28:54Z</time>
      </trkpt>
      <trkpt lat="57.45086" lon="-4.25036">
        <ele>22</ele>
        <time>2021-03-20T17:29:05Z</time>
      </trkpt>
      <trkpt lat="57.45066" lon="-4.25068">
        <ele>21.83</ele>
        <time>2021-03-20T17:29:16Z</time>
      </trkpt>
      <trkpt lat="57.45053" lon="-4.25066">
        <ele>22.08</ele>
        <time>2021-03-20T17:29:24Z</time>
      </trkpt>
      <trkpt lat="57.45042" lon="-4.25076">
        <ele>22.49</ele>
        <time>2021-03-20T17:29:32Z</time>
      </trkpt>
      <trkpt lat="57.45038" lon="-4.25085">
        <ele>22.64</ele>
        <time>2021-03-20T17:29:40Z</time>
      </trkpt>
      <trkpt lat="57.45035" lon="-4.25097">
        <ele>22.74</ele>
        <time>2021-03-20T17:29:47Z</time>
      </trkpt>
      <trkpt lat="57.45034" lon="-4.25109">
        <ele>22.76</ele>
        <time>2021-03-20T17:29:55Z</time>
      </trkpt>
      <trkpt lat="57.45036" lon="-4.25121">
        <ele>22.08</ele>
        <time>2021-03-20T17:30:03Z</time>
      </trkpt>
      <trkpt lat="57.45015" lon="-4.2514">
        <ele>21.9</ele>
        <time>2021-03-20T17:30:11Z</time>
      </trkpt>
      <trkpt lat="57.44989" lon="-4.25171">
        <ele>22.73</ele>
        <time>2021-03-20T17:30:19Z</time>
      </trkpt>
      <trkpt lat="57.44924" lon="-4.25266">
        <ele>24.59</ele>
        <time>2021-03-20T17:30:27Z</time>
      </trkpt>
      <trkpt lat="57.447" lon="-4.25574">
        <ele>27.01</ele>
        <time>2021-03-20T17:30:34Z</time>
      </trkpt>
      <trkpt lat="57.44574" lon="-4.25752">
        <ele>31.09</ele>
        <time>2021-03-20T17:30:42Z</time>
      </trkpt>
      <trkpt lat="57.44496" lon="-4.25848">
        <ele>32.08</ele>
        <time>2021-03-20T17:30:50Z</time>
      </trkpt>
      <trkpt lat="57.44459" lon="-4.25885">
        <ele>35.55</ele>
        <time>2021-03-20T17:30:58Z</time>
      </trkpt>
      <trkpt lat="57.44264" lon="-4.26171">
        <ele>38.69</ele>
        <time>2021-03-20T17:31:06Z</time>
      </trkpt>
      <trkpt lat="57.44212" lon="-4.26228">
        <ele>37.61</ele>
        <time>2021-03-20T17:31:14Z</time>
      </trkpt>
      <trkpt lat="57.44137" lon="-4.26299">
        <ele>40.41</ele>
        <time>2021-03-20T17:31:21Z</time>
      </trkpt>
      <trkpt lat="57.44117" lon="-4.26314">
        <ele>41.61</ele>
        <time>2021-03-20T17:31:29Z</time>
      </trkpt>
      <trkpt lat="57.44066" lon="-4.26337">
        <ele>42.6</ele>
        <time>2021-03-20T17:31:37Z</time>
      </trkpt>
      <trkpt lat="57.44037" lon="-4.26357">
        <ele>41.1</ele>
        <time>2021-03-20T17:31:45Z</time>
      </trkpt>
      <trkpt lat="57.43986" lon="-4.26402">
        <ele>43.09</ele>
        <time>2021-03-20T17:31:53Z</time>
      </trkpt>
      <trkpt lat="57.43931" lon="-4.26438">
        <ele>46.59</ele>
        <time>2021-03-20T17:32:01Z</time>
      </trkpt>
      <trkpt lat="57.43887" lon="-4.26477">
        <ele>50.36</ele>
        <time>2021-03-20T17:32:08Z</time>
      </trkpt>
      <trkpt lat="57.43857" lon="-4.26514">
        <ele>52.87</ele>
        <time>2021-03-20T17:32:16Z</time>
      </trkpt>
      <trkpt lat="57.43769" lon="-4.26633">
        <ele>57.52</ele>
        <time>2021-03-20T17:32:24Z</time>
      </trkpt>
      <trkpt lat="57.43658" lon="-4.26799">
        <ele>57.53</ele>
        <time>2021-03-20T17:32:32Z</time>
      </trkpt>
      <trkpt lat="57.43619" lon="-4.26871">
        <ele>59</ele>
        <time>2021-03-20T17:32:40Z</time>
      </trkpt>
      <trkpt lat="57.43475" lon="-4.27147">
        <ele>57.08</ele>
        <time>2021-03-20T17:32:48Z</time>
      </trkpt>
      <trkpt lat="57.43275" lon="-4.27512">
        <ele>50.48</ele>
        <time>2021-03-20T17:32:56Z</time>
      </trkpt>
      <trkpt lat="57.43062" lon="-4.27924">
        <ele>38.45</ele>
        <time>2021-03-20T17:33:03Z</time>
      </trkpt>
      <trkpt lat="57.42864" lon="-4.28304">
        <ele>35.93</ele>
        <time>2021-03-20T17:33:11Z</time>
      </trkpt>
      <trkpt lat="57.42597" lon="-4.28826">
        <ele>50.16</ele>
        <time>2021-03-20T17:33:19Z</time>
      </trkpt>
      <trkpt lat="57.42227" lon="-4.2952">
        <ele>59.46</ele>
        <time>2021-03-20T17:33:27Z</time>
      </trkpt>
      <trkpt lat="57.42144" lon="-4.29629">
        <ele>63.6</ele>
        <time>2021-03-20T17:33:35Z</time>
      </trkpt>
      <trkpt lat="57.41766" lon="-4.30047">
        <ele>73.67</ele>
        <time>2021-03-20T17:33:43Z</time>
      </trkpt>
      <trkpt lat="57.41293" lon="-4.30639">
        <ele>91.58</ele>
        <time>2021-03-20T17:33:50Z</time>
      </trkpt>
      <trkpt lat="57.40992" lon="-4.30968">
        <ele>92.04</ele>
        <time>2021-03-20T17:33:58Z</time>
      </trkpt>
      <trkpt lat="57.40696" lon="-4.31265">
        <ele>81.86</ele>
        <time>2021-03-20T17:34:06Z</time>
      </trkpt>
      <trkpt lat="57.40389" lon="-4.31583">
        <ele>71.99</ele>
        <time>2021-03-20T17:34:14Z</time>
      </trkpt>
      <trkpt lat="57.40176" lon="-4.31768">
        <ele>71.29</ele>
        <time>2021-03-20T17:34:22Z</time>
      </trkpt>
      <trkpt lat="57.40026" lon="-4.31858">
        <ele>57.96</ele>
        <time>2021-03-20T17:34:30Z</time>
      </trkpt>
      <trkpt lat="57.39973" lon="-4.31885">
        <ele>55.01</ele>
        <time>2021-03-20T17:34:37Z</time>
      </trkpt>
      <trkpt lat="57.3991" lon="-4.31902">
        <ele>49.78</ele>
        <time>2021-03-20T17:34:45Z</time>
      </trkpt>
      <trkpt lat="57.39821" lon="-4.31901">
        <ele>41.56</ele>
        <time>2021-03-20T17:34:53Z</time>
      </trkpt>
      <trkpt lat="57.39777" lon="-4.31907">
        <ele>40.37</ele>
        <time>2021-03-20T17:35:01Z</time>
      </trkpt>
      <trkpt lat="57.3975" lon="-4.31917">
        <ele>40.99</ele>
        <time>2021-03-20T17:35:09Z</time>
      </trkpt>
      <trkpt lat="57.39724" lon="-4.31931">
        <ele>41</ele>
        <time>2021-03-20T17:35:17Z</time>
      </trkpt>
      <trkpt lat="57.39407" lon="-4.32211">
        <ele>49.4</ele>
        <time>2021-03-20T17:35:24Z</time>
      </trkpt>
      <trkpt lat="57.39342" lon="-4.32263">
        <ele>49.36</ele>
        <time>2021-03-20T17:35:32Z</time>
      </trkpt>
      <trkpt lat="57.39317" lon="-4.32293">
        <ele>46.92</ele>
        <time>2021-03-20T17:35:40Z</time>
      </trkpt>
      <trkpt lat="57.39294" lon="-4.32328">
        <ele>44.28</ele>
        <time>2021-03-20T17:35:48Z</time>
      </trkpt>
      <trkpt lat="57.3927" lon="-4.32376">
        <ele>44</ele>
        <time>2021-03-20T17:35:56Z</time>
      </trkpt>
      <trkpt lat="57.39239" lon="-4.32457">
        <ele>42.17</ele>
        <time>2021-03-20T17:36:04Z</time>
      </trkpt>
      <trkpt lat="57.39217" lon="-4.32509">
        <ele>40.91</ele>
        <time>2021-03-20T17:36:11Z</time>
      </trkpt>
      <trkpt lat="57.39193" lon="-4.32558">
        <ele>39.95</ele>
        <time>2021-03-20T17:36:19Z</time>
      </trkpt>
      <trkpt lat="57.39078" lon="-4.32712">
        <ele>36.2</ele>
        <time>2021-03-20T17:36:27Z</time>
      </trkpt>
      <trkpt lat="57.39012" lon="-4.32769">
        <ele>37.57</ele>
        <time>2021-03-20T17:36:35Z</time>
      </trkpt>
      <trkpt lat="57.38966" lon="-4.32787">
        <ele>37.67</ele>
        <time>2021-03-20T17:36:43Z</time>
      </trkpt>
      <trkpt lat="57.38924" lon="-4.328">
        <ele>36.5</ele>
        <time>2021-03-20T17:36:51Z</time>
      </trkpt>
      <trkpt lat="57.38595" lon="-4.32885">
        <ele>28.56</ele>
        <time>2021-03-20T17:36:59Z</time>
      </trkpt>
      <trkpt lat="57.38516" lon="-4.32908">
        <ele>27.03</ele>
        <time>2021-03-20T17:37:06Z</time>
      </trkpt>
      <trkpt lat="57.38471" lon="-4.32942">
        <ele>26.09</ele>
        <time>2021-03-20T17:37:14Z</time>
      </trkpt>
      <trkpt lat="57.38413" lon="-4.33003">
        <ele>25.93</ele>
        <time>2021-03-20T17:37:22Z</time>
      </trkpt>
      <trkpt lat="57.3827" lon="-4.33189">
        <ele>22.83</ele>
        <time>2021-03-20T17:37:30Z</time>
      </trkpt>
      <trkpt lat="57.3824" lon="-4.33225">
        <ele>21.27</ele>
        <time>2021-03-20T17:37:38Z</time>
      </trkpt>
      <trkpt lat="57.38229" lon="-4.33237">
        <ele>21.23</ele>
        <time>2021-03-20T17:37:46Z</time>
      </trkpt>
      <trkpt lat="57.38203" lon="-4.33259">
        <ele>21.48</ele>
        <time>2021-03-20T17:37:53Z</time>
      </trkpt>
      <trkpt lat="57.38088" lon="-4.33351">
        <ele>22.48</ele>
        <time>2021-03-20T17:38:00Z</time>
      </trkpt>
      <trkpt lat="57.37905" lon="-4.33538">
        <ele>27.72</ele>
        <time>2021-03-20T17:38:06Z</time>
      </trkpt>
      <trkpt lat="57.37811" lon="-4.33626">
        <ele>28.99</ele>
        <time>2021-03-20T17:38:12Z</time>
      </trkpt>
      <trkpt lat="57.37742" lon="-4.33725">
        <ele>27.46</ele>
        <time>2021-03-20T17:38:19Z</time>
      </trkpt>
      <trkpt lat="57.37475" lon="-4.34022">
        <ele>28.41</ele>
        <time>2021-03-20T17:38:25Z</time>
      </trkpt>
      <trkpt lat="57.37311" lon="-4.34219">
        <ele>28.67</ele>
        <time>2021-03-20T17:38:31Z</time>
      </trkpt>
      <trkpt lat="57.37202" lon="-4.34317">
        <ele>31.18</ele>
        <time>2021-03-20T17:38:37Z</time>
      </trkpt>
      <trkpt lat="57.37166" lon="-4.3436">
        <ele>31.33</ele>
        <time>2021-03-20T17:38:44Z</time>
      </trkpt>
      <trkpt lat="57.37146" lon="-4.34386">
        <ele>31.36</ele>
        <time>2021-03-20T17:38:50Z</time>
      </trkpt>
      <trkpt lat="57.3712" lon="-4.34435">
        <ele>29.1</ele>
        <time>2021-03-20T17:38:56Z</time>
      </trkpt>
      <trkpt lat="57.37032" lon="-4.34576">
        <ele>28.6</ele>
        <time>2021-03-20T17:39:02Z</time>
      </trkpt>
      <trkpt lat="57.36737" lon="-4.34955">
        <ele>27.35</ele>
        <time>2021-03-20T17:39:09Z</time>
      </trkpt>
      <trkpt lat="57.3648" lon="-4.35295">
        <ele>32.07</ele>
        <time>2021-03-20T17:39:15Z</time>
      </trkpt>
      <trkpt lat="57.36448" lon="-4.35346">
        <ele>33.65</ele>
        <time>2021-03-20T17:39:21Z</time>
      </trkpt>
      <trkpt lat="57.3638" lon="-4.35429">
        <ele>31.93</ele>
        <time>2021-03-20T17:39:28Z</time>
      </trkpt>
      <trkpt lat="57.36313" lon="-4.35515">
        <ele>28.99</ele>
        <time>2021-03-20T17:39:34Z</time>
      </trkpt>
      <trkpt lat="57.36284" lon="-4.35547">
        <ele>29.13</ele>
        <time>2021-03-20T17:39:40Z</time>
      </trkpt>
      <trkpt lat="57.36225" lon="-4.356">
        <ele>31.82</ele>
        <time>2021-03-20T17:39:46Z</time>
      </trkpt>
      <trkpt lat="57.36191" lon="-4.35639">
        <ele>34.51</ele>
        <time>2021-03-20T17:39:53Z</time>
      </trkpt>
      <trkpt lat="57.3596" lon="-4.35861">
        <ele>32.26</ele>
        <time>2021-03-20T17:39:59Z</time>
      </trkpt>
      <trkpt lat="57.3584" lon="-4.35988">
        <ele>33.43</ele>
        <time>2021-03-20T17:40:05Z</time>
      </trkpt>
      <trkpt lat="57.35822" lon="-4.3601">
        <ele>32.53</ele>
        <time>2021-03-20T17:40:12Z</time>
      </trkpt>
      <trkpt lat="57.35796" lon="-4.36045">
        <ele>31.02</ele>
        <time>2021-03-20T17:40:18Z</time>
      </trkpt>
      <trkpt lat="57.3577" lon="-4.36074">
        <ele>29.99</ele>
        <time>2021-03-20T17:40:24Z</time>
      </trkpt>
      <trkpt lat="57.35644" lon="-4.36153">
        <ele>34.49</ele>
        <time>2021-03-20T17:40:30Z</time>
      </trkpt>
      <trkpt lat="57.356" lon="-4.36185">
        <ele>35.18</ele>
        <time>2021-03-20T17:40:37Z</time>
      </trkpt>
      <trkpt lat="57.35561" lon="-4.36224">
        <ele>34.05</ele>
        <time>2021-03-20T17:40:43Z</time>
      </trkpt>
      <trkpt lat="57.35414" lon="-4.36394">
        <ele>35.53</ele>
        <time>2021-03-20T17:40:49Z</time>
      </trkpt>
      <trkpt lat="57.3505" lon="-4.36781">
        <ele>34.43</ele>
        <time>2021-03-20T17:40:55Z</time>
      </trkpt>
      <trkpt lat="57.34758" lon="-4.37201">
        <ele>30.76</ele>
        <time>2021-03-20T17:41:02Z</time>
      </trkpt>
      <trkpt lat="57.34677" lon="-4.37297">
        <ele>36.2</ele>
        <time>2021-03-20T17:41:08Z</time>
      </trkpt>
      <trkpt lat="57.34482" lon="-4.37502">
        <ele>32.6</ele>
        <time>2021-03-20T17:41:14Z</time>
      </trkpt>
      <trkpt lat="57.34227" lon="-4.37845">
        <ele>34.46</ele>
        <time>2021-03-20T17:41:21Z</time>
      </trkpt>
      <trkpt lat="57.34072" lon="-4.38077">
        <ele>35.91</ele>
        <time>2021-03-20T17:41:27Z</time>
      </trkpt>
      <trkpt lat="57.33837" lon="-4.38423">
        <ele>34.08</ele>
        <time>2021-03-20T17:41:33Z</time>
      </trkpt>
      <trkpt lat="57.33565" lon="-4.3881">
        <ele>40.5</ele>
        <time>2021-03-20T17:41:39Z</time>
      </trkpt>
      <trkpt lat="57.33313" lon="-4.39271">
        <ele>40.05</ele>
        <time>2021-03-20T17:41:46Z</time>
      </trkpt>
      <trkpt lat="57.33162" lon="-4.39586">
        <ele>34.68</ele>
        <time>2021-03-20T17:41:52Z</time>
      </trkpt>
      <trkpt lat="57.33087" lon="-4.39763">
        <ele>34.9</ele>
        <time>2021-03-20T17:41:58Z</time>
      </trkpt>
      <trkpt lat="57.32968" lon="-4.4003">
        <ele>31.26</ele>
        <time>2021-03-20T17:42:05Z</time>
      </trkpt>
      <trkpt lat="57.32854" lon="-4.40244">
        <ele>26.89</ele>
        <time>2021-03-20T17:42:11Z</time>
      </trkpt>
      <trkpt lat="57.32821" lon="-4.40297">
        <ele>29.08</ele>
        <time>2021-03-20T17:42:17Z</time>
      </trkpt>
      <trkpt lat="57.32657" lon="-4.40511">
        <ele>32.13</ele>
        <time>2021-03-20T17:42:23Z</time>
      </trkpt>
      <trkpt lat="57.32539" lon="-4.4065">
        <ele>29.15</ele>
        <time>2021-03-20T17:42:30Z</time>
      </trkpt>
      <trkpt lat="57.32248" lon="-4.40956">
        <ele>26.15</ele>
        <time>2021-03-20T17:42:36Z</time>
      </trkpt>
      <trkpt lat="57.32099" lon="-4.41096">
        <ele>29.37</ele>
        <time>2021-03-20T17:42:42Z</time>
      </trkpt>
      <trkpt lat="57.31962" lon="-4.41183">
        <ele>29.58</ele>
        <time>2021-03-20T17:42:48Z</time>
      </trkpt>
      <trkpt lat="57.31792" lon="-4.41355">
        <ele>26.91</ele>
        <time>2021-03-20T17:42:55Z</time>
      </trkpt>
      <trkpt lat="57.31757" lon="-4.41372">
        <ele>28.24</ele>
        <time>2021-03-20T17:43:01Z</time>
      </trkpt>
      <trkpt lat="57.31689" lon="-4.41379">
        <ele>35.78</ele>
        <time>2021-03-20T17:43:07Z</time>
      </trkpt>
      <trkpt lat="57.31665" lon="-4.41395">
        <ele>38.48</ele>
        <time>2021-03-20T17:43:14Z</time>
      </trkpt>
      <trkpt lat="57.31644" lon="-4.41448">
        <ele>35.37</ele>
        <time>2021-03-20T17:43:20Z</time>
      </trkpt>
      <trkpt lat="57.31605" lon="-4.41528">
        <ele>32.79</ele>
        <time>2021-03-20T17:43:26Z</time>
      </trkpt>
      <trkpt lat="57.31556" lon="-4.41639">
        <ele>29.22</ele>
        <time>2021-03-20T17:43:32Z</time>
      </trkpt>
      <trkpt lat="57.31523" lon="-4.41697">
        <ele>28.24</ele>
        <time>2021-03-20T17:43:39Z</time>
      </trkpt>
      <trkpt lat="57.31404" lon="-4.41833">
        <ele>27.34</ele>
        <time>2021-03-20T17:43:45Z</time>
      </trkpt>
      <trkpt lat="57.31376" lon="-4.41845">
        <ele>29.08</ele>
        <time>2021-03-20T17:43:51Z</time>
      </trkpt>
      <trkpt lat="57.31343" lon="-4.41835">
        <ele>38.06</ele>
        <time>2021-03-20T17:43:58Z</time>
      </trkpt>
      <trkpt lat="57.31317" lon="-4.41859">
        <ele>37.54</ele>
        <time>2021-03-20T17:44:04Z</time>
      </trkpt>
      <trkpt lat="57.31224" lon="-4.42006">
        <ele>34.54</ele>
        <time>2021-03-20T17:44:10Z</time>
      </trkpt>
      <trkpt lat="57.31154" lon="-4.42149">
        <ele>34.4</ele>
        <time>2021-03-20T17:44:16Z</time>
      </trkpt>
      <trkpt lat="57.31117" lon="-4.42246">
        <ele>33.02</ele>
        <time>2021-03-20T17:44:23Z</time>
      </trkpt>
      <trkpt lat="57.31042" lon="-4.42393">
        <ele>27.8</ele>
        <time>2021-03-20T17:44:29Z</time>
      </trkpt>
      <trkpt lat="57.30898" lon="-4.42484">
        <ele>35.47</ele>
        <time>2021-03-20T17:44:35Z</time>
      </trkpt>
      <trkpt lat="57.30823" lon="-4.42555">
        <ele>37.1</ele>
        <time>2021-03-20T17:44:41Z</time>
      </trkpt>
      <trkpt lat="57.30774" lon="-4.42618">
        <ele>37.18</ele>
        <time>2021-03-20T17:44:48Z</time>
      </trkpt>
      <trkpt lat="57.30679" lon="-4.42754">
        <ele>39.96</ele>
        <time>2021-03-20T17:44:54Z</time>
      </trkpt>
      <trkpt lat="57.30583" lon="-4.42943">
        <ele>29.91</ele>
        <time>2021-03-20T17:45:00Z</time>
      </trkpt>
      <trkpt lat="57.30522" lon="-4.43014">
        <ele>40.95</ele>
        <time>2021-03-20T17:45:07Z</time>
      </trkpt>
      <trkpt lat="57.30475" lon="-4.43089">
        <ele>37.23</ele>
        <time>2021-03-20T17:45:13Z</time>
      </trkpt>
      <trkpt lat="57.30429" lon="-4.4313">
        <ele>45.23</ele>
        <time>2021-03-20T17:45:19Z</time>
      </trkpt>
      <trkpt lat="57.30415" lon="-4.43151">
        <ele>45.04</ele>
        <time>2021-03-20T17:45:25Z</time>
      </trkpt>
      <trkpt lat="57.30389" lon="-4.43224">
        <ele>35.76</ele>
        <time>2021-03-20T17:45:32Z</time>
      </trkpt>
      <trkpt lat="57.30373" lon="-4.43252">
        <ele>38.05</ele>
        <time>2021-03-20T17:45:38Z</time>
      </trkpt>
      <trkpt lat="57.30331" lon="-4.43312">
        <ele>37.95</ele>
        <time>2021-03-20T17:45:44Z</time>
      </trkpt>
      <trkpt lat="57.30291" lon="-4.4335">
        <ele>41.31</ele>
        <time>2021-03-20T17:45:51Z</time>
      </trkpt>
      <trkpt lat="57.30221" lon="-4.43405">
        <ele>40.96</ele>
        <time>2021-03-20T17:45:57Z</time>
      </trkpt>
      <trkpt lat="57.3018" lon="-4.43444">
        <ele>40.14</ele>
        <time>2021-03-20T17:46:03Z</time>
      </trkpt>
      <trkpt lat="57.30128" lon="-4.4348">
        <ele>40.96</ele>
        <time>2021-03-20T17:46:09Z</time>
      </trkpt>
      <trkpt lat="57.30105" lon="-4.43493">
        <ele>42.05</ele>
        <time>2021-03-20T17:46:16Z</time>
      </trkpt>
      <trkpt lat="57.3009" lon="-4.43513">
        <ele>40.78</ele>
        <time>2021-03-20T17:46:22Z</time>
      </trkpt>
      <trkpt lat="57.3007" lon="-4.43576">
        <ele>33.46</ele>
        <time>2021-03-20T17:46:28Z</time>
      </trkpt>
      <trkpt lat="57.30051" lon="-4.43603">
        <ele>31.75</ele>
        <time>2021-03-20T17:46:34Z</time>
      </trkpt>
      <trkpt lat="57.29963" lon="-4.43687">
        <ele>31.09</ele>
        <time>2021-03-20T17:46:41Z</time>
      </trkpt>
      <trkpt lat="57.29873" lon="-4.43784">
        <ele>28.92</ele>
        <time>2021-03-20T17:46:47Z</time>
      </trkpt>
      <trkpt lat="57.29797" lon="-4.43849">
        <ele>30.68</ele>
        <time>2021-03-20T17:46:53Z</time>
      </trkpt>
      <trkpt lat="57.29694" lon="-4.4397">
        <ele>31.46</ele>
        <time>2021-03-20T17:47:00Z</time>
      </trkpt>
      <trkpt lat="57.29635" lon="-4.44061">
        <ele>31.72</ele>
        <time>2021-03-20T17:47:06Z</time>
      </trkpt>
      <trkpt lat="57.29575" lon="-4.44169">
        <ele>31.8</ele>
        <time>2021-03-20T17:47:12Z</time>
      </trkpt>
      <trkpt lat="57.29518" lon="-4.44295">
        <ele>32.88</ele>
        <time>2021-03-20T17:47:18Z</time>
      </trkpt>
      <trkpt lat="57.29497" lon="-4.44345">
        <ele>32.82</ele>
        <time>2021-03-20T17:47:25Z</time>
      </trkpt>
      <trkpt lat="57.29487" lon="-4.44391">
        <ele>27.63</ele>
        <time>2021-03-20T17:47:31Z</time>
      </trkpt>
      <trkpt lat="57.29474" lon="-4.44413">
        <ele>27.25</ele>
        <time>2021-03-20T17:47:37Z</time>
      </trkpt>
      <trkpt lat="57.29445" lon="-4.44454">
        <ele>27.13</ele>
        <time>2021-03-20T17:47:44Z</time>
      </trkpt>
      <trkpt lat="57.29416" lon="-4.44485">
        <ele>27.69</ele>
        <time>2021-03-20T17:47:50Z</time>
      </trkpt>
      <trkpt lat="57.29394" lon="-4.44501">
        <ele>26.58</ele>
        <time>2021-03-20T17:47:56Z</time>
      </trkpt>
      <trkpt lat="57.29364" lon="-4.44504">
        <ele>27.39</ele>
        <time>2021-03-20T17:48:02Z</time>
      </trkpt>
      <trkpt lat="57.29342" lon="-4.44516">
        <ele>27.77</ele>
        <time>2021-03-20T17:48:09Z</time>
      </trkpt>
      <trkpt lat="57.29301" lon="-4.44558">
        <ele>27.76</ele>
        <time>2021-03-20T17:48:15Z</time>
      </trkpt>
      <trkpt lat="57.29251" lon="-4.44626">
        <ele>28.68</ele>
        <time>2021-03-20T17:48:21Z</time>
      </trkpt>
      <trkpt lat="57.29209" lon="-4.44678">
        <ele>27.02</ele>
        <time>2021-03-20T17:48:27Z</time>
      </trkpt>
      <trkpt lat="57.29162" lon="-4.44729">
        <ele>26.41</ele>
        <time>2021-03-20T17:48:34Z</time>
      </trkpt>
      <trkpt lat="57.29069" lon="-4.44899">
        <ele>24.2</ele>
        <time>2021-03-20T17:48:40Z</time>
      </trkpt>
      <trkpt lat="57.2903" lon="-4.44937">
        <ele>24.79</ele>
        <time>2021-03-20T17:48:46Z</time>
      </trkpt>
      <trkpt lat="57.28996" lon="-4.44963">
        <ele>24.63</ele>
        <time>2021-03-20T17:48:53Z</time>
      </trkpt>
      <trkpt lat="57.28921" lon="-4.45011">
        <ele>26.91</ele>
        <time>2021-03-20T17:48:59Z</time>
      </trkpt>
      <trkpt lat="57.28725" lon="-4.45151">
        <ele>30.35</ele>
        <time>2021-03-20T17:49:05Z</time>
      </trkpt>
      <trkpt lat="57.28424" lon="-4.45375">
        <ele>42.96</ele>
        <time>2021-03-20T17:49:11Z</time>
      </trkpt>
      <trkpt lat="57.28365" lon="-4.45407">
        <ele>46.36</ele>
        <time>2021-03-20T17:49:18Z</time>
      </trkpt>
      <trkpt lat="57.28337" lon="-4.45415">
        <ele>46.06</ele>
        <time>2021-03-20T17:49:24Z</time>
      </trkpt>
      <trkpt lat="57.28319" lon="-4.45417">
        <ele>45.44</ele>
        <time>2021-03-20T17:49:30Z</time>
      </trkpt>
      <trkpt lat="57.28204" lon="-4.45389">
        <ele>43.58</ele>
        <time>2021-03-20T17:49:37Z</time>
      </trkpt>
      <trkpt lat="57.2817" lon="-4.45392">
        <ele>40.88</ele>
        <time>2021-03-20T17:49:43Z</time>
      </trkpt>
      <trkpt lat="57.28147" lon="-4.45419">
        <ele>38.63</ele>
        <time>2021-03-20T17:49:49Z</time>
      </trkpt>
      <trkpt lat="57.28135" lon="-4.45444">
        <ele>40.42</ele>
        <time>2021-03-20T17:49:55Z</time>
      </trkpt>
      <trkpt lat="57.28119" lon="-4.45485">
        <ele>46.51</ele>
        <time>2021-03-20T17:50:02Z</time>
      </trkpt>
      <trkpt lat="57.28114" lon="-4.45517">
        <ele>46.95</ele>
        <time>2021-03-20T17:50:08Z</time>
      </trkpt>
      <trkpt lat="57.28095" lon="-4.45573">
        <ele>47.81</ele>
        <time>2021-03-20T17:50:14Z</time>
      </trkpt>
      <trkpt lat="57.28057" lon="-4.45669">
        <ele>43.31</ele>
        <time>2021-03-20T17:50:21Z</time>
      </trkpt>
      <trkpt lat="57.28033" lon="-4.45715">
        <ele>41.38</ele>
        <time>2021-03-20T17:50:27Z</time>
      </trkpt>
      <trkpt lat="57.27909" lon="-4.45881">
        <ele>58.01</ele>
        <time>2021-03-20T17:50:33Z</time>
      </trkpt>
      <trkpt lat="57.27875" lon="-4.46033">
        <ele>55.94</ele>
        <time>2021-03-20T17:50:39Z</time>
      </trkpt>
      <trkpt lat="57.27649" lon="-4.46425">
        <ele>72.22</ele>
        <time>2021-03-20T17:50:46Z</time>
      </trkpt>
      <trkpt lat="57.2751" lon="-4.46614">
        <ele>79.64</ele>
        <time>2021-03-20T17:50:52Z</time>
      </trkpt>
      <trkpt lat="57.27158" lon="-4.47057">
        <ele>95.39</ele>
        <time>2021-03-20T17:50:58Z</time>
      </trkpt>
      <trkpt lat="57.27001" lon="-4.47164">
        <ele>91.44</ele>
        <time>2021-03-20T17:51:04Z</time>
      </trkpt>
      <trkpt lat="57.26819" lon="-4.47269">
        <ele>98.53</ele>
        <time>2021-03-20T17:51:11Z</time>
      </trkpt>
      <trkpt lat="57.26752" lon="-4.47316">
        <ele>95.54</ele>
        <time>2021-03-20T17:51:17Z</time>
      </trkpt>
      <trkpt lat="57.2644" lon="-4.47744">
        <ele>95.17</ele>
        <time>2021-03-20T17:51:23Z</time>
      </trkpt>
      <trkpt lat="57.2644" lon="-4.47744">
        <ele>95.17</ele>
        <time>2021-03-20T17:51:23Z</time>
      </trkpt>
      <trkpt lat="57.26251" lon="-4.48005">
        <ele>94.81</ele>
        <time>2021-03-20T17:51:27Z</time>
      </trkpt>
      <trkpt lat="57.26093" lon="-4.48199">
        <ele>96.58</ele>
        <time>2021-03-20T17:51:30Z</time>
      </trkpt>
      <trkpt lat="57.2605" lon="-4.48214">
        <ele>98.88</ele>
        <time>2021-03-20T17:51:34Z</time>
      </trkpt>
      <trkpt lat="57.26028" lon="-4.48246">
        <ele>94.76</ele>
        <time>2021-03-20T17:51:37Z</time>
      </trkpt>
      <trkpt lat="57.25899" lon="-4.48394">
        <ele>94.86</ele>
        <time>2021-03-20T17:51:41Z</time>
      </trkpt>
      <trkpt lat="57.257" lon="-4.48682">
        <ele>95.64</ele>
        <time>2021-03-20T17:51:45Z</time>
      </trkpt>
      <trkpt lat="57.25547" lon="-4.48855">
        <ele>103.98</ele>
        <time>2021-03-20T17:51:48Z</time>
      </trkpt>
      <trkpt lat="57.25415" lon="-4.48923">
        <ele>110.26</ele>
        <time>2021-03-20T17:51:52Z</time>
      </trkpt>
      <trkpt lat="57.25337" lon="-4.48965">
        <ele>115.79</ele>
        <time>2021-03-20T17:51:55Z</time>
      </trkpt>
      <trkpt lat="57.25307" lon="-4.49014">
        <ele>113.35</ele>
        <time>2021-03-20T17:51:59Z</time>
      </trkpt>
      <trkpt lat="57.25281" lon="-4.49039">
        <ele>115.26</ele>
        <time>2021-03-20T17:52:02Z</time>
      </trkpt>
      <trkpt lat="57.25224" lon="-4.49078">
        <ele>121.25</ele>
        <time>2021-03-20T17:52:06Z</time>
      </trkpt>
      <trkpt lat="57.25194" lon="-4.4909">
        <ele>123.36</ele>
        <time>2021-03-20T17:52:09Z</time>
      </trkpt>
      <trkpt lat="57.25136" lon="-4.49097">
        <ele>130.16</ele>
        <time>2021-03-20T17:52:13Z</time>
      </trkpt>
      <trkpt lat="57.25124" lon="-4.49096">
        <ele>132.9</ele>
        <time>2021-03-20T17:52:16Z</time>
      </trkpt>
      <trkpt lat="57.25112" lon="-4.49088">
        <ele>135.72</ele>
        <time>2021-03-20T17:52:20Z</time>
      </trkpt>
      <trkpt lat="57.25076" lon="-4.49049">
        <ele>138.72</ele>
        <time>2021-03-20T17:52:23Z</time>
      </trkpt>
      <trkpt lat="57.25059" lon="-4.49047">
        <ele>139.47</ele>
        <time>2021-03-20T17:52:27Z</time>
      </trkpt>
      <trkpt lat="57.24969" lon="-4.49051">
        <ele>135.71</ele>
        <time>2021-03-20T17:52:30Z</time>
      </trkpt>
      <trkpt lat="57.24914" lon="-4.49033">
        <ele>137.25</ele>
        <time>2021-03-20T17:52:34Z</time>
      </trkpt>
      <trkpt lat="57.24876" lon="-4.49009">
        <ele>139.9</ele>
        <time>2021-03-20T17:52:37Z</time>
      </trkpt>
      <trkpt lat="57.2485" lon="-4.48989">
        <ele>144.67</ele>
        <time>2021-03-20T17:52:41Z</time>
      </trkpt>
      <trkpt lat="57.2484" lon="-4.48986">
        <ele>145.39</ele>
        <time>2021-03-20T17:52:44Z</time>
      </trkpt>
      <trkpt lat="57.2481" lon="-4.48985">
        <ele>143.63</ele>
        <time>2021-03-20T17:52:48Z</time>
      </trkpt>
      <trkpt lat="57.24778" lon="-4.48975">
        <ele>144.35</ele>
        <time>2021-03-20T17:52:52Z</time>
      </trkpt>
      <trkpt lat="57.24704" lon="-4.48926">
        <ele>144.85</ele>
        <time>2021-03-20T17:52:55Z</time>
      </trkpt>
      <trkpt lat="57.24657" lon="-4.4889">
        <ele>143.95</ele>
        <time>2021-03-20T17:52:59Z</time>
      </trkpt>
      <trkpt lat="57.24624" lon="-4.48884">
        <ele>139.13</ele>
        <time>2021-03-20T17:53:02Z</time>
      </trkpt>
      <trkpt lat="57.2461" lon="-4.48872">
        <ele>136.27</ele>
        <time>2021-03-20T17:53:06Z</time>
      </trkpt>
      <trkpt lat="57.24599" lon="-4.48858">
        <ele>133.74</ele>
        <time>2021-03-20T17:53:09Z</time>
      </trkpt>
      <trkpt lat="57.24576" lon="-4.48798">
        <ele>129.06</ele>
        <time>2021-03-20T17:53:13Z</time>
      </trkpt>
      <trkpt lat="57.24549" lon="-4.48765">
        <ele>128.25</ele>
        <time>2021-03-20T17:53:16Z</time>
      </trkpt>
      <trkpt lat="57.24502" lon="-4.48732">
        <ele>130.5</ele>
        <time>2021-03-20T17:53:20Z</time>
      </trkpt>
      <trkpt lat="57.24449" lon="-4.48695">
        <ele>135.24</ele>
        <time>2021-03-20T17:53:23Z</time>
      </trkpt>
      <trkpt lat="57.2442" lon="-4.4869">
        <ele>142.02</ele>
        <time>2021-03-20T17:53:27Z</time>
      </trkpt>
      <trkpt lat="57.24379" lon="-4.48699">
        <ele>148.6</ele>
        <time>2021-03-20T17:53:30Z</time>
      </trkpt>
      <trkpt lat="57.24343" lon="-4.48724">
        <ele>150.84</ele>
        <time>2021-03-20T17:53:34Z</time>
      </trkpt>
      <trkpt lat="57.24309" lon="-4.48757">
        <ele>152.05</ele>
        <time>2021-03-20T17:53:37Z</time>
      </trkpt>
      <trkpt lat="57.24268" lon="-4.48791">
        <ele>153.74</ele>
        <time>2021-03-20T17:53:41Z</time>
      </trkpt>
      <trkpt lat="57.24207" lon="-4.4882">
        <ele>158.35</ele>
        <time>2021-03-20T17:53:44Z</time>
      </trkpt>
      <trkpt lat="57.24164" lon="-4.48817">
        <ele>164.22</ele>
        <time>2021-03-20T17:53:48Z</time>
      </trkpt>
      <trkpt lat="57.24133" lon="-4.48785">
        <ele>172.2</ele>
        <time>2021-03-20T17:53:52Z</time>
      </trkpt>
      <trkpt lat="57.241" lon="-4.48791">
        <ele>171.42</ele>
        <time>2021-03-20T17:53:55Z</time>
      </trkpt>
      <trkpt lat="57.24073" lon="-4.48773">
        <ele>176.9</ele>
        <time>2021-03-20T17:53:59Z</time>
      </trkpt>
      <trkpt lat="57.24048" lon="-4.4877">
        <ele>179.87</ele>
        <time>2021-03-20T17:54:02Z</time>
      </trkpt>
      <trkpt lat="57.24012" lon="-4.48742">
        <ele>183.28</ele>
        <time>2021-03-20T17:54:06Z</time>
      </trkpt>
      <trkpt lat="57.23995" lon="-4.48657">
        <ele>185</ele>
        <time>2021-03-20T17:54:09Z</time>
      </trkpt>
      <trkpt lat="57.23984" lon="-4.48622">
        <ele>186.11</ele>
        <time>2021-03-20T17:54:13Z</time>
      </trkpt>
      <trkpt lat="57.23932" lon="-4.48549">
        <ele>186.57</ele>
        <time>2021-03-20T17:54:16Z</time>
      </trkpt>
      <trkpt lat="57.23923" lon="-4.48406">
        <ele>186.92</ele>
        <time>2021-03-20T17:54:20Z</time>
      </trkpt>
      <trkpt lat="57.23919" lon="-4.48375">
        <ele>185.56</ele>
        <time>2021-03-20T17:54:23Z</time>
      </trkpt>
      <trkpt lat="57.23909" lon="-4.48346">
        <ele>184.34</ele>
        <time>2021-03-20T17:54:27Z</time>
      </trkpt>
      <trkpt lat="57.23889" lon="-4.48334">
        <ele>183.01</ele>
        <time>2021-03-20T17:54:30Z</time>
      </trkpt>
      <trkpt lat="57.23869" lon="-4.48344">
        <ele>185.04</ele>
        <time>2021-03-20T17:54:34Z</time>
      </trkpt>
      <trkpt lat="57.23794" lon="-4.48531">
        <ele>186.09</ele>
        <time>2021-03-20T17:54:37Z</time>
      </trkpt>
      <trkpt lat="57.23735" lon="-4.48856">
        <ele>186.18</ele>
        <time>2021-03-20T17:54:41Z</time>
      </trkpt>
      <trkpt lat="57.23716" lon="-4.48913">
        <ele>186.67</ele>
        <time>2021-03-20T17:54:44Z</time>
      </trkpt>
      <trkpt lat="57.23697" lon="-4.48984">
        <ele>187.11</ele>
        <time>2021-03-20T17:54:48Z</time>
      </trkpt>
      <trkpt lat="57.23638" lon="-4.49176">
        <ele>180.39</ele>
        <time>2021-03-20T17:54:51Z</time>
      </trkpt>
      <trkpt lat="57.23627" lon="-4.49239">
        <ele>176.22</ele>
        <time>2021-03-20T17:54:55Z</time>
      </trkpt>
      <trkpt lat="57.23608" lon="-4.49294">
        <ele>169.69</ele>
        <time>2021-03-20T17:54:59Z</time>
      </trkpt>
      <trkpt lat="57.2356" lon="-4.49303">
        <ele>169.32</ele>
        <time>2021-03-20T17:55:02Z</time>
      </trkpt>
      <trkpt lat="57.23514" lon="-4.49395">
        <ele>157.33</ele>
        <time>2021-03-20T17:55:06Z</time>
      </trkpt>
      <trkpt lat="57.23325" lon="-4.49604">
        <ele>145.61</ele>
        <time>2021-03-20T17:55:09Z</time>
      </trkpt>
      <trkpt lat="57.23311" lon="-4.49611">
        <ele>145.67</ele>
        <time>2021-03-20T17:55:13Z</time>
      </trkpt>
      <trkpt lat="57.23293" lon="-4.49606">
        <ele>146.48</ele>
        <time>2021-03-20T17:55:16Z</time>
      </trkpt>
      <trkpt lat="57.23072" lon="-4.49496">
        <ele>155.57</ele>
        <time>2021-03-20T17:55:20Z</time>
      </trkpt>
      <trkpt lat="57.23045" lon="-4.49497">
        <ele>156.09</ele>
        <time>2021-03-20T17:55:23Z</time>
      </trkpt>
      <trkpt lat="57.22877" lon="-4.49565">
        <ele>156.4</ele>
        <time>2021-03-20T17:55:27Z</time>
      </trkpt>
      <trkpt lat="57.22868" lon="-4.49567">
        <ele>156.56</ele>
        <time>2021-03-20T17:55:30Z</time>
      </trkpt>
      <trkpt lat="57.22857" lon="-4.4956">
        <ele>157.26</ele>
        <time>2021-03-20T17:55:34Z</time>
      </trkpt>
      <trkpt lat="57.22771" lon="-4.49476">
        <ele>163.09</ele>
        <time>2021-03-20T17:55:37Z</time>
      </trkpt>
      <trkpt lat="57.22758" lon="-4.49474">
        <ele>164.23</ele>
        <time>2021-03-20T17:55:41Z</time>
      </trkpt>
      <trkpt lat="57.22749" lon="-4.49485">
        <ele>163.71</ele>
        <time>2021-03-20T17:55:44Z</time>
      </trkpt>
      <trkpt lat="57.22741" lon="-4.49509">
        <ele>162.6</ele>
        <time>2021-03-20T17:55:48Z</time>
      </trkpt>
      <trkpt lat="57.22734" lon="-4.49525">
        <ele>162.87</ele>
        <time>2021-03-20T17:55:51Z</time>
      </trkpt>
      <trkpt lat="57.22665" lon="-4.49572">
        <ele>161.58</ele>
        <time>2021-03-20T17:55:55Z</time>
      </trkpt>
      <trkpt lat="57.2265" lon="-4.4957">
        <ele>159.64</ele>
        <time>2021-03-20T17:55:59Z</time>
      </trkpt>
      <trkpt lat="57.2261" lon="-4.49508">
        <ele>158.7</ele>
        <time>2021-03-20T17:56:02Z</time>
      </trkpt>
      <trkpt lat="57.22594" lon="-4.49511">
        <ele>157.99</ele>
        <time>2021-03-20T17:56:06Z</time>
      </trkpt>
      <trkpt lat="57.22513" lon="-4.49657">
        <ele>156.55</ele>
        <time>2021-03-20T17:56:09Z</time>
      </trkpt>
      <trkpt lat="57.22497" lon="-4.49679">
        <ele>156.07</ele>
        <time>2021-03-20T17:56:13Z</time>
      </trkpt>
      <trkpt lat="57.22478" lon="-4.49681">
        <ele>156.38</ele>
        <time>2021-03-20T17:56:16Z</time>
      </trkpt>
      <trkpt lat="57.22462" lon="-4.49677">
        <ele>156.91</ele>
        <time>2021-03-20T17:56:20Z</time>
      </trkpt>
      <trkpt lat="57.22417" lon="-4.49632">
        <ele>158.99</ele>
        <time>2021-03-20T17:56:23Z</time>
      </trkpt>
      <trkpt lat="57.22384" lon="-4.49612">
        <ele>159.22</ele>
        <time>2021-03-20T17:56:27Z</time>
      </trkpt>
      <trkpt lat="57.22369" lon="-4.49596">
        <ele>160.4</ele>
        <time>2021-03-20T17:56:30Z</time>
      </trkpt>
      <trkpt lat="57.22355" lon="-4.49547">
        <ele>163.64</ele>
        <time>2021-03-20T17:56:34Z</time>
      </trkpt>
      <trkpt lat="57.22342" lon="-4.49533">
        <ele>164.76</ele>
        <time>2021-03-20T17:56:37Z</time>
      </trkpt>
      <trkpt lat="57.22287" lon="-4.49542">
        <ele>163.77</ele>
        <time>2021-03-20T17:56:41Z</time>
      </trkpt>
      <trkpt lat="57.22258" lon="-4.49564">
        <ele>162.7</ele>
        <time>2021-03-20T17:56:44Z</time>
      </trkpt>
      <trkpt lat="57.22229" lon="-4.49554">
        <ele>163.09</ele>
        <time>2021-03-20T17:56:48Z</time>
      </trkpt>
      <trkpt lat="57.22218" lon="-4.49547">
        <ele>163.62</ele>
        <time>2021-03-20T17:56:51Z</time>
      </trkpt>
      <trkpt lat="57.22188" lon="-4.49514">
        <ele>165.79</ele>
        <time>2021-03-20T17:56:55Z</time>
      </trkpt>
      <trkpt lat="57.22159" lon="-4.49491">
        <ele>166.65</ele>
        <time>2021-03-20T17:56:58Z</time>
      </trkpt>
      <trkpt lat="57.22133" lon="-4.49481">
        <ele>167.22</ele>
        <time>2021-03-20T17:57:02Z</time>
      </trkpt>
      <trkpt lat="57.22119" lon="-4.4948">
        <ele>166.92</ele>
        <time>2021-03-20T17:57:06Z</time>
      </trkpt>
      <trkpt lat="57.22088" lon="-4.49493">
        <ele>166.26</ele>
        <time>2021-03-20T17:57:09Z</time>
      </trkpt>
      <trkpt lat="57.22077" lon="-4.49492">
        <ele>166.3</ele>
        <time>2021-03-20T17:57:13Z</time>
      </trkpt>
      <trkpt lat="57.22065" lon="-4.49486">
        <ele>166.49</ele>
        <time>2021-03-20T17:57:16Z</time>
      </trkpt>
      <trkpt lat="57.22054" lon="-4.49478">
        <ele>166.68</ele>
        <time>2021-03-20T17:57:20Z</time>
      </trkpt>
      <trkpt lat="57.22037" lon="-4.49459">
        <ele>166.17</ele>
        <time>2021-03-20T17:57:23Z</time>
      </trkpt>
      <trkpt lat="57.22022" lon="-4.49434">
        <ele>165.79</ele>
        <time>2021-03-20T17:57:27Z</time>
      </trkpt>
      <trkpt lat="57.21981" lon="-4.49489">
        <ele>165.68</ele>
        <time>2021-03-20T17:57:32Z</time>
      </trkpt>
      <trkpt lat="57.21957" lon="-4.49516">
        <ele>165.42</ele>
        <time>2021-03-20T17:57:36Z</time>
      </trkpt>
      <trkpt lat="57.21948" lon="-4.49523">
        <ele>165.16</ele>
        <time>2021-03-20T17:57:41Z</time>
      </trkpt>
      <trkpt lat="57.2192" lon="-4.49537">
        <ele>164.66</ele>
        <time>2021-03-20T17:57:46Z</time>
      </trkpt>
      <trkpt lat="57.21894" lon="-4.49546">
        <ele>164.07</ele>
        <time>2021-03-20T17:57:51Z</time>
      </trkpt>
      <trkpt lat="57.21873" lon="-4.49548">
        <ele>164</ele>
        <time>2021-03-20T17:57:56Z</time>
      </trkpt>
      <trkpt lat="57.21841" lon="-4.49544">
        <ele>164.72</ele>
        <time>2021-03-20T17:58:01Z</time>
      </trkpt>
      <trkpt lat="57.21742" lon="-4.4952">
        <ele>165.39</ele>
        <time>2021-03-20T17:58:05Z</time>
      </trkpt>
      <trkpt lat="57.21676" lon="-4.495">
        <ele>167.67</ele>
        <time>2021-03-20T17:58:10Z</time>
      </trkpt>
      <trkpt lat="57.21644" lon="-4.49494">
        <ele>168.17</ele>
        <time>2021-03-20T17:58:15Z</time>
      </trkpt>
      <trkpt lat="57.21611" lon="-4.49502">
        <ele>169.89</ele>
        <time>2021-03-20T17:58:20Z</time>
      </trkpt>
      <trkpt lat="57.21279" lon="-4.49655">
        <ele>177.35</ele>
        <time>2021-03-20T17:58:25Z</time>
      </trkpt>
      <trkpt lat="57.21098" lon="-4.49746">
        <ele>181.13</ele>
        <time>2021-03-20T17:58:29Z</time>
      </trkpt>
      <trkpt lat="57.21055" lon="-4.49763">
        <ele>182.62</ele>
        <time>2021-03-20T17:58:34Z</time>
      </trkpt>
      <trkpt lat="57.20968" lon="-4.49781">
        <ele>187.2</ele>
        <time>2021-03-20T17:58:39Z</time>
      </trkpt>
      <trkpt lat="57.20918" lon="-4.49795">
        <ele>189.68</ele>
        <time>2021-03-20T17:58:44Z</time>
      </trkpt>
      <trkpt lat="57.2087" lon="-4.49825">
        <ele>189.31</ele>
        <time>2021-03-20T17:58:49Z</time>
      </trkpt>
      <trkpt lat="57.20771" lon="-4.49905">
        <ele>187.78</ele>
        <time>2021-03-20T17:58:54Z</time>
      </trkpt>
      <trkpt lat="57.20644" lon="-4.49998">
        <ele>190.69</ele>
        <time>2021-03-20T17:58:58Z</time>
      </trkpt>
      <trkpt lat="57.20567" lon="-4.50051">
        <ele>188.15</ele>
        <time>2021-03-20T17:59:03Z</time>
      </trkpt>
      <trkpt lat="57.20539" lon="-4.50079">
        <ele>188</ele>
        <time>2021-03-20T17:59:08Z</time>
      </trkpt>
      <trkpt lat="57.20521" lon="-4.50104">
        <ele>188</ele>
        <time>2021-03-20T17:59:13Z</time>
      </trkpt>
      <trkpt lat="57.20415" lon="-4.50299">
        <ele>186.69</ele>
        <time>2021-03-20T17:59:18Z</time>
      </trkpt>
      <trkpt lat="57.20387" lon="-4.50366">
        <ele>191.91</ele>
        <time>2021-03-20T17:59:23Z</time>
      </trkpt>
      <trkpt lat="57.20376" lon="-4.50402">
        <ele>192</ele>
        <time>2021-03-20T17:59:27Z</time>
      </trkpt>
      <trkpt lat="57.20332" lon="-4.50592">
        <ele>195.95</ele>
        <time>2021-03-20T17:59:32Z</time>
      </trkpt>
      <trkpt lat="57.20311" lon="-4.50657">
        <ele>194.19</ele>
        <time>2021-03-20T17:59:37Z</time>
      </trkpt>
      <trkpt lat="57.20254" lon="-4.50778">
        <ele>198.18</ele>
        <time>2021-03-20T17:59:42Z</time>
      </trkpt>
      <trkpt lat="57.20229" lon="-4.50827">
        <ele>201.51</ele>
        <time>2021-03-20T17:59:47Z</time>
      </trkpt>
      <trkpt lat="57.20199" lon="-4.50882">
        <ele>203.26</ele>
        <time>2021-03-20T17:59:51Z</time>
      </trkpt>
      <trkpt lat="57.20166" lon="-4.50929">
        <ele>203.79</ele>
        <time>2021-03-20T17:59:56Z</time>
      </trkpt>
      <trkpt lat="57.20119" lon="-4.50975">
        <ele>202.39</ele>
        <time>2021-03-20T18:00:01Z</time>
      </trkpt>
      <trkpt lat="57.19989" lon="-4.51057">
        <ele>209.48</ele>
        <time>2021-03-20T18:00:06Z</time>
      </trkpt>
      <trkpt lat="57.19962" lon="-4.51083">
        <ele>211.36</ele>
        <time>2021-03-20T18:00:11Z</time>
      </trkpt>
      <trkpt lat="57.197" lon="-4.51485">
        <ele>218.77</ele>
        <time>2021-03-20T18:00:16Z</time>
      </trkpt>
      <trkpt lat="57.19611" lon="-4.5163">
        <ele>212.67</ele>
        <time>2021-03-20T18:00:20Z</time>
      </trkpt>
      <trkpt lat="57.19588" lon="-4.51676">
        <ele>212.48</ele>
        <time>2021-03-20T18:00:25Z</time>
      </trkpt>
      <trkpt lat="57.19496" lon="-4.51885">
        <ele>215.38</ele>
        <time>2021-03-20T18:00:30Z</time>
      </trkpt>
      <trkpt lat="57.19481" lon="-4.51913">
        <ele>215.63</ele>
        <time>2021-03-20T18:00:35Z</time>
      </trkpt>
      <trkpt lat="57.19073" lon="-4.52462">
        <ele>220.31</ele>
        <time>2021-03-20T18:00:40Z</time>
      </trkpt>
      <trkpt lat="57.18912" lon="-4.52688">
        <ele>219.41</ele>
        <time>2021-03-20T18:00:44Z</time>
      </trkpt>
      <trkpt lat="57.18411" lon="-4.53354">
        <ele>239.94</ele>
        <time>2021-03-20T18:00:49Z</time>
      </trkpt>
      <trkpt lat="57.18348" lon="-4.53432">
        <ele>241.31</ele>
        <time>2021-03-20T18:00:54Z</time>
      </trkpt>
      <trkpt lat="57.18315" lon="-4.53464">
        <ele>243.69</ele>
        <time>2021-03-20T18:00:59Z</time>
      </trkpt>
      <trkpt lat="57.18061" lon="-4.53646">
        <ele>273.04</ele>
        <time>2021-03-20T18:01:04Z</time>
      </trkpt>
      <trkpt lat="57.18009" lon="-4.53693">
        <ele>276.38</ele>
        <time>2021-03-20T18:01:09Z</time>
      </trkpt>
      <trkpt lat="57.17957" lon="-4.53745">
        <ele>279.14</ele>
        <time>2021-03-20T18:01:13Z</time>
      </trkpt>
      <trkpt lat="57.17926" lon="-4.53784">
        <ele>278.8</ele>
        <time>2021-03-20T18:01:18Z</time>
      </trkpt>
      <trkpt lat="57.17863" lon="-4.53874">
        <ele>281.15</ele>
        <time>2021-03-20T18:01:23Z</time>
      </trkpt>
      <trkpt lat="57.1777" lon="-4.54021">
        <ele>285.17</ele>
        <time>2021-03-20T18:01:28Z</time>
      </trkpt>
      <trkpt lat="57.17584" lon="-4.54515">
        <ele>306.55</ele>
        <time>2021-03-20T18:01:33Z</time>
      </trkpt>
      <trkpt lat="57.17573" lon="-4.54539">
        <ele>307.24</ele>
        <time>2021-03-20T18:01:38Z</time>
      </trkpt>
      <trkpt lat="57.17559" lon="-4.54558">
        <ele>307.2</ele>
        <time>2021-03-20T18:01:42Z</time>
      </trkpt>
      <trkpt lat="57.16444" lon="-4.55885">
        <ele>357.77</ele>
        <time>2021-03-20T18:01:47Z</time>
      </trkpt>
      <trkpt lat="57.16345" lon="-4.55997">
        <ele>355.56</ele>
        <time>2021-03-20T18:01:52Z</time>
      </trkpt>
      <trkpt lat="57.16321" lon="-4.56015">
        <ele>354.63</ele>
        <time>2021-03-20T18:01:57Z</time>
      </trkpt>
      <trkpt lat="57.163" lon="-4.56024">
        <ele>354.53</ele>
        <time>2021-03-20T18:02:02Z</time>
      </trkpt>
      <trkpt lat="57.16229" lon="-4.56045">
        <ele>355.45</ele>
        <time>2021-03-20T18:02:06Z</time>
      </trkpt>
      <trkpt lat="57.16207" lon="-4.56056">
        <ele>357.14</ele>
        <time>2021-03-20T18:02:11Z</time>
      </trkpt>
      <trkpt lat="57.16137" lon="-4.5611">
        <ele>362.11</ele>
        <time>2021-03-20T18:02:16Z</time>
      </trkpt>
      <trkpt lat="57.16125" lon="-4.56121">
        <ele>363.76</ele>
        <time>2021-03-20T18:02:21Z</time>
      </trkpt>
      <trkpt lat="57.16113" lon="-4.56138">
        <ele>365.78</ele>
        <time>2021-03-20T18:02:26Z</time>
      </trkpt>
      <trkpt lat="57.16079" lon="-4.56222">
        <ele>371.31</ele>
        <time>2021-03-20T18:02:31Z</time>
      </trkpt>
      <trkpt lat="57.16021" lon="-4.56374">
        <ele>381.45</ele>
        <time>2021-03-20T18:02:35Z</time>
      </trkpt>
      <trkpt lat="57.1601" lon="-4.56398">
        <ele>383.93</ele>
        <time>2021-03-20T18:02:40Z</time>
      </trkpt>
      <trkpt lat="57.15943" lon="-4.56478">
        <ele>390.11</ele>
        <time>2021-03-20T18:02:45Z</time>
      </trkpt>
      <trkpt lat="57.15872" lon="-4.56588">
        <ele>388.75</ele>
        <time>2021-03-20T18:02:50Z</time>
      </trkpt>
      <trkpt lat="57.15856" lon="-4.56618">
        <ele>388.6</ele>
        <time>2021-03-20T18:02:55Z</time>
      </trkpt>
      <trkpt lat="57.15646" lon="-4.57092">
        <ele>365.15</ele>
        <time>2021-03-20T18:03:00Z</time>
      </trkpt>
      <trkpt lat="57.15634" lon="-4.57125">
        <ele>362.9</ele>
        <time>2021-03-20T18:03:04Z</time>
      </trkpt>
      <trkpt lat="57.15625" lon="-4.57163">
        <ele>360.34</ele>
        <time>2021-03-20T18:03:09Z</time>
      </trkpt>
      <trkpt lat="57.15606" lon="-4.57276">
        <ele>355.42</ele>
        <time>2021-03-20T18:03:14Z</time>
      </trkpt>
      <trkpt lat="57.15488" lon="-4.57866">
        <ele>334.39</ele>
        <time>2021-03-20T18:03:19Z</time>
      </trkpt>
      <trkpt lat="57.15408" lon="-4.58279">
        <ele>328.07</ele>
        <time>2021-03-20T18:03:24Z</time>
      </trkpt>
      <trkpt lat="57.1535" lon="-4.5864">
        <ele>316.07</ele>
        <time>2021-03-20T18:03:28Z</time>
      </trkpt>
      <trkpt lat="57.15347" lon="-4.58679">
        <ele>315.76</ele>
        <time>2021-03-20T18:03:33Z</time>
      </trkpt>
      <trkpt lat="57.15367" lon="-4.59011">
        <ele>318.03</ele>
        <time>2021-03-20T18:03:38Z</time>
      </trkpt>
      <trkpt lat="57.15369" lon="-4.59073">
        <ele>317.1</ele>
        <time>2021-03-20T18:03:43Z</time>
      </trkpt>
      <trkpt lat="57.15368" lon="-4.59118">
        <ele>315.59</ele>
        <time>2021-03-20T18:03:48Z</time>
      </trkpt>
      <trkpt lat="57.15361" lon="-4.59216">
        <ele>313.91</ele>
        <time>2021-03-20T18:03:53Z</time>
      </trkpt>
      <trkpt lat="57.15356" lon="-4.59245">
        <ele>312.63</ele>
        <time>2021-03-20T18:03:57Z</time>
      </trkpt>
      <trkpt lat="57.15329" lon="-4.59317">
        <ele>308.55</ele>
        <time>2021-03-20T18:04:02Z</time>
      </trkpt>
      <trkpt lat="57.15323" lon="-4.5934">
        <ele>307.62</ele>
        <time>2021-03-20T18:04:07Z</time>
      </trkpt>
      <trkpt lat="57.15318" lon="-4.5937">
        <ele>306.17</ele>
        <time>2021-03-20T18:04:12Z</time>
      </trkpt>
      <trkpt lat="57.15315" lon="-4.5943">
        <ele>305.07</ele>
        <time>2021-03-20T18:04:17Z</time>
      </trkpt>
      <trkpt lat="57.15312" lon="-4.59461">
        <ele>303.48</ele>
        <time>2021-03-20T18:04:22Z</time>
      </trkpt>
      <trkpt lat="57.15304" lon="-4.59494">
        <ele>301.09</ele>
        <time>2021-03-20T18:04:26Z</time>
      </trkpt>
      <trkpt lat="57.15292" lon="-4.5952">
        <ele>298.61</ele>
        <time>2021-03-20T18:04:31Z</time>
      </trkpt>
      <trkpt lat="57.15278" lon="-4.59542">
        <ele>296.51</ele>
        <time>2021-03-20T18:04:36Z</time>
      </trkpt>
      <trkpt lat="57.15259" lon="-4.59557">
        <ele>295.34</ele>
        <time>2021-03-20T18:04:41Z</time>
      </trkpt>
      <trkpt lat="57.15242" lon="-4.59584">
        <ele>295.86</ele>
        <time>2021-03-20T18:04:46Z</time>
      </trkpt>
      <trkpt lat="57.15204" lon="-4.5971">
        <ele>296.39</ele>
        <time>2021-03-20T18:04:50Z</time>
      </trkpt>
      <trkpt lat="57.15194" lon="-4.59755">
        <ele>295.84</ele>
        <time>2021-03-20T18:04:55Z</time>
      </trkpt>
      <trkpt lat="57.15187" lon="-4.59778">
        <ele>295.81</ele>
        <time>2021-03-20T18:05:00Z</time>
      </trkpt>
      <trkpt lat="57.15149" lon="-4.59834">
        <ele>295.92</ele>
        <time>2021-03-20T18:05:05Z</time>
      </trkpt>
      <trkpt lat="57.1514" lon="-4.59856">
        <ele>295.31</ele>
        <time>2021-03-20T18:05:10Z</time>
      </trkpt>
      <trkpt lat="57.15129" lon="-4.5991">
        <ele>294.34</ele>
        <time>2021-03-20T18:05:15Z</time>
      </trkpt>
      <trkpt lat="57.15121" lon="-4.59934">
        <ele>294.5</ele>
        <time>2021-03-20T18:05:19Z</time>
      </trkpt>
      <trkpt lat="57.15114" lon="-4.5995">
        <ele>294.66</ele>
        <time>2021-03-20T18:05:24Z</time>
      </trkpt>
      <trkpt lat="57.15053" lon="-4.60036">
        <ele>299.88</ele>
        <time>2021-03-20T18:05:29Z</time>
      </trkpt>
      <trkpt lat="57.15044" lon="-4.60058">
        <ele>299.91</ele>
        <time>2021-03-20T18:05:34Z</time>
      </trkpt>
      <trkpt lat="57.15035" lon="-4.60085">
        <ele>298.88</ele>
        <time>2021-03-20T18:05:39Z</time>
      </trkpt>
      <trkpt lat="57.14987" lon="-4.60294">
        <ele>294.92</ele>
        <time>2021-03-20T18:05:44Z</time>
      </trkpt>
      <trkpt lat="57.14956" lon="-4.60437">
        <ele>294.26</ele>
        <time>2021-03-20T18:05:48Z</time>
      </trkpt>
      <trkpt lat="57.14954" lon="-4.60482">
        <ele>293.33</ele>
        <time>2021-03-20T18:05:53Z</time>
      </trkpt>
      <trkpt lat="57.14952" lon="-4.60554">
        <ele>294.45</ele>
        <time>2021-03-20T18:05:58Z</time>
      </trkpt>
      <trkpt lat="57.1495" lon="-4.60584">
        <ele>294.62</ele>
        <time>2021-03-20T18:06:03Z</time>
      </trkpt>
      <trkpt lat="57.14936" lon="-4.6066">
        <ele>293.82</ele>
        <time>2021-03-20T18:06:08Z</time>
      </trkpt>
      <trkpt lat="57.14893" lon="-4.60876">
        <ele>295.67</ele>
        <time>2021-03-20T18:06:12Z</time>
      </trkpt>
      <trkpt lat="57.14884" lon="-4.60946">
        <ele>296.14</ele>
        <time>2021-03-20T18:06:17Z</time>
      </trkpt>
      <trkpt lat="57.14892" lon="-4.61016">
        <ele>294.4</ele>
        <time>2021-03-20T18:06:22Z</time>
      </trkpt>
      <trkpt lat="57.14893" lon="-4.61051">
        <ele>294</ele>
        <time>2021-03-20T18:06:27Z</time>
      </trkpt>
      <trkpt lat="57.14886" lon="-4.61091">
        <ele>294.88</ele>
        <time>2021-03-20T18:06:32Z</time>
      </trkpt>
      <trkpt lat="57.14845" lon="-4.61219">
        <ele>297.17</ele>
        <time>2021-03-20T18:06:37Z</time>
      </trkpt>
      <trkpt lat="57.14827" lon="-4.61257">
        <ele>296.73</ele>
        <time>2021-03-20T18:06:41Z</time>
      </trkpt>
      <trkpt lat="57.14762" lon="-4.61342">
        <ele>289.83</ele>
        <time>2021-03-20T18:06:46Z</time>
      </trkpt>
      <trkpt lat="57.14741" lon="-4.61382">
        <ele>286.76</ele>
        <time>2021-03-20T18:06:51Z</time>
      </trkpt>
      <trkpt lat="57.14625" lon="-4.6169">
        <ele>268.73</ele>
        <time>2021-03-20T18:06:56Z</time>
      </trkpt>
      <trkpt lat="57.14592" lon="-4.61826">
        <ele>258.82</ele>
        <time>2021-03-20T18:07:01Z</time>
      </trkpt>
      <trkpt lat="57.14574" lon="-4.61882">
        <ele>254.76</ele>
        <time>2021-03-20T18:07:06Z</time>
      </trkpt>
      <trkpt lat="57.14549" lon="-4.61923">
        <ele>251.52</ele>
        <time>2021-03-20T18:07:10Z</time>
      </trkpt>
      <trkpt lat="57.14527" lon="-4.6195">
        <ele>249.95</ele>
        <time>2021-03-20T18:07:15Z</time>
      </trkpt>
      <trkpt lat="57.14325" lon="-4.62186">
        <ele>238.9</ele>
        <time>2021-03-20T18:07:20Z</time>
      </trkpt>
      <trkpt lat="57.14272" lon="-4.62266">
        <ele>235.09</ele>
        <time>2021-03-20T18:07:25Z</time>
      </trkpt>
      <trkpt lat="57.14252" lon="-4.62311">
        <ele>232.81</ele>
        <time>2021-03-20T18:07:30Z</time>
      </trkpt>
      <trkpt lat="57.1423" lon="-4.62451">
        <ele>219.12</ele>
        <time>2021-03-20T18:07:34Z</time>
      </trkpt>
      <trkpt lat="57.14193" lon="-4.62625">
        <ele>205.8</ele>
        <time>2021-03-20T18:07:39Z</time>
      </trkpt>
      <trkpt lat="57.14166" lon="-4.62957">
        <ele>181.63</ele>
        <time>2021-03-20T18:07:44Z</time>
      </trkpt>
      <trkpt lat="57.1417" lon="-4.62994">
        <ele>179.81</ele>
        <time>2021-03-20T18:07:49Z</time>
      </trkpt>
      <trkpt lat="57.142" lon="-4.63095">
        <ele>177.12</ele>
        <time>2021-03-20T18:07:54Z</time>
      </trkpt>
      <trkpt lat="57.14205" lon="-4.63132">
        <ele>175.4</ele>
        <time>2021-03-20T18:07:59Z</time>
      </trkpt>
      <trkpt lat="57.14205" lon="-4.63193">
        <ele>175.95</ele>
        <time>2021-03-20T18:08:03Z</time>
      </trkpt>
      <trkpt lat="57.14208" lon="-4.63222">
        <ele>177.09</ele>
        <time>2021-03-20T18:08:08Z</time>
      </trkpt>
      <trkpt lat="57.14214" lon="-4.63252">
        <ele>179.83</ele>
        <time>2021-03-20T18:08:13Z</time>
      </trkpt>
      <trkpt lat="57.14254" lon="-4.63367">
        <ele>179.23</ele>
        <time>2021-03-20T18:08:18Z</time>
      </trkpt>
      <trkpt lat="57.14346" lon="-4.6356">
        <ele>170.93</ele>
        <time>2021-03-20T18:08:23Z</time>
      </trkpt>
      <trkpt lat="57.14354" lon="-4.63584">
        <ele>171.07</ele>
        <time>2021-03-20T18:08:28Z</time>
      </trkpt>
      <trkpt lat="57.14357" lon="-4.63618">
        <ele>171.71</ele>
        <time>2021-03-20T18:08:32Z</time>
      </trkpt>
      <trkpt lat="57.14352" lon="-4.63703">
        <ele>173.46</ele>
        <time>2021-03-20T18:08:37Z</time>
      </trkpt>
      <trkpt lat="57.14352" lon="-4.63722">
        <ele>173.63</ele>
        <time>2021-03-20T18:08:42Z</time>
      </trkpt>
      <trkpt lat="57.14355" lon="-4.63742">
        <ele>173.73</ele>
        <time>2021-03-20T18:08:47Z</time>
      </trkpt>
      <trkpt lat="57.14366" lon="-4.63767">
        <ele>173</ele>
        <time>2021-03-20T18:08:52Z</time>
      </trkpt>
      <trkpt lat="57.14377" lon="-4.6378">
        <ele>173.18</ele>
        <time>2021-03-20T18:08:56Z</time>
      </trkpt>
      <trkpt lat="57.14431" lon="-4.63805">
        <ele>175.95</ele>
        <time>2021-03-20T18:09:01Z</time>
      </trkpt>
      <trkpt lat="57.14442" lon="-4.63816">
        <ele>176.37</ele>
        <time>2021-03-20T18:09:06Z</time>
      </trkpt>
      <trkpt lat="57.14451" lon="-4.63832">
        <ele>176.74</ele>
        <time>2021-03-20T18:09:11Z</time>
      </trkpt>
      <trkpt lat="57.14456" lon="-4.63854">
        <ele>177.72</ele>
        <time>2021-03-20T18:09:16Z</time>
      </trkpt>
      <trkpt lat="57.14458" lon="-4.63877">
        <ele>178.32</ele>
        <time>2021-03-20T18:09:21Z</time>
      </trkpt>
      <trkpt lat="57.14428" lon="-4.64425">
        <ele>185.62</ele>
        <time>2021-03-20T18:09:25Z</time>
      </trkpt>
      <trkpt lat="57.14423" lon="-4.64465">
        <ele>188.44</ele>
        <time>2021-03-20T18:09:30Z</time>
      </trkpt>
      <trkpt lat="57.14394" lon="-4.64612">
        <ele>198.55</ele>
        <time>2021-03-20T18:09:35Z</time>
      </trkpt>
      <trkpt lat="57.14391" lon="-4.64658">
        <ele>200.81</ele>
        <time>2021-03-20T18:09:40Z</time>
      </trkpt>
      <trkpt lat="57.14397" lon="-4.64701">
        <ele>202.46</ele>
        <time>2021-03-20T18:09:45Z</time>
      </trkpt>
      <trkpt lat="57.14422" lon="-4.64758">
        <ele>204</ele>
        <time>2021-03-20T18:09:49Z</time>
      </trkpt>
      <trkpt lat="57.14441" lon="-4.64792">
        <ele>203.55</ele>
        <time>2021-03-20T18:09:54Z</time>
      </trkpt>
      <trkpt lat="57.14455" lon="-4.64825">
        <ele>202.48</ele>
        <time>2021-03-20T18:09:59Z</time>
      </trkpt>
      <trkpt lat="57.14466" lon="-4.64871">
        <ele>198.06</ele>
        <time>2021-03-20T18:10:04Z</time>
      </trkpt>
      <trkpt lat="57.14464" lon="-4.64925">
        <ele>193.27</ele>
        <time>2021-03-20T18:10:09Z</time>
      </trkpt>
      <trkpt lat="57.14451" lon="-4.64977">
        <ele>189.8</ele>
        <time>2021-03-20T18:10:14Z</time>
      </trkpt>
      <trkpt lat="57.14432" lon="-4.65026">
        <ele>185.66</ele>
        <time>2021-03-20T18:10:18Z</time>
      </trkpt>
      <trkpt lat="57.1441" lon="-4.65071">
        <ele>180.18</ele>
        <time>2021-03-20T18:10:23Z</time>
      </trkpt>
      <trkpt lat="57.14333" lon="-4.65167">
        <ele>169.98</ele>
        <time>2021-03-20T18:10:28Z</time>
      </trkpt>
      <trkpt lat="57.14294" lon="-4.6521">
        <ele>161.16</ele>
        <time>2021-03-20T18:10:33Z</time>
      </trkpt>
      <trkpt lat="57.14254" lon="-4.65274">
        <ele>153.36</ele>
        <time>2021-03-20T18:10:38Z</time>
      </trkpt>
      <trkpt lat="57.14215" lon="-4.65332">
        <ele>151.09</ele>
        <time>2021-03-20T18:10:43Z</time>
      </trkpt>
      <trkpt lat="57.14157" lon="-4.65397">
        <ele>145.18</ele>
        <time>2021-03-20T18:10:47Z</time>
      </trkpt>
      <trkpt lat="57.14113" lon="-4.65466">
        <ele>140.32</ele>
        <time>2021-03-20T18:10:52Z</time>
      </trkpt>
      <trkpt lat="57.141" lon="-4.655">
        <ele>137.82</ele>
        <time>2021-03-20T18:10:57Z</time>
      </trkpt>
      <trkpt lat="57.14055" lon="-4.65654">
        <ele>128.41</ele>
        <time>2021-03-20T18:11:02Z</time>
      </trkpt>
      <trkpt lat="57.13981" lon="-4.65787">
        <ele>118.47</ele>
        <time>2021-03-20T18:11:07Z</time>
      </trkpt>
      <trkpt lat="57.13939" lon="-4.65906">
        <ele>110.77</ele>
        <time>2021-03-20T18:11:11Z</time>
      </trkpt>
      <trkpt lat="57.13892" lon="-4.6599">
        <ele>103.81</ele>
        <time>2021-03-20T18:11:16Z</time>
      </trkpt>
      <trkpt lat="57.13878" lon="-4.66043">
        <ele>99.14</ele>
        <time>2021-03-20T18:11:21Z</time>
      </trkpt>
      <trkpt lat="57.13867" lon="-4.6607">
        <ele>95.97</ele>
        <time>2021-03-20T18:11:26Z</time>
      </trkpt>
      <trkpt lat="57.13772" lon="-4.66206">
        <ele>82.61</ele>
        <time>2021-03-20T18:11:31Z</time>
      </trkpt>
      <trkpt lat="57.13758" lon="-4.66237">
        <ele>80.13</ele>
        <time>2021-03-20T18:11:36Z</time>
      </trkpt>
      <trkpt lat="57.1375" lon="-4.66262">
        <ele>78.75</ele>
        <time>2021-03-20T18:11:40Z</time>
      </trkpt>
      <trkpt lat="57.13747" lon="-4.66305">
        <ele>75.17</ele>
        <time>2021-03-20T18:11:45Z</time>
      </trkpt>
      <trkpt lat="57.13759" lon="-4.6636">
        <ele>69.75</ele>
        <time>2021-03-20T18:11:50Z</time>
      </trkpt>
      <trkpt lat="57.13786" lon="-4.66402">
        <ele>65.43</ele>
        <time>2021-03-20T18:11:55Z</time>
      </trkpt>
      <trkpt lat="57.13817" lon="-4.66459">
        <ele>61.1</ele>
        <time>2021-03-20T18:12:00Z</time>
      </trkpt>
      <trkpt lat="57.13825" lon="-4.66496">
        <ele>59.92</ele>
        <time>2021-03-20T18:12:05Z</time>
      </trkpt>
      <trkpt lat="57.13823" lon="-4.66541">
        <ele>57.65</ele>
        <time>2021-03-20T18:12:09Z</time>
      </trkpt>
      <trkpt lat="57.13776" lon="-4.66676">
        <ele>51.11</ele>
        <time>2021-03-20T18:12:14Z</time>
      </trkpt>
      <trkpt lat="57.13753" lon="-4.66755">
        <ele>44.03</ele>
        <time>2021-03-20T18:12:19Z</time>
      </trkpt>
      <trkpt lat="57.13747" lon="-4.66794">
        <ele>40.69</ele>
        <time>2021-03-20T18:12:24Z</time>
      </trkpt>
      <trkpt lat="57.13746" lon="-4.66831">
        <ele>37.71</ele>
        <time>2021-03-20T18:12:29Z</time>
      </trkpt>
      <trkpt lat="57.13783" lon="-4.67086">
        <ele>25.93</ele>
        <time>2021-03-20T18:12:33Z</time>
      </trkpt>
      <trkpt lat="57.13807" lon="-4.67214">
        <ele>28.89</ele>
        <time>2021-03-20T18:12:38Z</time>
      </trkpt>
      <trkpt lat="57.13815" lon="-4.67281">
        <ele>30.01</ele>
        <time>2021-03-20T18:12:43Z</time>
      </trkpt>
      <trkpt lat="57.13823" lon="-4.67328">
        <ele>30.2</ele>
        <time>2021-03-20T18:12:48Z</time>
      </trkpt>
      <trkpt lat="57.13849" lon="-4.67413">
        <ele>28.37</ele>
        <time>2021-03-20T18:12:53Z</time>
      </trkpt>
      <trkpt lat="57.13921" lon="-4.67609">
        <ele>18.82</ele>
        <time>2021-03-20T18:12:58Z</time>
      </trkpt>
      <trkpt lat="57.13977" lon="-4.67733">
        <ele>19.4</ele>
        <time>2021-03-20T18:13:02Z</time>
      </trkpt>
      <trkpt lat="57.14029" lon="-4.67806">
        <ele>21</ele>
        <time>2021-03-20T18:13:07Z</time>
      </trkpt>
      <trkpt lat="57.14047" lon="-4.67827">
        <ele>21</ele>
        <time>2021-03-20T18:13:12Z</time>
      </trkpt>
      <trkpt lat="57.14063" lon="-4.67836">
        <ele>20.36</ele>
        <time>2021-03-20T18:13:17Z</time>
      </trkpt>
      <trkpt lat="57.14166" lon="-4.67855">
        <ele>19.98</ele>
        <time>2021-03-20T18:13:22Z</time>
      </trkpt>
      <trkpt lat="57.14182" lon="-4.67873">
        <ele>20.53</ele>
        <time>2021-03-20T18:13:27Z</time>
      </trkpt>
      <trkpt lat="57.14202" lon="-4.67906">
        <ele>21.15</ele>
        <time>2021-03-20T18:13:31Z</time>
      </trkpt>
      <trkpt lat="57.14224" lon="-4.67932">
        <ele>22.55</ele>
        <time>2021-03-20T18:13:36Z</time>
      </trkpt>
      <trkpt lat="57.14234" lon="-4.67934">
        <ele>23.26</ele>
        <time>2021-03-20T18:13:41Z</time>
      </trkpt>
      <trkpt lat="57.14275" lon="-4.6792">
        <ele>25.78</ele>
        <time>2021-03-20T18:13:46Z</time>
      </trkpt>
      <trkpt lat="57.14334" lon="-4.67918">
        <ele>26.04</ele>
        <time>2021-03-20T18:13:51Z</time>
      </trkpt>
      <trkpt lat="57.1435" lon="-4.67922">
        <ele>26.6</ele>
        <time>2021-03-20T18:13:55Z</time>
      </trkpt>
      <trkpt lat="57.14363" lon="-4.67932">
        <ele>26.93</ele>
        <time>2021-03-20T18:14:00Z</time>
      </trkpt>
      <trkpt lat="57.14371" lon="-4.67945">
        <ele>26.64</ele>
        <time>2021-03-20T18:14:05Z</time>
      </trkpt>
      <trkpt lat="57.14375" lon="-4.67967">
        <ele>26.91</ele>
        <time>2021-03-20T18:14:07Z</time>
      </trkpt>
      <trkpt lat="57.14375" lon="-4.6799">
        <ele>27</ele>
        <time>2021-03-20T18:14:09Z</time>
      </trkpt>
      <trkpt lat="57.14373" lon="-4.68023">
        <ele>27.47</ele>
        <time>2021-03-20T18:14:11Z</time>
      </trkpt>
      <trkpt lat="57.14367" lon="-4.68036">
        <ele>28.01</ele>
        <time>2021-03-20T18:14:18Z</time>
      </trkpt>
      <trkpt lat="57.14313" lon="-4.68281">
        <ele>34</ele>
        <time>2021-03-20T18:14:25Z</time>
      </trkpt>
      <trkpt lat="57.14297" lon="-4.68358">
        <ele>33.67</ele>
        <time>2021-03-20T18:14:32Z</time>
      </trkpt>
      <trkpt lat="57.14275" lon="-4.68437">
        <ele>32.7</ele>
        <time>2021-03-20T18:14:40Z</time>
      </trkpt>
      <trkpt lat="57.14262" lon="-4.68473">
        <ele>31.45</ele>
        <time>2021-03-20T18:14:47Z</time>
      </trkpt>
      <trkpt lat="57.14158" lon="-4.68689">
        <ele>34.45</ele>
        <time>2021-03-20T18:14:54Z</time>
      </trkpt>
      <trkpt lat="57.14141" lon="-4.6872">
        <ele>34.91</ele>
        <time>2021-03-20T18:15:01Z</time>
      </trkpt>
      <trkpt lat="57.14127" lon="-4.68738">
        <ele>34.89</ele>
        <time>2021-03-20T18:15:08Z</time>
      </trkpt>
      <trkpt lat="57.14115" lon="-4.68746">
        <ele>35.01</ele>
        <time>2021-03-20T18:15:15Z</time>
      </trkpt>
      <trkpt lat="57.14101" lon="-4.68752">
        <ele>34.93</ele>
        <time>2021-03-20T18:15:23Z</time>
      </trkpt>
      <trkpt lat="57.13997" lon="-4.68777">
        <ele>33.86</ele>
        <time>2021-03-20T18:15:30Z</time>
      </trkpt>
      <trkpt lat="57.13997" lon="-4.68777">
        <ele>33.86</ele>
        <time>2021-03-20T18:15:30Z</time>
      </trkpt>
      <trkpt lat="57.13612" lon="-4.68871">
        <ele>34.98</ele>
        <time>2021-03-20T18:15:34Z</time>
      </trkpt>
      <trkpt lat="57.13476" lon="-4.68911">
        <ele>37.66</ele>
        <time>2021-03-20T18:15:39Z</time>
      </trkpt>
      <trkpt lat="57.13177" lon="-4.69009">
        <ele>45.74</ele>
        <time>2021-03-20T18:15:43Z</time>
      </trkpt>
      <trkpt lat="57.13123" lon="-4.69029">
        <ele>47.04</ele>
        <time>2021-03-20T18:15:48Z</time>
      </trkpt>
      <trkpt lat="57.13114" lon="-4.69036">
        <ele>47.29</ele>
        <time>2021-03-20T18:15:52Z</time>
      </trkpt>
      <trkpt lat="57.13004" lon="-4.69136">
        <ele>45.75</ele>
        <time>2021-03-20T18:15:57Z</time>
      </trkpt>
      <trkpt lat="57.12975" lon="-4.69154">
        <ele>45.11</ele>
        <time>2021-03-20T18:16:02Z</time>
      </trkpt>
      <trkpt lat="57.12955" lon="-4.69161">
        <ele>45.63</ele>
        <time>2021-03-20T18:16:06Z</time>
      </trkpt>
      <trkpt lat="57.12814" lon="-4.69182">
        <ele>43.29</ele>
        <time>2021-03-20T18:16:11Z</time>
      </trkpt>
      <trkpt lat="57.12769" lon="-4.69197">
        <ele>42</ele>
        <time>2021-03-20T18:16:15Z</time>
      </trkpt>
      <trkpt lat="57.12513" lon="-4.69291">
        <ele>48.34</ele>
        <time>2021-03-20T18:16:20Z</time>
      </trkpt>
      <trkpt lat="57.12495" lon="-4.69303">
        <ele>49.44</ele>
        <time>2021-03-20T18:16:24Z</time>
      </trkpt>
      <trkpt lat="57.1248" lon="-4.69315">
        <ele>49.02</ele>
        <time>2021-03-20T18:16:29Z</time>
      </trkpt>
      <trkpt lat="57.12445" lon="-4.69364">
        <ele>48.84</ele>
        <time>2021-03-20T18:16:33Z</time>
      </trkpt>
      <trkpt lat="57.12428" lon="-4.69392">
        <ele>49.09</ele>
        <time>2021-03-20T18:16:38Z</time>
      </trkpt>
      <trkpt lat="57.12384" lon="-4.69481">
        <ele>49.01</ele>
        <time>2021-03-20T18:16:43Z</time>
      </trkpt>
      <trkpt lat="57.12366" lon="-4.69511">
        <ele>48.92</ele>
        <time>2021-03-20T18:16:47Z</time>
      </trkpt>
      <trkpt lat="57.12156" lon="-4.69771">
        <ele>54.82</ele>
        <time>2021-03-20T18:16:52Z</time>
      </trkpt>
      <trkpt lat="57.12113" lon="-4.6982">
        <ele>55.42</ele>
        <time>2021-03-20T18:16:56Z</time>
      </trkpt>
      <trkpt lat="57.12023" lon="-4.69905">
        <ele>56.99</ele>
        <time>2021-03-20T18:17:01Z</time>
      </trkpt>
      <trkpt lat="57.11995" lon="-4.69944">
        <ele>57.22</ele>
        <time>2021-03-20T18:17:05Z</time>
      </trkpt>
      <trkpt lat="57.11768" lon="-4.70355">
        <ele>53.1</ele>
        <time>2021-03-20T18:17:10Z</time>
      </trkpt>
      <trkpt lat="57.11488" lon="-4.70851">
        <ele>50.19</ele>
        <time>2021-03-20T18:17:14Z</time>
      </trkpt>
      <trkpt lat="57.11182" lon="-4.71401">
        <ele>51.36</ele>
        <time>2021-03-20T18:17:19Z</time>
      </trkpt>
      <trkpt lat="57.11145" lon="-4.71454">
        <ele>49.92</ele>
        <time>2021-03-20T18:17:24Z</time>
      </trkpt>
      <trkpt lat="57.11088" lon="-4.71526">
        <ele>50.05</ele>
        <time>2021-03-20T18:17:28Z</time>
      </trkpt>
      <trkpt lat="57.1094" lon="-4.71704">
        <ele>56.17</ele>
        <time>2021-03-20T18:17:33Z</time>
      </trkpt>
      <trkpt lat="57.10915" lon="-4.71729">
        <ele>57.33</ele>
        <time>2021-03-20T18:17:37Z</time>
      </trkpt>
      <trkpt lat="57.10758" lon="-4.71858">
        <ele>58.39</ele>
        <time>2021-03-20T18:17:42Z</time>
      </trkpt>
      <trkpt lat="57.10601" lon="-4.71982">
        <ele>62.58</ele>
        <time>2021-03-20T18:17:46Z</time>
      </trkpt>
      <trkpt lat="57.10568" lon="-4.72015">
        <ele>64.44</ele>
        <time>2021-03-20T18:17:51Z</time>
      </trkpt>
      <trkpt lat="57.10537" lon="-4.72054">
        <ele>65.43</ele>
        <time>2021-03-20T18:17:55Z</time>
      </trkpt>
      <trkpt lat="57.10518" lon="-4.72083">
        <ele>66.08</ele>
        <time>2021-03-20T18:18:00Z</time>
      </trkpt>
      <trkpt lat="57.10468" lon="-4.72171">
        <ele>66.03</ele>
        <time>2021-03-20T18:18:05Z</time>
      </trkpt>
      <trkpt lat="57.10452" lon="-4.7219">
        <ele>65.9</ele>
        <time>2021-03-20T18:18:09Z</time>
      </trkpt>
      <trkpt lat="57.10371" lon="-4.72272">
        <ele>67.65</ele>
        <time>2021-03-20T18:18:14Z</time>
      </trkpt>
      <trkpt lat="57.10289" lon="-4.72387">
        <ele>66.03</ele>
        <time>2021-03-20T18:18:18Z</time>
      </trkpt>
      <trkpt lat="57.10275" lon="-4.72404">
        <ele>65.55</ele>
        <time>2021-03-20T18:18:23Z</time>
      </trkpt>
      <trkpt lat="57.10186" lon="-4.7249">
        <ele>67.4</ele>
        <time>2021-03-20T18:18:27Z</time>
      </trkpt>
      <trkpt lat="57.10137" lon="-4.72519">
        <ele>67.43</ele>
        <time>2021-03-20T18:18:32Z</time>
      </trkpt>
      <trkpt lat="57.10114" lon="-4.72536">
        <ele>68.55</ele>
        <time>2021-03-20T18:18:36Z</time>
      </trkpt>
      <trkpt lat="57.10093" lon="-4.72557">
        <ele>69.26</ele>
        <time>2021-03-20T18:18:41Z</time>
      </trkpt>
      <trkpt lat="57.09904" lon="-4.72767">
        <ele>72.04</ele>
        <time>2021-03-20T18:18:46Z</time>
      </trkpt>
      <trkpt lat="57.0988" lon="-4.72807">
        <ele>70.62</ele>
        <time>2021-03-20T18:18:50Z</time>
      </trkpt>
      <trkpt lat="57.09817" lon="-4.72925">
        <ele>68.53</ele>
        <time>2021-03-20T18:18:55Z</time>
      </trkpt>
      <trkpt lat="57.0979" lon="-4.72963">
        <ele>69.69</ele>
        <time>2021-03-20T18:18:59Z</time>
      </trkpt>
      <trkpt lat="57.09642" lon="-4.73154">
        <ele>73</ele>
        <time>2021-03-20T18:19:04Z</time>
      </trkpt>
      <trkpt lat="57.09624" lon="-4.73184">
        <ele>71.39</ele>
        <time>2021-03-20T18:19:08Z</time>
      </trkpt>
      <trkpt lat="57.09532" lon="-4.73356">
        <ele>59.42</ele>
        <time>2021-03-20T18:19:13Z</time>
      </trkpt>
      <trkpt lat="57.09501" lon="-4.7339">
        <ele>56.91</ele>
        <time>2021-03-20T18:19:17Z</time>
      </trkpt>
      <trkpt lat="57.09483" lon="-4.73406">
        <ele>56.6</ele>
        <time>2021-03-20T18:19:22Z</time>
      </trkpt>
      <trkpt lat="57.09369" lon="-4.7349">
        <ele>58.17</ele>
        <time>2021-03-20T18:19:26Z</time>
      </trkpt>
      <trkpt lat="57.09331" lon="-4.73534">
        <ele>57.6</ele>
        <time>2021-03-20T18:19:31Z</time>
      </trkpt>
      <trkpt lat="57.09313" lon="-4.73562">
        <ele>56.82</ele>
        <time>2021-03-20T18:19:36Z</time>
      </trkpt>
      <trkpt lat="57.093" lon="-4.73589">
        <ele>55.07</ele>
        <time>2021-03-20T18:19:40Z</time>
      </trkpt>
      <trkpt lat="57.09278" lon="-4.73649">
        <ele>51.25</ele>
        <time>2021-03-20T18:19:45Z</time>
      </trkpt>
      <trkpt lat="57.09268" lon="-4.73694">
        <ele>50.05</ele>
        <time>2021-03-20T18:19:49Z</time>
      </trkpt>
      <trkpt lat="57.09262" lon="-4.73734">
        <ele>49.04</ele>
        <time>2021-03-20T18:19:54Z</time>
      </trkpt>
      <trkpt lat="57.09241" lon="-4.73958">
        <ele>38.84</ele>
        <time>2021-03-20T18:19:58Z</time>
      </trkpt>
      <trkpt lat="57.09231" lon="-4.74086">
        <ele>36.69</ele>
        <time>2021-03-20T18:20:03Z</time>
      </trkpt>
      <trkpt lat="57.09239" lon="-4.74177">
        <ele>35.62</ele>
        <time>2021-03-20T18:20:07Z</time>
      </trkpt>
      <trkpt lat="57.0926" lon="-4.74349">
        <ele>34.62</ele>
        <time>2021-03-20T18:20:12Z</time>
      </trkpt>
      <trkpt lat="57.09273" lon="-4.74433">
        <ele>34</ele>
        <time>2021-03-20T18:20:17Z</time>
      </trkpt>
      <trkpt lat="57.09279" lon="-4.7451">
        <ele>35.37</ele>
        <time>2021-03-20T18:20:21Z</time>
      </trkpt>
      <trkpt lat="57.09278" lon="-4.74591">
        <ele>37.28</ele>
        <time>2021-03-20T18:20:26Z</time>
      </trkpt>
      <trkpt lat="57.0927" lon="-4.74739">
        <ele>44.75</ele>
        <time>2021-03-20T18:20:30Z</time>
      </trkpt>
      <trkpt lat="57.09261" lon="-4.74791">
        <ele>49.47</ele>
        <time>2021-03-20T18:20:35Z</time>
      </trkpt>
      <trkpt lat="57.09255" lon="-4.74811">
        <ele>52.08</ele>
        <time>2021-03-20T18:20:39Z</time>
      </trkpt>
      <trkpt lat="57.09249" lon="-4.74825">
        <ele>53.74</ele>
        <time>2021-03-20T18:20:44Z</time>
      </trkpt>
      <trkpt lat="57.09131" lon="-4.74996">
        <ele>61.73</ele>
        <time>2021-03-20T18:20:48Z</time>
      </trkpt>
      <trkpt lat="57.09105" lon="-4.75032">
        <ele>61.97</ele>
        <time>2021-03-20T18:20:53Z</time>
      </trkpt>
      <trkpt lat="57.09084" lon="-4.75059">
        <ele>61.01</ele>
        <time>2021-03-20T18:20:58Z</time>
      </trkpt>
      <trkpt lat="57.09061" lon="-4.7508">
        <ele>61.91</ele>
        <time>2021-03-20T18:21:02Z</time>
      </trkpt>
      <trkpt lat="57.09042" lon="-4.75093">
        <ele>62.14</ele>
        <time>2021-03-20T18:21:07Z</time>
      </trkpt>
      <trkpt lat="57.08951" lon="-4.75134">
        <ele>61.22</ele>
        <time>2021-03-20T18:21:11Z</time>
      </trkpt>
      <trkpt lat="57.08796" lon="-4.75232">
        <ele>52.99</ele>
        <time>2021-03-20T18:21:16Z</time>
      </trkpt>
      <trkpt lat="57.08706" lon="-4.75292">
        <ele>53.24</ele>
        <time>2021-03-20T18:21:20Z</time>
      </trkpt>
      <trkpt lat="57.08673" lon="-4.75318">
        <ele>50.3</ele>
        <time>2021-03-20T18:21:25Z</time>
      </trkpt>
      <trkpt lat="57.08652" lon="-4.75344">
        <ele>47.49</ele>
        <time>2021-03-20T18:21:29Z</time>
      </trkpt>
      <trkpt lat="57.08528" lon="-4.75519">
        <ele>43.11</ele>
        <time>2021-03-20T18:21:34Z</time>
      </trkpt>
      <trkpt lat="57.08501" lon="-4.75545">
        <ele>43.35</ele>
        <time>2021-03-20T18:21:39Z</time>
      </trkpt>
      <trkpt lat="57.08411" lon="-4.75618">
        <ele>41.46</ele>
        <time>2021-03-20T18:21:43Z</time>
      </trkpt>
      <trkpt lat="57.0839" lon="-4.7564">
        <ele>42.97</ele>
        <time>2021-03-20T18:21:48Z</time>
      </trkpt>
      <trkpt lat="57.08287" lon="-4.75776">
        <ele>42.35</ele>
        <time>2021-03-20T18:21:52Z</time>
      </trkpt>
      <trkpt lat="57.0827" lon="-4.75804">
        <ele>41.72</ele>
        <time>2021-03-20T18:21:57Z</time>
      </trkpt>
      <trkpt lat="57.08212" lon="-4.75911">
        <ele>41.99</ele>
        <time>2021-03-20T18:22:01Z</time>
      </trkpt>
      <trkpt lat="57.08193" lon="-4.75951">
        <ele>41.22</ele>
        <time>2021-03-20T18:22:06Z</time>
      </trkpt>
      <trkpt lat="57.08163" lon="-4.76031">
        <ele>43.87</ele>
        <time>2021-03-20T18:22:10Z</time>
      </trkpt>
      <trkpt lat="57.0815" lon="-4.76058">
        <ele>43.96</ele>
        <time>2021-03-20T18:22:15Z</time>
      </trkpt>
      <trkpt lat="57.08134" lon="-4.76081">
        <ele>45.16</ele>
        <time>2021-03-20T18:22:19Z</time>
      </trkpt>
      <trkpt lat="57.08118" lon="-4.76097">
        <ele>45.68</ele>
        <time>2021-03-20T18:22:24Z</time>
      </trkpt>
      <trkpt lat="57.0809" lon="-4.76119">
        <ele>46.95</ele>
        <time>2021-03-20T18:22:29Z</time>
      </trkpt>
      <trkpt lat="57.08068" lon="-4.7613">
        <ele>46.49</ele>
        <time>2021-03-20T18:22:33Z</time>
      </trkpt>
      <trkpt lat="57.07985" lon="-4.76165">
        <ele>40.31</ele>
        <time>2021-03-20T18:22:38Z</time>
      </trkpt>
      <trkpt lat="57.07954" lon="-4.76185">
        <ele>41.12</ele>
        <time>2021-03-20T18:22:42Z</time>
      </trkpt>
      <trkpt lat="57.07944" lon="-4.76199">
        <ele>40.93</ele>
        <time>2021-03-20T18:22:47Z</time>
      </trkpt>
      <trkpt lat="57.07858" lon="-4.76335">
        <ele>45.92</ele>
        <time>2021-03-20T18:22:51Z</time>
      </trkpt>
      <trkpt lat="57.07774" lon="-4.7646">
        <ele>48.6</ele>
        <time>2021-03-20T18:22:56Z</time>
      </trkpt>
      <trkpt lat="57.07683" lon="-4.76583">
        <ele>40.74</ele>
        <time>2021-03-20T18:23:00Z</time>
      </trkpt>
      <trkpt lat="57.07515" lon="-4.76836">
        <ele>45.8</ele>
        <time>2021-03-20T18:23:05Z</time>
      </trkpt>
      <trkpt lat="57.07464" lon="-4.76898">
        <ele>42.03</ele>
        <time>2021-03-20T18:23:10Z</time>
      </trkpt>
      <trkpt lat="57.07407" lon="-4.76947">
        <ele>42.37</ele>
        <time>2021-03-20T18:23:14Z</time>
      </trkpt>
      <trkpt lat="57.07382" lon="-4.76973">
        <ele>42.22</ele>
        <time>2021-03-20T18:23:19Z</time>
      </trkpt>
      <trkpt lat="57.07358" lon="-4.77002">
        <ele>42.11</ele>
        <time>2021-03-20T18:23:23Z</time>
      </trkpt>
      <trkpt lat="57.07326" lon="-4.77049">
        <ele>41.44</ele>
        <time>2021-03-20T18:23:28Z</time>
      </trkpt>
      <trkpt lat="57.07311" lon="-4.77074">
        <ele>42.6</ele>
        <time>2021-03-20T18:23:32Z</time>
      </trkpt>
      <trkpt lat="57.07247" lon="-4.77212">
        <ele>46.33</ele>
        <time>2021-03-20T18:23:37Z</time>
      </trkpt>
      <trkpt lat="57.07219" lon="-4.77267">
        <ele>44.87</ele>
        <time>2021-03-20T18:23:41Z</time>
      </trkpt>
      <trkpt lat="57.07168" lon="-4.774">
        <ele>41.33</ele>
        <time>2021-03-20T18:23:46Z</time>
      </trkpt>
      <trkpt lat="57.07131" lon="-4.77535">
        <ele>46.37</ele>
        <time>2021-03-20T18:23:51Z</time>
      </trkpt>
      <trkpt lat="57.07123" lon="-4.77672">
        <ele>50.57</ele>
        <time>2021-03-20T18:23:55Z</time>
      </trkpt>
      <trkpt lat="57.07103" lon="-4.77905">
        <ele>59.1</ele>
        <time>2021-03-20T18:24:00Z</time>
      </trkpt>
      <trkpt lat="57.07104" lon="-4.77939">
        <ele>59.43</ele>
        <time>2021-03-20T18:24:04Z</time>
      </trkpt>
      <trkpt lat="57.07113" lon="-4.78042">
        <ele>58.12</ele>
        <time>2021-03-20T18:24:09Z</time>
      </trkpt>
      <trkpt lat="57.07116" lon="-4.78109">
        <ele>57.03</ele>
        <time>2021-03-20T18:24:13Z</time>
      </trkpt>
      <trkpt lat="57.07114" lon="-4.78148">
        <ele>56.2</ele>
        <time>2021-03-20T18:24:18Z</time>
      </trkpt>
      <trkpt lat="57.07102" lon="-4.78215">
        <ele>55.43</ele>
        <time>2021-03-20T18:24:23Z</time>
      </trkpt>
      <trkpt lat="57.07051" lon="-4.78281">
        <ele>52.56</ele>
        <time>2021-03-20T18:24:27Z</time>
      </trkpt>
      <trkpt lat="57.0704" lon="-4.78338">
        <ele>50.52</ele>
        <time>2021-03-20T18:24:32Z</time>
      </trkpt>
      <trkpt lat="57.07037" lon="-4.78352">
        <ele>50.78</ele>
        <time>2021-03-20T18:24:37Z</time>
      </trkpt>
      <trkpt lat="57.07037" lon="-4.78407">
        <ele>51.66</ele>
        <time>2021-03-20T18:24:42Z</time>
      </trkpt>
      <trkpt lat="57.07046" lon="-4.78541">
        <ele>56.07</ele>
        <time>2021-03-20T18:24:46Z</time>
      </trkpt>
      <trkpt lat="57.0703" lon="-4.78642">
        <ele>57.19</ele>
        <time>2021-03-20T18:24:51Z</time>
      </trkpt>
      <trkpt lat="57.07027" lon="-4.78725">
        <ele>52.84</ele>
        <time>2021-03-20T18:24:55Z</time>
      </trkpt>
      <trkpt lat="57.07047" lon="-4.79004">
        <ele>56.02</ele>
        <time>2021-03-20T18:25:00Z</time>
      </trkpt>
      <trkpt lat="57.07046" lon="-4.79056">
        <ele>55.99</ele>
        <time>2021-03-20T18:25:04Z</time>
      </trkpt>
      <trkpt lat="57.0704" lon="-4.79106">
        <ele>55.72</ele>
        <time>2021-03-20T18:25:08Z</time>
      </trkpt>
      <trkpt lat="57.07033" lon="-4.79146">
        <ele>56.37</ele>
        <time>2021-03-20T18:25:13Z</time>
      </trkpt>
      <trkpt lat="57.07017" lon="-4.79206">
        <ele>56.88</ele>
        <time>2021-03-20T18:25:17Z</time>
      </trkpt>
      <trkpt lat="57.06999" lon="-4.79239">
        <ele>54.54</ele>
        <time>2021-03-20T18:25:22Z</time>
      </trkpt>
      <trkpt lat="57.06984" lon="-4.79254">
        <ele>52.82</ele>
        <time>2021-03-20T18:25:26Z</time>
      </trkpt>
      <trkpt lat="57.06919" lon="-4.79279">
        <ele>49.86</ele>
        <time>2021-03-20T18:25:31Z</time>
      </trkpt>
      <trkpt lat="57.06884" lon="-4.7929">
        <ele>52</ele>
        <time>2021-03-20T18:25:35Z</time>
      </trkpt>
      <trkpt lat="57.06865" lon="-4.79291">
        <ele>53.62</ele>
        <time>2021-03-20T18:25:39Z</time>
      </trkpt>
      <trkpt lat="57.06822" lon="-4.79272">
        <ele>55.64</ele>
        <time>2021-03-20T18:25:44Z</time>
      </trkpt>
      <trkpt lat="57.06794" lon="-4.79244">
        <ele>57.47</ele>
        <time>2021-03-20T18:25:48Z</time>
      </trkpt>
      <trkpt lat="57.06772" lon="-4.79205">
        <ele>60.21</ele>
        <time>2021-03-20T18:25:53Z</time>
      </trkpt>
      <trkpt lat="57.06752" lon="-4.79154">
        <ele>64.01</ele>
        <time>2021-03-20T18:25:57Z</time>
      </trkpt>
      <trkpt lat="57.06739" lon="-4.79105">
        <ele>67.94</ele>
        <time>2021-03-20T18:26:01Z</time>
      </trkpt>
      <trkpt lat="57.06735" lon="-4.79073">
        <ele>68.91</ele>
        <time>2021-03-20T18:26:06Z</time>
      </trkpt>
      <trkpt lat="57.06725" lon="-4.78912">
        <ele>67.74</ele>
        <time>2021-03-20T18:26:10Z</time>
      </trkpt>
      <trkpt lat="57.06701" lon="-4.788">
        <ele>67.25</ele>
        <time>2021-03-20T18:26:15Z</time>
      </trkpt>
      <trkpt lat="57.06675" lon="-4.7874">
        <ele>65.12</ele>
        <time>2021-03-20T18:26:19Z</time>
      </trkpt>
      <trkpt lat="57.06614" lon="-4.78606">
        <ele>64.53</ele>
        <time>2021-03-20T18:26:24Z</time>
      </trkpt>
      <trkpt lat="57.06549" lon="-4.78447">
        <ele>60.45</ele>
        <time>2021-03-20T18:26:28Z</time>
      </trkpt>
      <trkpt lat="57.0653" lon="-4.78413">
        <ele>60.94</ele>
        <time>2021-03-20T18:26:32Z</time>
      </trkpt>
      <trkpt lat="57.06518" lon="-4.78402">
        <ele>60.64</ele>
        <time>2021-03-20T18:26:37Z</time>
      </trkpt>
      <trkpt lat="57.06501" lon="-4.78394">
        <ele>59.42</ele>
        <time>2021-03-20T18:26:41Z</time>
      </trkpt>
      <trkpt lat="57.06473" lon="-4.78392">
        <ele>58.27</ele>
        <time>2021-03-20T18:26:46Z</time>
      </trkpt>
      <trkpt lat="57.06414" lon="-4.78397">
        <ele>55.76</ele>
        <time>2021-03-20T18:26:50Z</time>
      </trkpt>
      <trkpt lat="57.06325" lon="-4.78419">
        <ele>52.53</ele>
        <time>2021-03-20T18:26:54Z</time>
      </trkpt>
      <trkpt lat="57.0626" lon="-4.78446">
        <ele>51.78</ele>
        <time>2021-03-20T18:26:59Z</time>
      </trkpt>
      <trkpt lat="57.0581" lon="-4.78859">
        <ele>48.38</ele>
        <time>2021-03-20T18:27:03Z</time>
      </trkpt>
      <trkpt lat="57.05692" lon="-4.78977">
        <ele>47.5</ele>
        <time>2021-03-20T18:27:08Z</time>
      </trkpt>
      <trkpt lat="57.05392" lon="-4.79357">
        <ele>54.31</ele>
        <time>2021-03-20T18:27:12Z</time>
      </trkpt>
      <trkpt lat="57.05212" lon="-4.79663">
        <ele>53.13</ele>
        <time>2021-03-20T18:27:17Z</time>
      </trkpt>
      <trkpt lat="57.05164" lon="-4.79735">
        <ele>51.54</ele>
        <time>2021-03-20T18:27:21Z</time>
      </trkpt>
      <trkpt lat="57.05074" lon="-4.79852">
        <ele>48.74</ele>
        <time>2021-03-20T18:27:25Z</time>
      </trkpt>
      <trkpt lat="57.04856" lon="-4.80169">
        <ele>51.21</ele>
        <time>2021-03-20T18:27:30Z</time>
      </trkpt>
      <trkpt lat="57.04785" lon="-4.80268">
        <ele>47.98</ele>
        <time>2021-03-20T18:27:34Z</time>
      </trkpt>
      <trkpt lat="57.04731" lon="-4.80342">
        <ele>47.37</ele>
        <time>2021-03-20T18:27:39Z</time>
      </trkpt>
      <trkpt lat="57.04705" lon="-4.80368">
        <ele>48.33</ele>
        <time>2021-03-20T18:27:43Z</time>
      </trkpt>
      <trkpt lat="57.04561" lon="-4.80438">
        <ele>39.01</ele>
        <time>2021-03-20T18:27:48Z</time>
      </trkpt>
      <trkpt lat="57.04546" lon="-4.80442">
        <ele>38.57</ele>
        <time>2021-03-20T18:27:52Z</time>
      </trkpt>
      <trkpt lat="57.04524" lon="-4.80442">
        <ele>37.78</ele>
        <time>2021-03-20T18:27:56Z</time>
      </trkpt>
      <trkpt lat="57.04508" lon="-4.80438">
        <ele>37.05</ele>
        <time>2021-03-20T18:28:01Z</time>
      </trkpt>
      <trkpt lat="57.04495" lon="-4.80432">
        <ele>36.24</ele>
        <time>2021-03-20T18:28:05Z</time>
      </trkpt>
      <trkpt lat="57.04418" lon="-4.80374">
        <ele>34.94</ele>
        <time>2021-03-20T18:28:10Z</time>
      </trkpt>
      <trkpt lat="57.04398" lon="-4.80363">
        <ele>35.68</ele>
        <time>2021-03-20T18:28:14Z</time>
      </trkpt>
      <trkpt lat="57.04369" lon="-4.80361">
        <ele>36</ele>
        <time>2021-03-20T18:28:18Z</time>
      </trkpt>
      <trkpt lat="57.04347" lon="-4.8037">
        <ele>35.48</ele>
        <time>2021-03-20T18:28:23Z</time>
      </trkpt>
      <trkpt lat="57.04324" lon="-4.80386">
        <ele>35</ele>
        <time>2021-03-20T18:28:27Z</time>
      </trkpt>
      <trkpt lat="57.04178" lon="-4.80529">
        <ele>35.03</ele>
        <time>2021-03-20T18:28:32Z</time>
      </trkpt>
      <trkpt lat="57.04155" lon="-4.80548">
        <ele>35.43</ele>
        <time>2021-03-20T18:28:36Z</time>
      </trkpt>
      <trkpt lat="57.04027" lon="-4.80614">
        <ele>37</ele>
        <time>2021-03-20T18:28:41Z</time>
      </trkpt>
      <trkpt lat="57.04003" lon="-4.80632">
        <ele>37.66</ele>
        <time>2021-03-20T18:28:45Z</time>
      </trkpt>
      <trkpt lat="57.03987" lon="-4.80647">
        <ele>38</ele>
        <time>2021-03-20T18:28:49Z</time>
      </trkpt>
      <trkpt lat="57.03881" lon="-4.80803">
        <ele>44.61</ele>
        <time>2021-03-20T18:28:54Z</time>
      </trkpt>
      <trkpt lat="57.03843" lon="-4.80873">
        <ele>44.96</ele>
        <time>2021-03-20T18:28:58Z</time>
      </trkpt>
      <trkpt lat="57.03719" lon="-4.81167">
        <ele>42.89</ele>
        <time>2021-03-20T18:29:03Z</time>
      </trkpt>
      <trkpt lat="57.03713" lon="-4.81179">
        <ele>42.8</ele>
        <time>2021-03-20T18:29:07Z</time>
      </trkpt>
      <trkpt lat="57.037" lon="-4.81195">
        <ele>43</ele>
        <time>2021-03-20T18:29:11Z</time>
      </trkpt>
      <trkpt lat="57.03689" lon="-4.81206">
        <ele>42.79</ele>
        <time>2021-03-20T18:29:16Z</time>
      </trkpt>
      <trkpt lat="57.03648" lon="-4.81223">
        <ele>41.99</ele>
        <time>2021-03-20T18:29:20Z</time>
      </trkpt>
      <trkpt lat="57.03605" lon="-4.81235">
        <ele>40.55</ele>
        <time>2021-03-20T18:29:25Z</time>
      </trkpt>
      <trkpt lat="57.03491" lon="-4.8125">
        <ele>47.32</ele>
        <time>2021-03-20T18:29:29Z</time>
      </trkpt>
      <trkpt lat="57.03428" lon="-4.81276">
        <ele>48.03</ele>
        <time>2021-03-20T18:29:34Z</time>
      </trkpt>
      <trkpt lat="57.03333" lon="-4.81325">
        <ele>46.99</ele>
        <time>2021-03-20T18:29:38Z</time>
      </trkpt>
      <trkpt lat="57.03302" lon="-4.81357">
        <ele>46.61</ele>
        <time>2021-03-20T18:29:42Z</time>
      </trkpt>
      <trkpt lat="57.0315" lon="-4.8158">
        <ele>44.47</ele>
        <time>2021-03-20T18:29:47Z</time>
      </trkpt>
      <trkpt lat="57.02969" lon="-4.81856">
        <ele>40.17</ele>
        <time>2021-03-20T18:29:51Z</time>
      </trkpt>
      <trkpt lat="57.02946" lon="-4.81886">
        <ele>40</ele>
        <time>2021-03-20T18:29:56Z</time>
      </trkpt>
      <trkpt lat="57.02895" lon="-4.81919">
        <ele>37.93</ele>
        <time>2021-03-20T18:30:00Z</time>
      </trkpt>
      <trkpt lat="57.0286" lon="-4.81947">
        <ele>38.13</ele>
        <time>2021-03-20T18:30:04Z</time>
      </trkpt>
      <trkpt lat="57.02741" lon="-4.81976">
        <ele>35</ele>
        <time>2021-03-20T18:30:09Z</time>
      </trkpt>
      <trkpt lat="57.02672" lon="-4.82009">
        <ele>33.67</ele>
        <time>2021-03-20T18:30:13Z</time>
      </trkpt>
      <trkpt lat="57.02639" lon="-4.82035">
        <ele>33.73</ele>
        <time>2021-03-20T18:30:18Z</time>
      </trkpt>
      <trkpt lat="57.02601" lon="-4.82095">
        <ele>34.17</ele>
        <time>2021-03-20T18:30:22Z</time>
      </trkpt>
      <trkpt lat="57.02585" lon="-4.82128">
        <ele>33.31</ele>
        <time>2021-03-20T18:30:27Z</time>
      </trkpt>
      <trkpt lat="57.02553" lon="-4.82242">
        <ele>36.17</ele>
        <time>2021-03-20T18:30:31Z</time>
      </trkpt>
      <trkpt lat="57.02539" lon="-4.82277">
        <ele>39.44</ele>
        <time>2021-03-20T18:30:35Z</time>
      </trkpt>
      <trkpt lat="57.02524" lon="-4.82296">
        <ele>40.41</ele>
        <time>2021-03-20T18:30:40Z</time>
      </trkpt>
      <trkpt lat="57.02507" lon="-4.82309">
        <ele>39.84</ele>
        <time>2021-03-20T18:30:44Z</time>
      </trkpt>
      <trkpt lat="57.02449" lon="-4.82318">
        <ele>36.5</ele>
        <time>2021-03-20T18:30:49Z</time>
      </trkpt>
      <trkpt lat="57.0236" lon="-4.82345">
        <ele>35.19</ele>
        <time>2021-03-20T18:30:53Z</time>
      </trkpt>
      <trkpt lat="57.02261" lon="-4.82386">
        <ele>38.31</ele>
        <time>2021-03-20T18:30:58Z</time>
      </trkpt>
      <trkpt lat="57.02178" lon="-4.82426">
        <ele>49.46</ele>
        <time>2021-03-20T18:31:02Z</time>
      </trkpt>
      <trkpt lat="57.02102" lon="-4.82479">
        <ele>47.7</ele>
        <time>2021-03-20T18:31:06Z</time>
      </trkpt>
      <trkpt lat="57.02031" lon="-4.82514">
        <ele>44.78</ele>
        <time>2021-03-20T18:31:11Z</time>
      </trkpt>
      <trkpt lat="57.01995" lon="-4.82536">
        <ele>44.92</ele>
        <time>2021-03-20T18:31:15Z</time>
      </trkpt>
      <trkpt lat="57.01838" lon="-4.82687">
        <ele>50.29</ele>
        <time>2021-03-20T18:31:20Z</time>
      </trkpt>
      <trkpt lat="57.01814" lon="-4.82715">
        <ele>51.42</ele>
        <time>2021-03-20T18:31:24Z</time>
      </trkpt>
      <trkpt lat="57.01796" lon="-4.82746">
        <ele>51.78</ele>
        <time>2021-03-20T18:31:28Z</time>
      </trkpt>
      <trkpt lat="57.01785" lon="-4.82777">
        <ele>50.31</ele>
        <time>2021-03-20T18:31:33Z</time>
      </trkpt>
      <trkpt lat="57.01765" lon="-4.82814">
        <ele>49.74</ele>
        <time>2021-03-20T18:31:37Z</time>
      </trkpt>
      <trkpt lat="57.01743" lon="-4.82836">
        <ele>50.41</ele>
        <time>2021-03-20T18:31:42Z</time>
      </trkpt>
      <trkpt lat="57.01714" lon="-4.82853">
        <ele>51.7</ele>
        <time>2021-03-20T18:31:46Z</time>
      </trkpt>
      <trkpt lat="57.01658" lon="-4.82866">
        <ele>54.35</ele>
        <time>2021-03-20T18:31:51Z</time>
      </trkpt>
      <trkpt lat="57.01641" lon="-4.82872">
        <ele>54.78</ele>
        <time>2021-03-20T18:31:55Z</time>
      </trkpt>
      <trkpt lat="57.01623" lon="-4.82888">
        <ele>55.21</ele>
        <time>2021-03-20T18:31:59Z</time>
      </trkpt>
      <trkpt lat="57.01559" lon="-4.82965">
        <ele>58.03</ele>
        <time>2021-03-20T18:32:04Z</time>
      </trkpt>
      <trkpt lat="57.01468" lon="-4.83049">
        <ele>60.04</ele>
        <time>2021-03-20T18:32:08Z</time>
      </trkpt>
      <trkpt lat="57.01379" lon="-4.83172">
        <ele>50.62</ele>
        <time>2021-03-20T18:32:13Z</time>
      </trkpt>
      <trkpt lat="57.01353" lon="-4.83221">
        <ele>52.83</ele>
        <time>2021-03-20T18:32:17Z</time>
      </trkpt>
      <trkpt lat="57.0134" lon="-4.83253">
        <ele>53.51</ele>
        <time>2021-03-20T18:32:21Z</time>
      </trkpt>
      <trkpt lat="57.01322" lon="-4.83322">
        <ele>50.01</ele>
        <time>2021-03-20T18:32:26Z</time>
      </trkpt>
      <trkpt lat="57.01299" lon="-4.83384">
        <ele>47.35</ele>
        <time>2021-03-20T18:32:30Z</time>
      </trkpt>
      <trkpt lat="57.01274" lon="-4.83417">
        <ele>50.19</ele>
        <time>2021-03-20T18:32:35Z</time>
      </trkpt>
      <trkpt lat="57.01261" lon="-4.83429">
        <ele>52.94</ele>
        <time>2021-03-20T18:32:39Z</time>
      </trkpt>
      <trkpt lat="57.01202" lon="-4.83464">
        <ele>54.47</ele>
        <time>2021-03-20T18:32:44Z</time>
      </trkpt>
      <trkpt lat="57.01189" lon="-4.83477">
        <ele>52.74</ele>
        <time>2021-03-20T18:32:48Z</time>
      </trkpt>
      <trkpt lat="57.0117" lon="-4.83506">
        <ele>51.34</ele>
        <time>2021-03-20T18:32:52Z</time>
      </trkpt>
      <trkpt lat="57.01128" lon="-4.8358">
        <ele>48.58</ele>
        <time>2021-03-20T18:32:57Z</time>
      </trkpt>
      <trkpt lat="57.01006" lon="-4.83806">
        <ele>38.85</ele>
        <time>2021-03-20T18:33:01Z</time>
      </trkpt>
      <trkpt lat="57.00986" lon="-4.83838">
        <ele>41.9</ele>
        <time>2021-03-20T18:33:06Z</time>
      </trkpt>
      <trkpt lat="57.00928" lon="-4.83915">
        <ele>50.79</ele>
        <time>2021-03-20T18:33:10Z</time>
      </trkpt>
      <trkpt lat="57.00907" lon="-4.83947">
        <ele>50.92</ele>
        <time>2021-03-20T18:33:15Z</time>
      </trkpt>
      <trkpt lat="57.00885" lon="-4.83985">
        <ele>48.58</ele>
        <time>2021-03-20T18:33:19Z</time>
      </trkpt>
      <trkpt lat="57.00732" lon="-4.84197">
        <ele>44.31</ele>
        <time>2021-03-20T18:33:23Z</time>
      </trkpt>
      <trkpt lat="57.00648" lon="-4.84319">
        <ele>39.26</ele>
        <time>2021-03-20T18:33:28Z</time>
      </trkpt>
      <trkpt lat="57.00481" lon="-4.84554">
        <ele>43.14</ele>
        <time>2021-03-20T18:33:32Z</time>
      </trkpt>
      <trkpt lat="57.00316" lon="-4.84811">
        <ele>44.87</ele>
        <time>2021-03-20T18:33:37Z</time>
      </trkpt>
      <trkpt lat="57.00032" lon="-4.852">
        <ele>49.29</ele>
        <time>2021-03-20T18:33:41Z</time>
      </trkpt>
      <trkpt lat="56.99951" lon="-4.85317">
        <ele>50.26</ele>
        <time>2021-03-20T18:33:45Z</time>
      </trkpt>
      <trkpt lat="56.99876" lon="-4.85418">
        <ele>49.61</ele>
        <time>2021-03-20T18:33:50Z</time>
      </trkpt>
      <trkpt lat="56.99744" lon="-4.85579">
        <ele>53.12</ele>
        <time>2021-03-20T18:33:54Z</time>
      </trkpt>
      <trkpt lat="56.99656" lon="-4.85675">
        <ele>50.24</ele>
        <time>2021-03-20T18:33:59Z</time>
      </trkpt>
      <trkpt lat="56.99595" lon="-4.85757">
        <ele>55.12</ele>
        <time>2021-03-20T18:34:03Z</time>
      </trkpt>
      <trkpt lat="56.99513" lon="-4.85882">
        <ele>52.61</ele>
        <time>2021-03-20T18:34:08Z</time>
      </trkpt>
      <trkpt lat="56.99436" lon="-4.85979">
        <ele>51.19</ele>
        <time>2021-03-20T18:34:12Z</time>
      </trkpt>
      <trkpt lat="56.99389" lon="-4.86046">
        <ele>50.73</ele>
        <time>2021-03-20T18:34:16Z</time>
      </trkpt>
      <trkpt lat="56.9936" lon="-4.86092">
        <ele>45.52</ele>
        <time>2021-03-20T18:34:21Z</time>
      </trkpt>
      <trkpt lat="56.9933" lon="-4.86165">
        <ele>41.42</ele>
        <time>2021-03-20T18:34:25Z</time>
      </trkpt>
      <trkpt lat="56.99295" lon="-4.86272">
        <ele>33.65</ele>
        <time>2021-03-20T18:34:30Z</time>
      </trkpt>
      <trkpt lat="56.99271" lon="-4.86332">
        <ele>33.6</ele>
        <time>2021-03-20T18:34:34Z</time>
      </trkpt>
      <trkpt lat="56.99256" lon="-4.86354">
        <ele>34.55</ele>
        <time>2021-03-20T18:34:38Z</time>
      </trkpt>
      <trkpt lat="56.99234" lon="-4.86381">
        <ele>34.52</ele>
        <time>2021-03-20T18:34:43Z</time>
      </trkpt>
      <trkpt lat="56.9922" lon="-4.86392">
        <ele>35.87</ele>
        <time>2021-03-20T18:34:47Z</time>
      </trkpt>
      <trkpt lat="56.99155" lon="-4.86427">
        <ele>39.99</ele>
        <time>2021-03-20T18:34:52Z</time>
      </trkpt>
      <trkpt lat="56.99133" lon="-4.86445">
        <ele>41.7</ele>
        <time>2021-03-20T18:34:56Z</time>
      </trkpt>
      <trkpt lat="56.99023" lon="-4.86573">
        <ele>46.72</ele>
        <time>2021-03-20T18:35:01Z</time>
      </trkpt>
      <trkpt lat="56.98931" lon="-4.86693">
        <ele>51.5</ele>
        <time>2021-03-20T18:35:05Z</time>
      </trkpt>
      <trkpt lat="56.98746" lon="-4.86968">
        <ele>38.86</ele>
        <time>2021-03-20T18:35:09Z</time>
      </trkpt>
      <trkpt lat="56.98542" lon="-4.87223">
        <ele>41.55</ele>
        <time>2021-03-20T18:35:14Z</time>
      </trkpt>
      <trkpt lat="56.98474" lon="-4.87311">
        <ele>39.53</ele>
        <time>2021-03-20T18:35:18Z</time>
      </trkpt>
      <trkpt lat="56.98331" lon="-4.87486">
        <ele>48.91</ele>
        <time>2021-03-20T18:35:23Z</time>
      </trkpt>
      <trkpt lat="56.98212" lon="-4.8762">
        <ele>39.66</ele>
        <time>2021-03-20T18:35:27Z</time>
      </trkpt>
      <trkpt lat="56.98116" lon="-4.87717">
        <ele>36.42</ele>
        <time>2021-03-20T18:35:31Z</time>
      </trkpt>
      <trkpt lat="56.9807" lon="-4.87772">
        <ele>40.33</ele>
        <time>2021-03-20T18:35:36Z</time>
      </trkpt>
      <trkpt lat="56.98034" lon="-4.8782">
        <ele>37.3</ele>
        <time>2021-03-20T18:35:40Z</time>
      </trkpt>
      <trkpt lat="56.9801" lon="-4.87859">
        <ele>38.62</ele>
        <time>2021-03-20T18:35:45Z</time>
      </trkpt>
      <trkpt lat="56.97987" lon="-4.87907">
        <ele>39.19</ele>
        <time>2021-03-20T18:35:49Z</time>
      </trkpt>
      <trkpt lat="56.97934" lon="-4.88025">
        <ele>45.86</ele>
        <time>2021-03-20T18:35:54Z</time>
      </trkpt>
      <trkpt lat="56.9788" lon="-4.88154">
        <ele>49.17</ele>
        <time>2021-03-20T18:35:58Z</time>
      </trkpt>
      <trkpt lat="56.9785" lon="-4.88218">
        <ele>48.18</ele>
        <time>2021-03-20T18:36:02Z</time>
      </trkpt>
      <trkpt lat="56.97797" lon="-4.88298">
        <ele>45.6</ele>
        <time>2021-03-20T18:36:07Z</time>
      </trkpt>
      <trkpt lat="56.97756" lon="-4.88351">
        <ele>46.18</ele>
        <time>2021-03-20T18:36:11Z</time>
      </trkpt>
      <trkpt lat="56.97731" lon="-4.88376">
        <ele>45.45</ele>
        <time>2021-03-20T18:36:16Z</time>
      </trkpt>
      <trkpt lat="56.97705" lon="-4.88393">
        <ele>44.8</ele>
        <time>2021-03-20T18:36:20Z</time>
      </trkpt>
      <trkpt lat="56.97517" lon="-4.8848">
        <ele>52.21</ele>
        <time>2021-03-20T18:36:25Z</time>
      </trkpt>
      <trkpt lat="56.97448" lon="-4.88521">
        <ele>64.17</ele>
        <time>2021-03-20T18:36:29Z</time>
      </trkpt>
      <trkpt lat="56.97394" lon="-4.88563">
        <ele>69.68</ele>
        <time>2021-03-20T18:36:33Z</time>
      </trkpt>
      <trkpt lat="56.97315" lon="-4.8864">
        <ele>72.16</ele>
        <time>2021-03-20T18:36:38Z</time>
      </trkpt>
      <trkpt lat="56.97258" lon="-4.8869">
        <ele>73.69</ele>
        <time>2021-03-20T18:36:42Z</time>
      </trkpt>
      <trkpt lat="56.97146" lon="-4.88772">
        <ele>81.59</ele>
        <time>2021-03-20T18:36:47Z</time>
      </trkpt>
      <trkpt lat="56.9708" lon="-4.88825">
        <ele>84.54</ele>
        <time>2021-03-20T18:36:51Z</time>
      </trkpt>
      <trkpt lat="56.96963" lon="-4.88935">
        <ele>95.03</ele>
        <time>2021-03-20T18:36:55Z</time>
      </trkpt>
      <trkpt lat="56.96857" lon="-4.89029">
        <ele>107.61</ele>
        <time>2021-03-20T18:37:00Z</time>
      </trkpt>
      <trkpt lat="56.96839" lon="-4.89051">
        <ele>108.93</ele>
        <time>2021-03-20T18:37:04Z</time>
      </trkpt>
      <trkpt lat="56.96763" lon="-4.89177">
        <ele>109.65</ele>
        <time>2021-03-20T18:37:09Z</time>
      </trkpt>
      <trkpt lat="56.96726" lon="-4.89231">
        <ele>107.32</ele>
        <time>2021-03-20T18:37:13Z</time>
      </trkpt>
      <trkpt lat="56.96603" lon="-4.89338">
        <ele>106.99</ele>
        <time>2021-03-20T18:37:18Z</time>
      </trkpt>
      <trkpt lat="56.96582" lon="-4.89362">
        <ele>108.11</ele>
        <time>2021-03-20T18:37:22Z</time>
      </trkpt>
      <trkpt lat="56.96538" lon="-4.89425">
        <ele>107.07</ele>
        <time>2021-03-20T18:37:26Z</time>
      </trkpt>
      <trkpt lat="56.96333" lon="-4.89738">
        <ele>105.88</ele>
        <time>2021-03-20T18:37:31Z</time>
      </trkpt>
      <trkpt lat="56.96269" lon="-4.89847">
        <ele>110.1</ele>
        <time>2021-03-20T18:37:35Z</time>
      </trkpt>
      <trkpt lat="56.96248" lon="-4.89892">
        <ele>113.37</ele>
        <time>2021-03-20T18:37:40Z</time>
      </trkpt>
      <trkpt lat="56.9622" lon="-4.89959">
        <ele>113.24</ele>
        <time>2021-03-20T18:37:44Z</time>
      </trkpt>
      <trkpt lat="56.96161" lon="-4.90134">
        <ele>107.22</ele>
        <time>2021-03-20T18:37:48Z</time>
      </trkpt>
      <trkpt lat="56.9608" lon="-4.90336">
        <ele>96.06</ele>
        <time>2021-03-20T18:37:53Z</time>
      </trkpt>
      <trkpt lat="56.96036" lon="-4.90435">
        <ele>88.56</ele>
        <time>2021-03-20T18:37:57Z</time>
      </trkpt>
      <trkpt lat="56.96007" lon="-4.90494">
        <ele>88.72</ele>
        <time>2021-03-20T18:38:02Z</time>
      </trkpt>
      <trkpt lat="56.95979" lon="-4.90551">
        <ele>89.57</ele>
        <time>2021-03-20T18:38:06Z</time>
      </trkpt>
      <trkpt lat="56.9595" lon="-4.90603">
        <ele>91.33</ele>
        <time>2021-03-20T18:38:11Z</time>
      </trkpt>
      <trkpt lat="56.95884" lon="-4.90696">
        <ele>101.58</ele>
        <time>2021-03-20T18:38:15Z</time>
      </trkpt>
      <trkpt lat="56.95816" lon="-4.90779">
        <ele>102.25</ele>
        <time>2021-03-20T18:38:19Z</time>
      </trkpt>
      <trkpt lat="56.95793" lon="-4.90816">
        <ele>102.78</ele>
        <time>2021-03-20T18:38:24Z</time>
      </trkpt>
      <trkpt lat="56.95752" lon="-4.90898">
        <ele>101.95</ele>
        <time>2021-03-20T18:38:28Z</time>
      </trkpt>
      <trkpt lat="56.95719" lon="-4.9094">
        <ele>98.87</ele>
        <time>2021-03-20T18:38:33Z</time>
      </trkpt>
      <trkpt lat="56.95649" lon="-4.91006">
        <ele>98.77</ele>
        <time>2021-03-20T18:38:37Z</time>
      </trkpt>
      <trkpt lat="56.95624" lon="-4.91041">
        <ele>98.63</ele>
        <time>2021-03-20T18:38:42Z</time>
      </trkpt>
      <trkpt lat="56.95518" lon="-4.91219">
        <ele>94.11</ele>
        <time>2021-03-20T18:38:46Z</time>
      </trkpt>
      <trkpt lat="56.95406" lon="-4.91377">
        <ele>89.66</ele>
        <time>2021-03-20T18:38:50Z</time>
      </trkpt>
      <trkpt lat="56.95347" lon="-4.91462">
        <ele>87.56</ele>
        <time>2021-03-20T18:38:55Z</time>
      </trkpt>
      <trkpt lat="56.95294" lon="-4.91554">
        <ele>87.31</ele>
        <time>2021-03-20T18:38:59Z</time>
      </trkpt>
      <trkpt lat="56.95262" lon="-4.91596">
        <ele>87.46</ele>
        <time>2021-03-20T18:39:04Z</time>
      </trkpt>
      <trkpt lat="56.95231" lon="-4.91629">
        <ele>87.18</ele>
        <time>2021-03-20T18:39:08Z</time>
      </trkpt>
      <trkpt lat="56.95152" lon="-4.91689">
        <ele>83.16</ele>
        <time>2021-03-20T18:39:12Z</time>
      </trkpt>
      <trkpt lat="56.9511" lon="-4.91727">
        <ele>79.67</ele>
        <time>2021-03-20T18:39:17Z</time>
      </trkpt>
      <trkpt lat="56.95061" lon="-4.91778">
        <ele>77.81</ele>
        <time>2021-03-20T18:39:21Z</time>
      </trkpt>
      <trkpt lat="56.95016" lon="-4.91833">
        <ele>79.42</ele>
        <time>2021-03-20T18:39:26Z</time>
      </trkpt>
      <trkpt lat="56.9492" lon="-4.91969">
        <ele>72.24</ele>
        <time>2021-03-20T18:39:30Z</time>
      </trkpt>
      <trkpt lat="56.94871" lon="-4.92034">
        <ele>67.76</ele>
        <time>2021-03-20T18:39:35Z</time>
      </trkpt>
      <trkpt lat="56.94843" lon="-4.92058">
        <ele>66.41</ele>
        <time>2021-03-20T18:39:39Z</time>
      </trkpt>
      <trkpt lat="56.94787" lon="-4.9208">
        <ele>68.4</ele>
        <time>2021-03-20T18:39:43Z</time>
      </trkpt>
      <trkpt lat="56.94565" lon="-4.92154">
        <ele>78</ele>
        <time>2021-03-20T18:39:48Z</time>
      </trkpt>
      <trkpt lat="56.94502" lon="-4.92181">
        <ele>79.98</ele>
        <time>2021-03-20T18:39:52Z</time>
      </trkpt>
      <trkpt lat="56.9447" lon="-4.92204">
        <ele>83.59</ele>
        <time>2021-03-20T18:39:57Z</time>
      </trkpt>
      <trkpt lat="56.9442" lon="-4.9226">
        <ele>83.12</ele>
        <time>2021-03-20T18:40:01Z</time>
      </trkpt>
      <trkpt lat="56.94386" lon="-4.9229">
        <ele>84.79</ele>
        <time>2021-03-20T18:40:05Z</time>
      </trkpt>
      <trkpt lat="56.9435" lon="-4.92303">
        <ele>87.61</ele>
        <time>2021-03-20T18:40:10Z</time>
      </trkpt>
      <trkpt lat="56.94305" lon="-4.92305">
        <ele>86.94</ele>
        <time>2021-03-20T18:40:14Z</time>
      </trkpt>
      <trkpt lat="56.94108" lon="-4.92292">
        <ele>100.31</ele>
        <time>2021-03-20T18:40:19Z</time>
      </trkpt>
      <trkpt lat="56.94073" lon="-4.92287">
        <ele>102.4</ele>
        <time>2021-03-20T18:40:23Z</time>
      </trkpt>
      <trkpt lat="56.94033" lon="-4.92277">
        <ele>101.13</ele>
        <time>2021-03-20T18:40:28Z</time>
      </trkpt>
      <trkpt lat="56.94016" lon="-4.92268">
        <ele>100.1</ele>
        <time>2021-03-20T18:40:32Z</time>
      </trkpt>
      <trkpt lat="56.93992" lon="-4.92247">
        <ele>99.21</ele>
        <time>2021-03-20T18:40:36Z</time>
      </trkpt>
      <trkpt lat="56.93914" lon="-4.92147">
        <ele>102</ele>
        <time>2021-03-20T18:40:41Z</time>
      </trkpt>
      <trkpt lat="56.93901" lon="-4.92135">
        <ele>100.93</ele>
        <time>2021-03-20T18:40:45Z</time>
      </trkpt>
      <trkpt lat="56.93884" lon="-4.92126">
        <ele>100.14</ele>
        <time>2021-03-20T18:40:50Z</time>
      </trkpt>
      <trkpt lat="56.93868" lon="-4.92121">
        <ele>99.49</ele>
        <time>2021-03-20T18:40:54Z</time>
      </trkpt>
      <trkpt lat="56.93834" lon="-4.92129">
        <ele>99.56</ele>
        <time>2021-03-20T18:40:59Z</time>
      </trkpt>
      <trkpt lat="56.93818" lon="-4.92139">
        <ele>99.35</ele>
        <time>2021-03-20T18:41:03Z</time>
      </trkpt>
      <trkpt lat="56.93755" lon="-4.92209">
        <ele>100.37</ele>
        <time>2021-03-20T18:41:07Z</time>
      </trkpt>
      <trkpt lat="56.93725" lon="-4.92234">
        <ele>102.37</ele>
        <time>2021-03-20T18:41:12Z</time>
      </trkpt>
      <trkpt lat="56.93688" lon="-4.9225">
        <ele>102.99</ele>
        <time>2021-03-20T18:41:16Z</time>
      </trkpt>
      <trkpt lat="56.93636" lon="-4.92262">
        <ele>102.33</ele>
        <time>2021-03-20T18:41:21Z</time>
      </trkpt>
      <trkpt lat="56.93507" lon="-4.92271">
        <ele>100.44</ele>
        <time>2021-03-20T18:41:25Z</time>
      </trkpt>
      <trkpt lat="56.93483" lon="-4.92275">
        <ele>100.7</ele>
        <time>2021-03-20T18:41:29Z</time>
      </trkpt>
      <trkpt lat="56.93462" lon="-4.92283">
        <ele>101.51</ele>
        <time>2021-03-20T18:41:34Z</time>
      </trkpt>
      <trkpt lat="56.93438" lon="-4.923">
        <ele>101.87</ele>
        <time>2021-03-20T18:41:38Z</time>
      </trkpt>
      <trkpt lat="56.93415" lon="-4.92322">
        <ele>102.2</ele>
        <time>2021-03-20T18:41:43Z</time>
      </trkpt>
      <trkpt lat="56.93389" lon="-4.92355">
        <ele>104.63</ele>
        <time>2021-03-20T18:41:47Z</time>
      </trkpt>
      <trkpt lat="56.9336" lon="-4.92417">
        <ele>108.75</ele>
        <time>2021-03-20T18:41:52Z</time>
      </trkpt>
      <trkpt lat="56.93283" lon="-4.92641">
        <ele>114.13</ele>
        <time>2021-03-20T18:41:56Z</time>
      </trkpt>
      <trkpt lat="56.93216" lon="-4.92814">
        <ele>112.48</ele>
        <time>2021-03-20T18:42:00Z</time>
      </trkpt>
      <trkpt lat="56.93165" lon="-4.92931">
        <ele>109.98</ele>
        <time>2021-03-20T18:42:05Z</time>
      </trkpt>
      <trkpt lat="56.93084" lon="-4.93062">
        <ele>110.68</ele>
        <time>2021-03-20T18:42:09Z</time>
      </trkpt>
      <trkpt lat="56.92871" lon="-4.93478">
        <ele>115.78</ele>
        <time>2021-03-20T18:42:14Z</time>
      </trkpt>
      <trkpt lat="56.92793" lon="-4.93598">
        <ele>118.45</ele>
        <time>2021-03-20T18:42:18Z</time>
      </trkpt>
      <trkpt lat="56.92574" lon="-4.9391">
        <ele>116.86</ele>
        <time>2021-03-20T18:42:22Z</time>
      </trkpt>
      <trkpt lat="56.92507" lon="-4.93991">
        <ele>118.66</ele>
        <time>2021-03-20T18:42:27Z</time>
      </trkpt>
      <trkpt lat="56.92436" lon="-4.94062">
        <ele>116.68</ele>
        <time>2021-03-20T18:42:31Z</time>
      </trkpt>
      <trkpt lat="56.92257" lon="-4.94282">
        <ele>112.58</ele>
        <time>2021-03-20T18:42:36Z</time>
      </trkpt>
      <trkpt lat="56.92214" lon="-4.9433">
        <ele>111.57</ele>
        <time>2021-03-20T18:42:40Z</time>
      </trkpt>
      <trkpt lat="56.92193" lon="-4.94349">
        <ele>110.99</ele>
        <time>2021-03-20T18:42:45Z</time>
      </trkpt>
      <trkpt lat="56.92169" lon="-4.94367">
        <ele>111.17</ele>
        <time>2021-03-20T18:42:49Z</time>
      </trkpt>
      <trkpt lat="56.92105" lon="-4.94399">
        <ele>111.69</ele>
        <time>2021-03-20T18:42:53Z</time>
      </trkpt>
      <trkpt lat="56.9178" lon="-4.94531">
        <ele>112.91</ele>
        <time>2021-03-20T18:42:58Z</time>
      </trkpt>
      <trkpt lat="56.91767" lon="-4.94551">
        <ele>112.69</ele>
        <time>2021-03-20T18:43:04Z</time>
      </trkpt>
      <trkpt lat="56.91734" lon="-4.94567">
        <ele>111.03</ele>
        <time>2021-03-20T18:43:10Z</time>
      </trkpt>
      <trkpt lat="56.91731" lon="-4.94583">
        <ele>110.34</ele>
        <time>2021-03-20T18:43:32Z</time>
      </trkpt>
      <trkpt lat="56.9166" lon="-4.94689">
        <ele>106</ele>
        <time>2021-03-20T18:43:54Z</time>
      </trkpt>
      <trkpt lat="56.91654" lon="-4.9471">
        <ele>106</ele>
        <time>2021-03-20T18:44:16Z</time>
      </trkpt>
      <trkpt lat="56.91647" lon="-4.9472">
        <ele>106</ele>
        <time>2021-03-20T18:44:38Z</time>
      </trkpt>
      <trkpt lat="56.91639" lon="-4.94725">
        <ele>106.11</ele>
        <time>2021-03-20T18:45:01Z</time>
      </trkpt>
      <trkpt lat="56.91594" lon="-4.94794">
        <ele>107.4</ele>
        <time>2021-03-20T18:45:23Z</time>
      </trkpt>
      <trkpt lat="56.91573" lon="-4.94837">
        <ele>107.25</ele>
        <time>2021-03-20T18:45:45Z</time>
      </trkpt>
      <trkpt lat="56.91556" lon="-4.94878">
        <ele>106.97</ele>
        <time>2021-03-20T18:46:07Z</time>
      </trkpt>
      <trkpt lat="56.91483" lon="-4.95036">
        <ele>105.48</ele>
        <time>2021-03-20T18:46:30Z</time>
      </trkpt>
      <trkpt lat="56.91445" lon="-4.9515">
        <ele>106.36</ele>
        <time>2021-03-20T18:46:52Z</time>
      </trkpt>
      <trkpt lat="56.91402" lon="-4.95267">
        <ele>108.76</ele>
        <time>2021-03-20T18:47:14Z</time>
      </trkpt>
      <trkpt lat="56.91359" lon="-4.95372">
        <ele>102.28</ele>
        <time>2021-03-20T18:47:36Z</time>
      </trkpt>
      <trkpt lat="56.91328" lon="-4.95476">
        <ele>98.17</ele>
        <time>2021-03-20T18:47:58Z</time>
      </trkpt>
      <trkpt lat="56.9125" lon="-4.95699">
        <ele>114.36</ele>
        <time>2021-03-20T18:48:21Z</time>
      </trkpt>
      <trkpt lat="56.91213" lon="-4.95791">
        <ele>121.75</ele>
        <time>2021-03-20T18:48:43Z</time>
      </trkpt>
      <trkpt lat="56.91195" lon="-4.95818">
        <ele>124.42</ele>
        <time>2021-03-20T18:49:05Z</time>
      </trkpt>
      <trkpt lat="56.91179" lon="-4.95831">
        <ele>125.46</ele>
        <time>2021-03-20T18:49:27Z</time>
      </trkpt>
      <trkpt lat="56.90927" lon="-4.95956">
        <ele>126.34</ele>
        <time>2021-03-20T18:49:49Z</time>
      </trkpt>
      <trkpt lat="56.90634" lon="-4.96108">
        <ele>124.93</ele>
        <time>2021-03-20T18:50:12Z</time>
      </trkpt>
      <trkpt lat="56.90614" lon="-4.96111">
        <ele>121.56</ele>
        <time>2021-03-20T18:50:34Z</time>
      </trkpt>
      <trkpt lat="56.90538" lon="-4.96062">
        <ele>119.77</ele>
        <time>2021-03-20T18:50:56Z</time>
      </trkpt>
      <trkpt lat="56.90474" lon="-4.96015">
        <ele>113.21</ele>
        <time>2021-03-20T18:51:18Z</time>
      </trkpt>
      <trkpt lat="56.90445" lon="-4.95999">
        <ele>109.15</ele>
        <time>2021-03-20T18:51:40Z</time>
      </trkpt>
      <trkpt lat="56.90465" lon="-4.96027">
        <ele>110.29</ele>
        <time>2021-03-20T18:51:43Z</time>
      </trkpt>
      <trkpt lat="56.9047" lon="-4.96052">
        <ele>109.68</ele>
        <time>2021-03-20T18:51:45Z</time>
      </trkpt>
      <trkpt lat="56.90471" lon="-4.96144">
        <ele>106.8</ele>
        <time>2021-03-20T18:51:47Z</time>
      </trkpt>
      <trkpt lat="56.90481" lon="-4.96201">
        <ele>107.07</ele>
        <time>2021-03-20T18:51:50Z</time>
      </trkpt>
      <trkpt lat="56.90494" lon="-4.96319">
        <ele>106.45</ele>
        <time>2021-03-20T18:51:52Z</time>
      </trkpt>
      <trkpt lat="56.90523" lon="-4.96475">
        <ele>103.6</ele>
        <time>2021-03-20T18:51:54Z</time>
      </trkpt>
      <trkpt lat="56.90569" lon="-4.96689">
        <ele>99.21</ele>
        <time>2021-03-20T18:51:57Z</time>
      </trkpt>
      <trkpt lat="56.90597" lon="-4.96763">
        <ele>101.91</ele>
        <time>2021-03-20T18:51:59Z</time>
      </trkpt>
      <trkpt lat="56.90607" lon="-4.96812">
        <ele>101.36</ele>
        <time>2021-03-20T18:52:01Z</time>
      </trkpt>
      <trkpt lat="56.90614" lon="-4.96887">
        <ele>99.65</ele>
        <time>2021-03-20T18:52:04Z</time>
      </trkpt>
      <trkpt lat="56.90619" lon="-4.97038">
        <ele>92.89</ele>
        <time>2021-03-20T18:52:06Z</time>
      </trkpt>
      <trkpt lat="56.90629" lon="-4.97099">
        <ele>90.03</ele>
        <time>2021-03-20T18:52:08Z</time>
      </trkpt>
      <trkpt lat="56.90643" lon="-4.97162">
        <ele>87.43</ele>
        <time>2021-03-20T18:52:11Z</time>
      </trkpt>
      <trkpt lat="56.90676" lon="-4.97277">
        <ele>83.03</ele>
        <time>2021-03-20T18:52:13Z</time>
      </trkpt>
      <trkpt lat="56.90685" lon="-4.97328">
        <ele>80.67</ele>
        <time>2021-03-20T18:52:15Z</time>
      </trkpt>
      <trkpt lat="56.90708" lon="-4.97494">
        <ele>72.39</ele>
        <time>2021-03-20T18:52:18Z</time>
      </trkpt>
      <trkpt lat="56.90729" lon="-4.97539">
        <ele>70.78</ele>
        <time>2021-03-20T18:52:20Z</time>
      </trkpt>
      <trkpt lat="56.90766" lon="-4.97604">
        <ele>67.78</ele>
        <time>2021-03-20T18:52:22Z</time>
      </trkpt>
      <trkpt lat="56.90801" lon="-4.97703">
        <ele>65.42</ele>
        <time>2021-03-20T18:52:25Z</time>
      </trkpt>
      <trkpt lat="56.90856" lon="-4.97832">
        <ele>58.46</ele>
        <time>2021-03-20T18:52:27Z</time>
      </trkpt>
      <trkpt lat="56.90893" lon="-4.97916">
        <ele>55.02</ele>
        <time>2021-03-20T18:52:29Z</time>
      </trkpt>
      <trkpt lat="56.90909" lon="-4.97971">
        <ele>50.79</ele>
        <time>2021-03-20T18:52:32Z</time>
      </trkpt>
      <trkpt lat="56.90936" lon="-4.98078">
        <ele>45.88</ele>
        <time>2021-03-20T18:52:34Z</time>
      </trkpt>
      <trkpt lat="56.90967" lon="-4.98216">
        <ele>39.72</ele>
        <time>2021-03-20T18:52:36Z</time>
      </trkpt>
      <trkpt lat="56.9099" lon="-4.98365">
        <ele>35.11</ele>
        <time>2021-03-20T18:52:39Z</time>
      </trkpt>
      <trkpt lat="56.91001" lon="-4.98419">
        <ele>33.88</ele>
        <time>2021-03-20T18:52:41Z</time>
      </trkpt>
      <trkpt lat="56.91007" lon="-4.98443">
        <ele>33.08</ele>
        <time>2021-03-20T18:52:43Z</time>
      </trkpt>
      <trkpt lat="56.90995" lon="-4.98543">
        <ele>30.25</ele>
        <time>2021-03-20T18:52:45Z</time>
      </trkpt>
      <trkpt lat="56.91" lon="-4.98562">
        <ele>30.23</ele>
        <time>2021-03-20T18:52:48Z</time>
      </trkpt>
      <trkpt lat="56.91017" lon="-4.98604">
        <ele>31</ele>
        <time>2021-03-20T18:52:50Z</time>
      </trkpt>
      <trkpt lat="56.91022" lon="-4.98621">
        <ele>31.07</ele>
        <time>2021-03-20T18:52:52Z</time>
      </trkpt>
      <trkpt lat="56.91029" lon="-4.98721">
        <ele>30.03</ele>
        <time>2021-03-20T18:52:55Z</time>
      </trkpt>
      <trkpt lat="56.91062" lon="-4.98957">
        <ele>28.53</ele>
        <time>2021-03-20T18:52:57Z</time>
      </trkpt>
      <trkpt lat="56.91073" lon="-4.991">
        <ele>25.36</ele>
        <time>2021-03-20T18:52:59Z</time>
      </trkpt>
      <trkpt lat="56.9108" lon="-4.99216">
        <ele>26</ele>
        <time>2021-03-20T18:53:02Z</time>
      </trkpt>
      <trkpt lat="56.91091" lon="-4.9931">
        <ele>26</ele>
        <time>2021-03-20T18:53:04Z</time>
      </trkpt>
      <trkpt lat="56.91093" lon="-4.99443">
        <ele>26</ele>
        <time>2021-03-20T18:53:06Z</time>
      </trkpt>
      <trkpt lat="56.91096" lon="-4.99496">
        <ele>26</ele>
        <time>2021-03-20T18:53:09Z</time>
      </trkpt>
      <trkpt lat="56.91102" lon="-4.99564">
        <ele>25.24</ele>
        <time>2021-03-20T18:53:11Z</time>
      </trkpt>
      <trkpt lat="56.91111" lon="-4.9963">
        <ele>25.67</ele>
        <time>2021-03-20T18:53:13Z</time>
      </trkpt>
      <trkpt lat="56.9112" lon="-4.99653">
        <ele>26.15</ele>
        <time>2021-03-20T18:53:16Z</time>
      </trkpt>
      <trkpt lat="56.91138" lon="-4.99678">
        <ele>27.37</ele>
        <time>2021-03-20T18:53:18Z</time>
      </trkpt>
      <trkpt lat="56.91151" lon="-4.99688">
        <ele>27.78</ele>
        <time>2021-03-20T18:53:20Z</time>
      </trkpt>
      <trkpt lat="56.91163" lon="-4.99689">
        <ele>27.8</ele>
        <time>2021-03-20T18:53:23Z</time>
      </trkpt>
      <trkpt lat="56.91176" lon="-4.99683">
        <ele>27.59</ele>
        <time>2021-03-20T18:53:25Z</time>
      </trkpt>
      <trkpt lat="56.91183" lon="-4.99676">
        <ele>27.33</ele>
        <time>2021-03-20T18:53:27Z</time>
      </trkpt>
      <trkpt lat="56.91207" lon="-4.99641">
        <ele>27.43</ele>
        <time>2021-03-20T18:53:30Z</time>
      </trkpt>
      <trkpt lat="56.91215" lon="-4.99634">
        <ele>27.84</ele>
        <time>2021-03-20T18:53:32Z</time>
      </trkpt>
      <trkpt lat="56.9128" lon="-4.99598">
        <ele>29.93</ele>
        <time>2021-03-20T18:53:34Z</time>
      </trkpt>
      <trkpt lat="56.91285" lon="-4.99598">
        <ele>29.72</ele>
        <time>2021-03-20T18:53:37Z</time>
      </trkpt>
      <trkpt lat="56.91291" lon="-4.99601">
        <ele>29.52</ele>
        <time>2021-03-20T18:53:39Z</time>
      </trkpt>
      <trkpt lat="56.91295" lon="-4.99607">
        <ele>29.38</ele>
        <time>2021-03-20T18:53:41Z</time>
      </trkpt>
      <trkpt lat="56.913" lon="-4.99626">
        <ele>28.67</ele>
        <time>2021-03-20T18:53:44Z</time>
      </trkpt>
      <trkpt lat="56.91301" lon="-4.99653">
        <ele>28.17</ele>
        <time>2021-03-20T18:53:46Z</time>
      </trkpt>
      <trkpt lat="56.9129" lon="-4.99703">
        <ele>28</ele>
        <time>2021-03-20T18:53:48Z</time>
      </trkpt>
      <trkpt lat="56.91321" lon="-4.99773">
        <ele>28.11</ele>
        <time>2021-03-20T18:53:50Z</time>
      </trkpt>
      <trkpt lat="56.9133" lon="-4.99804">
        <ele>30.54</ele>
        <time>2021-03-20T18:53:53Z</time>
      </trkpt>
      <trkpt lat="56.91331" lon="-4.99815">
        <ele>31.34</ele>
        <time>2021-03-20T18:53:55Z</time>
      </trkpt>
      <trkpt lat="56.9129" lon="-4.9997">
        <ele>42.48</ele>
        <time>2021-03-20T18:53:58Z</time>
      </trkpt>
      <trkpt lat="56.91246" lon="-5.00102">
        <ele>53.42</ele>
        <time>2021-03-20T18:54:00Z</time>
      </trkpt>
      <trkpt lat="56.91234" lon="-5.00152">
        <ele>57.8</ele>
        <time>2021-03-20T18:54:03Z</time>
      </trkpt>
      <trkpt lat="56.91202" lon="-5.0021">
        <ele>54.83</ele>
        <time>2021-03-20T18:54:05Z</time>
      </trkpt>
      <trkpt lat="56.91143" lon="-5.00363">
        <ele>60.04</ele>
        <time>2021-03-20T18:54:08Z</time>
      </trkpt>
      <trkpt lat="56.91092" lon="-5.00438">
        <ele>56.2</ele>
        <time>2021-03-20T18:54:10Z</time>
      </trkpt>
      <trkpt lat="56.91079" lon="-5.00474">
        <ele>57.28</ele>
        <time>2021-03-20T18:54:13Z</time>
      </trkpt>
      <trkpt lat="56.91057" lon="-5.00503">
        <ele>56.71</ele>
        <time>2021-03-20T18:54:15Z</time>
      </trkpt>
      <trkpt lat="56.91024" lon="-5.00515">
        <ele>53.73</ele>
        <time>2021-03-20T18:54:18Z</time>
      </trkpt>
      <trkpt lat="56.90995" lon="-5.00532">
        <ele>51.73</ele>
        <time>2021-03-20T18:54:20Z</time>
      </trkpt>
      <trkpt lat="56.90973" lon="-5.0057">
        <ele>53.18</ele>
        <time>2021-03-20T18:54:23Z</time>
      </trkpt>
      <trkpt lat="56.90949" lon="-5.00585">
        <ele>51.73</ele>
        <time>2021-03-20T18:54:25Z</time>
      </trkpt>
      <trkpt lat="56.90919" lon="-5.00607">
        <ele>48.97</ele>
        <time>2021-03-20T18:54:28Z</time>
      </trkpt>
      <trkpt lat="56.90909" lon="-5.00628">
        <ele>48.94</ele>
        <time>2021-03-20T18:54:30Z</time>
      </trkpt>
      <trkpt lat="56.90877" lon="-5.00723">
        <ele>50.83</ele>
        <time>2021-03-20T18:54:33Z</time>
      </trkpt>
      <trkpt lat="56.90802" lon="-5.00818">
        <ele>45.4</ele>
        <time>2021-03-20T18:54:35Z</time>
      </trkpt>
      <trkpt lat="56.90789" lon="-5.00839">
        <ele>45.23</ele>
        <time>2021-03-20T18:54:38Z</time>
      </trkpt>
      <trkpt lat="56.90777" lon="-5.00879">
        <ele>46.2</ele>
        <time>2021-03-20T18:54:40Z</time>
      </trkpt>
      <trkpt lat="56.90682" lon="-5.01065">
        <ele>51.08</ele>
        <time>2021-03-20T18:54:43Z</time>
      </trkpt>
      <trkpt lat="56.90668" lon="-5.01087">
        <ele>51.84</ele>
        <time>2021-03-20T18:54:45Z</time>
      </trkpt>
      <trkpt lat="56.90625" lon="-5.01116">
        <ele>47.86</ele>
        <time>2021-03-20T18:54:48Z</time>
      </trkpt>
      <trkpt lat="56.90613" lon="-5.01135">
        <ele>47.11</ele>
        <time>2021-03-20T18:54:50Z</time>
      </trkpt>
      <trkpt lat="56.90606" lon="-5.01152">
        <ele>47.19</ele>
        <time>2021-03-20T18:54:53Z</time>
      </trkpt>
      <trkpt lat="56.906" lon="-5.01182">
        <ele>47.58</ele>
        <time>2021-03-20T18:54:55Z</time>
      </trkpt>
      <trkpt lat="56.90597" lon="-5.01217">
        <ele>48.31</ele>
        <time>2021-03-20T18:54:58Z</time>
      </trkpt>
      <trkpt lat="56.90597" lon="-5.01285">
        <ele>51.4</ele>
        <time>2021-03-20T18:55:00Z</time>
      </trkpt>
      <trkpt lat="56.90594" lon="-5.01307">
        <ele>52.43</ele>
        <time>2021-03-20T18:55:03Z</time>
      </trkpt>
      <trkpt lat="56.90583" lon="-5.01336">
        <ele>51.15</ele>
        <time>2021-03-20T18:55:05Z</time>
      </trkpt>
      <trkpt lat="56.90556" lon="-5.01386">
        <ele>49.76</ele>
        <time>2021-03-20T18:55:08Z</time>
      </trkpt>
      <trkpt lat="56.90534" lon="-5.01432">
        <ele>52.58</ele>
        <time>2021-03-20T18:55:10Z</time>
      </trkpt>
      <trkpt lat="56.90522" lon="-5.0145">
        <ele>53.37</ele>
        <time>2021-03-20T18:55:13Z</time>
      </trkpt>
      <trkpt lat="56.90511" lon="-5.0146">
        <ele>53.64</ele>
        <time>2021-03-20T18:55:15Z</time>
      </trkpt>
      <trkpt lat="56.90494" lon="-5.0146">
        <ele>51.74</ele>
        <time>2021-03-20T18:55:18Z</time>
      </trkpt>
      <trkpt lat="56.90473" lon="-5.01449">
        <ele>47.55</ele>
        <time>2021-03-20T18:55:20Z</time>
      </trkpt>
      <trkpt lat="56.90461" lon="-5.01446">
        <ele>45.64</ele>
        <time>2021-03-20T18:55:23Z</time>
      </trkpt>
      <trkpt lat="56.9045" lon="-5.01459">
        <ele>45.44</ele>
        <time>2021-03-20T18:55:25Z</time>
      </trkpt>
      <trkpt lat="56.90442" lon="-5.01474">
        <ele>45.83</ele>
        <time>2021-03-20T18:55:28Z</time>
      </trkpt>
      <trkpt lat="56.90424" lon="-5.01524">
        <ele>46.94</ele>
        <time>2021-03-20T18:55:30Z</time>
      </trkpt>
      <trkpt lat="56.90418" lon="-5.01552">
        <ele>47.06</ele>
        <time>2021-03-20T18:55:33Z</time>
      </trkpt>
      <trkpt lat="56.90401" lon="-5.01598">
        <ele>48.93</ele>
        <time>2021-03-20T18:55:35Z</time>
      </trkpt>
      <trkpt lat="56.9038" lon="-5.01621">
        <ele>49.38</ele>
        <time>2021-03-20T18:55:38Z</time>
      </trkpt>
      <trkpt lat="56.90239" lon="-5.01693">
        <ele>45.94</ele>
        <time>2021-03-20T18:55:40Z</time>
      </trkpt>
      <trkpt lat="56.9022" lon="-5.01707">
        <ele>45.86</ele>
        <time>2021-03-20T18:55:43Z</time>
      </trkpt>
      <trkpt lat="56.90207" lon="-5.01722">
        <ele>45.43</ele>
        <time>2021-03-20T18:55:45Z</time>
      </trkpt>
      <trkpt lat="56.90195" lon="-5.0174">
        <ele>45.03</ele>
        <time>2021-03-20T18:55:48Z</time>
      </trkpt>
      <trkpt lat="56.90185" lon="-5.01766">
        <ele>45</ele>
        <time>2021-03-20T18:55:50Z</time>
      </trkpt>
      <trkpt lat="56.90181" lon="-5.01792">
        <ele>43.96</ele>
        <time>2021-03-20T18:55:53Z</time>
      </trkpt>
      <trkpt lat="56.9018" lon="-5.01863">
        <ele>41.48</ele>
        <time>2021-03-20T18:55:55Z</time>
      </trkpt>
      <trkpt lat="56.90177" lon="-5.01894">
        <ele>42.27</ele>
        <time>2021-03-20T18:55:58Z</time>
      </trkpt>
      <trkpt lat="56.90172" lon="-5.0191">
        <ele>42.7</ele>
        <time>2021-03-20T18:56:00Z</time>
      </trkpt>
      <trkpt lat="56.90168" lon="-5.01917">
        <ele>43.07</ele>
        <time>2021-03-20T18:56:03Z</time>
      </trkpt>
      <trkpt lat="56.90155" lon="-5.01927">
        <ele>43.33</ele>
        <time>2021-03-20T18:56:05Z</time>
      </trkpt>
      <trkpt lat="56.90134" lon="-5.01934">
        <ele>43.07</ele>
        <time>2021-03-20T18:56:08Z</time>
      </trkpt>
      <trkpt lat="56.90106" lon="-5.01953">
        <ele>43.4</ele>
        <time>2021-03-20T18:56:10Z</time>
      </trkpt>
      <trkpt lat="56.90084" lon="-5.01986">
        <ele>44.97</ele>
        <time>2021-03-20T18:56:13Z</time>
      </trkpt>
      <trkpt lat="56.90077" lon="-5.01998">
        <ele>45.22</ele>
        <time>2021-03-20T18:56:15Z</time>
      </trkpt>
      <trkpt lat="56.90072" lon="-5.02013">
        <ele>45.24</ele>
        <time>2021-03-20T18:56:18Z</time>
      </trkpt>
      <trkpt lat="56.90068" lon="-5.02051">
        <ele>45.29</ele>
        <time>2021-03-20T18:56:20Z</time>
      </trkpt>
      <trkpt lat="56.90067" lon="-5.02107">
        <ele>46.63</ele>
        <time>2021-03-20T18:56:23Z</time>
      </trkpt>
      <trkpt lat="56.90061" lon="-5.02144">
        <ele>46.96</ele>
        <time>2021-03-20T18:56:25Z</time>
      </trkpt>
      <trkpt lat="56.90042" lon="-5.02179">
        <ele>47.13</ele>
        <time>2021-03-20T18:56:28Z</time>
      </trkpt>
      <trkpt lat="56.90021" lon="-5.02238">
        <ele>49.54</ele>
        <time>2021-03-20T18:56:30Z</time>
      </trkpt>
      <trkpt lat="56.90007" lon="-5.02287">
        <ele>50.08</ele>
        <time>2021-03-20T18:56:33Z</time>
      </trkpt>
      <trkpt lat="56.89984" lon="-5.02336">
        <ele>49.56</ele>
        <time>2021-03-20T18:56:35Z</time>
      </trkpt>
      <trkpt lat="56.89963" lon="-5.02387">
        <ele>49.57</ele>
        <time>2021-03-20T18:56:37Z</time>
      </trkpt>
      <trkpt lat="56.89938" lon="-5.02488">
        <ele>48.81</ele>
        <time>2021-03-20T18:56:40Z</time>
      </trkpt>
      <trkpt lat="56.89919" lon="-5.02606">
        <ele>50.11</ele>
        <time>2021-03-20T18:56:42Z</time>
      </trkpt>
      <trkpt lat="56.89898" lon="-5.0266">
        <ele>48.11</ele>
        <time>2021-03-20T18:56:45Z</time>
      </trkpt>
      <trkpt lat="56.89882" lon="-5.02694">
        <ele>48.06</ele>
        <time>2021-03-20T18:56:47Z</time>
      </trkpt>
      <trkpt lat="56.898" lon="-5.0281">
        <ele>45.5</ele>
        <time>2021-03-20T18:56:50Z</time>
      </trkpt>
      <trkpt lat="56.89757" lon="-5.0289">
        <ele>44.28</ele>
        <time>2021-03-20T18:56:52Z</time>
      </trkpt>
      <trkpt lat="56.89742" lon="-5.02913">
        <ele>44.32</ele>
        <time>2021-03-20T18:56:55Z</time>
      </trkpt>
      <trkpt lat="56.89726" lon="-5.0293">
        <ele>44.35</ele>
        <time>2021-03-20T18:56:57Z</time>
      </trkpt>
      <trkpt lat="56.89686" lon="-5.02948">
        <ele>44.24</ele>
        <time>2021-03-20T18:57:00Z</time>
      </trkpt>
      <trkpt lat="56.89653" lon="-5.02958">
        <ele>43.07</ele>
        <time>2021-03-20T18:57:02Z</time>
      </trkpt>
      <trkpt lat="56.89639" lon="-5.0297">
        <ele>42.78</ele>
        <time>2021-03-20T18:57:05Z</time>
      </trkpt>
      <trkpt lat="56.89552" lon="-5.03091">
        <ele>43.38</ele>
        <time>2021-03-20T18:57:07Z</time>
      </trkpt>
      <trkpt lat="56.89512" lon="-5.03132">
        <ele>42.71</ele>
        <time>2021-03-20T18:57:10Z</time>
      </trkpt>
      <trkpt lat="56.89457" lon="-5.03172">
        <ele>40.33</ele>
        <time>2021-03-20T18:57:12Z</time>
      </trkpt>
      <trkpt lat="56.89441" lon="-5.03198">
        <ele>39.47</ele>
        <time>2021-03-20T18:57:15Z</time>
      </trkpt>
      <trkpt lat="56.89432" lon="-5.03222">
        <ele>38.86</ele>
        <time>2021-03-20T18:57:17Z</time>
      </trkpt>
      <trkpt lat="56.89424" lon="-5.03258">
        <ele>40.54</ele>
        <time>2021-03-20T18:57:20Z</time>
      </trkpt>
      <trkpt lat="56.894" lon="-5.03324">
        <ele>42.43</ele>
        <time>2021-03-20T18:57:22Z</time>
      </trkpt>
      <trkpt lat="56.89358" lon="-5.0338">
        <ele>37.13</ele>
        <time>2021-03-20T18:57:25Z</time>
      </trkpt>
      <trkpt lat="56.8934" lon="-5.03416">
        <ele>35.09</ele>
        <time>2021-03-20T18:57:27Z</time>
      </trkpt>
      <trkpt lat="56.89328" lon="-5.03455">
        <ele>34.43</ele>
        <time>2021-03-20T18:57:30Z</time>
      </trkpt>
      <trkpt lat="56.8932" lon="-5.03538">
        <ele>36.01</ele>
        <time>2021-03-20T18:57:32Z</time>
      </trkpt>
      <trkpt lat="56.8931" lon="-5.03597">
        <ele>35.86</ele>
        <time>2021-03-20T18:57:35Z</time>
      </trkpt>
      <trkpt lat="56.89299" lon="-5.03648">
        <ele>35.1</ele>
        <time>2021-03-20T18:57:37Z</time>
      </trkpt>
      <trkpt lat="56.89261" lon="-5.03805">
        <ele>32.12</ele>
        <time>2021-03-20T18:57:40Z</time>
      </trkpt>
      <trkpt lat="56.89247" lon="-5.0385">
        <ele>31.24</ele>
        <time>2021-03-20T18:57:42Z</time>
      </trkpt>
      <trkpt lat="56.89174" lon="-5.0402">
        <ele>26</ele>
        <time>2021-03-20T18:57:45Z</time>
      </trkpt>
      <trkpt lat="56.89145" lon="-5.04075">
        <ele>24.51</ele>
        <time>2021-03-20T18:57:47Z</time>
      </trkpt>
      <trkpt lat="56.89089" lon="-5.0414">
        <ele>24</ele>
        <time>2021-03-20T18:57:50Z</time>
      </trkpt>
      <trkpt lat="56.89042" lon="-5.04188">
        <ele>24.4</ele>
        <time>2021-03-20T18:57:52Z</time>
      </trkpt>
      <trkpt lat="56.88966" lon="-5.0431">
        <ele>30.43</ele>
        <time>2021-03-20T18:57:55Z</time>
      </trkpt>
      <trkpt lat="56.88934" lon="-5.04355">
        <ele>35.68</ele>
        <time>2021-03-20T18:57:57Z</time>
      </trkpt>
      <trkpt lat="56.88921" lon="-5.04367">
        <ele>37.9</ele>
        <time>2021-03-20T18:58:00Z</time>
      </trkpt>
      <trkpt lat="56.88901" lon="-5.04361">
        <ele>40.27</ele>
        <time>2021-03-20T18:58:02Z</time>
      </trkpt>
      <trkpt lat="56.88874" lon="-5.04334">
        <ele>42.36</ele>
        <time>2021-03-20T18:58:05Z</time>
      </trkpt>
      <trkpt lat="56.88822" lon="-5.04272">
        <ele>46.28</ele>
        <time>2021-03-20T18:58:07Z</time>
      </trkpt>
      <trkpt lat="56.88808" lon="-5.04266">
        <ele>47.89</ele>
        <time>2021-03-20T18:58:10Z</time>
      </trkpt>
      <trkpt lat="56.88786" lon="-5.04268">
        <ele>49.24</ele>
        <time>2021-03-20T18:58:12Z</time>
      </trkpt>
      <trkpt lat="56.88718" lon="-5.04287">
        <ele>52.08</ele>
        <time>2021-03-20T18:58:15Z</time>
      </trkpt>
      <trkpt lat="56.88698" lon="-5.04299">
        <ele>52.3</ele>
        <time>2021-03-20T18:58:17Z</time>
      </trkpt>
      <trkpt lat="56.88662" lon="-5.04331">
        <ele>52.26</ele>
        <time>2021-03-20T18:58:20Z</time>
      </trkpt>
      <trkpt lat="56.88614" lon="-5.04354">
        <ele>50.17</ele>
        <time>2021-03-20T18:58:22Z</time>
      </trkpt>
      <trkpt lat="56.88588" lon="-5.04388">
        <ele>48.4</ele>
        <time>2021-03-20T18:58:25Z</time>
      </trkpt>
      <trkpt lat="56.88481" lon="-5.04501">
        <ele>50.6</ele>
        <time>2021-03-20T18:58:27Z</time>
      </trkpt>
      <trkpt lat="56.88462" lon="-5.04553">
        <ele>49.8</ele>
        <time>2021-03-20T18:58:30Z</time>
      </trkpt>
      <trkpt lat="56.88453" lon="-5.04598">
        <ele>49.34</ele>
        <time>2021-03-20T18:58:32Z</time>
      </trkpt>
      <trkpt lat="56.88445" lon="-5.04643">
        <ele>51.42</ele>
        <time>2021-03-20T18:58:35Z</time>
      </trkpt>
      <trkpt lat="56.88411" lon="-5.04764">
        <ele>53.55</ele>
        <time>2021-03-20T18:58:37Z</time>
      </trkpt>
      <trkpt lat="56.8838" lon="-5.0485">
        <ele>56.26</ele>
        <time>2021-03-20T18:58:40Z</time>
      </trkpt>
      <trkpt lat="56.88346" lon="-5.04924">
        <ele>57.23</ele>
        <time>2021-03-20T18:58:42Z</time>
      </trkpt>
      <trkpt lat="56.88317" lon="-5.04975">
        <ele>56.78</ele>
        <time>2021-03-20T18:58:45Z</time>
      </trkpt>
      <trkpt lat="56.88293" lon="-5.05004">
        <ele>56.29</ele>
        <time>2021-03-20T18:58:47Z</time>
      </trkpt>
      <trkpt lat="56.88243" lon="-5.05039">
        <ele>53.06</ele>
        <time>2021-03-20T18:58:50Z</time>
      </trkpt>
      <trkpt lat="56.88216" lon="-5.05075">
        <ele>51.62</ele>
        <time>2021-03-20T18:58:52Z</time>
      </trkpt>
      <trkpt lat="56.88183" lon="-5.05165">
        <ele>49.43</ele>
        <time>2021-03-20T18:58:55Z</time>
      </trkpt>
      <trkpt lat="56.88147" lon="-5.05229">
        <ele>48.56</ele>
        <time>2021-03-20T18:58:57Z</time>
      </trkpt>
      <trkpt lat="56.88069" lon="-5.05382">
        <ele>49.01</ele>
        <time>2021-03-20T18:59:00Z</time>
      </trkpt>
      <trkpt lat="56.88044" lon="-5.05413">
        <ele>49.81</ele>
        <time>2021-03-20T18:59:02Z</time>
      </trkpt>
      <trkpt lat="56.87964" lon="-5.05493">
        <ele>56.96</ele>
        <time>2021-03-20T18:59:05Z</time>
      </trkpt>
      <trkpt lat="56.87944" lon="-5.05507">
        <ele>56.75</ele>
        <time>2021-03-20T18:59:07Z</time>
      </trkpt>
      <trkpt lat="56.87913" lon="-5.0551">
        <ele>52.64</ele>
        <time>2021-03-20T18:59:10Z</time>
      </trkpt>
      <trkpt lat="56.87892" lon="-5.05515">
        <ele>50.96</ele>
        <time>2021-03-20T18:59:12Z</time>
      </trkpt>
      <trkpt lat="56.87872" lon="-5.05532">
        <ele>50.47</ele>
        <time>2021-03-20T18:59:15Z</time>
      </trkpt>
      <trkpt lat="56.87807" lon="-5.05594">
        <ele>47.4</ele>
        <time>2021-03-20T18:59:17Z</time>
      </trkpt>
      <trkpt lat="56.87754" lon="-5.05639">
        <ele>43.97</ele>
        <time>2021-03-20T18:59:20Z</time>
      </trkpt>
      <trkpt lat="56.87724" lon="-5.05658">
        <ele>41.39</ele>
        <time>2021-03-20T18:59:22Z</time>
      </trkpt>
      <trkpt lat="56.87687" lon="-5.05727">
        <ele>44.94</ele>
        <time>2021-03-20T18:59:25Z</time>
      </trkpt>
      <trkpt lat="56.87657" lon="-5.05753">
        <ele>45.33</ele>
        <time>2021-03-20T18:59:27Z</time>
      </trkpt>
      <trkpt lat="56.87589" lon="-5.05802">
        <ele>41.28</ele>
        <time>2021-03-20T18:59:30Z</time>
      </trkpt>
      <trkpt lat="56.87567" lon="-5.058">
        <ele>39.33</ele>
        <time>2021-03-20T18:59:32Z</time>
      </trkpt>
      <trkpt lat="56.8755" lon="-5.05805">
        <ele>38.56</ele>
        <time>2021-03-20T18:59:35Z</time>
      </trkpt>
      <trkpt lat="56.8754" lon="-5.05818">
        <ele>38.55</ele>
        <time>2021-03-20T18:59:37Z</time>
      </trkpt>
      <trkpt lat="56.87522" lon="-5.05875">
        <ele>39.99</ele>
        <time>2021-03-20T18:59:40Z</time>
      </trkpt>
      <trkpt lat="56.87483" lon="-5.05916">
        <ele>40.69</ele>
        <time>2021-03-20T18:59:42Z</time>
      </trkpt>
      <trkpt lat="56.87451" lon="-5.05923">
        <ele>38.24</ele>
        <time>2021-03-20T18:59:45Z</time>
      </trkpt>
      <trkpt lat="56.87424" lon="-5.05961">
        <ele>37.97</ele>
        <time>2021-03-20T18:59:47Z</time>
      </trkpt>
      <trkpt lat="56.8738" lon="-5.06056">
        <ele>40.38</ele>
        <time>2021-03-20T18:59:50Z</time>
      </trkpt>
      <trkpt lat="56.87367" lon="-5.06088">
        <ele>40.46</ele>
        <time>2021-03-20T18:59:52Z</time>
      </trkpt>
      <trkpt lat="56.87346" lon="-5.06157">
        <ele>40.91</ele>
        <time>2021-03-20T18:59:55Z</time>
      </trkpt>
      <trkpt lat="56.87334" lon="-5.06187">
        <ele>43.98</ele>
        <time>2021-03-20T18:59:57Z</time>
      </trkpt>
      <trkpt lat="56.8732" lon="-5.06204">
        <ele>46.22</ele>
        <time>2021-03-20T19:00:00Z</time>
      </trkpt>
      <trkpt lat="56.87236" lon="-5.06218">
        <ele>43.56</ele>
        <time>2021-03-20T19:00:02Z</time>
      </trkpt>
      <trkpt lat="56.87171" lon="-5.06265">
        <ele>47.67</ele>
        <time>2021-03-20T19:00:05Z</time>
      </trkpt>
      <trkpt lat="56.87135" lon="-5.06316">
        <ele>45.62</ele>
        <time>2021-03-20T19:00:07Z</time>
      </trkpt>
      <trkpt lat="56.87118" lon="-5.06383">
        <ele>46.06</ele>
        <time>2021-03-20T19:00:10Z</time>
      </trkpt>
      <trkpt lat="56.87108" lon="-5.06406">
        <ele>47.37</ele>
        <time>2021-03-20T19:00:12Z</time>
      </trkpt>
      <trkpt lat="56.87069" lon="-5.06447">
        <ele>50.55</ele>
        <time>2021-03-20T19:00:15Z</time>
      </trkpt>
      <trkpt lat="56.86994" lon="-5.06458">
        <ele>41.76</ele>
        <time>2021-03-20T19:00:17Z</time>
      </trkpt>
      <trkpt lat="56.86972" lon="-5.06467">
        <ele>41.62</ele>
        <time>2021-03-20T19:00:20Z</time>
      </trkpt>
      <trkpt lat="56.86956" lon="-5.06481">
        <ele>41.12</ele>
        <time>2021-03-20T19:00:22Z</time>
      </trkpt>
      <trkpt lat="56.86932" lon="-5.06519">
        <ele>41.23</ele>
        <time>2021-03-20T19:00:25Z</time>
      </trkpt>
      <trkpt lat="56.86902" lon="-5.06582">
        <ele>41.44</ele>
        <time>2021-03-20T19:00:27Z</time>
      </trkpt>
      <trkpt lat="56.86823" lon="-5.06736">
        <ele>35.79</ele>
        <time>2021-03-20T19:00:30Z</time>
      </trkpt>
      <trkpt lat="56.86787" lon="-5.06813">
        <ele>38.5</ele>
        <time>2021-03-20T19:00:32Z</time>
      </trkpt>
      <trkpt lat="56.86775" lon="-5.06841">
        <ele>40.66</ele>
        <time>2021-03-20T19:00:35Z</time>
      </trkpt>
      <trkpt lat="56.86757" lon="-5.06875">
        <ele>43</ele>
        <time>2021-03-20T19:00:37Z</time>
      </trkpt>
      <trkpt lat="56.86711" lon="-5.06932">
        <ele>45.88</ele>
        <time>2021-03-20T19:00:40Z</time>
      </trkpt>
      <trkpt lat="56.86679" lon="-5.07003">
        <ele>46.12</ele>
        <time>2021-03-20T19:00:42Z</time>
      </trkpt>
      <trkpt lat="56.86639" lon="-5.07075">
        <ele>49.06</ele>
        <time>2021-03-20T19:00:45Z</time>
      </trkpt>
      <trkpt lat="56.86585" lon="-5.07098">
        <ele>51.07</ele>
        <time>2021-03-20T19:00:47Z</time>
      </trkpt>
      <trkpt lat="56.86543" lon="-5.07153">
        <ele>53.09</ele>
        <time>2021-03-20T19:00:50Z</time>
      </trkpt>
      <trkpt lat="56.86477" lon="-5.07247">
        <ele>56.12</ele>
        <time>2021-03-20T19:00:52Z</time>
      </trkpt>
      <trkpt lat="56.86427" lon="-5.07294">
        <ele>56.15</ele>
        <time>2021-03-20T19:00:55Z</time>
      </trkpt>
      <trkpt lat="56.86349" lon="-5.07425">
        <ele>59.76</ele>
        <time>2021-03-20T19:00:57Z</time>
      </trkpt>
      <trkpt lat="56.86321" lon="-5.07456">
        <ele>60.35</ele>
        <time>2021-03-20T19:01:00Z</time>
      </trkpt>
      <trkpt lat="56.86277" lon="-5.07497">
        <ele>60.79</ele>
        <time>2021-03-20T19:01:02Z</time>
      </trkpt>
      <trkpt lat="56.86245" lon="-5.07536">
        <ele>61.09</ele>
        <time>2021-03-20T19:01:05Z</time>
      </trkpt>
      <trkpt lat="56.86214" lon="-5.07584">
        <ele>62.17</ele>
        <time>2021-03-20T19:01:07Z</time>
      </trkpt>
      <trkpt lat="56.86162" lon="-5.07636">
        <ele>61.06</ele>
        <time>2021-03-20T19:01:10Z</time>
      </trkpt>
      <trkpt lat="56.86132" lon="-5.07673">
        <ele>60.75</ele>
        <time>2021-03-20T19:01:12Z</time>
      </trkpt>
      <trkpt lat="56.8609" lon="-5.07734">
        <ele>59.56</ele>
        <time>2021-03-20T19:01:15Z</time>
      </trkpt>
      <trkpt lat="56.86056" lon="-5.0782">
        <ele>57.68</ele>
        <time>2021-03-20T19:01:17Z</time>
      </trkpt>
      <trkpt lat="56.8603" lon="-5.07856">
        <ele>55.99</ele>
        <time>2021-03-20T19:01:20Z</time>
      </trkpt>
      <trkpt lat="56.86005" lon="-5.07886">
        <ele>54.44</ele>
        <time>2021-03-20T19:01:22Z</time>
      </trkpt>
      <trkpt lat="56.85976" lon="-5.07913">
        <ele>53.17</ele>
        <time>2021-03-20T19:01:25Z</time>
      </trkpt>
      <trkpt lat="56.85959" lon="-5.07936">
        <ele>52.58</ele>
        <time>2021-03-20T19:01:27Z</time>
      </trkpt>
      <trkpt lat="56.8594" lon="-5.07982">
        <ele>52.79</ele>
        <time>2021-03-20T19:01:30Z</time>
      </trkpt>
      <trkpt lat="56.859" lon="-5.08108">
        <ele>52.07</ele>
        <time>2021-03-20T19:01:32Z</time>
      </trkpt>
      <trkpt lat="56.85883" lon="-5.0814">
        <ele>52.42</ele>
        <time>2021-03-20T19:01:35Z</time>
      </trkpt>
      <trkpt lat="56.85868" lon="-5.08188">
        <ele>51.83</ele>
        <time>2021-03-20T19:01:37Z</time>
      </trkpt>
      <trkpt lat="56.85848" lon="-5.08241">
        <ele>50.9</ele>
        <time>2021-03-20T19:01:40Z</time>
      </trkpt>
      <trkpt lat="56.85834" lon="-5.08265">
        <ele>50.56</ele>
        <time>2021-03-20T19:01:42Z</time>
      </trkpt>
      <trkpt lat="56.85815" lon="-5.08283">
        <ele>50.15</ele>
        <time>2021-03-20T19:01:45Z</time>
      </trkpt>
      <trkpt lat="56.8577" lon="-5.08362">
        <ele>51.92</ele>
        <time>2021-03-20T19:01:47Z</time>
      </trkpt>
      <trkpt lat="56.85698" lon="-5.0846">
        <ele>46.52</ele>
        <time>2021-03-20T19:01:50Z</time>
      </trkpt>
      <trkpt lat="56.85516" lon="-5.08555">
        <ele>38.57</ele>
        <time>2021-03-20T19:01:52Z</time>
      </trkpt>
      <trkpt lat="56.855" lon="-5.08557">
        <ele>38.06</ele>
        <time>2021-03-20T19:01:55Z</time>
      </trkpt>
      <trkpt lat="56.85479" lon="-5.08551">
        <ele>38.76</ele>
        <time>2021-03-20T19:01:57Z</time>
      </trkpt>
      <trkpt lat="56.8545" lon="-5.08537">
        <ele>39.81</ele>
        <time>2021-03-20T19:02:00Z</time>
      </trkpt>
      <trkpt lat="56.85437" lon="-5.08534">
        <ele>39.72</ele>
        <time>2021-03-20T19:02:02Z</time>
      </trkpt>
      <trkpt lat="56.85383" lon="-5.08551">
        <ele>37</ele>
        <time>2021-03-20T19:02:05Z</time>
      </trkpt>
      <trkpt lat="56.85346" lon="-5.0857">
        <ele>36.45</ele>
        <time>2021-03-20T19:02:07Z</time>
      </trkpt>
      <trkpt lat="56.85297" lon="-5.08612">
        <ele>36.06</ele>
        <time>2021-03-20T19:02:10Z</time>
      </trkpt>
      <trkpt lat="56.85207" lon="-5.08695">
        <ele>35.92</ele>
        <time>2021-03-20T19:02:12Z</time>
      </trkpt>
      <trkpt lat="56.85157" lon="-5.08735">
        <ele>33.91</ele>
        <time>2021-03-20T19:02:15Z</time>
      </trkpt>
      <trkpt lat="56.85123" lon="-5.08774">
        <ele>34.29</ele>
        <time>2021-03-20T19:02:17Z</time>
      </trkpt>
      <trkpt lat="56.85055" lon="-5.08886">
        <ele>33.81</ele>
        <time>2021-03-20T19:02:20Z</time>
      </trkpt>
      <trkpt lat="56.85042" lon="-5.08916">
        <ele>33.52</ele>
        <time>2021-03-20T19:02:22Z</time>
      </trkpt>
      <trkpt lat="56.85027" lon="-5.08973">
        <ele>32.98</ele>
        <time>2021-03-20T19:02:25Z</time>
      </trkpt>
      <trkpt lat="56.84942" lon="-5.09058">
        <ele>31.89</ele>
        <time>2021-03-20T19:02:27Z</time>
      </trkpt>
      <trkpt lat="56.84875" lon="-5.0915">
        <ele>29.5</ele>
        <time>2021-03-20T19:02:30Z</time>
      </trkpt>
      <trkpt lat="56.84792" lon="-5.09272">
        <ele>27.04</ele>
        <time>2021-03-20T19:02:32Z</time>
      </trkpt>
      <trkpt lat="56.84721" lon="-5.094">
        <ele>19.94</ele>
        <time>2021-03-20T19:02:35Z</time>
      </trkpt>
      <trkpt lat="56.84685" lon="-5.0948">
        <ele>18</ele>
        <time>2021-03-20T19:02:37Z</time>
      </trkpt>
      <trkpt lat="56.84666" lon="-5.09511">
        <ele>17.59</ele>
        <time>2021-03-20T19:02:40Z</time>
      </trkpt>
      <trkpt lat="56.84655" lon="-5.09525">
        <ele>17.06</ele>
        <time>2021-03-20T19:02:42Z</time>
      </trkpt>
      <trkpt lat="56.8462" lon="-5.09548">
        <ele>15.63</ele>
        <time>2021-03-20T19:02:45Z</time>
      </trkpt>
      <trkpt lat="56.84613" lon="-5.09559">
        <ele>15.23</ele>
        <time>2021-03-20T19:02:47Z</time>
      </trkpt>
      <trkpt lat="56.84608" lon="-5.09575">
        <ele>15.35</ele>
        <time>2021-03-20T19:02:50Z</time>
      </trkpt>
      <trkpt lat="56.84606" lon="-5.09593">
        <ele>15.44</ele>
        <time>2021-03-20T19:02:52Z</time>
      </trkpt>
      <trkpt lat="56.84616" lon="-5.09745">
        <ele>16.99</ele>
        <time>2021-03-20T19:02:55Z</time>
      </trkpt>
      <trkpt lat="56.84614" lon="-5.09774">
        <ele>17.1</ele>
        <time>2021-03-20T19:02:57Z</time>
      </trkpt>
      <trkpt lat="56.84611" lon="-5.09795">
        <ele>16.95</ele>
        <time>2021-03-20T19:03:00Z</time>
      </trkpt>
      <trkpt lat="56.84599" lon="-5.09822">
        <ele>16.15</ele>
        <time>2021-03-20T19:03:02Z</time>
      </trkpt>
      <trkpt lat="56.84593" lon="-5.09829">
        <ele>15.73</ele>
        <time>2021-03-20T19:03:05Z</time>
      </trkpt>
      <trkpt lat="56.84577" lon="-5.09842">
        <ele>15.07</ele>
        <time>2021-03-20T19:03:07Z</time>
      </trkpt>
      <trkpt lat="56.84509" lon="-5.09882">
        <ele>13</ele>
        <time>2021-03-20T19:03:10Z</time>
      </trkpt>
      <trkpt lat="56.84497" lon="-5.09824">
        <ele>11.76</ele>
        <time>2021-03-20T19:03:17Z</time>
      </trkpt>
      <trkpt lat="56.84477" lon="-5.09749">
        <ele>8.27</ele>
        <time>2021-03-20T19:03:24Z</time>
      </trkpt>
      <trkpt lat="56.8441" lon="-5.09554">
        <ele>8.76</ele>
        <time>2021-03-20T19:03:31Z</time>
      </trkpt>
      <trkpt lat="56.84388" lon="-5.09497">
        <ele>8</ele>
        <time>2021-03-20T19:03:38Z</time>
      </trkpt>
      <trkpt lat="56.84368" lon="-5.09431">
        <ele>7</ele>
        <time>2021-03-20T19:03:45Z</time>
      </trkpt>
      <trkpt lat="56.84354" lon="-5.09374">
        <ele>6.75</ele>
        <time>2021-03-20T19:03:52Z</time>
      </trkpt>
      <trkpt lat="56.84334" lon="-5.09267">
        <ele>8</ele>
        <time>2021-03-20T19:03:59Z</time>
      </trkpt>
      <trkpt lat="56.843" lon="-5.09043">
        <ele>8</ele>
        <time>2021-03-20T19:04:06Z</time>
      </trkpt>
      <trkpt lat="56.8427" lon="-5.08933">
        <ele>8.71</ele>
        <time>2021-03-20T19:04:13Z</time>
      </trkpt>
      <trkpt lat="56.84221" lon="-5.08808">
        <ele>8.85</ele>
        <time>2021-03-20T19:04:20Z</time>
      </trkpt>
      <trkpt lat="56.84149" lon="-5.08679">
        <ele>8.43</ele>
        <time>2021-03-20T19:04:27Z</time>
      </trkpt>
      <trkpt lat="56.84149" lon="-5.08679">
        <ele>8.43</ele>
        <time>2021-03-20T19:04:27Z</time>
      </trkpt>
      <trkpt lat="56.84142" lon="-5.08667">
        <ele>8</ele>
        <time>2021-03-20T19:04:31Z</time>
      </trkpt>
      <trkpt lat="56.84092" lon="-5.08579">
        <ele>7.43</ele>
        <time>2021-03-20T19:04:35Z</time>
      </trkpt>
      <trkpt lat="56.84065" lon="-5.08519">
        <ele>8</ele>
        <time>2021-03-20T19:04:39Z</time>
      </trkpt>
      <trkpt lat="56.84056" lon="-5.08491">
        <ele>8</ele>
        <time>2021-03-20T19:04:43Z</time>
      </trkpt>
      <trkpt lat="56.84054" lon="-5.08476">
        <ele>8</ele>
        <time>2021-03-20T19:04:47Z</time>
      </trkpt>
      <trkpt lat="56.84058" lon="-5.08467">
        <ele>8</ele>
        <time>2021-03-20T19:04:54Z</time>
      </trkpt>
      <trkpt lat="56.84061" lon="-5.08456">
        <ele>8</ele>
        <time>2021-03-20T19:05:00Z</time>
      </trkpt>
      <trkpt lat="56.84061" lon="-5.08444">
        <ele>8</ele>
        <time>2021-03-20T19:05:07Z</time>
      </trkpt>
      <trkpt lat="56.84057" lon="-5.08423">
        <ele>8</ele>
        <time>2021-03-20T19:05:14Z</time>
      </trkpt>
      <trkpt lat="56.84048" lon="-5.08411">
        <ele>8</ele>
        <time>2021-03-20T19:05:21Z</time>
      </trkpt>
      <trkpt lat="56.84042" lon="-5.08409">
        <ele>8</ele>
        <time>2021-03-20T19:05:28Z</time>
      </trkpt>
      <trkpt lat="56.84032" lon="-5.08412">
        <ele>8</ele>
        <time>2021-03-20T19:05:35Z</time>
      </trkpt>
      <trkpt lat="56.84028" lon="-5.08416">
        <ele>8</ele>
        <time>2021-03-20T19:05:42Z</time>
      </trkpt>
      <trkpt lat="56.84002" lon="-5.08407">
        <ele>8</ele>
        <time>2021-03-20T19:05:49Z</time>
      </trkpt>
      <trkpt lat="56.83977" lon="-5.08381">
        <ele>8</ele>
        <time>2021-03-20T19:05:56Z</time>
      </trkpt>
      <trkpt lat="56.83847" lon="-5.08187">
        <ele>6.77</ele>
        <time>2021-03-20T19:06:03Z</time>
      </trkpt>
      <trkpt lat="56.8364" lon="-5.07855">
        <ele>7.28</ele>
        <time>2021-03-20T19:06:10Z</time>
      </trkpt>
      <trkpt lat="56.83549" lon="-5.07715">
        <ele>5.53</ele>
        <time>2021-03-20T19:06:17Z</time>
      </trkpt>
      <trkpt lat="56.83482" lon="-5.07604">
        <ele>5.65</ele>
        <time>2021-03-20T19:06:24Z</time>
      </trkpt>
      <trkpt lat="56.8347" lon="-5.07576">
        <ele>6.44</ele>
        <time>2021-03-20T19:06:31Z</time>
      </trkpt>
      <trkpt lat="56.83476" lon="-5.07565">
        <ele>6.51</ele>
        <time>2021-03-20T19:06:36Z</time>
      </trkpt>
      <trkpt lat="56.83476" lon="-5.0755">
        <ele>6.85</ele>
        <time>2021-03-20T19:06:41Z</time>
      </trkpt>
      <trkpt lat="56.83474" lon="-5.07542">
        <ele>6.95</ele>
        <time>2021-03-20T19:06:45Z</time>
      </trkpt>
      <trkpt lat="56.8347" lon="-5.07538">
        <ele>7.19</ele>
        <time>2021-03-20T19:06:50Z</time>
      </trkpt>
      <trkpt lat="56.83465" lon="-5.07537">
        <ele>7.54</ele>
        <time>2021-03-20T19:06:55Z</time>
      </trkpt>
      <trkpt lat="56.8346" lon="-5.0754">
        <ele>7.87</ele>
        <time>2021-03-20T19:07:00Z</time>
      </trkpt>
      <trkpt lat="56.83457" lon="-5.07546">
        <ele>8.12</ele>
        <time>2021-03-20T19:07:05Z</time>
      </trkpt>
      <trkpt lat="56.83455" lon="-5.07555">
        <ele>8.23</ele>
        <time>2021-03-20T19:07:10Z</time>
      </trkpt>
      <trkpt lat="56.83456" lon="-5.07563">
        <ele>7.92</ele>
        <time>2021-03-20T19:07:15Z</time>
      </trkpt>
      <trkpt lat="56.83422" lon="-5.07595">
        <ele>7.92</ele>
        <time>2021-03-20T19:07:20Z</time>
      </trkpt>
      <trkpt lat="56.83274" lon="-5.07661">
        <ele>10</ele>
        <time>2021-03-20T19:07:25Z</time>
      </trkpt>
      <trkpt lat="56.83231" lon="-5.07691">
        <ele>9.11</ele>
        <time>2021-03-20T19:07:30Z</time>
      </trkpt>
      <trkpt lat="56.83198" lon="-5.07729">
        <ele>7.76</ele>
        <time>2021-03-20T19:07:35Z</time>
      </trkpt>
      <trkpt lat="56.83163" lon="-5.07784">
        <ele>7.76</ele>
        <time>2021-03-20T19:07:40Z</time>
      </trkpt>
      <trkpt lat="56.83023" lon="-5.08005">
        <ele>8.18</ele>
        <time>2021-03-20T19:07:45Z</time>
      </trkpt>
      <trkpt lat="56.82945" lon="-5.08147">
        <ele>12</ele>
        <time>2021-03-20T19:07:50Z</time>
      </trkpt>
      <trkpt lat="56.82936" lon="-5.08139">
        <ele>12</ele>
        <time>2021-03-20T19:07:55Z</time>
      </trkpt>
      <trkpt lat="56.82931" lon="-5.08139">
        <ele>12</ele>
        <time>2021-03-20T19:08:01Z</time>
      </trkpt>
      <trkpt lat="56.82926" lon="-5.08143">
        <ele>12</ele>
        <time>2021-03-20T19:08:06Z</time>
      </trkpt>
      <trkpt lat="56.82919" lon="-5.08154">
        <ele>12</ele>
        <time>2021-03-20T19:08:12Z</time>
      </trkpt>
      <trkpt lat="56.82917" lon="-5.08164">
        <ele>12</ele>
        <time>2021-03-20T19:08:17Z</time>
      </trkpt>
      <trkpt lat="56.82918" lon="-5.08183">
        <ele>12.6</ele>
        <time>2021-03-20T19:08:23Z</time>
      </trkpt>
      <trkpt lat="56.82925" lon="-5.08199">
        <ele>13</ele>
        <time>2021-03-20T19:08:28Z</time>
      </trkpt>
      <trkpt lat="56.82781" lon="-5.08456">
        <ele>14.58</ele>
        <time>2021-03-20T19:08:33Z</time>
      </trkpt>
      <trkpt lat="56.82723" lon="-5.08538">
        <ele>13</ele>
        <time>2021-03-20T19:08:39Z</time>
      </trkpt>
      <trkpt lat="56.82521" lon="-5.08722">
        <ele>16.25</ele>
        <time>2021-03-20T19:08:44Z</time>
      </trkpt>
      <trkpt lat="56.82498" lon="-5.0875">
        <ele>15.09</ele>
        <time>2021-03-20T19:08:50Z</time>
      </trkpt>
      <trkpt lat="56.82487" lon="-5.0872">
        <ele>17.09</ele>
        <time>2021-03-20T19:08:54Z</time>
      </trkpt>
      <trkpt lat="56.82482" lon="-5.08716">
        <ele>17.21</ele>
        <time>2021-03-20T19:08:58Z</time>
      </trkpt>
      <trkpt lat="56.82476" lon="-5.08718">
        <ele>17.15</ele>
        <time>2021-03-20T19:09:01Z</time>
      </trkpt>
      <trkpt lat="56.82395" lon="-5.08809">
        <ele>14</ele>
        <time>2021-03-20T19:09:05Z</time>
      </trkpt>
      <trkpt lat="56.82386" lon="-5.08821">
        <ele>14.25</ele>
        <time>2021-03-20T19:09:09Z</time>
      </trkpt>
      <trkpt lat="56.82372" lon="-5.08847">
        <ele>15.25</ele>
        <time>2021-03-20T19:09:13Z</time>
      </trkpt>
      <trkpt lat="56.82366" lon="-5.08862">
        <ele>15.62</ele>
        <time>2021-03-20T19:09:17Z</time>
      </trkpt>
      <trkpt lat="56.82348" lon="-5.08942">
        <ele>16.92</ele>
        <time>2021-03-20T19:09:21Z</time>
      </trkpt>
      <trkpt lat="56.82315" lon="-5.09053">
        <ele>15.98</ele>
        <time>2021-03-20T19:09:25Z</time>
      </trkpt>
      <trkpt lat="56.82305" lon="-5.09064">
        <ele>16.79</ele>
        <time>2021-03-20T19:09:29Z</time>
      </trkpt>
      <trkpt lat="56.82307" lon="-5.09093">
        <ele>15.83</ele>
        <time>2021-03-20T19:09:30Z</time>
      </trkpt>
      <trkpt lat="56.8231" lon="-5.09105">
        <ele>15.58</ele>
        <time>2021-03-20T19:09:32Z</time>
      </trkpt>
      <trkpt lat="56.82314" lon="-5.09113">
        <ele>15.06</ele>
        <time>2021-03-20T19:09:33Z</time>
      </trkpt>
      <trkpt lat="56.82325" lon="-5.09127">
        <ele>13.36</ele>
        <time>2021-03-20T19:09:34Z</time>
      </trkpt>
      <trkpt lat="56.82308" lon="-5.09169">
        <ele>14.65</ele>
        <time>2021-03-20T19:09:37Z</time>
      </trkpt>
      <trkpt lat="56.82289" lon="-5.09209">
        <ele>15.23</ele>
        <time>2021-03-20T19:09:40Z</time>
      </trkpt>
      <trkpt lat="56.82289" lon="-5.09219">
        <ele>14.95</ele>
        <time>2021-03-20T19:09:43Z</time>
      </trkpt>
      <trkpt lat="56.82284" lon="-5.09217">
        <ele>15.49</ele>
        <time>2021-03-20T19:09:47Z</time>
      </trkpt>
      <trkpt lat="56.82278" lon="-5.09221">
        <ele>16.01</ele>
        <time>2021-03-20T19:09:51Z</time>
      </trkpt>
      <trkpt lat="56.82274" lon="-5.09235">
        <ele>14.89</ele>
        <time>2021-03-20T19:09:55Z</time>
      </trkpt>
      <trkpt lat="56.82253" lon="-5.09264">
        <ele>12.61</ele>
        <time>2021-03-20T19:09:59Z</time>
      </trkpt>
      <trkpt lat="56.82151" lon="-5.09422">
        <ele>9.68</ele>
        <time>2021-03-20T19:10:04Z</time>
      </trkpt>
      <trkpt lat="56.82142" lon="-5.09432">
        <ele>10.68</ele>
        <time>2021-03-20T19:10:08Z</time>
      </trkpt>
      <trkpt lat="56.82144" lon="-5.09452">
        <ele>10.77</ele>
        <time>2021-03-20T19:10:13Z</time>
      </trkpt>
      <trkpt lat="56.82165" lon="-5.09574">
        <ele>11.06</ele>
        <time>2021-03-20T19:10:19Z</time>
      </trkpt>
      <trkpt lat="56.82178" lon="-5.09667">
        <ele>10.99</ele>
        <time>2021-03-20T19:10:24Z</time>
      </trkpt>
      <trkpt lat="56.82179" lon="-5.09696">
        <ele>10</ele>
        <time>2021-03-20T19:10:30Z</time>
      </trkpt>
      <trkpt lat="56.82177" lon="-5.09727">
        <ele>9.83</ele>
        <time>2021-03-20T19:10:35Z</time>
      </trkpt>
      <trkpt lat="56.82119" lon="-5.09948">
        <ele>9.54</ele>
        <time>2021-03-20T19:10:41Z</time>
      </trkpt>
      <trkpt lat="56.82045" lon="-5.10203">
        <ele>14.06</ele>
        <time>2021-03-20T19:10:47Z</time>
      </trkpt>
      <trkpt lat="56.82006" lon="-5.10351">
        <ele>12.24</ele>
        <time>2021-03-20T19:10:52Z</time>
      </trkpt>
      <trkpt lat="56.81989" lon="-5.10424">
        <ele>11.06</ele>
        <time>2021-03-20T19:10:58Z</time>
      </trkpt>
      <trkpt lat="56.81983" lon="-5.1044">
        <ele>11.3</ele>
        <time>2021-03-20T19:11:03Z</time>
      </trkpt>
      <trkpt lat="56.81977" lon="-5.10472">
        <ele>10.64</ele>
        <time>2021-03-20T19:11:09Z</time>
      </trkpt>
      <trkpt lat="56.81975" lon="-5.10501">
        <ele>9.87</ele>
        <time>2021-03-20T19:11:14Z</time>
      </trkpt>
      <trkpt lat="56.81975" lon="-5.10539">
        <ele>8.55</ele>
        <time>2021-03-20T19:11:20Z</time>
      </trkpt>
      <trkpt lat="56.81977" lon="-5.10567">
        <ele>7.59</ele>
        <time>2021-03-20T19:11:25Z</time>
      </trkpt>
      <trkpt lat="56.81981" lon="-5.10594">
        <ele>7</ele>
        <time>2021-03-20T19:11:31Z</time>
      </trkpt>
      <trkpt lat="56.81987" lon="-5.1062">
        <ele>6.99</ele>
        <time>2021-03-20T19:11:36Z</time>
      </trkpt>
      <trkpt lat="56.81997" lon="-5.1065">
        <ele>6.22</ele>
        <time>2021-03-20T19:11:42Z</time>
      </trkpt>
      <trkpt lat="56.82031" lon="-5.10724">
        <ele>4.89</ele>
        <time>2021-03-20T19:11:47Z</time>
      </trkpt>
      <trkpt lat="56.82043" lon="-5.10757">
        <ele>5</ele>
        <time>2021-03-20T19:11:53Z</time>
      </trkpt>
      <trkpt lat="56.8204" lon="-5.10774">
        <ele>5</ele>
        <time>2021-03-20T19:11:55Z</time>
      </trkpt>
      <trkpt lat="56.82042" lon="-5.10792">
        <ele>4</ele>
        <time>2021-03-20T19:11:57Z</time>
      </trkpt>
      <trkpt lat="56.82041" lon="-5.10813">
        <ele>3.45</ele>
        <time>2021-03-20T19:11:59Z</time>
      </trkpt>
      <trkpt lat="56.82034" lon="-5.10857">
        <ele>4.69</ele>
        <time>2021-03-20T19:12:01Z</time>
      </trkpt>
      <trkpt lat="56.82014" lon="-5.10902">
        <ele>4.3</ele>
        <time>2021-03-20T19:12:02Z</time>
      </trkpt>
      <trkpt lat="56.82014" lon="-5.10902">
        <ele>4.3</ele>
        <time>2021-03-20T19:12:02Z</time>
      </trkpt>
      <trkpt lat="56.81992" lon="-5.10946">
        <ele>4.23</ele>
        <time>2021-03-20T19:12:10Z</time>
      </trkpt>
      <trkpt lat="56.81874" lon="-5.11141">
        <ele>2.94</ele>
        <time>2021-03-20T19:12:17Z</time>
      </trkpt>
      <trkpt lat="56.81846" lon="-5.11185">
        <ele>3.2</ele>
        <time>2021-03-20T19:12:24Z</time>
      </trkpt>
      <trkpt lat="56.81818" lon="-5.1122">
        <ele>4.17</ele>
        <time>2021-03-20T19:12:31Z</time>
      </trkpt>
      <trkpt lat="56.81768" lon="-5.11274">
        <ele>3.88</ele>
        <time>2021-03-20T19:12:38Z</time>
      </trkpt>
      <trkpt lat="56.81744" lon="-5.11304">
        <ele>4.5</ele>
        <time>2021-03-20T19:12:45Z</time>
      </trkpt>
      <trkpt lat="56.81614" lon="-5.11545">
        <ele>4.16</ele>
        <time>2021-03-20T19:12:52Z</time>
      </trkpt>
      <trkpt lat="56.81555" lon="-5.11629">
        <ele>5.36</ele>
        <time>2021-03-20T19:12:59Z</time>
      </trkpt>
      <trkpt lat="56.81538" lon="-5.11626">
        <ele>5.75</ele>
        <time>2021-03-20T19:13:07Z</time>
      </trkpt>
      <trkpt lat="56.81532" lon="-5.11618">
        <ele>6.37</ele>
        <time>2021-03-20T19:13:12Z</time>
      </trkpt>
      <trkpt lat="56.81524" lon="-5.11616">
        <ele>7.06</ele>
        <time>2021-03-20T19:13:17Z</time>
      </trkpt>
      <trkpt lat="56.81518" lon="-5.11618">
        <ele>7.54</ele>
        <time>2021-03-20T19:13:22Z</time>
      </trkpt>
      <trkpt lat="56.81512" lon="-5.11625">
        <ele>7.68</ele>
        <time>2021-03-20T19:13:27Z</time>
      </trkpt>
      <trkpt lat="56.81507" lon="-5.1164">
        <ele>7.18</ele>
        <time>2021-03-20T19:13:33Z</time>
      </trkpt>
      <trkpt lat="56.81506" lon="-5.11652">
        <ele>6.85</ele>
        <time>2021-03-20T19:13:38Z</time>
      </trkpt>
      <trkpt lat="56.81509" lon="-5.11666">
        <ele>6.09</ele>
        <time>2021-03-20T19:13:43Z</time>
      </trkpt>
      <trkpt lat="56.81424" lon="-5.1177">
        <ele>6.99</ele>
        <time>2021-03-20T19:13:48Z</time>
      </trkpt>
      <trkpt lat="56.81391" lon="-5.11826">
        <ele>6.09</ele>
        <time>2021-03-20T19:13:53Z</time>
      </trkpt>
      <trkpt lat="56.81315" lon="-5.11944">
        <ele>7.96</ele>
        <time>2021-03-20T19:13:59Z</time>
      </trkpt>
      <trkpt lat="56.81082" lon="-5.12321">
        <ele>8.53</ele>
        <time>2021-03-20T19:14:04Z</time>
      </trkpt>
      <trkpt lat="56.80945" lon="-5.12514">
        <ele>4.49</ele>
        <time>2021-03-20T19:14:09Z</time>
      </trkpt>
      <trkpt lat="56.80918" lon="-5.12546">
        <ele>5.23</ele>
        <time>2021-03-20T19:14:14Z</time>
      </trkpt>
      <trkpt lat="56.80855" lon="-5.12612">
        <ele>6.41</ele>
        <time>2021-03-20T19:14:20Z</time>
      </trkpt>
      <trkpt lat="56.80842" lon="-5.12631">
        <ele>5.99</ele>
        <time>2021-03-20T19:14:25Z</time>
      </trkpt>
      <trkpt lat="56.80834" lon="-5.12645">
        <ele>5.49</ele>
        <time>2021-03-20T19:14:30Z</time>
      </trkpt>
      <trkpt lat="56.80803" lon="-5.12714">
        <ele>3.74</ele>
        <time>2021-03-20T19:14:35Z</time>
      </trkpt>
      <trkpt lat="56.80786" lon="-5.12747">
        <ele>4.35</ele>
        <time>2021-03-20T19:14:40Z</time>
      </trkpt>
      <trkpt lat="56.80764" lon="-5.12775">
        <ele>5.17</ele>
        <time>2021-03-20T19:14:46Z</time>
      </trkpt>
      <trkpt lat="56.80679" lon="-5.12867">
        <ele>8.51</ele>
        <time>2021-03-20T19:14:51Z</time>
      </trkpt>
      <trkpt lat="56.80658" lon="-5.12894">
        <ele>8</ele>
        <time>2021-03-20T19:14:56Z</time>
      </trkpt>
      <trkpt lat="56.8059" lon="-5.1301">
        <ele>5.86</ele>
        <time>2021-03-20T19:15:01Z</time>
      </trkpt>
      <trkpt lat="56.80575" lon="-5.13032">
        <ele>6.11</ele>
        <time>2021-03-20T19:15:06Z</time>
      </trkpt>
      <trkpt lat="56.80476" lon="-5.13142">
        <ele>8.2</ele>
        <time>2021-03-20T19:15:12Z</time>
      </trkpt>
      <trkpt lat="56.80442" lon="-5.13184">
        <ele>7.72</ele>
        <time>2021-03-20T19:15:17Z</time>
      </trkpt>
      <trkpt lat="56.80359" lon="-5.13298">
        <ele>7.43</ele>
        <time>2021-03-20T19:15:22Z</time>
      </trkpt>
      <trkpt lat="56.80194" lon="-5.13473">
        <ele>10</ele>
        <time>2021-03-20T19:15:27Z</time>
      </trkpt>
      <trkpt lat="56.80006" lon="-5.13652">
        <ele>7.34</ele>
        <time>2021-03-20T19:15:33Z</time>
      </trkpt>
      <trkpt lat="56.79736" lon="-5.13903">
        <ele>8.02</ele>
        <time>2021-03-20T19:15:38Z</time>
      </trkpt>
      <trkpt lat="56.79573" lon="-5.14103">
        <ele>5.81</ele>
        <time>2021-03-20T19:15:43Z</time>
      </trkpt>
      <trkpt lat="56.79493" lon="-5.14177">
        <ele>5.68</ele>
        <time>2021-03-20T19:15:48Z</time>
      </trkpt>
      <trkpt lat="56.79371" lon="-5.14371">
        <ele>4.3</ele>
        <time>2021-03-20T19:15:53Z</time>
      </trkpt>
      <trkpt lat="56.79233" lon="-5.14598">
        <ele>7.14</ele>
        <time>2021-03-20T19:15:59Z</time>
      </trkpt>
      <trkpt lat="56.79201" lon="-5.14645">
        <ele>7.14</ele>
        <time>2021-03-20T19:16:04Z</time>
      </trkpt>
      <trkpt lat="56.79117" lon="-5.14758">
        <ele>4.81</ele>
        <time>2021-03-20T19:16:09Z</time>
      </trkpt>
      <trkpt lat="56.79031" lon="-5.149">
        <ele>5.93</ele>
        <time>2021-03-20T19:16:14Z</time>
      </trkpt>
      <trkpt lat="56.78977" lon="-5.14971">
        <ele>6.4</ele>
        <time>2021-03-20T19:16:19Z</time>
      </trkpt>
      <trkpt lat="56.78891" lon="-5.15072">
        <ele>6.03</ele>
        <time>2021-03-20T19:16:25Z</time>
      </trkpt>
      <trkpt lat="56.78722" lon="-5.15306">
        <ele>10.15</ele>
        <time>2021-03-20T19:16:30Z</time>
      </trkpt>
      <trkpt lat="56.78686" lon="-5.15349">
        <ele>11.74</ele>
        <time>2021-03-20T19:16:35Z</time>
      </trkpt>
      <trkpt lat="56.78474" lon="-5.15665">
        <ele>14.76</ele>
        <time>2021-03-20T19:16:40Z</time>
      </trkpt>
      <trkpt lat="56.78435" lon="-5.15737">
        <ele>14.01</ele>
        <time>2021-03-20T19:16:46Z</time>
      </trkpt>
      <trkpt lat="56.78408" lon="-5.15782">
        <ele>13.88</ele>
        <time>2021-03-20T19:16:51Z</time>
      </trkpt>
      <trkpt lat="56.78358" lon="-5.15848">
        <ele>14.96</ele>
        <time>2021-03-20T19:16:56Z</time>
      </trkpt>
      <trkpt lat="56.78317" lon="-5.15909">
        <ele>15</ele>
        <time>2021-03-20T19:17:01Z</time>
      </trkpt>
      <trkpt lat="56.78287" lon="-5.15961">
        <ele>15.28</ele>
        <time>2021-03-20T19:17:06Z</time>
      </trkpt>
      <trkpt lat="56.7827" lon="-5.15993">
        <ele>15.48</ele>
        <time>2021-03-20T19:17:12Z</time>
      </trkpt>
      <trkpt lat="56.78257" lon="-5.16033">
        <ele>14.2</ele>
        <time>2021-03-20T19:17:17Z</time>
      </trkpt>
      <trkpt lat="56.78236" lon="-5.16119">
        <ele>13.71</ele>
        <time>2021-03-20T19:17:22Z</time>
      </trkpt>
      <trkpt lat="56.78225" lon="-5.16154">
        <ele>12.78</ele>
        <time>2021-03-20T19:17:27Z</time>
      </trkpt>
      <trkpt lat="56.78209" lon="-5.16185">
        <ele>12.54</ele>
        <time>2021-03-20T19:17:32Z</time>
      </trkpt>
      <trkpt lat="56.78174" lon="-5.16236">
        <ele>14.28</ele>
        <time>2021-03-20T19:17:38Z</time>
      </trkpt>
      <trkpt lat="56.78154" lon="-5.16253">
        <ele>14.14</ele>
        <time>2021-03-20T19:17:43Z</time>
      </trkpt>
      <trkpt lat="56.78095" lon="-5.16272">
        <ele>16.45</ele>
        <time>2021-03-20T19:17:48Z</time>
      </trkpt>
      <trkpt lat="56.78064" lon="-5.16287">
        <ele>16.25</ele>
        <time>2021-03-20T19:17:53Z</time>
      </trkpt>
      <trkpt lat="56.77704" lon="-5.16515">
        <ele>17.24</ele>
        <time>2021-03-20T19:17:59Z</time>
      </trkpt>
      <trkpt lat="56.77671" lon="-5.16542">
        <ele>17.66</ele>
        <time>2021-03-20T19:18:04Z</time>
      </trkpt>
      <trkpt lat="56.77652" lon="-5.16563">
        <ele>18.04</ele>
        <time>2021-03-20T19:18:09Z</time>
      </trkpt>
      <trkpt lat="56.77615" lon="-5.16599">
        <ele>15.59</ele>
        <time>2021-03-20T19:18:14Z</time>
      </trkpt>
      <trkpt lat="56.77573" lon="-5.16615">
        <ele>14.55</ele>
        <time>2021-03-20T19:18:19Z</time>
      </trkpt>
      <trkpt lat="56.77515" lon="-5.16625">
        <ele>12.91</ele>
        <time>2021-03-20T19:18:25Z</time>
      </trkpt>
      <trkpt lat="56.7744" lon="-5.16625">
        <ele>12.95</ele>
        <time>2021-03-20T19:18:30Z</time>
      </trkpt>
      <trkpt lat="56.77379" lon="-5.16628">
        <ele>9.48</ele>
        <time>2021-03-20T19:18:35Z</time>
      </trkpt>
      <trkpt lat="56.77327" lon="-5.16648">
        <ele>4.93</ele>
        <time>2021-03-20T19:18:40Z</time>
      </trkpt>
      <trkpt lat="56.77261" lon="-5.16697">
        <ele>2.95</ele>
        <time>2021-03-20T19:18:45Z</time>
      </trkpt>
      <trkpt lat="56.77237" lon="-5.16725">
        <ele>2.36</ele>
        <time>2021-03-20T19:18:51Z</time>
      </trkpt>
      <trkpt lat="56.77124" lon="-5.16886">
        <ele>4.24</ele>
        <time>2021-03-20T19:18:56Z</time>
      </trkpt>
      <trkpt lat="56.77021" lon="-5.17029">
        <ele>7.46</ele>
        <time>2021-03-20T19:19:01Z</time>
      </trkpt>
      <trkpt lat="56.77009" lon="-5.17061">
        <ele>7.89</ele>
        <time>2021-03-20T19:19:06Z</time>
      </trkpt>
      <trkpt lat="56.76988" lon="-5.17158">
        <ele>10.28</ele>
        <time>2021-03-20T19:19:11Z</time>
      </trkpt>
      <trkpt lat="56.76975" lon="-5.17204">
        <ele>10.61</ele>
        <time>2021-03-20T19:19:17Z</time>
      </trkpt>
      <trkpt lat="56.76957" lon="-5.17245">
        <ele>11.77</ele>
        <time>2021-03-20T19:19:22Z</time>
      </trkpt>
      <trkpt lat="56.768" lon="-5.17455">
        <ele>15.79</ele>
        <time>2021-03-20T19:19:27Z</time>
      </trkpt>
      <trkpt lat="56.76743" lon="-5.17536">
        <ele>14</ele>
        <time>2021-03-20T19:19:32Z</time>
      </trkpt>
      <trkpt lat="56.76626" lon="-5.17658">
        <ele>13.08</ele>
        <time>2021-03-20T19:19:38Z</time>
      </trkpt>
      <trkpt lat="56.76596" lon="-5.17682">
        <ele>13.26</ele>
        <time>2021-03-20T19:19:43Z</time>
      </trkpt>
      <trkpt lat="56.76472" lon="-5.17763">
        <ele>18.76</ele>
        <time>2021-03-20T19:19:48Z</time>
      </trkpt>
      <trkpt lat="56.76451" lon="-5.17786">
        <ele>18.93</ele>
        <time>2021-03-20T19:19:53Z</time>
      </trkpt>
      <trkpt lat="56.7642" lon="-5.17834">
        <ele>16.25</ele>
        <time>2021-03-20T19:19:58Z</time>
      </trkpt>
      <trkpt lat="56.76368" lon="-5.1789">
        <ele>14.72</ele>
        <time>2021-03-20T19:20:04Z</time>
      </trkpt>
      <trkpt lat="56.76284" lon="-5.18011">
        <ele>13.7</ele>
        <time>2021-03-20T19:20:09Z</time>
      </trkpt>
      <trkpt lat="56.76223" lon="-5.18062">
        <ele>14.71</ele>
        <time>2021-03-20T19:20:14Z</time>
      </trkpt>
      <trkpt lat="56.76175" lon="-5.18119">
        <ele>14.14</ele>
        <time>2021-03-20T19:20:19Z</time>
      </trkpt>
      <trkpt lat="56.76113" lon="-5.18168">
        <ele>17.24</ele>
        <time>2021-03-20T19:20:24Z</time>
      </trkpt>
      <trkpt lat="56.76086" lon="-5.18203">
        <ele>15.65</ele>
        <time>2021-03-20T19:20:30Z</time>
      </trkpt>
      <trkpt lat="56.75907" lon="-5.18549">
        <ele>16.86</ele>
        <time>2021-03-20T19:20:35Z</time>
      </trkpt>
      <trkpt lat="56.75809" lon="-5.18687">
        <ele>16.83</ele>
        <time>2021-03-20T19:20:40Z</time>
      </trkpt>
      <trkpt lat="56.75693" lon="-5.1889">
        <ele>15.1</ele>
        <time>2021-03-20T19:20:45Z</time>
      </trkpt>
      <trkpt lat="56.75677" lon="-5.18908">
        <ele>14.77</ele>
        <time>2021-03-20T19:20:51Z</time>
      </trkpt>
      <trkpt lat="56.75592" lon="-5.18981">
        <ele>14.92</ele>
        <time>2021-03-20T19:20:56Z</time>
      </trkpt>
      <trkpt lat="56.75566" lon="-5.18996">
        <ele>14.75</ele>
        <time>2021-03-20T19:21:01Z</time>
      </trkpt>
      <trkpt lat="56.75499" lon="-5.19013">
        <ele>16.91</ele>
        <time>2021-03-20T19:21:06Z</time>
      </trkpt>
      <trkpt lat="56.75466" lon="-5.1903">
        <ele>17.11</ele>
        <time>2021-03-20T19:21:11Z</time>
      </trkpt>
      <trkpt lat="56.75359" lon="-5.19115">
        <ele>19.78</ele>
        <time>2021-03-20T19:21:17Z</time>
      </trkpt>
      <trkpt lat="56.75278" lon="-5.19207">
        <ele>13.25</ele>
        <time>2021-03-20T19:21:22Z</time>
      </trkpt>
      <trkpt lat="56.75195" lon="-5.19268">
        <ele>16.99</ele>
        <time>2021-03-20T19:21:27Z</time>
      </trkpt>
      <trkpt lat="56.75158" lon="-5.19304">
        <ele>18.72</ele>
        <time>2021-03-20T19:21:32Z</time>
      </trkpt>
      <trkpt lat="56.75134" lon="-5.19335">
        <ele>18.88</ele>
        <time>2021-03-20T19:21:37Z</time>
      </trkpt>
      <trkpt lat="56.75109" lon="-5.19372">
        <ele>18.89</ele>
        <time>2021-03-20T19:21:43Z</time>
      </trkpt>
      <trkpt lat="56.75084" lon="-5.19414">
        <ele>18.28</ele>
        <time>2021-03-20T19:21:48Z</time>
      </trkpt>
      <trkpt lat="56.75065" lon="-5.19454">
        <ele>16.37</ele>
        <time>2021-03-20T19:21:53Z</time>
      </trkpt>
      <trkpt lat="56.7502" lon="-5.19587">
        <ele>14.08</ele>
        <time>2021-03-20T19:21:58Z</time>
      </trkpt>
      <trkpt lat="56.75005" lon="-5.19628">
        <ele>13.98</ele>
        <time>2021-03-20T19:22:04Z</time>
      </trkpt>
      <trkpt lat="56.7497" lon="-5.19699">
        <ele>14.65</ele>
        <time>2021-03-20T19:22:09Z</time>
      </trkpt>
      <trkpt lat="56.74945" lon="-5.19747">
        <ele>13.24</ele>
        <time>2021-03-20T19:22:14Z</time>
      </trkpt>
      <trkpt lat="56.74927" lon="-5.1977">
        <ele>14.03</ele>
        <time>2021-03-20T19:22:19Z</time>
      </trkpt>
      <trkpt lat="56.74902" lon="-5.19784">
        <ele>15.01</ele>
        <time>2021-03-20T19:22:24Z</time>
      </trkpt>
      <trkpt lat="56.74848" lon="-5.19797">
        <ele>15.67</ele>
        <time>2021-03-20T19:22:30Z</time>
      </trkpt>
      <trkpt lat="56.74804" lon="-5.1982">
        <ele>14.43</ele>
        <time>2021-03-20T19:22:35Z</time>
      </trkpt>
      <trkpt lat="56.74794" lon="-5.1983">
        <ele>13.05</ele>
        <time>2021-03-20T19:22:40Z</time>
      </trkpt>
      <trkpt lat="56.74756" lon="-5.19854">
        <ele>11.65</ele>
        <time>2021-03-20T19:22:45Z</time>
      </trkpt>
      <trkpt lat="56.74737" lon="-5.19873">
        <ele>11.34</ele>
        <time>2021-03-20T19:22:50Z</time>
      </trkpt>
      <trkpt lat="56.74718" lon="-5.19897">
        <ele>11.98</ele>
        <time>2021-03-20T19:22:56Z</time>
      </trkpt>
      <trkpt lat="56.74699" lon="-5.19937">
        <ele>11.9</ele>
        <time>2021-03-20T19:23:01Z</time>
      </trkpt>
      <trkpt lat="56.74683" lon="-5.1999">
        <ele>11.48</ele>
        <time>2021-03-20T19:23:06Z</time>
      </trkpt>
      <trkpt lat="56.74669" lon="-5.20053">
        <ele>11.52</ele>
        <time>2021-03-20T19:23:11Z</time>
      </trkpt>
      <trkpt lat="56.74652" lon="-5.20107">
        <ele>14.68</ele>
        <time>2021-03-20T19:23:17Z</time>
      </trkpt>
      <trkpt lat="56.74616" lon="-5.20183">
        <ele>15.94</ele>
        <time>2021-03-20T19:23:22Z</time>
      </trkpt>
      <trkpt lat="56.74597" lon="-5.20221">
        <ele>15.73</ele>
        <time>2021-03-20T19:23:27Z</time>
      </trkpt>
      <trkpt lat="56.74568" lon="-5.20255">
        <ele>16.14</ele>
        <time>2021-03-20T19:23:32Z</time>
      </trkpt>
      <trkpt lat="56.74481" lon="-5.20309">
        <ele>14.36</ele>
        <time>2021-03-20T19:23:37Z</time>
      </trkpt>
      <trkpt lat="56.74447" lon="-5.20335">
        <ele>14.54</ele>
        <time>2021-03-20T19:23:43Z</time>
      </trkpt>
      <trkpt lat="56.74423" lon="-5.20365">
        <ele>16.61</ele>
        <time>2021-03-20T19:23:48Z</time>
      </trkpt>
      <trkpt lat="56.74342" lon="-5.20492">
        <ele>17.52</ele>
        <time>2021-03-20T19:23:53Z</time>
      </trkpt>
      <trkpt lat="56.7432" lon="-5.20517">
        <ele>16.24</ele>
        <time>2021-03-20T19:23:58Z</time>
      </trkpt>
      <trkpt lat="56.74296" lon="-5.20537">
        <ele>17.19</ele>
        <time>2021-03-20T19:24:03Z</time>
      </trkpt>
      <trkpt lat="56.74089" lon="-5.20658">
        <ele>20.95</ele>
        <time>2021-03-20T19:24:09Z</time>
      </trkpt>
      <trkpt lat="56.7405" lon="-5.20694">
        <ele>26.75</ele>
        <time>2021-03-20T19:24:14Z</time>
      </trkpt>
      <trkpt lat="56.74002" lon="-5.20766">
        <ele>26.33</ele>
        <time>2021-03-20T19:24:19Z</time>
      </trkpt>
      <trkpt lat="56.73964" lon="-5.20849">
        <ele>18.73</ele>
        <time>2021-03-20T19:24:24Z</time>
      </trkpt>
      <trkpt lat="56.73935" lon="-5.20904">
        <ele>15.5</ele>
        <time>2021-03-20T19:24:29Z</time>
      </trkpt>
      <trkpt lat="56.73863" lon="-5.20997">
        <ele>29.72</ele>
        <time>2021-03-20T19:24:35Z</time>
      </trkpt>
      <trkpt lat="56.73842" lon="-5.21058">
        <ele>25.82</ele>
        <time>2021-03-20T19:24:40Z</time>
      </trkpt>
      <trkpt lat="56.73822" lon="-5.2117">
        <ele>18.19</ele>
        <time>2021-03-20T19:24:45Z</time>
      </trkpt>
      <trkpt lat="56.7381" lon="-5.21249">
        <ele>16.06</ele>
        <time>2021-03-20T19:24:50Z</time>
      </trkpt>
      <trkpt lat="56.73792" lon="-5.21333">
        <ele>16.53</ele>
        <time>2021-03-20T19:24:56Z</time>
      </trkpt>
      <trkpt lat="56.73776" lon="-5.21378">
        <ele>18.58</ele>
        <time>2021-03-20T19:25:01Z</time>
      </trkpt>
      <trkpt lat="56.73755" lon="-5.21414">
        <ele>24.44</ele>
        <time>2021-03-20T19:25:06Z</time>
      </trkpt>
      <trkpt lat="56.73715" lon="-5.21459">
        <ele>32.16</ele>
        <time>2021-03-20T19:25:11Z</time>
      </trkpt>
      <trkpt lat="56.73681" lon="-5.21525">
        <ele>30.06</ele>
        <time>2021-03-20T19:25:16Z</time>
      </trkpt>
      <trkpt lat="56.73611" lon="-5.21629">
        <ele>26.39</ele>
        <time>2021-03-20T19:25:22Z</time>
      </trkpt>
      <trkpt lat="56.7355" lon="-5.21754">
        <ele>37.19</ele>
        <time>2021-03-20T19:25:27Z</time>
      </trkpt>
      <trkpt lat="56.73513" lon="-5.21813">
        <ele>46.83</ele>
        <time>2021-03-20T19:25:32Z</time>
      </trkpt>
      <trkpt lat="56.73449" lon="-5.21904">
        <ele>29.14</ele>
        <time>2021-03-20T19:25:37Z</time>
      </trkpt>
      <trkpt lat="56.73438" lon="-5.21928">
        <ele>23.63</ele>
        <time>2021-03-20T19:25:42Z</time>
      </trkpt>
      <trkpt lat="56.73418" lon="-5.21987">
        <ele>17.17</ele>
        <time>2021-03-20T19:25:48Z</time>
      </trkpt>
      <trkpt lat="56.73404" lon="-5.22014">
        <ele>17.48</ele>
        <time>2021-03-20T19:25:53Z</time>
      </trkpt>
      <trkpt lat="56.73385" lon="-5.22042">
        <ele>16.34</ele>
        <time>2021-03-20T19:25:58Z</time>
      </trkpt>
      <trkpt lat="56.73304" lon="-5.22142">
        <ele>31.88</ele>
        <time>2021-03-20T19:26:03Z</time>
      </trkpt>
      <trkpt lat="56.73271" lon="-5.22176">
        <ele>20.45</ele>
        <time>2021-03-20T19:26:09Z</time>
      </trkpt>
      <trkpt lat="56.73231" lon="-5.22209">
        <ele>17.2</ele>
        <time>2021-03-20T19:26:14Z</time>
      </trkpt>
      <trkpt lat="56.732" lon="-5.2224">
        <ele>13.03</ele>
        <time>2021-03-20T19:26:19Z</time>
      </trkpt>
      <trkpt lat="56.7318" lon="-5.2227">
        <ele>9.45</ele>
        <time>2021-03-20T19:26:24Z</time>
      </trkpt>
      <trkpt lat="56.73149" lon="-5.22332">
        <ele>5.7</ele>
        <time>2021-03-20T19:26:29Z</time>
      </trkpt>
      <trkpt lat="56.73047" lon="-5.22569">
        <ele>9.08</ele>
        <time>2021-03-20T19:26:35Z</time>
      </trkpt>
      <trkpt lat="56.72999" lon="-5.22694">
        <ele>10.22</ele>
        <time>2021-03-20T19:26:40Z</time>
      </trkpt>
      <trkpt lat="56.72984" lon="-5.22725">
        <ele>13.27</ele>
        <time>2021-03-20T19:26:45Z</time>
      </trkpt>
      <trkpt lat="56.72891" lon="-5.22887">
        <ele>12.85</ele>
        <time>2021-03-20T19:26:50Z</time>
      </trkpt>
      <trkpt lat="56.72868" lon="-5.22922">
        <ele>12.66</ele>
        <time>2021-03-20T19:26:55Z</time>
      </trkpt>
      <trkpt lat="56.72764" lon="-5.23047">
        <ele>6.58</ele>
        <time>2021-03-20T19:27:01Z</time>
      </trkpt>
      <trkpt lat="56.72731" lon="-5.23079">
        <ele>7.2</ele>
        <time>2021-03-20T19:27:06Z</time>
      </trkpt>
      <trkpt lat="56.72707" lon="-5.23094">
        <ele>8.51</ele>
        <time>2021-03-20T19:27:11Z</time>
      </trkpt>
      <trkpt lat="56.72675" lon="-5.23103">
        <ele>9.3</ele>
        <time>2021-03-20T19:27:16Z</time>
      </trkpt>
      <trkpt lat="56.72648" lon="-5.23104">
        <ele>10.2</ele>
        <time>2021-03-20T19:27:22Z</time>
      </trkpt>
      <trkpt lat="56.72619" lon="-5.231">
        <ele>11.55</ele>
        <time>2021-03-20T19:27:27Z</time>
      </trkpt>
      <trkpt lat="56.7259" lon="-5.23101">
        <ele>13.56</ele>
        <time>2021-03-20T19:27:32Z</time>
      </trkpt>
      <trkpt lat="56.72561" lon="-5.23106">
        <ele>17.74</ele>
        <time>2021-03-20T19:27:37Z</time>
      </trkpt>
      <trkpt lat="56.72536" lon="-5.23117">
        <ele>18.83</ele>
        <time>2021-03-20T19:27:42Z</time>
      </trkpt>
      <trkpt lat="56.72515" lon="-5.23131">
        <ele>19</ele>
        <time>2021-03-20T19:27:48Z</time>
      </trkpt>
      <trkpt lat="56.72369" lon="-5.23261">
        <ele>16.17</ele>
        <time>2021-03-20T19:27:53Z</time>
      </trkpt>
      <trkpt lat="56.7235" lon="-5.23272">
        <ele>15.96</ele>
        <time>2021-03-20T19:27:58Z</time>
      </trkpt>
      <trkpt lat="56.72334" lon="-5.23277">
        <ele>16.05</ele>
        <time>2021-03-20T19:28:03Z</time>
      </trkpt>
      <trkpt lat="56.72321" lon="-5.23276">
        <ele>16.59</ele>
        <time>2021-03-20T19:28:08Z</time>
      </trkpt>
      <trkpt lat="56.72293" lon="-5.23269">
        <ele>16.71</ele>
        <time>2021-03-20T19:28:14Z</time>
      </trkpt>
      <trkpt lat="56.72256" lon="-5.23241">
        <ele>17.09</ele>
        <time>2021-03-20T19:28:19Z</time>
      </trkpt>
      <trkpt lat="56.72236" lon="-5.23233">
        <ele>18.11</ele>
        <time>2021-03-20T19:28:24Z</time>
      </trkpt>
      <trkpt lat="56.72234" lon="-5.23249">
        <ele>16.18</ele>
        <time>2021-03-20T19:28:25Z</time>
      </trkpt>
      <trkpt lat="56.72229" lon="-5.23258">
        <ele>15.23</ele>
        <time>2021-03-20T19:28:26Z</time>
      </trkpt>
      <trkpt lat="56.72223" lon="-5.23261">
        <ele>14.86</ele>
        <time>2021-03-20T19:28:27Z</time>
      </trkpt>
      <trkpt lat="56.72181" lon="-5.23254">
        <ele>15.07</ele>
        <time>2021-03-20T19:28:28Z</time>
      </trkpt>
      <trkpt lat="56.72168" lon="-5.23258">
        <ele>14.13</ele>
        <time>2021-03-20T19:28:29Z</time>
      </trkpt>
      <trkpt lat="56.7215" lon="-5.23283">
        <ele>11.73</ele>
        <time>2021-03-20T19:28:30Z</time>
      </trkpt>
      <trkpt lat="56.72141" lon="-5.23321">
        <ele>10.3</ele>
        <time>2021-03-20T19:28:31Z</time>
      </trkpt>
      <trkpt lat="56.72138" lon="-5.23348">
        <ele>10.06</ele>
        <time>2021-03-20T19:28:32Z</time>
      </trkpt>
      <trkpt lat="56.72138" lon="-5.23364">
        <ele>10.05</ele>
        <time>2021-03-20T19:28:33Z</time>
      </trkpt>
      <trkpt lat="56.72144" lon="-5.23408">
        <ele>8.81</ele>
        <time>2021-03-20T19:28:33Z</time>
      </trkpt>
      <trkpt lat="56.7212" lon="-5.23418">
        <ele>11.73</ele>
        <time>2021-03-20T19:28:36Z</time>
      </trkpt>
      <trkpt lat="56.72113" lon="-5.23418">
        <ele>12.76</ele>
        <time>2021-03-20T19:28:38Z</time>
      </trkpt>
      <trkpt lat="56.7211" lon="-5.23413">
        <ele>13.04</ele>
        <time>2021-03-20T19:28:40Z</time>
      </trkpt>
      <trkpt lat="56.72109" lon="-5.23407">
        <ele>13.27</ele>
        <time>2021-03-20T19:28:42Z</time>
      </trkpt>
    </trkseg>
  </trk>
  <trk>
    <name><![CDATA[J11 - Corran Bunkhouse, Corran - Loans]]></name>
    <trkseg>
      <trkpt lat="56.72109" lon="-5.23408">
        <ele>13.27</ele>
        <time>2021-03-20T14:11:14Z</time>
      </trkpt>
      <trkpt lat="56.72113" lon="-5.23418">
        <ele>12.76</ele>
        <time>2021-03-20T14:11:17Z</time>
      </trkpt>
      <trkpt lat="56.7212" lon="-5.23418">
        <ele>11.73</ele>
        <time>2021-03-20T14:11:20Z</time>
      </trkpt>
      <trkpt lat="56.72144" lon="-5.23408">
        <ele>8.81</ele>
        <time>2021-03-20T14:11:23Z</time>
      </trkpt>
      <trkpt lat="56.72138" lon="-5.23364">
        <ele>10.05</ele>
        <time>2021-03-20T14:11:24Z</time>
      </trkpt>
      <trkpt lat="56.72138" lon="-5.23348">
        <ele>10.06</ele>
        <time>2021-03-20T14:11:25Z</time>
      </trkpt>
      <trkpt lat="56.72141" lon="-5.23321">
        <ele>10.3</ele>
        <time>2021-03-20T14:11:26Z</time>
      </trkpt>
      <trkpt lat="56.7215" lon="-5.23283">
        <ele>11.73</ele>
        <time>2021-03-20T14:11:27Z</time>
      </trkpt>
      <trkpt lat="56.72168" lon="-5.23258">
        <ele>14.13</ele>
        <time>2021-03-20T14:11:28Z</time>
      </trkpt>
      <trkpt lat="56.72181" lon="-5.23254">
        <ele>15.07</ele>
        <time>2021-03-20T14:11:28Z</time>
      </trkpt>
      <trkpt lat="56.72223" lon="-5.23261">
        <ele>14.86</ele>
        <time>2021-03-20T14:11:29Z</time>
      </trkpt>
      <trkpt lat="56.72229" lon="-5.23258">
        <ele>15.23</ele>
        <time>2021-03-20T14:11:30Z</time>
      </trkpt>
      <trkpt lat="56.72234" lon="-5.23249">
        <ele>16.18</ele>
        <time>2021-03-20T14:11:31Z</time>
      </trkpt>
      <trkpt lat="56.72236" lon="-5.23233">
        <ele>18.11</ele>
        <time>2021-03-20T14:11:32Z</time>
      </trkpt>
      <trkpt lat="56.72225" lon="-5.2323">
        <ele>18.88</ele>
        <time>2021-03-20T14:11:36Z</time>
      </trkpt>
      <trkpt lat="56.72184" lon="-5.23226">
        <ele>18.81</ele>
        <time>2021-03-20T14:11:40Z</time>
      </trkpt>
      <trkpt lat="56.72147" lon="-5.23227">
        <ele>17.52</ele>
        <time>2021-03-20T14:11:44Z</time>
      </trkpt>
      <trkpt lat="56.72118" lon="-5.23214">
        <ele>19.03</ele>
        <time>2021-03-20T14:11:48Z</time>
      </trkpt>
      <trkpt lat="56.72102" lon="-5.23204">
        <ele>20.46</ele>
        <time>2021-03-20T14:11:52Z</time>
      </trkpt>
      <trkpt lat="56.72036" lon="-5.23148">
        <ele>21.45</ele>
        <time>2021-03-20T14:11:56Z</time>
      </trkpt>
      <trkpt lat="56.72014" lon="-5.23133">
        <ele>23.6</ele>
        <time>2021-03-20T14:12:00Z</time>
      </trkpt>
      <trkpt lat="56.71996" lon="-5.23128">
        <ele>25.43</ele>
        <time>2021-03-20T14:12:04Z</time>
      </trkpt>
      <trkpt lat="56.71982" lon="-5.2313">
        <ele>26.23</ele>
        <time>2021-03-20T14:12:08Z</time>
      </trkpt>
      <trkpt lat="56.71966" lon="-5.23137">
        <ele>26.41</ele>
        <time>2021-03-20T14:12:12Z</time>
      </trkpt>
      <trkpt lat="56.71952" lon="-5.23148">
        <ele>25.73</ele>
        <time>2021-03-20T14:12:16Z</time>
      </trkpt>
      <trkpt lat="56.71882" lon="-5.23223">
        <ele>24.47</ele>
        <time>2021-03-20T14:12:20Z</time>
      </trkpt>
      <trkpt lat="56.71858" lon="-5.23242">
        <ele>24.49</ele>
        <time>2021-03-20T14:12:24Z</time>
      </trkpt>
      <trkpt lat="56.71831" lon="-5.23257">
        <ele>22.67</ele>
        <time>2021-03-20T14:12:27Z</time>
      </trkpt>
      <trkpt lat="56.71815" lon="-5.23259">
        <ele>22.03</ele>
        <time>2021-03-20T14:12:31Z</time>
      </trkpt>
      <trkpt lat="56.71798" lon="-5.23256">
        <ele>21.27</ele>
        <time>2021-03-20T14:12:35Z</time>
      </trkpt>
      <trkpt lat="56.7178" lon="-5.2325">
        <ele>20.19</ele>
        <time>2021-03-20T14:12:39Z</time>
      </trkpt>
      <trkpt lat="56.71753" lon="-5.23229">
        <ele>18.96</ele>
        <time>2021-03-20T14:12:43Z</time>
      </trkpt>
      <trkpt lat="56.71735" lon="-5.23208">
        <ele>19</ele>
        <time>2021-03-20T14:12:47Z</time>
      </trkpt>
      <trkpt lat="56.71532" lon="-5.22872">
        <ele>15.94</ele>
        <time>2021-03-20T14:12:51Z</time>
      </trkpt>
      <trkpt lat="56.71523" lon="-5.22851">
        <ele>16.89</ele>
        <time>2021-03-20T14:12:55Z</time>
      </trkpt>
      <trkpt lat="56.71516" lon="-5.22827">
        <ele>18.29</ele>
        <time>2021-03-20T14:12:59Z</time>
      </trkpt>
      <trkpt lat="56.71493" lon="-5.22733">
        <ele>20.51</ele>
        <time>2021-03-20T14:13:03Z</time>
      </trkpt>
      <trkpt lat="56.71485" lon="-5.22714">
        <ele>20.63</ele>
        <time>2021-03-20T14:13:07Z</time>
      </trkpt>
      <trkpt lat="56.71466" lon="-5.22682">
        <ele>20.65</ele>
        <time>2021-03-20T14:13:11Z</time>
      </trkpt>
      <trkpt lat="56.71457" lon="-5.22674">
        <ele>20.36</ele>
        <time>2021-03-20T14:13:15Z</time>
      </trkpt>
      <trkpt lat="56.71437" lon="-5.22664">
        <ele>20.64</ele>
        <time>2021-03-20T14:13:19Z</time>
      </trkpt>
      <trkpt lat="56.71425" lon="-5.22662">
        <ele>21.83</ele>
        <time>2021-03-20T14:13:23Z</time>
      </trkpt>
      <trkpt lat="56.71318" lon="-5.22665">
        <ele>24.73</ele>
        <time>2021-03-20T14:13:27Z</time>
      </trkpt>
      <trkpt lat="56.71299" lon="-5.2267">
        <ele>24.06</ele>
        <time>2021-03-20T14:13:31Z</time>
      </trkpt>
      <trkpt lat="56.71284" lon="-5.22678">
        <ele>24.13</ele>
        <time>2021-03-20T14:13:35Z</time>
      </trkpt>
      <trkpt lat="56.71267" lon="-5.22693">
        <ele>24.14</ele>
        <time>2021-03-20T14:13:39Z</time>
      </trkpt>
      <trkpt lat="56.712" lon="-5.22764">
        <ele>27.63</ele>
        <time>2021-03-20T14:13:43Z</time>
      </trkpt>
      <trkpt lat="56.7118" lon="-5.22781">
        <ele>28.91</ele>
        <time>2021-03-20T14:13:46Z</time>
      </trkpt>
      <trkpt lat="56.71157" lon="-5.22795">
        <ele>29.42</ele>
        <time>2021-03-20T14:13:50Z</time>
      </trkpt>
      <trkpt lat="56.7104" lon="-5.2285">
        <ele>25.04</ele>
        <time>2021-03-20T14:13:54Z</time>
      </trkpt>
      <trkpt lat="56.70972" lon="-5.22894">
        <ele>22.51</ele>
        <time>2021-03-20T14:13:58Z</time>
      </trkpt>
      <trkpt lat="56.70944" lon="-5.22917">
        <ele>23.01</ele>
        <time>2021-03-20T14:14:02Z</time>
      </trkpt>
      <trkpt lat="56.70909" lon="-5.22952">
        <ele>21.59</ele>
        <time>2021-03-20T14:14:06Z</time>
      </trkpt>
      <trkpt lat="56.70868" lon="-5.22998">
        <ele>19.48</ele>
        <time>2021-03-20T14:14:10Z</time>
      </trkpt>
      <trkpt lat="56.70788" lon="-5.23085">
        <ele>19.64</ele>
        <time>2021-03-20T14:14:14Z</time>
      </trkpt>
      <trkpt lat="56.70758" lon="-5.23114">
        <ele>20.02</ele>
        <time>2021-03-20T14:14:18Z</time>
      </trkpt>
      <trkpt lat="56.7072" lon="-5.23143">
        <ele>20.14</ele>
        <time>2021-03-20T14:14:22Z</time>
      </trkpt>
      <trkpt lat="56.70683" lon="-5.23168">
        <ele>21.03</ele>
        <time>2021-03-20T14:14:26Z</time>
      </trkpt>
      <trkpt lat="56.70659" lon="-5.23178">
        <ele>20.72</ele>
        <time>2021-03-20T14:14:30Z</time>
      </trkpt>
      <trkpt lat="56.70644" lon="-5.23182">
        <ele>20.19</ele>
        <time>2021-03-20T14:14:34Z</time>
      </trkpt>
      <trkpt lat="56.70627" lon="-5.23181">
        <ele>19.58</ele>
        <time>2021-03-20T14:14:38Z</time>
      </trkpt>
      <trkpt lat="56.7061" lon="-5.23176">
        <ele>18.97</ele>
        <time>2021-03-20T14:14:42Z</time>
      </trkpt>
      <trkpt lat="56.70585" lon="-5.23163">
        <ele>18.18</ele>
        <time>2021-03-20T14:14:46Z</time>
      </trkpt>
      <trkpt lat="56.70561" lon="-5.23143">
        <ele>18.84</ele>
        <time>2021-03-20T14:14:50Z</time>
      </trkpt>
      <trkpt lat="56.70369" lon="-5.22951">
        <ele>16.27</ele>
        <time>2021-03-20T14:14:54Z</time>
      </trkpt>
      <trkpt lat="56.70346" lon="-5.22921">
        <ele>16.3</ele>
        <time>2021-03-20T14:14:58Z</time>
      </trkpt>
      <trkpt lat="56.70331" lon="-5.2289">
        <ele>16.7</ele>
        <time>2021-03-20T14:15:02Z</time>
      </trkpt>
      <trkpt lat="56.7032" lon="-5.22848">
        <ele>16.75</ele>
        <time>2021-03-20T14:15:05Z</time>
      </trkpt>
      <trkpt lat="56.70284" lon="-5.22604">
        <ele>16.74</ele>
        <time>2021-03-20T14:15:09Z</time>
      </trkpt>
      <trkpt lat="56.70281" lon="-5.22559">
        <ele>17.3</ele>
        <time>2021-03-20T14:15:13Z</time>
      </trkpt>
      <trkpt lat="56.70283" lon="-5.22506">
        <ele>18.73</ele>
        <time>2021-03-20T14:15:17Z</time>
      </trkpt>
      <trkpt lat="56.70312" lon="-5.22247">
        <ele>20.07</ele>
        <time>2021-03-20T14:15:21Z</time>
      </trkpt>
      <trkpt lat="56.70313" lon="-5.22198">
        <ele>17.78</ele>
        <time>2021-03-20T14:15:25Z</time>
      </trkpt>
      <trkpt lat="56.7031" lon="-5.22128">
        <ele>14.49</ele>
        <time>2021-03-20T14:15:29Z</time>
      </trkpt>
      <trkpt lat="56.70282" lon="-5.21967">
        <ele>10.89</ele>
        <time>2021-03-20T14:15:33Z</time>
      </trkpt>
      <trkpt lat="56.70279" lon="-5.21936">
        <ele>9.35</ele>
        <time>2021-03-20T14:15:37Z</time>
      </trkpt>
      <trkpt lat="56.70276" lon="-5.21901">
        <ele>9.21</ele>
        <time>2021-03-20T14:15:41Z</time>
      </trkpt>
      <trkpt lat="56.70275" lon="-5.21686">
        <ele>8.51</ele>
        <time>2021-03-20T14:15:45Z</time>
      </trkpt>
      <trkpt lat="56.70272" lon="-5.21643">
        <ele>10.66</ele>
        <time>2021-03-20T14:15:49Z</time>
      </trkpt>
      <trkpt lat="56.70261" lon="-5.21532">
        <ele>14.83</ele>
        <time>2021-03-20T14:15:53Z</time>
      </trkpt>
      <trkpt lat="56.70229" lon="-5.21162">
        <ele>9.94</ele>
        <time>2021-03-20T14:15:57Z</time>
      </trkpt>
      <trkpt lat="56.70228" lon="-5.2113">
        <ele>9.61</ele>
        <time>2021-03-20T14:16:01Z</time>
      </trkpt>
      <trkpt lat="56.70233" lon="-5.21027">
        <ele>13.37</ele>
        <time>2021-03-20T14:16:05Z</time>
      </trkpt>
      <trkpt lat="56.70223" lon="-5.20863">
        <ele>16.48</ele>
        <time>2021-03-20T14:16:09Z</time>
      </trkpt>
      <trkpt lat="56.70224" lon="-5.20824">
        <ele>18.67</ele>
        <time>2021-03-20T14:16:13Z</time>
      </trkpt>
      <trkpt lat="56.70228" lon="-5.2078">
        <ele>21.23</ele>
        <time>2021-03-20T14:16:17Z</time>
      </trkpt>
      <trkpt lat="56.70246" lon="-5.20692">
        <ele>23.69</ele>
        <time>2021-03-20T14:16:20Z</time>
      </trkpt>
      <trkpt lat="56.70249" lon="-5.20664">
        <ele>21.43</ele>
        <time>2021-03-20T14:16:24Z</time>
      </trkpt>
      <trkpt lat="56.70252" lon="-5.20608">
        <ele>15.65</ele>
        <time>2021-03-20T14:16:28Z</time>
      </trkpt>
      <trkpt lat="56.70247" lon="-5.2055">
        <ele>13.64</ele>
        <time>2021-03-20T14:16:32Z</time>
      </trkpt>
      <trkpt lat="56.7024" lon="-5.20514">
        <ele>12.91</ele>
        <time>2021-03-20T14:16:36Z</time>
      </trkpt>
      <trkpt lat="56.70227" lon="-5.20474">
        <ele>9.97</ele>
        <time>2021-03-20T14:16:40Z</time>
      </trkpt>
      <trkpt lat="56.70199" lon="-5.20396">
        <ele>6.35</ele>
        <time>2021-03-20T14:16:44Z</time>
      </trkpt>
      <trkpt lat="56.70183" lon="-5.20342">
        <ele>7.55</ele>
        <time>2021-03-20T14:16:48Z</time>
      </trkpt>
      <trkpt lat="56.70146" lon="-5.20175">
        <ele>4.92</ele>
        <time>2021-03-20T14:16:52Z</time>
      </trkpt>
      <trkpt lat="56.70082" lon="-5.19868">
        <ele>9.32</ele>
        <time>2021-03-20T14:16:56Z</time>
      </trkpt>
      <trkpt lat="56.70038" lon="-5.19674">
        <ele>14.43</ele>
        <time>2021-03-20T14:17:00Z</time>
      </trkpt>
      <trkpt lat="56.70031" lon="-5.19618">
        <ele>13.61</ele>
        <time>2021-03-20T14:17:04Z</time>
      </trkpt>
      <trkpt lat="56.7003" lon="-5.19577">
        <ele>14.74</ele>
        <time>2021-03-20T14:17:08Z</time>
      </trkpt>
      <trkpt lat="56.70036" lon="-5.19204">
        <ele>10.19</ele>
        <time>2021-03-20T14:17:12Z</time>
      </trkpt>
      <trkpt lat="56.7004" lon="-5.19138">
        <ele>13.28</ele>
        <time>2021-03-20T14:17:16Z</time>
      </trkpt>
      <trkpt lat="56.70054" lon="-5.19054">
        <ele>16.66</ele>
        <time>2021-03-20T14:17:20Z</time>
      </trkpt>
      <trkpt lat="56.7006" lon="-5.19009">
        <ele>19</ele>
        <time>2021-03-20T14:17:24Z</time>
      </trkpt>
      <trkpt lat="56.70061" lon="-5.18977">
        <ele>19.64</ele>
        <time>2021-03-20T14:17:28Z</time>
      </trkpt>
      <trkpt lat="56.7006" lon="-5.18928">
        <ele>20.2</ele>
        <time>2021-03-20T14:17:32Z</time>
      </trkpt>
      <trkpt lat="56.70048" lon="-5.18736">
        <ele>14.95</ele>
        <time>2021-03-20T14:17:36Z</time>
      </trkpt>
      <trkpt lat="56.70041" lon="-5.18507">
        <ele>14</ele>
        <time>2021-03-20T14:17:39Z</time>
      </trkpt>
      <trkpt lat="56.70034" lon="-5.18435">
        <ele>13.39</ele>
        <time>2021-03-20T14:17:43Z</time>
      </trkpt>
      <trkpt lat="56.7003" lon="-5.18411">
        <ele>12.96</ele>
        <time>2021-03-20T14:17:47Z</time>
      </trkpt>
      <trkpt lat="56.70023" lon="-5.18388">
        <ele>13.4</ele>
        <time>2021-03-20T14:17:51Z</time>
      </trkpt>
      <trkpt lat="56.70006" lon="-5.18353">
        <ele>13.52</ele>
        <time>2021-03-20T14:17:55Z</time>
      </trkpt>
      <trkpt lat="56.69985" lon="-5.18323">
        <ele>12.76</ele>
        <time>2021-03-20T14:17:59Z</time>
      </trkpt>
      <trkpt lat="56.69872" lon="-5.18231">
        <ele>12.5</ele>
        <time>2021-03-20T14:18:03Z</time>
      </trkpt>
      <trkpt lat="56.69826" lon="-5.18201">
        <ele>12.49</ele>
        <time>2021-03-20T14:18:07Z</time>
      </trkpt>
      <trkpt lat="56.69786" lon="-5.18183">
        <ele>12.51</ele>
        <time>2021-03-20T14:18:11Z</time>
      </trkpt>
      <trkpt lat="56.69758" lon="-5.18173">
        <ele>12.79</ele>
        <time>2021-03-20T14:18:15Z</time>
      </trkpt>
      <trkpt lat="56.6971" lon="-5.18163">
        <ele>13.57</ele>
        <time>2021-03-20T14:18:19Z</time>
      </trkpt>
      <trkpt lat="56.6966" lon="-5.18159">
        <ele>11.75</ele>
        <time>2021-03-20T14:18:23Z</time>
      </trkpt>
      <trkpt lat="56.69627" lon="-5.18162">
        <ele>11</ele>
        <time>2021-03-20T14:18:27Z</time>
      </trkpt>
      <trkpt lat="56.69521" lon="-5.18186">
        <ele>11.46</ele>
        <time>2021-03-20T14:18:31Z</time>
      </trkpt>
      <trkpt lat="56.69449" lon="-5.18206">
        <ele>12.83</ele>
        <time>2021-03-20T14:18:35Z</time>
      </trkpt>
      <trkpt lat="56.69328" lon="-5.1823">
        <ele>11.94</ele>
        <time>2021-03-20T14:18:39Z</time>
      </trkpt>
      <trkpt lat="56.69243" lon="-5.18239">
        <ele>12.39</ele>
        <time>2021-03-20T14:18:43Z</time>
      </trkpt>
      <trkpt lat="56.6904" lon="-5.18237">
        <ele>8.84</ele>
        <time>2021-03-20T14:18:47Z</time>
      </trkpt>
      <trkpt lat="56.68773" lon="-5.18233">
        <ele>11.33</ele>
        <time>2021-03-20T14:18:51Z</time>
      </trkpt>
      <trkpt lat="56.68725" lon="-5.18228">
        <ele>26.67</ele>
        <time>2021-03-20T14:18:54Z</time>
      </trkpt>
      <trkpt lat="56.68685" lon="-5.18208">
        <ele>28.31</ele>
        <time>2021-03-20T14:18:58Z</time>
      </trkpt>
      <trkpt lat="56.68655" lon="-5.1818">
        <ele>25.57</ele>
        <time>2021-03-20T14:19:02Z</time>
      </trkpt>
      <trkpt lat="56.68625" lon="-5.18141">
        <ele>22.54</ele>
        <time>2021-03-20T14:19:06Z</time>
      </trkpt>
      <trkpt lat="56.68595" lon="-5.18091">
        <ele>21</ele>
        <time>2021-03-20T14:19:10Z</time>
      </trkpt>
      <trkpt lat="56.68576" lon="-5.18042">
        <ele>20.38</ele>
        <time>2021-03-20T14:19:14Z</time>
      </trkpt>
      <trkpt lat="56.68557" lon="-5.1798">
        <ele>18.27</ele>
        <time>2021-03-20T14:19:18Z</time>
      </trkpt>
      <trkpt lat="56.68545" lon="-5.17925">
        <ele>17.49</ele>
        <time>2021-03-20T14:19:22Z</time>
      </trkpt>
      <trkpt lat="56.68466" lon="-5.17471">
        <ele>15.83</ele>
        <time>2021-03-20T14:19:26Z</time>
      </trkpt>
      <trkpt lat="56.68467" lon="-5.17446">
        <ele>14.74</ele>
        <time>2021-03-20T14:19:30Z</time>
      </trkpt>
      <trkpt lat="56.6847" lon="-5.17431">
        <ele>14.26</ele>
        <time>2021-03-20T14:19:34Z</time>
      </trkpt>
      <trkpt lat="56.68474" lon="-5.17424">
        <ele>14</ele>
        <time>2021-03-20T14:19:39Z</time>
      </trkpt>
      <trkpt lat="56.68477" lon="-5.17407">
        <ele>13.66</ele>
        <time>2021-03-20T14:19:44Z</time>
      </trkpt>
      <trkpt lat="56.68475" lon="-5.17395">
        <ele>13.2</ele>
        <time>2021-03-20T14:19:49Z</time>
      </trkpt>
      <trkpt lat="56.68471" lon="-5.17387">
        <ele>13.13</ele>
        <time>2021-03-20T14:19:54Z</time>
      </trkpt>
      <trkpt lat="56.68465" lon="-5.1738">
        <ele>14.01</ele>
        <time>2021-03-20T14:19:59Z</time>
      </trkpt>
      <trkpt lat="56.68457" lon="-5.17365">
        <ele>15.19</ele>
        <time>2021-03-20T14:20:04Z</time>
      </trkpt>
      <trkpt lat="56.68446" lon="-5.17337">
        <ele>16</ele>
        <time>2021-03-20T14:20:09Z</time>
      </trkpt>
      <trkpt lat="56.68327" lon="-5.16921">
        <ele>19.82</ele>
        <time>2021-03-20T14:20:14Z</time>
      </trkpt>
      <trkpt lat="56.68204" lon="-5.16577">
        <ele>16.64</ele>
        <time>2021-03-20T14:20:19Z</time>
      </trkpt>
      <trkpt lat="56.68187" lon="-5.16516">
        <ele>17.22</ele>
        <time>2021-03-20T14:20:24Z</time>
      </trkpt>
      <trkpt lat="56.68123" lon="-5.16268">
        <ele>22.89</ele>
        <time>2021-03-20T14:20:29Z</time>
      </trkpt>
      <trkpt lat="56.68061" lon="-5.16056">
        <ele>14.71</ele>
        <time>2021-03-20T14:20:34Z</time>
      </trkpt>
      <trkpt lat="56.6786" lon="-5.15615">
        <ele>13.65</ele>
        <time>2021-03-20T14:20:39Z</time>
      </trkpt>
      <trkpt lat="56.67816" lon="-5.15507">
        <ele>7.35</ele>
        <time>2021-03-20T14:20:44Z</time>
      </trkpt>
      <trkpt lat="56.67798" lon="-5.15455">
        <ele>5.03</ele>
        <time>2021-03-20T14:20:49Z</time>
      </trkpt>
      <trkpt lat="56.67772" lon="-5.15365">
        <ele>6.2</ele>
        <time>2021-03-20T14:20:54Z</time>
      </trkpt>
      <trkpt lat="56.67753" lon="-5.15282">
        <ele>9.4</ele>
        <time>2021-03-20T14:20:59Z</time>
      </trkpt>
      <trkpt lat="56.67704" lon="-5.14962">
        <ele>17.24</ele>
        <time>2021-03-20T14:21:04Z</time>
      </trkpt>
      <trkpt lat="56.67688" lon="-5.14801">
        <ele>5.43</ele>
        <time>2021-03-20T14:21:09Z</time>
      </trkpt>
      <trkpt lat="56.67691" lon="-5.14561">
        <ele>5.24</ele>
        <time>2021-03-20T14:21:14Z</time>
      </trkpt>
      <trkpt lat="56.67694" lon="-5.14473">
        <ele>5.01</ele>
        <time>2021-03-20T14:21:19Z</time>
      </trkpt>
      <trkpt lat="56.67702" lon="-5.14351">
        <ele>4.17</ele>
        <time>2021-03-20T14:21:24Z</time>
      </trkpt>
      <trkpt lat="56.67713" lon="-5.14221">
        <ele>3.35</ele>
        <time>2021-03-20T14:21:29Z</time>
      </trkpt>
      <trkpt lat="56.67727" lon="-5.14079">
        <ele>1.86</ele>
        <time>2021-03-20T14:21:34Z</time>
      </trkpt>
      <trkpt lat="56.67705" lon="-5.14064">
        <ele>2.61</ele>
        <time>2021-03-20T14:21:41Z</time>
      </trkpt>
      <trkpt lat="56.67693" lon="-5.14052">
        <ele>3.06</ele>
        <time>2021-03-20T14:21:47Z</time>
      </trkpt>
      <trkpt lat="56.67682" lon="-5.14021">
        <ele>3.33</ele>
        <time>2021-03-20T14:21:54Z</time>
      </trkpt>
      <trkpt lat="56.67691" lon="-5.13803">
        <ele>4.89</ele>
        <time>2021-03-20T14:22:00Z</time>
      </trkpt>
      <trkpt lat="56.67704" lon="-5.13687">
        <ele>5.51</ele>
        <time>2021-03-20T14:22:07Z</time>
      </trkpt>
      <trkpt lat="56.67712" lon="-5.13575">
        <ele>7.31</ele>
        <time>2021-03-20T14:22:13Z</time>
      </trkpt>
      <trkpt lat="56.67734" lon="-5.13339">
        <ele>8.66</ele>
        <time>2021-03-20T14:22:19Z</time>
      </trkpt>
      <trkpt lat="56.67753" lon="-5.13101">
        <ele>9</ele>
        <time>2021-03-20T14:22:26Z</time>
      </trkpt>
      <trkpt lat="56.67767" lon="-5.13024">
        <ele>11.03</ele>
        <time>2021-03-20T14:22:32Z</time>
      </trkpt>
      <trkpt lat="56.67783" lon="-5.12969">
        <ele>11.73</ele>
        <time>2021-03-20T14:22:39Z</time>
      </trkpt>
      <trkpt lat="56.67831" lon="-5.12904">
        <ele>11.46</ele>
        <time>2021-03-20T14:22:45Z</time>
      </trkpt>
      <trkpt lat="56.67864" lon="-5.12867">
        <ele>13.4</ele>
        <time>2021-03-20T14:22:52Z</time>
      </trkpt>
      <trkpt lat="56.6788" lon="-5.12855">
        <ele>13.1</ele>
        <time>2021-03-20T14:22:58Z</time>
      </trkpt>
      <trkpt lat="56.67902" lon="-5.12845">
        <ele>12.44</ele>
        <time>2021-03-20T14:23:05Z</time>
      </trkpt>
      <trkpt lat="56.67922" lon="-5.12841">
        <ele>11.14</ele>
        <time>2021-03-20T14:23:11Z</time>
      </trkpt>
      <trkpt lat="56.67939" lon="-5.12846">
        <ele>9.14</ele>
        <time>2021-03-20T14:23:18Z</time>
      </trkpt>
      <trkpt lat="56.67951" lon="-5.12854">
        <ele>7.98</ele>
        <time>2021-03-20T14:23:24Z</time>
      </trkpt>
      <trkpt lat="56.67973" lon="-5.12679">
        <ele>12.98</ele>
        <time>2021-03-20T14:23:40Z</time>
      </trkpt>
      <trkpt lat="56.67991" lon="-5.11992">
        <ele>11.14</ele>
        <time>2021-03-20T14:23:56Z</time>
      </trkpt>
      <trkpt lat="56.68" lon="-5.11835">
        <ele>9.08</ele>
        <time>2021-03-20T14:24:11Z</time>
      </trkpt>
      <trkpt lat="56.67988" lon="-5.11833">
        <ele>12.86</ele>
        <time>2021-03-20T14:24:16Z</time>
      </trkpt>
      <trkpt lat="56.67981" lon="-5.11827">
        <ele>15.23</ele>
        <time>2021-03-20T14:24:20Z</time>
      </trkpt>
      <trkpt lat="56.67977" lon="-5.11817">
        <ele>16.6</ele>
        <time>2021-03-20T14:24:24Z</time>
      </trkpt>
      <trkpt lat="56.67978" lon="-5.11805">
        <ele>16.11</ele>
        <time>2021-03-20T14:24:28Z</time>
      </trkpt>
      <trkpt lat="56.67997" lon="-5.11764">
        <ele>10.07</ele>
        <time>2021-03-20T14:24:33Z</time>
      </trkpt>
      <trkpt lat="56.68018" lon="-5.11516">
        <ele>10.31</ele>
        <time>2021-03-20T14:24:37Z</time>
      </trkpt>
      <trkpt lat="56.6803" lon="-5.1141">
        <ele>9.47</ele>
        <time>2021-03-20T14:24:41Z</time>
      </trkpt>
      <trkpt lat="56.68046" lon="-5.11235">
        <ele>6.74</ele>
        <time>2021-03-20T14:24:45Z</time>
      </trkpt>
      <trkpt lat="56.68053" lon="-5.11175">
        <ele>7.12</ele>
        <time>2021-03-20T14:24:50Z</time>
      </trkpt>
      <trkpt lat="56.68065" lon="-5.1112">
        <ele>5.65</ele>
        <time>2021-03-20T14:24:54Z</time>
      </trkpt>
      <trkpt lat="56.6808" lon="-5.11065">
        <ele>4.01</ele>
        <time>2021-03-20T14:24:58Z</time>
      </trkpt>
      <trkpt lat="56.68103" lon="-5.1108">
        <ele>2.39</ele>
        <time>2021-03-20T14:25:01Z</time>
      </trkpt>
      <trkpt lat="56.68112" lon="-5.11036">
        <ele>2.96</ele>
        <time>2021-03-20T14:25:05Z</time>
      </trkpt>
      <trkpt lat="56.6813" lon="-5.10927">
        <ele>3.32</ele>
        <time>2021-03-20T14:25:08Z</time>
      </trkpt>
      <trkpt lat="56.68136" lon="-5.10868">
        <ele>4</ele>
        <time>2021-03-20T14:25:12Z</time>
      </trkpt>
      <trkpt lat="56.6814" lon="-5.10808">
        <ele>3.96</ele>
        <time>2021-03-20T14:25:16Z</time>
      </trkpt>
      <trkpt lat="56.68142" lon="-5.10751">
        <ele>3.91</ele>
        <time>2021-03-20T14:25:20Z</time>
      </trkpt>
      <trkpt lat="56.68151" lon="-5.1075">
        <ele>3.56</ele>
        <time>2021-03-20T14:25:21Z</time>
      </trkpt>
      <trkpt lat="56.68165" lon="-5.10737">
        <ele>3.51</ele>
        <time>2021-03-20T14:25:22Z</time>
      </trkpt>
      <trkpt lat="56.6816" lon="-5.10719">
        <ele>4.22</ele>
        <time>2021-03-20T14:25:38Z</time>
      </trkpt>
      <trkpt lat="56.68159" lon="-5.10705">
        <ele>4.27</ele>
        <time>2021-03-20T14:25:54Z</time>
      </trkpt>
      <trkpt lat="56.68162" lon="-5.10687">
        <ele>4.45</ele>
        <time>2021-03-20T14:26:10Z</time>
      </trkpt>
      <trkpt lat="56.68272" lon="-5.10143">
        <ele>12.81</ele>
        <time>2021-03-20T14:26:26Z</time>
      </trkpt>
      <trkpt lat="56.68272" lon="-5.10143">
        <ele>12.81</ele>
        <time>2021-03-20T14:26:26Z</time>
      </trkpt>
      <trkpt lat="56.68324" lon="-5.09886">
        <ele>12</ele>
        <time>2021-03-20T14:26:30Z</time>
      </trkpt>
      <trkpt lat="56.68354" lon="-5.09752">
        <ele>12.26</ele>
        <time>2021-03-20T14:26:34Z</time>
      </trkpt>
      <trkpt lat="56.68366" lon="-5.09709">
        <ele>13.18</ele>
        <time>2021-03-20T14:26:38Z</time>
      </trkpt>
      <trkpt lat="56.68371" lon="-5.09681">
        <ele>13.85</ele>
        <time>2021-03-20T14:26:42Z</time>
      </trkpt>
      <trkpt lat="56.68372" lon="-5.09657">
        <ele>14.72</ele>
        <time>2021-03-20T14:26:46Z</time>
      </trkpt>
      <trkpt lat="56.68368" lon="-5.09635">
        <ele>15.43</ele>
        <time>2021-03-20T14:26:50Z</time>
      </trkpt>
      <trkpt lat="56.68286" lon="-5.09387">
        <ele>26.75</ele>
        <time>2021-03-20T14:26:54Z</time>
      </trkpt>
      <trkpt lat="56.6825" lon="-5.09308">
        <ele>20.08</ele>
        <time>2021-03-20T14:26:57Z</time>
      </trkpt>
      <trkpt lat="56.68224" lon="-5.09215">
        <ele>20.02</ele>
        <time>2021-03-20T14:27:01Z</time>
      </trkpt>
      <trkpt lat="56.68178" lon="-5.08977">
        <ele>19.24</ele>
        <time>2021-03-20T14:27:05Z</time>
      </trkpt>
      <trkpt lat="56.68062" lon="-5.0858">
        <ele>21.06</ele>
        <time>2021-03-20T14:27:09Z</time>
      </trkpt>
      <trkpt lat="56.68012" lon="-5.08435">
        <ele>22.78</ele>
        <time>2021-03-20T14:27:13Z</time>
      </trkpt>
      <trkpt lat="56.67991" lon="-5.08406">
        <ele>23.44</ele>
        <time>2021-03-20T14:27:17Z</time>
      </trkpt>
      <trkpt lat="56.67959" lon="-5.08379">
        <ele>23.36</ele>
        <time>2021-03-20T14:27:21Z</time>
      </trkpt>
      <trkpt lat="56.67725" lon="-5.08055">
        <ele>25.53</ele>
        <time>2021-03-20T14:27:25Z</time>
      </trkpt>
      <trkpt lat="56.6766" lon="-5.07876">
        <ele>34.69</ele>
        <time>2021-03-20T14:27:28Z</time>
      </trkpt>
      <trkpt lat="56.67605" lon="-5.07742">
        <ele>30.75</ele>
        <time>2021-03-20T14:27:32Z</time>
      </trkpt>
      <trkpt lat="56.67548" lon="-5.07672">
        <ele>29.94</ele>
        <time>2021-03-20T14:27:36Z</time>
      </trkpt>
      <trkpt lat="56.67408" lon="-5.07572">
        <ele>38.63</ele>
        <time>2021-03-20T14:27:40Z</time>
      </trkpt>
      <trkpt lat="56.67374" lon="-5.07537">
        <ele>39.05</ele>
        <time>2021-03-20T14:27:44Z</time>
      </trkpt>
      <trkpt lat="56.67344" lon="-5.07482">
        <ele>38.85</ele>
        <time>2021-03-20T14:27:48Z</time>
      </trkpt>
      <trkpt lat="56.67301" lon="-5.0742">
        <ele>39.17</ele>
        <time>2021-03-20T14:27:52Z</time>
      </trkpt>
      <trkpt lat="56.67277" lon="-5.0739">
        <ele>39.89</ele>
        <time>2021-03-20T14:27:56Z</time>
      </trkpt>
      <trkpt lat="56.67202" lon="-5.07341">
        <ele>42.56</ele>
        <time>2021-03-20T14:27:59Z</time>
      </trkpt>
      <trkpt lat="56.67169" lon="-5.07294">
        <ele>43.12</ele>
        <time>2021-03-20T14:28:03Z</time>
      </trkpt>
      <trkpt lat="56.67131" lon="-5.07181">
        <ele>40.35</ele>
        <time>2021-03-20T14:28:07Z</time>
      </trkpt>
      <trkpt lat="56.67095" lon="-5.07099">
        <ele>39.36</ele>
        <time>2021-03-20T14:28:11Z</time>
      </trkpt>
      <trkpt lat="56.67057" lon="-5.06963">
        <ele>42.67</ele>
        <time>2021-03-20T14:28:15Z</time>
      </trkpt>
      <trkpt lat="56.66884" lon="-5.06501">
        <ele>46.44</ele>
        <time>2021-03-20T14:28:19Z</time>
      </trkpt>
      <trkpt lat="56.66824" lon="-5.0631">
        <ele>49.46</ele>
        <time>2021-03-20T14:28:23Z</time>
      </trkpt>
      <trkpt lat="56.66793" lon="-5.06224">
        <ele>49.67</ele>
        <time>2021-03-20T14:28:27Z</time>
      </trkpt>
      <trkpt lat="56.66754" lon="-5.0615">
        <ele>53.65</ele>
        <time>2021-03-20T14:28:30Z</time>
      </trkpt>
      <trkpt lat="56.66731" lon="-5.06114">
        <ele>58.62</ele>
        <time>2021-03-20T14:28:34Z</time>
      </trkpt>
      <trkpt lat="56.66694" lon="-5.06062">
        <ele>62.53</ele>
        <time>2021-03-20T14:28:38Z</time>
      </trkpt>
      <trkpt lat="56.66651" lon="-5.05987">
        <ele>64.96</ele>
        <time>2021-03-20T14:28:42Z</time>
      </trkpt>
      <trkpt lat="56.66634" lon="-5.05948">
        <ele>66.08</ele>
        <time>2021-03-20T14:28:46Z</time>
      </trkpt>
      <trkpt lat="56.66612" lon="-5.05869">
        <ele>70.53</ele>
        <time>2021-03-20T14:28:50Z</time>
      </trkpt>
      <trkpt lat="56.66591" lon="-5.0581">
        <ele>74.33</ele>
        <time>2021-03-20T14:28:54Z</time>
      </trkpt>
      <trkpt lat="56.66573" lon="-5.05761">
        <ele>75.37</ele>
        <time>2021-03-20T14:28:58Z</time>
      </trkpt>
      <trkpt lat="56.66555" lon="-5.05725">
        <ele>74.17</ele>
        <time>2021-03-20T14:29:02Z</time>
      </trkpt>
      <trkpt lat="56.66531" lon="-5.05687">
        <ele>74.56</ele>
        <time>2021-03-20T14:29:05Z</time>
      </trkpt>
      <trkpt lat="56.66473" lon="-5.05612">
        <ele>69.04</ele>
        <time>2021-03-20T14:29:09Z</time>
      </trkpt>
      <trkpt lat="56.66446" lon="-5.0556">
        <ele>67.24</ele>
        <time>2021-03-20T14:29:13Z</time>
      </trkpt>
      <trkpt lat="56.66411" lon="-5.05474">
        <ele>65.19</ele>
        <time>2021-03-20T14:29:17Z</time>
      </trkpt>
      <trkpt lat="56.66388" lon="-5.05407">
        <ele>66.67</ele>
        <time>2021-03-20T14:29:21Z</time>
      </trkpt>
      <trkpt lat="56.66382" lon="-5.05381">
        <ele>66.25</ele>
        <time>2021-03-20T14:29:25Z</time>
      </trkpt>
      <trkpt lat="56.66367" lon="-5.05291">
        <ele>66.8</ele>
        <time>2021-03-20T14:29:29Z</time>
      </trkpt>
      <trkpt lat="56.66358" lon="-5.05254">
        <ele>67.1</ele>
        <time>2021-03-20T14:29:33Z</time>
      </trkpt>
      <trkpt lat="56.6633" lon="-5.05153">
        <ele>64.11</ele>
        <time>2021-03-20T14:29:36Z</time>
      </trkpt>
      <trkpt lat="56.66316" lon="-5.05094">
        <ele>65.23</ele>
        <time>2021-03-20T14:29:40Z</time>
      </trkpt>
      <trkpt lat="56.66309" lon="-5.05047">
        <ele>66.11</ele>
        <time>2021-03-20T14:29:44Z</time>
      </trkpt>
      <trkpt lat="56.66308" lon="-5.04923">
        <ele>67.85</ele>
        <time>2021-03-20T14:29:48Z</time>
      </trkpt>
      <trkpt lat="56.66311" lon="-5.04893">
        <ele>69.03</ele>
        <time>2021-03-20T14:29:52Z</time>
      </trkpt>
      <trkpt lat="56.66375" lon="-5.04621">
        <ele>75.4</ele>
        <time>2021-03-20T14:29:56Z</time>
      </trkpt>
      <trkpt lat="56.66404" lon="-5.04565">
        <ele>78.93</ele>
        <time>2021-03-20T14:30:00Z</time>
      </trkpt>
      <trkpt lat="56.66415" lon="-5.04534">
        <ele>79.76</ele>
        <time>2021-03-20T14:30:04Z</time>
      </trkpt>
      <trkpt lat="56.66423" lon="-5.04502">
        <ele>80.9</ele>
        <time>2021-03-20T14:30:07Z</time>
      </trkpt>
      <trkpt lat="56.66428" lon="-5.04466">
        <ele>81.03</ele>
        <time>2021-03-20T14:30:11Z</time>
      </trkpt>
      <trkpt lat="56.66434" lon="-5.04386">
        <ele>82.46</ele>
        <time>2021-03-20T14:30:15Z</time>
      </trkpt>
      <trkpt lat="56.66439" lon="-5.04333">
        <ele>84.24</ele>
        <time>2021-03-20T14:30:19Z</time>
      </trkpt>
      <trkpt lat="56.66452" lon="-5.04218">
        <ele>85.05</ele>
        <time>2021-03-20T14:30:23Z</time>
      </trkpt>
      <trkpt lat="56.66458" lon="-5.0418">
        <ele>86.18</ele>
        <time>2021-03-20T14:30:27Z</time>
      </trkpt>
      <trkpt lat="56.66457" lon="-5.04144">
        <ele>86.78</ele>
        <time>2021-03-20T14:30:31Z</time>
      </trkpt>
      <trkpt lat="56.6645" lon="-5.04099">
        <ele>87.02</ele>
        <time>2021-03-20T14:30:35Z</time>
      </trkpt>
      <trkpt lat="56.6645" lon="-5.04061">
        <ele>89.21</ele>
        <time>2021-03-20T14:30:38Z</time>
      </trkpt>
      <trkpt lat="56.66446" lon="-5.04049">
        <ele>89.13</ele>
        <time>2021-03-20T14:30:42Z</time>
      </trkpt>
      <trkpt lat="56.66436" lon="-5.0404">
        <ele>88.7</ele>
        <time>2021-03-20T14:30:46Z</time>
      </trkpt>
      <trkpt lat="56.66461" lon="-5.03937">
        <ele>91.01</ele>
        <time>2021-03-20T14:30:50Z</time>
      </trkpt>
      <trkpt lat="56.66475" lon="-5.03884">
        <ele>90.21</ele>
        <time>2021-03-20T14:30:54Z</time>
      </trkpt>
      <trkpt lat="56.66492" lon="-5.03838">
        <ele>91.45</ele>
        <time>2021-03-20T14:30:58Z</time>
      </trkpt>
      <trkpt lat="56.66511" lon="-5.03799">
        <ele>93.13</ele>
        <time>2021-03-20T14:31:02Z</time>
      </trkpt>
      <trkpt lat="56.66535" lon="-5.03761">
        <ele>94.11</ele>
        <time>2021-03-20T14:31:06Z</time>
      </trkpt>
      <trkpt lat="56.6656" lon="-5.03727">
        <ele>93.57</ele>
        <time>2021-03-20T14:31:09Z</time>
      </trkpt>
      <trkpt lat="56.6659" lon="-5.03682">
        <ele>96.05</ele>
        <time>2021-03-20T14:31:13Z</time>
      </trkpt>
      <trkpt lat="56.66619" lon="-5.03611">
        <ele>98.79</ele>
        <time>2021-03-20T14:31:17Z</time>
      </trkpt>
      <trkpt lat="56.66632" lon="-5.03563">
        <ele>97.72</ele>
        <time>2021-03-20T14:31:21Z</time>
      </trkpt>
      <trkpt lat="56.66658" lon="-5.03441">
        <ele>94.56</ele>
        <time>2021-03-20T14:31:25Z</time>
      </trkpt>
      <trkpt lat="56.66671" lon="-5.03388">
        <ele>94.16</ele>
        <time>2021-03-20T14:31:29Z</time>
      </trkpt>
      <trkpt lat="56.66698" lon="-5.03302">
        <ele>94.7</ele>
        <time>2021-03-20T14:31:33Z</time>
      </trkpt>
      <trkpt lat="56.66794" lon="-5.03023">
        <ele>96.28</ele>
        <time>2021-03-20T14:31:37Z</time>
      </trkpt>
      <trkpt lat="56.66825" lon="-5.02921">
        <ele>96.7</ele>
        <time>2021-03-20T14:31:40Z</time>
      </trkpt>
      <trkpt lat="56.66858" lon="-5.02796">
        <ele>94.85</ele>
        <time>2021-03-20T14:31:44Z</time>
      </trkpt>
      <trkpt lat="56.6689" lon="-5.02661">
        <ele>96.99</ele>
        <time>2021-03-20T14:31:48Z</time>
      </trkpt>
      <trkpt lat="56.66923" lon="-5.0249">
        <ele>92.97</ele>
        <time>2021-03-20T14:31:52Z</time>
      </trkpt>
      <trkpt lat="56.66948" lon="-5.0233">
        <ele>96.39</ele>
        <time>2021-03-20T14:31:56Z</time>
      </trkpt>
      <trkpt lat="56.66965" lon="-5.02196">
        <ele>96.93</ele>
        <time>2021-03-20T14:32:00Z</time>
      </trkpt>
      <trkpt lat="56.66984" lon="-5.01977">
        <ele>100.31</ele>
        <time>2021-03-20T14:32:04Z</time>
      </trkpt>
      <trkpt lat="56.66994" lon="-5.01786">
        <ele>103.5</ele>
        <time>2021-03-20T14:32:07Z</time>
      </trkpt>
      <trkpt lat="56.66997" lon="-5.01647">
        <ele>105.17</ele>
        <time>2021-03-20T14:32:11Z</time>
      </trkpt>
      <trkpt lat="56.66996" lon="-5.01525">
        <ele>105.3</ele>
        <time>2021-03-20T14:32:15Z</time>
      </trkpt>
      <trkpt lat="56.66991" lon="-5.01393">
        <ele>106.55</ele>
        <time>2021-03-20T14:32:19Z</time>
      </trkpt>
      <trkpt lat="56.66979" lon="-5.0117">
        <ele>109.43</ele>
        <time>2021-03-20T14:32:23Z</time>
      </trkpt>
      <trkpt lat="56.66947" lon="-5.0068">
        <ele>118.14</ele>
        <time>2021-03-20T14:32:27Z</time>
      </trkpt>
      <trkpt lat="56.66926" lon="-5.00327">
        <ele>127.31</ele>
        <time>2021-03-20T14:32:31Z</time>
      </trkpt>
      <trkpt lat="56.6692" lon="-4.99971">
        <ele>143.08</ele>
        <time>2021-03-20T14:32:35Z</time>
      </trkpt>
      <trkpt lat="56.66916" lon="-4.99916">
        <ele>142.91</ele>
        <time>2021-03-20T14:32:38Z</time>
      </trkpt>
      <trkpt lat="56.66906" lon="-4.99858">
        <ele>143.23</ele>
        <time>2021-03-20T14:32:42Z</time>
      </trkpt>
      <trkpt lat="56.66895" lon="-4.99823">
        <ele>143.25</ele>
        <time>2021-03-20T14:32:46Z</time>
      </trkpt>
      <trkpt lat="56.6688" lon="-4.99787">
        <ele>144.35</ele>
        <time>2021-03-20T14:32:50Z</time>
      </trkpt>
      <trkpt lat="56.66839" lon="-4.9971">
        <ele>150.15</ele>
        <time>2021-03-20T14:32:54Z</time>
      </trkpt>
      <trkpt lat="56.66823" lon="-4.9967">
        <ele>152.24</ele>
        <time>2021-03-20T14:32:58Z</time>
      </trkpt>
      <trkpt lat="56.66813" lon="-4.99634">
        <ele>151.29</ele>
        <time>2021-03-20T14:33:02Z</time>
      </trkpt>
      <trkpt lat="56.66804" lon="-4.99576">
        <ele>150.96</ele>
        <time>2021-03-20T14:33:06Z</time>
      </trkpt>
      <trkpt lat="56.66802" lon="-4.99522">
        <ele>152.14</ele>
        <time>2021-03-20T14:33:09Z</time>
      </trkpt>
      <trkpt lat="56.66805" lon="-4.9946">
        <ele>153.76</ele>
        <time>2021-03-20T14:33:13Z</time>
      </trkpt>
      <trkpt lat="56.66823" lon="-4.99308">
        <ele>156.68</ele>
        <time>2021-03-20T14:33:17Z</time>
      </trkpt>
      <trkpt lat="56.66827" lon="-4.99247">
        <ele>157.5</ele>
        <time>2021-03-20T14:33:21Z</time>
      </trkpt>
      <trkpt lat="56.66826" lon="-4.99198">
        <ele>157.63</ele>
        <time>2021-03-20T14:33:25Z</time>
      </trkpt>
      <trkpt lat="56.66793" lon="-4.98697">
        <ele>173.52</ele>
        <time>2021-03-20T14:33:29Z</time>
      </trkpt>
      <trkpt lat="56.66782" lon="-4.98554">
        <ele>176.24</ele>
        <time>2021-03-20T14:33:33Z</time>
      </trkpt>
      <trkpt lat="56.66772" lon="-4.98497">
        <ele>176.73</ele>
        <time>2021-03-20T14:33:36Z</time>
      </trkpt>
      <trkpt lat="56.66763" lon="-4.98459">
        <ele>174.35</ele>
        <time>2021-03-20T14:33:40Z</time>
      </trkpt>
      <trkpt lat="56.66751" lon="-4.98416">
        <ele>175.65</ele>
        <time>2021-03-20T14:33:44Z</time>
      </trkpt>
      <trkpt lat="56.66733" lon="-4.98368">
        <ele>179.82</ele>
        <time>2021-03-20T14:33:48Z</time>
      </trkpt>
      <trkpt lat="56.66709" lon="-4.98321">
        <ele>183.72</ele>
        <time>2021-03-20T14:33:52Z</time>
      </trkpt>
      <trkpt lat="56.66687" lon="-4.98286">
        <ele>183.38</ele>
        <time>2021-03-20T14:33:56Z</time>
      </trkpt>
      <trkpt lat="56.66665" lon="-4.98257">
        <ele>183.62</ele>
        <time>2021-03-20T14:34:00Z</time>
      </trkpt>
      <trkpt lat="56.66601" lon="-4.98187">
        <ele>182.86</ele>
        <time>2021-03-20T14:34:04Z</time>
      </trkpt>
      <trkpt lat="56.66589" lon="-4.9817">
        <ele>183.58</ele>
        <time>2021-03-20T14:34:07Z</time>
      </trkpt>
      <trkpt lat="56.66577" lon="-4.98144">
        <ele>183.29</ele>
        <time>2021-03-20T14:34:11Z</time>
      </trkpt>
      <trkpt lat="56.66569" lon="-4.9812">
        <ele>183.55</ele>
        <time>2021-03-20T14:34:15Z</time>
      </trkpt>
      <trkpt lat="56.66562" lon="-4.98093">
        <ele>183.9</ele>
        <time>2021-03-20T14:34:19Z</time>
      </trkpt>
      <trkpt lat="56.66547" lon="-4.98022">
        <ele>186.65</ele>
        <time>2021-03-20T14:34:23Z</time>
      </trkpt>
      <trkpt lat="56.66535" lon="-4.97947">
        <ele>190.03</ele>
        <time>2021-03-20T14:34:27Z</time>
      </trkpt>
      <trkpt lat="56.66532" lon="-4.97918">
        <ele>189.44</ele>
        <time>2021-03-20T14:34:31Z</time>
      </trkpt>
      <trkpt lat="56.66533" lon="-4.97876">
        <ele>189.52</ele>
        <time>2021-03-20T14:34:35Z</time>
      </trkpt>
      <trkpt lat="56.66536" lon="-4.97854">
        <ele>189.86</ele>
        <time>2021-03-20T14:34:38Z</time>
      </trkpt>
      <trkpt lat="56.66551" lon="-4.97788">
        <ele>194.59</ele>
        <time>2021-03-20T14:34:42Z</time>
      </trkpt>
      <trkpt lat="56.66553" lon="-4.97764">
        <ele>195.34</ele>
        <time>2021-03-20T14:34:46Z</time>
      </trkpt>
      <trkpt lat="56.66553" lon="-4.97737">
        <ele>195.9</ele>
        <time>2021-03-20T14:34:50Z</time>
      </trkpt>
      <trkpt lat="56.66549" lon="-4.97702">
        <ele>195.95</ele>
        <time>2021-03-20T14:34:54Z</time>
      </trkpt>
      <trkpt lat="56.66506" lon="-4.97542">
        <ele>200.1</ele>
        <time>2021-03-20T14:34:58Z</time>
      </trkpt>
      <trkpt lat="56.66501" lon="-4.97513">
        <ele>199.7</ele>
        <time>2021-03-20T14:35:02Z</time>
      </trkpt>
      <trkpt lat="56.66492" lon="-4.97453">
        <ele>199.07</ele>
        <time>2021-03-20T14:35:05Z</time>
      </trkpt>
      <trkpt lat="56.6649" lon="-4.97406">
        <ele>200.52</ele>
        <time>2021-03-20T14:35:09Z</time>
      </trkpt>
      <trkpt lat="56.6649" lon="-4.97225">
        <ele>209.36</ele>
        <time>2021-03-20T14:35:13Z</time>
      </trkpt>
      <trkpt lat="56.66488" lon="-4.97193">
        <ele>211.36</ele>
        <time>2021-03-20T14:35:17Z</time>
      </trkpt>
      <trkpt lat="56.66483" lon="-4.9716">
        <ele>212.97</ele>
        <time>2021-03-20T14:35:21Z</time>
      </trkpt>
      <trkpt lat="56.66477" lon="-4.97138">
        <ele>213.88</ele>
        <time>2021-03-20T14:35:25Z</time>
      </trkpt>
      <trkpt lat="56.66468" lon="-4.97119">
        <ele>213.66</ele>
        <time>2021-03-20T14:35:29Z</time>
      </trkpt>
      <trkpt lat="56.66457" lon="-4.971">
        <ele>213.77</ele>
        <time>2021-03-20T14:35:33Z</time>
      </trkpt>
      <trkpt lat="56.66443" lon="-4.97085">
        <ele>213.42</ele>
        <time>2021-03-20T14:35:36Z</time>
      </trkpt>
      <trkpt lat="56.66412" lon="-4.97061">
        <ele>210.84</ele>
        <time>2021-03-20T14:35:40Z</time>
      </trkpt>
      <trkpt lat="56.66396" lon="-4.97043">
        <ele>212.01</ele>
        <time>2021-03-20T14:35:44Z</time>
      </trkpt>
      <trkpt lat="56.66372" lon="-4.97003">
        <ele>215.57</ele>
        <time>2021-03-20T14:35:48Z</time>
      </trkpt>
      <trkpt lat="56.66272" lon="-4.96756">
        <ele>229.06</ele>
        <time>2021-03-20T14:35:52Z</time>
      </trkpt>
      <trkpt lat="56.66258" lon="-4.96711">
        <ele>228.65</ele>
        <time>2021-03-20T14:35:56Z</time>
      </trkpt>
      <trkpt lat="56.66252" lon="-4.96683">
        <ele>228.29</ele>
        <time>2021-03-20T14:36:00Z</time>
      </trkpt>
      <trkpt lat="56.66251" lon="-4.96642">
        <ele>227.21</ele>
        <time>2021-03-20T14:36:04Z</time>
      </trkpt>
      <trkpt lat="56.66252" lon="-4.96615">
        <ele>228.37</ele>
        <time>2021-03-20T14:36:07Z</time>
      </trkpt>
      <trkpt lat="56.66257" lon="-4.96582">
        <ele>229.78</ele>
        <time>2021-03-20T14:36:11Z</time>
      </trkpt>
      <trkpt lat="56.66265" lon="-4.96554">
        <ele>231</ele>
        <time>2021-03-20T14:36:15Z</time>
      </trkpt>
      <trkpt lat="56.6628" lon="-4.9652">
        <ele>232.52</ele>
        <time>2021-03-20T14:36:19Z</time>
      </trkpt>
      <trkpt lat="56.66404" lon="-4.96278">
        <ele>246.4</ele>
        <time>2021-03-20T14:36:23Z</time>
      </trkpt>
      <trkpt lat="56.66413" lon="-4.96249">
        <ele>245.93</ele>
        <time>2021-03-20T14:36:27Z</time>
      </trkpt>
      <trkpt lat="56.66416" lon="-4.96208">
        <ele>247.86</ele>
        <time>2021-03-20T14:36:31Z</time>
      </trkpt>
      <trkpt lat="56.66412" lon="-4.9615">
        <ele>252.7</ele>
        <time>2021-03-20T14:36:34Z</time>
      </trkpt>
      <trkpt lat="56.66407" lon="-4.96131">
        <ele>253.98</ele>
        <time>2021-03-20T14:36:38Z</time>
      </trkpt>
      <trkpt lat="56.66388" lon="-4.96084">
        <ele>254.2</ele>
        <time>2021-03-20T14:36:42Z</time>
      </trkpt>
      <trkpt lat="56.66369" lon="-4.96048">
        <ele>254.53</ele>
        <time>2021-03-20T14:36:46Z</time>
      </trkpt>
      <trkpt lat="56.66339" lon="-4.95972">
        <ele>253.6</ele>
        <time>2021-03-20T14:36:50Z</time>
      </trkpt>
      <trkpt lat="56.66231" lon="-4.95647">
        <ele>254.03</ele>
        <time>2021-03-20T14:36:54Z</time>
      </trkpt>
      <trkpt lat="56.66216" lon="-4.95586">
        <ele>255.09</ele>
        <time>2021-03-20T14:36:58Z</time>
      </trkpt>
      <trkpt lat="56.66209" lon="-4.95521">
        <ele>257.59</ele>
        <time>2021-03-20T14:37:02Z</time>
      </trkpt>
      <trkpt lat="56.66208" lon="-4.95483">
        <ele>258.63</ele>
        <time>2021-03-20T14:37:05Z</time>
      </trkpt>
      <trkpt lat="56.66212" lon="-4.9543">
        <ele>259.48</ele>
        <time>2021-03-20T14:37:09Z</time>
      </trkpt>
      <trkpt lat="56.66221" lon="-4.95386">
        <ele>260.55</ele>
        <time>2021-03-20T14:37:13Z</time>
      </trkpt>
      <trkpt lat="56.66242" lon="-4.95321">
        <ele>261.77</ele>
        <time>2021-03-20T14:37:17Z</time>
      </trkpt>
      <trkpt lat="56.66268" lon="-4.95247">
        <ele>262.29</ele>
        <time>2021-03-20T14:37:21Z</time>
      </trkpt>
      <trkpt lat="56.66362" lon="-4.95001">
        <ele>272.92</ele>
        <time>2021-03-20T14:37:25Z</time>
      </trkpt>
      <trkpt lat="56.66371" lon="-4.94974">
        <ele>273.56</ele>
        <time>2021-03-20T14:37:29Z</time>
      </trkpt>
      <trkpt lat="56.66408" lon="-4.94851">
        <ele>276.04</ele>
        <time>2021-03-20T14:37:32Z</time>
      </trkpt>
      <trkpt lat="56.66424" lon="-4.94783">
        <ele>277.21</ele>
        <time>2021-03-20T14:37:36Z</time>
      </trkpt>
      <trkpt lat="56.66434" lon="-4.94709">
        <ele>279.67</ele>
        <time>2021-03-20T14:37:40Z</time>
      </trkpt>
      <trkpt lat="56.66438" lon="-4.94658">
        <ele>281.57</ele>
        <time>2021-03-20T14:37:44Z</time>
      </trkpt>
      <trkpt lat="56.66443" lon="-4.94544">
        <ele>284.35</ele>
        <time>2021-03-20T14:37:48Z</time>
      </trkpt>
      <trkpt lat="56.66441" lon="-4.94482">
        <ele>285.7</ele>
        <time>2021-03-20T14:37:52Z</time>
      </trkpt>
      <trkpt lat="56.66434" lon="-4.94398">
        <ele>286.23</ele>
        <time>2021-03-20T14:37:56Z</time>
      </trkpt>
      <trkpt lat="56.66154" lon="-4.9174">
        <ele>314.02</ele>
        <time>2021-03-20T14:38:00Z</time>
      </trkpt>
      <trkpt lat="56.66145" lon="-4.91644">
        <ele>311.6</ele>
        <time>2021-03-20T14:38:03Z</time>
      </trkpt>
      <trkpt lat="56.66139" lon="-4.91554">
        <ele>309.03</ele>
        <time>2021-03-20T14:38:07Z</time>
      </trkpt>
      <trkpt lat="56.66141" lon="-4.91455">
        <ele>310.09</ele>
        <time>2021-03-20T14:38:11Z</time>
      </trkpt>
      <trkpt lat="56.66149" lon="-4.91368">
        <ele>310.09</ele>
        <time>2021-03-20T14:38:15Z</time>
      </trkpt>
      <trkpt lat="56.66163" lon="-4.91275">
        <ele>307.88</ele>
        <time>2021-03-20T14:38:19Z</time>
      </trkpt>
      <trkpt lat="56.66193" lon="-4.9117">
        <ele>304.03</ele>
        <time>2021-03-20T14:38:23Z</time>
      </trkpt>
      <trkpt lat="56.66211" lon="-4.91114">
        <ele>304.14</ele>
        <time>2021-03-20T14:38:27Z</time>
      </trkpt>
      <trkpt lat="56.66235" lon="-4.91059">
        <ele>302.27</ele>
        <time>2021-03-20T14:38:31Z</time>
      </trkpt>
      <trkpt lat="56.66259" lon="-4.91015">
        <ele>300.58</ele>
        <time>2021-03-20T14:38:34Z</time>
      </trkpt>
      <trkpt lat="56.66369" lon="-4.90849">
        <ele>295.6</ele>
        <time>2021-03-20T14:38:38Z</time>
      </trkpt>
      <trkpt lat="56.66407" lon="-4.90782">
        <ele>296.76</ele>
        <time>2021-03-20T14:38:42Z</time>
      </trkpt>
      <trkpt lat="56.66444" lon="-4.9068">
        <ele>295.33</ele>
        <time>2021-03-20T14:38:46Z</time>
      </trkpt>
      <trkpt lat="56.66455" lon="-4.90632">
        <ele>292.9</ele>
        <time>2021-03-20T14:38:50Z</time>
      </trkpt>
      <trkpt lat="56.66468" lon="-4.90548">
        <ele>291.44</ele>
        <time>2021-03-20T14:38:54Z</time>
      </trkpt>
      <trkpt lat="56.66472" lon="-4.9049">
        <ele>291.99</ele>
        <time>2021-03-20T14:38:58Z</time>
      </trkpt>
      <trkpt lat="56.66473" lon="-4.90449">
        <ele>292.21</ele>
        <time>2021-03-20T14:39:01Z</time>
      </trkpt>
      <trkpt lat="56.6647" lon="-4.90372">
        <ele>291.61</ele>
        <time>2021-03-20T14:39:05Z</time>
      </trkpt>
      <trkpt lat="56.66463" lon="-4.90311">
        <ele>290.87</ele>
        <time>2021-03-20T14:39:09Z</time>
      </trkpt>
      <trkpt lat="56.66436" lon="-4.90192">
        <ele>288.29</ele>
        <time>2021-03-20T14:39:13Z</time>
      </trkpt>
      <trkpt lat="56.66401" lon="-4.90061">
        <ele>283.13</ele>
        <time>2021-03-20T14:39:17Z</time>
      </trkpt>
      <trkpt lat="56.65831" lon="-4.88064">
        <ele>272.48</ele>
        <time>2021-03-20T14:39:21Z</time>
      </trkpt>
      <trkpt lat="56.65816" lon="-4.88018">
        <ele>272.85</ele>
        <time>2021-03-20T14:39:25Z</time>
      </trkpt>
      <trkpt lat="56.65783" lon="-4.87941">
        <ele>274.59</ele>
        <time>2021-03-20T14:39:29Z</time>
      </trkpt>
      <trkpt lat="56.65746" lon="-4.87876">
        <ele>274.99</ele>
        <time>2021-03-20T14:39:32Z</time>
      </trkpt>
      <trkpt lat="56.65701" lon="-4.87777">
        <ele>273.68</ele>
        <time>2021-03-20T14:39:36Z</time>
      </trkpt>
      <trkpt lat="56.65692" lon="-4.87749">
        <ele>272.72</ele>
        <time>2021-03-20T14:39:40Z</time>
      </trkpt>
      <trkpt lat="56.65673" lon="-4.87679">
        <ele>271.66</ele>
        <time>2021-03-20T14:39:44Z</time>
      </trkpt>
      <trkpt lat="56.6566" lon="-4.87618">
        <ele>270.29</ele>
        <time>2021-03-20T14:39:48Z</time>
      </trkpt>
      <trkpt lat="56.65655" lon="-4.87584">
        <ele>269.76</ele>
        <time>2021-03-20T14:39:52Z</time>
      </trkpt>
      <trkpt lat="56.65649" lon="-4.87481">
        <ele>268.38</ele>
        <time>2021-03-20T14:39:56Z</time>
      </trkpt>
      <trkpt lat="56.65649" lon="-4.87426">
        <ele>266.39</ele>
        <time>2021-03-20T14:40:00Z</time>
      </trkpt>
      <trkpt lat="56.65654" lon="-4.87329">
        <ele>264.49</ele>
        <time>2021-03-20T14:40:03Z</time>
      </trkpt>
      <trkpt lat="56.65657" lon="-4.87203">
        <ele>260.93</ele>
        <time>2021-03-20T14:40:07Z</time>
      </trkpt>
      <trkpt lat="56.65655" lon="-4.87154">
        <ele>260.15</ele>
        <time>2021-03-20T14:40:11Z</time>
      </trkpt>
      <trkpt lat="56.65651" lon="-4.87107">
        <ele>259.82</ele>
        <time>2021-03-20T14:40:15Z</time>
      </trkpt>
      <trkpt lat="56.65642" lon="-4.87054">
        <ele>260.46</ele>
        <time>2021-03-20T14:40:19Z</time>
      </trkpt>
      <trkpt lat="56.6563" lon="-4.87">
        <ele>260.7</ele>
        <time>2021-03-20T14:40:23Z</time>
      </trkpt>
      <trkpt lat="56.65608" lon="-4.86913">
        <ele>258.79</ele>
        <time>2021-03-20T14:40:27Z</time>
      </trkpt>
      <trkpt lat="56.65425" lon="-4.86224">
        <ele>253.61</ele>
        <time>2021-03-20T14:40:31Z</time>
      </trkpt>
      <trkpt lat="56.65417" lon="-4.86135">
        <ele>252.87</ele>
        <time>2021-03-20T14:40:33Z</time>
      </trkpt>
      <trkpt lat="56.65404" lon="-4.86147">
        <ele>252.11</ele>
        <time>2021-03-20T14:40:35Z</time>
      </trkpt>
      <trkpt lat="56.6507" lon="-4.84902">
        <ele>243.47</ele>
        <time>2021-03-20T14:40:41Z</time>
      </trkpt>
      <trkpt lat="56.65032" lon="-4.84806">
        <ele>247.5</ele>
        <time>2021-03-20T14:40:47Z</time>
      </trkpt>
      <trkpt lat="56.64964" lon="-4.84681">
        <ele>249.06</ele>
        <time>2021-03-20T14:40:53Z</time>
      </trkpt>
      <trkpt lat="56.64844" lon="-4.84512">
        <ele>252.88</ele>
        <time>2021-03-20T14:40:59Z</time>
      </trkpt>
      <trkpt lat="56.64752" lon="-4.84375">
        <ele>255.83</ele>
        <time>2021-03-20T14:41:05Z</time>
      </trkpt>
      <trkpt lat="56.64725" lon="-4.84316">
        <ele>255.94</ele>
        <time>2021-03-20T14:41:11Z</time>
      </trkpt>
      <trkpt lat="56.64702" lon="-4.84259">
        <ele>257.47</ele>
        <time>2021-03-20T14:41:17Z</time>
      </trkpt>
      <trkpt lat="56.64686" lon="-4.84191">
        <ele>258.61</ele>
        <time>2021-03-20T14:41:23Z</time>
      </trkpt>
      <trkpt lat="56.64673" lon="-4.84078">
        <ele>261.55</ele>
        <time>2021-03-20T14:41:29Z</time>
      </trkpt>
      <trkpt lat="56.6467" lon="-4.83858">
        <ele>264.88</ele>
        <time>2021-03-20T14:41:35Z</time>
      </trkpt>
      <trkpt lat="56.64658" lon="-4.83731">
        <ele>270.28</ele>
        <time>2021-03-20T14:41:41Z</time>
      </trkpt>
      <trkpt lat="56.64639" lon="-4.83616">
        <ele>273.96</ele>
        <time>2021-03-20T14:41:47Z</time>
      </trkpt>
      <trkpt lat="56.64607" lon="-4.83482">
        <ele>275.29</ele>
        <time>2021-03-20T14:41:53Z</time>
      </trkpt>
      <trkpt lat="56.64508" lon="-4.83225">
        <ele>281.7</ele>
        <time>2021-03-20T14:41:59Z</time>
      </trkpt>
      <trkpt lat="56.6449" lon="-4.83176">
        <ele>282.79</ele>
        <time>2021-03-20T14:42:05Z</time>
      </trkpt>
      <trkpt lat="56.64323" lon="-4.82748">
        <ele>290.39</ele>
        <time>2021-03-20T14:42:11Z</time>
      </trkpt>
      <trkpt lat="56.64303" lon="-4.827">
        <ele>292.1</ele>
        <time>2021-03-20T14:42:17Z</time>
      </trkpt>
      <trkpt lat="56.64151" lon="-4.82303">
        <ele>300.55</ele>
        <time>2021-03-20T14:42:23Z</time>
      </trkpt>
      <trkpt lat="56.63834" lon="-4.81489">
        <ele>308.98</ele>
        <time>2021-03-20T14:42:29Z</time>
      </trkpt>
      <trkpt lat="56.63754" lon="-4.81266">
        <ele>309.87</ele>
        <time>2021-03-20T14:42:35Z</time>
      </trkpt>
      <trkpt lat="56.63678" lon="-4.81022">
        <ele>312.37</ele>
        <time>2021-03-20T14:42:41Z</time>
      </trkpt>
      <trkpt lat="56.63594" lon="-4.80663">
        <ele>318.62</ele>
        <time>2021-03-20T14:42:47Z</time>
      </trkpt>
      <trkpt lat="56.63492" lon="-4.80194">
        <ele>323.64</ele>
        <time>2021-03-20T14:42:53Z</time>
      </trkpt>
      <trkpt lat="56.63412" lon="-4.7985">
        <ele>328.14</ele>
        <time>2021-03-20T14:43:00Z</time>
      </trkpt>
      <trkpt lat="56.63353" lon="-4.79581">
        <ele>330.22</ele>
        <time>2021-03-20T14:43:06Z</time>
      </trkpt>
      <trkpt lat="56.63326" lon="-4.79445">
        <ele>328.57</ele>
        <time>2021-03-20T14:43:12Z</time>
      </trkpt>
      <trkpt lat="56.63245" lon="-4.79096">
        <ele>332.39</ele>
        <time>2021-03-20T14:43:18Z</time>
      </trkpt>
      <trkpt lat="56.63213" lon="-4.78924">
        <ele>335.67</ele>
        <time>2021-03-20T14:43:24Z</time>
      </trkpt>
      <trkpt lat="56.63107" lon="-4.78451">
        <ele>340.26</ele>
        <time>2021-03-20T14:43:30Z</time>
      </trkpt>
      <trkpt lat="56.63059" lon="-4.78228">
        <ele>342.65</ele>
        <time>2021-03-20T14:43:36Z</time>
      </trkpt>
      <trkpt lat="56.63007" lon="-4.77971">
        <ele>340.47</ele>
        <time>2021-03-20T14:43:42Z</time>
      </trkpt>
      <trkpt lat="56.62947" lon="-4.77731">
        <ele>342.02</ele>
        <time>2021-03-20T14:43:48Z</time>
      </trkpt>
      <trkpt lat="56.62873" lon="-4.77397">
        <ele>342.86</ele>
        <time>2021-03-20T14:43:54Z</time>
      </trkpt>
      <trkpt lat="56.62812" lon="-4.77137">
        <ele>344.85</ele>
        <time>2021-03-20T14:44:00Z</time>
      </trkpt>
      <trkpt lat="56.62771" lon="-4.77005">
        <ele>347.64</ele>
        <time>2021-03-20T14:44:06Z</time>
      </trkpt>
      <trkpt lat="56.62719" lon="-4.76894">
        <ele>348.12</ele>
        <time>2021-03-20T14:44:12Z</time>
      </trkpt>
      <trkpt lat="56.62646" lon="-4.76779">
        <ele>347.04</ele>
        <time>2021-03-20T14:44:18Z</time>
      </trkpt>
      <trkpt lat="56.62542" lon="-4.76674">
        <ele>346.75</ele>
        <time>2021-03-20T14:44:24Z</time>
      </trkpt>
      <trkpt lat="56.62325" lon="-4.76559">
        <ele>343.27</ele>
        <time>2021-03-20T14:44:30Z</time>
      </trkpt>
      <trkpt lat="56.62238" lon="-4.76539">
        <ele>343</ele>
        <time>2021-03-20T14:44:36Z</time>
      </trkpt>
      <trkpt lat="56.62163" lon="-4.76555">
        <ele>341.76</ele>
        <time>2021-03-20T14:44:42Z</time>
      </trkpt>
      <trkpt lat="56.62082" lon="-4.7661">
        <ele>338.89</ele>
        <time>2021-03-20T14:44:48Z</time>
      </trkpt>
      <trkpt lat="56.61992" lon="-4.76634">
        <ele>335.57</ele>
        <time>2021-03-20T14:44:54Z</time>
      </trkpt>
      <trkpt lat="56.61918" lon="-4.7662">
        <ele>333.98</ele>
        <time>2021-03-20T14:45:00Z</time>
      </trkpt>
      <trkpt lat="56.61805" lon="-4.76546">
        <ele>326.68</ele>
        <time>2021-03-20T14:45:06Z</time>
      </trkpt>
      <trkpt lat="56.61578" lon="-4.7635">
        <ele>321.4</ele>
        <time>2021-03-20T14:45:12Z</time>
      </trkpt>
      <trkpt lat="56.6132" lon="-4.76151">
        <ele>309.01</ele>
        <time>2021-03-20T14:45:18Z</time>
      </trkpt>
      <trkpt lat="56.60801" lon="-4.75732">
        <ele>296.65</ele>
        <time>2021-03-20T14:45:24Z</time>
      </trkpt>
      <trkpt lat="56.60662" lon="-4.75627">
        <ele>294</ele>
        <time>2021-03-20T14:45:30Z</time>
      </trkpt>
      <trkpt lat="56.6055" lon="-4.75535">
        <ele>295</ele>
        <time>2021-03-20T14:45:36Z</time>
      </trkpt>
      <trkpt lat="56.60476" lon="-4.75463">
        <ele>293</ele>
        <time>2021-03-20T14:45:42Z</time>
      </trkpt>
      <trkpt lat="56.60385" lon="-4.75361">
        <ele>297</ele>
        <time>2021-03-20T14:45:48Z</time>
      </trkpt>
      <trkpt lat="56.6031" lon="-4.75266">
        <ele>296.64</ele>
        <time>2021-03-20T14:45:54Z</time>
      </trkpt>
      <trkpt lat="56.60256" lon="-4.75188">
        <ele>294.95</ele>
        <time>2021-03-20T14:46:00Z</time>
      </trkpt>
      <trkpt lat="56.60206" lon="-4.75112">
        <ele>296.57</ele>
        <time>2021-03-20T14:46:06Z</time>
      </trkpt>
      <trkpt lat="56.60114" lon="-4.7495">
        <ele>296.93</ele>
        <time>2021-03-20T14:46:12Z</time>
      </trkpt>
      <trkpt lat="56.59934" lon="-4.74617">
        <ele>297</ele>
        <time>2021-03-20T14:46:18Z</time>
      </trkpt>
      <trkpt lat="56.59876" lon="-4.74516">
        <ele>297.7</ele>
        <time>2021-03-20T14:46:24Z</time>
      </trkpt>
      <trkpt lat="56.59828" lon="-4.74455">
        <ele>298</ele>
        <time>2021-03-20T14:46:30Z</time>
      </trkpt>
      <trkpt lat="56.5978" lon="-4.74409">
        <ele>298</ele>
        <time>2021-03-20T14:46:36Z</time>
      </trkpt>
      <trkpt lat="56.59723" lon="-4.7437">
        <ele>298</ele>
        <time>2021-03-20T14:46:42Z</time>
      </trkpt>
      <trkpt lat="56.59667" lon="-4.74345">
        <ele>296.57</ele>
        <time>2021-03-20T14:46:49Z</time>
      </trkpt>
      <trkpt lat="56.59625" lon="-4.74336">
        <ele>296.44</ele>
        <time>2021-03-20T14:46:55Z</time>
      </trkpt>
      <trkpt lat="56.59576" lon="-4.74336">
        <ele>296</ele>
        <time>2021-03-20T14:47:01Z</time>
      </trkpt>
      <trkpt lat="56.59517" lon="-4.74349">
        <ele>295.65</ele>
        <time>2021-03-20T14:47:07Z</time>
      </trkpt>
      <trkpt lat="56.58846" lon="-4.74628">
        <ele>306.14</ele>
        <time>2021-03-20T14:47:13Z</time>
      </trkpt>
      <trkpt lat="56.58788" lon="-4.74656">
        <ele>306.65</ele>
        <time>2021-03-20T14:47:19Z</time>
      </trkpt>
      <trkpt lat="56.58631" lon="-4.74712">
        <ele>313.28</ele>
        <time>2021-03-20T14:47:25Z</time>
      </trkpt>
      <trkpt lat="56.58529" lon="-4.7479">
        <ele>315.83</ele>
        <time>2021-03-20T14:47:31Z</time>
      </trkpt>
      <trkpt lat="56.58464" lon="-4.7485">
        <ele>315.69</ele>
        <time>2021-03-20T14:47:37Z</time>
      </trkpt>
      <trkpt lat="56.58358" lon="-4.74989">
        <ele>313.35</ele>
        <time>2021-03-20T14:47:43Z</time>
      </trkpt>
      <trkpt lat="56.58244" lon="-4.75168">
        <ele>311.41</ele>
        <time>2021-03-20T14:47:49Z</time>
      </trkpt>
      <trkpt lat="56.58131" lon="-4.75323">
        <ele>305.86</ele>
        <time>2021-03-20T14:47:55Z</time>
      </trkpt>
      <trkpt lat="56.58034" lon="-4.75445">
        <ele>302.46</ele>
        <time>2021-03-20T14:48:01Z</time>
      </trkpt>
      <trkpt lat="56.57941" lon="-4.75546">
        <ele>297.75</ele>
        <time>2021-03-20T14:48:07Z</time>
      </trkpt>
      <trkpt lat="56.57746" lon="-4.75671">
        <ele>294.53</ele>
        <time>2021-03-20T14:48:13Z</time>
      </trkpt>
      <trkpt lat="56.57489" lon="-4.7582">
        <ele>289</ele>
        <time>2021-03-20T14:48:19Z</time>
      </trkpt>
      <trkpt lat="56.57284" lon="-4.7593">
        <ele>283.64</ele>
        <time>2021-03-20T14:48:25Z</time>
      </trkpt>
      <trkpt lat="56.5727" lon="-4.75936">
        <ele>283.03</ele>
        <time>2021-03-20T14:48:31Z</time>
      </trkpt>
      <trkpt lat="56.57252" lon="-4.75939">
        <ele>282.25</ele>
        <time>2021-03-20T14:48:37Z</time>
      </trkpt>
      <trkpt lat="56.57223" lon="-4.75939">
        <ele>281.21</ele>
        <time>2021-03-20T14:48:43Z</time>
      </trkpt>
      <trkpt lat="56.5721" lon="-4.75937">
        <ele>280.83</ele>
        <time>2021-03-20T14:48:49Z</time>
      </trkpt>
      <trkpt lat="56.57175" lon="-4.75923">
        <ele>279.42</ele>
        <time>2021-03-20T14:48:55Z</time>
      </trkpt>
      <trkpt lat="56.57163" lon="-4.75915">
        <ele>278.46</ele>
        <time>2021-03-20T14:49:01Z</time>
      </trkpt>
      <trkpt lat="56.57139" lon="-4.75895">
        <ele>275.86</ele>
        <time>2021-03-20T14:49:07Z</time>
      </trkpt>
      <trkpt lat="56.57114" lon="-4.75865">
        <ele>273.35</ele>
        <time>2021-03-20T14:49:13Z</time>
      </trkpt>
      <trkpt lat="56.57102" lon="-4.75846">
        <ele>273.08</ele>
        <time>2021-03-20T14:49:19Z</time>
      </trkpt>
      <trkpt lat="56.57081" lon="-4.75805">
        <ele>271.7</ele>
        <time>2021-03-20T14:49:25Z</time>
      </trkpt>
      <trkpt lat="56.57017" lon="-4.75654">
        <ele>261.9</ele>
        <time>2021-03-20T14:49:31Z</time>
      </trkpt>
      <trkpt lat="56.57007" lon="-4.75634">
        <ele>261.35</ele>
        <time>2021-03-20T14:49:37Z</time>
      </trkpt>
      <trkpt lat="56.56988" lon="-4.756">
        <ele>260.14</ele>
        <time>2021-03-20T14:49:43Z</time>
      </trkpt>
      <trkpt lat="56.56961" lon="-4.75565">
        <ele>257.72</ele>
        <time>2021-03-20T14:49:49Z</time>
      </trkpt>
      <trkpt lat="56.56944" lon="-4.75547">
        <ele>256.32</ele>
        <time>2021-03-20T14:49:55Z</time>
      </trkpt>
      <trkpt lat="56.56909" lon="-4.75516">
        <ele>256.47</ele>
        <time>2021-03-20T14:50:01Z</time>
      </trkpt>
      <trkpt lat="56.56855" lon="-4.75473">
        <ele>254.27</ele>
        <time>2021-03-20T14:50:07Z</time>
      </trkpt>
      <trkpt lat="56.56829" lon="-4.7544">
        <ele>252.65</ele>
        <time>2021-03-20T14:50:13Z</time>
      </trkpt>
      <trkpt lat="56.56817" lon="-4.75417">
        <ele>251.84</ele>
        <time>2021-03-20T14:50:19Z</time>
      </trkpt>
      <trkpt lat="56.56809" lon="-4.75393">
        <ele>252.13</ele>
        <time>2021-03-20T14:50:25Z</time>
      </trkpt>
      <trkpt lat="56.56803" lon="-4.75361">
        <ele>250.68</ele>
        <time>2021-03-20T14:50:32Z</time>
      </trkpt>
      <trkpt lat="56.568" lon="-4.75327">
        <ele>249.13</ele>
        <time>2021-03-20T14:50:38Z</time>
      </trkpt>
      <trkpt lat="56.56803" lon="-4.75275">
        <ele>247.27</ele>
        <time>2021-03-20T14:50:44Z</time>
      </trkpt>
      <trkpt lat="56.56819" lon="-4.75097">
        <ele>241.4</ele>
        <time>2021-03-20T14:50:50Z</time>
      </trkpt>
      <trkpt lat="56.56822" lon="-4.75022">
        <ele>239</ele>
        <time>2021-03-20T14:50:56Z</time>
      </trkpt>
      <trkpt lat="56.56818" lon="-4.74946">
        <ele>235.97</ele>
        <time>2021-03-20T14:51:02Z</time>
      </trkpt>
      <trkpt lat="56.56811" lon="-4.74896">
        <ele>234.6</ele>
        <time>2021-03-20T14:51:08Z</time>
      </trkpt>
      <trkpt lat="56.5675" lon="-4.74655">
        <ele>225.93</ele>
        <time>2021-03-20T14:51:14Z</time>
      </trkpt>
      <trkpt lat="56.56744" lon="-4.74628">
        <ele>224.51</ele>
        <time>2021-03-20T14:51:20Z</time>
      </trkpt>
      <trkpt lat="56.56739" lon="-4.74599">
        <ele>223.07</ele>
        <time>2021-03-20T14:51:26Z</time>
      </trkpt>
      <trkpt lat="56.56735" lon="-4.74537">
        <ele>220.55</ele>
        <time>2021-03-20T14:51:32Z</time>
      </trkpt>
      <trkpt lat="56.56735" lon="-4.74486">
        <ele>219.07</ele>
        <time>2021-03-20T14:51:38Z</time>
      </trkpt>
      <trkpt lat="56.56741" lon="-4.74422">
        <ele>218.67</ele>
        <time>2021-03-20T14:51:44Z</time>
      </trkpt>
      <trkpt lat="56.5679" lon="-4.74008">
        <ele>210.94</ele>
        <time>2021-03-20T14:51:50Z</time>
      </trkpt>
      <trkpt lat="56.56791" lon="-4.73965">
        <ele>209.02</ele>
        <time>2021-03-20T14:51:56Z</time>
      </trkpt>
      <trkpt lat="56.56786" lon="-4.73925">
        <ele>206.74</ele>
        <time>2021-03-20T14:52:02Z</time>
      </trkpt>
      <trkpt lat="56.56782" lon="-4.73908">
        <ele>205.35</ele>
        <time>2021-03-20T14:52:08Z</time>
      </trkpt>
      <trkpt lat="56.56769" lon="-4.73876">
        <ele>203.07</ele>
        <time>2021-03-20T14:52:14Z</time>
      </trkpt>
      <trkpt lat="56.56755" lon="-4.73851">
        <ele>201.2</ele>
        <time>2021-03-20T14:52:20Z</time>
      </trkpt>
      <trkpt lat="56.56745" lon="-4.73839">
        <ele>199.89</ele>
        <time>2021-03-20T14:52:26Z</time>
      </trkpt>
      <trkpt lat="56.56723" lon="-4.73822">
        <ele>198.05</ele>
        <time>2021-03-20T14:52:32Z</time>
      </trkpt>
      <trkpt lat="56.56711" lon="-4.73818">
        <ele>197.17</ele>
        <time>2021-03-20T14:52:38Z</time>
      </trkpt>
      <trkpt lat="56.56687" lon="-4.73817">
        <ele>195.19</ele>
        <time>2021-03-20T14:52:44Z</time>
      </trkpt>
      <trkpt lat="56.56673" lon="-4.73823">
        <ele>193.7</ele>
        <time>2021-03-20T14:52:50Z</time>
      </trkpt>
      <trkpt lat="56.56658" lon="-4.73834">
        <ele>192.37</ele>
        <time>2021-03-20T14:52:56Z</time>
      </trkpt>
      <trkpt lat="56.56644" lon="-4.7385">
        <ele>191.97</ele>
        <time>2021-03-20T14:53:02Z</time>
      </trkpt>
      <trkpt lat="56.5663" lon="-4.73874">
        <ele>191.68</ele>
        <time>2021-03-20T14:53:08Z</time>
      </trkpt>
      <trkpt lat="56.56619" lon="-4.73903">
        <ele>191.4</ele>
        <time>2021-03-20T14:53:14Z</time>
      </trkpt>
      <trkpt lat="56.5659" lon="-4.7401">
        <ele>187.69</ele>
        <time>2021-03-20T14:53:20Z</time>
      </trkpt>
      <trkpt lat="56.56566" lon="-4.74086">
        <ele>186.73</ele>
        <time>2021-03-20T14:53:26Z</time>
      </trkpt>
      <trkpt lat="56.5654" lon="-4.74159">
        <ele>184.86</ele>
        <time>2021-03-20T14:53:32Z</time>
      </trkpt>
      <trkpt lat="56.56492" lon="-4.74264">
        <ele>180.45</ele>
        <time>2021-03-20T14:53:38Z</time>
      </trkpt>
      <trkpt lat="56.56464" lon="-4.74315">
        <ele>179.13</ele>
        <time>2021-03-20T14:53:44Z</time>
      </trkpt>
      <trkpt lat="56.56427" lon="-4.74376">
        <ele>176.92</ele>
        <time>2021-03-20T14:53:50Z</time>
      </trkpt>
      <trkpt lat="56.56368" lon="-4.74451">
        <ele>171.48</ele>
        <time>2021-03-20T14:53:56Z</time>
      </trkpt>
      <trkpt lat="56.56321" lon="-4.74495">
        <ele>169.55</ele>
        <time>2021-03-20T14:54:02Z</time>
      </trkpt>
      <trkpt lat="56.56286" lon="-4.7452">
        <ele>168.51</ele>
        <time>2021-03-20T14:54:08Z</time>
      </trkpt>
      <trkpt lat="56.56205" lon="-4.74565">
        <ele>167.38</ele>
        <time>2021-03-20T14:54:15Z</time>
      </trkpt>
      <trkpt lat="56.55367" lon="-4.74942">
        <ele>168.66</ele>
        <time>2021-03-20T14:54:21Z</time>
      </trkpt>
      <trkpt lat="56.55331" lon="-4.74961">
        <ele>168.45</ele>
        <time>2021-03-20T14:54:27Z</time>
      </trkpt>
      <trkpt lat="56.55287" lon="-4.74989">
        <ele>169.37</ele>
        <time>2021-03-20T14:54:33Z</time>
      </trkpt>
      <trkpt lat="56.55237" lon="-4.75032">
        <ele>170.71</ele>
        <time>2021-03-20T14:54:39Z</time>
      </trkpt>
      <trkpt lat="56.55192" lon="-4.7508">
        <ele>171.46</ele>
        <time>2021-03-20T14:54:45Z</time>
      </trkpt>
      <trkpt lat="56.55155" lon="-4.75125">
        <ele>172.5</ele>
        <time>2021-03-20T14:54:51Z</time>
      </trkpt>
      <trkpt lat="56.55113" lon="-4.75188">
        <ele>172.55</ele>
        <time>2021-03-20T14:54:57Z</time>
      </trkpt>
      <trkpt lat="56.55083" lon="-4.75238">
        <ele>171.95</ele>
        <time>2021-03-20T14:55:03Z</time>
      </trkpt>
      <trkpt lat="56.54983" lon="-4.75435">
        <ele>174.15</ele>
        <time>2021-03-20T14:55:09Z</time>
      </trkpt>
      <trkpt lat="56.5495" lon="-4.7549">
        <ele>175.14</ele>
        <time>2021-03-20T14:55:15Z</time>
      </trkpt>
      <trkpt lat="56.54923" lon="-4.7553">
        <ele>178.85</ele>
        <time>2021-03-20T14:55:21Z</time>
      </trkpt>
      <trkpt lat="56.54886" lon="-4.7558">
        <ele>180.07</ele>
        <time>2021-03-20T14:55:27Z</time>
      </trkpt>
      <trkpt lat="56.54817" lon="-4.75659">
        <ele>184.4</ele>
        <time>2021-03-20T14:55:33Z</time>
      </trkpt>
      <trkpt lat="56.54712" lon="-4.75772">
        <ele>183.63</ele>
        <time>2021-03-20T14:55:39Z</time>
      </trkpt>
      <trkpt lat="56.54511" lon="-4.76009">
        <ele>186.16</ele>
        <time>2021-03-20T14:55:45Z</time>
      </trkpt>
      <trkpt lat="56.54413" lon="-4.76117">
        <ele>187.67</ele>
        <time>2021-03-20T14:55:51Z</time>
      </trkpt>
      <trkpt lat="56.5421" lon="-4.7635">
        <ele>190.25</ele>
        <time>2021-03-20T14:55:57Z</time>
      </trkpt>
      <trkpt lat="56.54131" lon="-4.76437">
        <ele>192</ele>
        <time>2021-03-20T14:56:03Z</time>
      </trkpt>
      <trkpt lat="56.54086" lon="-4.76481">
        <ele>193.81</ele>
        <time>2021-03-20T14:56:09Z</time>
      </trkpt>
      <trkpt lat="56.54039" lon="-4.76522">
        <ele>193.2</ele>
        <time>2021-03-20T14:56:15Z</time>
      </trkpt>
      <trkpt lat="56.53962" lon="-4.76574">
        <ele>191.95</ele>
        <time>2021-03-20T14:56:21Z</time>
      </trkpt>
      <trkpt lat="56.53918" lon="-4.76598">
        <ele>191</ele>
        <time>2021-03-20T14:56:27Z</time>
      </trkpt>
      <trkpt lat="56.53864" lon="-4.76621">
        <ele>190.42</ele>
        <time>2021-03-20T14:56:33Z</time>
      </trkpt>
      <trkpt lat="56.53821" lon="-4.76635">
        <ele>188.43</ele>
        <time>2021-03-20T14:56:39Z</time>
      </trkpt>
      <trkpt lat="56.53741" lon="-4.76655">
        <ele>185.33</ele>
        <time>2021-03-20T14:56:45Z</time>
      </trkpt>
      <trkpt lat="56.5215" lon="-4.76713">
        <ele>161.81</ele>
        <time>2021-03-20T14:56:51Z</time>
      </trkpt>
      <trkpt lat="56.52087" lon="-4.76722">
        <ele>163.79</ele>
        <time>2021-03-20T14:56:57Z</time>
      </trkpt>
      <trkpt lat="56.52055" lon="-4.7673">
        <ele>163.71</ele>
        <time>2021-03-20T14:57:03Z</time>
      </trkpt>
      <trkpt lat="56.52" lon="-4.76752">
        <ele>162.95</ele>
        <time>2021-03-20T14:57:09Z</time>
      </trkpt>
      <trkpt lat="56.51886" lon="-4.76813">
        <ele>161.83</ele>
        <time>2021-03-20T14:57:15Z</time>
      </trkpt>
      <trkpt lat="56.51879" lon="-4.76817">
        <ele>161.95</ele>
        <time>2021-03-20T14:57:21Z</time>
      </trkpt>
      <trkpt lat="56.5183" lon="-4.76843">
        <ele>162.31</ele>
        <time>2021-03-20T14:57:27Z</time>
      </trkpt>
      <trkpt lat="56.51786" lon="-4.76863">
        <ele>161.64</ele>
        <time>2021-03-20T14:57:33Z</time>
      </trkpt>
      <trkpt lat="56.51757" lon="-4.76873">
        <ele>162.32</ele>
        <time>2021-03-20T14:57:39Z</time>
      </trkpt>
      <trkpt lat="56.51727" lon="-4.76879">
        <ele>163.18</ele>
        <time>2021-03-20T14:57:45Z</time>
      </trkpt>
      <trkpt lat="56.51661" lon="-4.76886">
        <ele>160.99</ele>
        <time>2021-03-20T14:57:51Z</time>
      </trkpt>
      <trkpt lat="56.51619" lon="-4.76882">
        <ele>159.6</ele>
        <time>2021-03-20T14:57:58Z</time>
      </trkpt>
      <trkpt lat="56.51572" lon="-4.76873">
        <ele>158</ele>
        <time>2021-03-20T14:58:04Z</time>
      </trkpt>
      <trkpt lat="56.51445" lon="-4.76839">
        <ele>158.55</ele>
        <time>2021-03-20T14:58:10Z</time>
      </trkpt>
      <trkpt lat="56.51345" lon="-4.76809">
        <ele>156.28</ele>
        <time>2021-03-20T14:58:16Z</time>
      </trkpt>
      <trkpt lat="56.5126" lon="-4.76803">
        <ele>154.52</ele>
        <time>2021-03-20T14:58:22Z</time>
      </trkpt>
      <trkpt lat="56.50804" lon="-4.76825">
        <ele>160.35</ele>
        <time>2021-03-20T14:58:28Z</time>
      </trkpt>
      <trkpt lat="56.50843" lon="-4.77049">
        <ele>154.91</ele>
        <time>2021-03-20T14:58:30Z</time>
      </trkpt>
      <trkpt lat="56.50845" lon="-4.7708">
        <ele>152.82</ele>
        <time>2021-03-20T14:58:32Z</time>
      </trkpt>
      <trkpt lat="56.50845" lon="-4.77114">
        <ele>151.44</ele>
        <time>2021-03-20T14:58:34Z</time>
      </trkpt>
      <trkpt lat="56.5084" lon="-4.77143">
        <ele>149.84</ele>
        <time>2021-03-20T14:58:36Z</time>
      </trkpt>
      <trkpt lat="56.50829" lon="-4.77179">
        <ele>149.16</ele>
        <time>2021-03-20T14:58:39Z</time>
      </trkpt>
      <trkpt lat="56.50776" lon="-4.77272">
        <ele>152.14</ele>
        <time>2021-03-20T14:58:41Z</time>
      </trkpt>
      <trkpt lat="56.50758" lon="-4.77307">
        <ele>152.66</ele>
        <time>2021-03-20T14:58:43Z</time>
      </trkpt>
      <trkpt lat="56.50749" lon="-4.77331">
        <ele>152.2</ele>
        <time>2021-03-20T14:58:45Z</time>
      </trkpt>
      <trkpt lat="56.50713" lon="-4.77454">
        <ele>150.57</ele>
        <time>2021-03-20T14:58:47Z</time>
      </trkpt>
      <trkpt lat="56.50657" lon="-4.77604">
        <ele>151</ele>
        <time>2021-03-20T14:58:50Z</time>
      </trkpt>
      <trkpt lat="56.50575" lon="-4.77815">
        <ele>149.76</ele>
        <time>2021-03-20T14:58:52Z</time>
      </trkpt>
      <trkpt lat="56.50558" lon="-4.77849">
        <ele>149.79</ele>
        <time>2021-03-20T14:58:54Z</time>
      </trkpt>
      <trkpt lat="56.50539" lon="-4.77876">
        <ele>149.64</ele>
        <time>2021-03-20T14:58:56Z</time>
      </trkpt>
      <trkpt lat="56.50519" lon="-4.77901">
        <ele>147.84</ele>
        <time>2021-03-20T14:58:58Z</time>
      </trkpt>
      <trkpt lat="56.50494" lon="-4.77927">
        <ele>145.24</ele>
        <time>2021-03-20T14:59:00Z</time>
      </trkpt>
      <trkpt lat="56.50464" lon="-4.77948">
        <ele>145.34</ele>
        <time>2021-03-20T14:59:03Z</time>
      </trkpt>
      <trkpt lat="56.50437" lon="-4.77971">
        <ele>145.66</ele>
        <time>2021-03-20T14:59:05Z</time>
      </trkpt>
      <trkpt lat="56.50385" lon="-4.77996">
        <ele>145.58</ele>
        <time>2021-03-20T14:59:07Z</time>
      </trkpt>
      <trkpt lat="56.50312" lon="-4.7806">
        <ele>146.15</ele>
        <time>2021-03-20T14:59:09Z</time>
      </trkpt>
      <trkpt lat="56.50193" lon="-4.78173">
        <ele>138.04</ele>
        <time>2021-03-20T14:59:11Z</time>
      </trkpt>
      <trkpt lat="56.5011" lon="-4.78228">
        <ele>137.7</ele>
        <time>2021-03-20T14:59:14Z</time>
      </trkpt>
      <trkpt lat="56.50073" lon="-4.78247">
        <ele>136.94</ele>
        <time>2021-03-20T14:59:16Z</time>
      </trkpt>
      <trkpt lat="56.50047" lon="-4.7826">
        <ele>137.32</ele>
        <time>2021-03-20T14:59:18Z</time>
      </trkpt>
      <trkpt lat="56.49938" lon="-4.78296">
        <ele>138.49</ele>
        <time>2021-03-20T14:59:20Z</time>
      </trkpt>
      <trkpt lat="56.49915" lon="-4.78308">
        <ele>138</ele>
        <time>2021-03-20T14:59:22Z</time>
      </trkpt>
      <trkpt lat="56.49869" lon="-4.78339">
        <ele>138.22</ele>
        <time>2021-03-20T14:59:24Z</time>
      </trkpt>
      <trkpt lat="56.49845" lon="-4.78363">
        <ele>139</ele>
        <time>2021-03-20T14:59:27Z</time>
      </trkpt>
      <trkpt lat="56.49825" lon="-4.78381">
        <ele>139.63</ele>
        <time>2021-03-20T14:59:29Z</time>
      </trkpt>
      <trkpt lat="56.49812" lon="-4.78389">
        <ele>140.54</ele>
        <time>2021-03-20T14:59:31Z</time>
      </trkpt>
      <trkpt lat="56.498" lon="-4.78401">
        <ele>141.12</ele>
        <time>2021-03-20T14:59:33Z</time>
      </trkpt>
      <trkpt lat="56.49788" lon="-4.78423">
        <ele>141</ele>
        <time>2021-03-20T14:59:35Z</time>
      </trkpt>
      <trkpt lat="56.4978" lon="-4.78449">
        <ele>140.83</ele>
        <time>2021-03-20T14:59:38Z</time>
      </trkpt>
      <trkpt lat="56.49768" lon="-4.78528">
        <ele>141.35</ele>
        <time>2021-03-20T14:59:40Z</time>
      </trkpt>
      <trkpt lat="56.49765" lon="-4.78541">
        <ele>141.47</ele>
        <time>2021-03-20T14:59:42Z</time>
      </trkpt>
      <trkpt lat="56.49756" lon="-4.78556">
        <ele>141.79</ele>
        <time>2021-03-20T14:59:44Z</time>
      </trkpt>
      <trkpt lat="56.49745" lon="-4.7857">
        <ele>142</ele>
        <time>2021-03-20T14:59:46Z</time>
      </trkpt>
      <trkpt lat="56.49722" lon="-4.78591">
        <ele>142</ele>
        <time>2021-03-20T14:59:48Z</time>
      </trkpt>
      <trkpt lat="56.49718" lon="-4.78601">
        <ele>142</ele>
        <time>2021-03-20T14:59:51Z</time>
      </trkpt>
      <trkpt lat="56.49707" lon="-4.78643">
        <ele>141</ele>
        <time>2021-03-20T14:59:53Z</time>
      </trkpt>
      <trkpt lat="56.497" lon="-4.78657">
        <ele>141</ele>
        <time>2021-03-20T14:59:55Z</time>
      </trkpt>
      <trkpt lat="56.49689" lon="-4.78672">
        <ele>140.99</ele>
        <time>2021-03-20T14:59:57Z</time>
      </trkpt>
      <trkpt lat="56.49661" lon="-4.7872">
        <ele>140.5</ele>
        <time>2021-03-20T14:59:59Z</time>
      </trkpt>
      <trkpt lat="56.49639" lon="-4.78752">
        <ele>140.91</ele>
        <time>2021-03-20T15:00:01Z</time>
      </trkpt>
      <trkpt lat="56.49623" lon="-4.78767">
        <ele>140.74</ele>
        <time>2021-03-20T15:00:04Z</time>
      </trkpt>
      <trkpt lat="56.49603" lon="-4.78794">
        <ele>141.96</ele>
        <time>2021-03-20T15:00:06Z</time>
      </trkpt>
      <trkpt lat="56.49552" lon="-4.78901">
        <ele>142.58</ele>
        <time>2021-03-20T15:00:08Z</time>
      </trkpt>
      <trkpt lat="56.4954" lon="-4.78915">
        <ele>142.77</ele>
        <time>2021-03-20T15:00:10Z</time>
      </trkpt>
      <trkpt lat="56.49506" lon="-4.78923">
        <ele>144.3</ele>
        <time>2021-03-20T15:00:12Z</time>
      </trkpt>
      <trkpt lat="56.49473" lon="-4.78954">
        <ele>142.64</ele>
        <time>2021-03-20T15:00:15Z</time>
      </trkpt>
      <trkpt lat="56.49466" lon="-4.78973">
        <ele>142.72</ele>
        <time>2021-03-20T15:00:17Z</time>
      </trkpt>
      <trkpt lat="56.49461" lon="-4.79">
        <ele>143.18</ele>
        <time>2021-03-20T15:00:19Z</time>
      </trkpt>
      <trkpt lat="56.49462" lon="-4.79027">
        <ele>145.07</ele>
        <time>2021-03-20T15:00:21Z</time>
      </trkpt>
      <trkpt lat="56.49466" lon="-4.79057">
        <ele>145.62</ele>
        <time>2021-03-20T15:00:23Z</time>
      </trkpt>
      <trkpt lat="56.49468" lon="-4.79084">
        <ele>144.76</ele>
        <time>2021-03-20T15:00:25Z</time>
      </trkpt>
      <trkpt lat="56.49469" lon="-4.79119">
        <ele>144.47</ele>
        <time>2021-03-20T15:00:28Z</time>
      </trkpt>
      <trkpt lat="56.49467" lon="-4.79147">
        <ele>143.74</ele>
        <time>2021-03-20T15:00:30Z</time>
      </trkpt>
      <trkpt lat="56.49455" lon="-4.79201">
        <ele>143.17</ele>
        <time>2021-03-20T15:00:32Z</time>
      </trkpt>
      <trkpt lat="56.49432" lon="-4.79259">
        <ele>143.16</ele>
        <time>2021-03-20T15:00:34Z</time>
      </trkpt>
      <trkpt lat="56.49411" lon="-4.79336">
        <ele>140.02</ele>
        <time>2021-03-20T15:00:36Z</time>
      </trkpt>
      <trkpt lat="56.49392" lon="-4.79382">
        <ele>140.01</ele>
        <time>2021-03-20T15:00:39Z</time>
      </trkpt>
      <trkpt lat="56.49386" lon="-4.7941">
        <ele>139.11</ele>
        <time>2021-03-20T15:00:41Z</time>
      </trkpt>
      <trkpt lat="56.49382" lon="-4.79491">
        <ele>134.7</ele>
        <time>2021-03-20T15:00:43Z</time>
      </trkpt>
      <trkpt lat="56.49377" lon="-4.79535">
        <ele>132.74</ele>
        <time>2021-03-20T15:00:45Z</time>
      </trkpt>
      <trkpt lat="56.4937" lon="-4.79567">
        <ele>131.58</ele>
        <time>2021-03-20T15:00:47Z</time>
      </trkpt>
      <trkpt lat="56.4936" lon="-4.79624">
        <ele>130.56</ele>
        <time>2021-03-20T15:00:49Z</time>
      </trkpt>
      <trkpt lat="56.4934" lon="-4.79686">
        <ele>130.23</ele>
        <time>2021-03-20T15:00:52Z</time>
      </trkpt>
      <trkpt lat="56.4933" lon="-4.79709">
        <ele>130</ele>
        <time>2021-03-20T15:00:54Z</time>
      </trkpt>
      <trkpt lat="56.49318" lon="-4.79725">
        <ele>130.13</ele>
        <time>2021-03-20T15:00:56Z</time>
      </trkpt>
      <trkpt lat="56.49252" lon="-4.79775">
        <ele>129.19</ele>
        <time>2021-03-20T15:00:58Z</time>
      </trkpt>
      <trkpt lat="56.49218" lon="-4.79806">
        <ele>131</ele>
        <time>2021-03-20T15:01:00Z</time>
      </trkpt>
      <trkpt lat="56.4918" lon="-4.7985">
        <ele>131</ele>
        <time>2021-03-20T15:01:02Z</time>
      </trkpt>
      <trkpt lat="56.49154" lon="-4.79855">
        <ele>131.1</ele>
        <time>2021-03-20T15:01:05Z</time>
      </trkpt>
      <trkpt lat="56.49142" lon="-4.79862">
        <ele>131</ele>
        <time>2021-03-20T15:01:07Z</time>
      </trkpt>
      <trkpt lat="56.49136" lon="-4.79883">
        <ele>131.09</ele>
        <time>2021-03-20T15:01:09Z</time>
      </trkpt>
      <trkpt lat="56.49135" lon="-4.79898">
        <ele>131.42</ele>
        <time>2021-03-20T15:01:11Z</time>
      </trkpt>
      <trkpt lat="56.49134" lon="-4.79929">
        <ele>132</ele>
        <time>2021-03-20T15:01:13Z</time>
      </trkpt>
      <trkpt lat="56.49141" lon="-4.79957">
        <ele>131.56</ele>
        <time>2021-03-20T15:01:16Z</time>
      </trkpt>
      <trkpt lat="56.49145" lon="-4.80004">
        <ele>129.85</ele>
        <time>2021-03-20T15:01:18Z</time>
      </trkpt>
      <trkpt lat="56.49149" lon="-4.80088">
        <ele>127.63</ele>
        <time>2021-03-20T15:01:20Z</time>
      </trkpt>
      <trkpt lat="56.49147" lon="-4.80126">
        <ele>127.17</ele>
        <time>2021-03-20T15:01:22Z</time>
      </trkpt>
      <trkpt lat="56.49143" lon="-4.80165">
        <ele>126.85</ele>
        <time>2021-03-20T15:01:24Z</time>
      </trkpt>
      <trkpt lat="56.49136" lon="-4.80187">
        <ele>127.1</ele>
        <time>2021-03-20T15:01:26Z</time>
      </trkpt>
      <trkpt lat="56.49074" lon="-4.8031">
        <ele>128.66</ele>
        <time>2021-03-20T15:01:29Z</time>
      </trkpt>
      <trkpt lat="56.49043" lon="-4.80389">
        <ele>127.55</ele>
        <time>2021-03-20T15:01:31Z</time>
      </trkpt>
      <trkpt lat="56.49029" lon="-4.8042">
        <ele>127.07</ele>
        <time>2021-03-20T15:01:33Z</time>
      </trkpt>
      <trkpt lat="56.49007" lon="-4.80461">
        <ele>126.68</ele>
        <time>2021-03-20T15:01:35Z</time>
      </trkpt>
      <trkpt lat="56.48956" lon="-4.80577">
        <ele>125.72</ele>
        <time>2021-03-20T15:01:37Z</time>
      </trkpt>
      <trkpt lat="56.48832" lon="-4.8085">
        <ele>123.4</ele>
        <time>2021-03-20T15:01:40Z</time>
      </trkpt>
      <trkpt lat="56.48816" lon="-4.80887">
        <ele>123</ele>
        <time>2021-03-20T15:01:42Z</time>
      </trkpt>
      <trkpt lat="56.48807" lon="-4.80915">
        <ele>124</ele>
        <time>2021-03-20T15:01:44Z</time>
      </trkpt>
      <trkpt lat="56.48795" lon="-4.80961">
        <ele>125.55</ele>
        <time>2021-03-20T15:01:46Z</time>
      </trkpt>
      <trkpt lat="56.48753" lon="-4.81093">
        <ele>128.51</ele>
        <time>2021-03-20T15:01:48Z</time>
      </trkpt>
      <trkpt lat="56.48726" lon="-4.81159">
        <ele>128.24</ele>
        <time>2021-03-20T15:01:50Z</time>
      </trkpt>
      <trkpt lat="56.48714" lon="-4.8118">
        <ele>127.85</ele>
        <time>2021-03-20T15:01:53Z</time>
      </trkpt>
      <trkpt lat="56.48668" lon="-4.81232">
        <ele>123.9</ele>
        <time>2021-03-20T15:01:55Z</time>
      </trkpt>
      <trkpt lat="56.48656" lon="-4.81239">
        <ele>123.98</ele>
        <time>2021-03-20T15:01:57Z</time>
      </trkpt>
      <trkpt lat="56.48564" lon="-4.81259">
        <ele>122.08</ele>
        <time>2021-03-20T15:01:59Z</time>
      </trkpt>
      <trkpt lat="56.48502" lon="-4.81281">
        <ele>121.2</ele>
        <time>2021-03-20T15:02:01Z</time>
      </trkpt>
      <trkpt lat="56.48449" lon="-4.81297">
        <ele>121.33</ele>
        <time>2021-03-20T15:02:04Z</time>
      </trkpt>
      <trkpt lat="56.4833" lon="-4.81337">
        <ele>121</ele>
        <time>2021-03-20T15:02:06Z</time>
      </trkpt>
      <trkpt lat="56.4829" lon="-4.81354">
        <ele>120.57</ele>
        <time>2021-03-20T15:02:08Z</time>
      </trkpt>
      <trkpt lat="56.4825" lon="-4.81366">
        <ele>119.82</ele>
        <time>2021-03-20T15:02:10Z</time>
      </trkpt>
      <trkpt lat="56.48235" lon="-4.81383">
        <ele>120.18</ele>
        <time>2021-03-20T15:02:12Z</time>
      </trkpt>
      <trkpt lat="56.48199" lon="-4.81434">
        <ele>120.3</ele>
        <time>2021-03-20T15:02:14Z</time>
      </trkpt>
      <trkpt lat="56.48169" lon="-4.81482">
        <ele>120.6</ele>
        <time>2021-03-20T15:02:17Z</time>
      </trkpt>
      <trkpt lat="56.48153" lon="-4.81511">
        <ele>121.77</ele>
        <time>2021-03-20T15:02:19Z</time>
      </trkpt>
      <trkpt lat="56.48084" lon="-4.81678">
        <ele>117.61</ele>
        <time>2021-03-20T15:02:21Z</time>
      </trkpt>
      <trkpt lat="56.48056" lon="-4.81733">
        <ele>115.63</ele>
        <time>2021-03-20T15:02:23Z</time>
      </trkpt>
      <trkpt lat="56.48018" lon="-4.8179">
        <ele>115.58</ele>
        <time>2021-03-20T15:02:25Z</time>
      </trkpt>
      <trkpt lat="56.47961" lon="-4.81866">
        <ele>115.22</ele>
        <time>2021-03-20T15:02:27Z</time>
      </trkpt>
      <trkpt lat="56.47906" lon="-4.81925">
        <ele>112.88</ele>
        <time>2021-03-20T15:02:30Z</time>
      </trkpt>
      <trkpt lat="56.47851" lon="-4.82">
        <ele>111</ele>
        <time>2021-03-20T15:02:32Z</time>
      </trkpt>
      <trkpt lat="56.47811" lon="-4.8206">
        <ele>109.88</ele>
        <time>2021-03-20T15:02:34Z</time>
      </trkpt>
      <trkpt lat="56.47785" lon="-4.82094">
        <ele>108.61</ele>
        <time>2021-03-20T15:02:36Z</time>
      </trkpt>
      <trkpt lat="56.47757" lon="-4.82122">
        <ele>108.37</ele>
        <time>2021-03-20T15:02:38Z</time>
      </trkpt>
      <trkpt lat="56.47741" lon="-4.82142">
        <ele>107.92</ele>
        <time>2021-03-20T15:02:41Z</time>
      </trkpt>
      <trkpt lat="56.47731" lon="-4.82166">
        <ele>107.67</ele>
        <time>2021-03-20T15:02:43Z</time>
      </trkpt>
      <trkpt lat="56.47704" lon="-4.82255">
        <ele>107</ele>
        <time>2021-03-20T15:02:45Z</time>
      </trkpt>
      <trkpt lat="56.47655" lon="-4.82436">
        <ele>107.57</ele>
        <time>2021-03-20T15:02:47Z</time>
      </trkpt>
      <trkpt lat="56.47638" lon="-4.82488">
        <ele>106.96</ele>
        <time>2021-03-20T15:02:49Z</time>
      </trkpt>
      <trkpt lat="56.4763" lon="-4.82507">
        <ele>106.59</ele>
        <time>2021-03-20T15:02:51Z</time>
      </trkpt>
      <trkpt lat="56.4762" lon="-4.82522">
        <ele>105.8</ele>
        <time>2021-03-20T15:02:54Z</time>
      </trkpt>
      <trkpt lat="56.47581" lon="-4.8257">
        <ele>104.46</ele>
        <time>2021-03-20T15:02:56Z</time>
      </trkpt>
      <trkpt lat="56.47551" lon="-4.826">
        <ele>104</ele>
        <time>2021-03-20T15:02:58Z</time>
      </trkpt>
      <trkpt lat="56.47515" lon="-4.82623">
        <ele>104.89</ele>
        <time>2021-03-20T15:03:00Z</time>
      </trkpt>
      <trkpt lat="56.47457" lon="-4.82667">
        <ele>106.03</ele>
        <time>2021-03-20T15:03:02Z</time>
      </trkpt>
      <trkpt lat="56.4743" lon="-4.82679">
        <ele>106.43</ele>
        <time>2021-03-20T15:03:05Z</time>
      </trkpt>
      <trkpt lat="56.47415" lon="-4.82681">
        <ele>106.45</ele>
        <time>2021-03-20T15:03:07Z</time>
      </trkpt>
      <trkpt lat="56.47367" lon="-4.82662">
        <ele>104.23</ele>
        <time>2021-03-20T15:03:09Z</time>
      </trkpt>
      <trkpt lat="56.47299" lon="-4.82652">
        <ele>107.62</ele>
        <time>2021-03-20T15:03:11Z</time>
      </trkpt>
      <trkpt lat="56.47286" lon="-4.82646">
        <ele>108.6</ele>
        <time>2021-03-20T15:03:13Z</time>
      </trkpt>
      <trkpt lat="56.47263" lon="-4.82594">
        <ele>108.55</ele>
        <time>2021-03-20T15:03:15Z</time>
      </trkpt>
      <trkpt lat="56.4725" lon="-4.82583">
        <ele>109</ele>
        <time>2021-03-20T15:03:18Z</time>
      </trkpt>
      <trkpt lat="56.47235" lon="-4.8258">
        <ele>109.06</ele>
        <time>2021-03-20T15:03:20Z</time>
      </trkpt>
      <trkpt lat="56.47223" lon="-4.82584">
        <ele>109</ele>
        <time>2021-03-20T15:03:22Z</time>
      </trkpt>
      <trkpt lat="56.47215" lon="-4.82595">
        <ele>109.27</ele>
        <time>2021-03-20T15:03:24Z</time>
      </trkpt>
      <trkpt lat="56.47189" lon="-4.82657">
        <ele>110.19</ele>
        <time>2021-03-20T15:03:26Z</time>
      </trkpt>
      <trkpt lat="56.47159" lon="-4.8272">
        <ele>110.74</ele>
        <time>2021-03-20T15:03:28Z</time>
      </trkpt>
      <trkpt lat="56.47156" lon="-4.8274">
        <ele>109.96</ele>
        <time>2021-03-20T15:03:31Z</time>
      </trkpt>
      <trkpt lat="56.47154" lon="-4.82788">
        <ele>108.78</ele>
        <time>2021-03-20T15:03:33Z</time>
      </trkpt>
      <trkpt lat="56.47155" lon="-4.82854">
        <ele>105.25</ele>
        <time>2021-03-20T15:03:35Z</time>
      </trkpt>
      <trkpt lat="56.47153" lon="-4.82884">
        <ele>104.58</ele>
        <time>2021-03-20T15:03:37Z</time>
      </trkpt>
      <trkpt lat="56.47144" lon="-4.82928">
        <ele>104</ele>
        <time>2021-03-20T15:03:39Z</time>
      </trkpt>
      <trkpt lat="56.4714" lon="-4.8294">
        <ele>104</ele>
        <time>2021-03-20T15:03:42Z</time>
      </trkpt>
      <trkpt lat="56.47132" lon="-4.82955">
        <ele>103.63</ele>
        <time>2021-03-20T15:03:44Z</time>
      </trkpt>
      <trkpt lat="56.47082" lon="-4.83012">
        <ele>102.54</ele>
        <time>2021-03-20T15:03:46Z</time>
      </trkpt>
      <trkpt lat="56.47071" lon="-4.83017">
        <ele>102.21</ele>
        <time>2021-03-20T15:03:48Z</time>
      </trkpt>
      <trkpt lat="56.47038" lon="-4.83021">
        <ele>102.17</ele>
        <time>2021-03-20T15:03:50Z</time>
      </trkpt>
      <trkpt lat="56.4701" lon="-4.83027">
        <ele>102.64</ele>
        <time>2021-03-20T15:03:52Z</time>
      </trkpt>
      <trkpt lat="56.4699" lon="-4.83034">
        <ele>103.61</ele>
        <time>2021-03-20T15:03:55Z</time>
      </trkpt>
      <trkpt lat="56.46979" lon="-4.83042">
        <ele>104.37</ele>
        <time>2021-03-20T15:03:57Z</time>
      </trkpt>
      <trkpt lat="56.46755" lon="-4.83312">
        <ele>110.36</ele>
        <time>2021-03-20T15:03:59Z</time>
      </trkpt>
      <trkpt lat="56.46727" lon="-4.83341">
        <ele>110.33</ele>
        <time>2021-03-20T15:04:01Z</time>
      </trkpt>
      <trkpt lat="56.46703" lon="-4.83373">
        <ele>109.25</ele>
        <time>2021-03-20T15:04:03Z</time>
      </trkpt>
      <trkpt lat="56.46627" lon="-4.83436">
        <ele>112.42</ele>
        <time>2021-03-20T15:04:06Z</time>
      </trkpt>
      <trkpt lat="56.4656" lon="-4.83513">
        <ele>114.43</ele>
        <time>2021-03-20T15:04:08Z</time>
      </trkpt>
      <trkpt lat="56.46554" lon="-4.83527">
        <ele>114.5</ele>
        <time>2021-03-20T15:04:10Z</time>
      </trkpt>
      <trkpt lat="56.46549" lon="-4.83544">
        <ele>114.17</ele>
        <time>2021-03-20T15:04:12Z</time>
      </trkpt>
      <trkpt lat="56.46533" lon="-4.83637">
        <ele>112.21</ele>
        <time>2021-03-20T15:04:14Z</time>
      </trkpt>
      <trkpt lat="56.46522" lon="-4.8368">
        <ele>112.95</ele>
        <time>2021-03-20T15:04:16Z</time>
      </trkpt>
      <trkpt lat="56.46517" lon="-4.83694">
        <ele>113.97</ele>
        <time>2021-03-20T15:04:19Z</time>
      </trkpt>
      <trkpt lat="56.46509" lon="-4.83705">
        <ele>115.36</ele>
        <time>2021-03-20T15:04:21Z</time>
      </trkpt>
      <trkpt lat="56.4645" lon="-4.83743">
        <ele>115.59</ele>
        <time>2021-03-20T15:04:23Z</time>
      </trkpt>
      <trkpt lat="56.46442" lon="-4.8375">
        <ele>115.08</ele>
        <time>2021-03-20T15:04:25Z</time>
      </trkpt>
      <trkpt lat="56.46435" lon="-4.83764">
        <ele>115.34</ele>
        <time>2021-03-20T15:04:27Z</time>
      </trkpt>
      <trkpt lat="56.46428" lon="-4.83787">
        <ele>114.93</ele>
        <time>2021-03-20T15:04:29Z</time>
      </trkpt>
      <trkpt lat="56.4642" lon="-4.83807">
        <ele>113.79</ele>
        <time>2021-03-20T15:04:32Z</time>
      </trkpt>
      <trkpt lat="56.4641" lon="-4.83819">
        <ele>113.41</ele>
        <time>2021-03-20T15:04:34Z</time>
      </trkpt>
      <trkpt lat="56.464" lon="-4.83825">
        <ele>113.63</ele>
        <time>2021-03-20T15:04:36Z</time>
      </trkpt>
      <trkpt lat="56.46377" lon="-4.83811">
        <ele>115.7</ele>
        <time>2021-03-20T15:04:38Z</time>
      </trkpt>
      <trkpt lat="56.46369" lon="-4.83812">
        <ele>116.22</ele>
        <time>2021-03-20T15:04:40Z</time>
      </trkpt>
      <trkpt lat="56.46334" lon="-4.83847">
        <ele>116.98</ele>
        <time>2021-03-20T15:04:43Z</time>
      </trkpt>
      <trkpt lat="56.46287" lon="-4.83868">
        <ele>116.86</ele>
        <time>2021-03-20T15:04:45Z</time>
      </trkpt>
      <trkpt lat="56.46273" lon="-4.83871">
        <ele>117.92</ele>
        <time>2021-03-20T15:04:47Z</time>
      </trkpt>
      <trkpt lat="56.46233" lon="-4.83871">
        <ele>122.26</ele>
        <time>2021-03-20T15:04:49Z</time>
      </trkpt>
      <trkpt lat="56.46175" lon="-4.83898">
        <ele>123.04</ele>
        <time>2021-03-20T15:04:51Z</time>
      </trkpt>
      <trkpt lat="56.46129" lon="-4.83901">
        <ele>124.27</ele>
        <time>2021-03-20T15:04:53Z</time>
      </trkpt>
      <trkpt lat="56.46087" lon="-4.83899">
        <ele>126.4</ele>
        <time>2021-03-20T15:04:56Z</time>
      </trkpt>
      <trkpt lat="56.46058" lon="-4.83894">
        <ele>127.71</ele>
        <time>2021-03-20T15:04:58Z</time>
      </trkpt>
      <trkpt lat="56.46047" lon="-4.83895">
        <ele>128.08</ele>
        <time>2021-03-20T15:05:00Z</time>
      </trkpt>
      <trkpt lat="56.46032" lon="-4.839">
        <ele>128.42</ele>
        <time>2021-03-20T15:05:02Z</time>
      </trkpt>
      <trkpt lat="56.46011" lon="-4.83915">
        <ele>129.24</ele>
        <time>2021-03-20T15:05:04Z</time>
      </trkpt>
      <trkpt lat="56.45949" lon="-4.83987">
        <ele>127.69</ele>
        <time>2021-03-20T15:05:07Z</time>
      </trkpt>
      <trkpt lat="56.45941" lon="-4.83992">
        <ele>127.46</ele>
        <time>2021-03-20T15:05:09Z</time>
      </trkpt>
      <trkpt lat="56.45903" lon="-4.84001">
        <ele>125.36</ele>
        <time>2021-03-20T15:05:11Z</time>
      </trkpt>
      <trkpt lat="56.45851" lon="-4.8399">
        <ele>125.09</ele>
        <time>2021-03-20T15:05:13Z</time>
      </trkpt>
      <trkpt lat="56.45748" lon="-4.8399">
        <ele>121.17</ele>
        <time>2021-03-20T15:05:15Z</time>
      </trkpt>
      <trkpt lat="56.45731" lon="-4.83995">
        <ele>121.75</ele>
        <time>2021-03-20T15:05:17Z</time>
      </trkpt>
      <trkpt lat="56.45722" lon="-4.84004">
        <ele>121.9</ele>
        <time>2021-03-20T15:05:20Z</time>
      </trkpt>
      <trkpt lat="56.45712" lon="-4.84019">
        <ele>122.14</ele>
        <time>2021-03-20T15:05:22Z</time>
      </trkpt>
      <trkpt lat="56.45704" lon="-4.84037">
        <ele>122.08</ele>
        <time>2021-03-20T15:05:24Z</time>
      </trkpt>
      <trkpt lat="56.45665" lon="-4.84087">
        <ele>121.72</ele>
        <time>2021-03-20T15:05:26Z</time>
      </trkpt>
      <trkpt lat="56.4565" lon="-4.84097">
        <ele>120.35</ele>
        <time>2021-03-20T15:05:28Z</time>
      </trkpt>
      <trkpt lat="56.45627" lon="-4.84105">
        <ele>119.65</ele>
        <time>2021-03-20T15:05:31Z</time>
      </trkpt>
      <trkpt lat="56.45613" lon="-4.84115">
        <ele>119.79</ele>
        <time>2021-03-20T15:05:33Z</time>
      </trkpt>
      <trkpt lat="56.45603" lon="-4.84133">
        <ele>120.77</ele>
        <time>2021-03-20T15:05:35Z</time>
      </trkpt>
      <trkpt lat="56.45549" lon="-4.84287">
        <ele>113.78</ele>
        <time>2021-03-20T15:05:37Z</time>
      </trkpt>
      <trkpt lat="56.45537" lon="-4.84303">
        <ele>112.92</ele>
        <time>2021-03-20T15:05:39Z</time>
      </trkpt>
      <trkpt lat="56.45501" lon="-4.84346">
        <ele>110.09</ele>
        <time>2021-03-20T15:05:41Z</time>
      </trkpt>
      <trkpt lat="56.45465" lon="-4.84397">
        <ele>107.88</ele>
        <time>2021-03-20T15:05:44Z</time>
      </trkpt>
      <trkpt lat="56.45428" lon="-4.84432">
        <ele>105.35</ele>
        <time>2021-03-20T15:05:46Z</time>
      </trkpt>
      <trkpt lat="56.45394" lon="-4.84471">
        <ele>102.95</ele>
        <time>2021-03-20T15:05:48Z</time>
      </trkpt>
      <trkpt lat="56.45387" lon="-4.84486">
        <ele>101.72</ele>
        <time>2021-03-20T15:05:50Z</time>
      </trkpt>
      <trkpt lat="56.45382" lon="-4.84506">
        <ele>100.29</ele>
        <time>2021-03-20T15:05:52Z</time>
      </trkpt>
      <trkpt lat="56.45372" lon="-4.84651">
        <ele>90.76</ele>
        <time>2021-03-20T15:05:54Z</time>
      </trkpt>
      <trkpt lat="56.45372" lon="-4.84679">
        <ele>88.29</ele>
        <time>2021-03-20T15:05:57Z</time>
      </trkpt>
      <trkpt lat="56.4537" lon="-4.84691">
        <ele>87.01</ele>
        <time>2021-03-20T15:05:59Z</time>
      </trkpt>
      <trkpt lat="56.45366" lon="-4.84704">
        <ele>86.11</ele>
        <time>2021-03-20T15:06:01Z</time>
      </trkpt>
      <trkpt lat="56.45337" lon="-4.84746">
        <ele>86.12</ele>
        <time>2021-03-20T15:06:03Z</time>
      </trkpt>
      <trkpt lat="56.45268" lon="-4.84829">
        <ele>84.7</ele>
        <time>2021-03-20T15:06:05Z</time>
      </trkpt>
      <trkpt lat="56.45211" lon="-4.84876">
        <ele>84.25</ele>
        <time>2021-03-20T15:06:08Z</time>
      </trkpt>
      <trkpt lat="56.45134" lon="-4.84959">
        <ele>83.75</ele>
        <time>2021-03-20T15:06:10Z</time>
      </trkpt>
      <trkpt lat="56.44989" lon="-4.85082">
        <ele>81.15</ele>
        <time>2021-03-20T15:06:12Z</time>
      </trkpt>
      <trkpt lat="56.4497" lon="-4.85094">
        <ele>80.35</ele>
        <time>2021-03-20T15:06:14Z</time>
      </trkpt>
      <trkpt lat="56.4489" lon="-4.85127">
        <ele>79.87</ele>
        <time>2021-03-20T15:06:16Z</time>
      </trkpt>
      <trkpt lat="56.44833" lon="-4.85163">
        <ele>76.47</ele>
        <time>2021-03-20T15:06:18Z</time>
      </trkpt>
      <trkpt lat="56.44735" lon="-4.85241">
        <ele>76.62</ele>
        <time>2021-03-20T15:06:21Z</time>
      </trkpt>
      <trkpt lat="56.44695" lon="-4.85264">
        <ele>75</ele>
        <time>2021-03-20T15:06:23Z</time>
      </trkpt>
      <trkpt lat="56.44607" lon="-4.8527">
        <ele>76.14</ele>
        <time>2021-03-20T15:06:25Z</time>
      </trkpt>
      <trkpt lat="56.44563" lon="-4.85294">
        <ele>76.75</ele>
        <time>2021-03-20T15:06:27Z</time>
      </trkpt>
      <trkpt lat="56.44433" lon="-4.85383">
        <ele>71.45</ele>
        <time>2021-03-20T15:06:29Z</time>
      </trkpt>
      <trkpt lat="56.44393" lon="-4.85405">
        <ele>70.43</ele>
        <time>2021-03-20T15:06:32Z</time>
      </trkpt>
      <trkpt lat="56.44374" lon="-4.85408">
        <ele>70.84</ele>
        <time>2021-03-20T15:06:34Z</time>
      </trkpt>
      <trkpt lat="56.4432" lon="-4.85406">
        <ele>72.87</ele>
        <time>2021-03-20T15:06:36Z</time>
      </trkpt>
      <trkpt lat="56.44269" lon="-4.85413">
        <ele>73.11</ele>
        <time>2021-03-20T15:06:38Z</time>
      </trkpt>
      <trkpt lat="56.44247" lon="-4.85424">
        <ele>73.07</ele>
        <time>2021-03-20T15:06:40Z</time>
      </trkpt>
      <trkpt lat="56.44237" lon="-4.85432">
        <ele>73.2</ele>
        <time>2021-03-20T15:06:42Z</time>
      </trkpt>
      <trkpt lat="56.44215" lon="-4.85459">
        <ele>72.5</ele>
        <time>2021-03-20T15:06:45Z</time>
      </trkpt>
      <trkpt lat="56.442" lon="-4.85473">
        <ele>71.97</ele>
        <time>2021-03-20T15:06:47Z</time>
      </trkpt>
      <trkpt lat="56.44184" lon="-4.85485">
        <ele>71.17</ele>
        <time>2021-03-20T15:06:49Z</time>
      </trkpt>
      <trkpt lat="56.44166" lon="-4.85492">
        <ele>70.28</ele>
        <time>2021-03-20T15:06:51Z</time>
      </trkpt>
      <trkpt lat="56.44129" lon="-4.85501">
        <ele>70.32</ele>
        <time>2021-03-20T15:06:53Z</time>
      </trkpt>
      <trkpt lat="56.44104" lon="-4.85502">
        <ele>70.92</ele>
        <time>2021-03-20T15:06:55Z</time>
      </trkpt>
      <trkpt lat="56.44081" lon="-4.85497">
        <ele>71.21</ele>
        <time>2021-03-20T15:06:58Z</time>
      </trkpt>
      <trkpt lat="56.4406" lon="-4.85483">
        <ele>72.26</ele>
        <time>2021-03-20T15:07:00Z</time>
      </trkpt>
      <trkpt lat="56.4405" lon="-4.85482">
        <ele>72.65</ele>
        <time>2021-03-20T15:07:02Z</time>
      </trkpt>
      <trkpt lat="56.43994" lon="-4.85514">
        <ele>73.98</ele>
        <time>2021-03-20T15:07:04Z</time>
      </trkpt>
      <trkpt lat="56.43982" lon="-4.85525">
        <ele>73.17</ele>
        <time>2021-03-20T15:07:06Z</time>
      </trkpt>
      <trkpt lat="56.43973" lon="-4.85538">
        <ele>72.64</ele>
        <time>2021-03-20T15:07:09Z</time>
      </trkpt>
      <trkpt lat="56.43964" lon="-4.85556">
        <ele>72.26</ele>
        <time>2021-03-20T15:07:11Z</time>
      </trkpt>
      <trkpt lat="56.43958" lon="-4.85617">
        <ele>70.28</ele>
        <time>2021-03-20T15:07:13Z</time>
      </trkpt>
      <trkpt lat="56.43941" lon="-4.85696">
        <ele>67.97</ele>
        <time>2021-03-20T15:07:15Z</time>
      </trkpt>
      <trkpt lat="56.43929" lon="-4.85727">
        <ele>67.46</ele>
        <time>2021-03-20T15:07:17Z</time>
      </trkpt>
      <trkpt lat="56.43915" lon="-4.85756">
        <ele>67.07</ele>
        <time>2021-03-20T15:07:19Z</time>
      </trkpt>
      <trkpt lat="56.43875" lon="-4.85814">
        <ele>68</ele>
        <time>2021-03-20T15:07:22Z</time>
      </trkpt>
      <trkpt lat="56.43831" lon="-4.85874">
        <ele>68</ele>
        <time>2021-03-20T15:07:24Z</time>
      </trkpt>
      <trkpt lat="56.43751" lon="-4.85961">
        <ele>65.58</ele>
        <time>2021-03-20T15:07:26Z</time>
      </trkpt>
      <trkpt lat="56.43729" lon="-4.85974">
        <ele>66</ele>
        <time>2021-03-20T15:07:28Z</time>
      </trkpt>
      <trkpt lat="56.43717" lon="-4.85985">
        <ele>66</ele>
        <time>2021-03-20T15:07:30Z</time>
      </trkpt>
      <trkpt lat="56.43705" lon="-4.86001">
        <ele>65.98</ele>
        <time>2021-03-20T15:07:33Z</time>
      </trkpt>
      <trkpt lat="56.43664" lon="-4.8608">
        <ele>65.09</ele>
        <time>2021-03-20T15:07:35Z</time>
      </trkpt>
      <trkpt lat="56.4364" lon="-4.86121">
        <ele>65.61</ele>
        <time>2021-03-20T15:07:37Z</time>
      </trkpt>
      <trkpt lat="56.43619" lon="-4.86164">
        <ele>65</ele>
        <time>2021-03-20T15:07:39Z</time>
      </trkpt>
      <trkpt lat="56.43605" lon="-4.86219">
        <ele>64.79</ele>
        <time>2021-03-20T15:07:41Z</time>
      </trkpt>
      <trkpt lat="56.43594" lon="-4.86273">
        <ele>65</ele>
        <time>2021-03-20T15:07:43Z</time>
      </trkpt>
      <trkpt lat="56.43592" lon="-4.863">
        <ele>65</ele>
        <time>2021-03-20T15:07:46Z</time>
      </trkpt>
      <trkpt lat="56.43591" lon="-4.86347">
        <ele>65</ele>
        <time>2021-03-20T15:07:48Z</time>
      </trkpt>
      <trkpt lat="56.43588" lon="-4.86389">
        <ele>65</ele>
        <time>2021-03-20T15:07:50Z</time>
      </trkpt>
      <trkpt lat="56.43582" lon="-4.8645">
        <ele>64.81</ele>
        <time>2021-03-20T15:07:52Z</time>
      </trkpt>
      <trkpt lat="56.43576" lon="-4.8648">
        <ele>64</ele>
        <time>2021-03-20T15:07:54Z</time>
      </trkpt>
      <trkpt lat="56.43537" lon="-4.86619">
        <ele>62.66</ele>
        <time>2021-03-20T15:07:56Z</time>
      </trkpt>
      <trkpt lat="56.43517" lon="-4.86682">
        <ele>62.28</ele>
        <time>2021-03-20T15:07:59Z</time>
      </trkpt>
      <trkpt lat="56.43503" lon="-4.86718">
        <ele>62</ele>
        <time>2021-03-20T15:08:01Z</time>
      </trkpt>
      <trkpt lat="56.4349" lon="-4.86736">
        <ele>62.31</ele>
        <time>2021-03-20T15:08:03Z</time>
      </trkpt>
      <trkpt lat="56.43473" lon="-4.86756">
        <ele>62.01</ele>
        <time>2021-03-20T15:08:05Z</time>
      </trkpt>
      <trkpt lat="56.43362" lon="-4.86868">
        <ele>62.01</ele>
        <time>2021-03-20T15:08:07Z</time>
      </trkpt>
      <trkpt lat="56.43342" lon="-4.86885">
        <ele>61.31</ele>
        <time>2021-03-20T15:08:10Z</time>
      </trkpt>
      <trkpt lat="56.43332" lon="-4.86901">
        <ele>61.47</ele>
        <time>2021-03-20T15:08:12Z</time>
      </trkpt>
      <trkpt lat="56.43303" lon="-4.86978">
        <ele>62.89</ele>
        <time>2021-03-20T15:08:14Z</time>
      </trkpt>
      <trkpt lat="56.43283" lon="-4.8705">
        <ele>62.18</ele>
        <time>2021-03-20T15:08:16Z</time>
      </trkpt>
      <trkpt lat="56.43265" lon="-4.87129">
        <ele>62.35</ele>
        <time>2021-03-20T15:08:18Z</time>
      </trkpt>
      <trkpt lat="56.4321" lon="-4.87517">
        <ele>61.49</ele>
        <time>2021-03-20T15:08:20Z</time>
      </trkpt>
      <trkpt lat="56.43195" lon="-4.87585">
        <ele>61.97</ele>
        <time>2021-03-20T15:08:23Z</time>
      </trkpt>
      <trkpt lat="56.43188" lon="-4.87611">
        <ele>62.22</ele>
        <time>2021-03-20T15:08:25Z</time>
      </trkpt>
      <trkpt lat="56.4318" lon="-4.87634">
        <ele>62.1</ele>
        <time>2021-03-20T15:08:27Z</time>
      </trkpt>
      <trkpt lat="56.4313" lon="-4.87741">
        <ele>59.77</ele>
        <time>2021-03-20T15:08:29Z</time>
      </trkpt>
      <trkpt lat="56.43049" lon="-4.87988">
        <ele>60.22</ele>
        <time>2021-03-20T15:08:31Z</time>
      </trkpt>
      <trkpt lat="56.43028" lon="-4.88033">
        <ele>61.99</ele>
        <time>2021-03-20T15:08:34Z</time>
      </trkpt>
      <trkpt lat="56.43004" lon="-4.88074">
        <ele>62.1</ele>
        <time>2021-03-20T15:08:36Z</time>
      </trkpt>
      <trkpt lat="56.4297" lon="-4.88118">
        <ele>61.92</ele>
        <time>2021-03-20T15:08:38Z</time>
      </trkpt>
      <trkpt lat="56.42878" lon="-4.88185">
        <ele>60.86</ele>
        <time>2021-03-20T15:08:40Z</time>
      </trkpt>
      <trkpt lat="56.42845" lon="-4.88203">
        <ele>60.4</ele>
        <time>2021-03-20T15:08:42Z</time>
      </trkpt>
      <trkpt lat="56.42769" lon="-4.88256">
        <ele>57</ele>
        <time>2021-03-20T15:08:44Z</time>
      </trkpt>
      <trkpt lat="56.42706" lon="-4.88282">
        <ele>59.97</ele>
        <time>2021-03-20T15:08:47Z</time>
      </trkpt>
      <trkpt lat="56.42693" lon="-4.88292">
        <ele>60.15</ele>
        <time>2021-03-20T15:08:49Z</time>
      </trkpt>
      <trkpt lat="56.42684" lon="-4.88304">
        <ele>60.31</ele>
        <time>2021-03-20T15:08:51Z</time>
      </trkpt>
      <trkpt lat="56.42665" lon="-4.88337">
        <ele>60.25</ele>
        <time>2021-03-20T15:08:53Z</time>
      </trkpt>
      <trkpt lat="56.42648" lon="-4.88393">
        <ele>62.8</ele>
        <time>2021-03-20T15:08:55Z</time>
      </trkpt>
      <trkpt lat="56.42634" lon="-4.88455">
        <ele>64.73</ele>
        <time>2021-03-20T15:08:58Z</time>
      </trkpt>
      <trkpt lat="56.42587" lon="-4.88613">
        <ele>62.5</ele>
        <time>2021-03-20T15:09:00Z</time>
      </trkpt>
      <trkpt lat="56.42544" lon="-4.88772">
        <ele>59.96</ele>
        <time>2021-03-20T15:09:02Z</time>
      </trkpt>
      <trkpt lat="56.42522" lon="-4.88844">
        <ele>60.05</ele>
        <time>2021-03-20T15:09:04Z</time>
      </trkpt>
      <trkpt lat="56.42508" lon="-4.88895">
        <ele>60.92</ele>
        <time>2021-03-20T15:09:06Z</time>
      </trkpt>
      <trkpt lat="56.42477" lon="-4.88967">
        <ele>60.19</ele>
        <time>2021-03-20T15:09:08Z</time>
      </trkpt>
      <trkpt lat="56.4247" lon="-4.88987">
        <ele>59.66</ele>
        <time>2021-03-20T15:09:11Z</time>
      </trkpt>
      <trkpt lat="56.42443" lon="-4.89113">
        <ele>59.98</ele>
        <time>2021-03-20T15:09:13Z</time>
      </trkpt>
      <trkpt lat="56.42434" lon="-4.89142">
        <ele>59.37</ele>
        <time>2021-03-20T15:09:15Z</time>
      </trkpt>
      <trkpt lat="56.42421" lon="-4.89173">
        <ele>59.62</ele>
        <time>2021-03-20T15:09:17Z</time>
      </trkpt>
      <trkpt lat="56.42379" lon="-4.89247">
        <ele>59.51</ele>
        <time>2021-03-20T15:09:19Z</time>
      </trkpt>
      <trkpt lat="56.4234" lon="-4.89294">
        <ele>60.09</ele>
        <time>2021-03-20T15:09:21Z</time>
      </trkpt>
      <trkpt lat="56.42332" lon="-4.89307">
        <ele>60.21</ele>
        <time>2021-03-20T15:09:24Z</time>
      </trkpt>
      <trkpt lat="56.42325" lon="-4.89322">
        <ele>60.47</ele>
        <time>2021-03-20T15:09:26Z</time>
      </trkpt>
      <trkpt lat="56.42297" lon="-4.8941">
        <ele>61.96</ele>
        <time>2021-03-20T15:09:28Z</time>
      </trkpt>
      <trkpt lat="56.42289" lon="-4.89481">
        <ele>61.02</ele>
        <time>2021-03-20T15:09:30Z</time>
      </trkpt>
      <trkpt lat="56.4228" lon="-4.89526">
        <ele>59.97</ele>
        <time>2021-03-20T15:09:32Z</time>
      </trkpt>
      <trkpt lat="56.4223" lon="-4.89654">
        <ele>58.72</ele>
        <time>2021-03-20T15:09:35Z</time>
      </trkpt>
      <trkpt lat="56.42212" lon="-4.89689">
        <ele>59.37</ele>
        <time>2021-03-20T15:09:37Z</time>
      </trkpt>
      <trkpt lat="56.42206" lon="-4.89706">
        <ele>59.57</ele>
        <time>2021-03-20T15:09:39Z</time>
      </trkpt>
      <trkpt lat="56.42198" lon="-4.89741">
        <ele>59.21</ele>
        <time>2021-03-20T15:09:41Z</time>
      </trkpt>
      <trkpt lat="56.42184" lon="-4.89779">
        <ele>59.32</ele>
        <time>2021-03-20T15:09:43Z</time>
      </trkpt>
      <trkpt lat="56.42138" lon="-4.89872">
        <ele>59.03</ele>
        <time>2021-03-20T15:09:45Z</time>
      </trkpt>
      <trkpt lat="56.42075" lon="-4.8997">
        <ele>59.67</ele>
        <time>2021-03-20T15:09:48Z</time>
      </trkpt>
      <trkpt lat="56.42024" lon="-4.90087">
        <ele>59.99</ele>
        <time>2021-03-20T15:09:50Z</time>
      </trkpt>
      <trkpt lat="56.4197" lon="-4.90182">
        <ele>61.74</ele>
        <time>2021-03-20T15:09:52Z</time>
      </trkpt>
      <trkpt lat="56.41935" lon="-4.90257">
        <ele>61.01</ele>
        <time>2021-03-20T15:09:54Z</time>
      </trkpt>
      <trkpt lat="56.4192" lon="-4.9028">
        <ele>59.93</ele>
        <time>2021-03-20T15:09:56Z</time>
      </trkpt>
      <trkpt lat="56.4188" lon="-4.90319">
        <ele>60.83</ele>
        <time>2021-03-20T15:09:59Z</time>
      </trkpt>
      <trkpt lat="56.41867" lon="-4.90338">
        <ele>61.41</ele>
        <time>2021-03-20T15:10:01Z</time>
      </trkpt>
      <trkpt lat="56.41856" lon="-4.90363">
        <ele>61.53</ele>
        <time>2021-03-20T15:10:03Z</time>
      </trkpt>
      <trkpt lat="56.41824" lon="-4.90457">
        <ele>61.86</ele>
        <time>2021-03-20T15:10:05Z</time>
      </trkpt>
      <trkpt lat="56.41808" lon="-4.90511">
        <ele>62.47</ele>
        <time>2021-03-20T15:10:07Z</time>
      </trkpt>
      <trkpt lat="56.41793" lon="-4.90574">
        <ele>62.67</ele>
        <time>2021-03-20T15:10:09Z</time>
      </trkpt>
      <trkpt lat="56.41783" lon="-4.90637">
        <ele>61.71</ele>
        <time>2021-03-20T15:10:12Z</time>
      </trkpt>
      <trkpt lat="56.41766" lon="-4.90723">
        <ele>59.83</ele>
        <time>2021-03-20T15:10:14Z</time>
      </trkpt>
      <trkpt lat="56.41751" lon="-4.90759">
        <ele>58.63</ele>
        <time>2021-03-20T15:10:16Z</time>
      </trkpt>
      <trkpt lat="56.41729" lon="-4.90783">
        <ele>59.33</ele>
        <time>2021-03-20T15:10:18Z</time>
      </trkpt>
      <trkpt lat="56.41713" lon="-4.90794">
        <ele>59.76</ele>
        <time>2021-03-20T15:10:20Z</time>
      </trkpt>
      <trkpt lat="56.41702" lon="-4.90808">
        <ele>59.64</ele>
        <time>2021-03-20T15:10:22Z</time>
      </trkpt>
      <trkpt lat="56.41694" lon="-4.90833">
        <ele>59.08</ele>
        <time>2021-03-20T15:10:25Z</time>
      </trkpt>
      <trkpt lat="56.41683" lon="-4.90894">
        <ele>59.19</ele>
        <time>2021-03-20T15:10:27Z</time>
      </trkpt>
      <trkpt lat="56.41639" lon="-4.90986">
        <ele>60.01</ele>
        <time>2021-03-20T15:10:29Z</time>
      </trkpt>
      <trkpt lat="56.41581" lon="-4.91134">
        <ele>59.64</ele>
        <time>2021-03-20T15:10:31Z</time>
      </trkpt>
      <trkpt lat="56.41561" lon="-4.91167">
        <ele>61.16</ele>
        <time>2021-03-20T15:10:33Z</time>
      </trkpt>
      <trkpt lat="56.41533" lon="-4.91201">
        <ele>62.11</ele>
        <time>2021-03-20T15:10:36Z</time>
      </trkpt>
      <trkpt lat="56.41513" lon="-4.91234">
        <ele>61.68</ele>
        <time>2021-03-20T15:10:38Z</time>
      </trkpt>
      <trkpt lat="56.4148" lon="-4.91278">
        <ele>59.71</ele>
        <time>2021-03-20T15:10:40Z</time>
      </trkpt>
      <trkpt lat="56.41471" lon="-4.9131">
        <ele>59.12</ele>
        <time>2021-03-20T15:10:42Z</time>
      </trkpt>
      <trkpt lat="56.41459" lon="-4.91366">
        <ele>58.87</ele>
        <time>2021-03-20T15:10:44Z</time>
      </trkpt>
      <trkpt lat="56.4145" lon="-4.91432">
        <ele>57.69</ele>
        <time>2021-03-20T15:10:46Z</time>
      </trkpt>
      <trkpt lat="56.41443" lon="-4.91462">
        <ele>57.4</ele>
        <time>2021-03-20T15:10:49Z</time>
      </trkpt>
      <trkpt lat="56.41433" lon="-4.91488">
        <ele>57.42</ele>
        <time>2021-03-20T15:10:51Z</time>
      </trkpt>
      <trkpt lat="56.41402" lon="-4.91544">
        <ele>56.19</ele>
        <time>2021-03-20T15:10:53Z</time>
      </trkpt>
      <trkpt lat="56.4139" lon="-4.91564">
        <ele>55.99</ele>
        <time>2021-03-20T15:10:55Z</time>
      </trkpt>
      <trkpt lat="56.41374" lon="-4.91581">
        <ele>56.54</ele>
        <time>2021-03-20T15:10:57Z</time>
      </trkpt>
      <trkpt lat="56.41313" lon="-4.91614">
        <ele>60.03</ele>
        <time>2021-03-20T15:11:00Z</time>
      </trkpt>
      <trkpt lat="56.41248" lon="-4.91656">
        <ele>63.82</ele>
        <time>2021-03-20T15:11:02Z</time>
      </trkpt>
      <trkpt lat="56.41211" lon="-4.91691">
        <ele>64.6</ele>
        <time>2021-03-20T15:11:04Z</time>
      </trkpt>
      <trkpt lat="56.41201" lon="-4.91703">
        <ele>64.35</ele>
        <time>2021-03-20T15:11:06Z</time>
      </trkpt>
      <trkpt lat="56.4119" lon="-4.91721">
        <ele>63.74</ele>
        <time>2021-03-20T15:11:08Z</time>
      </trkpt>
      <trkpt lat="56.41098" lon="-4.91962">
        <ele>59.24</ele>
        <time>2021-03-20T15:11:10Z</time>
      </trkpt>
      <trkpt lat="56.41074" lon="-4.92031">
        <ele>59.83</ele>
        <time>2021-03-20T15:11:13Z</time>
      </trkpt>
      <trkpt lat="56.41052" lon="-4.92103">
        <ele>59.11</ele>
        <time>2021-03-20T15:11:15Z</time>
      </trkpt>
      <trkpt lat="56.41033" lon="-4.92134">
        <ele>59.8</ele>
        <time>2021-03-20T15:11:17Z</time>
      </trkpt>
      <trkpt lat="56.40968" lon="-4.9226">
        <ele>57.42</ele>
        <time>2021-03-20T15:11:19Z</time>
      </trkpt>
      <trkpt lat="56.40897" lon="-4.92383">
        <ele>58.61</ele>
        <time>2021-03-20T15:11:21Z</time>
      </trkpt>
      <trkpt lat="56.40883" lon="-4.92413">
        <ele>58.78</ele>
        <time>2021-03-20T15:11:24Z</time>
      </trkpt>
      <trkpt lat="56.40848" lon="-4.92528">
        <ele>56.46</ele>
        <time>2021-03-20T15:11:26Z</time>
      </trkpt>
      <trkpt lat="56.40835" lon="-4.92553">
        <ele>56.05</ele>
        <time>2021-03-20T15:11:28Z</time>
      </trkpt>
      <trkpt lat="56.40826" lon="-4.92564">
        <ele>55.88</ele>
        <time>2021-03-20T15:11:30Z</time>
      </trkpt>
      <trkpt lat="56.40811" lon="-4.92571">
        <ele>55.83</ele>
        <time>2021-03-20T15:11:32Z</time>
      </trkpt>
      <trkpt lat="56.40797" lon="-4.92569">
        <ele>55.86</ele>
        <time>2021-03-20T15:11:34Z</time>
      </trkpt>
      <trkpt lat="56.40784" lon="-4.92561">
        <ele>55.97</ele>
        <time>2021-03-20T15:11:37Z</time>
      </trkpt>
      <trkpt lat="56.40675" lon="-4.92458">
        <ele>54.99</ele>
        <time>2021-03-20T15:11:39Z</time>
      </trkpt>
      <trkpt lat="56.40658" lon="-4.92444">
        <ele>55.01</ele>
        <time>2021-03-20T15:11:41Z</time>
      </trkpt>
      <trkpt lat="56.40631" lon="-4.9243">
        <ele>55</ele>
        <time>2021-03-20T15:11:43Z</time>
      </trkpt>
      <trkpt lat="56.40576" lon="-4.92412">
        <ele>54.63</ele>
        <time>2021-03-20T15:11:46Z</time>
      </trkpt>
      <trkpt lat="56.4055" lon="-4.92949">
        <ele>56.83</ele>
        <time>2021-03-20T15:11:50Z</time>
      </trkpt>
      <trkpt lat="56.40546" lon="-4.92997">
        <ele>55.1</ele>
        <time>2021-03-20T15:11:55Z</time>
      </trkpt>
      <trkpt lat="56.40535" lon="-4.93083">
        <ele>53.74</ele>
        <time>2021-03-20T15:12:00Z</time>
      </trkpt>
      <trkpt lat="56.40486" lon="-4.93355">
        <ele>52.21</ele>
        <time>2021-03-20T15:12:05Z</time>
      </trkpt>
      <trkpt lat="56.40483" lon="-4.93394">
        <ele>51.6</ele>
        <time>2021-03-20T15:12:10Z</time>
      </trkpt>
      <trkpt lat="56.40483" lon="-4.93617">
        <ele>51.76</ele>
        <time>2021-03-20T15:12:14Z</time>
      </trkpt>
      <trkpt lat="56.40488" lon="-4.94011">
        <ele>52.06</ele>
        <time>2021-03-20T15:12:19Z</time>
      </trkpt>
      <trkpt lat="56.40486" lon="-4.94059">
        <ele>52.42</ele>
        <time>2021-03-20T15:12:24Z</time>
      </trkpt>
      <trkpt lat="56.40482" lon="-4.94103">
        <ele>51.96</ele>
        <time>2021-03-20T15:12:29Z</time>
      </trkpt>
      <trkpt lat="56.40474" lon="-4.94145">
        <ele>51.33</ele>
        <time>2021-03-20T15:12:34Z</time>
      </trkpt>
      <trkpt lat="56.4044" lon="-4.94272">
        <ele>49.2</ele>
        <time>2021-03-20T15:12:38Z</time>
      </trkpt>
      <trkpt lat="56.40427" lon="-4.94329">
        <ele>46.01</ele>
        <time>2021-03-20T15:12:43Z</time>
      </trkpt>
      <trkpt lat="56.40417" lon="-4.94391">
        <ele>44.06</ele>
        <time>2021-03-20T15:12:48Z</time>
      </trkpt>
      <trkpt lat="56.40395" lon="-4.94683">
        <ele>49.6</ele>
        <time>2021-03-20T15:12:53Z</time>
      </trkpt>
      <trkpt lat="56.40365" lon="-4.95011">
        <ele>52.21</ele>
        <time>2021-03-20T15:12:58Z</time>
      </trkpt>
      <trkpt lat="56.40291" lon="-4.95613">
        <ele>50.48</ele>
        <time>2021-03-20T15:13:02Z</time>
      </trkpt>
      <trkpt lat="56.40285" lon="-4.9568">
        <ele>50.02</ele>
        <time>2021-03-20T15:13:07Z</time>
      </trkpt>
      <trkpt lat="56.40282" lon="-4.95757">
        <ele>48.43</ele>
        <time>2021-03-20T15:13:12Z</time>
      </trkpt>
      <trkpt lat="56.40291" lon="-4.95936">
        <ele>47.52</ele>
        <time>2021-03-20T15:13:17Z</time>
      </trkpt>
      <trkpt lat="56.40297" lon="-4.96037">
        <ele>49</ele>
        <time>2021-03-20T15:13:21Z</time>
      </trkpt>
      <trkpt lat="56.40301" lon="-4.96168">
        <ele>49.03</ele>
        <time>2021-03-20T15:13:26Z</time>
      </trkpt>
      <trkpt lat="56.40301" lon="-4.96187">
        <ele>49.61</ele>
        <time>2021-03-20T15:13:31Z</time>
      </trkpt>
      <trkpt lat="56.40297" lon="-4.96232">
        <ele>49.55</ele>
        <time>2021-03-20T15:13:36Z</time>
      </trkpt>
      <trkpt lat="56.4026" lon="-4.96442">
        <ele>47.94</ele>
        <time>2021-03-20T15:13:41Z</time>
      </trkpt>
      <trkpt lat="56.40259" lon="-4.96476">
        <ele>47.99</ele>
        <time>2021-03-20T15:13:45Z</time>
      </trkpt>
      <trkpt lat="56.40264" lon="-4.96557">
        <ele>50.09</ele>
        <time>2021-03-20T15:13:50Z</time>
      </trkpt>
      <trkpt lat="56.40272" lon="-4.96643">
        <ele>52.43</ele>
        <time>2021-03-20T15:13:55Z</time>
      </trkpt>
      <trkpt lat="56.40271" lon="-4.96669">
        <ele>52.31</ele>
        <time>2021-03-20T15:14:00Z</time>
      </trkpt>
      <trkpt lat="56.40268" lon="-4.96705">
        <ele>50.74</ele>
        <time>2021-03-20T15:14:05Z</time>
      </trkpt>
      <trkpt lat="56.40261" lon="-4.96742">
        <ele>49.17</ele>
        <time>2021-03-20T15:14:09Z</time>
      </trkpt>
      <trkpt lat="56.40232" lon="-4.96862">
        <ele>46.31</ele>
        <time>2021-03-20T15:14:14Z</time>
      </trkpt>
      <trkpt lat="56.40224" lon="-4.9691">
        <ele>46.77</ele>
        <time>2021-03-20T15:14:19Z</time>
      </trkpt>
      <trkpt lat="56.4022" lon="-4.96988">
        <ele>48.1</ele>
        <time>2021-03-20T15:14:24Z</time>
      </trkpt>
      <trkpt lat="56.40221" lon="-4.97035">
        <ele>49</ele>
        <time>2021-03-20T15:14:29Z</time>
      </trkpt>
      <trkpt lat="56.40232" lon="-4.97057">
        <ele>48.69</ele>
        <time>2021-03-20T15:14:29Z</time>
      </trkpt>
      <trkpt lat="56.40242" lon="-4.97068">
        <ele>48.42</ele>
        <time>2021-03-20T15:14:30Z</time>
      </trkpt>
      <trkpt lat="56.40251" lon="-4.97072">
        <ele>47.93</ele>
        <time>2021-03-20T15:14:31Z</time>
      </trkpt>
      <trkpt lat="56.40238" lon="-4.97084">
        <ele>48.9</ele>
        <time>2021-03-20T15:14:32Z</time>
      </trkpt>
      <trkpt lat="56.40228" lon="-4.97104">
        <ele>49.62</ele>
        <time>2021-03-20T15:14:32Z</time>
      </trkpt>
      <trkpt lat="56.40243" lon="-4.97193">
        <ele>47.31</ele>
        <time>2021-03-20T15:14:36Z</time>
      </trkpt>
      <trkpt lat="56.40254" lon="-4.97275">
        <ele>45.86</ele>
        <time>2021-03-20T15:14:41Z</time>
      </trkpt>
      <trkpt lat="56.40259" lon="-4.97326">
        <ele>44.69</ele>
        <time>2021-03-20T15:14:45Z</time>
      </trkpt>
      <trkpt lat="56.40261" lon="-4.97432">
        <ele>45.6</ele>
        <time>2021-03-20T15:14:49Z</time>
      </trkpt>
      <trkpt lat="56.40259" lon="-4.97513">
        <ele>45.37</ele>
        <time>2021-03-20T15:14:53Z</time>
      </trkpt>
      <trkpt lat="56.40251" lon="-4.97592">
        <ele>43.67</ele>
        <time>2021-03-20T15:14:57Z</time>
      </trkpt>
      <trkpt lat="56.40225" lon="-4.97763">
        <ele>42.23</ele>
        <time>2021-03-20T15:15:01Z</time>
      </trkpt>
      <trkpt lat="56.40213" lon="-4.97756">
        <ele>44.34</ele>
        <time>2021-03-20T15:15:04Z</time>
      </trkpt>
      <trkpt lat="56.40205" lon="-4.97757">
        <ele>45.72</ele>
        <time>2021-03-20T15:15:06Z</time>
      </trkpt>
      <trkpt lat="56.40193" lon="-4.97768">
        <ele>46.93</ele>
        <time>2021-03-20T15:15:09Z</time>
      </trkpt>
      <trkpt lat="56.40181" lon="-4.97787">
        <ele>49.08</ele>
        <time>2021-03-20T15:15:11Z</time>
      </trkpt>
      <trkpt lat="56.40175" lon="-4.97814">
        <ele>51.24</ele>
        <time>2021-03-20T15:15:14Z</time>
      </trkpt>
      <trkpt lat="56.40175" lon="-4.97845">
        <ele>52.16</ele>
        <time>2021-03-20T15:15:17Z</time>
      </trkpt>
      <trkpt lat="56.40177" lon="-4.97879">
        <ele>52.03</ele>
        <time>2021-03-20T15:15:19Z</time>
      </trkpt>
      <trkpt lat="56.40176" lon="-4.97904">
        <ele>52.13</ele>
        <time>2021-03-20T15:15:22Z</time>
      </trkpt>
      <trkpt lat="56.40169" lon="-4.97929">
        <ele>53.47</ele>
        <time>2021-03-20T15:15:24Z</time>
      </trkpt>
      <trkpt lat="56.40155" lon="-4.9796">
        <ele>54.59</ele>
        <time>2021-03-20T15:15:27Z</time>
      </trkpt>
      <trkpt lat="56.40132" lon="-4.98017">
        <ele>55.6</ele>
        <time>2021-03-20T15:15:29Z</time>
      </trkpt>
      <trkpt lat="56.40131" lon="-4.98046">
        <ele>56.38</ele>
        <time>2021-03-20T15:15:32Z</time>
      </trkpt>
      <trkpt lat="56.40141" lon="-4.98109">
        <ele>57.31</ele>
        <time>2021-03-20T15:15:35Z</time>
      </trkpt>
      <trkpt lat="56.40151" lon="-4.98149">
        <ele>55.66</ele>
        <time>2021-03-20T15:15:37Z</time>
      </trkpt>
      <trkpt lat="56.40149" lon="-4.98181">
        <ele>55.88</ele>
        <time>2021-03-20T15:15:40Z</time>
      </trkpt>
      <trkpt lat="56.40144" lon="-4.98229">
        <ele>57.2</ele>
        <time>2021-03-20T15:15:42Z</time>
      </trkpt>
      <trkpt lat="56.40143" lon="-4.98251">
        <ele>58.24</ele>
        <time>2021-03-20T15:15:45Z</time>
      </trkpt>
      <trkpt lat="56.4015" lon="-4.98319">
        <ele>58.04</ele>
        <time>2021-03-20T15:15:48Z</time>
      </trkpt>
      <trkpt lat="56.40145" lon="-4.98406">
        <ele>61.62</ele>
        <time>2021-03-20T15:15:50Z</time>
      </trkpt>
      <trkpt lat="56.40147" lon="-4.98439">
        <ele>62.99</ele>
        <time>2021-03-20T15:15:53Z</time>
      </trkpt>
      <trkpt lat="56.40144" lon="-4.98464">
        <ele>64.15</ele>
        <time>2021-03-20T15:15:55Z</time>
      </trkpt>
      <trkpt lat="56.40138" lon="-4.9849">
        <ele>65.06</ele>
        <time>2021-03-20T15:15:58Z</time>
      </trkpt>
      <trkpt lat="56.40132" lon="-4.98509">
        <ele>65.52</ele>
        <time>2021-03-20T15:16:01Z</time>
      </trkpt>
      <trkpt lat="56.40129" lon="-4.98528">
        <ele>65.71</ele>
        <time>2021-03-20T15:16:03Z</time>
      </trkpt>
      <trkpt lat="56.40132" lon="-4.98601">
        <ele>64.52</ele>
        <time>2021-03-20T15:16:06Z</time>
      </trkpt>
      <trkpt lat="56.40138" lon="-4.98702">
        <ele>61.52</ele>
        <time>2021-03-20T15:16:08Z</time>
      </trkpt>
      <trkpt lat="56.40143" lon="-4.98723">
        <ele>59.78</ele>
        <time>2021-03-20T15:16:11Z</time>
      </trkpt>
      <trkpt lat="56.40168" lon="-4.98774">
        <ele>56.06</ele>
        <time>2021-03-20T15:16:13Z</time>
      </trkpt>
      <trkpt lat="56.40187" lon="-4.9881">
        <ele>53.51</ele>
        <time>2021-03-20T15:16:16Z</time>
      </trkpt>
      <trkpt lat="56.40195" lon="-4.98815">
        <ele>52.97</ele>
        <time>2021-03-20T15:16:19Z</time>
      </trkpt>
      <trkpt lat="56.40214" lon="-4.98818">
        <ele>52.28</ele>
        <time>2021-03-20T15:16:21Z</time>
      </trkpt>
      <trkpt lat="56.40212" lon="-4.98893">
        <ele>51.2</ele>
        <time>2021-03-20T15:16:24Z</time>
      </trkpt>
      <trkpt lat="56.4021" lon="-4.9893">
        <ele>49.96</ele>
        <time>2021-03-20T15:16:27Z</time>
      </trkpt>
      <trkpt lat="56.40206" lon="-4.98966">
        <ele>48.83</ele>
        <time>2021-03-20T15:16:31Z</time>
      </trkpt>
      <trkpt lat="56.40192" lon="-4.99052">
        <ele>49.21</ele>
        <time>2021-03-20T15:16:34Z</time>
      </trkpt>
      <trkpt lat="56.40183" lon="-4.99129">
        <ele>48.22</ele>
        <time>2021-03-20T15:16:37Z</time>
      </trkpt>
      <trkpt lat="56.40182" lon="-4.99159">
        <ele>47.47</ele>
        <time>2021-03-20T15:16:40Z</time>
      </trkpt>
      <trkpt lat="56.40185" lon="-4.99213">
        <ele>47.69</ele>
        <time>2021-03-20T15:16:43Z</time>
      </trkpt>
      <trkpt lat="56.40196" lon="-4.9927">
        <ele>46.92</ele>
        <time>2021-03-20T15:16:46Z</time>
      </trkpt>
      <trkpt lat="56.40204" lon="-4.99303">
        <ele>45.38</ele>
        <time>2021-03-20T15:16:49Z</time>
      </trkpt>
      <trkpt lat="56.40377" lon="-4.99842">
        <ele>49.01</ele>
        <time>2021-03-20T15:16:52Z</time>
      </trkpt>
      <trkpt lat="56.40389" lon="-4.9989">
        <ele>49.05</ele>
        <time>2021-03-20T15:16:55Z</time>
      </trkpt>
      <trkpt lat="56.40396" lon="-4.99942">
        <ele>47.67</ele>
        <time>2021-03-20T15:16:59Z</time>
      </trkpt>
      <trkpt lat="56.40424" lon="-5.00171">
        <ele>43.96</ele>
        <time>2021-03-20T15:17:02Z</time>
      </trkpt>
      <trkpt lat="56.40426" lon="-5.00203">
        <ele>44.08</ele>
        <time>2021-03-20T15:17:05Z</time>
      </trkpt>
      <trkpt lat="56.40426" lon="-5.0024">
        <ele>44.33</ele>
        <time>2021-03-20T15:17:08Z</time>
      </trkpt>
      <trkpt lat="56.40423" lon="-5.00275">
        <ele>44.51</ele>
        <time>2021-03-20T15:17:11Z</time>
      </trkpt>
      <trkpt lat="56.40399" lon="-5.00421">
        <ele>45.4</ele>
        <time>2021-03-20T15:17:14Z</time>
      </trkpt>
      <trkpt lat="56.40393" lon="-5.00496">
        <ele>43.48</ele>
        <time>2021-03-20T15:17:17Z</time>
      </trkpt>
      <trkpt lat="56.40393" lon="-5.00541">
        <ele>43.47</ele>
        <time>2021-03-20T15:17:20Z</time>
      </trkpt>
      <trkpt lat="56.40395" lon="-5.00583">
        <ele>42.08</ele>
        <time>2021-03-20T15:17:23Z</time>
      </trkpt>
      <trkpt lat="56.40408" lon="-5.00689">
        <ele>40.51</ele>
        <time>2021-03-20T15:17:27Z</time>
      </trkpt>
      <trkpt lat="56.40441" lon="-5.00873">
        <ele>43.56</ele>
        <time>2021-03-20T15:17:30Z</time>
      </trkpt>
      <trkpt lat="56.40458" lon="-5.00943">
        <ele>44.05</ele>
        <time>2021-03-20T15:17:33Z</time>
      </trkpt>
      <trkpt lat="56.40479" lon="-5.01015">
        <ele>43.74</ele>
        <time>2021-03-20T15:17:36Z</time>
      </trkpt>
      <trkpt lat="56.40554" lon="-5.0123">
        <ele>40.04</ele>
        <time>2021-03-20T15:17:39Z</time>
      </trkpt>
      <trkpt lat="56.40546" lon="-5.01237">
        <ele>40.33</ele>
        <time>2021-03-20T15:17:43Z</time>
      </trkpt>
      <trkpt lat="56.40516" lon="-5.01235">
        <ele>41.84</ele>
        <time>2021-03-20T15:17:47Z</time>
      </trkpt>
      <trkpt lat="56.40495" lon="-5.01243">
        <ele>43.53</ele>
        <time>2021-03-20T15:17:51Z</time>
      </trkpt>
      <trkpt lat="56.40464" lon="-5.01279">
        <ele>46.56</ele>
        <time>2021-03-20T15:17:55Z</time>
      </trkpt>
      <trkpt lat="56.40381" lon="-5.01393">
        <ele>47.55</ele>
        <time>2021-03-20T15:17:59Z</time>
      </trkpt>
      <trkpt lat="56.40358" lon="-5.01431">
        <ele>49.19</ele>
        <time>2021-03-20T15:18:03Z</time>
      </trkpt>
      <trkpt lat="56.4034" lon="-5.01469">
        <ele>51.41</ele>
        <time>2021-03-20T15:18:07Z</time>
      </trkpt>
      <trkpt lat="56.40311" lon="-5.01545">
        <ele>55.46</ele>
        <time>2021-03-20T15:18:11Z</time>
      </trkpt>
      <trkpt lat="56.40282" lon="-5.01651">
        <ele>55</ele>
        <time>2021-03-20T15:18:14Z</time>
      </trkpt>
      <trkpt lat="56.40254" lon="-5.01737">
        <ele>56.48</ele>
        <time>2021-03-20T15:18:18Z</time>
      </trkpt>
      <trkpt lat="56.40235" lon="-5.01781">
        <ele>56.36</ele>
        <time>2021-03-20T15:18:22Z</time>
      </trkpt>
      <trkpt lat="56.40214" lon="-5.01826">
        <ele>56.39</ele>
        <time>2021-03-20T15:18:26Z</time>
      </trkpt>
      <trkpt lat="56.40155" lon="-5.01923">
        <ele>56.76</ele>
        <time>2021-03-20T15:18:30Z</time>
      </trkpt>
      <trkpt lat="56.40116" lon="-5.02014">
        <ele>56.73</ele>
        <time>2021-03-20T15:18:34Z</time>
      </trkpt>
      <trkpt lat="56.39998" lon="-5.0245">
        <ele>49.15</ele>
        <time>2021-03-20T15:18:38Z</time>
      </trkpt>
      <trkpt lat="56.39907" lon="-5.02769">
        <ele>54.82</ele>
        <time>2021-03-20T15:18:42Z</time>
      </trkpt>
      <trkpt lat="56.39881" lon="-5.02887">
        <ele>52.45</ele>
        <time>2021-03-20T15:18:46Z</time>
      </trkpt>
      <trkpt lat="56.39875" lon="-5.02968">
        <ele>48.66</ele>
        <time>2021-03-20T15:18:50Z</time>
      </trkpt>
      <trkpt lat="56.39879" lon="-5.03201">
        <ele>48.61</ele>
        <time>2021-03-20T15:18:54Z</time>
      </trkpt>
      <trkpt lat="56.39867" lon="-5.03296">
        <ele>45.11</ele>
        <time>2021-03-20T15:18:58Z</time>
      </trkpt>
      <trkpt lat="56.39845" lon="-5.03389">
        <ele>42.4</ele>
        <time>2021-03-20T15:19:02Z</time>
      </trkpt>
      <trkpt lat="56.39697" lon="-5.03774">
        <ele>56.65</ele>
        <time>2021-03-20T15:19:06Z</time>
      </trkpt>
      <trkpt lat="56.39655" lon="-5.03847">
        <ele>52.03</ele>
        <time>2021-03-20T15:19:10Z</time>
      </trkpt>
      <trkpt lat="56.39604" lon="-5.03896">
        <ele>55.38</ele>
        <time>2021-03-20T15:19:13Z</time>
      </trkpt>
      <trkpt lat="56.39523" lon="-5.03943">
        <ele>56.13</ele>
        <time>2021-03-20T15:19:17Z</time>
      </trkpt>
      <trkpt lat="56.39393" lon="-5.04005">
        <ele>50.94</ele>
        <time>2021-03-20T15:19:21Z</time>
      </trkpt>
      <trkpt lat="56.39339" lon="-5.0406">
        <ele>47.74</ele>
        <time>2021-03-20T15:19:25Z</time>
      </trkpt>
      <trkpt lat="56.39298" lon="-5.04124">
        <ele>52.8</ele>
        <time>2021-03-20T15:19:29Z</time>
      </trkpt>
      <trkpt lat="56.39245" lon="-5.04235">
        <ele>54.65</ele>
        <time>2021-03-20T15:19:33Z</time>
      </trkpt>
      <trkpt lat="56.39175" lon="-5.04373">
        <ele>58.72</ele>
        <time>2021-03-20T15:19:37Z</time>
      </trkpt>
      <trkpt lat="56.39145" lon="-5.04412">
        <ele>59.67</ele>
        <time>2021-03-20T15:19:41Z</time>
      </trkpt>
      <trkpt lat="56.39107" lon="-5.04437">
        <ele>60.02</ele>
        <time>2021-03-20T15:19:45Z</time>
      </trkpt>
      <trkpt lat="56.39078" lon="-5.04442">
        <ele>62.48</ele>
        <time>2021-03-20T15:19:49Z</time>
      </trkpt>
      <trkpt lat="56.39038" lon="-5.04439">
        <ele>64.58</ele>
        <time>2021-03-20T15:19:53Z</time>
      </trkpt>
      <trkpt lat="56.39013" lon="-5.04426">
        <ele>62.98</ele>
        <time>2021-03-20T15:19:57Z</time>
      </trkpt>
      <trkpt lat="56.38991" lon="-5.0441">
        <ele>60.39</ele>
        <time>2021-03-20T15:20:01Z</time>
      </trkpt>
      <trkpt lat="56.38953" lon="-5.04371">
        <ele>55.35</ele>
        <time>2021-03-20T15:20:05Z</time>
      </trkpt>
      <trkpt lat="56.38869" lon="-5.042">
        <ele>59.67</ele>
        <time>2021-03-20T15:20:09Z</time>
      </trkpt>
      <trkpt lat="56.38811" lon="-5.04095">
        <ele>61.34</ele>
        <time>2021-03-20T15:20:13Z</time>
      </trkpt>
      <trkpt lat="56.38759" lon="-5.04029">
        <ele>58.31</ele>
        <time>2021-03-20T15:20:16Z</time>
      </trkpt>
      <trkpt lat="56.38697" lon="-5.03984">
        <ele>56.76</ele>
        <time>2021-03-20T15:20:20Z</time>
      </trkpt>
      <trkpt lat="56.38668" lon="-5.0395">
        <ele>55.9</ele>
        <time>2021-03-20T15:20:24Z</time>
      </trkpt>
      <trkpt lat="56.38643" lon="-5.03903">
        <ele>53.1</ele>
        <time>2021-03-20T15:20:28Z</time>
      </trkpt>
      <trkpt lat="56.386" lon="-5.03805">
        <ele>47.06</ele>
        <time>2021-03-20T15:20:32Z</time>
      </trkpt>
      <trkpt lat="56.38582" lon="-5.03785">
        <ele>43.85</ele>
        <time>2021-03-20T15:20:36Z</time>
      </trkpt>
      <trkpt lat="56.3856" lon="-5.03769">
        <ele>43.48</ele>
        <time>2021-03-20T15:20:40Z</time>
      </trkpt>
      <trkpt lat="56.38528" lon="-5.03766">
        <ele>43.86</ele>
        <time>2021-03-20T15:20:44Z</time>
      </trkpt>
      <trkpt lat="56.38496" lon="-5.03777">
        <ele>44.19</ele>
        <time>2021-03-20T15:20:48Z</time>
      </trkpt>
      <trkpt lat="56.3843" lon="-5.03823">
        <ele>45.06</ele>
        <time>2021-03-20T15:20:52Z</time>
      </trkpt>
      <trkpt lat="56.38395" lon="-5.03844">
        <ele>48.76</ele>
        <time>2021-03-20T15:20:56Z</time>
      </trkpt>
      <trkpt lat="56.38227" lon="-5.039">
        <ele>56.69</ele>
        <time>2021-03-20T15:21:00Z</time>
      </trkpt>
      <trkpt lat="56.38186" lon="-5.03928">
        <ele>51.94</ele>
        <time>2021-03-20T15:21:04Z</time>
      </trkpt>
      <trkpt lat="56.38153" lon="-5.03959">
        <ele>45.52</ele>
        <time>2021-03-20T15:21:08Z</time>
      </trkpt>
      <trkpt lat="56.38123" lon="-5.03997">
        <ele>42.53</ele>
        <time>2021-03-20T15:21:12Z</time>
      </trkpt>
      <trkpt lat="56.38087" lon="-5.04052">
        <ele>41</ele>
        <time>2021-03-20T15:21:15Z</time>
      </trkpt>
      <trkpt lat="56.38048" lon="-5.04142">
        <ele>40.72</ele>
        <time>2021-03-20T15:21:19Z</time>
      </trkpt>
      <trkpt lat="56.3802" lon="-5.04223">
        <ele>40</ele>
        <time>2021-03-20T15:21:23Z</time>
      </trkpt>
      <trkpt lat="56.38002" lon="-5.04267">
        <ele>40</ele>
        <time>2021-03-20T15:21:27Z</time>
      </trkpt>
      <trkpt lat="56.37984" lon="-5.04305">
        <ele>39.58</ele>
        <time>2021-03-20T15:21:31Z</time>
      </trkpt>
      <trkpt lat="56.37964" lon="-5.04334">
        <ele>39.99</ele>
        <time>2021-03-20T15:21:35Z</time>
      </trkpt>
      <trkpt lat="56.37933" lon="-5.04365">
        <ele>40.42</ele>
        <time>2021-03-20T15:21:39Z</time>
      </trkpt>
      <trkpt lat="56.37686" lon="-5.04558">
        <ele>54.21</ele>
        <time>2021-03-20T15:21:43Z</time>
      </trkpt>
      <trkpt lat="56.37454" lon="-5.04729">
        <ele>64.28</ele>
        <time>2021-03-20T15:21:47Z</time>
      </trkpt>
      <trkpt lat="56.37426" lon="-5.04755">
        <ele>63.88</ele>
        <time>2021-03-20T15:21:51Z</time>
      </trkpt>
      <trkpt lat="56.37408" lon="-5.04776">
        <ele>64.35</ele>
        <time>2021-03-20T15:21:55Z</time>
      </trkpt>
      <trkpt lat="56.37395" lon="-5.04798">
        <ele>64.1</ele>
        <time>2021-03-20T15:21:59Z</time>
      </trkpt>
      <trkpt lat="56.37385" lon="-5.04818">
        <ele>63.69</ele>
        <time>2021-03-20T15:22:03Z</time>
      </trkpt>
      <trkpt lat="56.37366" lon="-5.04874">
        <ele>62.36</ele>
        <time>2021-03-20T15:22:07Z</time>
      </trkpt>
      <trkpt lat="56.37359" lon="-5.04906">
        <ele>61.23</ele>
        <time>2021-03-20T15:22:11Z</time>
      </trkpt>
      <trkpt lat="56.37322" lon="-5.05139">
        <ele>55.58</ele>
        <time>2021-03-20T15:22:14Z</time>
      </trkpt>
      <trkpt lat="56.37304" lon="-5.05226">
        <ele>55.16</ele>
        <time>2021-03-20T15:22:18Z</time>
      </trkpt>
      <trkpt lat="56.37204" lon="-5.05597">
        <ele>57.6</ele>
        <time>2021-03-20T15:22:22Z</time>
      </trkpt>
      <trkpt lat="56.3712" lon="-5.05853">
        <ele>54.53</ele>
        <time>2021-03-20T15:22:26Z</time>
      </trkpt>
      <trkpt lat="56.37105" lon="-5.05883">
        <ele>55.14</ele>
        <time>2021-03-20T15:22:30Z</time>
      </trkpt>
      <trkpt lat="56.37042" lon="-5.05991">
        <ele>52.54</ele>
        <time>2021-03-20T15:22:34Z</time>
      </trkpt>
      <trkpt lat="56.37023" lon="-5.06013">
        <ele>54.11</ele>
        <time>2021-03-20T15:22:38Z</time>
      </trkpt>
      <trkpt lat="56.37008" lon="-5.06023">
        <ele>54.5</ele>
        <time>2021-03-20T15:22:42Z</time>
      </trkpt>
      <trkpt lat="56.36974" lon="-5.0603">
        <ele>54.91</ele>
        <time>2021-03-20T15:22:46Z</time>
      </trkpt>
      <trkpt lat="56.36959" lon="-5.06026">
        <ele>54.07</ele>
        <time>2021-03-20T15:22:50Z</time>
      </trkpt>
      <trkpt lat="56.36941" lon="-5.06018">
        <ele>53.09</ele>
        <time>2021-03-20T15:22:54Z</time>
      </trkpt>
      <trkpt lat="56.36916" lon="-5.05999">
        <ele>51.99</ele>
        <time>2021-03-20T15:22:58Z</time>
      </trkpt>
      <trkpt lat="56.3683" lon="-5.05925">
        <ele>48.83</ele>
        <time>2021-03-20T15:23:02Z</time>
      </trkpt>
      <trkpt lat="56.3677" lon="-5.05876">
        <ele>47.94</ele>
        <time>2021-03-20T15:23:06Z</time>
      </trkpt>
      <trkpt lat="56.36754" lon="-5.05866">
        <ele>48.62</ele>
        <time>2021-03-20T15:23:10Z</time>
      </trkpt>
      <trkpt lat="56.36734" lon="-5.0586">
        <ele>48.49</ele>
        <time>2021-03-20T15:23:13Z</time>
      </trkpt>
      <trkpt lat="56.36671" lon="-5.05859">
        <ele>48.29</ele>
        <time>2021-03-20T15:23:17Z</time>
      </trkpt>
      <trkpt lat="56.36574" lon="-5.05867">
        <ele>45.43</ele>
        <time>2021-03-20T15:23:21Z</time>
      </trkpt>
      <trkpt lat="56.36558" lon="-5.0587">
        <ele>44.75</ele>
        <time>2021-03-20T15:23:25Z</time>
      </trkpt>
      <trkpt lat="56.36543" lon="-5.05878">
        <ele>44.4</ele>
        <time>2021-03-20T15:23:29Z</time>
      </trkpt>
      <trkpt lat="56.36519" lon="-5.05897">
        <ele>44.38</ele>
        <time>2021-03-20T15:23:33Z</time>
      </trkpt>
      <trkpt lat="56.36507" lon="-5.05912">
        <ele>44.69</ele>
        <time>2021-03-20T15:23:37Z</time>
      </trkpt>
      <trkpt lat="56.36497" lon="-5.05929">
        <ele>45.04</ele>
        <time>2021-03-20T15:23:41Z</time>
      </trkpt>
      <trkpt lat="56.36484" lon="-5.05959">
        <ele>45.82</ele>
        <time>2021-03-20T15:23:45Z</time>
      </trkpt>
      <trkpt lat="56.36464" lon="-5.06038">
        <ele>48.68</ele>
        <time>2021-03-20T15:23:49Z</time>
      </trkpt>
      <trkpt lat="56.36451" lon="-5.06117">
        <ele>49.17</ele>
        <time>2021-03-20T15:23:53Z</time>
      </trkpt>
      <trkpt lat="56.36439" lon="-5.06168">
        <ele>49.43</ele>
        <time>2021-03-20T15:23:57Z</time>
      </trkpt>
      <trkpt lat="56.36374" lon="-5.06379">
        <ele>62.42</ele>
        <time>2021-03-20T15:24:01Z</time>
      </trkpt>
      <trkpt lat="56.36361" lon="-5.06415">
        <ele>65.1</ele>
        <time>2021-03-20T15:24:05Z</time>
      </trkpt>
      <trkpt lat="56.36348" lon="-5.0644">
        <ele>67.24</ele>
        <time>2021-03-20T15:24:09Z</time>
      </trkpt>
      <trkpt lat="56.36284" lon="-5.06545">
        <ele>70.65</ele>
        <time>2021-03-20T15:24:12Z</time>
      </trkpt>
      <trkpt lat="56.36203" lon="-5.06735">
        <ele>72.88</ele>
        <time>2021-03-20T15:24:16Z</time>
      </trkpt>
      <trkpt lat="56.36178" lon="-5.06783">
        <ele>74.54</ele>
        <time>2021-03-20T15:24:20Z</time>
      </trkpt>
      <trkpt lat="56.36145" lon="-5.06836">
        <ele>77.42</ele>
        <time>2021-03-20T15:24:24Z</time>
      </trkpt>
      <trkpt lat="56.36101" lon="-5.06898">
        <ele>85.64</ele>
        <time>2021-03-20T15:24:28Z</time>
      </trkpt>
      <trkpt lat="56.35984" lon="-5.07049">
        <ele>90.63</ele>
        <time>2021-03-20T15:24:32Z</time>
      </trkpt>
      <trkpt lat="56.35861" lon="-5.07185">
        <ele>89.38</ele>
        <time>2021-03-20T15:24:36Z</time>
      </trkpt>
      <trkpt lat="56.35846" lon="-5.07205">
        <ele>90.63</ele>
        <time>2021-03-20T15:24:40Z</time>
      </trkpt>
      <trkpt lat="56.35818" lon="-5.07255">
        <ele>93.28</ele>
        <time>2021-03-20T15:24:44Z</time>
      </trkpt>
      <trkpt lat="56.35791" lon="-5.07312">
        <ele>94.42</ele>
        <time>2021-03-20T15:24:48Z</time>
      </trkpt>
      <trkpt lat="56.35777" lon="-5.07339">
        <ele>94.43</ele>
        <time>2021-03-20T15:24:52Z</time>
      </trkpt>
      <trkpt lat="56.3576" lon="-5.07365">
        <ele>92.47</ele>
        <time>2021-03-20T15:24:56Z</time>
      </trkpt>
      <trkpt lat="56.35696" lon="-5.07441">
        <ele>96.2</ele>
        <time>2021-03-20T15:25:00Z</time>
      </trkpt>
      <trkpt lat="56.35677" lon="-5.07469">
        <ele>97.21</ele>
        <time>2021-03-20T15:25:04Z</time>
      </trkpt>
      <trkpt lat="56.35651" lon="-5.07513">
        <ele>97.91</ele>
        <time>2021-03-20T15:25:08Z</time>
      </trkpt>
      <trkpt lat="56.35633" lon="-5.07539">
        <ele>99.27</ele>
        <time>2021-03-20T15:25:11Z</time>
      </trkpt>
      <trkpt lat="56.35602" lon="-5.07568">
        <ele>101.29</ele>
        <time>2021-03-20T15:25:15Z</time>
      </trkpt>
      <trkpt lat="56.35564" lon="-5.07595">
        <ele>102</ele>
        <time>2021-03-20T15:25:19Z</time>
      </trkpt>
      <trkpt lat="56.35546" lon="-5.07613">
        <ele>99.82</ele>
        <time>2021-03-20T15:25:23Z</time>
      </trkpt>
      <trkpt lat="56.35529" lon="-5.07642">
        <ele>96.68</ele>
        <time>2021-03-20T15:25:27Z</time>
      </trkpt>
      <trkpt lat="56.35475" lon="-5.07769">
        <ele>91.13</ele>
        <time>2021-03-20T15:25:31Z</time>
      </trkpt>
      <trkpt lat="56.35461" lon="-5.07796">
        <ele>90.36</ele>
        <time>2021-03-20T15:25:35Z</time>
      </trkpt>
      <trkpt lat="56.35448" lon="-5.07815">
        <ele>90.37</ele>
        <time>2021-03-20T15:25:39Z</time>
      </trkpt>
      <trkpt lat="56.35439" lon="-5.07826">
        <ele>90.46</ele>
        <time>2021-03-20T15:25:43Z</time>
      </trkpt>
      <trkpt lat="56.35426" lon="-5.07836">
        <ele>90.56</ele>
        <time>2021-03-20T15:25:47Z</time>
      </trkpt>
      <trkpt lat="56.35411" lon="-5.07844">
        <ele>90.42</ele>
        <time>2021-03-20T15:25:51Z</time>
      </trkpt>
      <trkpt lat="56.35398" lon="-5.07846">
        <ele>89.88</ele>
        <time>2021-03-20T15:25:55Z</time>
      </trkpt>
      <trkpt lat="56.35375" lon="-5.07842">
        <ele>89.17</ele>
        <time>2021-03-20T15:25:59Z</time>
      </trkpt>
      <trkpt lat="56.3535" lon="-5.07828">
        <ele>88.22</ele>
        <time>2021-03-20T15:26:03Z</time>
      </trkpt>
      <trkpt lat="56.35327" lon="-5.078">
        <ele>86.57</ele>
        <time>2021-03-20T15:26:07Z</time>
      </trkpt>
      <trkpt lat="56.35292" lon="-5.07745">
        <ele>86.69</ele>
        <time>2021-03-20T15:26:10Z</time>
      </trkpt>
      <trkpt lat="56.35265" lon="-5.07713">
        <ele>87.65</ele>
        <time>2021-03-20T15:26:14Z</time>
      </trkpt>
      <trkpt lat="56.35253" lon="-5.07702">
        <ele>88.46</ele>
        <time>2021-03-20T15:26:18Z</time>
      </trkpt>
      <trkpt lat="56.35242" lon="-5.07695">
        <ele>88.66</ele>
        <time>2021-03-20T15:26:22Z</time>
      </trkpt>
      <trkpt lat="56.35216" lon="-5.07686">
        <ele>88.62</ele>
        <time>2021-03-20T15:26:26Z</time>
      </trkpt>
      <trkpt lat="56.3519" lon="-5.07686">
        <ele>88.73</ele>
        <time>2021-03-20T15:26:30Z</time>
      </trkpt>
      <trkpt lat="56.35164" lon="-5.07695">
        <ele>89.16</ele>
        <time>2021-03-20T15:26:34Z</time>
      </trkpt>
      <trkpt lat="56.3514" lon="-5.07712">
        <ele>90.32</ele>
        <time>2021-03-20T15:26:38Z</time>
      </trkpt>
      <trkpt lat="56.34999" lon="-5.07826">
        <ele>94.41</ele>
        <time>2021-03-20T15:26:42Z</time>
      </trkpt>
      <trkpt lat="56.34959" lon="-5.07853">
        <ele>98.05</ele>
        <time>2021-03-20T15:26:46Z</time>
      </trkpt>
      <trkpt lat="56.34942" lon="-5.07861">
        <ele>100.15</ele>
        <time>2021-03-20T15:26:50Z</time>
      </trkpt>
      <trkpt lat="56.34919" lon="-5.07866">
        <ele>101.86</ele>
        <time>2021-03-20T15:26:54Z</time>
      </trkpt>
      <trkpt lat="56.34822" lon="-5.07862">
        <ele>109.01</ele>
        <time>2021-03-20T15:26:58Z</time>
      </trkpt>
      <trkpt lat="56.34798" lon="-5.07867">
        <ele>109.48</ele>
        <time>2021-03-20T15:27:02Z</time>
      </trkpt>
      <trkpt lat="56.34779" lon="-5.07878">
        <ele>110.54</ele>
        <time>2021-03-20T15:27:06Z</time>
      </trkpt>
      <trkpt lat="56.34683" lon="-5.07986">
        <ele>118.76</ele>
        <time>2021-03-20T15:27:10Z</time>
      </trkpt>
      <trkpt lat="56.34662" lon="-5.07996">
        <ele>119.04</ele>
        <time>2021-03-20T15:27:13Z</time>
      </trkpt>
      <trkpt lat="56.34637" lon="-5.07987">
        <ele>119.59</ele>
        <time>2021-03-20T15:27:17Z</time>
      </trkpt>
      <trkpt lat="56.34604" lon="-5.0797">
        <ele>120.64</ele>
        <time>2021-03-20T15:27:21Z</time>
      </trkpt>
      <trkpt lat="56.34412" lon="-5.07738">
        <ele>132.72</ele>
        <time>2021-03-20T15:27:25Z</time>
      </trkpt>
      <trkpt lat="56.34369" lon="-5.07703">
        <ele>133.71</ele>
        <time>2021-03-20T15:27:29Z</time>
      </trkpt>
      <trkpt lat="56.34332" lon="-5.07683">
        <ele>136.75</ele>
        <time>2021-03-20T15:27:33Z</time>
      </trkpt>
      <trkpt lat="56.34285" lon="-5.0767">
        <ele>141.71</ele>
        <time>2021-03-20T15:27:37Z</time>
      </trkpt>
      <trkpt lat="56.34235" lon="-5.07668">
        <ele>144.66</ele>
        <time>2021-03-20T15:27:41Z</time>
      </trkpt>
      <trkpt lat="56.34196" lon="-5.07687">
        <ele>148.85</ele>
        <time>2021-03-20T15:27:45Z</time>
      </trkpt>
      <trkpt lat="56.34108" lon="-5.07744">
        <ele>156.86</ele>
        <time>2021-03-20T15:27:49Z</time>
      </trkpt>
      <trkpt lat="56.34064" lon="-5.07754">
        <ele>163.56</ele>
        <time>2021-03-20T15:27:53Z</time>
      </trkpt>
      <trkpt lat="56.34026" lon="-5.07741">
        <ele>166.08</ele>
        <time>2021-03-20T15:27:57Z</time>
      </trkpt>
      <trkpt lat="56.33988" lon="-5.07707">
        <ele>167.81</ele>
        <time>2021-03-20T15:28:01Z</time>
      </trkpt>
      <trkpt lat="56.3386" lon="-5.07537">
        <ele>175.31</ele>
        <time>2021-03-20T15:28:05Z</time>
      </trkpt>
      <trkpt lat="56.33817" lon="-5.07497">
        <ele>181.49</ele>
        <time>2021-03-20T15:28:09Z</time>
      </trkpt>
      <trkpt lat="56.33708" lon="-5.07467">
        <ele>188.68</ele>
        <time>2021-03-20T15:28:12Z</time>
      </trkpt>
      <trkpt lat="56.33676" lon="-5.07447">
        <ele>190.62</ele>
        <time>2021-03-20T15:28:16Z</time>
      </trkpt>
      <trkpt lat="56.33611" lon="-5.0738">
        <ele>195.59</ele>
        <time>2021-03-20T15:28:20Z</time>
      </trkpt>
      <trkpt lat="56.33584" lon="-5.07371">
        <ele>194.7</ele>
        <time>2021-03-20T15:28:24Z</time>
      </trkpt>
      <trkpt lat="56.33544" lon="-5.07366">
        <ele>195.68</ele>
        <time>2021-03-20T15:28:28Z</time>
      </trkpt>
      <trkpt lat="56.33372" lon="-5.07394">
        <ele>203.21</ele>
        <time>2021-03-20T15:28:32Z</time>
      </trkpt>
      <trkpt lat="56.33338" lon="-5.07404">
        <ele>205</ele>
        <time>2021-03-20T15:28:36Z</time>
      </trkpt>
      <trkpt lat="56.33175" lon="-5.07398">
        <ele>208</ele>
        <time>2021-03-20T15:28:40Z</time>
      </trkpt>
      <trkpt lat="56.33016" lon="-5.07403">
        <ele>213</ele>
        <time>2021-03-20T15:28:44Z</time>
      </trkpt>
      <trkpt lat="56.32977" lon="-5.07418">
        <ele>213</ele>
        <time>2021-03-20T15:28:48Z</time>
      </trkpt>
      <trkpt lat="56.32941" lon="-5.07442">
        <ele>212.77</ele>
        <time>2021-03-20T15:28:52Z</time>
      </trkpt>
      <trkpt lat="56.32871" lon="-5.07532">
        <ele>209.24</ele>
        <time>2021-03-20T15:28:56Z</time>
      </trkpt>
      <trkpt lat="56.32842" lon="-5.07558">
        <ele>207.14</ele>
        <time>2021-03-20T15:29:00Z</time>
      </trkpt>
      <trkpt lat="56.32658" lon="-5.07688">
        <ele>206.39</ele>
        <time>2021-03-20T15:29:04Z</time>
      </trkpt>
      <trkpt lat="56.32607" lon="-5.07714">
        <ele>202.25</ele>
        <time>2021-03-20T15:29:08Z</time>
      </trkpt>
      <trkpt lat="56.3247" lon="-5.07766">
        <ele>192.91</ele>
        <time>2021-03-20T15:29:11Z</time>
      </trkpt>
      <trkpt lat="56.32288" lon="-5.07888">
        <ele>186.81</ele>
        <time>2021-03-20T15:29:15Z</time>
      </trkpt>
      <trkpt lat="56.32243" lon="-5.07924">
        <ele>184.61</ele>
        <time>2021-03-20T15:29:19Z</time>
      </trkpt>
      <trkpt lat="56.32171" lon="-5.07994">
        <ele>180.65</ele>
        <time>2021-03-20T15:29:23Z</time>
      </trkpt>
      <trkpt lat="56.32129" lon="-5.08043">
        <ele>177.93</ele>
        <time>2021-03-20T15:29:27Z</time>
      </trkpt>
      <trkpt lat="56.32068" lon="-5.08135">
        <ele>175.9</ele>
        <time>2021-03-20T15:29:31Z</time>
      </trkpt>
      <trkpt lat="56.32016" lon="-5.0827">
        <ele>176.07</ele>
        <time>2021-03-20T15:29:35Z</time>
      </trkpt>
      <trkpt lat="56.31981" lon="-5.08379">
        <ele>169.13</ele>
        <time>2021-03-20T15:29:39Z</time>
      </trkpt>
      <trkpt lat="56.31963" lon="-5.08419">
        <ele>167.44</ele>
        <time>2021-03-20T15:29:43Z</time>
      </trkpt>
      <trkpt lat="56.31945" lon="-5.08451">
        <ele>165.35</ele>
        <time>2021-03-20T15:29:47Z</time>
      </trkpt>
      <trkpt lat="56.31923" lon="-5.08476">
        <ele>166.26</ele>
        <time>2021-03-20T15:29:51Z</time>
      </trkpt>
      <trkpt lat="56.31873" lon="-5.0851">
        <ele>162.61</ele>
        <time>2021-03-20T15:29:55Z</time>
      </trkpt>
      <trkpt lat="56.31819" lon="-5.08509">
        <ele>158.13</ele>
        <time>2021-03-20T15:29:59Z</time>
      </trkpt>
      <trkpt lat="56.31757" lon="-5.08467">
        <ele>154.99</ele>
        <time>2021-03-20T15:30:03Z</time>
      </trkpt>
      <trkpt lat="56.31726" lon="-5.08453">
        <ele>154.04</ele>
        <time>2021-03-20T15:30:07Z</time>
      </trkpt>
      <trkpt lat="56.31564" lon="-5.0843">
        <ele>148.45</ele>
        <time>2021-03-20T15:30:10Z</time>
      </trkpt>
      <trkpt lat="56.3145" lon="-5.08394">
        <ele>144.35</ele>
        <time>2021-03-20T15:30:14Z</time>
      </trkpt>
      <trkpt lat="56.31417" lon="-5.0839">
        <ele>144.03</ele>
        <time>2021-03-20T15:30:18Z</time>
      </trkpt>
      <trkpt lat="56.31386" lon="-5.08399">
        <ele>143.24</ele>
        <time>2021-03-20T15:30:22Z</time>
      </trkpt>
      <trkpt lat="56.31353" lon="-5.08416">
        <ele>142.38</ele>
        <time>2021-03-20T15:30:26Z</time>
      </trkpt>
      <trkpt lat="56.31324" lon="-5.08447">
        <ele>140.8</ele>
        <time>2021-03-20T15:30:30Z</time>
      </trkpt>
      <trkpt lat="56.31266" lon="-5.08515">
        <ele>140.84</ele>
        <time>2021-03-20T15:30:34Z</time>
      </trkpt>
      <trkpt lat="56.31245" lon="-5.08527">
        <ele>139.96</ele>
        <time>2021-03-20T15:30:38Z</time>
      </trkpt>
      <trkpt lat="56.31217" lon="-5.0853">
        <ele>140.28</ele>
        <time>2021-03-20T15:30:42Z</time>
      </trkpt>
      <trkpt lat="56.31158" lon="-5.08508">
        <ele>140.81</ele>
        <time>2021-03-20T15:30:46Z</time>
      </trkpt>
      <trkpt lat="56.31131" lon="-5.08504">
        <ele>139.96</ele>
        <time>2021-03-20T15:30:50Z</time>
      </trkpt>
      <trkpt lat="56.31016" lon="-5.08525">
        <ele>139.56</ele>
        <time>2021-03-20T15:30:54Z</time>
      </trkpt>
      <trkpt lat="56.3099" lon="-5.08518">
        <ele>138.53</ele>
        <time>2021-03-20T15:30:58Z</time>
      </trkpt>
      <trkpt lat="56.30961" lon="-5.08494">
        <ele>135.71</ele>
        <time>2021-03-20T15:31:02Z</time>
      </trkpt>
      <trkpt lat="56.30914" lon="-5.08443">
        <ele>132</ele>
        <time>2021-03-20T15:31:06Z</time>
      </trkpt>
      <trkpt lat="56.30872" lon="-5.08433">
        <ele>130.76</ele>
        <time>2021-03-20T15:31:09Z</time>
      </trkpt>
      <trkpt lat="56.30844" lon="-5.08442">
        <ele>128.8</ele>
        <time>2021-03-20T15:31:13Z</time>
      </trkpt>
      <trkpt lat="56.30736" lon="-5.0851">
        <ele>128.87</ele>
        <time>2021-03-20T15:31:17Z</time>
      </trkpt>
      <trkpt lat="56.30631" lon="-5.08524">
        <ele>126.27</ele>
        <time>2021-03-20T15:31:21Z</time>
      </trkpt>
      <trkpt lat="56.30584" lon="-5.08543">
        <ele>124.57</ele>
        <time>2021-03-20T15:31:25Z</time>
      </trkpt>
      <trkpt lat="56.30457" lon="-5.08645">
        <ele>122.32</ele>
        <time>2021-03-20T15:31:29Z</time>
      </trkpt>
      <trkpt lat="56.30427" lon="-5.08661">
        <ele>121.95</ele>
        <time>2021-03-20T15:31:33Z</time>
      </trkpt>
      <trkpt lat="56.30307" lon="-5.08691">
        <ele>121.68</ele>
        <time>2021-03-20T15:31:37Z</time>
      </trkpt>
      <trkpt lat="56.30167" lon="-5.08749">
        <ele>116.89</ele>
        <time>2021-03-20T15:31:41Z</time>
      </trkpt>
      <trkpt lat="56.30128" lon="-5.08768">
        <ele>117.17</ele>
        <time>2021-03-20T15:31:45Z</time>
      </trkpt>
      <trkpt lat="56.29978" lon="-5.08859">
        <ele>115.07</ele>
        <time>2021-03-20T15:31:49Z</time>
      </trkpt>
      <trkpt lat="56.29429" lon="-5.09059">
        <ele>106.55</ele>
        <time>2021-03-20T15:31:53Z</time>
      </trkpt>
      <trkpt lat="56.29396" lon="-5.09067">
        <ele>104.96</ele>
        <time>2021-03-20T15:31:57Z</time>
      </trkpt>
      <trkpt lat="56.29357" lon="-5.09067">
        <ele>103.36</ele>
        <time>2021-03-20T15:32:01Z</time>
      </trkpt>
      <trkpt lat="56.29211" lon="-5.09046">
        <ele>103</ele>
        <time>2021-03-20T15:32:05Z</time>
      </trkpt>
      <trkpt lat="56.29169" lon="-5.09049">
        <ele>103</ele>
        <time>2021-03-20T15:32:08Z</time>
      </trkpt>
      <trkpt lat="56.29113" lon="-5.09066">
        <ele>103.66</ele>
        <time>2021-03-20T15:32:12Z</time>
      </trkpt>
      <trkpt lat="56.28738" lon="-5.09232">
        <ele>96.83</ele>
        <time>2021-03-20T15:32:16Z</time>
      </trkpt>
      <trkpt lat="56.28686" lon="-5.09241">
        <ele>94.47</ele>
        <time>2021-03-20T15:32:20Z</time>
      </trkpt>
      <trkpt lat="56.28607" lon="-5.09232">
        <ele>94.95</ele>
        <time>2021-03-20T15:32:24Z</time>
      </trkpt>
      <trkpt lat="56.28548" lon="-5.09249">
        <ele>95.32</ele>
        <time>2021-03-20T15:32:28Z</time>
      </trkpt>
      <trkpt lat="56.28376" lon="-5.094">
        <ele>93.66</ele>
        <time>2021-03-20T15:32:32Z</time>
      </trkpt>
      <trkpt lat="56.28336" lon="-5.09416">
        <ele>91.2</ele>
        <time>2021-03-20T15:32:36Z</time>
      </trkpt>
      <trkpt lat="56.28132" lon="-5.0943">
        <ele>90.72</ele>
        <time>2021-03-20T15:32:40Z</time>
      </trkpt>
      <trkpt lat="56.28097" lon="-5.09426">
        <ele>90</ele>
        <time>2021-03-20T15:32:44Z</time>
      </trkpt>
      <trkpt lat="56.28055" lon="-5.09406">
        <ele>90.26</ele>
        <time>2021-03-20T15:32:48Z</time>
      </trkpt>
      <trkpt lat="56.28001" lon="-5.09364">
        <ele>93.96</ele>
        <time>2021-03-20T15:32:52Z</time>
      </trkpt>
      <trkpt lat="56.27946" lon="-5.09273">
        <ele>93.06</ele>
        <time>2021-03-20T15:32:56Z</time>
      </trkpt>
      <trkpt lat="56.27839" lon="-5.09064">
        <ele>93.3</ele>
        <time>2021-03-20T15:33:00Z</time>
      </trkpt>
      <trkpt lat="56.27771" lon="-5.08968">
        <ele>91.05</ele>
        <time>2021-03-20T15:33:04Z</time>
      </trkpt>
      <trkpt lat="56.27693" lon="-5.08889">
        <ele>90.07</ele>
        <time>2021-03-20T15:33:07Z</time>
      </trkpt>
      <trkpt lat="56.2763" lon="-5.08835">
        <ele>89.13</ele>
        <time>2021-03-20T15:33:11Z</time>
      </trkpt>
      <trkpt lat="56.2749" lon="-5.08748">
        <ele>87.89</ele>
        <time>2021-03-20T15:33:15Z</time>
      </trkpt>
      <trkpt lat="56.2743" lon="-5.08727">
        <ele>87.26</ele>
        <time>2021-03-20T15:33:19Z</time>
      </trkpt>
      <trkpt lat="56.2737" lon="-5.08713">
        <ele>84.99</ele>
        <time>2021-03-20T15:33:23Z</time>
      </trkpt>
      <trkpt lat="56.27297" lon="-5.08708">
        <ele>81.89</ele>
        <time>2021-03-20T15:33:27Z</time>
      </trkpt>
      <trkpt lat="56.27228" lon="-5.08711">
        <ele>78</ele>
        <time>2021-03-20T15:33:31Z</time>
      </trkpt>
      <trkpt lat="56.2697" lon="-5.08807">
        <ele>67.94</ele>
        <time>2021-03-20T15:33:35Z</time>
      </trkpt>
      <trkpt lat="56.26867" lon="-5.08853">
        <ele>67.06</ele>
        <time>2021-03-20T15:33:39Z</time>
      </trkpt>
      <trkpt lat="56.26815" lon="-5.08866">
        <ele>67.82</ele>
        <time>2021-03-20T15:33:43Z</time>
      </trkpt>
      <trkpt lat="56.2676" lon="-5.08867">
        <ele>67.63</ele>
        <time>2021-03-20T15:33:47Z</time>
      </trkpt>
      <trkpt lat="56.26711" lon="-5.08854">
        <ele>64.12</ele>
        <time>2021-03-20T15:33:51Z</time>
      </trkpt>
      <trkpt lat="56.26269" lon="-5.08681">
        <ele>57.7</ele>
        <time>2021-03-20T15:33:55Z</time>
      </trkpt>
      <trkpt lat="56.26189" lon="-5.08659">
        <ele>58.63</ele>
        <time>2021-03-20T15:33:59Z</time>
      </trkpt>
      <trkpt lat="56.26105" lon="-5.0866">
        <ele>58.65</ele>
        <time>2021-03-20T15:34:03Z</time>
      </trkpt>
      <trkpt lat="56.26027" lon="-5.08675">
        <ele>57.38</ele>
        <time>2021-03-20T15:34:07Z</time>
      </trkpt>
      <trkpt lat="56.25966" lon="-5.08698">
        <ele>54.78</ele>
        <time>2021-03-20T15:34:10Z</time>
      </trkpt>
      <trkpt lat="56.25906" lon="-5.08731">
        <ele>52.23</ele>
        <time>2021-03-20T15:34:14Z</time>
      </trkpt>
      <trkpt lat="56.25838" lon="-5.08794">
        <ele>51.76</ele>
        <time>2021-03-20T15:34:18Z</time>
      </trkpt>
      <trkpt lat="56.25755" lon="-5.08885">
        <ele>50.47</ele>
        <time>2021-03-20T15:34:22Z</time>
      </trkpt>
      <trkpt lat="56.25547" lon="-5.09159">
        <ele>53.02</ele>
        <time>2021-03-20T15:34:26Z</time>
      </trkpt>
      <trkpt lat="56.25462" lon="-5.09299">
        <ele>59.66</ele>
        <time>2021-03-20T15:34:30Z</time>
      </trkpt>
      <trkpt lat="56.25448" lon="-5.09317">
        <ele>60.46</ele>
        <time>2021-03-20T15:34:34Z</time>
      </trkpt>
      <trkpt lat="56.25421" lon="-5.09347">
        <ele>57.51</ele>
        <time>2021-03-20T15:34:38Z</time>
      </trkpt>
      <trkpt lat="56.25385" lon="-5.09372">
        <ele>51.29</ele>
        <time>2021-03-20T15:34:42Z</time>
      </trkpt>
      <trkpt lat="56.25354" lon="-5.09386">
        <ele>48.22</ele>
        <time>2021-03-20T15:34:46Z</time>
      </trkpt>
      <trkpt lat="56.25334" lon="-5.0939">
        <ele>47.18</ele>
        <time>2021-03-20T15:34:50Z</time>
      </trkpt>
      <trkpt lat="56.25296" lon="-5.09387">
        <ele>44.57</ele>
        <time>2021-03-20T15:34:54Z</time>
      </trkpt>
      <trkpt lat="56.25278" lon="-5.09381">
        <ele>43.72</ele>
        <time>2021-03-20T15:34:58Z</time>
      </trkpt>
      <trkpt lat="56.25248" lon="-5.09361">
        <ele>44.09</ele>
        <time>2021-03-20T15:35:02Z</time>
      </trkpt>
      <trkpt lat="56.25218" lon="-5.09331">
        <ele>44.19</ele>
        <time>2021-03-20T15:35:06Z</time>
      </trkpt>
      <trkpt lat="56.25175" lon="-5.09275">
        <ele>46.77</ele>
        <time>2021-03-20T15:35:09Z</time>
      </trkpt>
      <trkpt lat="56.25078" lon="-5.0914">
        <ele>48.45</ele>
        <time>2021-03-20T15:35:13Z</time>
      </trkpt>
      <trkpt lat="56.2503" lon="-5.09094">
        <ele>42.13</ele>
        <time>2021-03-20T15:35:17Z</time>
      </trkpt>
      <trkpt lat="56.24988" lon="-5.09078">
        <ele>42.72</ele>
        <time>2021-03-20T15:35:21Z</time>
      </trkpt>
      <trkpt lat="56.24925" lon="-5.09079">
        <ele>43.62</ele>
        <time>2021-03-20T15:35:25Z</time>
      </trkpt>
      <trkpt lat="56.24671" lon="-5.09161">
        <ele>29.34</ele>
        <time>2021-03-20T15:35:29Z</time>
      </trkpt>
      <trkpt lat="56.24521" lon="-5.09196">
        <ele>33.11</ele>
        <time>2021-03-20T15:35:33Z</time>
      </trkpt>
      <trkpt lat="56.24461" lon="-5.09176">
        <ele>30.42</ele>
        <time>2021-03-20T15:35:37Z</time>
      </trkpt>
      <trkpt lat="56.24317" lon="-5.09009">
        <ele>34.58</ele>
        <time>2021-03-20T15:35:41Z</time>
      </trkpt>
      <trkpt lat="56.24221" lon="-5.08886">
        <ele>43.76</ele>
        <time>2021-03-20T15:35:45Z</time>
      </trkpt>
      <trkpt lat="56.24183" lon="-5.08817">
        <ele>41.01</ele>
        <time>2021-03-20T15:35:49Z</time>
      </trkpt>
      <trkpt lat="56.24157" lon="-5.08759">
        <ele>40.7</ele>
        <time>2021-03-20T15:35:53Z</time>
      </trkpt>
      <trkpt lat="56.24122" lon="-5.08681">
        <ele>40.49</ele>
        <time>2021-03-20T15:35:57Z</time>
      </trkpt>
      <trkpt lat="56.24089" lon="-5.08583">
        <ele>38.88</ele>
        <time>2021-03-20T15:36:01Z</time>
      </trkpt>
      <trkpt lat="56.24018" lon="-5.08336">
        <ele>42.14</ele>
        <time>2021-03-20T15:36:05Z</time>
      </trkpt>
      <trkpt lat="56.24003" lon="-5.0829">
        <ele>43.74</ele>
        <time>2021-03-20T15:36:08Z</time>
      </trkpt>
      <trkpt lat="56.23978" lon="-5.08234">
        <ele>46.46</ele>
        <time>2021-03-20T15:36:12Z</time>
      </trkpt>
      <trkpt lat="56.2395" lon="-5.08191">
        <ele>48.23</ele>
        <time>2021-03-20T15:36:16Z</time>
      </trkpt>
      <trkpt lat="56.23899" lon="-5.08118">
        <ele>47.35</ele>
        <time>2021-03-20T15:36:20Z</time>
      </trkpt>
      <trkpt lat="56.23749" lon="-5.07986">
        <ele>44.16</ele>
        <time>2021-03-20T15:36:24Z</time>
      </trkpt>
      <trkpt lat="56.23688" lon="-5.07913">
        <ele>39.77</ele>
        <time>2021-03-20T15:36:28Z</time>
      </trkpt>
      <trkpt lat="56.23656" lon="-5.07901">
        <ele>38.03</ele>
        <time>2021-03-20T15:36:32Z</time>
      </trkpt>
      <trkpt lat="56.23631" lon="-5.07904">
        <ele>38.83</ele>
        <time>2021-03-20T15:36:36Z</time>
      </trkpt>
      <trkpt lat="56.23481" lon="-5.07975">
        <ele>43.5</ele>
        <time>2021-03-20T15:36:40Z</time>
      </trkpt>
      <trkpt lat="56.23429" lon="-5.08019">
        <ele>46.05</ele>
        <time>2021-03-20T15:36:44Z</time>
      </trkpt>
      <trkpt lat="56.23376" lon="-5.0805">
        <ele>41.33</ele>
        <time>2021-03-20T15:36:48Z</time>
      </trkpt>
      <trkpt lat="56.23363" lon="-5.08051">
        <ele>38.76</ele>
        <time>2021-03-20T15:36:52Z</time>
      </trkpt>
      <trkpt lat="56.23352" lon="-5.08045">
        <ele>36.22</ele>
        <time>2021-03-20T15:36:56Z</time>
      </trkpt>
      <trkpt lat="56.23343" lon="-5.08029">
        <ele>32.48</ele>
        <time>2021-03-20T15:37:00Z</time>
      </trkpt>
      <trkpt lat="56.23308" lon="-5.07951">
        <ele>19.01</ele>
        <time>2021-03-20T15:37:04Z</time>
      </trkpt>
      <trkpt lat="56.23256" lon="-5.07785">
        <ele>10.43</ele>
        <time>2021-03-20T15:37:07Z</time>
      </trkpt>
      <trkpt lat="56.23167" lon="-5.075">
        <ele>7.05</ele>
        <time>2021-03-20T15:37:11Z</time>
      </trkpt>
      <trkpt lat="56.23165" lon="-5.07466">
        <ele>7</ele>
        <time>2021-03-20T15:37:15Z</time>
      </trkpt>
      <trkpt lat="56.2317" lon="-5.07437">
        <ele>7.08</ele>
        <time>2021-03-20T15:37:19Z</time>
      </trkpt>
      <trkpt lat="56.23177" lon="-5.07411">
        <ele>6.78</ele>
        <time>2021-03-20T15:37:23Z</time>
      </trkpt>
      <trkpt lat="56.23194" lon="-5.07374">
        <ele>5.47</ele>
        <time>2021-03-20T15:37:27Z</time>
      </trkpt>
      <trkpt lat="56.23203" lon="-5.07386">
        <ele>5.89</ele>
        <time>2021-03-20T15:37:31Z</time>
      </trkpt>
      <trkpt lat="56.2322" lon="-5.07388">
        <ele>5.95</ele>
        <time>2021-03-20T15:37:35Z</time>
      </trkpt>
      <trkpt lat="56.23263" lon="-5.07376">
        <ele>6.09</ele>
        <time>2021-03-20T15:37:38Z</time>
      </trkpt>
      <trkpt lat="56.23351" lon="-5.07348">
        <ele>8.17</ele>
        <time>2021-03-20T15:37:42Z</time>
      </trkpt>
      <trkpt lat="56.23374" lon="-5.07337">
        <ele>8.74</ele>
        <time>2021-03-20T15:37:46Z</time>
      </trkpt>
      <trkpt lat="56.23415" lon="-5.07304">
        <ele>8.64</ele>
        <time>2021-03-20T15:37:49Z</time>
      </trkpt>
      <trkpt lat="56.23457" lon="-5.07252">
        <ele>5.95</ele>
        <time>2021-03-20T15:37:53Z</time>
      </trkpt>
      <trkpt lat="56.23489" lon="-5.07198">
        <ele>6.56</ele>
        <time>2021-03-20T15:37:57Z</time>
      </trkpt>
      <trkpt lat="56.23566" lon="-5.0705">
        <ele>6.37</ele>
        <time>2021-03-20T15:38:00Z</time>
      </trkpt>
      <trkpt lat="56.23616" lon="-5.06939">
        <ele>4</ele>
        <time>2021-03-20T15:38:04Z</time>
      </trkpt>
      <trkpt lat="56.23717" lon="-5.06725">
        <ele>1.92</ele>
        <time>2021-03-20T15:38:08Z</time>
      </trkpt>
      <trkpt lat="56.23743" lon="-5.06673">
        <ele>0.47</ele>
        <time>2021-03-20T15:38:11Z</time>
      </trkpt>
      <trkpt lat="56.23755" lon="-5.06657">
        <ele>0.36</ele>
        <time>2021-03-20T15:38:15Z</time>
      </trkpt>
      <trkpt lat="56.23772" lon="-5.0664">
        <ele>1.56</ele>
        <time>2021-03-20T15:38:19Z</time>
      </trkpt>
      <trkpt lat="56.23823" lon="-5.06596">
        <ele>2.92</ele>
        <time>2021-03-20T15:38:22Z</time>
      </trkpt>
      <trkpt lat="56.2384" lon="-5.06576">
        <ele>2.53</ele>
        <time>2021-03-20T15:38:26Z</time>
      </trkpt>
      <trkpt lat="56.23858" lon="-5.06551">
        <ele>1.9</ele>
        <time>2021-03-20T15:38:30Z</time>
      </trkpt>
      <trkpt lat="56.23895" lon="-5.06483">
        <ele>4.18</ele>
        <time>2021-03-20T15:38:33Z</time>
      </trkpt>
      <trkpt lat="56.23952" lon="-5.06371">
        <ele>4.35</ele>
        <time>2021-03-20T15:38:37Z</time>
      </trkpt>
      <trkpt lat="56.23975" lon="-5.06334">
        <ele>4.24</ele>
        <time>2021-03-20T15:38:41Z</time>
      </trkpt>
      <trkpt lat="56.24016" lon="-5.06284">
        <ele>5.13</ele>
        <time>2021-03-20T15:38:44Z</time>
      </trkpt>
      <trkpt lat="56.24047" lon="-5.06241">
        <ele>5.39</ele>
        <time>2021-03-20T15:38:48Z</time>
      </trkpt>
      <trkpt lat="56.24147" lon="-5.06068">
        <ele>10.85</ele>
        <time>2021-03-20T15:38:52Z</time>
      </trkpt>
      <trkpt lat="56.24181" lon="-5.06022">
        <ele>11.37</ele>
        <time>2021-03-20T15:38:55Z</time>
      </trkpt>
      <trkpt lat="56.24315" lon="-5.05852">
        <ele>11.03</ele>
        <time>2021-03-20T15:38:59Z</time>
      </trkpt>
      <trkpt lat="56.24365" lon="-5.05803">
        <ele>11.15</ele>
        <time>2021-03-20T15:39:03Z</time>
      </trkpt>
      <trkpt lat="56.24414" lon="-5.05771">
        <ele>13.43</ele>
        <time>2021-03-20T15:39:06Z</time>
      </trkpt>
      <trkpt lat="56.24427" lon="-5.05759">
        <ele>14.09</ele>
        <time>2021-03-20T15:39:10Z</time>
      </trkpt>
      <trkpt lat="56.24479" lon="-5.05673">
        <ele>7.76</ele>
        <time>2021-03-20T15:39:14Z</time>
      </trkpt>
      <trkpt lat="56.24542" lon="-5.05578">
        <ele>20.07</ele>
        <time>2021-03-20T15:39:17Z</time>
      </trkpt>
      <trkpt lat="56.24598" lon="-5.05488">
        <ele>14.37</ele>
        <time>2021-03-20T15:39:21Z</time>
      </trkpt>
      <trkpt lat="56.24666" lon="-5.05393">
        <ele>12.45</ele>
        <time>2021-03-20T15:39:24Z</time>
      </trkpt>
      <trkpt lat="56.24707" lon="-5.05327">
        <ele>7.33</ele>
        <time>2021-03-20T15:39:28Z</time>
      </trkpt>
      <trkpt lat="56.24725" lon="-5.05293">
        <ele>7.64</ele>
        <time>2021-03-20T15:39:32Z</time>
      </trkpt>
      <trkpt lat="56.24718" lon="-5.05288">
        <ele>7.13</ele>
        <time>2021-03-20T15:39:35Z</time>
      </trkpt>
      <trkpt lat="56.24704" lon="-5.05268">
        <ele>6.36</ele>
        <time>2021-03-20T15:39:38Z</time>
      </trkpt>
      <trkpt lat="56.2473" lon="-5.05179">
        <ele>7.54</ele>
        <time>2021-03-20T15:39:45Z</time>
      </trkpt>
      <trkpt lat="56.24734" lon="-5.05159">
        <ele>8.26</ele>
        <time>2021-03-20T15:39:53Z</time>
      </trkpt>
      <trkpt lat="56.24734" lon="-5.05145">
        <ele>8.77</ele>
        <time>2021-03-20T15:40:05Z</time>
      </trkpt>
      <trkpt lat="56.24712" lon="-5.05051">
        <ele>10.24</ele>
        <time>2021-03-20T15:40:17Z</time>
      </trkpt>
      <trkpt lat="56.2462" lon="-5.04684">
        <ele>6.66</ele>
        <time>2021-03-20T15:40:29Z</time>
      </trkpt>
      <trkpt lat="56.24603" lon="-5.04618">
        <ele>5.44</ele>
        <time>2021-03-20T15:40:41Z</time>
      </trkpt>
      <trkpt lat="56.24597" lon="-5.04602">
        <ele>4.63</ele>
        <time>2021-03-20T15:40:53Z</time>
      </trkpt>
      <trkpt lat="56.24573" lon="-5.04504">
        <ele>5.69</ele>
        <time>2021-03-20T15:41:04Z</time>
      </trkpt>
      <trkpt lat="56.24571" lon="-5.04494">
        <ele>6.45</ele>
        <time>2021-03-20T15:41:16Z</time>
      </trkpt>
      <trkpt lat="56.2457" lon="-5.04479">
        <ele>7.51</ele>
        <time>2021-03-20T15:41:28Z</time>
      </trkpt>
      <trkpt lat="56.2453" lon="-5.04471">
        <ele>8.17</ele>
        <time>2021-03-20T15:41:33Z</time>
      </trkpt>
      <trkpt lat="56.24499" lon="-5.04471">
        <ele>10.27</ele>
        <time>2021-03-20T15:41:38Z</time>
      </trkpt>
      <trkpt lat="56.24469" lon="-5.04475">
        <ele>12.02</ele>
        <time>2021-03-20T15:41:43Z</time>
      </trkpt>
      <trkpt lat="56.24113" lon="-5.04609">
        <ele>15.28</ele>
        <time>2021-03-20T15:41:47Z</time>
      </trkpt>
      <trkpt lat="56.23899" lon="-5.04658">
        <ele>12.14</ele>
        <time>2021-03-20T15:41:52Z</time>
      </trkpt>
      <trkpt lat="56.23861" lon="-5.04659">
        <ele>14.71</ele>
        <time>2021-03-20T15:41:57Z</time>
      </trkpt>
      <trkpt lat="56.23809" lon="-5.04665">
        <ele>14.5</ele>
        <time>2021-03-20T15:42:02Z</time>
      </trkpt>
      <trkpt lat="56.2373" lon="-5.04682">
        <ele>15.43</ele>
        <time>2021-03-20T15:42:06Z</time>
      </trkpt>
      <trkpt lat="56.2366" lon="-5.04693">
        <ele>11.88</ele>
        <time>2021-03-20T15:42:11Z</time>
      </trkpt>
      <trkpt lat="56.23619" lon="-5.04693">
        <ele>14.04</ele>
        <time>2021-03-20T15:42:16Z</time>
      </trkpt>
      <trkpt lat="56.23521" lon="-5.04674">
        <ele>17.64</ele>
        <time>2021-03-20T15:42:21Z</time>
      </trkpt>
      <trkpt lat="56.23481" lon="-5.04663">
        <ele>15.87</ele>
        <time>2021-03-20T15:42:26Z</time>
      </trkpt>
      <trkpt lat="56.23445" lon="-5.04646">
        <ele>11.26</ele>
        <time>2021-03-20T15:42:30Z</time>
      </trkpt>
      <trkpt lat="56.23427" lon="-5.04632">
        <ele>9.07</ele>
        <time>2021-03-20T15:42:35Z</time>
      </trkpt>
      <trkpt lat="56.23414" lon="-5.04613">
        <ele>8.22</ele>
        <time>2021-03-20T15:42:40Z</time>
      </trkpt>
      <trkpt lat="56.23406" lon="-5.04587">
        <ele>7.7</ele>
        <time>2021-03-20T15:42:45Z</time>
      </trkpt>
      <trkpt lat="56.23394" lon="-5.04528">
        <ele>6.84</ele>
        <time>2021-03-20T15:42:49Z</time>
      </trkpt>
      <trkpt lat="56.23392" lon="-5.04492">
        <ele>7.35</ele>
        <time>2021-03-20T15:42:54Z</time>
      </trkpt>
      <trkpt lat="56.23412" lon="-5.04328">
        <ele>15.36</ele>
        <time>2021-03-20T15:42:59Z</time>
      </trkpt>
      <trkpt lat="56.23441" lon="-5.04074">
        <ele>14.6</ele>
        <time>2021-03-20T15:43:04Z</time>
      </trkpt>
      <trkpt lat="56.2345" lon="-5.04018">
        <ele>16.43</ele>
        <time>2021-03-20T15:43:09Z</time>
      </trkpt>
      <trkpt lat="56.23478" lon="-5.03888">
        <ele>15.96</ele>
        <time>2021-03-20T15:43:13Z</time>
      </trkpt>
      <trkpt lat="56.2351" lon="-5.03748">
        <ele>14.18</ele>
        <time>2021-03-20T15:43:18Z</time>
      </trkpt>
      <trkpt lat="56.23544" lon="-5.03604">
        <ele>16.83</ele>
        <time>2021-03-20T15:43:23Z</time>
      </trkpt>
      <trkpt lat="56.23578" lon="-5.03467">
        <ele>14.66</ele>
        <time>2021-03-20T15:43:28Z</time>
      </trkpt>
      <trkpt lat="56.23703" lon="-5.0313">
        <ele>15.24</ele>
        <time>2021-03-20T15:43:32Z</time>
      </trkpt>
      <trkpt lat="56.23837" lon="-5.0275">
        <ele>12.01</ele>
        <time>2021-03-20T15:43:37Z</time>
      </trkpt>
      <trkpt lat="56.23977" lon="-5.02379">
        <ele>17.97</ele>
        <time>2021-03-20T15:43:42Z</time>
      </trkpt>
      <trkpt lat="56.24015" lon="-5.02249">
        <ele>20.23</ele>
        <time>2021-03-20T15:43:47Z</time>
      </trkpt>
      <trkpt lat="56.24022" lon="-5.02173">
        <ele>19.45</ele>
        <time>2021-03-20T15:43:51Z</time>
      </trkpt>
      <trkpt lat="56.24031" lon="-5.02032">
        <ele>12.99</ele>
        <time>2021-03-20T15:43:56Z</time>
      </trkpt>
      <trkpt lat="56.24071" lon="-5.01804">
        <ele>15.34</ele>
        <time>2021-03-20T15:44:01Z</time>
      </trkpt>
      <trkpt lat="56.24178" lon="-5.0133">
        <ele>14.06</ele>
        <time>2021-03-20T15:44:06Z</time>
      </trkpt>
      <trkpt lat="56.24228" lon="-5.01138">
        <ele>17.86</ele>
        <time>2021-03-20T15:44:11Z</time>
      </trkpt>
      <trkpt lat="56.24264" lon="-5.01011">
        <ele>17.39</ele>
        <time>2021-03-20T15:44:15Z</time>
      </trkpt>
      <trkpt lat="56.24283" lon="-5.00923">
        <ele>17.84</ele>
        <time>2021-03-20T15:44:20Z</time>
      </trkpt>
      <trkpt lat="56.24305" lon="-5.00767">
        <ele>19.86</ele>
        <time>2021-03-20T15:44:25Z</time>
      </trkpt>
      <trkpt lat="56.24322" lon="-5.00592">
        <ele>16.49</ele>
        <time>2021-03-20T15:44:30Z</time>
      </trkpt>
      <trkpt lat="56.24328" lon="-5.00251">
        <ele>13.1</ele>
        <time>2021-03-20T15:44:34Z</time>
      </trkpt>
      <trkpt lat="56.24359" lon="-4.99814">
        <ele>18.02</ele>
        <time>2021-03-20T15:44:39Z</time>
      </trkpt>
      <trkpt lat="56.24362" lon="-4.9975">
        <ele>16.1</ele>
        <time>2021-03-20T15:44:44Z</time>
      </trkpt>
      <trkpt lat="56.24371" lon="-4.9964">
        <ele>13.85</ele>
        <time>2021-03-20T15:44:49Z</time>
      </trkpt>
      <trkpt lat="56.24378" lon="-4.99593">
        <ele>13.14</ele>
        <time>2021-03-20T15:44:53Z</time>
      </trkpt>
      <trkpt lat="56.24388" lon="-4.99538">
        <ele>12.3</ele>
        <time>2021-03-20T15:44:58Z</time>
      </trkpt>
      <trkpt lat="56.24428" lon="-4.99418">
        <ele>14.25</ele>
        <time>2021-03-20T15:45:03Z</time>
      </trkpt>
      <trkpt lat="56.24498" lon="-4.99187">
        <ele>10.68</ele>
        <time>2021-03-20T15:45:08Z</time>
      </trkpt>
      <trkpt lat="56.24529" lon="-4.99106">
        <ele>12.12</ele>
        <time>2021-03-20T15:45:13Z</time>
      </trkpt>
      <trkpt lat="56.2455" lon="-4.99028">
        <ele>10.97</ele>
        <time>2021-03-20T15:45:17Z</time>
      </trkpt>
      <trkpt lat="56.24571" lon="-4.98958">
        <ele>9.66</ele>
        <time>2021-03-20T15:45:22Z</time>
      </trkpt>
      <trkpt lat="56.24678" lon="-4.98736">
        <ele>16.05</ele>
        <time>2021-03-20T15:45:27Z</time>
      </trkpt>
      <trkpt lat="56.24715" lon="-4.98652">
        <ele>15.3</ele>
        <time>2021-03-20T15:45:32Z</time>
      </trkpt>
      <trkpt lat="56.24773" lon="-4.98506">
        <ele>15.63</ele>
        <time>2021-03-20T15:45:36Z</time>
      </trkpt>
      <trkpt lat="56.24834" lon="-4.98337">
        <ele>12.58</ele>
        <time>2021-03-20T15:45:41Z</time>
      </trkpt>
      <trkpt lat="56.249" lon="-4.98175">
        <ele>12.85</ele>
        <time>2021-03-20T15:45:46Z</time>
      </trkpt>
      <trkpt lat="56.24964" lon="-4.98025">
        <ele>10.47</ele>
        <time>2021-03-20T15:45:51Z</time>
      </trkpt>
      <trkpt lat="56.24995" lon="-4.97977">
        <ele>12.65</ele>
        <time>2021-03-20T15:45:56Z</time>
      </trkpt>
      <trkpt lat="56.2507" lon="-4.97884">
        <ele>15.36</ele>
        <time>2021-03-20T15:46:00Z</time>
      </trkpt>
      <trkpt lat="56.25101" lon="-4.97837">
        <ele>19.54</ele>
        <time>2021-03-20T15:46:05Z</time>
      </trkpt>
      <trkpt lat="56.25134" lon="-4.97777">
        <ele>19.88</ele>
        <time>2021-03-20T15:46:10Z</time>
      </trkpt>
      <trkpt lat="56.25333" lon="-4.97298">
        <ele>21.81</ele>
        <time>2021-03-20T15:46:15Z</time>
      </trkpt>
      <trkpt lat="56.25391" lon="-4.97141">
        <ele>21.98</ele>
        <time>2021-03-20T15:46:19Z</time>
      </trkpt>
      <trkpt lat="56.25411" lon="-4.97084">
        <ele>24.08</ele>
        <time>2021-03-20T15:46:24Z</time>
      </trkpt>
      <trkpt lat="56.25434" lon="-4.97025">
        <ele>25.57</ele>
        <time>2021-03-20T15:46:29Z</time>
      </trkpt>
      <trkpt lat="56.25459" lon="-4.96966">
        <ele>27.76</ele>
        <time>2021-03-20T15:46:34Z</time>
      </trkpt>
      <trkpt lat="56.25494" lon="-4.96893">
        <ele>31.47</ele>
        <time>2021-03-20T15:46:38Z</time>
      </trkpt>
      <trkpt lat="56.25521" lon="-4.9682">
        <ele>30.97</ele>
        <time>2021-03-20T15:46:43Z</time>
      </trkpt>
      <trkpt lat="56.25532" lon="-4.96778">
        <ele>30.64</ele>
        <time>2021-03-20T15:46:48Z</time>
      </trkpt>
      <trkpt lat="56.25573" lon="-4.96544">
        <ele>23.39</ele>
        <time>2021-03-20T15:46:53Z</time>
      </trkpt>
      <trkpt lat="56.25585" lon="-4.96494">
        <ele>23.32</ele>
        <time>2021-03-20T15:46:58Z</time>
      </trkpt>
      <trkpt lat="56.25597" lon="-4.96455">
        <ele>26</ele>
        <time>2021-03-20T15:47:02Z</time>
      </trkpt>
      <trkpt lat="56.25697" lon="-4.96186">
        <ele>28.48</ele>
        <time>2021-03-20T15:47:07Z</time>
      </trkpt>
      <trkpt lat="56.25712" lon="-4.96139">
        <ele>28.08</ele>
        <time>2021-03-20T15:47:12Z</time>
      </trkpt>
      <trkpt lat="56.2572" lon="-4.96104">
        <ele>26.85</ele>
        <time>2021-03-20T15:47:17Z</time>
      </trkpt>
      <trkpt lat="56.25726" lon="-4.96068">
        <ele>25.77</ele>
        <time>2021-03-20T15:47:21Z</time>
      </trkpt>
      <trkpt lat="56.25739" lon="-4.95949">
        <ele>23.61</ele>
        <time>2021-03-20T15:47:26Z</time>
      </trkpt>
      <trkpt lat="56.25767" lon="-4.95786">
        <ele>22.07</ele>
        <time>2021-03-20T15:47:31Z</time>
      </trkpt>
      <trkpt lat="56.25778" lon="-4.9571">
        <ele>23.1</ele>
        <time>2021-03-20T15:47:36Z</time>
      </trkpt>
      <trkpt lat="56.25808" lon="-4.95436">
        <ele>18.46</ele>
        <time>2021-03-20T15:47:41Z</time>
      </trkpt>
      <trkpt lat="56.25825" lon="-4.95311">
        <ele>18.75</ele>
        <time>2021-03-20T15:47:45Z</time>
      </trkpt>
      <trkpt lat="56.25869" lon="-4.95048">
        <ele>10.92</ele>
        <time>2021-03-20T15:47:50Z</time>
      </trkpt>
      <trkpt lat="56.25883" lon="-4.95001">
        <ele>9.19</ele>
        <time>2021-03-20T15:47:55Z</time>
      </trkpt>
      <trkpt lat="56.25892" lon="-4.94973">
        <ele>9.67</ele>
        <time>2021-03-20T15:48:00Z</time>
      </trkpt>
      <trkpt lat="56.25905" lon="-4.94944">
        <ele>9.31</ele>
        <time>2021-03-20T15:48:04Z</time>
      </trkpt>
      <trkpt lat="56.26026" lon="-4.94721">
        <ele>10.49</ele>
        <time>2021-03-20T15:48:09Z</time>
      </trkpt>
      <trkpt lat="56.26136" lon="-4.94513">
        <ele>12.3</ele>
        <time>2021-03-20T15:48:14Z</time>
      </trkpt>
      <trkpt lat="56.26204" lon="-4.94377">
        <ele>8.77</ele>
        <time>2021-03-20T15:48:19Z</time>
      </trkpt>
      <trkpt lat="56.26249" lon="-4.94283">
        <ele>5.51</ele>
        <time>2021-03-20T15:48:23Z</time>
      </trkpt>
      <trkpt lat="56.26289" lon="-4.94204">
        <ele>7.64</ele>
        <time>2021-03-20T15:48:28Z</time>
      </trkpt>
      <trkpt lat="56.26306" lon="-4.9418">
        <ele>9.09</ele>
        <time>2021-03-20T15:48:33Z</time>
      </trkpt>
      <trkpt lat="56.26355" lon="-4.94127">
        <ele>11.35</ele>
        <time>2021-03-20T15:48:38Z</time>
      </trkpt>
      <trkpt lat="56.26375" lon="-4.941">
        <ele>12.48</ele>
        <time>2021-03-20T15:48:43Z</time>
      </trkpt>
      <trkpt lat="56.26449" lon="-4.9398">
        <ele>8.63</ele>
        <time>2021-03-20T15:48:47Z</time>
      </trkpt>
      <trkpt lat="56.26502" lon="-4.93903">
        <ele>5.86</ele>
        <time>2021-03-20T15:48:52Z</time>
      </trkpt>
      <trkpt lat="56.26653" lon="-4.93699">
        <ele>9.59</ele>
        <time>2021-03-20T15:48:57Z</time>
      </trkpt>
      <trkpt lat="56.26794" lon="-4.93504">
        <ele>8.29</ele>
        <time>2021-03-20T15:49:02Z</time>
      </trkpt>
      <trkpt lat="56.26934" lon="-4.93279">
        <ele>5.53</ele>
        <time>2021-03-20T15:49:06Z</time>
      </trkpt>
      <trkpt lat="56.26974" lon="-4.93202">
        <ele>5.48</ele>
        <time>2021-03-20T15:49:11Z</time>
      </trkpt>
      <trkpt lat="56.27054" lon="-4.9303">
        <ele>4.95</ele>
        <time>2021-03-20T15:49:16Z</time>
      </trkpt>
      <trkpt lat="56.27089" lon="-4.92952">
        <ele>6.68</ele>
        <time>2021-03-20T15:49:21Z</time>
      </trkpt>
      <trkpt lat="56.27144" lon="-4.92819">
        <ele>9.63</ele>
        <time>2021-03-20T15:49:25Z</time>
      </trkpt>
      <trkpt lat="56.27159" lon="-4.92771">
        <ele>7.39</ele>
        <time>2021-03-20T15:49:30Z</time>
      </trkpt>
      <trkpt lat="56.27172" lon="-4.92717">
        <ele>5.03</ele>
        <time>2021-03-20T15:49:35Z</time>
      </trkpt>
      <trkpt lat="56.2719" lon="-4.92617">
        <ele>4.87</ele>
        <time>2021-03-20T15:49:40Z</time>
      </trkpt>
      <trkpt lat="56.27212" lon="-4.92489">
        <ele>2.39</ele>
        <time>2021-03-20T15:49:45Z</time>
      </trkpt>
      <trkpt lat="56.27274" lon="-4.9214">
        <ele>4</ele>
        <time>2021-03-20T15:49:49Z</time>
      </trkpt>
      <trkpt lat="56.27279" lon="-4.9208">
        <ele>3</ele>
        <time>2021-03-20T15:49:54Z</time>
      </trkpt>
      <trkpt lat="56.27278" lon="-4.92029">
        <ele>3.01</ele>
        <time>2021-03-20T15:49:59Z</time>
      </trkpt>
      <trkpt lat="56.27291" lon="-4.92021">
        <ele>3.23</ele>
        <time>2021-03-20T15:50:03Z</time>
      </trkpt>
      <trkpt lat="56.27296" lon="-4.92015">
        <ele>3.47</ele>
        <time>2021-03-20T15:50:07Z</time>
      </trkpt>
      <trkpt lat="56.27299" lon="-4.92004">
        <ele>3.86</ele>
        <time>2021-03-20T15:50:11Z</time>
      </trkpt>
      <trkpt lat="56.27303" lon="-4.91987">
        <ele>4</ele>
        <time>2021-03-20T15:50:15Z</time>
      </trkpt>
      <trkpt lat="56.27308" lon="-4.91944">
        <ele>4.17</ele>
        <time>2021-03-20T15:50:19Z</time>
      </trkpt>
      <trkpt lat="56.27308" lon="-4.91896">
        <ele>4.15</ele>
        <time>2021-03-20T15:50:23Z</time>
      </trkpt>
      <trkpt lat="56.27231" lon="-4.91658">
        <ele>6.22</ele>
        <time>2021-03-20T15:50:27Z</time>
      </trkpt>
      <trkpt lat="56.27218" lon="-4.91652">
        <ele>7.33</ele>
        <time>2021-03-20T15:50:30Z</time>
      </trkpt>
      <trkpt lat="56.27207" lon="-4.91655">
        <ele>7.9</ele>
        <time>2021-03-20T15:50:33Z</time>
      </trkpt>
      <trkpt lat="56.2713" lon="-4.9172">
        <ele>7.42</ele>
        <time>2021-03-20T15:50:36Z</time>
      </trkpt>
      <trkpt lat="56.27123" lon="-4.91731">
        <ele>6.95</ele>
        <time>2021-03-20T15:50:39Z</time>
      </trkpt>
      <trkpt lat="56.2712" lon="-4.91759">
        <ele>5.36</ele>
        <time>2021-03-20T15:50:42Z</time>
      </trkpt>
      <trkpt lat="56.27089" lon="-4.9176">
        <ele>6.14</ele>
        <time>2021-03-20T15:50:49Z</time>
      </trkpt>
      <trkpt lat="56.27069" lon="-4.91766">
        <ele>6.37</ele>
        <time>2021-03-20T15:50:57Z</time>
      </trkpt>
      <trkpt lat="56.2705" lon="-4.91776">
        <ele>6.57</ele>
        <time>2021-03-20T15:51:04Z</time>
      </trkpt>
      <trkpt lat="56.27034" lon="-4.91786">
        <ele>6.99</ele>
        <time>2021-03-20T15:51:11Z</time>
      </trkpt>
      <trkpt lat="56.26999" lon="-4.91823">
        <ele>6.86</ele>
        <time>2021-03-20T15:51:18Z</time>
      </trkpt>
      <trkpt lat="56.26607" lon="-4.92379">
        <ele>5.66</ele>
        <time>2021-03-20T15:51:25Z</time>
      </trkpt>
      <trkpt lat="56.26571" lon="-4.92432">
        <ele>5.05</ele>
        <time>2021-03-20T15:51:32Z</time>
      </trkpt>
      <trkpt lat="56.2647" lon="-4.92597">
        <ele>3.18</ele>
        <time>2021-03-20T15:51:40Z</time>
      </trkpt>
      <trkpt lat="56.2599" lon="-4.93244">
        <ele>4.11</ele>
        <time>2021-03-20T15:51:47Z</time>
      </trkpt>
      <trkpt lat="56.25968" lon="-4.9327">
        <ele>5.49</ele>
        <time>2021-03-20T15:51:54Z</time>
      </trkpt>
      <trkpt lat="56.2595" lon="-4.93287">
        <ele>8.26</ele>
        <time>2021-03-20T15:52:01Z</time>
      </trkpt>
      <trkpt lat="56.25947" lon="-4.93305">
        <ele>7.46</ele>
        <time>2021-03-20T15:52:07Z</time>
      </trkpt>
      <trkpt lat="56.25902" lon="-4.9337">
        <ele>4.23</ele>
        <time>2021-03-20T15:52:14Z</time>
      </trkpt>
      <trkpt lat="56.25872" lon="-4.93407">
        <ele>3.07</ele>
        <time>2021-03-20T15:52:20Z</time>
      </trkpt>
      <trkpt lat="56.25642" lon="-4.93719">
        <ele>3.84</ele>
        <time>2021-03-20T15:52:26Z</time>
      </trkpt>
      <trkpt lat="56.25605" lon="-4.93761">
        <ele>5.68</ele>
        <time>2021-03-20T15:52:33Z</time>
      </trkpt>
      <trkpt lat="56.25521" lon="-4.93853">
        <ele>6.01</ele>
        <time>2021-03-20T15:52:39Z</time>
      </trkpt>
      <trkpt lat="56.25504" lon="-4.93876">
        <ele>6.19</ele>
        <time>2021-03-20T15:52:45Z</time>
      </trkpt>
      <trkpt lat="56.25481" lon="-4.93897">
        <ele>6.79</ele>
        <time>2021-03-20T15:52:52Z</time>
      </trkpt>
      <trkpt lat="56.25435" lon="-4.93911">
        <ele>9.77</ele>
        <time>2021-03-20T15:52:58Z</time>
      </trkpt>
      <trkpt lat="56.25386" lon="-4.93937">
        <ele>10.63</ele>
        <time>2021-03-20T15:53:04Z</time>
      </trkpt>
      <trkpt lat="56.25327" lon="-4.93968">
        <ele>10.7</ele>
        <time>2021-03-20T15:53:11Z</time>
      </trkpt>
      <trkpt lat="56.25305" lon="-4.93991">
        <ele>11.41</ele>
        <time>2021-03-20T15:53:21Z</time>
      </trkpt>
      <trkpt lat="56.25278" lon="-4.94039">
        <ele>13.99</ele>
        <time>2021-03-20T15:53:31Z</time>
      </trkpt>
      <trkpt lat="56.25243" lon="-4.94051">
        <ele>18.41</ele>
        <time>2021-03-20T15:53:41Z</time>
      </trkpt>
      <trkpt lat="56.25197" lon="-4.94042">
        <ele>20.87</ele>
        <time>2021-03-20T15:53:51Z</time>
      </trkpt>
      <trkpt lat="56.25173" lon="-4.94029">
        <ele>22.69</ele>
        <time>2021-03-20T15:54:01Z</time>
      </trkpt>
      <trkpt lat="56.25153" lon="-4.94025">
        <ele>24.87</ele>
        <time>2021-03-20T15:54:11Z</time>
      </trkpt>
      <trkpt lat="56.2514" lon="-4.94031">
        <ele>25.57</ele>
        <time>2021-03-20T15:54:21Z</time>
      </trkpt>
      <trkpt lat="56.25125" lon="-4.94057">
        <ele>24.87</ele>
        <time>2021-03-20T15:54:31Z</time>
      </trkpt>
      <trkpt lat="56.25094" lon="-4.9415">
        <ele>22.48</ele>
        <time>2021-03-20T15:54:41Z</time>
      </trkpt>
      <trkpt lat="56.25081" lon="-4.94183">
        <ele>21.69</ele>
        <time>2021-03-20T15:54:51Z</time>
      </trkpt>
      <trkpt lat="56.25062" lon="-4.94201">
        <ele>22.18</ele>
        <time>2021-03-20T15:55:01Z</time>
      </trkpt>
      <trkpt lat="56.25007" lon="-4.94199">
        <ele>27.02</ele>
        <time>2021-03-20T15:55:11Z</time>
      </trkpt>
      <trkpt lat="56.24994" lon="-4.94195">
        <ele>28</ele>
        <time>2021-03-20T15:55:21Z</time>
      </trkpt>
      <trkpt lat="56.24919" lon="-4.94126">
        <ele>37.33</ele>
        <time>2021-03-20T15:55:31Z</time>
      </trkpt>
      <trkpt lat="56.24905" lon="-4.94133">
        <ele>38.76</ele>
        <time>2021-03-20T15:55:41Z</time>
      </trkpt>
      <trkpt lat="56.24889" lon="-4.94169">
        <ele>43.06</ele>
        <time>2021-03-20T15:55:51Z</time>
      </trkpt>
      <trkpt lat="56.24851" lon="-4.94109">
        <ele>48.06</ele>
        <time>2021-03-20T15:56:04Z</time>
      </trkpt>
      <trkpt lat="56.24828" lon="-4.94057">
        <ele>47.95</ele>
        <time>2021-03-20T15:56:16Z</time>
      </trkpt>
      <trkpt lat="56.24809" lon="-4.94012">
        <ele>47.02</ele>
        <time>2021-03-20T15:56:29Z</time>
      </trkpt>
      <trkpt lat="56.24796" lon="-4.93959">
        <ele>46.46</ele>
        <time>2021-03-20T15:56:41Z</time>
      </trkpt>
      <trkpt lat="56.24785" lon="-4.93903">
        <ele>45.25</ele>
        <time>2021-03-20T15:56:53Z</time>
      </trkpt>
      <trkpt lat="56.24775" lon="-4.93874">
        <ele>44.58</ele>
        <time>2021-03-20T15:57:06Z</time>
      </trkpt>
      <trkpt lat="56.24768" lon="-4.93817">
        <ele>43.19</ele>
        <time>2021-03-20T15:57:18Z</time>
      </trkpt>
      <trkpt lat="56.24753" lon="-4.93746">
        <ele>45.88</ele>
        <time>2021-03-20T15:57:31Z</time>
      </trkpt>
      <trkpt lat="56.24742" lon="-4.93679">
        <ele>48.23</ele>
        <time>2021-03-20T15:57:43Z</time>
      </trkpt>
      <trkpt lat="56.24697" lon="-4.93491">
        <ele>54.32</ele>
        <time>2021-03-20T15:57:56Z</time>
      </trkpt>
      <trkpt lat="56.24677" lon="-4.93431">
        <ele>56.13</ele>
        <time>2021-03-20T15:58:08Z</time>
      </trkpt>
      <trkpt lat="56.24665" lon="-4.93387">
        <ele>56.51</ele>
        <time>2021-03-20T15:58:21Z</time>
      </trkpt>
      <trkpt lat="56.24641" lon="-4.93355">
        <ele>62.19</ele>
        <time>2021-03-20T15:58:33Z</time>
      </trkpt>
      <trkpt lat="56.24655" lon="-4.93848">
        <ele>69.79</ele>
        <time>2021-03-20T15:58:39Z</time>
      </trkpt>
      <trkpt lat="56.2465" lon="-4.9397">
        <ele>67.48</ele>
        <time>2021-03-20T15:58:45Z</time>
      </trkpt>
      <trkpt lat="56.2464" lon="-4.94063">
        <ele>68.5</ele>
        <time>2021-03-20T15:58:51Z</time>
      </trkpt>
      <trkpt lat="56.24614" lon="-4.9418">
        <ele>70.41</ele>
        <time>2021-03-20T15:58:57Z</time>
      </trkpt>
      <trkpt lat="56.24584" lon="-4.94278">
        <ele>71.91</ele>
        <time>2021-03-20T15:59:03Z</time>
      </trkpt>
      <trkpt lat="56.24536" lon="-4.9441">
        <ele>71.37</ele>
        <time>2021-03-20T15:59:10Z</time>
      </trkpt>
      <trkpt lat="56.24475" lon="-4.94566">
        <ele>73.17</ele>
        <time>2021-03-20T15:59:16Z</time>
      </trkpt>
      <trkpt lat="56.24277" lon="-4.95087">
        <ele>75</ele>
        <time>2021-03-20T15:59:22Z</time>
      </trkpt>
      <trkpt lat="56.2422" lon="-4.95228">
        <ele>77.13</ele>
        <time>2021-03-20T15:59:28Z</time>
      </trkpt>
      <trkpt lat="56.2417" lon="-4.95344">
        <ele>78.26</ele>
        <time>2021-03-20T15:59:34Z</time>
      </trkpt>
      <trkpt lat="56.23949" lon="-4.95804">
        <ele>87.47</ele>
        <time>2021-03-20T15:59:40Z</time>
      </trkpt>
      <trkpt lat="56.23695" lon="-4.9638">
        <ele>104.21</ele>
        <time>2021-03-20T15:59:46Z</time>
      </trkpt>
      <trkpt lat="56.2367" lon="-4.96445">
        <ele>108.43</ele>
        <time>2021-03-20T15:59:52Z</time>
      </trkpt>
      <trkpt lat="56.23639" lon="-4.96538">
        <ele>110.04</ele>
        <time>2021-03-20T15:59:58Z</time>
      </trkpt>
      <trkpt lat="56.23589" lon="-4.9672">
        <ele>113.32</ele>
        <time>2021-03-20T16:00:04Z</time>
      </trkpt>
      <trkpt lat="56.23553" lon="-4.96838">
        <ele>117.15</ele>
        <time>2021-03-20T16:00:10Z</time>
      </trkpt>
      <trkpt lat="56.23519" lon="-4.96932">
        <ele>118.25</ele>
        <time>2021-03-20T16:00:16Z</time>
      </trkpt>
      <trkpt lat="56.23499" lon="-4.96982">
        <ele>117.41</ele>
        <time>2021-03-20T16:00:23Z</time>
      </trkpt>
      <trkpt lat="56.23444" lon="-4.97093">
        <ele>119.01</ele>
        <time>2021-03-20T16:00:29Z</time>
      </trkpt>
      <trkpt lat="56.23379" lon="-4.97202">
        <ele>118.48</ele>
        <time>2021-03-20T16:00:35Z</time>
      </trkpt>
      <trkpt lat="56.23337" lon="-4.97259">
        <ele>115.43</ele>
        <time>2021-03-20T16:00:41Z</time>
      </trkpt>
      <trkpt lat="56.23288" lon="-4.97315">
        <ele>110.32</ele>
        <time>2021-03-20T16:00:47Z</time>
      </trkpt>
      <trkpt lat="56.23252" lon="-4.97353">
        <ele>109.46</ele>
        <time>2021-03-20T16:00:53Z</time>
      </trkpt>
      <trkpt lat="56.23095" lon="-4.97491">
        <ele>105.67</ele>
        <time>2021-03-20T16:00:59Z</time>
      </trkpt>
      <trkpt lat="56.23074" lon="-4.97516">
        <ele>104.22</ele>
        <time>2021-03-20T16:01:05Z</time>
      </trkpt>
      <trkpt lat="56.2302" lon="-4.97586">
        <ele>103.56</ele>
        <time>2021-03-20T16:01:11Z</time>
      </trkpt>
      <trkpt lat="56.22981" lon="-4.97656">
        <ele>101.14</ele>
        <time>2021-03-20T16:01:17Z</time>
      </trkpt>
      <trkpt lat="56.22715" lon="-4.982">
        <ele>92.12</ele>
        <time>2021-03-20T16:01:23Z</time>
      </trkpt>
      <trkpt lat="56.22699" lon="-4.98234">
        <ele>91.89</ele>
        <time>2021-03-20T16:01:30Z</time>
      </trkpt>
      <trkpt lat="56.22654" lon="-4.98351">
        <ele>90.27</ele>
        <time>2021-03-20T16:01:36Z</time>
      </trkpt>
      <trkpt lat="56.22633" lon="-4.98456">
        <ele>87.21</ele>
        <time>2021-03-20T16:01:42Z</time>
      </trkpt>
      <trkpt lat="56.22622" lon="-4.98555">
        <ele>81.81</ele>
        <time>2021-03-20T16:01:48Z</time>
      </trkpt>
      <trkpt lat="56.22622" lon="-4.98648">
        <ele>77.74</ele>
        <time>2021-03-20T16:01:54Z</time>
      </trkpt>
      <trkpt lat="56.22625" lon="-4.98697">
        <ele>76.94</ele>
        <time>2021-03-20T16:02:00Z</time>
      </trkpt>
      <trkpt lat="56.22641" lon="-4.98805">
        <ele>72.88</ele>
        <time>2021-03-20T16:02:06Z</time>
      </trkpt>
      <trkpt lat="56.22723" lon="-4.99187">
        <ele>59.47</ele>
        <time>2021-03-20T16:02:12Z</time>
      </trkpt>
      <trkpt lat="56.22739" lon="-4.99256">
        <ele>54.36</ele>
        <time>2021-03-20T16:02:18Z</time>
      </trkpt>
      <trkpt lat="56.2275" lon="-4.99293">
        <ele>52.57</ele>
        <time>2021-03-20T16:02:24Z</time>
      </trkpt>
      <trkpt lat="56.2276" lon="-4.99322">
        <ele>52.25</ele>
        <time>2021-03-20T16:02:30Z</time>
      </trkpt>
      <trkpt lat="56.22778" lon="-4.99361">
        <ele>52.02</ele>
        <time>2021-03-20T16:02:36Z</time>
      </trkpt>
      <trkpt lat="56.229" lon="-4.99583">
        <ele>48.56</ele>
        <time>2021-03-20T16:02:43Z</time>
      </trkpt>
      <trkpt lat="56.2291" lon="-4.99609">
        <ele>49.14</ele>
        <time>2021-03-20T16:02:49Z</time>
      </trkpt>
      <trkpt lat="56.22931" lon="-4.99678">
        <ele>49.48</ele>
        <time>2021-03-20T16:02:55Z</time>
      </trkpt>
      <trkpt lat="56.2294" lon="-4.99723">
        <ele>48.49</ele>
        <time>2021-03-20T16:03:01Z</time>
      </trkpt>
      <trkpt lat="56.22944" lon="-4.99766">
        <ele>47.08</ele>
        <time>2021-03-20T16:03:07Z</time>
      </trkpt>
      <trkpt lat="56.22946" lon="-4.99806">
        <ele>45.75</ele>
        <time>2021-03-20T16:03:13Z</time>
      </trkpt>
      <trkpt lat="56.22946" lon="-4.99863">
        <ele>43.69</ele>
        <time>2021-03-20T16:03:19Z</time>
      </trkpt>
      <trkpt lat="56.22911" lon="-5.0047">
        <ele>42.32</ele>
        <time>2021-03-20T16:03:25Z</time>
      </trkpt>
      <trkpt lat="56.22901" lon="-5.00601">
        <ele>39.47</ele>
        <time>2021-03-20T16:03:31Z</time>
      </trkpt>
      <trkpt lat="56.22757" lon="-5.01606">
        <ele>14.35</ele>
        <time>2021-03-20T16:03:37Z</time>
      </trkpt>
      <trkpt lat="56.227" lon="-5.01919">
        <ele>4.93</ele>
        <time>2021-03-20T16:03:43Z</time>
      </trkpt>
      <trkpt lat="56.22681" lon="-5.02013">
        <ele>6.81</ele>
        <time>2021-03-20T16:03:50Z</time>
      </trkpt>
      <trkpt lat="56.2265" lon="-5.02131">
        <ele>3.89</ele>
        <time>2021-03-20T16:03:56Z</time>
      </trkpt>
      <trkpt lat="56.22628" lon="-5.02207">
        <ele>5.58</ele>
        <time>2021-03-20T16:04:02Z</time>
      </trkpt>
      <trkpt lat="56.22601" lon="-5.02288">
        <ele>6.74</ele>
        <time>2021-03-20T16:04:08Z</time>
      </trkpt>
      <trkpt lat="56.22579" lon="-5.02346">
        <ele>6.95</ele>
        <time>2021-03-20T16:04:14Z</time>
      </trkpt>
      <trkpt lat="56.22527" lon="-5.02465">
        <ele>8.91</ele>
        <time>2021-03-20T16:04:20Z</time>
      </trkpt>
      <trkpt lat="56.22461" lon="-5.02636">
        <ele>10.48</ele>
        <time>2021-03-20T16:04:26Z</time>
      </trkpt>
      <trkpt lat="56.22307" lon="-5.03149">
        <ele>4.77</ele>
        <time>2021-03-20T16:04:32Z</time>
      </trkpt>
      <trkpt lat="56.22278" lon="-5.03227">
        <ele>5.64</ele>
        <time>2021-03-20T16:04:38Z</time>
      </trkpt>
      <trkpt lat="56.22258" lon="-5.0326">
        <ele>3.31</ele>
        <time>2021-03-20T16:04:44Z</time>
      </trkpt>
      <trkpt lat="56.22201" lon="-5.03327">
        <ele>6.03</ele>
        <time>2021-03-20T16:04:50Z</time>
      </trkpt>
      <trkpt lat="56.2216" lon="-5.03387">
        <ele>8.79</ele>
        <time>2021-03-20T16:04:57Z</time>
      </trkpt>
      <trkpt lat="56.22143" lon="-5.03416">
        <ele>9.47</ele>
        <time>2021-03-20T16:05:03Z</time>
      </trkpt>
      <trkpt lat="56.21988" lon="-5.03721">
        <ele>2.78</ele>
        <time>2021-03-20T16:05:09Z</time>
      </trkpt>
      <trkpt lat="56.21954" lon="-5.03777">
        <ele>5.8</ele>
        <time>2021-03-20T16:05:15Z</time>
      </trkpt>
      <trkpt lat="56.21903" lon="-5.03848">
        <ele>8.77</ele>
        <time>2021-03-20T16:05:21Z</time>
      </trkpt>
      <trkpt lat="56.21884" lon="-5.03883">
        <ele>9.67</ele>
        <time>2021-03-20T16:05:27Z</time>
      </trkpt>
      <trkpt lat="56.2184" lon="-5.03991">
        <ele>6.77</ele>
        <time>2021-03-20T16:05:33Z</time>
      </trkpt>
      <trkpt lat="56.21815" lon="-5.04043">
        <ele>4.91</ele>
        <time>2021-03-20T16:05:39Z</time>
      </trkpt>
      <trkpt lat="56.21792" lon="-5.04083">
        <ele>4.89</ele>
        <time>2021-03-20T16:05:45Z</time>
      </trkpt>
      <trkpt lat="56.21635" lon="-5.04297">
        <ele>8.13</ele>
        <time>2021-03-20T16:05:51Z</time>
      </trkpt>
      <trkpt lat="56.21606" lon="-5.04341">
        <ele>8.91</ele>
        <time>2021-03-20T16:05:57Z</time>
      </trkpt>
      <trkpt lat="56.21573" lon="-5.04397">
        <ele>7.69</ele>
        <time>2021-03-20T16:06:03Z</time>
      </trkpt>
      <trkpt lat="56.21507" lon="-5.04534">
        <ele>7.68</ele>
        <time>2021-03-20T16:06:10Z</time>
      </trkpt>
      <trkpt lat="56.2147" lon="-5.04599">
        <ele>7.31</ele>
        <time>2021-03-20T16:06:16Z</time>
      </trkpt>
      <trkpt lat="56.21388" lon="-5.04731">
        <ele>6.42</ele>
        <time>2021-03-20T16:06:22Z</time>
      </trkpt>
      <trkpt lat="56.21335" lon="-5.0482">
        <ele>10.02</ele>
        <time>2021-03-20T16:06:28Z</time>
      </trkpt>
      <trkpt lat="56.21306" lon="-5.04881">
        <ele>13.28</ele>
        <time>2021-03-20T16:06:34Z</time>
      </trkpt>
      <trkpt lat="56.21291" lon="-5.04918">
        <ele>12.63</ele>
        <time>2021-03-20T16:06:40Z</time>
      </trkpt>
      <trkpt lat="56.21232" lon="-5.05094">
        <ele>10.08</ele>
        <time>2021-03-20T16:06:46Z</time>
      </trkpt>
      <trkpt lat="56.21215" lon="-5.05135">
        <ele>10.03</ele>
        <time>2021-03-20T16:06:52Z</time>
      </trkpt>
      <trkpt lat="56.20974" lon="-5.05635">
        <ele>10.63</ele>
        <time>2021-03-20T16:06:58Z</time>
      </trkpt>
      <trkpt lat="56.20938" lon="-5.05698">
        <ele>8.48</ele>
        <time>2021-03-20T16:07:04Z</time>
      </trkpt>
      <trkpt lat="56.20914" lon="-5.05731">
        <ele>9.15</ele>
        <time>2021-03-20T16:07:10Z</time>
      </trkpt>
      <trkpt lat="56.20869" lon="-5.05778">
        <ele>9.1</ele>
        <time>2021-03-20T16:07:17Z</time>
      </trkpt>
      <trkpt lat="56.20791" lon="-5.05843">
        <ele>14.77</ele>
        <time>2021-03-20T16:07:23Z</time>
      </trkpt>
      <trkpt lat="56.20712" lon="-5.05894">
        <ele>21.65</ele>
        <time>2021-03-20T16:07:29Z</time>
      </trkpt>
      <trkpt lat="56.20664" lon="-5.05901">
        <ele>19.92</ele>
        <time>2021-03-20T16:07:35Z</time>
      </trkpt>
      <trkpt lat="56.20592" lon="-5.05885">
        <ele>14.72</ele>
        <time>2021-03-20T16:07:41Z</time>
      </trkpt>
      <trkpt lat="56.20529" lon="-5.05888">
        <ele>14.03</ele>
        <time>2021-03-20T16:07:47Z</time>
      </trkpt>
      <trkpt lat="56.20463" lon="-5.0592">
        <ele>13.77</ele>
        <time>2021-03-20T16:07:53Z</time>
      </trkpt>
      <trkpt lat="56.20392" lon="-5.06006">
        <ele>14.16</ele>
        <time>2021-03-20T16:07:59Z</time>
      </trkpt>
      <trkpt lat="56.2026" lon="-5.06234">
        <ele>14.35</ele>
        <time>2021-03-20T16:08:05Z</time>
      </trkpt>
      <trkpt lat="56.20001" lon="-5.06576">
        <ele>18.1</ele>
        <time>2021-03-20T16:08:11Z</time>
      </trkpt>
      <trkpt lat="56.19834" lon="-5.06752">
        <ele>19.59</ele>
        <time>2021-03-20T16:08:17Z</time>
      </trkpt>
      <trkpt lat="56.19636" lon="-5.06947">
        <ele>21.99</ele>
        <time>2021-03-20T16:08:24Z</time>
      </trkpt>
      <trkpt lat="56.1955" lon="-5.07039">
        <ele>15.19</ele>
        <time>2021-03-20T16:08:30Z</time>
      </trkpt>
      <trkpt lat="56.19197" lon="-5.07276">
        <ele>16.94</ele>
        <time>2021-03-20T16:08:36Z</time>
      </trkpt>
      <trkpt lat="56.18794" lon="-5.07541">
        <ele>15.83</ele>
        <time>2021-03-20T16:08:42Z</time>
      </trkpt>
      <trkpt lat="56.18604" lon="-5.07691">
        <ele>14.75</ele>
        <time>2021-03-20T16:08:48Z</time>
      </trkpt>
      <trkpt lat="56.18468" lon="-5.07781">
        <ele>12.1</ele>
        <time>2021-03-20T16:08:54Z</time>
      </trkpt>
      <trkpt lat="56.18323" lon="-5.07891">
        <ele>13.16</ele>
        <time>2021-03-20T16:09:00Z</time>
      </trkpt>
      <trkpt lat="56.18169" lon="-5.07985">
        <ele>13.08</ele>
        <time>2021-03-20T16:09:06Z</time>
      </trkpt>
      <trkpt lat="56.17953" lon="-5.08071">
        <ele>11.23</ele>
        <time>2021-03-20T16:09:12Z</time>
      </trkpt>
      <trkpt lat="56.17797" lon="-5.08197">
        <ele>7.1</ele>
        <time>2021-03-20T16:09:18Z</time>
      </trkpt>
      <trkpt lat="56.17757" lon="-5.08221">
        <ele>8.44</ele>
        <time>2021-03-20T16:09:24Z</time>
      </trkpt>
      <trkpt lat="56.17696" lon="-5.08251">
        <ele>8.71</ele>
        <time>2021-03-20T16:09:30Z</time>
      </trkpt>
      <trkpt lat="56.17646" lon="-5.08284">
        <ele>6.56</ele>
        <time>2021-03-20T16:09:37Z</time>
      </trkpt>
      <trkpt lat="56.1761" lon="-5.08314">
        <ele>7.37</ele>
        <time>2021-03-20T16:09:43Z</time>
      </trkpt>
      <trkpt lat="56.17581" lon="-5.08335">
        <ele>6</ele>
        <time>2021-03-20T16:09:49Z</time>
      </trkpt>
      <trkpt lat="56.1756" lon="-5.08346">
        <ele>5.91</ele>
        <time>2021-03-20T16:09:55Z</time>
      </trkpt>
      <trkpt lat="56.17537" lon="-5.08351">
        <ele>6.81</ele>
        <time>2021-03-20T16:10:01Z</time>
      </trkpt>
      <trkpt lat="56.17491" lon="-5.08342">
        <ele>6.81</ele>
        <time>2021-03-20T16:10:07Z</time>
      </trkpt>
      <trkpt lat="56.17408" lon="-5.08312">
        <ele>6.9</ele>
        <time>2021-03-20T16:10:13Z</time>
      </trkpt>
      <trkpt lat="56.17227" lon="-5.08256">
        <ele>4.97</ele>
        <time>2021-03-20T16:10:19Z</time>
      </trkpt>
      <trkpt lat="56.17176" lon="-5.08226">
        <ele>4.92</ele>
        <time>2021-03-20T16:10:25Z</time>
      </trkpt>
      <trkpt lat="56.1703" lon="-5.0813">
        <ele>9.31</ele>
        <time>2021-03-20T16:10:31Z</time>
      </trkpt>
      <trkpt lat="56.16873" lon="-5.08014">
        <ele>7.07</ele>
        <time>2021-03-20T16:10:37Z</time>
      </trkpt>
      <trkpt lat="56.16848" lon="-5.07989">
        <ele>6.36</ele>
        <time>2021-03-20T16:10:44Z</time>
      </trkpt>
      <trkpt lat="56.16824" lon="-5.07955">
        <ele>6.77</ele>
        <time>2021-03-20T16:10:50Z</time>
      </trkpt>
      <trkpt lat="56.16796" lon="-5.0789">
        <ele>10.57</ele>
        <time>2021-03-20T16:10:56Z</time>
      </trkpt>
      <trkpt lat="56.16788" lon="-5.07863">
        <ele>11.31</ele>
        <time>2021-03-20T16:11:02Z</time>
      </trkpt>
      <trkpt lat="56.16778" lon="-5.07804">
        <ele>13.1</ele>
        <time>2021-03-20T16:11:08Z</time>
      </trkpt>
      <trkpt lat="56.16774" lon="-5.07733">
        <ele>17.46</ele>
        <time>2021-03-20T16:11:14Z</time>
      </trkpt>
      <trkpt lat="56.16798" lon="-5.07471">
        <ele>32</ele>
        <time>2021-03-20T16:11:20Z</time>
      </trkpt>
      <trkpt lat="56.16797" lon="-5.07412">
        <ele>30.67</ele>
        <time>2021-03-20T16:11:26Z</time>
      </trkpt>
      <trkpt lat="56.1679" lon="-5.07338">
        <ele>26.34</ele>
        <time>2021-03-20T16:11:32Z</time>
      </trkpt>
      <trkpt lat="56.16768" lon="-5.07217">
        <ele>22.74</ele>
        <time>2021-03-20T16:11:38Z</time>
      </trkpt>
      <trkpt lat="56.16544" lon="-5.06418">
        <ele>48.82</ele>
        <time>2021-03-20T16:11:44Z</time>
      </trkpt>
      <trkpt lat="56.16475" lon="-5.06302">
        <ele>49.71</ele>
        <time>2021-03-20T16:11:51Z</time>
      </trkpt>
      <trkpt lat="56.16465" lon="-5.06328">
        <ele>51.32</ele>
        <time>2021-03-20T16:11:57Z</time>
      </trkpt>
      <trkpt lat="56.16458" lon="-5.06342">
        <ele>52.52</ele>
        <time>2021-03-20T16:12:02Z</time>
      </trkpt>
      <trkpt lat="56.1645" lon="-5.06348">
        <ele>53.52</ele>
        <time>2021-03-20T16:12:08Z</time>
      </trkpt>
      <trkpt lat="56.16439" lon="-5.06349">
        <ele>54.29</ele>
        <time>2021-03-20T16:12:14Z</time>
      </trkpt>
      <trkpt lat="56.16411" lon="-5.06335">
        <ele>54.31</ele>
        <time>2021-03-20T16:12:20Z</time>
      </trkpt>
      <trkpt lat="56.16392" lon="-5.06331">
        <ele>54.8</ele>
        <time>2021-03-20T16:12:26Z</time>
      </trkpt>
      <trkpt lat="56.16325" lon="-5.06334">
        <ele>57.33</ele>
        <time>2021-03-20T16:12:32Z</time>
      </trkpt>
      <trkpt lat="56.16212" lon="-5.06324">
        <ele>61.36</ele>
        <time>2021-03-20T16:12:38Z</time>
      </trkpt>
      <trkpt lat="56.16093" lon="-5.06342">
        <ele>63.19</ele>
        <time>2021-03-20T16:12:44Z</time>
      </trkpt>
      <trkpt lat="56.15974" lon="-5.06366">
        <ele>65.58</ele>
        <time>2021-03-20T16:12:50Z</time>
      </trkpt>
      <trkpt lat="56.15882" lon="-5.06342">
        <ele>60.03</ele>
        <time>2021-03-20T16:12:56Z</time>
      </trkpt>
      <trkpt lat="56.15801" lon="-5.0631">
        <ele>55.02</ele>
        <time>2021-03-20T16:13:02Z</time>
      </trkpt>
      <trkpt lat="56.15749" lon="-5.06301">
        <ele>51.66</ele>
        <time>2021-03-20T16:13:08Z</time>
      </trkpt>
      <trkpt lat="56.15617" lon="-5.06328">
        <ele>48.41</ele>
        <time>2021-03-20T16:13:13Z</time>
      </trkpt>
      <trkpt lat="56.15586" lon="-5.06332">
        <ele>48</ele>
        <time>2021-03-20T16:13:19Z</time>
      </trkpt>
      <trkpt lat="56.15528" lon="-5.06313">
        <ele>47.99</ele>
        <time>2021-03-20T16:13:25Z</time>
      </trkpt>
      <trkpt lat="56.15474" lon="-5.0631">
        <ele>44.44</ele>
        <time>2021-03-20T16:13:31Z</time>
      </trkpt>
      <trkpt lat="56.15396" lon="-5.06327">
        <ele>42.78</ele>
        <time>2021-03-20T16:13:37Z</time>
      </trkpt>
      <trkpt lat="56.15329" lon="-5.06355">
        <ele>41.57</ele>
        <time>2021-03-20T16:13:43Z</time>
      </trkpt>
      <trkpt lat="56.15214" lon="-5.06426">
        <ele>45.83</ele>
        <time>2021-03-20T16:13:49Z</time>
      </trkpt>
      <trkpt lat="56.15171" lon="-5.06389">
        <ele>46.02</ele>
        <time>2021-03-20T16:13:55Z</time>
      </trkpt>
      <trkpt lat="56.15138" lon="-5.06353">
        <ele>45.03</ele>
        <time>2021-03-20T16:14:01Z</time>
      </trkpt>
      <trkpt lat="56.14887" lon="-5.05974">
        <ele>39.22</ele>
        <time>2021-03-20T16:14:07Z</time>
      </trkpt>
      <trkpt lat="56.14845" lon="-5.05902">
        <ele>39.56</ele>
        <time>2021-03-20T16:14:13Z</time>
      </trkpt>
      <trkpt lat="56.14823" lon="-5.05835">
        <ele>40.83</ele>
        <time>2021-03-20T16:14:19Z</time>
      </trkpt>
      <trkpt lat="56.14604" lon="-5.05365">
        <ele>39.05</ele>
        <time>2021-03-20T16:14:25Z</time>
      </trkpt>
      <trkpt lat="56.14594" lon="-5.05295">
        <ele>40.28</ele>
        <time>2021-03-20T16:14:30Z</time>
      </trkpt>
      <trkpt lat="56.14434" lon="-5.04739">
        <ele>37.82</ele>
        <time>2021-03-20T16:14:36Z</time>
      </trkpt>
      <trkpt lat="56.14422" lon="-5.04626">
        <ele>43.04</ele>
        <time>2021-03-20T16:14:42Z</time>
      </trkpt>
      <trkpt lat="56.14355" lon="-5.04504">
        <ele>43.16</ele>
        <time>2021-03-20T16:14:48Z</time>
      </trkpt>
      <trkpt lat="56.14332" lon="-5.0445">
        <ele>41.25</ele>
        <time>2021-03-20T16:14:54Z</time>
      </trkpt>
      <trkpt lat="56.14317" lon="-5.0437">
        <ele>39.1</ele>
        <time>2021-03-20T16:15:00Z</time>
      </trkpt>
      <trkpt lat="56.14272" lon="-5.04259">
        <ele>38.07</ele>
        <time>2021-03-20T16:15:06Z</time>
      </trkpt>
      <trkpt lat="56.14224" lon="-5.04169">
        <ele>35.07</ele>
        <time>2021-03-20T16:15:12Z</time>
      </trkpt>
      <trkpt lat="56.14176" lon="-5.04089">
        <ele>35</ele>
        <time>2021-03-20T16:15:18Z</time>
      </trkpt>
      <trkpt lat="56.14107" lon="-5.04009">
        <ele>36.78</ele>
        <time>2021-03-20T16:15:24Z</time>
      </trkpt>
      <trkpt lat="56.14067" lon="-5.03955">
        <ele>38.03</ele>
        <time>2021-03-20T16:15:30Z</time>
      </trkpt>
      <trkpt lat="56.14022" lon="-5.03914">
        <ele>38.57</ele>
        <time>2021-03-20T16:15:36Z</time>
      </trkpt>
      <trkpt lat="56.1385" lon="-5.03907">
        <ele>42.72</ele>
        <time>2021-03-20T16:15:41Z</time>
      </trkpt>
      <trkpt lat="56.13747" lon="-5.03823">
        <ele>33.1</ele>
        <time>2021-03-20T16:15:47Z</time>
      </trkpt>
      <trkpt lat="56.13741" lon="-5.03807">
        <ele>31.77</ele>
        <time>2021-03-20T16:15:53Z</time>
      </trkpt>
      <trkpt lat="56.13737" lon="-5.03788">
        <ele>30.59</ele>
        <time>2021-03-20T16:15:59Z</time>
      </trkpt>
      <trkpt lat="56.13737" lon="-5.03775">
        <ele>29.95</ele>
        <time>2021-03-20T16:16:05Z</time>
      </trkpt>
      <trkpt lat="56.13741" lon="-5.03731">
        <ele>29.47</ele>
        <time>2021-03-20T16:16:11Z</time>
      </trkpt>
      <trkpt lat="56.13745" lon="-5.03709">
        <ele>30.52</ele>
        <time>2021-03-20T16:16:17Z</time>
      </trkpt>
      <trkpt lat="56.13761" lon="-5.03681">
        <ele>35.03</ele>
        <time>2021-03-20T16:16:23Z</time>
      </trkpt>
      <trkpt lat="56.13574" lon="-5.03339">
        <ele>31.56</ele>
        <time>2021-03-20T16:16:28Z</time>
      </trkpt>
      <trkpt lat="56.13535" lon="-5.03246">
        <ele>35.72</ele>
        <time>2021-03-20T16:16:33Z</time>
      </trkpt>
      <trkpt lat="56.13512" lon="-5.03149">
        <ele>34.03</ele>
        <time>2021-03-20T16:16:39Z</time>
      </trkpt>
      <trkpt lat="56.13474" lon="-5.02871">
        <ele>28.2</ele>
        <time>2021-03-20T16:16:44Z</time>
      </trkpt>
      <trkpt lat="56.13445" lon="-5.02742">
        <ele>29.02</ele>
        <time>2021-03-20T16:16:49Z</time>
      </trkpt>
      <trkpt lat="56.13425" lon="-5.02671">
        <ele>28.56</ele>
        <time>2021-03-20T16:16:54Z</time>
      </trkpt>
      <trkpt lat="56.13275" lon="-5.02256">
        <ele>41.98</ele>
        <time>2021-03-20T16:16:59Z</time>
      </trkpt>
      <trkpt lat="56.13224" lon="-5.02139">
        <ele>45.06</ele>
        <time>2021-03-20T16:17:04Z</time>
      </trkpt>
      <trkpt lat="56.13181" lon="-5.02062">
        <ele>44.56</ele>
        <time>2021-03-20T16:17:10Z</time>
      </trkpt>
      <trkpt lat="56.13103" lon="-5.01951">
        <ele>51.1</ele>
        <time>2021-03-20T16:17:15Z</time>
      </trkpt>
      <trkpt lat="56.12935" lon="-5.01743">
        <ele>31.21</ele>
        <time>2021-03-20T16:17:20Z</time>
      </trkpt>
      <trkpt lat="56.12867" lon="-5.01682">
        <ele>27.92</ele>
        <time>2021-03-20T16:17:25Z</time>
      </trkpt>
      <trkpt lat="56.12799" lon="-5.0164">
        <ele>31.33</ele>
        <time>2021-03-20T16:17:30Z</time>
      </trkpt>
      <trkpt lat="56.12634" lon="-5.01473">
        <ele>33.99</ele>
        <time>2021-03-20T16:17:36Z</time>
      </trkpt>
      <trkpt lat="56.12531" lon="-5.01353">
        <ele>30.56</ele>
        <time>2021-03-20T16:17:41Z</time>
      </trkpt>
      <trkpt lat="56.1243" lon="-5.01171">
        <ele>32.83</ele>
        <time>2021-03-20T16:17:46Z</time>
      </trkpt>
      <trkpt lat="56.1237" lon="-5.01054">
        <ele>32.65</ele>
        <time>2021-03-20T16:17:51Z</time>
      </trkpt>
      <trkpt lat="56.12318" lon="-5.00902">
        <ele>31.49</ele>
        <time>2021-03-20T16:17:56Z</time>
      </trkpt>
      <trkpt lat="56.12302" lon="-5.00806">
        <ele>30.38</ele>
        <time>2021-03-20T16:18:02Z</time>
      </trkpt>
      <trkpt lat="56.12293" lon="-5.00665">
        <ele>34.13</ele>
        <time>2021-03-20T16:18:07Z</time>
      </trkpt>
      <trkpt lat="56.1229" lon="-5.00572">
        <ele>33.86</ele>
        <time>2021-03-20T16:18:12Z</time>
      </trkpt>
      <trkpt lat="56.12281" lon="-5.00505">
        <ele>36.15</ele>
        <time>2021-03-20T16:18:17Z</time>
      </trkpt>
      <trkpt lat="56.12252" lon="-5.00461">
        <ele>35.75</ele>
        <time>2021-03-20T16:18:22Z</time>
      </trkpt>
      <trkpt lat="56.12139" lon="-5.00351">
        <ele>36.13</ele>
        <time>2021-03-20T16:18:27Z</time>
      </trkpt>
      <trkpt lat="56.12058" lon="-5.00234">
        <ele>35.45</ele>
        <time>2021-03-20T16:18:33Z</time>
      </trkpt>
      <trkpt lat="56.12005" lon="-5.00171">
        <ele>32.48</ele>
        <time>2021-03-20T16:18:38Z</time>
      </trkpt>
      <trkpt lat="56.11964" lon="-5.00103">
        <ele>34.87</ele>
        <time>2021-03-20T16:18:43Z</time>
      </trkpt>
      <trkpt lat="56.11924" lon="-5">
        <ele>43.28</ele>
        <time>2021-03-20T16:18:48Z</time>
      </trkpt>
      <trkpt lat="56.11901" lon="-4.99909">
        <ele>48.35</ele>
        <time>2021-03-20T16:18:53Z</time>
      </trkpt>
      <trkpt lat="56.11867" lon="-4.99859">
        <ele>45.11</ele>
        <time>2021-03-20T16:18:59Z</time>
      </trkpt>
      <trkpt lat="56.11829" lon="-4.99852">
        <ele>39.74</ele>
        <time>2021-03-20T16:19:04Z</time>
      </trkpt>
      <trkpt lat="56.11787" lon="-4.9983">
        <ele>37.7</ele>
        <time>2021-03-20T16:19:09Z</time>
      </trkpt>
      <trkpt lat="56.1169" lon="-4.99754">
        <ele>40.56</ele>
        <time>2021-03-20T16:19:14Z</time>
      </trkpt>
      <trkpt lat="56.11422" lon="-4.99604">
        <ele>38.85</ele>
        <time>2021-03-20T16:19:19Z</time>
      </trkpt>
      <trkpt lat="56.11357" lon="-4.9952">
        <ele>40.62</ele>
        <time>2021-03-20T16:19:25Z</time>
      </trkpt>
      <trkpt lat="56.11262" lon="-4.99408">
        <ele>37.37</ele>
        <time>2021-03-20T16:19:30Z</time>
      </trkpt>
      <trkpt lat="56.11229" lon="-4.99349">
        <ele>42.73</ele>
        <time>2021-03-20T16:19:35Z</time>
      </trkpt>
      <trkpt lat="56.11121" lon="-4.99202">
        <ele>37.53</ele>
        <time>2021-03-20T16:19:40Z</time>
      </trkpt>
      <trkpt lat="56.1107" lon="-4.9915">
        <ele>36.53</ele>
        <time>2021-03-20T16:19:45Z</time>
      </trkpt>
      <trkpt lat="56.10915" lon="-4.99108">
        <ele>30.27</ele>
        <time>2021-03-20T16:19:50Z</time>
      </trkpt>
      <trkpt lat="56.1088" lon="-4.99081">
        <ele>30.35</ele>
        <time>2021-03-20T16:19:56Z</time>
      </trkpt>
      <trkpt lat="56.1085" lon="-4.99034">
        <ele>30.78</ele>
        <time>2021-03-20T16:20:01Z</time>
      </trkpt>
      <trkpt lat="56.10826" lon="-4.98966">
        <ele>33.68</ele>
        <time>2021-03-20T16:20:06Z</time>
      </trkpt>
      <trkpt lat="56.10808" lon="-4.98928">
        <ele>34.3</ele>
        <time>2021-03-20T16:20:11Z</time>
      </trkpt>
      <trkpt lat="56.10784" lon="-4.98896">
        <ele>34.81</ele>
        <time>2021-03-20T16:20:16Z</time>
      </trkpt>
      <trkpt lat="56.10758" lon="-4.98883">
        <ele>34.49</ele>
        <time>2021-03-20T16:20:22Z</time>
      </trkpt>
      <trkpt lat="56.10573" lon="-4.98739">
        <ele>35.92</ele>
        <time>2021-03-20T16:20:27Z</time>
      </trkpt>
      <trkpt lat="56.10467" lon="-4.98648">
        <ele>27.94</ele>
        <time>2021-03-20T16:20:32Z</time>
      </trkpt>
      <trkpt lat="56.10412" lon="-4.98623">
        <ele>28.74</ele>
        <time>2021-03-20T16:20:37Z</time>
      </trkpt>
      <trkpt lat="56.10206" lon="-4.98606">
        <ele>32.87</ele>
        <time>2021-03-20T16:20:42Z</time>
      </trkpt>
      <trkpt lat="56.10119" lon="-4.98591">
        <ele>32.64</ele>
        <time>2021-03-20T16:20:48Z</time>
      </trkpt>
      <trkpt lat="56.10083" lon="-4.9858">
        <ele>35.86</ele>
        <time>2021-03-20T16:20:53Z</time>
      </trkpt>
      <trkpt lat="56.10051" lon="-4.98587">
        <ele>35.14</ele>
        <time>2021-03-20T16:20:58Z</time>
      </trkpt>
      <trkpt lat="56.09943" lon="-4.98585">
        <ele>32.8</ele>
        <time>2021-03-20T16:21:03Z</time>
      </trkpt>
      <trkpt lat="56.09828" lon="-4.986">
        <ele>29.93</ele>
        <time>2021-03-20T16:21:08Z</time>
      </trkpt>
      <trkpt lat="56.09668" lon="-4.98652">
        <ele>29.11</ele>
        <time>2021-03-20T16:21:13Z</time>
      </trkpt>
      <trkpt lat="56.09193" lon="-4.9884">
        <ele>33.34</ele>
        <time>2021-03-20T16:21:19Z</time>
      </trkpt>
      <trkpt lat="56.09146" lon="-4.98851">
        <ele>31.25</ele>
        <time>2021-03-20T16:21:24Z</time>
      </trkpt>
      <trkpt lat="56.09109" lon="-4.98853">
        <ele>29.24</ele>
        <time>2021-03-20T16:21:29Z</time>
      </trkpt>
      <trkpt lat="56.09064" lon="-4.98846">
        <ele>30.91</ele>
        <time>2021-03-20T16:21:34Z</time>
      </trkpt>
      <trkpt lat="56.09003" lon="-4.98832">
        <ele>31.47</ele>
        <time>2021-03-20T16:21:39Z</time>
      </trkpt>
      <trkpt lat="56.0892" lon="-4.98838">
        <ele>29.39</ele>
        <time>2021-03-20T16:21:45Z</time>
      </trkpt>
      <trkpt lat="56.08836" lon="-4.98854">
        <ele>32.41</ele>
        <time>2021-03-20T16:21:50Z</time>
      </trkpt>
      <trkpt lat="56.08703" lon="-4.98813">
        <ele>32.73</ele>
        <time>2021-03-20T16:21:55Z</time>
      </trkpt>
      <trkpt lat="56.08625" lon="-4.98837">
        <ele>28.88</ele>
        <time>2021-03-20T16:22:00Z</time>
      </trkpt>
      <trkpt lat="56.08299" lon="-4.98867">
        <ele>28.56</ele>
        <time>2021-03-20T16:22:05Z</time>
      </trkpt>
      <trkpt lat="56.08172" lon="-4.98855">
        <ele>30.24</ele>
        <time>2021-03-20T16:22:11Z</time>
      </trkpt>
      <trkpt lat="56.07824" lon="-4.98941">
        <ele>27.25</ele>
        <time>2021-03-20T16:22:16Z</time>
      </trkpt>
      <trkpt lat="56.07637" lon="-4.9895">
        <ele>28.84</ele>
        <time>2021-03-20T16:22:21Z</time>
      </trkpt>
      <trkpt lat="56.07565" lon="-4.98976">
        <ele>32.18</ele>
        <time>2021-03-20T16:22:26Z</time>
      </trkpt>
      <trkpt lat="56.07479" lon="-4.98985">
        <ele>31.57</ele>
        <time>2021-03-20T16:22:31Z</time>
      </trkpt>
      <trkpt lat="56.07395" lon="-4.98977">
        <ele>27.91</ele>
        <time>2021-03-20T16:22:36Z</time>
      </trkpt>
      <trkpt lat="56.07319" lon="-4.98892">
        <ele>28.8</ele>
        <time>2021-03-20T16:22:42Z</time>
      </trkpt>
      <trkpt lat="56.07164" lon="-4.98834">
        <ele>33.07</ele>
        <time>2021-03-20T16:22:47Z</time>
      </trkpt>
      <trkpt lat="56.07012" lon="-4.98797">
        <ele>36.19</ele>
        <time>2021-03-20T16:22:52Z</time>
      </trkpt>
      <trkpt lat="56.06846" lon="-4.98721">
        <ele>40.73</ele>
        <time>2021-03-20T16:22:57Z</time>
      </trkpt>
      <trkpt lat="56.06652" lon="-4.98709">
        <ele>35.56</ele>
        <time>2021-03-20T16:23:02Z</time>
      </trkpt>
      <trkpt lat="56.06572" lon="-4.98718">
        <ele>32.31</ele>
        <time>2021-03-20T16:23:08Z</time>
      </trkpt>
      <trkpt lat="56.06512" lon="-4.98701">
        <ele>32.97</ele>
        <time>2021-03-20T16:23:13Z</time>
      </trkpt>
      <trkpt lat="56.06473" lon="-4.98659">
        <ele>31.65</ele>
        <time>2021-03-20T16:23:18Z</time>
      </trkpt>
      <trkpt lat="56.06382" lon="-4.98551">
        <ele>28.9</ele>
        <time>2021-03-20T16:23:23Z</time>
      </trkpt>
      <trkpt lat="56.06246" lon="-4.9843">
        <ele>28.65</ele>
        <time>2021-03-20T16:23:28Z</time>
      </trkpt>
      <trkpt lat="56.062" lon="-4.98397">
        <ele>32.97</ele>
        <time>2021-03-20T16:23:34Z</time>
      </trkpt>
      <trkpt lat="56.0607" lon="-4.9835">
        <ele>37.28</ele>
        <time>2021-03-20T16:23:39Z</time>
      </trkpt>
      <trkpt lat="56.05965" lon="-4.98457">
        <ele>32.34</ele>
        <time>2021-03-20T16:23:44Z</time>
      </trkpt>
      <trkpt lat="56.05869" lon="-4.98483">
        <ele>28.16</ele>
        <time>2021-03-20T16:23:49Z</time>
      </trkpt>
      <trkpt lat="56.05783" lon="-4.98453">
        <ele>32.32</ele>
        <time>2021-03-20T16:23:54Z</time>
      </trkpt>
      <trkpt lat="56.05669" lon="-4.98357">
        <ele>26.14</ele>
        <time>2021-03-20T16:24:00Z</time>
      </trkpt>
      <trkpt lat="56.05606" lon="-4.9834">
        <ele>24.86</ele>
        <time>2021-03-20T16:24:05Z</time>
      </trkpt>
      <trkpt lat="56.05484" lon="-4.98395">
        <ele>26.02</ele>
        <time>2021-03-20T16:24:10Z</time>
      </trkpt>
      <trkpt lat="56.05421" lon="-4.98387">
        <ele>28.19</ele>
        <time>2021-03-20T16:24:15Z</time>
      </trkpt>
      <trkpt lat="56.05371" lon="-4.98399">
        <ele>35.23</ele>
        <time>2021-03-20T16:24:20Z</time>
      </trkpt>
      <trkpt lat="56.05227" lon="-4.98495">
        <ele>28.66</ele>
        <time>2021-03-20T16:24:25Z</time>
      </trkpt>
      <trkpt lat="56.05172" lon="-4.985">
        <ele>31.06</ele>
        <time>2021-03-20T16:24:31Z</time>
      </trkpt>
      <trkpt lat="56.05141" lon="-4.98495">
        <ele>30.97</ele>
        <time>2021-03-20T16:24:36Z</time>
      </trkpt>
      <trkpt lat="56.05102" lon="-4.98464">
        <ele>33.73</ele>
        <time>2021-03-20T16:24:41Z</time>
      </trkpt>
      <trkpt lat="56.05058" lon="-4.98419">
        <ele>35.99</ele>
        <time>2021-03-20T16:24:46Z</time>
      </trkpt>
      <trkpt lat="56.05008" lon="-4.98357">
        <ele>35.69</ele>
        <time>2021-03-20T16:24:51Z</time>
      </trkpt>
      <trkpt lat="56.04931" lon="-4.98312">
        <ele>37.02</ele>
        <time>2021-03-20T16:24:57Z</time>
      </trkpt>
      <trkpt lat="56.04845" lon="-4.98305">
        <ele>36.59</ele>
        <time>2021-03-20T16:25:02Z</time>
      </trkpt>
      <trkpt lat="56.04768" lon="-4.98347">
        <ele>35.21</ele>
        <time>2021-03-20T16:25:07Z</time>
      </trkpt>
      <trkpt lat="56.0466" lon="-4.98374">
        <ele>37.56</ele>
        <time>2021-03-20T16:25:12Z</time>
      </trkpt>
      <trkpt lat="56.04547" lon="-4.98363">
        <ele>38.79</ele>
        <time>2021-03-20T16:25:17Z</time>
      </trkpt>
      <trkpt lat="56.04474" lon="-4.98384">
        <ele>30.96</ele>
        <time>2021-03-20T16:25:23Z</time>
      </trkpt>
      <trkpt lat="56.0424" lon="-4.98326">
        <ele>30</ele>
        <time>2021-03-20T16:25:28Z</time>
      </trkpt>
      <trkpt lat="56.04113" lon="-4.98281">
        <ele>29.86</ele>
        <time>2021-03-20T16:25:33Z</time>
      </trkpt>
      <trkpt lat="56.0403" lon="-4.98256">
        <ele>25.21</ele>
        <time>2021-03-20T16:25:38Z</time>
      </trkpt>
      <trkpt lat="56.03941" lon="-4.98217">
        <ele>26</ele>
        <time>2021-03-20T16:25:43Z</time>
      </trkpt>
      <trkpt lat="56.03893" lon="-4.98181">
        <ele>27.34</ele>
        <time>2021-03-20T16:25:48Z</time>
      </trkpt>
      <trkpt lat="56.03841" lon="-4.98128">
        <ele>26.56</ele>
        <time>2021-03-20T16:25:54Z</time>
      </trkpt>
      <trkpt lat="56.03804" lon="-4.98081">
        <ele>29.21</ele>
        <time>2021-03-20T16:25:59Z</time>
      </trkpt>
      <trkpt lat="56.03762" lon="-4.98041">
        <ele>32.62</ele>
        <time>2021-03-20T16:26:04Z</time>
      </trkpt>
      <trkpt lat="56.03718" lon="-4.98011">
        <ele>34.53</ele>
        <time>2021-03-20T16:26:09Z</time>
      </trkpt>
      <trkpt lat="56.03668" lon="-4.97994">
        <ele>32.56</ele>
        <time>2021-03-20T16:26:14Z</time>
      </trkpt>
      <trkpt lat="56.03432" lon="-4.9796">
        <ele>30.32</ele>
        <time>2021-03-20T16:26:20Z</time>
      </trkpt>
      <trkpt lat="56.03375" lon="-4.97957">
        <ele>33.44</ele>
        <time>2021-03-20T16:26:25Z</time>
      </trkpt>
      <trkpt lat="56.03208" lon="-4.98031">
        <ele>29.98</ele>
        <time>2021-03-20T16:26:30Z</time>
      </trkpt>
      <trkpt lat="56.03149" lon="-4.98055">
        <ele>27.49</ele>
        <time>2021-03-20T16:26:35Z</time>
      </trkpt>
      <trkpt lat="56.03111" lon="-4.98051">
        <ele>25.33</ele>
        <time>2021-03-20T16:26:40Z</time>
      </trkpt>
      <trkpt lat="56.03066" lon="-4.98043">
        <ele>28.22</ele>
        <time>2021-03-20T16:26:46Z</time>
      </trkpt>
      <trkpt lat="56.02996" lon="-4.98013">
        <ele>27.27</ele>
        <time>2021-03-20T16:26:51Z</time>
      </trkpt>
      <trkpt lat="56.02946" lon="-4.98003">
        <ele>28.49</ele>
        <time>2021-03-20T16:26:56Z</time>
      </trkpt>
      <trkpt lat="56.02899" lon="-4.98011">
        <ele>31.61</ele>
        <time>2021-03-20T16:27:01Z</time>
      </trkpt>
      <trkpt lat="56.02826" lon="-4.98041">
        <ele>34.51</ele>
        <time>2021-03-20T16:27:06Z</time>
      </trkpt>
      <trkpt lat="56.028" lon="-4.9805">
        <ele>34.09</ele>
        <time>2021-03-20T16:27:11Z</time>
      </trkpt>
      <trkpt lat="56.02762" lon="-4.98057">
        <ele>29.92</ele>
        <time>2021-03-20T16:27:17Z</time>
      </trkpt>
      <trkpt lat="56.02666" lon="-4.98042">
        <ele>26.43</ele>
        <time>2021-03-20T16:27:22Z</time>
      </trkpt>
      <trkpt lat="56.02624" lon="-4.9804">
        <ele>25.11</ele>
        <time>2021-03-20T16:27:27Z</time>
      </trkpt>
      <trkpt lat="56.02603" lon="-4.98041">
        <ele>23.98</ele>
        <time>2021-03-20T16:27:32Z</time>
      </trkpt>
      <trkpt lat="56.02516" lon="-4.9807">
        <ele>26.3</ele>
        <time>2021-03-20T16:27:37Z</time>
      </trkpt>
      <trkpt lat="56.02468" lon="-4.98075">
        <ele>29.96</ele>
        <time>2021-03-20T16:27:43Z</time>
      </trkpt>
      <trkpt lat="56.02422" lon="-4.98066">
        <ele>26.68</ele>
        <time>2021-03-20T16:27:48Z</time>
      </trkpt>
      <trkpt lat="56.0231" lon="-4.98016">
        <ele>22.37</ele>
        <time>2021-03-20T16:27:53Z</time>
      </trkpt>
      <trkpt lat="56.02148" lon="-4.97934">
        <ele>17.65</ele>
        <time>2021-03-20T16:27:58Z</time>
      </trkpt>
      <trkpt lat="56.02057" lon="-4.97882">
        <ele>15</ele>
        <time>2021-03-20T16:28:03Z</time>
      </trkpt>
      <trkpt lat="56.01875" lon="-4.9777">
        <ele>14.49</ele>
        <time>2021-03-20T16:28:09Z</time>
      </trkpt>
      <trkpt lat="56.01686" lon="-4.97649">
        <ele>14.31</ele>
        <time>2021-03-20T16:28:14Z</time>
      </trkpt>
      <trkpt lat="56.01616" lon="-4.97619">
        <ele>15</ele>
        <time>2021-03-20T16:28:19Z</time>
      </trkpt>
      <trkpt lat="56.01523" lon="-4.97617">
        <ele>14</ele>
        <time>2021-03-20T16:28:24Z</time>
      </trkpt>
      <trkpt lat="56.0148" lon="-4.9761">
        <ele>11.57</ele>
        <time>2021-03-20T16:28:29Z</time>
      </trkpt>
      <trkpt lat="56.01433" lon="-4.97588">
        <ele>9.58</ele>
        <time>2021-03-20T16:28:34Z</time>
      </trkpt>
      <trkpt lat="56.01336" lon="-4.97523">
        <ele>10.67</ele>
        <time>2021-03-20T16:28:40Z</time>
      </trkpt>
      <trkpt lat="56.01306" lon="-4.97508">
        <ele>12.1</ele>
        <time>2021-03-20T16:28:45Z</time>
      </trkpt>
      <trkpt lat="56.01273" lon="-4.97497">
        <ele>10.26</ele>
        <time>2021-03-20T16:28:50Z</time>
      </trkpt>
      <trkpt lat="56.0119" lon="-4.97482">
        <ele>14.26</ele>
        <time>2021-03-20T16:28:55Z</time>
      </trkpt>
      <trkpt lat="56.01151" lon="-4.97471">
        <ele>17.77</ele>
        <time>2021-03-20T16:29:00Z</time>
      </trkpt>
      <trkpt lat="56.01104" lon="-4.97447">
        <ele>16.77</ele>
        <time>2021-03-20T16:29:06Z</time>
      </trkpt>
      <trkpt lat="56.01049" lon="-4.97409">
        <ele>18.14</ele>
        <time>2021-03-20T16:29:11Z</time>
      </trkpt>
      <trkpt lat="56.00997" lon="-4.97353">
        <ele>15.44</ele>
        <time>2021-03-20T16:29:16Z</time>
      </trkpt>
      <trkpt lat="56.00964" lon="-4.97273">
        <ele>16.15</ele>
        <time>2021-03-20T16:29:21Z</time>
      </trkpt>
      <trkpt lat="56.00952" lon="-4.97225">
        <ele>17.29</ele>
        <time>2021-03-20T16:29:26Z</time>
      </trkpt>
      <trkpt lat="56.00942" lon="-4.97169">
        <ele>15.56</ele>
        <time>2021-03-20T16:29:32Z</time>
      </trkpt>
      <trkpt lat="56.00938" lon="-4.97109">
        <ele>11.55</ele>
        <time>2021-03-20T16:29:37Z</time>
      </trkpt>
      <trkpt lat="56.00936" lon="-4.97042">
        <ele>9.77</ele>
        <time>2021-03-20T16:29:42Z</time>
      </trkpt>
      <trkpt lat="56.0093" lon="-4.96954">
        <ele>10.94</ele>
        <time>2021-03-20T16:29:47Z</time>
      </trkpt>
      <trkpt lat="56.00921" lon="-4.96903">
        <ele>10.34</ele>
        <time>2021-03-20T16:29:52Z</time>
      </trkpt>
      <trkpt lat="56.00907" lon="-4.96843">
        <ele>9.32</ele>
        <time>2021-03-20T16:29:57Z</time>
      </trkpt>
      <trkpt lat="56.00871" lon="-4.96716">
        <ele>11.4</ele>
        <time>2021-03-20T16:30:03Z</time>
      </trkpt>
      <trkpt lat="56.00818" lon="-4.96517">
        <ele>13.15</ele>
        <time>2021-03-20T16:30:08Z</time>
      </trkpt>
      <trkpt lat="56.00801" lon="-4.96468">
        <ele>15.28</ele>
        <time>2021-03-20T16:30:13Z</time>
      </trkpt>
      <trkpt lat="56.0079" lon="-4.96442">
        <ele>17.06</ele>
        <time>2021-03-20T16:30:18Z</time>
      </trkpt>
      <trkpt lat="56.00775" lon="-4.96412">
        <ele>18.29</ele>
        <time>2021-03-20T16:30:23Z</time>
      </trkpt>
      <trkpt lat="56.00743" lon="-4.96364">
        <ele>17.6</ele>
        <time>2021-03-20T16:30:29Z</time>
      </trkpt>
      <trkpt lat="56.00691" lon="-4.96322">
        <ele>10.92</ele>
        <time>2021-03-20T16:30:34Z</time>
      </trkpt>
      <trkpt lat="56.00625" lon="-4.96289">
        <ele>5.36</ele>
        <time>2021-03-20T16:30:39Z</time>
      </trkpt>
      <trkpt lat="56.00591" lon="-4.96276">
        <ele>4.28</ele>
        <time>2021-03-20T16:30:44Z</time>
      </trkpt>
      <trkpt lat="56.00557" lon="-4.96266">
        <ele>4</ele>
        <time>2021-03-20T16:30:49Z</time>
      </trkpt>
      <trkpt lat="56.00531" lon="-4.96268">
        <ele>4</ele>
        <time>2021-03-20T16:30:55Z</time>
      </trkpt>
      <trkpt lat="56.00506" lon="-4.96276">
        <ele>4</ele>
        <time>2021-03-20T16:31:00Z</time>
      </trkpt>
      <trkpt lat="56.00484" lon="-4.9629">
        <ele>4</ele>
        <time>2021-03-20T16:31:05Z</time>
      </trkpt>
      <trkpt lat="56.00457" lon="-4.96315">
        <ele>4.54</ele>
        <time>2021-03-20T16:31:10Z</time>
      </trkpt>
      <trkpt lat="56.00433" lon="-4.96348">
        <ele>5.31</ele>
        <time>2021-03-20T16:31:15Z</time>
      </trkpt>
      <trkpt lat="56.00413" lon="-4.9639">
        <ele>5</ele>
        <time>2021-03-20T16:31:20Z</time>
      </trkpt>
      <trkpt lat="56.00401" lon="-4.96424">
        <ele>5</ele>
        <time>2021-03-20T16:31:26Z</time>
      </trkpt>
      <trkpt lat="56.00389" lon="-4.96475">
        <ele>5</ele>
        <time>2021-03-20T16:31:31Z</time>
      </trkpt>
      <trkpt lat="56.00382" lon="-4.96523">
        <ele>5.83</ele>
        <time>2021-03-20T16:31:36Z</time>
      </trkpt>
      <trkpt lat="56.00379" lon="-4.96601">
        <ele>7</ele>
        <time>2021-03-20T16:31:41Z</time>
      </trkpt>
      <trkpt lat="56.0038" lon="-4.96719">
        <ele>5.63</ele>
        <time>2021-03-20T16:31:46Z</time>
      </trkpt>
      <trkpt lat="56.00379" lon="-4.96786">
        <ele>4.7</ele>
        <time>2021-03-20T16:31:52Z</time>
      </trkpt>
      <trkpt lat="56.0037" lon="-4.96881">
        <ele>5</ele>
        <time>2021-03-20T16:31:57Z</time>
      </trkpt>
      <trkpt lat="56.00362" lon="-4.96935">
        <ele>5</ele>
        <time>2021-03-20T16:32:02Z</time>
      </trkpt>
      <trkpt lat="56.00346" lon="-4.97007">
        <ele>5.12</ele>
        <time>2021-03-20T16:32:07Z</time>
      </trkpt>
      <trkpt lat="56.00314" lon="-4.97111">
        <ele>7</ele>
        <time>2021-03-20T16:32:12Z</time>
      </trkpt>
      <trkpt lat="56.00261" lon="-4.9726">
        <ele>10.61</ele>
        <time>2021-03-20T16:32:18Z</time>
      </trkpt>
      <trkpt lat="56.00248" lon="-4.97288">
        <ele>10.94</ele>
        <time>2021-03-20T16:32:23Z</time>
      </trkpt>
      <trkpt lat="56.0023" lon="-4.97318">
        <ele>11</ele>
        <time>2021-03-20T16:32:28Z</time>
      </trkpt>
      <trkpt lat="56.00201" lon="-4.97355">
        <ele>10.06</ele>
        <time>2021-03-20T16:32:33Z</time>
      </trkpt>
      <trkpt lat="56.00185" lon="-4.9737">
        <ele>9.88</ele>
        <time>2021-03-20T16:32:38Z</time>
      </trkpt>
      <trkpt lat="56.00158" lon="-4.97387">
        <ele>9</ele>
        <time>2021-03-20T16:32:43Z</time>
      </trkpt>
      <trkpt lat="56.00118" lon="-4.97398">
        <ele>8.24</ele>
        <time>2021-03-20T16:32:49Z</time>
      </trkpt>
      <trkpt lat="56.00078" lon="-4.97398">
        <ele>7.32</ele>
        <time>2021-03-20T16:32:54Z</time>
      </trkpt>
      <trkpt lat="56.00039" lon="-4.97391">
        <ele>7.08</ele>
        <time>2021-03-20T16:32:59Z</time>
      </trkpt>
      <trkpt lat="55.99997" lon="-4.97378">
        <ele>6.1</ele>
        <time>2021-03-20T16:33:04Z</time>
      </trkpt>
      <trkpt lat="55.99895" lon="-4.97307">
        <ele>7.77</ele>
        <time>2021-03-20T16:33:09Z</time>
      </trkpt>
      <trkpt lat="55.99857" lon="-4.97283">
        <ele>7.69</ele>
        <time>2021-03-20T16:33:15Z</time>
      </trkpt>
      <trkpt lat="55.99823" lon="-4.97268">
        <ele>7</ele>
        <time>2021-03-20T16:33:20Z</time>
      </trkpt>
      <trkpt lat="55.99791" lon="-4.97262">
        <ele>7.53</ele>
        <time>2021-03-20T16:33:25Z</time>
      </trkpt>
      <trkpt lat="55.99756" lon="-4.97262">
        <ele>8.78</ele>
        <time>2021-03-20T16:33:30Z</time>
      </trkpt>
      <trkpt lat="55.99634" lon="-4.97283">
        <ele>11.86</ele>
        <time>2021-03-20T16:33:35Z</time>
      </trkpt>
      <trkpt lat="55.99613" lon="-4.97283">
        <ele>11.25</ele>
        <time>2021-03-20T16:33:41Z</time>
      </trkpt>
      <trkpt lat="55.99582" lon="-4.97272">
        <ele>10</ele>
        <time>2021-03-20T16:33:46Z</time>
      </trkpt>
      <trkpt lat="55.99547" lon="-4.9725">
        <ele>10</ele>
        <time>2021-03-20T16:33:51Z</time>
      </trkpt>
      <trkpt lat="55.99522" lon="-4.9722">
        <ele>9.18</ele>
        <time>2021-03-20T16:33:56Z</time>
      </trkpt>
      <trkpt lat="55.99473" lon="-4.97138">
        <ele>7.03</ele>
        <time>2021-03-20T16:34:01Z</time>
      </trkpt>
      <trkpt lat="55.99264" lon="-4.96774">
        <ele>6.87</ele>
        <time>2021-03-20T16:34:06Z</time>
      </trkpt>
      <trkpt lat="55.98972" lon="-4.96171">
        <ele>7.17</ele>
        <time>2021-03-20T16:34:12Z</time>
      </trkpt>
      <trkpt lat="55.98826" lon="-4.95894">
        <ele>9.56</ele>
        <time>2021-03-20T16:34:17Z</time>
      </trkpt>
      <trkpt lat="55.98591" lon="-4.95488">
        <ele>6.46</ele>
        <time>2021-03-20T16:34:22Z</time>
      </trkpt>
      <trkpt lat="55.98452" lon="-4.95322">
        <ele>6.8</ele>
        <time>2021-03-20T16:34:27Z</time>
      </trkpt>
      <trkpt lat="55.98271" lon="-4.95045">
        <ele>8.71</ele>
        <time>2021-03-20T16:34:32Z</time>
      </trkpt>
      <trkpt lat="55.98245" lon="-4.95008">
        <ele>7.43</ele>
        <time>2021-03-20T16:34:38Z</time>
      </trkpt>
      <trkpt lat="55.98159" lon="-4.949">
        <ele>8.51</ele>
        <time>2021-03-20T16:34:43Z</time>
      </trkpt>
      <trkpt lat="55.9814" lon="-4.9487">
        <ele>9.24</ele>
        <time>2021-03-20T16:34:48Z</time>
      </trkpt>
      <trkpt lat="55.98104" lon="-4.94822">
        <ele>10.21</ele>
        <time>2021-03-20T16:34:53Z</time>
      </trkpt>
      <trkpt lat="55.98036" lon="-4.94742">
        <ele>13.92</ele>
        <time>2021-03-20T16:34:58Z</time>
      </trkpt>
      <trkpt lat="55.97978" lon="-4.94649">
        <ele>13.99</ele>
        <time>2021-03-20T16:35:04Z</time>
      </trkpt>
      <trkpt lat="55.97929" lon="-4.94596">
        <ele>16.15</ele>
        <time>2021-03-20T16:35:09Z</time>
      </trkpt>
      <trkpt lat="55.97935" lon="-4.94582">
        <ele>15.64</ele>
        <time>2021-03-20T16:35:11Z</time>
      </trkpt>
      <trkpt lat="55.97928" lon="-4.94559">
        <ele>15.32</ele>
        <time>2021-03-20T16:35:14Z</time>
      </trkpt>
      <trkpt lat="55.97916" lon="-4.94491">
        <ele>15.7</ele>
        <time>2021-03-20T16:35:18Z</time>
      </trkpt>
      <trkpt lat="55.97911" lon="-4.94431">
        <ele>14.61</ele>
        <time>2021-03-20T16:35:22Z</time>
      </trkpt>
      <trkpt lat="55.97913" lon="-4.94365">
        <ele>14.27</ele>
        <time>2021-03-20T16:35:25Z</time>
      </trkpt>
      <trkpt lat="55.9792" lon="-4.94272">
        <ele>14.95</ele>
        <time>2021-03-20T16:35:29Z</time>
      </trkpt>
      <trkpt lat="55.97946" lon="-4.94236">
        <ele>14.37</ele>
        <time>2021-03-20T16:35:32Z</time>
      </trkpt>
      <trkpt lat="55.97963" lon="-4.94205">
        <ele>14.91</ele>
        <time>2021-03-20T16:35:36Z</time>
      </trkpt>
      <trkpt lat="55.97985" lon="-4.94131">
        <ele>18.49</ele>
        <time>2021-03-20T16:35:39Z</time>
      </trkpt>
      <trkpt lat="55.98006" lon="-4.94086">
        <ele>18.16</ele>
        <time>2021-03-20T16:35:42Z</time>
      </trkpt>
      <trkpt lat="55.98029" lon="-4.94065">
        <ele>14.6</ele>
        <time>2021-03-20T16:35:45Z</time>
      </trkpt>
      <trkpt lat="55.98059" lon="-4.94057">
        <ele>7.68</ele>
        <time>2021-03-20T16:35:49Z</time>
      </trkpt>
      <trkpt lat="55.9809" lon="-4.94052">
        <ele>7.79</ele>
        <time>2021-03-20T16:35:52Z</time>
      </trkpt>
      <trkpt lat="55.98081" lon="-4.94015">
        <ele>4.94</ele>
        <time>2021-03-20T16:35:56Z</time>
      </trkpt>
      <trkpt lat="55.98078" lon="-4.93968">
        <ele>3.97</ele>
        <time>2021-03-20T16:36:01Z</time>
      </trkpt>
      <trkpt lat="55.98082" lon="-4.93905">
        <ele>2.76</ele>
        <time>2021-03-20T16:36:05Z</time>
      </trkpt>
      <trkpt lat="55.98078" lon="-4.93798">
        <ele>13.65</ele>
        <time>2021-03-20T16:36:09Z</time>
      </trkpt>
      <trkpt lat="55.98073" lon="-4.93736">
        <ele>10.75</ele>
        <time>2021-03-20T16:36:13Z</time>
      </trkpt>
      <trkpt lat="55.98052" lon="-4.93661">
        <ele>2.55</ele>
        <time>2021-03-20T16:36:18Z</time>
      </trkpt>
      <trkpt lat="55.98046" lon="-4.93629">
        <ele>4.18</ele>
        <time>2021-03-20T16:36:22Z</time>
      </trkpt>
      <trkpt lat="55.98037" lon="-4.93558">
        <ele>6.85</ele>
        <time>2021-03-20T16:36:26Z</time>
      </trkpt>
      <trkpt lat="55.98046" lon="-4.9351">
        <ele>4.76</ele>
        <time>2021-03-20T16:36:31Z</time>
      </trkpt>
      <trkpt lat="55.98072" lon="-4.93431">
        <ele>9.11</ele>
        <time>2021-03-20T16:36:35Z</time>
      </trkpt>
      <trkpt lat="55.98105" lon="-4.93355">
        <ele>9.22</ele>
        <time>2021-03-20T16:36:39Z</time>
      </trkpt>
      <trkpt lat="55.98117" lon="-4.93317">
        <ele>8.58</ele>
        <time>2021-03-20T16:36:44Z</time>
      </trkpt>
      <trkpt lat="55.98127" lon="-4.93267">
        <ele>8.02</ele>
        <time>2021-03-20T16:36:48Z</time>
      </trkpt>
      <trkpt lat="55.98142" lon="-4.93221">
        <ele>5.79</ele>
        <time>2021-03-20T16:36:52Z</time>
      </trkpt>
      <trkpt lat="55.98176" lon="-4.93138">
        <ele>3.3</ele>
        <time>2021-03-20T16:36:56Z</time>
      </trkpt>
      <trkpt lat="55.98178" lon="-4.93127">
        <ele>3.19</ele>
        <time>2021-03-20T16:37:01Z</time>
      </trkpt>
      <trkpt lat="55.98177" lon="-4.9312">
        <ele>3.24</ele>
        <time>2021-03-20T16:37:05Z</time>
      </trkpt>
      <trkpt lat="55.98042" lon="-4.92986">
        <ele>6.95</ele>
        <time>2021-03-20T16:37:09Z</time>
      </trkpt>
      <trkpt lat="55.98016" lon="-4.92944">
        <ele>6.64</ele>
        <time>2021-03-20T16:37:14Z</time>
      </trkpt>
      <trkpt lat="55.98008" lon="-4.92921">
        <ele>7.03</ele>
        <time>2021-03-20T16:37:18Z</time>
      </trkpt>
      <trkpt lat="55.98002" lon="-4.92894">
        <ele>6.79</ele>
        <time>2021-03-20T16:37:22Z</time>
      </trkpt>
      <trkpt lat="55.97967" lon="-4.92669">
        <ele>7.18</ele>
        <time>2021-03-20T16:37:27Z</time>
      </trkpt>
      <trkpt lat="55.97944" lon="-4.92612">
        <ele>5.13</ele>
        <time>2021-03-20T16:37:31Z</time>
      </trkpt>
      <trkpt lat="55.97847" lon="-4.92494">
        <ele>6.28</ele>
        <time>2021-03-20T16:37:35Z</time>
      </trkpt>
      <trkpt lat="55.97827" lon="-4.92458">
        <ele>7.05</ele>
        <time>2021-03-20T16:37:39Z</time>
      </trkpt>
      <trkpt lat="55.97808" lon="-4.92415">
        <ele>8.41</ele>
        <time>2021-03-20T16:37:44Z</time>
      </trkpt>
      <trkpt lat="55.97696" lon="-4.92074">
        <ele>5.74</ele>
        <time>2021-03-20T16:37:48Z</time>
      </trkpt>
      <trkpt lat="55.97678" lon="-4.91882">
        <ele>9.72</ele>
        <time>2021-03-20T16:37:52Z</time>
      </trkpt>
      <trkpt lat="55.97637" lon="-4.91663">
        <ele>4.35</ele>
        <time>2021-03-20T16:37:57Z</time>
      </trkpt>
      <trkpt lat="55.97621" lon="-4.91613">
        <ele>5.38</ele>
        <time>2021-03-20T16:38:01Z</time>
      </trkpt>
      <trkpt lat="55.97559" lon="-4.9149">
        <ele>6.3</ele>
        <time>2021-03-20T16:38:05Z</time>
      </trkpt>
      <trkpt lat="55.97504" lon="-4.91376">
        <ele>8.61</ele>
        <time>2021-03-20T16:38:10Z</time>
      </trkpt>
      <trkpt lat="55.97469" lon="-4.9132">
        <ele>11.38</ele>
        <time>2021-03-20T16:38:14Z</time>
      </trkpt>
      <trkpt lat="55.97423" lon="-4.91266">
        <ele>9.43</ele>
        <time>2021-03-20T16:38:18Z</time>
      </trkpt>
      <trkpt lat="55.97394" lon="-4.91246">
        <ele>10.23</ele>
        <time>2021-03-20T16:38:22Z</time>
      </trkpt>
      <trkpt lat="55.97374" lon="-4.91226">
        <ele>9.52</ele>
        <time>2021-03-20T16:38:27Z</time>
      </trkpt>
      <trkpt lat="55.97361" lon="-4.9121">
        <ele>9.13</ele>
        <time>2021-03-20T16:38:31Z</time>
      </trkpt>
      <trkpt lat="55.97314" lon="-4.91125">
        <ele>6.43</ele>
        <time>2021-03-20T16:38:35Z</time>
      </trkpt>
      <trkpt lat="55.97303" lon="-4.91108">
        <ele>6.09</ele>
        <time>2021-03-20T16:38:40Z</time>
      </trkpt>
      <trkpt lat="55.97149" lon="-4.91013">
        <ele>7.23</ele>
        <time>2021-03-20T16:38:44Z</time>
      </trkpt>
      <trkpt lat="55.97072" lon="-4.91015">
        <ele>8.9</ele>
        <time>2021-03-20T16:38:48Z</time>
      </trkpt>
      <trkpt lat="55.97055" lon="-4.91004">
        <ele>9.33</ele>
        <time>2021-03-20T16:38:53Z</time>
      </trkpt>
      <trkpt lat="55.9705" lon="-4.90996">
        <ele>9.6</ele>
        <time>2021-03-20T16:38:57Z</time>
      </trkpt>
      <trkpt lat="55.97042" lon="-4.90981">
        <ele>9.55</ele>
        <time>2021-03-20T16:39:01Z</time>
      </trkpt>
      <trkpt lat="55.97033" lon="-4.90955">
        <ele>8.84</ele>
        <time>2021-03-20T16:39:05Z</time>
      </trkpt>
      <trkpt lat="55.97042" lon="-4.90946">
        <ele>6.62</ele>
        <time>2021-03-20T16:41:08Z</time>
      </trkpt>
      <trkpt lat="55.97047" lon="-4.90944">
        <ele>5.55</ele>
        <time>2021-03-20T16:43:10Z</time>
      </trkpt>
      <trkpt lat="55.97077" lon="-4.90908">
        <ele>1.12</ele>
        <time>2021-03-20T16:45:12Z</time>
      </trkpt>
      <trkpt lat="55.97082" lon="-4.90891">
        <ele>0.15</ele>
        <time>2021-03-20T16:47:14Z</time>
      </trkpt>
      <trkpt lat="55.97108" lon="-4.90862">
        <ele>1.2</ele>
        <time>2021-03-20T16:49:16Z</time>
      </trkpt>
      <trkpt lat="55.97144" lon="-4.90825">
        <ele>-0.13</ele>
        <time>2021-03-20T16:51:18Z</time>
      </trkpt>
      <trkpt lat="55.97164" lon="-4.90773">
        <ele>-0.28</ele>
        <time>2021-03-20T16:53:20Z</time>
      </trkpt>
      <trkpt lat="55.97182" lon="-4.90727">
        <ele>-0.17</ele>
        <time>2021-03-20T16:55:22Z</time>
      </trkpt>
      <trkpt lat="55.97195" lon="-4.90659">
        <ele>-0.02</ele>
        <time>2021-03-20T16:57:24Z</time>
      </trkpt>
      <trkpt lat="55.97191" lon="-4.90583">
        <ele>0.14</ele>
        <time>2021-03-20T16:59:26Z</time>
      </trkpt>
      <trkpt lat="55.95244" lon="-4.85336">
        <ele>12.3</ele>
        <time>2021-03-20T17:01:28Z</time>
      </trkpt>
      <trkpt lat="55.95217" lon="-4.85256">
        <ele>12.36</ele>
        <time>2021-03-20T17:03:30Z</time>
      </trkpt>
      <trkpt lat="55.952" lon="-4.85257">
        <ele>12.38</ele>
        <time>2021-03-20T17:05:32Z</time>
      </trkpt>
      <trkpt lat="55.95179" lon="-4.85293">
        <ele>12.47</ele>
        <time>2021-03-20T17:07:34Z</time>
      </trkpt>
      <trkpt lat="55.95142" lon="-4.85346">
        <ele>3.51</ele>
        <time>2021-03-20T17:09:36Z</time>
      </trkpt>
      <trkpt lat="55.95118" lon="-4.85271">
        <ele>8.99</ele>
        <time>2021-03-20T17:09:45Z</time>
      </trkpt>
      <trkpt lat="55.95097" lon="-4.85238">
        <ele>10.81</ele>
        <time>2021-03-20T17:09:54Z</time>
      </trkpt>
      <trkpt lat="55.95089" lon="-4.8516">
        <ele>10.63</ele>
        <time>2021-03-20T17:10:04Z</time>
      </trkpt>
      <trkpt lat="55.95089" lon="-4.85133">
        <ele>10.17</ele>
        <time>2021-03-20T17:10:14Z</time>
      </trkpt>
      <trkpt lat="55.95093" lon="-4.85077">
        <ele>8.78</ele>
        <time>2021-03-20T17:10:24Z</time>
      </trkpt>
      <trkpt lat="55.95101" lon="-4.85029">
        <ele>9.48</ele>
        <time>2021-03-20T17:10:33Z</time>
      </trkpt>
      <trkpt lat="55.95122" lon="-4.84924">
        <ele>10.31</ele>
        <time>2021-03-20T17:10:43Z</time>
      </trkpt>
      <trkpt lat="55.9519" lon="-4.84621">
        <ele>9.94</ele>
        <time>2021-03-20T17:10:53Z</time>
      </trkpt>
      <trkpt lat="55.95203" lon="-4.84502">
        <ele>8.8</ele>
        <time>2021-03-20T17:11:03Z</time>
      </trkpt>
      <trkpt lat="55.95229" lon="-4.84387">
        <ele>9.17</ele>
        <time>2021-03-20T17:11:12Z</time>
      </trkpt>
      <trkpt lat="55.95275" lon="-4.8424">
        <ele>5.94</ele>
        <time>2021-03-20T17:11:22Z</time>
      </trkpt>
      <trkpt lat="55.95299" lon="-4.84115">
        <ele>5.11</ele>
        <time>2021-03-20T17:11:32Z</time>
      </trkpt>
      <trkpt lat="55.95325" lon="-4.84006">
        <ele>5.67</ele>
        <time>2021-03-20T17:11:42Z</time>
      </trkpt>
      <trkpt lat="55.95397" lon="-4.83819">
        <ele>4.98</ele>
        <time>2021-03-20T17:11:51Z</time>
      </trkpt>
      <trkpt lat="55.95408" lon="-4.83779">
        <ele>6.16</ele>
        <time>2021-03-20T17:12:01Z</time>
      </trkpt>
      <trkpt lat="55.95514" lon="-4.83137">
        <ele>5.62</ele>
        <time>2021-03-20T17:12:11Z</time>
      </trkpt>
      <trkpt lat="55.95519" lon="-4.83112">
        <ele>6.91</ele>
        <time>2021-03-20T17:12:21Z</time>
      </trkpt>
      <trkpt lat="55.95529" lon="-4.8308">
        <ele>7.13</ele>
        <time>2021-03-20T17:12:31Z</time>
      </trkpt>
      <trkpt lat="55.95561" lon="-4.8301">
        <ele>6.19</ele>
        <time>2021-03-20T17:12:40Z</time>
      </trkpt>
      <trkpt lat="55.95723" lon="-4.82714">
        <ele>4.55</ele>
        <time>2021-03-20T17:12:50Z</time>
      </trkpt>
      <trkpt lat="55.95848" lon="-4.82494">
        <ele>9.11</ele>
        <time>2021-03-20T17:13:00Z</time>
      </trkpt>
      <trkpt lat="55.95909" lon="-4.82397">
        <ele>10.36</ele>
        <time>2021-03-20T17:13:10Z</time>
      </trkpt>
      <trkpt lat="55.96001" lon="-4.82286">
        <ele>10.06</ele>
        <time>2021-03-20T17:13:19Z</time>
      </trkpt>
      <trkpt lat="55.96031" lon="-4.82261">
        <ele>10.06</ele>
        <time>2021-03-20T17:13:29Z</time>
      </trkpt>
      <trkpt lat="55.96038" lon="-4.82251">
        <ele>10.2</ele>
        <time>2021-03-20T17:13:39Z</time>
      </trkpt>
      <trkpt lat="55.96085" lon="-4.82171">
        <ele>12.45</ele>
        <time>2021-03-20T17:13:49Z</time>
      </trkpt>
      <trkpt lat="55.96104" lon="-4.8216">
        <ele>10.47</ele>
        <time>2021-03-20T17:13:59Z</time>
      </trkpt>
      <trkpt lat="55.96114" lon="-4.82159">
        <ele>9.36</ele>
        <time>2021-03-20T17:14:08Z</time>
      </trkpt>
      <trkpt lat="55.96133" lon="-4.82149">
        <ele>8.69</ele>
        <time>2021-03-20T17:14:18Z</time>
      </trkpt>
      <trkpt lat="55.96147" lon="-4.82138">
        <ele>8.78</ele>
        <time>2021-03-20T17:14:28Z</time>
      </trkpt>
      <trkpt lat="55.96163" lon="-4.82113">
        <ele>8.48</ele>
        <time>2021-03-20T17:14:38Z</time>
      </trkpt>
      <trkpt lat="55.9618" lon="-4.82083">
        <ele>10.48</ele>
        <time>2021-03-20T17:14:47Z</time>
      </trkpt>
      <trkpt lat="55.96195" lon="-4.82052">
        <ele>12.13</ele>
        <time>2021-03-20T17:14:57Z</time>
      </trkpt>
      <trkpt lat="55.96209" lon="-4.82005">
        <ele>12.73</ele>
        <time>2021-03-20T17:15:07Z</time>
      </trkpt>
      <trkpt lat="55.96215" lon="-4.81974">
        <ele>13.05</ele>
        <time>2021-03-20T17:15:17Z</time>
      </trkpt>
      <trkpt lat="55.96219" lon="-4.8194">
        <ele>7.26</ele>
        <time>2021-03-20T17:15:27Z</time>
      </trkpt>
      <trkpt lat="55.96223" lon="-4.81875">
        <ele>4.91</ele>
        <time>2021-03-20T17:15:36Z</time>
      </trkpt>
      <trkpt lat="55.96223" lon="-4.81855">
        <ele>4.95</ele>
        <time>2021-03-20T17:15:46Z</time>
      </trkpt>
      <trkpt lat="55.96219" lon="-4.81833">
        <ele>5.68</ele>
        <time>2021-03-20T17:15:56Z</time>
      </trkpt>
      <trkpt lat="55.96211" lon="-4.81815">
        <ele>7.78</ele>
        <time>2021-03-20T17:16:06Z</time>
      </trkpt>
      <trkpt lat="55.96173" lon="-4.81783">
        <ele>11.88</ele>
        <time>2021-03-20T17:16:15Z</time>
      </trkpt>
      <trkpt lat="55.96133" lon="-4.81724">
        <ele>7.37</ele>
        <time>2021-03-20T17:16:25Z</time>
      </trkpt>
      <trkpt lat="55.9612" lon="-4.81708">
        <ele>7.33</ele>
        <time>2021-03-20T17:16:35Z</time>
      </trkpt>
      <trkpt lat="55.96027" lon="-4.81654">
        <ele>7.01</ele>
        <time>2021-03-20T17:16:45Z</time>
      </trkpt>
      <trkpt lat="55.95989" lon="-4.81628">
        <ele>7.01</ele>
        <time>2021-03-20T17:16:54Z</time>
      </trkpt>
      <trkpt lat="55.95961" lon="-4.81605">
        <ele>7.72</ele>
        <time>2021-03-20T17:17:04Z</time>
      </trkpt>
      <trkpt lat="55.95876" lon="-4.81525">
        <ele>9.3</ele>
        <time>2021-03-20T17:17:14Z</time>
      </trkpt>
      <trkpt lat="55.95828" lon="-4.81473">
        <ele>8.44</ele>
        <time>2021-03-20T17:17:24Z</time>
      </trkpt>
      <trkpt lat="55.95789" lon="-4.81401">
        <ele>8.03</ele>
        <time>2021-03-20T17:17:34Z</time>
      </trkpt>
      <trkpt lat="55.95669" lon="-4.81165">
        <ele>5.92</ele>
        <time>2021-03-20T17:17:43Z</time>
      </trkpt>
      <trkpt lat="55.95651" lon="-4.81139">
        <ele>8.86</ele>
        <time>2021-03-20T17:17:53Z</time>
      </trkpt>
      <trkpt lat="55.95625" lon="-4.81113">
        <ele>15.68</ele>
        <time>2021-03-20T17:18:03Z</time>
      </trkpt>
      <trkpt lat="55.95565" lon="-4.81073">
        <ele>19.38</ele>
        <time>2021-03-20T17:18:13Z</time>
      </trkpt>
      <trkpt lat="55.95555" lon="-4.81058">
        <ele>17.27</ele>
        <time>2021-03-20T17:18:22Z</time>
      </trkpt>
      <trkpt lat="55.95549" lon="-4.81041">
        <ele>16.6</ele>
        <time>2021-03-20T17:18:32Z</time>
      </trkpt>
      <trkpt lat="55.95548" lon="-4.81023">
        <ele>16.18</ele>
        <time>2021-03-20T17:18:42Z</time>
      </trkpt>
      <trkpt lat="55.95581" lon="-4.8079">
        <ele>9.95</ele>
        <time>2021-03-20T17:18:52Z</time>
      </trkpt>
      <trkpt lat="55.95622" lon="-4.80487">
        <ele>6.6</ele>
        <time>2021-03-20T17:19:02Z</time>
      </trkpt>
      <trkpt lat="55.95657" lon="-4.80263">
        <ele>4.93</ele>
        <time>2021-03-20T17:19:11Z</time>
      </trkpt>
      <trkpt lat="55.95667" lon="-4.80224">
        <ele>5.84</ele>
        <time>2021-03-20T17:19:21Z</time>
      </trkpt>
      <trkpt lat="55.95682" lon="-4.80186">
        <ele>5.22</ele>
        <time>2021-03-20T17:19:31Z</time>
      </trkpt>
      <trkpt lat="55.9571" lon="-4.80129">
        <ele>5.96</ele>
        <time>2021-03-20T17:19:41Z</time>
      </trkpt>
      <trkpt lat="55.96104" lon="-4.79462">
        <ele>11</ele>
        <time>2021-03-20T17:19:50Z</time>
      </trkpt>
      <trkpt lat="55.96149" lon="-4.79375">
        <ele>10.03</ele>
        <time>2021-03-20T17:20:00Z</time>
      </trkpt>
      <trkpt lat="55.96175" lon="-4.79314">
        <ele>11.33</ele>
        <time>2021-03-20T17:20:10Z</time>
      </trkpt>
      <trkpt lat="55.96188" lon="-4.79273">
        <ele>13.11</ele>
        <time>2021-03-20T17:20:20Z</time>
      </trkpt>
      <trkpt lat="55.96194" lon="-4.79251">
        <ele>13.11</ele>
        <time>2021-03-20T17:20:30Z</time>
      </trkpt>
      <trkpt lat="55.962" lon="-4.79213">
        <ele>14.17</ele>
        <time>2021-03-20T17:20:39Z</time>
      </trkpt>
      <trkpt lat="55.96204" lon="-4.79175">
        <ele>14.36</ele>
        <time>2021-03-20T17:20:49Z</time>
      </trkpt>
      <trkpt lat="55.96206" lon="-4.79125">
        <ele>14.4</ele>
        <time>2021-03-20T17:20:59Z</time>
      </trkpt>
      <trkpt lat="55.96205" lon="-4.79104">
        <ele>14.54</ele>
        <time>2021-03-20T17:21:09Z</time>
      </trkpt>
      <trkpt lat="55.96181" lon="-4.78779">
        <ele>14.48</ele>
        <time>2021-03-20T17:21:18Z</time>
      </trkpt>
      <trkpt lat="55.96157" lon="-4.78481">
        <ele>12.78</ele>
        <time>2021-03-20T17:21:28Z</time>
      </trkpt>
      <trkpt lat="55.96151" lon="-4.78437">
        <ele>12</ele>
        <time>2021-03-20T17:21:38Z</time>
      </trkpt>
      <trkpt lat="55.95952" lon="-4.77674">
        <ele>8.56</ele>
        <time>2021-03-20T17:21:48Z</time>
      </trkpt>
      <trkpt lat="55.95899" lon="-4.77464">
        <ele>8.5</ele>
        <time>2021-03-20T17:21:57Z</time>
      </trkpt>
      <trkpt lat="55.95873" lon="-4.77368">
        <ele>8.9</ele>
        <time>2021-03-20T17:22:07Z</time>
      </trkpt>
      <trkpt lat="55.95856" lon="-4.77331">
        <ele>9.35</ele>
        <time>2021-03-20T17:22:17Z</time>
      </trkpt>
      <trkpt lat="55.95833" lon="-4.77291">
        <ele>10.52</ele>
        <time>2021-03-20T17:22:27Z</time>
      </trkpt>
      <trkpt lat="55.95503" lon="-4.76826">
        <ele>9.56</ele>
        <time>2021-03-20T17:22:37Z</time>
      </trkpt>
      <trkpt lat="55.95449" lon="-4.76736">
        <ele>8.35</ele>
        <time>2021-03-20T17:22:46Z</time>
      </trkpt>
      <trkpt lat="55.95391" lon="-4.76622">
        <ele>8.3</ele>
        <time>2021-03-20T17:22:56Z</time>
      </trkpt>
      <trkpt lat="55.95252" lon="-4.76331">
        <ele>8.94</ele>
        <time>2021-03-20T17:23:06Z</time>
      </trkpt>
      <trkpt lat="55.95245" lon="-4.76311">
        <ele>9.19</ele>
        <time>2021-03-20T17:23:16Z</time>
      </trkpt>
      <trkpt lat="55.95225" lon="-4.76212">
        <ele>9.54</ele>
        <time>2021-03-20T17:23:25Z</time>
      </trkpt>
      <trkpt lat="55.95217" lon="-4.76183">
        <ele>8.76</ele>
        <time>2021-03-20T17:23:35Z</time>
      </trkpt>
      <trkpt lat="55.95203" lon="-4.76151">
        <ele>8.69</ele>
        <time>2021-03-20T17:23:45Z</time>
      </trkpt>
      <trkpt lat="55.95185" lon="-4.76126">
        <ele>9</ele>
        <time>2021-03-20T17:23:55Z</time>
      </trkpt>
      <trkpt lat="55.95233" lon="-4.76023">
        <ele>6.24</ele>
        <time>2021-03-20T17:24:06Z</time>
      </trkpt>
      <trkpt lat="55.95188" lon="-4.75955">
        <ele>9.09</ele>
        <time>2021-03-20T17:24:14Z</time>
      </trkpt>
      <trkpt lat="55.95175" lon="-4.7594">
        <ele>8.84</ele>
        <time>2021-03-20T17:24:21Z</time>
      </trkpt>
      <trkpt lat="55.95153" lon="-4.75924">
        <ele>8.26</ele>
        <time>2021-03-20T17:24:29Z</time>
      </trkpt>
      <trkpt lat="55.95119" lon="-4.75904">
        <ele>7.56</ele>
        <time>2021-03-20T17:24:36Z</time>
      </trkpt>
      <trkpt lat="55.95036" lon="-4.75775">
        <ele>8.05</ele>
        <time>2021-03-20T17:24:44Z</time>
      </trkpt>
      <trkpt lat="55.95089" lon="-4.75705">
        <ele>6.2</ele>
        <time>2021-03-20T17:24:49Z</time>
      </trkpt>
      <trkpt lat="55.95095" lon="-4.75694">
        <ele>6.41</ele>
        <time>2021-03-20T17:24:54Z</time>
      </trkpt>
      <trkpt lat="55.95097" lon="-4.75683">
        <ele>6.5</ele>
        <time>2021-03-20T17:24:59Z</time>
      </trkpt>
      <trkpt lat="55.95098" lon="-4.75669">
        <ele>6.51</ele>
        <time>2021-03-20T17:25:05Z</time>
      </trkpt>
      <trkpt lat="55.95096" lon="-4.75654">
        <ele>6.44</ele>
        <time>2021-03-20T17:25:10Z</time>
      </trkpt>
      <trkpt lat="55.95092" lon="-4.75645">
        <ele>6.3</ele>
        <time>2021-03-20T17:25:15Z</time>
      </trkpt>
      <trkpt lat="55.94872" lon="-4.7535">
        <ele>5</ele>
        <time>2021-03-20T17:25:20Z</time>
      </trkpt>
      <trkpt lat="55.94855" lon="-4.75323">
        <ele>5</ele>
        <time>2021-03-20T17:25:25Z</time>
      </trkpt>
      <trkpt lat="55.94831" lon="-4.75271">
        <ele>4.94</ele>
        <time>2021-03-20T17:25:31Z</time>
      </trkpt>
      <trkpt lat="55.94807" lon="-4.75208">
        <ele>6</ele>
        <time>2021-03-20T17:25:36Z</time>
      </trkpt>
      <trkpt lat="55.94801" lon="-4.75198">
        <ele>5.84</ele>
        <time>2021-03-20T17:25:41Z</time>
      </trkpt>
      <trkpt lat="55.94792" lon="-4.75193">
        <ele>5.56</ele>
        <time>2021-03-20T17:25:46Z</time>
      </trkpt>
      <trkpt lat="55.94779" lon="-4.75194">
        <ele>5.07</ele>
        <time>2021-03-20T17:25:51Z</time>
      </trkpt>
      <trkpt lat="55.94709" lon="-4.75222">
        <ele>5.47</ele>
        <time>2021-03-20T17:25:57Z</time>
      </trkpt>
      <trkpt lat="55.94687" lon="-4.75162">
        <ele>7</ele>
        <time>2021-03-20T17:26:05Z</time>
      </trkpt>
      <trkpt lat="55.94646" lon="-4.75079">
        <ele>5.96</ele>
        <time>2021-03-20T17:26:14Z</time>
      </trkpt>
      <trkpt lat="55.94602" lon="-4.75018">
        <ele>5.66</ele>
        <time>2021-03-20T17:26:23Z</time>
      </trkpt>
      <trkpt lat="55.9456" lon="-4.74954">
        <ele>5.83</ele>
        <time>2021-03-20T17:26:32Z</time>
      </trkpt>
      <trkpt lat="55.94486" lon="-4.74783">
        <ele>4.68</ele>
        <time>2021-03-20T17:26:41Z</time>
      </trkpt>
      <trkpt lat="55.94431" lon="-4.74855">
        <ele>6.79</ele>
        <time>2021-03-20T17:26:46Z</time>
      </trkpt>
      <trkpt lat="55.94419" lon="-4.74885">
        <ele>7</ele>
        <time>2021-03-20T17:26:52Z</time>
      </trkpt>
      <trkpt lat="55.94413" lon="-4.74887">
        <ele>7.26</ele>
        <time>2021-03-20T17:26:55Z</time>
      </trkpt>
      <trkpt lat="55.94409" lon="-4.74897">
        <ele>7.87</ele>
        <time>2021-03-20T17:26:57Z</time>
      </trkpt>
      <trkpt lat="55.94408" lon="-4.74904">
        <ele>8.18</ele>
        <time>2021-03-20T17:26:59Z</time>
      </trkpt>
      <trkpt lat="55.9436" lon="-4.74939">
        <ele>11.85</ele>
        <time>2021-03-20T17:27:01Z</time>
      </trkpt>
      <trkpt lat="55.94293" lon="-4.75002">
        <ele>17.32</ele>
        <time>2021-03-20T17:27:08Z</time>
      </trkpt>
      <trkpt lat="55.94235" lon="-4.7506">
        <ele>23.11</ele>
        <time>2021-03-20T17:27:14Z</time>
      </trkpt>
      <trkpt lat="55.9421" lon="-4.75076">
        <ele>25.19</ele>
        <time>2021-03-20T17:27:21Z</time>
      </trkpt>
      <trkpt lat="55.94185" lon="-4.75086">
        <ele>28.05</ele>
        <time>2021-03-20T17:27:27Z</time>
      </trkpt>
      <trkpt lat="55.94176" lon="-4.75045">
        <ele>27.3</ele>
        <time>2021-03-20T17:27:50Z</time>
      </trkpt>
      <trkpt lat="55.94022" lon="-4.74539">
        <ele>42.15</ele>
        <time>2021-03-20T17:28:13Z</time>
      </trkpt>
      <trkpt lat="55.9395" lon="-4.74605">
        <ele>47.19</ele>
        <time>2021-03-20T17:28:17Z</time>
      </trkpt>
      <trkpt lat="55.93935" lon="-4.74615">
        <ele>46.78</ele>
        <time>2021-03-20T17:28:21Z</time>
      </trkpt>
      <trkpt lat="55.93925" lon="-4.74611">
        <ele>46.99</ele>
        <time>2021-03-20T17:28:25Z</time>
      </trkpt>
      <trkpt lat="55.93912" lon="-4.74597">
        <ele>48.29</ele>
        <time>2021-03-20T17:28:29Z</time>
      </trkpt>
      <trkpt lat="55.93869" lon="-4.74519">
        <ele>55.41</ele>
        <time>2021-03-20T17:28:33Z</time>
      </trkpt>
      <trkpt lat="55.93837" lon="-4.74474">
        <ele>58.91</ele>
        <time>2021-03-20T17:28:37Z</time>
      </trkpt>
      <trkpt lat="55.93782" lon="-4.74472">
        <ele>60.69</ele>
        <time>2021-03-20T17:28:41Z</time>
      </trkpt>
      <trkpt lat="55.9377" lon="-4.74464">
        <ele>62.08</ele>
        <time>2021-03-20T17:28:45Z</time>
      </trkpt>
      <trkpt lat="55.9375" lon="-4.74447">
        <ele>63.91</ele>
        <time>2021-03-20T17:28:49Z</time>
      </trkpt>
      <trkpt lat="55.93538" lon="-4.74197">
        <ele>77.24</ele>
        <time>2021-03-20T17:28:54Z</time>
      </trkpt>
      <trkpt lat="55.9345" lon="-4.74065">
        <ele>78.95</ele>
        <time>2021-03-20T17:28:58Z</time>
      </trkpt>
      <trkpt lat="55.93432" lon="-4.74036">
        <ele>81.32</ele>
        <time>2021-03-20T17:29:02Z</time>
      </trkpt>
      <trkpt lat="55.93414" lon="-4.73984">
        <ele>82.51</ele>
        <time>2021-03-20T17:29:06Z</time>
      </trkpt>
      <trkpt lat="55.93354" lon="-4.73709">
        <ele>89.59</ele>
        <time>2021-03-20T17:29:10Z</time>
      </trkpt>
      <trkpt lat="55.93292" lon="-4.73377">
        <ele>97.59</ele>
        <time>2021-03-20T17:29:14Z</time>
      </trkpt>
      <trkpt lat="55.93202" lon="-4.72871">
        <ele>117.14</ele>
        <time>2021-03-20T17:29:18Z</time>
      </trkpt>
      <trkpt lat="55.93178" lon="-4.72754">
        <ele>123.95</ele>
        <time>2021-03-20T17:29:22Z</time>
      </trkpt>
      <trkpt lat="55.93169" lon="-4.72688">
        <ele>125.51</ele>
        <time>2021-03-20T17:29:26Z</time>
      </trkpt>
      <trkpt lat="55.93161" lon="-4.72581">
        <ele>128.65</ele>
        <time>2021-03-20T17:29:30Z</time>
      </trkpt>
      <trkpt lat="55.93162" lon="-4.7231">
        <ele>131.65</ele>
        <time>2021-03-20T17:29:34Z</time>
      </trkpt>
      <trkpt lat="55.93154" lon="-4.72217">
        <ele>134.17</ele>
        <time>2021-03-20T17:29:38Z</time>
      </trkpt>
      <trkpt lat="55.93119" lon="-4.72012">
        <ele>142.44</ele>
        <time>2021-03-20T17:29:42Z</time>
      </trkpt>
      <trkpt lat="55.9307" lon="-4.71831">
        <ele>149.36</ele>
        <time>2021-03-20T17:29:46Z</time>
      </trkpt>
      <trkpt lat="55.93063" lon="-4.71723">
        <ele>152.93</ele>
        <time>2021-03-20T17:29:51Z</time>
      </trkpt>
      <trkpt lat="55.93055" lon="-4.71663">
        <ele>157.14</ele>
        <time>2021-03-20T17:29:55Z</time>
      </trkpt>
      <trkpt lat="55.93028" lon="-4.71563">
        <ele>160.22</ele>
        <time>2021-03-20T17:29:59Z</time>
      </trkpt>
      <trkpt lat="55.93009" lon="-4.71478">
        <ele>166.22</ele>
        <time>2021-03-20T17:30:03Z</time>
      </trkpt>
      <trkpt lat="55.92994" lon="-4.71397">
        <ele>170.5</ele>
        <time>2021-03-20T17:30:07Z</time>
      </trkpt>
      <trkpt lat="55.9298" lon="-4.7135">
        <ele>173.01</ele>
        <time>2021-03-20T17:30:11Z</time>
      </trkpt>
      <trkpt lat="55.92887" lon="-4.71144">
        <ele>174.55</ele>
        <time>2021-03-20T17:30:15Z</time>
      </trkpt>
      <trkpt lat="55.92846" lon="-4.71073">
        <ele>179.6</ele>
        <time>2021-03-20T17:30:19Z</time>
      </trkpt>
      <trkpt lat="55.92803" lon="-4.71035">
        <ele>183.61</ele>
        <time>2021-03-20T17:30:23Z</time>
      </trkpt>
      <trkpt lat="55.92777" lon="-4.71019">
        <ele>185.41</ele>
        <time>2021-03-20T17:30:27Z</time>
      </trkpt>
      <trkpt lat="55.92753" lon="-4.7101">
        <ele>186.47</ele>
        <time>2021-03-20T17:30:31Z</time>
      </trkpt>
      <trkpt lat="55.92726" lon="-4.71007">
        <ele>187.38</ele>
        <time>2021-03-20T17:30:35Z</time>
      </trkpt>
      <trkpt lat="55.92702" lon="-4.7101">
        <ele>187.69</ele>
        <time>2021-03-20T17:30:39Z</time>
      </trkpt>
      <trkpt lat="55.92659" lon="-4.71032">
        <ele>190.14</ele>
        <time>2021-03-20T17:30:43Z</time>
      </trkpt>
      <trkpt lat="55.92613" lon="-4.71069">
        <ele>191.02</ele>
        <time>2021-03-20T17:30:48Z</time>
      </trkpt>
      <trkpt lat="55.92564" lon="-4.71115">
        <ele>194.45</ele>
        <time>2021-03-20T17:30:52Z</time>
      </trkpt>
      <trkpt lat="55.92531" lon="-4.71138">
        <ele>195.99</ele>
        <time>2021-03-20T17:30:56Z</time>
      </trkpt>
      <trkpt lat="55.92415" lon="-4.71177">
        <ele>198.3</ele>
        <time>2021-03-20T17:31:00Z</time>
      </trkpt>
      <trkpt lat="55.92176" lon="-4.71259">
        <ele>202.67</ele>
        <time>2021-03-20T17:31:04Z</time>
      </trkpt>
      <trkpt lat="55.92127" lon="-4.71278">
        <ele>201.58</ele>
        <time>2021-03-20T17:31:08Z</time>
      </trkpt>
      <trkpt lat="55.92068" lon="-4.71289">
        <ele>202.19</ele>
        <time>2021-03-20T17:31:12Z</time>
      </trkpt>
      <trkpt lat="55.92036" lon="-4.71284">
        <ele>203.74</ele>
        <time>2021-03-20T17:31:16Z</time>
      </trkpt>
      <trkpt lat="55.91919" lon="-4.71238">
        <ele>205.44</ele>
        <time>2021-03-20T17:31:20Z</time>
      </trkpt>
      <trkpt lat="55.91787" lon="-4.71181">
        <ele>207.2</ele>
        <time>2021-03-20T17:31:24Z</time>
      </trkpt>
      <trkpt lat="55.91733" lon="-4.71155">
        <ele>208.18</ele>
        <time>2021-03-20T17:31:28Z</time>
      </trkpt>
      <trkpt lat="55.91673" lon="-4.71119">
        <ele>208.27</ele>
        <time>2021-03-20T17:31:32Z</time>
      </trkpt>
      <trkpt lat="55.91643" lon="-4.71097">
        <ele>209.67</ele>
        <time>2021-03-20T17:31:36Z</time>
      </trkpt>
      <trkpt lat="55.91582" lon="-4.71001">
        <ele>209.93</ele>
        <time>2021-03-20T17:31:40Z</time>
      </trkpt>
      <trkpt lat="55.91545" lon="-4.70948">
        <ele>208.12</ele>
        <time>2021-03-20T17:31:45Z</time>
      </trkpt>
      <trkpt lat="55.91527" lon="-4.70926">
        <ele>208</ele>
        <time>2021-03-20T17:31:49Z</time>
      </trkpt>
      <trkpt lat="55.91482" lon="-4.7091">
        <ele>207.44</ele>
        <time>2021-03-20T17:31:53Z</time>
      </trkpt>
      <trkpt lat="55.91395" lon="-4.70859">
        <ele>200.25</ele>
        <time>2021-03-20T17:31:57Z</time>
      </trkpt>
      <trkpt lat="55.91374" lon="-4.70857">
        <ele>198.62</ele>
        <time>2021-03-20T17:32:01Z</time>
      </trkpt>
      <trkpt lat="55.91252" lon="-4.7087">
        <ele>193.74</ele>
        <time>2021-03-20T17:32:05Z</time>
      </trkpt>
      <trkpt lat="55.91208" lon="-4.70878">
        <ele>190.2</ele>
        <time>2021-03-20T17:32:09Z</time>
      </trkpt>
      <trkpt lat="55.91179" lon="-4.70887">
        <ele>188.74</ele>
        <time>2021-03-20T17:32:13Z</time>
      </trkpt>
      <trkpt lat="55.91152" lon="-4.70899">
        <ele>187.15</ele>
        <time>2021-03-20T17:32:17Z</time>
      </trkpt>
      <trkpt lat="55.91135" lon="-4.70902">
        <ele>186.02</ele>
        <time>2021-03-20T17:32:21Z</time>
      </trkpt>
      <trkpt lat="55.91109" lon="-4.70891">
        <ele>185.98</ele>
        <time>2021-03-20T17:32:25Z</time>
      </trkpt>
      <trkpt lat="55.91061" lon="-4.70851">
        <ele>181.45</ele>
        <time>2021-03-20T17:32:29Z</time>
      </trkpt>
      <trkpt lat="55.91022" lon="-4.70825">
        <ele>179.35</ele>
        <time>2021-03-20T17:32:33Z</time>
      </trkpt>
      <trkpt lat="55.91003" lon="-4.70816">
        <ele>178.14</ele>
        <time>2021-03-20T17:32:38Z</time>
      </trkpt>
      <trkpt lat="55.90992" lon="-4.70814">
        <ele>177.26</ele>
        <time>2021-03-20T17:32:42Z</time>
      </trkpt>
      <trkpt lat="55.90985" lon="-4.70816">
        <ele>176.54</ele>
        <time>2021-03-20T17:32:46Z</time>
      </trkpt>
      <trkpt lat="55.90976" lon="-4.70824">
        <ele>176.01</ele>
        <time>2021-03-20T17:32:50Z</time>
      </trkpt>
      <trkpt lat="55.90969" lon="-4.70834">
        <ele>175.71</ele>
        <time>2021-03-20T17:32:54Z</time>
      </trkpt>
      <trkpt lat="55.90959" lon="-4.70859">
        <ele>175.46</ele>
        <time>2021-03-20T17:32:58Z</time>
      </trkpt>
      <trkpt lat="55.90949" lon="-4.70877">
        <ele>174.44</ele>
        <time>2021-03-20T17:33:02Z</time>
      </trkpt>
      <trkpt lat="55.90938" lon="-4.70887">
        <ele>173.52</ele>
        <time>2021-03-20T17:33:06Z</time>
      </trkpt>
      <trkpt lat="55.90926" lon="-4.70899">
        <ele>172.98</ele>
        <time>2021-03-20T17:33:10Z</time>
      </trkpt>
      <trkpt lat="55.90911" lon="-4.70906">
        <ele>172.4</ele>
        <time>2021-03-20T17:33:14Z</time>
      </trkpt>
      <trkpt lat="55.90892" lon="-4.70909">
        <ele>171.85</ele>
        <time>2021-03-20T17:33:18Z</time>
      </trkpt>
      <trkpt lat="55.90877" lon="-4.70903">
        <ele>170.38</ele>
        <time>2021-03-20T17:33:22Z</time>
      </trkpt>
      <trkpt lat="55.90818" lon="-4.7087">
        <ele>164.91</ele>
        <time>2021-03-20T17:33:26Z</time>
      </trkpt>
      <trkpt lat="55.90755" lon="-4.70862">
        <ele>160.5</ele>
        <time>2021-03-20T17:33:30Z</time>
      </trkpt>
      <trkpt lat="55.90733" lon="-4.70852">
        <ele>158.59</ele>
        <time>2021-03-20T17:33:35Z</time>
      </trkpt>
      <trkpt lat="55.90701" lon="-4.70827">
        <ele>156.06</ele>
        <time>2021-03-20T17:33:39Z</time>
      </trkpt>
      <trkpt lat="55.90651" lon="-4.70777">
        <ele>153.41</ele>
        <time>2021-03-20T17:33:43Z</time>
      </trkpt>
      <trkpt lat="55.90535" lon="-4.70648">
        <ele>150.27</ele>
        <time>2021-03-20T17:33:47Z</time>
      </trkpt>
      <trkpt lat="55.90504" lon="-4.70615">
        <ele>149.15</ele>
        <time>2021-03-20T17:33:51Z</time>
      </trkpt>
      <trkpt lat="55.90427" lon="-4.70545">
        <ele>148</ele>
        <time>2021-03-20T17:33:55Z</time>
      </trkpt>
      <trkpt lat="55.90233" lon="-4.70337">
        <ele>144.65</ele>
        <time>2021-03-20T17:33:59Z</time>
      </trkpt>
      <trkpt lat="55.90195" lon="-4.70286">
        <ele>144.04</ele>
        <time>2021-03-20T17:34:03Z</time>
      </trkpt>
      <trkpt lat="55.90181" lon="-4.7026">
        <ele>144.14</ele>
        <time>2021-03-20T17:34:07Z</time>
      </trkpt>
      <trkpt lat="55.90088" lon="-4.7013">
        <ele>145.15</ele>
        <time>2021-03-20T17:34:11Z</time>
      </trkpt>
      <trkpt lat="55.90025" lon="-4.70063">
        <ele>150.9</ele>
        <time>2021-03-20T17:34:15Z</time>
      </trkpt>
      <trkpt lat="55.89794" lon="-4.69787">
        <ele>159.95</ele>
        <time>2021-03-20T17:34:19Z</time>
      </trkpt>
      <trkpt lat="55.89767" lon="-4.69736">
        <ele>158.41</ele>
        <time>2021-03-20T17:34:23Z</time>
      </trkpt>
      <trkpt lat="55.89702" lon="-4.69587">
        <ele>157.28</ele>
        <time>2021-03-20T17:34:27Z</time>
      </trkpt>
      <trkpt lat="55.89683" lon="-4.6953">
        <ele>157.6</ele>
        <time>2021-03-20T17:34:32Z</time>
      </trkpt>
      <trkpt lat="55.89658" lon="-4.69465">
        <ele>156.65</ele>
        <time>2021-03-20T17:34:36Z</time>
      </trkpt>
      <trkpt lat="55.89608" lon="-4.69348">
        <ele>155.15</ele>
        <time>2021-03-20T17:34:40Z</time>
      </trkpt>
      <trkpt lat="55.89547" lon="-4.69223">
        <ele>147.11</ele>
        <time>2021-03-20T17:34:44Z</time>
      </trkpt>
      <trkpt lat="55.89514" lon="-4.69183">
        <ele>144.28</ele>
        <time>2021-03-20T17:34:48Z</time>
      </trkpt>
      <trkpt lat="55.89495" lon="-4.69172">
        <ele>143.16</ele>
        <time>2021-03-20T17:34:52Z</time>
      </trkpt>
      <trkpt lat="55.89321" lon="-4.69119">
        <ele>138.72</ele>
        <time>2021-03-20T17:34:56Z</time>
      </trkpt>
      <trkpt lat="55.89302" lon="-4.69117">
        <ele>138.9</ele>
        <time>2021-03-20T17:35:00Z</time>
      </trkpt>
      <trkpt lat="55.89257" lon="-4.69121">
        <ele>140.53</ele>
        <time>2021-03-20T17:35:04Z</time>
      </trkpt>
      <trkpt lat="55.8924" lon="-4.69118">
        <ele>140.92</ele>
        <time>2021-03-20T17:35:08Z</time>
      </trkpt>
      <trkpt lat="55.89218" lon="-4.69109">
        <ele>140.67</ele>
        <time>2021-03-20T17:35:12Z</time>
      </trkpt>
      <trkpt lat="55.89197" lon="-4.69092">
        <ele>140.32</ele>
        <time>2021-03-20T17:35:16Z</time>
      </trkpt>
      <trkpt lat="55.8918" lon="-4.6907">
        <ele>140.36</ele>
        <time>2021-03-20T17:35:20Z</time>
      </trkpt>
      <trkpt lat="55.89164" lon="-4.69035">
        <ele>140.16</ele>
        <time>2021-03-20T17:35:24Z</time>
      </trkpt>
      <trkpt lat="55.89141" lon="-4.68954">
        <ele>136.9</ele>
        <time>2021-03-20T17:35:29Z</time>
      </trkpt>
      <trkpt lat="55.89128" lon="-4.68918">
        <ele>135.42</ele>
        <time>2021-03-20T17:35:33Z</time>
      </trkpt>
      <trkpt lat="55.89109" lon="-4.68874">
        <ele>133.73</ele>
        <time>2021-03-20T17:35:37Z</time>
      </trkpt>
      <trkpt lat="55.89094" lon="-4.68823">
        <ele>131.88</ele>
        <time>2021-03-20T17:35:41Z</time>
      </trkpt>
      <trkpt lat="55.89072" lon="-4.68737">
        <ele>127.69</ele>
        <time>2021-03-20T17:35:45Z</time>
      </trkpt>
      <trkpt lat="55.89063" lon="-4.68688">
        <ele>127.27</ele>
        <time>2021-03-20T17:35:49Z</time>
      </trkpt>
      <trkpt lat="55.8905" lon="-4.68587">
        <ele>124.92</ele>
        <time>2021-03-20T17:35:53Z</time>
      </trkpt>
      <trkpt lat="55.89039" lon="-4.68508">
        <ele>122.01</ele>
        <time>2021-03-20T17:35:57Z</time>
      </trkpt>
      <trkpt lat="55.89026" lon="-4.6846">
        <ele>121.56</ele>
        <time>2021-03-20T17:36:01Z</time>
      </trkpt>
      <trkpt lat="55.88986" lon="-4.68357">
        <ele>118.84</ele>
        <time>2021-03-20T17:36:05Z</time>
      </trkpt>
      <trkpt lat="55.88976" lon="-4.6832">
        <ele>118</ele>
        <time>2021-03-20T17:36:09Z</time>
      </trkpt>
      <trkpt lat="55.88969" lon="-4.68283">
        <ele>117.17</ele>
        <time>2021-03-20T17:36:13Z</time>
      </trkpt>
      <trkpt lat="55.88964" lon="-4.68249">
        <ele>117</ele>
        <time>2021-03-20T17:36:17Z</time>
      </trkpt>
      <trkpt lat="55.88963" lon="-4.68198">
        <ele>117</ele>
        <time>2021-03-20T17:36:21Z</time>
      </trkpt>
      <trkpt lat="55.8897" lon="-4.68101">
        <ele>118.82</ele>
        <time>2021-03-20T17:36:26Z</time>
      </trkpt>
      <trkpt lat="55.88971" lon="-4.68051">
        <ele>119.81</ele>
        <time>2021-03-20T17:36:30Z</time>
      </trkpt>
      <trkpt lat="55.88967" lon="-4.67962">
        <ele>120.81</ele>
        <time>2021-03-20T17:36:34Z</time>
      </trkpt>
      <trkpt lat="55.88961" lon="-4.67939">
        <ele>121.03</ele>
        <time>2021-03-20T17:36:38Z</time>
      </trkpt>
      <trkpt lat="55.88955" lon="-4.67921">
        <ele>120.97</ele>
        <time>2021-03-20T17:36:42Z</time>
      </trkpt>
      <trkpt lat="55.88945" lon="-4.67904">
        <ele>120.56</ele>
        <time>2021-03-20T17:36:46Z</time>
      </trkpt>
      <trkpt lat="55.88922" lon="-4.67879">
        <ele>118.14</ele>
        <time>2021-03-20T17:36:50Z</time>
      </trkpt>
      <trkpt lat="55.88911" lon="-4.67863">
        <ele>117.38</ele>
        <time>2021-03-20T17:36:54Z</time>
      </trkpt>
      <trkpt lat="55.88901" lon="-4.67836">
        <ele>116.74</ele>
        <time>2021-03-20T17:36:58Z</time>
      </trkpt>
      <trkpt lat="55.88802" lon="-4.67527">
        <ele>116.78</ele>
        <time>2021-03-20T17:37:02Z</time>
      </trkpt>
      <trkpt lat="55.88725" lon="-4.67314">
        <ele>117.2</ele>
        <time>2021-03-20T17:37:06Z</time>
      </trkpt>
      <trkpt lat="55.88612" lon="-4.66968">
        <ele>112.22</ele>
        <time>2021-03-20T17:37:10Z</time>
      </trkpt>
      <trkpt lat="55.88602" lon="-4.66928">
        <ele>112.06</ele>
        <time>2021-03-20T17:37:14Z</time>
      </trkpt>
      <trkpt lat="55.88584" lon="-4.66654">
        <ele>114.02</ele>
        <time>2021-03-20T17:37:18Z</time>
      </trkpt>
      <trkpt lat="55.8857" lon="-4.66555">
        <ele>114.53</ele>
        <time>2021-03-20T17:37:23Z</time>
      </trkpt>
      <trkpt lat="55.88509" lon="-4.66354">
        <ele>116.56</ele>
        <time>2021-03-20T17:37:27Z</time>
      </trkpt>
      <trkpt lat="55.88473" lon="-4.66285">
        <ele>117.75</ele>
        <time>2021-03-20T17:37:31Z</time>
      </trkpt>
      <trkpt lat="55.88431" lon="-4.66135">
        <ele>118.63</ele>
        <time>2021-03-20T17:37:35Z</time>
      </trkpt>
      <trkpt lat="55.88419" lon="-4.66072">
        <ele>121.25</ele>
        <time>2021-03-20T17:37:39Z</time>
      </trkpt>
      <trkpt lat="55.88387" lon="-4.66002">
        <ele>120.92</ele>
        <time>2021-03-20T17:37:43Z</time>
      </trkpt>
      <trkpt lat="55.88376" lon="-4.65954">
        <ele>119.89</ele>
        <time>2021-03-20T17:37:47Z</time>
      </trkpt>
      <trkpt lat="55.88364" lon="-4.65833">
        <ele>119</ele>
        <time>2021-03-20T17:37:51Z</time>
      </trkpt>
      <trkpt lat="55.88373" lon="-4.65705">
        <ele>119.14</ele>
        <time>2021-03-20T17:37:55Z</time>
      </trkpt>
      <trkpt lat="55.88388" lon="-4.65626">
        <ele>119.49</ele>
        <time>2021-03-20T17:37:59Z</time>
      </trkpt>
      <trkpt lat="55.88388" lon="-4.65524">
        <ele>118.88</ele>
        <time>2021-03-20T17:38:03Z</time>
      </trkpt>
      <trkpt lat="55.88394" lon="-4.65443">
        <ele>117.17</ele>
        <time>2021-03-20T17:38:07Z</time>
      </trkpt>
      <trkpt lat="55.88432" lon="-4.65282">
        <ele>116.08</ele>
        <time>2021-03-20T17:38:11Z</time>
      </trkpt>
      <trkpt lat="55.88454" lon="-4.65125">
        <ele>109.83</ele>
        <time>2021-03-20T17:38:15Z</time>
      </trkpt>
      <trkpt lat="55.88497" lon="-4.6497">
        <ele>105.79</ele>
        <time>2021-03-20T17:38:20Z</time>
      </trkpt>
      <trkpt lat="55.88501" lon="-4.6494">
        <ele>104.88</ele>
        <time>2021-03-20T17:38:24Z</time>
      </trkpt>
      <trkpt lat="55.88495" lon="-4.64916">
        <ele>103.8</ele>
        <time>2021-03-20T17:38:28Z</time>
      </trkpt>
      <trkpt lat="55.88467" lon="-4.6488">
        <ele>100.49</ele>
        <time>2021-03-20T17:38:32Z</time>
      </trkpt>
      <trkpt lat="55.88456" lon="-4.64857">
        <ele>99.09</ele>
        <time>2021-03-20T17:38:36Z</time>
      </trkpt>
      <trkpt lat="55.88452" lon="-4.64837">
        <ele>97.58</ele>
        <time>2021-03-20T17:38:40Z</time>
      </trkpt>
      <trkpt lat="55.88478" lon="-4.64558">
        <ele>89.69</ele>
        <time>2021-03-20T17:38:44Z</time>
      </trkpt>
      <trkpt lat="55.88384" lon="-4.64611">
        <ele>88.18</ele>
        <time>2021-03-20T17:38:47Z</time>
      </trkpt>
      <trkpt lat="55.88366" lon="-4.64617">
        <ele>88.85</ele>
        <time>2021-03-20T17:38:51Z</time>
      </trkpt>
      <trkpt lat="55.88346" lon="-4.64615">
        <ele>90.01</ele>
        <time>2021-03-20T17:38:54Z</time>
      </trkpt>
      <trkpt lat="55.88303" lon="-4.64597">
        <ele>92.35</ele>
        <time>2021-03-20T17:38:58Z</time>
      </trkpt>
      <trkpt lat="55.88189" lon="-4.64566">
        <ele>88.2</ele>
        <time>2021-03-20T17:39:01Z</time>
      </trkpt>
      <trkpt lat="55.88144" lon="-4.64577">
        <ele>85.28</ele>
        <time>2021-03-20T17:39:05Z</time>
      </trkpt>
      <trkpt lat="55.88111" lon="-4.64589">
        <ele>84.01</ele>
        <time>2021-03-20T17:39:08Z</time>
      </trkpt>
      <trkpt lat="55.88086" lon="-4.64603">
        <ele>83.1</ele>
        <time>2021-03-20T17:39:12Z</time>
      </trkpt>
      <trkpt lat="55.88017" lon="-4.64616">
        <ele>80.86</ele>
        <time>2021-03-20T17:39:15Z</time>
      </trkpt>
      <trkpt lat="55.87961" lon="-4.64624">
        <ele>79.74</ele>
        <time>2021-03-20T17:39:18Z</time>
      </trkpt>
      <trkpt lat="55.87752" lon="-4.64631">
        <ele>77.02</ele>
        <time>2021-03-20T17:39:22Z</time>
      </trkpt>
      <trkpt lat="55.87703" lon="-4.64651">
        <ele>75</ele>
        <time>2021-03-20T17:39:25Z</time>
      </trkpt>
      <trkpt lat="55.87644" lon="-4.64668">
        <ele>72.34</ele>
        <time>2021-03-20T17:39:29Z</time>
      </trkpt>
      <trkpt lat="55.87582" lon="-4.64677">
        <ele>69.4</ele>
        <time>2021-03-20T17:39:32Z</time>
      </trkpt>
      <trkpt lat="55.8757" lon="-4.64683">
        <ele>70.04</ele>
        <time>2021-03-20T17:39:36Z</time>
      </trkpt>
      <trkpt lat="55.87554" lon="-4.64703">
        <ele>71.05</ele>
        <time>2021-03-20T17:39:39Z</time>
      </trkpt>
      <trkpt lat="55.87547" lon="-4.64703">
        <ele>71.29</ele>
        <time>2021-03-20T17:39:43Z</time>
      </trkpt>
      <trkpt lat="55.87539" lon="-4.64698">
        <ele>71.6</ele>
        <time>2021-03-20T17:39:46Z</time>
      </trkpt>
      <trkpt lat="55.87528" lon="-4.64684">
        <ele>71.61</ele>
        <time>2021-03-20T17:39:49Z</time>
      </trkpt>
      <trkpt lat="55.87504" lon="-4.64641">
        <ele>71</ele>
        <time>2021-03-20T17:39:53Z</time>
      </trkpt>
      <trkpt lat="55.87478" lon="-4.64612">
        <ele>70.81</ele>
        <time>2021-03-20T17:39:56Z</time>
      </trkpt>
      <trkpt lat="55.8745" lon="-4.64587">
        <ele>72.5</ele>
        <time>2021-03-20T17:40:00Z</time>
      </trkpt>
      <trkpt lat="55.87398" lon="-4.64551">
        <ele>73.77</ele>
        <time>2021-03-20T17:40:03Z</time>
      </trkpt>
      <trkpt lat="55.87199" lon="-4.6446">
        <ele>81.79</ele>
        <time>2021-03-20T17:40:07Z</time>
      </trkpt>
      <trkpt lat="55.87061" lon="-4.64456">
        <ele>84.08</ele>
        <time>2021-03-20T17:40:10Z</time>
      </trkpt>
      <trkpt lat="55.86948" lon="-4.64384">
        <ele>83.14</ele>
        <time>2021-03-20T17:40:14Z</time>
      </trkpt>
      <trkpt lat="55.86908" lon="-4.64329">
        <ele>82.12</ele>
        <time>2021-03-20T17:40:17Z</time>
      </trkpt>
      <trkpt lat="55.86882" lon="-4.64314">
        <ele>80.52</ele>
        <time>2021-03-20T17:40:20Z</time>
      </trkpt>
      <trkpt lat="55.86801" lon="-4.6431">
        <ele>81.19</ele>
        <time>2021-03-20T17:40:24Z</time>
      </trkpt>
      <trkpt lat="55.86773" lon="-4.64306">
        <ele>82.36</ele>
        <time>2021-03-20T17:40:27Z</time>
      </trkpt>
      <trkpt lat="55.86762" lon="-4.64297">
        <ele>82.86</ele>
        <time>2021-03-20T17:40:31Z</time>
      </trkpt>
      <trkpt lat="55.86735" lon="-4.64253">
        <ele>83.1</ele>
        <time>2021-03-20T17:40:34Z</time>
      </trkpt>
      <trkpt lat="55.86719" lon="-4.64246">
        <ele>84.23</ele>
        <time>2021-03-20T17:40:38Z</time>
      </trkpt>
      <trkpt lat="55.86691" lon="-4.64246">
        <ele>86.1</ele>
        <time>2021-03-20T17:40:41Z</time>
      </trkpt>
      <trkpt lat="55.86681" lon="-4.64239">
        <ele>86.29</ele>
        <time>2021-03-20T17:40:44Z</time>
      </trkpt>
      <trkpt lat="55.86668" lon="-4.64222">
        <ele>86</ele>
        <time>2021-03-20T17:40:48Z</time>
      </trkpt>
      <trkpt lat="55.86658" lon="-4.64201">
        <ele>85.54</ele>
        <time>2021-03-20T17:40:51Z</time>
      </trkpt>
      <trkpt lat="55.86593" lon="-4.64042">
        <ele>84.28</ele>
        <time>2021-03-20T17:40:55Z</time>
      </trkpt>
      <trkpt lat="55.86581" lon="-4.64005">
        <ele>85.2</ele>
        <time>2021-03-20T17:40:58Z</time>
      </trkpt>
      <trkpt lat="55.86573" lon="-4.63987">
        <ele>85.28</ele>
        <time>2021-03-20T17:41:02Z</time>
      </trkpt>
      <trkpt lat="55.86563" lon="-4.63974">
        <ele>85.53</ele>
        <time>2021-03-20T17:41:05Z</time>
      </trkpt>
      <trkpt lat="55.86542" lon="-4.63957">
        <ele>85.15</ele>
        <time>2021-03-20T17:41:09Z</time>
      </trkpt>
      <trkpt lat="55.86462" lon="-4.6386">
        <ele>80.54</ele>
        <time>2021-03-20T17:41:12Z</time>
      </trkpt>
      <trkpt lat="55.86445" lon="-4.63843">
        <ele>79.35</ele>
        <time>2021-03-20T17:41:15Z</time>
      </trkpt>
      <trkpt lat="55.86404" lon="-4.63821">
        <ele>80.02</ele>
        <time>2021-03-20T17:41:19Z</time>
      </trkpt>
      <trkpt lat="55.8638" lon="-4.63805">
        <ele>79.64</ele>
        <time>2021-03-20T17:41:22Z</time>
      </trkpt>
      <trkpt lat="55.86346" lon="-4.63764">
        <ele>76.96</ele>
        <time>2021-03-20T17:41:26Z</time>
      </trkpt>
      <trkpt lat="55.86305" lon="-4.63725">
        <ele>73.22</ele>
        <time>2021-03-20T17:41:29Z</time>
      </trkpt>
      <trkpt lat="55.86268" lon="-4.6368">
        <ele>71.85</ele>
        <time>2021-03-20T17:41:33Z</time>
      </trkpt>
      <trkpt lat="55.86258" lon="-4.63672">
        <ele>71.89</ele>
        <time>2021-03-20T17:41:36Z</time>
      </trkpt>
      <trkpt lat="55.86197" lon="-4.63633">
        <ele>73.78</ele>
        <time>2021-03-20T17:41:40Z</time>
      </trkpt>
      <trkpt lat="55.86142" lon="-4.63584">
        <ele>73.89</ele>
        <time>2021-03-20T17:41:43Z</time>
      </trkpt>
      <trkpt lat="55.86114" lon="-4.63553">
        <ele>73.91</ele>
        <time>2021-03-20T17:41:46Z</time>
      </trkpt>
      <trkpt lat="55.86014" lon="-4.63424">
        <ele>80.75</ele>
        <time>2021-03-20T17:41:50Z</time>
      </trkpt>
      <trkpt lat="55.86001" lon="-4.6341">
        <ele>81.72</ele>
        <time>2021-03-20T17:41:53Z</time>
      </trkpt>
      <trkpt lat="55.8597" lon="-4.63389">
        <ele>85.09</ele>
        <time>2021-03-20T17:41:57Z</time>
      </trkpt>
      <trkpt lat="55.85863" lon="-4.63292">
        <ele>95.5</ele>
        <time>2021-03-20T17:42:00Z</time>
      </trkpt>
      <trkpt lat="55.85797" lon="-4.63211">
        <ele>102.94</ele>
        <time>2021-03-20T17:42:04Z</time>
      </trkpt>
      <trkpt lat="55.85783" lon="-4.63172">
        <ele>105.83</ele>
        <time>2021-03-20T17:42:07Z</time>
      </trkpt>
      <trkpt lat="55.85785" lon="-4.63127">
        <ele>105.19</ele>
        <time>2021-03-20T17:42:10Z</time>
      </trkpt>
      <trkpt lat="55.85783" lon="-4.63085">
        <ele>104.27</ele>
        <time>2021-03-20T17:42:14Z</time>
      </trkpt>
      <trkpt lat="55.85771" lon="-4.63045">
        <ele>104.49</ele>
        <time>2021-03-20T17:42:17Z</time>
      </trkpt>
      <trkpt lat="55.85667" lon="-4.62849">
        <ele>106.53</ele>
        <time>2021-03-20T17:42:21Z</time>
      </trkpt>
      <trkpt lat="55.85616" lon="-4.62765">
        <ele>116.61</ele>
        <time>2021-03-20T17:42:24Z</time>
      </trkpt>
      <trkpt lat="55.85568" lon="-4.62697">
        <ele>120.02</ele>
        <time>2021-03-20T17:42:28Z</time>
      </trkpt>
      <trkpt lat="55.85512" lon="-4.62635">
        <ele>134.05</ele>
        <time>2021-03-20T17:42:31Z</time>
      </trkpt>
      <trkpt lat="55.85444" lon="-4.62495">
        <ele>138.61</ele>
        <time>2021-03-20T17:42:35Z</time>
      </trkpt>
      <trkpt lat="55.85426" lon="-4.62472">
        <ele>136.3</ele>
        <time>2021-03-20T17:42:38Z</time>
      </trkpt>
      <trkpt lat="55.85414" lon="-4.62462">
        <ele>135.33</ele>
        <time>2021-03-20T17:42:41Z</time>
      </trkpt>
      <trkpt lat="55.8539" lon="-4.62467">
        <ele>136.6</ele>
        <time>2021-03-20T17:42:45Z</time>
      </trkpt>
      <trkpt lat="55.85361" lon="-4.62499">
        <ele>138.97</ele>
        <time>2021-03-20T17:42:48Z</time>
      </trkpt>
      <trkpt lat="55.85336" lon="-4.62546">
        <ele>142.27</ele>
        <time>2021-03-20T17:42:52Z</time>
      </trkpt>
      <trkpt lat="55.85305" lon="-4.62706">
        <ele>151.5</ele>
        <time>2021-03-20T17:42:55Z</time>
      </trkpt>
      <trkpt lat="55.85298" lon="-4.62721">
        <ele>152.51</ele>
        <time>2021-03-20T17:42:59Z</time>
      </trkpt>
      <trkpt lat="55.85286" lon="-4.62734">
        <ele>153.51</ele>
        <time>2021-03-20T17:43:02Z</time>
      </trkpt>
      <trkpt lat="55.85267" lon="-4.62742">
        <ele>154.1</ele>
        <time>2021-03-20T17:43:06Z</time>
      </trkpt>
      <trkpt lat="55.85207" lon="-4.62743">
        <ele>154.13</ele>
        <time>2021-03-20T17:43:09Z</time>
      </trkpt>
      <trkpt lat="55.85044" lon="-4.62764">
        <ele>153.29</ele>
        <time>2021-03-20T17:43:12Z</time>
      </trkpt>
      <trkpt lat="55.84943" lon="-4.62784">
        <ele>150.66</ele>
        <time>2021-03-20T17:43:16Z</time>
      </trkpt>
      <trkpt lat="55.84778" lon="-4.6285">
        <ele>149.62</ele>
        <time>2021-03-20T17:43:19Z</time>
      </trkpt>
      <trkpt lat="55.84744" lon="-4.62866">
        <ele>152.57</ele>
        <time>2021-03-20T17:43:23Z</time>
      </trkpt>
      <trkpt lat="55.84659" lon="-4.62955">
        <ele>156.63</ele>
        <time>2021-03-20T17:43:26Z</time>
      </trkpt>
      <trkpt lat="55.84493" lon="-4.63073">
        <ele>157.99</ele>
        <time>2021-03-20T17:43:30Z</time>
      </trkpt>
      <trkpt lat="55.84456" lon="-4.63096">
        <ele>158.46</ele>
        <time>2021-03-20T17:43:33Z</time>
      </trkpt>
      <trkpt lat="55.84342" lon="-4.6316">
        <ele>156.84</ele>
        <time>2021-03-20T17:43:37Z</time>
      </trkpt>
      <trkpt lat="55.84312" lon="-4.63171">
        <ele>156.09</ele>
        <time>2021-03-20T17:43:40Z</time>
      </trkpt>
      <trkpt lat="55.84264" lon="-4.63181">
        <ele>155.5</ele>
        <time>2021-03-20T17:43:43Z</time>
      </trkpt>
      <trkpt lat="55.8416" lon="-4.63193">
        <ele>158.35</ele>
        <time>2021-03-20T17:43:47Z</time>
      </trkpt>
      <trkpt lat="55.8413" lon="-4.63191">
        <ele>159.56</ele>
        <time>2021-03-20T17:43:50Z</time>
      </trkpt>
      <trkpt lat="55.84112" lon="-4.63181">
        <ele>160.46</ele>
        <time>2021-03-20T17:43:54Z</time>
      </trkpt>
      <trkpt lat="55.83989" lon="-4.63084">
        <ele>159</ele>
        <time>2021-03-20T17:43:57Z</time>
      </trkpt>
      <trkpt lat="55.83955" lon="-4.63064">
        <ele>159.19</ele>
        <time>2021-03-20T17:44:01Z</time>
      </trkpt>
      <trkpt lat="55.8393" lon="-4.63055">
        <ele>159.51</ele>
        <time>2021-03-20T17:44:04Z</time>
      </trkpt>
      <trkpt lat="55.83898" lon="-4.63047">
        <ele>160.37</ele>
        <time>2021-03-20T17:44:07Z</time>
      </trkpt>
      <trkpt lat="55.83765" lon="-4.63031">
        <ele>165.05</ele>
        <time>2021-03-20T17:44:11Z</time>
      </trkpt>
      <trkpt lat="55.83714" lon="-4.63031">
        <ele>168</ele>
        <time>2021-03-20T17:44:14Z</time>
      </trkpt>
      <trkpt lat="55.83364" lon="-4.62951">
        <ele>169.95</ele>
        <time>2021-03-20T17:44:18Z</time>
      </trkpt>
      <trkpt lat="55.83171" lon="-4.62865">
        <ele>175.04</ele>
        <time>2021-03-20T17:44:21Z</time>
      </trkpt>
      <trkpt lat="55.8294" lon="-4.62676">
        <ele>172.83</ele>
        <time>2021-03-20T17:44:25Z</time>
      </trkpt>
      <trkpt lat="55.82835" lon="-4.62689">
        <ele>172.24</ele>
        <time>2021-03-20T17:44:28Z</time>
      </trkpt>
      <trkpt lat="55.82678" lon="-4.62587">
        <ele>167.4</ele>
        <time>2021-03-20T17:44:32Z</time>
      </trkpt>
      <trkpt lat="55.82666" lon="-4.62584">
        <ele>166.92</ele>
        <time>2021-03-20T17:44:35Z</time>
      </trkpt>
      <trkpt lat="55.82653" lon="-4.62585">
        <ele>166.04</ele>
        <time>2021-03-20T17:44:38Z</time>
      </trkpt>
      <trkpt lat="55.8264" lon="-4.62591">
        <ele>165.07</ele>
        <time>2021-03-20T17:44:42Z</time>
      </trkpt>
      <trkpt lat="55.82585" lon="-4.62629">
        <ele>164.71</ele>
        <time>2021-03-20T17:44:45Z</time>
      </trkpt>
      <trkpt lat="55.8252" lon="-4.62658">
        <ele>165.69</ele>
        <time>2021-03-20T17:44:49Z</time>
      </trkpt>
      <trkpt lat="55.82467" lon="-4.62676">
        <ele>166.16</ele>
        <time>2021-03-20T17:44:52Z</time>
      </trkpt>
      <trkpt lat="55.82409" lon="-4.62691">
        <ele>164.62</ele>
        <time>2021-03-20T17:44:56Z</time>
      </trkpt>
      <trkpt lat="55.8237" lon="-4.62691">
        <ele>162.55</ele>
        <time>2021-03-20T17:44:59Z</time>
      </trkpt>
      <trkpt lat="55.82355" lon="-4.62698">
        <ele>161.93</ele>
        <time>2021-03-20T17:45:03Z</time>
      </trkpt>
      <trkpt lat="55.82241" lon="-4.62827">
        <ele>163</ele>
        <time>2021-03-20T17:45:06Z</time>
      </trkpt>
      <trkpt lat="55.82143" lon="-4.62911">
        <ele>164.79</ele>
        <time>2021-03-20T17:45:09Z</time>
      </trkpt>
      <trkpt lat="55.8211" lon="-4.6293">
        <ele>163.93</ele>
        <time>2021-03-20T17:45:13Z</time>
      </trkpt>
      <trkpt lat="55.82084" lon="-4.62936">
        <ele>162.05</ele>
        <time>2021-03-20T17:45:16Z</time>
      </trkpt>
      <trkpt lat="55.82044" lon="-4.62936">
        <ele>158.04</ele>
        <time>2021-03-20T17:45:20Z</time>
      </trkpt>
      <trkpt lat="55.82001" lon="-4.62928">
        <ele>156.18</ele>
        <time>2021-03-20T17:45:23Z</time>
      </trkpt>
      <trkpt lat="55.81959" lon="-4.62912">
        <ele>154.28</ele>
        <time>2021-03-20T17:45:27Z</time>
      </trkpt>
      <trkpt lat="55.81922" lon="-4.62893">
        <ele>150.62</ele>
        <time>2021-03-20T17:45:30Z</time>
      </trkpt>
      <trkpt lat="55.81892" lon="-4.62867">
        <ele>148.93</ele>
        <time>2021-03-20T17:45:34Z</time>
      </trkpt>
      <trkpt lat="55.8187" lon="-4.62838">
        <ele>148.61</ele>
        <time>2021-03-20T17:45:37Z</time>
      </trkpt>
      <trkpt lat="55.81838" lon="-4.62788">
        <ele>147.14</ele>
        <time>2021-03-20T17:45:40Z</time>
      </trkpt>
      <trkpt lat="55.81761" lon="-4.62737">
        <ele>136.62</ele>
        <time>2021-03-20T17:45:44Z</time>
      </trkpt>
      <trkpt lat="55.81623" lon="-4.62642">
        <ele>128.11</ele>
        <time>2021-03-20T17:45:47Z</time>
      </trkpt>
      <trkpt lat="55.81428" lon="-4.62491">
        <ele>122.21</ele>
        <time>2021-03-20T17:45:51Z</time>
      </trkpt>
      <trkpt lat="55.81398" lon="-4.6247">
        <ele>123.71</ele>
        <time>2021-03-20T17:45:54Z</time>
      </trkpt>
      <trkpt lat="55.81363" lon="-4.62502">
        <ele>123</ele>
        <time>2021-03-20T17:45:58Z</time>
      </trkpt>
      <trkpt lat="55.8134" lon="-4.62551">
        <ele>118.74</ele>
        <time>2021-03-20T17:46:01Z</time>
      </trkpt>
      <trkpt lat="55.81225" lon="-4.62669">
        <ele>112.2</ele>
        <time>2021-03-20T17:46:04Z</time>
      </trkpt>
      <trkpt lat="55.81114" lon="-4.62738">
        <ele>108.06</ele>
        <time>2021-03-20T17:46:08Z</time>
      </trkpt>
      <trkpt lat="55.8105" lon="-4.62745">
        <ele>106.81</ele>
        <time>2021-03-20T17:46:11Z</time>
      </trkpt>
      <trkpt lat="55.80999" lon="-4.62722">
        <ele>105</ele>
        <time>2021-03-20T17:46:15Z</time>
      </trkpt>
      <trkpt lat="55.80982" lon="-4.62696">
        <ele>105</ele>
        <time>2021-03-20T17:46:18Z</time>
      </trkpt>
      <trkpt lat="55.80934" lon="-4.6267">
        <ele>105.13</ele>
        <time>2021-03-20T17:46:22Z</time>
      </trkpt>
      <trkpt lat="55.80862" lon="-4.62676">
        <ele>106.01</ele>
        <time>2021-03-20T17:46:25Z</time>
      </trkpt>
      <trkpt lat="55.80771" lon="-4.62693">
        <ele>97.2</ele>
        <time>2021-03-20T17:46:29Z</time>
      </trkpt>
      <trkpt lat="55.80666" lon="-4.62775">
        <ele>91</ele>
        <time>2021-03-20T17:46:32Z</time>
      </trkpt>
      <trkpt lat="55.80648" lon="-4.62768">
        <ele>91</ele>
        <time>2021-03-20T17:46:34Z</time>
      </trkpt>
      <trkpt lat="55.80621" lon="-4.62722">
        <ele>90</ele>
        <time>2021-03-20T17:46:35Z</time>
      </trkpt>
      <trkpt lat="55.80601" lon="-4.62759">
        <ele>92.05</ele>
        <time>2021-03-20T17:46:40Z</time>
      </trkpt>
      <trkpt lat="55.80584" lon="-4.6277">
        <ele>93.65</ele>
        <time>2021-03-20T17:46:45Z</time>
      </trkpt>
      <trkpt lat="55.80581" lon="-4.62779">
        <ele>93.88</ele>
        <time>2021-03-20T17:46:50Z</time>
      </trkpt>
      <trkpt lat="55.80585" lon="-4.62819">
        <ele>94.9</ele>
        <time>2021-03-20T17:46:54Z</time>
      </trkpt>
      <trkpt lat="55.80569" lon="-4.62867">
        <ele>92.88</ele>
        <time>2021-03-20T17:46:59Z</time>
      </trkpt>
      <trkpt lat="55.8056" lon="-4.62886">
        <ele>92.17</ele>
        <time>2021-03-20T17:47:04Z</time>
      </trkpt>
      <trkpt lat="55.80521" lon="-4.62925">
        <ele>90.08</ele>
        <time>2021-03-20T17:47:09Z</time>
      </trkpt>
      <trkpt lat="55.80512" lon="-4.62944">
        <ele>90.55</ele>
        <time>2021-03-20T17:47:14Z</time>
      </trkpt>
      <trkpt lat="55.80447" lon="-4.63002">
        <ele>90.75</ele>
        <time>2021-03-20T17:47:19Z</time>
      </trkpt>
      <trkpt lat="55.80397" lon="-4.63092">
        <ele>83.51</ele>
        <time>2021-03-20T17:47:23Z</time>
      </trkpt>
      <trkpt lat="55.80362" lon="-4.63187">
        <ele>75.85</ele>
        <time>2021-03-20T17:47:28Z</time>
      </trkpt>
      <trkpt lat="55.80345" lon="-4.6322">
        <ele>73.92</ele>
        <time>2021-03-20T17:47:33Z</time>
      </trkpt>
      <trkpt lat="55.80334" lon="-4.63259">
        <ele>72.59</ele>
        <time>2021-03-20T17:47:38Z</time>
      </trkpt>
      <trkpt lat="55.80316" lon="-4.63294">
        <ele>71.55</ele>
        <time>2021-03-20T17:47:43Z</time>
      </trkpt>
      <trkpt lat="55.80277" lon="-4.63354">
        <ele>70.55</ele>
        <time>2021-03-20T17:47:48Z</time>
      </trkpt>
      <trkpt lat="55.80236" lon="-4.63394">
        <ele>70.47</ele>
        <time>2021-03-20T17:47:53Z</time>
      </trkpt>
      <trkpt lat="55.80136" lon="-4.63515">
        <ele>61.14</ele>
        <time>2021-03-20T17:47:57Z</time>
      </trkpt>
      <trkpt lat="55.80105" lon="-4.63556">
        <ele>54.54</ele>
        <time>2021-03-20T17:48:02Z</time>
      </trkpt>
      <trkpt lat="55.80076" lon="-4.63544">
        <ele>54.54</ele>
        <time>2021-03-20T17:48:07Z</time>
      </trkpt>
      <trkpt lat="55.80055" lon="-4.63549">
        <ele>54.78</ele>
        <time>2021-03-20T17:48:12Z</time>
      </trkpt>
      <trkpt lat="55.8003" lon="-4.63565">
        <ele>55.12</ele>
        <time>2021-03-20T17:48:17Z</time>
      </trkpt>
      <trkpt lat="55.79905" lon="-4.63544">
        <ele>47.78</ele>
        <time>2021-03-20T17:48:22Z</time>
      </trkpt>
      <trkpt lat="55.79893" lon="-4.63647">
        <ele>45.6</ele>
        <time>2021-03-20T17:48:28Z</time>
      </trkpt>
      <trkpt lat="55.79737" lon="-4.6362">
        <ele>38.48</ele>
        <time>2021-03-20T17:48:37Z</time>
      </trkpt>
      <trkpt lat="55.79593" lon="-4.6374">
        <ele>37</ele>
        <time>2021-03-20T17:48:46Z</time>
      </trkpt>
      <trkpt lat="55.79576" lon="-4.63766">
        <ele>37</ele>
        <time>2021-03-20T17:48:54Z</time>
      </trkpt>
      <trkpt lat="55.79526" lon="-4.63723">
        <ele>36.94</ele>
        <time>2021-03-20T17:49:03Z</time>
      </trkpt>
      <trkpt lat="55.795" lon="-4.63716">
        <ele>35.98</ele>
        <time>2021-03-20T17:49:11Z</time>
      </trkpt>
      <trkpt lat="55.79398" lon="-4.63699">
        <ele>36.67</ele>
        <time>2021-03-20T17:49:20Z</time>
      </trkpt>
      <trkpt lat="55.79372" lon="-4.63668">
        <ele>37.94</ele>
        <time>2021-03-20T17:49:28Z</time>
      </trkpt>
      <trkpt lat="55.79344" lon="-4.6362">
        <ele>35.68</ele>
        <time>2021-03-20T17:49:37Z</time>
      </trkpt>
      <trkpt lat="55.79267" lon="-4.63615">
        <ele>38.55</ele>
        <time>2021-03-20T17:49:46Z</time>
      </trkpt>
      <trkpt lat="55.79265" lon="-4.63629">
        <ele>39.42</ele>
        <time>2021-03-20T17:49:49Z</time>
      </trkpt>
      <trkpt lat="55.79259" lon="-4.63651">
        <ele>41.32</ele>
        <time>2021-03-20T17:49:53Z</time>
      </trkpt>
      <trkpt lat="55.79226" lon="-4.63732">
        <ele>41.65</ele>
        <time>2021-03-20T17:49:56Z</time>
      </trkpt>
      <trkpt lat="55.79217" lon="-4.6376">
        <ele>41.39</ele>
        <time>2021-03-20T17:49:59Z</time>
      </trkpt>
      <trkpt lat="55.79202" lon="-4.63794">
        <ele>41.64</ele>
        <time>2021-03-20T17:50:03Z</time>
      </trkpt>
      <trkpt lat="55.79179" lon="-4.63837">
        <ele>43.6</ele>
        <time>2021-03-20T17:50:06Z</time>
      </trkpt>
      <trkpt lat="55.79162" lon="-4.63859">
        <ele>44.56</ele>
        <time>2021-03-20T17:50:10Z</time>
      </trkpt>
      <trkpt lat="55.79146" lon="-4.63874">
        <ele>46.26</ele>
        <time>2021-03-20T17:50:13Z</time>
      </trkpt>
      <trkpt lat="55.79071" lon="-4.63917">
        <ele>52</ele>
        <time>2021-03-20T17:50:17Z</time>
      </trkpt>
      <trkpt lat="55.79043" lon="-4.63928">
        <ele>52.45</ele>
        <time>2021-03-20T17:50:20Z</time>
      </trkpt>
      <trkpt lat="55.78973" lon="-4.63926">
        <ele>52.69</ele>
        <time>2021-03-20T17:50:23Z</time>
      </trkpt>
      <trkpt lat="55.78934" lon="-4.63932">
        <ele>51.05</ele>
        <time>2021-03-20T17:50:27Z</time>
      </trkpt>
      <trkpt lat="55.78833" lon="-4.63964">
        <ele>50.28</ele>
        <time>2021-03-20T17:50:30Z</time>
      </trkpt>
      <trkpt lat="55.78639" lon="-4.64098">
        <ele>48</ele>
        <time>2021-03-20T17:50:34Z</time>
      </trkpt>
      <trkpt lat="55.78572" lon="-4.64153">
        <ele>47</ele>
        <time>2021-03-20T17:50:37Z</time>
      </trkpt>
      <trkpt lat="55.78495" lon="-4.64205">
        <ele>48.17</ele>
        <time>2021-03-20T17:50:41Z</time>
      </trkpt>
      <trkpt lat="55.7848" lon="-4.64218">
        <ele>48.72</ele>
        <time>2021-03-20T17:50:44Z</time>
      </trkpt>
      <trkpt lat="55.78469" lon="-4.6423">
        <ele>48.6</ele>
        <time>2021-03-20T17:50:47Z</time>
      </trkpt>
      <trkpt lat="55.78446" lon="-4.64272">
        <ele>47.01</ele>
        <time>2021-03-20T17:50:51Z</time>
      </trkpt>
      <trkpt lat="55.78434" lon="-4.64285">
        <ele>47.28</ele>
        <time>2021-03-20T17:50:54Z</time>
      </trkpt>
      <trkpt lat="55.7842" lon="-4.64292">
        <ele>47.5</ele>
        <time>2021-03-20T17:50:58Z</time>
      </trkpt>
      <trkpt lat="55.78389" lon="-4.64288">
        <ele>47.01</ele>
        <time>2021-03-20T17:51:01Z</time>
      </trkpt>
      <trkpt lat="55.78365" lon="-4.64294">
        <ele>47</ele>
        <time>2021-03-20T17:51:05Z</time>
      </trkpt>
      <trkpt lat="55.78336" lon="-4.6431">
        <ele>46.09</ele>
        <time>2021-03-20T17:51:08Z</time>
      </trkpt>
      <trkpt lat="55.78307" lon="-4.6433">
        <ele>45.06</ele>
        <time>2021-03-20T17:51:12Z</time>
      </trkpt>
      <trkpt lat="55.78236" lon="-4.64392">
        <ele>42.66</ele>
        <time>2021-03-20T17:51:15Z</time>
      </trkpt>
      <trkpt lat="55.78177" lon="-4.64448">
        <ele>42.28</ele>
        <time>2021-03-20T17:51:18Z</time>
      </trkpt>
      <trkpt lat="55.78138" lon="-4.64493">
        <ele>44</ele>
        <time>2021-03-20T17:51:22Z</time>
      </trkpt>
      <trkpt lat="55.78088" lon="-4.64563">
        <ele>44.48</ele>
        <time>2021-03-20T17:51:25Z</time>
      </trkpt>
      <trkpt lat="55.78077" lon="-4.6458">
        <ele>46.21</ele>
        <time>2021-03-20T17:51:29Z</time>
      </trkpt>
      <trkpt lat="55.78019" lon="-4.64695">
        <ele>51.67</ele>
        <time>2021-03-20T17:51:32Z</time>
      </trkpt>
      <trkpt lat="55.77965" lon="-4.64834">
        <ele>50.81</ele>
        <time>2021-03-20T17:51:36Z</time>
      </trkpt>
      <trkpt lat="55.77918" lon="-4.6495">
        <ele>55.47</ele>
        <time>2021-03-20T17:51:39Z</time>
      </trkpt>
      <trkpt lat="55.77888" lon="-4.65015">
        <ele>57.56</ele>
        <time>2021-03-20T17:51:42Z</time>
      </trkpt>
      <trkpt lat="55.77864" lon="-4.65045">
        <ele>59.5</ele>
        <time>2021-03-20T17:51:46Z</time>
      </trkpt>
      <trkpt lat="55.77822" lon="-4.65079">
        <ele>64.84</ele>
        <time>2021-03-20T17:51:49Z</time>
      </trkpt>
      <trkpt lat="55.77801" lon="-4.65105">
        <ele>66</ele>
        <time>2021-03-20T17:51:53Z</time>
      </trkpt>
      <trkpt lat="55.77739" lon="-4.65212">
        <ele>67.39</ele>
        <time>2021-03-20T17:51:56Z</time>
      </trkpt>
      <trkpt lat="55.77714" lon="-4.65247">
        <ele>67.11</ele>
        <time>2021-03-20T17:52:00Z</time>
      </trkpt>
      <trkpt lat="55.77688" lon="-4.65274">
        <ele>66.14</ele>
        <time>2021-03-20T17:52:03Z</time>
      </trkpt>
      <trkpt lat="55.7763" lon="-4.65315">
        <ele>64</ele>
        <time>2021-03-20T17:52:06Z</time>
      </trkpt>
      <trkpt lat="55.77518" lon="-4.65383">
        <ele>64.36</ele>
        <time>2021-03-20T17:52:10Z</time>
      </trkpt>
      <trkpt lat="55.77323" lon="-4.65468">
        <ele>61.69</ele>
        <time>2021-03-20T17:52:13Z</time>
      </trkpt>
      <trkpt lat="55.77288" lon="-4.65501">
        <ele>59.97</ele>
        <time>2021-03-20T17:52:17Z</time>
      </trkpt>
      <trkpt lat="55.7716" lon="-4.65611">
        <ele>60</ele>
        <time>2021-03-20T17:52:20Z</time>
      </trkpt>
      <trkpt lat="55.76977" lon="-4.65851">
        <ele>56.63</ele>
        <time>2021-03-20T17:52:24Z</time>
      </trkpt>
      <trkpt lat="55.76776" lon="-4.6592">
        <ele>44.93</ele>
        <time>2021-03-20T17:52:27Z</time>
      </trkpt>
      <trkpt lat="55.76678" lon="-4.6556">
        <ele>41.35</ele>
        <time>2021-03-20T17:52:34Z</time>
      </trkpt>
      <trkpt lat="55.76402" lon="-4.65304">
        <ele>33</ele>
        <time>2021-03-20T17:52:40Z</time>
      </trkpt>
      <trkpt lat="55.76327" lon="-4.65137">
        <ele>32.29</ele>
        <time>2021-03-20T17:52:47Z</time>
      </trkpt>
      <trkpt lat="55.76243" lon="-4.64865">
        <ele>32.24</ele>
        <time>2021-03-20T17:52:53Z</time>
      </trkpt>
      <trkpt lat="55.76225" lon="-4.6483">
        <ele>31.99</ele>
        <time>2021-03-20T17:53:00Z</time>
      </trkpt>
      <trkpt lat="55.76199" lon="-4.64828">
        <ele>34.73</ele>
        <time>2021-03-20T17:53:06Z</time>
      </trkpt>
      <trkpt lat="55.76108" lon="-4.64901">
        <ele>35.13</ele>
        <time>2021-03-20T17:53:13Z</time>
      </trkpt>
      <trkpt lat="55.76103" lon="-4.64903">
        <ele>34.98</ele>
        <time>2021-03-20T17:53:20Z</time>
      </trkpt>
      <trkpt lat="55.76098" lon="-4.649">
        <ele>35.22</ele>
        <time>2021-03-20T17:53:26Z</time>
      </trkpt>
      <trkpt lat="55.76089" lon="-4.64866">
        <ele>37.44</ele>
        <time>2021-03-20T17:53:33Z</time>
      </trkpt>
      <trkpt lat="55.7609" lon="-4.64856">
        <ele>38.27</ele>
        <time>2021-03-20T17:53:39Z</time>
      </trkpt>
      <trkpt lat="55.76093" lon="-4.64848">
        <ele>38.88</ele>
        <time>2021-03-20T17:53:46Z</time>
      </trkpt>
      <trkpt lat="55.76172" lon="-4.64772">
        <ele>40.97</ele>
        <time>2021-03-20T17:53:52Z</time>
      </trkpt>
      <trkpt lat="55.76181" lon="-4.64734">
        <ele>43.76</ele>
        <time>2021-03-20T17:53:59Z</time>
      </trkpt>
      <trkpt lat="55.76175" lon="-4.64693">
        <ele>46.92</ele>
        <time>2021-03-20T17:54:05Z</time>
      </trkpt>
      <trkpt lat="55.76135" lon="-4.64607">
        <ele>54.15</ele>
        <time>2021-03-20T17:54:12Z</time>
      </trkpt>
      <trkpt lat="55.76112" lon="-4.64538">
        <ele>54.99</ele>
        <time>2021-03-20T17:54:18Z</time>
      </trkpt>
      <trkpt lat="55.76017" lon="-4.64161">
        <ele>54.1</ele>
        <time>2021-03-20T17:54:25Z</time>
      </trkpt>
      <trkpt lat="55.75957" lon="-4.63965">
        <ele>61.57</ele>
        <time>2021-03-20T17:54:32Z</time>
      </trkpt>
      <trkpt lat="55.75938" lon="-4.63932">
        <ele>60.78</ele>
        <time>2021-03-20T17:54:38Z</time>
      </trkpt>
      <trkpt lat="55.75909" lon="-4.6392">
        <ele>59.74</ele>
        <time>2021-03-20T17:54:45Z</time>
      </trkpt>
      <trkpt lat="55.75832" lon="-4.6395">
        <ele>57.99</ele>
        <time>2021-03-20T17:54:51Z</time>
      </trkpt>
      <trkpt lat="55.75799" lon="-4.6394">
        <ele>58</ele>
        <time>2021-03-20T17:54:58Z</time>
      </trkpt>
      <trkpt lat="55.75752" lon="-4.6384">
        <ele>59.74</ele>
        <time>2021-03-20T17:55:04Z</time>
      </trkpt>
      <trkpt lat="55.75692" lon="-4.63806">
        <ele>62.9</ele>
        <time>2021-03-20T17:55:11Z</time>
      </trkpt>
      <trkpt lat="55.75649" lon="-4.63741">
        <ele>65.68</ele>
        <time>2021-03-20T17:55:17Z</time>
      </trkpt>
      <trkpt lat="55.75599" lon="-4.63722">
        <ele>69.35</ele>
        <time>2021-03-20T17:55:24Z</time>
      </trkpt>
      <trkpt lat="55.75333" lon="-4.63456">
        <ele>82.14</ele>
        <time>2021-03-20T17:55:31Z</time>
      </trkpt>
      <trkpt lat="55.75277" lon="-4.63383">
        <ele>83.18</ele>
        <time>2021-03-20T17:55:37Z</time>
      </trkpt>
      <trkpt lat="55.75247" lon="-4.63307">
        <ele>84.96</ele>
        <time>2021-03-20T17:55:44Z</time>
      </trkpt>
      <trkpt lat="55.75236" lon="-4.63321">
        <ele>84.44</ele>
        <time>2021-03-20T17:55:45Z</time>
      </trkpt>
      <trkpt lat="55.7522" lon="-4.63332">
        <ele>84.14</ele>
        <time>2021-03-20T17:55:47Z</time>
      </trkpt>
      <trkpt lat="55.75207" lon="-4.63334">
        <ele>84.54</ele>
        <time>2021-03-20T17:55:49Z</time>
      </trkpt>
      <trkpt lat="55.7519" lon="-4.6333">
        <ele>85.11</ele>
        <time>2021-03-20T17:55:51Z</time>
      </trkpt>
      <trkpt lat="55.75172" lon="-4.63318">
        <ele>85.56</ele>
        <time>2021-03-20T17:55:53Z</time>
      </trkpt>
      <trkpt lat="55.75143" lon="-4.63286">
        <ele>87.29</ele>
        <time>2021-03-20T17:55:55Z</time>
      </trkpt>
      <trkpt lat="55.75112" lon="-4.63264">
        <ele>91.39</ele>
        <time>2021-03-20T17:55:57Z</time>
      </trkpt>
      <trkpt lat="55.75091" lon="-4.63251">
        <ele>92.69</ele>
        <time>2021-03-20T17:55:58Z</time>
      </trkpt>
      <trkpt lat="55.7508" lon="-4.6325">
        <ele>92.99</ele>
        <time>2021-03-20T17:56:00Z</time>
      </trkpt>
      <trkpt lat="55.75071" lon="-4.63254">
        <ele>92.87</ele>
        <time>2021-03-20T17:56:02Z</time>
      </trkpt>
      <trkpt lat="55.7506" lon="-4.63262">
        <ele>92.57</ele>
        <time>2021-03-20T17:56:04Z</time>
      </trkpt>
      <trkpt lat="55.75044" lon="-4.63284">
        <ele>91.63</ele>
        <time>2021-03-20T17:56:06Z</time>
      </trkpt>
      <trkpt lat="55.75034" lon="-4.63312">
        <ele>90.75</ele>
        <time>2021-03-20T17:56:08Z</time>
      </trkpt>
      <trkpt lat="55.75029" lon="-4.63328">
        <ele>90.93</ele>
        <time>2021-03-20T17:56:09Z</time>
      </trkpt>
      <trkpt lat="55.75003" lon="-4.63307">
        <ele>94.54</ele>
        <time>2021-03-20T17:56:14Z</time>
      </trkpt>
      <trkpt lat="55.74991" lon="-4.63283">
        <ele>96.58</ele>
        <time>2021-03-20T17:56:19Z</time>
      </trkpt>
      <trkpt lat="55.74983" lon="-4.63274">
        <ele>98.13</ele>
        <time>2021-03-20T17:56:24Z</time>
      </trkpt>
      <trkpt lat="55.74903" lon="-4.63234">
        <ele>104.86</ele>
        <time>2021-03-20T17:56:29Z</time>
      </trkpt>
      <trkpt lat="55.74897" lon="-4.63225">
        <ele>105.6</ele>
        <time>2021-03-20T17:56:33Z</time>
      </trkpt>
      <trkpt lat="55.74875" lon="-4.63163">
        <ele>108</ele>
        <time>2021-03-20T17:56:38Z</time>
      </trkpt>
      <trkpt lat="55.74847" lon="-4.63074">
        <ele>108.34</ele>
        <time>2021-03-20T17:56:43Z</time>
      </trkpt>
      <trkpt lat="55.7483" lon="-4.63054">
        <ele>108.14</ele>
        <time>2021-03-20T17:56:48Z</time>
      </trkpt>
      <trkpt lat="55.74806" lon="-4.63033">
        <ele>108.98</ele>
        <time>2021-03-20T17:56:52Z</time>
      </trkpt>
      <trkpt lat="55.74646" lon="-4.62921">
        <ele>104.03</ele>
        <time>2021-03-20T17:56:57Z</time>
      </trkpt>
      <trkpt lat="55.74633" lon="-4.62948">
        <ele>104</ele>
        <time>2021-03-20T17:56:59Z</time>
      </trkpt>
      <trkpt lat="55.74622" lon="-4.62936">
        <ele>103.81</ele>
        <time>2021-03-20T17:57:04Z</time>
      </trkpt>
      <trkpt lat="55.74584" lon="-4.62933">
        <ele>102.01</ele>
        <time>2021-03-20T17:57:08Z</time>
      </trkpt>
      <trkpt lat="55.74564" lon="-4.62925">
        <ele>100.59</ele>
        <time>2021-03-20T17:57:13Z</time>
      </trkpt>
      <trkpt lat="55.74545" lon="-4.62906">
        <ele>99.6</ele>
        <time>2021-03-20T17:57:18Z</time>
      </trkpt>
      <trkpt lat="55.74529" lon="-4.62878">
        <ele>99.05</ele>
        <time>2021-03-20T17:57:23Z</time>
      </trkpt>
      <trkpt lat="55.74485" lon="-4.62767">
        <ele>95.21</ele>
        <time>2021-03-20T17:57:27Z</time>
      </trkpt>
      <trkpt lat="55.74454" lon="-4.62712">
        <ele>96.47</ele>
        <time>2021-03-20T17:57:32Z</time>
      </trkpt>
      <trkpt lat="55.74426" lon="-4.62673">
        <ele>95.6</ele>
        <time>2021-03-20T17:57:37Z</time>
      </trkpt>
      <trkpt lat="55.74403" lon="-4.62645">
        <ele>97.57</ele>
        <time>2021-03-20T17:57:42Z</time>
      </trkpt>
      <trkpt lat="55.74369" lon="-4.62615">
        <ele>100.99</ele>
        <time>2021-03-20T17:57:46Z</time>
      </trkpt>
      <trkpt lat="55.74344" lon="-4.62597">
        <ele>99.71</ele>
        <time>2021-03-20T17:57:51Z</time>
      </trkpt>
      <trkpt lat="55.74288" lon="-4.62566">
        <ele>96.62</ele>
        <time>2021-03-20T17:57:56Z</time>
      </trkpt>
      <trkpt lat="55.7426" lon="-4.62555">
        <ele>95.67</ele>
        <time>2021-03-20T17:58:01Z</time>
      </trkpt>
      <trkpt lat="55.74225" lon="-4.62548">
        <ele>93.19</ele>
        <time>2021-03-20T17:58:05Z</time>
      </trkpt>
      <trkpt lat="55.74205" lon="-4.62552">
        <ele>92.39</ele>
        <time>2021-03-20T17:58:10Z</time>
      </trkpt>
      <trkpt lat="55.74097" lon="-4.62593">
        <ele>87.99</ele>
        <time>2021-03-20T17:58:15Z</time>
      </trkpt>
      <trkpt lat="55.74066" lon="-4.62591">
        <ele>86.37</ele>
        <time>2021-03-20T17:58:20Z</time>
      </trkpt>
      <trkpt lat="55.74029" lon="-4.62565">
        <ele>86.33</ele>
        <time>2021-03-20T17:58:25Z</time>
      </trkpt>
      <trkpt lat="55.73974" lon="-4.62499">
        <ele>84.08</ele>
        <time>2021-03-20T17:58:29Z</time>
      </trkpt>
      <trkpt lat="55.73935" lon="-4.62428">
        <ele>89.9</ele>
        <time>2021-03-20T17:58:34Z</time>
      </trkpt>
      <trkpt lat="55.73812" lon="-4.62064">
        <ele>106.23</ele>
        <time>2021-03-20T17:58:39Z</time>
      </trkpt>
      <trkpt lat="55.7379" lon="-4.62048">
        <ele>107.55</ele>
        <time>2021-03-20T17:58:44Z</time>
      </trkpt>
      <trkpt lat="55.73757" lon="-4.62034">
        <ele>108</ele>
        <time>2021-03-20T17:58:48Z</time>
      </trkpt>
      <trkpt lat="55.73653" lon="-4.61827">
        <ele>105.51</ele>
        <time>2021-03-20T17:58:53Z</time>
      </trkpt>
      <trkpt lat="55.73615" lon="-4.61762">
        <ele>105.15</ele>
        <time>2021-03-20T17:58:58Z</time>
      </trkpt>
      <trkpt lat="55.73582" lon="-4.61744">
        <ele>105.2</ele>
        <time>2021-03-20T17:59:03Z</time>
      </trkpt>
      <trkpt lat="55.73541" lon="-4.61689">
        <ele>105.49</ele>
        <time>2021-03-20T17:59:07Z</time>
      </trkpt>
      <trkpt lat="55.73479" lon="-4.61666">
        <ele>102.98</ele>
        <time>2021-03-20T17:59:12Z</time>
      </trkpt>
      <trkpt lat="55.73392" lon="-4.61503">
        <ele>99.79</ele>
        <time>2021-03-20T17:59:17Z</time>
      </trkpt>
      <trkpt lat="55.73311" lon="-4.61273">
        <ele>103</ele>
        <time>2021-03-20T17:59:22Z</time>
      </trkpt>
      <trkpt lat="55.73233" lon="-4.61032">
        <ele>102.6</ele>
        <time>2021-03-20T17:59:26Z</time>
      </trkpt>
      <trkpt lat="55.73167" lon="-4.60834">
        <ele>101</ele>
        <time>2021-03-20T17:59:31Z</time>
      </trkpt>
      <trkpt lat="55.73116" lon="-4.60665">
        <ele>100.82</ele>
        <time>2021-03-20T17:59:36Z</time>
      </trkpt>
      <trkpt lat="55.72957" lon="-4.60372">
        <ele>100.53</ele>
        <time>2021-03-20T17:59:41Z</time>
      </trkpt>
      <trkpt lat="55.72907" lon="-4.60283">
        <ele>99.19</ele>
        <time>2021-03-20T17:59:46Z</time>
      </trkpt>
      <trkpt lat="55.72894" lon="-4.60242">
        <ele>99</ele>
        <time>2021-03-20T17:59:50Z</time>
      </trkpt>
      <trkpt lat="55.72897" lon="-4.60206">
        <ele>99</ele>
        <time>2021-03-20T17:59:55Z</time>
      </trkpt>
      <trkpt lat="55.72912" lon="-4.6015">
        <ele>99.84</ele>
        <time>2021-03-20T18:00:00Z</time>
      </trkpt>
      <trkpt lat="55.72818" lon="-4.59942">
        <ele>89.24</ele>
        <time>2021-03-20T18:00:04Z</time>
      </trkpt>
      <trkpt lat="55.72813" lon="-4.59903">
        <ele>87.56</ele>
        <time>2021-03-20T18:00:08Z</time>
      </trkpt>
      <trkpt lat="55.72819" lon="-4.59769">
        <ele>86.1</ele>
        <time>2021-03-20T18:00:12Z</time>
      </trkpt>
      <trkpt lat="55.72817" lon="-4.59756">
        <ele>86.26</ele>
        <time>2021-03-20T18:00:16Z</time>
      </trkpt>
      <trkpt lat="55.72806" lon="-4.59732">
        <ele>86.65</ele>
        <time>2021-03-20T18:00:20Z</time>
      </trkpt>
      <trkpt lat="55.72768" lon="-4.59695">
        <ele>89.96</ele>
        <time>2021-03-20T18:00:24Z</time>
      </trkpt>
      <trkpt lat="55.72731" lon="-4.59642">
        <ele>93.31</ele>
        <time>2021-03-20T18:00:28Z</time>
      </trkpt>
      <trkpt lat="55.72678" lon="-4.59487">
        <ele>103.82</ele>
        <time>2021-03-20T18:00:32Z</time>
      </trkpt>
      <trkpt lat="55.72605" lon="-4.59316">
        <ele>105</ele>
        <time>2021-03-20T18:00:36Z</time>
      </trkpt>
      <trkpt lat="55.72482" lon="-4.59215">
        <ele>110.9</ele>
        <time>2021-03-20T18:00:40Z</time>
      </trkpt>
      <trkpt lat="55.72393" lon="-4.59021">
        <ele>121.93</ele>
        <time>2021-03-20T18:00:44Z</time>
      </trkpt>
      <trkpt lat="55.7237" lon="-4.5894">
        <ele>122.76</ele>
        <time>2021-03-20T18:00:48Z</time>
      </trkpt>
      <trkpt lat="55.72368" lon="-4.58914">
        <ele>121.58</ele>
        <time>2021-03-20T18:00:52Z</time>
      </trkpt>
      <trkpt lat="55.72347" lon="-4.58824">
        <ele>115.17</ele>
        <time>2021-03-20T18:00:56Z</time>
      </trkpt>
      <trkpt lat="55.72311" lon="-4.58713">
        <ele>112.13</ele>
        <time>2021-03-20T18:01:00Z</time>
      </trkpt>
      <trkpt lat="55.72216" lon="-4.58549">
        <ele>118.54</ele>
        <time>2021-03-20T18:01:05Z</time>
      </trkpt>
      <trkpt lat="55.72197" lon="-4.58372">
        <ele>112.89</ele>
        <time>2021-03-20T18:01:09Z</time>
      </trkpt>
      <trkpt lat="55.72175" lon="-4.58258">
        <ele>108.55</ele>
        <time>2021-03-20T18:01:13Z</time>
      </trkpt>
      <trkpt lat="55.72065" lon="-4.57816">
        <ele>90.64</ele>
        <time>2021-03-20T18:01:17Z</time>
      </trkpt>
      <trkpt lat="55.72061" lon="-4.57776">
        <ele>90.05</ele>
        <time>2021-03-20T18:01:21Z</time>
      </trkpt>
      <trkpt lat="55.72056" lon="-4.57717">
        <ele>92.17</ele>
        <time>2021-03-20T18:01:25Z</time>
      </trkpt>
      <trkpt lat="55.7205" lon="-4.57674">
        <ele>93.92</ele>
        <time>2021-03-20T18:01:29Z</time>
      </trkpt>
      <trkpt lat="55.71933" lon="-4.57392">
        <ele>91</ele>
        <time>2021-03-20T18:01:33Z</time>
      </trkpt>
      <trkpt lat="55.71801" lon="-4.57543">
        <ele>89</ele>
        <time>2021-03-20T18:01:42Z</time>
      </trkpt>
      <trkpt lat="55.71712" lon="-4.57653">
        <ele>87.23</ele>
        <time>2021-03-20T18:01:51Z</time>
      </trkpt>
      <trkpt lat="55.71589" lon="-4.57796">
        <ele>83.2</ele>
        <time>2021-03-20T18:02:00Z</time>
      </trkpt>
      <trkpt lat="55.71168" lon="-4.58302">
        <ele>86.83</ele>
        <time>2021-03-20T18:02:09Z</time>
      </trkpt>
      <trkpt lat="55.71122" lon="-4.58354">
        <ele>85.54</ele>
        <time>2021-03-20T18:02:17Z</time>
      </trkpt>
      <trkpt lat="55.71015" lon="-4.5844">
        <ele>87.46</ele>
        <time>2021-03-20T18:02:26Z</time>
      </trkpt>
      <trkpt lat="55.70907" lon="-4.58509">
        <ele>88.89</ele>
        <time>2021-03-20T18:02:35Z</time>
      </trkpt>
      <trkpt lat="55.70795" lon="-4.58589">
        <ele>89.39</ele>
        <time>2021-03-20T18:02:44Z</time>
      </trkpt>
      <trkpt lat="55.70688" lon="-4.58671">
        <ele>91.67</ele>
        <time>2021-03-20T18:02:53Z</time>
      </trkpt>
      <trkpt lat="55.69972" lon="-4.5937">
        <ele>91.29</ele>
        <time>2021-03-20T18:03:02Z</time>
      </trkpt>
      <trkpt lat="55.69873" lon="-4.59481">
        <ele>90.43</ele>
        <time>2021-03-20T18:03:11Z</time>
      </trkpt>
      <trkpt lat="55.69492" lon="-4.59953">
        <ele>84.49</ele>
        <time>2021-03-20T18:03:20Z</time>
      </trkpt>
      <trkpt lat="55.69392" lon="-4.60053">
        <ele>85.9</ele>
        <time>2021-03-20T18:03:29Z</time>
      </trkpt>
      <trkpt lat="55.6935" lon="-4.60087">
        <ele>83.61</ele>
        <time>2021-03-20T18:03:38Z</time>
      </trkpt>
      <trkpt lat="55.69111" lon="-4.60265">
        <ele>82.54</ele>
        <time>2021-03-20T18:03:47Z</time>
      </trkpt>
      <trkpt lat="55.68951" lon="-4.60389">
        <ele>82.23</ele>
        <time>2021-03-20T18:03:56Z</time>
      </trkpt>
      <trkpt lat="55.68929" lon="-4.60402">
        <ele>82</ele>
        <time>2021-03-20T18:04:04Z</time>
      </trkpt>
      <trkpt lat="55.68895" lon="-4.60416">
        <ele>80.46</ele>
        <time>2021-03-20T18:04:13Z</time>
      </trkpt>
      <trkpt lat="55.68799" lon="-4.60441">
        <ele>76</ele>
        <time>2021-03-20T18:04:22Z</time>
      </trkpt>
      <trkpt lat="55.68732" lon="-4.60453">
        <ele>75.7</ele>
        <time>2021-03-20T18:04:31Z</time>
      </trkpt>
      <trkpt lat="55.68675" lon="-4.60466">
        <ele>75.91</ele>
        <time>2021-03-20T18:04:40Z</time>
      </trkpt>
      <trkpt lat="55.68443" lon="-4.60551">
        <ele>70.69</ele>
        <time>2021-03-20T18:04:49Z</time>
      </trkpt>
      <trkpt lat="55.68374" lon="-4.60566">
        <ele>71.19</ele>
        <time>2021-03-20T18:04:58Z</time>
      </trkpt>
      <trkpt lat="55.68285" lon="-4.6056">
        <ele>71.82</ele>
        <time>2021-03-20T18:05:07Z</time>
      </trkpt>
      <trkpt lat="55.67676" lon="-4.60472">
        <ele>78.69</ele>
        <time>2021-03-20T18:05:16Z</time>
      </trkpt>
      <trkpt lat="55.67577" lon="-4.60488">
        <ele>76</ele>
        <time>2021-03-20T18:05:25Z</time>
      </trkpt>
      <trkpt lat="55.67484" lon="-4.60566">
        <ele>74.63</ele>
        <time>2021-03-20T18:05:34Z</time>
      </trkpt>
      <trkpt lat="55.67399" lon="-4.60661">
        <ele>78</ele>
        <time>2021-03-20T18:05:43Z</time>
      </trkpt>
      <trkpt lat="55.67357" lon="-4.60715">
        <ele>78</ele>
        <time>2021-03-20T18:05:51Z</time>
      </trkpt>
      <trkpt lat="55.67105" lon="-4.6108">
        <ele>79.77</ele>
        <time>2021-03-20T18:06:00Z</time>
      </trkpt>
      <trkpt lat="55.67072" lon="-4.61119">
        <ele>80.79</ele>
        <time>2021-03-20T18:06:09Z</time>
      </trkpt>
      <trkpt lat="55.67008" lon="-4.61173">
        <ele>78.73</ele>
        <time>2021-03-20T18:06:18Z</time>
      </trkpt>
      <trkpt lat="55.66979" lon="-4.61187">
        <ele>78.73</ele>
        <time>2021-03-20T18:06:27Z</time>
      </trkpt>
      <trkpt lat="55.6692" lon="-4.61205">
        <ele>77.93</ele>
        <time>2021-03-20T18:06:36Z</time>
      </trkpt>
      <trkpt lat="55.66877" lon="-4.61213">
        <ele>76.37</ele>
        <time>2021-03-20T18:06:45Z</time>
      </trkpt>
      <trkpt lat="55.66669" lon="-4.61262">
        <ele>73.04</ele>
        <time>2021-03-20T18:06:54Z</time>
      </trkpt>
      <trkpt lat="55.66449" lon="-4.61307">
        <ele>68.14</ele>
        <time>2021-03-20T18:07:03Z</time>
      </trkpt>
      <trkpt lat="55.66256" lon="-4.61341">
        <ele>61.94</ele>
        <time>2021-03-20T18:07:12Z</time>
      </trkpt>
      <trkpt lat="55.6622" lon="-4.61344">
        <ele>61.61</ele>
        <time>2021-03-20T18:07:21Z</time>
      </trkpt>
      <trkpt lat="55.6618" lon="-4.61187">
        <ele>62.52</ele>
        <time>2021-03-20T18:07:29Z</time>
      </trkpt>
      <trkpt lat="55.6608" lon="-4.60991">
        <ele>60</ele>
        <time>2021-03-20T18:07:38Z</time>
      </trkpt>
      <trkpt lat="55.66025" lon="-4.60866">
        <ele>61</ele>
        <time>2021-03-20T18:07:47Z</time>
      </trkpt>
      <trkpt lat="55.66023" lon="-4.60837">
        <ele>61.85</ele>
        <time>2021-03-20T18:07:55Z</time>
      </trkpt>
      <trkpt lat="55.66036" lon="-4.60802">
        <ele>61.71</ele>
        <time>2021-03-20T18:08:04Z</time>
      </trkpt>
      <trkpt lat="55.66024" lon="-4.60735">
        <ele>62</ele>
        <time>2021-03-20T18:08:10Z</time>
      </trkpt>
      <trkpt lat="55.66005" lon="-4.60457">
        <ele>62.63</ele>
        <time>2021-03-20T18:08:16Z</time>
      </trkpt>
      <trkpt lat="55.66002" lon="-4.60438">
        <ele>61.85</ele>
        <time>2021-03-20T18:08:21Z</time>
      </trkpt>
      <trkpt lat="55.65993" lon="-4.60426">
        <ele>61.01</ele>
        <time>2021-03-20T18:08:27Z</time>
      </trkpt>
      <trkpt lat="55.6587" lon="-4.60319">
        <ele>58.31</ele>
        <time>2021-03-20T18:08:33Z</time>
      </trkpt>
      <trkpt lat="55.65814" lon="-4.60239">
        <ele>60.1</ele>
        <time>2021-03-20T18:08:39Z</time>
      </trkpt>
      <trkpt lat="55.65754" lon="-4.60134">
        <ele>61.03</ele>
        <time>2021-03-20T18:08:45Z</time>
      </trkpt>
      <trkpt lat="55.65704" lon="-4.60035">
        <ele>62</ele>
        <time>2021-03-20T18:08:50Z</time>
      </trkpt>
      <trkpt lat="55.65651" lon="-4.59946">
        <ele>61</ele>
        <time>2021-03-20T18:08:56Z</time>
      </trkpt>
      <trkpt lat="55.65613" lon="-4.59862">
        <ele>61.92</ele>
        <time>2021-03-20T18:09:02Z</time>
      </trkpt>
      <trkpt lat="55.6557" lon="-4.5978">
        <ele>60</ele>
        <time>2021-03-20T18:09:08Z</time>
      </trkpt>
      <trkpt lat="55.65486" lon="-4.59631">
        <ele>60.85</ele>
        <time>2021-03-20T18:09:14Z</time>
      </trkpt>
      <trkpt lat="55.65463" lon="-4.59567">
        <ele>60.6</ele>
        <time>2021-03-20T18:09:19Z</time>
      </trkpt>
      <trkpt lat="55.65454" lon="-4.59515">
        <ele>60.65</ele>
        <time>2021-03-20T18:09:25Z</time>
      </trkpt>
      <trkpt lat="55.65451" lon="-4.59429">
        <ele>61.78</ele>
        <time>2021-03-20T18:09:31Z</time>
      </trkpt>
      <trkpt lat="55.65429" lon="-4.59224">
        <ele>61.92</ele>
        <time>2021-03-20T18:09:37Z</time>
      </trkpt>
      <trkpt lat="55.65408" lon="-4.5908">
        <ele>61.88</ele>
        <time>2021-03-20T18:09:43Z</time>
      </trkpt>
      <trkpt lat="55.65381" lon="-4.58907">
        <ele>59</ele>
        <time>2021-03-20T18:09:49Z</time>
      </trkpt>
      <trkpt lat="55.65361" lon="-4.58825">
        <ele>57.98</ele>
        <time>2021-03-20T18:09:54Z</time>
      </trkpt>
      <trkpt lat="55.6534" lon="-4.58769">
        <ele>55.47</ele>
        <time>2021-03-20T18:10:00Z</time>
      </trkpt>
      <trkpt lat="55.65316" lon="-4.58727">
        <ele>54.36</ele>
        <time>2021-03-20T18:10:06Z</time>
      </trkpt>
      <trkpt lat="55.65285" lon="-4.58703">
        <ele>53.24</ele>
        <time>2021-03-20T18:10:12Z</time>
      </trkpt>
      <trkpt lat="55.65171" lon="-4.58673">
        <ele>50.24</ele>
        <time>2021-03-20T18:10:18Z</time>
      </trkpt>
      <trkpt lat="55.65161" lon="-4.58673">
        <ele>49.58</ele>
        <time>2021-03-20T18:10:23Z</time>
      </trkpt>
      <trkpt lat="55.6488" lon="-4.58725">
        <ele>48</ele>
        <time>2021-03-20T18:10:29Z</time>
      </trkpt>
      <trkpt lat="55.64872" lon="-4.58717">
        <ele>48</ele>
        <time>2021-03-20T18:10:35Z</time>
      </trkpt>
      <trkpt lat="55.64865" lon="-4.58704">
        <ele>48</ele>
        <time>2021-03-20T18:10:41Z</time>
      </trkpt>
      <trkpt lat="55.64811" lon="-4.58464">
        <ele>46.75</ele>
        <time>2021-03-20T18:10:47Z</time>
      </trkpt>
      <trkpt lat="55.64794" lon="-4.58432">
        <ele>44.72</ele>
        <time>2021-03-20T18:10:52Z</time>
      </trkpt>
      <trkpt lat="55.64787" lon="-4.58404">
        <ele>43.18</ele>
        <time>2021-03-20T18:10:58Z</time>
      </trkpt>
      <trkpt lat="55.64776" lon="-4.58391">
        <ele>41.99</ele>
        <time>2021-03-20T18:11:04Z</time>
      </trkpt>
      <trkpt lat="55.64755" lon="-4.58401">
        <ele>41.59</ele>
        <time>2021-03-20T18:11:10Z</time>
      </trkpt>
      <trkpt lat="55.64735" lon="-4.58404">
        <ele>41.8</ele>
        <time>2021-03-20T18:11:16Z</time>
      </trkpt>
      <trkpt lat="55.64704" lon="-4.58402">
        <ele>42.64</ele>
        <time>2021-03-20T18:11:22Z</time>
      </trkpt>
      <trkpt lat="55.64682" lon="-4.58392">
        <ele>43</ele>
        <time>2021-03-20T18:11:27Z</time>
      </trkpt>
      <trkpt lat="55.64667" lon="-4.58366">
        <ele>43</ele>
        <time>2021-03-20T18:11:33Z</time>
      </trkpt>
      <trkpt lat="55.64628" lon="-4.58256">
        <ele>44.4</ele>
        <time>2021-03-20T18:11:39Z</time>
      </trkpt>
      <trkpt lat="55.64621" lon="-4.58218">
        <ele>44.65</ele>
        <time>2021-03-20T18:11:45Z</time>
      </trkpt>
      <trkpt lat="55.64619" lon="-4.58149">
        <ele>44.45</ele>
        <time>2021-03-20T18:11:51Z</time>
      </trkpt>
      <trkpt lat="55.64612" lon="-4.58122">
        <ele>45.5</ele>
        <time>2021-03-20T18:11:56Z</time>
      </trkpt>
      <trkpt lat="55.64603" lon="-4.58115">
        <ele>45.85</ele>
        <time>2021-03-20T18:12:02Z</time>
      </trkpt>
      <trkpt lat="55.6454" lon="-4.58103">
        <ele>45.12</ele>
        <time>2021-03-20T18:12:08Z</time>
      </trkpt>
      <trkpt lat="55.64492" lon="-4.58127">
        <ele>45.69</ele>
        <time>2021-03-20T18:12:14Z</time>
      </trkpt>
      <trkpt lat="55.64473" lon="-4.58132">
        <ele>45.99</ele>
        <time>2021-03-20T18:12:20Z</time>
      </trkpt>
      <trkpt lat="55.64438" lon="-4.58135">
        <ele>46.12</ele>
        <time>2021-03-20T18:12:25Z</time>
      </trkpt>
      <trkpt lat="55.64423" lon="-4.58133">
        <ele>46.2</ele>
        <time>2021-03-20T18:12:31Z</time>
      </trkpt>
      <trkpt lat="55.6441" lon="-4.58125">
        <ele>46.49</ele>
        <time>2021-03-20T18:12:37Z</time>
      </trkpt>
      <trkpt lat="55.64366" lon="-4.58083">
        <ele>47</ele>
        <time>2021-03-20T18:12:43Z</time>
      </trkpt>
      <trkpt lat="55.6435" lon="-4.58052">
        <ele>47</ele>
        <time>2021-03-20T18:12:49Z</time>
      </trkpt>
      <trkpt lat="55.64299" lon="-4.58148">
        <ele>44.51</ele>
        <time>2021-03-20T18:12:54Z</time>
      </trkpt>
      <trkpt lat="55.64176" lon="-4.58455">
        <ele>40.07</ele>
        <time>2021-03-20T18:13:00Z</time>
      </trkpt>
      <trkpt lat="55.64138" lon="-4.58569">
        <ele>38.96</ele>
        <time>2021-03-20T18:13:05Z</time>
      </trkpt>
      <trkpt lat="55.64091" lon="-4.58757">
        <ele>37.27</ele>
        <time>2021-03-20T18:13:11Z</time>
      </trkpt>
      <trkpt lat="55.64019" lon="-4.58991">
        <ele>39</ele>
        <time>2021-03-20T18:13:16Z</time>
      </trkpt>
      <trkpt lat="55.63912" lon="-4.59362">
        <ele>45.83</ele>
        <time>2021-03-20T18:13:22Z</time>
      </trkpt>
      <trkpt lat="55.63897" lon="-4.5942">
        <ele>45</ele>
        <time>2021-03-20T18:13:27Z</time>
      </trkpt>
      <trkpt lat="55.63866" lon="-4.5951">
        <ele>45.82</ele>
        <time>2021-03-20T18:13:33Z</time>
      </trkpt>
      <trkpt lat="55.63753" lon="-4.59391">
        <ele>44.12</ele>
        <time>2021-03-20T18:13:43Z</time>
      </trkpt>
      <trkpt lat="55.63704" lon="-4.59374">
        <ele>41.65</ele>
        <time>2021-03-20T18:13:53Z</time>
      </trkpt>
      <trkpt lat="55.63649" lon="-4.59385">
        <ele>39.92</ele>
        <time>2021-03-20T18:14:03Z</time>
      </trkpt>
      <trkpt lat="55.63578" lon="-4.5941">
        <ele>42</ele>
        <time>2021-03-20T18:14:13Z</time>
      </trkpt>
      <trkpt lat="55.63546" lon="-4.59398">
        <ele>41.88</ele>
        <time>2021-03-20T18:14:23Z</time>
      </trkpt>
      <trkpt lat="55.63422" lon="-4.59333">
        <ele>36</ele>
        <time>2021-03-20T18:14:32Z</time>
      </trkpt>
      <trkpt lat="55.6333" lon="-4.59348">
        <ele>36.45</ele>
        <time>2021-03-20T18:14:42Z</time>
      </trkpt>
      <trkpt lat="55.63265" lon="-4.59347">
        <ele>34.51</ele>
        <time>2021-03-20T18:14:52Z</time>
      </trkpt>
      <trkpt lat="55.63088" lon="-4.59369">
        <ele>27.5</ele>
        <time>2021-03-20T18:15:02Z</time>
      </trkpt>
      <trkpt lat="55.63062" lon="-4.59367">
        <ele>25.44</ele>
        <time>2021-03-20T18:15:12Z</time>
      </trkpt>
      <trkpt lat="55.63035" lon="-4.59353">
        <ele>25.07</ele>
        <time>2021-03-20T18:15:22Z</time>
      </trkpt>
      <trkpt lat="55.62999" lon="-4.59326">
        <ele>25</ele>
        <time>2021-03-20T18:15:32Z</time>
      </trkpt>
      <trkpt lat="55.6297" lon="-4.59283">
        <ele>24.99</ele>
        <time>2021-03-20T18:15:42Z</time>
      </trkpt>
      <trkpt lat="55.6289" lon="-4.59218">
        <ele>24.04</ele>
        <time>2021-03-20T18:15:52Z</time>
      </trkpt>
      <trkpt lat="55.62803" lon="-4.59167">
        <ele>25</ele>
        <time>2021-03-20T18:16:02Z</time>
      </trkpt>
      <trkpt lat="55.62782" lon="-4.59171">
        <ele>24.84</ele>
        <time>2021-03-20T18:16:12Z</time>
      </trkpt>
      <trkpt lat="55.62742" lon="-4.59191">
        <ele>25.29</ele>
        <time>2021-03-20T18:16:22Z</time>
      </trkpt>
      <trkpt lat="55.62708" lon="-4.59192">
        <ele>27.01</ele>
        <time>2021-03-20T18:16:32Z</time>
      </trkpt>
      <trkpt lat="55.62683" lon="-4.59197">
        <ele>28.8</ele>
        <time>2021-03-20T18:16:42Z</time>
      </trkpt>
      <trkpt lat="55.62595" lon="-4.5921">
        <ele>33.58</ele>
        <time>2021-03-20T18:16:52Z</time>
      </trkpt>
      <trkpt lat="55.62541" lon="-4.59222">
        <ele>35</ele>
        <time>2021-03-20T18:17:02Z</time>
      </trkpt>
      <trkpt lat="55.62334" lon="-4.59249">
        <ele>28.05</ele>
        <time>2021-03-20T18:17:12Z</time>
      </trkpt>
      <trkpt lat="55.62317" lon="-4.59237">
        <ele>27.89</ele>
        <time>2021-03-20T18:17:21Z</time>
      </trkpt>
      <trkpt lat="55.62214" lon="-4.59117">
        <ele>30.79</ele>
        <time>2021-03-20T18:17:31Z</time>
      </trkpt>
      <trkpt lat="55.62177" lon="-4.59096">
        <ele>30.37</ele>
        <time>2021-03-20T18:17:41Z</time>
      </trkpt>
      <trkpt lat="55.61801" lon="-4.59045">
        <ele>26.82</ele>
        <time>2021-03-20T18:17:51Z</time>
      </trkpt>
      <trkpt lat="55.61613" lon="-4.59014">
        <ele>23</ele>
        <time>2021-03-20T18:18:01Z</time>
      </trkpt>
      <trkpt lat="55.61582" lon="-4.58998">
        <ele>23.03</ele>
        <time>2021-03-20T18:18:11Z</time>
      </trkpt>
      <trkpt lat="55.61552" lon="-4.58972">
        <ele>24.24</ele>
        <time>2021-03-20T18:18:21Z</time>
      </trkpt>
      <trkpt lat="55.61502" lon="-4.58903">
        <ele>27.45</ele>
        <time>2021-03-20T18:18:31Z</time>
      </trkpt>
      <trkpt lat="55.61489" lon="-4.58893">
        <ele>27.14</ele>
        <time>2021-03-20T18:18:41Z</time>
      </trkpt>
      <trkpt lat="55.61387" lon="-4.58841">
        <ele>22.95</ele>
        <time>2021-03-20T18:18:51Z</time>
      </trkpt>
      <trkpt lat="55.61371" lon="-4.59009">
        <ele>24.04</ele>
        <time>2021-03-20T18:18:59Z</time>
      </trkpt>
      <trkpt lat="55.61371" lon="-4.59048">
        <ele>24.73</ele>
        <time>2021-03-20T18:19:08Z</time>
      </trkpt>
      <trkpt lat="55.61377" lon="-4.5909">
        <ele>25.14</ele>
        <time>2021-03-20T18:19:16Z</time>
      </trkpt>
      <trkpt lat="55.61391" lon="-4.5917">
        <ele>26.13</ele>
        <time>2021-03-20T18:19:24Z</time>
      </trkpt>
      <trkpt lat="55.61397" lon="-4.5923">
        <ele>26.53</ele>
        <time>2021-03-20T18:19:33Z</time>
      </trkpt>
      <trkpt lat="55.61398" lon="-4.5927">
        <ele>26.34</ele>
        <time>2021-03-20T18:19:41Z</time>
      </trkpt>
      <trkpt lat="55.61347" lon="-4.59641">
        <ele>29.5</ele>
        <time>2021-03-20T18:19:50Z</time>
      </trkpt>
      <trkpt lat="55.61324" lon="-4.59799">
        <ele>26.9</ele>
        <time>2021-03-20T18:19:58Z</time>
      </trkpt>
      <trkpt lat="55.61302" lon="-4.59973">
        <ele>26.27</ele>
        <time>2021-03-20T18:20:06Z</time>
      </trkpt>
      <trkpt lat="55.61255" lon="-4.60301">
        <ele>30.86</ele>
        <time>2021-03-20T18:20:15Z</time>
      </trkpt>
      <trkpt lat="55.61253" lon="-4.60357">
        <ele>31.89</ele>
        <time>2021-03-20T18:20:23Z</time>
      </trkpt>
      <trkpt lat="55.61245" lon="-4.60361">
        <ele>32</ele>
        <time>2021-03-20T18:20:26Z</time>
      </trkpt>
      <trkpt lat="55.61241" lon="-4.60366">
        <ele>32</ele>
        <time>2021-03-20T18:20:30Z</time>
      </trkpt>
      <trkpt lat="55.61239" lon="-4.60372">
        <ele>32</ele>
        <time>2021-03-20T18:20:33Z</time>
      </trkpt>
      <trkpt lat="55.61237" lon="-4.60382">
        <ele>32</ele>
        <time>2021-03-20T18:20:37Z</time>
      </trkpt>
      <trkpt lat="55.61241" lon="-4.60397">
        <ele>32.19</ele>
        <time>2021-03-20T18:20:40Z</time>
      </trkpt>
      <trkpt lat="55.61249" lon="-4.60405">
        <ele>32.55</ele>
        <time>2021-03-20T18:20:43Z</time>
      </trkpt>
      <trkpt lat="55.61241" lon="-4.60609">
        <ele>30.74</ele>
        <time>2021-03-20T18:20:47Z</time>
      </trkpt>
      <trkpt lat="55.61236" lon="-4.6067">
        <ele>31.05</ele>
        <time>2021-03-20T18:20:50Z</time>
      </trkpt>
      <trkpt lat="55.61222" lon="-4.60781">
        <ele>33.11</ele>
        <time>2021-03-20T18:20:53Z</time>
      </trkpt>
      <trkpt lat="55.6121" lon="-4.60931">
        <ele>34.86</ele>
        <time>2021-03-20T18:20:57Z</time>
      </trkpt>
      <trkpt lat="55.612" lon="-4.61009">
        <ele>34.3</ele>
        <time>2021-03-20T18:21:00Z</time>
      </trkpt>
      <trkpt lat="55.61164" lon="-4.61148">
        <ele>29.77</ele>
        <time>2021-03-20T18:21:04Z</time>
      </trkpt>
      <trkpt lat="55.61139" lon="-4.61236">
        <ele>30.01</ele>
        <time>2021-03-20T18:21:07Z</time>
      </trkpt>
      <trkpt lat="55.61121" lon="-4.61285">
        <ele>30.63</ele>
        <time>2021-03-20T18:21:10Z</time>
      </trkpt>
      <trkpt lat="55.611" lon="-4.61322">
        <ele>30.6</ele>
        <time>2021-03-20T18:21:14Z</time>
      </trkpt>
      <trkpt lat="55.61081" lon="-4.61361">
        <ele>29.91</ele>
        <time>2021-03-20T18:21:17Z</time>
      </trkpt>
      <trkpt lat="55.60982" lon="-4.61694">
        <ele>27.63</ele>
        <time>2021-03-20T18:21:20Z</time>
      </trkpt>
      <trkpt lat="55.60954" lon="-4.61769">
        <ele>26.34</ele>
        <time>2021-03-20T18:21:24Z</time>
      </trkpt>
      <trkpt lat="55.60906" lon="-4.61706">
        <ele>27</ele>
        <time>2021-03-20T18:21:29Z</time>
      </trkpt>
      <trkpt lat="55.60689" lon="-4.61327">
        <ele>20</ele>
        <time>2021-03-20T18:21:35Z</time>
      </trkpt>
      <trkpt lat="55.60605" lon="-4.61185">
        <ele>20.5</ele>
        <time>2021-03-20T18:21:41Z</time>
      </trkpt>
      <trkpt lat="55.60584" lon="-4.61153">
        <ele>21</ele>
        <time>2021-03-20T18:21:46Z</time>
      </trkpt>
      <trkpt lat="55.60556" lon="-4.61119">
        <ele>21.02</ele>
        <time>2021-03-20T18:21:52Z</time>
      </trkpt>
      <trkpt lat="55.6054" lon="-4.61104">
        <ele>18.59</ele>
        <time>2021-03-20T18:21:58Z</time>
      </trkpt>
      <trkpt lat="55.60512" lon="-4.61092">
        <ele>14.46</ele>
        <time>2021-03-20T18:22:03Z</time>
      </trkpt>
      <trkpt lat="55.60407" lon="-4.61063">
        <ele>9.52</ele>
        <time>2021-03-20T18:22:09Z</time>
      </trkpt>
      <trkpt lat="55.60389" lon="-4.61053">
        <ele>10.01</ele>
        <time>2021-03-20T18:22:15Z</time>
      </trkpt>
      <trkpt lat="55.60371" lon="-4.61038">
        <ele>10.64</ele>
        <time>2021-03-20T18:22:20Z</time>
      </trkpt>
      <trkpt lat="55.6035" lon="-4.61012">
        <ele>11.39</ele>
        <time>2021-03-20T18:22:26Z</time>
      </trkpt>
      <trkpt lat="55.60333" lon="-4.60984">
        <ele>12.02</ele>
        <time>2021-03-20T18:22:32Z</time>
      </trkpt>
      <trkpt lat="55.60314" lon="-4.60944">
        <ele>11.69</ele>
        <time>2021-03-20T18:22:37Z</time>
      </trkpt>
      <trkpt lat="55.60278" lon="-4.60835">
        <ele>11.07</ele>
        <time>2021-03-20T18:22:43Z</time>
      </trkpt>
      <trkpt lat="55.60263" lon="-4.60807">
        <ele>11.53</ele>
        <time>2021-03-20T18:22:49Z</time>
      </trkpt>
      <trkpt lat="55.60247" lon="-4.60789">
        <ele>12.16</ele>
        <time>2021-03-20T18:22:54Z</time>
      </trkpt>
      <trkpt lat="55.60159" lon="-4.60707">
        <ele>19.26</ele>
        <time>2021-03-20T18:23:00Z</time>
      </trkpt>
      <trkpt lat="55.60093" lon="-4.60639">
        <ele>18.33</ele>
        <time>2021-03-20T18:23:06Z</time>
      </trkpt>
      <trkpt lat="55.6005" lon="-4.60617">
        <ele>19.01</ele>
        <time>2021-03-20T18:23:11Z</time>
      </trkpt>
      <trkpt lat="55.59965" lon="-4.60584">
        <ele>20</ele>
        <time>2021-03-20T18:23:17Z</time>
      </trkpt>
      <trkpt lat="55.59684" lon="-4.6053">
        <ele>19.09</ele>
        <time>2021-03-20T18:23:23Z</time>
      </trkpt>
      <trkpt lat="55.59595" lon="-4.60517">
        <ele>20.42</ele>
        <time>2021-03-20T18:23:28Z</time>
      </trkpt>
      <trkpt lat="55.59566" lon="-4.6051">
        <ele>21.77</ele>
        <time>2021-03-20T18:23:34Z</time>
      </trkpt>
      <trkpt lat="55.59517" lon="-4.60479">
        <ele>20.16</ele>
        <time>2021-03-20T18:23:40Z</time>
      </trkpt>
      <trkpt lat="55.59461" lon="-4.60413">
        <ele>19.51</ele>
        <time>2021-03-20T18:23:46Z</time>
      </trkpt>
      <trkpt lat="55.59437" lon="-4.6038">
        <ele>19</ele>
        <time>2021-03-20T18:23:51Z</time>
      </trkpt>
      <trkpt lat="55.59417" lon="-4.60357">
        <ele>19.14</ele>
        <time>2021-03-20T18:23:57Z</time>
      </trkpt>
      <trkpt lat="55.59384" lon="-4.60312">
        <ele>21</ele>
        <time>2021-03-20T18:24:03Z</time>
      </trkpt>
      <trkpt lat="55.5936" lon="-4.60289">
        <ele>21.59</ele>
        <time>2021-03-20T18:24:08Z</time>
      </trkpt>
      <trkpt lat="55.58892" lon="-4.60131">
        <ele>26.4</ele>
        <time>2021-03-20T18:24:14Z</time>
      </trkpt>
      <trkpt lat="55.58213" lon="-4.59908">
        <ele>31.31</ele>
        <time>2021-03-20T18:24:20Z</time>
      </trkpt>
      <trkpt lat="55.58206" lon="-4.59937">
        <ele>31</ele>
        <time>2021-03-20T18:24:21Z</time>
      </trkpt>
      <trkpt lat="55.58135" lon="-4.5989">
        <ele>32.77</ele>
        <time>2021-03-20T18:24:31Z</time>
      </trkpt>
      <trkpt lat="55.58117" lon="-4.59876">
        <ele>32.58</ele>
        <time>2021-03-20T18:24:40Z</time>
      </trkpt>
      <trkpt lat="55.57995" lon="-4.59732">
        <ele>35.53</ele>
        <time>2021-03-20T18:24:49Z</time>
      </trkpt>
      <trkpt lat="55.57928" lon="-4.59661">
        <ele>35</ele>
        <time>2021-03-20T18:24:59Z</time>
      </trkpt>
      <trkpt lat="55.57843" lon="-4.59551">
        <ele>36.49</ele>
        <time>2021-03-20T18:25:08Z</time>
      </trkpt>
      <trkpt lat="55.57781" lon="-4.59467">
        <ele>37</ele>
        <time>2021-03-20T18:25:17Z</time>
      </trkpt>
      <trkpt lat="55.57612" lon="-4.5936">
        <ele>36.03</ele>
        <time>2021-03-20T18:25:27Z</time>
      </trkpt>
      <trkpt lat="55.57475" lon="-4.5926">
        <ele>42.9</ele>
        <time>2021-03-20T18:25:36Z</time>
      </trkpt>
      <trkpt lat="55.57427" lon="-4.59216">
        <ele>40.77</ele>
        <time>2021-03-20T18:25:45Z</time>
      </trkpt>
      <trkpt lat="55.57407" lon="-4.59183">
        <ele>39.44</ele>
        <time>2021-03-20T18:25:55Z</time>
      </trkpt>
      <trkpt lat="55.57325" lon="-4.59173">
        <ele>37.46</ele>
        <time>2021-03-20T18:26:00Z</time>
      </trkpt>
      <trkpt lat="55.57308" lon="-4.59175">
        <ele>37.94</ele>
        <time>2021-03-20T18:26:05Z</time>
      </trkpt>
      <trkpt lat="55.57292" lon="-4.59182">
        <ele>38.95</ele>
        <time>2021-03-20T18:26:10Z</time>
      </trkpt>
      <trkpt lat="55.57278" lon="-4.59193">
        <ele>39.97</ele>
        <time>2021-03-20T18:26:16Z</time>
      </trkpt>
      <trkpt lat="55.57256" lon="-4.59224">
        <ele>41.63</ele>
        <time>2021-03-20T18:26:21Z</time>
      </trkpt>
      <trkpt lat="55.57236" lon="-4.59263">
        <ele>44.76</ele>
        <time>2021-03-20T18:26:26Z</time>
      </trkpt>
      <trkpt lat="55.56967" lon="-4.59852">
        <ele>80.75</ele>
        <time>2021-03-20T18:26:31Z</time>
      </trkpt>
      <trkpt lat="55.56937" lon="-4.59902">
        <ele>84.08</ele>
        <time>2021-03-20T18:26:36Z</time>
      </trkpt>
      <trkpt lat="55.56903" lon="-4.59943">
        <ele>85.07</ele>
        <time>2021-03-20T18:26:42Z</time>
      </trkpt>
      <trkpt lat="55.56873" lon="-4.59986">
        <ele>83.86</ele>
        <time>2021-03-20T18:26:47Z</time>
      </trkpt>
      <trkpt lat="55.56837" lon="-4.60023">
        <ele>84.86</ele>
        <time>2021-03-20T18:26:52Z</time>
      </trkpt>
      <trkpt lat="55.56816" lon="-4.60033">
        <ele>85.44</ele>
        <time>2021-03-20T18:26:57Z</time>
      </trkpt>
      <trkpt lat="55.56786" lon="-4.6004">
        <ele>85.88</ele>
        <time>2021-03-20T18:27:02Z</time>
      </trkpt>
      <trkpt lat="55.56764" lon="-4.60056">
        <ele>86.5</ele>
        <time>2021-03-20T18:27:08Z</time>
      </trkpt>
      <trkpt lat="55.5673" lon="-4.60088">
        <ele>89.15</ele>
        <time>2021-03-20T18:27:13Z</time>
      </trkpt>
      <trkpt lat="55.56694" lon="-4.60116">
        <ele>92.31</ele>
        <time>2021-03-20T18:27:18Z</time>
      </trkpt>
      <trkpt lat="55.56674" lon="-4.60124">
        <ele>95.77</ele>
        <time>2021-03-20T18:27:23Z</time>
      </trkpt>
      <trkpt lat="55.56655" lon="-4.60127">
        <ele>97.86</ele>
        <time>2021-03-20T18:27:28Z</time>
      </trkpt>
      <trkpt lat="55.56626" lon="-4.6014">
        <ele>99.18</ele>
        <time>2021-03-20T18:27:34Z</time>
      </trkpt>
      <trkpt lat="55.56606" lon="-4.60153">
        <ele>98.73</ele>
        <time>2021-03-20T18:27:39Z</time>
      </trkpt>
      <trkpt lat="55.56585" lon="-4.60171">
        <ele>99.54</ele>
        <time>2021-03-20T18:27:44Z</time>
      </trkpt>
      <trkpt lat="55.56547" lon="-4.60186">
        <ele>101.04</ele>
        <time>2021-03-20T18:27:49Z</time>
      </trkpt>
      <trkpt lat="55.56514" lon="-4.60206">
        <ele>102.21</ele>
        <time>2021-03-20T18:27:54Z</time>
      </trkpt>
      <trkpt lat="55.56456" lon="-4.60268">
        <ele>103.58</ele>
        <time>2021-03-20T18:28:00Z</time>
      </trkpt>
      <trkpt lat="55.56427" lon="-4.60312">
        <ele>103.65</ele>
        <time>2021-03-20T18:28:05Z</time>
      </trkpt>
      <trkpt lat="55.56399" lon="-4.60362">
        <ele>103.51</ele>
        <time>2021-03-20T18:28:10Z</time>
      </trkpt>
      <trkpt lat="55.56373" lon="-4.60416">
        <ele>103.28</ele>
        <time>2021-03-20T18:28:15Z</time>
      </trkpt>
      <trkpt lat="55.56341" lon="-4.6046">
        <ele>104.81</ele>
        <time>2021-03-20T18:28:20Z</time>
      </trkpt>
      <trkpt lat="55.56296" lon="-4.60508">
        <ele>111.25</ele>
        <time>2021-03-20T18:28:26Z</time>
      </trkpt>
      <trkpt lat="55.5627" lon="-4.60541">
        <ele>115.24</ele>
        <time>2021-03-20T18:28:31Z</time>
      </trkpt>
      <trkpt lat="55.56257" lon="-4.60578">
        <ele>118.37</ele>
        <time>2021-03-20T18:28:36Z</time>
      </trkpt>
      <trkpt lat="55.56237" lon="-4.60621">
        <ele>120.34</ele>
        <time>2021-03-20T18:28:41Z</time>
      </trkpt>
      <trkpt lat="55.56204" lon="-4.60658">
        <ele>123.19</ele>
        <time>2021-03-20T18:28:46Z</time>
      </trkpt>
      <trkpt lat="55.56096" lon="-4.60809">
        <ele>125.36</ele>
        <time>2021-03-20T18:28:52Z</time>
      </trkpt>
      <trkpt lat="55.55904" lon="-4.61122">
        <ele>110.2</ele>
        <time>2021-03-20T18:28:57Z</time>
      </trkpt>
      <trkpt lat="55.55806" lon="-4.61232">
        <ele>103.32</ele>
        <time>2021-03-20T18:29:02Z</time>
      </trkpt>
      <trkpt lat="55.55779" lon="-4.61272">
        <ele>101.36</ele>
        <time>2021-03-20T18:29:07Z</time>
      </trkpt>
      <trkpt lat="55.5566" lon="-4.61577">
        <ele>78.7</ele>
        <time>2021-03-20T18:29:12Z</time>
      </trkpt>
      <trkpt lat="55.55632" lon="-4.6163">
        <ele>76.66</ele>
        <time>2021-03-20T18:29:18Z</time>
      </trkpt>
      <trkpt lat="55.55597" lon="-4.61659">
        <ele>74.54</ele>
        <time>2021-03-20T18:29:23Z</time>
      </trkpt>
      <trkpt lat="55.55559" lon="-4.61683">
        <ele>72.21</ele>
        <time>2021-03-20T18:29:28Z</time>
      </trkpt>
      <trkpt lat="55.5548" lon="-4.61725">
        <ele>67.18</ele>
        <time>2021-03-20T18:29:33Z</time>
      </trkpt>
      <trkpt lat="55.5541" lon="-4.6179">
        <ele>64.6</ele>
        <time>2021-03-20T18:29:38Z</time>
      </trkpt>
      <trkpt lat="55.55217" lon="-4.6196">
        <ele>45.05</ele>
        <time>2021-03-20T18:29:44Z</time>
      </trkpt>
      <trkpt lat="55.5517" lon="-4.62013">
        <ele>40.75</ele>
        <time>2021-03-20T18:29:49Z</time>
      </trkpt>
      <trkpt lat="55.5512" lon="-4.62082">
        <ele>36.28</ele>
        <time>2021-03-20T18:29:54Z</time>
      </trkpt>
      <trkpt lat="55.55075" lon="-4.62144">
        <ele>31.71</ele>
        <time>2021-03-20T18:29:59Z</time>
      </trkpt>
      <trkpt lat="55.54939" lon="-4.62297">
        <ele>23.11</ele>
        <time>2021-03-20T18:30:04Z</time>
      </trkpt>
      <trkpt lat="55.54927" lon="-4.62336">
        <ele>22.26</ele>
        <time>2021-03-20T18:30:10Z</time>
      </trkpt>
      <trkpt lat="55.54895" lon="-4.62424">
        <ele>18.23</ele>
        <time>2021-03-20T18:30:15Z</time>
      </trkpt>
      <trkpt lat="55.54878" lon="-4.62466">
        <ele>17.7</ele>
        <time>2021-03-20T18:30:20Z</time>
      </trkpt>
      <trkpt lat="55.54893" lon="-4.62485">
        <ele>18.14</ele>
        <time>2021-03-20T18:30:22Z</time>
      </trkpt>
      <trkpt lat="55.54897" lon="-4.62475">
        <ele>18.49</ele>
        <time>2021-03-20T18:30:23Z</time>
      </trkpt>
    </trkseg>
  </trk>
  <trk>
    <name><![CDATA[J12 - Loans - Dublin]]></name>
    <trkseg>
      <trkpt lat="55.549" lon="-4.62465">
        <ele>18.49</ele>
        <time>2021-03-20T14:09:57Z</time>
      </trkpt>
      <trkpt lat="55.54893" lon="-4.62485">
        <ele>18.14</ele>
        <time>2021-03-20T14:09:59Z</time>
      </trkpt>
      <trkpt lat="55.54878" lon="-4.62466">
        <ele>17.7</ele>
        <time>2021-03-20T14:10:01Z</time>
      </trkpt>
      <trkpt lat="55.54895" lon="-4.62424">
        <ele>18.23</ele>
        <time>2021-03-20T14:10:06Z</time>
      </trkpt>
      <trkpt lat="55.54927" lon="-4.62336">
        <ele>22.26</ele>
        <time>2021-03-20T14:10:11Z</time>
      </trkpt>
      <trkpt lat="55.54939" lon="-4.62297">
        <ele>23.11</ele>
        <time>2021-03-20T14:10:16Z</time>
      </trkpt>
      <trkpt lat="55.549" lon="-4.62263">
        <ele>22.39</ele>
        <time>2021-03-20T14:10:33Z</time>
      </trkpt>
      <trkpt lat="55.54717" lon="-4.62096">
        <ele>23.56</ele>
        <time>2021-03-20T14:10:49Z</time>
      </trkpt>
      <trkpt lat="55.54611" lon="-4.62004">
        <ele>28.71</ele>
        <time>2021-03-20T14:11:06Z</time>
      </trkpt>
      <trkpt lat="55.5437" lon="-4.61809">
        <ele>29.87</ele>
        <time>2021-03-20T14:11:22Z</time>
      </trkpt>
      <trkpt lat="55.54417" lon="-4.6154">
        <ele>35.97</ele>
        <time>2021-03-20T14:11:39Z</time>
      </trkpt>
      <trkpt lat="55.54423" lon="-4.6154">
        <ele>35.78</ele>
        <time>2021-03-20T14:11:44Z</time>
      </trkpt>
      <trkpt lat="55.54428" lon="-4.61533">
        <ele>35.6</ele>
        <time>2021-03-20T14:11:50Z</time>
      </trkpt>
      <trkpt lat="55.54428" lon="-4.61519">
        <ele>35.4</ele>
        <time>2021-03-20T14:11:55Z</time>
      </trkpt>
      <trkpt lat="55.54423" lon="-4.61511">
        <ele>35.3</ele>
        <time>2021-03-20T14:12:00Z</time>
      </trkpt>
      <trkpt lat="55.54417" lon="-4.61512">
        <ele>35.42</ele>
        <time>2021-03-20T14:12:06Z</time>
      </trkpt>
      <trkpt lat="55.54414" lon="-4.61516">
        <ele>35.81</ele>
        <time>2021-03-20T14:12:11Z</time>
      </trkpt>
      <trkpt lat="55.54373" lon="-4.61515">
        <ele>38.36</ele>
        <time>2021-03-20T14:12:16Z</time>
      </trkpt>
      <trkpt lat="55.53891" lon="-4.61354">
        <ele>40.72</ele>
        <time>2021-03-20T14:12:22Z</time>
      </trkpt>
      <trkpt lat="55.53813" lon="-4.61332">
        <ele>38.27</ele>
        <time>2021-03-20T14:12:27Z</time>
      </trkpt>
      <trkpt lat="55.53674" lon="-4.61311">
        <ele>34.49</ele>
        <time>2021-03-20T14:12:32Z</time>
      </trkpt>
      <trkpt lat="55.5354" lon="-4.61299">
        <ele>32.43</ele>
        <time>2021-03-20T14:12:38Z</time>
      </trkpt>
      <trkpt lat="55.53491" lon="-4.61289">
        <ele>31.8</ele>
        <time>2021-03-20T14:12:43Z</time>
      </trkpt>
      <trkpt lat="55.53401" lon="-4.61257">
        <ele>29</ele>
        <time>2021-03-20T14:12:48Z</time>
      </trkpt>
      <trkpt lat="55.53349" lon="-4.6123">
        <ele>28.47</ele>
        <time>2021-03-20T14:12:54Z</time>
      </trkpt>
      <trkpt lat="55.53267" lon="-4.61176">
        <ele>26.99</ele>
        <time>2021-03-20T14:12:59Z</time>
      </trkpt>
      <trkpt lat="55.52721" lon="-4.60776">
        <ele>28.03</ele>
        <time>2021-03-20T14:13:04Z</time>
      </trkpt>
      <trkpt lat="55.5251" lon="-4.60613">
        <ele>26.29</ele>
        <time>2021-03-20T14:13:10Z</time>
      </trkpt>
      <trkpt lat="55.52497" lon="-4.60585">
        <ele>26.94</ele>
        <time>2021-03-20T14:13:15Z</time>
      </trkpt>
      <trkpt lat="55.52494" lon="-4.60563">
        <ele>28.33</ele>
        <time>2021-03-20T14:13:21Z</time>
      </trkpt>
      <trkpt lat="55.52484" lon="-4.6055">
        <ele>28.53</ele>
        <time>2021-03-20T14:13:26Z</time>
      </trkpt>
      <trkpt lat="55.5247" lon="-4.60522">
        <ele>27.86</ele>
        <time>2021-03-20T14:13:32Z</time>
      </trkpt>
      <trkpt lat="55.52467" lon="-4.60509">
        <ele>27.64</ele>
        <time>2021-03-20T14:13:37Z</time>
      </trkpt>
      <trkpt lat="55.52465" lon="-4.60472">
        <ele>27.44</ele>
        <time>2021-03-20T14:13:43Z</time>
      </trkpt>
      <trkpt lat="55.5249" lon="-4.59556">
        <ele>31.61</ele>
        <time>2021-03-20T14:13:48Z</time>
      </trkpt>
      <trkpt lat="55.52487" lon="-4.59339">
        <ele>33</ele>
        <time>2021-03-20T14:13:54Z</time>
      </trkpt>
      <trkpt lat="55.52472" lon="-4.59122">
        <ele>34.62</ele>
        <time>2021-03-20T14:13:59Z</time>
      </trkpt>
      <trkpt lat="55.52474" lon="-4.59067">
        <ele>36.58</ele>
        <time>2021-03-20T14:14:04Z</time>
      </trkpt>
      <trkpt lat="55.52478" lon="-4.5903">
        <ele>37.91</ele>
        <time>2021-03-20T14:14:10Z</time>
      </trkpt>
      <trkpt lat="55.52481" lon="-4.59017">
        <ele>38.37</ele>
        <time>2021-03-20T14:14:15Z</time>
      </trkpt>
      <trkpt lat="55.52482" lon="-4.58999">
        <ele>39</ele>
        <time>2021-03-20T14:14:19Z</time>
      </trkpt>
      <trkpt lat="55.5248" lon="-4.5898">
        <ele>39</ele>
        <time>2021-03-20T14:14:24Z</time>
      </trkpt>
      <trkpt lat="55.52476" lon="-4.58971">
        <ele>39</ele>
        <time>2021-03-20T14:14:29Z</time>
      </trkpt>
      <trkpt lat="55.52468" lon="-4.5896">
        <ele>39</ele>
        <time>2021-03-20T14:14:34Z</time>
      </trkpt>
      <trkpt lat="55.5246" lon="-4.58953">
        <ele>39</ele>
        <time>2021-03-20T14:14:39Z</time>
      </trkpt>
      <trkpt lat="55.52448" lon="-4.58951">
        <ele>39</ele>
        <time>2021-03-20T14:14:43Z</time>
      </trkpt>
      <trkpt lat="55.52415" lon="-4.58935">
        <ele>39.07</ele>
        <time>2021-03-20T14:14:48Z</time>
      </trkpt>
      <trkpt lat="55.52399" lon="-4.58921">
        <ele>39.65</ele>
        <time>2021-03-20T14:14:53Z</time>
      </trkpt>
      <trkpt lat="55.52372" lon="-4.58887">
        <ele>39.6</ele>
        <time>2021-03-20T14:14:58Z</time>
      </trkpt>
      <trkpt lat="55.52306" lon="-4.58792">
        <ele>39.47</ele>
        <time>2021-03-20T14:15:02Z</time>
      </trkpt>
      <trkpt lat="55.52259" lon="-4.58728">
        <ele>41.68</ele>
        <time>2021-03-20T14:15:07Z</time>
      </trkpt>
      <trkpt lat="55.52173" lon="-4.5861">
        <ele>44.77</ele>
        <time>2021-03-20T14:15:12Z</time>
      </trkpt>
      <trkpt lat="55.52066" lon="-4.58455">
        <ele>39.38</ele>
        <time>2021-03-20T14:15:17Z</time>
      </trkpt>
      <trkpt lat="55.51966" lon="-4.58289">
        <ele>37.23</ele>
        <time>2021-03-20T14:15:21Z</time>
      </trkpt>
      <trkpt lat="55.51904" lon="-4.58191">
        <ele>33.61</ele>
        <time>2021-03-20T14:15:26Z</time>
      </trkpt>
      <trkpt lat="55.51767" lon="-4.57952">
        <ele>33.99</ele>
        <time>2021-03-20T14:15:31Z</time>
      </trkpt>
      <trkpt lat="55.51528" lon="-4.57524">
        <ele>28.13</ele>
        <time>2021-03-20T14:15:36Z</time>
      </trkpt>
      <trkpt lat="55.51382" lon="-4.57286">
        <ele>26.46</ele>
        <time>2021-03-20T14:15:41Z</time>
      </trkpt>
      <trkpt lat="55.51264" lon="-4.57121">
        <ele>27.95</ele>
        <time>2021-03-20T14:15:45Z</time>
      </trkpt>
      <trkpt lat="55.51158" lon="-4.56993">
        <ele>27.67</ele>
        <time>2021-03-20T14:15:50Z</time>
      </trkpt>
      <trkpt lat="55.51038" lon="-4.56877">
        <ele>28.38</ele>
        <time>2021-03-20T14:15:55Z</time>
      </trkpt>
      <trkpt lat="55.50914" lon="-4.56771">
        <ele>30.14</ele>
        <time>2021-03-20T14:16:00Z</time>
      </trkpt>
      <trkpt lat="55.50781" lon="-4.56682">
        <ele>32.35</ele>
        <time>2021-03-20T14:16:04Z</time>
      </trkpt>
      <trkpt lat="55.50651" lon="-4.56609">
        <ele>31.06</ele>
        <time>2021-03-20T14:16:09Z</time>
      </trkpt>
      <trkpt lat="55.50514" lon="-4.56557">
        <ele>30.52</ele>
        <time>2021-03-20T14:16:14Z</time>
      </trkpt>
      <trkpt lat="55.50378" lon="-4.56523">
        <ele>25.67</ele>
        <time>2021-03-20T14:16:19Z</time>
      </trkpt>
      <trkpt lat="55.50242" lon="-4.56511">
        <ele>22.72</ele>
        <time>2021-03-20T14:16:23Z</time>
      </trkpt>
      <trkpt lat="55.501" lon="-4.56512">
        <ele>22.55</ele>
        <time>2021-03-20T14:16:28Z</time>
      </trkpt>
      <trkpt lat="55.49957" lon="-4.56523">
        <ele>22.17</ele>
        <time>2021-03-20T14:16:33Z</time>
      </trkpt>
      <trkpt lat="55.49833" lon="-4.56572">
        <ele>21.42</ele>
        <time>2021-03-20T14:16:38Z</time>
      </trkpt>
      <trkpt lat="55.49807" lon="-4.56576">
        <ele>21.26</ele>
        <time>2021-03-20T14:16:42Z</time>
      </trkpt>
      <trkpt lat="55.49791" lon="-4.56564">
        <ele>21.35</ele>
        <time>2021-03-20T14:16:47Z</time>
      </trkpt>
      <trkpt lat="55.49783" lon="-4.56549">
        <ele>21.2</ele>
        <time>2021-03-20T14:16:52Z</time>
      </trkpt>
      <trkpt lat="55.49776" lon="-4.56542">
        <ele>20.95</ele>
        <time>2021-03-20T14:16:57Z</time>
      </trkpt>
      <trkpt lat="55.49768" lon="-4.56543">
        <ele>20.65</ele>
        <time>2021-03-20T14:17:02Z</time>
      </trkpt>
      <trkpt lat="55.49702" lon="-4.56595">
        <ele>20</ele>
        <time>2021-03-20T14:17:06Z</time>
      </trkpt>
      <trkpt lat="55.49651" lon="-4.5663">
        <ele>20.14</ele>
        <time>2021-03-20T14:17:11Z</time>
      </trkpt>
      <trkpt lat="55.49453" lon="-4.56725">
        <ele>18.03</ele>
        <time>2021-03-20T14:17:16Z</time>
      </trkpt>
      <trkpt lat="55.49324" lon="-4.56806">
        <ele>18</ele>
        <time>2021-03-20T14:17:21Z</time>
      </trkpt>
      <trkpt lat="55.49221" lon="-4.56886">
        <ele>17.05</ele>
        <time>2021-03-20T14:17:25Z</time>
      </trkpt>
      <trkpt lat="55.49047" lon="-4.57064">
        <ele>19.32</ele>
        <time>2021-03-20T14:17:30Z</time>
      </trkpt>
      <trkpt lat="55.49029" lon="-4.57085">
        <ele>20</ele>
        <time>2021-03-20T14:17:35Z</time>
      </trkpt>
      <trkpt lat="55.48934" lon="-4.57206">
        <ele>18</ele>
        <time>2021-03-20T14:17:40Z</time>
      </trkpt>
      <trkpt lat="55.48847" lon="-4.5734">
        <ele>17</ele>
        <time>2021-03-20T14:17:44Z</time>
      </trkpt>
      <trkpt lat="55.488" lon="-4.5742">
        <ele>17.2</ele>
        <time>2021-03-20T14:17:49Z</time>
      </trkpt>
      <trkpt lat="55.48563" lon="-4.57844">
        <ele>28.17</ele>
        <time>2021-03-20T14:17:54Z</time>
      </trkpt>
      <trkpt lat="55.48514" lon="-4.57929">
        <ele>27.49</ele>
        <time>2021-03-20T14:17:59Z</time>
      </trkpt>
      <trkpt lat="55.4848" lon="-4.57979">
        <ele>26.3</ele>
        <time>2021-03-20T14:18:04Z</time>
      </trkpt>
      <trkpt lat="55.48446" lon="-4.58024">
        <ele>25.93</ele>
        <time>2021-03-20T14:18:08Z</time>
      </trkpt>
      <trkpt lat="55.48424" lon="-4.5805">
        <ele>26.22</ele>
        <time>2021-03-20T14:18:13Z</time>
      </trkpt>
      <trkpt lat="55.48359" lon="-4.58119">
        <ele>27.3</ele>
        <time>2021-03-20T14:18:18Z</time>
      </trkpt>
      <trkpt lat="55.48305" lon="-4.58174">
        <ele>26.98</ele>
        <time>2021-03-20T14:18:23Z</time>
      </trkpt>
      <trkpt lat="55.48252" lon="-4.58234">
        <ele>25.98</ele>
        <time>2021-03-20T14:18:27Z</time>
      </trkpt>
      <trkpt lat="55.48159" lon="-4.58321">
        <ele>27</ele>
        <time>2021-03-20T14:18:32Z</time>
      </trkpt>
      <trkpt lat="55.48082" lon="-4.58381">
        <ele>28.03</ele>
        <time>2021-03-20T14:18:37Z</time>
      </trkpt>
      <trkpt lat="55.47959" lon="-4.58463">
        <ele>31.66</ele>
        <time>2021-03-20T14:18:42Z</time>
      </trkpt>
      <trkpt lat="55.47736" lon="-4.586">
        <ele>34.21</ele>
        <time>2021-03-20T14:18:46Z</time>
      </trkpt>
      <trkpt lat="55.47667" lon="-4.5863">
        <ele>33.32</ele>
        <time>2021-03-20T14:18:51Z</time>
      </trkpt>
      <trkpt lat="55.47646" lon="-4.58627">
        <ele>33.86</ele>
        <time>2021-03-20T14:18:56Z</time>
      </trkpt>
      <trkpt lat="55.47636" lon="-4.58604">
        <ele>34.11</ele>
        <time>2021-03-20T14:19:01Z</time>
      </trkpt>
      <trkpt lat="55.47621" lon="-4.58592">
        <ele>34.66</ele>
        <time>2021-03-20T14:19:06Z</time>
      </trkpt>
      <trkpt lat="55.47599" lon="-4.58589">
        <ele>36.21</ele>
        <time>2021-03-20T14:19:11Z</time>
      </trkpt>
      <trkpt lat="55.47587" lon="-4.58589">
        <ele>37.45</ele>
        <time>2021-03-20T14:19:16Z</time>
      </trkpt>
      <trkpt lat="55.47575" lon="-4.58593">
        <ele>38.19</ele>
        <time>2021-03-20T14:19:21Z</time>
      </trkpt>
      <trkpt lat="55.47496" lon="-4.58589">
        <ele>39.87</ele>
        <time>2021-03-20T14:19:26Z</time>
      </trkpt>
      <trkpt lat="55.4743" lon="-4.58559">
        <ele>37.53</ele>
        <time>2021-03-20T14:19:31Z</time>
      </trkpt>
      <trkpt lat="55.47284" lon="-4.58474">
        <ele>27.23</ele>
        <time>2021-03-20T14:19:36Z</time>
      </trkpt>
      <trkpt lat="55.47205" lon="-4.5844">
        <ele>25</ele>
        <time>2021-03-20T14:19:41Z</time>
      </trkpt>
      <trkpt lat="55.47116" lon="-4.58416">
        <ele>22.98</ele>
        <time>2021-03-20T14:19:46Z</time>
      </trkpt>
      <trkpt lat="55.47076" lon="-4.58411">
        <ele>23.58</ele>
        <time>2021-03-20T14:19:51Z</time>
      </trkpt>
      <trkpt lat="55.47025" lon="-4.58409">
        <ele>22.22</ele>
        <time>2021-03-20T14:19:56Z</time>
      </trkpt>
      <trkpt lat="55.46942" lon="-4.58412">
        <ele>18.84</ele>
        <time>2021-03-20T14:20:01Z</time>
      </trkpt>
      <trkpt lat="55.46865" lon="-4.5843">
        <ele>18.41</ele>
        <time>2021-03-20T14:20:07Z</time>
      </trkpt>
      <trkpt lat="55.46785" lon="-4.58461">
        <ele>16.94</ele>
        <time>2021-03-20T14:20:12Z</time>
      </trkpt>
      <trkpt lat="55.46694" lon="-4.58512">
        <ele>13.02</ele>
        <time>2021-03-20T14:20:17Z</time>
      </trkpt>
      <trkpt lat="55.4661" lon="-4.58576">
        <ele>14.28</ele>
        <time>2021-03-20T14:20:22Z</time>
      </trkpt>
      <trkpt lat="55.4653" lon="-4.58653">
        <ele>13.08</ele>
        <time>2021-03-20T14:20:27Z</time>
      </trkpt>
      <trkpt lat="55.46378" lon="-4.58829">
        <ele>10.61</ele>
        <time>2021-03-20T14:20:32Z</time>
      </trkpt>
      <trkpt lat="55.46236" lon="-4.59">
        <ele>9</ele>
        <time>2021-03-20T14:20:37Z</time>
      </trkpt>
      <trkpt lat="55.46158" lon="-4.5908">
        <ele>10.04</ele>
        <time>2021-03-20T14:20:42Z</time>
      </trkpt>
      <trkpt lat="55.46086" lon="-4.59145">
        <ele>6.76</ele>
        <time>2021-03-20T14:20:47Z</time>
      </trkpt>
      <trkpt lat="55.46" lon="-4.5921">
        <ele>12</ele>
        <time>2021-03-20T14:20:52Z</time>
      </trkpt>
      <trkpt lat="55.45887" lon="-4.59286">
        <ele>13.36</ele>
        <time>2021-03-20T14:20:57Z</time>
      </trkpt>
      <trkpt lat="55.45622" lon="-4.59481">
        <ele>22</ele>
        <time>2021-03-20T14:21:02Z</time>
      </trkpt>
      <trkpt lat="55.4559" lon="-4.59501">
        <ele>21.97</ele>
        <time>2021-03-20T14:21:07Z</time>
      </trkpt>
      <trkpt lat="55.45573" lon="-4.59502">
        <ele>21.54</ele>
        <time>2021-03-20T14:21:12Z</time>
      </trkpt>
      <trkpt lat="55.45566" lon="-4.59493">
        <ele>21.37</ele>
        <time>2021-03-20T14:21:20Z</time>
      </trkpt>
      <trkpt lat="55.45559" lon="-4.59488">
        <ele>21.12</ele>
        <time>2021-03-20T14:21:28Z</time>
      </trkpt>
      <trkpt lat="55.45549" lon="-4.59487">
        <ele>20.75</ele>
        <time>2021-03-20T14:21:37Z</time>
      </trkpt>
      <trkpt lat="55.4554" lon="-4.59491">
        <ele>20.45</ele>
        <time>2021-03-20T14:21:45Z</time>
      </trkpt>
      <trkpt lat="55.45532" lon="-4.59502">
        <ele>20.14</ele>
        <time>2021-03-20T14:21:53Z</time>
      </trkpt>
      <trkpt lat="55.45527" lon="-4.59511">
        <ele>20</ele>
        <time>2021-03-20T14:22:01Z</time>
      </trkpt>
      <trkpt lat="55.45485" lon="-4.5954">
        <ele>21</ele>
        <time>2021-03-20T14:22:10Z</time>
      </trkpt>
      <trkpt lat="55.4424" lon="-4.60027">
        <ele>34.4</ele>
        <time>2021-03-20T14:22:18Z</time>
      </trkpt>
      <trkpt lat="55.44134" lon="-4.60083">
        <ele>33</ele>
        <time>2021-03-20T14:22:26Z</time>
      </trkpt>
      <trkpt lat="55.44028" lon="-4.60165">
        <ele>32</ele>
        <time>2021-03-20T14:22:34Z</time>
      </trkpt>
      <trkpt lat="55.43996" lon="-4.60185">
        <ele>33.8</ele>
        <time>2021-03-20T14:22:43Z</time>
      </trkpt>
      <trkpt lat="55.43985" lon="-4.6018">
        <ele>34.02</ele>
        <time>2021-03-20T14:22:48Z</time>
      </trkpt>
      <trkpt lat="55.4395" lon="-4.60178">
        <ele>34.39</ele>
        <time>2021-03-20T14:22:54Z</time>
      </trkpt>
      <trkpt lat="55.43936" lon="-4.60188">
        <ele>34.83</ele>
        <time>2021-03-20T14:22:59Z</time>
      </trkpt>
      <trkpt lat="55.43928" lon="-4.60207">
        <ele>35.17</ele>
        <time>2021-03-20T14:23:05Z</time>
      </trkpt>
      <trkpt lat="55.43927" lon="-4.60242">
        <ele>35.61</ele>
        <time>2021-03-20T14:23:10Z</time>
      </trkpt>
      <trkpt lat="55.43923" lon="-4.60266">
        <ele>35.47</ele>
        <time>2021-03-20T14:23:16Z</time>
      </trkpt>
      <trkpt lat="55.43912" lon="-4.60295">
        <ele>35.45</ele>
        <time>2021-03-20T14:23:21Z</time>
      </trkpt>
      <trkpt lat="55.43656" lon="-4.60699">
        <ele>36.51</ele>
        <time>2021-03-20T14:23:27Z</time>
      </trkpt>
      <trkpt lat="55.43572" lon="-4.6081">
        <ele>38.67</ele>
        <time>2021-03-20T14:23:33Z</time>
      </trkpt>
      <trkpt lat="55.4348" lon="-4.60895">
        <ele>37.84</ele>
        <time>2021-03-20T14:23:38Z</time>
      </trkpt>
      <trkpt lat="55.43379" lon="-4.60951">
        <ele>35.92</ele>
        <time>2021-03-20T14:23:44Z</time>
      </trkpt>
      <trkpt lat="55.43279" lon="-4.60996">
        <ele>32.04</ele>
        <time>2021-03-20T14:23:49Z</time>
      </trkpt>
      <trkpt lat="55.4318" lon="-4.6105">
        <ele>28.97</ele>
        <time>2021-03-20T14:23:55Z</time>
      </trkpt>
      <trkpt lat="55.43089" lon="-4.6113">
        <ele>27.58</ele>
        <time>2021-03-20T14:24:00Z</time>
      </trkpt>
      <trkpt lat="55.43043" lon="-4.61181">
        <ele>26.6</ele>
        <time>2021-03-20T14:24:06Z</time>
      </trkpt>
      <trkpt lat="55.42966" lon="-4.61286">
        <ele>27.22</ele>
        <time>2021-03-20T14:24:11Z</time>
      </trkpt>
      <trkpt lat="55.42845" lon="-4.61437">
        <ele>27</ele>
        <time>2021-03-20T14:24:17Z</time>
      </trkpt>
      <trkpt lat="55.42762" lon="-4.61513">
        <ele>27.52</ele>
        <time>2021-03-20T14:24:22Z</time>
      </trkpt>
      <trkpt lat="55.42681" lon="-4.61567">
        <ele>27.19</ele>
        <time>2021-03-20T14:24:28Z</time>
      </trkpt>
      <trkpt lat="55.42604" lon="-4.61597">
        <ele>28.73</ele>
        <time>2021-03-20T14:24:33Z</time>
      </trkpt>
      <trkpt lat="55.42567" lon="-4.61604">
        <ele>28</ele>
        <time>2021-03-20T14:24:39Z</time>
      </trkpt>
      <trkpt lat="55.42493" lon="-4.6161">
        <ele>27.26</ele>
        <time>2021-03-20T14:24:45Z</time>
      </trkpt>
      <trkpt lat="55.42399" lon="-4.61603">
        <ele>29</ele>
        <time>2021-03-20T14:24:50Z</time>
      </trkpt>
      <trkpt lat="55.42307" lon="-4.61602">
        <ele>28</ele>
        <time>2021-03-20T14:24:56Z</time>
      </trkpt>
      <trkpt lat="55.42214" lon="-4.61622">
        <ele>29.27</ele>
        <time>2021-03-20T14:25:01Z</time>
      </trkpt>
      <trkpt lat="55.42117" lon="-4.61671">
        <ele>30.94</ele>
        <time>2021-03-20T14:25:07Z</time>
      </trkpt>
      <trkpt lat="55.41951" lon="-4.6178">
        <ele>34.31</ele>
        <time>2021-03-20T14:25:12Z</time>
      </trkpt>
      <trkpt lat="55.41869" lon="-4.61851">
        <ele>40.01</ele>
        <time>2021-03-20T14:25:18Z</time>
      </trkpt>
      <trkpt lat="55.4179" lon="-4.61941">
        <ele>43.89</ele>
        <time>2021-03-20T14:25:23Z</time>
      </trkpt>
      <trkpt lat="55.41706" lon="-4.62005">
        <ele>41.19</ele>
        <time>2021-03-20T14:25:29Z</time>
      </trkpt>
      <trkpt lat="55.41536" lon="-4.62076">
        <ele>36.56</ele>
        <time>2021-03-20T14:25:34Z</time>
      </trkpt>
      <trkpt lat="55.41489" lon="-4.62099">
        <ele>36</ele>
        <time>2021-03-20T14:25:40Z</time>
      </trkpt>
      <trkpt lat="55.41444" lon="-4.62136">
        <ele>37.86</ele>
        <time>2021-03-20T14:25:46Z</time>
      </trkpt>
      <trkpt lat="55.41282" lon="-4.62312">
        <ele>43.88</ele>
        <time>2021-03-20T14:25:51Z</time>
      </trkpt>
      <trkpt lat="55.41122" lon="-4.6247">
        <ele>41.41</ele>
        <time>2021-03-20T14:25:57Z</time>
      </trkpt>
      <trkpt lat="55.40992" lon="-4.62555">
        <ele>41.72</ele>
        <time>2021-03-20T14:26:02Z</time>
      </trkpt>
      <trkpt lat="55.40982" lon="-4.62509">
        <ele>41.78</ele>
        <time>2021-03-20T14:26:06Z</time>
      </trkpt>
      <trkpt lat="55.4077" lon="-4.6178">
        <ele>52.92</ele>
        <time>2021-03-20T14:26:10Z</time>
      </trkpt>
      <trkpt lat="55.40755" lon="-4.61721">
        <ele>54.18</ele>
        <time>2021-03-20T14:26:14Z</time>
      </trkpt>
      <trkpt lat="55.4075" lon="-4.61695">
        <ele>54.01</ele>
        <time>2021-03-20T14:26:18Z</time>
      </trkpt>
      <trkpt lat="55.40744" lon="-4.61646">
        <ele>53.57</ele>
        <time>2021-03-20T14:26:22Z</time>
      </trkpt>
      <trkpt lat="55.40736" lon="-4.6151">
        <ele>52.31</ele>
        <time>2021-03-20T14:26:26Z</time>
      </trkpt>
      <trkpt lat="55.40737" lon="-4.61415">
        <ele>53.06</ele>
        <time>2021-03-20T14:26:30Z</time>
      </trkpt>
      <trkpt lat="55.40742" lon="-4.61308">
        <ele>55</ele>
        <time>2021-03-20T14:26:34Z</time>
      </trkpt>
      <trkpt lat="55.40744" lon="-4.61247">
        <ele>55.33</ele>
        <time>2021-03-20T14:26:38Z</time>
      </trkpt>
      <trkpt lat="55.40739" lon="-4.61221">
        <ele>56.38</ele>
        <time>2021-03-20T14:26:42Z</time>
      </trkpt>
      <trkpt lat="55.40691" lon="-4.6117">
        <ele>58.01</ele>
        <time>2021-03-20T14:26:46Z</time>
      </trkpt>
      <trkpt lat="55.40651" lon="-4.61135">
        <ele>60.21</ele>
        <time>2021-03-20T14:26:50Z</time>
      </trkpt>
      <trkpt lat="55.40584" lon="-4.61084">
        <ele>64.92</ele>
        <time>2021-03-20T14:26:54Z</time>
      </trkpt>
      <trkpt lat="55.40556" lon="-4.61053">
        <ele>66.1</ele>
        <time>2021-03-20T14:26:58Z</time>
      </trkpt>
      <trkpt lat="55.40365" lon="-4.60545">
        <ele>76.39</ele>
        <time>2021-03-20T14:27:02Z</time>
      </trkpt>
      <trkpt lat="55.403" lon="-4.60399">
        <ele>79.41</ele>
        <time>2021-03-20T14:27:06Z</time>
      </trkpt>
      <trkpt lat="55.40242" lon="-4.60299">
        <ele>81.18</ele>
        <time>2021-03-20T14:27:10Z</time>
      </trkpt>
      <trkpt lat="55.40218" lon="-4.6025">
        <ele>81.99</ele>
        <time>2021-03-20T14:27:14Z</time>
      </trkpt>
      <trkpt lat="55.40209" lon="-4.6021">
        <ele>83</ele>
        <time>2021-03-20T14:27:18Z</time>
      </trkpt>
      <trkpt lat="55.40219" lon="-4.60077">
        <ele>86.22</ele>
        <time>2021-03-20T14:27:22Z</time>
      </trkpt>
      <trkpt lat="55.40221" lon="-4.60003">
        <ele>87.88</ele>
        <time>2021-03-20T14:27:26Z</time>
      </trkpt>
      <trkpt lat="55.40209" lon="-4.59904">
        <ele>87</ele>
        <time>2021-03-20T14:27:30Z</time>
      </trkpt>
      <trkpt lat="55.40192" lon="-4.5982">
        <ele>87.1</ele>
        <time>2021-03-20T14:27:34Z</time>
      </trkpt>
      <trkpt lat="55.40168" lon="-4.59741">
        <ele>85.74</ele>
        <time>2021-03-20T14:27:38Z</time>
      </trkpt>
      <trkpt lat="55.40147" lon="-4.59656">
        <ele>83.04</ele>
        <time>2021-03-20T14:27:42Z</time>
      </trkpt>
      <trkpt lat="55.40142" lon="-4.59642">
        <ele>82.32</ele>
        <time>2021-03-20T14:27:46Z</time>
      </trkpt>
      <trkpt lat="55.40119" lon="-4.59588">
        <ele>78.93</ele>
        <time>2021-03-20T14:27:50Z</time>
      </trkpt>
      <trkpt lat="55.4008" lon="-4.59556">
        <ele>73.63</ele>
        <time>2021-03-20T14:27:54Z</time>
      </trkpt>
      <trkpt lat="55.40046" lon="-4.59552">
        <ele>70.13</ele>
        <time>2021-03-20T14:27:58Z</time>
      </trkpt>
      <trkpt lat="55.40016" lon="-4.59561">
        <ele>68.29</ele>
        <time>2021-03-20T14:28:02Z</time>
      </trkpt>
      <trkpt lat="55.39984" lon="-4.59586">
        <ele>66.94</ele>
        <time>2021-03-20T14:28:06Z</time>
      </trkpt>
      <trkpt lat="55.39958" lon="-4.59614">
        <ele>64.73</ele>
        <time>2021-03-20T14:28:10Z</time>
      </trkpt>
      <trkpt lat="55.39923" lon="-4.59642">
        <ele>62.9</ele>
        <time>2021-03-20T14:28:14Z</time>
      </trkpt>
      <trkpt lat="55.3989" lon="-4.59647">
        <ele>60.65</ele>
        <time>2021-03-20T14:28:18Z</time>
      </trkpt>
      <trkpt lat="55.39848" lon="-4.59638">
        <ele>58.05</ele>
        <time>2021-03-20T14:28:22Z</time>
      </trkpt>
      <trkpt lat="55.39822" lon="-4.59604">
        <ele>55.6</ele>
        <time>2021-03-20T14:28:26Z</time>
      </trkpt>
      <trkpt lat="55.39808" lon="-4.59579">
        <ele>55.07</ele>
        <time>2021-03-20T14:28:30Z</time>
      </trkpt>
      <trkpt lat="55.39803" lon="-4.59569">
        <ele>54.95</ele>
        <time>2021-03-20T14:28:34Z</time>
      </trkpt>
      <trkpt lat="55.39792" lon="-4.5953">
        <ele>55</ele>
        <time>2021-03-20T14:28:38Z</time>
      </trkpt>
      <trkpt lat="55.39782" lon="-4.59486">
        <ele>55.85</ele>
        <time>2021-03-20T14:28:42Z</time>
      </trkpt>
      <trkpt lat="55.39764" lon="-4.5939">
        <ele>55.47</ele>
        <time>2021-03-20T14:28:46Z</time>
      </trkpt>
      <trkpt lat="55.39717" lon="-4.59219">
        <ele>56.82</ele>
        <time>2021-03-20T14:28:50Z</time>
      </trkpt>
      <trkpt lat="55.39574" lon="-4.59295">
        <ele>54.16</ele>
        <time>2021-03-20T14:28:53Z</time>
      </trkpt>
      <trkpt lat="55.39564" lon="-4.59299">
        <ele>54.78</ele>
        <time>2021-03-20T14:28:57Z</time>
      </trkpt>
      <trkpt lat="55.3954" lon="-4.59304">
        <ele>56.26</ele>
        <time>2021-03-20T14:29:00Z</time>
      </trkpt>
      <trkpt lat="55.39428" lon="-4.59299">
        <ele>56.25</ele>
        <time>2021-03-20T14:29:04Z</time>
      </trkpt>
      <trkpt lat="55.394" lon="-4.59306">
        <ele>56.62</ele>
        <time>2021-03-20T14:29:07Z</time>
      </trkpt>
      <trkpt lat="55.39376" lon="-4.59331">
        <ele>56.13</ele>
        <time>2021-03-20T14:29:10Z</time>
      </trkpt>
      <trkpt lat="55.39213" lon="-4.59602">
        <ele>51.77</ele>
        <time>2021-03-20T14:29:14Z</time>
      </trkpt>
      <trkpt lat="55.39178" lon="-4.59654">
        <ele>51.27</ele>
        <time>2021-03-20T14:29:17Z</time>
      </trkpt>
      <trkpt lat="55.39109" lon="-4.59735">
        <ele>50.7</ele>
        <time>2021-03-20T14:29:21Z</time>
      </trkpt>
      <trkpt lat="55.39005" lon="-4.59829">
        <ele>50.1</ele>
        <time>2021-03-20T14:29:24Z</time>
      </trkpt>
      <trkpt lat="55.38986" lon="-4.5986">
        <ele>49.58</ele>
        <time>2021-03-20T14:29:27Z</time>
      </trkpt>
      <trkpt lat="55.38955" lon="-4.59886">
        <ele>50.92</ele>
        <time>2021-03-20T14:29:31Z</time>
      </trkpt>
      <trkpt lat="55.38924" lon="-4.59883">
        <ele>52.95</ele>
        <time>2021-03-20T14:29:34Z</time>
      </trkpt>
      <trkpt lat="55.38685" lon="-4.59798">
        <ele>53</ele>
        <time>2021-03-20T14:29:37Z</time>
      </trkpt>
      <trkpt lat="55.38651" lon="-4.59804">
        <ele>52.63</ele>
        <time>2021-03-20T14:29:41Z</time>
      </trkpt>
      <trkpt lat="55.38624" lon="-4.59823">
        <ele>52.94</ele>
        <time>2021-03-20T14:29:44Z</time>
      </trkpt>
      <trkpt lat="55.38606" lon="-4.59857">
        <ele>53</ele>
        <time>2021-03-20T14:29:48Z</time>
      </trkpt>
      <trkpt lat="55.38515" lon="-4.60194">
        <ele>59.99</ele>
        <time>2021-03-20T14:29:51Z</time>
      </trkpt>
      <trkpt lat="55.38488" lon="-4.60259">
        <ele>63.33</ele>
        <time>2021-03-20T14:29:54Z</time>
      </trkpt>
      <trkpt lat="55.38455" lon="-4.6032">
        <ele>63.74</ele>
        <time>2021-03-20T14:29:58Z</time>
      </trkpt>
      <trkpt lat="55.38403" lon="-4.60446">
        <ele>65.53</ele>
        <time>2021-03-20T14:30:01Z</time>
      </trkpt>
      <trkpt lat="55.38384" lon="-4.60517">
        <ele>66.42</ele>
        <time>2021-03-20T14:30:05Z</time>
      </trkpt>
      <trkpt lat="55.38373" lon="-4.60582">
        <ele>67.82</ele>
        <time>2021-03-20T14:30:08Z</time>
      </trkpt>
      <trkpt lat="55.38356" lon="-4.60641">
        <ele>66.61</ele>
        <time>2021-03-20T14:30:11Z</time>
      </trkpt>
      <trkpt lat="55.38325" lon="-4.60683">
        <ele>65.42</ele>
        <time>2021-03-20T14:30:15Z</time>
      </trkpt>
      <trkpt lat="55.38251" lon="-4.60753">
        <ele>65.94</ele>
        <time>2021-03-20T14:30:18Z</time>
      </trkpt>
      <trkpt lat="55.3822" lon="-4.60806">
        <ele>67.17</ele>
        <time>2021-03-20T14:30:22Z</time>
      </trkpt>
      <trkpt lat="55.38196" lon="-4.60865">
        <ele>67.72</ele>
        <time>2021-03-20T14:30:25Z</time>
      </trkpt>
      <trkpt lat="55.38186" lon="-4.60979">
        <ele>69.59</ele>
        <time>2021-03-20T14:30:28Z</time>
      </trkpt>
      <trkpt lat="55.38169" lon="-4.61028">
        <ele>70.81</ele>
        <time>2021-03-20T14:30:32Z</time>
      </trkpt>
      <trkpt lat="55.38148" lon="-4.61079">
        <ele>71.52</ele>
        <time>2021-03-20T14:30:35Z</time>
      </trkpt>
      <trkpt lat="55.38126" lon="-4.61124">
        <ele>72.69</ele>
        <time>2021-03-20T14:30:39Z</time>
      </trkpt>
      <trkpt lat="55.38103" lon="-4.61188">
        <ele>73.64</ele>
        <time>2021-03-20T14:30:42Z</time>
      </trkpt>
      <trkpt lat="55.38085" lon="-4.61264">
        <ele>74.86</ele>
        <time>2021-03-20T14:30:45Z</time>
      </trkpt>
      <trkpt lat="55.38061" lon="-4.61329">
        <ele>75.62</ele>
        <time>2021-03-20T14:30:49Z</time>
      </trkpt>
      <trkpt lat="55.38032" lon="-4.6139">
        <ele>76.47</ele>
        <time>2021-03-20T14:30:52Z</time>
      </trkpt>
      <trkpt lat="55.37968" lon="-4.61512">
        <ele>76.44</ele>
        <time>2021-03-20T14:30:56Z</time>
      </trkpt>
      <trkpt lat="55.37861" lon="-4.61669">
        <ele>77.95</ele>
        <time>2021-03-20T14:30:59Z</time>
      </trkpt>
      <trkpt lat="55.37811" lon="-4.61804">
        <ele>83.69</ele>
        <time>2021-03-20T14:31:02Z</time>
      </trkpt>
      <trkpt lat="55.37783" lon="-4.61966">
        <ele>85.78</ele>
        <time>2021-03-20T14:31:06Z</time>
      </trkpt>
      <trkpt lat="55.37754" lon="-4.62088">
        <ele>84.11</ele>
        <time>2021-03-20T14:31:09Z</time>
      </trkpt>
      <trkpt lat="55.3773" lon="-4.62149">
        <ele>85.66</ele>
        <time>2021-03-20T14:31:12Z</time>
      </trkpt>
      <trkpt lat="55.37702" lon="-4.62197">
        <ele>85.36</ele>
        <time>2021-03-20T14:31:16Z</time>
      </trkpt>
      <trkpt lat="55.37673" lon="-4.62242">
        <ele>84.34</ele>
        <time>2021-03-20T14:31:19Z</time>
      </trkpt>
      <trkpt lat="55.37653" lon="-4.62312">
        <ele>81</ele>
        <time>2021-03-20T14:31:23Z</time>
      </trkpt>
      <trkpt lat="55.3764" lon="-4.62373">
        <ele>80.97</ele>
        <time>2021-03-20T14:31:26Z</time>
      </trkpt>
      <trkpt lat="55.37631" lon="-4.62421">
        <ele>80.28</ele>
        <time>2021-03-20T14:31:29Z</time>
      </trkpt>
      <trkpt lat="55.37629" lon="-4.62461">
        <ele>79.21</ele>
        <time>2021-03-20T14:31:33Z</time>
      </trkpt>
      <trkpt lat="55.3763" lon="-4.62488">
        <ele>77.57</ele>
        <time>2021-03-20T14:31:36Z</time>
      </trkpt>
      <trkpt lat="55.37643" lon="-4.62567">
        <ele>74.59</ele>
        <time>2021-03-20T14:31:40Z</time>
      </trkpt>
      <trkpt lat="55.37667" lon="-4.62681">
        <ele>72.5</ele>
        <time>2021-03-20T14:31:43Z</time>
      </trkpt>
      <trkpt lat="55.37676" lon="-4.62747">
        <ele>71.13</ele>
        <time>2021-03-20T14:31:46Z</time>
      </trkpt>
      <trkpt lat="55.37686" lon="-4.62824">
        <ele>69.47</ele>
        <time>2021-03-20T14:31:50Z</time>
      </trkpt>
      <trkpt lat="55.37688" lon="-4.62862">
        <ele>67.75</ele>
        <time>2021-03-20T14:31:53Z</time>
      </trkpt>
      <trkpt lat="55.37688" lon="-4.62898">
        <ele>66.67</ele>
        <time>2021-03-20T14:31:57Z</time>
      </trkpt>
      <trkpt lat="55.37685" lon="-4.62926">
        <ele>65.78</ele>
        <time>2021-03-20T14:32:00Z</time>
      </trkpt>
      <trkpt lat="55.37677" lon="-4.62965">
        <ele>64.13</ele>
        <time>2021-03-20T14:32:03Z</time>
      </trkpt>
      <trkpt lat="55.37667" lon="-4.63001">
        <ele>62.94</ele>
        <time>2021-03-20T14:32:07Z</time>
      </trkpt>
      <trkpt lat="55.37654" lon="-4.63035">
        <ele>61.65</ele>
        <time>2021-03-20T14:32:10Z</time>
      </trkpt>
      <trkpt lat="55.37606" lon="-4.63142">
        <ele>60.2</ele>
        <time>2021-03-20T14:32:14Z</time>
      </trkpt>
      <trkpt lat="55.37535" lon="-4.63181">
        <ele>58.84</ele>
        <time>2021-03-20T14:32:17Z</time>
      </trkpt>
      <trkpt lat="55.37469" lon="-4.63234">
        <ele>56.31</ele>
        <time>2021-03-20T14:32:20Z</time>
      </trkpt>
      <trkpt lat="55.37413" lon="-4.63291">
        <ele>52.67</ele>
        <time>2021-03-20T14:32:24Z</time>
      </trkpt>
      <trkpt lat="55.37397" lon="-4.63324">
        <ele>50.39</ele>
        <time>2021-03-20T14:32:27Z</time>
      </trkpt>
      <trkpt lat="55.37391" lon="-4.6336">
        <ele>48.97</ele>
        <time>2021-03-20T14:32:30Z</time>
      </trkpt>
      <trkpt lat="55.37398" lon="-4.63414">
        <ele>48.89</ele>
        <time>2021-03-20T14:32:34Z</time>
      </trkpt>
      <trkpt lat="55.37335" lon="-4.63442">
        <ele>48.05</ele>
        <time>2021-03-20T14:32:38Z</time>
      </trkpt>
      <trkpt lat="55.37248" lon="-4.6349">
        <ele>48.08</ele>
        <time>2021-03-20T14:32:42Z</time>
      </trkpt>
      <trkpt lat="55.37163" lon="-4.63546">
        <ele>48</ele>
        <time>2021-03-20T14:32:46Z</time>
      </trkpt>
      <trkpt lat="55.37121" lon="-4.6358">
        <ele>49.54</ele>
        <time>2021-03-20T14:32:50Z</time>
      </trkpt>
      <trkpt lat="55.37084" lon="-4.63633">
        <ele>50.02</ele>
        <time>2021-03-20T14:32:55Z</time>
      </trkpt>
      <trkpt lat="55.37013" lon="-4.63752">
        <ele>49.96</ele>
        <time>2021-03-20T14:32:59Z</time>
      </trkpt>
      <trkpt lat="55.36871" lon="-4.64002">
        <ele>48.92</ele>
        <time>2021-03-20T14:33:03Z</time>
      </trkpt>
      <trkpt lat="55.36773" lon="-4.64189">
        <ele>48.53</ele>
        <time>2021-03-20T14:33:07Z</time>
      </trkpt>
      <trkpt lat="55.36739" lon="-4.64239">
        <ele>48.06</ele>
        <time>2021-03-20T14:33:11Z</time>
      </trkpt>
      <trkpt lat="55.36574" lon="-4.64457">
        <ele>49.87</ele>
        <time>2021-03-20T14:33:15Z</time>
      </trkpt>
      <trkpt lat="55.3654" lon="-4.64484">
        <ele>49.82</ele>
        <time>2021-03-20T14:33:19Z</time>
      </trkpt>
      <trkpt lat="55.36503" lon="-4.6449">
        <ele>50</ele>
        <time>2021-03-20T14:33:23Z</time>
      </trkpt>
      <trkpt lat="55.36382" lon="-4.64499">
        <ele>51.01</ele>
        <time>2021-03-20T14:33:28Z</time>
      </trkpt>
      <trkpt lat="55.36344" lon="-4.64512">
        <ele>50.9</ele>
        <time>2021-03-20T14:33:32Z</time>
      </trkpt>
      <trkpt lat="55.36275" lon="-4.64562">
        <ele>48.21</ele>
        <time>2021-03-20T14:33:36Z</time>
      </trkpt>
      <trkpt lat="55.36081" lon="-4.64611">
        <ele>49.01</ele>
        <time>2021-03-20T14:33:40Z</time>
      </trkpt>
      <trkpt lat="55.36048" lon="-4.64615">
        <ele>48.97</ele>
        <time>2021-03-20T14:33:44Z</time>
      </trkpt>
      <trkpt lat="55.36018" lon="-4.64594">
        <ele>49</ele>
        <time>2021-03-20T14:33:48Z</time>
      </trkpt>
      <trkpt lat="55.35991" lon="-4.64555">
        <ele>49.69</ele>
        <time>2021-03-20T14:33:52Z</time>
      </trkpt>
      <trkpt lat="55.35959" lon="-4.64519">
        <ele>51.78</ele>
        <time>2021-03-20T14:33:56Z</time>
      </trkpt>
      <trkpt lat="55.35925" lon="-4.64496">
        <ele>53.78</ele>
        <time>2021-03-20T14:34:01Z</time>
      </trkpt>
      <trkpt lat="55.35891" lon="-4.64505">
        <ele>54.75</ele>
        <time>2021-03-20T14:34:05Z</time>
      </trkpt>
      <trkpt lat="55.35858" lon="-4.6453">
        <ele>55</ele>
        <time>2021-03-20T14:34:09Z</time>
      </trkpt>
      <trkpt lat="55.35829" lon="-4.64572">
        <ele>55.06</ele>
        <time>2021-03-20T14:34:13Z</time>
      </trkpt>
      <trkpt lat="55.35781" lon="-4.64678">
        <ele>56.92</ele>
        <time>2021-03-20T14:34:17Z</time>
      </trkpt>
      <trkpt lat="55.35748" lon="-4.64705">
        <ele>56.55</ele>
        <time>2021-03-20T14:34:21Z</time>
      </trkpt>
      <trkpt lat="55.35709" lon="-4.64719">
        <ele>55.12</ele>
        <time>2021-03-20T14:34:25Z</time>
      </trkpt>
      <trkpt lat="55.35629" lon="-4.64722">
        <ele>55.66</ele>
        <time>2021-03-20T14:34:30Z</time>
      </trkpt>
      <trkpt lat="55.35594" lon="-4.64715">
        <ele>56</ele>
        <time>2021-03-20T14:34:34Z</time>
      </trkpt>
      <trkpt lat="55.35558" lon="-4.64699">
        <ele>56.08</ele>
        <time>2021-03-20T14:34:38Z</time>
      </trkpt>
      <trkpt lat="55.35467" lon="-4.64615">
        <ele>52.36</ele>
        <time>2021-03-20T14:34:42Z</time>
      </trkpt>
      <trkpt lat="55.35432" lon="-4.64594">
        <ele>54.88</ele>
        <time>2021-03-20T14:34:46Z</time>
      </trkpt>
      <trkpt lat="55.35398" lon="-4.64581">
        <ele>56.17</ele>
        <time>2021-03-20T14:34:50Z</time>
      </trkpt>
      <trkpt lat="55.35369" lon="-4.64557">
        <ele>57.23</ele>
        <time>2021-03-20T14:34:54Z</time>
      </trkpt>
      <trkpt lat="55.3503" lon="-4.64013">
        <ele>66</ele>
        <time>2021-03-20T14:34:58Z</time>
      </trkpt>
      <trkpt lat="55.35017" lon="-4.63995">
        <ele>66</ele>
        <time>2021-03-20T14:35:03Z</time>
      </trkpt>
      <trkpt lat="55.34979" lon="-4.63951">
        <ele>65.81</ele>
        <time>2021-03-20T14:35:07Z</time>
      </trkpt>
      <trkpt lat="55.34949" lon="-4.63902">
        <ele>66</ele>
        <time>2021-03-20T14:35:11Z</time>
      </trkpt>
      <trkpt lat="55.34894" lon="-4.63846">
        <ele>66.74</ele>
        <time>2021-03-20T14:35:15Z</time>
      </trkpt>
      <trkpt lat="55.34884" lon="-4.63842">
        <ele>66.63</ele>
        <time>2021-03-20T14:35:19Z</time>
      </trkpt>
      <trkpt lat="55.34866" lon="-4.63843">
        <ele>66.42</ele>
        <time>2021-03-20T14:35:23Z</time>
      </trkpt>
      <trkpt lat="55.34855" lon="-4.63851">
        <ele>66.39</ele>
        <time>2021-03-20T14:35:27Z</time>
      </trkpt>
      <trkpt lat="55.34799" lon="-4.63899">
        <ele>65.12</ele>
        <time>2021-03-20T14:35:31Z</time>
      </trkpt>
      <trkpt lat="55.34633" lon="-4.64029">
        <ele>67.21</ele>
        <time>2021-03-20T14:35:35Z</time>
      </trkpt>
      <trkpt lat="55.34609" lon="-4.6405">
        <ele>68</ele>
        <time>2021-03-20T14:35:39Z</time>
      </trkpt>
      <trkpt lat="55.34601" lon="-4.64063">
        <ele>68.09</ele>
        <time>2021-03-20T14:35:43Z</time>
      </trkpt>
      <trkpt lat="55.34591" lon="-4.64083">
        <ele>68.72</ele>
        <time>2021-03-20T14:35:47Z</time>
      </trkpt>
      <trkpt lat="55.34564" lon="-4.64161">
        <ele>69.69</ele>
        <time>2021-03-20T14:35:51Z</time>
      </trkpt>
      <trkpt lat="55.34419" lon="-4.64554">
        <ele>62</ele>
        <time>2021-03-20T14:35:55Z</time>
      </trkpt>
      <trkpt lat="55.34412" lon="-4.64586">
        <ele>62.98</ele>
        <time>2021-03-20T14:35:59Z</time>
      </trkpt>
      <trkpt lat="55.34389" lon="-4.64727">
        <ele>58.17</ele>
        <time>2021-03-20T14:36:03Z</time>
      </trkpt>
      <trkpt lat="55.34367" lon="-4.64851">
        <ele>60.29</ele>
        <time>2021-03-20T14:36:07Z</time>
      </trkpt>
      <trkpt lat="55.34348" lon="-4.64921">
        <ele>59.47</ele>
        <time>2021-03-20T14:36:11Z</time>
      </trkpt>
      <trkpt lat="55.34328" lon="-4.64984">
        <ele>58</ele>
        <time>2021-03-20T14:36:15Z</time>
      </trkpt>
      <trkpt lat="55.34296" lon="-4.65049">
        <ele>57.41</ele>
        <time>2021-03-20T14:36:19Z</time>
      </trkpt>
      <trkpt lat="55.34244" lon="-4.65116">
        <ele>56.82</ele>
        <time>2021-03-20T14:36:23Z</time>
      </trkpt>
      <trkpt lat="55.34042" lon="-4.64887">
        <ele>59.61</ele>
        <time>2021-03-20T14:36:32Z</time>
      </trkpt>
      <trkpt lat="55.34012" lon="-4.64857">
        <ele>59.6</ele>
        <time>2021-03-20T14:36:41Z</time>
      </trkpt>
      <trkpt lat="55.33958" lon="-4.6482">
        <ele>57.94</ele>
        <time>2021-03-20T14:36:50Z</time>
      </trkpt>
      <trkpt lat="55.33741" lon="-4.64715">
        <ele>66</ele>
        <time>2021-03-20T14:36:59Z</time>
      </trkpt>
      <trkpt lat="55.33044" lon="-4.64414">
        <ele>42.5</ele>
        <time>2021-03-20T14:37:08Z</time>
      </trkpt>
      <trkpt lat="55.3301" lon="-4.64397">
        <ele>40.63</ele>
        <time>2021-03-20T14:37:17Z</time>
      </trkpt>
      <trkpt lat="55.32958" lon="-4.64376">
        <ele>39</ele>
        <time>2021-03-20T14:37:26Z</time>
      </trkpt>
      <trkpt lat="55.32769" lon="-4.64312">
        <ele>39.67</ele>
        <time>2021-03-20T14:37:35Z</time>
      </trkpt>
      <trkpt lat="55.32704" lon="-4.64301">
        <ele>39.7</ele>
        <time>2021-03-20T14:37:44Z</time>
      </trkpt>
      <trkpt lat="55.32685" lon="-4.64295">
        <ele>40</ele>
        <time>2021-03-20T14:37:53Z</time>
      </trkpt>
      <trkpt lat="55.32667" lon="-4.64284">
        <ele>40</ele>
        <time>2021-03-20T14:38:02Z</time>
      </trkpt>
      <trkpt lat="55.32613" lon="-4.64238">
        <ele>42.31</ele>
        <time>2021-03-20T14:38:11Z</time>
      </trkpt>
      <trkpt lat="55.32536" lon="-4.64167">
        <ele>41.29</ele>
        <time>2021-03-20T14:38:20Z</time>
      </trkpt>
      <trkpt lat="55.32468" lon="-4.64098">
        <ele>43.56</ele>
        <time>2021-03-20T14:38:29Z</time>
      </trkpt>
      <trkpt lat="55.32449" lon="-4.64125">
        <ele>43.75</ele>
        <time>2021-03-20T14:38:32Z</time>
      </trkpt>
      <trkpt lat="55.32443" lon="-4.64138">
        <ele>44.1</ele>
        <time>2021-03-20T14:38:35Z</time>
      </trkpt>
      <trkpt lat="55.32432" lon="-4.64169">
        <ele>44.96</ele>
        <time>2021-03-20T14:38:38Z</time>
      </trkpt>
      <trkpt lat="55.32428" lon="-4.64186">
        <ele>45.59</ele>
        <time>2021-03-20T14:38:41Z</time>
      </trkpt>
      <trkpt lat="55.32418" lon="-4.64269">
        <ele>45.87</ele>
        <time>2021-03-20T14:38:44Z</time>
      </trkpt>
      <trkpt lat="55.32409" lon="-4.64315">
        <ele>46.28</ele>
        <time>2021-03-20T14:38:47Z</time>
      </trkpt>
      <trkpt lat="55.32399" lon="-4.64352">
        <ele>45.99</ele>
        <time>2021-03-20T14:38:50Z</time>
      </trkpt>
      <trkpt lat="55.32387" lon="-4.64381">
        <ele>46.06</ele>
        <time>2021-03-20T14:38:53Z</time>
      </trkpt>
      <trkpt lat="55.32325" lon="-4.6449">
        <ele>44</ele>
        <time>2021-03-20T14:38:56Z</time>
      </trkpt>
      <trkpt lat="55.32252" lon="-4.64644">
        <ele>43.85</ele>
        <time>2021-03-20T14:39:00Z</time>
      </trkpt>
      <trkpt lat="55.32234" lon="-4.64673">
        <ele>45.61</ele>
        <time>2021-03-20T14:39:03Z</time>
      </trkpt>
      <trkpt lat="55.32197" lon="-4.64727">
        <ele>50.54</ele>
        <time>2021-03-20T14:39:06Z</time>
      </trkpt>
      <trkpt lat="55.31977" lon="-4.65023">
        <ele>50</ele>
        <time>2021-03-20T14:39:09Z</time>
      </trkpt>
      <trkpt lat="55.31946" lon="-4.65078">
        <ele>49.14</ele>
        <time>2021-03-20T14:39:12Z</time>
      </trkpt>
      <trkpt lat="55.31911" lon="-4.65145">
        <ele>50.58</ele>
        <time>2021-03-20T14:39:15Z</time>
      </trkpt>
      <trkpt lat="55.31838" lon="-4.65251">
        <ele>49.65</ele>
        <time>2021-03-20T14:39:18Z</time>
      </trkpt>
      <trkpt lat="55.3176" lon="-4.65351">
        <ele>50.77</ele>
        <time>2021-03-20T14:39:21Z</time>
      </trkpt>
      <trkpt lat="55.31685" lon="-4.65455">
        <ele>51.31</ele>
        <time>2021-03-20T14:39:24Z</time>
      </trkpt>
      <trkpt lat="55.31578" lon="-4.65598">
        <ele>58.41</ele>
        <time>2021-03-20T14:39:27Z</time>
      </trkpt>
      <trkpt lat="55.31557" lon="-4.65621">
        <ele>59.19</ele>
        <time>2021-03-20T14:39:30Z</time>
      </trkpt>
      <trkpt lat="55.31521" lon="-4.6565">
        <ele>59.34</ele>
        <time>2021-03-20T14:39:33Z</time>
      </trkpt>
      <trkpt lat="55.3149" lon="-4.65666">
        <ele>57.67</ele>
        <time>2021-03-20T14:39:36Z</time>
      </trkpt>
      <trkpt lat="55.3143" lon="-4.65687">
        <ele>57.52</ele>
        <time>2021-03-20T14:39:39Z</time>
      </trkpt>
      <trkpt lat="55.31418" lon="-4.65694">
        <ele>57.97</ele>
        <time>2021-03-20T14:39:42Z</time>
      </trkpt>
      <trkpt lat="55.3141" lon="-4.65705">
        <ele>57.53</ele>
        <time>2021-03-20T14:39:45Z</time>
      </trkpt>
      <trkpt lat="55.31374" lon="-4.65816">
        <ele>51.9</ele>
        <time>2021-03-20T14:39:48Z</time>
      </trkpt>
      <trkpt lat="55.31352" lon="-4.65853">
        <ele>51.95</ele>
        <time>2021-03-20T14:39:51Z</time>
      </trkpt>
      <trkpt lat="55.31332" lon="-4.65859">
        <ele>52.83</ele>
        <time>2021-03-20T14:39:55Z</time>
      </trkpt>
      <trkpt lat="55.31287" lon="-4.65848">
        <ele>51.72</ele>
        <time>2021-03-20T14:39:58Z</time>
      </trkpt>
      <trkpt lat="55.31264" lon="-4.65858">
        <ele>50.56</ele>
        <time>2021-03-20T14:40:01Z</time>
      </trkpt>
      <trkpt lat="55.31246" lon="-4.65882">
        <ele>49.99</ele>
        <time>2021-03-20T14:40:04Z</time>
      </trkpt>
      <trkpt lat="55.31197" lon="-4.65985">
        <ele>49.39</ele>
        <time>2021-03-20T14:40:07Z</time>
      </trkpt>
      <trkpt lat="55.31142" lon="-4.66087">
        <ele>49.85</ele>
        <time>2021-03-20T14:40:10Z</time>
      </trkpt>
      <trkpt lat="55.31099" lon="-4.66212">
        <ele>46.74</ele>
        <time>2021-03-20T14:40:13Z</time>
      </trkpt>
      <trkpt lat="55.31078" lon="-4.66304">
        <ele>47.51</ele>
        <time>2021-03-20T14:40:16Z</time>
      </trkpt>
      <trkpt lat="55.31049" lon="-4.66383">
        <ele>43.14</ele>
        <time>2021-03-20T14:40:19Z</time>
      </trkpt>
      <trkpt lat="55.31042" lon="-4.66414">
        <ele>42.85</ele>
        <time>2021-03-20T14:40:22Z</time>
      </trkpt>
      <trkpt lat="55.31023" lon="-4.66512">
        <ele>39.44</ele>
        <time>2021-03-20T14:40:25Z</time>
      </trkpt>
      <trkpt lat="55.31017" lon="-4.66524">
        <ele>38.83</ele>
        <time>2021-03-20T14:40:28Z</time>
      </trkpt>
      <trkpt lat="55.30979" lon="-4.66563">
        <ele>39.7</ele>
        <time>2021-03-20T14:40:31Z</time>
      </trkpt>
      <trkpt lat="55.30819" lon="-4.66712">
        <ele>47.04</ele>
        <time>2021-03-20T14:40:34Z</time>
      </trkpt>
      <trkpt lat="55.3066" lon="-4.66871">
        <ele>43.26</ele>
        <time>2021-03-20T14:40:37Z</time>
      </trkpt>
      <trkpt lat="55.30589" lon="-4.66982">
        <ele>43.66</ele>
        <time>2021-03-20T14:40:40Z</time>
      </trkpt>
      <trkpt lat="55.30517" lon="-4.67064">
        <ele>38.16</ele>
        <time>2021-03-20T14:40:43Z</time>
      </trkpt>
      <trkpt lat="55.30401" lon="-4.67228">
        <ele>37.22</ele>
        <time>2021-03-20T14:40:46Z</time>
      </trkpt>
      <trkpt lat="55.30368" lon="-4.673">
        <ele>38.92</ele>
        <time>2021-03-20T14:40:50Z</time>
      </trkpt>
      <trkpt lat="55.30339" lon="-4.67341">
        <ele>41.01</ele>
        <time>2021-03-20T14:40:53Z</time>
      </trkpt>
      <trkpt lat="55.30306" lon="-4.67383">
        <ele>40.62</ele>
        <time>2021-03-20T14:40:56Z</time>
      </trkpt>
      <trkpt lat="55.30294" lon="-4.67403">
        <ele>39.54</ele>
        <time>2021-03-20T14:40:59Z</time>
      </trkpt>
      <trkpt lat="55.30265" lon="-4.67466">
        <ele>37.83</ele>
        <time>2021-03-20T14:41:02Z</time>
      </trkpt>
      <trkpt lat="55.30248" lon="-4.67507">
        <ele>37.22</ele>
        <time>2021-03-20T14:41:05Z</time>
      </trkpt>
      <trkpt lat="55.302" lon="-4.67643">
        <ele>38.76</ele>
        <time>2021-03-20T14:41:08Z</time>
      </trkpt>
      <trkpt lat="55.30189" lon="-4.67668">
        <ele>38.47</ele>
        <time>2021-03-20T14:41:11Z</time>
      </trkpt>
      <trkpt lat="55.30179" lon="-4.67684">
        <ele>37.92</ele>
        <time>2021-03-20T14:41:14Z</time>
      </trkpt>
      <trkpt lat="55.30157" lon="-4.67706">
        <ele>36.14</ele>
        <time>2021-03-20T14:41:17Z</time>
      </trkpt>
      <trkpt lat="55.30109" lon="-4.67742">
        <ele>33.53</ele>
        <time>2021-03-20T14:41:20Z</time>
      </trkpt>
      <trkpt lat="55.3007" lon="-4.67782">
        <ele>32.34</ele>
        <time>2021-03-20T14:41:23Z</time>
      </trkpt>
      <trkpt lat="55.30043" lon="-4.67816">
        <ele>32.68</ele>
        <time>2021-03-20T14:41:26Z</time>
      </trkpt>
      <trkpt lat="55.30015" lon="-4.67869">
        <ele>31.95</ele>
        <time>2021-03-20T14:41:29Z</time>
      </trkpt>
      <trkpt lat="55.29997" lon="-4.67908">
        <ele>32.2</ele>
        <time>2021-03-20T14:41:32Z</time>
      </trkpt>
      <trkpt lat="55.29966" lon="-4.67994">
        <ele>33.12</ele>
        <time>2021-03-20T14:41:35Z</time>
      </trkpt>
      <trkpt lat="55.29956" lon="-4.6803">
        <ele>33.25</ele>
        <time>2021-03-20T14:41:38Z</time>
      </trkpt>
      <trkpt lat="55.29949" lon="-4.68069">
        <ele>32.5</ele>
        <time>2021-03-20T14:41:41Z</time>
      </trkpt>
      <trkpt lat="55.29944" lon="-4.68107">
        <ele>32</ele>
        <time>2021-03-20T14:41:45Z</time>
      </trkpt>
      <trkpt lat="55.2993" lon="-4.68279">
        <ele>33.92</ele>
        <time>2021-03-20T14:41:48Z</time>
      </trkpt>
      <trkpt lat="55.29917" lon="-4.68476">
        <ele>34</ele>
        <time>2021-03-20T14:41:51Z</time>
      </trkpt>
      <trkpt lat="55.29908" lon="-4.68695">
        <ele>33</ele>
        <time>2021-03-20T14:41:54Z</time>
      </trkpt>
      <trkpt lat="55.29906" lon="-4.68716">
        <ele>33</ele>
        <time>2021-03-20T14:41:57Z</time>
      </trkpt>
      <trkpt lat="55.29899" lon="-4.6875">
        <ele>34</ele>
        <time>2021-03-20T14:42:00Z</time>
      </trkpt>
      <trkpt lat="55.29892" lon="-4.6877">
        <ele>34</ele>
        <time>2021-03-20T14:42:03Z</time>
      </trkpt>
      <trkpt lat="55.29883" lon="-4.68786">
        <ele>33.54</ele>
        <time>2021-03-20T14:42:06Z</time>
      </trkpt>
      <trkpt lat="55.29873" lon="-4.688">
        <ele>32.82</ele>
        <time>2021-03-20T14:42:09Z</time>
      </trkpt>
      <trkpt lat="55.29842" lon="-4.68819">
        <ele>31.64</ele>
        <time>2021-03-20T14:42:12Z</time>
      </trkpt>
      <trkpt lat="55.29826" lon="-4.68823">
        <ele>32.06</ele>
        <time>2021-03-20T14:42:15Z</time>
      </trkpt>
      <trkpt lat="55.29808" lon="-4.68825">
        <ele>33.26</ele>
        <time>2021-03-20T14:42:18Z</time>
      </trkpt>
      <trkpt lat="55.2979" lon="-4.68821">
        <ele>34.81</ele>
        <time>2021-03-20T14:42:21Z</time>
      </trkpt>
      <trkpt lat="55.29722" lon="-4.68791">
        <ele>37.38</ele>
        <time>2021-03-20T14:42:24Z</time>
      </trkpt>
      <trkpt lat="55.29703" lon="-4.68777">
        <ele>35.98</ele>
        <time>2021-03-20T14:42:27Z</time>
      </trkpt>
      <trkpt lat="55.2967" lon="-4.68742">
        <ele>33.43</ele>
        <time>2021-03-20T14:42:30Z</time>
      </trkpt>
      <trkpt lat="55.29655" lon="-4.68733">
        <ele>32.79</ele>
        <time>2021-03-20T14:42:33Z</time>
      </trkpt>
      <trkpt lat="55.29641" lon="-4.68729">
        <ele>32.49</ele>
        <time>2021-03-20T14:42:36Z</time>
      </trkpt>
      <trkpt lat="55.29618" lon="-4.68733">
        <ele>32.06</ele>
        <time>2021-03-20T14:42:40Z</time>
      </trkpt>
      <trkpt lat="55.29606" lon="-4.68741">
        <ele>32.26</ele>
        <time>2021-03-20T14:42:43Z</time>
      </trkpt>
      <trkpt lat="55.29594" lon="-4.68754">
        <ele>32.44</ele>
        <time>2021-03-20T14:42:46Z</time>
      </trkpt>
      <trkpt lat="55.29567" lon="-4.68798">
        <ele>32.44</ele>
        <time>2021-03-20T14:42:49Z</time>
      </trkpt>
      <trkpt lat="55.29508" lon="-4.68929">
        <ele>31.98</ele>
        <time>2021-03-20T14:42:52Z</time>
      </trkpt>
      <trkpt lat="55.29488" lon="-4.68958">
        <ele>32.29</ele>
        <time>2021-03-20T14:42:55Z</time>
      </trkpt>
      <trkpt lat="55.29477" lon="-4.68967">
        <ele>32.15</ele>
        <time>2021-03-20T14:42:58Z</time>
      </trkpt>
      <trkpt lat="55.29465" lon="-4.68971">
        <ele>32.64</ele>
        <time>2021-03-20T14:43:01Z</time>
      </trkpt>
      <trkpt lat="55.29423" lon="-4.68966">
        <ele>34.18</ele>
        <time>2021-03-20T14:43:04Z</time>
      </trkpt>
      <trkpt lat="55.29406" lon="-4.68966">
        <ele>34.8</ele>
        <time>2021-03-20T14:43:07Z</time>
      </trkpt>
      <trkpt lat="55.29334" lon="-4.68986">
        <ele>37.97</ele>
        <time>2021-03-20T14:43:10Z</time>
      </trkpt>
      <trkpt lat="55.29299" lon="-4.68999">
        <ele>37</ele>
        <time>2021-03-20T14:43:13Z</time>
      </trkpt>
      <trkpt lat="55.29247" lon="-4.69025">
        <ele>37.2</ele>
        <time>2021-03-20T14:43:16Z</time>
      </trkpt>
      <trkpt lat="55.29196" lon="-4.69062">
        <ele>38.19</ele>
        <time>2021-03-20T14:43:19Z</time>
      </trkpt>
      <trkpt lat="55.29187" lon="-4.69069">
        <ele>38.6</ele>
        <time>2021-03-20T14:43:22Z</time>
      </trkpt>
      <trkpt lat="55.2912" lon="-4.69144">
        <ele>39.79</ele>
        <time>2021-03-20T14:43:25Z</time>
      </trkpt>
      <trkpt lat="55.29089" lon="-4.69164">
        <ele>39.8</ele>
        <time>2021-03-20T14:43:28Z</time>
      </trkpt>
      <trkpt lat="55.29062" lon="-4.69191">
        <ele>39.22</ele>
        <time>2021-03-20T14:43:31Z</time>
      </trkpt>
      <trkpt lat="55.29048" lon="-4.69214">
        <ele>38.72</ele>
        <time>2021-03-20T14:43:35Z</time>
      </trkpt>
      <trkpt lat="55.29021" lon="-4.69271">
        <ele>39</ele>
        <time>2021-03-20T14:43:38Z</time>
      </trkpt>
      <trkpt lat="55.28956" lon="-4.69422">
        <ele>40.83</ele>
        <time>2021-03-20T14:43:41Z</time>
      </trkpt>
      <trkpt lat="55.28936" lon="-4.69448">
        <ele>39.23</ele>
        <time>2021-03-20T14:43:44Z</time>
      </trkpt>
      <trkpt lat="55.28825" lon="-4.69543">
        <ele>33.97</ele>
        <time>2021-03-20T14:43:47Z</time>
      </trkpt>
      <trkpt lat="55.2881" lon="-4.69551">
        <ele>35.62</ele>
        <time>2021-03-20T14:43:50Z</time>
      </trkpt>
      <trkpt lat="55.28738" lon="-4.69559">
        <ele>43.76</ele>
        <time>2021-03-20T14:43:53Z</time>
      </trkpt>
      <trkpt lat="55.28719" lon="-4.69569">
        <ele>43.21</ele>
        <time>2021-03-20T14:43:56Z</time>
      </trkpt>
      <trkpt lat="55.28705" lon="-4.69584">
        <ele>43.18</ele>
        <time>2021-03-20T14:43:59Z</time>
      </trkpt>
      <trkpt lat="55.28619" lon="-4.69812">
        <ele>31.49</ele>
        <time>2021-03-20T14:44:02Z</time>
      </trkpt>
      <trkpt lat="55.28514" lon="-4.70097">
        <ele>36.96</ele>
        <time>2021-03-20T14:44:05Z</time>
      </trkpt>
      <trkpt lat="55.28487" lon="-4.70178">
        <ele>40.39</ele>
        <time>2021-03-20T14:44:08Z</time>
      </trkpt>
      <trkpt lat="55.28482" lon="-4.70202">
        <ele>41.26</ele>
        <time>2021-03-20T14:44:11Z</time>
      </trkpt>
      <trkpt lat="55.2845" lon="-4.70655">
        <ele>43.58</ele>
        <time>2021-03-20T14:44:14Z</time>
      </trkpt>
      <trkpt lat="55.28443" lon="-4.70702">
        <ele>44.07</ele>
        <time>2021-03-20T14:44:17Z</time>
      </trkpt>
      <trkpt lat="55.28437" lon="-4.7072">
        <ele>44.26</ele>
        <time>2021-03-20T14:44:20Z</time>
      </trkpt>
      <trkpt lat="55.28393" lon="-4.70817">
        <ele>41.79</ele>
        <time>2021-03-20T14:44:23Z</time>
      </trkpt>
      <trkpt lat="55.28318" lon="-4.70968">
        <ele>39.29</ele>
        <time>2021-03-20T14:44:27Z</time>
      </trkpt>
      <trkpt lat="55.2827" lon="-4.71063">
        <ele>34.82</ele>
        <time>2021-03-20T14:44:30Z</time>
      </trkpt>
      <trkpt lat="55.28198" lon="-4.71197">
        <ele>31.99</ele>
        <time>2021-03-20T14:44:33Z</time>
      </trkpt>
      <trkpt lat="55.28188" lon="-4.71212">
        <ele>31.76</ele>
        <time>2021-03-20T14:44:36Z</time>
      </trkpt>
      <trkpt lat="55.28177" lon="-4.71221">
        <ele>31.38</ele>
        <time>2021-03-20T14:44:39Z</time>
      </trkpt>
      <trkpt lat="55.28161" lon="-4.7123">
        <ele>30.92</ele>
        <time>2021-03-20T14:44:42Z</time>
      </trkpt>
      <trkpt lat="55.28133" lon="-4.71241">
        <ele>31.94</ele>
        <time>2021-03-20T14:44:45Z</time>
      </trkpt>
      <trkpt lat="55.28113" lon="-4.71253">
        <ele>33.83</ele>
        <time>2021-03-20T14:44:48Z</time>
      </trkpt>
      <trkpt lat="55.28106" lon="-4.7126">
        <ele>34.61</ele>
        <time>2021-03-20T14:44:51Z</time>
      </trkpt>
      <trkpt lat="55.28073" lon="-4.71326">
        <ele>38.39</ele>
        <time>2021-03-20T14:44:54Z</time>
      </trkpt>
      <trkpt lat="55.2806" lon="-4.71345">
        <ele>38.84</ele>
        <time>2021-03-20T14:44:57Z</time>
      </trkpt>
      <trkpt lat="55.28006" lon="-4.71413">
        <ele>39.41</ele>
        <time>2021-03-20T14:45:00Z</time>
      </trkpt>
      <trkpt lat="55.27993" lon="-4.71436">
        <ele>38.49</ele>
        <time>2021-03-20T14:45:03Z</time>
      </trkpt>
      <trkpt lat="55.2781" lon="-4.71858">
        <ele>30.11</ele>
        <time>2021-03-20T14:45:06Z</time>
      </trkpt>
      <trkpt lat="55.27804" lon="-4.71872">
        <ele>30.06</ele>
        <time>2021-03-20T14:45:09Z</time>
      </trkpt>
      <trkpt lat="55.27789" lon="-4.71896">
        <ele>30.6</ele>
        <time>2021-03-20T14:45:12Z</time>
      </trkpt>
      <trkpt lat="55.27659" lon="-4.72051">
        <ele>37.27</ele>
        <time>2021-03-20T14:45:15Z</time>
      </trkpt>
      <trkpt lat="55.27632" lon="-4.72074">
        <ele>38.74</ele>
        <time>2021-03-20T14:45:18Z</time>
      </trkpt>
      <trkpt lat="55.2755" lon="-4.72102">
        <ele>41.08</ele>
        <time>2021-03-20T14:45:22Z</time>
      </trkpt>
      <trkpt lat="55.27538" lon="-4.72111">
        <ele>42.25</ele>
        <time>2021-03-20T14:45:25Z</time>
      </trkpt>
      <trkpt lat="55.27522" lon="-4.72128">
        <ele>43.51</ele>
        <time>2021-03-20T14:45:28Z</time>
      </trkpt>
      <trkpt lat="55.27511" lon="-4.72145">
        <ele>44.2</ele>
        <time>2021-03-20T14:45:31Z</time>
      </trkpt>
      <trkpt lat="55.27503" lon="-4.7216">
        <ele>44.75</ele>
        <time>2021-03-20T14:45:34Z</time>
      </trkpt>
      <trkpt lat="55.2749" lon="-4.72198">
        <ele>44.98</ele>
        <time>2021-03-20T14:45:37Z</time>
      </trkpt>
      <trkpt lat="55.27468" lon="-4.72299">
        <ele>46.75</ele>
        <time>2021-03-20T14:45:40Z</time>
      </trkpt>
      <trkpt lat="55.27457" lon="-4.72356">
        <ele>47.8</ele>
        <time>2021-03-20T14:45:43Z</time>
      </trkpt>
      <trkpt lat="55.27421" lon="-4.72522">
        <ele>48</ele>
        <time>2021-03-20T14:45:46Z</time>
      </trkpt>
      <trkpt lat="55.27394" lon="-4.72618">
        <ele>50.89</ele>
        <time>2021-03-20T14:45:49Z</time>
      </trkpt>
      <trkpt lat="55.27381" lon="-4.7265">
        <ele>52.81</ele>
        <time>2021-03-20T14:45:52Z</time>
      </trkpt>
      <trkpt lat="55.27365" lon="-4.72693">
        <ele>54.63</ele>
        <time>2021-03-20T14:45:55Z</time>
      </trkpt>
      <trkpt lat="55.2733" lon="-4.72771">
        <ele>58.88</ele>
        <time>2021-03-20T14:45:58Z</time>
      </trkpt>
      <trkpt lat="55.27293" lon="-4.72843">
        <ele>63</ele>
        <time>2021-03-20T14:46:01Z</time>
      </trkpt>
      <trkpt lat="55.27278" lon="-4.72862">
        <ele>63</ele>
        <time>2021-03-20T14:46:04Z</time>
      </trkpt>
      <trkpt lat="55.27266" lon="-4.72873">
        <ele>63</ele>
        <time>2021-03-20T14:46:07Z</time>
      </trkpt>
      <trkpt lat="55.2724" lon="-4.72886">
        <ele>62.96</ele>
        <time>2021-03-20T14:46:10Z</time>
      </trkpt>
      <trkpt lat="55.27197" lon="-4.72901">
        <ele>62.92</ele>
        <time>2021-03-20T14:46:13Z</time>
      </trkpt>
      <trkpt lat="55.2717" lon="-4.72915">
        <ele>62.94</ele>
        <time>2021-03-20T14:46:17Z</time>
      </trkpt>
      <trkpt lat="55.27153" lon="-4.72929">
        <ele>62.92</ele>
        <time>2021-03-20T14:46:20Z</time>
      </trkpt>
      <trkpt lat="55.27135" lon="-4.72955">
        <ele>63.22</ele>
        <time>2021-03-20T14:46:23Z</time>
      </trkpt>
      <trkpt lat="55.27119" lon="-4.72988">
        <ele>63.43</ele>
        <time>2021-03-20T14:46:26Z</time>
      </trkpt>
      <trkpt lat="55.27111" lon="-4.7301">
        <ele>62.98</ele>
        <time>2021-03-20T14:46:29Z</time>
      </trkpt>
      <trkpt lat="55.27082" lon="-4.7314">
        <ele>59.9</ele>
        <time>2021-03-20T14:46:32Z</time>
      </trkpt>
      <trkpt lat="55.2707" lon="-4.73188">
        <ele>57.5</ele>
        <time>2021-03-20T14:46:35Z</time>
      </trkpt>
      <trkpt lat="55.27054" lon="-4.73234">
        <ele>54.27</ele>
        <time>2021-03-20T14:46:38Z</time>
      </trkpt>
      <trkpt lat="55.27042" lon="-4.73262">
        <ele>53.51</ele>
        <time>2021-03-20T14:46:41Z</time>
      </trkpt>
      <trkpt lat="55.26945" lon="-4.73437">
        <ele>54.55</ele>
        <time>2021-03-20T14:46:44Z</time>
      </trkpt>
      <trkpt lat="55.26915" lon="-4.73495">
        <ele>53.68</ele>
        <time>2021-03-20T14:46:47Z</time>
      </trkpt>
      <trkpt lat="55.26903" lon="-4.73522">
        <ele>53.9</ele>
        <time>2021-03-20T14:46:50Z</time>
      </trkpt>
      <trkpt lat="55.26869" lon="-4.73615">
        <ele>52.17</ele>
        <time>2021-03-20T14:46:53Z</time>
      </trkpt>
      <trkpt lat="55.26858" lon="-4.7364">
        <ele>51.4</ele>
        <time>2021-03-20T14:46:56Z</time>
      </trkpt>
      <trkpt lat="55.26848" lon="-4.73657">
        <ele>51.94</ele>
        <time>2021-03-20T14:46:59Z</time>
      </trkpt>
      <trkpt lat="55.26836" lon="-4.7367">
        <ele>53.23</ele>
        <time>2021-03-20T14:47:02Z</time>
      </trkpt>
      <trkpt lat="55.2682" lon="-4.73681">
        <ele>54.12</ele>
        <time>2021-03-20T14:47:05Z</time>
      </trkpt>
      <trkpt lat="55.26805" lon="-4.73687">
        <ele>55.51</ele>
        <time>2021-03-20T14:47:08Z</time>
      </trkpt>
      <trkpt lat="55.26792" lon="-4.73687">
        <ele>55.04</ele>
        <time>2021-03-20T14:47:12Z</time>
      </trkpt>
      <trkpt lat="55.26764" lon="-4.73682">
        <ele>54.67</ele>
        <time>2021-03-20T14:47:15Z</time>
      </trkpt>
      <trkpt lat="55.26718" lon="-4.73668">
        <ele>55.17</ele>
        <time>2021-03-20T14:47:18Z</time>
      </trkpt>
      <trkpt lat="55.26695" lon="-4.73665">
        <ele>55.99</ele>
        <time>2021-03-20T14:47:21Z</time>
      </trkpt>
      <trkpt lat="55.26684" lon="-4.73667">
        <ele>56.74</ele>
        <time>2021-03-20T14:47:24Z</time>
      </trkpt>
      <trkpt lat="55.26672" lon="-4.73672">
        <ele>57.45</ele>
        <time>2021-03-20T14:47:27Z</time>
      </trkpt>
      <trkpt lat="55.26662" lon="-4.7368">
        <ele>57.76</ele>
        <time>2021-03-20T14:47:30Z</time>
      </trkpt>
      <trkpt lat="55.26648" lon="-4.73694">
        <ele>58.35</ele>
        <time>2021-03-20T14:47:33Z</time>
      </trkpt>
      <trkpt lat="55.26635" lon="-4.73713">
        <ele>59.26</ele>
        <time>2021-03-20T14:47:36Z</time>
      </trkpt>
      <trkpt lat="55.26626" lon="-4.73735">
        <ele>60.39</ele>
        <time>2021-03-20T14:47:39Z</time>
      </trkpt>
      <trkpt lat="55.26603" lon="-4.73835">
        <ele>64.26</ele>
        <time>2021-03-20T14:47:42Z</time>
      </trkpt>
      <trkpt lat="55.26586" lon="-4.73991">
        <ele>65.24</ele>
        <time>2021-03-20T14:47:45Z</time>
      </trkpt>
      <trkpt lat="55.26579" lon="-4.74031">
        <ele>63.21</ele>
        <time>2021-03-20T14:47:48Z</time>
      </trkpt>
      <trkpt lat="55.26574" lon="-4.74055">
        <ele>62.1</ele>
        <time>2021-03-20T14:47:51Z</time>
      </trkpt>
      <trkpt lat="55.26554" lon="-4.74104">
        <ele>61.52</ele>
        <time>2021-03-20T14:47:54Z</time>
      </trkpt>
      <trkpt lat="55.26531" lon="-4.74151">
        <ele>63.09</ele>
        <time>2021-03-20T14:47:57Z</time>
      </trkpt>
      <trkpt lat="55.26493" lon="-4.74221">
        <ele>63.55</ele>
        <time>2021-03-20T14:48:00Z</time>
      </trkpt>
      <trkpt lat="55.26444" lon="-4.743">
        <ele>69.26</ele>
        <time>2021-03-20T14:48:03Z</time>
      </trkpt>
      <trkpt lat="55.26421" lon="-4.74326">
        <ele>70.78</ele>
        <time>2021-03-20T14:48:07Z</time>
      </trkpt>
      <trkpt lat="55.26363" lon="-4.74379">
        <ele>73.38</ele>
        <time>2021-03-20T14:48:10Z</time>
      </trkpt>
      <trkpt lat="55.2634" lon="-4.74413">
        <ele>75.06</ele>
        <time>2021-03-20T14:48:13Z</time>
      </trkpt>
      <trkpt lat="55.26325" lon="-4.74448">
        <ele>76.66</ele>
        <time>2021-03-20T14:48:16Z</time>
      </trkpt>
      <trkpt lat="55.263" lon="-4.74557">
        <ele>77.13</ele>
        <time>2021-03-20T14:48:19Z</time>
      </trkpt>
      <trkpt lat="55.26265" lon="-4.74651">
        <ele>76.13</ele>
        <time>2021-03-20T14:48:22Z</time>
      </trkpt>
      <trkpt lat="55.26253" lon="-4.74692">
        <ele>76.64</ele>
        <time>2021-03-20T14:48:25Z</time>
      </trkpt>
      <trkpt lat="55.26242" lon="-4.74739">
        <ele>77.16</ele>
        <time>2021-03-20T14:48:28Z</time>
      </trkpt>
      <trkpt lat="55.26233" lon="-4.74797">
        <ele>79.4</ele>
        <time>2021-03-20T14:48:31Z</time>
      </trkpt>
      <trkpt lat="55.26229" lon="-4.74847">
        <ele>80.53</ele>
        <time>2021-03-20T14:48:34Z</time>
      </trkpt>
      <trkpt lat="55.2623" lon="-4.74992">
        <ele>78.92</ele>
        <time>2021-03-20T14:48:37Z</time>
      </trkpt>
      <trkpt lat="55.26228" lon="-4.7504">
        <ele>79.2</ele>
        <time>2021-03-20T14:48:40Z</time>
      </trkpt>
      <trkpt lat="55.26221" lon="-4.75088">
        <ele>80.36</ele>
        <time>2021-03-20T14:48:43Z</time>
      </trkpt>
      <trkpt lat="55.26203" lon="-4.75174">
        <ele>83.98</ele>
        <time>2021-03-20T14:48:46Z</time>
      </trkpt>
      <trkpt lat="55.26196" lon="-4.75218">
        <ele>84.98</ele>
        <time>2021-03-20T14:48:49Z</time>
      </trkpt>
      <trkpt lat="55.26183" lon="-4.75345">
        <ele>81.93</ele>
        <time>2021-03-20T14:48:52Z</time>
      </trkpt>
      <trkpt lat="55.26144" lon="-4.75801">
        <ele>89.9</ele>
        <time>2021-03-20T14:48:55Z</time>
      </trkpt>
      <trkpt lat="55.26137" lon="-4.75871">
        <ele>89.17</ele>
        <time>2021-03-20T14:48:58Z</time>
      </trkpt>
      <trkpt lat="55.26127" lon="-4.75917">
        <ele>87.88</ele>
        <time>2021-03-20T14:49:02Z</time>
      </trkpt>
      <trkpt lat="55.25942" lon="-4.76577">
        <ele>62</ele>
        <time>2021-03-20T14:49:05Z</time>
      </trkpt>
      <trkpt lat="55.25926" lon="-4.76653">
        <ele>61.64</ele>
        <time>2021-03-20T14:49:08Z</time>
      </trkpt>
      <trkpt lat="55.2592" lon="-4.76699">
        <ele>61.09</ele>
        <time>2021-03-20T14:49:11Z</time>
      </trkpt>
      <trkpt lat="55.25917" lon="-4.76744">
        <ele>60.21</ele>
        <time>2021-03-20T14:49:14Z</time>
      </trkpt>
      <trkpt lat="55.25918" lon="-4.76798">
        <ele>60.28</ele>
        <time>2021-03-20T14:49:17Z</time>
      </trkpt>
      <trkpt lat="55.25923" lon="-4.76863">
        <ele>61.68</ele>
        <time>2021-03-20T14:49:20Z</time>
      </trkpt>
      <trkpt lat="55.25953" lon="-4.77055">
        <ele>62.23</ele>
        <time>2021-03-20T14:49:23Z</time>
      </trkpt>
      <trkpt lat="55.25965" lon="-4.77157">
        <ele>60.26</ele>
        <time>2021-03-20T14:49:26Z</time>
      </trkpt>
      <trkpt lat="55.25991" lon="-4.77319">
        <ele>61.1</ele>
        <time>2021-03-20T14:49:29Z</time>
      </trkpt>
      <trkpt lat="55.25995" lon="-4.77372">
        <ele>60.26</ele>
        <time>2021-03-20T14:49:32Z</time>
      </trkpt>
      <trkpt lat="55.25994" lon="-4.77421">
        <ele>60.08</ele>
        <time>2021-03-20T14:49:35Z</time>
      </trkpt>
      <trkpt lat="55.25987" lon="-4.77468">
        <ele>61.3</ele>
        <time>2021-03-20T14:49:38Z</time>
      </trkpt>
      <trkpt lat="55.25978" lon="-4.77511">
        <ele>62.81</ele>
        <time>2021-03-20T14:49:41Z</time>
      </trkpt>
      <trkpt lat="55.25967" lon="-4.7755">
        <ele>64.84</ele>
        <time>2021-03-20T14:49:44Z</time>
      </trkpt>
      <trkpt lat="55.25872" lon="-4.77731">
        <ele>64.8</ele>
        <time>2021-03-20T14:49:47Z</time>
      </trkpt>
      <trkpt lat="55.25656" lon="-4.78039">
        <ele>46.61</ele>
        <time>2021-03-20T14:49:50Z</time>
      </trkpt>
      <trkpt lat="55.25634" lon="-4.7808">
        <ele>45.28</ele>
        <time>2021-03-20T14:49:53Z</time>
      </trkpt>
      <trkpt lat="55.25619" lon="-4.78123">
        <ele>45.31</ele>
        <time>2021-03-20T14:49:57Z</time>
      </trkpt>
      <trkpt lat="55.25608" lon="-4.78161">
        <ele>45.11</ele>
        <time>2021-03-20T14:50:00Z</time>
      </trkpt>
      <trkpt lat="55.25601" lon="-4.78195">
        <ele>45.12</ele>
        <time>2021-03-20T14:50:03Z</time>
      </trkpt>
      <trkpt lat="55.25597" lon="-4.78232">
        <ele>45.22</ele>
        <time>2021-03-20T14:50:06Z</time>
      </trkpt>
      <trkpt lat="55.25596" lon="-4.78281">
        <ele>46.44</ele>
        <time>2021-03-20T14:50:09Z</time>
      </trkpt>
      <trkpt lat="55.25629" lon="-4.78746">
        <ele>39.04</ele>
        <time>2021-03-20T14:50:12Z</time>
      </trkpt>
      <trkpt lat="55.2563" lon="-4.78872">
        <ele>36.35</ele>
        <time>2021-03-20T14:50:15Z</time>
      </trkpt>
      <trkpt lat="55.25611" lon="-4.79221">
        <ele>32.98</ele>
        <time>2021-03-20T14:50:18Z</time>
      </trkpt>
      <trkpt lat="55.25608" lon="-4.79255">
        <ele>34.28</ele>
        <time>2021-03-20T14:50:21Z</time>
      </trkpt>
      <trkpt lat="55.25603" lon="-4.79287">
        <ele>34.5</ele>
        <time>2021-03-20T14:50:24Z</time>
      </trkpt>
      <trkpt lat="55.256" lon="-4.79275">
        <ele>34.81</ele>
        <time>2021-03-20T14:50:26Z</time>
      </trkpt>
      <trkpt lat="55.2551" lon="-4.79116">
        <ele>49.93</ele>
        <time>2021-03-20T14:50:29Z</time>
      </trkpt>
      <trkpt lat="55.25464" lon="-4.79049">
        <ele>56.51</ele>
        <time>2021-03-20T14:50:31Z</time>
      </trkpt>
      <trkpt lat="55.25339" lon="-4.78847">
        <ele>70.24</ele>
        <time>2021-03-20T14:50:33Z</time>
      </trkpt>
      <trkpt lat="55.2531" lon="-4.78816">
        <ele>72.47</ele>
        <time>2021-03-20T14:50:35Z</time>
      </trkpt>
      <trkpt lat="55.2529" lon="-4.78787">
        <ele>75.89</ele>
        <time>2021-03-20T14:50:37Z</time>
      </trkpt>
      <trkpt lat="55.25282" lon="-4.78761">
        <ele>77.54</ele>
        <time>2021-03-20T14:50:40Z</time>
      </trkpt>
      <trkpt lat="55.25275" lon="-4.78735">
        <ele>78.47</ele>
        <time>2021-03-20T14:50:42Z</time>
      </trkpt>
      <trkpt lat="55.25269" lon="-4.78696">
        <ele>79.27</ele>
        <time>2021-03-20T14:50:44Z</time>
      </trkpt>
      <trkpt lat="55.25265" lon="-4.78661">
        <ele>79.79</ele>
        <time>2021-03-20T14:50:46Z</time>
      </trkpt>
      <trkpt lat="55.25259" lon="-4.78562">
        <ele>80.08</ele>
        <time>2021-03-20T14:50:48Z</time>
      </trkpt>
      <trkpt lat="55.25211" lon="-4.78344">
        <ele>87.99</ele>
        <time>2021-03-20T14:50:50Z</time>
      </trkpt>
      <trkpt lat="55.25203" lon="-4.78317">
        <ele>88.91</ele>
        <time>2021-03-20T14:50:53Z</time>
      </trkpt>
      <trkpt lat="55.25189" lon="-4.78283">
        <ele>90.23</ele>
        <time>2021-03-20T14:50:55Z</time>
      </trkpt>
      <trkpt lat="55.25171" lon="-4.7826">
        <ele>92.37</ele>
        <time>2021-03-20T14:50:57Z</time>
      </trkpt>
      <trkpt lat="55.25094" lon="-4.78201">
        <ele>99.54</ele>
        <time>2021-03-20T14:50:59Z</time>
      </trkpt>
      <trkpt lat="55.25047" lon="-4.78161">
        <ele>101.14</ele>
        <time>2021-03-20T14:51:01Z</time>
      </trkpt>
      <trkpt lat="55.2502" lon="-4.78133">
        <ele>101.5</ele>
        <time>2021-03-20T14:51:03Z</time>
      </trkpt>
      <trkpt lat="55.25009" lon="-4.78128">
        <ele>102.07</ele>
        <time>2021-03-20T14:51:06Z</time>
      </trkpt>
      <trkpt lat="55.24994" lon="-4.78128">
        <ele>103.02</ele>
        <time>2021-03-20T14:51:08Z</time>
      </trkpt>
      <trkpt lat="55.24988" lon="-4.78131">
        <ele>103.54</ele>
        <time>2021-03-20T14:51:10Z</time>
      </trkpt>
      <trkpt lat="55.24958" lon="-4.78169">
        <ele>104.92</ele>
        <time>2021-03-20T14:51:12Z</time>
      </trkpt>
      <trkpt lat="55.24949" lon="-4.78177">
        <ele>104.61</ele>
        <time>2021-03-20T14:51:14Z</time>
      </trkpt>
      <trkpt lat="55.24937" lon="-4.78181">
        <ele>104.33</ele>
        <time>2021-03-20T14:51:17Z</time>
      </trkpt>
      <trkpt lat="55.24927" lon="-4.78179">
        <ele>104.24</ele>
        <time>2021-03-20T14:51:19Z</time>
      </trkpt>
      <trkpt lat="55.2491" lon="-4.78168">
        <ele>104.69</ele>
        <time>2021-03-20T14:51:21Z</time>
      </trkpt>
      <trkpt lat="55.24911" lon="-4.78162">
        <ele>104.96</ele>
        <time>2021-03-20T14:51:23Z</time>
      </trkpt>
      <trkpt lat="55.2491" lon="-4.78153">
        <ele>105.24</ele>
        <time>2021-03-20T14:51:24Z</time>
      </trkpt>
      <trkpt lat="55.24884" lon="-4.78076">
        <ele>107.32</ele>
        <time>2021-03-20T14:51:26Z</time>
      </trkpt>
      <trkpt lat="55.24877" lon="-4.78049">
        <ele>108.42</ele>
        <time>2021-03-20T14:51:27Z</time>
      </trkpt>
      <trkpt lat="55.24874" lon="-4.78023">
        <ele>109.16</ele>
        <time>2021-03-20T14:51:29Z</time>
      </trkpt>
      <trkpt lat="55.24873" lon="-4.77999">
        <ele>110.29</ele>
        <time>2021-03-20T14:51:31Z</time>
      </trkpt>
      <trkpt lat="55.24868" lon="-4.77972">
        <ele>111.49</ele>
        <time>2021-03-20T14:51:32Z</time>
      </trkpt>
      <trkpt lat="55.24861" lon="-4.77946">
        <ele>112.89</ele>
        <time>2021-03-20T14:51:34Z</time>
      </trkpt>
      <trkpt lat="55.24834" lon="-4.77866">
        <ele>114.78</ele>
        <time>2021-03-20T14:51:36Z</time>
      </trkpt>
      <trkpt lat="55.24823" lon="-4.77837">
        <ele>116.87</ele>
        <time>2021-03-20T14:51:37Z</time>
      </trkpt>
      <trkpt lat="55.24793" lon="-4.77788">
        <ele>119.18</ele>
        <time>2021-03-20T14:51:39Z</time>
      </trkpt>
      <trkpt lat="55.24788" lon="-4.77774">
        <ele>119.84</ele>
        <time>2021-03-20T14:51:40Z</time>
      </trkpt>
      <trkpt lat="55.2478" lon="-4.77745">
        <ele>120.52</ele>
        <time>2021-03-20T14:51:42Z</time>
      </trkpt>
      <trkpt lat="55.24771" lon="-4.77693">
        <ele>122.87</ele>
        <time>2021-03-20T14:51:44Z</time>
      </trkpt>
      <trkpt lat="55.24768" lon="-4.77648">
        <ele>124.93</ele>
        <time>2021-03-20T14:51:45Z</time>
      </trkpt>
      <trkpt lat="55.24765" lon="-4.77592">
        <ele>126.78</ele>
        <time>2021-03-20T14:51:47Z</time>
      </trkpt>
      <trkpt lat="55.24768" lon="-4.77546">
        <ele>128.42</ele>
        <time>2021-03-20T14:51:48Z</time>
      </trkpt>
      <trkpt lat="55.24767" lon="-4.7753">
        <ele>128.59</ele>
        <time>2021-03-20T14:51:50Z</time>
      </trkpt>
      <trkpt lat="55.24764" lon="-4.77517">
        <ele>128.91</ele>
        <time>2021-03-20T14:51:52Z</time>
      </trkpt>
      <trkpt lat="55.2476" lon="-4.7751">
        <ele>129.01</ele>
        <time>2021-03-20T14:51:53Z</time>
      </trkpt>
      <trkpt lat="55.24754" lon="-4.77506">
        <ele>128.95</ele>
        <time>2021-03-20T14:51:55Z</time>
      </trkpt>
      <trkpt lat="55.2474" lon="-4.77505">
        <ele>128.83</ele>
        <time>2021-03-20T14:51:57Z</time>
      </trkpt>
      <trkpt lat="55.24707" lon="-4.77514">
        <ele>129.56</ele>
        <time>2021-03-20T14:51:58Z</time>
      </trkpt>
      <trkpt lat="55.24595" lon="-4.77568">
        <ele>136.57</ele>
        <time>2021-03-20T14:52:00Z</time>
      </trkpt>
      <trkpt lat="55.24584" lon="-4.77569">
        <ele>136.53</ele>
        <time>2021-03-20T14:52:01Z</time>
      </trkpt>
      <trkpt lat="55.24569" lon="-4.77566">
        <ele>136.81</ele>
        <time>2021-03-20T14:52:03Z</time>
      </trkpt>
      <trkpt lat="55.24553" lon="-4.77558">
        <ele>137.1</ele>
        <time>2021-03-20T14:52:05Z</time>
      </trkpt>
      <trkpt lat="55.24527" lon="-4.77528">
        <ele>138.06</ele>
        <time>2021-03-20T14:52:06Z</time>
      </trkpt>
      <trkpt lat="55.24472" lon="-4.77443">
        <ele>144.04</ele>
        <time>2021-03-20T14:52:08Z</time>
      </trkpt>
      <trkpt lat="55.2446" lon="-4.77431">
        <ele>144.85</ele>
        <time>2021-03-20T14:52:10Z</time>
      </trkpt>
      <trkpt lat="55.24415" lon="-4.77395">
        <ele>146.28</ele>
        <time>2021-03-20T14:52:11Z</time>
      </trkpt>
      <trkpt lat="55.24381" lon="-4.77362">
        <ele>147</ele>
        <time>2021-03-20T14:52:13Z</time>
      </trkpt>
      <trkpt lat="55.24334" lon="-4.77296">
        <ele>149.63</ele>
        <time>2021-03-20T14:52:14Z</time>
      </trkpt>
      <trkpt lat="55.24272" lon="-4.77214">
        <ele>149.99</ele>
        <time>2021-03-20T14:52:16Z</time>
      </trkpt>
      <trkpt lat="55.24265" lon="-4.77201">
        <ele>149.07</ele>
        <time>2021-03-20T14:52:18Z</time>
      </trkpt>
      <trkpt lat="55.24255" lon="-4.77166">
        <ele>149.1</ele>
        <time>2021-03-20T14:52:19Z</time>
      </trkpt>
      <trkpt lat="55.24252" lon="-4.77139">
        <ele>149.43</ele>
        <time>2021-03-20T14:52:21Z</time>
      </trkpt>
      <trkpt lat="55.24248" lon="-4.76982">
        <ele>151.89</ele>
        <time>2021-03-20T14:52:23Z</time>
      </trkpt>
      <trkpt lat="55.24244" lon="-4.76938">
        <ele>155.02</ele>
        <time>2021-03-20T14:52:24Z</time>
      </trkpt>
      <trkpt lat="55.24237" lon="-4.76888">
        <ele>157.12</ele>
        <time>2021-03-20T14:52:26Z</time>
      </trkpt>
      <trkpt lat="55.24231" lon="-4.76862">
        <ele>157.45</ele>
        <time>2021-03-20T14:52:27Z</time>
      </trkpt>
      <trkpt lat="55.24203" lon="-4.76762">
        <ele>160.88</ele>
        <time>2021-03-20T14:52:29Z</time>
      </trkpt>
      <trkpt lat="55.2419" lon="-4.7672">
        <ele>162.36</ele>
        <time>2021-03-20T14:52:31Z</time>
      </trkpt>
      <trkpt lat="55.24178" lon="-4.76698">
        <ele>161.44</ele>
        <time>2021-03-20T14:52:32Z</time>
      </trkpt>
      <trkpt lat="55.24169" lon="-4.76688">
        <ele>160.53</ele>
        <time>2021-03-20T14:52:34Z</time>
      </trkpt>
      <trkpt lat="55.24152" lon="-4.76662">
        <ele>160.65</ele>
        <time>2021-03-20T14:52:35Z</time>
      </trkpt>
      <trkpt lat="55.24135" lon="-4.76616">
        <ele>161.67</ele>
        <time>2021-03-20T14:52:37Z</time>
      </trkpt>
      <trkpt lat="55.24131" lon="-4.76592">
        <ele>162.22</ele>
        <time>2021-03-20T14:52:39Z</time>
      </trkpt>
      <trkpt lat="55.24129" lon="-4.76451">
        <ele>165.01</ele>
        <time>2021-03-20T14:52:40Z</time>
      </trkpt>
      <trkpt lat="55.24123" lon="-4.76407">
        <ele>165.77</ele>
        <time>2021-03-20T14:52:42Z</time>
      </trkpt>
      <trkpt lat="55.24086" lon="-4.76267">
        <ele>167.09</ele>
        <time>2021-03-20T14:52:44Z</time>
      </trkpt>
      <trkpt lat="55.24085" lon="-4.76252">
        <ele>167.06</ele>
        <time>2021-03-20T14:52:45Z</time>
      </trkpt>
      <trkpt lat="55.24094" lon="-4.76143">
        <ele>168.68</ele>
        <time>2021-03-20T14:52:47Z</time>
      </trkpt>
      <trkpt lat="55.24093" lon="-4.76124">
        <ele>169.4</ele>
        <time>2021-03-20T14:52:48Z</time>
      </trkpt>
      <trkpt lat="55.24088" lon="-4.76105">
        <ele>170.23</ele>
        <time>2021-03-20T14:52:50Z</time>
      </trkpt>
      <trkpt lat="55.24083" lon="-4.76096">
        <ele>170.52</ele>
        <time>2021-03-20T14:52:52Z</time>
      </trkpt>
      <trkpt lat="55.24056" lon="-4.76088">
        <ele>168.83</ele>
        <time>2021-03-20T14:52:53Z</time>
      </trkpt>
      <trkpt lat="55.24048" lon="-4.76082">
        <ele>168.55</ele>
        <time>2021-03-20T14:52:55Z</time>
      </trkpt>
      <trkpt lat="55.23906" lon="-4.75703">
        <ele>176.49</ele>
        <time>2021-03-20T14:52:57Z</time>
      </trkpt>
      <trkpt lat="55.23897" lon="-4.75687">
        <ele>176.13</ele>
        <time>2021-03-20T14:52:58Z</time>
      </trkpt>
      <trkpt lat="55.23837" lon="-4.75614">
        <ele>175.9</ele>
        <time>2021-03-20T14:53:00Z</time>
      </trkpt>
      <trkpt lat="55.2383" lon="-4.75603">
        <ele>176.56</ele>
        <time>2021-03-20T14:53:01Z</time>
      </trkpt>
      <trkpt lat="55.23771" lon="-4.75443">
        <ele>183.58</ele>
        <time>2021-03-20T14:53:03Z</time>
      </trkpt>
      <trkpt lat="55.23744" lon="-4.75364">
        <ele>186.2</ele>
        <time>2021-03-20T14:53:05Z</time>
      </trkpt>
      <trkpt lat="55.23714" lon="-4.75295">
        <ele>187.42</ele>
        <time>2021-03-20T14:53:06Z</time>
      </trkpt>
      <trkpt lat="55.23682" lon="-4.75215">
        <ele>188.52</ele>
        <time>2021-03-20T14:53:08Z</time>
      </trkpt>
      <trkpt lat="55.23636" lon="-4.75128">
        <ele>190.3</ele>
        <time>2021-03-20T14:53:10Z</time>
      </trkpt>
      <trkpt lat="55.23629" lon="-4.75111">
        <ele>190.58</ele>
        <time>2021-03-20T14:53:11Z</time>
      </trkpt>
      <trkpt lat="55.2362" lon="-4.75072">
        <ele>192.16</ele>
        <time>2021-03-20T14:53:13Z</time>
      </trkpt>
      <trkpt lat="55.23607" lon="-4.74981">
        <ele>196.88</ele>
        <time>2021-03-20T14:53:14Z</time>
      </trkpt>
      <trkpt lat="55.23579" lon="-4.74834">
        <ele>199.69</ele>
        <time>2021-03-20T14:53:16Z</time>
      </trkpt>
      <trkpt lat="55.23575" lon="-4.74805">
        <ele>199.4</ele>
        <time>2021-03-20T14:53:18Z</time>
      </trkpt>
      <trkpt lat="55.23572" lon="-4.7478">
        <ele>199.77</ele>
        <time>2021-03-20T14:53:19Z</time>
      </trkpt>
      <trkpt lat="55.23576" lon="-4.74703">
        <ele>200.21</ele>
        <time>2021-03-20T14:53:21Z</time>
      </trkpt>
      <trkpt lat="55.23576" lon="-4.7467">
        <ele>200.41</ele>
        <time>2021-03-20T14:53:22Z</time>
      </trkpt>
      <trkpt lat="55.23563" lon="-4.74625">
        <ele>202.01</ele>
        <time>2021-03-20T14:53:24Z</time>
      </trkpt>
      <trkpt lat="55.2356" lon="-4.74604">
        <ele>202.87</ele>
        <time>2021-03-20T14:53:26Z</time>
      </trkpt>
      <trkpt lat="55.23557" lon="-4.74579">
        <ele>203.49</ele>
        <time>2021-03-20T14:53:27Z</time>
      </trkpt>
      <trkpt lat="55.23552" lon="-4.74492">
        <ele>208.15</ele>
        <time>2021-03-20T14:53:29Z</time>
      </trkpt>
      <trkpt lat="55.23548" lon="-4.74467">
        <ele>209.04</ele>
        <time>2021-03-20T14:53:31Z</time>
      </trkpt>
      <trkpt lat="55.23532" lon="-4.74409">
        <ele>211.02</ele>
        <time>2021-03-20T14:53:32Z</time>
      </trkpt>
      <trkpt lat="55.23506" lon="-4.74346">
        <ele>209.62</ele>
        <time>2021-03-20T14:53:34Z</time>
      </trkpt>
      <trkpt lat="55.23495" lon="-4.74331">
        <ele>207.98</ele>
        <time>2021-03-20T14:53:35Z</time>
      </trkpt>
      <trkpt lat="55.23474" lon="-4.7432">
        <ele>207.55</ele>
        <time>2021-03-20T14:53:37Z</time>
      </trkpt>
      <trkpt lat="55.23443" lon="-4.74295">
        <ele>208.45</ele>
        <time>2021-03-20T14:53:39Z</time>
      </trkpt>
      <trkpt lat="55.23397" lon="-4.74269">
        <ele>212.09</ele>
        <time>2021-03-20T14:53:40Z</time>
      </trkpt>
      <trkpt lat="55.23389" lon="-4.74267">
        <ele>212.57</ele>
        <time>2021-03-20T14:53:42Z</time>
      </trkpt>
      <trkpt lat="55.2334" lon="-4.74268">
        <ele>214.38</ele>
        <time>2021-03-20T14:53:44Z</time>
      </trkpt>
      <trkpt lat="55.23314" lon="-4.74256">
        <ele>214.78</ele>
        <time>2021-03-20T14:53:45Z</time>
      </trkpt>
      <trkpt lat="55.23299" lon="-4.74242">
        <ele>214.7</ele>
        <time>2021-03-20T14:53:47Z</time>
      </trkpt>
      <trkpt lat="55.23267" lon="-4.74203">
        <ele>214</ele>
        <time>2021-03-20T14:53:48Z</time>
      </trkpt>
      <trkpt lat="55.23232" lon="-4.74169">
        <ele>213.4</ele>
        <time>2021-03-20T14:53:50Z</time>
      </trkpt>
      <trkpt lat="55.23217" lon="-4.74142">
        <ele>213</ele>
        <time>2021-03-20T14:53:52Z</time>
      </trkpt>
      <trkpt lat="55.23211" lon="-4.74123">
        <ele>212.76</ele>
        <time>2021-03-20T14:53:53Z</time>
      </trkpt>
      <trkpt lat="55.23205" lon="-4.74084">
        <ele>212.37</ele>
        <time>2021-03-20T14:53:55Z</time>
      </trkpt>
      <trkpt lat="55.23197" lon="-4.74049">
        <ele>212.08</ele>
        <time>2021-03-20T14:53:57Z</time>
      </trkpt>
      <trkpt lat="55.23184" lon="-4.74026">
        <ele>211.69</ele>
        <time>2021-03-20T14:53:58Z</time>
      </trkpt>
      <trkpt lat="55.23174" lon="-4.74014">
        <ele>211.74</ele>
        <time>2021-03-20T14:54:00Z</time>
      </trkpt>
      <trkpt lat="55.23141" lon="-4.73991">
        <ele>211.4</ele>
        <time>2021-03-20T14:54:01Z</time>
      </trkpt>
      <trkpt lat="55.23124" lon="-4.73986">
        <ele>211.52</ele>
        <time>2021-03-20T14:54:03Z</time>
      </trkpt>
      <trkpt lat="55.23115" lon="-4.73987">
        <ele>211.47</ele>
        <time>2021-03-20T14:54:05Z</time>
      </trkpt>
      <trkpt lat="55.23105" lon="-4.73993">
        <ele>211.01</ele>
        <time>2021-03-20T14:54:06Z</time>
      </trkpt>
      <trkpt lat="55.23074" lon="-4.74027">
        <ele>207.71</ele>
        <time>2021-03-20T14:54:08Z</time>
      </trkpt>
      <trkpt lat="55.23064" lon="-4.74034">
        <ele>206.95</ele>
        <time>2021-03-20T14:54:10Z</time>
      </trkpt>
      <trkpt lat="55.23049" lon="-4.74036">
        <ele>206.61</ele>
        <time>2021-03-20T14:54:11Z</time>
      </trkpt>
      <trkpt lat="55.22985" lon="-4.74034">
        <ele>206.13</ele>
        <time>2021-03-20T14:54:13Z</time>
      </trkpt>
      <trkpt lat="55.22968" lon="-4.74028">
        <ele>204.63</ele>
        <time>2021-03-20T14:54:14Z</time>
      </trkpt>
      <trkpt lat="55.22844" lon="-4.73962">
        <ele>203.77</ele>
        <time>2021-03-20T14:54:16Z</time>
      </trkpt>
      <trkpt lat="55.22827" lon="-4.73944">
        <ele>204.02</ele>
        <time>2021-03-20T14:54:18Z</time>
      </trkpt>
      <trkpt lat="55.22818" lon="-4.7393">
        <ele>204.52</ele>
        <time>2021-03-20T14:54:19Z</time>
      </trkpt>
      <trkpt lat="55.22772" lon="-4.73832">
        <ele>207</ele>
        <time>2021-03-20T14:54:21Z</time>
      </trkpt>
      <trkpt lat="55.22745" lon="-4.73786">
        <ele>207.6</ele>
        <time>2021-03-20T14:54:22Z</time>
      </trkpt>
      <trkpt lat="55.22696" lon="-4.73731">
        <ele>207.4</ele>
        <time>2021-03-20T14:54:24Z</time>
      </trkpt>
      <trkpt lat="55.226" lon="-4.73547">
        <ele>200.96</ele>
        <time>2021-03-20T14:54:26Z</time>
      </trkpt>
      <trkpt lat="55.22596" lon="-4.73534">
        <ele>200.27</ele>
        <time>2021-03-20T14:54:27Z</time>
      </trkpt>
      <trkpt lat="55.22594" lon="-4.7352">
        <ele>200.09</ele>
        <time>2021-03-20T14:54:29Z</time>
      </trkpt>
      <trkpt lat="55.22597" lon="-4.73488">
        <ele>200.93</ele>
        <time>2021-03-20T14:54:31Z</time>
      </trkpt>
      <trkpt lat="55.22614" lon="-4.73416">
        <ele>203.28</ele>
        <time>2021-03-20T14:54:32Z</time>
      </trkpt>
      <trkpt lat="55.22614" lon="-4.73391">
        <ele>202.44</ele>
        <time>2021-03-20T14:54:34Z</time>
      </trkpt>
      <trkpt lat="55.22612" lon="-4.73378">
        <ele>202.11</ele>
        <time>2021-03-20T14:54:35Z</time>
      </trkpt>
      <trkpt lat="55.22605" lon="-4.73364">
        <ele>201.78</ele>
        <time>2021-03-20T14:54:37Z</time>
      </trkpt>
      <trkpt lat="55.22598" lon="-4.73356">
        <ele>201.72</ele>
        <time>2021-03-20T14:54:39Z</time>
      </trkpt>
      <trkpt lat="55.22571" lon="-4.73334">
        <ele>201.53</ele>
        <time>2021-03-20T14:54:40Z</time>
      </trkpt>
      <trkpt lat="55.22562" lon="-4.73323">
        <ele>201.33</ele>
        <time>2021-03-20T14:54:42Z</time>
      </trkpt>
      <trkpt lat="55.22493" lon="-4.73185">
        <ele>201.07</ele>
        <time>2021-03-20T14:54:44Z</time>
      </trkpt>
      <trkpt lat="55.22464" lon="-4.7314">
        <ele>199.41</ele>
        <time>2021-03-20T14:54:45Z</time>
      </trkpt>
      <trkpt lat="55.22454" lon="-4.73121">
        <ele>199.32</ele>
        <time>2021-03-20T14:54:47Z</time>
      </trkpt>
      <trkpt lat="55.22443" lon="-4.73084">
        <ele>198.92</ele>
        <time>2021-03-20T14:54:48Z</time>
      </trkpt>
      <trkpt lat="55.22436" lon="-4.73067">
        <ele>198.41</ele>
        <time>2021-03-20T14:54:50Z</time>
      </trkpt>
      <trkpt lat="55.22408" lon="-4.73017">
        <ele>196.82</ele>
        <time>2021-03-20T14:54:52Z</time>
      </trkpt>
      <trkpt lat="55.22403" lon="-4.72977">
        <ele>197</ele>
        <time>2021-03-20T14:54:53Z</time>
      </trkpt>
      <trkpt lat="55.224" lon="-4.7293">
        <ele>195.48</ele>
        <time>2021-03-20T14:54:55Z</time>
      </trkpt>
      <trkpt lat="55.22396" lon="-4.72903">
        <ele>194.01</ele>
        <time>2021-03-20T14:54:57Z</time>
      </trkpt>
      <trkpt lat="55.22387" lon="-4.7288">
        <ele>192.5</ele>
        <time>2021-03-20T14:54:58Z</time>
      </trkpt>
      <trkpt lat="55.22375" lon="-4.72857">
        <ele>191.56</ele>
        <time>2021-03-20T14:55:00Z</time>
      </trkpt>
      <trkpt lat="55.2235" lon="-4.72763">
        <ele>186.18</ele>
        <time>2021-03-20T14:55:01Z</time>
      </trkpt>
      <trkpt lat="55.22348" lon="-4.72751">
        <ele>185.57</ele>
        <time>2021-03-20T14:55:03Z</time>
      </trkpt>
      <trkpt lat="55.22349" lon="-4.72712">
        <ele>182.92</ele>
        <time>2021-03-20T14:55:05Z</time>
      </trkpt>
      <trkpt lat="55.22347" lon="-4.72694">
        <ele>182.46</ele>
        <time>2021-03-20T14:55:06Z</time>
      </trkpt>
      <trkpt lat="55.22345" lon="-4.72683">
        <ele>182.36</ele>
        <time>2021-03-20T14:55:08Z</time>
      </trkpt>
      <trkpt lat="55.22315" lon="-4.72599">
        <ele>178.24</ele>
        <time>2021-03-20T14:55:09Z</time>
      </trkpt>
      <trkpt lat="55.22307" lon="-4.72582">
        <ele>176.63</ele>
        <time>2021-03-20T14:55:11Z</time>
      </trkpt>
      <trkpt lat="55.22296" lon="-4.72571">
        <ele>176.1</ele>
        <time>2021-03-20T14:55:13Z</time>
      </trkpt>
      <trkpt lat="55.22276" lon="-4.72564">
        <ele>176.61</ele>
        <time>2021-03-20T14:55:14Z</time>
      </trkpt>
      <trkpt lat="55.22238" lon="-4.72538">
        <ele>175.65</ele>
        <time>2021-03-20T14:55:16Z</time>
      </trkpt>
      <trkpt lat="55.22183" lon="-4.72512">
        <ele>172.93</ele>
        <time>2021-03-20T14:55:18Z</time>
      </trkpt>
      <trkpt lat="55.22169" lon="-4.72508">
        <ele>172.2</ele>
        <time>2021-03-20T14:55:19Z</time>
      </trkpt>
      <trkpt lat="55.22153" lon="-4.72509">
        <ele>171.8</ele>
        <time>2021-03-20T14:55:21Z</time>
      </trkpt>
      <trkpt lat="55.22114" lon="-4.72521">
        <ele>172.06</ele>
        <time>2021-03-20T14:55:22Z</time>
      </trkpt>
      <trkpt lat="55.22107" lon="-4.72519">
        <ele>172.51</ele>
        <time>2021-03-20T14:55:24Z</time>
      </trkpt>
      <trkpt lat="55.22097" lon="-4.72512">
        <ele>173.28</ele>
        <time>2021-03-20T14:55:26Z</time>
      </trkpt>
      <trkpt lat="55.22092" lon="-4.72504">
        <ele>173.01</ele>
        <time>2021-03-20T14:55:27Z</time>
      </trkpt>
      <trkpt lat="55.22085" lon="-4.72478">
        <ele>171.35</ele>
        <time>2021-03-20T14:55:29Z</time>
      </trkpt>
      <trkpt lat="55.2208" lon="-4.72455">
        <ele>169.15</ele>
        <time>2021-03-20T14:55:31Z</time>
      </trkpt>
      <trkpt lat="55.22075" lon="-4.72401">
        <ele>164.79</ele>
        <time>2021-03-20T14:55:32Z</time>
      </trkpt>
      <trkpt lat="55.22073" lon="-4.7239">
        <ele>163.93</ele>
        <time>2021-03-20T14:55:34Z</time>
      </trkpt>
      <trkpt lat="55.22068" lon="-4.72373">
        <ele>162.84</ele>
        <time>2021-03-20T14:55:35Z</time>
      </trkpt>
      <trkpt lat="55.22055" lon="-4.72359">
        <ele>162.69</ele>
        <time>2021-03-20T14:55:37Z</time>
      </trkpt>
      <trkpt lat="55.22023" lon="-4.7233">
        <ele>160.9</ele>
        <time>2021-03-20T14:55:39Z</time>
      </trkpt>
      <trkpt lat="55.21989" lon="-4.72306">
        <ele>166.42</ele>
        <time>2021-03-20T14:55:40Z</time>
      </trkpt>
      <trkpt lat="55.21985" lon="-4.72298">
        <ele>166.36</ele>
        <time>2021-03-20T14:55:42Z</time>
      </trkpt>
      <trkpt lat="55.21982" lon="-4.72289">
        <ele>166.02</ele>
        <time>2021-03-20T14:55:44Z</time>
      </trkpt>
      <trkpt lat="55.2198" lon="-4.72274">
        <ele>164.7</ele>
        <time>2021-03-20T14:55:45Z</time>
      </trkpt>
      <trkpt lat="55.21979" lon="-4.7225">
        <ele>162.26</ele>
        <time>2021-03-20T14:55:47Z</time>
      </trkpt>
      <trkpt lat="55.21977" lon="-4.72237">
        <ele>160.84</ele>
        <time>2021-03-20T14:55:48Z</time>
      </trkpt>
      <trkpt lat="55.21961" lon="-4.72174">
        <ele>156.4</ele>
        <time>2021-03-20T14:55:50Z</time>
      </trkpt>
      <trkpt lat="55.21956" lon="-4.7216">
        <ele>155.6</ele>
        <time>2021-03-20T14:55:52Z</time>
      </trkpt>
      <trkpt lat="55.21925" lon="-4.72106">
        <ele>153.88</ele>
        <time>2021-03-20T14:55:53Z</time>
      </trkpt>
      <trkpt lat="55.21876" lon="-4.71993">
        <ele>146.48</ele>
        <time>2021-03-20T14:55:55Z</time>
      </trkpt>
      <trkpt lat="55.21868" lon="-4.71981">
        <ele>145.57</ele>
        <time>2021-03-20T14:55:56Z</time>
      </trkpt>
      <trkpt lat="55.21851" lon="-4.71963">
        <ele>143.34</ele>
        <time>2021-03-20T14:55:58Z</time>
      </trkpt>
      <trkpt lat="55.21839" lon="-4.71955">
        <ele>141.74</ele>
        <time>2021-03-20T14:56:00Z</time>
      </trkpt>
      <trkpt lat="55.2183" lon="-4.71953">
        <ele>141.27</ele>
        <time>2021-03-20T14:56:01Z</time>
      </trkpt>
      <trkpt lat="55.21817" lon="-4.71956">
        <ele>142.06</ele>
        <time>2021-03-20T14:56:03Z</time>
      </trkpt>
      <trkpt lat="55.21801" lon="-4.71983">
        <ele>145.67</ele>
        <time>2021-03-20T14:56:05Z</time>
      </trkpt>
      <trkpt lat="55.21794" lon="-4.71986">
        <ele>146.72</ele>
        <time>2021-03-20T14:56:06Z</time>
      </trkpt>
      <trkpt lat="55.21787" lon="-4.71984">
        <ele>147.2</ele>
        <time>2021-03-20T14:56:08Z</time>
      </trkpt>
      <trkpt lat="55.21783" lon="-4.71979">
        <ele>147.14</ele>
        <time>2021-03-20T14:56:09Z</time>
      </trkpt>
      <trkpt lat="55.2178" lon="-4.71968">
        <ele>146.35</ele>
        <time>2021-03-20T14:56:11Z</time>
      </trkpt>
      <trkpt lat="55.21779" lon="-4.71921">
        <ele>143.03</ele>
        <time>2021-03-20T14:56:13Z</time>
      </trkpt>
      <trkpt lat="55.21777" lon="-4.71907">
        <ele>142.81</ele>
        <time>2021-03-20T14:56:14Z</time>
      </trkpt>
      <trkpt lat="55.21769" lon="-4.7189">
        <ele>143.05</ele>
        <time>2021-03-20T14:56:16Z</time>
      </trkpt>
      <trkpt lat="55.21707" lon="-4.71828">
        <ele>141.6</ele>
        <time>2021-03-20T14:56:18Z</time>
      </trkpt>
      <trkpt lat="55.21692" lon="-4.71815">
        <ele>140.67</ele>
        <time>2021-03-20T14:56:19Z</time>
      </trkpt>
      <trkpt lat="55.21683" lon="-4.7181">
        <ele>140.32</ele>
        <time>2021-03-20T14:56:21Z</time>
      </trkpt>
      <trkpt lat="55.21656" lon="-4.7181">
        <ele>141.04</ele>
        <time>2021-03-20T14:56:22Z</time>
      </trkpt>
      <trkpt lat="55.21651" lon="-4.71805">
        <ele>141.05</ele>
        <time>2021-03-20T14:56:24Z</time>
      </trkpt>
      <trkpt lat="55.21647" lon="-4.71797">
        <ele>140.41</ele>
        <time>2021-03-20T14:56:26Z</time>
      </trkpt>
      <trkpt lat="55.21644" lon="-4.71762">
        <ele>137.48</ele>
        <time>2021-03-20T14:56:27Z</time>
      </trkpt>
      <trkpt lat="55.21638" lon="-4.71726">
        <ele>135.31</ele>
        <time>2021-03-20T14:56:29Z</time>
      </trkpt>
      <trkpt lat="55.2163" lon="-4.71704">
        <ele>133.81</ele>
        <time>2021-03-20T14:56:31Z</time>
      </trkpt>
      <trkpt lat="55.2162" lon="-4.71693">
        <ele>133.81</ele>
        <time>2021-03-20T14:56:32Z</time>
      </trkpt>
      <trkpt lat="55.21582" lon="-4.71674">
        <ele>134.71</ele>
        <time>2021-03-20T14:56:34Z</time>
      </trkpt>
      <trkpt lat="55.21569" lon="-4.71657">
        <ele>135.07</ele>
        <time>2021-03-20T14:56:35Z</time>
      </trkpt>
      <trkpt lat="55.21565" lon="-4.71643">
        <ele>134.86</ele>
        <time>2021-03-20T14:56:37Z</time>
      </trkpt>
      <trkpt lat="55.21563" lon="-4.71627">
        <ele>134.13</ele>
        <time>2021-03-20T14:56:39Z</time>
      </trkpt>
      <trkpt lat="55.21553" lon="-4.7151">
        <ele>126.53</ele>
        <time>2021-03-20T14:56:40Z</time>
      </trkpt>
      <trkpt lat="55.2155" lon="-4.71496">
        <ele>125.53</ele>
        <time>2021-03-20T14:56:42Z</time>
      </trkpt>
      <trkpt lat="55.21547" lon="-4.71482">
        <ele>125.17</ele>
        <time>2021-03-20T14:56:43Z</time>
      </trkpt>
      <trkpt lat="55.21542" lon="-4.7147">
        <ele>124.78</ele>
        <time>2021-03-20T14:56:45Z</time>
      </trkpt>
      <trkpt lat="55.21535" lon="-4.71462">
        <ele>124.46</ele>
        <time>2021-03-20T14:56:47Z</time>
      </trkpt>
      <trkpt lat="55.21522" lon="-4.71456">
        <ele>123.93</ele>
        <time>2021-03-20T14:56:48Z</time>
      </trkpt>
      <trkpt lat="55.21475" lon="-4.71464">
        <ele>121.13</ele>
        <time>2021-03-20T14:56:50Z</time>
      </trkpt>
      <trkpt lat="55.21432" lon="-4.71469">
        <ele>118.1</ele>
        <time>2021-03-20T14:56:52Z</time>
      </trkpt>
      <trkpt lat="55.21425" lon="-4.71472">
        <ele>117.83</ele>
        <time>2021-03-20T14:56:53Z</time>
      </trkpt>
      <trkpt lat="55.21417" lon="-4.71479">
        <ele>118</ele>
        <time>2021-03-20T14:56:55Z</time>
      </trkpt>
      <trkpt lat="55.21393" lon="-4.71519">
        <ele>119.3</ele>
        <time>2021-03-20T14:56:56Z</time>
      </trkpt>
      <trkpt lat="55.21373" lon="-4.7154">
        <ele>118.83</ele>
        <time>2021-03-20T14:56:58Z</time>
      </trkpt>
      <trkpt lat="55.2136" lon="-4.71548">
        <ele>117.35</ele>
        <time>2021-03-20T14:57:00Z</time>
      </trkpt>
      <trkpt lat="55.2134" lon="-4.71553">
        <ele>116.34</ele>
        <time>2021-03-20T14:57:01Z</time>
      </trkpt>
      <trkpt lat="55.21279" lon="-4.71561">
        <ele>114.81</ele>
        <time>2021-03-20T14:57:03Z</time>
      </trkpt>
      <trkpt lat="55.21266" lon="-4.71558">
        <ele>114.31</ele>
        <time>2021-03-20T14:57:05Z</time>
      </trkpt>
      <trkpt lat="55.21233" lon="-4.71541">
        <ele>111.53</ele>
        <time>2021-03-20T14:57:06Z</time>
      </trkpt>
      <trkpt lat="55.21219" lon="-4.71538">
        <ele>110.7</ele>
        <time>2021-03-20T14:57:08Z</time>
      </trkpt>
      <trkpt lat="55.21209" lon="-4.71538">
        <ele>110.76</ele>
        <time>2021-03-20T14:57:09Z</time>
      </trkpt>
      <trkpt lat="55.2117" lon="-4.7155">
        <ele>114.92</ele>
        <time>2021-03-20T14:57:11Z</time>
      </trkpt>
      <trkpt lat="55.21118" lon="-4.71554">
        <ele>114.49</ele>
        <time>2021-03-20T14:57:13Z</time>
      </trkpt>
      <trkpt lat="55.21079" lon="-4.71565">
        <ele>112.08</ele>
        <time>2021-03-20T14:57:14Z</time>
      </trkpt>
      <trkpt lat="55.2106" lon="-4.71567">
        <ele>111.38</ele>
        <time>2021-03-20T14:57:16Z</time>
      </trkpt>
      <trkpt lat="55.21051" lon="-4.71561">
        <ele>110.1</ele>
        <time>2021-03-20T14:57:18Z</time>
      </trkpt>
      <trkpt lat="55.21047" lon="-4.71553">
        <ele>108.79</ele>
        <time>2021-03-20T14:57:19Z</time>
      </trkpt>
      <trkpt lat="55.21045" lon="-4.71533">
        <ele>107.34</ele>
        <time>2021-03-20T14:57:21Z</time>
      </trkpt>
      <trkpt lat="55.21046" lon="-4.71489">
        <ele>104.74</ele>
        <time>2021-03-20T14:57:22Z</time>
      </trkpt>
      <trkpt lat="55.21041" lon="-4.7142">
        <ele>103.53</ele>
        <time>2021-03-20T14:57:24Z</time>
      </trkpt>
      <trkpt lat="55.21039" lon="-4.71362">
        <ele>104</ele>
        <time>2021-03-20T14:57:26Z</time>
      </trkpt>
      <trkpt lat="55.21038" lon="-4.71352">
        <ele>104</ele>
        <time>2021-03-20T14:57:27Z</time>
      </trkpt>
      <trkpt lat="55.2103" lon="-4.71346">
        <ele>104</ele>
        <time>2021-03-20T14:57:30Z</time>
      </trkpt>
      <trkpt lat="55.20979" lon="-4.71341">
        <ele>103.73</ele>
        <time>2021-03-20T14:57:33Z</time>
      </trkpt>
      <trkpt lat="55.20956" lon="-4.71337">
        <ele>104.36</ele>
        <time>2021-03-20T14:57:35Z</time>
      </trkpt>
      <trkpt lat="55.20936" lon="-4.71338">
        <ele>104.94</ele>
        <time>2021-03-20T14:57:38Z</time>
      </trkpt>
      <trkpt lat="55.20917" lon="-4.71344">
        <ele>105.21</ele>
        <time>2021-03-20T14:57:40Z</time>
      </trkpt>
      <trkpt lat="55.20871" lon="-4.71374">
        <ele>104.39</ele>
        <time>2021-03-20T14:57:43Z</time>
      </trkpt>
      <trkpt lat="55.20821" lon="-4.71377">
        <ele>106.07</ele>
        <time>2021-03-20T14:57:45Z</time>
      </trkpt>
      <trkpt lat="55.20803" lon="-4.71387">
        <ele>106.28</ele>
        <time>2021-03-20T14:57:48Z</time>
      </trkpt>
      <trkpt lat="55.20786" lon="-4.71402">
        <ele>105.74</ele>
        <time>2021-03-20T14:57:51Z</time>
      </trkpt>
      <trkpt lat="55.20775" lon="-4.71417">
        <ele>105.09</ele>
        <time>2021-03-20T14:57:53Z</time>
      </trkpt>
      <trkpt lat="55.20743" lon="-4.71476">
        <ele>102.6</ele>
        <time>2021-03-20T14:57:56Z</time>
      </trkpt>
      <trkpt lat="55.20734" lon="-4.71484">
        <ele>103.28</ele>
        <time>2021-03-20T14:57:58Z</time>
      </trkpt>
      <trkpt lat="55.20695" lon="-4.71489">
        <ele>106.36</ele>
        <time>2021-03-20T14:58:01Z</time>
      </trkpt>
      <trkpt lat="55.20672" lon="-4.71515">
        <ele>107.35</ele>
        <time>2021-03-20T14:58:04Z</time>
      </trkpt>
      <trkpt lat="55.20651" lon="-4.71563">
        <ele>106.47</ele>
        <time>2021-03-20T14:58:06Z</time>
      </trkpt>
      <trkpt lat="55.20625" lon="-4.71658">
        <ele>106.4</ele>
        <time>2021-03-20T14:58:09Z</time>
      </trkpt>
      <trkpt lat="55.20535" lon="-4.71795">
        <ele>108.89</ele>
        <time>2021-03-20T14:58:11Z</time>
      </trkpt>
      <trkpt lat="55.20506" lon="-4.71865">
        <ele>108.66</ele>
        <time>2021-03-20T14:58:14Z</time>
      </trkpt>
      <trkpt lat="55.20477" lon="-4.71926">
        <ele>108.97</ele>
        <time>2021-03-20T14:58:17Z</time>
      </trkpt>
      <trkpt lat="55.20373" lon="-4.72072">
        <ele>108.86</ele>
        <time>2021-03-20T14:58:19Z</time>
      </trkpt>
      <trkpt lat="55.20319" lon="-4.72183">
        <ele>108.92</ele>
        <time>2021-03-20T14:58:22Z</time>
      </trkpt>
      <trkpt lat="55.20302" lon="-4.7227">
        <ele>103.19</ele>
        <time>2021-03-20T14:58:24Z</time>
      </trkpt>
      <trkpt lat="55.2018" lon="-4.72599">
        <ele>105.32</ele>
        <time>2021-03-20T14:58:27Z</time>
      </trkpt>
      <trkpt lat="55.20152" lon="-4.7273">
        <ele>99.4</ele>
        <time>2021-03-20T14:58:30Z</time>
      </trkpt>
      <trkpt lat="55.20125" lon="-4.72813">
        <ele>99.61</ele>
        <time>2021-03-20T14:58:32Z</time>
      </trkpt>
      <trkpt lat="55.20116" lon="-4.72867">
        <ele>98.42</ele>
        <time>2021-03-20T14:58:35Z</time>
      </trkpt>
      <trkpt lat="55.20109" lon="-4.72962">
        <ele>95.15</ele>
        <time>2021-03-20T14:58:37Z</time>
      </trkpt>
      <trkpt lat="55.20084" lon="-4.7313">
        <ele>95.24</ele>
        <time>2021-03-20T14:58:40Z</time>
      </trkpt>
      <trkpt lat="55.20066" lon="-4.73171">
        <ele>97.49</ele>
        <time>2021-03-20T14:58:42Z</time>
      </trkpt>
      <trkpt lat="55.20026" lon="-4.73215">
        <ele>101.82</ele>
        <time>2021-03-20T14:58:45Z</time>
      </trkpt>
      <trkpt lat="55.2" lon="-4.73256">
        <ele>103.55</ele>
        <time>2021-03-20T14:58:48Z</time>
      </trkpt>
      <trkpt lat="55.19975" lon="-4.73332">
        <ele>100.64</ele>
        <time>2021-03-20T14:58:50Z</time>
      </trkpt>
      <trkpt lat="55.19956" lon="-4.73369">
        <ele>99.76</ele>
        <time>2021-03-20T14:58:53Z</time>
      </trkpt>
      <trkpt lat="55.19943" lon="-4.73408">
        <ele>98.94</ele>
        <time>2021-03-20T14:58:55Z</time>
      </trkpt>
      <trkpt lat="55.19924" lon="-4.73549">
        <ele>93.22</ele>
        <time>2021-03-20T14:58:58Z</time>
      </trkpt>
      <trkpt lat="55.19929" lon="-4.73643">
        <ele>94.73</ele>
        <time>2021-03-20T14:59:01Z</time>
      </trkpt>
      <trkpt lat="55.19929" lon="-4.73701">
        <ele>96.01</ele>
        <time>2021-03-20T14:59:03Z</time>
      </trkpt>
      <trkpt lat="55.1993" lon="-4.73756">
        <ele>97.1</ele>
        <time>2021-03-20T14:59:06Z</time>
      </trkpt>
      <trkpt lat="55.19924" lon="-4.73792">
        <ele>97.81</ele>
        <time>2021-03-20T14:59:08Z</time>
      </trkpt>
      <trkpt lat="55.19894" lon="-4.7387">
        <ele>98.16</ele>
        <time>2021-03-20T14:59:11Z</time>
      </trkpt>
      <trkpt lat="55.1985" lon="-4.73939">
        <ele>98.98</ele>
        <time>2021-03-20T14:59:14Z</time>
      </trkpt>
      <trkpt lat="55.19823" lon="-4.73988">
        <ele>98.06</ele>
        <time>2021-03-20T14:59:16Z</time>
      </trkpt>
      <trkpt lat="55.19741" lon="-4.74251">
        <ele>92.28</ele>
        <time>2021-03-20T14:59:19Z</time>
      </trkpt>
      <trkpt lat="55.19714" lon="-4.74308">
        <ele>91.04</ele>
        <time>2021-03-20T14:59:21Z</time>
      </trkpt>
      <trkpt lat="55.19653" lon="-4.74384">
        <ele>93.53</ele>
        <time>2021-03-20T14:59:24Z</time>
      </trkpt>
      <trkpt lat="55.19625" lon="-4.74411">
        <ele>93.87</ele>
        <time>2021-03-20T14:59:27Z</time>
      </trkpt>
      <trkpt lat="55.19538" lon="-4.74443">
        <ele>94.12</ele>
        <time>2021-03-20T14:59:29Z</time>
      </trkpt>
      <trkpt lat="55.19511" lon="-4.74462">
        <ele>94.21</ele>
        <time>2021-03-20T14:59:32Z</time>
      </trkpt>
      <trkpt lat="55.1947" lon="-4.74521">
        <ele>97.01</ele>
        <time>2021-03-20T14:59:34Z</time>
      </trkpt>
      <trkpt lat="55.19448" lon="-4.7455">
        <ele>97.99</ele>
        <time>2021-03-20T14:59:37Z</time>
      </trkpt>
      <trkpt lat="55.19431" lon="-4.74579">
        <ele>99.43</ele>
        <time>2021-03-20T14:59:39Z</time>
      </trkpt>
      <trkpt lat="55.19386" lon="-4.74672">
        <ele>104.11</ele>
        <time>2021-03-20T14:59:42Z</time>
      </trkpt>
      <trkpt lat="55.19358" lon="-4.7474">
        <ele>107.64</ele>
        <time>2021-03-20T14:59:45Z</time>
      </trkpt>
      <trkpt lat="55.19267" lon="-4.74989">
        <ele>104</ele>
        <time>2021-03-20T14:59:47Z</time>
      </trkpt>
      <trkpt lat="55.19248" lon="-4.75029">
        <ele>103.93</ele>
        <time>2021-03-20T14:59:50Z</time>
      </trkpt>
      <trkpt lat="55.1922" lon="-4.75072">
        <ele>101.23</ele>
        <time>2021-03-20T14:59:52Z</time>
      </trkpt>
      <trkpt lat="55.19138" lon="-4.75169">
        <ele>90.83</ele>
        <time>2021-03-20T14:59:55Z</time>
      </trkpt>
      <trkpt lat="55.19115" lon="-4.75202">
        <ele>89.12</ele>
        <time>2021-03-20T14:59:58Z</time>
      </trkpt>
      <trkpt lat="55.19098" lon="-4.75235">
        <ele>87.6</ele>
        <time>2021-03-20T15:00:00Z</time>
      </trkpt>
      <trkpt lat="55.19072" lon="-4.75308">
        <ele>84.96</ele>
        <time>2021-03-20T15:00:03Z</time>
      </trkpt>
      <trkpt lat="55.19025" lon="-4.75452">
        <ele>85.84</ele>
        <time>2021-03-20T15:00:05Z</time>
      </trkpt>
      <trkpt lat="55.19012" lon="-4.75485">
        <ele>85.31</ele>
        <time>2021-03-20T15:00:08Z</time>
      </trkpt>
      <trkpt lat="55.18994" lon="-4.75516">
        <ele>85.43</ele>
        <time>2021-03-20T15:00:11Z</time>
      </trkpt>
      <trkpt lat="55.1897" lon="-4.75541">
        <ele>87.17</ele>
        <time>2021-03-20T15:00:13Z</time>
      </trkpt>
      <trkpt lat="55.1895" lon="-4.75558">
        <ele>88.65</ele>
        <time>2021-03-20T15:00:16Z</time>
      </trkpt>
      <trkpt lat="55.18938" lon="-4.75578">
        <ele>91</ele>
        <time>2021-03-20T15:00:18Z</time>
      </trkpt>
      <trkpt lat="55.18932" lon="-4.75604">
        <ele>92.92</ele>
        <time>2021-03-20T15:00:21Z</time>
      </trkpt>
      <trkpt lat="55.18934" lon="-4.75639">
        <ele>93.88</ele>
        <time>2021-03-20T15:00:24Z</time>
      </trkpt>
      <trkpt lat="55.18947" lon="-4.75695">
        <ele>92.5</ele>
        <time>2021-03-20T15:00:26Z</time>
      </trkpt>
      <trkpt lat="55.1895" lon="-4.75719">
        <ele>92.21</ele>
        <time>2021-03-20T15:00:29Z</time>
      </trkpt>
      <trkpt lat="55.18947" lon="-4.75731">
        <ele>92.92</ele>
        <time>2021-03-20T15:00:31Z</time>
      </trkpt>
      <trkpt lat="55.18929" lon="-4.75762">
        <ele>96.29</ele>
        <time>2021-03-20T15:00:34Z</time>
      </trkpt>
      <trkpt lat="55.18906" lon="-4.75839">
        <ele>100.11</ele>
        <time>2021-03-20T15:00:36Z</time>
      </trkpt>
      <trkpt lat="55.18837" lon="-4.75953">
        <ele>106.56</ele>
        <time>2021-03-20T15:00:39Z</time>
      </trkpt>
      <trkpt lat="55.1881" lon="-4.75988">
        <ele>109.48</ele>
        <time>2021-03-20T15:00:42Z</time>
      </trkpt>
      <trkpt lat="55.18795" lon="-4.76015">
        <ele>110.65</ele>
        <time>2021-03-20T15:00:44Z</time>
      </trkpt>
      <trkpt lat="55.18772" lon="-4.76075">
        <ele>110.22</ele>
        <time>2021-03-20T15:00:47Z</time>
      </trkpt>
      <trkpt lat="55.18624" lon="-4.76426">
        <ele>111.43</ele>
        <time>2021-03-20T15:00:49Z</time>
      </trkpt>
      <trkpt lat="55.18603" lon="-4.76487">
        <ele>110.37</ele>
        <time>2021-03-20T15:00:52Z</time>
      </trkpt>
      <trkpt lat="55.18578" lon="-4.76572">
        <ele>107.11</ele>
        <time>2021-03-20T15:00:55Z</time>
      </trkpt>
      <trkpt lat="55.18538" lon="-4.76677">
        <ele>105.79</ele>
        <time>2021-03-20T15:00:57Z</time>
      </trkpt>
      <trkpt lat="55.18529" lon="-4.76718">
        <ele>104.09</ele>
        <time>2021-03-20T15:01:00Z</time>
      </trkpt>
      <trkpt lat="55.1852" lon="-4.7679">
        <ele>101.75</ele>
        <time>2021-03-20T15:01:02Z</time>
      </trkpt>
      <trkpt lat="55.18494" lon="-4.77031">
        <ele>93.11</ele>
        <time>2021-03-20T15:01:05Z</time>
      </trkpt>
      <trkpt lat="55.18482" lon="-4.77118">
        <ele>94.59</ele>
        <time>2021-03-20T15:01:08Z</time>
      </trkpt>
      <trkpt lat="55.18465" lon="-4.77199">
        <ele>95.21</ele>
        <time>2021-03-20T15:01:10Z</time>
      </trkpt>
      <trkpt lat="55.18463" lon="-4.77291">
        <ele>90.89</ele>
        <time>2021-03-20T15:01:13Z</time>
      </trkpt>
      <trkpt lat="55.18458" lon="-4.77337">
        <ele>89.74</ele>
        <time>2021-03-20T15:01:15Z</time>
      </trkpt>
      <trkpt lat="55.18446" lon="-4.77385">
        <ele>88.81</ele>
        <time>2021-03-20T15:01:18Z</time>
      </trkpt>
      <trkpt lat="55.18444" lon="-4.77417">
        <ele>87.07</ele>
        <time>2021-03-20T15:01:21Z</time>
      </trkpt>
      <trkpt lat="55.18446" lon="-4.77463">
        <ele>85.15</ele>
        <time>2021-03-20T15:01:23Z</time>
      </trkpt>
      <trkpt lat="55.18444" lon="-4.77575">
        <ele>83.04</ele>
        <time>2021-03-20T15:01:26Z</time>
      </trkpt>
      <trkpt lat="55.18437" lon="-4.77643">
        <ele>82.79</ele>
        <time>2021-03-20T15:01:28Z</time>
      </trkpt>
      <trkpt lat="55.18433" lon="-4.77658">
        <ele>83.22</ele>
        <time>2021-03-20T15:01:31Z</time>
      </trkpt>
      <trkpt lat="55.18393" lon="-4.77749">
        <ele>86.42</ele>
        <time>2021-03-20T15:01:33Z</time>
      </trkpt>
      <trkpt lat="55.18383" lon="-4.77787">
        <ele>87.89</ele>
        <time>2021-03-20T15:01:36Z</time>
      </trkpt>
      <trkpt lat="55.18356" lon="-4.77964">
        <ele>88.96</ele>
        <time>2021-03-20T15:01:39Z</time>
      </trkpt>
      <trkpt lat="55.18333" lon="-4.78045">
        <ele>88.43</ele>
        <time>2021-03-20T15:01:41Z</time>
      </trkpt>
      <trkpt lat="55.18299" lon="-4.78176">
        <ele>86.53</ele>
        <time>2021-03-20T15:01:44Z</time>
      </trkpt>
      <trkpt lat="55.18281" lon="-4.7832">
        <ele>83.5</ele>
        <time>2021-03-20T15:01:46Z</time>
      </trkpt>
      <trkpt lat="55.18274" lon="-4.78394">
        <ele>82.38</ele>
        <time>2021-03-20T15:01:49Z</time>
      </trkpt>
      <trkpt lat="55.18267" lon="-4.7842">
        <ele>82.49</ele>
        <time>2021-03-20T15:01:52Z</time>
      </trkpt>
      <trkpt lat="55.18235" lon="-4.78485">
        <ele>85.99</ele>
        <time>2021-03-20T15:01:54Z</time>
      </trkpt>
      <trkpt lat="55.18204" lon="-4.78571">
        <ele>89.8</ele>
        <time>2021-03-20T15:01:57Z</time>
      </trkpt>
      <trkpt lat="55.18184" lon="-4.78609">
        <ele>90.7</ele>
        <time>2021-03-20T15:01:59Z</time>
      </trkpt>
      <trkpt lat="55.18162" lon="-4.78636">
        <ele>89.84</ele>
        <time>2021-03-20T15:02:02Z</time>
      </trkpt>
      <trkpt lat="55.18139" lon="-4.7865">
        <ele>90.71</ele>
        <time>2021-03-20T15:02:05Z</time>
      </trkpt>
      <trkpt lat="55.18118" lon="-4.78668">
        <ele>92.49</ele>
        <time>2021-03-20T15:02:07Z</time>
      </trkpt>
      <trkpt lat="55.18105" lon="-4.78694">
        <ele>92.93</ele>
        <time>2021-03-20T15:02:10Z</time>
      </trkpt>
      <trkpt lat="55.18051" lon="-4.78852">
        <ele>97.46</ele>
        <time>2021-03-20T15:02:12Z</time>
      </trkpt>
      <trkpt lat="55.18039" lon="-4.78893">
        <ele>99.48</ele>
        <time>2021-03-20T15:02:15Z</time>
      </trkpt>
      <trkpt lat="55.18024" lon="-4.78977">
        <ele>98.36</ele>
        <time>2021-03-20T15:02:18Z</time>
      </trkpt>
      <trkpt lat="55.17998" lon="-4.79053">
        <ele>95.4</ele>
        <time>2021-03-20T15:02:20Z</time>
      </trkpt>
      <trkpt lat="55.17987" lon="-4.79073">
        <ele>94.73</ele>
        <time>2021-03-20T15:02:23Z</time>
      </trkpt>
      <trkpt lat="55.17962" lon="-4.79089">
        <ele>95.17</ele>
        <time>2021-03-20T15:02:25Z</time>
      </trkpt>
      <trkpt lat="55.1795" lon="-4.79105">
        <ele>95.03</ele>
        <time>2021-03-20T15:02:28Z</time>
      </trkpt>
      <trkpt lat="55.17914" lon="-4.79187">
        <ele>94.31</ele>
        <time>2021-03-20T15:02:30Z</time>
      </trkpt>
      <trkpt lat="55.17806" lon="-4.79364">
        <ele>86.9</ele>
        <time>2021-03-20T15:02:33Z</time>
      </trkpt>
      <trkpt lat="55.17783" lon="-4.79412">
        <ele>85.33</ele>
        <time>2021-03-20T15:02:36Z</time>
      </trkpt>
      <trkpt lat="55.17767" lon="-4.795">
        <ele>82.51</ele>
        <time>2021-03-20T15:02:38Z</time>
      </trkpt>
      <trkpt lat="55.17756" lon="-4.79599">
        <ele>81.12</ele>
        <time>2021-03-20T15:02:41Z</time>
      </trkpt>
      <trkpt lat="55.17745" lon="-4.79889">
        <ele>79.84</ele>
        <time>2021-03-20T15:02:43Z</time>
      </trkpt>
      <trkpt lat="55.17739" lon="-4.79936">
        <ele>81.59</ele>
        <time>2021-03-20T15:02:46Z</time>
      </trkpt>
      <trkpt lat="55.17691" lon="-4.80095">
        <ele>82.83</ele>
        <time>2021-03-20T15:02:49Z</time>
      </trkpt>
      <trkpt lat="55.17647" lon="-4.80146">
        <ele>86.67</ele>
        <time>2021-03-20T15:02:51Z</time>
      </trkpt>
      <trkpt lat="55.17627" lon="-4.80175">
        <ele>87.7</ele>
        <time>2021-03-20T15:02:54Z</time>
      </trkpt>
      <trkpt lat="55.17617" lon="-4.80214">
        <ele>86.73</ele>
        <time>2021-03-20T15:02:56Z</time>
      </trkpt>
      <trkpt lat="55.17613" lon="-4.80249">
        <ele>86.77</ele>
        <time>2021-03-20T15:02:59Z</time>
      </trkpt>
      <trkpt lat="55.17606" lon="-4.80286">
        <ele>87.4</ele>
        <time>2021-03-20T15:03:02Z</time>
      </trkpt>
      <trkpt lat="55.17587" lon="-4.80326">
        <ele>87.96</ele>
        <time>2021-03-20T15:03:04Z</time>
      </trkpt>
      <trkpt lat="55.17464" lon="-4.80534">
        <ele>82.56</ele>
        <time>2021-03-20T15:03:07Z</time>
      </trkpt>
      <trkpt lat="55.17441" lon="-4.80591">
        <ele>83.06</ele>
        <time>2021-03-20T15:03:09Z</time>
      </trkpt>
      <trkpt lat="55.17423" lon="-4.80622">
        <ele>83.65</ele>
        <time>2021-03-20T15:03:12Z</time>
      </trkpt>
      <trkpt lat="55.17354" lon="-4.80698">
        <ele>83.87</ele>
        <time>2021-03-20T15:03:15Z</time>
      </trkpt>
      <trkpt lat="55.17328" lon="-4.80716">
        <ele>86.78</ele>
        <time>2021-03-20T15:03:17Z</time>
      </trkpt>
      <trkpt lat="55.17309" lon="-4.80735">
        <ele>87.52</ele>
        <time>2021-03-20T15:03:20Z</time>
      </trkpt>
      <trkpt lat="55.17295" lon="-4.80758">
        <ele>88.28</ele>
        <time>2021-03-20T15:03:22Z</time>
      </trkpt>
      <trkpt lat="55.17289" lon="-4.80791">
        <ele>89.47</ele>
        <time>2021-03-20T15:03:25Z</time>
      </trkpt>
      <trkpt lat="55.17265" lon="-4.81185">
        <ele>89.18</ele>
        <time>2021-03-20T15:03:27Z</time>
      </trkpt>
      <trkpt lat="55.17261" lon="-4.81228">
        <ele>88.25</ele>
        <time>2021-03-20T15:03:30Z</time>
      </trkpt>
      <trkpt lat="55.1725" lon="-4.81262">
        <ele>88.52</ele>
        <time>2021-03-20T15:03:33Z</time>
      </trkpt>
      <trkpt lat="55.17232" lon="-4.81293">
        <ele>89.01</ele>
        <time>2021-03-20T15:03:35Z</time>
      </trkpt>
      <trkpt lat="55.17225" lon="-4.81313">
        <ele>88.56</ele>
        <time>2021-03-20T15:03:38Z</time>
      </trkpt>
      <trkpt lat="55.17224" lon="-4.8133">
        <ele>88.06</ele>
        <time>2021-03-20T15:03:40Z</time>
      </trkpt>
      <trkpt lat="55.17225" lon="-4.8135">
        <ele>87.34</ele>
        <time>2021-03-20T15:03:43Z</time>
      </trkpt>
      <trkpt lat="55.17232" lon="-4.81386">
        <ele>87</ele>
        <time>2021-03-20T15:03:46Z</time>
      </trkpt>
      <trkpt lat="55.17236" lon="-4.81428">
        <ele>87</ele>
        <time>2021-03-20T15:03:48Z</time>
      </trkpt>
      <trkpt lat="55.17235" lon="-4.81476">
        <ele>88</ele>
        <time>2021-03-20T15:03:51Z</time>
      </trkpt>
      <trkpt lat="55.17223" lon="-4.81574">
        <ele>89.62</ele>
        <time>2021-03-20T15:03:53Z</time>
      </trkpt>
      <trkpt lat="55.17189" lon="-4.81804">
        <ele>91.11</ele>
        <time>2021-03-20T15:03:56Z</time>
      </trkpt>
      <trkpt lat="55.1717" lon="-4.81997">
        <ele>82.89</ele>
        <time>2021-03-20T15:03:59Z</time>
      </trkpt>
      <trkpt lat="55.1717" lon="-4.82016">
        <ele>82.23</ele>
        <time>2021-03-20T15:04:01Z</time>
      </trkpt>
      <trkpt lat="55.17175" lon="-4.82028">
        <ele>81.36</ele>
        <time>2021-03-20T15:04:04Z</time>
      </trkpt>
      <trkpt lat="55.17182" lon="-4.82032">
        <ele>80.69</ele>
        <time>2021-03-20T15:04:06Z</time>
      </trkpt>
      <trkpt lat="55.17199" lon="-4.82028">
        <ele>79.69</ele>
        <time>2021-03-20T15:04:09Z</time>
      </trkpt>
      <trkpt lat="55.17202" lon="-4.82033">
        <ele>78.93</ele>
        <time>2021-03-20T15:04:12Z</time>
      </trkpt>
      <trkpt lat="55.172" lon="-4.82043">
        <ele>78.31</ele>
        <time>2021-03-20T15:04:14Z</time>
      </trkpt>
      <trkpt lat="55.17186" lon="-4.8206">
        <ele>78.05</ele>
        <time>2021-03-20T15:04:17Z</time>
      </trkpt>
      <trkpt lat="55.17171" lon="-4.82083">
        <ele>75.5</ele>
        <time>2021-03-20T15:04:19Z</time>
      </trkpt>
      <trkpt lat="55.17157" lon="-4.82111">
        <ele>72.04</ele>
        <time>2021-03-20T15:04:22Z</time>
      </trkpt>
      <trkpt lat="55.17148" lon="-4.82152">
        <ele>64.35</ele>
        <time>2021-03-20T15:04:24Z</time>
      </trkpt>
      <trkpt lat="55.17142" lon="-4.82197">
        <ele>60.83</ele>
        <time>2021-03-20T15:04:27Z</time>
      </trkpt>
      <trkpt lat="55.17134" lon="-4.82235">
        <ele>59.92</ele>
        <time>2021-03-20T15:04:30Z</time>
      </trkpt>
      <trkpt lat="55.1712" lon="-4.82265">
        <ele>59.31</ele>
        <time>2021-03-20T15:04:32Z</time>
      </trkpt>
      <trkpt lat="55.17101" lon="-4.82286">
        <ele>58.81</ele>
        <time>2021-03-20T15:04:35Z</time>
      </trkpt>
      <trkpt lat="55.17083" lon="-4.82296">
        <ele>58.33</ele>
        <time>2021-03-20T15:04:37Z</time>
      </trkpt>
      <trkpt lat="55.17077" lon="-4.82305">
        <ele>58.7</ele>
        <time>2021-03-20T15:04:40Z</time>
      </trkpt>
      <trkpt lat="55.17075" lon="-4.82316">
        <ele>58.98</ele>
        <time>2021-03-20T15:04:43Z</time>
      </trkpt>
      <trkpt lat="55.17081" lon="-4.82366">
        <ele>66.56</ele>
        <time>2021-03-20T15:04:45Z</time>
      </trkpt>
      <trkpt lat="55.17035" lon="-4.8238">
        <ele>63.95</ele>
        <time>2021-03-20T15:04:48Z</time>
      </trkpt>
      <trkpt lat="55.16975" lon="-4.82408">
        <ele>65.15</ele>
        <time>2021-03-20T15:04:52Z</time>
      </trkpt>
      <trkpt lat="55.1694" lon="-4.82421">
        <ele>66.94</ele>
        <time>2021-03-20T15:04:55Z</time>
      </trkpt>
      <trkpt lat="55.16885" lon="-4.82409">
        <ele>66.2</ele>
        <time>2021-03-20T15:04:58Z</time>
      </trkpt>
      <trkpt lat="55.16854" lon="-4.82412">
        <ele>65.87</ele>
        <time>2021-03-20T15:05:01Z</time>
      </trkpt>
      <trkpt lat="55.16797" lon="-4.82457">
        <ele>64.51</ele>
        <time>2021-03-20T15:05:04Z</time>
      </trkpt>
      <trkpt lat="55.16622" lon="-4.82482">
        <ele>62.93</ele>
        <time>2021-03-20T15:05:07Z</time>
      </trkpt>
      <trkpt lat="55.16546" lon="-4.82504">
        <ele>65.94</ele>
        <time>2021-03-20T15:05:10Z</time>
      </trkpt>
      <trkpt lat="55.16295" lon="-4.82614">
        <ele>62.42</ele>
        <time>2021-03-20T15:05:13Z</time>
      </trkpt>
      <trkpt lat="55.16233" lon="-4.82644">
        <ele>63.55</ele>
        <time>2021-03-20T15:05:16Z</time>
      </trkpt>
      <trkpt lat="55.16197" lon="-4.82676">
        <ele>64.32</ele>
        <time>2021-03-20T15:05:19Z</time>
      </trkpt>
      <trkpt lat="55.16154" lon="-4.82721">
        <ele>58.67</ele>
        <time>2021-03-20T15:05:23Z</time>
      </trkpt>
      <trkpt lat="55.16111" lon="-4.82762">
        <ele>55.84</ele>
        <time>2021-03-20T15:05:26Z</time>
      </trkpt>
      <trkpt lat="55.16085" lon="-4.82807">
        <ele>57.15</ele>
        <time>2021-03-20T15:05:29Z</time>
      </trkpt>
      <trkpt lat="55.16053" lon="-4.82888">
        <ele>60.68</ele>
        <time>2021-03-20T15:05:32Z</time>
      </trkpt>
      <trkpt lat="55.16038" lon="-4.82916">
        <ele>60.12</ele>
        <time>2021-03-20T15:05:35Z</time>
      </trkpt>
      <trkpt lat="55.1602" lon="-4.82942">
        <ele>57.92</ele>
        <time>2021-03-20T15:05:38Z</time>
      </trkpt>
      <trkpt lat="55.15952" lon="-4.83016">
        <ele>58.93</ele>
        <time>2021-03-20T15:05:41Z</time>
      </trkpt>
      <trkpt lat="55.15937" lon="-4.83036">
        <ele>59.4</ele>
        <time>2021-03-20T15:05:44Z</time>
      </trkpt>
      <trkpt lat="55.15926" lon="-4.83052">
        <ele>58.9</ele>
        <time>2021-03-20T15:05:47Z</time>
      </trkpt>
      <trkpt lat="55.15898" lon="-4.83106">
        <ele>61.37</ele>
        <time>2021-03-20T15:05:50Z</time>
      </trkpt>
      <trkpt lat="55.15884" lon="-4.83125">
        <ele>62.01</ele>
        <time>2021-03-20T15:05:54Z</time>
      </trkpt>
      <trkpt lat="55.15818" lon="-4.83178">
        <ele>62.4</ele>
        <time>2021-03-20T15:05:57Z</time>
      </trkpt>
      <trkpt lat="55.15758" lon="-4.83231">
        <ele>64.51</ele>
        <time>2021-03-20T15:06:00Z</time>
      </trkpt>
      <trkpt lat="55.15723" lon="-4.83257">
        <ele>66.61</ele>
        <time>2021-03-20T15:06:03Z</time>
      </trkpt>
      <trkpt lat="55.15684" lon="-4.83269">
        <ele>65.22</ele>
        <time>2021-03-20T15:06:06Z</time>
      </trkpt>
      <trkpt lat="55.15647" lon="-4.8327">
        <ele>64.93</ele>
        <time>2021-03-20T15:06:09Z</time>
      </trkpt>
      <trkpt lat="55.15597" lon="-4.83264">
        <ele>64.11</ele>
        <time>2021-03-20T15:06:12Z</time>
      </trkpt>
      <trkpt lat="55.15563" lon="-4.83253">
        <ele>57.34</ele>
        <time>2021-03-20T15:06:15Z</time>
      </trkpt>
      <trkpt lat="55.15548" lon="-4.83265">
        <ele>57.87</ele>
        <time>2021-03-20T15:06:18Z</time>
      </trkpt>
      <trkpt lat="55.15522" lon="-4.83313">
        <ele>59.9</ele>
        <time>2021-03-20T15:06:21Z</time>
      </trkpt>
      <trkpt lat="55.15501" lon="-4.83347">
        <ele>60.04</ele>
        <time>2021-03-20T15:06:23Z</time>
      </trkpt>
      <trkpt lat="55.15478" lon="-4.83367">
        <ele>59.11</ele>
        <time>2021-03-20T15:06:26Z</time>
      </trkpt>
      <trkpt lat="55.15454" lon="-4.83382">
        <ele>57.47</ele>
        <time>2021-03-20T15:06:28Z</time>
      </trkpt>
      <trkpt lat="55.15391" lon="-4.83465">
        <ele>54.04</ele>
        <time>2021-03-20T15:06:31Z</time>
      </trkpt>
      <trkpt lat="55.15371" lon="-4.83499">
        <ele>53.69</ele>
        <time>2021-03-20T15:06:34Z</time>
      </trkpt>
      <trkpt lat="55.15365" lon="-4.83534">
        <ele>54.73</ele>
        <time>2021-03-20T15:06:36Z</time>
      </trkpt>
      <trkpt lat="55.15365" lon="-4.83593">
        <ele>58.37</ele>
        <time>2021-03-20T15:06:39Z</time>
      </trkpt>
      <trkpt lat="55.15356" lon="-4.83625">
        <ele>59.54</ele>
        <time>2021-03-20T15:06:42Z</time>
      </trkpt>
      <trkpt lat="55.15333" lon="-4.83657">
        <ele>57.24</ele>
        <time>2021-03-20T15:06:44Z</time>
      </trkpt>
      <trkpt lat="55.15308" lon="-4.83667">
        <ele>56.18</ele>
        <time>2021-03-20T15:06:47Z</time>
      </trkpt>
      <trkpt lat="55.1528" lon="-4.8369">
        <ele>54.83</ele>
        <time>2021-03-20T15:06:50Z</time>
      </trkpt>
      <trkpt lat="55.15257" lon="-4.8374">
        <ele>55.76</ele>
        <time>2021-03-20T15:06:52Z</time>
      </trkpt>
      <trkpt lat="55.15222" lon="-4.83833">
        <ele>57.92</ele>
        <time>2021-03-20T15:06:55Z</time>
      </trkpt>
      <trkpt lat="55.152" lon="-4.83857">
        <ele>58.25</ele>
        <time>2021-03-20T15:06:58Z</time>
      </trkpt>
      <trkpt lat="55.15145" lon="-4.8389">
        <ele>58.35</ele>
        <time>2021-03-20T15:07:00Z</time>
      </trkpt>
      <trkpt lat="55.1509" lon="-4.83909">
        <ele>54.31</ele>
        <time>2021-03-20T15:07:03Z</time>
      </trkpt>
      <trkpt lat="55.15039" lon="-4.83916">
        <ele>49.69</ele>
        <time>2021-03-20T15:07:06Z</time>
      </trkpt>
      <trkpt lat="55.15019" lon="-4.83927">
        <ele>48.84</ele>
        <time>2021-03-20T15:07:08Z</time>
      </trkpt>
      <trkpt lat="55.14974" lon="-4.83962">
        <ele>47.11</ele>
        <time>2021-03-20T15:07:11Z</time>
      </trkpt>
      <trkpt lat="55.14951" lon="-4.83972">
        <ele>48.77</ele>
        <time>2021-03-20T15:07:14Z</time>
      </trkpt>
      <trkpt lat="55.1493" lon="-4.83977">
        <ele>51.74</ele>
        <time>2021-03-20T15:07:16Z</time>
      </trkpt>
      <trkpt lat="55.14885" lon="-4.83964">
        <ele>54.52</ele>
        <time>2021-03-20T15:07:19Z</time>
      </trkpt>
      <trkpt lat="55.14843" lon="-4.83956">
        <ele>50.33</ele>
        <time>2021-03-20T15:07:21Z</time>
      </trkpt>
      <trkpt lat="55.14765" lon="-4.8397">
        <ele>48.42</ele>
        <time>2021-03-20T15:07:24Z</time>
      </trkpt>
      <trkpt lat="55.14748" lon="-4.83978">
        <ele>48.04</ele>
        <time>2021-03-20T15:07:27Z</time>
      </trkpt>
      <trkpt lat="55.14736" lon="-4.83989">
        <ele>47.32</ele>
        <time>2021-03-20T15:07:29Z</time>
      </trkpt>
      <trkpt lat="55.14727" lon="-4.84005">
        <ele>46.64</ele>
        <time>2021-03-20T15:07:32Z</time>
      </trkpt>
      <trkpt lat="55.14718" lon="-4.84028">
        <ele>46.69</ele>
        <time>2021-03-20T15:07:35Z</time>
      </trkpt>
      <trkpt lat="55.14731" lon="-4.84086">
        <ele>47.23</ele>
        <time>2021-03-20T15:07:37Z</time>
      </trkpt>
      <trkpt lat="55.14731" lon="-4.84101">
        <ele>47.26</ele>
        <time>2021-03-20T15:07:40Z</time>
      </trkpt>
      <trkpt lat="55.14728" lon="-4.84138">
        <ele>47.06</ele>
        <time>2021-03-20T15:07:42Z</time>
      </trkpt>
      <trkpt lat="55.14718" lon="-4.84223">
        <ele>48.02</ele>
        <time>2021-03-20T15:07:44Z</time>
      </trkpt>
      <trkpt lat="55.1471" lon="-4.8435">
        <ele>46.81</ele>
        <time>2021-03-20T15:07:47Z</time>
      </trkpt>
      <trkpt lat="55.14711" lon="-4.84373">
        <ele>47.39</ele>
        <time>2021-03-20T15:07:49Z</time>
      </trkpt>
      <trkpt lat="55.14719" lon="-4.84401">
        <ele>48.9</ele>
        <time>2021-03-20T15:07:52Z</time>
      </trkpt>
      <trkpt lat="55.1473" lon="-4.84424">
        <ele>50.54</ele>
        <time>2021-03-20T15:07:54Z</time>
      </trkpt>
      <trkpt lat="55.14734" lon="-4.84444">
        <ele>50.81</ele>
        <time>2021-03-20T15:07:57Z</time>
      </trkpt>
      <trkpt lat="55.14736" lon="-4.84469">
        <ele>51.86</ele>
        <time>2021-03-20T15:07:59Z</time>
      </trkpt>
      <trkpt lat="55.1473" lon="-4.8459">
        <ele>54.58</ele>
        <time>2021-03-20T15:08:02Z</time>
      </trkpt>
      <trkpt lat="55.14733" lon="-4.84624">
        <ele>54.07</ele>
        <time>2021-03-20T15:08:04Z</time>
      </trkpt>
      <trkpt lat="55.14747" lon="-4.8468">
        <ele>54.03</ele>
        <time>2021-03-20T15:08:06Z</time>
      </trkpt>
      <trkpt lat="55.14745" lon="-4.84738">
        <ele>51.46</ele>
        <time>2021-03-20T15:08:09Z</time>
      </trkpt>
      <trkpt lat="55.1475" lon="-4.84793">
        <ele>52.08</ele>
        <time>2021-03-20T15:08:11Z</time>
      </trkpt>
      <trkpt lat="55.14734" lon="-4.84895">
        <ele>51.96</ele>
        <time>2021-03-20T15:08:14Z</time>
      </trkpt>
      <trkpt lat="55.14725" lon="-4.8493">
        <ele>52.05</ele>
        <time>2021-03-20T15:08:16Z</time>
      </trkpt>
      <trkpt lat="55.14714" lon="-4.8496">
        <ele>51.48</ele>
        <time>2021-03-20T15:08:19Z</time>
      </trkpt>
      <trkpt lat="55.14669" lon="-4.85026">
        <ele>51.14</ele>
        <time>2021-03-20T15:08:21Z</time>
      </trkpt>
      <trkpt lat="55.14654" lon="-4.85059">
        <ele>49.91</ele>
        <time>2021-03-20T15:08:23Z</time>
      </trkpt>
      <trkpt lat="55.14643" lon="-4.85097">
        <ele>48.81</ele>
        <time>2021-03-20T15:08:26Z</time>
      </trkpt>
      <trkpt lat="55.14621" lon="-4.85189">
        <ele>44.52</ele>
        <time>2021-03-20T15:08:28Z</time>
      </trkpt>
      <trkpt lat="55.1461" lon="-4.8525">
        <ele>41.84</ele>
        <time>2021-03-20T15:08:31Z</time>
      </trkpt>
      <trkpt lat="55.14607" lon="-4.85279">
        <ele>41.6</ele>
        <time>2021-03-20T15:08:33Z</time>
      </trkpt>
      <trkpt lat="55.14607" lon="-4.85308">
        <ele>42.51</ele>
        <time>2021-03-20T15:08:36Z</time>
      </trkpt>
      <trkpt lat="55.14605" lon="-4.85331">
        <ele>42.89</ele>
        <time>2021-03-20T15:08:38Z</time>
      </trkpt>
      <trkpt lat="55.14599" lon="-4.85353">
        <ele>42.47</ele>
        <time>2021-03-20T15:08:40Z</time>
      </trkpt>
      <trkpt lat="55.14585" lon="-4.85389">
        <ele>40.24</ele>
        <time>2021-03-20T15:08:43Z</time>
      </trkpt>
      <trkpt lat="55.1458" lon="-4.85414">
        <ele>40.53</ele>
        <time>2021-03-20T15:08:45Z</time>
      </trkpt>
      <trkpt lat="55.14579" lon="-4.85433">
        <ele>41</ele>
        <time>2021-03-20T15:08:48Z</time>
      </trkpt>
      <trkpt lat="55.14583" lon="-4.85456">
        <ele>41.89</ele>
        <time>2021-03-20T15:08:50Z</time>
      </trkpt>
      <trkpt lat="55.14598" lon="-4.85501">
        <ele>43.06</ele>
        <time>2021-03-20T15:08:53Z</time>
      </trkpt>
      <trkpt lat="55.14601" lon="-4.85546">
        <ele>42.93</ele>
        <time>2021-03-20T15:08:55Z</time>
      </trkpt>
      <trkpt lat="55.14598" lon="-4.85582">
        <ele>44.47</ele>
        <time>2021-03-20T15:08:57Z</time>
      </trkpt>
      <trkpt lat="55.14567" lon="-4.85738">
        <ele>45.85</ele>
        <time>2021-03-20T15:09:00Z</time>
      </trkpt>
      <trkpt lat="55.14552" lon="-4.85826">
        <ele>47.63</ele>
        <time>2021-03-20T15:09:02Z</time>
      </trkpt>
      <trkpt lat="55.14541" lon="-4.85873">
        <ele>48.69</ele>
        <time>2021-03-20T15:09:05Z</time>
      </trkpt>
      <trkpt lat="55.1447" lon="-4.86125">
        <ele>48.32</ele>
        <time>2021-03-20T15:09:07Z</time>
      </trkpt>
      <trkpt lat="55.14439" lon="-4.86249">
        <ele>50.81</ele>
        <time>2021-03-20T15:09:10Z</time>
      </trkpt>
      <trkpt lat="55.14421" lon="-4.86311">
        <ele>48.17</ele>
        <time>2021-03-20T15:09:12Z</time>
      </trkpt>
      <trkpt lat="55.14401" lon="-4.86363">
        <ele>45.81</ele>
        <time>2021-03-20T15:09:14Z</time>
      </trkpt>
      <trkpt lat="55.14347" lon="-4.86494">
        <ele>44.69</ele>
        <time>2021-03-20T15:09:17Z</time>
      </trkpt>
      <trkpt lat="55.14333" lon="-4.86539">
        <ele>44.33</ele>
        <time>2021-03-20T15:09:19Z</time>
      </trkpt>
      <trkpt lat="55.14318" lon="-4.866">
        <ele>44.39</ele>
        <time>2021-03-20T15:09:22Z</time>
      </trkpt>
      <trkpt lat="55.14308" lon="-4.86656">
        <ele>44.99</ele>
        <time>2021-03-20T15:09:24Z</time>
      </trkpt>
      <trkpt lat="55.14299" lon="-4.86714">
        <ele>48.33</ele>
        <time>2021-03-20T15:09:27Z</time>
      </trkpt>
      <trkpt lat="55.14236" lon="-4.86889">
        <ele>47.46</ele>
        <time>2021-03-20T15:09:29Z</time>
      </trkpt>
      <trkpt lat="55.14197" lon="-4.87011">
        <ele>50.64</ele>
        <time>2021-03-20T15:09:32Z</time>
      </trkpt>
      <trkpt lat="55.14176" lon="-4.87097">
        <ele>50.72</ele>
        <time>2021-03-20T15:09:34Z</time>
      </trkpt>
      <trkpt lat="55.1414" lon="-4.87269">
        <ele>53.79</ele>
        <time>2021-03-20T15:09:36Z</time>
      </trkpt>
      <trkpt lat="55.14124" lon="-4.87352">
        <ele>53.15</ele>
        <time>2021-03-20T15:09:39Z</time>
      </trkpt>
      <trkpt lat="55.14114" lon="-4.87418">
        <ele>54</ele>
        <time>2021-03-20T15:09:41Z</time>
      </trkpt>
      <trkpt lat="55.14106" lon="-4.87451">
        <ele>54.06</ele>
        <time>2021-03-20T15:09:44Z</time>
      </trkpt>
      <trkpt lat="55.14085" lon="-4.87513">
        <ele>54.06</ele>
        <time>2021-03-20T15:09:46Z</time>
      </trkpt>
      <trkpt lat="55.14071" lon="-4.87593">
        <ele>52.71</ele>
        <time>2021-03-20T15:09:49Z</time>
      </trkpt>
      <trkpt lat="55.14065" lon="-4.87652">
        <ele>53.31</ele>
        <time>2021-03-20T15:09:51Z</time>
      </trkpt>
      <trkpt lat="55.14056" lon="-4.87693">
        <ele>54.01</ele>
        <time>2021-03-20T15:09:53Z</time>
      </trkpt>
      <trkpt lat="55.14027" lon="-4.87795">
        <ele>49.88</ele>
        <time>2021-03-20T15:09:56Z</time>
      </trkpt>
      <trkpt lat="55.14005" lon="-4.87906">
        <ele>48.44</ele>
        <time>2021-03-20T15:09:58Z</time>
      </trkpt>
      <trkpt lat="55.13986" lon="-4.8798">
        <ele>47.71</ele>
        <time>2021-03-20T15:10:01Z</time>
      </trkpt>
      <trkpt lat="55.13943" lon="-4.88119">
        <ele>46.17</ele>
        <time>2021-03-20T15:10:03Z</time>
      </trkpt>
      <trkpt lat="55.13887" lon="-4.88351">
        <ele>49.06</ele>
        <time>2021-03-20T15:10:06Z</time>
      </trkpt>
      <trkpt lat="55.13882" lon="-4.88392">
        <ele>50.38</ele>
        <time>2021-03-20T15:10:08Z</time>
      </trkpt>
      <trkpt lat="55.13879" lon="-4.88445">
        <ele>51.88</ele>
        <time>2021-03-20T15:10:10Z</time>
      </trkpt>
      <trkpt lat="55.1388" lon="-4.88498">
        <ele>52.32</ele>
        <time>2021-03-20T15:10:13Z</time>
      </trkpt>
      <trkpt lat="55.13907" lon="-4.88833">
        <ele>53.33</ele>
        <time>2021-03-20T15:10:15Z</time>
      </trkpt>
      <trkpt lat="55.1392" lon="-4.88897">
        <ele>54.21</ele>
        <time>2021-03-20T15:10:18Z</time>
      </trkpt>
      <trkpt lat="55.13934" lon="-4.88937">
        <ele>54.83</ele>
        <time>2021-03-20T15:10:20Z</time>
      </trkpt>
      <trkpt lat="55.13958" lon="-4.88987">
        <ele>55.2</ele>
        <time>2021-03-20T15:10:23Z</time>
      </trkpt>
      <trkpt lat="55.13967" lon="-4.89034">
        <ele>54.98</ele>
        <time>2021-03-20T15:10:25Z</time>
      </trkpt>
      <trkpt lat="55.13969" lon="-4.89064">
        <ele>55.16</ele>
        <time>2021-03-20T15:10:27Z</time>
      </trkpt>
      <trkpt lat="55.13959" lon="-4.89151">
        <ele>53.94</ele>
        <time>2021-03-20T15:10:30Z</time>
      </trkpt>
      <trkpt lat="55.1394" lon="-4.8922">
        <ele>53.17</ele>
        <time>2021-03-20T15:10:32Z</time>
      </trkpt>
      <trkpt lat="55.13918" lon="-4.89315">
        <ele>52.65</ele>
        <time>2021-03-20T15:10:35Z</time>
      </trkpt>
      <trkpt lat="55.13885" lon="-4.89384">
        <ele>47.06</ele>
        <time>2021-03-20T15:10:37Z</time>
      </trkpt>
      <trkpt lat="55.1388" lon="-4.89431">
        <ele>47.87</ele>
        <time>2021-03-20T15:10:40Z</time>
      </trkpt>
      <trkpt lat="55.13888" lon="-4.8962">
        <ele>47.27</ele>
        <time>2021-03-20T15:10:42Z</time>
      </trkpt>
      <trkpt lat="55.13875" lon="-4.89674">
        <ele>48</ele>
        <time>2021-03-20T15:10:45Z</time>
      </trkpt>
      <trkpt lat="55.13835" lon="-4.89759">
        <ele>50.48</ele>
        <time>2021-03-20T15:10:47Z</time>
      </trkpt>
      <trkpt lat="55.13768" lon="-4.89892">
        <ele>50.25</ele>
        <time>2021-03-20T15:10:49Z</time>
      </trkpt>
      <trkpt lat="55.13744" lon="-4.89933">
        <ele>51.23</ele>
        <time>2021-03-20T15:10:52Z</time>
      </trkpt>
      <trkpt lat="55.13717" lon="-4.89974">
        <ele>50.45</ele>
        <time>2021-03-20T15:10:54Z</time>
      </trkpt>
      <trkpt lat="55.13607" lon="-4.90096">
        <ele>48.23</ele>
        <time>2021-03-20T15:10:57Z</time>
      </trkpt>
      <trkpt lat="55.13572" lon="-4.90165">
        <ele>46.4</ele>
        <time>2021-03-20T15:10:59Z</time>
      </trkpt>
      <trkpt lat="55.13488" lon="-4.90284">
        <ele>43.44</ele>
        <time>2021-03-20T15:11:02Z</time>
      </trkpt>
      <trkpt lat="55.13447" lon="-4.90367">
        <ele>44</ele>
        <time>2021-03-20T15:11:04Z</time>
      </trkpt>
      <trkpt lat="55.13408" lon="-4.90466">
        <ele>43.07</ele>
        <time>2021-03-20T15:11:06Z</time>
      </trkpt>
      <trkpt lat="55.13365" lon="-4.90583">
        <ele>41.02</ele>
        <time>2021-03-20T15:11:09Z</time>
      </trkpt>
      <trkpt lat="55.133" lon="-4.90773">
        <ele>36.41</ele>
        <time>2021-03-20T15:11:11Z</time>
      </trkpt>
      <trkpt lat="55.13261" lon="-4.90877">
        <ele>39.97</ele>
        <time>2021-03-20T15:11:14Z</time>
      </trkpt>
      <trkpt lat="55.13211" lon="-4.91096">
        <ele>40.77</ele>
        <time>2021-03-20T15:11:16Z</time>
      </trkpt>
      <trkpt lat="55.13312" lon="-4.9118">
        <ele>38.49</ele>
        <time>2021-03-20T15:11:19Z</time>
      </trkpt>
      <trkpt lat="55.13328" lon="-4.91198">
        <ele>38.4</ele>
        <time>2021-03-20T15:11:22Z</time>
      </trkpt>
      <trkpt lat="55.13338" lon="-4.91214">
        <ele>37.73</ele>
        <time>2021-03-20T15:11:25Z</time>
      </trkpt>
      <trkpt lat="55.13349" lon="-4.91253">
        <ele>35.46</ele>
        <time>2021-03-20T15:11:28Z</time>
      </trkpt>
      <trkpt lat="55.1337" lon="-4.91395">
        <ele>33.71</ele>
        <time>2021-03-20T15:11:31Z</time>
      </trkpt>
      <trkpt lat="55.13377" lon="-4.91426">
        <ele>34.74</ele>
        <time>2021-03-20T15:11:34Z</time>
      </trkpt>
      <trkpt lat="55.13378" lon="-4.91436">
        <ele>34.81</ele>
        <time>2021-03-20T15:11:37Z</time>
      </trkpt>
      <trkpt lat="55.13376" lon="-4.91455">
        <ele>35.16</ele>
        <time>2021-03-20T15:11:40Z</time>
      </trkpt>
      <trkpt lat="55.13296" lon="-4.91801">
        <ele>39.93</ele>
        <time>2021-03-20T15:11:43Z</time>
      </trkpt>
      <trkpt lat="55.13231" lon="-4.92024">
        <ele>49.58</ele>
        <time>2021-03-20T15:11:46Z</time>
      </trkpt>
      <trkpt lat="55.13203" lon="-4.92237">
        <ele>58.36</ele>
        <time>2021-03-20T15:11:49Z</time>
      </trkpt>
      <trkpt lat="55.13191" lon="-4.923">
        <ele>60.13</ele>
        <time>2021-03-20T15:11:52Z</time>
      </trkpt>
      <trkpt lat="55.13166" lon="-4.92371">
        <ele>61.29</ele>
        <time>2021-03-20T15:11:55Z</time>
      </trkpt>
      <trkpt lat="55.13147" lon="-4.92416">
        <ele>60.17</ele>
        <time>2021-03-20T15:11:58Z</time>
      </trkpt>
      <trkpt lat="55.1313" lon="-4.92624">
        <ele>59.71</ele>
        <time>2021-03-20T15:12:01Z</time>
      </trkpt>
      <trkpt lat="55.13136" lon="-4.92777">
        <ele>58.91</ele>
        <time>2021-03-20T15:12:05Z</time>
      </trkpt>
      <trkpt lat="55.13168" lon="-4.93178">
        <ele>61.83</ele>
        <time>2021-03-20T15:12:08Z</time>
      </trkpt>
      <trkpt lat="55.13172" lon="-4.93261">
        <ele>61.13</ele>
        <time>2021-03-20T15:12:11Z</time>
      </trkpt>
      <trkpt lat="55.13172" lon="-4.93365">
        <ele>60.14</ele>
        <time>2021-03-20T15:12:14Z</time>
      </trkpt>
      <trkpt lat="55.13176" lon="-4.93419">
        <ele>60.65</ele>
        <time>2021-03-20T15:12:17Z</time>
      </trkpt>
      <trkpt lat="55.13204" lon="-4.93557">
        <ele>61.63</ele>
        <time>2021-03-20T15:12:20Z</time>
      </trkpt>
      <trkpt lat="55.13203" lon="-4.93586">
        <ele>61.61</ele>
        <time>2021-03-20T15:12:23Z</time>
      </trkpt>
      <trkpt lat="55.13103" lon="-4.94015">
        <ele>60.98</ele>
        <time>2021-03-20T15:12:26Z</time>
      </trkpt>
      <trkpt lat="55.131" lon="-4.9405">
        <ele>61.49</ele>
        <time>2021-03-20T15:12:29Z</time>
      </trkpt>
      <trkpt lat="55.13096" lon="-4.94112">
        <ele>61.99</ele>
        <time>2021-03-20T15:12:32Z</time>
      </trkpt>
      <trkpt lat="55.1309" lon="-4.94133">
        <ele>61.4</ele>
        <time>2021-03-20T15:12:35Z</time>
      </trkpt>
      <trkpt lat="55.13079" lon="-4.94152">
        <ele>61</ele>
        <time>2021-03-20T15:12:38Z</time>
      </trkpt>
      <trkpt lat="55.13045" lon="-4.94229">
        <ele>58.32</ele>
        <time>2021-03-20T15:12:41Z</time>
      </trkpt>
      <trkpt lat="55.13041" lon="-4.94284">
        <ele>57.76</ele>
        <time>2021-03-20T15:12:44Z</time>
      </trkpt>
      <trkpt lat="55.1304" lon="-4.94374">
        <ele>59.45</ele>
        <time>2021-03-20T15:12:47Z</time>
      </trkpt>
      <trkpt lat="55.13034" lon="-4.94499">
        <ele>59.78</ele>
        <time>2021-03-20T15:12:50Z</time>
      </trkpt>
      <trkpt lat="55.13018" lon="-4.94588">
        <ele>58.65</ele>
        <time>2021-03-20T15:12:53Z</time>
      </trkpt>
      <trkpt lat="55.13008" lon="-4.94613">
        <ele>58.21</ele>
        <time>2021-03-20T15:12:56Z</time>
      </trkpt>
      <trkpt lat="55.12932" lon="-4.94674">
        <ele>54.81</ele>
        <time>2021-03-20T15:12:59Z</time>
      </trkpt>
      <trkpt lat="55.12922" lon="-4.94696">
        <ele>54.36</ele>
        <time>2021-03-20T15:13:02Z</time>
      </trkpt>
      <trkpt lat="55.12912" lon="-4.94697">
        <ele>53.68</ele>
        <time>2021-03-20T15:13:05Z</time>
      </trkpt>
      <trkpt lat="55.12826" lon="-4.94789">
        <ele>50.59</ele>
        <time>2021-03-20T15:13:08Z</time>
      </trkpt>
      <trkpt lat="55.12789" lon="-4.94845">
        <ele>47.75</ele>
        <time>2021-03-20T15:13:10Z</time>
      </trkpt>
      <trkpt lat="55.1278" lon="-4.94852">
        <ele>46.9</ele>
        <time>2021-03-20T15:13:13Z</time>
      </trkpt>
      <trkpt lat="55.12766" lon="-4.94853">
        <ele>46.99</ele>
        <time>2021-03-20T15:13:16Z</time>
      </trkpt>
      <trkpt lat="55.12641" lon="-4.94699">
        <ele>56</ele>
        <time>2021-03-20T15:13:19Z</time>
      </trkpt>
      <trkpt lat="55.12621" lon="-4.94671">
        <ele>55.25</ele>
        <time>2021-03-20T15:13:22Z</time>
      </trkpt>
      <trkpt lat="55.12537" lon="-4.94487">
        <ele>52.3</ele>
        <time>2021-03-20T15:13:25Z</time>
      </trkpt>
      <trkpt lat="55.12449" lon="-4.94408">
        <ele>45.01</ele>
        <time>2021-03-20T15:13:27Z</time>
      </trkpt>
      <trkpt lat="55.12424" lon="-4.94406">
        <ele>44.3</ele>
        <time>2021-03-20T15:13:30Z</time>
      </trkpt>
      <trkpt lat="55.1238" lon="-4.94422">
        <ele>43.04</ele>
        <time>2021-03-20T15:13:33Z</time>
      </trkpt>
      <trkpt lat="55.12309" lon="-4.94507">
        <ele>45.24</ele>
        <time>2021-03-20T15:13:36Z</time>
      </trkpt>
      <trkpt lat="55.12281" lon="-4.94602">
        <ele>49.84</ele>
        <time>2021-03-20T15:13:39Z</time>
      </trkpt>
      <trkpt lat="55.12259" lon="-4.94746">
        <ele>49.77</ele>
        <time>2021-03-20T15:13:42Z</time>
      </trkpt>
      <trkpt lat="55.12256" lon="-4.94809">
        <ele>52.65</ele>
        <time>2021-03-20T15:13:44Z</time>
      </trkpt>
      <trkpt lat="55.12237" lon="-4.94878">
        <ele>53.5</ele>
        <time>2021-03-20T15:13:47Z</time>
      </trkpt>
      <trkpt lat="55.12167" lon="-4.95034">
        <ele>50.48</ele>
        <time>2021-03-20T15:13:50Z</time>
      </trkpt>
      <trkpt lat="55.12089" lon="-4.95229">
        <ele>51.03</ele>
        <time>2021-03-20T15:13:53Z</time>
      </trkpt>
      <trkpt lat="55.11984" lon="-4.95409">
        <ele>48.63</ele>
        <time>2021-03-20T15:13:56Z</time>
      </trkpt>
      <trkpt lat="55.11946" lon="-4.95493">
        <ele>50.44</ele>
        <time>2021-03-20T15:13:59Z</time>
      </trkpt>
      <trkpt lat="55.11674" lon="-4.95736">
        <ele>26.73</ele>
        <time>2021-03-20T15:14:01Z</time>
      </trkpt>
      <trkpt lat="55.11609" lon="-4.95923">
        <ele>24.85</ele>
        <time>2021-03-20T15:14:04Z</time>
      </trkpt>
      <trkpt lat="55.11592" lon="-4.96044">
        <ele>27.86</ele>
        <time>2021-03-20T15:14:07Z</time>
      </trkpt>
      <trkpt lat="55.11587" lon="-4.9614">
        <ele>29.63</ele>
        <time>2021-03-20T15:14:10Z</time>
      </trkpt>
      <trkpt lat="55.11571" lon="-4.96176">
        <ele>27.9</ele>
        <time>2021-03-20T15:14:13Z</time>
      </trkpt>
      <trkpt lat="55.11481" lon="-4.96276">
        <ele>20.17</ele>
        <time>2021-03-20T15:14:16Z</time>
      </trkpt>
      <trkpt lat="55.11448" lon="-4.96298">
        <ele>18.69</ele>
        <time>2021-03-20T15:14:18Z</time>
      </trkpt>
      <trkpt lat="55.11423" lon="-4.96303">
        <ele>17.92</ele>
        <time>2021-03-20T15:14:21Z</time>
      </trkpt>
      <trkpt lat="55.11395" lon="-4.96297">
        <ele>18.57</ele>
        <time>2021-03-20T15:14:24Z</time>
      </trkpt>
      <trkpt lat="55.11376" lon="-4.96281">
        <ele>19.25</ele>
        <time>2021-03-20T15:14:27Z</time>
      </trkpt>
      <trkpt lat="55.11347" lon="-4.96237">
        <ele>17.8</ele>
        <time>2021-03-20T15:14:30Z</time>
      </trkpt>
      <trkpt lat="55.11318" lon="-4.96232">
        <ele>19.59</ele>
        <time>2021-03-20T15:14:33Z</time>
      </trkpt>
      <trkpt lat="55.1122" lon="-4.96274">
        <ele>19.69</ele>
        <time>2021-03-20T15:14:35Z</time>
      </trkpt>
      <trkpt lat="55.1114" lon="-4.9628">
        <ele>17.09</ele>
        <time>2021-03-20T15:14:38Z</time>
      </trkpt>
      <trkpt lat="55.11102" lon="-4.96292">
        <ele>16.85</ele>
        <time>2021-03-20T15:14:41Z</time>
      </trkpt>
      <trkpt lat="55.11074" lon="-4.96308">
        <ele>15.7</ele>
        <time>2021-03-20T15:14:44Z</time>
      </trkpt>
      <trkpt lat="55.11054" lon="-4.96328">
        <ele>14.94</ele>
        <time>2021-03-20T15:14:47Z</time>
      </trkpt>
      <trkpt lat="55.11033" lon="-4.96359">
        <ele>15.11</ele>
        <time>2021-03-20T15:14:50Z</time>
      </trkpt>
      <trkpt lat="55.11013" lon="-4.96402">
        <ele>15.4</ele>
        <time>2021-03-20T15:14:52Z</time>
      </trkpt>
      <trkpt lat="55.11004" lon="-4.9643">
        <ele>15.33</ele>
        <time>2021-03-20T15:14:55Z</time>
      </trkpt>
      <trkpt lat="55.11" lon="-4.96453">
        <ele>15.3</ele>
        <time>2021-03-20T15:14:58Z</time>
      </trkpt>
      <trkpt lat="55.10995" lon="-4.9651">
        <ele>16.61</ele>
        <time>2021-03-20T15:15:01Z</time>
      </trkpt>
      <trkpt lat="55.10985" lon="-4.96559">
        <ele>16.29</ele>
        <time>2021-03-20T15:15:04Z</time>
      </trkpt>
      <trkpt lat="55.10965" lon="-4.96624">
        <ele>13.69</ele>
        <time>2021-03-20T15:15:07Z</time>
      </trkpt>
      <trkpt lat="55.10934" lon="-4.96766">
        <ele>16.74</ele>
        <time>2021-03-20T15:15:09Z</time>
      </trkpt>
      <trkpt lat="55.10898" lon="-4.969">
        <ele>18.74</ele>
        <time>2021-03-20T15:15:12Z</time>
      </trkpt>
      <trkpt lat="55.10895" lon="-4.96954">
        <ele>20.17</ele>
        <time>2021-03-20T15:15:15Z</time>
      </trkpt>
      <trkpt lat="55.10882" lon="-4.97014">
        <ele>21.91</ele>
        <time>2021-03-20T15:15:18Z</time>
      </trkpt>
      <trkpt lat="55.10834" lon="-4.97153">
        <ele>18.57</ele>
        <time>2021-03-20T15:15:21Z</time>
      </trkpt>
      <trkpt lat="55.10804" lon="-4.97258">
        <ele>18.43</ele>
        <time>2021-03-20T15:15:24Z</time>
      </trkpt>
      <trkpt lat="55.10772" lon="-4.97321">
        <ele>19.31</ele>
        <time>2021-03-20T15:15:26Z</time>
      </trkpt>
      <trkpt lat="55.10686" lon="-4.97471">
        <ele>18.05</ele>
        <time>2021-03-20T15:15:29Z</time>
      </trkpt>
      <trkpt lat="55.10634" lon="-4.97595">
        <ele>15.89</ele>
        <time>2021-03-20T15:15:32Z</time>
      </trkpt>
      <trkpt lat="55.10615" lon="-4.97646">
        <ele>16.66</ele>
        <time>2021-03-20T15:15:35Z</time>
      </trkpt>
      <trkpt lat="55.10589" lon="-4.97818">
        <ele>21.19</ele>
        <time>2021-03-20T15:15:38Z</time>
      </trkpt>
      <trkpt lat="55.10551" lon="-4.97924">
        <ele>21.88</ele>
        <time>2021-03-20T15:15:41Z</time>
      </trkpt>
      <trkpt lat="55.10527" lon="-4.9797">
        <ele>21.74</ele>
        <time>2021-03-20T15:15:43Z</time>
      </trkpt>
      <trkpt lat="55.10507" lon="-4.98015">
        <ele>20.26</ele>
        <time>2021-03-20T15:15:46Z</time>
      </trkpt>
      <trkpt lat="55.10479" lon="-4.981">
        <ele>19.03</ele>
        <time>2021-03-20T15:15:49Z</time>
      </trkpt>
      <trkpt lat="55.10452" lon="-4.98151">
        <ele>15.78</ele>
        <time>2021-03-20T15:15:52Z</time>
      </trkpt>
      <trkpt lat="55.10443" lon="-4.98188">
        <ele>17.19</ele>
        <time>2021-03-20T15:15:55Z</time>
      </trkpt>
      <trkpt lat="55.10432" lon="-4.9822">
        <ele>18.56</ele>
        <time>2021-03-20T15:15:58Z</time>
      </trkpt>
      <trkpt lat="55.10387" lon="-4.98286">
        <ele>17.74</ele>
        <time>2021-03-20T15:16:00Z</time>
      </trkpt>
      <trkpt lat="55.10374" lon="-4.98336">
        <ele>20.08</ele>
        <time>2021-03-20T15:16:03Z</time>
      </trkpt>
      <trkpt lat="55.10316" lon="-4.98443">
        <ele>22.75</ele>
        <time>2021-03-20T15:16:06Z</time>
      </trkpt>
      <trkpt lat="55.10291" lon="-4.98531">
        <ele>23.08</ele>
        <time>2021-03-20T15:16:09Z</time>
      </trkpt>
      <trkpt lat="55.10264" lon="-4.98583">
        <ele>21.52</ele>
        <time>2021-03-20T15:16:12Z</time>
      </trkpt>
      <trkpt lat="55.1021" lon="-4.9872">
        <ele>19.72</ele>
        <time>2021-03-20T15:16:15Z</time>
      </trkpt>
      <trkpt lat="55.10158" lon="-4.9894">
        <ele>17.71</ele>
        <time>2021-03-20T15:16:17Z</time>
      </trkpt>
      <trkpt lat="55.10145" lon="-4.98984">
        <ele>16.75</ele>
        <time>2021-03-20T15:16:20Z</time>
      </trkpt>
      <trkpt lat="55.10106" lon="-4.99083">
        <ele>15.94</ele>
        <time>2021-03-20T15:16:23Z</time>
      </trkpt>
      <trkpt lat="55.10089" lon="-4.99146">
        <ele>16.62</ele>
        <time>2021-03-20T15:16:26Z</time>
      </trkpt>
      <trkpt lat="55.10066" lon="-4.99223">
        <ele>14.65</ele>
        <time>2021-03-20T15:16:29Z</time>
      </trkpt>
      <trkpt lat="55.10032" lon="-4.99366">
        <ele>16.58</ele>
        <time>2021-03-20T15:16:32Z</time>
      </trkpt>
      <trkpt lat="55.10009" lon="-4.99471">
        <ele>19.89</ele>
        <time>2021-03-20T15:16:34Z</time>
      </trkpt>
      <trkpt lat="55.09928" lon="-4.99714">
        <ele>18.63</ele>
        <time>2021-03-20T15:16:37Z</time>
      </trkpt>
      <trkpt lat="55.0989" lon="-4.99803">
        <ele>11.24</ele>
        <time>2021-03-20T15:16:40Z</time>
      </trkpt>
      <trkpt lat="55.09875" lon="-4.99943">
        <ele>13.4</ele>
        <time>2021-03-20T15:16:43Z</time>
      </trkpt>
      <trkpt lat="55.09866" lon="-4.99998">
        <ele>12.22</ele>
        <time>2021-03-20T15:16:46Z</time>
      </trkpt>
      <trkpt lat="55.09856" lon="-5.00044">
        <ele>11.07</ele>
        <time>2021-03-20T15:16:49Z</time>
      </trkpt>
      <trkpt lat="55.09855" lon="-5.00064">
        <ele>10.63</ele>
        <time>2021-03-20T15:16:51Z</time>
      </trkpt>
      <trkpt lat="55.09858" lon="-5.00104">
        <ele>10.49</ele>
        <time>2021-03-20T15:16:54Z</time>
      </trkpt>
      <trkpt lat="55.09848" lon="-5.00128">
        <ele>8.38</ele>
        <time>2021-03-20T15:16:57Z</time>
      </trkpt>
      <trkpt lat="55.0983" lon="-5.00102">
        <ele>5.87</ele>
        <time>2021-03-20T15:17:01Z</time>
      </trkpt>
      <trkpt lat="55.09688" lon="-4.99942">
        <ele>4</ele>
        <time>2021-03-20T15:17:06Z</time>
      </trkpt>
      <trkpt lat="55.0966" lon="-4.99905">
        <ele>3.44</ele>
        <time>2021-03-20T15:17:10Z</time>
      </trkpt>
      <trkpt lat="55.09616" lon="-4.99827">
        <ele>4.81</ele>
        <time>2021-03-20T15:17:14Z</time>
      </trkpt>
      <trkpt lat="55.09585" lon="-4.99732">
        <ele>5.98</ele>
        <time>2021-03-20T15:17:18Z</time>
      </trkpt>
      <trkpt lat="55.09568" lon="-4.99661">
        <ele>7.77</ele>
        <time>2021-03-20T15:17:22Z</time>
      </trkpt>
      <trkpt lat="55.09556" lon="-4.996">
        <ele>11.36</ele>
        <time>2021-03-20T15:17:27Z</time>
      </trkpt>
      <trkpt lat="55.09483" lon="-4.99181">
        <ele>24.85</ele>
        <time>2021-03-20T15:17:31Z</time>
      </trkpt>
      <trkpt lat="55.0947" lon="-4.99127">
        <ele>25.44</ele>
        <time>2021-03-20T15:17:35Z</time>
      </trkpt>
      <trkpt lat="55.0946" lon="-4.99096">
        <ele>26.25</ele>
        <time>2021-03-20T15:17:39Z</time>
      </trkpt>
      <trkpt lat="55.09433" lon="-4.99074">
        <ele>28.19</ele>
        <time>2021-03-20T15:17:44Z</time>
      </trkpt>
      <trkpt lat="55.09416" lon="-4.99073">
        <ele>29.54</ele>
        <time>2021-03-20T15:17:48Z</time>
      </trkpt>
      <trkpt lat="55.09401" lon="-4.9908">
        <ele>31.44</ele>
        <time>2021-03-20T15:17:52Z</time>
      </trkpt>
      <trkpt lat="55.09389" lon="-4.99095">
        <ele>32.56</ele>
        <time>2021-03-20T15:17:56Z</time>
      </trkpt>
      <trkpt lat="55.09379" lon="-4.99113">
        <ele>33.38</ele>
        <time>2021-03-20T15:18:00Z</time>
      </trkpt>
      <trkpt lat="55.09371" lon="-4.9914">
        <ele>32.95</ele>
        <time>2021-03-20T15:18:05Z</time>
      </trkpt>
      <trkpt lat="55.09356" lon="-4.99216">
        <ele>33.81</ele>
        <time>2021-03-20T15:18:09Z</time>
      </trkpt>
      <trkpt lat="55.09339" lon="-4.99274">
        <ele>35.14</ele>
        <time>2021-03-20T15:18:13Z</time>
      </trkpt>
      <trkpt lat="55.09319" lon="-4.9933">
        <ele>38.6</ele>
        <time>2021-03-20T15:18:17Z</time>
      </trkpt>
      <trkpt lat="55.09303" lon="-4.99364">
        <ele>41.34</ele>
        <time>2021-03-20T15:18:21Z</time>
      </trkpt>
      <trkpt lat="55.09262" lon="-4.99435">
        <ele>43.31</ele>
        <time>2021-03-20T15:18:26Z</time>
      </trkpt>
      <trkpt lat="55.09234" lon="-4.99509">
        <ele>41.29</ele>
        <time>2021-03-20T15:18:30Z</time>
      </trkpt>
      <trkpt lat="55.09222" lon="-4.99536">
        <ele>41.76</ele>
        <time>2021-03-20T15:18:34Z</time>
      </trkpt>
      <trkpt lat="55.09211" lon="-4.99553">
        <ele>42.76</ele>
        <time>2021-03-20T15:18:38Z</time>
      </trkpt>
      <trkpt lat="55.09199" lon="-4.99566">
        <ele>43.65</ele>
        <time>2021-03-20T15:18:43Z</time>
      </trkpt>
      <trkpt lat="55.09181" lon="-4.99576">
        <ele>44.04</ele>
        <time>2021-03-20T15:18:47Z</time>
      </trkpt>
      <trkpt lat="55.09045" lon="-4.99617">
        <ele>50.51</ele>
        <time>2021-03-20T15:18:51Z</time>
      </trkpt>
      <trkpt lat="55.09" lon="-4.99613">
        <ele>52.84</ele>
        <time>2021-03-20T15:18:55Z</time>
      </trkpt>
      <trkpt lat="55.08968" lon="-4.996">
        <ele>53.48</ele>
        <time>2021-03-20T15:18:59Z</time>
      </trkpt>
      <trkpt lat="55.08951" lon="-4.99587">
        <ele>54.53</ele>
        <time>2021-03-20T15:19:04Z</time>
      </trkpt>
      <trkpt lat="55.08936" lon="-4.99567">
        <ele>55.89</ele>
        <time>2021-03-20T15:19:08Z</time>
      </trkpt>
      <trkpt lat="55.08926" lon="-4.99543">
        <ele>57.2</ele>
        <time>2021-03-20T15:19:12Z</time>
      </trkpt>
      <trkpt lat="55.08903" lon="-4.99473">
        <ele>61.46</ele>
        <time>2021-03-20T15:19:16Z</time>
      </trkpt>
      <trkpt lat="55.08873" lon="-4.99334">
        <ele>66.41</ele>
        <time>2021-03-20T15:19:21Z</time>
      </trkpt>
      <trkpt lat="55.08858" lon="-4.99285">
        <ele>67.94</ele>
        <time>2021-03-20T15:19:25Z</time>
      </trkpt>
      <trkpt lat="55.08809" lon="-4.99204">
        <ele>73.48</ele>
        <time>2021-03-20T15:19:29Z</time>
      </trkpt>
      <trkpt lat="55.0879" lon="-4.99151">
        <ele>75</ele>
        <time>2021-03-20T15:19:33Z</time>
      </trkpt>
      <trkpt lat="55.08777" lon="-4.99096">
        <ele>75.54</ele>
        <time>2021-03-20T15:19:37Z</time>
      </trkpt>
      <trkpt lat="55.0876" lon="-4.99052">
        <ele>77.13</ele>
        <time>2021-03-20T15:19:42Z</time>
      </trkpt>
      <trkpt lat="55.08707" lon="-4.9899">
        <ele>80.36</ele>
        <time>2021-03-20T15:19:46Z</time>
      </trkpt>
      <trkpt lat="55.08683" lon="-4.98948">
        <ele>81.43</ele>
        <time>2021-03-20T15:19:50Z</time>
      </trkpt>
      <trkpt lat="55.08666" lon="-4.98899">
        <ele>81.59</ele>
        <time>2021-03-20T15:19:54Z</time>
      </trkpt>
      <trkpt lat="55.0866" lon="-4.9878">
        <ele>84.65</ele>
        <time>2021-03-20T15:19:59Z</time>
      </trkpt>
      <trkpt lat="55.08646" lon="-4.98646">
        <ele>85.25</ele>
        <time>2021-03-20T15:20:03Z</time>
      </trkpt>
      <trkpt lat="55.08649" lon="-4.98506">
        <ele>85.73</ele>
        <time>2021-03-20T15:20:07Z</time>
      </trkpt>
      <trkpt lat="55.08633" lon="-4.98368">
        <ele>86.36</ele>
        <time>2021-03-20T15:20:11Z</time>
      </trkpt>
      <trkpt lat="55.08622" lon="-4.97883">
        <ele>99.97</ele>
        <time>2021-03-20T15:20:15Z</time>
      </trkpt>
      <trkpt lat="55.08622" lon="-4.97756">
        <ele>104.99</ele>
        <time>2021-03-20T15:20:20Z</time>
      </trkpt>
      <trkpt lat="55.08612" lon="-4.97709">
        <ele>106.51</ele>
        <time>2021-03-20T15:20:24Z</time>
      </trkpt>
      <trkpt lat="55.0859" lon="-4.97678">
        <ele>106.95</ele>
        <time>2021-03-20T15:20:28Z</time>
      </trkpt>
      <trkpt lat="55.08562" lon="-4.97674">
        <ele>106.75</ele>
        <time>2021-03-20T15:20:32Z</time>
      </trkpt>
      <trkpt lat="55.08529" lon="-4.97683">
        <ele>106.99</ele>
        <time>2021-03-20T15:20:37Z</time>
      </trkpt>
      <trkpt lat="55.0848" lon="-4.97718">
        <ele>112.25</ele>
        <time>2021-03-20T15:20:41Z</time>
      </trkpt>
      <trkpt lat="55.08436" lon="-4.97758">
        <ele>111.81</ele>
        <time>2021-03-20T15:20:45Z</time>
      </trkpt>
      <trkpt lat="55.08379" lon="-4.97762">
        <ele>114.19</ele>
        <time>2021-03-20T15:20:49Z</time>
      </trkpt>
      <trkpt lat="55.08317" lon="-4.97718">
        <ele>114.17</ele>
        <time>2021-03-20T15:20:53Z</time>
      </trkpt>
      <trkpt lat="55.0828" lon="-4.97704">
        <ele>115.6</ele>
        <time>2021-03-20T15:20:58Z</time>
      </trkpt>
      <trkpt lat="55.0824" lon="-4.97701">
        <ele>117.39</ele>
        <time>2021-03-20T15:21:02Z</time>
      </trkpt>
      <trkpt lat="55.08163" lon="-4.97728">
        <ele>122.92</ele>
        <time>2021-03-20T15:21:06Z</time>
      </trkpt>
      <trkpt lat="55.08128" lon="-4.97728">
        <ele>123.79</ele>
        <time>2021-03-20T15:21:10Z</time>
      </trkpt>
      <trkpt lat="55.08091" lon="-4.97709">
        <ele>124.86</ele>
        <time>2021-03-20T15:21:15Z</time>
      </trkpt>
      <trkpt lat="55.08015" lon="-4.9766">
        <ele>126.79</ele>
        <time>2021-03-20T15:21:19Z</time>
      </trkpt>
      <trkpt lat="55.07994" lon="-4.97649">
        <ele>127.78</ele>
        <time>2021-03-20T15:21:23Z</time>
      </trkpt>
      <trkpt lat="55.07979" lon="-4.97641">
        <ele>128.59</ele>
        <time>2021-03-20T15:21:27Z</time>
      </trkpt>
      <trkpt lat="55.07942" lon="-4.97634">
        <ele>131.91</ele>
        <time>2021-03-20T15:21:31Z</time>
      </trkpt>
      <trkpt lat="55.07904" lon="-4.97638">
        <ele>132.97</ele>
        <time>2021-03-20T15:21:36Z</time>
      </trkpt>
      <trkpt lat="55.07866" lon="-4.9765">
        <ele>133.32</ele>
        <time>2021-03-20T15:21:40Z</time>
      </trkpt>
      <trkpt lat="55.07835" lon="-4.97676">
        <ele>134.96</ele>
        <time>2021-03-20T15:21:44Z</time>
      </trkpt>
      <trkpt lat="55.0781" lon="-4.97718">
        <ele>137.99</ele>
        <time>2021-03-20T15:21:48Z</time>
      </trkpt>
      <trkpt lat="55.0779" lon="-4.97773">
        <ele>139.22</ele>
        <time>2021-03-20T15:21:53Z</time>
      </trkpt>
      <trkpt lat="55.07772" lon="-4.97835">
        <ele>139.8</ele>
        <time>2021-03-20T15:21:57Z</time>
      </trkpt>
      <trkpt lat="55.07734" lon="-4.98025">
        <ele>146.12</ele>
        <time>2021-03-20T15:22:01Z</time>
      </trkpt>
      <trkpt lat="55.07726" lon="-4.98054">
        <ele>146.73</ele>
        <time>2021-03-20T15:22:05Z</time>
      </trkpt>
      <trkpt lat="55.07694" lon="-4.9812">
        <ele>150.62</ele>
        <time>2021-03-20T15:22:09Z</time>
      </trkpt>
      <trkpt lat="55.0766" lon="-4.98145">
        <ele>150.76</ele>
        <time>2021-03-20T15:22:14Z</time>
      </trkpt>
      <trkpt lat="55.07353" lon="-4.98326">
        <ele>157.61</ele>
        <time>2021-03-20T15:22:18Z</time>
      </trkpt>
      <trkpt lat="55.06838" lon="-4.98575">
        <ele>156.58</ele>
        <time>2021-03-20T15:22:22Z</time>
      </trkpt>
      <trkpt lat="55.06718" lon="-4.98639">
        <ele>164.35</ele>
        <time>2021-03-20T15:22:26Z</time>
      </trkpt>
      <trkpt lat="55.06665" lon="-4.98659">
        <ele>165.27</ele>
        <time>2021-03-20T15:22:31Z</time>
      </trkpt>
      <trkpt lat="55.06611" lon="-4.98669">
        <ele>163.91</ele>
        <time>2021-03-20T15:22:35Z</time>
      </trkpt>
      <trkpt lat="55.06556" lon="-4.98671">
        <ele>162.66</ele>
        <time>2021-03-20T15:22:39Z</time>
      </trkpt>
      <trkpt lat="55.06274" lon="-4.98696">
        <ele>162.95</ele>
        <time>2021-03-20T15:22:43Z</time>
      </trkpt>
      <trkpt lat="55.05581" lon="-4.98747">
        <ele>175.32</ele>
        <time>2021-03-20T15:22:47Z</time>
      </trkpt>
      <trkpt lat="55.05531" lon="-4.98748">
        <ele>179.72</ele>
        <time>2021-03-20T15:22:52Z</time>
      </trkpt>
      <trkpt lat="55.05482" lon="-4.9874">
        <ele>183.77</ele>
        <time>2021-03-20T15:22:56Z</time>
      </trkpt>
      <trkpt lat="55.05435" lon="-4.98724">
        <ele>183.4</ele>
        <time>2021-03-20T15:23:00Z</time>
      </trkpt>
      <trkpt lat="55.05364" lon="-4.98685">
        <ele>180.79</ele>
        <time>2021-03-20T15:23:04Z</time>
      </trkpt>
      <trkpt lat="55.05269" lon="-4.98662">
        <ele>177.41</ele>
        <time>2021-03-20T15:23:09Z</time>
      </trkpt>
      <trkpt lat="55.05237" lon="-4.98667">
        <ele>174.05</ele>
        <time>2021-03-20T15:23:13Z</time>
      </trkpt>
      <trkpt lat="55.05147" lon="-4.98695">
        <ele>171.41</ele>
        <time>2021-03-20T15:23:17Z</time>
      </trkpt>
      <trkpt lat="55.05109" lon="-4.98701">
        <ele>166.78</ele>
        <time>2021-03-20T15:23:21Z</time>
      </trkpt>
      <trkpt lat="55.05075" lon="-4.98701">
        <ele>163.73</ele>
        <time>2021-03-20T15:23:25Z</time>
      </trkpt>
      <trkpt lat="55.04986" lon="-4.98737">
        <ele>154.62</ele>
        <time>2021-03-20T15:23:30Z</time>
      </trkpt>
      <trkpt lat="55.04937" lon="-4.98749">
        <ele>151.28</ele>
        <time>2021-03-20T15:23:34Z</time>
      </trkpt>
      <trkpt lat="55.04869" lon="-4.98749">
        <ele>145.43</ele>
        <time>2021-03-20T15:23:38Z</time>
      </trkpt>
      <trkpt lat="55.04836" lon="-4.98758">
        <ele>140.14</ele>
        <time>2021-03-20T15:23:42Z</time>
      </trkpt>
      <trkpt lat="55.04804" lon="-4.9878">
        <ele>136.11</ele>
        <time>2021-03-20T15:23:47Z</time>
      </trkpt>
      <trkpt lat="55.04774" lon="-4.98809">
        <ele>134.32</ele>
        <time>2021-03-20T15:23:51Z</time>
      </trkpt>
      <trkpt lat="55.04746" lon="-4.98847">
        <ele>132.25</ele>
        <time>2021-03-20T15:23:55Z</time>
      </trkpt>
      <trkpt lat="55.0472" lon="-4.98892">
        <ele>130.81</ele>
        <time>2021-03-20T15:23:59Z</time>
      </trkpt>
      <trkpt lat="55.04696" lon="-4.98939">
        <ele>129.11</ele>
        <time>2021-03-20T15:24:03Z</time>
      </trkpt>
      <trkpt lat="55.04658" lon="-4.99001">
        <ele>124.05</ele>
        <time>2021-03-20T15:24:08Z</time>
      </trkpt>
      <trkpt lat="55.04539" lon="-4.99166">
        <ele>123.12</ele>
        <time>2021-03-20T15:24:12Z</time>
      </trkpt>
      <trkpt lat="55.04324" lon="-4.99411">
        <ele>105.64</ele>
        <time>2021-03-20T15:24:16Z</time>
      </trkpt>
      <trkpt lat="55.0425" lon="-4.99478">
        <ele>96.25</ele>
        <time>2021-03-20T15:24:20Z</time>
      </trkpt>
      <trkpt lat="55.0421" lon="-4.99497">
        <ele>92.26</ele>
        <time>2021-03-20T15:24:25Z</time>
      </trkpt>
      <trkpt lat="55.04106" lon="-4.99535">
        <ele>93</ele>
        <time>2021-03-20T15:24:29Z</time>
      </trkpt>
      <trkpt lat="55.04058" lon="-4.99563">
        <ele>91.57</ele>
        <time>2021-03-20T15:24:33Z</time>
      </trkpt>
      <trkpt lat="55.04023" lon="-4.99592">
        <ele>89.62</ele>
        <time>2021-03-20T15:24:37Z</time>
      </trkpt>
      <trkpt lat="55.03985" lon="-4.99634">
        <ele>87.18</ele>
        <time>2021-03-20T15:24:41Z</time>
      </trkpt>
      <trkpt lat="55.03841" lon="-4.99845">
        <ele>83.32</ele>
        <time>2021-03-20T15:24:46Z</time>
      </trkpt>
      <trkpt lat="55.03381" lon="-5.00496">
        <ele>73</ele>
        <time>2021-03-20T15:24:50Z</time>
      </trkpt>
      <trkpt lat="55.03351" lon="-5.00548">
        <ele>73.49</ele>
        <time>2021-03-20T15:24:54Z</time>
      </trkpt>
      <trkpt lat="55.03298" lon="-5.0066">
        <ele>69.97</ele>
        <time>2021-03-20T15:24:58Z</time>
      </trkpt>
      <trkpt lat="55.03269" lon="-5.00711">
        <ele>71.98</ele>
        <time>2021-03-20T15:25:02Z</time>
      </trkpt>
      <trkpt lat="55.03235" lon="-5.00754">
        <ele>70.49</ele>
        <time>2021-03-20T15:25:07Z</time>
      </trkpt>
      <trkpt lat="55.032" lon="-5.00795">
        <ele>69.33</ele>
        <time>2021-03-20T15:25:11Z</time>
      </trkpt>
      <trkpt lat="55.03152" lon="-5.00863">
        <ele>76.54</ele>
        <time>2021-03-20T15:25:15Z</time>
      </trkpt>
      <trkpt lat="55.03053" lon="-5.01068">
        <ele>68.26</ele>
        <time>2021-03-20T15:25:19Z</time>
      </trkpt>
      <trkpt lat="55.03004" lon="-5.01185">
        <ele>64.24</ele>
        <time>2021-03-20T15:25:24Z</time>
      </trkpt>
      <trkpt lat="55.02966" lon="-5.01309">
        <ele>62.88</ele>
        <time>2021-03-20T15:25:28Z</time>
      </trkpt>
      <trkpt lat="55.02943" lon="-5.01364">
        <ele>63.01</ele>
        <time>2021-03-20T15:25:32Z</time>
      </trkpt>
      <trkpt lat="55.02914" lon="-5.01409">
        <ele>63.75</ele>
        <time>2021-03-20T15:25:36Z</time>
      </trkpt>
      <trkpt lat="55.02881" lon="-5.01441">
        <ele>63.48</ele>
        <time>2021-03-20T15:25:40Z</time>
      </trkpt>
      <trkpt lat="55.02803" lon="-5.0149">
        <ele>63.27</ele>
        <time>2021-03-20T15:25:45Z</time>
      </trkpt>
      <trkpt lat="55.02748" lon="-5.01532">
        <ele>60.9</ele>
        <time>2021-03-20T15:25:49Z</time>
      </trkpt>
      <trkpt lat="55.02719" lon="-5.01559">
        <ele>61.7</ele>
        <time>2021-03-20T15:25:53Z</time>
      </trkpt>
      <trkpt lat="55.02693" lon="-5.01591">
        <ele>59.64</ele>
        <time>2021-03-20T15:25:57Z</time>
      </trkpt>
      <trkpt lat="55.02652" lon="-5.01652">
        <ele>60.72</ele>
        <time>2021-03-20T15:26:02Z</time>
      </trkpt>
      <trkpt lat="55.02631" lon="-5.0169">
        <ele>60.88</ele>
        <time>2021-03-20T15:26:06Z</time>
      </trkpt>
      <trkpt lat="55.0256" lon="-5.0184">
        <ele>59.42</ele>
        <time>2021-03-20T15:26:10Z</time>
      </trkpt>
      <trkpt lat="55.02533" lon="-5.01891">
        <ele>60.32</ele>
        <time>2021-03-20T15:26:14Z</time>
      </trkpt>
      <trkpt lat="55.02503" lon="-5.01938">
        <ele>60.24</ele>
        <time>2021-03-20T15:26:18Z</time>
      </trkpt>
      <trkpt lat="55.02354" lon="-5.02136">
        <ele>60.72</ele>
        <time>2021-03-20T15:26:23Z</time>
      </trkpt>
      <trkpt lat="55.0229" lon="-5.02248">
        <ele>57.05</ele>
        <time>2021-03-20T15:26:27Z</time>
      </trkpt>
      <trkpt lat="55.02262" lon="-5.02312">
        <ele>56.81</ele>
        <time>2021-03-20T15:26:31Z</time>
      </trkpt>
      <trkpt lat="55.0219" lon="-5.02498">
        <ele>59.47</ele>
        <time>2021-03-20T15:26:35Z</time>
      </trkpt>
      <trkpt lat="55.02165" lon="-5.02557">
        <ele>57.31</ele>
        <time>2021-03-20T15:26:40Z</time>
      </trkpt>
      <trkpt lat="55.02115" lon="-5.02649">
        <ele>58.35</ele>
        <time>2021-03-20T15:26:44Z</time>
      </trkpt>
      <trkpt lat="55.01905" lon="-5.02997">
        <ele>63.33</ele>
        <time>2021-03-20T15:26:48Z</time>
      </trkpt>
      <trkpt lat="55.01855" lon="-5.03097">
        <ele>60.55</ele>
        <time>2021-03-20T15:26:52Z</time>
      </trkpt>
      <trkpt lat="55.01657" lon="-5.03526">
        <ele>60.13</ele>
        <time>2021-03-20T15:26:56Z</time>
      </trkpt>
      <trkpt lat="55.01565" lon="-5.03741">
        <ele>59.9</ele>
        <time>2021-03-20T15:27:01Z</time>
      </trkpt>
      <trkpt lat="55.01475" lon="-5.03933">
        <ele>47.67</ele>
        <time>2021-03-20T15:27:05Z</time>
      </trkpt>
      <trkpt lat="55.01413" lon="-5.04034">
        <ele>46.01</ele>
        <time>2021-03-20T15:27:09Z</time>
      </trkpt>
      <trkpt lat="55.0138" lon="-5.04081">
        <ele>45.67</ele>
        <time>2021-03-20T15:27:13Z</time>
      </trkpt>
      <trkpt lat="55.01061" lon="-5.04478">
        <ele>32.28</ele>
        <time>2021-03-20T15:27:18Z</time>
      </trkpt>
      <trkpt lat="55.0094" lon="-5.04644">
        <ele>28.45</ele>
        <time>2021-03-20T15:27:22Z</time>
      </trkpt>
      <trkpt lat="55.00905" lon="-5.04684">
        <ele>28.96</ele>
        <time>2021-03-20T15:27:26Z</time>
      </trkpt>
      <trkpt lat="55.00868" lon="-5.04717">
        <ele>25.77</ele>
        <time>2021-03-20T15:27:30Z</time>
      </trkpt>
      <trkpt lat="55.00826" lon="-5.04744">
        <ele>23.11</ele>
        <time>2021-03-20T15:27:34Z</time>
      </trkpt>
      <trkpt lat="55.00784" lon="-5.04758">
        <ele>21.95</ele>
        <time>2021-03-20T15:27:39Z</time>
      </trkpt>
      <trkpt lat="55.00742" lon="-5.04767">
        <ele>20.32</ele>
        <time>2021-03-20T15:27:43Z</time>
      </trkpt>
      <trkpt lat="55.007" lon="-5.04765">
        <ele>20.61</ele>
        <time>2021-03-20T15:27:47Z</time>
      </trkpt>
      <trkpt lat="55.00658" lon="-5.04758">
        <ele>22.43</ele>
        <time>2021-03-20T15:27:51Z</time>
      </trkpt>
      <trkpt lat="55.00616" lon="-5.04741">
        <ele>25.13</ele>
        <time>2021-03-20T15:27:56Z</time>
      </trkpt>
      <trkpt lat="55.00558" lon="-5.04701">
        <ele>25.88</ele>
        <time>2021-03-20T15:28:00Z</time>
      </trkpt>
      <trkpt lat="55.00406" lon="-5.04565">
        <ele>28.05</ele>
        <time>2021-03-20T15:28:04Z</time>
      </trkpt>
      <trkpt lat="55.00372" lon="-5.04526">
        <ele>28.52</ele>
        <time>2021-03-20T15:28:08Z</time>
      </trkpt>
      <trkpt lat="55.0034" lon="-5.04482">
        <ele>31.26</ele>
        <time>2021-03-20T15:28:12Z</time>
      </trkpt>
      <trkpt lat="55.0031" lon="-5.04433">
        <ele>34.09</ele>
        <time>2021-03-20T15:28:17Z</time>
      </trkpt>
      <trkpt lat="55.00219" lon="-5.04276">
        <ele>42.7</ele>
        <time>2021-03-20T15:28:21Z</time>
      </trkpt>
      <trkpt lat="55.00057" lon="-5.04072">
        <ele>45.6</ele>
        <time>2021-03-20T15:28:25Z</time>
      </trkpt>
      <trkpt lat="54.99983" lon="-5.03976">
        <ele>49.49</ele>
        <time>2021-03-20T15:28:29Z</time>
      </trkpt>
      <trkpt lat="54.99923" lon="-5.03905">
        <ele>51.64</ele>
        <time>2021-03-20T15:28:34Z</time>
      </trkpt>
      <trkpt lat="54.99898" lon="-5.0388">
        <ele>49.77</ele>
        <time>2021-03-20T15:28:38Z</time>
      </trkpt>
      <trkpt lat="54.9984" lon="-5.03827">
        <ele>49.25</ele>
        <time>2021-03-20T15:28:42Z</time>
      </trkpt>
      <trkpt lat="54.99788" lon="-5.0379">
        <ele>51.12</ele>
        <time>2021-03-20T15:28:46Z</time>
      </trkpt>
      <trkpt lat="54.9975" lon="-5.03769">
        <ele>54.24</ele>
        <time>2021-03-20T15:28:50Z</time>
      </trkpt>
      <trkpt lat="54.99686" lon="-5.03742">
        <ele>53</ele>
        <time>2021-03-20T15:28:55Z</time>
      </trkpt>
      <trkpt lat="54.99612" lon="-5.03723">
        <ele>48.03</ele>
        <time>2021-03-20T15:28:59Z</time>
      </trkpt>
      <trkpt lat="54.9956" lon="-5.03713">
        <ele>47.8</ele>
        <time>2021-03-20T15:29:03Z</time>
      </trkpt>
      <trkpt lat="54.99516" lon="-5.03702">
        <ele>44.76</ele>
        <time>2021-03-20T15:29:07Z</time>
      </trkpt>
      <trkpt lat="54.9949" lon="-5.03685">
        <ele>44.05</ele>
        <time>2021-03-20T15:29:12Z</time>
      </trkpt>
      <trkpt lat="54.99457" lon="-5.03657">
        <ele>47.43</ele>
        <time>2021-03-20T15:29:16Z</time>
      </trkpt>
      <trkpt lat="54.9944" lon="-5.03645">
        <ele>49.15</ele>
        <time>2021-03-20T15:29:20Z</time>
      </trkpt>
      <trkpt lat="54.9942" lon="-5.03638">
        <ele>50.25</ele>
        <time>2021-03-20T15:29:24Z</time>
      </trkpt>
      <trkpt lat="54.99404" lon="-5.03637">
        <ele>49.28</ele>
        <time>2021-03-20T15:29:28Z</time>
      </trkpt>
      <trkpt lat="54.99352" lon="-5.03638">
        <ele>43.67</ele>
        <time>2021-03-20T15:29:33Z</time>
      </trkpt>
      <trkpt lat="54.99228" lon="-5.03647">
        <ele>34.97</ele>
        <time>2021-03-20T15:29:37Z</time>
      </trkpt>
      <trkpt lat="54.99133" lon="-5.03637">
        <ele>28.79</ele>
        <time>2021-03-20T15:29:41Z</time>
      </trkpt>
      <trkpt lat="54.99079" lon="-5.03622">
        <ele>26.25</ele>
        <time>2021-03-20T15:29:45Z</time>
      </trkpt>
      <trkpt lat="54.99056" lon="-5.0361">
        <ele>26.38</ele>
        <time>2021-03-20T15:29:50Z</time>
      </trkpt>
      <trkpt lat="54.98932" lon="-5.03527">
        <ele>23.76</ele>
        <time>2021-03-20T15:29:54Z</time>
      </trkpt>
      <trkpt lat="54.98887" lon="-5.03502">
        <ele>23.37</ele>
        <time>2021-03-20T15:29:58Z</time>
      </trkpt>
      <trkpt lat="54.98868" lon="-5.03497">
        <ele>23.34</ele>
        <time>2021-03-20T15:30:02Z</time>
      </trkpt>
      <trkpt lat="54.98833" lon="-5.03496">
        <ele>21.09</ele>
        <time>2021-03-20T15:30:06Z</time>
      </trkpt>
      <trkpt lat="54.9881" lon="-5.03492">
        <ele>20.56</ele>
        <time>2021-03-20T15:30:11Z</time>
      </trkpt>
      <trkpt lat="54.98787" lon="-5.0348">
        <ele>20.53</ele>
        <time>2021-03-20T15:30:15Z</time>
      </trkpt>
      <trkpt lat="54.98727" lon="-5.03442">
        <ele>19.15</ele>
        <time>2021-03-20T15:30:19Z</time>
      </trkpt>
      <trkpt lat="54.98659" lon="-5.0339">
        <ele>19.97</ele>
        <time>2021-03-20T15:30:23Z</time>
      </trkpt>
      <trkpt lat="54.98633" lon="-5.03373">
        <ele>20.66</ele>
        <time>2021-03-20T15:30:28Z</time>
      </trkpt>
      <trkpt lat="54.98542" lon="-5.03329">
        <ele>16.94</ele>
        <time>2021-03-20T15:30:32Z</time>
      </trkpt>
      <trkpt lat="54.98429" lon="-5.03279">
        <ele>22.01</ele>
        <time>2021-03-20T15:30:36Z</time>
      </trkpt>
      <trkpt lat="54.98404" lon="-5.03272">
        <ele>20.65</ele>
        <time>2021-03-20T15:30:40Z</time>
      </trkpt>
      <trkpt lat="54.98345" lon="-5.03265">
        <ele>14.81</ele>
        <time>2021-03-20T15:30:44Z</time>
      </trkpt>
      <trkpt lat="54.98306" lon="-5.03251">
        <ele>11.97</ele>
        <time>2021-03-20T15:30:49Z</time>
      </trkpt>
      <trkpt lat="54.9817" lon="-5.03153">
        <ele>10.04</ele>
        <time>2021-03-20T15:30:53Z</time>
      </trkpt>
      <trkpt lat="54.98148" lon="-5.0313">
        <ele>10.07</ele>
        <time>2021-03-20T15:30:57Z</time>
      </trkpt>
      <trkpt lat="54.98137" lon="-5.03111">
        <ele>10.66</ele>
        <time>2021-03-20T15:31:01Z</time>
      </trkpt>
      <trkpt lat="54.98133" lon="-5.03099">
        <ele>11.08</ele>
        <time>2021-03-20T15:31:03Z</time>
      </trkpt>
      <trkpt lat="54.98129" lon="-5.03094">
        <ele>11.02</ele>
        <time>2021-03-20T15:31:05Z</time>
      </trkpt>
      <trkpt lat="54.98121" lon="-5.03091">
        <ele>10.36</ele>
        <time>2021-03-20T15:31:06Z</time>
      </trkpt>
      <trkpt lat="54.98116" lon="-5.03093">
        <ele>9.53</ele>
        <time>2021-03-20T15:31:08Z</time>
      </trkpt>
      <trkpt lat="54.98111" lon="-5.03098">
        <ele>8.43</ele>
        <time>2021-03-20T15:31:10Z</time>
      </trkpt>
      <trkpt lat="54.98108" lon="-5.03106">
        <ele>7.32</ele>
        <time>2021-03-20T15:31:11Z</time>
      </trkpt>
      <trkpt lat="54.98107" lon="-5.03115">
        <ele>6.43</ele>
        <time>2021-03-20T15:31:13Z</time>
      </trkpt>
      <trkpt lat="54.98109" lon="-5.03132">
        <ele>5.42</ele>
        <time>2021-03-20T15:31:14Z</time>
      </trkpt>
      <trkpt lat="54.98111" lon="-5.03186">
        <ele>2.38</ele>
        <time>2021-03-20T15:31:16Z</time>
      </trkpt>
      <trkpt lat="54.98114" lon="-5.03202">
        <ele>2.17</ele>
        <time>2021-03-20T15:31:18Z</time>
      </trkpt>
      <trkpt lat="54.98121" lon="-5.03218">
        <ele>2.39</ele>
        <time>2021-03-20T15:31:19Z</time>
      </trkpt>
      <trkpt lat="54.98141" lon="-5.03257">
        <ele>6.54</ele>
        <time>2021-03-20T15:31:21Z</time>
      </trkpt>
      <trkpt lat="54.98145" lon="-5.03264">
        <ele>5.88</ele>
        <time>2021-03-20T15:31:27Z</time>
      </trkpt>
      <trkpt lat="54.98147" lon="-5.03265">
        <ele>5.53</ele>
        <time>2021-03-20T15:31:33Z</time>
      </trkpt>
      <trkpt lat="54.98153" lon="-5.03262">
        <ele>5.06</ele>
        <time>2021-03-20T15:31:39Z</time>
      </trkpt>
      <trkpt lat="54.98155" lon="-5.0325">
        <ele>5.22</ele>
        <time>2021-03-20T15:31:44Z</time>
      </trkpt>
      <trkpt lat="54.98152" lon="-5.03242">
        <ele>5.11</ele>
        <time>2021-03-20T15:31:50Z</time>
      </trkpt>
      <trkpt lat="54.98157" lon="-5.03233">
        <ele>4.59</ele>
        <time>2021-03-20T15:31:56Z</time>
      </trkpt>
      <trkpt lat="54.98163" lon="-5.03228">
        <ele>4.68</ele>
        <time>2021-03-20T15:32:02Z</time>
      </trkpt>
      <trkpt lat="54.98177" lon="-5.03228">
        <ele>5.49</ele>
        <time>2021-03-20T15:32:08Z</time>
      </trkpt>
      <trkpt lat="54.98189" lon="-5.0324">
        <ele>5.45</ele>
        <time>2021-03-20T15:32:14Z</time>
      </trkpt>
      <trkpt lat="54.98243" lon="-5.03321">
        <ele>3.34</ele>
        <time>2021-03-20T15:32:20Z</time>
      </trkpt>
      <trkpt lat="54.9828" lon="-5.03354">
        <ele>3.33</ele>
        <time>2021-03-20T15:32:25Z</time>
      </trkpt>
      <trkpt lat="54.983" lon="-5.03359">
        <ele>3.86</ele>
        <time>2021-03-20T15:32:31Z</time>
      </trkpt>
      <trkpt lat="54.98335" lon="-5.03357">
        <ele>5.19</ele>
        <time>2021-03-20T15:32:37Z</time>
      </trkpt>
      <trkpt lat="54.98378" lon="-5.03363">
        <ele>5.86</ele>
        <time>2021-03-20T15:32:43Z</time>
      </trkpt>
      <trkpt lat="54.98378" lon="-5.03363">
        <ele>5.86</ele>
        <time>2021-03-20T15:32:43Z</time>
      </trkpt>
      <trkpt lat="54.984" lon="-5.03366">
        <ele>6.04</ele>
        <time>2021-03-20T15:32:52Z</time>
      </trkpt>
      <trkpt lat="54.98483" lon="-5.03442">
        <ele>4.07</ele>
        <time>2021-03-20T15:33:01Z</time>
      </trkpt>
      <trkpt lat="54.98519" lon="-5.03434">
        <ele>5.05</ele>
        <time>2021-03-20T15:33:11Z</time>
      </trkpt>
      <trkpt lat="54.98523" lon="-5.03426">
        <ele>5.52</ele>
        <time>2021-03-20T15:33:20Z</time>
      </trkpt>
      <trkpt lat="54.98529" lon="-5.03387">
        <ele>7.43</ele>
        <time>2021-03-20T15:33:29Z</time>
      </trkpt>
      <trkpt lat="54.98529" lon="-5.03377">
        <ele>8.86</ele>
        <time>2021-03-20T15:33:38Z</time>
      </trkpt>
      <trkpt lat="54.98525" lon="-5.03367">
        <ele>10.05</ele>
        <time>2021-03-20T15:33:48Z</time>
      </trkpt>
      <trkpt lat="54.9852" lon="-5.03361">
        <ele>10.49</ele>
        <time>2021-03-20T15:33:57Z</time>
      </trkpt>
      <trkpt lat="54.98417" lon="-5.03318">
        <ele>12.25</ele>
        <time>2021-03-20T15:34:06Z</time>
      </trkpt>
      <trkpt lat="54.9835" lon="-5.03308">
        <ele>8.93</ele>
        <time>2021-03-20T15:34:15Z</time>
      </trkpt>
      <trkpt lat="54.98335" lon="-5.03313">
        <ele>7.6</ele>
        <time>2021-03-20T15:34:25Z</time>
      </trkpt>
      <trkpt lat="54.98296" lon="-5.03344">
        <ele>4.31</ele>
        <time>2021-03-20T15:34:34Z</time>
      </trkpt>
      <trkpt lat="54.98283" lon="-5.03347">
        <ele>3.7</ele>
        <time>2021-03-20T15:34:43Z</time>
      </trkpt>
      <trkpt lat="54.98268" lon="-5.03343">
        <ele>3.3</ele>
        <time>2021-03-20T15:34:52Z</time>
      </trkpt>
      <trkpt lat="54.98243" lon="-5.03321">
        <ele>3.34</ele>
        <time>2021-03-20T15:35:02Z</time>
      </trkpt>
      <trkpt lat="54.98189" lon="-5.0324">
        <ele>5.45</ele>
        <time>2021-03-20T15:35:11Z</time>
      </trkpt>
      <trkpt lat="54.98177" lon="-5.03228">
        <ele>5.49</ele>
        <time>2021-03-20T15:35:20Z</time>
      </trkpt>
      <trkpt lat="54.98163" lon="-5.03228">
        <ele>4.68</ele>
        <time>2021-03-20T15:35:29Z</time>
      </trkpt>
      <trkpt lat="54.98157" lon="-5.03233">
        <ele>4.59</ele>
        <time>2021-03-20T15:35:38Z</time>
      </trkpt>
      <trkpt lat="54.98152" lon="-5.03242">
        <ele>5.11</ele>
        <time>2021-03-20T15:35:48Z</time>
      </trkpt>
      <trkpt lat="54.98147" lon="-5.0324">
        <ele>5.19</ele>
        <time>2021-03-20T15:35:49Z</time>
      </trkpt>
      <trkpt lat="54.98145" lon="-5.03241">
        <ele>5.42</ele>
        <time>2021-03-20T15:35:51Z</time>
      </trkpt>
      <trkpt lat="54.98121" lon="-5.03196">
        <ele>2.66</ele>
        <time>2021-03-20T15:35:53Z</time>
      </trkpt>
      <trkpt lat="54.98118" lon="-5.03184">
        <ele>2.93</ele>
        <time>2021-03-20T15:35:54Z</time>
      </trkpt>
      <trkpt lat="54.98117" lon="-5.03174">
        <ele>3.37</ele>
        <time>2021-03-20T15:35:56Z</time>
      </trkpt>
      <trkpt lat="54.98119" lon="-5.0316">
        <ele>4.37</ele>
        <time>2021-03-20T15:35:58Z</time>
      </trkpt>
      <trkpt lat="54.98124" lon="-5.03144">
        <ele>6.05</ele>
        <time>2021-03-20T15:35:59Z</time>
      </trkpt>
      <trkpt lat="54.98127" lon="-5.03142">
        <ele>6.47</ele>
        <time>2021-03-20T15:36:06Z</time>
      </trkpt>
      <trkpt lat="54.98134" lon="-5.03133">
        <ele>8.06</ele>
        <time>2021-03-20T15:36:12Z</time>
      </trkpt>
      <trkpt lat="54.98137" lon="-5.03119">
        <ele>9.91</ele>
        <time>2021-03-20T15:36:18Z</time>
      </trkpt>
      <trkpt lat="54.98137" lon="-5.03111">
        <ele>10.66</ele>
        <time>2021-03-20T15:36:25Z</time>
      </trkpt>
      <trkpt lat="54.98133" lon="-5.03099">
        <ele>11.08</ele>
        <time>2021-03-20T15:36:31Z</time>
      </trkpt>
      <trkpt lat="54.98129" lon="-5.03094">
        <ele>11.02</ele>
        <time>2021-03-20T15:36:37Z</time>
      </trkpt>
      <trkpt lat="54.98104" lon="-5.0308">
        <ele>9.36</ele>
        <time>2021-03-20T15:36:44Z</time>
      </trkpt>
      <trkpt lat="54.98085" lon="-5.03061">
        <ele>7.93</ele>
        <time>2021-03-20T15:36:50Z</time>
      </trkpt>
      <trkpt lat="54.98062" lon="-5.03027">
        <ele>7.86</ele>
        <time>2021-03-20T15:36:57Z</time>
      </trkpt>
      <trkpt lat="54.98045" lon="-5.03007">
        <ele>8.59</ele>
        <time>2021-03-20T15:37:03Z</time>
      </trkpt>
      <trkpt lat="54.98025" lon="-5.02988">
        <ele>8.93</ele>
        <time>2021-03-20T15:37:09Z</time>
      </trkpt>
      <trkpt lat="54.98" lon="-5.02972">
        <ele>7.07</ele>
        <time>2021-03-20T15:37:16Z</time>
      </trkpt>
      <trkpt lat="54.97974" lon="-5.0296">
        <ele>5.48</ele>
        <time>2021-03-20T15:37:22Z</time>
      </trkpt>
      <trkpt lat="54.97921" lon="-5.02945">
        <ele>6.95</ele>
        <time>2021-03-20T15:37:28Z</time>
      </trkpt>
      <trkpt lat="54.97892" lon="-5.02942">
        <ele>6.21</ele>
        <time>2021-03-20T15:37:35Z</time>
      </trkpt>
      <trkpt lat="54.97613" lon="-5.0294">
        <ele>5.16</ele>
        <time>2021-03-20T15:37:41Z</time>
      </trkpt>
      <trkpt lat="54.97587" lon="-5.02937">
        <ele>4.38</ele>
        <time>2021-03-20T15:37:47Z</time>
      </trkpt>
      <trkpt lat="54.97563" lon="-5.02931">
        <ele>4.5</ele>
        <time>2021-03-20T15:37:54Z</time>
      </trkpt>
      <trkpt lat="54.97543" lon="-5.0292">
        <ele>4.93</ele>
        <time>2021-03-20T15:38:00Z</time>
      </trkpt>
      <trkpt lat="54.97523" lon="-5.02907">
        <ele>5.18</ele>
        <time>2021-03-20T15:38:06Z</time>
      </trkpt>
      <trkpt lat="54.97492" lon="-5.02878">
        <ele>4.71</ele>
        <time>2021-03-20T15:38:13Z</time>
      </trkpt>
      <trkpt lat="54.97457" lon="-5.02825">
        <ele>3.44</ele>
        <time>2021-03-20T15:38:19Z</time>
      </trkpt>
      <trkpt lat="54.97447" lon="-5.02804">
        <ele>3.09</ele>
        <time>2021-03-20T15:38:26Z</time>
      </trkpt>
      <trkpt lat="54.97423" lon="-5.02737">
        <ele>3.1</ele>
        <time>2021-03-20T15:38:32Z</time>
      </trkpt>
      <trkpt lat="54.97414" lon="-5.02704">
        <ele>2.91</ele>
        <time>2021-03-20T15:38:38Z</time>
      </trkpt>
      <trkpt lat="54.9738" lon="-5.02542">
        <ele>6.87</ele>
        <time>2021-03-20T15:38:45Z</time>
      </trkpt>
      <trkpt lat="54.97366" lon="-5.02493">
        <ele>7.8</ele>
        <time>2021-03-20T15:38:51Z</time>
      </trkpt>
      <trkpt lat="54.97353" lon="-5.02454">
        <ele>7.86</ele>
        <time>2021-03-20T15:38:57Z</time>
      </trkpt>
      <trkpt lat="54.9733" lon="-5.02403">
        <ele>7.13</ele>
        <time>2021-03-20T15:39:04Z</time>
      </trkpt>
      <trkpt lat="54.97272" lon="-5.02292">
        <ele>6.24</ele>
        <time>2021-03-20T15:39:10Z</time>
      </trkpt>
      <trkpt lat="54.97239" lon="-5.02233">
        <ele>6.81</ele>
        <time>2021-03-20T15:39:16Z</time>
      </trkpt>
      <trkpt lat="54.97185" lon="-5.02142">
        <ele>6.76</ele>
        <time>2021-03-20T15:39:23Z</time>
      </trkpt>
      <trkpt lat="54.97158" lon="-5.02092">
        <ele>6.82</ele>
        <time>2021-03-20T15:39:29Z</time>
      </trkpt>
      <trkpt lat="54.97083" lon="-5.01942">
        <ele>6.11</ele>
        <time>2021-03-20T15:39:35Z</time>
      </trkpt>
      <trkpt lat="54.97067" lon="-5.01916">
        <ele>6.24</ele>
        <time>2021-03-20T15:39:42Z</time>
      </trkpt>
      <trkpt lat="54.97037" lon="-5.01874">
        <ele>6.58</ele>
        <time>2021-03-20T15:39:48Z</time>
      </trkpt>
      <trkpt lat="54.97013" lon="-5.01848">
        <ele>6.55</ele>
        <time>2021-03-20T15:39:54Z</time>
      </trkpt>
      <trkpt lat="54.96977" lon="-5.01814">
        <ele>5.81</ele>
        <time>2021-03-20T15:40:01Z</time>
      </trkpt>
      <trkpt lat="54.96871" lon="-5.01724">
        <ele>6.5</ele>
        <time>2021-03-20T15:40:07Z</time>
      </trkpt>
      <trkpt lat="54.96812" lon="-5.01665">
        <ele>5.1</ele>
        <time>2021-03-20T15:40:14Z</time>
      </trkpt>
      <trkpt lat="54.96686" lon="-5.01519">
        <ele>4.03</ele>
        <time>2021-03-20T15:40:20Z</time>
      </trkpt>
      <trkpt lat="54.96635" lon="-5.01473">
        <ele>5.09</ele>
        <time>2021-03-20T15:40:26Z</time>
      </trkpt>
      <trkpt lat="54.96607" lon="-5.01451">
        <ele>6.48</ele>
        <time>2021-03-20T15:40:33Z</time>
      </trkpt>
      <trkpt lat="54.9652" lon="-5.01389">
        <ele>7.01</ele>
        <time>2021-03-20T15:40:39Z</time>
      </trkpt>
      <trkpt lat="54.96399" lon="-5.01273">
        <ele>7.2</ele>
        <time>2021-03-20T15:40:45Z</time>
      </trkpt>
      <trkpt lat="54.96381" lon="-5.01329">
        <ele>2.85</ele>
        <time>2021-03-20T15:40:50Z</time>
      </trkpt>
      <trkpt lat="54.9638" lon="-5.01331">
        <ele>2.73</ele>
        <time>2021-03-20T15:40:56Z</time>
      </trkpt>
      <trkpt lat="54.96368" lon="-5.01337">
        <ele>2.22</ele>
        <time>2021-03-20T15:41:02Z</time>
      </trkpt>
      <trkpt lat="54.96363" lon="-5.01337">
        <ele>2.06</ele>
        <time>2021-03-20T15:41:07Z</time>
      </trkpt>
      <trkpt lat="54.96358" lon="-5.01334">
        <ele>2.11</ele>
        <time>2021-03-20T15:41:13Z</time>
      </trkpt>
      <trkpt lat="54.96346" lon="-5.01319">
        <ele>2.56</ele>
        <time>2021-03-20T15:41:19Z</time>
      </trkpt>
      <trkpt lat="54.96338" lon="-5.01286">
        <ele>2.95</ele>
        <time>2021-03-20T15:41:24Z</time>
      </trkpt>
      <trkpt lat="54.9633" lon="-5.01268">
        <ele>3.75</ele>
        <time>2021-03-20T15:41:30Z</time>
      </trkpt>
      <trkpt lat="54.96316" lon="-5.0125">
        <ele>5</ele>
        <time>2021-03-20T15:41:36Z</time>
      </trkpt>
      <trkpt lat="54.96302" lon="-5.0124">
        <ele>5.37</ele>
        <time>2021-03-20T15:41:41Z</time>
      </trkpt>
      <trkpt lat="54.96145" lon="-5.01167">
        <ele>5.2</ele>
        <time>2021-03-20T15:41:47Z</time>
      </trkpt>
      <trkpt lat="54.96134" lon="-5.01153">
        <ele>5.78</ele>
        <time>2021-03-20T15:41:53Z</time>
      </trkpt>
      <trkpt lat="54.96053" lon="-5.01105">
        <ele>3.76</ele>
        <time>2021-03-20T15:41:58Z</time>
      </trkpt>
      <trkpt lat="54.96042" lon="-5.01109">
        <ele>2.33</ele>
        <time>2021-03-20T15:42:04Z</time>
      </trkpt>
      <trkpt lat="54.96035" lon="-5.01116">
        <ele>1.13</ele>
        <time>2021-03-20T15:42:10Z</time>
      </trkpt>
      <trkpt lat="54.96031" lon="-5.01125">
        <ele>0.19</ele>
        <time>2021-03-20T15:42:15Z</time>
      </trkpt>
      <trkpt lat="54.96028" lon="-5.01137">
        <ele>-0.85</ele>
        <time>2021-03-20T15:42:21Z</time>
      </trkpt>
      <trkpt lat="54.96028" lon="-5.01149">
        <ele>-1.36</ele>
        <time>2021-03-20T15:42:27Z</time>
      </trkpt>
      <trkpt lat="54.96031" lon="-5.01165">
        <ele>-1.82</ele>
        <time>2021-03-20T15:42:32Z</time>
      </trkpt>
      <trkpt lat="54.9605" lon="-5.01222">
        <ele>0.98</ele>
        <time>2021-03-20T15:42:38Z</time>
      </trkpt>
      <trkpt lat="54.96056" lon="-5.01234">
        <ele>2.63</ele>
        <time>2021-03-20T15:52:35Z</time>
      </trkpt>
      <trkpt lat="54.96066" lon="-5.01243">
        <ele>2.89</ele>
        <time>2021-03-20T16:02:32Z</time>
      </trkpt>
      <trkpt lat="54.96086" lon="-5.0125">
        <ele>1.31</ele>
        <time>2021-03-20T16:12:30Z</time>
      </trkpt>
      <trkpt lat="54.96096" lon="-5.01262">
        <ele>2.33</ele>
        <time>2021-03-20T16:22:27Z</time>
      </trkpt>
      <trkpt lat="54.96132" lon="-5.01364">
        <ele>2.31</ele>
        <time>2021-03-20T16:32:24Z</time>
      </trkpt>
      <trkpt lat="54.96138" lon="-5.01376">
        <ele>2.23</ele>
        <time>2021-03-20T16:42:22Z</time>
      </trkpt>
      <trkpt lat="54.96149" lon="-5.01389">
        <ele>2.12</ele>
        <time>2021-03-20T16:52:19Z</time>
      </trkpt>
      <trkpt lat="54.96156" lon="-5.01406">
        <ele>2</ele>
        <time>2021-03-20T17:02:16Z</time>
      </trkpt>
      <trkpt lat="54.96202" lon="-5.01538">
        <ele>2.01</ele>
        <time>2021-03-20T17:12:13Z</time>
      </trkpt>
      <trkpt lat="54.96207" lon="-5.01783">
        <ele>2.03</ele>
        <time>2021-03-20T17:22:11Z</time>
      </trkpt>
      <trkpt lat="54.9624" lon="-5.02044">
        <ele>2.05</ele>
        <time>2021-03-20T17:32:08Z</time>
      </trkpt>
      <trkpt lat="54.96322" lon="-5.02374">
        <ele>2.07</ele>
        <time>2021-03-20T17:42:05Z</time>
      </trkpt>
      <trkpt lat="54.96396" lon="-5.02489">
        <ele>2.08</ele>
        <time>2021-03-20T17:52:02Z</time>
      </trkpt>
      <trkpt lat="54.97112" lon="-5.03285">
        <ele>2.15</ele>
        <time>2021-03-20T18:02:00Z</time>
      </trkpt>
      <trkpt lat="54.99848" lon="-5.05898">
        <ele>2.41</ele>
        <time>2021-03-20T18:11:57Z</time>
      </trkpt>
      <trkpt lat="55.02774" lon="-5.07937">
        <ele>2.64</ele>
        <time>2021-03-20T18:21:54Z</time>
      </trkpt>
      <trkpt lat="55.0359" lon="-5.09894">
        <ele>2.77</ele>
        <time>2021-03-20T18:31:51Z</time>
      </trkpt>
      <trkpt lat="55.03728" lon="-5.15525">
        <ele>3.11</ele>
        <time>2021-03-20T18:41:49Z</time>
      </trkpt>
      <trkpt lat="55.03472" lon="-5.17945">
        <ele>3.25</ele>
        <time>2021-03-20T18:51:46Z</time>
      </trkpt>
      <trkpt lat="54.86853" lon="-5.78197">
        <ele>7.55</ele>
        <time>2021-03-20T19:01:43Z</time>
      </trkpt>
      <trkpt lat="54.86558" lon="-5.78639">
        <ele>7.58</ele>
        <time>2021-03-20T19:11:41Z</time>
      </trkpt>
      <trkpt lat="54.85172" lon="-5.79414">
        <ele>7.7</ele>
        <time>2021-03-20T19:21:38Z</time>
      </trkpt>
      <trkpt lat="54.8508" lon="-5.79478">
        <ele>7.71</ele>
        <time>2021-03-20T19:31:35Z</time>
      </trkpt>
      <trkpt lat="54.84928" lon="-5.79619">
        <ele>7.72</ele>
        <time>2021-03-20T19:41:32Z</time>
      </trkpt>
      <trkpt lat="54.84881" lon="-5.79658">
        <ele>7.1</ele>
        <time>2021-03-20T19:51:30Z</time>
      </trkpt>
      <trkpt lat="54.84852" lon="-5.7969">
        <ele>5.31</ele>
        <time>2021-03-20T20:01:27Z</time>
      </trkpt>
      <trkpt lat="54.84841" lon="-5.79709">
        <ele>4.47</ele>
        <time>2021-03-20T20:11:24Z</time>
      </trkpt>
      <trkpt lat="54.84824" lon="-5.79772">
        <ele>4.34</ele>
        <time>2021-03-20T20:21:21Z</time>
      </trkpt>
      <trkpt lat="54.84721" lon="-5.79855">
        <ele>4.73</ele>
        <time>2021-03-20T20:21:28Z</time>
      </trkpt>
      <trkpt lat="54.84716" lon="-5.79868">
        <ele>4.78</ele>
        <time>2021-03-20T20:21:34Z</time>
      </trkpt>
      <trkpt lat="54.84714" lon="-5.79881">
        <ele>4.69</ele>
        <time>2021-03-20T20:21:40Z</time>
      </trkpt>
      <trkpt lat="54.84653" lon="-5.79971">
        <ele>3.48</ele>
        <time>2021-03-20T20:21:46Z</time>
      </trkpt>
      <trkpt lat="54.84561" lon="-5.80114">
        <ele>5</ele>
        <time>2021-03-20T20:21:52Z</time>
      </trkpt>
      <trkpt lat="54.84543" lon="-5.80134">
        <ele>4.91</ele>
        <time>2021-03-20T20:21:58Z</time>
      </trkpt>
      <trkpt lat="54.84535" lon="-5.80137">
        <ele>4.95</ele>
        <time>2021-03-20T20:22:05Z</time>
      </trkpt>
      <trkpt lat="54.84523" lon="-5.80135">
        <ele>4.56</ele>
        <time>2021-03-20T20:22:11Z</time>
      </trkpt>
      <trkpt lat="54.84518" lon="-5.80132">
        <ele>4.23</ele>
        <time>2021-03-20T20:22:14Z</time>
      </trkpt>
      <trkpt lat="54.84502" lon="-5.80129">
        <ele>3.44</ele>
        <time>2021-03-20T20:22:17Z</time>
      </trkpt>
      <trkpt lat="54.84493" lon="-5.80132">
        <ele>3.43</ele>
        <time>2021-03-20T20:22:20Z</time>
      </trkpt>
      <trkpt lat="54.84483" lon="-5.8014">
        <ele>3.61</ele>
        <time>2021-03-20T20:22:23Z</time>
      </trkpt>
      <trkpt lat="54.84476" lon="-5.8015">
        <ele>3.87</ele>
        <time>2021-03-20T20:22:26Z</time>
      </trkpt>
      <trkpt lat="54.84467" lon="-5.80173">
        <ele>3.82</ele>
        <time>2021-03-20T20:22:29Z</time>
      </trkpt>
      <trkpt lat="54.84463" lon="-5.80202">
        <ele>3.34</ele>
        <time>2021-03-20T20:22:32Z</time>
      </trkpt>
      <trkpt lat="54.84464" lon="-5.80218">
        <ele>3.31</ele>
        <time>2021-03-20T20:22:35Z</time>
      </trkpt>
      <trkpt lat="54.8447" lon="-5.80244">
        <ele>3.1</ele>
        <time>2021-03-20T20:22:39Z</time>
      </trkpt>
      <trkpt lat="54.84481" lon="-5.80265">
        <ele>3</ele>
        <time>2021-03-20T20:22:42Z</time>
      </trkpt>
      <trkpt lat="54.84488" lon="-5.80273">
        <ele>3</ele>
        <time>2021-03-20T20:22:45Z</time>
      </trkpt>
      <trkpt lat="54.84494" lon="-5.80286">
        <ele>2.7</ele>
        <time>2021-03-20T20:22:48Z</time>
      </trkpt>
      <trkpt lat="54.84502" lon="-5.80313">
        <ele>2.06</ele>
        <time>2021-03-20T20:22:51Z</time>
      </trkpt>
      <trkpt lat="54.84504" lon="-5.80328">
        <ele>2.13</ele>
        <time>2021-03-20T20:22:54Z</time>
      </trkpt>
      <trkpt lat="54.84506" lon="-5.80386">
        <ele>2.2</ele>
        <time>2021-03-20T20:22:57Z</time>
      </trkpt>
      <trkpt lat="54.84522" lon="-5.8103">
        <ele>3.59</ele>
        <time>2021-03-20T20:23:00Z</time>
      </trkpt>
      <trkpt lat="54.8452" lon="-5.81062">
        <ele>3.51</ele>
        <time>2021-03-20T20:23:03Z</time>
      </trkpt>
      <trkpt lat="54.84517" lon="-5.81078">
        <ele>3.54</ele>
        <time>2021-03-20T20:23:06Z</time>
      </trkpt>
      <trkpt lat="54.84511" lon="-5.81091">
        <ele>3.54</ele>
        <time>2021-03-20T20:23:09Z</time>
      </trkpt>
      <trkpt lat="54.84503" lon="-5.81121">
        <ele>3.66</ele>
        <time>2021-03-20T20:23:12Z</time>
      </trkpt>
      <trkpt lat="54.84501" lon="-5.81138">
        <ele>3.03</ele>
        <time>2021-03-20T20:23:15Z</time>
      </trkpt>
      <trkpt lat="54.84505" lon="-5.81171">
        <ele>2.85</ele>
        <time>2021-03-20T20:23:18Z</time>
      </trkpt>
      <trkpt lat="54.84508" lon="-5.81184">
        <ele>2.36</ele>
        <time>2021-03-20T20:23:22Z</time>
      </trkpt>
      <trkpt lat="54.84518" lon="-5.81206">
        <ele>1.6</ele>
        <time>2021-03-20T20:23:25Z</time>
      </trkpt>
      <trkpt lat="54.84531" lon="-5.81222">
        <ele>1.12</ele>
        <time>2021-03-20T20:23:28Z</time>
      </trkpt>
      <trkpt lat="54.84545" lon="-5.8123">
        <ele>1.45</ele>
        <time>2021-03-20T20:23:31Z</time>
      </trkpt>
      <trkpt lat="54.84576" lon="-5.81267">
        <ele>1</ele>
        <time>2021-03-20T20:23:34Z</time>
      </trkpt>
      <trkpt lat="54.84819" lon="-5.81681">
        <ele>4.99</ele>
        <time>2021-03-20T20:23:37Z</time>
      </trkpt>
      <trkpt lat="54.84843" lon="-5.81709">
        <ele>5.66</ele>
        <time>2021-03-20T20:23:38Z</time>
      </trkpt>
      <trkpt lat="54.84849" lon="-5.81712">
        <ele>6.14</ele>
        <time>2021-03-20T20:23:39Z</time>
      </trkpt>
      <trkpt lat="54.84857" lon="-5.81713">
        <ele>6.7</ele>
        <time>2021-03-20T20:23:40Z</time>
      </trkpt>
      <trkpt lat="54.8464" lon="-5.81344">
        <ele>3.51</ele>
        <time>2021-03-20T20:23:58Z</time>
      </trkpt>
      <trkpt lat="54.8464" lon="-5.81344">
        <ele>3.51</ele>
        <time>2021-03-20T20:23:58Z</time>
      </trkpt>
      <trkpt lat="54.84609" lon="-5.81291">
        <ele>1.48</ele>
        <time>2021-03-20T20:23:59Z</time>
      </trkpt>
      <trkpt lat="54.84595" lon="-5.81251">
        <ele>1</ele>
        <time>2021-03-20T20:24:01Z</time>
      </trkpt>
      <trkpt lat="54.84593" lon="-5.81219">
        <ele>1.64</ele>
        <time>2021-03-20T20:24:02Z</time>
      </trkpt>
      <trkpt lat="54.84596" lon="-5.81192">
        <ele>1.55</ele>
        <time>2021-03-20T20:24:04Z</time>
      </trkpt>
      <trkpt lat="54.84603" lon="-5.81163">
        <ele>1.28</ele>
        <time>2021-03-20T20:24:07Z</time>
      </trkpt>
      <trkpt lat="54.84605" lon="-5.81145">
        <ele>1.23</ele>
        <time>2021-03-20T20:24:11Z</time>
      </trkpt>
      <trkpt lat="54.84604" lon="-5.81126">
        <ele>1.6</ele>
        <time>2021-03-20T20:24:15Z</time>
      </trkpt>
      <trkpt lat="54.84596" lon="-5.8109">
        <ele>2.75</ele>
        <time>2021-03-20T20:24:19Z</time>
      </trkpt>
      <trkpt lat="54.84586" lon="-5.81073">
        <ele>3.41</ele>
        <time>2021-03-20T20:24:23Z</time>
      </trkpt>
      <trkpt lat="54.84579" lon="-5.81064">
        <ele>3.73</ele>
        <time>2021-03-20T20:24:27Z</time>
      </trkpt>
      <trkpt lat="54.84566" lon="-5.81055">
        <ele>4</ele>
        <time>2021-03-20T20:24:31Z</time>
      </trkpt>
      <trkpt lat="54.84559" lon="-5.81052">
        <ele>4</ele>
        <time>2021-03-20T20:24:35Z</time>
      </trkpt>
      <trkpt lat="54.84541" lon="-5.81055">
        <ele>4</ele>
        <time>2021-03-20T20:24:39Z</time>
      </trkpt>
      <trkpt lat="54.84533" lon="-5.8106">
        <ele>4</ele>
        <time>2021-03-20T20:24:43Z</time>
      </trkpt>
      <trkpt lat="54.84517" lon="-5.81078">
        <ele>3.54</ele>
        <time>2021-03-20T20:24:46Z</time>
      </trkpt>
      <trkpt lat="54.84511" lon="-5.81091">
        <ele>3.54</ele>
        <time>2021-03-20T20:24:50Z</time>
      </trkpt>
      <trkpt lat="54.84503" lon="-5.81121">
        <ele>3.66</ele>
        <time>2021-03-20T20:24:54Z</time>
      </trkpt>
      <trkpt lat="54.84501" lon="-5.81138">
        <ele>3.03</ele>
        <time>2021-03-20T20:24:58Z</time>
      </trkpt>
      <trkpt lat="54.84505" lon="-5.81171">
        <ele>2.85</ele>
        <time>2021-03-20T20:25:02Z</time>
      </trkpt>
      <trkpt lat="54.84508" lon="-5.81184">
        <ele>2.36</ele>
        <time>2021-03-20T20:25:06Z</time>
      </trkpt>
      <trkpt lat="54.84518" lon="-5.81206">
        <ele>1.6</ele>
        <time>2021-03-20T20:25:10Z</time>
      </trkpt>
      <trkpt lat="54.84531" lon="-5.81222">
        <ele>1.12</ele>
        <time>2021-03-20T20:25:14Z</time>
      </trkpt>
      <trkpt lat="54.84545" lon="-5.8123">
        <ele>1.45</ele>
        <time>2021-03-20T20:25:18Z</time>
      </trkpt>
      <trkpt lat="54.84576" lon="-5.81267">
        <ele>1</ele>
        <time>2021-03-20T20:25:21Z</time>
      </trkpt>
      <trkpt lat="54.84914" lon="-5.81843">
        <ele>6.55</ele>
        <time>2021-03-20T20:25:25Z</time>
      </trkpt>
      <trkpt lat="54.84931" lon="-5.81878">
        <ele>7.05</ele>
        <time>2021-03-20T20:25:29Z</time>
      </trkpt>
      <trkpt lat="54.84955" lon="-5.8194">
        <ele>5.87</ele>
        <time>2021-03-20T20:25:33Z</time>
      </trkpt>
      <trkpt lat="54.8497" lon="-5.82009">
        <ele>5.55</ele>
        <time>2021-03-20T20:25:37Z</time>
      </trkpt>
      <trkpt lat="54.84979" lon="-5.82072">
        <ele>5.83</ele>
        <time>2021-03-20T20:25:41Z</time>
      </trkpt>
      <trkpt lat="54.85008" lon="-5.82447">
        <ele>11.93</ele>
        <time>2021-03-20T20:25:45Z</time>
      </trkpt>
      <trkpt lat="54.85014" lon="-5.82494">
        <ele>11.08</ele>
        <time>2021-03-20T20:25:49Z</time>
      </trkpt>
      <trkpt lat="54.85023" lon="-5.82537">
        <ele>11.67</ele>
        <time>2021-03-20T20:25:53Z</time>
      </trkpt>
      <trkpt lat="54.8508" lon="-5.82693">
        <ele>12.88</ele>
        <time>2021-03-20T20:25:57Z</time>
      </trkpt>
      <trkpt lat="54.85091" lon="-5.8273">
        <ele>14.24</ele>
        <time>2021-03-20T20:26:00Z</time>
      </trkpt>
      <trkpt lat="54.85095" lon="-5.82746">
        <ele>15.45</ele>
        <time>2021-03-20T20:26:04Z</time>
      </trkpt>
      <trkpt lat="54.851" lon="-5.82801">
        <ele>19.03</ele>
        <time>2021-03-20T20:26:08Z</time>
      </trkpt>
      <trkpt lat="54.85099" lon="-5.82844">
        <ele>20.43</ele>
        <time>2021-03-20T20:26:12Z</time>
      </trkpt>
      <trkpt lat="54.85089" lon="-5.83032">
        <ele>25.3</ele>
        <time>2021-03-20T20:26:16Z</time>
      </trkpt>
      <trkpt lat="54.85081" lon="-5.83099">
        <ele>27.16</ele>
        <time>2021-03-20T20:26:20Z</time>
      </trkpt>
      <trkpt lat="54.85004" lon="-5.83509">
        <ele>34.51</ele>
        <time>2021-03-20T20:26:24Z</time>
      </trkpt>
      <trkpt lat="54.84967" lon="-5.83666">
        <ele>39.25</ele>
        <time>2021-03-20T20:26:28Z</time>
      </trkpt>
      <trkpt lat="54.84953" lon="-5.83714">
        <ele>39.31</ele>
        <time>2021-03-20T20:26:32Z</time>
      </trkpt>
      <trkpt lat="54.84939" lon="-5.8376">
        <ele>39.74</ele>
        <time>2021-03-20T20:26:35Z</time>
      </trkpt>
      <trkpt lat="54.84904" lon="-5.83853">
        <ele>43.69</ele>
        <time>2021-03-20T20:26:39Z</time>
      </trkpt>
      <trkpt lat="54.84705" lon="-5.8433">
        <ele>53.92</ele>
        <time>2021-03-20T20:26:43Z</time>
      </trkpt>
      <trkpt lat="54.84671" lon="-5.84406">
        <ele>56.17</ele>
        <time>2021-03-20T20:26:47Z</time>
      </trkpt>
      <trkpt lat="54.84628" lon="-5.84484">
        <ele>58.88</ele>
        <time>2021-03-20T20:26:51Z</time>
      </trkpt>
      <trkpt lat="54.84578" lon="-5.84563">
        <ele>60.53</ele>
        <time>2021-03-20T20:26:55Z</time>
      </trkpt>
      <trkpt lat="54.84419" lon="-5.84756">
        <ele>65.21</ele>
        <time>2021-03-20T20:26:59Z</time>
      </trkpt>
      <trkpt lat="54.8439" lon="-5.84795">
        <ele>67.93</ele>
        <time>2021-03-20T20:27:03Z</time>
      </trkpt>
      <trkpt lat="54.84356" lon="-5.84845">
        <ele>68.43</ele>
        <time>2021-03-20T20:27:07Z</time>
      </trkpt>
      <trkpt lat="54.84329" lon="-5.84894">
        <ele>67.17</ele>
        <time>2021-03-20T20:27:11Z</time>
      </trkpt>
      <trkpt lat="54.84298" lon="-5.84952">
        <ele>69.59</ele>
        <time>2021-03-20T20:27:14Z</time>
      </trkpt>
      <trkpt lat="54.84217" lon="-5.8513">
        <ele>70.13</ele>
        <time>2021-03-20T20:27:18Z</time>
      </trkpt>
      <trkpt lat="54.83954" lon="-5.85708">
        <ele>83.97</ele>
        <time>2021-03-20T20:27:22Z</time>
      </trkpt>
      <trkpt lat="54.83894" lon="-5.85848">
        <ele>85.82</ele>
        <time>2021-03-20T20:27:26Z</time>
      </trkpt>
      <trkpt lat="54.8386" lon="-5.85915">
        <ele>86.87</ele>
        <time>2021-03-20T20:27:30Z</time>
      </trkpt>
      <trkpt lat="54.83843" lon="-5.85939">
        <ele>86.86</ele>
        <time>2021-03-20T20:27:34Z</time>
      </trkpt>
      <trkpt lat="54.83835" lon="-5.85941">
        <ele>86.9</ele>
        <time>2021-03-20T20:27:38Z</time>
      </trkpt>
      <trkpt lat="54.83827" lon="-5.85936">
        <ele>86.75</ele>
        <time>2021-03-20T20:27:42Z</time>
      </trkpt>
      <trkpt lat="54.83818" lon="-5.85935">
        <ele>86.84</ele>
        <time>2021-03-20T20:27:46Z</time>
      </trkpt>
      <trkpt lat="54.83809" lon="-5.85939">
        <ele>86.97</ele>
        <time>2021-03-20T20:27:50Z</time>
      </trkpt>
      <trkpt lat="54.83802" lon="-5.85948">
        <ele>87.26</ele>
        <time>2021-03-20T20:27:54Z</time>
      </trkpt>
      <trkpt lat="54.83798" lon="-5.85961">
        <ele>87.86</ele>
        <time>2021-03-20T20:27:58Z</time>
      </trkpt>
      <trkpt lat="54.83795" lon="-5.85982">
        <ele>88.51</ele>
        <time>2021-03-20T20:28:02Z</time>
      </trkpt>
      <trkpt lat="54.83795" lon="-5.85993">
        <ele>88.64</ele>
        <time>2021-03-20T20:28:06Z</time>
      </trkpt>
      <trkpt lat="54.83793" lon="-5.86016">
        <ele>89.47</ele>
        <time>2021-03-20T20:28:10Z</time>
      </trkpt>
      <trkpt lat="54.83776" lon="-5.86069">
        <ele>92.06</ele>
        <time>2021-03-20T20:28:14Z</time>
      </trkpt>
      <trkpt lat="54.83703" lon="-5.8626">
        <ele>90.2</ele>
        <time>2021-03-20T20:28:18Z</time>
      </trkpt>
      <trkpt lat="54.83641" lon="-5.86401">
        <ele>90.44</ele>
        <time>2021-03-20T20:28:22Z</time>
      </trkpt>
      <trkpt lat="54.83498" lon="-5.86716">
        <ele>88</ele>
        <time>2021-03-20T20:28:26Z</time>
      </trkpt>
      <trkpt lat="54.83275" lon="-5.87225">
        <ele>92.21</ele>
        <time>2021-03-20T20:28:30Z</time>
      </trkpt>
      <trkpt lat="54.83266" lon="-5.87235">
        <ele>92.88</ele>
        <time>2021-03-20T20:28:34Z</time>
      </trkpt>
      <trkpt lat="54.83254" lon="-5.87244">
        <ele>93.61</ele>
        <time>2021-03-20T20:28:38Z</time>
      </trkpt>
      <trkpt lat="54.83242" lon="-5.87244">
        <ele>94.35</ele>
        <time>2021-03-20T20:28:44Z</time>
      </trkpt>
      <trkpt lat="54.8323" lon="-5.87251">
        <ele>95.42</ele>
        <time>2021-03-20T20:28:50Z</time>
      </trkpt>
      <trkpt lat="54.83221" lon="-5.87263">
        <ele>96.1</ele>
        <time>2021-03-20T20:28:55Z</time>
      </trkpt>
      <trkpt lat="54.83214" lon="-5.87279">
        <ele>96.56</ele>
        <time>2021-03-20T20:29:01Z</time>
      </trkpt>
      <trkpt lat="54.8321" lon="-5.87298">
        <ele>95.84</ele>
        <time>2021-03-20T20:29:07Z</time>
      </trkpt>
      <trkpt lat="54.83209" lon="-5.87318">
        <ele>95.26</ele>
        <time>2021-03-20T20:29:12Z</time>
      </trkpt>
      <trkpt lat="54.83212" lon="-5.87337">
        <ele>95.08</ele>
        <time>2021-03-20T20:29:18Z</time>
      </trkpt>
      <trkpt lat="54.83211" lon="-5.87356">
        <ele>95.5</ele>
        <time>2021-03-20T20:29:24Z</time>
      </trkpt>
      <trkpt lat="54.83207" lon="-5.87379">
        <ele>95.76</ele>
        <time>2021-03-20T20:29:29Z</time>
      </trkpt>
      <trkpt lat="54.83201" lon="-5.87399">
        <ele>95.82</ele>
        <time>2021-03-20T20:29:35Z</time>
      </trkpt>
      <trkpt lat="54.83154" lon="-5.87511">
        <ele>96.66</ele>
        <time>2021-03-20T20:29:41Z</time>
      </trkpt>
      <trkpt lat="54.83065" lon="-5.87707">
        <ele>99.67</ele>
        <time>2021-03-20T20:29:46Z</time>
      </trkpt>
      <trkpt lat="54.82982" lon="-5.8788">
        <ele>100.12</ele>
        <time>2021-03-20T20:29:52Z</time>
      </trkpt>
      <trkpt lat="54.8284" lon="-5.88162">
        <ele>98.43</ele>
        <time>2021-03-20T20:29:58Z</time>
      </trkpt>
      <trkpt lat="54.82812" lon="-5.88214">
        <ele>99.69</ele>
        <time>2021-03-20T20:30:03Z</time>
      </trkpt>
      <trkpt lat="54.82702" lon="-5.88438">
        <ele>99.58</ele>
        <time>2021-03-20T20:30:09Z</time>
      </trkpt>
      <trkpt lat="54.82578" lon="-5.8868">
        <ele>95.33</ele>
        <time>2021-03-20T20:30:14Z</time>
      </trkpt>
      <trkpt lat="54.82531" lon="-5.88768">
        <ele>94.1</ele>
        <time>2021-03-20T20:30:20Z</time>
      </trkpt>
      <trkpt lat="54.82405" lon="-5.88942">
        <ele>96.68</ele>
        <time>2021-03-20T20:30:26Z</time>
      </trkpt>
      <trkpt lat="54.82331" lon="-5.89026">
        <ele>98.13</ele>
        <time>2021-03-20T20:30:31Z</time>
      </trkpt>
      <trkpt lat="54.82171" lon="-5.89182">
        <ele>103.9</ele>
        <time>2021-03-20T20:30:37Z</time>
      </trkpt>
      <trkpt lat="54.81764" lon="-5.89572">
        <ele>107.1</ele>
        <time>2021-03-20T20:30:43Z</time>
      </trkpt>
      <trkpt lat="54.81631" lon="-5.89705">
        <ele>108.08</ele>
        <time>2021-03-20T20:30:48Z</time>
      </trkpt>
      <trkpt lat="54.81525" lon="-5.89819">
        <ele>108.4</ele>
        <time>2021-03-20T20:30:54Z</time>
      </trkpt>
      <trkpt lat="54.81495" lon="-5.89857">
        <ele>109.5</ele>
        <time>2021-03-20T20:31:00Z</time>
      </trkpt>
      <trkpt lat="54.8142" lon="-5.89971">
        <ele>113.99</ele>
        <time>2021-03-20T20:31:05Z</time>
      </trkpt>
      <trkpt lat="54.81366" lon="-5.90063">
        <ele>113</ele>
        <time>2021-03-20T20:31:11Z</time>
      </trkpt>
      <trkpt lat="54.8132" lon="-5.90158">
        <ele>112</ele>
        <time>2021-03-20T20:31:17Z</time>
      </trkpt>
      <trkpt lat="54.81254" lon="-5.90299">
        <ele>114.61</ele>
        <time>2021-03-20T20:31:22Z</time>
      </trkpt>
      <trkpt lat="54.81213" lon="-5.90381">
        <ele>118.36</ele>
        <time>2021-03-20T20:31:28Z</time>
      </trkpt>
      <trkpt lat="54.81146" lon="-5.90502">
        <ele>125.07</ele>
        <time>2021-03-20T20:31:34Z</time>
      </trkpt>
      <trkpt lat="54.81083" lon="-5.90607">
        <ele>126.84</ele>
        <time>2021-03-20T20:31:39Z</time>
      </trkpt>
      <trkpt lat="54.80927" lon="-5.90842">
        <ele>124.06</ele>
        <time>2021-03-20T20:31:45Z</time>
      </trkpt>
      <trkpt lat="54.80818" lon="-5.91028">
        <ele>121.44</ele>
        <time>2021-03-20T20:31:51Z</time>
      </trkpt>
      <trkpt lat="54.80756" lon="-5.91145">
        <ele>120.58</ele>
        <time>2021-03-20T20:31:56Z</time>
      </trkpt>
      <trkpt lat="54.80722" lon="-5.91216">
        <ele>120.02</ele>
        <time>2021-03-20T20:32:02Z</time>
      </trkpt>
      <trkpt lat="54.80657" lon="-5.91352">
        <ele>123.34</ele>
        <time>2021-03-20T20:32:08Z</time>
      </trkpt>
      <trkpt lat="54.80605" lon="-5.91474">
        <ele>123.24</ele>
        <time>2021-03-20T20:32:13Z</time>
      </trkpt>
      <trkpt lat="54.80564" lon="-5.91559">
        <ele>124.62</ele>
        <time>2021-03-20T20:32:19Z</time>
      </trkpt>
      <trkpt lat="54.80498" lon="-5.91682">
        <ele>123.5</ele>
        <time>2021-03-20T20:32:25Z</time>
      </trkpt>
      <trkpt lat="54.80396" lon="-5.9185">
        <ele>123.11</ele>
        <time>2021-03-20T20:32:30Z</time>
      </trkpt>
      <trkpt lat="54.80083" lon="-5.92323">
        <ele>125.62</ele>
        <time>2021-03-20T20:32:36Z</time>
      </trkpt>
      <trkpt lat="54.79814" lon="-5.92721">
        <ele>133.69</ele>
        <time>2021-03-20T20:32:42Z</time>
      </trkpt>
      <trkpt lat="54.79733" lon="-5.9283">
        <ele>135.95</ele>
        <time>2021-03-20T20:32:47Z</time>
      </trkpt>
      <trkpt lat="54.79682" lon="-5.92903">
        <ele>136.85</ele>
        <time>2021-03-20T20:32:53Z</time>
      </trkpt>
      <trkpt lat="54.79621" lon="-5.93004">
        <ele>136.15</ele>
        <time>2021-03-20T20:32:59Z</time>
      </trkpt>
      <trkpt lat="54.79497" lon="-5.93231">
        <ele>139.56</ele>
        <time>2021-03-20T20:33:04Z</time>
      </trkpt>
      <trkpt lat="54.79445" lon="-5.93315">
        <ele>135.65</ele>
        <time>2021-03-20T20:33:10Z</time>
      </trkpt>
      <trkpt lat="54.79379" lon="-5.93413">
        <ele>135.5</ele>
        <time>2021-03-20T20:33:16Z</time>
      </trkpt>
      <trkpt lat="54.79308" lon="-5.93502">
        <ele>134.78</ele>
        <time>2021-03-20T20:33:21Z</time>
      </trkpt>
      <trkpt lat="54.79256" lon="-5.9356">
        <ele>133.6</ele>
        <time>2021-03-20T20:33:27Z</time>
      </trkpt>
      <trkpt lat="54.79197" lon="-5.93618">
        <ele>134.57</ele>
        <time>2021-03-20T20:33:33Z</time>
      </trkpt>
      <trkpt lat="54.791" lon="-5.937">
        <ele>133.88</ele>
        <time>2021-03-20T20:33:38Z</time>
      </trkpt>
      <trkpt lat="54.78888" lon="-5.9385">
        <ele>135.04</ele>
        <time>2021-03-20T20:33:44Z</time>
      </trkpt>
      <trkpt lat="54.78775" lon="-5.93957">
        <ele>138.11</ele>
        <time>2021-03-20T20:33:50Z</time>
      </trkpt>
      <trkpt lat="54.78659" lon="-5.94097">
        <ele>137.87</ele>
        <time>2021-03-20T20:33:55Z</time>
      </trkpt>
      <trkpt lat="54.78578" lon="-5.94214">
        <ele>138.18</ele>
        <time>2021-03-20T20:34:01Z</time>
      </trkpt>
      <trkpt lat="54.78532" lon="-5.94292">
        <ele>138.33</ele>
        <time>2021-03-20T20:34:07Z</time>
      </trkpt>
      <trkpt lat="54.78484" lon="-5.94382">
        <ele>138.42</ele>
        <time>2021-03-20T20:34:12Z</time>
      </trkpt>
      <trkpt lat="54.78432" lon="-5.94486">
        <ele>136.1</ele>
        <time>2021-03-20T20:34:18Z</time>
      </trkpt>
      <trkpt lat="54.784" lon="-5.94561">
        <ele>133.32</ele>
        <time>2021-03-20T20:34:23Z</time>
      </trkpt>
      <trkpt lat="54.7834" lon="-5.94718">
        <ele>131</ele>
        <time>2021-03-20T20:34:29Z</time>
      </trkpt>
      <trkpt lat="54.7828" lon="-5.94914">
        <ele>127.17</ele>
        <time>2021-03-20T20:34:35Z</time>
      </trkpt>
      <trkpt lat="54.78256" lon="-5.9501">
        <ele>125.12</ele>
        <time>2021-03-20T20:34:40Z</time>
      </trkpt>
      <trkpt lat="54.78199" lon="-5.95248">
        <ele>119.86</ele>
        <time>2021-03-20T20:34:46Z</time>
      </trkpt>
      <trkpt lat="54.78173" lon="-5.95346">
        <ele>119.65</ele>
        <time>2021-03-20T20:34:52Z</time>
      </trkpt>
      <trkpt lat="54.78149" lon="-5.95418">
        <ele>116.18</ele>
        <time>2021-03-20T20:34:57Z</time>
      </trkpt>
      <trkpt lat="54.78093" lon="-5.95571">
        <ele>109.43</ele>
        <time>2021-03-20T20:35:03Z</time>
      </trkpt>
      <trkpt lat="54.78042" lon="-5.95688">
        <ele>107.13</ele>
        <time>2021-03-20T20:35:09Z</time>
      </trkpt>
      <trkpt lat="54.77987" lon="-5.95791">
        <ele>104.99</ele>
        <time>2021-03-20T20:35:14Z</time>
      </trkpt>
      <trkpt lat="54.77956" lon="-5.95848">
        <ele>105.07</ele>
        <time>2021-03-20T20:35:20Z</time>
      </trkpt>
      <trkpt lat="54.77922" lon="-5.95905">
        <ele>106.07</ele>
        <time>2021-03-20T20:35:26Z</time>
      </trkpt>
      <trkpt lat="54.77856" lon="-5.95996">
        <ele>109.36</ele>
        <time>2021-03-20T20:35:31Z</time>
      </trkpt>
      <trkpt lat="54.77816" lon="-5.96046">
        <ele>108.99</ele>
        <time>2021-03-20T20:35:37Z</time>
      </trkpt>
      <trkpt lat="54.77764" lon="-5.96103">
        <ele>103.96</ele>
        <time>2021-03-20T20:35:43Z</time>
      </trkpt>
      <trkpt lat="54.77713" lon="-5.9615">
        <ele>99.2</ele>
        <time>2021-03-20T20:35:48Z</time>
      </trkpt>
      <trkpt lat="54.77618" lon="-5.96224">
        <ele>95.94</ele>
        <time>2021-03-20T20:35:54Z</time>
      </trkpt>
      <trkpt lat="54.77575" lon="-5.9625">
        <ele>95.01</ele>
        <time>2021-03-20T20:36:00Z</time>
      </trkpt>
      <trkpt lat="54.7753" lon="-5.96273">
        <ele>94.16</ele>
        <time>2021-03-20T20:36:05Z</time>
      </trkpt>
      <trkpt lat="54.77453" lon="-5.96308">
        <ele>92.56</ele>
        <time>2021-03-20T20:36:11Z</time>
      </trkpt>
      <trkpt lat="54.77361" lon="-5.96333">
        <ele>89</ele>
        <time>2021-03-20T20:36:17Z</time>
      </trkpt>
      <trkpt lat="54.77328" lon="-5.96339">
        <ele>90.32</ele>
        <time>2021-03-20T20:36:22Z</time>
      </trkpt>
      <trkpt lat="54.77261" lon="-5.96345">
        <ele>91.88</ele>
        <time>2021-03-20T20:36:28Z</time>
      </trkpt>
      <trkpt lat="54.77261" lon="-5.96345">
        <ele>91.88</ele>
        <time>2021-03-20T20:36:28Z</time>
      </trkpt>
      <trkpt lat="54.77158" lon="-5.96351">
        <ele>93.35</ele>
        <time>2021-03-20T20:36:38Z</time>
      </trkpt>
      <trkpt lat="54.76988" lon="-5.96319">
        <ele>96.51</ele>
        <time>2021-03-20T20:36:47Z</time>
      </trkpt>
      <trkpt lat="54.76944" lon="-5.96303">
        <ele>97.13</ele>
        <time>2021-03-20T20:36:57Z</time>
      </trkpt>
      <trkpt lat="54.76845" lon="-5.9626">
        <ele>102</ele>
        <time>2021-03-20T20:37:06Z</time>
      </trkpt>
      <trkpt lat="54.76775" lon="-5.96222">
        <ele>109.38</ele>
        <time>2021-03-20T20:37:16Z</time>
      </trkpt>
      <trkpt lat="54.76715" lon="-5.96184">
        <ele>114.27</ele>
        <time>2021-03-20T20:37:25Z</time>
      </trkpt>
      <trkpt lat="54.76536" lon="-5.96052">
        <ele>115</ele>
        <time>2021-03-20T20:37:35Z</time>
      </trkpt>
      <trkpt lat="54.76412" lon="-5.95986">
        <ele>119.76</ele>
        <time>2021-03-20T20:37:44Z</time>
      </trkpt>
      <trkpt lat="54.7627" lon="-5.95942">
        <ele>123.62</ele>
        <time>2021-03-20T20:37:54Z</time>
      </trkpt>
      <trkpt lat="54.76176" lon="-5.9593">
        <ele>123.68</ele>
        <time>2021-03-20T20:38:04Z</time>
      </trkpt>
      <trkpt lat="54.7603" lon="-5.9593">
        <ele>126.54</ele>
        <time>2021-03-20T20:38:13Z</time>
      </trkpt>
      <trkpt lat="54.75798" lon="-5.95941">
        <ele>132.71</ele>
        <time>2021-03-20T20:38:23Z</time>
      </trkpt>
      <trkpt lat="54.75614" lon="-5.95959">
        <ele>130.47</ele>
        <time>2021-03-20T20:38:32Z</time>
      </trkpt>
      <trkpt lat="54.75535" lon="-5.95963">
        <ele>129.33</ele>
        <time>2021-03-20T20:38:42Z</time>
      </trkpt>
      <trkpt lat="54.754" lon="-5.95976">
        <ele>123.77</ele>
        <time>2021-03-20T20:38:51Z</time>
      </trkpt>
      <trkpt lat="54.75233" lon="-5.96003">
        <ele>118.54</ele>
        <time>2021-03-20T20:39:01Z</time>
      </trkpt>
      <trkpt lat="54.74962" lon="-5.96059">
        <ele>120.14</ele>
        <time>2021-03-20T20:39:10Z</time>
      </trkpt>
      <trkpt lat="54.74315" lon="-5.96182">
        <ele>122.43</ele>
        <time>2021-03-20T20:39:20Z</time>
      </trkpt>
      <trkpt lat="54.74305" lon="-5.96162">
        <ele>123</ele>
        <time>2021-03-20T20:39:25Z</time>
      </trkpt>
      <trkpt lat="54.743" lon="-5.96137">
        <ele>123.05</ele>
        <time>2021-03-20T20:39:30Z</time>
      </trkpt>
      <trkpt lat="54.74296" lon="-5.96033">
        <ele>124.35</ele>
        <time>2021-03-20T20:39:35Z</time>
      </trkpt>
      <trkpt lat="54.74295" lon="-5.95978">
        <ele>125.37</ele>
        <time>2021-03-20T20:39:40Z</time>
      </trkpt>
      <trkpt lat="54.74299" lon="-5.95924">
        <ele>126.23</ele>
        <time>2021-03-20T20:39:45Z</time>
      </trkpt>
      <trkpt lat="54.74307" lon="-5.95858">
        <ele>127.14</ele>
        <time>2021-03-20T20:39:50Z</time>
      </trkpt>
      <trkpt lat="54.74316" lon="-5.95728">
        <ele>127.92</ele>
        <time>2021-03-20T20:39:55Z</time>
      </trkpt>
      <trkpt lat="54.74314" lon="-5.95706">
        <ele>128</ele>
        <time>2021-03-20T20:40:00Z</time>
      </trkpt>
      <trkpt lat="54.7431" lon="-5.95694">
        <ele>127.99</ele>
        <time>2021-03-20T20:40:05Z</time>
      </trkpt>
      <trkpt lat="54.73887" lon="-5.95057">
        <ele>153.96</ele>
        <time>2021-03-20T20:40:10Z</time>
      </trkpt>
      <trkpt lat="54.7381" lon="-5.94945">
        <ele>158</ele>
        <time>2021-03-20T20:40:15Z</time>
      </trkpt>
      <trkpt lat="54.7366" lon="-5.94758">
        <ele>162.16</ele>
        <time>2021-03-20T20:40:20Z</time>
      </trkpt>
      <trkpt lat="54.73625" lon="-5.94723">
        <ele>163.98</ele>
        <time>2021-03-20T20:40:25Z</time>
      </trkpt>
      <trkpt lat="54.73627" lon="-5.94717">
        <ele>164.09</ele>
        <time>2021-03-20T20:40:25Z</time>
      </trkpt>
      <trkpt lat="54.73341" lon="-5.94293">
        <ele>177.34</ele>
        <time>2021-03-20T20:40:32Z</time>
      </trkpt>
      <trkpt lat="54.73264" lon="-5.94193">
        <ele>177.46</ele>
        <time>2021-03-20T20:40:39Z</time>
      </trkpt>
      <trkpt lat="54.73251" lon="-5.94171">
        <ele>177.15</ele>
        <time>2021-03-20T20:40:46Z</time>
      </trkpt>
      <trkpt lat="54.7324" lon="-5.94138">
        <ele>179.41</ele>
        <time>2021-03-20T20:40:53Z</time>
      </trkpt>
      <trkpt lat="54.73203" lon="-5.94173">
        <ele>180.88</ele>
        <time>2021-03-20T20:41:10Z</time>
      </trkpt>
      <trkpt lat="54.72601" lon="-5.94715">
        <ele>176</ele>
        <time>2021-03-20T20:41:28Z</time>
      </trkpt>
      <trkpt lat="54.72187" lon="-5.95083">
        <ele>174.01</ele>
        <time>2021-03-20T20:41:45Z</time>
      </trkpt>
      <trkpt lat="54.71621" lon="-5.95593">
        <ele>160.03</ele>
        <time>2021-03-20T20:42:02Z</time>
      </trkpt>
      <trkpt lat="54.71567" lon="-5.95647">
        <ele>158.69</ele>
        <time>2021-03-20T20:42:19Z</time>
      </trkpt>
      <trkpt lat="54.71557" lon="-5.95666">
        <ele>158.02</ele>
        <time>2021-03-20T20:42:36Z</time>
      </trkpt>
      <trkpt lat="54.71534" lon="-5.95652">
        <ele>158.52</ele>
        <time>2021-03-20T20:42:47Z</time>
      </trkpt>
      <trkpt lat="54.71507" lon="-5.95642">
        <ele>158.88</ele>
        <time>2021-03-20T20:42:57Z</time>
      </trkpt>
      <trkpt lat="54.71138" lon="-5.95518">
        <ele>151.38</ele>
        <time>2021-03-20T20:43:07Z</time>
      </trkpt>
      <trkpt lat="54.70741" lon="-5.95378">
        <ele>138.07</ele>
        <time>2021-03-20T20:43:18Z</time>
      </trkpt>
      <trkpt lat="54.70615" lon="-5.95328">
        <ele>133.29</ele>
        <time>2021-03-20T20:43:28Z</time>
      </trkpt>
      <trkpt lat="54.70615" lon="-5.95355">
        <ele>132.51</ele>
        <time>2021-03-20T20:43:30Z</time>
      </trkpt>
      <trkpt lat="54.70629" lon="-5.95464">
        <ele>128.13</ele>
        <time>2021-03-20T20:43:32Z</time>
      </trkpt>
      <trkpt lat="54.70633" lon="-5.95549">
        <ele>125.04</ele>
        <time>2021-03-20T20:43:34Z</time>
      </trkpt>
      <trkpt lat="54.70629" lon="-5.95626">
        <ele>123.65</ele>
        <time>2021-03-20T20:43:36Z</time>
      </trkpt>
      <trkpt lat="54.70632" lon="-5.95704">
        <ele>123.74</ele>
        <time>2021-03-20T20:43:38Z</time>
      </trkpt>
      <trkpt lat="54.7063" lon="-5.95807">
        <ele>123</ele>
        <time>2021-03-20T20:43:40Z</time>
      </trkpt>
      <trkpt lat="54.70632" lon="-5.95826">
        <ele>123</ele>
        <time>2021-03-20T20:43:42Z</time>
      </trkpt>
      <trkpt lat="54.70642" lon="-5.9586">
        <ele>122.16</ele>
        <time>2021-03-20T20:43:44Z</time>
      </trkpt>
      <trkpt lat="54.70678" lon="-5.9595">
        <ele>120.19</ele>
        <time>2021-03-20T20:43:46Z</time>
      </trkpt>
      <trkpt lat="54.70686" lon="-5.9598">
        <ele>119.42</ele>
        <time>2021-03-20T20:43:48Z</time>
      </trkpt>
      <trkpt lat="54.70696" lon="-5.96048">
        <ele>118.08</ele>
        <time>2021-03-20T20:43:50Z</time>
      </trkpt>
      <trkpt lat="54.70703" lon="-5.96067">
        <ele>118.7</ele>
        <time>2021-03-20T20:43:52Z</time>
      </trkpt>
      <trkpt lat="54.70711" lon="-5.96084">
        <ele>119.6</ele>
        <time>2021-03-20T20:43:54Z</time>
      </trkpt>
      <trkpt lat="54.70733" lon="-5.96121">
        <ele>120.59</ele>
        <time>2021-03-20T20:43:56Z</time>
      </trkpt>
      <trkpt lat="54.70763" lon="-5.96162">
        <ele>121</ele>
        <time>2021-03-20T20:43:58Z</time>
      </trkpt>
      <trkpt lat="54.70783" lon="-5.96224">
        <ele>121.07</ele>
        <time>2021-03-20T20:44:00Z</time>
      </trkpt>
      <trkpt lat="54.70788" lon="-5.96254">
        <ele>122</ele>
        <time>2021-03-20T20:44:02Z</time>
      </trkpt>
      <trkpt lat="54.70802" lon="-5.9636">
        <ele>123.11</ele>
        <time>2021-03-20T20:44:04Z</time>
      </trkpt>
      <trkpt lat="54.70792" lon="-5.96356">
        <ele>123.28</ele>
        <time>2021-03-20T20:44:12Z</time>
      </trkpt>
      <trkpt lat="54.70417" lon="-5.96303">
        <ele>109.11</ele>
        <time>2021-03-20T20:44:20Z</time>
      </trkpt>
      <trkpt lat="54.70251" lon="-5.9628">
        <ele>103.02</ele>
        <time>2021-03-20T20:44:28Z</time>
      </trkpt>
      <trkpt lat="54.70212" lon="-5.96277">
        <ele>101.61</ele>
        <time>2021-03-20T20:44:36Z</time>
      </trkpt>
      <trkpt lat="54.70316" lon="-5.96573">
        <ele>102.73</ele>
        <time>2021-03-20T20:44:37Z</time>
      </trkpt>
      <trkpt lat="54.70338" lon="-5.9663">
        <ele>101.47</ele>
        <time>2021-03-20T20:44:39Z</time>
      </trkpt>
      <trkpt lat="54.7035" lon="-5.96654">
        <ele>101.58</ele>
        <time>2021-03-20T20:44:41Z</time>
      </trkpt>
      <trkpt lat="54.7038" lon="-5.96699">
        <ele>102.69</ele>
        <time>2021-03-20T20:44:42Z</time>
      </trkpt>
      <trkpt lat="54.70398" lon="-5.96717">
        <ele>103.06</ele>
        <time>2021-03-20T20:44:44Z</time>
      </trkpt>
      <trkpt lat="54.70428" lon="-5.9674">
        <ele>102.38</ele>
        <time>2021-03-20T20:44:46Z</time>
      </trkpt>
      <trkpt lat="54.70445" lon="-5.96748">
        <ele>102.1</ele>
        <time>2021-03-20T20:44:47Z</time>
      </trkpt>
      <trkpt lat="54.70459" lon="-5.96759">
        <ele>102.5</ele>
        <time>2021-03-20T20:44:49Z</time>
      </trkpt>
      <trkpt lat="54.7047" lon="-5.96777">
        <ele>102.9</ele>
        <time>2021-03-20T20:44:51Z</time>
      </trkpt>
      <trkpt lat="54.70471" lon="-5.96799">
        <ele>102.17</ele>
        <time>2021-03-20T20:44:52Z</time>
      </trkpt>
      <trkpt lat="54.70468" lon="-5.96811">
        <ele>101.86</ele>
        <time>2021-03-20T20:44:54Z</time>
      </trkpt>
      <trkpt lat="54.70464" lon="-5.96824">
        <ele>101.69</ele>
        <time>2021-03-20T20:44:55Z</time>
      </trkpt>
      <trkpt lat="54.70459" lon="-5.96833">
        <ele>101.53</ele>
        <time>2021-03-20T20:44:59Z</time>
      </trkpt>
      <trkpt lat="54.70454" lon="-5.96857">
        <ele>101.61</ele>
        <time>2021-03-20T20:45:03Z</time>
      </trkpt>
      <trkpt lat="54.70454" lon="-5.9687">
        <ele>101.67</ele>
        <time>2021-03-20T20:45:06Z</time>
      </trkpt>
      <trkpt lat="54.70474" lon="-5.9694">
        <ele>103.07</ele>
        <time>2021-03-20T20:45:10Z</time>
      </trkpt>
      <trkpt lat="54.70481" lon="-5.96972">
        <ele>104</ele>
        <time>2021-03-20T20:45:13Z</time>
      </trkpt>
      <trkpt lat="54.70484" lon="-5.97018">
        <ele>103.34</ele>
        <time>2021-03-20T20:45:17Z</time>
      </trkpt>
      <trkpt lat="54.70486" lon="-5.97039">
        <ele>103</ele>
        <time>2021-03-20T20:45:20Z</time>
      </trkpt>
      <trkpt lat="54.70491" lon="-5.97057">
        <ele>103</ele>
        <time>2021-03-20T20:45:24Z</time>
      </trkpt>
      <trkpt lat="54.70541" lon="-5.97198">
        <ele>107.47</ele>
        <time>2021-03-20T20:45:27Z</time>
      </trkpt>
      <trkpt lat="54.70697" lon="-5.97688">
        <ele>106.21</ele>
        <time>2021-03-20T20:45:31Z</time>
      </trkpt>
      <trkpt lat="54.70752" lon="-5.97834">
        <ele>106.06</ele>
        <time>2021-03-20T20:45:35Z</time>
      </trkpt>
      <trkpt lat="54.70806" lon="-5.97969">
        <ele>105.14</ele>
        <time>2021-03-20T20:45:38Z</time>
      </trkpt>
      <trkpt lat="54.70844" lon="-5.981">
        <ele>106.16</ele>
        <time>2021-03-20T20:45:42Z</time>
      </trkpt>
      <trkpt lat="54.70879" lon="-5.98239">
        <ele>108.43</ele>
        <time>2021-03-20T20:45:45Z</time>
      </trkpt>
      <trkpt lat="54.70908" lon="-5.98342">
        <ele>109.39</ele>
        <time>2021-03-20T20:45:49Z</time>
      </trkpt>
      <trkpt lat="54.70943" lon="-5.98444">
        <ele>108.97</ele>
        <time>2021-03-20T20:45:52Z</time>
      </trkpt>
      <trkpt lat="54.71085" lon="-5.98769">
        <ele>112.67</ele>
        <time>2021-03-20T20:45:56Z</time>
      </trkpt>
      <trkpt lat="54.70956" lon="-5.98842">
        <ele>110.09</ele>
        <time>2021-03-20T20:46:11Z</time>
      </trkpt>
      <trkpt lat="54.71029" lon="-5.99424">
        <ele>105</ele>
        <time>2021-03-20T20:46:21Z</time>
      </trkpt>
      <trkpt lat="54.71031" lon="-5.9946">
        <ele>105</ele>
        <time>2021-03-20T20:46:31Z</time>
      </trkpt>
      <trkpt lat="54.7103" lon="-5.99478">
        <ele>105</ele>
        <time>2021-03-20T20:46:40Z</time>
      </trkpt>
      <trkpt lat="54.71026" lon="-5.99507">
        <ele>105</ele>
        <time>2021-03-20T20:46:50Z</time>
      </trkpt>
      <trkpt lat="54.71017" lon="-5.99533">
        <ele>105</ele>
        <time>2021-03-20T20:46:59Z</time>
      </trkpt>
      <trkpt lat="54.71008" lon="-5.99551">
        <ele>105</ele>
        <time>2021-03-20T20:47:09Z</time>
      </trkpt>
      <trkpt lat="54.70861" lon="-5.99807">
        <ele>101.99</ele>
        <time>2021-03-20T20:47:18Z</time>
      </trkpt>
      <trkpt lat="54.70847" lon="-5.99835">
        <ele>101.43</ele>
        <time>2021-03-20T20:47:28Z</time>
      </trkpt>
      <trkpt lat="54.70802" lon="-5.9997">
        <ele>99.99</ele>
        <time>2021-03-20T20:47:37Z</time>
      </trkpt>
      <trkpt lat="54.70761" lon="-6.00111">
        <ele>97.01</ele>
        <time>2021-03-20T20:47:47Z</time>
      </trkpt>
      <trkpt lat="54.70693" lon="-6.00314">
        <ele>102.32</ele>
        <time>2021-03-20T20:47:56Z</time>
      </trkpt>
      <trkpt lat="54.70679" lon="-6.00349">
        <ele>104.41</ele>
        <time>2021-03-20T20:48:06Z</time>
      </trkpt>
      <trkpt lat="54.70624" lon="-6.00308">
        <ele>104.23</ele>
        <time>2021-03-20T20:48:11Z</time>
      </trkpt>
      <trkpt lat="54.70584" lon="-6.00283">
        <ele>105.31</ele>
        <time>2021-03-20T20:48:15Z</time>
      </trkpt>
      <trkpt lat="54.70533" lon="-6.00259">
        <ele>105.4</ele>
        <time>2021-03-20T20:48:20Z</time>
      </trkpt>
      <trkpt lat="54.70509" lon="-6.00244">
        <ele>104.56</ele>
        <time>2021-03-20T20:48:24Z</time>
      </trkpt>
      <trkpt lat="54.70457" lon="-6.00182">
        <ele>105.17</ele>
        <time>2021-03-20T20:48:29Z</time>
      </trkpt>
      <trkpt lat="54.7037" lon="-6.0009">
        <ele>107.85</ele>
        <time>2021-03-20T20:48:33Z</time>
      </trkpt>
      <trkpt lat="54.70299" lon="-6.00039">
        <ele>111.23</ele>
        <time>2021-03-20T20:48:38Z</time>
      </trkpt>
      <trkpt lat="54.70272" lon="-6.00033">
        <ele>112.22</ele>
        <time>2021-03-20T20:48:42Z</time>
      </trkpt>
      <trkpt lat="54.70177" lon="-6.00033">
        <ele>114.61</ele>
        <time>2021-03-20T20:48:47Z</time>
      </trkpt>
      <trkpt lat="54.70137" lon="-6.00031">
        <ele>115.06</ele>
        <time>2021-03-20T20:48:52Z</time>
      </trkpt>
      <trkpt lat="54.69938" lon="-6.00014">
        <ele>123.76</ele>
        <time>2021-03-20T20:48:56Z</time>
      </trkpt>
      <trkpt lat="54.6985" lon="-6.00008">
        <ele>131.41</ele>
        <time>2021-03-20T20:49:01Z</time>
      </trkpt>
      <trkpt lat="54.69771" lon="-6.00004">
        <ele>136.23</ele>
        <time>2021-03-20T20:49:05Z</time>
      </trkpt>
      <trkpt lat="54.69666" lon="-6.00003">
        <ele>141.93</ele>
        <time>2021-03-20T20:49:10Z</time>
      </trkpt>
      <trkpt lat="54.69572" lon="-5.99992">
        <ele>142.3</ele>
        <time>2021-03-20T20:49:14Z</time>
      </trkpt>
      <trkpt lat="54.69466" lon="-5.99996">
        <ele>142.12</ele>
        <time>2021-03-20T20:49:19Z</time>
      </trkpt>
      <trkpt lat="54.69451" lon="-6.00001">
        <ele>142</ele>
        <time>2021-03-20T20:49:23Z</time>
      </trkpt>
      <trkpt lat="54.69149" lon="-6.00155">
        <ele>138.35</ele>
        <time>2021-03-20T20:49:28Z</time>
      </trkpt>
      <trkpt lat="54.6914" lon="-6.00156">
        <ele>138.04</ele>
        <time>2021-03-20T20:49:33Z</time>
      </trkpt>
      <trkpt lat="54.69147" lon="-5.9996">
        <ele>139</ele>
        <time>2021-03-20T20:49:46Z</time>
      </trkpt>
      <trkpt lat="54.6913" lon="-5.9996">
        <ele>139</ele>
        <time>2021-03-20T20:49:51Z</time>
      </trkpt>
      <trkpt lat="54.69079" lon="-5.99978">
        <ele>137.86</ele>
        <time>2021-03-20T20:49:57Z</time>
      </trkpt>
      <trkpt lat="54.69046" lon="-5.99998">
        <ele>136.32</ele>
        <time>2021-03-20T20:50:03Z</time>
      </trkpt>
      <trkpt lat="54.69016" lon="-6.00021">
        <ele>132.94</ele>
        <time>2021-03-20T20:50:08Z</time>
      </trkpt>
      <trkpt lat="54.68944" lon="-6.00091">
        <ele>127.73</ele>
        <time>2021-03-20T20:50:14Z</time>
      </trkpt>
      <trkpt lat="54.68913" lon="-6.00122">
        <ele>125.37</ele>
        <time>2021-03-20T20:50:20Z</time>
      </trkpt>
      <trkpt lat="54.68811" lon="-6.00224">
        <ele>120.15</ele>
        <time>2021-03-20T20:50:25Z</time>
      </trkpt>
      <trkpt lat="54.68777" lon="-6.00253">
        <ele>116.89</ele>
        <time>2021-03-20T20:50:31Z</time>
      </trkpt>
      <trkpt lat="54.68745" lon="-6.00274">
        <ele>114.97</ele>
        <time>2021-03-20T20:50:37Z</time>
      </trkpt>
      <trkpt lat="54.68758" lon="-6.00336">
        <ele>113.19</ele>
        <time>2021-03-20T20:50:39Z</time>
      </trkpt>
      <trkpt lat="54.68667" lon="-6.00436">
        <ele>111.98</ele>
        <time>2021-03-20T20:50:47Z</time>
      </trkpt>
      <trkpt lat="54.68639" lon="-6.00462">
        <ele>112.01</ele>
        <time>2021-03-20T20:50:55Z</time>
      </trkpt>
      <trkpt lat="54.6861" lon="-6.00467">
        <ele>110.2</ele>
        <time>2021-03-20T20:51:03Z</time>
      </trkpt>
      <trkpt lat="54.68557" lon="-6.00467">
        <ele>110.2</ele>
        <time>2021-03-20T20:51:11Z</time>
      </trkpt>
      <trkpt lat="54.6843" lon="-6.00476">
        <ele>109.93</ele>
        <time>2021-03-20T20:51:20Z</time>
      </trkpt>
      <trkpt lat="54.68204" lon="-6.00552">
        <ele>113</ele>
        <time>2021-03-20T20:51:28Z</time>
      </trkpt>
      <trkpt lat="54.68049" lon="-6.00608">
        <ele>120.22</ele>
        <time>2021-03-20T20:51:36Z</time>
      </trkpt>
      <trkpt lat="54.68037" lon="-6.00616">
        <ele>120.72</ele>
        <time>2021-03-20T20:51:44Z</time>
      </trkpt>
      <trkpt lat="54.68108" lon="-6.00877">
        <ele>119.1</ele>
        <time>2021-03-20T20:52:06Z</time>
      </trkpt>
      <trkpt lat="54.68084" lon="-6.00886">
        <ele>119.98</ele>
        <time>2021-03-20T20:52:11Z</time>
      </trkpt>
      <trkpt lat="54.67946" lon="-6.00894">
        <ele>120.18</ele>
        <time>2021-03-20T20:52:17Z</time>
      </trkpt>
      <trkpt lat="54.6794" lon="-6.00905">
        <ele>120.79</ele>
        <time>2021-03-20T20:52:22Z</time>
      </trkpt>
      <trkpt lat="54.67895" lon="-6.01249">
        <ele>138.52</ele>
        <time>2021-03-20T20:52:28Z</time>
      </trkpt>
      <trkpt lat="54.67867" lon="-6.0129">
        <ele>140.79</ele>
        <time>2021-03-20T20:52:33Z</time>
      </trkpt>
      <trkpt lat="54.6754" lon="-6.01996">
        <ele>172.4</ele>
        <time>2021-03-20T20:52:39Z</time>
      </trkpt>
      <trkpt lat="54.6739" lon="-6.02314">
        <ele>188.18</ele>
        <time>2021-03-20T20:52:44Z</time>
      </trkpt>
      <trkpt lat="54.67305" lon="-6.02427">
        <ele>191.11</ele>
        <time>2021-03-20T20:52:50Z</time>
      </trkpt>
      <trkpt lat="54.67242" lon="-6.02489">
        <ele>197.61</ele>
        <time>2021-03-20T20:52:55Z</time>
      </trkpt>
      <trkpt lat="54.67233" lon="-6.02496">
        <ele>197.85</ele>
        <time>2021-03-20T20:53:01Z</time>
      </trkpt>
      <trkpt lat="54.67185" lon="-6.02517">
        <ele>202.43</ele>
        <time>2021-03-20T20:53:06Z</time>
      </trkpt>
      <trkpt lat="54.67069" lon="-6.02629">
        <ele>214.2</ele>
        <time>2021-03-20T20:53:12Z</time>
      </trkpt>
      <trkpt lat="54.67001" lon="-6.02675">
        <ele>216.67</ele>
        <time>2021-03-20T20:53:17Z</time>
      </trkpt>
      <trkpt lat="54.66897" lon="-6.02734">
        <ele>226.05</ele>
        <time>2021-03-20T20:53:23Z</time>
      </trkpt>
      <trkpt lat="54.66867" lon="-6.02773">
        <ele>226.48</ele>
        <time>2021-03-20T20:53:28Z</time>
      </trkpt>
      <trkpt lat="54.66843" lon="-6.02814">
        <ele>226.86</ele>
        <time>2021-03-20T20:53:34Z</time>
      </trkpt>
      <trkpt lat="54.66826" lon="-6.02838">
        <ele>228</ele>
        <time>2021-03-20T20:53:39Z</time>
      </trkpt>
      <trkpt lat="54.66813" lon="-6.02904">
        <ele>226.63</ele>
        <time>2021-03-20T20:53:45Z</time>
      </trkpt>
      <trkpt lat="54.66767" lon="-6.03003">
        <ele>221.53</ele>
        <time>2021-03-20T20:53:50Z</time>
      </trkpt>
      <trkpt lat="54.66721" lon="-6.03074">
        <ele>221.53</ele>
        <time>2021-03-20T20:53:56Z</time>
      </trkpt>
      <trkpt lat="54.66673" lon="-6.03138">
        <ele>230.69</ele>
        <time>2021-03-20T20:54:01Z</time>
      </trkpt>
      <trkpt lat="54.66643" lon="-6.03163">
        <ele>234.61</ele>
        <time>2021-03-20T20:54:07Z</time>
      </trkpt>
      <trkpt lat="54.66587" lon="-6.03199">
        <ele>242.08</ele>
        <time>2021-03-20T20:54:12Z</time>
      </trkpt>
      <trkpt lat="54.66564" lon="-6.03212">
        <ele>245.83</ele>
        <time>2021-03-20T20:54:18Z</time>
      </trkpt>
      <trkpt lat="54.66534" lon="-6.03234">
        <ele>249.29</ele>
        <time>2021-03-20T20:54:23Z</time>
      </trkpt>
      <trkpt lat="54.66529" lon="-6.03367">
        <ele>252.82</ele>
        <time>2021-03-20T20:54:27Z</time>
      </trkpt>
      <trkpt lat="54.66519" lon="-6.03517">
        <ele>251.8</ele>
        <time>2021-03-20T20:54:30Z</time>
      </trkpt>
      <trkpt lat="54.66519" lon="-6.03572">
        <ele>251.58</ele>
        <time>2021-03-20T20:54:33Z</time>
      </trkpt>
      <trkpt lat="54.66526" lon="-6.03804">
        <ele>251.53</ele>
        <time>2021-03-20T20:54:36Z</time>
      </trkpt>
      <trkpt lat="54.66526" lon="-6.03936">
        <ele>249.23</ele>
        <time>2021-03-20T20:54:40Z</time>
      </trkpt>
      <trkpt lat="54.66524" lon="-6.03959">
        <ele>248.49</ele>
        <time>2021-03-20T20:54:43Z</time>
      </trkpt>
      <trkpt lat="54.6652" lon="-6.03979">
        <ele>247.89</ele>
        <time>2021-03-20T20:54:46Z</time>
      </trkpt>
      <trkpt lat="54.66512" lon="-6.04">
        <ele>248.25</ele>
        <time>2021-03-20T20:54:50Z</time>
      </trkpt>
      <trkpt lat="54.665" lon="-6.04023">
        <ele>248.34</ele>
        <time>2021-03-20T20:54:53Z</time>
      </trkpt>
      <trkpt lat="54.66487" lon="-6.04042">
        <ele>248.59</ele>
        <time>2021-03-20T20:54:56Z</time>
      </trkpt>
      <trkpt lat="54.6647" lon="-6.04062">
        <ele>248.62</ele>
        <time>2021-03-20T20:54:59Z</time>
      </trkpt>
      <trkpt lat="54.66445" lon="-6.04084">
        <ele>247.96</ele>
        <time>2021-03-20T20:55:03Z</time>
      </trkpt>
      <trkpt lat="54.66263" lon="-6.04222">
        <ele>246.07</ele>
        <time>2021-03-20T20:55:06Z</time>
      </trkpt>
      <trkpt lat="54.66253" lon="-6.04234">
        <ele>246.43</ele>
        <time>2021-03-20T20:55:09Z</time>
      </trkpt>
      <trkpt lat="54.66082" lon="-6.04547">
        <ele>232.85</ele>
        <time>2021-03-20T20:55:12Z</time>
      </trkpt>
      <trkpt lat="54.66049" lon="-6.04622">
        <ele>227.59</ele>
        <time>2021-03-20T20:55:16Z</time>
      </trkpt>
      <trkpt lat="54.65925" lon="-6.04953">
        <ele>205.79</ele>
        <time>2021-03-20T20:55:19Z</time>
      </trkpt>
      <trkpt lat="54.65906" lon="-6.05014">
        <ele>203.3</ele>
        <time>2021-03-20T20:55:22Z</time>
      </trkpt>
      <trkpt lat="54.65894" lon="-6.05047">
        <ele>203</ele>
        <time>2021-03-20T20:55:25Z</time>
      </trkpt>
      <trkpt lat="54.65844" lon="-6.05144">
        <ele>197.61</ele>
        <time>2021-03-20T20:55:29Z</time>
      </trkpt>
      <trkpt lat="54.65754" lon="-6.05304">
        <ele>197.92</ele>
        <time>2021-03-20T20:55:32Z</time>
      </trkpt>
      <trkpt lat="54.65727" lon="-6.05346">
        <ele>198.36</ele>
        <time>2021-03-20T20:55:35Z</time>
      </trkpt>
      <trkpt lat="54.65655" lon="-6.05492">
        <ele>198.69</ele>
        <time>2021-03-20T20:55:38Z</time>
      </trkpt>
      <trkpt lat="54.65625" lon="-6.05581">
        <ele>196.04</ele>
        <time>2021-03-20T20:55:42Z</time>
      </trkpt>
      <trkpt lat="54.65613" lon="-6.05623">
        <ele>195.58</ele>
        <time>2021-03-20T20:55:45Z</time>
      </trkpt>
      <trkpt lat="54.65585" lon="-6.0574">
        <ele>191.96</ele>
        <time>2021-03-20T20:55:48Z</time>
      </trkpt>
      <trkpt lat="54.65496" lon="-6.05959">
        <ele>184.25</ele>
        <time>2021-03-20T20:55:51Z</time>
      </trkpt>
      <trkpt lat="54.65482" lon="-6.0598">
        <ele>183.34</ele>
        <time>2021-03-20T20:55:55Z</time>
      </trkpt>
      <trkpt lat="54.65445" lon="-6.0602">
        <ele>181.3</ele>
        <time>2021-03-20T20:55:58Z</time>
      </trkpt>
      <trkpt lat="54.65356" lon="-6.06114">
        <ele>176.62</ele>
        <time>2021-03-20T20:56:01Z</time>
      </trkpt>
      <trkpt lat="54.65306" lon="-6.06178">
        <ele>174.61</ele>
        <time>2021-03-20T20:56:04Z</time>
      </trkpt>
      <trkpt lat="54.65285" lon="-6.06196">
        <ele>173.95</ele>
        <time>2021-03-20T20:56:08Z</time>
      </trkpt>
      <trkpt lat="54.65221" lon="-6.06242">
        <ele>172.13</ele>
        <time>2021-03-20T20:56:11Z</time>
      </trkpt>
      <trkpt lat="54.65207" lon="-6.06255">
        <ele>170.22</ele>
        <time>2021-03-20T20:56:14Z</time>
      </trkpt>
      <trkpt lat="54.65186" lon="-6.06284">
        <ele>167.48</ele>
        <time>2021-03-20T20:56:17Z</time>
      </trkpt>
      <trkpt lat="54.65147" lon="-6.06358">
        <ele>163.29</ele>
        <time>2021-03-20T20:56:21Z</time>
      </trkpt>
      <trkpt lat="54.65113" lon="-6.06446">
        <ele>163.05</ele>
        <time>2021-03-20T20:56:24Z</time>
      </trkpt>
      <trkpt lat="54.65105" lon="-6.06475">
        <ele>163.54</ele>
        <time>2021-03-20T20:56:27Z</time>
      </trkpt>
      <trkpt lat="54.65097" lon="-6.06576">
        <ele>162.64</ele>
        <time>2021-03-20T20:56:30Z</time>
      </trkpt>
      <trkpt lat="54.6509" lon="-6.06624">
        <ele>161.78</ele>
        <time>2021-03-20T20:56:34Z</time>
      </trkpt>
      <trkpt lat="54.65079" lon="-6.06682">
        <ele>159.91</ele>
        <time>2021-03-20T20:56:37Z</time>
      </trkpt>
      <trkpt lat="54.65062" lon="-6.06821">
        <ele>160.75</ele>
        <time>2021-03-20T20:56:40Z</time>
      </trkpt>
      <trkpt lat="54.65052" lon="-6.06866">
        <ele>163.17</ele>
        <time>2021-03-20T20:56:44Z</time>
      </trkpt>
      <trkpt lat="54.65048" lon="-6.06879">
        <ele>163.64</ele>
        <time>2021-03-20T20:56:47Z</time>
      </trkpt>
      <trkpt lat="54.64998" lon="-6.06959">
        <ele>164.5</ele>
        <time>2021-03-20T20:56:50Z</time>
      </trkpt>
      <trkpt lat="54.6495" lon="-6.07028">
        <ele>165.19</ele>
        <time>2021-03-20T20:56:53Z</time>
      </trkpt>
      <trkpt lat="54.64938" lon="-6.07063">
        <ele>164.93</ele>
        <time>2021-03-20T20:56:57Z</time>
      </trkpt>
      <trkpt lat="54.64903" lon="-6.07188">
        <ele>166.27</ele>
        <time>2021-03-20T20:57:00Z</time>
      </trkpt>
      <trkpt lat="54.64896" lon="-6.07208">
        <ele>166.75</ele>
        <time>2021-03-20T20:57:03Z</time>
      </trkpt>
      <trkpt lat="54.64889" lon="-6.07219">
        <ele>166.99</ele>
        <time>2021-03-20T20:57:06Z</time>
      </trkpt>
      <trkpt lat="54.64696" lon="-6.06799">
        <ele>162.94</ele>
        <time>2021-03-20T20:57:15Z</time>
      </trkpt>
      <trkpt lat="54.64668" lon="-6.06735">
        <ele>163</ele>
        <time>2021-03-20T20:57:23Z</time>
      </trkpt>
      <trkpt lat="54.64111" lon="-6.06782">
        <ele>179</ele>
        <time>2021-03-20T20:57:39Z</time>
      </trkpt>
      <trkpt lat="54.64064" lon="-6.06776">
        <ele>179</ele>
        <time>2021-03-20T20:57:56Z</time>
      </trkpt>
      <trkpt lat="54.64064" lon="-6.06789">
        <ele>179.27</ele>
        <time>2021-03-20T20:57:56Z</time>
      </trkpt>
      <trkpt lat="54.64037" lon="-6.06788">
        <ele>181.36</ele>
        <time>2021-03-20T20:58:06Z</time>
      </trkpt>
      <trkpt lat="54.63728" lon="-6.06814">
        <ele>194.8</ele>
        <time>2021-03-20T20:58:15Z</time>
      </trkpt>
      <trkpt lat="54.63418" lon="-6.06843">
        <ele>213</ele>
        <time>2021-03-20T20:58:25Z</time>
      </trkpt>
      <trkpt lat="54.63347" lon="-6.06846">
        <ele>215.24</ele>
        <time>2021-03-20T20:58:35Z</time>
      </trkpt>
      <trkpt lat="54.6336" lon="-6.06148">
        <ele>211.1</ele>
        <time>2021-03-20T20:58:57Z</time>
      </trkpt>
      <trkpt lat="54.63309" lon="-6.06154">
        <ele>216.64</ele>
        <time>2021-03-20T20:59:04Z</time>
      </trkpt>
      <trkpt lat="54.63213" lon="-6.06171">
        <ele>222.4</ele>
        <time>2021-03-20T20:59:11Z</time>
      </trkpt>
      <trkpt lat="54.63179" lon="-6.06182">
        <ele>224.36</ele>
        <time>2021-03-20T20:59:17Z</time>
      </trkpt>
      <trkpt lat="54.63151" lon="-6.06195">
        <ele>224.41</ele>
        <time>2021-03-20T20:59:24Z</time>
      </trkpt>
      <trkpt lat="54.63026" lon="-6.06265">
        <ele>219.34</ele>
        <time>2021-03-20T20:59:31Z</time>
      </trkpt>
      <trkpt lat="54.62935" lon="-6.06307">
        <ele>214.29</ele>
        <time>2021-03-20T20:59:38Z</time>
      </trkpt>
      <trkpt lat="54.62383" lon="-6.0653">
        <ele>185.79</ele>
        <time>2021-03-20T20:59:45Z</time>
      </trkpt>
      <trkpt lat="54.62183" lon="-6.06607">
        <ele>187.07</ele>
        <time>2021-03-20T20:59:52Z</time>
      </trkpt>
      <trkpt lat="54.61999" lon="-6.06684">
        <ele>182.72</ele>
        <time>2021-03-20T20:59:59Z</time>
      </trkpt>
      <trkpt lat="54.61859" lon="-6.06748">
        <ele>185.15</ele>
        <time>2021-03-20T21:00:06Z</time>
      </trkpt>
      <trkpt lat="54.61696" lon="-6.06825">
        <ele>187.96</ele>
        <time>2021-03-20T21:00:13Z</time>
      </trkpt>
      <trkpt lat="54.61626" lon="-6.06861">
        <ele>193.82</ele>
        <time>2021-03-20T21:00:20Z</time>
      </trkpt>
      <trkpt lat="54.61605" lon="-6.06877">
        <ele>195.9</ele>
        <time>2021-03-20T21:00:26Z</time>
      </trkpt>
      <trkpt lat="54.61334" lon="-6.07172">
        <ele>205.32</ele>
        <time>2021-03-20T21:00:33Z</time>
      </trkpt>
      <trkpt lat="54.61315" lon="-6.07186">
        <ele>207.53</ele>
        <time>2021-03-20T21:00:40Z</time>
      </trkpt>
      <trkpt lat="54.61266" lon="-6.07178">
        <ele>209.46</ele>
        <time>2021-03-20T21:00:47Z</time>
      </trkpt>
      <trkpt lat="54.61258" lon="-6.07178">
        <ele>209.97</ele>
        <time>2021-03-20T21:00:54Z</time>
      </trkpt>
      <trkpt lat="54.61246" lon="-6.07185">
        <ele>210.82</ele>
        <time>2021-03-20T21:01:01Z</time>
      </trkpt>
      <trkpt lat="54.61233" lon="-6.072">
        <ele>211.61</ele>
        <time>2021-03-20T21:01:08Z</time>
      </trkpt>
      <trkpt lat="54.61168" lon="-6.07294">
        <ele>214</ele>
        <time>2021-03-20T21:01:15Z</time>
      </trkpt>
      <trkpt lat="54.61138" lon="-6.07334">
        <ele>214.05</ele>
        <time>2021-03-20T21:01:22Z</time>
      </trkpt>
      <trkpt lat="54.60707" lon="-6.0765">
        <ele>241.61</ele>
        <time>2021-03-20T21:01:29Z</time>
      </trkpt>
      <trkpt lat="54.60627" lon="-6.07712">
        <ele>249.75</ele>
        <time>2021-03-20T21:01:35Z</time>
      </trkpt>
      <trkpt lat="54.60571" lon="-6.07752">
        <ele>251.94</ele>
        <time>2021-03-20T21:01:42Z</time>
      </trkpt>
      <trkpt lat="54.60443" lon="-6.07833">
        <ele>250.02</ele>
        <time>2021-03-20T21:01:49Z</time>
      </trkpt>
      <trkpt lat="54.60183" lon="-6.07967">
        <ele>254.8</ele>
        <time>2021-03-20T21:01:56Z</time>
      </trkpt>
      <trkpt lat="54.60066" lon="-6.08018">
        <ele>256.98</ele>
        <time>2021-03-20T21:02:03Z</time>
      </trkpt>
      <trkpt lat="54.6" lon="-6.08035">
        <ele>260.02</ele>
        <time>2021-03-20T21:02:10Z</time>
      </trkpt>
      <trkpt lat="54.5988" lon="-6.08058">
        <ele>262.34</ele>
        <time>2021-03-20T21:02:17Z</time>
      </trkpt>
      <trkpt lat="54.59723" lon="-6.08084">
        <ele>267.02</ele>
        <time>2021-03-20T21:02:24Z</time>
      </trkpt>
      <trkpt lat="54.59695" lon="-6.08091">
        <ele>266.01</ele>
        <time>2021-03-20T21:02:31Z</time>
      </trkpt>
      <trkpt lat="54.59433" lon="-6.08237">
        <ele>258.57</ele>
        <time>2021-03-20T21:02:38Z</time>
      </trkpt>
      <trkpt lat="54.59377" lon="-6.08265">
        <ele>257.38</ele>
        <time>2021-03-20T21:02:44Z</time>
      </trkpt>
      <trkpt lat="54.59304" lon="-6.08298">
        <ele>254.29</ele>
        <time>2021-03-20T21:02:51Z</time>
      </trkpt>
      <trkpt lat="54.59286" lon="-6.0831">
        <ele>252.4</ele>
        <time>2021-03-20T21:02:58Z</time>
      </trkpt>
      <trkpt lat="54.59268" lon="-6.08326">
        <ele>250.74</ele>
        <time>2021-03-20T21:03:05Z</time>
      </trkpt>
      <trkpt lat="54.59254" lon="-6.08342">
        <ele>249.76</ele>
        <time>2021-03-20T21:03:12Z</time>
      </trkpt>
      <trkpt lat="54.59211" lon="-6.08409">
        <ele>245.94</ele>
        <time>2021-03-20T21:03:19Z</time>
      </trkpt>
      <trkpt lat="54.59139" lon="-6.0855">
        <ele>238.99</ele>
        <time>2021-03-20T21:03:26Z</time>
      </trkpt>
      <trkpt lat="54.58799" lon="-6.09235">
        <ele>215.8</ele>
        <time>2021-03-20T21:03:33Z</time>
      </trkpt>
      <trkpt lat="54.58609" lon="-6.0964">
        <ele>210.93</ele>
        <time>2021-03-20T21:03:40Z</time>
      </trkpt>
      <trkpt lat="54.58518" lon="-6.09859">
        <ele>204.73</ele>
        <time>2021-03-20T21:03:47Z</time>
      </trkpt>
      <trkpt lat="54.58452" lon="-6.10001">
        <ele>209.18</ele>
        <time>2021-03-20T21:03:53Z</time>
      </trkpt>
      <trkpt lat="54.58447" lon="-6.10007">
        <ele>209.76</ele>
        <time>2021-03-20T21:04:00Z</time>
      </trkpt>
      <trkpt lat="54.58448" lon="-6.1002">
        <ele>209.63</ele>
        <time>2021-03-20T21:04:01Z</time>
      </trkpt>
      <trkpt lat="54.5844" lon="-6.10027">
        <ele>210.15</ele>
        <time>2021-03-20T21:04:09Z</time>
      </trkpt>
      <trkpt lat="54.58097" lon="-6.10752">
        <ele>208.45</ele>
        <time>2021-03-20T21:04:18Z</time>
      </trkpt>
      <trkpt lat="54.58081" lon="-6.1079">
        <ele>206.53</ele>
        <time>2021-03-20T21:04:26Z</time>
      </trkpt>
      <trkpt lat="54.58077" lon="-6.10809">
        <ele>204.8</ele>
        <time>2021-03-20T21:04:34Z</time>
      </trkpt>
      <trkpt lat="54.58062" lon="-6.10956">
        <ele>201.57</ele>
        <time>2021-03-20T21:04:43Z</time>
      </trkpt>
      <trkpt lat="54.58047" lon="-6.11122">
        <ele>196.46</ele>
        <time>2021-03-20T21:04:51Z</time>
      </trkpt>
      <trkpt lat="54.57979" lon="-6.11805">
        <ele>180.26</ele>
        <time>2021-03-20T21:05:00Z</time>
      </trkpt>
      <trkpt lat="54.57972" lon="-6.11829">
        <ele>179.99</ele>
        <time>2021-03-20T21:05:08Z</time>
      </trkpt>
      <trkpt lat="54.57966" lon="-6.11839">
        <ele>179.6</ele>
        <time>2021-03-20T21:05:17Z</time>
      </trkpt>
      <trkpt lat="54.57958" lon="-6.11847">
        <ele>179.24</ele>
        <time>2021-03-20T21:05:25Z</time>
      </trkpt>
      <trkpt lat="54.57796" lon="-6.11964">
        <ele>172.33</ele>
        <time>2021-03-20T21:05:33Z</time>
      </trkpt>
      <trkpt lat="54.57719" lon="-6.12016">
        <ele>168.25</ele>
        <time>2021-03-20T21:05:42Z</time>
      </trkpt>
      <trkpt lat="54.57569" lon="-6.12102">
        <ele>156.49</ele>
        <time>2021-03-20T21:05:50Z</time>
      </trkpt>
      <trkpt lat="54.57192" lon="-6.12308">
        <ele>140.9</ele>
        <time>2021-03-20T21:05:59Z</time>
      </trkpt>
      <trkpt lat="54.5708" lon="-6.12373">
        <ele>135.87</ele>
        <time>2021-03-20T21:06:07Z</time>
      </trkpt>
      <trkpt lat="54.56907" lon="-6.12472">
        <ele>133</ele>
        <time>2021-03-20T21:06:15Z</time>
      </trkpt>
      <trkpt lat="54.56903" lon="-6.12467">
        <ele>133.1</ele>
        <time>2021-03-20T21:06:16Z</time>
      </trkpt>
      <trkpt lat="54.56884" lon="-6.12493">
        <ele>132.87</ele>
        <time>2021-03-20T21:06:20Z</time>
      </trkpt>
      <trkpt lat="54.5685" lon="-6.12526">
        <ele>131.05</ele>
        <time>2021-03-20T21:06:23Z</time>
      </trkpt>
      <trkpt lat="54.56531" lon="-6.12819">
        <ele>129.48</ele>
        <time>2021-03-20T21:06:27Z</time>
      </trkpt>
      <trkpt lat="54.56514" lon="-6.1284">
        <ele>128.99</ele>
        <time>2021-03-20T21:06:31Z</time>
      </trkpt>
      <trkpt lat="54.56426" lon="-6.12961">
        <ele>128.41</ele>
        <time>2021-03-20T21:06:35Z</time>
      </trkpt>
      <trkpt lat="54.56371" lon="-6.13041">
        <ele>127.35</ele>
        <time>2021-03-20T21:06:38Z</time>
      </trkpt>
      <trkpt lat="54.5636" lon="-6.13061">
        <ele>127.19</ele>
        <time>2021-03-20T21:06:42Z</time>
      </trkpt>
      <trkpt lat="54.56342" lon="-6.13075">
        <ele>127.68</ele>
        <time>2021-03-20T21:06:46Z</time>
      </trkpt>
      <trkpt lat="54.56325" lon="-6.13095">
        <ele>128</ele>
        <time>2021-03-20T21:06:50Z</time>
      </trkpt>
      <trkpt lat="54.56288" lon="-6.13128">
        <ele>127.63</ele>
        <time>2021-03-20T21:06:53Z</time>
      </trkpt>
      <trkpt lat="54.56211" lon="-6.13179">
        <ele>125.18</ele>
        <time>2021-03-20T21:06:57Z</time>
      </trkpt>
      <trkpt lat="54.56066" lon="-6.13281">
        <ele>125.7</ele>
        <time>2021-03-20T21:07:01Z</time>
      </trkpt>
      <trkpt lat="54.55996" lon="-6.13332">
        <ele>126.14</ele>
        <time>2021-03-20T21:07:05Z</time>
      </trkpt>
      <trkpt lat="54.55951" lon="-6.13367">
        <ele>127.5</ele>
        <time>2021-03-20T21:07:08Z</time>
      </trkpt>
      <trkpt lat="54.55904" lon="-6.13396">
        <ele>129.21</ele>
        <time>2021-03-20T21:07:12Z</time>
      </trkpt>
      <trkpt lat="54.55883" lon="-6.13405">
        <ele>129.54</ele>
        <time>2021-03-20T21:07:16Z</time>
      </trkpt>
      <trkpt lat="54.55802" lon="-6.13421">
        <ele>133.12</ele>
        <time>2021-03-20T21:07:19Z</time>
      </trkpt>
      <trkpt lat="54.55739" lon="-6.13438">
        <ele>135.81</ele>
        <time>2021-03-20T21:07:23Z</time>
      </trkpt>
      <trkpt lat="54.55665" lon="-6.13448">
        <ele>139.95</ele>
        <time>2021-03-20T21:07:27Z</time>
      </trkpt>
      <trkpt lat="54.5565" lon="-6.13455">
        <ele>139.99</ele>
        <time>2021-03-20T21:07:31Z</time>
      </trkpt>
      <trkpt lat="54.55572" lon="-6.13517">
        <ele>135</ele>
        <time>2021-03-20T21:07:34Z</time>
      </trkpt>
      <trkpt lat="54.55542" lon="-6.13526">
        <ele>134.59</ele>
        <time>2021-03-20T21:07:38Z</time>
      </trkpt>
      <trkpt lat="54.55449" lon="-6.13514">
        <ele>136.25</ele>
        <time>2021-03-20T21:07:42Z</time>
      </trkpt>
      <trkpt lat="54.55437" lon="-6.13509">
        <ele>136.23</ele>
        <time>2021-03-20T21:07:46Z</time>
      </trkpt>
      <trkpt lat="54.55394" lon="-6.13474">
        <ele>136</ele>
        <time>2021-03-20T21:07:49Z</time>
      </trkpt>
      <trkpt lat="54.55374" lon="-6.13405">
        <ele>136.54</ele>
        <time>2021-03-20T21:07:53Z</time>
      </trkpt>
      <trkpt lat="54.5536" lon="-6.13371">
        <ele>137.04</ele>
        <time>2021-03-20T21:07:57Z</time>
      </trkpt>
      <trkpt lat="54.55273" lon="-6.13172">
        <ele>143.96</ele>
        <time>2021-03-20T21:08:00Z</time>
      </trkpt>
      <trkpt lat="54.55104" lon="-6.13322">
        <ele>147.91</ele>
        <time>2021-03-20T21:08:05Z</time>
      </trkpt>
      <trkpt lat="54.55049" lon="-6.13365">
        <ele>150.38</ele>
        <time>2021-03-20T21:08:10Z</time>
      </trkpt>
      <trkpt lat="54.54784" lon="-6.13544">
        <ele>139.41</ele>
        <time>2021-03-20T21:08:15Z</time>
      </trkpt>
      <trkpt lat="54.54698" lon="-6.13609">
        <ele>136</ele>
        <time>2021-03-20T21:08:20Z</time>
      </trkpt>
      <trkpt lat="54.54476" lon="-6.13888">
        <ele>119.45</ele>
        <time>2021-03-20T21:08:25Z</time>
      </trkpt>
      <trkpt lat="54.5442" lon="-6.13954">
        <ele>125.17</ele>
        <time>2021-03-20T21:08:30Z</time>
      </trkpt>
      <trkpt lat="54.54351" lon="-6.1405">
        <ele>125</ele>
        <time>2021-03-20T21:08:34Z</time>
      </trkpt>
      <trkpt lat="54.54329" lon="-6.14064">
        <ele>125.04</ele>
        <time>2021-03-20T21:08:39Z</time>
      </trkpt>
      <trkpt lat="54.54269" lon="-6.14091">
        <ele>130.45</ele>
        <time>2021-03-20T21:08:44Z</time>
      </trkpt>
      <trkpt lat="54.54202" lon="-6.14117">
        <ele>133.8</ele>
        <time>2021-03-20T21:08:49Z</time>
      </trkpt>
      <trkpt lat="54.54123" lon="-6.14142">
        <ele>132.52</ele>
        <time>2021-03-20T21:08:54Z</time>
      </trkpt>
      <trkpt lat="54.53978" lon="-6.142">
        <ele>130</ele>
        <time>2021-03-20T21:08:59Z</time>
      </trkpt>
      <trkpt lat="54.53967" lon="-6.14207">
        <ele>129.79</ele>
        <time>2021-03-20T21:09:04Z</time>
      </trkpt>
      <trkpt lat="54.53941" lon="-6.1423">
        <ele>128.61</ele>
        <time>2021-03-20T21:09:09Z</time>
      </trkpt>
      <trkpt lat="54.5392" lon="-6.14254">
        <ele>126.97</ele>
        <time>2021-03-20T21:09:13Z</time>
      </trkpt>
      <trkpt lat="54.53785" lon="-6.14421">
        <ele>104.39</ele>
        <time>2021-03-20T21:09:18Z</time>
      </trkpt>
      <trkpt lat="54.5374" lon="-6.1447">
        <ele>100.71</ele>
        <time>2021-03-20T21:09:23Z</time>
      </trkpt>
      <trkpt lat="54.5368" lon="-6.14544">
        <ele>100</ele>
        <time>2021-03-20T21:09:28Z</time>
      </trkpt>
      <trkpt lat="54.5363" lon="-6.14603">
        <ele>100</ele>
        <time>2021-03-20T21:09:33Z</time>
      </trkpt>
      <trkpt lat="54.53525" lon="-6.14703">
        <ele>97.22</ele>
        <time>2021-03-20T21:09:38Z</time>
      </trkpt>
      <trkpt lat="54.53477" lon="-6.14735">
        <ele>95.82</ele>
        <time>2021-03-20T21:09:43Z</time>
      </trkpt>
      <trkpt lat="54.5338" lon="-6.14823">
        <ele>90.68</ele>
        <time>2021-03-20T21:09:47Z</time>
      </trkpt>
      <trkpt lat="54.53358" lon="-6.14847">
        <ele>90</ele>
        <time>2021-03-20T21:09:52Z</time>
      </trkpt>
      <trkpt lat="54.53293" lon="-6.14905">
        <ele>89.15</ele>
        <time>2021-03-20T21:09:57Z</time>
      </trkpt>
      <trkpt lat="54.5323" lon="-6.14949">
        <ele>84.53</ele>
        <time>2021-03-20T21:10:02Z</time>
      </trkpt>
      <trkpt lat="54.532" lon="-6.14965">
        <ele>83.8</ele>
        <time>2021-03-20T21:10:07Z</time>
      </trkpt>
      <trkpt lat="54.53192" lon="-6.14967">
        <ele>83.82</ele>
        <time>2021-03-20T21:10:12Z</time>
      </trkpt>
      <trkpt lat="54.53038" lon="-6.14957">
        <ele>77.73</ele>
        <time>2021-03-20T21:10:17Z</time>
      </trkpt>
      <trkpt lat="54.52939" lon="-6.14947">
        <ele>82.58</ele>
        <time>2021-03-20T21:10:22Z</time>
      </trkpt>
      <trkpt lat="54.52933" lon="-6.14968">
        <ele>83.19</ele>
        <time>2021-03-20T21:10:24Z</time>
      </trkpt>
      <trkpt lat="54.52955" lon="-6.15272">
        <ele>76.13</ele>
        <time>2021-03-20T21:10:27Z</time>
      </trkpt>
      <trkpt lat="54.52957" lon="-6.15346">
        <ele>78.38</ele>
        <time>2021-03-20T21:10:30Z</time>
      </trkpt>
      <trkpt lat="54.52959" lon="-6.15541">
        <ele>77.49</ele>
        <time>2021-03-20T21:10:32Z</time>
      </trkpt>
      <trkpt lat="54.52957" lon="-6.1558">
        <ele>78.42</ele>
        <time>2021-03-20T21:10:35Z</time>
      </trkpt>
      <trkpt lat="54.52945" lon="-6.15698">
        <ele>78.06</ele>
        <time>2021-03-20T21:10:38Z</time>
      </trkpt>
      <trkpt lat="54.52944" lon="-6.15745">
        <ele>77.18</ele>
        <time>2021-03-20T21:10:41Z</time>
      </trkpt>
      <trkpt lat="54.52946" lon="-6.15774">
        <ele>77.06</ele>
        <time>2021-03-20T21:10:43Z</time>
      </trkpt>
      <trkpt lat="54.52963" lon="-6.15929">
        <ele>75.68</ele>
        <time>2021-03-20T21:10:46Z</time>
      </trkpt>
      <trkpt lat="54.52963" lon="-6.15965">
        <ele>74.91</ele>
        <time>2021-03-20T21:10:49Z</time>
      </trkpt>
      <trkpt lat="54.52954" lon="-6.16102">
        <ele>72.34</ele>
        <time>2021-03-20T21:10:52Z</time>
      </trkpt>
      <trkpt lat="54.52954" lon="-6.16159">
        <ele>72.36</ele>
        <time>2021-03-20T21:10:54Z</time>
      </trkpt>
      <trkpt lat="54.5294" lon="-6.16169">
        <ele>71.81</ele>
        <time>2021-03-20T21:10:58Z</time>
      </trkpt>
      <trkpt lat="54.529" lon="-6.16204">
        <ele>69.78</ele>
        <time>2021-03-20T21:11:02Z</time>
      </trkpt>
      <trkpt lat="54.52833" lon="-6.16274">
        <ele>68.01</ele>
        <time>2021-03-20T21:11:06Z</time>
      </trkpt>
      <trkpt lat="54.52736" lon="-6.16397">
        <ele>75.22</ele>
        <time>2021-03-20T21:11:10Z</time>
      </trkpt>
      <trkpt lat="54.5257" lon="-6.16588">
        <ele>77.58</ele>
        <time>2021-03-20T21:11:14Z</time>
      </trkpt>
      <trkpt lat="54.52471" lon="-6.16711">
        <ele>80.65</ele>
        <time>2021-03-20T21:11:18Z</time>
      </trkpt>
      <trkpt lat="54.52448" lon="-6.16737">
        <ele>82.38</ele>
        <time>2021-03-20T21:11:22Z</time>
      </trkpt>
      <trkpt lat="54.52418" lon="-6.16762">
        <ele>83.97</ele>
        <time>2021-03-20T21:11:25Z</time>
      </trkpt>
      <trkpt lat="54.52312" lon="-6.16835">
        <ele>90.85</ele>
        <time>2021-03-20T21:11:29Z</time>
      </trkpt>
      <trkpt lat="54.52259" lon="-6.16866">
        <ele>92</ele>
        <time>2021-03-20T21:11:33Z</time>
      </trkpt>
      <trkpt lat="54.52177" lon="-6.16908">
        <ele>93.75</ele>
        <time>2021-03-20T21:11:37Z</time>
      </trkpt>
      <trkpt lat="54.52147" lon="-6.16915">
        <ele>94.69</ele>
        <time>2021-03-20T21:11:41Z</time>
      </trkpt>
      <trkpt lat="54.52081" lon="-6.16917">
        <ele>99.07</ele>
        <time>2021-03-20T21:11:45Z</time>
      </trkpt>
      <trkpt lat="54.51958" lon="-6.16938">
        <ele>100</ele>
        <time>2021-03-20T21:11:49Z</time>
      </trkpt>
      <trkpt lat="54.51846" lon="-6.16949">
        <ele>102.83</ele>
        <time>2021-03-20T21:11:53Z</time>
      </trkpt>
      <trkpt lat="54.51651" lon="-6.16896">
        <ele>99.11</ele>
        <time>2021-03-20T21:11:57Z</time>
      </trkpt>
      <trkpt lat="54.51623" lon="-6.16891">
        <ele>98.45</ele>
        <time>2021-03-20T21:12:01Z</time>
      </trkpt>
      <trkpt lat="54.51599" lon="-6.1689">
        <ele>98.05</ele>
        <time>2021-03-20T21:12:04Z</time>
      </trkpt>
      <trkpt lat="54.51576" lon="-6.16894">
        <ele>98.13</ele>
        <time>2021-03-20T21:12:08Z</time>
      </trkpt>
      <trkpt lat="54.51525" lon="-6.16907">
        <ele>97.46</ele>
        <time>2021-03-20T21:12:12Z</time>
      </trkpt>
      <trkpt lat="54.51511" lon="-6.16906">
        <ele>96.43</ele>
        <time>2021-03-20T21:12:16Z</time>
      </trkpt>
      <trkpt lat="54.51502" lon="-6.16902">
        <ele>95.59</ele>
        <time>2021-03-20T21:12:20Z</time>
      </trkpt>
      <trkpt lat="54.51448" lon="-6.16807">
        <ele>94</ele>
        <time>2021-03-20T21:12:24Z</time>
      </trkpt>
      <trkpt lat="54.51403" lon="-6.1685">
        <ele>93.83</ele>
        <time>2021-03-20T21:12:31Z</time>
      </trkpt>
      <trkpt lat="54.5139" lon="-6.16872">
        <ele>93.07</ele>
        <time>2021-03-20T21:12:37Z</time>
      </trkpt>
      <trkpt lat="54.5127" lon="-6.17142">
        <ele>91.72</ele>
        <time>2021-03-20T21:12:44Z</time>
      </trkpt>
      <trkpt lat="54.51205" lon="-6.173">
        <ele>90.47</ele>
        <time>2021-03-20T21:12:51Z</time>
      </trkpt>
      <trkpt lat="54.51168" lon="-6.17379">
        <ele>90</ele>
        <time>2021-03-20T21:12:57Z</time>
      </trkpt>
      <trkpt lat="54.51078" lon="-6.17535">
        <ele>92.61</ele>
        <time>2021-03-20T21:13:04Z</time>
      </trkpt>
      <trkpt lat="54.51028" lon="-6.17644">
        <ele>89.04</ele>
        <time>2021-03-20T21:13:11Z</time>
      </trkpt>
      <trkpt lat="54.51001" lon="-6.17698">
        <ele>89.96</ele>
        <time>2021-03-20T21:13:17Z</time>
      </trkpt>
      <trkpt lat="54.50877" lon="-6.17907">
        <ele>85.65</ele>
        <time>2021-03-20T21:13:24Z</time>
      </trkpt>
      <trkpt lat="54.50866" lon="-6.17932">
        <ele>86</ele>
        <time>2021-03-20T21:13:31Z</time>
      </trkpt>
      <trkpt lat="54.50857" lon="-6.17959">
        <ele>84.85</ele>
        <time>2021-03-20T21:13:37Z</time>
      </trkpt>
      <trkpt lat="54.50815" lon="-6.18135">
        <ele>79.32</ele>
        <time>2021-03-20T21:13:44Z</time>
      </trkpt>
      <trkpt lat="54.50793" lon="-6.18205">
        <ele>79</ele>
        <time>2021-03-20T21:13:51Z</time>
      </trkpt>
      <trkpt lat="54.50772" lon="-6.18263">
        <ele>80</ele>
        <time>2021-03-20T21:13:57Z</time>
      </trkpt>
      <trkpt lat="54.50748" lon="-6.18322">
        <ele>78.92</ele>
        <time>2021-03-20T21:14:04Z</time>
      </trkpt>
      <trkpt lat="54.50657" lon="-6.18509">
        <ele>81.57</ele>
        <time>2021-03-20T21:14:11Z</time>
      </trkpt>
      <trkpt lat="54.50581" lon="-6.18699">
        <ele>83.07</ele>
        <time>2021-03-20T21:14:17Z</time>
      </trkpt>
      <trkpt lat="54.50496" lon="-6.1889">
        <ele>87.14</ele>
        <time>2021-03-20T21:14:24Z</time>
      </trkpt>
      <trkpt lat="54.50489" lon="-6.18908">
        <ele>87.41</ele>
        <time>2021-03-20T21:14:31Z</time>
      </trkpt>
      <trkpt lat="54.50452" lon="-6.19029">
        <ele>90</ele>
        <time>2021-03-20T21:14:37Z</time>
      </trkpt>
      <trkpt lat="54.50342" lon="-6.1903">
        <ele>88.31</ele>
        <time>2021-03-20T21:14:40Z</time>
      </trkpt>
      <trkpt lat="54.50322" lon="-6.19022">
        <ele>87.39</ele>
        <time>2021-03-20T21:14:42Z</time>
      </trkpt>
      <trkpt lat="54.50301" lon="-6.19007">
        <ele>86.2</ele>
        <time>2021-03-20T21:14:44Z</time>
      </trkpt>
      <trkpt lat="54.50219" lon="-6.18928">
        <ele>85.05</ele>
        <time>2021-03-20T21:14:46Z</time>
      </trkpt>
      <trkpt lat="54.50169" lon="-6.18883">
        <ele>84</ele>
        <time>2021-03-20T21:14:49Z</time>
      </trkpt>
      <trkpt lat="54.50137" lon="-6.18866">
        <ele>82.61</ele>
        <time>2021-03-20T21:14:51Z</time>
      </trkpt>
      <trkpt lat="54.50108" lon="-6.18863">
        <ele>77.19</ele>
        <time>2021-03-20T21:14:53Z</time>
      </trkpt>
      <trkpt lat="54.50074" lon="-6.18869">
        <ele>69.44</ele>
        <time>2021-03-20T21:14:55Z</time>
      </trkpt>
      <trkpt lat="54.50026" lon="-6.1886">
        <ele>65.06</ele>
        <time>2021-03-20T21:14:58Z</time>
      </trkpt>
      <trkpt lat="54.50011" lon="-6.1886">
        <ele>64.57</ele>
        <time>2021-03-20T21:15:00Z</time>
      </trkpt>
      <trkpt lat="54.49983" lon="-6.18869">
        <ele>64.01</ele>
        <time>2021-03-20T21:15:02Z</time>
      </trkpt>
      <trkpt lat="54.4986" lon="-6.18948">
        <ele>56.71</ele>
        <time>2021-03-20T21:15:04Z</time>
      </trkpt>
      <trkpt lat="54.49824" lon="-6.18976">
        <ele>50.66</ele>
        <time>2021-03-20T21:15:06Z</time>
      </trkpt>
      <trkpt lat="54.49813" lon="-6.18979">
        <ele>49</ele>
        <time>2021-03-20T21:15:09Z</time>
      </trkpt>
      <trkpt lat="54.49784" lon="-6.18969">
        <ele>47.32</ele>
        <time>2021-03-20T21:15:11Z</time>
      </trkpt>
      <trkpt lat="54.4977" lon="-6.18967">
        <ele>46.64</ele>
        <time>2021-03-20T21:15:13Z</time>
      </trkpt>
      <trkpt lat="54.49761" lon="-6.18969">
        <ele>45.97</ele>
        <time>2021-03-20T21:15:15Z</time>
      </trkpt>
      <trkpt lat="54.49733" lon="-6.1899">
        <ele>44.14</ele>
        <time>2021-03-20T21:15:18Z</time>
      </trkpt>
      <trkpt lat="54.49723" lon="-6.18995">
        <ele>44.01</ele>
        <time>2021-03-20T21:15:20Z</time>
      </trkpt>
      <trkpt lat="54.49644" lon="-6.19002">
        <ele>39.28</ele>
        <time>2021-03-20T21:15:22Z</time>
      </trkpt>
      <trkpt lat="54.49632" lon="-6.19005">
        <ele>39.42</ele>
        <time>2021-03-20T21:15:24Z</time>
      </trkpt>
      <trkpt lat="54.49622" lon="-6.19012">
        <ele>40.04</ele>
        <time>2021-03-20T21:15:27Z</time>
      </trkpt>
      <trkpt lat="54.49614" lon="-6.19021">
        <ele>40.64</ele>
        <time>2021-03-20T21:15:29Z</time>
      </trkpt>
      <trkpt lat="54.49608" lon="-6.19033">
        <ele>41.02</ele>
        <time>2021-03-20T21:15:31Z</time>
      </trkpt>
      <trkpt lat="54.49602" lon="-6.19051">
        <ele>41.28</ele>
        <time>2021-03-20T21:15:33Z</time>
      </trkpt>
      <trkpt lat="54.49589" lon="-6.19106">
        <ele>43.82</ele>
        <time>2021-03-20T21:15:36Z</time>
      </trkpt>
      <trkpt lat="54.49584" lon="-6.19123">
        <ele>44.45</ele>
        <time>2021-03-20T21:15:38Z</time>
      </trkpt>
      <trkpt lat="54.4956" lon="-6.19172">
        <ele>45.35</ele>
        <time>2021-03-20T21:15:40Z</time>
      </trkpt>
      <trkpt lat="54.49536" lon="-6.19213">
        <ele>46</ele>
        <time>2021-03-20T21:15:42Z</time>
      </trkpt>
      <trkpt lat="54.49527" lon="-6.19222">
        <ele>45.98</ele>
        <time>2021-03-20T21:15:45Z</time>
      </trkpt>
      <trkpt lat="54.49501" lon="-6.19241">
        <ele>45.69</ele>
        <time>2021-03-20T21:15:47Z</time>
      </trkpt>
      <trkpt lat="54.49485" lon="-6.19257">
        <ele>45.45</ele>
        <time>2021-03-20T21:15:49Z</time>
      </trkpt>
      <trkpt lat="54.49474" lon="-6.19282">
        <ele>44.93</ele>
        <time>2021-03-20T21:15:51Z</time>
      </trkpt>
      <trkpt lat="54.49465" lon="-6.19291">
        <ele>44.53</ele>
        <time>2021-03-20T21:15:54Z</time>
      </trkpt>
      <trkpt lat="54.49454" lon="-6.19296">
        <ele>44.33</ele>
        <time>2021-03-20T21:15:56Z</time>
      </trkpt>
      <trkpt lat="54.49436" lon="-6.1931">
        <ele>43.83</ele>
        <time>2021-03-20T21:15:58Z</time>
      </trkpt>
      <trkpt lat="54.49393" lon="-6.19355">
        <ele>40.41</ele>
        <time>2021-03-20T21:16:00Z</time>
      </trkpt>
      <trkpt lat="54.49314" lon="-6.19446">
        <ele>37.46</ele>
        <time>2021-03-20T21:16:03Z</time>
      </trkpt>
      <trkpt lat="54.49228" lon="-6.19354">
        <ele>37.54</ele>
        <time>2021-03-20T21:16:06Z</time>
      </trkpt>
      <trkpt lat="54.49191" lon="-6.19305">
        <ele>39.09</ele>
        <time>2021-03-20T21:16:09Z</time>
      </trkpt>
      <trkpt lat="54.49132" lon="-6.19237">
        <ele>39.29</ele>
        <time>2021-03-20T21:16:12Z</time>
      </trkpt>
      <trkpt lat="54.49018" lon="-6.1919">
        <ele>37.51</ele>
        <time>2021-03-20T21:16:15Z</time>
      </trkpt>
      <trkpt lat="54.48499" lon="-6.18967">
        <ele>33.01</ele>
        <time>2021-03-20T21:16:18Z</time>
      </trkpt>
      <trkpt lat="54.48422" lon="-6.18936">
        <ele>33.17</ele>
        <time>2021-03-20T21:16:21Z</time>
      </trkpt>
      <trkpt lat="54.48403" lon="-6.18922">
        <ele>32.9</ele>
        <time>2021-03-20T21:16:25Z</time>
      </trkpt>
      <trkpt lat="54.48336" lon="-6.18853">
        <ele>32.38</ele>
        <time>2021-03-20T21:16:28Z</time>
      </trkpt>
      <trkpt lat="54.48324" lon="-6.18845">
        <ele>32.4</ele>
        <time>2021-03-20T21:16:31Z</time>
      </trkpt>
      <trkpt lat="54.48272" lon="-6.18824">
        <ele>31.34</ele>
        <time>2021-03-20T21:16:34Z</time>
      </trkpt>
      <trkpt lat="54.48241" lon="-6.18803">
        <ele>32.08</ele>
        <time>2021-03-20T21:16:37Z</time>
      </trkpt>
      <trkpt lat="54.48233" lon="-6.18795">
        <ele>32.37</ele>
        <time>2021-03-20T21:16:40Z</time>
      </trkpt>
      <trkpt lat="54.48219" lon="-6.18771">
        <ele>33</ele>
        <time>2021-03-20T21:16:43Z</time>
      </trkpt>
      <trkpt lat="54.48184" lon="-6.18681">
        <ele>34.39</ele>
        <time>2021-03-20T21:16:47Z</time>
      </trkpt>
      <trkpt lat="54.48128" lon="-6.18563">
        <ele>34</ele>
        <time>2021-03-20T21:16:50Z</time>
      </trkpt>
      <trkpt lat="54.48114" lon="-6.18518">
        <ele>33.65</ele>
        <time>2021-03-20T21:16:53Z</time>
      </trkpt>
      <trkpt lat="54.48111" lon="-6.18497">
        <ele>33.02</ele>
        <time>2021-03-20T21:16:56Z</time>
      </trkpt>
      <trkpt lat="54.4811" lon="-6.18411">
        <ele>33.25</ele>
        <time>2021-03-20T21:16:59Z</time>
      </trkpt>
      <trkpt lat="54.48105" lon="-6.18385">
        <ele>34.21</ele>
        <time>2021-03-20T21:17:02Z</time>
      </trkpt>
      <trkpt lat="54.48099" lon="-6.18369">
        <ele>34.43</ele>
        <time>2021-03-20T21:17:05Z</time>
      </trkpt>
      <trkpt lat="54.48064" lon="-6.18328">
        <ele>35</ele>
        <time>2021-03-20T21:17:09Z</time>
      </trkpt>
      <trkpt lat="54.48051" lon="-6.18317">
        <ele>34.93</ele>
        <time>2021-03-20T21:17:12Z</time>
      </trkpt>
      <trkpt lat="54.48039" lon="-6.18309">
        <ele>34.92</ele>
        <time>2021-03-20T21:17:15Z</time>
      </trkpt>
      <trkpt lat="54.47987" lon="-6.18284">
        <ele>34.28</ele>
        <time>2021-03-20T21:17:18Z</time>
      </trkpt>
      <trkpt lat="54.47976" lon="-6.18276">
        <ele>34.12</ele>
        <time>2021-03-20T21:17:21Z</time>
      </trkpt>
      <trkpt lat="54.47966" lon="-6.18265">
        <ele>33.78</ele>
        <time>2021-03-20T21:17:24Z</time>
      </trkpt>
      <trkpt lat="54.47957" lon="-6.18248">
        <ele>33.47</ele>
        <time>2021-03-20T21:17:27Z</time>
      </trkpt>
      <trkpt lat="54.47937" lon="-6.18199">
        <ele>33.74</ele>
        <time>2021-03-20T21:17:31Z</time>
      </trkpt>
      <trkpt lat="54.47835" lon="-6.17965">
        <ele>32.78</ele>
        <time>2021-03-20T21:17:34Z</time>
      </trkpt>
      <trkpt lat="54.47817" lon="-6.17925">
        <ele>31.39</ele>
        <time>2021-03-20T21:17:37Z</time>
      </trkpt>
      <trkpt lat="54.47788" lon="-6.17871">
        <ele>31.63</ele>
        <time>2021-03-20T21:17:40Z</time>
      </trkpt>
      <trkpt lat="54.47774" lon="-6.17838">
        <ele>31.41</ele>
        <time>2021-03-20T21:17:43Z</time>
      </trkpt>
      <trkpt lat="54.47768" lon="-6.1782">
        <ele>31.53</ele>
        <time>2021-03-20T21:17:46Z</time>
      </trkpt>
      <trkpt lat="54.47765" lon="-6.17804">
        <ele>31.4</ele>
        <time>2021-03-20T21:17:49Z</time>
      </trkpt>
      <trkpt lat="54.47756" lon="-6.177">
        <ele>30</ele>
        <time>2021-03-20T21:17:53Z</time>
      </trkpt>
      <trkpt lat="54.47754" lon="-6.17644">
        <ele>29.05</ele>
        <time>2021-03-20T21:17:56Z</time>
      </trkpt>
      <trkpt lat="54.4772" lon="-6.1744">
        <ele>30</ele>
        <time>2021-03-20T21:17:59Z</time>
      </trkpt>
      <trkpt lat="54.47716" lon="-6.17442">
        <ele>30</ele>
        <time>2021-03-20T21:18:02Z</time>
      </trkpt>
      <trkpt lat="54.47675" lon="-6.17519">
        <ele>29.9</ele>
        <time>2021-03-20T21:18:06Z</time>
      </trkpt>
      <trkpt lat="54.47534" lon="-6.17816">
        <ele>30</ele>
        <time>2021-03-20T21:18:09Z</time>
      </trkpt>
      <trkpt lat="54.47505" lon="-6.17889">
        <ele>31</ele>
        <time>2021-03-20T21:18:12Z</time>
      </trkpt>
      <trkpt lat="54.47471" lon="-6.18001">
        <ele>33.01</ele>
        <time>2021-03-20T21:18:16Z</time>
      </trkpt>
      <trkpt lat="54.4745" lon="-6.18059">
        <ele>33.64</ele>
        <time>2021-03-20T21:18:19Z</time>
      </trkpt>
      <trkpt lat="54.47413" lon="-6.18143">
        <ele>36.14</ele>
        <time>2021-03-20T21:18:22Z</time>
      </trkpt>
      <trkpt lat="54.47343" lon="-6.18295">
        <ele>35.79</ele>
        <time>2021-03-20T21:18:25Z</time>
      </trkpt>
      <trkpt lat="54.47316" lon="-6.18346">
        <ele>36.46</ele>
        <time>2021-03-20T21:18:29Z</time>
      </trkpt>
      <trkpt lat="54.47271" lon="-6.18418">
        <ele>34.97</ele>
        <time>2021-03-20T21:18:32Z</time>
      </trkpt>
      <trkpt lat="54.47215" lon="-6.18486">
        <ele>35</ele>
        <time>2021-03-20T21:18:35Z</time>
      </trkpt>
      <trkpt lat="54.47172" lon="-6.18529">
        <ele>35</ele>
        <time>2021-03-20T21:18:39Z</time>
      </trkpt>
      <trkpt lat="54.47138" lon="-6.18558">
        <ele>34.97</ele>
        <time>2021-03-20T21:18:42Z</time>
      </trkpt>
      <trkpt lat="54.47122" lon="-6.18567">
        <ele>34.64</ele>
        <time>2021-03-20T21:18:45Z</time>
      </trkpt>
      <trkpt lat="54.47064" lon="-6.18589">
        <ele>34</ele>
        <time>2021-03-20T21:18:49Z</time>
      </trkpt>
      <trkpt lat="54.47035" lon="-6.18592">
        <ele>34</ele>
        <time>2021-03-20T21:18:52Z</time>
      </trkpt>
      <trkpt lat="54.46984" lon="-6.18571">
        <ele>34.55</ele>
        <time>2021-03-20T21:18:55Z</time>
      </trkpt>
      <trkpt lat="54.46982" lon="-6.18591">
        <ele>35.17</ele>
        <time>2021-03-20T21:19:00Z</time>
      </trkpt>
      <trkpt lat="54.46984" lon="-6.18604">
        <ele>35.43</ele>
        <time>2021-03-20T21:19:04Z</time>
      </trkpt>
      <trkpt lat="54.47019" lon="-6.18773">
        <ele>31.95</ele>
        <time>2021-03-20T21:19:08Z</time>
      </trkpt>
      <trkpt lat="54.47021" lon="-6.18802">
        <ele>31.53</ele>
        <time>2021-03-20T21:19:12Z</time>
      </trkpt>
      <trkpt lat="54.47019" lon="-6.18892">
        <ele>31.38</ele>
        <time>2021-03-20T21:19:16Z</time>
      </trkpt>
      <trkpt lat="54.4702" lon="-6.18951">
        <ele>32.06</ele>
        <time>2021-03-20T21:19:21Z</time>
      </trkpt>
      <trkpt lat="54.47035" lon="-6.19117">
        <ele>31.26</ele>
        <time>2021-03-20T21:19:25Z</time>
      </trkpt>
      <trkpt lat="54.4706" lon="-6.19341">
        <ele>32.16</ele>
        <time>2021-03-20T21:19:29Z</time>
      </trkpt>
      <trkpt lat="54.47079" lon="-6.19458">
        <ele>34.32</ele>
        <time>2021-03-20T21:19:33Z</time>
      </trkpt>
      <trkpt lat="54.47087" lon="-6.19521">
        <ele>34.13</ele>
        <time>2021-03-20T21:19:37Z</time>
      </trkpt>
      <trkpt lat="54.47093" lon="-6.1959">
        <ele>33</ele>
        <time>2021-03-20T21:19:41Z</time>
      </trkpt>
      <trkpt lat="54.47109" lon="-6.19842">
        <ele>32.28</ele>
        <time>2021-03-20T21:19:46Z</time>
      </trkpt>
      <trkpt lat="54.47117" lon="-6.20026">
        <ele>33</ele>
        <time>2021-03-20T21:19:50Z</time>
      </trkpt>
      <trkpt lat="54.47096" lon="-6.20403">
        <ele>32.48</ele>
        <time>2021-03-20T21:19:54Z</time>
      </trkpt>
      <trkpt lat="54.47033" lon="-6.20391">
        <ele>32.1</ele>
        <time>2021-03-20T21:19:59Z</time>
      </trkpt>
      <trkpt lat="54.47" lon="-6.20391">
        <ele>31.91</ele>
        <time>2021-03-20T21:20:05Z</time>
      </trkpt>
      <trkpt lat="54.46964" lon="-6.20396">
        <ele>31.3</ele>
        <time>2021-03-20T21:20:10Z</time>
      </trkpt>
      <trkpt lat="54.46787" lon="-6.20419">
        <ele>33.65</ele>
        <time>2021-03-20T21:20:16Z</time>
      </trkpt>
      <trkpt lat="54.46681" lon="-6.20428">
        <ele>34</ele>
        <time>2021-03-20T21:20:21Z</time>
      </trkpt>
      <trkpt lat="54.46619" lon="-6.20458">
        <ele>36.06</ele>
        <time>2021-03-20T21:20:27Z</time>
      </trkpt>
      <trkpt lat="54.46393" lon="-6.20525">
        <ele>43.72</ele>
        <time>2021-03-20T21:20:32Z</time>
      </trkpt>
      <trkpt lat="54.46287" lon="-6.20598">
        <ele>46.19</ele>
        <time>2021-03-20T21:20:38Z</time>
      </trkpt>
      <trkpt lat="54.46119" lon="-6.20703">
        <ele>54.72</ele>
        <time>2021-03-20T21:20:43Z</time>
      </trkpt>
      <trkpt lat="54.45879" lon="-6.20743">
        <ele>53.5</ele>
        <time>2021-03-20T21:20:49Z</time>
      </trkpt>
      <trkpt lat="54.45792" lon="-6.20735">
        <ele>51</ele>
        <time>2021-03-20T21:20:54Z</time>
      </trkpt>
      <trkpt lat="54.45691" lon="-6.20743">
        <ele>51.03</ele>
        <time>2021-03-20T21:20:59Z</time>
      </trkpt>
      <trkpt lat="54.4558" lon="-6.20749">
        <ele>54.3</ele>
        <time>2021-03-20T21:21:05Z</time>
      </trkpt>
      <trkpt lat="54.45519" lon="-6.20748">
        <ele>59.62</ele>
        <time>2021-03-20T21:21:10Z</time>
      </trkpt>
      <trkpt lat="54.45484" lon="-6.20743">
        <ele>62.4</ele>
        <time>2021-03-20T21:21:16Z</time>
      </trkpt>
      <trkpt lat="54.45461" lon="-6.20736">
        <ele>64.77</ele>
        <time>2021-03-20T21:21:21Z</time>
      </trkpt>
      <trkpt lat="54.45442" lon="-6.20727">
        <ele>67.06</ele>
        <time>2021-03-20T21:21:27Z</time>
      </trkpt>
      <trkpt lat="54.45424" lon="-6.20715">
        <ele>69.4</ele>
        <time>2021-03-20T21:21:32Z</time>
      </trkpt>
      <trkpt lat="54.45376" lon="-6.20674">
        <ele>75.43</ele>
        <time>2021-03-20T21:21:38Z</time>
      </trkpt>
      <trkpt lat="54.45365" lon="-6.20662">
        <ele>76.72</ele>
        <time>2021-03-20T21:21:43Z</time>
      </trkpt>
      <trkpt lat="54.45355" lon="-6.20647">
        <ele>77.21</ele>
        <time>2021-03-20T21:21:49Z</time>
      </trkpt>
      <trkpt lat="54.45318" lon="-6.20579">
        <ele>80.76</ele>
        <time>2021-03-20T21:21:54Z</time>
      </trkpt>
      <trkpt lat="54.45287" lon="-6.20498">
        <ele>85.65</ele>
        <time>2021-03-20T21:21:59Z</time>
      </trkpt>
      <trkpt lat="54.45278" lon="-6.20483">
        <ele>85.99</ele>
        <time>2021-03-20T21:22:05Z</time>
      </trkpt>
      <trkpt lat="54.45269" lon="-6.20472">
        <ele>86.63</ele>
        <time>2021-03-20T21:22:10Z</time>
      </trkpt>
      <trkpt lat="54.45246" lon="-6.20457">
        <ele>88.72</ele>
        <time>2021-03-20T21:22:16Z</time>
      </trkpt>
      <trkpt lat="54.45217" lon="-6.20453">
        <ele>89.7</ele>
        <time>2021-03-20T21:22:21Z</time>
      </trkpt>
      <trkpt lat="54.45187" lon="-6.20455">
        <ele>90.24</ele>
        <time>2021-03-20T21:22:27Z</time>
      </trkpt>
      <trkpt lat="54.45087" lon="-6.20454">
        <ele>96.09</ele>
        <time>2021-03-20T21:22:32Z</time>
      </trkpt>
      <trkpt lat="54.45049" lon="-6.20374">
        <ele>94</ele>
        <time>2021-03-20T21:22:37Z</time>
      </trkpt>
      <trkpt lat="54.45021" lon="-6.20306">
        <ele>94.24</ele>
        <time>2021-03-20T21:22:41Z</time>
      </trkpt>
      <trkpt lat="54.44991" lon="-6.20237">
        <ele>95.17</ele>
        <time>2021-03-20T21:22:46Z</time>
      </trkpt>
      <trkpt lat="54.44963" lon="-6.20177">
        <ele>96.63</ele>
        <time>2021-03-20T21:22:50Z</time>
      </trkpt>
      <trkpt lat="54.44939" lon="-6.20113">
        <ele>97.77</ele>
        <time>2021-03-20T21:22:55Z</time>
      </trkpt>
      <trkpt lat="54.44898" lon="-6.19965">
        <ele>100.43</ele>
        <time>2021-03-20T21:22:59Z</time>
      </trkpt>
      <trkpt lat="54.44882" lon="-6.19869">
        <ele>100</ele>
        <time>2021-03-20T21:23:04Z</time>
      </trkpt>
      <trkpt lat="54.44869" lon="-6.19829">
        <ele>100</ele>
        <time>2021-03-20T21:23:08Z</time>
      </trkpt>
      <trkpt lat="54.44838" lon="-6.19758">
        <ele>101</ele>
        <time>2021-03-20T21:23:13Z</time>
      </trkpt>
      <trkpt lat="54.44835" lon="-6.1974">
        <ele>101.36</ele>
        <time>2021-03-20T21:23:17Z</time>
      </trkpt>
      <trkpt lat="54.44832" lon="-6.19682">
        <ele>102.11</ele>
        <time>2021-03-20T21:23:22Z</time>
      </trkpt>
      <trkpt lat="54.44829" lon="-6.19656">
        <ele>102.96</ele>
        <time>2021-03-20T21:23:26Z</time>
      </trkpt>
      <trkpt lat="54.44824" lon="-6.19633">
        <ele>104.76</ele>
        <time>2021-03-20T21:23:31Z</time>
      </trkpt>
      <trkpt lat="54.44812" lon="-6.19606">
        <ele>108.28</ele>
        <time>2021-03-20T21:23:35Z</time>
      </trkpt>
      <trkpt lat="54.44743" lon="-6.1949">
        <ele>123.25</ele>
        <time>2021-03-20T21:23:40Z</time>
      </trkpt>
      <trkpt lat="54.44532" lon="-6.19222">
        <ele>123</ele>
        <time>2021-03-20T21:23:44Z</time>
      </trkpt>
      <trkpt lat="54.44497" lon="-6.19155">
        <ele>121.9</ele>
        <time>2021-03-20T21:23:49Z</time>
      </trkpt>
      <trkpt lat="54.44482" lon="-6.1908">
        <ele>121.43</ele>
        <time>2021-03-20T21:23:53Z</time>
      </trkpt>
      <trkpt lat="54.44473" lon="-6.19059">
        <ele>121.88</ele>
        <time>2021-03-20T21:23:58Z</time>
      </trkpt>
      <trkpt lat="54.44436" lon="-6.18988">
        <ele>122</ele>
        <time>2021-03-20T21:24:02Z</time>
      </trkpt>
      <trkpt lat="54.44419" lon="-6.18945">
        <ele>122</ele>
        <time>2021-03-20T21:24:07Z</time>
      </trkpt>
      <trkpt lat="54.44393" lon="-6.18867">
        <ele>123.58</ele>
        <time>2021-03-20T21:24:11Z</time>
      </trkpt>
      <trkpt lat="54.44329" lon="-6.18714">
        <ele>126.83</ele>
        <time>2021-03-20T21:24:16Z</time>
      </trkpt>
      <trkpt lat="54.44239" lon="-6.18592">
        <ele>120.8</ele>
        <time>2021-03-20T21:24:20Z</time>
      </trkpt>
      <trkpt lat="54.44118" lon="-6.18413">
        <ele>113.87</ele>
        <time>2021-03-20T21:24:25Z</time>
      </trkpt>
      <trkpt lat="54.4408" lon="-6.18367">
        <ele>110.21</ele>
        <time>2021-03-20T21:24:29Z</time>
      </trkpt>
      <trkpt lat="54.44074" lon="-6.18321">
        <ele>106.88</ele>
        <time>2021-03-20T21:24:34Z</time>
      </trkpt>
      <trkpt lat="54.44065" lon="-6.1828">
        <ele>104.46</ele>
        <time>2021-03-20T21:24:38Z</time>
      </trkpt>
      <trkpt lat="54.44057" lon="-6.18222">
        <ele>104.02</ele>
        <time>2021-03-20T21:24:43Z</time>
      </trkpt>
      <trkpt lat="54.44036" lon="-6.18227">
        <ele>103.29</ele>
        <time>2021-03-20T21:24:46Z</time>
      </trkpt>
      <trkpt lat="54.44011" lon="-6.18246">
        <ele>102.47</ele>
        <time>2021-03-20T21:24:49Z</time>
      </trkpt>
      <trkpt lat="54.43945" lon="-6.18252">
        <ele>101.85</ele>
        <time>2021-03-20T21:24:51Z</time>
      </trkpt>
      <trkpt lat="54.43916" lon="-6.18259">
        <ele>101.37</ele>
        <time>2021-03-20T21:24:54Z</time>
      </trkpt>
      <trkpt lat="54.43895" lon="-6.18233">
        <ele>101.97</ele>
        <time>2021-03-20T21:24:59Z</time>
      </trkpt>
      <trkpt lat="54.43873" lon="-6.18166">
        <ele>105.58</ele>
        <time>2021-03-20T21:25:03Z</time>
      </trkpt>
      <trkpt lat="54.43836" lon="-6.18104">
        <ele>109.85</ele>
        <time>2021-03-20T21:25:08Z</time>
      </trkpt>
      <trkpt lat="54.43777" lon="-6.17986">
        <ele>115.06</ele>
        <time>2021-03-20T21:25:12Z</time>
      </trkpt>
      <trkpt lat="54.43577" lon="-6.17638">
        <ele>126.22</ele>
        <time>2021-03-20T21:25:17Z</time>
      </trkpt>
      <trkpt lat="54.43544" lon="-6.17587">
        <ele>128.62</ele>
        <time>2021-03-20T21:25:21Z</time>
      </trkpt>
      <trkpt lat="54.43528" lon="-6.17567">
        <ele>131.14</ele>
        <time>2021-03-20T21:25:26Z</time>
      </trkpt>
      <trkpt lat="54.43503" lon="-6.1753">
        <ele>133.81</ele>
        <time>2021-03-20T21:25:30Z</time>
      </trkpt>
      <trkpt lat="54.43475" lon="-6.17473">
        <ele>135.05</ele>
        <time>2021-03-20T21:25:35Z</time>
      </trkpt>
      <trkpt lat="54.4346" lon="-6.17449">
        <ele>135.82</ele>
        <time>2021-03-20T21:25:39Z</time>
      </trkpt>
      <trkpt lat="54.43408" lon="-6.17378">
        <ele>132.29</ele>
        <time>2021-03-20T21:25:44Z</time>
      </trkpt>
      <trkpt lat="54.43392" lon="-6.17363">
        <ele>130.37</ele>
        <time>2021-03-20T21:25:48Z</time>
      </trkpt>
      <trkpt lat="54.43323" lon="-6.17318">
        <ele>124.21</ele>
        <time>2021-03-20T21:25:53Z</time>
      </trkpt>
      <trkpt lat="54.4329" lon="-6.17314">
        <ele>119.26</ele>
        <time>2021-03-20T21:25:57Z</time>
      </trkpt>
      <trkpt lat="54.43198" lon="-6.17365">
        <ele>111.13</ele>
        <time>2021-03-20T21:26:02Z</time>
      </trkpt>
      <trkpt lat="54.43158" lon="-6.17378">
        <ele>111.19</ele>
        <time>2021-03-20T21:26:06Z</time>
      </trkpt>
      <trkpt lat="54.43118" lon="-6.17361">
        <ele>110.25</ele>
        <time>2021-03-20T21:26:11Z</time>
      </trkpt>
      <trkpt lat="54.43086" lon="-6.17316">
        <ele>105.29</ele>
        <time>2021-03-20T21:26:15Z</time>
      </trkpt>
      <trkpt lat="54.43057" lon="-6.17238">
        <ele>102.63</ele>
        <time>2021-03-20T21:26:20Z</time>
      </trkpt>
      <trkpt lat="54.43016" lon="-6.17151">
        <ele>97.82</ele>
        <time>2021-03-20T21:26:25Z</time>
      </trkpt>
      <trkpt lat="54.43" lon="-6.17093">
        <ele>96.01</ele>
        <time>2021-03-20T21:26:29Z</time>
      </trkpt>
      <trkpt lat="54.4299" lon="-6.17037">
        <ele>96.35</ele>
        <time>2021-03-20T21:26:34Z</time>
      </trkpt>
      <trkpt lat="54.42977" lon="-6.17006">
        <ele>96.05</ele>
        <time>2021-03-20T21:26:38Z</time>
      </trkpt>
      <trkpt lat="54.42955" lon="-6.16975">
        <ele>94.49</ele>
        <time>2021-03-20T21:26:43Z</time>
      </trkpt>
      <trkpt lat="54.42894" lon="-6.16898">
        <ele>90.74</ele>
        <time>2021-03-20T21:26:47Z</time>
      </trkpt>
      <trkpt lat="54.42855" lon="-6.16827">
        <ele>90.36</ele>
        <time>2021-03-20T21:26:52Z</time>
      </trkpt>
      <trkpt lat="54.42837" lon="-6.16803">
        <ele>89.33</ele>
        <time>2021-03-20T21:26:56Z</time>
      </trkpt>
      <trkpt lat="54.42802" lon="-6.16768">
        <ele>87.77</ele>
        <time>2021-03-20T21:27:01Z</time>
      </trkpt>
      <trkpt lat="54.42784" lon="-6.16745">
        <ele>86.62</ele>
        <time>2021-03-20T21:27:05Z</time>
      </trkpt>
      <trkpt lat="54.42757" lon="-6.16719">
        <ele>85.53</ele>
        <time>2021-03-20T21:27:10Z</time>
      </trkpt>
      <trkpt lat="54.42742" lon="-6.16709">
        <ele>84.3</ele>
        <time>2021-03-20T21:27:14Z</time>
      </trkpt>
      <trkpt lat="54.42685" lon="-6.16705">
        <ele>82.94</ele>
        <time>2021-03-20T21:27:19Z</time>
      </trkpt>
      <trkpt lat="54.42632" lon="-6.16684">
        <ele>85.34</ele>
        <time>2021-03-20T21:27:23Z</time>
      </trkpt>
      <trkpt lat="54.42619" lon="-6.16674">
        <ele>86.24</ele>
        <time>2021-03-20T21:27:28Z</time>
      </trkpt>
      <trkpt lat="54.42602" lon="-6.16657">
        <ele>87.43</ele>
        <time>2021-03-20T21:27:32Z</time>
      </trkpt>
      <trkpt lat="54.42586" lon="-6.16637">
        <ele>88.87</ele>
        <time>2021-03-20T21:27:37Z</time>
      </trkpt>
      <trkpt lat="54.42578" lon="-6.16618">
        <ele>90.05</ele>
        <time>2021-03-20T21:27:41Z</time>
      </trkpt>
      <trkpt lat="54.42545" lon="-6.16599">
        <ele>94.43</ele>
        <time>2021-03-20T21:27:46Z</time>
      </trkpt>
      <trkpt lat="54.42451" lon="-6.16566">
        <ele>105.96</ele>
        <time>2021-03-20T21:27:50Z</time>
      </trkpt>
      <trkpt lat="54.42136" lon="-6.16658">
        <ele>103</ele>
        <time>2021-03-20T21:27:55Z</time>
      </trkpt>
      <trkpt lat="54.42078" lon="-6.16688">
        <ele>104.95</ele>
        <time>2021-03-20T21:28:00Z</time>
      </trkpt>
      <trkpt lat="54.41962" lon="-6.16762">
        <ele>102.8</ele>
        <time>2021-03-20T21:28:04Z</time>
      </trkpt>
      <trkpt lat="54.41885" lon="-6.16776">
        <ele>96.25</ele>
        <time>2021-03-20T21:28:09Z</time>
      </trkpt>
      <trkpt lat="54.41844" lon="-6.16786">
        <ele>91.18</ele>
        <time>2021-03-20T21:28:13Z</time>
      </trkpt>
      <trkpt lat="54.41746" lon="-6.16775">
        <ele>76.59</ele>
        <time>2021-03-20T21:28:18Z</time>
      </trkpt>
      <trkpt lat="54.41645" lon="-6.16782">
        <ele>68.08</ele>
        <time>2021-03-20T21:28:22Z</time>
      </trkpt>
      <trkpt lat="54.41588" lon="-6.16581">
        <ele>67.74</ele>
        <time>2021-03-20T21:28:34Z</time>
      </trkpt>
      <trkpt lat="54.4152" lon="-6.16305">
        <ele>67.99</ele>
        <time>2021-03-20T21:28:45Z</time>
      </trkpt>
      <trkpt lat="54.41491" lon="-6.16177">
        <ele>69.38</ele>
        <time>2021-03-20T21:28:57Z</time>
      </trkpt>
      <trkpt lat="54.41539" lon="-6.16143">
        <ele>70.94</ele>
        <time>2021-03-20T21:28:59Z</time>
      </trkpt>
      <trkpt lat="54.41546" lon="-6.16133">
        <ele>70.97</ele>
        <time>2021-03-20T21:29:01Z</time>
      </trkpt>
      <trkpt lat="54.41552" lon="-6.16118">
        <ele>71.1</ele>
        <time>2021-03-20T21:29:03Z</time>
      </trkpt>
      <trkpt lat="54.41556" lon="-6.16099">
        <ele>71.37</ele>
        <time>2021-03-20T21:29:05Z</time>
      </trkpt>
      <trkpt lat="54.41557" lon="-6.16079">
        <ele>72.04</ele>
        <time>2021-03-20T21:29:07Z</time>
      </trkpt>
      <trkpt lat="54.41554" lon="-6.16058">
        <ele>73.02</ele>
        <time>2021-03-20T21:29:09Z</time>
      </trkpt>
      <trkpt lat="54.41545" lon="-6.16039">
        <ele>73.75</ele>
        <time>2021-03-20T21:29:11Z</time>
      </trkpt>
      <trkpt lat="54.41529" lon="-6.1601">
        <ele>74.3</ele>
        <time>2021-03-20T21:29:13Z</time>
      </trkpt>
      <trkpt lat="54.41525" lon="-6.15979">
        <ele>74.19</ele>
        <time>2021-03-20T21:29:15Z</time>
      </trkpt>
      <trkpt lat="54.41526" lon="-6.15966">
        <ele>74.34</ele>
        <time>2021-03-20T21:29:17Z</time>
      </trkpt>
      <trkpt lat="54.41531" lon="-6.15952">
        <ele>74.54</ele>
        <time>2021-03-20T21:29:19Z</time>
      </trkpt>
      <trkpt lat="54.41557" lon="-6.15902">
        <ele>74.2</ele>
        <time>2021-03-20T21:29:21Z</time>
      </trkpt>
      <trkpt lat="54.41583" lon="-6.15847">
        <ele>70.24</ele>
        <time>2021-03-20T21:29:22Z</time>
      </trkpt>
      <trkpt lat="54.41623" lon="-6.15765">
        <ele>69.71</ele>
        <time>2021-03-20T21:29:24Z</time>
      </trkpt>
      <trkpt lat="54.4161" lon="-6.15747">
        <ele>72.51</ele>
        <time>2021-03-20T21:29:29Z</time>
      </trkpt>
      <trkpt lat="54.41562" lon="-6.15844">
        <ele>76.29</ele>
        <time>2021-03-20T21:29:33Z</time>
      </trkpt>
      <trkpt lat="54.41518" lon="-6.15922">
        <ele>77.98</ele>
        <time>2021-03-20T21:29:37Z</time>
      </trkpt>
      <trkpt lat="54.4147" lon="-6.15998">
        <ele>77.37</ele>
        <time>2021-03-20T21:29:41Z</time>
      </trkpt>
      <trkpt lat="54.41409" lon="-6.16081">
        <ele>75.78</ele>
        <time>2021-03-20T21:29:46Z</time>
      </trkpt>
      <trkpt lat="54.41334" lon="-6.16168">
        <ele>84.01</ele>
        <time>2021-03-20T21:29:50Z</time>
      </trkpt>
      <trkpt lat="54.41282" lon="-6.16217">
        <ele>81.27</ele>
        <time>2021-03-20T21:29:54Z</time>
      </trkpt>
      <trkpt lat="54.41205" lon="-6.16282">
        <ele>81.64</ele>
        <time>2021-03-20T21:29:58Z</time>
      </trkpt>
      <trkpt lat="54.41144" lon="-6.16328">
        <ele>83.58</ele>
        <time>2021-03-20T21:30:03Z</time>
      </trkpt>
      <trkpt lat="54.41051" lon="-6.1638">
        <ele>84.61</ele>
        <time>2021-03-20T21:30:07Z</time>
      </trkpt>
      <trkpt lat="54.40813" lon="-6.1648">
        <ele>94.83</ele>
        <time>2021-03-20T21:30:11Z</time>
      </trkpt>
      <trkpt lat="54.40739" lon="-6.16517">
        <ele>95.22</ele>
        <time>2021-03-20T21:30:15Z</time>
      </trkpt>
      <trkpt lat="54.4069" lon="-6.16551">
        <ele>95.25</ele>
        <time>2021-03-20T21:30:20Z</time>
      </trkpt>
      <trkpt lat="54.40641" lon="-6.16591">
        <ele>90.96</ele>
        <time>2021-03-20T21:30:24Z</time>
      </trkpt>
      <trkpt lat="54.40598" lon="-6.1663">
        <ele>91.13</ele>
        <time>2021-03-20T21:30:28Z</time>
      </trkpt>
      <trkpt lat="54.40529" lon="-6.16708">
        <ele>86.64</ele>
        <time>2021-03-20T21:30:32Z</time>
      </trkpt>
      <trkpt lat="54.4048" lon="-6.16774">
        <ele>87.87</ele>
        <time>2021-03-20T21:30:36Z</time>
      </trkpt>
      <trkpt lat="54.40445" lon="-6.1683">
        <ele>87.01</ele>
        <time>2021-03-20T21:30:41Z</time>
      </trkpt>
      <trkpt lat="54.40362" lon="-6.16968">
        <ele>84.16</ele>
        <time>2021-03-20T21:30:45Z</time>
      </trkpt>
      <trkpt lat="54.40298" lon="-6.17071">
        <ele>87.29</ele>
        <time>2021-03-20T21:30:49Z</time>
      </trkpt>
      <trkpt lat="54.40238" lon="-6.17144">
        <ele>84.84</ele>
        <time>2021-03-20T21:30:53Z</time>
      </trkpt>
      <trkpt lat="54.40013" lon="-6.17388">
        <ele>91.46</ele>
        <time>2021-03-20T21:30:58Z</time>
      </trkpt>
      <trkpt lat="54.39969" lon="-6.17427">
        <ele>91.48</ele>
        <time>2021-03-20T21:31:02Z</time>
      </trkpt>
      <trkpt lat="54.39941" lon="-6.17458">
        <ele>93.54</ele>
        <time>2021-03-20T21:31:06Z</time>
      </trkpt>
      <trkpt lat="54.39888" lon="-6.17495">
        <ele>94</ele>
        <time>2021-03-20T21:31:10Z</time>
      </trkpt>
      <trkpt lat="54.39814" lon="-6.17534">
        <ele>96.77</ele>
        <time>2021-03-20T21:31:15Z</time>
      </trkpt>
      <trkpt lat="54.39725" lon="-6.17561">
        <ele>98.47</ele>
        <time>2021-03-20T21:31:19Z</time>
      </trkpt>
      <trkpt lat="54.39645" lon="-6.17569">
        <ele>97.41</ele>
        <time>2021-03-20T21:31:23Z</time>
      </trkpt>
      <trkpt lat="54.39479" lon="-6.1756">
        <ele>96.36</ele>
        <time>2021-03-20T21:31:27Z</time>
      </trkpt>
      <trkpt lat="54.39422" lon="-6.17563">
        <ele>93.58</ele>
        <time>2021-03-20T21:31:32Z</time>
      </trkpt>
      <trkpt lat="54.39354" lon="-6.17571">
        <ele>91.55</ele>
        <time>2021-03-20T21:31:36Z</time>
      </trkpt>
      <trkpt lat="54.39325" lon="-6.17577">
        <ele>91.46</ele>
        <time>2021-03-20T21:31:40Z</time>
      </trkpt>
      <trkpt lat="54.39314" lon="-6.17477">
        <ele>90.29</ele>
        <time>2021-03-20T21:31:42Z</time>
      </trkpt>
      <trkpt lat="54.39308" lon="-6.17452">
        <ele>90.09</ele>
        <time>2021-03-20T21:31:43Z</time>
      </trkpt>
      <trkpt lat="54.39301" lon="-6.17431">
        <ele>89.82</ele>
        <time>2021-03-20T21:31:45Z</time>
      </trkpt>
      <trkpt lat="54.39287" lon="-6.17405">
        <ele>89.76</ele>
        <time>2021-03-20T21:31:47Z</time>
      </trkpt>
      <trkpt lat="54.39261" lon="-6.17366">
        <ele>89.89</ele>
        <time>2021-03-20T21:31:48Z</time>
      </trkpt>
      <trkpt lat="54.39236" lon="-6.17322">
        <ele>89.96</ele>
        <time>2021-03-20T21:31:50Z</time>
      </trkpt>
      <trkpt lat="54.39217" lon="-6.17285">
        <ele>89.16</ele>
        <time>2021-03-20T21:31:51Z</time>
      </trkpt>
      <trkpt lat="54.39207" lon="-6.1727">
        <ele>88.48</ele>
        <time>2021-03-20T21:31:53Z</time>
      </trkpt>
      <trkpt lat="54.39175" lon="-6.17233">
        <ele>87.21</ele>
        <time>2021-03-20T21:31:55Z</time>
      </trkpt>
      <trkpt lat="54.39163" lon="-6.17224">
        <ele>86.8</ele>
        <time>2021-03-20T21:31:56Z</time>
      </trkpt>
      <trkpt lat="54.39126" lon="-6.17211">
        <ele>85.86</ele>
        <time>2021-03-20T21:31:58Z</time>
      </trkpt>
      <trkpt lat="54.39115" lon="-6.172">
        <ele>85.86</ele>
        <time>2021-03-20T21:32:00Z</time>
      </trkpt>
      <trkpt lat="54.39077" lon="-6.17145">
        <ele>88.88</ele>
        <time>2021-03-20T21:32:01Z</time>
      </trkpt>
      <trkpt lat="54.39051" lon="-6.1709">
        <ele>89.22</ele>
        <time>2021-03-20T21:32:03Z</time>
      </trkpt>
      <trkpt lat="54.39032" lon="-6.17058">
        <ele>89.32</ele>
        <time>2021-03-20T21:32:05Z</time>
      </trkpt>
      <trkpt lat="54.38998" lon="-6.17019">
        <ele>89.68</ele>
        <time>2021-03-20T21:32:06Z</time>
      </trkpt>
      <trkpt lat="54.38986" lon="-6.16973">
        <ele>91.5</ele>
        <time>2021-03-20T21:32:08Z</time>
      </trkpt>
      <trkpt lat="54.38955" lon="-6.17005">
        <ele>91.73</ele>
        <time>2021-03-20T21:32:11Z</time>
      </trkpt>
      <trkpt lat="54.3887" lon="-6.17056">
        <ele>100.39</ele>
        <time>2021-03-20T21:32:13Z</time>
      </trkpt>
      <trkpt lat="54.38707" lon="-6.17176">
        <ele>100.22</ele>
        <time>2021-03-20T21:32:16Z</time>
      </trkpt>
      <trkpt lat="54.38679" lon="-6.17206">
        <ele>99.57</ele>
        <time>2021-03-20T21:32:19Z</time>
      </trkpt>
      <trkpt lat="54.38639" lon="-6.1724">
        <ele>99.17</ele>
        <time>2021-03-20T21:32:21Z</time>
      </trkpt>
      <trkpt lat="54.38608" lon="-6.17269">
        <ele>94.97</ele>
        <time>2021-03-20T21:32:24Z</time>
      </trkpt>
      <trkpt lat="54.3858" lon="-6.1728">
        <ele>92.68</ele>
        <time>2021-03-20T21:32:27Z</time>
      </trkpt>
      <trkpt lat="54.38557" lon="-6.17285">
        <ele>90.7</ele>
        <time>2021-03-20T21:32:30Z</time>
      </trkpt>
      <trkpt lat="54.38516" lon="-6.17289">
        <ele>88.51</ele>
        <time>2021-03-20T21:32:32Z</time>
      </trkpt>
      <trkpt lat="54.385" lon="-6.17292">
        <ele>87.51</ele>
        <time>2021-03-20T21:32:35Z</time>
      </trkpt>
      <trkpt lat="54.38489" lon="-6.17299">
        <ele>87.44</ele>
        <time>2021-03-20T21:32:38Z</time>
      </trkpt>
      <trkpt lat="54.38469" lon="-6.1732">
        <ele>87</ele>
        <time>2021-03-20T21:32:41Z</time>
      </trkpt>
      <trkpt lat="54.3844" lon="-6.17379">
        <ele>85.85</ele>
        <time>2021-03-20T21:32:43Z</time>
      </trkpt>
      <trkpt lat="54.38423" lon="-6.17399">
        <ele>85.14</ele>
        <time>2021-03-20T21:32:46Z</time>
      </trkpt>
      <trkpt lat="54.38413" lon="-6.17408">
        <ele>84.96</ele>
        <time>2021-03-20T21:32:49Z</time>
      </trkpt>
      <trkpt lat="54.38396" lon="-6.17418">
        <ele>85.03</ele>
        <time>2021-03-20T21:32:51Z</time>
      </trkpt>
      <trkpt lat="54.38348" lon="-6.17439">
        <ele>85.42</ele>
        <time>2021-03-20T21:32:54Z</time>
      </trkpt>
      <trkpt lat="54.38334" lon="-6.17448">
        <ele>85.29</ele>
        <time>2021-03-20T21:32:57Z</time>
      </trkpt>
      <trkpt lat="54.38323" lon="-6.17448">
        <ele>85.18</ele>
        <time>2021-03-20T21:33:00Z</time>
      </trkpt>
      <trkpt lat="54.38261" lon="-6.17463">
        <ele>84.06</ele>
        <time>2021-03-20T21:33:02Z</time>
      </trkpt>
      <trkpt lat="54.3822" lon="-6.17479">
        <ele>82.93</ele>
        <time>2021-03-20T21:33:05Z</time>
      </trkpt>
      <trkpt lat="54.38132" lon="-6.17528">
        <ele>81.25</ele>
        <time>2021-03-20T21:33:08Z</time>
      </trkpt>
      <trkpt lat="54.37944" lon="-6.17618">
        <ele>82.74</ele>
        <time>2021-03-20T21:33:11Z</time>
      </trkpt>
      <trkpt lat="54.37914" lon="-6.17632">
        <ele>80.34</ele>
        <time>2021-03-20T21:33:13Z</time>
      </trkpt>
      <trkpt lat="54.37844" lon="-6.17656">
        <ele>81</ele>
        <time>2021-03-20T21:33:16Z</time>
      </trkpt>
      <trkpt lat="54.37832" lon="-6.17668">
        <ele>81.22</ele>
        <time>2021-03-20T21:33:19Z</time>
      </trkpt>
      <trkpt lat="54.37827" lon="-6.17677">
        <ele>82.22</ele>
        <time>2021-03-20T21:33:21Z</time>
      </trkpt>
      <trkpt lat="54.37823" lon="-6.17692">
        <ele>83.57</ele>
        <time>2021-03-20T21:33:24Z</time>
      </trkpt>
      <trkpt lat="54.37811" lon="-6.17751">
        <ele>88.42</ele>
        <time>2021-03-20T21:33:27Z</time>
      </trkpt>
      <trkpt lat="54.37803" lon="-6.17773">
        <ele>90.04</ele>
        <time>2021-03-20T21:33:30Z</time>
      </trkpt>
      <trkpt lat="54.3779" lon="-6.17785">
        <ele>91.01</ele>
        <time>2021-03-20T21:33:32Z</time>
      </trkpt>
      <trkpt lat="54.3776" lon="-6.1779">
        <ele>92.21</ele>
        <time>2021-03-20T21:33:35Z</time>
      </trkpt>
      <trkpt lat="54.37684" lon="-6.17782">
        <ele>92.96</ele>
        <time>2021-03-20T21:33:38Z</time>
      </trkpt>
      <trkpt lat="54.37616" lon="-6.17768">
        <ele>90.52</ele>
        <time>2021-03-20T21:33:41Z</time>
      </trkpt>
      <trkpt lat="54.37529" lon="-6.17769">
        <ele>90.31</ele>
        <time>2021-03-20T21:33:43Z</time>
      </trkpt>
      <trkpt lat="54.37475" lon="-6.17751">
        <ele>93.78</ele>
        <time>2021-03-20T21:33:46Z</time>
      </trkpt>
      <trkpt lat="54.37362" lon="-6.17691">
        <ele>96.12</ele>
        <time>2021-03-20T21:33:49Z</time>
      </trkpt>
      <trkpt lat="54.3732" lon="-6.17675">
        <ele>96.36</ele>
        <time>2021-03-20T21:33:51Z</time>
      </trkpt>
      <trkpt lat="54.37263" lon="-6.17658">
        <ele>94.17</ele>
        <time>2021-03-20T21:33:54Z</time>
      </trkpt>
      <trkpt lat="54.37143" lon="-6.17614">
        <ele>94.94</ele>
        <time>2021-03-20T21:33:57Z</time>
      </trkpt>
      <trkpt lat="54.37091" lon="-6.17611">
        <ele>95.5</ele>
        <time>2021-03-20T21:34:00Z</time>
      </trkpt>
      <trkpt lat="54.37003" lon="-6.17619">
        <ele>93.08</ele>
        <time>2021-03-20T21:34:02Z</time>
      </trkpt>
      <trkpt lat="54.36966" lon="-6.17612">
        <ele>91.81</ele>
        <time>2021-03-20T21:34:05Z</time>
      </trkpt>
      <trkpt lat="54.36851" lon="-6.17567">
        <ele>91.8</ele>
        <time>2021-03-20T21:34:08Z</time>
      </trkpt>
      <trkpt lat="54.3684" lon="-6.17565">
        <ele>91.64</ele>
        <time>2021-03-20T21:34:11Z</time>
      </trkpt>
      <trkpt lat="54.36791" lon="-6.1757">
        <ele>93.32</ele>
        <time>2021-03-20T21:34:13Z</time>
      </trkpt>
      <trkpt lat="54.36773" lon="-6.17569">
        <ele>95.31</ele>
        <time>2021-03-20T21:34:16Z</time>
      </trkpt>
      <trkpt lat="54.3675" lon="-6.17563">
        <ele>96.58</ele>
        <time>2021-03-20T21:34:19Z</time>
      </trkpt>
      <trkpt lat="54.36648" lon="-6.17523">
        <ele>101.47</ele>
        <time>2021-03-20T21:34:22Z</time>
      </trkpt>
      <trkpt lat="54.36636" lon="-6.17515">
        <ele>101.63</ele>
        <time>2021-03-20T21:34:24Z</time>
      </trkpt>
      <trkpt lat="54.36587" lon="-6.17457">
        <ele>105.34</ele>
        <time>2021-03-20T21:34:27Z</time>
      </trkpt>
      <trkpt lat="54.365" lon="-6.17331">
        <ele>103.97</ele>
        <time>2021-03-20T21:34:30Z</time>
      </trkpt>
      <trkpt lat="54.36455" lon="-6.17271">
        <ele>99.69</ele>
        <time>2021-03-20T21:34:32Z</time>
      </trkpt>
      <trkpt lat="54.36436" lon="-6.17231">
        <ele>98.76</ele>
        <time>2021-03-20T21:34:35Z</time>
      </trkpt>
      <trkpt lat="54.36428" lon="-6.17206">
        <ele>98.41</ele>
        <time>2021-03-20T21:34:38Z</time>
      </trkpt>
      <trkpt lat="54.36407" lon="-6.1712">
        <ele>95.85</ele>
        <time>2021-03-20T21:34:41Z</time>
      </trkpt>
      <trkpt lat="54.36387" lon="-6.17056">
        <ele>95.07</ele>
        <time>2021-03-20T21:34:43Z</time>
      </trkpt>
      <trkpt lat="54.36386" lon="-6.17061">
        <ele>95.1</ele>
        <time>2021-03-20T21:34:44Z</time>
      </trkpt>
      <trkpt lat="54.36364" lon="-6.17039">
        <ele>95.91</ele>
        <time>2021-03-20T21:34:46Z</time>
      </trkpt>
      <trkpt lat="54.36356" lon="-6.17035">
        <ele>96.2</ele>
        <time>2021-03-20T21:34:48Z</time>
      </trkpt>
      <trkpt lat="54.36338" lon="-6.17033">
        <ele>96.84</ele>
        <time>2021-03-20T21:34:50Z</time>
      </trkpt>
      <trkpt lat="54.36139" lon="-6.17059">
        <ele>104.99</ele>
        <time>2021-03-20T21:34:53Z</time>
      </trkpt>
      <trkpt lat="54.36085" lon="-6.17064">
        <ele>103.79</ele>
        <time>2021-03-20T21:34:55Z</time>
      </trkpt>
      <trkpt lat="54.36069" lon="-6.17063">
        <ele>103.72</ele>
        <time>2021-03-20T21:34:57Z</time>
      </trkpt>
      <trkpt lat="54.3606" lon="-6.17057">
        <ele>103.94</ele>
        <time>2021-03-20T21:35:00Z</time>
      </trkpt>
      <trkpt lat="54.36054" lon="-6.17051">
        <ele>103.96</ele>
        <time>2021-03-20T21:35:02Z</time>
      </trkpt>
      <trkpt lat="54.35834" lon="-6.17481">
        <ele>93.02</ele>
        <time>2021-03-20T21:35:06Z</time>
      </trkpt>
      <trkpt lat="54.35693" lon="-6.17701">
        <ele>92</ele>
        <time>2021-03-20T21:35:11Z</time>
      </trkpt>
      <trkpt lat="54.35583" lon="-6.17859">
        <ele>93</ele>
        <time>2021-03-20T21:35:16Z</time>
      </trkpt>
      <trkpt lat="54.35384" lon="-6.18154">
        <ele>96</ele>
        <time>2021-03-20T21:35:20Z</time>
      </trkpt>
      <trkpt lat="54.35272" lon="-6.18333">
        <ele>96</ele>
        <time>2021-03-20T21:35:25Z</time>
      </trkpt>
      <trkpt lat="54.35213" lon="-6.18403">
        <ele>94.32</ele>
        <time>2021-03-20T21:35:29Z</time>
      </trkpt>
      <trkpt lat="54.3503" lon="-6.18738">
        <ele>99.51</ele>
        <time>2021-03-20T21:35:34Z</time>
      </trkpt>
      <trkpt lat="54.3489" lon="-6.18982">
        <ele>112.62</ele>
        <time>2021-03-20T21:35:38Z</time>
      </trkpt>
      <trkpt lat="54.34672" lon="-6.19104">
        <ele>105.39</ele>
        <time>2021-03-20T21:35:43Z</time>
      </trkpt>
      <trkpt lat="54.34539" lon="-6.19256">
        <ele>100.86</ele>
        <time>2021-03-20T21:35:47Z</time>
      </trkpt>
      <trkpt lat="54.34304" lon="-6.19703">
        <ele>94.96</ele>
        <time>2021-03-20T21:35:52Z</time>
      </trkpt>
      <trkpt lat="54.34232" lon="-6.20153">
        <ele>87.31</ele>
        <time>2021-03-20T21:35:57Z</time>
      </trkpt>
      <trkpt lat="54.3422" lon="-6.202">
        <ele>87.08</ele>
        <time>2021-03-20T21:36:01Z</time>
      </trkpt>
      <trkpt lat="54.34185" lon="-6.20261">
        <ele>89.48</ele>
        <time>2021-03-20T21:36:06Z</time>
      </trkpt>
      <trkpt lat="54.34129" lon="-6.20322">
        <ele>92</ele>
        <time>2021-03-20T21:36:10Z</time>
      </trkpt>
      <trkpt lat="54.34049" lon="-6.20359">
        <ele>84.8</ele>
        <time>2021-03-20T21:36:15Z</time>
      </trkpt>
      <trkpt lat="54.33957" lon="-6.20385">
        <ele>77.9</ele>
        <time>2021-03-20T21:36:19Z</time>
      </trkpt>
      <trkpt lat="54.33909" lon="-6.20417">
        <ele>74.45</ele>
        <time>2021-03-20T21:36:24Z</time>
      </trkpt>
      <trkpt lat="54.33893" lon="-6.20421">
        <ele>73.29</ele>
        <time>2021-03-20T21:36:29Z</time>
      </trkpt>
      <trkpt lat="54.33867" lon="-6.20411">
        <ele>71.65</ele>
        <time>2021-03-20T21:36:33Z</time>
      </trkpt>
      <trkpt lat="54.33861" lon="-6.20412">
        <ele>71.08</ele>
        <time>2021-03-20T21:36:38Z</time>
      </trkpt>
      <trkpt lat="54.33854" lon="-6.20424">
        <ele>69.77</ele>
        <time>2021-03-20T21:36:42Z</time>
      </trkpt>
      <trkpt lat="54.33852" lon="-6.20435">
        <ele>69.25</ele>
        <time>2021-03-20T21:36:47Z</time>
      </trkpt>
      <trkpt lat="54.33856" lon="-6.20543">
        <ele>67.61</ele>
        <time>2021-03-20T21:36:51Z</time>
      </trkpt>
      <trkpt lat="54.33877" lon="-6.20673">
        <ele>69.93</ele>
        <time>2021-03-20T21:36:56Z</time>
      </trkpt>
      <trkpt lat="54.33877" lon="-6.2069">
        <ele>69.28</ele>
        <time>2021-03-20T21:37:01Z</time>
      </trkpt>
      <trkpt lat="54.33874" lon="-6.20696">
        <ele>68.96</ele>
        <time>2021-03-20T21:37:05Z</time>
      </trkpt>
      <trkpt lat="54.33871" lon="-6.207">
        <ele>68.72</ele>
        <time>2021-03-20T21:37:10Z</time>
      </trkpt>
      <trkpt lat="54.33835" lon="-6.20722">
        <ele>70.87</ele>
        <time>2021-03-20T21:37:14Z</time>
      </trkpt>
      <trkpt lat="54.33828" lon="-6.20729">
        <ele>71.58</ele>
        <time>2021-03-20T21:37:19Z</time>
      </trkpt>
      <trkpt lat="54.33821" lon="-6.20745">
        <ele>72.07</ele>
        <time>2021-03-20T21:37:23Z</time>
      </trkpt>
      <trkpt lat="54.3381" lon="-6.2076">
        <ele>73.6</ele>
        <time>2021-03-20T21:37:28Z</time>
      </trkpt>
      <trkpt lat="54.33798" lon="-6.20774">
        <ele>74.93</ele>
        <time>2021-03-20T21:37:33Z</time>
      </trkpt>
      <trkpt lat="54.33676" lon="-6.20868">
        <ele>75</ele>
        <time>2021-03-20T21:37:37Z</time>
      </trkpt>
      <trkpt lat="54.33665" lon="-6.20883">
        <ele>74.93</ele>
        <time>2021-03-20T21:37:42Z</time>
      </trkpt>
      <trkpt lat="54.33639" lon="-6.20933">
        <ele>73</ele>
        <time>2021-03-20T21:37:46Z</time>
      </trkpt>
      <trkpt lat="54.3363" lon="-6.20942">
        <ele>73</ele>
        <time>2021-03-20T21:37:51Z</time>
      </trkpt>
      <trkpt lat="54.33607" lon="-6.20954">
        <ele>73.35</ele>
        <time>2021-03-20T21:37:55Z</time>
      </trkpt>
      <trkpt lat="54.33581" lon="-6.20961">
        <ele>73.68</ele>
        <time>2021-03-20T21:38:00Z</time>
      </trkpt>
      <trkpt lat="54.33573" lon="-6.2097">
        <ele>74.28</ele>
        <time>2021-03-20T21:38:04Z</time>
      </trkpt>
      <trkpt lat="54.33506" lon="-6.21072">
        <ele>70.56</ele>
        <time>2021-03-20T21:38:09Z</time>
      </trkpt>
      <trkpt lat="54.33435" lon="-6.21153">
        <ele>72.15</ele>
        <time>2021-03-20T21:38:14Z</time>
      </trkpt>
      <trkpt lat="54.33282" lon="-6.21281">
        <ele>73.37</ele>
        <time>2021-03-20T21:38:18Z</time>
      </trkpt>
      <trkpt lat="54.33248" lon="-6.2132">
        <ele>73.6</ele>
        <time>2021-03-20T21:38:23Z</time>
      </trkpt>
      <trkpt lat="54.3316" lon="-6.21458">
        <ele>70.51</ele>
        <time>2021-03-20T21:38:27Z</time>
      </trkpt>
      <trkpt lat="54.33073" lon="-6.21631">
        <ele>70.45</ele>
        <time>2021-03-20T21:38:32Z</time>
      </trkpt>
      <trkpt lat="54.3304" lon="-6.2175">
        <ele>70.85</ele>
        <time>2021-03-20T21:38:36Z</time>
      </trkpt>
      <trkpt lat="54.32977" lon="-6.21895">
        <ele>69.04</ele>
        <time>2021-03-20T21:38:41Z</time>
      </trkpt>
      <trkpt lat="54.32815" lon="-6.22208">
        <ele>69.35</ele>
        <time>2021-03-20T21:38:46Z</time>
      </trkpt>
      <trkpt lat="54.328" lon="-6.22234">
        <ele>69.42</ele>
        <time>2021-03-20T21:38:50Z</time>
      </trkpt>
      <trkpt lat="54.32783" lon="-6.22252">
        <ele>70.04</ele>
        <time>2021-03-20T21:38:55Z</time>
      </trkpt>
      <trkpt lat="54.32754" lon="-6.2227">
        <ele>70.7</ele>
        <time>2021-03-20T21:38:59Z</time>
      </trkpt>
      <trkpt lat="54.32564" lon="-6.22375">
        <ele>82.75</ele>
        <time>2021-03-20T21:39:04Z</time>
      </trkpt>
      <trkpt lat="54.32483" lon="-6.22405">
        <ele>87.44</ele>
        <time>2021-03-20T21:39:08Z</time>
      </trkpt>
      <trkpt lat="54.32413" lon="-6.2246">
        <ele>84.7</ele>
        <time>2021-03-20T21:39:13Z</time>
      </trkpt>
      <trkpt lat="54.32363" lon="-6.2253">
        <ele>82.1</ele>
        <time>2021-03-20T21:39:18Z</time>
      </trkpt>
      <trkpt lat="54.3234" lon="-6.22548">
        <ele>80.31</ele>
        <time>2021-03-20T21:39:22Z</time>
      </trkpt>
      <trkpt lat="54.32321" lon="-6.22559">
        <ele>79.74</ele>
        <time>2021-03-20T21:39:27Z</time>
      </trkpt>
      <trkpt lat="54.32303" lon="-6.22575">
        <ele>80.36</ele>
        <time>2021-03-20T21:39:31Z</time>
      </trkpt>
      <trkpt lat="54.3229" lon="-6.22595">
        <ele>81.42</ele>
        <time>2021-03-20T21:39:36Z</time>
      </trkpt>
      <trkpt lat="54.32276" lon="-6.22632">
        <ele>82.76</ele>
        <time>2021-03-20T21:39:40Z</time>
      </trkpt>
      <trkpt lat="54.32243" lon="-6.22742">
        <ele>82.44</ele>
        <time>2021-03-20T21:39:45Z</time>
      </trkpt>
      <trkpt lat="54.32226" lon="-6.22812">
        <ele>83</ele>
        <time>2021-03-20T21:39:49Z</time>
      </trkpt>
      <trkpt lat="54.322" lon="-6.22896">
        <ele>83.67</ele>
        <time>2021-03-20T21:39:54Z</time>
      </trkpt>
      <trkpt lat="54.32176" lon="-6.22987">
        <ele>85</ele>
        <time>2021-03-20T21:39:59Z</time>
      </trkpt>
      <trkpt lat="54.32101" lon="-6.22912">
        <ele>84.56</ele>
        <time>2021-03-20T21:40:00Z</time>
      </trkpt>
      <trkpt lat="54.3203" lon="-6.22854">
        <ele>84.82</ele>
        <time>2021-03-20T21:40:02Z</time>
      </trkpt>
      <trkpt lat="54.32006" lon="-6.22843">
        <ele>84.35</ele>
        <time>2021-03-20T21:40:03Z</time>
      </trkpt>
      <trkpt lat="54.31984" lon="-6.22837">
        <ele>84.11</ele>
        <time>2021-03-20T21:40:05Z</time>
      </trkpt>
      <trkpt lat="54.31903" lon="-6.22822">
        <ele>81</ele>
        <time>2021-03-20T21:40:06Z</time>
      </trkpt>
      <trkpt lat="54.31889" lon="-6.22814">
        <ele>81.01</ele>
        <time>2021-03-20T21:40:08Z</time>
      </trkpt>
      <trkpt lat="54.3188" lon="-6.22805">
        <ele>81.64</ele>
        <time>2021-03-20T21:40:09Z</time>
      </trkpt>
      <trkpt lat="54.31873" lon="-6.22795">
        <ele>82.11</ele>
        <time>2021-03-20T21:40:11Z</time>
      </trkpt>
      <trkpt lat="54.3187" lon="-6.22782">
        <ele>82.37</ele>
        <time>2021-03-20T21:40:12Z</time>
      </trkpt>
      <trkpt lat="54.31869" lon="-6.2274">
        <ele>82.11</ele>
        <time>2021-03-20T21:40:14Z</time>
      </trkpt>
      <trkpt lat="54.31866" lon="-6.22719">
        <ele>81.53</ele>
        <time>2021-03-20T21:40:16Z</time>
      </trkpt>
      <trkpt lat="54.31861" lon="-6.22698">
        <ele>81.13</ele>
        <time>2021-03-20T21:40:17Z</time>
      </trkpt>
      <trkpt lat="54.31853" lon="-6.22672">
        <ele>81.11</ele>
        <time>2021-03-20T21:40:19Z</time>
      </trkpt>
      <trkpt lat="54.31844" lon="-6.22653">
        <ele>81.81</ele>
        <time>2021-03-20T21:40:20Z</time>
      </trkpt>
      <trkpt lat="54.31834" lon="-6.22632">
        <ele>82.93</ele>
        <time>2021-03-20T21:40:22Z</time>
      </trkpt>
      <trkpt lat="54.31819" lon="-6.22611">
        <ele>84.52</ele>
        <time>2021-03-20T21:40:23Z</time>
      </trkpt>
      <trkpt lat="54.31806" lon="-6.2258">
        <ele>85.87</ele>
        <time>2021-03-20T21:40:26Z</time>
      </trkpt>
      <trkpt lat="54.31768" lon="-6.22515">
        <ele>86.83</ele>
        <time>2021-03-20T21:40:28Z</time>
      </trkpt>
      <trkpt lat="54.31748" lon="-6.22487">
        <ele>86.9</ele>
        <time>2021-03-20T21:40:31Z</time>
      </trkpt>
      <trkpt lat="54.31732" lon="-6.22472">
        <ele>87.47</ele>
        <time>2021-03-20T21:40:33Z</time>
      </trkpt>
      <trkpt lat="54.31716" lon="-6.22459">
        <ele>88.02</ele>
        <time>2021-03-20T21:40:36Z</time>
      </trkpt>
      <trkpt lat="54.31642" lon="-6.22417">
        <ele>89.9</ele>
        <time>2021-03-20T21:40:38Z</time>
      </trkpt>
      <trkpt lat="54.31551" lon="-6.22354">
        <ele>88.53</ele>
        <time>2021-03-20T21:40:41Z</time>
      </trkpt>
      <trkpt lat="54.315" lon="-6.22305">
        <ele>90.01</ele>
        <time>2021-03-20T21:40:43Z</time>
      </trkpt>
      <trkpt lat="54.31462" lon="-6.22259">
        <ele>92.77</ele>
        <time>2021-03-20T21:40:46Z</time>
      </trkpt>
      <trkpt lat="54.31424" lon="-6.22227">
        <ele>94.5</ele>
        <time>2021-03-20T21:40:48Z</time>
      </trkpt>
      <trkpt lat="54.31392" lon="-6.22206">
        <ele>95</ele>
        <time>2021-03-20T21:40:51Z</time>
      </trkpt>
      <trkpt lat="54.31332" lon="-6.22186">
        <ele>96.31</ele>
        <time>2021-03-20T21:40:53Z</time>
      </trkpt>
      <trkpt lat="54.31284" lon="-6.22163">
        <ele>98.54</ele>
        <time>2021-03-20T21:40:56Z</time>
      </trkpt>
      <trkpt lat="54.31277" lon="-6.22173">
        <ele>98.77</ele>
        <time>2021-03-20T21:40:58Z</time>
      </trkpt>
      <trkpt lat="54.31267" lon="-6.22175">
        <ele>99.09</ele>
        <time>2021-03-20T21:41:00Z</time>
      </trkpt>
      <trkpt lat="54.31239" lon="-6.22154">
        <ele>100.41</ele>
        <time>2021-03-20T21:41:03Z</time>
      </trkpt>
      <trkpt lat="54.31184" lon="-6.22119">
        <ele>102.66</ele>
        <time>2021-03-20T21:41:05Z</time>
      </trkpt>
      <trkpt lat="54.31127" lon="-6.22097">
        <ele>104.14</ele>
        <time>2021-03-20T21:41:07Z</time>
      </trkpt>
      <trkpt lat="54.31096" lon="-6.22089">
        <ele>106.23</ele>
        <time>2021-03-20T21:41:09Z</time>
      </trkpt>
      <trkpt lat="54.31057" lon="-6.22074">
        <ele>107.26</ele>
        <time>2021-03-20T21:41:11Z</time>
      </trkpt>
      <trkpt lat="54.30975" lon="-6.2203">
        <ele>109.06</ele>
        <time>2021-03-20T21:41:14Z</time>
      </trkpt>
      <trkpt lat="54.30896" lon="-6.21979">
        <ele>110.69</ele>
        <time>2021-03-20T21:41:16Z</time>
      </trkpt>
      <trkpt lat="54.3088" lon="-6.2197">
        <ele>111.59</ele>
        <time>2021-03-20T21:41:18Z</time>
      </trkpt>
      <trkpt lat="54.3082" lon="-6.21949">
        <ele>114.33</ele>
        <time>2021-03-20T21:41:20Z</time>
      </trkpt>
      <trkpt lat="54.30798" lon="-6.21935">
        <ele>115</ele>
        <time>2021-03-20T21:41:22Z</time>
      </trkpt>
      <trkpt lat="54.30784" lon="-6.2192">
        <ele>115</ele>
        <time>2021-03-20T21:41:25Z</time>
      </trkpt>
      <trkpt lat="54.30729" lon="-6.21999">
        <ele>113.25</ele>
        <time>2021-03-20T21:41:27Z</time>
      </trkpt>
      <trkpt lat="54.30653" lon="-6.22183">
        <ele>118.09</ele>
        <time>2021-03-20T21:41:30Z</time>
      </trkpt>
      <trkpt lat="54.30641" lon="-6.22219">
        <ele>118.07</ele>
        <time>2021-03-20T21:41:32Z</time>
      </trkpt>
      <trkpt lat="54.30619" lon="-6.223">
        <ele>120.78</ele>
        <time>2021-03-20T21:41:35Z</time>
      </trkpt>
      <trkpt lat="54.30595" lon="-6.22378">
        <ele>119.4</ele>
        <time>2021-03-20T21:41:37Z</time>
      </trkpt>
      <trkpt lat="54.30474" lon="-6.22721">
        <ele>128</ele>
        <time>2021-03-20T21:41:40Z</time>
      </trkpt>
      <trkpt lat="54.30432" lon="-6.22877">
        <ele>133.01</ele>
        <time>2021-03-20T21:41:42Z</time>
      </trkpt>
      <trkpt lat="54.30409" lon="-6.22949">
        <ele>138.31</ele>
        <time>2021-03-20T21:41:45Z</time>
      </trkpt>
      <trkpt lat="54.30381" lon="-6.23018">
        <ele>140.82</ele>
        <time>2021-03-20T21:41:47Z</time>
      </trkpt>
      <trkpt lat="54.30302" lon="-6.23181">
        <ele>144.37</ele>
        <time>2021-03-20T21:41:50Z</time>
      </trkpt>
      <trkpt lat="54.30264" lon="-6.23264">
        <ele>145</ele>
        <time>2021-03-20T21:41:52Z</time>
      </trkpt>
      <trkpt lat="54.30168" lon="-6.23446">
        <ele>155.03</ele>
        <time>2021-03-20T21:41:55Z</time>
      </trkpt>
      <trkpt lat="54.30153" lon="-6.23471">
        <ele>157.88</ele>
        <time>2021-03-20T21:41:57Z</time>
      </trkpt>
      <trkpt lat="54.30117" lon="-6.23509">
        <ele>161.61</ele>
        <time>2021-03-20T21:42:00Z</time>
      </trkpt>
      <trkpt lat="54.30079" lon="-6.23541">
        <ele>165.4</ele>
        <time>2021-03-20T21:42:02Z</time>
      </trkpt>
      <trkpt lat="54.30037" lon="-6.23587">
        <ele>171.09</ele>
        <time>2021-03-20T21:42:05Z</time>
      </trkpt>
      <trkpt lat="54.30008" lon="-6.23629">
        <ele>173.65</ele>
        <time>2021-03-20T21:42:07Z</time>
      </trkpt>
      <trkpt lat="54.29997" lon="-6.23643">
        <ele>174.27</ele>
        <time>2021-03-20T21:42:10Z</time>
      </trkpt>
      <trkpt lat="54.29982" lon="-6.23655">
        <ele>175.21</ele>
        <time>2021-03-20T21:42:13Z</time>
      </trkpt>
      <trkpt lat="54.29966" lon="-6.23664">
        <ele>176.09</ele>
        <time>2021-03-20T21:42:15Z</time>
      </trkpt>
      <trkpt lat="54.2992" lon="-6.23683">
        <ele>177.58</ele>
        <time>2021-03-20T21:42:18Z</time>
      </trkpt>
      <trkpt lat="54.29782" lon="-6.23735">
        <ele>180.47</ele>
        <time>2021-03-20T21:42:20Z</time>
      </trkpt>
      <trkpt lat="54.29733" lon="-6.23747">
        <ele>181.84</ele>
        <time>2021-03-20T21:42:23Z</time>
      </trkpt>
      <trkpt lat="54.29707" lon="-6.23756">
        <ele>182.23</ele>
        <time>2021-03-20T21:42:25Z</time>
      </trkpt>
      <trkpt lat="54.29679" lon="-6.2377">
        <ele>181.58</ele>
        <time>2021-03-20T21:42:28Z</time>
      </trkpt>
      <trkpt lat="54.29621" lon="-6.23803">
        <ele>177.29</ele>
        <time>2021-03-20T21:42:30Z</time>
      </trkpt>
      <trkpt lat="54.2954" lon="-6.23862">
        <ele>174.45</ele>
        <time>2021-03-20T21:42:33Z</time>
      </trkpt>
      <trkpt lat="54.29499" lon="-6.2388">
        <ele>174</ele>
        <time>2021-03-20T21:42:35Z</time>
      </trkpt>
      <trkpt lat="54.29379" lon="-6.2392">
        <ele>172.51</ele>
        <time>2021-03-20T21:42:38Z</time>
      </trkpt>
      <trkpt lat="54.29335" lon="-6.23945">
        <ele>170.06</ele>
        <time>2021-03-20T21:42:40Z</time>
      </trkpt>
      <trkpt lat="54.29311" lon="-6.23968">
        <ele>168.36</ele>
        <time>2021-03-20T21:42:43Z</time>
      </trkpt>
      <trkpt lat="54.2924" lon="-6.24062">
        <ele>170.64</ele>
        <time>2021-03-20T21:42:45Z</time>
      </trkpt>
      <trkpt lat="54.29219" lon="-6.24086">
        <ele>171.11</ele>
        <time>2021-03-20T21:42:48Z</time>
      </trkpt>
      <trkpt lat="54.29186" lon="-6.24118">
        <ele>172.07</ele>
        <time>2021-03-20T21:42:50Z</time>
      </trkpt>
      <trkpt lat="54.29154" lon="-6.24137">
        <ele>172.48</ele>
        <time>2021-03-20T21:42:53Z</time>
      </trkpt>
      <trkpt lat="54.29125" lon="-6.24164">
        <ele>172</ele>
        <time>2021-03-20T21:42:55Z</time>
      </trkpt>
      <trkpt lat="54.29077" lon="-6.24248">
        <ele>171.99</ele>
        <time>2021-03-20T21:42:58Z</time>
      </trkpt>
      <trkpt lat="54.29062" lon="-6.24269">
        <ele>172</ele>
        <time>2021-03-20T21:43:00Z</time>
      </trkpt>
      <trkpt lat="54.29036" lon="-6.24298">
        <ele>171.08</ele>
        <time>2021-03-20T21:43:03Z</time>
      </trkpt>
      <trkpt lat="54.29019" lon="-6.24313">
        <ele>171</ele>
        <time>2021-03-20T21:43:05Z</time>
      </trkpt>
      <trkpt lat="54.28891" lon="-6.24406">
        <ele>160.96</ele>
        <time>2021-03-20T21:43:08Z</time>
      </trkpt>
      <trkpt lat="54.28799" lon="-6.24457">
        <ele>152.33</ele>
        <time>2021-03-20T21:43:10Z</time>
      </trkpt>
      <trkpt lat="54.2875" lon="-6.2449">
        <ele>149.33</ele>
        <time>2021-03-20T21:43:13Z</time>
      </trkpt>
      <trkpt lat="54.28739" lon="-6.245">
        <ele>148.24</ele>
        <time>2021-03-20T21:43:16Z</time>
      </trkpt>
      <trkpt lat="54.28655" lon="-6.24599">
        <ele>141.6</ele>
        <time>2021-03-20T21:43:18Z</time>
      </trkpt>
      <trkpt lat="54.28562" lon="-6.24703">
        <ele>141.76</ele>
        <time>2021-03-20T21:43:21Z</time>
      </trkpt>
      <trkpt lat="54.28547" lon="-6.24716">
        <ele>142.3</ele>
        <time>2021-03-20T21:43:23Z</time>
      </trkpt>
      <trkpt lat="54.28497" lon="-6.24747">
        <ele>143.11</ele>
        <time>2021-03-20T21:43:26Z</time>
      </trkpt>
      <trkpt lat="54.28418" lon="-6.24807">
        <ele>141</ele>
        <time>2021-03-20T21:43:28Z</time>
      </trkpt>
      <trkpt lat="54.28386" lon="-6.24827">
        <ele>141</ele>
        <time>2021-03-20T21:43:31Z</time>
      </trkpt>
      <trkpt lat="54.28306" lon="-6.2485">
        <ele>140</ele>
        <time>2021-03-20T21:43:33Z</time>
      </trkpt>
      <trkpt lat="54.28263" lon="-6.24853">
        <ele>139</ele>
        <time>2021-03-20T21:43:36Z</time>
      </trkpt>
      <trkpt lat="54.2822" lon="-6.2485">
        <ele>140.71</ele>
        <time>2021-03-20T21:43:38Z</time>
      </trkpt>
      <trkpt lat="54.28198" lon="-6.24852">
        <ele>142.4</ele>
        <time>2021-03-20T21:43:41Z</time>
      </trkpt>
      <trkpt lat="54.2817" lon="-6.24859">
        <ele>143.8</ele>
        <time>2021-03-20T21:43:43Z</time>
      </trkpt>
      <trkpt lat="54.28097" lon="-6.24915">
        <ele>144.97</ele>
        <time>2021-03-20T21:43:46Z</time>
      </trkpt>
      <trkpt lat="54.28034" lon="-6.24958">
        <ele>143.1</ele>
        <time>2021-03-20T21:43:48Z</time>
      </trkpt>
      <trkpt lat="54.27987" lon="-6.24995">
        <ele>141</ele>
        <time>2021-03-20T21:43:51Z</time>
      </trkpt>
      <trkpt lat="54.27973" lon="-6.25004">
        <ele>140.87</ele>
        <time>2021-03-20T21:43:53Z</time>
      </trkpt>
      <trkpt lat="54.27855" lon="-6.25043">
        <ele>129.48</ele>
        <time>2021-03-20T21:43:56Z</time>
      </trkpt>
      <trkpt lat="54.27836" lon="-6.25057">
        <ele>128.16</ele>
        <time>2021-03-20T21:43:58Z</time>
      </trkpt>
      <trkpt lat="54.27737" lon="-6.25189">
        <ele>120.04</ele>
        <time>2021-03-20T21:44:01Z</time>
      </trkpt>
      <trkpt lat="54.2773" lon="-6.25196">
        <ele>120.44</ele>
        <time>2021-03-20T21:44:03Z</time>
      </trkpt>
      <trkpt lat="54.2768" lon="-6.25222">
        <ele>123.06</ele>
        <time>2021-03-20T21:44:06Z</time>
      </trkpt>
      <trkpt lat="54.27606" lon="-6.25238">
        <ele>125.36</ele>
        <time>2021-03-20T21:44:08Z</time>
      </trkpt>
      <trkpt lat="54.27583" lon="-6.25249">
        <ele>124.98</ele>
        <time>2021-03-20T21:44:11Z</time>
      </trkpt>
      <trkpt lat="54.27573" lon="-6.25259">
        <ele>124.61</ele>
        <time>2021-03-20T21:44:14Z</time>
      </trkpt>
      <trkpt lat="54.27561" lon="-6.25275">
        <ele>124.2</ele>
        <time>2021-03-20T21:44:16Z</time>
      </trkpt>
      <trkpt lat="54.27546" lon="-6.25304">
        <ele>122.69</ele>
        <time>2021-03-20T21:44:19Z</time>
      </trkpt>
      <trkpt lat="54.27518" lon="-6.25374">
        <ele>121.37</ele>
        <time>2021-03-20T21:44:21Z</time>
      </trkpt>
      <trkpt lat="54.27456" lon="-6.25539">
        <ele>123.8</ele>
        <time>2021-03-20T21:44:24Z</time>
      </trkpt>
      <trkpt lat="54.27451" lon="-6.25558">
        <ele>124.25</ele>
        <time>2021-03-20T21:44:26Z</time>
      </trkpt>
      <trkpt lat="54.27435" lon="-6.25661">
        <ele>123.65</ele>
        <time>2021-03-20T21:44:29Z</time>
      </trkpt>
      <trkpt lat="54.27426" lon="-6.257">
        <ele>124.34</ele>
        <time>2021-03-20T21:44:31Z</time>
      </trkpt>
      <trkpt lat="54.27389" lon="-6.25838">
        <ele>124</ele>
        <time>2021-03-20T21:44:34Z</time>
      </trkpt>
      <trkpt lat="54.27382" lon="-6.25874">
        <ele>124</ele>
        <time>2021-03-20T21:44:36Z</time>
      </trkpt>
      <trkpt lat="54.27373" lon="-6.25978">
        <ele>127.54</ele>
        <time>2021-03-20T21:44:39Z</time>
      </trkpt>
      <trkpt lat="54.27366" lon="-6.26232">
        <ele>130.83</ele>
        <time>2021-03-20T21:44:41Z</time>
      </trkpt>
      <trkpt lat="54.27363" lon="-6.26264">
        <ele>131.18</ele>
        <time>2021-03-20T21:44:44Z</time>
      </trkpt>
      <trkpt lat="54.27357" lon="-6.26292">
        <ele>130.01</ele>
        <time>2021-03-20T21:44:46Z</time>
      </trkpt>
      <trkpt lat="54.27347" lon="-6.26322">
        <ele>127.87</ele>
        <time>2021-03-20T21:44:49Z</time>
      </trkpt>
      <trkpt lat="54.27332" lon="-6.26356">
        <ele>124.29</ele>
        <time>2021-03-20T21:44:51Z</time>
      </trkpt>
      <trkpt lat="54.27309" lon="-6.26395">
        <ele>121.27</ele>
        <time>2021-03-20T21:44:54Z</time>
      </trkpt>
      <trkpt lat="54.27272" lon="-6.2645">
        <ele>118.72</ele>
        <time>2021-03-20T21:44:56Z</time>
      </trkpt>
      <trkpt lat="54.27262" lon="-6.2647">
        <ele>118.25</ele>
        <time>2021-03-20T21:44:59Z</time>
      </trkpt>
      <trkpt lat="54.27255" lon="-6.26493">
        <ele>117.51</ele>
        <time>2021-03-20T21:45:01Z</time>
      </trkpt>
      <trkpt lat="54.27251" lon="-6.2651">
        <ele>116.78</ele>
        <time>2021-03-20T21:45:04Z</time>
      </trkpt>
      <trkpt lat="54.27236" lon="-6.26633">
        <ele>109.74</ele>
        <time>2021-03-20T21:45:06Z</time>
      </trkpt>
      <trkpt lat="54.27221" lon="-6.26783">
        <ele>104.82</ele>
        <time>2021-03-20T21:45:09Z</time>
      </trkpt>
      <trkpt lat="54.27214" lon="-6.26861">
        <ele>104.42</ele>
        <time>2021-03-20T21:45:11Z</time>
      </trkpt>
      <trkpt lat="54.27209" lon="-6.26901">
        <ele>104.29</ele>
        <time>2021-03-20T21:45:14Z</time>
      </trkpt>
      <trkpt lat="54.27198" lon="-6.26927">
        <ele>103.33</ele>
        <time>2021-03-20T21:45:17Z</time>
      </trkpt>
      <trkpt lat="54.27186" lon="-6.26943">
        <ele>101.54</ele>
        <time>2021-03-20T21:45:19Z</time>
      </trkpt>
      <trkpt lat="54.27098" lon="-6.27036">
        <ele>90.12</ele>
        <time>2021-03-20T21:45:22Z</time>
      </trkpt>
      <trkpt lat="54.27073" lon="-6.27058">
        <ele>87.81</ele>
        <time>2021-03-20T21:45:24Z</time>
      </trkpt>
      <trkpt lat="54.26763" lon="-6.27294">
        <ele>81.17</ele>
        <time>2021-03-20T21:45:27Z</time>
      </trkpt>
      <trkpt lat="54.26663" lon="-6.27375">
        <ele>82.44</ele>
        <time>2021-03-20T21:45:29Z</time>
      </trkpt>
      <trkpt lat="54.2652" lon="-6.2748">
        <ele>75.28</ele>
        <time>2021-03-20T21:45:32Z</time>
      </trkpt>
      <trkpt lat="54.26451" lon="-6.27497">
        <ele>77.75</ele>
        <time>2021-03-20T21:45:34Z</time>
      </trkpt>
      <trkpt lat="54.26438" lon="-6.27503">
        <ele>78.71</ele>
        <time>2021-03-20T21:45:37Z</time>
      </trkpt>
      <trkpt lat="54.26424" lon="-6.27514">
        <ele>80.2</ele>
        <time>2021-03-20T21:45:39Z</time>
      </trkpt>
      <trkpt lat="54.26342" lon="-6.276">
        <ele>84.69</ele>
        <time>2021-03-20T21:45:42Z</time>
      </trkpt>
      <trkpt lat="54.26309" lon="-6.2764">
        <ele>83</ele>
        <time>2021-03-20T21:45:44Z</time>
      </trkpt>
      <trkpt lat="54.26296" lon="-6.27657">
        <ele>83.65</ele>
        <time>2021-03-20T21:45:47Z</time>
      </trkpt>
      <trkpt lat="54.26286" lon="-6.27678">
        <ele>84.03</ele>
        <time>2021-03-20T21:45:49Z</time>
      </trkpt>
      <trkpt lat="54.26274" lon="-6.27715">
        <ele>84.26</ele>
        <time>2021-03-20T21:45:52Z</time>
      </trkpt>
      <trkpt lat="54.2627" lon="-6.27725">
        <ele>84.45</ele>
        <time>2021-03-20T21:45:54Z</time>
      </trkpt>
      <trkpt lat="54.26265" lon="-6.27732">
        <ele>84.58</ele>
        <time>2021-03-20T21:45:57Z</time>
      </trkpt>
      <trkpt lat="54.26257" lon="-6.27738">
        <ele>84.98</ele>
        <time>2021-03-20T21:45:59Z</time>
      </trkpt>
      <trkpt lat="54.26159" lon="-6.27778">
        <ele>84.69</ele>
        <time>2021-03-20T21:46:02Z</time>
      </trkpt>
      <trkpt lat="54.26062" lon="-6.27828">
        <ele>76.45</ele>
        <time>2021-03-20T21:46:04Z</time>
      </trkpt>
      <trkpt lat="54.26053" lon="-6.27831">
        <ele>76</ele>
        <time>2021-03-20T21:46:07Z</time>
      </trkpt>
      <trkpt lat="54.26046" lon="-6.27829">
        <ele>75.79</ele>
        <time>2021-03-20T21:46:09Z</time>
      </trkpt>
      <trkpt lat="54.26038" lon="-6.27824">
        <ele>75.71</ele>
        <time>2021-03-20T21:46:12Z</time>
      </trkpt>
      <trkpt lat="54.25988" lon="-6.27772">
        <ele>74.75</ele>
        <time>2021-03-20T21:46:15Z</time>
      </trkpt>
      <trkpt lat="54.2598" lon="-6.27767">
        <ele>74.67</ele>
        <time>2021-03-20T21:46:17Z</time>
      </trkpt>
      <trkpt lat="54.25974" lon="-6.27766">
        <ele>74.49</ele>
        <time>2021-03-20T21:46:20Z</time>
      </trkpt>
      <trkpt lat="54.25968" lon="-6.27769">
        <ele>74.27</ele>
        <time>2021-03-20T21:46:22Z</time>
      </trkpt>
      <trkpt lat="54.25964" lon="-6.27776">
        <ele>74.04</ele>
        <time>2021-03-20T21:46:25Z</time>
      </trkpt>
      <trkpt lat="54.25951" lon="-6.27806">
        <ele>75.01</ele>
        <time>2021-03-20T21:46:27Z</time>
      </trkpt>
      <trkpt lat="54.25925" lon="-6.27879">
        <ele>79.06</ele>
        <time>2021-03-20T21:46:30Z</time>
      </trkpt>
      <trkpt lat="54.25895" lon="-6.27956">
        <ele>83.02</ele>
        <time>2021-03-20T21:46:32Z</time>
      </trkpt>
      <trkpt lat="54.2589" lon="-6.27964">
        <ele>83.62</ele>
        <time>2021-03-20T21:46:35Z</time>
      </trkpt>
      <trkpt lat="54.2588" lon="-6.27972">
        <ele>84.61</ele>
        <time>2021-03-20T21:46:37Z</time>
      </trkpt>
      <trkpt lat="54.25832" lon="-6.27997">
        <ele>86.88</ele>
        <time>2021-03-20T21:46:40Z</time>
      </trkpt>
      <trkpt lat="54.25729" lon="-6.28045">
        <ele>86.69</ele>
        <time>2021-03-20T21:46:42Z</time>
      </trkpt>
      <trkpt lat="54.25715" lon="-6.28055">
        <ele>86.71</ele>
        <time>2021-03-20T21:46:45Z</time>
      </trkpt>
      <trkpt lat="54.25711" lon="-6.28059">
        <ele>86.74</ele>
        <time>2021-03-20T21:46:47Z</time>
      </trkpt>
      <trkpt lat="54.25697" lon="-6.28099">
        <ele>87.6</ele>
        <time>2021-03-20T21:46:50Z</time>
      </trkpt>
      <trkpt lat="54.25688" lon="-6.2815">
        <ele>87.05</ele>
        <time>2021-03-20T21:46:52Z</time>
      </trkpt>
      <trkpt lat="54.25688" lon="-6.28174">
        <ele>86.75</ele>
        <time>2021-03-20T21:46:55Z</time>
      </trkpt>
      <trkpt lat="54.25706" lon="-6.28387">
        <ele>84.82</ele>
        <time>2021-03-20T21:46:57Z</time>
      </trkpt>
      <trkpt lat="54.25705" lon="-6.28405">
        <ele>84.54</ele>
        <time>2021-03-20T21:47:00Z</time>
      </trkpt>
      <trkpt lat="54.25689" lon="-6.28496">
        <ele>80.37</ele>
        <time>2021-03-20T21:47:02Z</time>
      </trkpt>
      <trkpt lat="54.25684" lon="-6.28511">
        <ele>78.71</ele>
        <time>2021-03-20T21:47:05Z</time>
      </trkpt>
      <trkpt lat="54.25678" lon="-6.28522">
        <ele>77</ele>
        <time>2021-03-20T21:47:07Z</time>
      </trkpt>
      <trkpt lat="54.25586" lon="-6.28648">
        <ele>70.59</ele>
        <time>2021-03-20T21:47:10Z</time>
      </trkpt>
      <trkpt lat="54.25468" lon="-6.28806">
        <ele>80.45</ele>
        <time>2021-03-20T21:47:12Z</time>
      </trkpt>
      <trkpt lat="54.25452" lon="-6.28836">
        <ele>82.04</ele>
        <time>2021-03-20T21:47:15Z</time>
      </trkpt>
      <trkpt lat="54.25408" lon="-6.28941">
        <ele>79.39</ele>
        <time>2021-03-20T21:47:18Z</time>
      </trkpt>
      <trkpt lat="54.25363" lon="-6.29027">
        <ele>78.9</ele>
        <time>2021-03-20T21:47:20Z</time>
      </trkpt>
      <trkpt lat="54.25322" lon="-6.29097">
        <ele>78.32</ele>
        <time>2021-03-20T21:47:23Z</time>
      </trkpt>
      <trkpt lat="54.25308" lon="-6.29116">
        <ele>78.65</ele>
        <time>2021-03-20T21:47:25Z</time>
      </trkpt>
      <trkpt lat="54.25292" lon="-6.29133">
        <ele>78.7</ele>
        <time>2021-03-20T21:47:28Z</time>
      </trkpt>
      <trkpt lat="54.25235" lon="-6.2918">
        <ele>80.75</ele>
        <time>2021-03-20T21:47:30Z</time>
      </trkpt>
      <trkpt lat="54.2522" lon="-6.29195">
        <ele>81.1</ele>
        <time>2021-03-20T21:47:33Z</time>
      </trkpt>
      <trkpt lat="54.25209" lon="-6.29208">
        <ele>81.47</ele>
        <time>2021-03-20T21:47:35Z</time>
      </trkpt>
      <trkpt lat="54.25199" lon="-6.29227">
        <ele>82.02</ele>
        <time>2021-03-20T21:47:38Z</time>
      </trkpt>
      <trkpt lat="54.25165" lon="-6.29327">
        <ele>86.84</ele>
        <time>2021-03-20T21:47:40Z</time>
      </trkpt>
      <trkpt lat="54.25153" lon="-6.29372">
        <ele>87</ele>
        <time>2021-03-20T21:47:43Z</time>
      </trkpt>
      <trkpt lat="54.25147" lon="-6.29387">
        <ele>87</ele>
        <time>2021-03-20T21:47:45Z</time>
      </trkpt>
      <trkpt lat="54.25142" lon="-6.29394">
        <ele>86.81</ele>
        <time>2021-03-20T21:47:48Z</time>
      </trkpt>
      <trkpt lat="54.25135" lon="-6.29398">
        <ele>86.67</ele>
        <time>2021-03-20T21:47:50Z</time>
      </trkpt>
      <trkpt lat="54.2508" lon="-6.29412">
        <ele>88.24</ele>
        <time>2021-03-20T21:47:53Z</time>
      </trkpt>
      <trkpt lat="54.25064" lon="-6.29421">
        <ele>89.39</ele>
        <time>2021-03-20T21:47:55Z</time>
      </trkpt>
      <trkpt lat="54.25051" lon="-6.29434">
        <ele>89.85</ele>
        <time>2021-03-20T21:47:58Z</time>
      </trkpt>
      <trkpt lat="54.25041" lon="-6.29449">
        <ele>89.57</ele>
        <time>2021-03-20T21:48:00Z</time>
      </trkpt>
      <trkpt lat="54.2501" lon="-6.29511">
        <ele>90.41</ele>
        <time>2021-03-20T21:48:03Z</time>
      </trkpt>
      <trkpt lat="54.24995" lon="-6.29538">
        <ele>90.8</ele>
        <time>2021-03-20T21:48:05Z</time>
      </trkpt>
      <trkpt lat="54.24979" lon="-6.29561">
        <ele>90.43</ele>
        <time>2021-03-20T21:48:08Z</time>
      </trkpt>
      <trkpt lat="54.24833" lon="-6.29738">
        <ele>96.55</ele>
        <time>2021-03-20T21:48:10Z</time>
      </trkpt>
      <trkpt lat="54.24798" lon="-6.29764">
        <ele>95.87</ele>
        <time>2021-03-20T21:48:13Z</time>
      </trkpt>
      <trkpt lat="54.24782" lon="-6.29772">
        <ele>95.83</ele>
        <time>2021-03-20T21:48:16Z</time>
      </trkpt>
      <trkpt lat="54.2476" lon="-6.29776">
        <ele>94.64</ele>
        <time>2021-03-20T21:48:18Z</time>
      </trkpt>
      <trkpt lat="54.24644" lon="-6.29777">
        <ele>91.64</ele>
        <time>2021-03-20T21:48:21Z</time>
      </trkpt>
      <trkpt lat="54.24624" lon="-6.29783">
        <ele>92.44</ele>
        <time>2021-03-20T21:48:23Z</time>
      </trkpt>
      <trkpt lat="54.24587" lon="-6.29819">
        <ele>95.06</ele>
        <time>2021-03-20T21:48:26Z</time>
      </trkpt>
      <trkpt lat="54.2452" lon="-6.29896">
        <ele>93.96</ele>
        <time>2021-03-20T21:48:28Z</time>
      </trkpt>
      <trkpt lat="54.24481" lon="-6.29933">
        <ele>91.71</ele>
        <time>2021-03-20T21:48:31Z</time>
      </trkpt>
      <trkpt lat="54.24373" lon="-6.3002">
        <ele>88.87</ele>
        <time>2021-03-20T21:48:33Z</time>
      </trkpt>
      <trkpt lat="54.24328" lon="-6.3005">
        <ele>83.79</ele>
        <time>2021-03-20T21:48:36Z</time>
      </trkpt>
      <trkpt lat="54.24283" lon="-6.30063">
        <ele>81.1</ele>
        <time>2021-03-20T21:48:38Z</time>
      </trkpt>
      <trkpt lat="54.24201" lon="-6.30081">
        <ele>81.83</ele>
        <time>2021-03-20T21:48:41Z</time>
      </trkpt>
      <trkpt lat="54.2419" lon="-6.30078">
        <ele>81.73</ele>
        <time>2021-03-20T21:48:43Z</time>
      </trkpt>
      <trkpt lat="54.24134" lon="-6.30049">
        <ele>83.32</ele>
        <time>2021-03-20T21:48:46Z</time>
      </trkpt>
      <trkpt lat="54.24099" lon="-6.30048">
        <ele>84.19</ele>
        <time>2021-03-20T21:48:48Z</time>
      </trkpt>
      <trkpt lat="54.2407" lon="-6.30053">
        <ele>83.78</ele>
        <time>2021-03-20T21:48:51Z</time>
      </trkpt>
      <trkpt lat="54.2405" lon="-6.30057">
        <ele>84.53</ele>
        <time>2021-03-20T21:48:53Z</time>
      </trkpt>
      <trkpt lat="54.23941" lon="-6.30091">
        <ele>96.53</ele>
        <time>2021-03-20T21:48:56Z</time>
      </trkpt>
      <trkpt lat="54.23893" lon="-6.3012">
        <ele>101</ele>
        <time>2021-03-20T21:48:58Z</time>
      </trkpt>
      <trkpt lat="54.23877" lon="-6.30127">
        <ele>100.76</ele>
        <time>2021-03-20T21:49:01Z</time>
      </trkpt>
      <trkpt lat="54.23859" lon="-6.30133">
        <ele>100.27</ele>
        <time>2021-03-20T21:49:03Z</time>
      </trkpt>
      <trkpt lat="54.23822" lon="-6.30137">
        <ele>100.47</ele>
        <time>2021-03-20T21:49:06Z</time>
      </trkpt>
      <trkpt lat="54.238" lon="-6.30142">
        <ele>100.03</ele>
        <time>2021-03-20T21:49:08Z</time>
      </trkpt>
      <trkpt lat="54.2378" lon="-6.30149">
        <ele>99.78</ele>
        <time>2021-03-20T21:49:11Z</time>
      </trkpt>
      <trkpt lat="54.23766" lon="-6.30157">
        <ele>99.03</ele>
        <time>2021-03-20T21:49:14Z</time>
      </trkpt>
      <trkpt lat="54.23687" lon="-6.30227">
        <ele>95.4</ele>
        <time>2021-03-20T21:49:16Z</time>
      </trkpt>
      <trkpt lat="54.23664" lon="-6.3025">
        <ele>94.78</ele>
        <time>2021-03-20T21:49:19Z</time>
      </trkpt>
      <trkpt lat="54.23652" lon="-6.30265">
        <ele>93.92</ele>
        <time>2021-03-20T21:49:21Z</time>
      </trkpt>
      <trkpt lat="54.23643" lon="-6.30282">
        <ele>92.94</ele>
        <time>2021-03-20T21:49:24Z</time>
      </trkpt>
      <trkpt lat="54.23635" lon="-6.30303">
        <ele>90.64</ele>
        <time>2021-03-20T21:49:26Z</time>
      </trkpt>
      <trkpt lat="54.2363" lon="-6.30322">
        <ele>88.73</ele>
        <time>2021-03-20T21:49:29Z</time>
      </trkpt>
      <trkpt lat="54.23613" lon="-6.30421">
        <ele>84.06</ele>
        <time>2021-03-20T21:49:31Z</time>
      </trkpt>
      <trkpt lat="54.23607" lon="-6.30446">
        <ele>83.8</ele>
        <time>2021-03-20T21:49:34Z</time>
      </trkpt>
      <trkpt lat="54.23599" lon="-6.30469">
        <ele>82.65</ele>
        <time>2021-03-20T21:49:36Z</time>
      </trkpt>
      <trkpt lat="54.23591" lon="-6.30483">
        <ele>82.26</ele>
        <time>2021-03-20T21:49:39Z</time>
      </trkpt>
      <trkpt lat="54.23574" lon="-6.30503">
        <ele>81.75</ele>
        <time>2021-03-20T21:49:41Z</time>
      </trkpt>
      <trkpt lat="54.23543" lon="-6.30536">
        <ele>81</ele>
        <time>2021-03-20T21:49:44Z</time>
      </trkpt>
      <trkpt lat="54.23534" lon="-6.3054">
        <ele>81</ele>
        <time>2021-03-20T21:49:46Z</time>
      </trkpt>
      <trkpt lat="54.23512" lon="-6.30543">
        <ele>81.57</ele>
        <time>2021-03-20T21:49:49Z</time>
      </trkpt>
      <trkpt lat="54.2349" lon="-6.30536">
        <ele>82.11</ele>
        <time>2021-03-20T21:49:51Z</time>
      </trkpt>
      <trkpt lat="54.23481" lon="-6.30528">
        <ele>82</ele>
        <time>2021-03-20T21:49:54Z</time>
      </trkpt>
      <trkpt lat="54.23472" lon="-6.30516">
        <ele>81.13</ele>
        <time>2021-03-20T21:49:56Z</time>
      </trkpt>
      <trkpt lat="54.23424" lon="-6.30439">
        <ele>80.05</ele>
        <time>2021-03-20T21:49:59Z</time>
      </trkpt>
      <trkpt lat="54.23415" lon="-6.30431">
        <ele>80</ele>
        <time>2021-03-20T21:50:01Z</time>
      </trkpt>
      <trkpt lat="54.23402" lon="-6.30424">
        <ele>80</ele>
        <time>2021-03-20T21:50:04Z</time>
      </trkpt>
      <trkpt lat="54.23367" lon="-6.3042">
        <ele>79.2</ele>
        <time>2021-03-20T21:50:06Z</time>
      </trkpt>
      <trkpt lat="54.23327" lon="-6.30426">
        <ele>78.75</ele>
        <time>2021-03-20T21:50:09Z</time>
      </trkpt>
      <trkpt lat="54.23309" lon="-6.30433">
        <ele>78.11</ele>
        <time>2021-03-20T21:50:11Z</time>
      </trkpt>
      <trkpt lat="54.23291" lon="-6.30445">
        <ele>76.97</ele>
        <time>2021-03-20T21:50:14Z</time>
      </trkpt>
      <trkpt lat="54.23249" lon="-6.3048">
        <ele>74.99</ele>
        <time>2021-03-20T21:50:17Z</time>
      </trkpt>
      <trkpt lat="54.23198" lon="-6.30531">
        <ele>72.13</ele>
        <time>2021-03-20T21:50:19Z</time>
      </trkpt>
      <trkpt lat="54.23176" lon="-6.30543">
        <ele>71.65</ele>
        <time>2021-03-20T21:50:22Z</time>
      </trkpt>
      <trkpt lat="54.23134" lon="-6.30547">
        <ele>70.13</ele>
        <time>2021-03-20T21:50:24Z</time>
      </trkpt>
      <trkpt lat="54.23113" lon="-6.30557">
        <ele>69.01</ele>
        <time>2021-03-20T21:50:27Z</time>
      </trkpt>
      <trkpt lat="54.23101" lon="-6.30568">
        <ele>68.16</ele>
        <time>2021-03-20T21:50:29Z</time>
      </trkpt>
      <trkpt lat="54.23089" lon="-6.30584">
        <ele>67.17</ele>
        <time>2021-03-20T21:50:32Z</time>
      </trkpt>
      <trkpt lat="54.2306" lon="-6.30638">
        <ele>65</ele>
        <time>2021-03-20T21:50:34Z</time>
      </trkpt>
      <trkpt lat="54.23048" lon="-6.30656">
        <ele>64.74</ele>
        <time>2021-03-20T21:50:37Z</time>
      </trkpt>
      <trkpt lat="54.2304" lon="-6.30709">
        <ele>64.57</ele>
        <time>2021-03-20T21:50:39Z</time>
      </trkpt>
      <trkpt lat="54.23024" lon="-6.30824">
        <ele>65</ele>
        <time>2021-03-20T21:50:42Z</time>
      </trkpt>
      <trkpt lat="54.23" lon="-6.3092">
        <ele>62.98</ele>
        <time>2021-03-20T21:50:44Z</time>
      </trkpt>
      <trkpt lat="54.2299" lon="-6.30968">
        <ele>61.8</ele>
        <time>2021-03-20T21:50:47Z</time>
      </trkpt>
      <trkpt lat="54.22987" lon="-6.31003">
        <ele>60.89</ele>
        <time>2021-03-20T21:50:49Z</time>
      </trkpt>
      <trkpt lat="54.22988" lon="-6.31021">
        <ele>60.26</ele>
        <time>2021-03-20T21:50:52Z</time>
      </trkpt>
      <trkpt lat="54.22992" lon="-6.31097">
        <ele>57.8</ele>
        <time>2021-03-20T21:50:54Z</time>
      </trkpt>
      <trkpt lat="54.2299" lon="-6.31116">
        <ele>56.96</ele>
        <time>2021-03-20T21:50:57Z</time>
      </trkpt>
      <trkpt lat="54.22974" lon="-6.31176">
        <ele>52.28</ele>
        <time>2021-03-20T21:50:59Z</time>
      </trkpt>
      <trkpt lat="54.22966" lon="-6.31197">
        <ele>50.85</ele>
        <time>2021-03-20T21:51:02Z</time>
      </trkpt>
      <trkpt lat="54.22895" lon="-6.31328">
        <ele>49.93</ele>
        <time>2021-03-20T21:51:04Z</time>
      </trkpt>
      <trkpt lat="54.22864" lon="-6.3136">
        <ele>49.96</ele>
        <time>2021-03-20T21:51:07Z</time>
      </trkpt>
      <trkpt lat="54.22832" lon="-6.31381">
        <ele>50.33</ele>
        <time>2021-03-20T21:51:09Z</time>
      </trkpt>
      <trkpt lat="54.22802" lon="-6.3142">
        <ele>49.9</ele>
        <time>2021-03-20T21:51:12Z</time>
      </trkpt>
      <trkpt lat="54.22759" lon="-6.31468">
        <ele>49.55</ele>
        <time>2021-03-20T21:51:15Z</time>
      </trkpt>
      <trkpt lat="54.22747" lon="-6.31487">
        <ele>49.43</ele>
        <time>2021-03-20T21:51:17Z</time>
      </trkpt>
      <trkpt lat="54.2273" lon="-6.31527">
        <ele>46.47</ele>
        <time>2021-03-20T21:51:20Z</time>
      </trkpt>
      <trkpt lat="54.22706" lon="-6.31581">
        <ele>43.86</ele>
        <time>2021-03-20T21:51:22Z</time>
      </trkpt>
      <trkpt lat="54.22536" lon="-6.31939">
        <ele>38.91</ele>
        <time>2021-03-20T21:51:25Z</time>
      </trkpt>
      <trkpt lat="54.22527" lon="-6.31961">
        <ele>38.47</ele>
        <time>2021-03-20T21:51:27Z</time>
      </trkpt>
      <trkpt lat="54.2252" lon="-6.31984">
        <ele>38.49</ele>
        <time>2021-03-20T21:51:30Z</time>
      </trkpt>
      <trkpt lat="54.22516" lon="-6.32033">
        <ele>39.45</ele>
        <time>2021-03-20T21:51:32Z</time>
      </trkpt>
      <trkpt lat="54.22522" lon="-6.32206">
        <ele>43.35</ele>
        <time>2021-03-20T21:51:35Z</time>
      </trkpt>
      <trkpt lat="54.22519" lon="-6.32224">
        <ele>42.96</ele>
        <time>2021-03-20T21:51:37Z</time>
      </trkpt>
      <trkpt lat="54.22521" lon="-6.32258">
        <ele>40.7</ele>
        <time>2021-03-20T21:51:39Z</time>
      </trkpt>
      <trkpt lat="54.22535" lon="-6.32375">
        <ele>38.25</ele>
        <time>2021-03-20T21:51:41Z</time>
      </trkpt>
      <trkpt lat="54.22536" lon="-6.32395">
        <ele>38.52</ele>
        <time>2021-03-20T21:51:43Z</time>
      </trkpt>
      <trkpt lat="54.22534" lon="-6.32445">
        <ele>39.22</ele>
        <time>2021-03-20T21:51:44Z</time>
      </trkpt>
      <trkpt lat="54.22535" lon="-6.32466">
        <ele>38.49</ele>
        <time>2021-03-20T21:51:46Z</time>
      </trkpt>
      <trkpt lat="54.22538" lon="-6.32486">
        <ele>38.06</ele>
        <time>2021-03-20T21:51:48Z</time>
      </trkpt>
      <trkpt lat="54.22569" lon="-6.32585">
        <ele>36.93</ele>
        <time>2021-03-20T21:51:50Z</time>
      </trkpt>
      <trkpt lat="54.22573" lon="-6.32608">
        <ele>37.22</ele>
        <time>2021-03-20T21:51:52Z</time>
      </trkpt>
      <trkpt lat="54.22576" lon="-6.32645">
        <ele>37.5</ele>
        <time>2021-03-20T21:51:54Z</time>
      </trkpt>
      <trkpt lat="54.2259" lon="-6.32732">
        <ele>38.65</ele>
        <time>2021-03-20T21:51:56Z</time>
      </trkpt>
      <trkpt lat="54.22594" lon="-6.32751">
        <ele>39.8</ele>
        <time>2021-03-20T21:51:58Z</time>
      </trkpt>
      <trkpt lat="54.22598" lon="-6.32765">
        <ele>40.6</ele>
        <time>2021-03-20T21:52:00Z</time>
      </trkpt>
      <trkpt lat="54.22612" lon="-6.32792">
        <ele>43.03</ele>
        <time>2021-03-20T21:52:02Z</time>
      </trkpt>
      <trkpt lat="54.2262" lon="-6.32811">
        <ele>44.59</ele>
        <time>2021-03-20T21:52:04Z</time>
      </trkpt>
      <trkpt lat="54.22627" lon="-6.32837">
        <ele>46.28</ele>
        <time>2021-03-20T21:52:06Z</time>
      </trkpt>
      <trkpt lat="54.22639" lon="-6.3289">
        <ele>49.03</ele>
        <time>2021-03-20T21:52:08Z</time>
      </trkpt>
      <trkpt lat="54.22641" lon="-6.32917">
        <ele>50.3</ele>
        <time>2021-03-20T21:52:09Z</time>
      </trkpt>
      <trkpt lat="54.22637" lon="-6.33004">
        <ele>53.99</ele>
        <time>2021-03-20T21:52:11Z</time>
      </trkpt>
      <trkpt lat="54.22638" lon="-6.33031">
        <ele>55.01</ele>
        <time>2021-03-20T21:52:13Z</time>
      </trkpt>
      <trkpt lat="54.22643" lon="-6.33074">
        <ele>55.68</ele>
        <time>2021-03-20T21:52:15Z</time>
      </trkpt>
      <trkpt lat="54.22659" lon="-6.33167">
        <ele>57.46</ele>
        <time>2021-03-20T21:52:17Z</time>
      </trkpt>
      <trkpt lat="54.22659" lon="-6.33197">
        <ele>56.47</ele>
        <time>2021-03-20T21:52:19Z</time>
      </trkpt>
      <trkpt lat="54.22657" lon="-6.33212">
        <ele>56.27</ele>
        <time>2021-03-20T21:52:21Z</time>
      </trkpt>
      <trkpt lat="54.22622" lon="-6.33323">
        <ele>55.79</ele>
        <time>2021-03-20T21:52:23Z</time>
      </trkpt>
      <trkpt lat="54.22603" lon="-6.33374">
        <ele>54.12</ele>
        <time>2021-03-20T21:52:25Z</time>
      </trkpt>
      <trkpt lat="54.22601" lon="-6.33389">
        <ele>53.92</ele>
        <time>2021-03-20T21:52:27Z</time>
      </trkpt>
      <trkpt lat="54.22599" lon="-6.3344">
        <ele>55.14</ele>
        <time>2021-03-20T21:52:29Z</time>
      </trkpt>
      <trkpt lat="54.22594" lon="-6.33475">
        <ele>55.97</ele>
        <time>2021-03-20T21:52:31Z</time>
      </trkpt>
      <trkpt lat="54.22567" lon="-6.33535">
        <ele>55.29</ele>
        <time>2021-03-20T21:52:33Z</time>
      </trkpt>
      <trkpt lat="54.22561" lon="-6.33554">
        <ele>54.76</ele>
        <time>2021-03-20T21:52:34Z</time>
      </trkpt>
      <trkpt lat="54.22556" lon="-6.33584">
        <ele>54.13</ele>
        <time>2021-03-20T21:52:36Z</time>
      </trkpt>
      <trkpt lat="54.22542" lon="-6.33632">
        <ele>54.29</ele>
        <time>2021-03-20T21:52:38Z</time>
      </trkpt>
      <trkpt lat="54.225" lon="-6.33768">
        <ele>56</ele>
        <time>2021-03-20T21:52:40Z</time>
      </trkpt>
      <trkpt lat="54.22477" lon="-6.33848">
        <ele>55.73</ele>
        <time>2021-03-20T21:52:42Z</time>
      </trkpt>
      <trkpt lat="54.22471" lon="-6.33865">
        <ele>54.77</ele>
        <time>2021-03-20T21:52:44Z</time>
      </trkpt>
      <trkpt lat="54.22362" lon="-6.33967">
        <ele>48.38</ele>
        <time>2021-03-20T21:52:46Z</time>
      </trkpt>
      <trkpt lat="54.22203" lon="-6.34102">
        <ele>36.66</ele>
        <time>2021-03-20T21:52:48Z</time>
      </trkpt>
      <trkpt lat="54.22184" lon="-6.34121">
        <ele>35.74</ele>
        <time>2021-03-20T21:52:50Z</time>
      </trkpt>
      <trkpt lat="54.22137" lon="-6.34184">
        <ele>30.74</ele>
        <time>2021-03-20T21:52:52Z</time>
      </trkpt>
      <trkpt lat="54.22119" lon="-6.34211">
        <ele>29.42</ele>
        <time>2021-03-20T21:52:54Z</time>
      </trkpt>
      <trkpt lat="54.22139" lon="-6.34228">
        <ele>29</ele>
        <time>2021-03-20T21:52:55Z</time>
      </trkpt>
      <trkpt lat="54.22138" lon="-6.34256">
        <ele>29</ele>
        <time>2021-03-20T21:52:57Z</time>
      </trkpt>
      <trkpt lat="54.22133" lon="-6.34285">
        <ele>28.74</ele>
        <time>2021-03-20T21:52:59Z</time>
      </trkpt>
      <trkpt lat="54.22123" lon="-6.34322">
        <ele>28</ele>
        <time>2021-03-20T21:53:01Z</time>
      </trkpt>
      <trkpt lat="54.22058" lon="-6.34513">
        <ele>27.58</ele>
        <time>2021-03-20T21:53:03Z</time>
      </trkpt>
      <trkpt lat="54.22048" lon="-6.34554">
        <ele>27.13</ele>
        <time>2021-03-20T21:53:05Z</time>
      </trkpt>
      <trkpt lat="54.22044" lon="-6.34584">
        <ele>25.73</ele>
        <time>2021-03-20T21:53:07Z</time>
      </trkpt>
      <trkpt lat="54.22038" lon="-6.34723">
        <ele>22.11</ele>
        <time>2021-03-20T21:53:09Z</time>
      </trkpt>
      <trkpt lat="54.22027" lon="-6.34828">
        <ele>23.69</ele>
        <time>2021-03-20T21:53:11Z</time>
      </trkpt>
      <trkpt lat="54.22023" lon="-6.34845">
        <ele>24.38</ele>
        <time>2021-03-20T21:53:13Z</time>
      </trkpt>
      <trkpt lat="54.22011" lon="-6.34869">
        <ele>24.68</ele>
        <time>2021-03-20T21:53:15Z</time>
      </trkpt>
      <trkpt lat="54.21964" lon="-6.34926">
        <ele>23.95</ele>
        <time>2021-03-20T21:53:17Z</time>
      </trkpt>
      <trkpt lat="54.21926" lon="-6.3495">
        <ele>22.94</ele>
        <time>2021-03-20T21:53:19Z</time>
      </trkpt>
      <trkpt lat="54.21922" lon="-6.34958">
        <ele>22.69</ele>
        <time>2021-03-20T21:53:20Z</time>
      </trkpt>
      <trkpt lat="54.21921" lon="-6.34986">
        <ele>22.3</ele>
        <time>2021-03-20T21:53:22Z</time>
      </trkpt>
      <trkpt lat="54.21936" lon="-6.35054">
        <ele>17.13</ele>
        <time>2021-03-20T21:53:24Z</time>
      </trkpt>
      <trkpt lat="54.21941" lon="-6.35084">
        <ele>14.99</ele>
        <time>2021-03-20T21:53:26Z</time>
      </trkpt>
      <trkpt lat="54.2194" lon="-6.35118">
        <ele>13.37</ele>
        <time>2021-03-20T21:53:28Z</time>
      </trkpt>
      <trkpt lat="54.21937" lon="-6.35167">
        <ele>14.02</ele>
        <time>2021-03-20T21:53:30Z</time>
      </trkpt>
      <trkpt lat="54.21916" lon="-6.35303">
        <ele>16.86</ele>
        <time>2021-03-20T21:53:32Z</time>
      </trkpt>
      <trkpt lat="54.219" lon="-6.35375">
        <ele>14.02</ele>
        <time>2021-03-20T21:53:34Z</time>
      </trkpt>
      <trkpt lat="54.21901" lon="-6.35393">
        <ele>13.7</ele>
        <time>2021-03-20T21:53:36Z</time>
      </trkpt>
      <trkpt lat="54.21904" lon="-6.35412">
        <ele>13.28</ele>
        <time>2021-03-20T21:53:38Z</time>
      </trkpt>
      <trkpt lat="54.2193" lon="-6.35489">
        <ele>13.19</ele>
        <time>2021-03-20T21:53:40Z</time>
      </trkpt>
      <trkpt lat="54.21916" lon="-6.35559">
        <ele>11.01</ele>
        <time>2021-03-20T21:53:45Z</time>
      </trkpt>
      <trkpt lat="54.21891" lon="-6.35652">
        <ele>11</ele>
        <time>2021-03-20T21:53:49Z</time>
      </trkpt>
      <trkpt lat="54.21878" lon="-6.35681">
        <ele>14.16</ele>
        <time>2021-03-20T21:53:53Z</time>
      </trkpt>
      <trkpt lat="54.21859" lon="-6.35717">
        <ele>20.11</ele>
        <time>2021-03-20T21:53:58Z</time>
      </trkpt>
      <trkpt lat="54.21837" lon="-6.35686">
        <ele>20.32</ele>
        <time>2021-03-20T21:54:03Z</time>
      </trkpt>
      <trkpt lat="54.21792" lon="-6.35631">
        <ele>19.73</ele>
        <time>2021-03-20T21:54:08Z</time>
      </trkpt>
      <trkpt lat="54.2176" lon="-6.35597">
        <ele>18.85</ele>
        <time>2021-03-20T21:54:14Z</time>
      </trkpt>
      <trkpt lat="54.21708" lon="-6.35554">
        <ele>20.82</ele>
        <time>2021-03-20T21:54:19Z</time>
      </trkpt>
      <trkpt lat="54.21658" lon="-6.35523">
        <ele>21.99</ele>
        <time>2021-03-20T21:54:24Z</time>
      </trkpt>
      <trkpt lat="54.21591" lon="-6.35496">
        <ele>22.29</ele>
        <time>2021-03-20T21:54:29Z</time>
      </trkpt>
      <trkpt lat="54.21531" lon="-6.35483">
        <ele>21.69</ele>
        <time>2021-03-20T21:54:34Z</time>
      </trkpt>
      <trkpt lat="54.21488" lon="-6.35479">
        <ele>20.07</ele>
        <time>2021-03-20T21:54:40Z</time>
      </trkpt>
      <trkpt lat="54.21396" lon="-6.35486">
        <ele>18.15</ele>
        <time>2021-03-20T21:54:45Z</time>
      </trkpt>
      <trkpt lat="54.20805" lon="-6.35597">
        <ele>11.5</ele>
        <time>2021-03-20T21:54:50Z</time>
      </trkpt>
      <trkpt lat="54.20702" lon="-6.35612">
        <ele>13.07</ele>
        <time>2021-03-20T21:54:55Z</time>
      </trkpt>
      <trkpt lat="54.20579" lon="-6.35635">
        <ele>11.84</ele>
        <time>2021-03-20T21:55:00Z</time>
      </trkpt>
      <trkpt lat="54.20515" lon="-6.35642">
        <ele>11</ele>
        <time>2021-03-20T21:55:06Z</time>
      </trkpt>
      <trkpt lat="54.20493" lon="-6.35642">
        <ele>10.75</ele>
        <time>2021-03-20T21:55:11Z</time>
      </trkpt>
      <trkpt lat="54.20465" lon="-6.35641">
        <ele>9.75</ele>
        <time>2021-03-20T21:55:16Z</time>
      </trkpt>
      <trkpt lat="54.20415" lon="-6.35628">
        <ele>10.62</ele>
        <time>2021-03-20T21:55:21Z</time>
      </trkpt>
      <trkpt lat="54.20333" lon="-6.35591">
        <ele>10</ele>
        <time>2021-03-20T21:55:27Z</time>
      </trkpt>
      <trkpt lat="54.20334" lon="-6.35575">
        <ele>9.69</ele>
        <time>2021-03-20T21:55:28Z</time>
      </trkpt>
      <trkpt lat="54.20332" lon="-6.3556">
        <ele>9.19</ele>
        <time>2021-03-20T21:55:29Z</time>
      </trkpt>
      <trkpt lat="54.20328" lon="-6.35546">
        <ele>9.2</ele>
        <time>2021-03-20T21:55:30Z</time>
      </trkpt>
      <trkpt lat="54.20321" lon="-6.35536">
        <ele>9.45</ele>
        <time>2021-03-20T21:55:31Z</time>
      </trkpt>
      <trkpt lat="54.20313" lon="-6.3553">
        <ele>9.75</ele>
        <time>2021-03-20T21:55:32Z</time>
      </trkpt>
      <trkpt lat="54.20305" lon="-6.35528">
        <ele>9.98</ele>
        <time>2021-03-20T21:55:33Z</time>
      </trkpt>
      <trkpt lat="54.20298" lon="-6.3553">
        <ele>9.72</ele>
        <time>2021-03-20T21:55:35Z</time>
      </trkpt>
      <trkpt lat="54.20291" lon="-6.35534">
        <ele>9.47</ele>
        <time>2021-03-20T21:55:36Z</time>
      </trkpt>
      <trkpt lat="54.20285" lon="-6.35542">
        <ele>9.26</ele>
        <time>2021-03-20T21:55:37Z</time>
      </trkpt>
      <trkpt lat="54.20281" lon="-6.35552">
        <ele>9.1</ele>
        <time>2021-03-20T21:55:38Z</time>
      </trkpt>
      <trkpt lat="54.20278" lon="-6.35564">
        <ele>8.71</ele>
        <time>2021-03-20T21:55:39Z</time>
      </trkpt>
      <trkpt lat="54.20276" lon="-6.35576">
        <ele>8.27</ele>
        <time>2021-03-20T21:55:40Z</time>
      </trkpt>
      <trkpt lat="54.20277" lon="-6.3559">
        <ele>8.02</ele>
        <time>2021-03-20T21:55:41Z</time>
      </trkpt>
      <trkpt lat="54.2028" lon="-6.35602">
        <ele>8.18</ele>
        <time>2021-03-20T21:55:43Z</time>
      </trkpt>
      <trkpt lat="54.20285" lon="-6.35612">
        <ele>8.52</ele>
        <time>2021-03-20T21:55:44Z</time>
      </trkpt>
      <trkpt lat="54.20291" lon="-6.3562">
        <ele>8.96</ele>
        <time>2021-03-20T21:55:45Z</time>
      </trkpt>
      <trkpt lat="54.20201" lon="-6.35862">
        <ele>13.81</ele>
        <time>2021-03-20T21:55:46Z</time>
      </trkpt>
      <trkpt lat="54.20179" lon="-6.35928">
        <ele>18.73</ele>
        <time>2021-03-20T21:55:47Z</time>
      </trkpt>
      <trkpt lat="54.20171" lon="-6.35956">
        <ele>19.9</ele>
        <time>2021-03-20T21:55:48Z</time>
      </trkpt>
      <trkpt lat="54.20167" lon="-6.35952">
        <ele>19.99</ele>
        <time>2021-03-20T21:55:54Z</time>
      </trkpt>
      <trkpt lat="54.20155" lon="-6.35949">
        <ele>20.34</ele>
        <time>2021-03-20T21:55:59Z</time>
      </trkpt>
      <trkpt lat="54.20148" lon="-6.35952">
        <ele>20.47</ele>
        <time>2021-03-20T21:56:04Z</time>
      </trkpt>
      <trkpt lat="54.20131" lon="-6.35976">
        <ele>19.45</ele>
        <time>2021-03-20T21:56:10Z</time>
      </trkpt>
      <trkpt lat="54.20119" lon="-6.35988">
        <ele>18.55</ele>
        <time>2021-03-20T21:56:15Z</time>
      </trkpt>
      <trkpt lat="54.20005" lon="-6.36043">
        <ele>20.78</ele>
        <time>2021-03-20T21:56:21Z</time>
      </trkpt>
      <trkpt lat="54.19937" lon="-6.36066">
        <ele>24.99</ele>
        <time>2021-03-20T21:56:26Z</time>
      </trkpt>
      <trkpt lat="54.19805" lon="-6.36089">
        <ele>28.03</ele>
        <time>2021-03-20T21:56:31Z</time>
      </trkpt>
      <trkpt lat="54.19655" lon="-6.36106">
        <ele>24.07</ele>
        <time>2021-03-20T21:56:37Z</time>
      </trkpt>
      <trkpt lat="54.19438" lon="-6.36122">
        <ele>40.56</ele>
        <time>2021-03-20T21:56:42Z</time>
      </trkpt>
      <trkpt lat="54.19353" lon="-6.36125">
        <ele>55.51</ele>
        <time>2021-03-20T21:56:47Z</time>
      </trkpt>
      <trkpt lat="54.19294" lon="-6.36124">
        <ele>56.85</ele>
        <time>2021-03-20T21:56:53Z</time>
      </trkpt>
      <trkpt lat="54.1917" lon="-6.36115">
        <ele>55.03</ele>
        <time>2021-03-20T21:56:58Z</time>
      </trkpt>
      <trkpt lat="54.18983" lon="-6.36112">
        <ele>65.64</ele>
        <time>2021-03-20T21:57:04Z</time>
      </trkpt>
      <trkpt lat="54.18797" lon="-6.361">
        <ele>64</ele>
        <time>2021-03-20T21:57:09Z</time>
      </trkpt>
      <trkpt lat="54.18602" lon="-6.36078">
        <ele>59.43</ele>
        <time>2021-03-20T21:57:14Z</time>
      </trkpt>
      <trkpt lat="54.18289" lon="-6.36038">
        <ele>64.71</ele>
        <time>2021-03-20T21:57:20Z</time>
      </trkpt>
      <trkpt lat="54.18206" lon="-6.36021">
        <ele>66.29</ele>
        <time>2021-03-20T21:57:25Z</time>
      </trkpt>
      <trkpt lat="54.18035" lon="-6.35972">
        <ele>77.24</ele>
        <time>2021-03-20T21:57:31Z</time>
      </trkpt>
      <trkpt lat="54.17992" lon="-6.35962">
        <ele>80.49</ele>
        <time>2021-03-20T21:57:36Z</time>
      </trkpt>
      <trkpt lat="54.17952" lon="-6.35956">
        <ele>83.15</ele>
        <time>2021-03-20T21:57:41Z</time>
      </trkpt>
      <trkpt lat="54.17867" lon="-6.35951">
        <ele>86.8</ele>
        <time>2021-03-20T21:57:47Z</time>
      </trkpt>
      <trkpt lat="54.1783" lon="-6.35954">
        <ele>86.7</ele>
        <time>2021-03-20T21:57:52Z</time>
      </trkpt>
      <trkpt lat="54.17623" lon="-6.35988">
        <ele>89.18</ele>
        <time>2021-03-20T21:57:57Z</time>
      </trkpt>
      <trkpt lat="54.17146" lon="-6.36082">
        <ele>96.14</ele>
        <time>2021-03-20T21:58:03Z</time>
      </trkpt>
      <trkpt lat="54.17096" lon="-6.36088">
        <ele>95.18</ele>
        <time>2021-03-20T21:58:08Z</time>
      </trkpt>
      <trkpt lat="54.17027" lon="-6.36093">
        <ele>96.35</ele>
        <time>2021-03-20T21:58:14Z</time>
      </trkpt>
      <trkpt lat="54.16923" lon="-6.36092">
        <ele>94.24</ele>
        <time>2021-03-20T21:58:19Z</time>
      </trkpt>
      <trkpt lat="54.1688" lon="-6.36089">
        <ele>95.46</ele>
        <time>2021-03-20T21:58:24Z</time>
      </trkpt>
      <trkpt lat="54.16772" lon="-6.36071">
        <ele>91.75</ele>
        <time>2021-03-20T21:58:30Z</time>
      </trkpt>
      <trkpt lat="54.16451" lon="-6.35995">
        <ele>95.42</ele>
        <time>2021-03-20T21:58:35Z</time>
      </trkpt>
      <trkpt lat="54.16406" lon="-6.35982">
        <ele>95.82</ele>
        <time>2021-03-20T21:58:40Z</time>
      </trkpt>
      <trkpt lat="54.1636" lon="-6.35965">
        <ele>98.48</ele>
        <time>2021-03-20T21:58:46Z</time>
      </trkpt>
      <trkpt lat="54.16253" lon="-6.3592">
        <ele>96.82</ele>
        <time>2021-03-20T21:58:51Z</time>
      </trkpt>
      <trkpt lat="54.16203" lon="-6.35893">
        <ele>96.43</ele>
        <time>2021-03-20T21:58:57Z</time>
      </trkpt>
      <trkpt lat="54.16163" lon="-6.35868">
        <ele>97</ele>
        <time>2021-03-20T21:59:02Z</time>
      </trkpt>
      <trkpt lat="54.1609" lon="-6.35811">
        <ele>98.69</ele>
        <time>2021-03-20T21:59:07Z</time>
      </trkpt>
      <trkpt lat="54.16047" lon="-6.35771">
        <ele>100.06</ele>
        <time>2021-03-20T21:59:13Z</time>
      </trkpt>
      <trkpt lat="54.16005" lon="-6.35727">
        <ele>100.8</ele>
        <time>2021-03-20T21:59:18Z</time>
      </trkpt>
      <trkpt lat="54.15959" lon="-6.35671">
        <ele>104.36</ele>
        <time>2021-03-20T21:59:24Z</time>
      </trkpt>
      <trkpt lat="54.15913" lon="-6.35609">
        <ele>103.33</ele>
        <time>2021-03-20T21:59:29Z</time>
      </trkpt>
      <trkpt lat="54.15707" lon="-6.3531">
        <ele>102</ele>
        <time>2021-03-20T21:59:34Z</time>
      </trkpt>
      <trkpt lat="54.15612" lon="-6.35175">
        <ele>100.67</ele>
        <time>2021-03-20T21:59:40Z</time>
      </trkpt>
      <trkpt lat="54.1555" lon="-6.35093">
        <ele>102.65</ele>
        <time>2021-03-20T21:59:45Z</time>
      </trkpt>
      <trkpt lat="54.15478" lon="-6.35006">
        <ele>110.77</ele>
        <time>2021-03-20T21:59:50Z</time>
      </trkpt>
      <trkpt lat="54.15405" lon="-6.34925">
        <ele>119.32</ele>
        <time>2021-03-20T21:59:56Z</time>
      </trkpt>
      <trkpt lat="54.15275" lon="-6.34791">
        <ele>120.06</ele>
        <time>2021-03-20T22:00:01Z</time>
      </trkpt>
      <trkpt lat="54.15094" lon="-6.34611">
        <ele>110.23</ele>
        <time>2021-03-20T22:00:07Z</time>
      </trkpt>
      <trkpt lat="54.14979" lon="-6.34505">
        <ele>116.61</ele>
        <time>2021-03-20T22:00:12Z</time>
      </trkpt>
      <trkpt lat="54.14939" lon="-6.34472">
        <ele>118.54</ele>
        <time>2021-03-20T22:00:17Z</time>
      </trkpt>
      <trkpt lat="54.14863" lon="-6.34421">
        <ele>120.32</ele>
        <time>2021-03-20T22:00:23Z</time>
      </trkpt>
      <trkpt lat="54.14825" lon="-6.344">
        <ele>122.42</ele>
        <time>2021-03-20T22:00:28Z</time>
      </trkpt>
      <trkpt lat="54.14762" lon="-6.34371">
        <ele>125.26</ele>
        <time>2021-03-20T22:00:34Z</time>
      </trkpt>
      <trkpt lat="54.14719" lon="-6.34355">
        <ele>125.37</ele>
        <time>2021-03-20T22:00:39Z</time>
      </trkpt>
      <trkpt lat="54.14665" lon="-6.34341">
        <ele>128.34</ele>
        <time>2021-03-20T22:00:44Z</time>
      </trkpt>
      <trkpt lat="54.14486" lon="-6.34309">
        <ele>134.6</ele>
        <time>2021-03-20T22:00:50Z</time>
      </trkpt>
      <trkpt lat="54.14272" lon="-6.34274">
        <ele>136.77</ele>
        <time>2021-03-20T22:00:55Z</time>
      </trkpt>
      <trkpt lat="54.14202" lon="-6.34266">
        <ele>139.49</ele>
        <time>2021-03-20T22:01:00Z</time>
      </trkpt>
      <trkpt lat="54.14097" lon="-6.34253">
        <ele>141.65</ele>
        <time>2021-03-20T22:01:03Z</time>
      </trkpt>
      <trkpt lat="54.14048" lon="-6.34252">
        <ele>142.07</ele>
        <time>2021-03-20T22:01:05Z</time>
      </trkpt>
      <trkpt lat="54.14" lon="-6.34257">
        <ele>145.02</ele>
        <time>2021-03-20T22:01:08Z</time>
      </trkpt>
      <trkpt lat="54.1392" lon="-6.34273">
        <ele>145.12</ele>
        <time>2021-03-20T22:01:10Z</time>
      </trkpt>
      <trkpt lat="54.13851" lon="-6.34301">
        <ele>139.81</ele>
        <time>2021-03-20T22:01:13Z</time>
      </trkpt>
      <trkpt lat="54.13836" lon="-6.34301">
        <ele>138.14</ele>
        <time>2021-03-20T22:01:15Z</time>
      </trkpt>
      <trkpt lat="54.13825" lon="-6.34294">
        <ele>136.53</ele>
        <time>2021-03-20T22:01:18Z</time>
      </trkpt>
      <trkpt lat="54.13824" lon="-6.34286">
        <ele>136.14</ele>
        <time>2021-03-20T22:01:24Z</time>
      </trkpt>
      <trkpt lat="54.13816" lon="-6.34274">
        <ele>135.16</ele>
        <time>2021-03-20T22:01:30Z</time>
      </trkpt>
      <trkpt lat="54.13806" lon="-6.34273">
        <ele>134.07</ele>
        <time>2021-03-20T22:01:36Z</time>
      </trkpt>
      <trkpt lat="54.13798" lon="-6.34282">
        <ele>133.68</ele>
        <time>2021-03-20T22:01:41Z</time>
      </trkpt>
      <trkpt lat="54.13771" lon="-6.3426">
        <ele>133</ele>
        <time>2021-03-20T22:01:47Z</time>
      </trkpt>
      <trkpt lat="54.13751" lon="-6.34249">
        <ele>133.02</ele>
        <time>2021-03-20T22:01:53Z</time>
      </trkpt>
      <trkpt lat="54.13711" lon="-6.34237">
        <ele>132.42</ele>
        <time>2021-03-20T22:01:59Z</time>
      </trkpt>
      <trkpt lat="54.13683" lon="-6.34236">
        <ele>130.43</ele>
        <time>2021-03-20T22:02:05Z</time>
      </trkpt>
      <trkpt lat="54.13656" lon="-6.34241">
        <ele>129</ele>
        <time>2021-03-20T22:02:11Z</time>
      </trkpt>
      <trkpt lat="54.1361" lon="-6.34261">
        <ele>131.03</ele>
        <time>2021-03-20T22:02:17Z</time>
      </trkpt>
      <trkpt lat="54.13521" lon="-6.34309">
        <ele>130.74</ele>
        <time>2021-03-20T22:02:22Z</time>
      </trkpt>
      <trkpt lat="54.13472" lon="-6.34338">
        <ele>127.99</ele>
        <time>2021-03-20T22:02:28Z</time>
      </trkpt>
      <trkpt lat="54.1342" lon="-6.34373">
        <ele>127</ele>
        <time>2021-03-20T22:02:34Z</time>
      </trkpt>
      <trkpt lat="54.13387" lon="-6.34399">
        <ele>126.63</ele>
        <time>2021-03-20T22:02:40Z</time>
      </trkpt>
      <trkpt lat="54.1321" lon="-6.34546">
        <ele>128</ele>
        <time>2021-03-20T22:02:46Z</time>
      </trkpt>
      <trkpt lat="54.13163" lon="-6.3459">
        <ele>128.15</ele>
        <time>2021-03-20T22:02:52Z</time>
      </trkpt>
      <trkpt lat="54.13112" lon="-6.34627">
        <ele>129.38</ele>
        <time>2021-03-20T22:02:57Z</time>
      </trkpt>
      <trkpt lat="54.12841" lon="-6.34854">
        <ele>128.19</ele>
        <time>2021-03-20T22:03:03Z</time>
      </trkpt>
      <trkpt lat="54.12553" lon="-6.35102">
        <ele>117</ele>
        <time>2021-03-20T22:03:09Z</time>
      </trkpt>
      <trkpt lat="54.12134" lon="-6.35419">
        <ele>105</ele>
        <time>2021-03-20T22:03:15Z</time>
      </trkpt>
      <trkpt lat="54.12038" lon="-6.35488">
        <ele>104</ele>
        <time>2021-03-20T22:03:21Z</time>
      </trkpt>
      <trkpt lat="54.11985" lon="-6.35524">
        <ele>103.14</ele>
        <time>2021-03-20T22:03:27Z</time>
      </trkpt>
      <trkpt lat="54.11947" lon="-6.35545">
        <ele>103.9</ele>
        <time>2021-03-20T22:03:33Z</time>
      </trkpt>
      <trkpt lat="54.11675" lon="-6.3567">
        <ele>105.61</ele>
        <time>2021-03-20T22:03:38Z</time>
      </trkpt>
      <trkpt lat="54.11506" lon="-6.35759">
        <ele>101.23</ele>
        <time>2021-03-20T22:03:44Z</time>
      </trkpt>
      <trkpt lat="54.11405" lon="-6.35807">
        <ele>98.56</ele>
        <time>2021-03-20T22:03:50Z</time>
      </trkpt>
      <trkpt lat="54.11295" lon="-6.35856">
        <ele>94.58</ele>
        <time>2021-03-20T22:03:56Z</time>
      </trkpt>
      <trkpt lat="54.11216" lon="-6.35885">
        <ele>95</ele>
        <time>2021-03-20T22:04:02Z</time>
      </trkpt>
      <trkpt lat="54.11169" lon="-6.35899">
        <ele>95</ele>
        <time>2021-03-20T22:04:08Z</time>
      </trkpt>
      <trkpt lat="54.11105" lon="-6.35916">
        <ele>94.25</ele>
        <time>2021-03-20T22:04:14Z</time>
      </trkpt>
      <trkpt lat="54.10703" lon="-6.35984">
        <ele>100.42</ele>
        <time>2021-03-20T22:04:19Z</time>
      </trkpt>
      <trkpt lat="54.10634" lon="-6.36001">
        <ele>102</ele>
        <time>2021-03-20T22:04:25Z</time>
      </trkpt>
      <trkpt lat="54.10365" lon="-6.36077">
        <ele>101.46</ele>
        <time>2021-03-20T22:04:31Z</time>
      </trkpt>
      <trkpt lat="54.10328" lon="-6.36086">
        <ele>101.69</ele>
        <time>2021-03-20T22:04:37Z</time>
      </trkpt>
      <trkpt lat="54.10286" lon="-6.36093">
        <ele>100.97</ele>
        <time>2021-03-20T22:04:43Z</time>
      </trkpt>
      <trkpt lat="54.10175" lon="-6.36103">
        <ele>101.15</ele>
        <time>2021-03-20T22:04:49Z</time>
      </trkpt>
      <trkpt lat="54.10111" lon="-6.36104">
        <ele>98.75</ele>
        <time>2021-03-20T22:04:55Z</time>
      </trkpt>
      <trkpt lat="54.10061" lon="-6.36099">
        <ele>101.33</ele>
        <time>2021-03-20T22:05:00Z</time>
      </trkpt>
      <trkpt lat="54.09921" lon="-6.36068">
        <ele>99.95</ele>
        <time>2021-03-20T22:05:06Z</time>
      </trkpt>
      <trkpt lat="54.09907" lon="-6.36057">
        <ele>100.6</ele>
        <time>2021-03-20T22:05:12Z</time>
      </trkpt>
      <trkpt lat="54.09901" lon="-6.36046">
        <ele>100.99</ele>
        <time>2021-03-20T22:05:18Z</time>
      </trkpt>
      <trkpt lat="54.09894" lon="-6.36038">
        <ele>101.35</ele>
        <time>2021-03-20T22:05:23Z</time>
      </trkpt>
      <trkpt lat="54.0989" lon="-6.36037">
        <ele>101.35</ele>
        <time>2021-03-20T22:05:29Z</time>
      </trkpt>
      <trkpt lat="54.09882" lon="-6.36042">
        <ele>100.96</ele>
        <time>2021-03-20T22:05:34Z</time>
      </trkpt>
      <trkpt lat="54.0988" lon="-6.36048">
        <ele>100.57</ele>
        <time>2021-03-20T22:05:40Z</time>
      </trkpt>
      <trkpt lat="54.09862" lon="-6.36062">
        <ele>99.56</ele>
        <time>2021-03-20T22:05:46Z</time>
      </trkpt>
      <trkpt lat="54.09695" lon="-6.3609">
        <ele>95</ele>
        <time>2021-03-20T22:05:51Z</time>
      </trkpt>
      <trkpt lat="54.09647" lon="-6.36096">
        <ele>97.17</ele>
        <time>2021-03-20T22:05:57Z</time>
      </trkpt>
      <trkpt lat="54.09628" lon="-6.36096">
        <ele>98.22</ele>
        <time>2021-03-20T22:06:02Z</time>
      </trkpt>
      <trkpt lat="54.09576" lon="-6.36094">
        <ele>100.26</ele>
        <time>2021-03-20T22:06:08Z</time>
      </trkpt>
      <trkpt lat="54.09493" lon="-6.36072">
        <ele>102.41</ele>
        <time>2021-03-20T22:06:13Z</time>
      </trkpt>
      <trkpt lat="54.09317" lon="-6.3599">
        <ele>107.6</ele>
        <time>2021-03-20T22:06:19Z</time>
      </trkpt>
      <trkpt lat="54.09275" lon="-6.35978">
        <ele>108.8</ele>
        <time>2021-03-20T22:06:24Z</time>
      </trkpt>
      <trkpt lat="54.0917" lon="-6.35932">
        <ele>103.15</ele>
        <time>2021-03-20T22:06:30Z</time>
      </trkpt>
      <trkpt lat="54.09057" lon="-6.35889">
        <ele>106.98</ele>
        <time>2021-03-20T22:06:35Z</time>
      </trkpt>
      <trkpt lat="54.08766" lon="-6.35798">
        <ele>93.9</ele>
        <time>2021-03-20T22:06:41Z</time>
      </trkpt>
      <trkpt lat="54.08505" lon="-6.35703">
        <ele>94.22</ele>
        <time>2021-03-20T22:06:46Z</time>
      </trkpt>
      <trkpt lat="54.08421" lon="-6.35654">
        <ele>91.69</ele>
        <time>2021-03-20T22:06:52Z</time>
      </trkpt>
      <trkpt lat="54.08287" lon="-6.35548">
        <ele>87.96</ele>
        <time>2021-03-20T22:06:57Z</time>
      </trkpt>
      <trkpt lat="54.08235" lon="-6.35501">
        <ele>87.57</ele>
        <time>2021-03-20T22:07:03Z</time>
      </trkpt>
      <trkpt lat="54.08077" lon="-6.35365">
        <ele>83.69</ele>
        <time>2021-03-20T22:07:08Z</time>
      </trkpt>
      <trkpt lat="54.08022" lon="-6.35329">
        <ele>84.08</ele>
        <time>2021-03-20T22:07:14Z</time>
      </trkpt>
      <trkpt lat="54.07965" lon="-6.35299">
        <ele>84.81</ele>
        <time>2021-03-20T22:07:19Z</time>
      </trkpt>
      <trkpt lat="54.07908" lon="-6.35273">
        <ele>90.49</ele>
        <time>2021-03-20T22:07:25Z</time>
      </trkpt>
      <trkpt lat="54.07879" lon="-6.35262">
        <ele>92.39</ele>
        <time>2021-03-20T22:07:30Z</time>
      </trkpt>
      <trkpt lat="54.07732" lon="-6.35226">
        <ele>85.91</ele>
        <time>2021-03-20T22:07:36Z</time>
      </trkpt>
      <trkpt lat="54.07217" lon="-6.3512">
        <ele>84.12</ele>
        <time>2021-03-20T22:07:41Z</time>
      </trkpt>
      <trkpt lat="54.0715" lon="-6.351">
        <ele>82.16</ele>
        <time>2021-03-20T22:07:45Z</time>
      </trkpt>
      <trkpt lat="54.06862" lon="-6.35026">
        <ele>70.91</ele>
        <time>2021-03-20T22:07:49Z</time>
      </trkpt>
      <trkpt lat="54.06847" lon="-6.35016">
        <ele>69.64</ele>
        <time>2021-03-20T22:07:53Z</time>
      </trkpt>
      <trkpt lat="54.06838" lon="-6.35007">
        <ele>68.66</ele>
        <time>2021-03-20T22:07:58Z</time>
      </trkpt>
      <trkpt lat="54.06831" lon="-6.34994">
        <ele>67.71</ele>
        <time>2021-03-20T22:08:01Z</time>
      </trkpt>
      <trkpt lat="54.06821" lon="-6.3499">
        <ele>67.35</ele>
        <time>2021-03-20T22:08:05Z</time>
      </trkpt>
      <trkpt lat="54.06816" lon="-6.34992">
        <ele>67.27</ele>
        <time>2021-03-20T22:08:09Z</time>
      </trkpt>
      <trkpt lat="54.06809" lon="-6.35003">
        <ele>67.35</ele>
        <time>2021-03-20T22:08:12Z</time>
      </trkpt>
      <trkpt lat="54.06807" lon="-6.35019">
        <ele>68.4</ele>
        <time>2021-03-20T22:08:16Z</time>
      </trkpt>
      <trkpt lat="54.06808" lon="-6.35027">
        <ele>69</ele>
        <time>2021-03-20T22:08:20Z</time>
      </trkpt>
      <trkpt lat="54.06791" lon="-6.35038">
        <ele>69.36</ele>
        <time>2021-03-20T22:08:24Z</time>
      </trkpt>
      <trkpt lat="54.06756" lon="-6.35053">
        <ele>70.69</ele>
        <time>2021-03-20T22:08:27Z</time>
      </trkpt>
      <trkpt lat="54.06681" lon="-6.35067">
        <ele>72.58</ele>
        <time>2021-03-20T22:08:31Z</time>
      </trkpt>
      <trkpt lat="54.06636" lon="-6.3508">
        <ele>74.21</ele>
        <time>2021-03-20T22:08:35Z</time>
      </trkpt>
      <trkpt lat="54.06584" lon="-6.35101">
        <ele>75.98</ele>
        <time>2021-03-20T22:08:38Z</time>
      </trkpt>
      <trkpt lat="54.06469" lon="-6.35158">
        <ele>73.11</ele>
        <time>2021-03-20T22:08:42Z</time>
      </trkpt>
      <trkpt lat="54.06342" lon="-6.35182">
        <ele>74.93</ele>
        <time>2021-03-20T22:08:46Z</time>
      </trkpt>
      <trkpt lat="54.06247" lon="-6.35205">
        <ele>74</ele>
        <time>2021-03-20T22:08:50Z</time>
      </trkpt>
      <trkpt lat="54.06193" lon="-6.35228">
        <ele>75.2</ele>
        <time>2021-03-20T22:08:53Z</time>
      </trkpt>
      <trkpt lat="54.06136" lon="-6.3526">
        <ele>72.9</ele>
        <time>2021-03-20T22:08:57Z</time>
      </trkpt>
      <trkpt lat="54.05863" lon="-6.35443">
        <ele>69</ele>
        <time>2021-03-20T22:09:01Z</time>
      </trkpt>
      <trkpt lat="54.05808" lon="-6.35473">
        <ele>71</ele>
        <time>2021-03-20T22:09:05Z</time>
      </trkpt>
      <trkpt lat="54.05788" lon="-6.35481">
        <ele>70.37</ele>
        <time>2021-03-20T22:09:08Z</time>
      </trkpt>
      <trkpt lat="54.05587" lon="-6.35534">
        <ele>65</ele>
        <time>2021-03-20T22:09:12Z</time>
      </trkpt>
      <trkpt lat="54.0555" lon="-6.35539">
        <ele>65.08</ele>
        <time>2021-03-20T22:09:16Z</time>
      </trkpt>
      <trkpt lat="54.05498" lon="-6.35537">
        <ele>63.94</ele>
        <time>2021-03-20T22:09:19Z</time>
      </trkpt>
      <trkpt lat="54.05285" lon="-6.3552">
        <ele>61.52</ele>
        <time>2021-03-20T22:09:23Z</time>
      </trkpt>
      <trkpt lat="54.05243" lon="-6.3552">
        <ele>63.46</ele>
        <time>2021-03-20T22:09:27Z</time>
      </trkpt>
      <trkpt lat="54.0521" lon="-6.35525">
        <ele>65.35</ele>
        <time>2021-03-20T22:09:31Z</time>
      </trkpt>
      <trkpt lat="54.05179" lon="-6.35534">
        <ele>66</ele>
        <time>2021-03-20T22:09:34Z</time>
      </trkpt>
      <trkpt lat="54.05133" lon="-6.35556">
        <ele>65.02</ele>
        <time>2021-03-20T22:09:38Z</time>
      </trkpt>
      <trkpt lat="54.05105" lon="-6.35573">
        <ele>65.61</ele>
        <time>2021-03-20T22:09:42Z</time>
      </trkpt>
      <trkpt lat="54.05073" lon="-6.35597">
        <ele>66.32</ele>
        <time>2021-03-20T22:09:46Z</time>
      </trkpt>
      <trkpt lat="54.05046" lon="-6.35622">
        <ele>66.59</ele>
        <time>2021-03-20T22:09:49Z</time>
      </trkpt>
      <trkpt lat="54.05031" lon="-6.35642">
        <ele>67</ele>
        <time>2021-03-20T22:09:53Z</time>
      </trkpt>
      <trkpt lat="54.05011" lon="-6.35662">
        <ele>66.38</ele>
        <time>2021-03-20T22:09:57Z</time>
      </trkpt>
      <trkpt lat="54.0445" lon="-6.36531">
        <ele>30.81</ele>
        <time>2021-03-20T22:10:00Z</time>
      </trkpt>
      <trkpt lat="54.04392" lon="-6.36627">
        <ele>31</ele>
        <time>2021-03-20T22:10:04Z</time>
      </trkpt>
      <trkpt lat="54.04306" lon="-6.36778">
        <ele>29.05</ele>
        <time>2021-03-20T22:10:08Z</time>
      </trkpt>
      <trkpt lat="54.04187" lon="-6.36984">
        <ele>25.44</ele>
        <time>2021-03-20T22:10:12Z</time>
      </trkpt>
      <trkpt lat="54.04136" lon="-6.37061">
        <ele>23.98</ele>
        <time>2021-03-20T22:10:15Z</time>
      </trkpt>
      <trkpt lat="54.04091" lon="-6.37121">
        <ele>23.09</ele>
        <time>2021-03-20T22:10:19Z</time>
      </trkpt>
      <trkpt lat="54.0405" lon="-6.37186">
        <ele>22.48</ele>
        <time>2021-03-20T22:10:23Z</time>
      </trkpt>
      <trkpt lat="54.03954" lon="-6.37324">
        <ele>19.33</ele>
        <time>2021-03-20T22:10:27Z</time>
      </trkpt>
      <trkpt lat="54.03875" lon="-6.37445">
        <ele>16</ele>
        <time>2021-03-20T22:10:30Z</time>
      </trkpt>
      <trkpt lat="54.03841" lon="-6.37513">
        <ele>14.68</ele>
        <time>2021-03-20T22:10:34Z</time>
      </trkpt>
      <trkpt lat="54.03803" lon="-6.37603">
        <ele>11.2</ele>
        <time>2021-03-20T22:10:38Z</time>
      </trkpt>
      <trkpt lat="54.03744" lon="-6.37775">
        <ele>9.79</ele>
        <time>2021-03-20T22:10:41Z</time>
      </trkpt>
      <trkpt lat="54.03734" lon="-6.37814">
        <ele>10</ele>
        <time>2021-03-20T22:10:45Z</time>
      </trkpt>
      <trkpt lat="54.03732" lon="-6.3783">
        <ele>10</ele>
        <time>2021-03-20T22:10:49Z</time>
      </trkpt>
      <trkpt lat="54.03718" lon="-6.37827">
        <ele>9.85</ele>
        <time>2021-03-20T22:10:50Z</time>
      </trkpt>
      <trkpt lat="54.03705" lon="-6.37834">
        <ele>9.37</ele>
        <time>2021-03-20T22:10:52Z</time>
      </trkpt>
      <trkpt lat="54.03697" lon="-6.37844">
        <ele>9.13</ele>
        <time>2021-03-20T22:10:53Z</time>
      </trkpt>
      <trkpt lat="54.03691" lon="-6.37857">
        <ele>9</ele>
        <time>2021-03-20T22:10:55Z</time>
      </trkpt>
      <trkpt lat="54.03687" lon="-6.37874">
        <ele>9</ele>
        <time>2021-03-20T22:10:57Z</time>
      </trkpt>
      <trkpt lat="54.03688" lon="-6.37899">
        <ele>9.09</ele>
        <time>2021-03-20T22:10:58Z</time>
      </trkpt>
      <trkpt lat="54.03694" lon="-6.37921">
        <ele>9.03</ele>
        <time>2021-03-20T22:11:00Z</time>
      </trkpt>
      <trkpt lat="54.03701" lon="-6.37933">
        <ele>9.23</ele>
        <time>2021-03-20T22:11:01Z</time>
      </trkpt>
      <trkpt lat="54.03691" lon="-6.37961">
        <ele>9.89</ele>
        <time>2021-03-20T22:11:03Z</time>
      </trkpt>
      <trkpt lat="54.03661" lon="-6.38075">
        <ele>13.44</ele>
        <time>2021-03-20T22:11:04Z</time>
      </trkpt>
      <trkpt lat="54.03633" lon="-6.38191">
        <ele>13.3</ele>
        <time>2021-03-20T22:11:06Z</time>
      </trkpt>
      <trkpt lat="54.03587" lon="-6.38394">
        <ele>13.85</ele>
        <time>2021-03-20T22:11:07Z</time>
      </trkpt>
      <trkpt lat="54.0357" lon="-6.38458">
        <ele>12.02</ele>
        <time>2021-03-20T22:11:09Z</time>
      </trkpt>
      <trkpt lat="54.03561" lon="-6.38449">
        <ele>12.02</ele>
        <time>2021-03-20T22:11:17Z</time>
      </trkpt>
      <trkpt lat="54.03547" lon="-6.38442">
        <ele>11.73</ele>
        <time>2021-03-20T22:11:25Z</time>
      </trkpt>
      <trkpt lat="54.03537" lon="-6.38442">
        <ele>11.37</ele>
        <time>2021-03-20T22:11:34Z</time>
      </trkpt>
      <trkpt lat="54.0352" lon="-6.38449">
        <ele>10.75</ele>
        <time>2021-03-20T22:11:42Z</time>
      </trkpt>
      <trkpt lat="54.03508" lon="-6.38462">
        <ele>10.73</ele>
        <time>2021-03-20T22:11:51Z</time>
      </trkpt>
      <trkpt lat="54.03499" lon="-6.38479">
        <ele>10.92</ele>
        <time>2021-03-20T22:11:59Z</time>
      </trkpt>
      <trkpt lat="54.03494" lon="-6.38494">
        <ele>10.57</ele>
        <time>2021-03-20T22:12:07Z</time>
      </trkpt>
      <trkpt lat="54.03491" lon="-6.38522">
        <ele>10.07</ele>
        <time>2021-03-20T22:12:16Z</time>
      </trkpt>
      <trkpt lat="54.03492" lon="-6.38545">
        <ele>10</ele>
        <time>2021-03-20T22:12:24Z</time>
      </trkpt>
      <trkpt lat="54.03495" lon="-6.38561">
        <ele>10</ele>
        <time>2021-03-20T22:12:32Z</time>
      </trkpt>
      <trkpt lat="54.03506" lon="-6.38587">
        <ele>9.8</ele>
        <time>2021-03-20T22:12:41Z</time>
      </trkpt>
      <trkpt lat="54.03519" lon="-6.38603">
        <ele>9.3</ele>
        <time>2021-03-20T22:12:49Z</time>
      </trkpt>
      <trkpt lat="54.03537" lon="-6.38611">
        <ele>9.31</ele>
        <time>2021-03-20T22:12:57Z</time>
      </trkpt>
      <trkpt lat="54.03557" lon="-6.38632">
        <ele>10</ele>
        <time>2021-03-20T22:13:06Z</time>
      </trkpt>
      <trkpt lat="54.03562" lon="-6.38647">
        <ele>10</ele>
        <time>2021-03-20T22:13:14Z</time>
      </trkpt>
      <trkpt lat="54.03567" lon="-6.38664">
        <ele>10</ele>
        <time>2021-03-20T22:13:22Z</time>
      </trkpt>
      <trkpt lat="54.03571" lon="-6.38707">
        <ele>10.45</ele>
        <time>2021-03-20T22:13:31Z</time>
      </trkpt>
      <trkpt lat="54.03574" lon="-6.38857">
        <ele>9.71</ele>
        <time>2021-03-20T22:13:39Z</time>
      </trkpt>
      <trkpt lat="54.03573" lon="-6.39093">
        <ele>6.62</ele>
        <time>2021-03-20T22:13:47Z</time>
      </trkpt>
      <trkpt lat="54.03577" lon="-6.39232">
        <ele>7.24</ele>
        <time>2021-03-20T22:13:56Z</time>
      </trkpt>
      <trkpt lat="54.03596" lon="-6.39631">
        <ele>10.17</ele>
        <time>2021-03-20T22:14:04Z</time>
      </trkpt>
      <trkpt lat="54.03605" lon="-6.39729">
        <ele>14.26</ele>
        <time>2021-03-20T22:14:12Z</time>
      </trkpt>
      <trkpt lat="54.03632" lon="-6.40287">
        <ele>12.57</ele>
        <time>2021-03-20T22:14:21Z</time>
      </trkpt>
      <trkpt lat="54.03641" lon="-6.40504">
        <ele>18.8</ele>
        <time>2021-03-20T22:14:29Z</time>
      </trkpt>
      <trkpt lat="54.03643" lon="-6.40581">
        <ele>19.62</ele>
        <time>2021-03-20T22:14:38Z</time>
      </trkpt>
      <trkpt lat="54.03643" lon="-6.40758">
        <ele>25.52</ele>
        <time>2021-03-20T22:14:46Z</time>
      </trkpt>
      <trkpt lat="54.03642" lon="-6.40867">
        <ele>23</ele>
        <time>2021-03-20T22:14:54Z</time>
      </trkpt>
      <trkpt lat="54.03639" lon="-6.40948">
        <ele>23</ele>
        <time>2021-03-20T22:15:03Z</time>
      </trkpt>
      <trkpt lat="54.03628" lon="-6.4115">
        <ele>23.41</ele>
        <time>2021-03-20T22:15:11Z</time>
      </trkpt>
      <trkpt lat="54.03615" lon="-6.41303">
        <ele>19.22</ele>
        <time>2021-03-20T22:15:19Z</time>
      </trkpt>
      <trkpt lat="54.03596" lon="-6.41479">
        <ele>17.44</ele>
        <time>2021-03-20T22:15:28Z</time>
      </trkpt>
      <trkpt lat="54.03573" lon="-6.41635">
        <ele>15.69</ele>
        <time>2021-03-20T22:15:36Z</time>
      </trkpt>
      <trkpt lat="54.03547" lon="-6.41803">
        <ele>14.77</ele>
        <time>2021-03-20T22:15:44Z</time>
      </trkpt>
      <trkpt lat="54.03524" lon="-6.41918">
        <ele>15</ele>
        <time>2021-03-20T22:15:53Z</time>
      </trkpt>
      <trkpt lat="54.03493" lon="-6.42062">
        <ele>15.96</ele>
        <time>2021-03-20T22:16:01Z</time>
      </trkpt>
      <trkpt lat="54.03436" lon="-6.42294">
        <ele>30.16</ele>
        <time>2021-03-20T22:16:09Z</time>
      </trkpt>
      <trkpt lat="54.0341" lon="-6.42385">
        <ele>25.67</ele>
        <time>2021-03-20T22:16:18Z</time>
      </trkpt>
      <trkpt lat="54.03358" lon="-6.42552">
        <ele>21.88</ele>
        <time>2021-03-20T22:16:26Z</time>
      </trkpt>
      <trkpt lat="54.03331" lon="-6.42628">
        <ele>20.62</ele>
        <time>2021-03-20T22:16:34Z</time>
      </trkpt>
      <trkpt lat="54.03306" lon="-6.42691">
        <ele>21.87</ele>
        <time>2021-03-20T22:16:43Z</time>
      </trkpt>
      <trkpt lat="54.03255" lon="-6.42809">
        <ele>21.35</ele>
        <time>2021-03-20T22:16:51Z</time>
      </trkpt>
      <trkpt lat="54.03198" lon="-6.42919">
        <ele>16.13</ele>
        <time>2021-03-20T22:16:59Z</time>
      </trkpt>
      <trkpt lat="54.03159" lon="-6.42985">
        <ele>13.46</ele>
        <time>2021-03-20T22:17:08Z</time>
      </trkpt>
      <trkpt lat="54.03133" lon="-6.43027">
        <ele>11.78</ele>
        <time>2021-03-20T22:17:16Z</time>
      </trkpt>
      <trkpt lat="54.03097" lon="-6.43079">
        <ele>11.51</ele>
        <time>2021-03-20T22:17:24Z</time>
      </trkpt>
      <trkpt lat="54.03049" lon="-6.43146">
        <ele>10.94</ele>
        <time>2021-03-20T22:17:33Z</time>
      </trkpt>
      <trkpt lat="54.02982" lon="-6.43226">
        <ele>8.54</ele>
        <time>2021-03-20T22:17:41Z</time>
      </trkpt>
      <trkpt lat="54.02907" lon="-6.43299">
        <ele>6.18</ele>
        <time>2021-03-20T22:17:50Z</time>
      </trkpt>
      <trkpt lat="54.02834" lon="-6.43376">
        <ele>7</ele>
        <time>2021-03-20T22:17:58Z</time>
      </trkpt>
      <trkpt lat="54.0238" lon="-6.43831">
        <ele>9</ele>
        <time>2021-03-20T22:18:06Z</time>
      </trkpt>
      <trkpt lat="54.02361" lon="-6.43848">
        <ele>9.01</ele>
        <time>2021-03-20T22:18:15Z</time>
      </trkpt>
      <trkpt lat="54.02212" lon="-6.43996">
        <ele>18.37</ele>
        <time>2021-03-20T22:18:23Z</time>
      </trkpt>
      <trkpt lat="54.02147" lon="-6.44055">
        <ele>22.98</ele>
        <time>2021-03-20T22:18:31Z</time>
      </trkpt>
      <trkpt lat="54.02079" lon="-6.44111">
        <ele>26.46</ele>
        <time>2021-03-20T22:18:40Z</time>
      </trkpt>
      <trkpt lat="54.01966" lon="-6.44199">
        <ele>35.53</ele>
        <time>2021-03-20T22:18:48Z</time>
      </trkpt>
      <trkpt lat="54.0183" lon="-6.44291">
        <ele>29.94</ele>
        <time>2021-03-20T22:18:56Z</time>
      </trkpt>
      <trkpt lat="54.01702" lon="-6.44367">
        <ele>28.52</ele>
        <time>2021-03-20T22:19:05Z</time>
      </trkpt>
      <trkpt lat="54.01549" lon="-6.4444">
        <ele>26.76</ele>
        <time>2021-03-20T22:19:13Z</time>
      </trkpt>
      <trkpt lat="54.01423" lon="-6.44488">
        <ele>37</ele>
        <time>2021-03-20T22:19:21Z</time>
      </trkpt>
      <trkpt lat="54.01352" lon="-6.4451">
        <ele>34.3</ele>
        <time>2021-03-20T22:19:30Z</time>
      </trkpt>
      <trkpt lat="54.01229" lon="-6.44542">
        <ele>32</ele>
        <time>2021-03-20T22:19:38Z</time>
      </trkpt>
      <trkpt lat="54.01152" lon="-6.44556">
        <ele>34.54</ele>
        <time>2021-03-20T22:19:46Z</time>
      </trkpt>
      <trkpt lat="54.01044" lon="-6.44572">
        <ele>38.83</ele>
        <time>2021-03-20T22:19:55Z</time>
      </trkpt>
      <trkpt lat="54.00957" lon="-6.44579">
        <ele>37.08</ele>
        <time>2021-03-20T22:20:03Z</time>
      </trkpt>
      <trkpt lat="54.00748" lon="-6.4458">
        <ele>36.76</ele>
        <time>2021-03-20T22:20:11Z</time>
      </trkpt>
      <trkpt lat="54.00576" lon="-6.44554">
        <ele>32.28</ele>
        <time>2021-03-20T22:20:20Z</time>
      </trkpt>
      <trkpt lat="54.00458" lon="-6.44527">
        <ele>37.05</ele>
        <time>2021-03-20T22:20:28Z</time>
      </trkpt>
      <trkpt lat="54.00389" lon="-6.44508">
        <ele>38.97</ele>
        <time>2021-03-20T22:20:37Z</time>
      </trkpt>
      <trkpt lat="54.00308" lon="-6.44481">
        <ele>33.11</ele>
        <time>2021-03-20T22:20:45Z</time>
      </trkpt>
      <trkpt lat="54.00165" lon="-6.44422">
        <ele>35</ele>
        <time>2021-03-20T22:20:53Z</time>
      </trkpt>
      <trkpt lat="54.00016" lon="-6.44349">
        <ele>28.59</ele>
        <time>2021-03-20T22:21:02Z</time>
      </trkpt>
      <trkpt lat="53.99961" lon="-6.44316">
        <ele>27.42</ele>
        <time>2021-03-20T22:21:10Z</time>
      </trkpt>
      <trkpt lat="53.99296" lon="-6.4389">
        <ele>17.11</ele>
        <time>2021-03-20T22:21:18Z</time>
      </trkpt>
      <trkpt lat="53.98954" lon="-6.43663">
        <ele>25.66</ele>
        <time>2021-03-20T22:21:27Z</time>
      </trkpt>
      <trkpt lat="53.9875" lon="-6.43499">
        <ele>30.03</ele>
        <time>2021-03-20T22:21:35Z</time>
      </trkpt>
      <trkpt lat="53.98677" lon="-6.4343">
        <ele>31.64</ele>
        <time>2021-03-20T22:21:43Z</time>
      </trkpt>
      <trkpt lat="53.98101" lon="-6.42858">
        <ele>41.68</ele>
        <time>2021-03-20T22:21:52Z</time>
      </trkpt>
      <trkpt lat="53.97927" lon="-6.42708">
        <ele>40.82</ele>
        <time>2021-03-20T22:22:00Z</time>
      </trkpt>
      <trkpt lat="53.97819" lon="-6.42628">
        <ele>39.66</ele>
        <time>2021-03-20T22:22:08Z</time>
      </trkpt>
      <trkpt lat="53.97708" lon="-6.42557">
        <ele>35.52</ele>
        <time>2021-03-20T22:22:17Z</time>
      </trkpt>
      <trkpt lat="53.97563" lon="-6.42479">
        <ele>31.77</ele>
        <time>2021-03-20T22:22:25Z</time>
      </trkpt>
      <trkpt lat="53.97454" lon="-6.42431">
        <ele>27.5</ele>
        <time>2021-03-20T22:22:33Z</time>
      </trkpt>
      <trkpt lat="53.97289" lon="-6.42397">
        <ele>24.28</ele>
        <time>2021-03-20T22:22:42Z</time>
      </trkpt>
      <trkpt lat="53.97208" lon="-6.42383">
        <ele>21.48</ele>
        <time>2021-03-20T22:22:50Z</time>
      </trkpt>
      <trkpt lat="53.97108" lon="-6.42372">
        <ele>20.95</ele>
        <time>2021-03-20T22:22:58Z</time>
      </trkpt>
      <trkpt lat="53.96979" lon="-6.42365">
        <ele>21</ele>
        <time>2021-03-20T22:23:07Z</time>
      </trkpt>
      <trkpt lat="53.96932" lon="-6.42359">
        <ele>19.97</ele>
        <time>2021-03-20T22:23:15Z</time>
      </trkpt>
      <trkpt lat="53.96837" lon="-6.4234">
        <ele>18.9</ele>
        <time>2021-03-20T22:23:23Z</time>
      </trkpt>
      <trkpt lat="53.96735" lon="-6.42311">
        <ele>19.09</ele>
        <time>2021-03-20T22:23:32Z</time>
      </trkpt>
      <trkpt lat="53.96643" lon="-6.42275">
        <ele>18.13</ele>
        <time>2021-03-20T22:23:40Z</time>
      </trkpt>
      <trkpt lat="53.96489" lon="-6.42197">
        <ele>17</ele>
        <time>2021-03-20T22:23:49Z</time>
      </trkpt>
      <trkpt lat="53.96222" lon="-6.42051">
        <ele>14.02</ele>
        <time>2021-03-20T22:23:57Z</time>
      </trkpt>
      <trkpt lat="53.96135" lon="-6.42006">
        <ele>14.96</ele>
        <time>2021-03-20T22:24:05Z</time>
      </trkpt>
      <trkpt lat="53.96006" lon="-6.41957">
        <ele>14.09</ele>
        <time>2021-03-20T22:24:14Z</time>
      </trkpt>
      <trkpt lat="53.95876" lon="-6.41925">
        <ele>10.53</ele>
        <time>2021-03-20T22:24:22Z</time>
      </trkpt>
      <trkpt lat="53.95715" lon="-6.41906">
        <ele>8.55</ele>
        <time>2021-03-20T22:24:30Z</time>
      </trkpt>
      <trkpt lat="53.95141" lon="-6.41914">
        <ele>7.16</ele>
        <time>2021-03-20T22:24:39Z</time>
      </trkpt>
      <trkpt lat="53.94866" lon="-6.41925">
        <ele>3</ele>
        <time>2021-03-20T22:24:47Z</time>
      </trkpt>
      <trkpt lat="53.94752" lon="-6.41912">
        <ele>4.06</ele>
        <time>2021-03-20T22:24:55Z</time>
      </trkpt>
      <trkpt lat="53.94645" lon="-6.41895">
        <ele>4</ele>
        <time>2021-03-20T22:25:04Z</time>
      </trkpt>
      <trkpt lat="53.94331" lon="-6.41786">
        <ele>4</ele>
        <time>2021-03-20T22:25:12Z</time>
      </trkpt>
      <trkpt lat="53.93471" lon="-6.41479">
        <ele>4</ele>
        <time>2021-03-20T22:25:20Z</time>
      </trkpt>
      <trkpt lat="53.93226" lon="-6.41388">
        <ele>4.86</ele>
        <time>2021-03-20T22:25:29Z</time>
      </trkpt>
      <trkpt lat="53.93103" lon="-6.41339">
        <ele>3</ele>
        <time>2021-03-20T22:25:37Z</time>
      </trkpt>
      <trkpt lat="53.92989" lon="-6.41309">
        <ele>2.41</ele>
        <time>2021-03-20T22:25:45Z</time>
      </trkpt>
      <trkpt lat="53.92887" lon="-6.41291">
        <ele>3.54</ele>
        <time>2021-03-20T22:25:54Z</time>
      </trkpt>
      <trkpt lat="53.92798" lon="-6.41285">
        <ele>6.46</ele>
        <time>2021-03-20T22:26:02Z</time>
      </trkpt>
      <trkpt lat="53.92738" lon="-6.41285">
        <ele>7.68</ele>
        <time>2021-03-20T22:26:10Z</time>
      </trkpt>
      <trkpt lat="53.92668" lon="-6.41293">
        <ele>8</ele>
        <time>2021-03-20T22:26:19Z</time>
      </trkpt>
      <trkpt lat="53.92551" lon="-6.41319">
        <ele>10.09</ele>
        <time>2021-03-20T22:26:27Z</time>
      </trkpt>
      <trkpt lat="53.92414" lon="-6.41364">
        <ele>11</ele>
        <time>2021-03-20T22:26:36Z</time>
      </trkpt>
      <trkpt lat="53.92012" lon="-6.41526">
        <ele>13.47</ele>
        <time>2021-03-20T22:26:44Z</time>
      </trkpt>
      <trkpt lat="53.91879" lon="-6.41562">
        <ele>13.76</ele>
        <time>2021-03-20T22:26:52Z</time>
      </trkpt>
      <trkpt lat="53.91282" lon="-6.41669">
        <ele>15.13</ele>
        <time>2021-03-20T22:27:01Z</time>
      </trkpt>
      <trkpt lat="53.90952" lon="-6.41742">
        <ele>15.53</ele>
        <time>2021-03-20T22:27:09Z</time>
      </trkpt>
      <trkpt lat="53.90799" lon="-6.4178">
        <ele>13.5</ele>
        <time>2021-03-20T22:27:17Z</time>
      </trkpt>
      <trkpt lat="53.90567" lon="-6.41857">
        <ele>11.14</ele>
        <time>2021-03-20T22:27:26Z</time>
      </trkpt>
      <trkpt lat="53.90314" lon="-6.41977">
        <ele>12</ele>
        <time>2021-03-20T22:27:34Z</time>
      </trkpt>
      <trkpt lat="53.89837" lon="-6.42245">
        <ele>7.14</ele>
        <time>2021-03-20T22:27:42Z</time>
      </trkpt>
      <trkpt lat="53.89633" lon="-6.42356">
        <ele>8.96</ele>
        <time>2021-03-20T22:27:51Z</time>
      </trkpt>
      <trkpt lat="53.8895" lon="-6.4274">
        <ele>13.49</ele>
        <time>2021-03-20T22:27:59Z</time>
      </trkpt>
      <trkpt lat="53.88794" lon="-6.42822">
        <ele>12</ele>
        <time>2021-03-20T22:28:07Z</time>
      </trkpt>
      <trkpt lat="53.88663" lon="-6.42875">
        <ele>15</ele>
        <time>2021-03-20T22:28:16Z</time>
      </trkpt>
      <trkpt lat="53.88421" lon="-6.42946">
        <ele>10.94</ele>
        <time>2021-03-20T22:28:24Z</time>
      </trkpt>
      <trkpt lat="53.88314" lon="-6.42963">
        <ele>10.32</ele>
        <time>2021-03-20T22:28:32Z</time>
      </trkpt>
      <trkpt lat="53.88179" lon="-6.42976">
        <ele>8.44</ele>
        <time>2021-03-20T22:28:41Z</time>
      </trkpt>
      <trkpt lat="53.88097" lon="-6.42978">
        <ele>8</ele>
        <time>2021-03-20T22:28:49Z</time>
      </trkpt>
      <trkpt lat="53.87997" lon="-6.42976">
        <ele>8</ele>
        <time>2021-03-20T22:28:57Z</time>
      </trkpt>
      <trkpt lat="53.87469" lon="-6.42923">
        <ele>14.21</ele>
        <time>2021-03-20T22:29:06Z</time>
      </trkpt>
      <trkpt lat="53.87035" lon="-6.42875">
        <ele>18.62</ele>
        <time>2021-03-20T22:29:14Z</time>
      </trkpt>
      <trkpt lat="53.86528" lon="-6.42827">
        <ele>25</ele>
        <time>2021-03-20T22:29:23Z</time>
      </trkpt>
      <trkpt lat="53.86283" lon="-6.42812">
        <ele>24</ele>
        <time>2021-03-20T22:29:31Z</time>
      </trkpt>
      <trkpt lat="53.85897" lon="-6.42794">
        <ele>24.29</ele>
        <time>2021-03-20T22:29:39Z</time>
      </trkpt>
      <trkpt lat="53.85837" lon="-6.42789">
        <ele>22.81</ele>
        <time>2021-03-20T22:29:48Z</time>
      </trkpt>
      <trkpt lat="53.8573" lon="-6.42771">
        <ele>19.04</ele>
        <time>2021-03-20T22:29:56Z</time>
      </trkpt>
      <trkpt lat="53.85606" lon="-6.42742">
        <ele>19</ele>
        <time>2021-03-20T22:30:04Z</time>
      </trkpt>
      <trkpt lat="53.85478" lon="-6.42698">
        <ele>19</ele>
        <time>2021-03-20T22:30:13Z</time>
      </trkpt>
      <trkpt lat="53.85353" lon="-6.42643">
        <ele>18</ele>
        <time>2021-03-20T22:30:21Z</time>
      </trkpt>
      <trkpt lat="53.8522" lon="-6.42567">
        <ele>22</ele>
        <time>2021-03-20T22:30:29Z</time>
      </trkpt>
      <trkpt lat="53.85151" lon="-6.42523">
        <ele>21.16</ele>
        <time>2021-03-20T22:30:38Z</time>
      </trkpt>
      <trkpt lat="53.83058" lon="-6.41014">
        <ele>50.33</ele>
        <time>2021-03-20T22:30:46Z</time>
      </trkpt>
      <trkpt lat="53.82568" lon="-6.40656">
        <ele>55.07</ele>
        <time>2021-03-20T22:30:54Z</time>
      </trkpt>
      <trkpt lat="53.822" lon="-6.40402">
        <ele>47.31</ele>
        <time>2021-03-20T22:31:03Z</time>
      </trkpt>
      <trkpt lat="53.82068" lon="-6.40316">
        <ele>46.94</ele>
        <time>2021-03-20T22:31:11Z</time>
      </trkpt>
      <trkpt lat="53.81963" lon="-6.40255">
        <ele>46</ele>
        <time>2021-03-20T22:31:19Z</time>
      </trkpt>
      <trkpt lat="53.81863" lon="-6.40202">
        <ele>46.15</ele>
        <time>2021-03-20T22:31:28Z</time>
      </trkpt>
      <trkpt lat="53.8168" lon="-6.40113">
        <ele>52.47</ele>
        <time>2021-03-20T22:31:36Z</time>
      </trkpt>
      <trkpt lat="53.81292" lon="-6.39979">
        <ele>52</ele>
        <time>2021-03-20T22:31:44Z</time>
      </trkpt>
      <trkpt lat="53.81107" lon="-6.39946">
        <ele>57.11</ele>
        <time>2021-03-20T22:31:53Z</time>
      </trkpt>
      <trkpt lat="53.80893" lon="-6.3992">
        <ele>61.01</ele>
        <time>2021-03-20T22:32:01Z</time>
      </trkpt>
      <trkpt lat="53.80672" lon="-6.39909">
        <ele>63.8</ele>
        <time>2021-03-20T22:32:09Z</time>
      </trkpt>
      <trkpt lat="53.80452" lon="-6.3992">
        <ele>68.6</ele>
        <time>2021-03-20T22:32:18Z</time>
      </trkpt>
      <trkpt lat="53.78514" lon="-6.40148">
        <ele>119.65</ele>
        <time>2021-03-20T22:32:26Z</time>
      </trkpt>
      <trkpt lat="53.78328" lon="-6.40178">
        <ele>120.81</ele>
        <time>2021-03-20T22:32:35Z</time>
      </trkpt>
      <trkpt lat="53.78116" lon="-6.40242">
        <ele>130.66</ele>
        <time>2021-03-20T22:32:43Z</time>
      </trkpt>
      <trkpt lat="53.77955" lon="-6.40306">
        <ele>134.37</ele>
        <time>2021-03-20T22:32:51Z</time>
      </trkpt>
      <trkpt lat="53.77742" lon="-6.4042">
        <ele>131.7</ele>
        <time>2021-03-20T22:33:00Z</time>
      </trkpt>
      <trkpt lat="53.77577" lon="-6.40522">
        <ele>123.98</ele>
        <time>2021-03-20T22:33:08Z</time>
      </trkpt>
      <trkpt lat="53.77493" lon="-6.40585">
        <ele>119</ele>
        <time>2021-03-20T22:33:16Z</time>
      </trkpt>
      <trkpt lat="53.77413" lon="-6.40651">
        <ele>118.31</ele>
        <time>2021-03-20T22:33:25Z</time>
      </trkpt>
      <trkpt lat="53.77051" lon="-6.40964">
        <ele>110.46</ele>
        <time>2021-03-20T22:33:33Z</time>
      </trkpt>
      <trkpt lat="53.76641" lon="-6.41296">
        <ele>116.41</ele>
        <time>2021-03-20T22:33:41Z</time>
      </trkpt>
      <trkpt lat="53.764" lon="-6.41409">
        <ele>99.31</ele>
        <time>2021-03-20T22:33:50Z</time>
      </trkpt>
      <trkpt lat="53.76244" lon="-6.41461">
        <ele>94.85</ele>
        <time>2021-03-20T22:33:58Z</time>
      </trkpt>
      <trkpt lat="53.76089" lon="-6.4148">
        <ele>97.21</ele>
        <time>2021-03-20T22:34:06Z</time>
      </trkpt>
      <trkpt lat="53.75931" lon="-6.41489">
        <ele>105.5</ele>
        <time>2021-03-20T22:34:15Z</time>
      </trkpt>
      <trkpt lat="53.75786" lon="-6.41471">
        <ele>103.41</ele>
        <time>2021-03-20T22:34:23Z</time>
      </trkpt>
      <trkpt lat="53.75605" lon="-6.41431">
        <ele>107.23</ele>
        <time>2021-03-20T22:34:31Z</time>
      </trkpt>
      <trkpt lat="53.7538" lon="-6.41338">
        <ele>104.38</ele>
        <time>2021-03-20T22:34:40Z</time>
      </trkpt>
      <trkpt lat="53.75213" lon="-6.4124">
        <ele>98.75</ele>
        <time>2021-03-20T22:34:48Z</time>
      </trkpt>
      <trkpt lat="53.75032" lon="-6.41087">
        <ele>104.11</ele>
        <time>2021-03-20T22:34:56Z</time>
      </trkpt>
      <trkpt lat="53.74929" lon="-6.40986">
        <ele>99.66</ele>
        <time>2021-03-20T22:35:05Z</time>
      </trkpt>
      <trkpt lat="53.74828" lon="-6.40864">
        <ele>90.51</ele>
        <time>2021-03-20T22:35:13Z</time>
      </trkpt>
      <trkpt lat="53.74634" lon="-6.4061">
        <ele>73.8</ele>
        <time>2021-03-20T22:35:22Z</time>
      </trkpt>
      <trkpt lat="53.74487" lon="-6.4043">
        <ele>68.52</ele>
        <time>2021-03-20T22:35:30Z</time>
      </trkpt>
      <trkpt lat="53.74353" lon="-6.40281">
        <ele>64.18</ele>
        <time>2021-03-20T22:35:38Z</time>
      </trkpt>
      <trkpt lat="53.74238" lon="-6.40172">
        <ele>59.17</ele>
        <time>2021-03-20T22:35:47Z</time>
      </trkpt>
      <trkpt lat="53.74027" lon="-6.40001">
        <ele>58.02</ele>
        <time>2021-03-20T22:35:55Z</time>
      </trkpt>
      <trkpt lat="53.73851" lon="-6.39882">
        <ele>58.84</ele>
        <time>2021-03-20T22:36:03Z</time>
      </trkpt>
      <trkpt lat="53.73601" lon="-6.39769">
        <ele>49.65</ele>
        <time>2021-03-20T22:36:12Z</time>
      </trkpt>
      <trkpt lat="53.73454" lon="-6.39714">
        <ele>52.1</ele>
        <time>2021-03-20T22:36:20Z</time>
      </trkpt>
      <trkpt lat="53.73398" lon="-6.39697">
        <ele>50.67</ele>
        <time>2021-03-20T22:36:28Z</time>
      </trkpt>
      <trkpt lat="53.73225" lon="-6.39659">
        <ele>38.15</ele>
        <time>2021-03-20T22:36:37Z</time>
      </trkpt>
      <trkpt lat="53.73063" lon="-6.3964">
        <ele>33</ele>
        <time>2021-03-20T22:36:45Z</time>
      </trkpt>
      <trkpt lat="53.73013" lon="-6.39637">
        <ele>33.48</ele>
        <time>2021-03-20T22:36:53Z</time>
      </trkpt>
      <trkpt lat="53.72918" lon="-6.39636">
        <ele>36.96</ele>
        <time>2021-03-20T22:37:02Z</time>
      </trkpt>
      <trkpt lat="53.72734" lon="-6.39641">
        <ele>31.42</ele>
        <time>2021-03-20T22:37:10Z</time>
      </trkpt>
      <trkpt lat="53.72164" lon="-6.39665">
        <ele>14.89</ele>
        <time>2021-03-20T22:37:18Z</time>
      </trkpt>
      <trkpt lat="53.71728" lon="-6.39679">
        <ele>22.13</ele>
        <time>2021-03-20T22:37:27Z</time>
      </trkpt>
      <trkpt lat="53.71516" lon="-6.3967">
        <ele>24</ele>
        <time>2021-03-20T22:37:35Z</time>
      </trkpt>
      <trkpt lat="53.71434" lon="-6.39651">
        <ele>26.39</ele>
        <time>2021-03-20T22:37:43Z</time>
      </trkpt>
      <trkpt lat="53.71267" lon="-6.39588">
        <ele>31</ele>
        <time>2021-03-20T22:37:52Z</time>
      </trkpt>
      <trkpt lat="53.71176" lon="-6.39544">
        <ele>35.32</ele>
        <time>2021-03-20T22:38:00Z</time>
      </trkpt>
      <trkpt lat="53.71087" lon="-6.39488">
        <ele>39.88</ele>
        <time>2021-03-20T22:38:08Z</time>
      </trkpt>
      <trkpt lat="53.70891" lon="-6.39333">
        <ele>43.91</ele>
        <time>2021-03-20T22:38:17Z</time>
      </trkpt>
      <trkpt lat="53.70782" lon="-6.39215">
        <ele>48.69</ele>
        <time>2021-03-20T22:38:25Z</time>
      </trkpt>
      <trkpt lat="53.70529" lon="-6.38848">
        <ele>55.49</ele>
        <time>2021-03-20T22:38:34Z</time>
      </trkpt>
      <trkpt lat="53.70333" lon="-6.38517">
        <ele>56</ele>
        <time>2021-03-20T22:38:42Z</time>
      </trkpt>
      <trkpt lat="53.70044" lon="-6.38052">
        <ele>55</ele>
        <time>2021-03-20T22:38:50Z</time>
      </trkpt>
      <trkpt lat="53.69774" lon="-6.37685">
        <ele>49</ele>
        <time>2021-03-20T22:38:59Z</time>
      </trkpt>
      <trkpt lat="53.69626" lon="-6.37508">
        <ele>46.67</ele>
        <time>2021-03-20T22:39:07Z</time>
      </trkpt>
      <trkpt lat="53.6955" lon="-6.37419">
        <ele>45</ele>
        <time>2021-03-20T22:39:15Z</time>
      </trkpt>
      <trkpt lat="53.69472" lon="-6.37334">
        <ele>44.01</ele>
        <time>2021-03-20T22:39:24Z</time>
      </trkpt>
      <trkpt lat="53.69329" lon="-6.37184">
        <ele>43.2</ele>
        <time>2021-03-20T22:39:32Z</time>
      </trkpt>
      <trkpt lat="53.69171" lon="-6.37031">
        <ele>45.84</ele>
        <time>2021-03-20T22:39:40Z</time>
      </trkpt>
      <trkpt lat="53.68751" lon="-6.36653">
        <ele>37.61</ele>
        <time>2021-03-20T22:39:49Z</time>
      </trkpt>
      <trkpt lat="53.68579" lon="-6.36501">
        <ele>34.83</ele>
        <time>2021-03-20T22:39:57Z</time>
      </trkpt>
      <trkpt lat="53.68002" lon="-6.35966">
        <ele>44</ele>
        <time>2021-03-20T22:40:05Z</time>
      </trkpt>
      <trkpt lat="53.67716" lon="-6.35647">
        <ele>33.57</ele>
        <time>2021-03-20T22:40:14Z</time>
      </trkpt>
      <trkpt lat="53.67439" lon="-6.35288">
        <ele>38.44</ele>
        <time>2021-03-20T22:40:22Z</time>
      </trkpt>
      <trkpt lat="53.6717" lon="-6.34896">
        <ele>26.02</ele>
        <time>2021-03-20T22:40:30Z</time>
      </trkpt>
      <trkpt lat="53.67004" lon="-6.34618">
        <ele>23</ele>
        <time>2021-03-20T22:40:39Z</time>
      </trkpt>
      <trkpt lat="53.66918" lon="-6.34463">
        <ele>21.65</ele>
        <time>2021-03-20T22:40:47Z</time>
      </trkpt>
      <trkpt lat="53.66834" lon="-6.34302">
        <ele>19</ele>
        <time>2021-03-20T22:40:55Z</time>
      </trkpt>
      <trkpt lat="53.66749" lon="-6.34131">
        <ele>15.61</ele>
        <time>2021-03-20T22:41:04Z</time>
      </trkpt>
      <trkpt lat="53.66574" lon="-6.33755">
        <ele>10.67</ele>
        <time>2021-03-20T22:41:12Z</time>
      </trkpt>
      <trkpt lat="53.6652" lon="-6.3362">
        <ele>15.57</ele>
        <time>2021-03-20T22:41:21Z</time>
      </trkpt>
      <trkpt lat="53.66496" lon="-6.3356">
        <ele>18.31</ele>
        <time>2021-03-20T22:41:29Z</time>
      </trkpt>
      <trkpt lat="53.6643" lon="-6.33377">
        <ele>23.53</ele>
        <time>2021-03-20T22:41:37Z</time>
      </trkpt>
      <trkpt lat="53.6638" lon="-6.33241">
        <ele>26.52</ele>
        <time>2021-03-20T22:41:46Z</time>
      </trkpt>
      <trkpt lat="53.6628" lon="-6.32939">
        <ele>28.92</ele>
        <time>2021-03-20T22:41:54Z</time>
      </trkpt>
      <trkpt lat="53.6611" lon="-6.3241">
        <ele>39.05</ele>
        <time>2021-03-20T22:42:02Z</time>
      </trkpt>
      <trkpt lat="53.66069" lon="-6.32264">
        <ele>38.25</ele>
        <time>2021-03-20T22:42:11Z</time>
      </trkpt>
      <trkpt lat="53.66025" lon="-6.3209">
        <ele>37</ele>
        <time>2021-03-20T22:42:19Z</time>
      </trkpt>
      <trkpt lat="53.65983" lon="-6.31909">
        <ele>35.62</ele>
        <time>2021-03-20T22:42:27Z</time>
      </trkpt>
      <trkpt lat="53.65937" lon="-6.31699">
        <ele>36</ele>
        <time>2021-03-20T22:42:36Z</time>
      </trkpt>
      <trkpt lat="53.65899" lon="-6.31512">
        <ele>37.16</ele>
        <time>2021-03-20T22:42:44Z</time>
      </trkpt>
      <trkpt lat="53.65856" lon="-6.3128">
        <ele>32.06</ele>
        <time>2021-03-20T22:42:52Z</time>
      </trkpt>
      <trkpt lat="53.65822" lon="-6.31078">
        <ele>31.81</ele>
        <time>2021-03-20T22:43:01Z</time>
      </trkpt>
      <trkpt lat="53.6568" lon="-6.30183">
        <ele>27.85</ele>
        <time>2021-03-20T22:43:09Z</time>
      </trkpt>
      <trkpt lat="53.65634" lon="-6.29962">
        <ele>29.82</ele>
        <time>2021-03-20T22:43:17Z</time>
      </trkpt>
      <trkpt lat="53.65586" lon="-6.29748">
        <ele>24.92</ele>
        <time>2021-03-20T22:43:26Z</time>
      </trkpt>
      <trkpt lat="53.6552" lon="-6.2949">
        <ele>26.49</ele>
        <time>2021-03-20T22:43:34Z</time>
      </trkpt>
      <trkpt lat="53.65446" lon="-6.29241">
        <ele>26.95</ele>
        <time>2021-03-20T22:43:42Z</time>
      </trkpt>
      <trkpt lat="53.65186" lon="-6.28487">
        <ele>27.29</ele>
        <time>2021-03-20T22:43:51Z</time>
      </trkpt>
      <trkpt lat="53.65012" lon="-6.27982">
        <ele>29</ele>
        <time>2021-03-20T22:43:59Z</time>
      </trkpt>
      <trkpt lat="53.64928" lon="-6.27754">
        <ele>41.53</ele>
        <time>2021-03-20T22:44:07Z</time>
      </trkpt>
      <trkpt lat="53.64575" lon="-6.26738">
        <ele>34.57</ele>
        <time>2021-03-20T22:44:16Z</time>
      </trkpt>
      <trkpt lat="53.64465" lon="-6.2643">
        <ele>29</ele>
        <time>2021-03-20T22:44:24Z</time>
      </trkpt>
      <trkpt lat="53.64379" lon="-6.26235">
        <ele>27.66</ele>
        <time>2021-03-20T22:44:33Z</time>
      </trkpt>
      <trkpt lat="53.64319" lon="-6.26114">
        <ele>28.11</ele>
        <time>2021-03-20T22:44:41Z</time>
      </trkpt>
      <trkpt lat="53.64265" lon="-6.26012">
        <ele>26.44</ele>
        <time>2021-03-20T22:44:49Z</time>
      </trkpt>
      <trkpt lat="53.64207" lon="-6.25914">
        <ele>26.35</ele>
        <time>2021-03-20T22:44:58Z</time>
      </trkpt>
      <trkpt lat="53.64151" lon="-6.25826">
        <ele>26.14</ele>
        <time>2021-03-20T22:45:06Z</time>
      </trkpt>
      <trkpt lat="53.64042" lon="-6.25668">
        <ele>24.52</ele>
        <time>2021-03-20T22:45:14Z</time>
      </trkpt>
      <trkpt lat="53.63909" lon="-6.25509">
        <ele>25.32</ele>
        <time>2021-03-20T22:45:23Z</time>
      </trkpt>
      <trkpt lat="53.63823" lon="-6.2542">
        <ele>25.58</ele>
        <time>2021-03-20T22:45:31Z</time>
      </trkpt>
      <trkpt lat="53.63738" lon="-6.25338">
        <ele>23.92</ele>
        <time>2021-03-20T22:45:39Z</time>
      </trkpt>
      <trkpt lat="53.63657" lon="-6.25271">
        <ele>21.5</ele>
        <time>2021-03-20T22:45:48Z</time>
      </trkpt>
      <trkpt lat="53.63586" lon="-6.25215">
        <ele>20.78</ele>
        <time>2021-03-20T22:45:56Z</time>
      </trkpt>
      <trkpt lat="53.63509" lon="-6.25164">
        <ele>20.32</ele>
        <time>2021-03-20T22:46:04Z</time>
      </trkpt>
      <trkpt lat="53.63347" lon="-6.25071">
        <ele>17.56</ele>
        <time>2021-03-20T22:46:13Z</time>
      </trkpt>
      <trkpt lat="53.63257" lon="-6.25033">
        <ele>19.74</ele>
        <time>2021-03-20T22:46:21Z</time>
      </trkpt>
      <trkpt lat="53.63174" lon="-6.25004">
        <ele>22</ele>
        <time>2021-03-20T22:46:29Z</time>
      </trkpt>
      <trkpt lat="53.63042" lon="-6.24971">
        <ele>19.46</ele>
        <time>2021-03-20T22:46:38Z</time>
      </trkpt>
      <trkpt lat="53.62838" lon="-6.24935">
        <ele>21.67</ele>
        <time>2021-03-20T22:46:46Z</time>
      </trkpt>
      <trkpt lat="53.6255" lon="-6.24855">
        <ele>31.98</ele>
        <time>2021-03-20T22:46:54Z</time>
      </trkpt>
      <trkpt lat="53.62258" lon="-6.24735">
        <ele>44.19</ele>
        <time>2021-03-20T22:47:03Z</time>
      </trkpt>
      <trkpt lat="53.61971" lon="-6.24566">
        <ele>48.61</ele>
        <time>2021-03-20T22:47:11Z</time>
      </trkpt>
      <trkpt lat="53.61818" lon="-6.24458">
        <ele>49.77</ele>
        <time>2021-03-20T22:47:20Z</time>
      </trkpt>
      <trkpt lat="53.61666" lon="-6.24336">
        <ele>50.09</ele>
        <time>2021-03-20T22:47:28Z</time>
      </trkpt>
      <trkpt lat="53.6153" lon="-6.24213">
        <ele>45.07</ele>
        <time>2021-03-20T22:47:36Z</time>
      </trkpt>
      <trkpt lat="53.61395" lon="-6.24079">
        <ele>43.13</ele>
        <time>2021-03-20T22:47:45Z</time>
      </trkpt>
      <trkpt lat="53.61225" lon="-6.2389">
        <ele>44.89</ele>
        <time>2021-03-20T22:47:53Z</time>
      </trkpt>
      <trkpt lat="53.61065" lon="-6.23684">
        <ele>51.38</ele>
        <time>2021-03-20T22:48:01Z</time>
      </trkpt>
      <trkpt lat="53.60328" lon="-6.22666">
        <ele>52.65</ele>
        <time>2021-03-20T22:48:10Z</time>
      </trkpt>
      <trkpt lat="53.60065" lon="-6.22307">
        <ele>43</ele>
        <time>2021-03-20T22:48:18Z</time>
      </trkpt>
      <trkpt lat="53.59936" lon="-6.2214">
        <ele>43.7</ele>
        <time>2021-03-20T22:48:26Z</time>
      </trkpt>
      <trkpt lat="53.59796" lon="-6.21976">
        <ele>40</ele>
        <time>2021-03-20T22:48:35Z</time>
      </trkpt>
      <trkpt lat="53.59658" lon="-6.2183">
        <ele>37.31</ele>
        <time>2021-03-20T22:48:43Z</time>
      </trkpt>
      <trkpt lat="53.59582" lon="-6.21757">
        <ele>38</ele>
        <time>2021-03-20T22:48:51Z</time>
      </trkpt>
      <trkpt lat="53.59498" lon="-6.21683">
        <ele>37.4</ele>
        <time>2021-03-20T22:49:00Z</time>
      </trkpt>
      <trkpt lat="53.59336" lon="-6.21547">
        <ele>36.92</ele>
        <time>2021-03-20T22:49:08Z</time>
      </trkpt>
      <trkpt lat="53.59228" lon="-6.2147">
        <ele>35</ele>
        <time>2021-03-20T22:49:16Z</time>
      </trkpt>
      <trkpt lat="53.59122" lon="-6.214">
        <ele>31.78</ele>
        <time>2021-03-20T22:49:25Z</time>
      </trkpt>
      <trkpt lat="53.5904" lon="-6.21349">
        <ele>32.12</ele>
        <time>2021-03-20T22:49:33Z</time>
      </trkpt>
      <trkpt lat="53.58958" lon="-6.21304">
        <ele>32.46</ele>
        <time>2021-03-20T22:49:41Z</time>
      </trkpt>
      <trkpt lat="53.58769" lon="-6.21216">
        <ele>31.69</ele>
        <time>2021-03-20T22:49:50Z</time>
      </trkpt>
      <trkpt lat="53.58558" lon="-6.21133">
        <ele>32.27</ele>
        <time>2021-03-20T22:49:58Z</time>
      </trkpt>
      <trkpt lat="53.584" lon="-6.2109">
        <ele>34.09</ele>
        <time>2021-03-20T22:50:07Z</time>
      </trkpt>
      <trkpt lat="53.5818" lon="-6.21045">
        <ele>35.6</ele>
        <time>2021-03-20T22:50:15Z</time>
      </trkpt>
      <trkpt lat="53.57999" lon="-6.21036">
        <ele>34</ele>
        <time>2021-03-20T22:50:23Z</time>
      </trkpt>
      <trkpt lat="53.57848" lon="-6.21032">
        <ele>34</ele>
        <time>2021-03-20T22:50:32Z</time>
      </trkpt>
      <trkpt lat="53.57662" lon="-6.21051">
        <ele>32.84</ele>
        <time>2021-03-20T22:50:40Z</time>
      </trkpt>
      <trkpt lat="53.57148" lon="-6.21159">
        <ele>32.69</ele>
        <time>2021-03-20T22:50:48Z</time>
      </trkpt>
      <trkpt lat="53.56056" lon="-6.21432">
        <ele>37.99</ele>
        <time>2021-03-20T22:50:57Z</time>
      </trkpt>
      <trkpt lat="53.5578" lon="-6.21493">
        <ele>39.91</ele>
        <time>2021-03-20T22:51:05Z</time>
      </trkpt>
      <trkpt lat="53.55732" lon="-6.21509">
        <ele>41.3</ele>
        <time>2021-03-20T22:51:13Z</time>
      </trkpt>
      <trkpt lat="53.556" lon="-6.21538">
        <ele>39.58</ele>
        <time>2021-03-20T22:51:22Z</time>
      </trkpt>
      <trkpt lat="53.55327" lon="-6.21557">
        <ele>36.71</ele>
        <time>2021-03-20T22:51:30Z</time>
      </trkpt>
      <trkpt lat="53.55178" lon="-6.21555">
        <ele>35</ele>
        <time>2021-03-20T22:51:38Z</time>
      </trkpt>
      <trkpt lat="53.5514" lon="-6.21548">
        <ele>35</ele>
        <time>2021-03-20T22:51:47Z</time>
      </trkpt>
      <trkpt lat="53.54969" lon="-6.21533">
        <ele>33</ele>
        <time>2021-03-20T22:51:55Z</time>
      </trkpt>
      <trkpt lat="53.54753" lon="-6.21505">
        <ele>30.02</ele>
        <time>2021-03-20T22:52:03Z</time>
      </trkpt>
      <trkpt lat="53.54459" lon="-6.21432">
        <ele>26</ele>
        <time>2021-03-20T22:52:12Z</time>
      </trkpt>
      <trkpt lat="53.54213" lon="-6.21339">
        <ele>23.12</ele>
        <time>2021-03-20T22:52:20Z</time>
      </trkpt>
      <trkpt lat="53.54131" lon="-6.21303">
        <ele>23.72</ele>
        <time>2021-03-20T22:52:28Z</time>
      </trkpt>
      <trkpt lat="53.53958" lon="-6.21223">
        <ele>24.5</ele>
        <time>2021-03-20T22:52:37Z</time>
      </trkpt>
      <trkpt lat="53.53855" lon="-6.21169">
        <ele>21.14</ele>
        <time>2021-03-20T22:52:45Z</time>
      </trkpt>
      <trkpt lat="53.53705" lon="-6.21083">
        <ele>21</ele>
        <time>2021-03-20T22:52:53Z</time>
      </trkpt>
      <trkpt lat="53.53574" lon="-6.21">
        <ele>22</ele>
        <time>2021-03-20T22:53:02Z</time>
      </trkpt>
      <trkpt lat="53.53441" lon="-6.20907">
        <ele>22.64</ele>
        <time>2021-03-20T22:53:10Z</time>
      </trkpt>
      <trkpt lat="53.53254" lon="-6.20763">
        <ele>22.16</ele>
        <time>2021-03-20T22:53:19Z</time>
      </trkpt>
      <trkpt lat="53.53192" lon="-6.20719">
        <ele>21.9</ele>
        <time>2021-03-20T22:53:27Z</time>
      </trkpt>
      <trkpt lat="53.53066" lon="-6.20638">
        <ele>22</ele>
        <time>2021-03-20T22:53:35Z</time>
      </trkpt>
      <trkpt lat="53.52993" lon="-6.20605">
        <ele>21.26</ele>
        <time>2021-03-20T22:53:44Z</time>
      </trkpt>
      <trkpt lat="53.52925" lon="-6.20583">
        <ele>22</ele>
        <time>2021-03-20T22:53:52Z</time>
      </trkpt>
      <trkpt lat="53.52872" lon="-6.20571">
        <ele>21.44</ele>
        <time>2021-03-20T22:54:00Z</time>
      </trkpt>
      <trkpt lat="53.52799" lon="-6.20564">
        <ele>21.84</ele>
        <time>2021-03-20T22:54:09Z</time>
      </trkpt>
      <trkpt lat="53.52646" lon="-6.2056">
        <ele>21.04</ele>
        <time>2021-03-20T22:54:17Z</time>
      </trkpt>
      <trkpt lat="53.52471" lon="-6.20598">
        <ele>20.03</ele>
        <time>2021-03-20T22:54:25Z</time>
      </trkpt>
      <trkpt lat="53.52354" lon="-6.20645">
        <ele>21</ele>
        <time>2021-03-20T22:54:34Z</time>
      </trkpt>
      <trkpt lat="53.52155" lon="-6.20744">
        <ele>18.12</ele>
        <time>2021-03-20T22:54:42Z</time>
      </trkpt>
      <trkpt lat="53.52006" lon="-6.20804">
        <ele>19.76</ele>
        <time>2021-03-20T22:54:50Z</time>
      </trkpt>
      <trkpt lat="53.51884" lon="-6.20817">
        <ele>20</ele>
        <time>2021-03-20T22:54:59Z</time>
      </trkpt>
      <trkpt lat="53.51761" lon="-6.20819">
        <ele>19.62</ele>
        <time>2021-03-20T22:55:07Z</time>
      </trkpt>
      <trkpt lat="53.51597" lon="-6.20778">
        <ele>19</ele>
        <time>2021-03-20T22:55:15Z</time>
      </trkpt>
      <trkpt lat="53.51433" lon="-6.20708">
        <ele>17.58</ele>
        <time>2021-03-20T22:55:24Z</time>
      </trkpt>
      <trkpt lat="53.51324" lon="-6.20639">
        <ele>17</ele>
        <time>2021-03-20T22:55:32Z</time>
      </trkpt>
      <trkpt lat="53.51088" lon="-6.20429">
        <ele>12.18</ele>
        <time>2021-03-20T22:55:40Z</time>
      </trkpt>
      <trkpt lat="53.50885" lon="-6.20266">
        <ele>11</ele>
        <time>2021-03-20T22:55:49Z</time>
      </trkpt>
      <trkpt lat="53.50681" lon="-6.20141">
        <ele>10.48</ele>
        <time>2021-03-20T22:55:57Z</time>
      </trkpt>
      <trkpt lat="53.50511" lon="-6.2007">
        <ele>8.72</ele>
        <time>2021-03-20T22:56:06Z</time>
      </trkpt>
      <trkpt lat="53.50314" lon="-6.20012">
        <ele>8.71</ele>
        <time>2021-03-20T22:56:14Z</time>
      </trkpt>
      <trkpt lat="53.50144" lon="-6.19989">
        <ele>6</ele>
        <time>2021-03-20T22:56:22Z</time>
      </trkpt>
      <trkpt lat="53.49981" lon="-6.19993">
        <ele>3</ele>
        <time>2021-03-20T22:56:31Z</time>
      </trkpt>
      <trkpt lat="53.49847" lon="-6.2001">
        <ele>3.19</ele>
        <time>2021-03-20T22:56:39Z</time>
      </trkpt>
      <trkpt lat="53.49753" lon="-6.20027">
        <ele>4.92</ele>
        <time>2021-03-20T22:56:47Z</time>
      </trkpt>
      <trkpt lat="53.49676" lon="-6.20048">
        <ele>3.26</ele>
        <time>2021-03-20T22:56:56Z</time>
      </trkpt>
      <trkpt lat="53.49578" lon="-6.20083">
        <ele>3</ele>
        <time>2021-03-20T22:57:04Z</time>
      </trkpt>
      <trkpt lat="53.49421" lon="-6.20158">
        <ele>6.83</ele>
        <time>2021-03-20T22:57:12Z</time>
      </trkpt>
      <trkpt lat="53.49295" lon="-6.20231">
        <ele>8.67</ele>
        <time>2021-03-20T22:57:21Z</time>
      </trkpt>
      <trkpt lat="53.49199" lon="-6.20299">
        <ele>9.04</ele>
        <time>2021-03-20T22:57:29Z</time>
      </trkpt>
      <trkpt lat="53.49109" lon="-6.20369">
        <ele>13.34</ele>
        <time>2021-03-20T22:57:37Z</time>
      </trkpt>
      <trkpt lat="53.48949" lon="-6.20485">
        <ele>13.16</ele>
        <time>2021-03-20T22:57:46Z</time>
      </trkpt>
      <trkpt lat="53.48777" lon="-6.20562">
        <ele>9.99</ele>
        <time>2021-03-20T22:57:54Z</time>
      </trkpt>
      <trkpt lat="53.48608" lon="-6.20626">
        <ele>8.54</ele>
        <time>2021-03-20T22:58:02Z</time>
      </trkpt>
      <trkpt lat="53.48513" lon="-6.20645">
        <ele>8</ele>
        <time>2021-03-20T22:58:11Z</time>
      </trkpt>
      <trkpt lat="53.48405" lon="-6.20656">
        <ele>6.57</ele>
        <time>2021-03-20T22:58:19Z</time>
      </trkpt>
      <trkpt lat="53.48184" lon="-6.20645">
        <ele>9</ele>
        <time>2021-03-20T22:58:27Z</time>
      </trkpt>
      <trkpt lat="53.48102" lon="-6.20631">
        <ele>10</ele>
        <time>2021-03-20T22:58:36Z</time>
      </trkpt>
      <trkpt lat="53.47966" lon="-6.20589">
        <ele>10.84</ele>
        <time>2021-03-20T22:58:44Z</time>
      </trkpt>
      <trkpt lat="53.47837" lon="-6.20533">
        <ele>12</ele>
        <time>2021-03-20T22:58:52Z</time>
      </trkpt>
      <trkpt lat="53.47589" lon="-6.20391">
        <ele>6.26</ele>
        <time>2021-03-20T22:59:01Z</time>
      </trkpt>
      <trkpt lat="53.47394" lon="-6.20295">
        <ele>3</ele>
        <time>2021-03-20T22:59:09Z</time>
      </trkpt>
      <trkpt lat="53.47269" lon="-6.20261">
        <ele>3</ele>
        <time>2021-03-20T22:59:18Z</time>
      </trkpt>
      <trkpt lat="53.47154" lon="-6.2024">
        <ele>3.36</ele>
        <time>2021-03-20T22:59:26Z</time>
      </trkpt>
      <trkpt lat="53.47031" lon="-6.20231">
        <ele>2</ele>
        <time>2021-03-20T22:59:34Z</time>
      </trkpt>
      <trkpt lat="53.46902" lon="-6.20236">
        <ele>5</ele>
        <time>2021-03-20T22:59:43Z</time>
      </trkpt>
      <trkpt lat="53.46708" lon="-6.20277">
        <ele>7.48</ele>
        <time>2021-03-20T22:59:51Z</time>
      </trkpt>
      <trkpt lat="53.46424" lon="-6.20327">
        <ele>3.72</ele>
        <time>2021-03-20T22:59:59Z</time>
      </trkpt>
      <trkpt lat="53.46093" lon="-6.20375">
        <ele>7</ele>
        <time>2021-03-20T23:00:08Z</time>
      </trkpt>
      <trkpt lat="53.45973" lon="-6.20382">
        <ele>8.98</ele>
        <time>2021-03-20T23:00:16Z</time>
      </trkpt>
      <trkpt lat="53.4584" lon="-6.20374">
        <ele>11.45</ele>
        <time>2021-03-20T23:00:24Z</time>
      </trkpt>
      <trkpt lat="53.45527" lon="-6.2029">
        <ele>19.44</ele>
        <time>2021-03-20T23:00:33Z</time>
      </trkpt>
      <trkpt lat="53.4542" lon="-6.20269">
        <ele>18</ele>
        <time>2021-03-20T23:00:41Z</time>
      </trkpt>
      <trkpt lat="53.45306" lon="-6.20254">
        <ele>19</ele>
        <time>2021-03-20T23:00:49Z</time>
      </trkpt>
      <trkpt lat="53.45178" lon="-6.20258">
        <ele>21.75</ele>
        <time>2021-03-20T23:00:58Z</time>
      </trkpt>
      <trkpt lat="53.45059" lon="-6.20273">
        <ele>25.73</ele>
        <time>2021-03-20T23:01:06Z</time>
      </trkpt>
      <trkpt lat="53.44978" lon="-6.20294">
        <ele>25.56</ele>
        <time>2021-03-20T23:01:14Z</time>
      </trkpt>
      <trkpt lat="53.44891" lon="-6.20324">
        <ele>23.06</ele>
        <time>2021-03-20T23:01:23Z</time>
      </trkpt>
      <trkpt lat="53.44731" lon="-6.20389">
        <ele>20</ele>
        <time>2021-03-20T23:01:31Z</time>
      </trkpt>
      <trkpt lat="53.44088" lon="-6.20702">
        <ele>31.1</ele>
        <time>2021-03-20T23:01:39Z</time>
      </trkpt>
      <trkpt lat="53.43839" lon="-6.20842">
        <ele>29.94</ele>
        <time>2021-03-20T23:01:48Z</time>
      </trkpt>
      <trkpt lat="53.43655" lon="-6.20979">
        <ele>29</ele>
        <time>2021-03-20T23:01:56Z</time>
      </trkpt>
      <trkpt lat="53.43214" lon="-6.21398">
        <ele>40.31</ele>
        <time>2021-03-20T23:02:05Z</time>
      </trkpt>
      <trkpt lat="53.43178" lon="-6.21427">
        <ele>40.4</ele>
        <time>2021-03-20T23:02:13Z</time>
      </trkpt>
      <trkpt lat="53.42977" lon="-6.2158">
        <ele>44.86</ele>
        <time>2021-03-20T23:02:21Z</time>
      </trkpt>
      <trkpt lat="53.42822" lon="-6.21671">
        <ele>44.3</ele>
        <time>2021-03-20T23:02:30Z</time>
      </trkpt>
      <trkpt lat="53.42709" lon="-6.21731">
        <ele>44.31</ele>
        <time>2021-03-20T23:02:38Z</time>
      </trkpt>
      <trkpt lat="53.42267" lon="-6.21966">
        <ele>50.17</ele>
        <time>2021-03-20T23:02:46Z</time>
      </trkpt>
      <trkpt lat="53.41686" lon="-6.2228">
        <ele>48.75</ele>
        <time>2021-03-20T23:02:55Z</time>
      </trkpt>
      <trkpt lat="53.41512" lon="-6.22376">
        <ele>50</ele>
        <time>2021-03-20T23:03:03Z</time>
      </trkpt>
      <trkpt lat="53.4146" lon="-6.22409">
        <ele>50</ele>
        <time>2021-03-20T23:03:11Z</time>
      </trkpt>
      <trkpt lat="53.41394" lon="-6.22445">
        <ele>51.79</ele>
        <time>2021-03-20T23:03:20Z</time>
      </trkpt>
      <trkpt lat="53.41244" lon="-6.2252">
        <ele>50.21</ele>
        <time>2021-03-20T23:03:28Z</time>
      </trkpt>
      <trkpt lat="53.41158" lon="-6.22567">
        <ele>52.68</ele>
        <time>2021-03-20T23:03:36Z</time>
      </trkpt>
      <trkpt lat="53.41028" lon="-6.22646">
        <ele>51.02</ele>
        <time>2021-03-20T23:03:45Z</time>
      </trkpt>
      <trkpt lat="53.40939" lon="-6.22708">
        <ele>50.8</ele>
        <time>2021-03-20T23:03:53Z</time>
      </trkpt>
      <trkpt lat="53.40822" lon="-6.22799">
        <ele>50.73</ele>
        <time>2021-03-20T23:04:01Z</time>
      </trkpt>
      <trkpt lat="53.40714" lon="-6.22895">
        <ele>51.54</ele>
        <time>2021-03-20T23:04:10Z</time>
      </trkpt>
      <trkpt lat="53.40618" lon="-6.22991">
        <ele>52.74</ele>
        <time>2021-03-20T23:04:18Z</time>
      </trkpt>
      <trkpt lat="53.40596" lon="-6.23009">
        <ele>53.94</ele>
        <time>2021-03-20T23:04:26Z</time>
      </trkpt>
      <trkpt lat="53.40072" lon="-6.23517">
        <ele>47.61</ele>
        <time>2021-03-20T23:04:35Z</time>
      </trkpt>
      <trkpt lat="53.39929" lon="-6.23662">
        <ele>47</ele>
        <time>2021-03-20T23:04:43Z</time>
      </trkpt>
      <trkpt lat="53.39675" lon="-6.23894">
        <ele>49.86</ele>
        <time>2021-03-20T23:04:52Z</time>
      </trkpt>
      <trkpt lat="53.39663" lon="-6.23895">
        <ele>49.77</ele>
        <time>2021-03-20T23:05:04Z</time>
      </trkpt>
      <trkpt lat="53.39652" lon="-6.239">
        <ele>49.61</ele>
        <time>2021-03-20T23:05:16Z</time>
      </trkpt>
      <trkpt lat="53.39559" lon="-6.23958">
        <ele>51.27</ele>
        <time>2021-03-20T23:05:29Z</time>
      </trkpt>
      <trkpt lat="53.3951" lon="-6.23986">
        <ele>53.14</ele>
        <time>2021-03-20T23:05:41Z</time>
      </trkpt>
      <trkpt lat="53.3946" lon="-6.2401">
        <ele>52.37</ele>
        <time>2021-03-20T23:05:53Z</time>
      </trkpt>
      <trkpt lat="53.39383" lon="-6.24052">
        <ele>55.46</ele>
        <time>2021-03-20T23:06:05Z</time>
      </trkpt>
      <trkpt lat="53.39276" lon="-6.24107">
        <ele>54</ele>
        <time>2021-03-20T23:06:18Z</time>
      </trkpt>
      <trkpt lat="53.39136" lon="-6.24163">
        <ele>51.69</ele>
        <time>2021-03-20T23:06:30Z</time>
      </trkpt>
      <trkpt lat="53.38763" lon="-6.24255">
        <ele>45.53</ele>
        <time>2021-03-20T23:06:42Z</time>
      </trkpt>
      <trkpt lat="53.38614" lon="-6.2429">
        <ele>45.05</ele>
        <time>2021-03-20T23:06:54Z</time>
      </trkpt>
      <trkpt lat="53.38533" lon="-6.24312">
        <ele>46</ele>
        <time>2021-03-20T23:07:07Z</time>
      </trkpt>
      <trkpt lat="53.38456" lon="-6.24336">
        <ele>44.59</ele>
        <time>2021-03-20T23:07:18Z</time>
      </trkpt>
      <trkpt lat="53.38361" lon="-6.24378">
        <ele>44</ele>
        <time>2021-03-20T23:07:29Z</time>
      </trkpt>
      <trkpt lat="53.38288" lon="-6.24419">
        <ele>44.28</ele>
        <time>2021-03-20T23:07:41Z</time>
      </trkpt>
      <trkpt lat="53.38155" lon="-6.24501">
        <ele>42.6</ele>
        <time>2021-03-20T23:07:52Z</time>
      </trkpt>
      <trkpt lat="53.38048" lon="-6.24576">
        <ele>42.73</ele>
        <time>2021-03-20T23:08:03Z</time>
      </trkpt>
      <trkpt lat="53.37768" lon="-6.24817">
        <ele>32.65</ele>
        <time>2021-03-20T23:08:15Z</time>
      </trkpt>
      <trkpt lat="53.3772" lon="-6.24864">
        <ele>29</ele>
        <time>2021-03-20T23:08:26Z</time>
      </trkpt>
      <trkpt lat="53.37686" lon="-6.24907">
        <ele>28.24</ele>
        <time>2021-03-20T23:08:37Z</time>
      </trkpt>
      <trkpt lat="53.37637" lon="-6.24976">
        <ele>29</ele>
        <time>2021-03-20T23:08:49Z</time>
      </trkpt>
      <trkpt lat="53.37616" lon="-6.25001">
        <ele>29.03</ele>
        <time>2021-03-20T23:09:00Z</time>
      </trkpt>
      <trkpt lat="53.37582" lon="-6.25035">
        <ele>28.82</ele>
        <time>2021-03-20T23:09:11Z</time>
      </trkpt>
      <trkpt lat="53.37474" lon="-6.25125">
        <ele>25.06</ele>
        <time>2021-03-20T23:09:23Z</time>
      </trkpt>
      <trkpt lat="53.37428" lon="-6.25156">
        <ele>23.42</ele>
        <time>2021-03-20T23:09:34Z</time>
      </trkpt>
      <trkpt lat="53.37343" lon="-6.25202">
        <ele>21.33</ele>
        <time>2021-03-20T23:09:45Z</time>
      </trkpt>
      <trkpt lat="53.37271" lon="-6.25246">
        <ele>19.88</ele>
        <time>2021-03-20T23:09:57Z</time>
      </trkpt>
      <trkpt lat="53.37173" lon="-6.25318">
        <ele>17</ele>
        <time>2021-03-20T23:10:08Z</time>
      </trkpt>
      <trkpt lat="53.36971" lon="-6.25439">
        <ele>10.95</ele>
        <time>2021-03-20T23:10:19Z</time>
      </trkpt>
      <trkpt lat="53.36876" lon="-6.255">
        <ele>7.03</ele>
        <time>2021-03-20T23:10:31Z</time>
      </trkpt>
      <trkpt lat="53.36769" lon="-6.25544">
        <ele>6.31</ele>
        <time>2021-03-20T23:10:42Z</time>
      </trkpt>
      <trkpt lat="53.36755" lon="-6.25547">
        <ele>6.81</ele>
        <time>2021-03-20T23:10:53Z</time>
      </trkpt>
      <trkpt lat="53.36705" lon="-6.25546">
        <ele>10.22</ele>
        <time>2021-03-20T23:11:05Z</time>
      </trkpt>
      <trkpt lat="53.36649" lon="-6.25555">
        <ele>15.91</ele>
        <time>2021-03-20T23:11:16Z</time>
      </trkpt>
      <trkpt lat="53.36613" lon="-6.25575">
        <ele>17.25</ele>
        <time>2021-03-20T23:11:27Z</time>
      </trkpt>
      <trkpt lat="53.36547" lon="-6.25618">
        <ele>19.06</ele>
        <time>2021-03-20T23:11:38Z</time>
      </trkpt>
      <trkpt lat="53.3642" lon="-6.25719">
        <ele>15.12</ele>
        <time>2021-03-20T23:11:50Z</time>
      </trkpt>
      <trkpt lat="53.36285" lon="-6.25844">
        <ele>14.4</ele>
        <time>2021-03-20T23:12:01Z</time>
      </trkpt>
      <trkpt lat="53.36279" lon="-6.25843">
        <ele>14.07</ele>
        <time>2021-03-20T23:12:12Z</time>
      </trkpt>
      <trkpt lat="53.36254" lon="-6.25865">
        <ele>12.28</ele>
        <time>2021-03-20T23:12:24Z</time>
      </trkpt>
      <trkpt lat="53.36173" lon="-6.25941">
        <ele>10.21</ele>
        <time>2021-03-20T23:12:35Z</time>
      </trkpt>
      <trkpt lat="53.36169" lon="-6.2595">
        <ele>10.28</ele>
        <time>2021-03-20T23:12:46Z</time>
      </trkpt>
      <trkpt lat="53.36138" lon="-6.25974">
        <ele>11</ele>
        <time>2021-03-20T23:12:53Z</time>
      </trkpt>
      <trkpt lat="53.36126" lon="-6.25976">
        <ele>11</ele>
        <time>2021-03-20T23:13:00Z</time>
      </trkpt>
      <trkpt lat="53.36071" lon="-6.26026">
        <ele>12.92</ele>
        <time>2021-03-20T23:13:07Z</time>
      </trkpt>
      <trkpt lat="53.35974" lon="-6.2612">
        <ele>14.92</ele>
        <time>2021-03-20T23:13:13Z</time>
      </trkpt>
      <trkpt lat="53.35937" lon="-6.26153">
        <ele>14.73</ele>
        <time>2021-03-20T23:13:20Z</time>
      </trkpt>
      <trkpt lat="53.35899" lon="-6.26189">
        <ele>14.4</ele>
        <time>2021-03-20T23:13:27Z</time>
      </trkpt>
      <trkpt lat="53.35889" lon="-6.26164">
        <ele>15</ele>
        <time>2021-03-20T23:13:43Z</time>
      </trkpt>
      <trkpt lat="53.35851" lon="-6.26085">
        <ele>15.36</ele>
        <time>2021-03-20T23:13:59Z</time>
      </trkpt>
      <trkpt lat="53.35565" lon="-6.25794">
        <ele>18.54</ele>
        <time>2021-03-20T23:14:15Z</time>
      </trkpt>
      <trkpt lat="53.35465" lon="-6.2572">
        <ele>16.15</ele>
        <time>2021-03-20T23:14:31Z</time>
      </trkpt>
      <trkpt lat="53.35153" lon="-6.255">
        <ele>6.99</ele>
        <time>2021-03-20T23:14:47Z</time>
      </trkpt>
      <trkpt lat="53.35074" lon="-6.25441">
        <ele>7.96</ele>
        <time>2021-03-20T23:15:03Z</time>
      </trkpt>
      <trkpt lat="53.34972" lon="-6.25371">
        <ele>5</ele>
        <time>2021-03-20T23:15:19Z</time>
      </trkpt>
      <trkpt lat="53.34952" lon="-6.25352">
        <ele>5.57</ele>
        <time>2021-03-20T23:15:35Z</time>
      </trkpt>
      <trkpt lat="53.34942" lon="-6.25339">
        <ele>5.05</ele>
        <time>2021-03-20T23:15:51Z</time>
      </trkpt>
      <trkpt lat="53.34947" lon="-6.25298">
        <ele>6.36</ele>
        <time>2021-03-20T23:15:53Z</time>
      </trkpt>
      <trkpt lat="53.34945" lon="-6.25257">
        <ele>7.74</ele>
        <time>2021-03-20T23:15:56Z</time>
      </trkpt>
      <trkpt lat="53.34941" lon="-6.25236">
        <ele>8.56</ele>
        <time>2021-03-20T23:15:59Z</time>
      </trkpt>
      <trkpt lat="53.34931" lon="-6.25209">
        <ele>8.72</ele>
        <time>2021-03-20T23:16:03Z</time>
      </trkpt>
      <trkpt lat="53.34918" lon="-6.25186">
        <ele>9.93</ele>
        <time>2021-03-20T23:16:06Z</time>
      </trkpt>
      <trkpt lat="53.34899" lon="-6.25163">
        <ele>13.62</ele>
        <time>2021-03-20T23:16:10Z</time>
      </trkpt>
      <trkpt lat="53.34883" lon="-6.25151">
        <ele>15.03</ele>
        <time>2021-03-20T23:16:14Z</time>
      </trkpt>
      <trkpt lat="53.34864" lon="-6.25148">
        <ele>13.32</ele>
        <time>2021-03-20T23:16:18Z</time>
      </trkpt>
      <trkpt lat="53.34824" lon="-6.25156">
        <ele>7.69</ele>
        <time>2021-03-20T23:16:21Z</time>
      </trkpt>
      <trkpt lat="53.34763" lon="-6.25175">
        <ele>3.69</ele>
        <time>2021-03-20T23:16:25Z</time>
      </trkpt>
      <trkpt lat="53.34749" lon="-6.25184">
        <ele>3.72</ele>
        <time>2021-03-20T23:16:35Z</time>
      </trkpt>
      <trkpt lat="53.34743" lon="-6.25194">
        <ele>4.5</ele>
        <time>2021-03-20T23:16:45Z</time>
      </trkpt>
      <trkpt lat="53.34742" lon="-6.25211">
        <ele>4.76</ele>
        <time>2021-03-20T23:16:55Z</time>
      </trkpt>
      <trkpt lat="53.3475" lon="-6.25551">
        <ele>10.46</ele>
        <time>2021-03-20T23:17:05Z</time>
      </trkpt>
      <trkpt lat="53.34749" lon="-6.25596">
        <ele>12.14</ele>
        <time>2021-03-20T23:17:15Z</time>
      </trkpt>
      <trkpt lat="53.34746" lon="-6.25637">
        <ele>10.57</ele>
        <time>2021-03-20T23:17:25Z</time>
      </trkpt>
      <trkpt lat="53.34734" lon="-6.25722">
        <ele>6.78</ele>
        <time>2021-03-20T23:17:35Z</time>
      </trkpt>
      <trkpt lat="53.34694" lon="-6.25911">
        <ele>7.37</ele>
        <time>2021-03-20T23:17:45Z</time>
      </trkpt>
      <trkpt lat="53.34704" lon="-6.25911">
        <ele>6.38</ele>
        <time>2021-03-20T23:17:52Z</time>
      </trkpt>
      <trkpt lat="53.34745" lon="-6.25933">
        <ele>6.39</ele>
        <time>2021-03-20T23:17:58Z</time>
      </trkpt>
      <trkpt lat="53.34759" lon="-6.25942">
        <ele>7.59</ele>
        <time>2021-03-20T23:18:25Z</time>
      </trkpt>
      <trkpt lat="53.34975" lon="-6.26038">
        <ele>11.8</ele>
        <time>2021-03-20T23:18:53Z</time>
      </trkpt>
    </trkseg>
  </trk>
  <trk>
    <name><![CDATA[J14 - Dublin - Paris]]></name>
    <trkseg>
      <trkpt lat="53.34975" lon="-6.26038">
        <ele>11.8</ele>
        <time>2021-03-20T14:24:54Z</time>
      </trkpt>
      <trkpt lat="53.35239" lon="-6.26153">
        <ele>11</ele>
        <time>2021-03-20T14:25:06Z</time>
      </trkpt>
      <trkpt lat="53.35243" lon="-6.26158">
        <ele>11</ele>
        <time>2021-03-20T14:25:17Z</time>
      </trkpt>
      <trkpt lat="53.35245" lon="-6.26167">
        <ele>11</ele>
        <time>2021-03-20T14:25:28Z</time>
      </trkpt>
      <trkpt lat="53.35245" lon="-6.26176">
        <ele>11.06</ele>
        <time>2021-03-20T14:25:40Z</time>
      </trkpt>
      <trkpt lat="53.35201" lon="-6.26269">
        <ele>9.55</ele>
        <time>2021-03-20T14:25:51Z</time>
      </trkpt>
      <trkpt lat="53.35189" lon="-6.26289">
        <ele>8.3</ele>
        <time>2021-03-20T14:26:02Z</time>
      </trkpt>
      <trkpt lat="53.35175" lon="-6.26298">
        <ele>7.38</ele>
        <time>2021-03-20T14:26:14Z</time>
      </trkpt>
      <trkpt lat="53.35137" lon="-6.2637">
        <ele>7.36</ele>
        <time>2021-03-20T14:26:25Z</time>
      </trkpt>
      <trkpt lat="53.35098" lon="-6.26459">
        <ele>9.91</ele>
        <time>2021-03-20T14:26:36Z</time>
      </trkpt>
      <trkpt lat="53.35031" lon="-6.26645">
        <ele>12.91</ele>
        <time>2021-03-20T14:26:47Z</time>
      </trkpt>
      <trkpt lat="53.35018" lon="-6.26692">
        <ele>13.48</ele>
        <time>2021-03-20T14:26:59Z</time>
      </trkpt>
      <trkpt lat="53.35014" lon="-6.26719">
        <ele>14.8</ele>
        <time>2021-03-20T14:27:10Z</time>
      </trkpt>
      <trkpt lat="53.3499" lon="-6.26812">
        <ele>14.5</ele>
        <time>2021-03-20T14:27:21Z</time>
      </trkpt>
      <trkpt lat="53.34993" lon="-6.26829">
        <ele>14.77</ele>
        <time>2021-03-20T14:27:33Z</time>
      </trkpt>
      <trkpt lat="53.35024" lon="-6.26946">
        <ele>10</ele>
        <time>2021-03-20T14:27:44Z</time>
      </trkpt>
      <trkpt lat="53.35053" lon="-6.26972">
        <ele>10.92</ele>
        <time>2021-03-20T14:27:55Z</time>
      </trkpt>
      <trkpt lat="53.35075" lon="-6.26983">
        <ele>11.12</ele>
        <time>2021-03-20T14:28:07Z</time>
      </trkpt>
      <trkpt lat="53.35094" lon="-6.26988">
        <ele>11</ele>
        <time>2021-03-20T14:28:18Z</time>
      </trkpt>
      <trkpt lat="53.35107" lon="-6.27007">
        <ele>11.27</ele>
        <time>2021-03-20T14:28:29Z</time>
      </trkpt>
      <trkpt lat="53.35085" lon="-6.27036">
        <ele>12.29</ele>
        <time>2021-03-20T14:28:34Z</time>
      </trkpt>
      <trkpt lat="53.35071" lon="-6.2706">
        <ele>12.4</ele>
        <time>2021-03-20T14:28:39Z</time>
      </trkpt>
      <trkpt lat="53.35058" lon="-6.27089">
        <ele>11.08</ele>
        <time>2021-03-20T14:28:44Z</time>
      </trkpt>
      <trkpt lat="53.35037" lon="-6.27163">
        <ele>9.14</ele>
        <time>2021-03-20T14:28:49Z</time>
      </trkpt>
      <trkpt lat="53.35031" lon="-6.27197">
        <ele>8.89</ele>
        <time>2021-03-20T14:28:53Z</time>
      </trkpt>
      <trkpt lat="53.35019" lon="-6.27285">
        <ele>11.27</ele>
        <time>2021-03-20T14:28:58Z</time>
      </trkpt>
      <trkpt lat="53.35017" lon="-6.27321">
        <ele>12.54</ele>
        <time>2021-03-20T14:29:03Z</time>
      </trkpt>
      <trkpt lat="53.35014" lon="-6.27454">
        <ele>12.49</ele>
        <time>2021-03-20T14:29:08Z</time>
      </trkpt>
      <trkpt lat="53.34985" lon="-6.27466">
        <ele>13.22</ele>
        <time>2021-03-20T14:29:14Z</time>
      </trkpt>
      <trkpt lat="53.348" lon="-6.27477">
        <ele>9.82</ele>
        <time>2021-03-20T14:29:20Z</time>
      </trkpt>
      <trkpt lat="53.34748" lon="-6.27486">
        <ele>7.94</ele>
        <time>2021-03-20T14:29:26Z</time>
      </trkpt>
      <trkpt lat="53.34707" lon="-6.27506">
        <ele>7.12</ele>
        <time>2021-03-20T14:29:32Z</time>
      </trkpt>
      <trkpt lat="53.34645" lon="-6.27528">
        <ele>8.77</ele>
        <time>2021-03-20T14:29:38Z</time>
      </trkpt>
      <trkpt lat="53.34573" lon="-6.27567">
        <ele>7.21</ele>
        <time>2021-03-20T14:29:43Z</time>
      </trkpt>
      <trkpt lat="53.34528" lon="-6.27587">
        <ele>6.89</ele>
        <time>2021-03-20T14:29:49Z</time>
      </trkpt>
      <trkpt lat="53.34476" lon="-6.27619">
        <ele>8</ele>
        <time>2021-03-20T14:29:55Z</time>
      </trkpt>
      <trkpt lat="53.34439" lon="-6.27634">
        <ele>9.36</ele>
        <time>2021-03-20T14:30:01Z</time>
      </trkpt>
      <trkpt lat="53.34428" lon="-6.27636">
        <ele>10.11</ele>
        <time>2021-03-20T14:30:07Z</time>
      </trkpt>
      <trkpt lat="53.34415" lon="-6.27633">
        <ele>11.02</ele>
        <time>2021-03-20T14:30:13Z</time>
      </trkpt>
      <trkpt lat="53.34403" lon="-6.27622">
        <ele>12.33</ele>
        <time>2021-03-20T14:30:19Z</time>
      </trkpt>
      <trkpt lat="53.34388" lon="-6.27603">
        <ele>13.78</ele>
        <time>2021-03-20T14:30:25Z</time>
      </trkpt>
      <trkpt lat="53.34379" lon="-6.27587">
        <ele>14.24</ele>
        <time>2021-03-20T14:30:31Z</time>
      </trkpt>
      <trkpt lat="53.34371" lon="-6.27565">
        <ele>13.87</ele>
        <time>2021-03-20T14:30:37Z</time>
      </trkpt>
      <trkpt lat="53.34364" lon="-6.27547">
        <ele>13.78</ele>
        <time>2021-03-20T14:30:42Z</time>
      </trkpt>
      <trkpt lat="53.34355" lon="-6.27505">
        <ele>14.04</ele>
        <time>2021-03-20T14:30:47Z</time>
      </trkpt>
      <trkpt lat="53.3434" lon="-6.27449">
        <ele>14.66</ele>
        <time>2021-03-20T14:30:53Z</time>
      </trkpt>
      <trkpt lat="53.343" lon="-6.27231">
        <ele>19</ele>
        <time>2021-03-20T14:30:58Z</time>
      </trkpt>
      <trkpt lat="53.34296" lon="-6.27197">
        <ele>19</ele>
        <time>2021-03-20T14:31:04Z</time>
      </trkpt>
      <trkpt lat="53.34295" lon="-6.27176">
        <ele>18.59</ele>
        <time>2021-03-20T14:31:09Z</time>
      </trkpt>
      <trkpt lat="53.34287" lon="-6.27178">
        <ele>18.81</ele>
        <time>2021-03-20T14:31:16Z</time>
      </trkpt>
      <trkpt lat="53.34276" lon="-6.27176">
        <ele>19</ele>
        <time>2021-03-20T14:31:24Z</time>
      </trkpt>
      <trkpt lat="53.34268" lon="-6.2718">
        <ele>19</ele>
        <time>2021-03-20T14:31:31Z</time>
      </trkpt>
      <trkpt lat="53.34224" lon="-6.27215">
        <ele>18.74</ele>
        <time>2021-03-20T14:31:38Z</time>
      </trkpt>
      <trkpt lat="53.3421" lon="-6.27221">
        <ele>18.97</ele>
        <time>2021-03-20T14:31:45Z</time>
      </trkpt>
      <trkpt lat="53.3406" lon="-6.27224">
        <ele>13.22</ele>
        <time>2021-03-20T14:31:53Z</time>
      </trkpt>
      <trkpt lat="53.34041" lon="-6.27223">
        <ele>13.02</ele>
        <time>2021-03-20T14:32:00Z</time>
      </trkpt>
      <trkpt lat="53.3402" lon="-6.27226">
        <ele>12.83</ele>
        <time>2021-03-20T14:32:07Z</time>
      </trkpt>
      <trkpt lat="53.33997" lon="-6.2723">
        <ele>12.28</ele>
        <time>2021-03-20T14:32:15Z</time>
      </trkpt>
      <trkpt lat="53.33957" lon="-6.27251">
        <ele>13.58</ele>
        <time>2021-03-20T14:32:22Z</time>
      </trkpt>
      <trkpt lat="53.3393" lon="-6.27259">
        <ele>14.32</ele>
        <time>2021-03-20T14:32:29Z</time>
      </trkpt>
      <trkpt lat="53.33842" lon="-6.27244">
        <ele>11.51</ele>
        <time>2021-03-20T14:32:36Z</time>
      </trkpt>
      <trkpt lat="53.33794" lon="-6.2724">
        <ele>10.26</ele>
        <time>2021-03-20T14:32:44Z</time>
      </trkpt>
      <trkpt lat="53.33755" lon="-6.27245">
        <ele>10.82</ele>
        <time>2021-03-20T14:32:51Z</time>
      </trkpt>
      <trkpt lat="53.3373" lon="-6.27253">
        <ele>11.71</ele>
        <time>2021-03-20T14:32:58Z</time>
      </trkpt>
      <trkpt lat="53.33686" lon="-6.27272">
        <ele>14.64</ele>
        <time>2021-03-20T14:33:06Z</time>
      </trkpt>
      <trkpt lat="53.33576" lon="-6.27328">
        <ele>16</ele>
        <time>2021-03-20T14:33:13Z</time>
      </trkpt>
      <trkpt lat="53.33516" lon="-6.27375">
        <ele>17</ele>
        <time>2021-03-20T14:33:20Z</time>
      </trkpt>
      <trkpt lat="53.33473" lon="-6.27415">
        <ele>17.91</ele>
        <time>2021-03-20T14:33:28Z</time>
      </trkpt>
      <trkpt lat="53.3343" lon="-6.27461">
        <ele>18.47</ele>
        <time>2021-03-20T14:33:35Z</time>
      </trkpt>
      <trkpt lat="53.33418" lon="-6.27478">
        <ele>18.03</ele>
        <time>2021-03-20T14:33:42Z</time>
      </trkpt>
      <trkpt lat="53.33336" lon="-6.27513">
        <ele>17.57</ele>
        <time>2021-03-20T14:33:49Z</time>
      </trkpt>
      <trkpt lat="53.33303" lon="-6.27525">
        <ele>17.91</ele>
        <time>2021-03-20T14:33:57Z</time>
      </trkpt>
      <trkpt lat="53.3318" lon="-6.27517">
        <ele>19.88</ele>
        <time>2021-03-20T14:34:04Z</time>
      </trkpt>
      <trkpt lat="53.33126" lon="-6.27521">
        <ele>19.34</ele>
        <time>2021-03-20T14:34:11Z</time>
      </trkpt>
      <trkpt lat="53.33019" lon="-6.27537">
        <ele>20.63</ele>
        <time>2021-03-20T14:34:19Z</time>
      </trkpt>
      <trkpt lat="53.32977" lon="-6.27547">
        <ele>22.83</ele>
        <time>2021-03-20T14:34:26Z</time>
      </trkpt>
      <trkpt lat="53.32951" lon="-6.27557">
        <ele>23.72</ele>
        <time>2021-03-20T14:34:33Z</time>
      </trkpt>
      <trkpt lat="53.32892" lon="-6.27601">
        <ele>23.87</ele>
        <time>2021-03-20T14:34:40Z</time>
      </trkpt>
      <trkpt lat="53.32711" lon="-6.27755">
        <ele>23</ele>
        <time>2021-03-20T14:34:48Z</time>
      </trkpt>
      <trkpt lat="53.32655" lon="-6.27795">
        <ele>24.98</ele>
        <time>2021-03-20T14:34:55Z</time>
      </trkpt>
      <trkpt lat="53.32554" lon="-6.27826">
        <ele>28.05</ele>
        <time>2021-03-20T14:35:03Z</time>
      </trkpt>
      <trkpt lat="53.32412" lon="-6.27864">
        <ele>29.91</ele>
        <time>2021-03-20T14:35:12Z</time>
      </trkpt>
      <trkpt lat="53.32386" lon="-6.27873">
        <ele>29.62</ele>
        <time>2021-03-20T14:35:20Z</time>
      </trkpt>
      <trkpt lat="53.32256" lon="-6.2793">
        <ele>32</ele>
        <time>2021-03-20T14:35:28Z</time>
      </trkpt>
      <trkpt lat="53.32222" lon="-6.2794">
        <ele>33</ele>
        <time>2021-03-20T14:35:36Z</time>
      </trkpt>
      <trkpt lat="53.32168" lon="-6.27935">
        <ele>32.03</ele>
        <time>2021-03-20T14:35:45Z</time>
      </trkpt>
      <trkpt lat="53.32114" lon="-6.27919">
        <ele>32</ele>
        <time>2021-03-20T14:35:53Z</time>
      </trkpt>
      <trkpt lat="53.32046" lon="-6.27885">
        <ele>33.35</ele>
        <time>2021-03-20T14:36:01Z</time>
      </trkpt>
      <trkpt lat="53.32026" lon="-6.2788">
        <ele>34</ele>
        <time>2021-03-20T14:36:10Z</time>
      </trkpt>
      <trkpt lat="53.31988" lon="-6.27875">
        <ele>34</ele>
        <time>2021-03-20T14:36:18Z</time>
      </trkpt>
      <trkpt lat="53.31921" lon="-6.27886">
        <ele>35</ele>
        <time>2021-03-20T14:36:26Z</time>
      </trkpt>
      <trkpt lat="53.31905" lon="-6.27892">
        <ele>34.65</ele>
        <time>2021-03-20T14:36:34Z</time>
      </trkpt>
      <trkpt lat="53.31859" lon="-6.27916">
        <ele>33.9</ele>
        <time>2021-03-20T14:36:43Z</time>
      </trkpt>
      <trkpt lat="53.31788" lon="-6.2796">
        <ele>33.38</ele>
        <time>2021-03-20T14:36:51Z</time>
      </trkpt>
      <trkpt lat="53.31747" lon="-6.27989">
        <ele>33.1</ele>
        <time>2021-03-20T14:36:59Z</time>
      </trkpt>
      <trkpt lat="53.31515" lon="-6.28205">
        <ele>38.67</ele>
        <time>2021-03-20T14:37:08Z</time>
      </trkpt>
      <trkpt lat="53.3146" lon="-6.28239">
        <ele>41.05</ele>
        <time>2021-03-20T14:37:16Z</time>
      </trkpt>
      <trkpt lat="53.31422" lon="-6.28252">
        <ele>41.21</ele>
        <time>2021-03-20T14:37:24Z</time>
      </trkpt>
      <trkpt lat="53.3141" lon="-6.28249">
        <ele>40.99</ele>
        <time>2021-03-20T14:37:32Z</time>
      </trkpt>
      <trkpt lat="53.31374" lon="-6.28231">
        <ele>40.82</ele>
        <time>2021-03-20T14:37:41Z</time>
      </trkpt>
      <trkpt lat="53.31349" lon="-6.28223">
        <ele>41.43</ele>
        <time>2021-03-20T14:37:49Z</time>
      </trkpt>
      <trkpt lat="53.31316" lon="-6.28228">
        <ele>42.51</ele>
        <time>2021-03-20T14:37:57Z</time>
      </trkpt>
      <trkpt lat="53.31277" lon="-6.2824">
        <ele>43.35</ele>
        <time>2021-03-20T14:38:06Z</time>
      </trkpt>
      <trkpt lat="53.31201" lon="-6.2826">
        <ele>41.22</ele>
        <time>2021-03-20T14:38:14Z</time>
      </trkpt>
      <trkpt lat="53.31033" lon="-6.2833">
        <ele>44</ele>
        <time>2021-03-20T14:38:22Z</time>
      </trkpt>
      <trkpt lat="53.30959" lon="-6.28365">
        <ele>44</ele>
        <time>2021-03-20T14:38:30Z</time>
      </trkpt>
      <trkpt lat="53.30901" lon="-6.28386">
        <ele>44.45</ele>
        <time>2021-03-20T14:38:39Z</time>
      </trkpt>
      <trkpt lat="53.30838" lon="-6.28398">
        <ele>44.89</ele>
        <time>2021-03-20T14:38:47Z</time>
      </trkpt>
      <trkpt lat="53.30784" lon="-6.28396">
        <ele>44.79</ele>
        <time>2021-03-20T14:38:55Z</time>
      </trkpt>
      <trkpt lat="53.30548" lon="-6.28332">
        <ele>44.03</ele>
        <time>2021-03-20T14:39:04Z</time>
      </trkpt>
      <trkpt lat="53.30503" lon="-6.2833">
        <ele>42.22</ele>
        <time>2021-03-20T14:39:12Z</time>
      </trkpt>
      <trkpt lat="53.3045" lon="-6.28338">
        <ele>41.87</ele>
        <time>2021-03-20T14:39:20Z</time>
      </trkpt>
      <trkpt lat="53.30435" lon="-6.28343">
        <ele>40.96</ele>
        <time>2021-03-20T14:39:28Z</time>
      </trkpt>
      <trkpt lat="53.30357" lon="-6.2838">
        <ele>42.14</ele>
        <time>2021-03-20T14:39:37Z</time>
      </trkpt>
      <trkpt lat="53.30338" lon="-6.28386">
        <ele>42.83</ele>
        <time>2021-03-20T14:39:45Z</time>
      </trkpt>
      <trkpt lat="53.3031" lon="-6.2839">
        <ele>45.54</ele>
        <time>2021-03-20T14:39:53Z</time>
      </trkpt>
      <trkpt lat="53.30089" lon="-6.28393">
        <ele>50.11</ele>
        <time>2021-03-20T14:40:02Z</time>
      </trkpt>
      <trkpt lat="53.30054" lon="-6.28389">
        <ele>48.95</ele>
        <time>2021-03-20T14:40:10Z</time>
      </trkpt>
      <trkpt lat="53.3001" lon="-6.28379">
        <ele>48.63</ele>
        <time>2021-03-20T14:40:18Z</time>
      </trkpt>
      <trkpt lat="53.29998" lon="-6.28373">
        <ele>49.08</ele>
        <time>2021-03-20T14:40:26Z</time>
      </trkpt>
      <trkpt lat="53.29976" lon="-6.2837">
        <ele>49.85</ele>
        <time>2021-03-20T14:40:35Z</time>
      </trkpt>
      <trkpt lat="53.29939" lon="-6.2838">
        <ele>51.04</ele>
        <time>2021-03-20T14:40:43Z</time>
      </trkpt>
      <trkpt lat="53.29895" lon="-6.28403">
        <ele>53.89</ele>
        <time>2021-03-20T14:40:51Z</time>
      </trkpt>
      <trkpt lat="53.29838" lon="-6.2845">
        <ele>54.12</ele>
        <time>2021-03-20T14:41:00Z</time>
      </trkpt>
      <trkpt lat="53.29807" lon="-6.2847">
        <ele>54</ele>
        <time>2021-03-20T14:41:08Z</time>
      </trkpt>
      <trkpt lat="53.2977" lon="-6.28486">
        <ele>51.37</ele>
        <time>2021-03-20T14:41:16Z</time>
      </trkpt>
      <trkpt lat="53.29762" lon="-6.28488">
        <ele>51.12</ele>
        <time>2021-03-20T14:41:25Z</time>
      </trkpt>
      <trkpt lat="53.29708" lon="-6.28484">
        <ele>51.88</ele>
        <time>2021-03-20T14:41:33Z</time>
      </trkpt>
      <trkpt lat="53.29668" lon="-6.28461">
        <ele>50.54</ele>
        <time>2021-03-20T14:41:41Z</time>
      </trkpt>
      <trkpt lat="53.29663" lon="-6.2847">
        <ele>50.07</ele>
        <time>2021-03-20T14:41:48Z</time>
      </trkpt>
      <trkpt lat="53.29606" lon="-6.28537">
        <ele>47.4</ele>
        <time>2021-03-20T14:41:56Z</time>
      </trkpt>
      <trkpt lat="53.29596" lon="-6.28554">
        <ele>48.12</ele>
        <time>2021-03-20T14:42:03Z</time>
      </trkpt>
      <trkpt lat="53.29567" lon="-6.2862">
        <ele>50.28</ele>
        <time>2021-03-20T14:42:10Z</time>
      </trkpt>
      <trkpt lat="53.29551" lon="-6.28652">
        <ele>51</ele>
        <time>2021-03-20T14:42:18Z</time>
      </trkpt>
      <trkpt lat="53.29536" lon="-6.28672">
        <ele>51.06</ele>
        <time>2021-03-20T14:42:25Z</time>
      </trkpt>
      <trkpt lat="53.29522" lon="-6.28687">
        <ele>50.94</ele>
        <time>2021-03-20T14:42:32Z</time>
      </trkpt>
      <trkpt lat="53.29491" lon="-6.2871">
        <ele>51.34</ele>
        <time>2021-03-20T14:42:40Z</time>
      </trkpt>
      <trkpt lat="53.29399" lon="-6.28742">
        <ele>52.31</ele>
        <time>2021-03-20T14:42:47Z</time>
      </trkpt>
      <trkpt lat="53.29345" lon="-6.28756">
        <ele>52.58</ele>
        <time>2021-03-20T14:42:54Z</time>
      </trkpt>
      <trkpt lat="53.29318" lon="-6.28772">
        <ele>53</ele>
        <time>2021-03-20T14:43:02Z</time>
      </trkpt>
      <trkpt lat="53.29304" lon="-6.28786">
        <ele>53.21</ele>
        <time>2021-03-20T14:43:09Z</time>
      </trkpt>
      <trkpt lat="53.29232" lon="-6.2888">
        <ele>54.33</ele>
        <time>2021-03-20T14:43:16Z</time>
      </trkpt>
      <trkpt lat="53.29185" lon="-6.28917">
        <ele>54.68</ele>
        <time>2021-03-20T14:43:24Z</time>
      </trkpt>
      <trkpt lat="53.29031" lon="-6.29008">
        <ele>58</ele>
        <time>2021-03-20T14:43:31Z</time>
      </trkpt>
      <trkpt lat="53.28885" lon="-6.29071">
        <ele>60.93</ele>
        <time>2021-03-20T14:43:38Z</time>
      </trkpt>
      <trkpt lat="53.28778" lon="-6.29133">
        <ele>66.23</ele>
        <time>2021-03-20T14:43:46Z</time>
      </trkpt>
      <trkpt lat="53.28753" lon="-6.29152">
        <ele>67.81</ele>
        <time>2021-03-20T14:43:53Z</time>
      </trkpt>
      <trkpt lat="53.28729" lon="-6.29178">
        <ele>67.96</ele>
        <time>2021-03-20T14:44:00Z</time>
      </trkpt>
      <trkpt lat="53.28703" lon="-6.29217">
        <ele>66.9</ele>
        <time>2021-03-20T14:44:08Z</time>
      </trkpt>
      <trkpt lat="53.28633" lon="-6.29333">
        <ele>66.22</ele>
        <time>2021-03-20T14:44:15Z</time>
      </trkpt>
      <trkpt lat="53.28564" lon="-6.29432">
        <ele>70</ele>
        <time>2021-03-20T14:44:22Z</time>
      </trkpt>
      <trkpt lat="53.28528" lon="-6.29479">
        <ele>69</ele>
        <time>2021-03-20T14:44:30Z</time>
      </trkpt>
      <trkpt lat="53.28498" lon="-6.2951">
        <ele>67.76</ele>
        <time>2021-03-20T14:44:37Z</time>
      </trkpt>
      <trkpt lat="53.28477" lon="-6.29525">
        <ele>68.67</ele>
        <time>2021-03-20T14:44:44Z</time>
      </trkpt>
      <trkpt lat="53.28388" lon="-6.29577">
        <ele>71.82</ele>
        <time>2021-03-20T14:44:51Z</time>
      </trkpt>
      <trkpt lat="53.28332" lon="-6.29627">
        <ele>73.58</ele>
        <time>2021-03-20T14:44:59Z</time>
      </trkpt>
      <trkpt lat="53.28252" lon="-6.29711">
        <ele>74.93</ele>
        <time>2021-03-20T14:45:06Z</time>
      </trkpt>
      <trkpt lat="53.2823" lon="-6.29731">
        <ele>75.41</ele>
        <time>2021-03-20T14:45:13Z</time>
      </trkpt>
      <trkpt lat="53.28222" lon="-6.29734">
        <ele>75.57</ele>
        <time>2021-03-20T14:45:21Z</time>
      </trkpt>
      <trkpt lat="53.28217" lon="-6.29723">
        <ele>75.78</ele>
        <time>2021-03-20T14:45:24Z</time>
      </trkpt>
      <trkpt lat="53.28209" lon="-6.29721">
        <ele>75.51</ele>
        <time>2021-03-20T14:45:27Z</time>
      </trkpt>
      <trkpt lat="53.28203" lon="-6.29729">
        <ele>75.22</ele>
        <time>2021-03-20T14:45:30Z</time>
      </trkpt>
      <trkpt lat="53.28201" lon="-6.29742">
        <ele>75.07</ele>
        <time>2021-03-20T14:45:33Z</time>
      </trkpt>
      <trkpt lat="53.2816" lon="-6.29746">
        <ele>76.65</ele>
        <time>2021-03-20T14:45:36Z</time>
      </trkpt>
      <trkpt lat="53.28093" lon="-6.29743">
        <ele>79.93</ele>
        <time>2021-03-20T14:45:39Z</time>
      </trkpt>
      <trkpt lat="53.28086" lon="-6.29772">
        <ele>79.91</ele>
        <time>2021-03-20T14:45:49Z</time>
      </trkpt>
      <trkpt lat="53.28036" lon="-6.29946">
        <ele>80.07</ele>
        <time>2021-03-20T14:46:00Z</time>
      </trkpt>
      <trkpt lat="53.27989" lon="-6.30085">
        <ele>85.14</ele>
        <time>2021-03-20T14:46:10Z</time>
      </trkpt>
      <trkpt lat="53.27965" lon="-6.30088">
        <ele>87.33</ele>
        <time>2021-03-20T14:46:18Z</time>
      </trkpt>
      <trkpt lat="53.27947" lon="-6.30094">
        <ele>88.12</ele>
        <time>2021-03-20T14:46:27Z</time>
      </trkpt>
      <trkpt lat="53.27844" lon="-6.30146">
        <ele>90.22</ele>
        <time>2021-03-20T14:46:36Z</time>
      </trkpt>
      <trkpt lat="53.27528" lon="-6.30265">
        <ele>106</ele>
        <time>2021-03-20T14:46:44Z</time>
      </trkpt>
      <trkpt lat="53.27512" lon="-6.30273">
        <ele>106.57</ele>
        <time>2021-03-20T14:46:53Z</time>
      </trkpt>
      <trkpt lat="53.27499" lon="-6.30284">
        <ele>107.4</ele>
        <time>2021-03-20T14:47:02Z</time>
      </trkpt>
      <trkpt lat="53.27475" lon="-6.30319">
        <ele>110.76</ele>
        <time>2021-03-20T14:47:11Z</time>
      </trkpt>
      <trkpt lat="53.27332" lon="-6.30557">
        <ele>125.22</ele>
        <time>2021-03-20T14:47:19Z</time>
      </trkpt>
      <trkpt lat="53.27322" lon="-6.30578">
        <ele>126.9</ele>
        <time>2021-03-20T14:47:28Z</time>
      </trkpt>
      <trkpt lat="53.27304" lon="-6.30627">
        <ele>129.54</ele>
        <time>2021-03-20T14:47:37Z</time>
      </trkpt>
      <trkpt lat="53.27301" lon="-6.30631">
        <ele>129.64</ele>
        <time>2021-03-20T14:47:45Z</time>
      </trkpt>
      <trkpt lat="53.27289" lon="-6.30659">
        <ele>129.65</ele>
        <time>2021-03-20T14:47:54Z</time>
      </trkpt>
      <trkpt lat="53.27282" lon="-6.30664">
        <ele>131.04</ele>
        <time>2021-03-20T14:47:56Z</time>
      </trkpt>
      <trkpt lat="53.27276" lon="-6.3068">
        <ele>131.67</ele>
        <time>2021-03-20T14:47:58Z</time>
      </trkpt>
      <trkpt lat="53.27264" lon="-6.30696">
        <ele>131.93</ele>
        <time>2021-03-20T14:48:01Z</time>
      </trkpt>
      <trkpt lat="53.27253" lon="-6.30706">
        <ele>132.37</ele>
        <time>2021-03-20T14:48:03Z</time>
      </trkpt>
      <trkpt lat="53.27211" lon="-6.30758">
        <ele>134.83</ele>
        <time>2021-03-20T14:48:05Z</time>
      </trkpt>
      <trkpt lat="53.27189" lon="-6.30793">
        <ele>135.3</ele>
        <time>2021-03-20T14:48:07Z</time>
      </trkpt>
      <trkpt lat="53.27117" lon="-6.30919">
        <ele>134.79</ele>
        <time>2021-03-20T14:48:09Z</time>
      </trkpt>
      <trkpt lat="53.2709" lon="-6.3099">
        <ele>132.68</ele>
        <time>2021-03-20T14:48:12Z</time>
      </trkpt>
      <trkpt lat="53.27063" lon="-6.31056">
        <ele>133.44</ele>
        <time>2021-03-20T14:48:14Z</time>
      </trkpt>
      <trkpt lat="53.27052" lon="-6.31096">
        <ele>132.81</ele>
        <time>2021-03-20T14:48:16Z</time>
      </trkpt>
      <trkpt lat="53.27045" lon="-6.31131">
        <ele>132.66</ele>
        <time>2021-03-20T14:48:18Z</time>
      </trkpt>
      <trkpt lat="53.27039" lon="-6.31153">
        <ele>133.26</ele>
        <time>2021-03-20T14:48:20Z</time>
      </trkpt>
      <trkpt lat="53.27006" lon="-6.31198">
        <ele>136.26</ele>
        <time>2021-03-20T14:48:22Z</time>
      </trkpt>
      <trkpt lat="53.26988" lon="-6.31219">
        <ele>137</ele>
        <time>2021-03-20T14:48:25Z</time>
      </trkpt>
      <trkpt lat="53.2697" lon="-6.31234">
        <ele>136.91</ele>
        <time>2021-03-20T14:48:27Z</time>
      </trkpt>
      <trkpt lat="53.26937" lon="-6.31247">
        <ele>138.12</ele>
        <time>2021-03-20T14:48:29Z</time>
      </trkpt>
      <trkpt lat="53.26853" lon="-6.31273">
        <ele>143.47</ele>
        <time>2021-03-20T14:48:31Z</time>
      </trkpt>
      <trkpt lat="53.26746" lon="-6.31295">
        <ele>152.01</ele>
        <time>2021-03-20T14:48:33Z</time>
      </trkpt>
      <trkpt lat="53.26709" lon="-6.31301">
        <ele>153.7</ele>
        <time>2021-03-20T14:48:36Z</time>
      </trkpt>
      <trkpt lat="53.26696" lon="-6.31301">
        <ele>154.11</ele>
        <time>2021-03-20T14:48:38Z</time>
      </trkpt>
      <trkpt lat="53.26606" lon="-6.31281">
        <ele>160.62</ele>
        <time>2021-03-20T14:48:40Z</time>
      </trkpt>
      <trkpt lat="53.26596" lon="-6.31285">
        <ele>161.85</ele>
        <time>2021-03-20T14:48:42Z</time>
      </trkpt>
      <trkpt lat="53.26589" lon="-6.31297">
        <ele>162.57</ele>
        <time>2021-03-20T14:48:44Z</time>
      </trkpt>
      <trkpt lat="53.26535" lon="-6.31446">
        <ele>169.44</ele>
        <time>2021-03-20T14:48:47Z</time>
      </trkpt>
      <trkpt lat="53.26525" lon="-6.3149">
        <ele>172.33</ele>
        <time>2021-03-20T14:48:49Z</time>
      </trkpt>
      <trkpt lat="53.26518" lon="-6.31515">
        <ele>173.46</ele>
        <time>2021-03-20T14:48:51Z</time>
      </trkpt>
      <trkpt lat="53.26497" lon="-6.31559">
        <ele>176.56</ele>
        <time>2021-03-20T14:48:53Z</time>
      </trkpt>
      <trkpt lat="53.26478" lon="-6.31615">
        <ele>179.28</ele>
        <time>2021-03-20T14:48:55Z</time>
      </trkpt>
      <trkpt lat="53.2639" lon="-6.31773">
        <ele>186.06</ele>
        <time>2021-03-20T14:48:58Z</time>
      </trkpt>
      <trkpt lat="53.26369" lon="-6.31799">
        <ele>186.64</ele>
        <time>2021-03-20T14:49:00Z</time>
      </trkpt>
      <trkpt lat="53.26349" lon="-6.31814">
        <ele>188.33</ele>
        <time>2021-03-20T14:49:02Z</time>
      </trkpt>
      <trkpt lat="53.26327" lon="-6.31828">
        <ele>189.65</ele>
        <time>2021-03-20T14:49:04Z</time>
      </trkpt>
      <trkpt lat="53.26242" lon="-6.31865">
        <ele>191.96</ele>
        <time>2021-03-20T14:49:06Z</time>
      </trkpt>
      <trkpt lat="53.26171" lon="-6.319">
        <ele>191.83</ele>
        <time>2021-03-20T14:49:08Z</time>
      </trkpt>
      <trkpt lat="53.26094" lon="-6.31931">
        <ele>191.76</ele>
        <time>2021-03-20T14:49:11Z</time>
      </trkpt>
      <trkpt lat="53.26079" lon="-6.3194">
        <ele>192.42</ele>
        <time>2021-03-20T14:49:13Z</time>
      </trkpt>
      <trkpt lat="53.26055" lon="-6.31966">
        <ele>192.52</ele>
        <time>2021-03-20T14:49:15Z</time>
      </trkpt>
      <trkpt lat="53.26004" lon="-6.32031">
        <ele>196.46</ele>
        <time>2021-03-20T14:49:17Z</time>
      </trkpt>
      <trkpt lat="53.25978" lon="-6.32052">
        <ele>199.35</ele>
        <time>2021-03-20T14:49:19Z</time>
      </trkpt>
      <trkpt lat="53.25897" lon="-6.32063">
        <ele>213.54</ele>
        <time>2021-03-20T14:49:22Z</time>
      </trkpt>
      <trkpt lat="53.25829" lon="-6.32067">
        <ele>222.06</ele>
        <time>2021-03-20T14:49:24Z</time>
      </trkpt>
      <trkpt lat="53.25815" lon="-6.32071">
        <ele>223.13</ele>
        <time>2021-03-20T14:49:26Z</time>
      </trkpt>
      <trkpt lat="53.25726" lon="-6.32121">
        <ele>233.74</ele>
        <time>2021-03-20T14:49:28Z</time>
      </trkpt>
      <trkpt lat="53.25688" lon="-6.32132">
        <ele>239.24</ele>
        <time>2021-03-20T14:49:30Z</time>
      </trkpt>
      <trkpt lat="53.25638" lon="-6.32141">
        <ele>243.16</ele>
        <time>2021-03-20T14:49:33Z</time>
      </trkpt>
      <trkpt lat="53.25581" lon="-6.32139">
        <ele>247.1</ele>
        <time>2021-03-20T14:49:35Z</time>
      </trkpt>
      <trkpt lat="53.25548" lon="-6.32135">
        <ele>247.58</ele>
        <time>2021-03-20T14:49:37Z</time>
      </trkpt>
      <trkpt lat="53.25481" lon="-6.3212">
        <ele>248.26</ele>
        <time>2021-03-20T14:49:39Z</time>
      </trkpt>
      <trkpt lat="53.25364" lon="-6.32109">
        <ele>260.53</ele>
        <time>2021-03-20T14:49:41Z</time>
      </trkpt>
      <trkpt lat="53.25212" lon="-6.32073">
        <ele>275.57</ele>
        <time>2021-03-20T14:49:44Z</time>
      </trkpt>
      <trkpt lat="53.25157" lon="-6.32051">
        <ele>279.51</ele>
        <time>2021-03-20T14:49:46Z</time>
      </trkpt>
      <trkpt lat="53.25125" lon="-6.32041">
        <ele>280.93</ele>
        <time>2021-03-20T14:49:48Z</time>
      </trkpt>
      <trkpt lat="53.25037" lon="-6.32022">
        <ele>281.88</ele>
        <time>2021-03-20T14:49:50Z</time>
      </trkpt>
      <trkpt lat="53.25009" lon="-6.32027">
        <ele>281.27</ele>
        <time>2021-03-20T14:49:52Z</time>
      </trkpt>
      <trkpt lat="53.24978" lon="-6.32039">
        <ele>285.37</ele>
        <time>2021-03-20T14:49:54Z</time>
      </trkpt>
      <trkpt lat="53.24956" lon="-6.32052">
        <ele>289.69</ele>
        <time>2021-03-20T14:49:57Z</time>
      </trkpt>
      <trkpt lat="53.24929" lon="-6.32076">
        <ele>292.56</ele>
        <time>2021-03-20T14:49:59Z</time>
      </trkpt>
      <trkpt lat="53.24913" lon="-6.32109">
        <ele>293.13</ele>
        <time>2021-03-20T14:50:01Z</time>
      </trkpt>
      <trkpt lat="53.24911" lon="-6.32125">
        <ele>293.11</ele>
        <time>2021-03-20T14:50:03Z</time>
      </trkpt>
      <trkpt lat="53.24898" lon="-6.32167">
        <ele>293.02</ele>
        <time>2021-03-20T14:50:05Z</time>
      </trkpt>
      <trkpt lat="53.24891" lon="-6.32183">
        <ele>293.64</ele>
        <time>2021-03-20T14:50:08Z</time>
      </trkpt>
      <trkpt lat="53.24882" lon="-6.32197">
        <ele>294.3</ele>
        <time>2021-03-20T14:50:10Z</time>
      </trkpt>
      <trkpt lat="53.24877" lon="-6.322">
        <ele>294.55</ele>
        <time>2021-03-20T14:50:12Z</time>
      </trkpt>
      <trkpt lat="53.24871" lon="-6.32201">
        <ele>294.72</ele>
        <time>2021-03-20T14:50:14Z</time>
      </trkpt>
      <trkpt lat="53.24865" lon="-6.32197">
        <ele>294.88</ele>
        <time>2021-03-20T14:50:16Z</time>
      </trkpt>
      <trkpt lat="53.24837" lon="-6.32146">
        <ele>297.58</ele>
        <time>2021-03-20T14:50:19Z</time>
      </trkpt>
      <trkpt lat="53.24816" lon="-6.32116">
        <ele>300.11</ele>
        <time>2021-03-20T14:50:21Z</time>
      </trkpt>
      <trkpt lat="53.24806" lon="-6.32097">
        <ele>301.49</ele>
        <time>2021-03-20T14:50:23Z</time>
      </trkpt>
      <trkpt lat="53.24781" lon="-6.32073">
        <ele>303.24</ele>
        <time>2021-03-20T14:50:25Z</time>
      </trkpt>
      <trkpt lat="53.24723" lon="-6.32032">
        <ele>311.6</ele>
        <time>2021-03-20T14:50:27Z</time>
      </trkpt>
      <trkpt lat="53.24709" lon="-6.32026">
        <ele>312.58</ele>
        <time>2021-03-20T14:50:30Z</time>
      </trkpt>
      <trkpt lat="53.24693" lon="-6.32026">
        <ele>313.13</ele>
        <time>2021-03-20T14:50:32Z</time>
      </trkpt>
      <trkpt lat="53.24646" lon="-6.32034">
        <ele>315.46</ele>
        <time>2021-03-20T14:50:34Z</time>
      </trkpt>
      <trkpt lat="53.24579" lon="-6.32022">
        <ele>323.1</ele>
        <time>2021-03-20T14:50:36Z</time>
      </trkpt>
      <trkpt lat="53.24509" lon="-6.32015">
        <ele>331.56</ele>
        <time>2021-03-20T14:50:38Z</time>
      </trkpt>
      <trkpt lat="53.24464" lon="-6.32001">
        <ele>333.69</ele>
        <time>2021-03-20T14:50:40Z</time>
      </trkpt>
      <trkpt lat="53.24407" lon="-6.31975">
        <ele>338.24</ele>
        <time>2021-03-20T14:50:43Z</time>
      </trkpt>
      <trkpt lat="53.24392" lon="-6.31971">
        <ele>339.58</ele>
        <time>2021-03-20T14:50:45Z</time>
      </trkpt>
      <trkpt lat="53.24363" lon="-6.31969">
        <ele>340.83</ele>
        <time>2021-03-20T14:50:47Z</time>
      </trkpt>
      <trkpt lat="53.24321" lon="-6.3198">
        <ele>345.58</ele>
        <time>2021-03-20T14:50:49Z</time>
      </trkpt>
      <trkpt lat="53.24298" lon="-6.31981">
        <ele>348.31</ele>
        <time>2021-03-20T14:50:51Z</time>
      </trkpt>
      <trkpt lat="53.24238" lon="-6.31967">
        <ele>355.31</ele>
        <time>2021-03-20T14:50:54Z</time>
      </trkpt>
      <trkpt lat="53.24219" lon="-6.31967">
        <ele>356.45</ele>
        <time>2021-03-20T14:50:56Z</time>
      </trkpt>
      <trkpt lat="53.24179" lon="-6.31992">
        <ele>357.55</ele>
        <time>2021-03-20T14:50:58Z</time>
      </trkpt>
      <trkpt lat="53.24152" lon="-6.32027">
        <ele>361.48</ele>
        <time>2021-03-20T14:51:00Z</time>
      </trkpt>
      <trkpt lat="53.24129" lon="-6.32077">
        <ele>366.86</ele>
        <time>2021-03-20T14:51:02Z</time>
      </trkpt>
      <trkpt lat="53.24123" lon="-6.32086">
        <ele>367.7</ele>
        <time>2021-03-20T14:51:05Z</time>
      </trkpt>
      <trkpt lat="53.24117" lon="-6.32091">
        <ele>368.09</ele>
        <time>2021-03-20T14:51:07Z</time>
      </trkpt>
      <trkpt lat="53.24109" lon="-6.32092">
        <ele>368.57</ele>
        <time>2021-03-20T14:51:09Z</time>
      </trkpt>
      <trkpt lat="53.24083" lon="-6.32083">
        <ele>371.02</ele>
        <time>2021-03-20T14:51:11Z</time>
      </trkpt>
      <trkpt lat="53.2404" lon="-6.32075">
        <ele>376.86</ele>
        <time>2021-03-20T14:51:13Z</time>
      </trkpt>
      <trkpt lat="53.24" lon="-6.32043">
        <ele>381.03</ele>
        <time>2021-03-20T14:51:15Z</time>
      </trkpt>
      <trkpt lat="53.23988" lon="-6.32038">
        <ele>381.39</ele>
        <time>2021-03-20T14:51:18Z</time>
      </trkpt>
      <trkpt lat="53.23947" lon="-6.32031">
        <ele>383.14</ele>
        <time>2021-03-20T14:51:20Z</time>
      </trkpt>
      <trkpt lat="53.23941" lon="-6.32035">
        <ele>383.39</ele>
        <time>2021-03-20T14:51:22Z</time>
      </trkpt>
      <trkpt lat="53.23938" lon="-6.32043">
        <ele>383.82</ele>
        <time>2021-03-20T14:51:24Z</time>
      </trkpt>
      <trkpt lat="53.23935" lon="-6.32054">
        <ele>384.58</ele>
        <time>2021-03-20T14:51:26Z</time>
      </trkpt>
      <trkpt lat="53.23938" lon="-6.32087">
        <ele>385</ele>
        <time>2021-03-20T14:51:29Z</time>
      </trkpt>
      <trkpt lat="53.23936" lon="-6.32157">
        <ele>386</ele>
        <time>2021-03-20T14:51:31Z</time>
      </trkpt>
      <trkpt lat="53.23933" lon="-6.3218">
        <ele>386.49</ele>
        <time>2021-03-20T14:51:33Z</time>
      </trkpt>
      <trkpt lat="53.23921" lon="-6.3222">
        <ele>387.92</ele>
        <time>2021-03-20T14:51:35Z</time>
      </trkpt>
      <trkpt lat="53.23911" lon="-6.32239">
        <ele>388.61</ele>
        <time>2021-03-20T14:51:37Z</time>
      </trkpt>
      <trkpt lat="53.23899" lon="-6.32257">
        <ele>389</ele>
        <time>2021-03-20T14:51:40Z</time>
      </trkpt>
      <trkpt lat="53.23876" lon="-6.32283">
        <ele>388.63</ele>
        <time>2021-03-20T14:51:42Z</time>
      </trkpt>
      <trkpt lat="53.23866" lon="-6.32292">
        <ele>388.58</ele>
        <time>2021-03-20T14:51:44Z</time>
      </trkpt>
      <trkpt lat="53.23845" lon="-6.32301">
        <ele>390.52</ele>
        <time>2021-03-20T14:51:46Z</time>
      </trkpt>
      <trkpt lat="53.23789" lon="-6.32309">
        <ele>395.33</ele>
        <time>2021-03-20T14:51:48Z</time>
      </trkpt>
      <trkpt lat="53.23775" lon="-6.32304">
        <ele>396</ele>
        <time>2021-03-20T14:51:51Z</time>
      </trkpt>
      <trkpt lat="53.23655" lon="-6.32202">
        <ele>406.88</ele>
        <time>2021-03-20T14:51:53Z</time>
      </trkpt>
      <trkpt lat="53.23634" lon="-6.32193">
        <ele>408.32</ele>
        <time>2021-03-20T14:51:55Z</time>
      </trkpt>
      <trkpt lat="53.23443" lon="-6.32213">
        <ele>421.01</ele>
        <time>2021-03-20T14:51:57Z</time>
      </trkpt>
      <trkpt lat="53.23419" lon="-6.32221">
        <ele>421.05</ele>
        <time>2021-03-20T14:51:59Z</time>
      </trkpt>
      <trkpt lat="53.23386" lon="-6.32239">
        <ele>425.12</ele>
        <time>2021-03-20T14:52:01Z</time>
      </trkpt>
      <trkpt lat="53.23367" lon="-6.32246">
        <ele>426.64</ele>
        <time>2021-03-20T14:52:04Z</time>
      </trkpt>
      <trkpt lat="53.2321" lon="-6.32265">
        <ele>434.2</ele>
        <time>2021-03-20T14:52:06Z</time>
      </trkpt>
      <trkpt lat="53.23195" lon="-6.32266">
        <ele>435.3</ele>
        <time>2021-03-20T14:52:08Z</time>
      </trkpt>
      <trkpt lat="53.23143" lon="-6.32253">
        <ele>438.53</ele>
        <time>2021-03-20T14:52:10Z</time>
      </trkpt>
      <trkpt lat="53.23113" lon="-6.32253">
        <ele>439.7</ele>
        <time>2021-03-20T14:52:12Z</time>
      </trkpt>
      <trkpt lat="53.23099" lon="-6.32251">
        <ele>440.8</ele>
        <time>2021-03-20T14:52:15Z</time>
      </trkpt>
      <trkpt lat="53.23073" lon="-6.32239">
        <ele>442.92</ele>
        <time>2021-03-20T14:52:17Z</time>
      </trkpt>
      <trkpt lat="53.23036" lon="-6.32211">
        <ele>444.99</ele>
        <time>2021-03-20T14:52:19Z</time>
      </trkpt>
      <trkpt lat="53.23005" lon="-6.32183">
        <ele>444.76</ele>
        <time>2021-03-20T14:52:21Z</time>
      </trkpt>
      <trkpt lat="53.22988" lon="-6.32164">
        <ele>444.4</ele>
        <time>2021-03-20T14:52:23Z</time>
      </trkpt>
      <trkpt lat="53.22977" lon="-6.32147">
        <ele>444.15</ele>
        <time>2021-03-20T14:52:26Z</time>
      </trkpt>
      <trkpt lat="53.22947" lon="-6.32087">
        <ele>445</ele>
        <time>2021-03-20T14:52:28Z</time>
      </trkpt>
      <trkpt lat="53.22884" lon="-6.31976">
        <ele>452.33</ele>
        <time>2021-03-20T14:52:30Z</time>
      </trkpt>
      <trkpt lat="53.22856" lon="-6.31936">
        <ele>454.19</ele>
        <time>2021-03-20T14:52:32Z</time>
      </trkpt>
      <trkpt lat="53.22834" lon="-6.31916">
        <ele>455.05</ele>
        <time>2021-03-20T14:52:34Z</time>
      </trkpt>
      <trkpt lat="53.22796" lon="-6.31898">
        <ele>456.11</ele>
        <time>2021-03-20T14:52:37Z</time>
      </trkpt>
      <trkpt lat="53.22724" lon="-6.31891">
        <ele>458.71</ele>
        <time>2021-03-20T14:52:39Z</time>
      </trkpt>
      <trkpt lat="53.22663" lon="-6.3187">
        <ele>463.52</ele>
        <time>2021-03-20T14:52:41Z</time>
      </trkpt>
      <trkpt lat="53.2254" lon="-6.31837">
        <ele>471.02</ele>
        <time>2021-03-20T14:52:43Z</time>
      </trkpt>
      <trkpt lat="53.22517" lon="-6.31823">
        <ele>472.12</ele>
        <time>2021-03-20T14:52:45Z</time>
      </trkpt>
      <trkpt lat="53.22486" lon="-6.31798">
        <ele>472.47</ele>
        <time>2021-03-20T14:52:47Z</time>
      </trkpt>
      <trkpt lat="53.22467" lon="-6.31775">
        <ele>473.52</ele>
        <time>2021-03-20T14:52:50Z</time>
      </trkpt>
      <trkpt lat="53.2245" lon="-6.31745">
        <ele>473.01</ele>
        <time>2021-03-20T14:52:52Z</time>
      </trkpt>
      <trkpt lat="53.22435" lon="-6.31712">
        <ele>474.79</ele>
        <time>2021-03-20T14:52:54Z</time>
      </trkpt>
      <trkpt lat="53.22417" lon="-6.31683">
        <ele>477.29</ele>
        <time>2021-03-20T14:52:56Z</time>
      </trkpt>
      <trkpt lat="53.22395" lon="-6.3166">
        <ele>478.71</ele>
        <time>2021-03-20T14:52:58Z</time>
      </trkpt>
      <trkpt lat="53.22344" lon="-6.31622">
        <ele>477.77</ele>
        <time>2021-03-20T14:53:01Z</time>
      </trkpt>
      <trkpt lat="53.22325" lon="-6.316">
        <ele>477.88</ele>
        <time>2021-03-20T14:53:03Z</time>
      </trkpt>
      <trkpt lat="53.22268" lon="-6.31509">
        <ele>481.99</ele>
        <time>2021-03-20T14:53:05Z</time>
      </trkpt>
      <trkpt lat="53.22236" lon="-6.31431">
        <ele>485.94</ele>
        <time>2021-03-20T14:53:07Z</time>
      </trkpt>
      <trkpt lat="53.2223" lon="-6.31417">
        <ele>486.76</ele>
        <time>2021-03-20T14:53:09Z</time>
      </trkpt>
      <trkpt lat="53.22223" lon="-6.31407">
        <ele>487.08</ele>
        <time>2021-03-20T14:53:12Z</time>
      </trkpt>
      <trkpt lat="53.22214" lon="-6.314">
        <ele>486.67</ele>
        <time>2021-03-20T14:53:14Z</time>
      </trkpt>
      <trkpt lat="53.22205" lon="-6.31396">
        <ele>485.64</ele>
        <time>2021-03-20T14:53:16Z</time>
      </trkpt>
      <trkpt lat="53.22161" lon="-6.31392">
        <ele>483.05</ele>
        <time>2021-03-20T14:53:18Z</time>
      </trkpt>
      <trkpt lat="53.22137" lon="-6.31384">
        <ele>485.24</ele>
        <time>2021-03-20T14:53:20Z</time>
      </trkpt>
      <trkpt lat="53.22117" lon="-6.31373">
        <ele>485.03</ele>
        <time>2021-03-20T14:53:23Z</time>
      </trkpt>
      <trkpt lat="53.22102" lon="-6.31362">
        <ele>484.6</ele>
        <time>2021-03-20T14:53:25Z</time>
      </trkpt>
      <trkpt lat="53.22085" lon="-6.31343">
        <ele>484.16</ele>
        <time>2021-03-20T14:53:27Z</time>
      </trkpt>
      <trkpt lat="53.22066" lon="-6.3131">
        <ele>485.44</ele>
        <time>2021-03-20T14:53:29Z</time>
      </trkpt>
      <trkpt lat="53.22032" lon="-6.31235">
        <ele>485.28</ele>
        <time>2021-03-20T14:53:31Z</time>
      </trkpt>
      <trkpt lat="53.22026" lon="-6.31216">
        <ele>485.2</ele>
        <time>2021-03-20T14:53:33Z</time>
      </trkpt>
      <trkpt lat="53.22021" lon="-6.31178">
        <ele>486.83</ele>
        <time>2021-03-20T14:53:36Z</time>
      </trkpt>
      <trkpt lat="53.22021" lon="-6.31124">
        <ele>490.41</ele>
        <time>2021-03-20T14:53:38Z</time>
      </trkpt>
      <trkpt lat="53.22019" lon="-6.31106">
        <ele>491.29</ele>
        <time>2021-03-20T14:53:40Z</time>
      </trkpt>
      <trkpt lat="53.22008" lon="-6.31076">
        <ele>491.67</ele>
        <time>2021-03-20T14:53:42Z</time>
      </trkpt>
      <trkpt lat="53.21956" lon="-6.31002">
        <ele>490.31</ele>
        <time>2021-03-20T14:53:44Z</time>
      </trkpt>
      <trkpt lat="53.21924" lon="-6.30972">
        <ele>489.86</ele>
        <time>2021-03-20T14:53:47Z</time>
      </trkpt>
      <trkpt lat="53.21905" lon="-6.30963">
        <ele>489.26</ele>
        <time>2021-03-20T14:53:49Z</time>
      </trkpt>
      <trkpt lat="53.21888" lon="-6.30961">
        <ele>488.79</ele>
        <time>2021-03-20T14:53:51Z</time>
      </trkpt>
      <trkpt lat="53.2185" lon="-6.30981">
        <ele>485.68</ele>
        <time>2021-03-20T14:53:53Z</time>
      </trkpt>
      <trkpt lat="53.21834" lon="-6.30986">
        <ele>484.53</ele>
        <time>2021-03-20T14:53:55Z</time>
      </trkpt>
      <trkpt lat="53.21803" lon="-6.30987">
        <ele>483.43</ele>
        <time>2021-03-20T14:53:58Z</time>
      </trkpt>
      <trkpt lat="53.21772" lon="-6.30977">
        <ele>483.46</ele>
        <time>2021-03-20T14:54:00Z</time>
      </trkpt>
      <trkpt lat="53.21732" lon="-6.30956">
        <ele>482.17</ele>
        <time>2021-03-20T14:54:02Z</time>
      </trkpt>
      <trkpt lat="53.217" lon="-6.30935">
        <ele>481.1</ele>
        <time>2021-03-20T14:54:04Z</time>
      </trkpt>
      <trkpt lat="53.21673" lon="-6.3091">
        <ele>483.15</ele>
        <time>2021-03-20T14:54:06Z</time>
      </trkpt>
      <trkpt lat="53.21605" lon="-6.30837">
        <ele>483.61</ele>
        <time>2021-03-20T14:54:09Z</time>
      </trkpt>
      <trkpt lat="53.21572" lon="-6.30799">
        <ele>483.41</ele>
        <time>2021-03-20T14:54:11Z</time>
      </trkpt>
      <trkpt lat="53.21538" lon="-6.30751">
        <ele>483.34</ele>
        <time>2021-03-20T14:54:13Z</time>
      </trkpt>
      <trkpt lat="53.21514" lon="-6.3073">
        <ele>483.25</ele>
        <time>2021-03-20T14:54:15Z</time>
      </trkpt>
      <trkpt lat="53.21459" lon="-6.30696">
        <ele>482.51</ele>
        <time>2021-03-20T14:54:17Z</time>
      </trkpt>
      <trkpt lat="53.21438" lon="-6.30679">
        <ele>481.77</ele>
        <time>2021-03-20T14:54:19Z</time>
      </trkpt>
      <trkpt lat="53.21407" lon="-6.3065">
        <ele>481</ele>
        <time>2021-03-20T14:54:22Z</time>
      </trkpt>
      <trkpt lat="53.21337" lon="-6.3057">
        <ele>478.6</ele>
        <time>2021-03-20T14:54:24Z</time>
      </trkpt>
      <trkpt lat="53.21317" lon="-6.30542">
        <ele>478.29</ele>
        <time>2021-03-20T14:54:26Z</time>
      </trkpt>
      <trkpt lat="53.21237" lon="-6.30385">
        <ele>474</ele>
        <time>2021-03-20T14:54:28Z</time>
      </trkpt>
      <trkpt lat="53.20941" lon="-6.29791">
        <ele>460.42</ele>
        <time>2021-03-20T14:54:30Z</time>
      </trkpt>
      <trkpt lat="53.20832" lon="-6.29577">
        <ele>452.71</ele>
        <time>2021-03-20T14:54:33Z</time>
      </trkpt>
      <trkpt lat="53.20818" lon="-6.29555">
        <ele>451.42</ele>
        <time>2021-03-20T14:54:35Z</time>
      </trkpt>
      <trkpt lat="53.20789" lon="-6.29527">
        <ele>448.77</ele>
        <time>2021-03-20T14:54:37Z</time>
      </trkpt>
      <trkpt lat="53.20764" lon="-6.29495">
        <ele>446.41</ele>
        <time>2021-03-20T14:54:39Z</time>
      </trkpt>
      <trkpt lat="53.20749" lon="-6.29465">
        <ele>444.72</ele>
        <time>2021-03-20T14:54:41Z</time>
      </trkpt>
      <trkpt lat="53.20734" lon="-6.29425">
        <ele>442.75</ele>
        <time>2021-03-20T14:54:44Z</time>
      </trkpt>
      <trkpt lat="53.2072" lon="-6.29397">
        <ele>440.47</ele>
        <time>2021-03-20T14:54:46Z</time>
      </trkpt>
      <trkpt lat="53.20706" lon="-6.29379">
        <ele>438.67</ele>
        <time>2021-03-20T14:54:48Z</time>
      </trkpt>
      <trkpt lat="53.20673" lon="-6.29348">
        <ele>437.22</ele>
        <time>2021-03-20T14:54:50Z</time>
      </trkpt>
      <trkpt lat="53.20649" lon="-6.2932">
        <ele>436.51</ele>
        <time>2021-03-20T14:54:52Z</time>
      </trkpt>
      <trkpt lat="53.20618" lon="-6.29269">
        <ele>431.85</ele>
        <time>2021-03-20T14:54:54Z</time>
      </trkpt>
      <trkpt lat="53.20609" lon="-6.29258">
        <ele>430.37</ele>
        <time>2021-03-20T14:54:57Z</time>
      </trkpt>
      <trkpt lat="53.20588" lon="-6.29241">
        <ele>427.11</ele>
        <time>2021-03-20T14:54:59Z</time>
      </trkpt>
      <trkpt lat="53.20571" lon="-6.29232">
        <ele>425.93</ele>
        <time>2021-03-20T14:55:01Z</time>
      </trkpt>
      <trkpt lat="53.20558" lon="-6.2923">
        <ele>425.37</ele>
        <time>2021-03-20T14:55:03Z</time>
      </trkpt>
      <trkpt lat="53.20538" lon="-6.29237">
        <ele>425.49</ele>
        <time>2021-03-20T14:55:05Z</time>
      </trkpt>
      <trkpt lat="53.20509" lon="-6.29263">
        <ele>425</ele>
        <time>2021-03-20T14:55:08Z</time>
      </trkpt>
      <trkpt lat="53.205" lon="-6.29273">
        <ele>425</ele>
        <time>2021-03-20T14:55:10Z</time>
      </trkpt>
      <trkpt lat="53.20485" lon="-6.29298">
        <ele>424.26</ele>
        <time>2021-03-20T14:55:12Z</time>
      </trkpt>
      <trkpt lat="53.20449" lon="-6.29386">
        <ele>420.93</ele>
        <time>2021-03-20T14:55:14Z</time>
      </trkpt>
      <trkpt lat="53.2043" lon="-6.29423">
        <ele>419.77</ele>
        <time>2021-03-20T14:55:16Z</time>
      </trkpt>
      <trkpt lat="53.20404" lon="-6.29459">
        <ele>417.54</ele>
        <time>2021-03-20T14:55:19Z</time>
      </trkpt>
      <trkpt lat="53.20351" lon="-6.29517">
        <ele>415.62</ele>
        <time>2021-03-20T14:55:21Z</time>
      </trkpt>
      <trkpt lat="53.20334" lon="-6.29531">
        <ele>416</ele>
        <time>2021-03-20T14:55:23Z</time>
      </trkpt>
      <trkpt lat="53.20288" lon="-6.29561">
        <ele>411.45</ele>
        <time>2021-03-20T14:55:25Z</time>
      </trkpt>
      <trkpt lat="53.20242" lon="-6.29573">
        <ele>408.67</ele>
        <time>2021-03-20T14:55:27Z</time>
      </trkpt>
      <trkpt lat="53.20226" lon="-6.2958">
        <ele>407.25</ele>
        <time>2021-03-20T14:55:30Z</time>
      </trkpt>
      <trkpt lat="53.20215" lon="-6.29589">
        <ele>406.44</ele>
        <time>2021-03-20T14:55:32Z</time>
      </trkpt>
      <trkpt lat="53.20207" lon="-6.29598">
        <ele>405.89</ele>
        <time>2021-03-20T14:55:34Z</time>
      </trkpt>
      <trkpt lat="53.202" lon="-6.29612">
        <ele>405.68</ele>
        <time>2021-03-20T14:55:36Z</time>
      </trkpt>
      <trkpt lat="53.20179" lon="-6.29675">
        <ele>407.82</ele>
        <time>2021-03-20T14:55:38Z</time>
      </trkpt>
      <trkpt lat="53.2017" lon="-6.29688">
        <ele>408.56</ele>
        <time>2021-03-20T14:55:40Z</time>
      </trkpt>
      <trkpt lat="53.20163" lon="-6.29692">
        <ele>408.86</ele>
        <time>2021-03-20T14:55:43Z</time>
      </trkpt>
      <trkpt lat="53.20154" lon="-6.2969">
        <ele>409.01</ele>
        <time>2021-03-20T14:55:45Z</time>
      </trkpt>
      <trkpt lat="53.20147" lon="-6.29683">
        <ele>408.51</ele>
        <time>2021-03-20T14:55:47Z</time>
      </trkpt>
      <trkpt lat="53.20128" lon="-6.29647">
        <ele>404.91</ele>
        <time>2021-03-20T14:55:49Z</time>
      </trkpt>
      <trkpt lat="53.20118" lon="-6.2963">
        <ele>402.89</ele>
        <time>2021-03-20T14:55:51Z</time>
      </trkpt>
      <trkpt lat="53.201" lon="-6.29606">
        <ele>400.5</ele>
        <time>2021-03-20T14:55:54Z</time>
      </trkpt>
      <trkpt lat="53.20046" lon="-6.29559">
        <ele>396.94</ele>
        <time>2021-03-20T14:55:56Z</time>
      </trkpt>
      <trkpt lat="53.19894" lon="-6.2944">
        <ele>384.68</ele>
        <time>2021-03-20T14:55:58Z</time>
      </trkpt>
      <trkpt lat="53.19862" lon="-6.29421">
        <ele>381.01</ele>
        <time>2021-03-20T14:56:00Z</time>
      </trkpt>
      <trkpt lat="53.19831" lon="-6.29411">
        <ele>378.74</ele>
        <time>2021-03-20T14:56:02Z</time>
      </trkpt>
      <trkpt lat="53.19819" lon="-6.29412">
        <ele>378.26</ele>
        <time>2021-03-20T14:56:05Z</time>
      </trkpt>
      <trkpt lat="53.19703" lon="-6.29446">
        <ele>372.59</ele>
        <time>2021-03-20T14:56:07Z</time>
      </trkpt>
      <trkpt lat="53.19641" lon="-6.29457">
        <ele>369.32</ele>
        <time>2021-03-20T14:56:09Z</time>
      </trkpt>
      <trkpt lat="53.19612" lon="-6.29466">
        <ele>368.17</ele>
        <time>2021-03-20T14:56:11Z</time>
      </trkpt>
      <trkpt lat="53.19581" lon="-6.2948">
        <ele>367.81</ele>
        <time>2021-03-20T14:56:13Z</time>
      </trkpt>
      <trkpt lat="53.19552" lon="-6.29487">
        <ele>365.36</ele>
        <time>2021-03-20T14:56:16Z</time>
      </trkpt>
      <trkpt lat="53.19486" lon="-6.29514">
        <ele>368.03</ele>
        <time>2021-03-20T14:56:18Z</time>
      </trkpt>
      <trkpt lat="53.19449" lon="-6.29515">
        <ele>368.21</ele>
        <time>2021-03-20T14:56:20Z</time>
      </trkpt>
      <trkpt lat="53.19421" lon="-6.29511">
        <ele>368.24</ele>
        <time>2021-03-20T14:56:22Z</time>
      </trkpt>
      <trkpt lat="53.19389" lon="-6.29497">
        <ele>367.32</ele>
        <time>2021-03-20T14:56:24Z</time>
      </trkpt>
      <trkpt lat="53.1936" lon="-6.29491">
        <ele>366.42</ele>
        <time>2021-03-20T14:56:26Z</time>
      </trkpt>
      <trkpt lat="53.19352" lon="-6.29487">
        <ele>366.27</ele>
        <time>2021-03-20T14:56:29Z</time>
      </trkpt>
      <trkpt lat="53.19343" lon="-6.29481">
        <ele>365.81</ele>
        <time>2021-03-20T14:56:31Z</time>
      </trkpt>
      <trkpt lat="53.19314" lon="-6.29452">
        <ele>364.17</ele>
        <time>2021-03-20T14:56:33Z</time>
      </trkpt>
      <trkpt lat="53.19245" lon="-6.29406">
        <ele>364.8</ele>
        <time>2021-03-20T14:56:35Z</time>
      </trkpt>
      <trkpt lat="53.19214" lon="-6.29378">
        <ele>363.66</ele>
        <time>2021-03-20T14:56:37Z</time>
      </trkpt>
      <trkpt lat="53.19192" lon="-6.29363">
        <ele>362.45</ele>
        <time>2021-03-20T14:56:40Z</time>
      </trkpt>
      <trkpt lat="53.19168" lon="-6.29352">
        <ele>360.95</ele>
        <time>2021-03-20T14:56:42Z</time>
      </trkpt>
      <trkpt lat="53.19138" lon="-6.29346">
        <ele>362.93</ele>
        <time>2021-03-20T14:56:44Z</time>
      </trkpt>
      <trkpt lat="53.19069" lon="-6.29296">
        <ele>360.64</ele>
        <time>2021-03-20T14:56:46Z</time>
      </trkpt>
      <trkpt lat="53.19031" lon="-6.29261">
        <ele>359.44</ele>
        <time>2021-03-20T14:56:48Z</time>
      </trkpt>
      <trkpt lat="53.18988" lon="-6.2923">
        <ele>359.69</ele>
        <time>2021-03-20T14:56:51Z</time>
      </trkpt>
      <trkpt lat="53.18944" lon="-6.29192">
        <ele>359.75</ele>
        <time>2021-03-20T14:56:53Z</time>
      </trkpt>
      <trkpt lat="53.18874" lon="-6.29179">
        <ele>359.88</ele>
        <time>2021-03-20T14:56:55Z</time>
      </trkpt>
      <trkpt lat="53.18848" lon="-6.29178">
        <ele>360.24</ele>
        <time>2021-03-20T14:56:57Z</time>
      </trkpt>
      <trkpt lat="53.18803" lon="-6.29167">
        <ele>357.96</ele>
        <time>2021-03-20T14:56:59Z</time>
      </trkpt>
      <trkpt lat="53.18791" lon="-6.29169">
        <ele>357.78</ele>
        <time>2021-03-20T14:57:02Z</time>
      </trkpt>
      <trkpt lat="53.1877" lon="-6.29181">
        <ele>357.73</ele>
        <time>2021-03-20T14:57:04Z</time>
      </trkpt>
      <trkpt lat="53.18762" lon="-6.29191">
        <ele>357.64</ele>
        <time>2021-03-20T14:57:06Z</time>
      </trkpt>
      <trkpt lat="53.18726" lon="-6.29259">
        <ele>362.43</ele>
        <time>2021-03-20T14:57:08Z</time>
      </trkpt>
      <trkpt lat="53.18688" lon="-6.29315">
        <ele>364.59</ele>
        <time>2021-03-20T14:57:10Z</time>
      </trkpt>
      <trkpt lat="53.18674" lon="-6.29327">
        <ele>364.78</ele>
        <time>2021-03-20T14:57:12Z</time>
      </trkpt>
      <trkpt lat="53.18663" lon="-6.2933">
        <ele>365</ele>
        <time>2021-03-20T14:57:15Z</time>
      </trkpt>
      <trkpt lat="53.18654" lon="-6.29326">
        <ele>365.61</ele>
        <time>2021-03-20T14:57:17Z</time>
      </trkpt>
      <trkpt lat="53.18635" lon="-6.2931">
        <ele>365.86</ele>
        <time>2021-03-20T14:57:19Z</time>
      </trkpt>
      <trkpt lat="53.18601" lon="-6.29294">
        <ele>367.45</ele>
        <time>2021-03-20T14:57:21Z</time>
      </trkpt>
      <trkpt lat="53.18592" lon="-6.29285">
        <ele>367.14</ele>
        <time>2021-03-20T14:57:23Z</time>
      </trkpt>
      <trkpt lat="53.18579" lon="-6.29255">
        <ele>366.83</ele>
        <time>2021-03-20T14:57:26Z</time>
      </trkpt>
      <trkpt lat="53.18566" lon="-6.29212">
        <ele>367.14</ele>
        <time>2021-03-20T14:57:28Z</time>
      </trkpt>
      <trkpt lat="53.18562" lon="-6.29169">
        <ele>367.34</ele>
        <time>2021-03-20T14:57:30Z</time>
      </trkpt>
      <trkpt lat="53.18559" lon="-6.2907">
        <ele>367.74</ele>
        <time>2021-03-20T14:57:32Z</time>
      </trkpt>
      <trkpt lat="53.18555" lon="-6.29046">
        <ele>368.11</ele>
        <time>2021-03-20T14:57:34Z</time>
      </trkpt>
      <trkpt lat="53.18548" lon="-6.29027">
        <ele>368.82</ele>
        <time>2021-03-20T14:57:37Z</time>
      </trkpt>
      <trkpt lat="53.18538" lon="-6.29016">
        <ele>369.58</ele>
        <time>2021-03-20T14:57:39Z</time>
      </trkpt>
      <trkpt lat="53.18525" lon="-6.29009">
        <ele>370.44</ele>
        <time>2021-03-20T14:57:41Z</time>
      </trkpt>
      <trkpt lat="53.18509" lon="-6.29005">
        <ele>370.98</ele>
        <time>2021-03-20T14:57:43Z</time>
      </trkpt>
      <trkpt lat="53.18493" lon="-6.29003">
        <ele>371.27</ele>
        <time>2021-03-20T14:57:45Z</time>
      </trkpt>
      <trkpt lat="53.18478" lon="-6.29006">
        <ele>371.56</ele>
        <time>2021-03-20T14:57:48Z</time>
      </trkpt>
      <trkpt lat="53.18452" lon="-6.2902">
        <ele>372.39</ele>
        <time>2021-03-20T14:57:50Z</time>
      </trkpt>
      <trkpt lat="53.18419" lon="-6.29043">
        <ele>376.47</ele>
        <time>2021-03-20T14:57:52Z</time>
      </trkpt>
      <trkpt lat="53.18354" lon="-6.29075">
        <ele>383.66</ele>
        <time>2021-03-20T14:57:54Z</time>
      </trkpt>
      <trkpt lat="53.1833" lon="-6.29091">
        <ele>386.79</ele>
        <time>2021-03-20T14:57:56Z</time>
      </trkpt>
      <trkpt lat="53.18295" lon="-6.2912">
        <ele>390.04</ele>
        <time>2021-03-20T14:57:58Z</time>
      </trkpt>
      <trkpt lat="53.18281" lon="-6.29124">
        <ele>390.83</ele>
        <time>2021-03-20T14:58:01Z</time>
      </trkpt>
      <trkpt lat="53.18266" lon="-6.29121">
        <ele>391.14</ele>
        <time>2021-03-20T14:58:03Z</time>
      </trkpt>
      <trkpt lat="53.18256" lon="-6.29113">
        <ele>390.93</ele>
        <time>2021-03-20T14:58:05Z</time>
      </trkpt>
      <trkpt lat="53.18205" lon="-6.29052">
        <ele>392.49</ele>
        <time>2021-03-20T14:58:07Z</time>
      </trkpt>
      <trkpt lat="53.18179" lon="-6.29029">
        <ele>393.15</ele>
        <time>2021-03-20T14:58:09Z</time>
      </trkpt>
      <trkpt lat="53.18161" lon="-6.29019">
        <ele>394.28</ele>
        <time>2021-03-20T14:58:12Z</time>
      </trkpt>
      <trkpt lat="53.18098" lon="-6.29007">
        <ele>401.24</ele>
        <time>2021-03-20T14:58:14Z</time>
      </trkpt>
      <trkpt lat="53.18078" lon="-6.29006">
        <ele>402.6</ele>
        <time>2021-03-20T14:58:16Z</time>
      </trkpt>
      <trkpt lat="53.18068" lon="-6.29009">
        <ele>403.43</ele>
        <time>2021-03-20T14:58:18Z</time>
      </trkpt>
      <trkpt lat="53.17999" lon="-6.29051">
        <ele>410.14</ele>
        <time>2021-03-20T14:58:20Z</time>
      </trkpt>
      <trkpt lat="53.17984" lon="-6.29053">
        <ele>412.34</ele>
        <time>2021-03-20T14:58:23Z</time>
      </trkpt>
      <trkpt lat="53.17954" lon="-6.29049">
        <ele>416.22</ele>
        <time>2021-03-20T14:58:25Z</time>
      </trkpt>
      <trkpt lat="53.17897" lon="-6.29074">
        <ele>422.1</ele>
        <time>2021-03-20T14:58:27Z</time>
      </trkpt>
      <trkpt lat="53.17878" lon="-6.29088">
        <ele>424.21</ele>
        <time>2021-03-20T14:58:29Z</time>
      </trkpt>
      <trkpt lat="53.1784" lon="-6.29135">
        <ele>428.49</ele>
        <time>2021-03-20T14:58:31Z</time>
      </trkpt>
      <trkpt lat="53.17825" lon="-6.29146">
        <ele>429.54</ele>
        <time>2021-03-20T14:58:33Z</time>
      </trkpt>
      <trkpt lat="53.17814" lon="-6.29149">
        <ele>430.13</ele>
        <time>2021-03-20T14:58:36Z</time>
      </trkpt>
      <trkpt lat="53.17799" lon="-6.29142">
        <ele>431.16</ele>
        <time>2021-03-20T14:58:38Z</time>
      </trkpt>
      <trkpt lat="53.1777" lon="-6.29108">
        <ele>434.1</ele>
        <time>2021-03-20T14:58:40Z</time>
      </trkpt>
      <trkpt lat="53.17757" lon="-6.29096">
        <ele>435.89</ele>
        <time>2021-03-20T14:58:42Z</time>
      </trkpt>
      <trkpt lat="53.17735" lon="-6.29083">
        <ele>438.64</ele>
        <time>2021-03-20T14:58:44Z</time>
      </trkpt>
      <trkpt lat="53.17721" lon="-6.29081">
        <ele>440.25</ele>
        <time>2021-03-20T14:58:47Z</time>
      </trkpt>
      <trkpt lat="53.17665" lon="-6.29085">
        <ele>446.92</ele>
        <time>2021-03-20T14:58:49Z</time>
      </trkpt>
      <trkpt lat="53.17614" lon="-6.29078">
        <ele>451.96</ele>
        <time>2021-03-20T14:58:51Z</time>
      </trkpt>
      <trkpt lat="53.17591" lon="-6.29081">
        <ele>455.16</ele>
        <time>2021-03-20T14:58:53Z</time>
      </trkpt>
      <trkpt lat="53.17575" lon="-6.2909">
        <ele>456.48</ele>
        <time>2021-03-20T14:58:55Z</time>
      </trkpt>
      <trkpt lat="53.17545" lon="-6.29113">
        <ele>459.5</ele>
        <time>2021-03-20T14:58:58Z</time>
      </trkpt>
      <trkpt lat="53.17504" lon="-6.29149">
        <ele>463.9</ele>
        <time>2021-03-20T14:59:00Z</time>
      </trkpt>
      <trkpt lat="53.17491" lon="-6.29163">
        <ele>465.94</ele>
        <time>2021-03-20T14:59:02Z</time>
      </trkpt>
      <trkpt lat="53.17465" lon="-6.29211">
        <ele>466.42</ele>
        <time>2021-03-20T14:59:04Z</time>
      </trkpt>
      <trkpt lat="53.17456" lon="-6.29219">
        <ele>467.71</ele>
        <time>2021-03-20T14:59:06Z</time>
      </trkpt>
      <trkpt lat="53.17444" lon="-6.29225">
        <ele>470.69</ele>
        <time>2021-03-20T14:59:09Z</time>
      </trkpt>
      <trkpt lat="53.1743" lon="-6.29226">
        <ele>473.17</ele>
        <time>2021-03-20T14:59:11Z</time>
      </trkpt>
      <trkpt lat="53.17409" lon="-6.2922">
        <ele>477.05</ele>
        <time>2021-03-20T14:59:13Z</time>
      </trkpt>
      <trkpt lat="53.17401" lon="-6.29212">
        <ele>478.56</ele>
        <time>2021-03-20T14:59:15Z</time>
      </trkpt>
      <trkpt lat="53.17392" lon="-6.29201">
        <ele>479.66</ele>
        <time>2021-03-20T14:59:17Z</time>
      </trkpt>
      <trkpt lat="53.17373" lon="-6.29169">
        <ele>481.4</ele>
        <time>2021-03-20T14:59:19Z</time>
      </trkpt>
      <trkpt lat="53.17343" lon="-6.29132">
        <ele>483.62</ele>
        <time>2021-03-20T14:59:22Z</time>
      </trkpt>
      <trkpt lat="53.17339" lon="-6.29125">
        <ele>484.14</ele>
        <time>2021-03-20T14:59:24Z</time>
      </trkpt>
      <trkpt lat="53.17332" lon="-6.29101">
        <ele>485.43</ele>
        <time>2021-03-20T14:59:26Z</time>
      </trkpt>
      <trkpt lat="53.17322" lon="-6.29059">
        <ele>487.82</ele>
        <time>2021-03-20T14:59:28Z</time>
      </trkpt>
      <trkpt lat="53.17311" lon="-6.29044">
        <ele>488.83</ele>
        <time>2021-03-20T14:59:30Z</time>
      </trkpt>
      <trkpt lat="53.17298" lon="-6.29035">
        <ele>490.01</ele>
        <time>2021-03-20T14:59:33Z</time>
      </trkpt>
      <trkpt lat="53.17259" lon="-6.29029">
        <ele>493.95</ele>
        <time>2021-03-20T14:59:35Z</time>
      </trkpt>
      <trkpt lat="53.17249" lon="-6.29024">
        <ele>495.13</ele>
        <time>2021-03-20T14:59:37Z</time>
      </trkpt>
      <trkpt lat="53.1723" lon="-6.29009">
        <ele>495.69</ele>
        <time>2021-03-20T14:59:39Z</time>
      </trkpt>
      <trkpt lat="53.17213" lon="-6.28988">
        <ele>496.44</ele>
        <time>2021-03-20T14:59:41Z</time>
      </trkpt>
      <trkpt lat="53.17201" lon="-6.28976">
        <ele>496.87</ele>
        <time>2021-03-20T14:59:44Z</time>
      </trkpt>
      <trkpt lat="53.17157" lon="-6.28949">
        <ele>498.4</ele>
        <time>2021-03-20T14:59:46Z</time>
      </trkpt>
      <trkpt lat="53.17132" lon="-6.28941">
        <ele>499.6</ele>
        <time>2021-03-20T14:59:48Z</time>
      </trkpt>
      <trkpt lat="53.17123" lon="-6.28942">
        <ele>500.25</ele>
        <time>2021-03-20T14:59:50Z</time>
      </trkpt>
      <trkpt lat="53.17108" lon="-6.28947">
        <ele>501.35</ele>
        <time>2021-03-20T14:59:52Z</time>
      </trkpt>
      <trkpt lat="53.17078" lon="-6.28971">
        <ele>503.87</ele>
        <time>2021-03-20T14:59:55Z</time>
      </trkpt>
      <trkpt lat="53.17046" lon="-6.29006">
        <ele>506.49</ele>
        <time>2021-03-20T14:59:57Z</time>
      </trkpt>
      <trkpt lat="53.16886" lon="-6.29217">
        <ele>514.18</ele>
        <time>2021-03-20T14:59:59Z</time>
      </trkpt>
      <trkpt lat="53.16866" lon="-6.29239">
        <ele>515.63</ele>
        <time>2021-03-20T15:00:01Z</time>
      </trkpt>
      <trkpt lat="53.16843" lon="-6.29253">
        <ele>516.66</ele>
        <time>2021-03-20T15:00:03Z</time>
      </trkpt>
      <trkpt lat="53.1683" lon="-6.29259">
        <ele>517.12</ele>
        <time>2021-03-20T15:00:05Z</time>
      </trkpt>
      <trkpt lat="53.16687" lon="-6.293">
        <ele>520.42</ele>
        <time>2021-03-20T15:00:08Z</time>
      </trkpt>
      <trkpt lat="53.16666" lon="-6.29311">
        <ele>521</ele>
        <time>2021-03-20T15:00:10Z</time>
      </trkpt>
      <trkpt lat="53.16641" lon="-6.29331">
        <ele>521</ele>
        <time>2021-03-20T15:00:12Z</time>
      </trkpt>
      <trkpt lat="53.16634" lon="-6.2934">
        <ele>521.14</ele>
        <time>2021-03-20T15:00:14Z</time>
      </trkpt>
      <trkpt lat="53.16606" lon="-6.29397">
        <ele>520.18</ele>
        <time>2021-03-20T15:00:16Z</time>
      </trkpt>
      <trkpt lat="53.16599" lon="-6.29417">
        <ele>520.44</ele>
        <time>2021-03-20T15:00:19Z</time>
      </trkpt>
      <trkpt lat="53.16585" lon="-6.29445">
        <ele>520.94</ele>
        <time>2021-03-20T15:00:21Z</time>
      </trkpt>
      <trkpt lat="53.16574" lon="-6.29459">
        <ele>521.52</ele>
        <time>2021-03-20T15:00:23Z</time>
      </trkpt>
      <trkpt lat="53.16563" lon="-6.29466">
        <ele>521.9</ele>
        <time>2021-03-20T15:00:25Z</time>
      </trkpt>
      <trkpt lat="53.16513" lon="-6.29476">
        <ele>522.33</ele>
        <time>2021-03-20T15:00:27Z</time>
      </trkpt>
      <trkpt lat="53.16415" lon="-6.2949">
        <ele>524.02</ele>
        <time>2021-03-20T15:00:30Z</time>
      </trkpt>
      <trkpt lat="53.16395" lon="-6.295">
        <ele>523.99</ele>
        <time>2021-03-20T15:00:32Z</time>
      </trkpt>
      <trkpt lat="53.16387" lon="-6.29509">
        <ele>523.6</ele>
        <time>2021-03-20T15:00:34Z</time>
      </trkpt>
      <trkpt lat="53.16372" lon="-6.29535">
        <ele>522.28</ele>
        <time>2021-03-20T15:00:36Z</time>
      </trkpt>
      <trkpt lat="53.16358" lon="-6.29567">
        <ele>521.58</ele>
        <time>2021-03-20T15:00:38Z</time>
      </trkpt>
      <trkpt lat="53.16227" lon="-6.29934">
        <ele>515.5</ele>
        <time>2021-03-20T15:00:41Z</time>
      </trkpt>
      <trkpt lat="53.16058" lon="-6.30398">
        <ele>520.97</ele>
        <time>2021-03-20T15:00:43Z</time>
      </trkpt>
      <trkpt lat="53.16048" lon="-6.30438">
        <ele>521</ele>
        <time>2021-03-20T15:00:45Z</time>
      </trkpt>
      <trkpt lat="53.16044" lon="-6.30518">
        <ele>521.56</ele>
        <time>2021-03-20T15:00:47Z</time>
      </trkpt>
      <trkpt lat="53.16054" lon="-6.30798">
        <ele>522.31</ele>
        <time>2021-03-20T15:00:49Z</time>
      </trkpt>
      <trkpt lat="53.16052" lon="-6.30827">
        <ele>522.12</ele>
        <time>2021-03-20T15:00:51Z</time>
      </trkpt>
      <trkpt lat="53.16049" lon="-6.30848">
        <ele>521.73</ele>
        <time>2021-03-20T15:00:54Z</time>
      </trkpt>
      <trkpt lat="53.16017" lon="-6.30952">
        <ele>520.12</ele>
        <time>2021-03-20T15:00:56Z</time>
      </trkpt>
      <trkpt lat="53.15997" lon="-6.31006">
        <ele>519</ele>
        <time>2021-03-20T15:00:58Z</time>
      </trkpt>
      <trkpt lat="53.15965" lon="-6.31065">
        <ele>518.93</ele>
        <time>2021-03-20T15:01:00Z</time>
      </trkpt>
      <trkpt lat="53.15948" lon="-6.3109">
        <ele>518.68</ele>
        <time>2021-03-20T15:01:02Z</time>
      </trkpt>
      <trkpt lat="53.15892" lon="-6.31126">
        <ele>516.58</ele>
        <time>2021-03-20T15:01:05Z</time>
      </trkpt>
      <trkpt lat="53.15863" lon="-6.31138">
        <ele>516.04</ele>
        <time>2021-03-20T15:01:07Z</time>
      </trkpt>
      <trkpt lat="53.15842" lon="-6.31138">
        <ele>516.04</ele>
        <time>2021-03-20T15:01:09Z</time>
      </trkpt>
      <trkpt lat="53.15806" lon="-6.31127">
        <ele>515.91</ele>
        <time>2021-03-20T15:01:11Z</time>
      </trkpt>
      <trkpt lat="53.15748" lon="-6.31084">
        <ele>514.91</ele>
        <time>2021-03-20T15:01:13Z</time>
      </trkpt>
      <trkpt lat="53.15734" lon="-6.31076">
        <ele>514.98</ele>
        <time>2021-03-20T15:01:16Z</time>
      </trkpt>
      <trkpt lat="53.15717" lon="-6.3107">
        <ele>514.74</ele>
        <time>2021-03-20T15:01:18Z</time>
      </trkpt>
      <trkpt lat="53.15698" lon="-6.31074">
        <ele>513.8</ele>
        <time>2021-03-20T15:01:20Z</time>
      </trkpt>
      <trkpt lat="53.15676" lon="-6.31084">
        <ele>512.32</ele>
        <time>2021-03-20T15:01:22Z</time>
      </trkpt>
      <trkpt lat="53.15655" lon="-6.31086">
        <ele>511.08</ele>
        <time>2021-03-20T15:01:24Z</time>
      </trkpt>
      <trkpt lat="53.15598" lon="-6.31083">
        <ele>509.51</ele>
        <time>2021-03-20T15:01:27Z</time>
      </trkpt>
      <trkpt lat="53.15574" lon="-6.31078">
        <ele>510.4</ele>
        <time>2021-03-20T15:01:29Z</time>
      </trkpt>
      <trkpt lat="53.15529" lon="-6.31063">
        <ele>509.52</ele>
        <time>2021-03-20T15:01:31Z</time>
      </trkpt>
      <trkpt lat="53.15517" lon="-6.31062">
        <ele>508.78</ele>
        <time>2021-03-20T15:01:33Z</time>
      </trkpt>
      <trkpt lat="53.15465" lon="-6.31062">
        <ele>508.75</ele>
        <time>2021-03-20T15:01:35Z</time>
      </trkpt>
      <trkpt lat="53.15416" lon="-6.31068">
        <ele>507.6</ele>
        <time>2021-03-20T15:01:37Z</time>
      </trkpt>
      <trkpt lat="53.15371" lon="-6.31069">
        <ele>504.04</ele>
        <time>2021-03-20T15:01:40Z</time>
      </trkpt>
      <trkpt lat="53.15348" lon="-6.31064">
        <ele>504.08</ele>
        <time>2021-03-20T15:01:42Z</time>
      </trkpt>
      <trkpt lat="53.15322" lon="-6.31064">
        <ele>503.83</ele>
        <time>2021-03-20T15:01:44Z</time>
      </trkpt>
      <trkpt lat="53.15293" lon="-6.31057">
        <ele>504.36</ele>
        <time>2021-03-20T15:01:46Z</time>
      </trkpt>
      <trkpt lat="53.15254" lon="-6.31041">
        <ele>505.69</ele>
        <time>2021-03-20T15:01:48Z</time>
      </trkpt>
      <trkpt lat="53.15239" lon="-6.31037">
        <ele>506.05</ele>
        <time>2021-03-20T15:01:51Z</time>
      </trkpt>
      <trkpt lat="53.15229" lon="-6.31038">
        <ele>505.92</ele>
        <time>2021-03-20T15:01:53Z</time>
      </trkpt>
      <trkpt lat="53.15197" lon="-6.31051">
        <ele>504.51</ele>
        <time>2021-03-20T15:01:55Z</time>
      </trkpt>
      <trkpt lat="53.15178" lon="-6.31062">
        <ele>504.11</ele>
        <time>2021-03-20T15:01:57Z</time>
      </trkpt>
      <trkpt lat="53.15129" lon="-6.31098">
        <ele>504.09</ele>
        <time>2021-03-20T15:01:59Z</time>
      </trkpt>
      <trkpt lat="53.15118" lon="-6.31103">
        <ele>503.85</ele>
        <time>2021-03-20T15:02:02Z</time>
      </trkpt>
      <trkpt lat="53.1508" lon="-6.31109">
        <ele>503.23</ele>
        <time>2021-03-20T15:02:04Z</time>
      </trkpt>
      <trkpt lat="53.15022" lon="-6.31107">
        <ele>503.27</ele>
        <time>2021-03-20T15:02:06Z</time>
      </trkpt>
      <trkpt lat="53.14998" lon="-6.31109">
        <ele>502.2</ele>
        <time>2021-03-20T15:02:08Z</time>
      </trkpt>
      <trkpt lat="53.14933" lon="-6.31125">
        <ele>499.94</ele>
        <time>2021-03-20T15:02:10Z</time>
      </trkpt>
      <trkpt lat="53.14921" lon="-6.3113">
        <ele>499.83</ele>
        <time>2021-03-20T15:02:12Z</time>
      </trkpt>
      <trkpt lat="53.14901" lon="-6.31145">
        <ele>499.48</ele>
        <time>2021-03-20T15:02:15Z</time>
      </trkpt>
      <trkpt lat="53.14874" lon="-6.31179">
        <ele>497.72</ele>
        <time>2021-03-20T15:02:17Z</time>
      </trkpt>
      <trkpt lat="53.1485" lon="-6.31201">
        <ele>496.32</ele>
        <time>2021-03-20T15:02:19Z</time>
      </trkpt>
      <trkpt lat="53.14802" lon="-6.31232">
        <ele>494.5</ele>
        <time>2021-03-20T15:02:21Z</time>
      </trkpt>
      <trkpt lat="53.14756" lon="-6.31267">
        <ele>495.43</ele>
        <time>2021-03-20T15:02:23Z</time>
      </trkpt>
      <trkpt lat="53.1474" lon="-6.31273">
        <ele>495.5</ele>
        <time>2021-03-20T15:02:26Z</time>
      </trkpt>
      <trkpt lat="53.14677" lon="-6.31287">
        <ele>495.6</ele>
        <time>2021-03-20T15:02:28Z</time>
      </trkpt>
      <trkpt lat="53.14636" lon="-6.31272">
        <ele>495.55</ele>
        <time>2021-03-20T15:02:30Z</time>
      </trkpt>
      <trkpt lat="53.14624" lon="-6.3127">
        <ele>495.41</ele>
        <time>2021-03-20T15:02:32Z</time>
      </trkpt>
      <trkpt lat="53.14578" lon="-6.31278">
        <ele>494.17</ele>
        <time>2021-03-20T15:02:34Z</time>
      </trkpt>
      <trkpt lat="53.14459" lon="-6.31282">
        <ele>494.37</ele>
        <time>2021-03-20T15:02:37Z</time>
      </trkpt>
      <trkpt lat="53.14373" lon="-6.31302">
        <ele>492.39</ele>
        <time>2021-03-20T15:02:39Z</time>
      </trkpt>
      <trkpt lat="53.1433" lon="-6.31321">
        <ele>490.56</ele>
        <time>2021-03-20T15:02:41Z</time>
      </trkpt>
      <trkpt lat="53.14238" lon="-6.31336">
        <ele>490.68</ele>
        <time>2021-03-20T15:02:43Z</time>
      </trkpt>
      <trkpt lat="53.14179" lon="-6.31349">
        <ele>490.58</ele>
        <time>2021-03-20T15:02:45Z</time>
      </trkpt>
      <trkpt lat="53.14163" lon="-6.31348">
        <ele>490.89</ele>
        <time>2021-03-20T15:02:48Z</time>
      </trkpt>
      <trkpt lat="53.14141" lon="-6.31342">
        <ele>492.03</ele>
        <time>2021-03-20T15:02:50Z</time>
      </trkpt>
      <trkpt lat="53.14041" lon="-6.31294">
        <ele>492.85</ele>
        <time>2021-03-20T15:02:52Z</time>
      </trkpt>
      <trkpt lat="53.14032" lon="-6.31292">
        <ele>493</ele>
        <time>2021-03-20T15:02:54Z</time>
      </trkpt>
      <trkpt lat="53.13997" lon="-6.31294">
        <ele>493.43</ele>
        <time>2021-03-20T15:02:56Z</time>
      </trkpt>
      <trkpt lat="53.13986" lon="-6.31291">
        <ele>493.53</ele>
        <time>2021-03-20T15:02:58Z</time>
      </trkpt>
      <trkpt lat="53.13809" lon="-6.31207">
        <ele>494</ele>
        <time>2021-03-20T15:03:01Z</time>
      </trkpt>
      <trkpt lat="53.13787" lon="-6.31198">
        <ele>494.67</ele>
        <time>2021-03-20T15:03:03Z</time>
      </trkpt>
      <trkpt lat="53.13774" lon="-6.31197">
        <ele>495.32</ele>
        <time>2021-03-20T15:03:05Z</time>
      </trkpt>
      <trkpt lat="53.13743" lon="-6.31205">
        <ele>497.65</ele>
        <time>2021-03-20T15:03:07Z</time>
      </trkpt>
      <trkpt lat="53.13737" lon="-6.31204">
        <ele>497.82</ele>
        <time>2021-03-20T15:03:09Z</time>
      </trkpt>
      <trkpt lat="53.13728" lon="-6.31196">
        <ele>497.86</ele>
        <time>2021-03-20T15:03:12Z</time>
      </trkpt>
      <trkpt lat="53.13699" lon="-6.31157">
        <ele>497.86</ele>
        <time>2021-03-20T15:03:14Z</time>
      </trkpt>
      <trkpt lat="53.13669" lon="-6.31124">
        <ele>498.7</ele>
        <time>2021-03-20T15:03:16Z</time>
      </trkpt>
      <trkpt lat="53.13655" lon="-6.31106">
        <ele>498.46</ele>
        <time>2021-03-20T15:03:18Z</time>
      </trkpt>
      <trkpt lat="53.13629" lon="-6.31059">
        <ele>497.03</ele>
        <time>2021-03-20T15:03:20Z</time>
      </trkpt>
      <trkpt lat="53.13615" lon="-6.31044">
        <ele>496.57</ele>
        <time>2021-03-20T15:03:23Z</time>
      </trkpt>
      <trkpt lat="53.13586" lon="-6.31034">
        <ele>497.51</ele>
        <time>2021-03-20T15:03:25Z</time>
      </trkpt>
      <trkpt lat="53.13565" lon="-6.31021">
        <ele>497.08</ele>
        <time>2021-03-20T15:03:27Z</time>
      </trkpt>
      <trkpt lat="53.13542" lon="-6.30989">
        <ele>496.07</ele>
        <time>2021-03-20T15:03:29Z</time>
      </trkpt>
      <trkpt lat="53.13535" lon="-6.30982">
        <ele>496.09</ele>
        <time>2021-03-20T15:03:31Z</time>
      </trkpt>
      <trkpt lat="53.13527" lon="-6.30979">
        <ele>496.27</ele>
        <time>2021-03-20T15:03:34Z</time>
      </trkpt>
      <trkpt lat="53.13498" lon="-6.3098">
        <ele>497.38</ele>
        <time>2021-03-20T15:03:36Z</time>
      </trkpt>
      <trkpt lat="53.13488" lon="-6.30978">
        <ele>497.73</ele>
        <time>2021-03-20T15:03:38Z</time>
      </trkpt>
      <trkpt lat="53.1347" lon="-6.30962">
        <ele>496.89</ele>
        <time>2021-03-20T15:03:40Z</time>
      </trkpt>
      <trkpt lat="53.1345" lon="-6.30936">
        <ele>494.68</ele>
        <time>2021-03-20T15:03:42Z</time>
      </trkpt>
      <trkpt lat="53.13433" lon="-6.30922">
        <ele>494.62</ele>
        <time>2021-03-20T15:03:44Z</time>
      </trkpt>
      <trkpt lat="53.13373" lon="-6.30909">
        <ele>496.86</ele>
        <time>2021-03-20T15:03:47Z</time>
      </trkpt>
      <trkpt lat="53.13354" lon="-6.30898">
        <ele>496.23</ele>
        <time>2021-03-20T15:03:49Z</time>
      </trkpt>
      <trkpt lat="53.13332" lon="-6.30872">
        <ele>494.98</ele>
        <time>2021-03-20T15:03:51Z</time>
      </trkpt>
      <trkpt lat="53.13297" lon="-6.30822">
        <ele>494.18</ele>
        <time>2021-03-20T15:03:53Z</time>
      </trkpt>
      <trkpt lat="53.13267" lon="-6.30756">
        <ele>492.21</ele>
        <time>2021-03-20T15:03:55Z</time>
      </trkpt>
      <trkpt lat="53.13247" lon="-6.30727">
        <ele>491.54</ele>
        <time>2021-03-20T15:03:58Z</time>
      </trkpt>
      <trkpt lat="53.13233" lon="-6.30712">
        <ele>491.07</ele>
        <time>2021-03-20T15:04:00Z</time>
      </trkpt>
      <trkpt lat="53.13208" lon="-6.30698">
        <ele>489.4</ele>
        <time>2021-03-20T15:04:02Z</time>
      </trkpt>
      <trkpt lat="53.1319" lon="-6.30693">
        <ele>488.75</ele>
        <time>2021-03-20T15:04:04Z</time>
      </trkpt>
      <trkpt lat="53.13182" lon="-6.30694">
        <ele>488.89</ele>
        <time>2021-03-20T15:04:06Z</time>
      </trkpt>
      <trkpt lat="53.13173" lon="-6.30699">
        <ele>489.44</ele>
        <time>2021-03-20T15:04:09Z</time>
      </trkpt>
      <trkpt lat="53.13156" lon="-6.30719">
        <ele>490.92</ele>
        <time>2021-03-20T15:04:11Z</time>
      </trkpt>
      <trkpt lat="53.13131" lon="-6.30758">
        <ele>493.32</ele>
        <time>2021-03-20T15:04:13Z</time>
      </trkpt>
      <trkpt lat="53.13117" lon="-6.30776">
        <ele>494.11</ele>
        <time>2021-03-20T15:04:15Z</time>
      </trkpt>
      <trkpt lat="53.131" lon="-6.3079">
        <ele>495.14</ele>
        <time>2021-03-20T15:04:17Z</time>
      </trkpt>
      <trkpt lat="53.13074" lon="-6.30802">
        <ele>496.11</ele>
        <time>2021-03-20T15:04:20Z</time>
      </trkpt>
      <trkpt lat="53.13041" lon="-6.30813">
        <ele>495.42</ele>
        <time>2021-03-20T15:04:22Z</time>
      </trkpt>
      <trkpt lat="53.13006" lon="-6.30842">
        <ele>496.92</ele>
        <time>2021-03-20T15:04:24Z</time>
      </trkpt>
      <trkpt lat="53.12971" lon="-6.30854">
        <ele>498.92</ele>
        <time>2021-03-20T15:04:26Z</time>
      </trkpt>
      <trkpt lat="53.12963" lon="-6.30854">
        <ele>499.69</ele>
        <time>2021-03-20T15:04:28Z</time>
      </trkpt>
      <trkpt lat="53.12952" lon="-6.30847">
        <ele>499.66</ele>
        <time>2021-03-20T15:04:30Z</time>
      </trkpt>
      <trkpt lat="53.12944" lon="-6.30833">
        <ele>498.07</ele>
        <time>2021-03-20T15:04:33Z</time>
      </trkpt>
      <trkpt lat="53.12932" lon="-6.30799">
        <ele>496.61</ele>
        <time>2021-03-20T15:04:35Z</time>
      </trkpt>
      <trkpt lat="53.12931" lon="-6.30786">
        <ele>495.25</ele>
        <time>2021-03-20T15:04:37Z</time>
      </trkpt>
      <trkpt lat="53.12934" lon="-6.30772">
        <ele>494.1</ele>
        <time>2021-03-20T15:04:39Z</time>
      </trkpt>
      <trkpt lat="53.12943" lon="-6.3075">
        <ele>493.17</ele>
        <time>2021-03-20T15:04:41Z</time>
      </trkpt>
      <trkpt lat="53.12946" lon="-6.30738">
        <ele>492.84</ele>
        <time>2021-03-20T15:04:44Z</time>
      </trkpt>
      <trkpt lat="53.12944" lon="-6.30712">
        <ele>493.05</ele>
        <time>2021-03-20T15:04:46Z</time>
      </trkpt>
      <trkpt lat="53.12934" lon="-6.30688">
        <ele>493.67</ele>
        <time>2021-03-20T15:04:48Z</time>
      </trkpt>
      <trkpt lat="53.12903" lon="-6.3066">
        <ele>494.02</ele>
        <time>2021-03-20T15:04:50Z</time>
      </trkpt>
      <trkpt lat="53.1289" lon="-6.30631">
        <ele>492.42</ele>
        <time>2021-03-20T15:04:52Z</time>
      </trkpt>
      <trkpt lat="53.12876" lon="-6.30609">
        <ele>490.87</ele>
        <time>2021-03-20T15:04:55Z</time>
      </trkpt>
      <trkpt lat="53.1282" lon="-6.30561">
        <ele>490.62</ele>
        <time>2021-03-20T15:04:57Z</time>
      </trkpt>
      <trkpt lat="53.12765" lon="-6.3051">
        <ele>490.87</ele>
        <time>2021-03-20T15:04:59Z</time>
      </trkpt>
      <trkpt lat="53.12744" lon="-6.3048">
        <ele>490.56</ele>
        <time>2021-03-20T15:05:01Z</time>
      </trkpt>
      <trkpt lat="53.12721" lon="-6.30437">
        <ele>487.78</ele>
        <time>2021-03-20T15:05:03Z</time>
      </trkpt>
      <trkpt lat="53.12714" lon="-6.30429">
        <ele>487.57</ele>
        <time>2021-03-20T15:05:06Z</time>
      </trkpt>
      <trkpt lat="53.12704" lon="-6.30422">
        <ele>487.3</ele>
        <time>2021-03-20T15:05:08Z</time>
      </trkpt>
      <trkpt lat="53.1268" lon="-6.30417">
        <ele>488.05</ele>
        <time>2021-03-20T15:05:10Z</time>
      </trkpt>
      <trkpt lat="53.12664" lon="-6.30418">
        <ele>489.05</ele>
        <time>2021-03-20T15:05:12Z</time>
      </trkpt>
      <trkpt lat="53.12638" lon="-6.30426">
        <ele>489.26</ele>
        <time>2021-03-20T15:05:14Z</time>
      </trkpt>
      <trkpt lat="53.12571" lon="-6.30467">
        <ele>490.92</ele>
        <time>2021-03-20T15:05:16Z</time>
      </trkpt>
      <trkpt lat="53.12539" lon="-6.30476">
        <ele>492.41</ele>
        <time>2021-03-20T15:05:19Z</time>
      </trkpt>
      <trkpt lat="53.12518" lon="-6.30472">
        <ele>492.29</ele>
        <time>2021-03-20T15:05:21Z</time>
      </trkpt>
      <trkpt lat="53.12413" lon="-6.30417">
        <ele>493.2</ele>
        <time>2021-03-20T15:05:23Z</time>
      </trkpt>
      <trkpt lat="53.12363" lon="-6.30408">
        <ele>495.56</ele>
        <time>2021-03-20T15:05:25Z</time>
      </trkpt>
      <trkpt lat="53.12346" lon="-6.30402">
        <ele>496.28</ele>
        <time>2021-03-20T15:05:27Z</time>
      </trkpt>
      <trkpt lat="53.12307" lon="-6.30382">
        <ele>495.04</ele>
        <time>2021-03-20T15:05:30Z</time>
      </trkpt>
      <trkpt lat="53.12262" lon="-6.30354">
        <ele>494.3</ele>
        <time>2021-03-20T15:05:32Z</time>
      </trkpt>
      <trkpt lat="53.12197" lon="-6.30327">
        <ele>494.47</ele>
        <time>2021-03-20T15:05:34Z</time>
      </trkpt>
      <trkpt lat="53.12183" lon="-6.30318">
        <ele>494.92</ele>
        <time>2021-03-20T15:05:36Z</time>
      </trkpt>
      <trkpt lat="53.12167" lon="-6.303">
        <ele>494.46</ele>
        <time>2021-03-20T15:05:38Z</time>
      </trkpt>
      <trkpt lat="53.12136" lon="-6.30262">
        <ele>497.04</ele>
        <time>2021-03-20T15:05:41Z</time>
      </trkpt>
      <trkpt lat="53.12094" lon="-6.30216">
        <ele>495.8</ele>
        <time>2021-03-20T15:05:43Z</time>
      </trkpt>
      <trkpt lat="53.12046" lon="-6.30172">
        <ele>495.75</ele>
        <time>2021-03-20T15:05:45Z</time>
      </trkpt>
      <trkpt lat="53.1198" lon="-6.30123">
        <ele>495.59</ele>
        <time>2021-03-20T15:05:47Z</time>
      </trkpt>
      <trkpt lat="53.11911" lon="-6.3008">
        <ele>495.08</ele>
        <time>2021-03-20T15:05:49Z</time>
      </trkpt>
      <trkpt lat="53.11901" lon="-6.30076">
        <ele>495.29</ele>
        <time>2021-03-20T15:05:51Z</time>
      </trkpt>
      <trkpt lat="53.11872" lon="-6.30072">
        <ele>495.6</ele>
        <time>2021-03-20T15:05:54Z</time>
      </trkpt>
      <trkpt lat="53.11853" lon="-6.30075">
        <ele>495.11</ele>
        <time>2021-03-20T15:05:56Z</time>
      </trkpt>
      <trkpt lat="53.11843" lon="-6.30079">
        <ele>494.58</ele>
        <time>2021-03-20T15:05:58Z</time>
      </trkpt>
      <trkpt lat="53.11816" lon="-6.30098">
        <ele>493.58</ele>
        <time>2021-03-20T15:06:00Z</time>
      </trkpt>
      <trkpt lat="53.11767" lon="-6.3015">
        <ele>491.6</ele>
        <time>2021-03-20T15:06:02Z</time>
      </trkpt>
      <trkpt lat="53.11734" lon="-6.30173">
        <ele>490.72</ele>
        <time>2021-03-20T15:06:05Z</time>
      </trkpt>
      <trkpt lat="53.11723" lon="-6.30182">
        <ele>490.62</ele>
        <time>2021-03-20T15:06:07Z</time>
      </trkpt>
      <trkpt lat="53.11684" lon="-6.30231">
        <ele>487.71</ele>
        <time>2021-03-20T15:06:09Z</time>
      </trkpt>
      <trkpt lat="53.11669" lon="-6.30253">
        <ele>487.31</ele>
        <time>2021-03-20T15:06:11Z</time>
      </trkpt>
      <trkpt lat="53.11656" lon="-6.30277">
        <ele>486.79</ele>
        <time>2021-03-20T15:06:13Z</time>
      </trkpt>
      <trkpt lat="53.11646" lon="-6.30298">
        <ele>485.05</ele>
        <time>2021-03-20T15:06:16Z</time>
      </trkpt>
      <trkpt lat="53.11639" lon="-6.30321">
        <ele>484.01</ele>
        <time>2021-03-20T15:06:18Z</time>
      </trkpt>
      <trkpt lat="53.11636" lon="-6.30345">
        <ele>483.48</ele>
        <time>2021-03-20T15:06:20Z</time>
      </trkpt>
      <trkpt lat="53.11636" lon="-6.3037">
        <ele>482.88</ele>
        <time>2021-03-20T15:06:22Z</time>
      </trkpt>
      <trkpt lat="53.11639" lon="-6.30394">
        <ele>482.67</ele>
        <time>2021-03-20T15:06:24Z</time>
      </trkpt>
      <trkpt lat="53.11654" lon="-6.30465">
        <ele>480.83</ele>
        <time>2021-03-20T15:06:27Z</time>
      </trkpt>
      <trkpt lat="53.11672" lon="-6.30536">
        <ele>480.9</ele>
        <time>2021-03-20T15:06:29Z</time>
      </trkpt>
      <trkpt lat="53.11683" lon="-6.30615">
        <ele>478.01</ele>
        <time>2021-03-20T15:06:31Z</time>
      </trkpt>
      <trkpt lat="53.11702" lon="-6.30689">
        <ele>476.7</ele>
        <time>2021-03-20T15:06:33Z</time>
      </trkpt>
      <trkpt lat="53.11705" lon="-6.30715">
        <ele>476.02</ele>
        <time>2021-03-20T15:06:35Z</time>
      </trkpt>
      <trkpt lat="53.11709" lon="-6.30773">
        <ele>474.65</ele>
        <time>2021-03-20T15:06:37Z</time>
      </trkpt>
      <trkpt lat="53.11715" lon="-6.30809">
        <ele>473.05</ele>
        <time>2021-03-20T15:06:40Z</time>
      </trkpt>
      <trkpt lat="53.11729" lon="-6.3087">
        <ele>471.4</ele>
        <time>2021-03-20T15:06:42Z</time>
      </trkpt>
      <trkpt lat="53.11734" lon="-6.30884">
        <ele>471.4</ele>
        <time>2021-03-20T15:06:44Z</time>
      </trkpt>
      <trkpt lat="53.11747" lon="-6.3091">
        <ele>471.19</ele>
        <time>2021-03-20T15:06:46Z</time>
      </trkpt>
      <trkpt lat="53.11753" lon="-6.30925">
        <ele>470.82</ele>
        <time>2021-03-20T15:06:48Z</time>
      </trkpt>
      <trkpt lat="53.11756" lon="-6.30942">
        <ele>470.28</ele>
        <time>2021-03-20T15:06:51Z</time>
      </trkpt>
      <trkpt lat="53.11759" lon="-6.30991">
        <ele>470.63</ele>
        <time>2021-03-20T15:06:53Z</time>
      </trkpt>
      <trkpt lat="53.11758" lon="-6.31009">
        <ele>470.72</ele>
        <time>2021-03-20T15:06:55Z</time>
      </trkpt>
      <trkpt lat="53.11752" lon="-6.31033">
        <ele>470.52</ele>
        <time>2021-03-20T15:06:57Z</time>
      </trkpt>
      <trkpt lat="53.11734" lon="-6.31075">
        <ele>469.42</ele>
        <time>2021-03-20T15:06:59Z</time>
      </trkpt>
      <trkpt lat="53.11725" lon="-6.311">
        <ele>468.98</ele>
        <time>2021-03-20T15:07:02Z</time>
      </trkpt>
      <trkpt lat="53.11721" lon="-6.3112">
        <ele>469.44</ele>
        <time>2021-03-20T15:07:04Z</time>
      </trkpt>
      <trkpt lat="53.11712" lon="-6.31174">
        <ele>471.1</ele>
        <time>2021-03-20T15:07:06Z</time>
      </trkpt>
      <trkpt lat="53.11707" lon="-6.31188">
        <ele>471.11</ele>
        <time>2021-03-20T15:07:08Z</time>
      </trkpt>
      <trkpt lat="53.11701" lon="-6.31201">
        <ele>470.87</ele>
        <time>2021-03-20T15:07:10Z</time>
      </trkpt>
      <trkpt lat="53.11694" lon="-6.31211">
        <ele>470.5</ele>
        <time>2021-03-20T15:07:13Z</time>
      </trkpt>
      <trkpt lat="53.11661" lon="-6.31234">
        <ele>467.58</ele>
        <time>2021-03-20T15:07:15Z</time>
      </trkpt>
      <trkpt lat="53.11648" lon="-6.31247">
        <ele>466.14</ele>
        <time>2021-03-20T15:07:17Z</time>
      </trkpt>
      <trkpt lat="53.11634" lon="-6.31267">
        <ele>465.35</ele>
        <time>2021-03-20T15:07:19Z</time>
      </trkpt>
      <trkpt lat="53.1163" lon="-6.3128">
        <ele>465.4</ele>
        <time>2021-03-20T15:07:21Z</time>
      </trkpt>
      <trkpt lat="53.11617" lon="-6.31338">
        <ele>465.15</ele>
        <time>2021-03-20T15:07:23Z</time>
      </trkpt>
      <trkpt lat="53.11608" lon="-6.31362">
        <ele>465.8</ele>
        <time>2021-03-20T15:07:26Z</time>
      </trkpt>
      <trkpt lat="53.11575" lon="-6.31414">
        <ele>465.6</ele>
        <time>2021-03-20T15:07:28Z</time>
      </trkpt>
      <trkpt lat="53.11563" lon="-6.31437">
        <ele>465.27</ele>
        <time>2021-03-20T15:07:30Z</time>
      </trkpt>
      <trkpt lat="53.11558" lon="-6.3145">
        <ele>464.92</ele>
        <time>2021-03-20T15:07:32Z</time>
      </trkpt>
      <trkpt lat="53.11551" lon="-6.31479">
        <ele>463.66</ele>
        <time>2021-03-20T15:07:34Z</time>
      </trkpt>
      <trkpt lat="53.11547" lon="-6.3151">
        <ele>463.06</ele>
        <time>2021-03-20T15:07:37Z</time>
      </trkpt>
      <trkpt lat="53.11542" lon="-6.31589">
        <ele>463.58</ele>
        <time>2021-03-20T15:07:39Z</time>
      </trkpt>
      <trkpt lat="53.11542" lon="-6.31622">
        <ele>463.7</ele>
        <time>2021-03-20T15:07:41Z</time>
      </trkpt>
      <trkpt lat="53.11552" lon="-6.31741">
        <ele>462.66</ele>
        <time>2021-03-20T15:07:43Z</time>
      </trkpt>
      <trkpt lat="53.11555" lon="-6.31772">
        <ele>462.92</ele>
        <time>2021-03-20T15:07:45Z</time>
      </trkpt>
      <trkpt lat="53.1156" lon="-6.31805">
        <ele>462.61</ele>
        <time>2021-03-20T15:07:48Z</time>
      </trkpt>
      <trkpt lat="53.11584" lon="-6.31898">
        <ele>463.8</ele>
        <time>2021-03-20T15:07:50Z</time>
      </trkpt>
      <trkpt lat="53.11588" lon="-6.3194">
        <ele>463.69</ele>
        <time>2021-03-20T15:07:52Z</time>
      </trkpt>
      <trkpt lat="53.11581" lon="-6.31986">
        <ele>462.69</ele>
        <time>2021-03-20T15:07:54Z</time>
      </trkpt>
      <trkpt lat="53.11573" lon="-6.32012">
        <ele>461.64</ele>
        <time>2021-03-20T15:07:56Z</time>
      </trkpt>
      <trkpt lat="53.11567" lon="-6.32024">
        <ele>461.18</ele>
        <time>2021-03-20T15:07:59Z</time>
      </trkpt>
      <trkpt lat="53.11524" lon="-6.32063">
        <ele>456.02</ele>
        <time>2021-03-20T15:08:01Z</time>
      </trkpt>
      <trkpt lat="53.11517" lon="-6.32072">
        <ele>455.79</ele>
        <time>2021-03-20T15:08:03Z</time>
      </trkpt>
      <trkpt lat="53.11502" lon="-6.32095">
        <ele>455.14</ele>
        <time>2021-03-20T15:08:05Z</time>
      </trkpt>
      <trkpt lat="53.1149" lon="-6.32121">
        <ele>454.24</ele>
        <time>2021-03-20T15:08:07Z</time>
      </trkpt>
      <trkpt lat="53.11471" lon="-6.32174">
        <ele>453.05</ele>
        <time>2021-03-20T15:08:09Z</time>
      </trkpt>
      <trkpt lat="53.11458" lon="-6.32194">
        <ele>452.39</ele>
        <time>2021-03-20T15:08:12Z</time>
      </trkpt>
      <trkpt lat="53.11434" lon="-6.32218">
        <ele>451.58</ele>
        <time>2021-03-20T15:08:14Z</time>
      </trkpt>
      <trkpt lat="53.1142" lon="-6.32238">
        <ele>450.91</ele>
        <time>2021-03-20T15:08:16Z</time>
      </trkpt>
      <trkpt lat="53.11408" lon="-6.32273">
        <ele>450.57</ele>
        <time>2021-03-20T15:08:18Z</time>
      </trkpt>
      <trkpt lat="53.11406" lon="-6.32288">
        <ele>450.48</ele>
        <time>2021-03-20T15:08:20Z</time>
      </trkpt>
      <trkpt lat="53.11408" lon="-6.32302">
        <ele>450.74</ele>
        <time>2021-03-20T15:08:23Z</time>
      </trkpt>
      <trkpt lat="53.11412" lon="-6.32316">
        <ele>451.31</ele>
        <time>2021-03-20T15:08:25Z</time>
      </trkpt>
      <trkpt lat="53.11422" lon="-6.32341">
        <ele>451.91</ele>
        <time>2021-03-20T15:08:27Z</time>
      </trkpt>
      <trkpt lat="53.11429" lon="-6.32369">
        <ele>451.03</ele>
        <time>2021-03-20T15:08:29Z</time>
      </trkpt>
      <trkpt lat="53.11436" lon="-6.32451">
        <ele>448.75</ele>
        <time>2021-03-20T15:08:31Z</time>
      </trkpt>
      <trkpt lat="53.11439" lon="-6.32469">
        <ele>449.19</ele>
        <time>2021-03-20T15:08:34Z</time>
      </trkpt>
      <trkpt lat="53.11443" lon="-6.32482">
        <ele>449.83</ele>
        <time>2021-03-20T15:08:36Z</time>
      </trkpt>
      <trkpt lat="53.11461" lon="-6.32517">
        <ele>451.22</ele>
        <time>2021-03-20T15:08:38Z</time>
      </trkpt>
      <trkpt lat="53.11468" lon="-6.32539">
        <ele>451.67</ele>
        <time>2021-03-20T15:08:40Z</time>
      </trkpt>
      <trkpt lat="53.11469" lon="-6.32554">
        <ele>451.79</ele>
        <time>2021-03-20T15:08:42Z</time>
      </trkpt>
      <trkpt lat="53.11466" lon="-6.32585">
        <ele>452.57</ele>
        <time>2021-03-20T15:08:45Z</time>
      </trkpt>
      <trkpt lat="53.11445" lon="-6.32643">
        <ele>453.04</ele>
        <time>2021-03-20T15:08:47Z</time>
      </trkpt>
      <trkpt lat="53.11439" lon="-6.32653">
        <ele>452.37</ele>
        <time>2021-03-20T15:08:49Z</time>
      </trkpt>
      <trkpt lat="53.11391" lon="-6.32717">
        <ele>451.73</ele>
        <time>2021-03-20T15:08:51Z</time>
      </trkpt>
      <trkpt lat="53.11373" lon="-6.32735">
        <ele>451.55</ele>
        <time>2021-03-20T15:08:53Z</time>
      </trkpt>
      <trkpt lat="53.11358" lon="-6.32741">
        <ele>451.25</ele>
        <time>2021-03-20T15:08:55Z</time>
      </trkpt>
      <trkpt lat="53.11313" lon="-6.32751">
        <ele>450.3</ele>
        <time>2021-03-20T15:08:58Z</time>
      </trkpt>
      <trkpt lat="53.11278" lon="-6.32769">
        <ele>450.68</ele>
        <time>2021-03-20T15:09:00Z</time>
      </trkpt>
      <trkpt lat="53.11259" lon="-6.32775">
        <ele>451.53</ele>
        <time>2021-03-20T15:09:02Z</time>
      </trkpt>
      <trkpt lat="53.11229" lon="-6.32777">
        <ele>451.92</ele>
        <time>2021-03-20T15:09:04Z</time>
      </trkpt>
      <trkpt lat="53.11203" lon="-6.32774">
        <ele>451.7</ele>
        <time>2021-03-20T15:09:06Z</time>
      </trkpt>
      <trkpt lat="53.11182" lon="-6.32777">
        <ele>451.48</ele>
        <time>2021-03-20T15:09:09Z</time>
      </trkpt>
      <trkpt lat="53.11151" lon="-6.32795">
        <ele>450.77</ele>
        <time>2021-03-20T15:09:11Z</time>
      </trkpt>
      <trkpt lat="53.11128" lon="-6.32802">
        <ele>449.88</ele>
        <time>2021-03-20T15:09:13Z</time>
      </trkpt>
      <trkpt lat="53.11055" lon="-6.32805">
        <ele>449.96</ele>
        <time>2021-03-20T15:09:15Z</time>
      </trkpt>
      <trkpt lat="53.10962" lon="-6.32814">
        <ele>450.23</ele>
        <time>2021-03-20T15:09:17Z</time>
      </trkpt>
      <trkpt lat="53.10939" lon="-6.32812">
        <ele>449.44</ele>
        <time>2021-03-20T15:09:20Z</time>
      </trkpt>
      <trkpt lat="53.10904" lon="-6.32804">
        <ele>449.33</ele>
        <time>2021-03-20T15:09:22Z</time>
      </trkpt>
      <trkpt lat="53.10814" lon="-6.32767">
        <ele>452.3</ele>
        <time>2021-03-20T15:09:24Z</time>
      </trkpt>
      <trkpt lat="53.10792" lon="-6.3276">
        <ele>451.89</ele>
        <time>2021-03-20T15:09:26Z</time>
      </trkpt>
      <trkpt lat="53.10771" lon="-6.32758">
        <ele>450.75</ele>
        <time>2021-03-20T15:09:28Z</time>
      </trkpt>
      <trkpt lat="53.10728" lon="-6.32766">
        <ele>449.58</ele>
        <time>2021-03-20T15:09:30Z</time>
      </trkpt>
      <trkpt lat="53.10717" lon="-6.32766">
        <ele>449.95</ele>
        <time>2021-03-20T15:09:33Z</time>
      </trkpt>
      <trkpt lat="53.10695" lon="-6.32761">
        <ele>451.38</ele>
        <time>2021-03-20T15:09:35Z</time>
      </trkpt>
      <trkpt lat="53.1065" lon="-6.32741">
        <ele>451.32</ele>
        <time>2021-03-20T15:09:37Z</time>
      </trkpt>
      <trkpt lat="53.10619" lon="-6.32732">
        <ele>450.46</ele>
        <time>2021-03-20T15:09:39Z</time>
      </trkpt>
      <trkpt lat="53.10601" lon="-6.32731">
        <ele>450.32</ele>
        <time>2021-03-20T15:09:41Z</time>
      </trkpt>
      <trkpt lat="53.10584" lon="-6.32733">
        <ele>450.4</ele>
        <time>2021-03-20T15:09:44Z</time>
      </trkpt>
      <trkpt lat="53.10568" lon="-6.3274">
        <ele>450.08</ele>
        <time>2021-03-20T15:09:46Z</time>
      </trkpt>
      <trkpt lat="53.10554" lon="-6.32757">
        <ele>449.94</ele>
        <time>2021-03-20T15:09:48Z</time>
      </trkpt>
      <trkpt lat="53.10542" lon="-6.32782">
        <ele>449.68</ele>
        <time>2021-03-20T15:09:50Z</time>
      </trkpt>
      <trkpt lat="53.10476" lon="-6.32996">
        <ele>451.3</ele>
        <time>2021-03-20T15:09:52Z</time>
      </trkpt>
      <trkpt lat="53.10466" lon="-6.33023">
        <ele>450.74</ele>
        <time>2021-03-20T15:09:55Z</time>
      </trkpt>
      <trkpt lat="53.10423" lon="-6.33114">
        <ele>450.24</ele>
        <time>2021-03-20T15:09:57Z</time>
      </trkpt>
      <trkpt lat="53.10408" lon="-6.33158">
        <ele>449.7</ele>
        <time>2021-03-20T15:09:59Z</time>
      </trkpt>
      <trkpt lat="53.10396" lon="-6.33204">
        <ele>449</ele>
        <time>2021-03-20T15:10:01Z</time>
      </trkpt>
      <trkpt lat="53.10375" lon="-6.33315">
        <ele>446.34</ele>
        <time>2021-03-20T15:10:03Z</time>
      </trkpt>
      <trkpt lat="53.10368" lon="-6.33381">
        <ele>445.25</ele>
        <time>2021-03-20T15:10:06Z</time>
      </trkpt>
      <trkpt lat="53.10367" lon="-6.33415">
        <ele>444.47</ele>
        <time>2021-03-20T15:10:08Z</time>
      </trkpt>
      <trkpt lat="53.10373" lon="-6.33454">
        <ele>443.71</ele>
        <time>2021-03-20T15:10:10Z</time>
      </trkpt>
      <trkpt lat="53.10385" lon="-6.335">
        <ele>443.21</ele>
        <time>2021-03-20T15:10:12Z</time>
      </trkpt>
      <trkpt lat="53.10401" lon="-6.33554">
        <ele>442.36</ele>
        <time>2021-03-20T15:10:14Z</time>
      </trkpt>
      <trkpt lat="53.10414" lon="-6.33585">
        <ele>441.6</ele>
        <time>2021-03-20T15:10:16Z</time>
      </trkpt>
      <trkpt lat="53.10445" lon="-6.33646">
        <ele>441.52</ele>
        <time>2021-03-20T15:10:19Z</time>
      </trkpt>
      <trkpt lat="53.10469" lon="-6.33711">
        <ele>440.73</ele>
        <time>2021-03-20T15:10:21Z</time>
      </trkpt>
      <trkpt lat="53.10483" lon="-6.33742">
        <ele>440.76</ele>
        <time>2021-03-20T15:10:23Z</time>
      </trkpt>
      <trkpt lat="53.10496" lon="-6.33766">
        <ele>440.54</ele>
        <time>2021-03-20T15:10:25Z</time>
      </trkpt>
      <trkpt lat="53.10529" lon="-6.3381">
        <ele>439.66</ele>
        <time>2021-03-20T15:10:27Z</time>
      </trkpt>
      <trkpt lat="53.1055" lon="-6.33843">
        <ele>438.66</ele>
        <time>2021-03-20T15:10:30Z</time>
      </trkpt>
      <trkpt lat="53.10553" lon="-6.33854">
        <ele>438.22</ele>
        <time>2021-03-20T15:10:32Z</time>
      </trkpt>
      <trkpt lat="53.10555" lon="-6.33869">
        <ele>437.66</ele>
        <time>2021-03-20T15:10:34Z</time>
      </trkpt>
      <trkpt lat="53.10558" lon="-6.33931">
        <ele>438.11</ele>
        <time>2021-03-20T15:10:36Z</time>
      </trkpt>
      <trkpt lat="53.10557" lon="-6.33946">
        <ele>438.23</ele>
        <time>2021-03-20T15:10:38Z</time>
      </trkpt>
      <trkpt lat="53.10551" lon="-6.33964">
        <ele>440.26</ele>
        <time>2021-03-20T15:10:41Z</time>
      </trkpt>
      <trkpt lat="53.10541" lon="-6.33971">
        <ele>441.33</ele>
        <time>2021-03-20T15:10:43Z</time>
      </trkpt>
      <trkpt lat="53.10536" lon="-6.3397">
        <ele>441.44</ele>
        <time>2021-03-20T15:10:45Z</time>
      </trkpt>
      <trkpt lat="53.10508" lon="-6.33957">
        <ele>439.73</ele>
        <time>2021-03-20T15:10:47Z</time>
      </trkpt>
      <trkpt lat="53.1045" lon="-6.33975">
        <ele>443.94</ele>
        <time>2021-03-20T15:10:49Z</time>
      </trkpt>
      <trkpt lat="53.10419" lon="-6.33978">
        <ele>442.32</ele>
        <time>2021-03-20T15:10:52Z</time>
      </trkpt>
      <trkpt lat="53.1039" lon="-6.33983">
        <ele>440.46</ele>
        <time>2021-03-20T15:10:54Z</time>
      </trkpt>
      <trkpt lat="53.10381" lon="-6.33988">
        <ele>440.01</ele>
        <time>2021-03-20T15:10:56Z</time>
      </trkpt>
      <trkpt lat="53.10364" lon="-6.34006">
        <ele>439.65</ele>
        <time>2021-03-20T15:10:58Z</time>
      </trkpt>
      <trkpt lat="53.10349" lon="-6.3403">
        <ele>439.73</ele>
        <time>2021-03-20T15:11:00Z</time>
      </trkpt>
      <trkpt lat="53.10322" lon="-6.34097">
        <ele>439.22</ele>
        <time>2021-03-20T15:11:02Z</time>
      </trkpt>
      <trkpt lat="53.10314" lon="-6.34108">
        <ele>438.82</ele>
        <time>2021-03-20T15:11:05Z</time>
      </trkpt>
      <trkpt lat="53.10288" lon="-6.34134">
        <ele>436.86</ele>
        <time>2021-03-20T15:11:07Z</time>
      </trkpt>
      <trkpt lat="53.1027" lon="-6.34154">
        <ele>434.89</ele>
        <time>2021-03-20T15:11:09Z</time>
      </trkpt>
      <trkpt lat="53.1024" lon="-6.34202">
        <ele>431.07</ele>
        <time>2021-03-20T15:11:11Z</time>
      </trkpt>
      <trkpt lat="53.10225" lon="-6.34242">
        <ele>429.75</ele>
        <time>2021-03-20T15:11:13Z</time>
      </trkpt>
      <trkpt lat="53.1021" lon="-6.34298">
        <ele>432.22</ele>
        <time>2021-03-20T15:11:16Z</time>
      </trkpt>
      <trkpt lat="53.102" lon="-6.34324">
        <ele>432.29</ele>
        <time>2021-03-20T15:11:18Z</time>
      </trkpt>
      <trkpt lat="53.10164" lon="-6.34394">
        <ele>430.75</ele>
        <time>2021-03-20T15:11:20Z</time>
      </trkpt>
      <trkpt lat="53.10144" lon="-6.34446">
        <ele>428.95</ele>
        <time>2021-03-20T15:11:22Z</time>
      </trkpt>
      <trkpt lat="53.10133" lon="-6.34469">
        <ele>429.35</ele>
        <time>2021-03-20T15:11:24Z</time>
      </trkpt>
      <trkpt lat="53.10126" lon="-6.3448">
        <ele>429.52</ele>
        <time>2021-03-20T15:11:27Z</time>
      </trkpt>
      <trkpt lat="53.1011" lon="-6.34496">
        <ele>428.81</ele>
        <time>2021-03-20T15:11:29Z</time>
      </trkpt>
      <trkpt lat="53.10082" lon="-6.34511">
        <ele>429.19</ele>
        <time>2021-03-20T15:11:31Z</time>
      </trkpt>
      <trkpt lat="53.10062" lon="-6.34516">
        <ele>429.68</ele>
        <time>2021-03-20T15:11:33Z</time>
      </trkpt>
      <trkpt lat="53.10032" lon="-6.34517">
        <ele>428.98</ele>
        <time>2021-03-20T15:11:35Z</time>
      </trkpt>
      <trkpt lat="53.10013" lon="-6.34517">
        <ele>427.91</ele>
        <time>2021-03-20T15:11:38Z</time>
      </trkpt>
      <trkpt lat="53.09973" lon="-6.34509">
        <ele>424.67</ele>
        <time>2021-03-20T15:11:40Z</time>
      </trkpt>
      <trkpt lat="53.09911" lon="-6.34479">
        <ele>421.26</ele>
        <time>2021-03-20T15:11:42Z</time>
      </trkpt>
      <trkpt lat="53.09896" lon="-6.3448">
        <ele>421.27</ele>
        <time>2021-03-20T15:11:44Z</time>
      </trkpt>
      <trkpt lat="53.09883" lon="-6.34487">
        <ele>420.87</ele>
        <time>2021-03-20T15:11:46Z</time>
      </trkpt>
      <trkpt lat="53.0987" lon="-6.34499">
        <ele>419.88</ele>
        <time>2021-03-20T15:11:48Z</time>
      </trkpt>
      <trkpt lat="53.09855" lon="-6.34516">
        <ele>418.52</ele>
        <time>2021-03-20T15:11:51Z</time>
      </trkpt>
      <trkpt lat="53.0984" lon="-6.34536">
        <ele>417.22</ele>
        <time>2021-03-20T15:11:53Z</time>
      </trkpt>
      <trkpt lat="53.09829" lon="-6.3456">
        <ele>416.37</ele>
        <time>2021-03-20T15:11:55Z</time>
      </trkpt>
      <trkpt lat="53.09824" lon="-6.34574">
        <ele>415.88</ele>
        <time>2021-03-20T15:11:57Z</time>
      </trkpt>
      <trkpt lat="53.09817" lon="-6.34603">
        <ele>415.23</ele>
        <time>2021-03-20T15:11:59Z</time>
      </trkpt>
      <trkpt lat="53.09803" lon="-6.34677">
        <ele>415.38</ele>
        <time>2021-03-20T15:12:02Z</time>
      </trkpt>
      <trkpt lat="53.09795" lon="-6.34705">
        <ele>414.25</ele>
        <time>2021-03-20T15:12:04Z</time>
      </trkpt>
      <trkpt lat="53.0979" lon="-6.34717">
        <ele>413.86</ele>
        <time>2021-03-20T15:12:06Z</time>
      </trkpt>
      <trkpt lat="53.0977" lon="-6.34751">
        <ele>411.72</ele>
        <time>2021-03-20T15:12:08Z</time>
      </trkpt>
      <trkpt lat="53.09731" lon="-6.34794">
        <ele>410.7</ele>
        <time>2021-03-20T15:12:10Z</time>
      </trkpt>
      <trkpt lat="53.09718" lon="-6.34811">
        <ele>409.69</ele>
        <time>2021-03-20T15:12:13Z</time>
      </trkpt>
      <trkpt lat="53.09709" lon="-6.34832">
        <ele>409.02</ele>
        <time>2021-03-20T15:12:15Z</time>
      </trkpt>
      <trkpt lat="53.09702" lon="-6.34857">
        <ele>407.33</ele>
        <time>2021-03-20T15:12:17Z</time>
      </trkpt>
      <trkpt lat="53.09694" lon="-6.34877">
        <ele>405.83</ele>
        <time>2021-03-20T15:12:19Z</time>
      </trkpt>
      <trkpt lat="53.09681" lon="-6.34889">
        <ele>404.02</ele>
        <time>2021-03-20T15:12:21Z</time>
      </trkpt>
      <trkpt lat="53.09655" lon="-6.34893">
        <ele>401.66</ele>
        <time>2021-03-20T15:12:24Z</time>
      </trkpt>
      <trkpt lat="53.09582" lon="-6.34883">
        <ele>398.54</ele>
        <time>2021-03-20T15:12:26Z</time>
      </trkpt>
      <trkpt lat="53.09574" lon="-6.34886">
        <ele>397.63</ele>
        <time>2021-03-20T15:12:28Z</time>
      </trkpt>
      <trkpt lat="53.09564" lon="-6.34895">
        <ele>396.41</ele>
        <time>2021-03-20T15:12:30Z</time>
      </trkpt>
      <trkpt lat="53.09553" lon="-6.34911">
        <ele>395.09</ele>
        <time>2021-03-20T15:12:32Z</time>
      </trkpt>
      <trkpt lat="53.09536" lon="-6.3493">
        <ele>393.83</ele>
        <time>2021-03-20T15:12:34Z</time>
      </trkpt>
      <trkpt lat="53.09521" lon="-6.34941">
        <ele>393.59</ele>
        <time>2021-03-20T15:12:37Z</time>
      </trkpt>
      <trkpt lat="53.09489" lon="-6.34958">
        <ele>396.33</ele>
        <time>2021-03-20T15:12:39Z</time>
      </trkpt>
      <trkpt lat="53.09474" lon="-6.34957">
        <ele>396.85</ele>
        <time>2021-03-20T15:12:41Z</time>
      </trkpt>
      <trkpt lat="53.09461" lon="-6.34947">
        <ele>396.59</ele>
        <time>2021-03-20T15:12:43Z</time>
      </trkpt>
      <trkpt lat="53.09413" lon="-6.34899">
        <ele>396.36</ele>
        <time>2021-03-20T15:12:45Z</time>
      </trkpt>
      <trkpt lat="53.09372" lon="-6.34874">
        <ele>396.61</ele>
        <time>2021-03-20T15:12:48Z</time>
      </trkpt>
      <trkpt lat="53.0934" lon="-6.34844">
        <ele>397.29</ele>
        <time>2021-03-20T15:12:50Z</time>
      </trkpt>
      <trkpt lat="53.09314" lon="-6.34834">
        <ele>395.59</ele>
        <time>2021-03-20T15:12:52Z</time>
      </trkpt>
      <trkpt lat="53.09154" lon="-6.34798">
        <ele>393.48</ele>
        <time>2021-03-20T15:12:54Z</time>
      </trkpt>
      <trkpt lat="53.09117" lon="-6.34797">
        <ele>393.36</ele>
        <time>2021-03-20T15:12:56Z</time>
      </trkpt>
      <trkpt lat="53.09108" lon="-6.34799">
        <ele>393.31</ele>
        <time>2021-03-20T15:12:59Z</time>
      </trkpt>
      <trkpt lat="53.09088" lon="-6.34809">
        <ele>392.49</ele>
        <time>2021-03-20T15:13:01Z</time>
      </trkpt>
      <trkpt lat="53.0904" lon="-6.34842">
        <ele>392.61</ele>
        <time>2021-03-20T15:13:03Z</time>
      </trkpt>
      <trkpt lat="53.09021" lon="-6.34858">
        <ele>394.05</ele>
        <time>2021-03-20T15:13:05Z</time>
      </trkpt>
      <trkpt lat="53.08995" lon="-6.34888">
        <ele>396.95</ele>
        <time>2021-03-20T15:13:07Z</time>
      </trkpt>
      <trkpt lat="53.08981" lon="-6.34912">
        <ele>398.95</ele>
        <time>2021-03-20T15:13:09Z</time>
      </trkpt>
      <trkpt lat="53.08958" lon="-6.34958">
        <ele>399.47</ele>
        <time>2021-03-20T15:13:12Z</time>
      </trkpt>
      <trkpt lat="53.08927" lon="-6.35043">
        <ele>402.08</ele>
        <time>2021-03-20T15:13:14Z</time>
      </trkpt>
      <trkpt lat="53.08913" lon="-6.35085">
        <ele>402.53</ele>
        <time>2021-03-20T15:13:16Z</time>
      </trkpt>
      <trkpt lat="53.08905" lon="-6.35129">
        <ele>402.61</ele>
        <time>2021-03-20T15:13:18Z</time>
      </trkpt>
      <trkpt lat="53.08901" lon="-6.35176">
        <ele>404.4</ele>
        <time>2021-03-20T15:13:20Z</time>
      </trkpt>
      <trkpt lat="53.08894" lon="-6.35207">
        <ele>405.19</ele>
        <time>2021-03-20T15:13:23Z</time>
      </trkpt>
      <trkpt lat="53.08877" lon="-6.35247">
        <ele>404.23</ele>
        <time>2021-03-20T15:13:25Z</time>
      </trkpt>
      <trkpt lat="53.08871" lon="-6.35259">
        <ele>403.79</ele>
        <time>2021-03-20T15:13:27Z</time>
      </trkpt>
      <trkpt lat="53.08862" lon="-6.35272">
        <ele>402.91</ele>
        <time>2021-03-20T15:13:29Z</time>
      </trkpt>
      <trkpt lat="53.08847" lon="-6.35288">
        <ele>402.88</ele>
        <time>2021-03-20T15:13:31Z</time>
      </trkpt>
      <trkpt lat="53.0878" lon="-6.35334">
        <ele>405.16</ele>
        <time>2021-03-20T15:13:34Z</time>
      </trkpt>
      <trkpt lat="53.08754" lon="-6.35362">
        <ele>407.21</ele>
        <time>2021-03-20T15:13:36Z</time>
      </trkpt>
      <trkpt lat="53.08687" lon="-6.35454">
        <ele>410.17</ele>
        <time>2021-03-20T15:13:38Z</time>
      </trkpt>
      <trkpt lat="53.08673" lon="-6.35479">
        <ele>411.34</ele>
        <time>2021-03-20T15:13:40Z</time>
      </trkpt>
      <trkpt lat="53.0863" lon="-6.35573">
        <ele>415.15</ele>
        <time>2021-03-20T15:13:42Z</time>
      </trkpt>
      <trkpt lat="53.08615" lon="-6.35595">
        <ele>416.53</ele>
        <time>2021-03-20T15:13:45Z</time>
      </trkpt>
      <trkpt lat="53.08598" lon="-6.35613">
        <ele>418.27</ele>
        <time>2021-03-20T15:13:47Z</time>
      </trkpt>
      <trkpt lat="53.08582" lon="-6.35627">
        <ele>419.71</ele>
        <time>2021-03-20T15:13:49Z</time>
      </trkpt>
      <trkpt lat="53.08569" lon="-6.35643">
        <ele>420.85</ele>
        <time>2021-03-20T15:13:51Z</time>
      </trkpt>
      <trkpt lat="53.08557" lon="-6.35664">
        <ele>421.89</ele>
        <time>2021-03-20T15:13:53Z</time>
      </trkpt>
      <trkpt lat="53.08547" lon="-6.35688">
        <ele>423.36</ele>
        <time>2021-03-20T15:13:55Z</time>
      </trkpt>
      <trkpt lat="53.08535" lon="-6.35707">
        <ele>424.45</ele>
        <time>2021-03-20T15:13:58Z</time>
      </trkpt>
      <trkpt lat="53.08519" lon="-6.3572">
        <ele>425.36</ele>
        <time>2021-03-20T15:14:00Z</time>
      </trkpt>
      <trkpt lat="53.08501" lon="-6.35728">
        <ele>425.88</ele>
        <time>2021-03-20T15:14:02Z</time>
      </trkpt>
      <trkpt lat="53.08457" lon="-6.35735">
        <ele>428.64</ele>
        <time>2021-03-20T15:14:04Z</time>
      </trkpt>
      <trkpt lat="53.08392" lon="-6.35739">
        <ele>425.85</ele>
        <time>2021-03-20T15:14:06Z</time>
      </trkpt>
      <trkpt lat="53.0837" lon="-6.35733">
        <ele>426.98</ele>
        <time>2021-03-20T15:14:09Z</time>
      </trkpt>
      <trkpt lat="53.08349" lon="-6.35721">
        <ele>427.42</ele>
        <time>2021-03-20T15:14:11Z</time>
      </trkpt>
      <trkpt lat="53.08321" lon="-6.35696">
        <ele>428.45</ele>
        <time>2021-03-20T15:14:13Z</time>
      </trkpt>
      <trkpt lat="53.08304" lon="-6.35683">
        <ele>428.55</ele>
        <time>2021-03-20T15:14:15Z</time>
      </trkpt>
      <trkpt lat="53.08211" lon="-6.35654">
        <ele>428.39</ele>
        <time>2021-03-20T15:14:17Z</time>
      </trkpt>
      <trkpt lat="53.08157" lon="-6.35629">
        <ele>430.03</ele>
        <time>2021-03-20T15:14:20Z</time>
      </trkpt>
      <trkpt lat="53.08127" lon="-6.35613">
        <ele>430.96</ele>
        <time>2021-03-20T15:14:22Z</time>
      </trkpt>
      <trkpt lat="53.08098" lon="-6.35587">
        <ele>431.69</ele>
        <time>2021-03-20T15:14:24Z</time>
      </trkpt>
      <trkpt lat="53.08054" lon="-6.35541">
        <ele>433.52</ele>
        <time>2021-03-20T15:14:26Z</time>
      </trkpt>
      <trkpt lat="53.08005" lon="-6.35474">
        <ele>433.67</ele>
        <time>2021-03-20T15:14:28Z</time>
      </trkpt>
      <trkpt lat="53.0799" lon="-6.35461">
        <ele>433.93</ele>
        <time>2021-03-20T15:14:31Z</time>
      </trkpt>
      <trkpt lat="53.07975" lon="-6.35453">
        <ele>434.21</ele>
        <time>2021-03-20T15:14:33Z</time>
      </trkpt>
      <trkpt lat="53.07958" lon="-6.35451">
        <ele>434.23</ele>
        <time>2021-03-20T15:14:35Z</time>
      </trkpt>
      <trkpt lat="53.07931" lon="-6.35451">
        <ele>434.25</ele>
        <time>2021-03-20T15:14:37Z</time>
      </trkpt>
      <trkpt lat="53.07897" lon="-6.35456">
        <ele>434.11</ele>
        <time>2021-03-20T15:14:39Z</time>
      </trkpt>
      <trkpt lat="53.07852" lon="-6.35467">
        <ele>433.13</ele>
        <time>2021-03-20T15:14:41Z</time>
      </trkpt>
      <trkpt lat="53.07802" lon="-6.35472">
        <ele>431.87</ele>
        <time>2021-03-20T15:14:44Z</time>
      </trkpt>
      <trkpt lat="53.07772" lon="-6.35472">
        <ele>430.8</ele>
        <time>2021-03-20T15:14:46Z</time>
      </trkpt>
      <trkpt lat="53.07753" lon="-6.35468">
        <ele>429.98</ele>
        <time>2021-03-20T15:14:48Z</time>
      </trkpt>
      <trkpt lat="53.07735" lon="-6.35458">
        <ele>428.95</ele>
        <time>2021-03-20T15:14:50Z</time>
      </trkpt>
      <trkpt lat="53.0769" lon="-6.35424">
        <ele>427.7</ele>
        <time>2021-03-20T15:14:52Z</time>
      </trkpt>
      <trkpt lat="53.07636" lon="-6.35404">
        <ele>425.34</ele>
        <time>2021-03-20T15:14:55Z</time>
      </trkpt>
      <trkpt lat="53.07594" lon="-6.35374">
        <ele>423.74</ele>
        <time>2021-03-20T15:14:57Z</time>
      </trkpt>
      <trkpt lat="53.07548" lon="-6.35357">
        <ele>420.85</ele>
        <time>2021-03-20T15:14:59Z</time>
      </trkpt>
      <trkpt lat="53.07502" lon="-6.35324">
        <ele>420.06</ele>
        <time>2021-03-20T15:15:01Z</time>
      </trkpt>
      <trkpt lat="53.07422" lon="-6.35285">
        <ele>414.72</ele>
        <time>2021-03-20T15:15:03Z</time>
      </trkpt>
      <trkpt lat="53.07354" lon="-6.35241">
        <ele>410.94</ele>
        <time>2021-03-20T15:15:06Z</time>
      </trkpt>
      <trkpt lat="53.07299" lon="-6.3522">
        <ele>407.61</ele>
        <time>2021-03-20T15:15:08Z</time>
      </trkpt>
      <trkpt lat="53.07265" lon="-6.35184">
        <ele>405.98</ele>
        <time>2021-03-20T15:15:10Z</time>
      </trkpt>
      <trkpt lat="53.07239" lon="-6.35147">
        <ele>404.19</ele>
        <time>2021-03-20T15:15:12Z</time>
      </trkpt>
      <trkpt lat="53.07227" lon="-6.35126">
        <ele>402.8</ele>
        <time>2021-03-20T15:15:14Z</time>
      </trkpt>
      <trkpt lat="53.07199" lon="-6.35062">
        <ele>401.43</ele>
        <time>2021-03-20T15:15:17Z</time>
      </trkpt>
      <trkpt lat="53.07155" lon="-6.34977">
        <ele>397.51</ele>
        <time>2021-03-20T15:15:19Z</time>
      </trkpt>
      <trkpt lat="53.07125" lon="-6.34909">
        <ele>394.47</ele>
        <time>2021-03-20T15:15:21Z</time>
      </trkpt>
      <trkpt lat="53.07112" lon="-6.34884">
        <ele>393.58</ele>
        <time>2021-03-20T15:15:23Z</time>
      </trkpt>
      <trkpt lat="53.07076" lon="-6.34828">
        <ele>390.57</ele>
        <time>2021-03-20T15:15:25Z</time>
      </trkpt>
      <trkpt lat="53.07015" lon="-6.34697">
        <ele>386.57</ele>
        <time>2021-03-20T15:15:27Z</time>
      </trkpt>
      <trkpt lat="53.07008" lon="-6.34686">
        <ele>386.3</ele>
        <time>2021-03-20T15:15:30Z</time>
      </trkpt>
      <trkpt lat="53.06985" lon="-6.34663">
        <ele>385.49</ele>
        <time>2021-03-20T15:15:32Z</time>
      </trkpt>
      <trkpt lat="53.06976" lon="-6.3465">
        <ele>384.5</ele>
        <time>2021-03-20T15:15:34Z</time>
      </trkpt>
      <trkpt lat="53.06953" lon="-6.34586">
        <ele>382.88</ele>
        <time>2021-03-20T15:15:36Z</time>
      </trkpt>
      <trkpt lat="53.06931" lon="-6.34537">
        <ele>379.76</ele>
        <time>2021-03-20T15:15:38Z</time>
      </trkpt>
      <trkpt lat="53.06918" lon="-6.34486">
        <ele>380.64</ele>
        <time>2021-03-20T15:15:41Z</time>
      </trkpt>
      <trkpt lat="53.06893" lon="-6.34448">
        <ele>379.21</ele>
        <time>2021-03-20T15:15:43Z</time>
      </trkpt>
      <trkpt lat="53.06882" lon="-6.34424">
        <ele>378.53</ele>
        <time>2021-03-20T15:15:45Z</time>
      </trkpt>
      <trkpt lat="53.06861" lon="-6.34372">
        <ele>376.02</ele>
        <time>2021-03-20T15:15:47Z</time>
      </trkpt>
      <trkpt lat="53.06801" lon="-6.34261">
        <ele>372.11</ele>
        <time>2021-03-20T15:15:49Z</time>
      </trkpt>
      <trkpt lat="53.06785" lon="-6.34212">
        <ele>371.78</ele>
        <time>2021-03-20T15:15:52Z</time>
      </trkpt>
      <trkpt lat="53.06736" lon="-6.34095">
        <ele>365.72</ele>
        <time>2021-03-20T15:15:54Z</time>
      </trkpt>
      <trkpt lat="53.06711" lon="-6.34022">
        <ele>365.62</ele>
        <time>2021-03-20T15:15:56Z</time>
      </trkpt>
      <trkpt lat="53.06668" lon="-6.33938">
        <ele>363.78</ele>
        <time>2021-03-20T15:15:58Z</time>
      </trkpt>
      <trkpt lat="53.06651" lon="-6.33888">
        <ele>364.26</ele>
        <time>2021-03-20T15:16:00Z</time>
      </trkpt>
      <trkpt lat="53.06638" lon="-6.33863">
        <ele>363.87</ele>
        <time>2021-03-20T15:16:03Z</time>
      </trkpt>
      <trkpt lat="53.0662" lon="-6.33839">
        <ele>363.95</ele>
        <time>2021-03-20T15:16:05Z</time>
      </trkpt>
      <trkpt lat="53.06599" lon="-6.3382">
        <ele>363.73</ele>
        <time>2021-03-20T15:16:07Z</time>
      </trkpt>
      <trkpt lat="53.06581" lon="-6.33806">
        <ele>362.92</ele>
        <time>2021-03-20T15:16:09Z</time>
      </trkpt>
      <trkpt lat="53.06533" lon="-6.33778">
        <ele>357.75</ele>
        <time>2021-03-20T15:16:11Z</time>
      </trkpt>
      <trkpt lat="53.06521" lon="-6.33767">
        <ele>355.17</ele>
        <time>2021-03-20T15:16:13Z</time>
      </trkpt>
      <trkpt lat="53.06512" lon="-6.33753">
        <ele>351.89</ele>
        <time>2021-03-20T15:16:16Z</time>
      </trkpt>
      <trkpt lat="53.06502" lon="-6.33733">
        <ele>347.47</ele>
        <time>2021-03-20T15:16:18Z</time>
      </trkpt>
      <trkpt lat="53.06492" lon="-6.33692">
        <ele>342.51</ele>
        <time>2021-03-20T15:16:20Z</time>
      </trkpt>
      <trkpt lat="53.06491" lon="-6.33672">
        <ele>342.09</ele>
        <time>2021-03-20T15:16:22Z</time>
      </trkpt>
      <trkpt lat="53.06496" lon="-6.33613">
        <ele>342.64</ele>
        <time>2021-03-20T15:16:24Z</time>
      </trkpt>
      <trkpt lat="53.06491" lon="-6.33536">
        <ele>340.73</ele>
        <time>2021-03-20T15:16:27Z</time>
      </trkpt>
      <trkpt lat="53.06487" lon="-6.33507">
        <ele>340.49</ele>
        <time>2021-03-20T15:16:29Z</time>
      </trkpt>
      <trkpt lat="53.0648" lon="-6.3348">
        <ele>340.35</ele>
        <time>2021-03-20T15:16:31Z</time>
      </trkpt>
      <trkpt lat="53.06463" lon="-6.33441">
        <ele>338.39</ele>
        <time>2021-03-20T15:16:33Z</time>
      </trkpt>
      <trkpt lat="53.06431" lon="-6.33385">
        <ele>337.42</ele>
        <time>2021-03-20T15:16:35Z</time>
      </trkpt>
      <trkpt lat="53.06421" lon="-6.33371">
        <ele>336.51</ele>
        <time>2021-03-20T15:16:38Z</time>
      </trkpt>
      <trkpt lat="53.06382" lon="-6.33331">
        <ele>330.36</ele>
        <time>2021-03-20T15:16:40Z</time>
      </trkpt>
      <trkpt lat="53.06318" lon="-6.33281">
        <ele>323.24</ele>
        <time>2021-03-20T15:16:42Z</time>
      </trkpt>
      <trkpt lat="53.06283" lon="-6.33258">
        <ele>321.7</ele>
        <time>2021-03-20T15:16:44Z</time>
      </trkpt>
      <trkpt lat="53.06241" lon="-6.33254">
        <ele>316.83</ele>
        <time>2021-03-20T15:16:46Z</time>
      </trkpt>
      <trkpt lat="53.06098" lon="-6.33225">
        <ele>304.25</ele>
        <time>2021-03-20T15:16:48Z</time>
      </trkpt>
      <trkpt lat="53.06056" lon="-6.33208">
        <ele>303.15</ele>
        <time>2021-03-20T15:16:51Z</time>
      </trkpt>
      <trkpt lat="53.06039" lon="-6.33204">
        <ele>300.61</ele>
        <time>2021-03-20T15:16:53Z</time>
      </trkpt>
      <trkpt lat="53.05951" lon="-6.33187">
        <ele>292.1</ele>
        <time>2021-03-20T15:16:55Z</time>
      </trkpt>
      <trkpt lat="53.05835" lon="-6.33156">
        <ele>289.38</ele>
        <time>2021-03-20T15:16:57Z</time>
      </trkpt>
      <trkpt lat="53.058" lon="-6.33152">
        <ele>283.45</ele>
        <time>2021-03-20T15:16:59Z</time>
      </trkpt>
      <trkpt lat="53.05761" lon="-6.33138">
        <ele>284.75</ele>
        <time>2021-03-20T15:17:02Z</time>
      </trkpt>
      <trkpt lat="53.05721" lon="-6.33127">
        <ele>280.7</ele>
        <time>2021-03-20T15:17:04Z</time>
      </trkpt>
      <trkpt lat="53.05686" lon="-6.33122">
        <ele>281.39</ele>
        <time>2021-03-20T15:17:06Z</time>
      </trkpt>
      <trkpt lat="53.05617" lon="-6.33102">
        <ele>277.06</ele>
        <time>2021-03-20T15:17:08Z</time>
      </trkpt>
      <trkpt lat="53.05558" lon="-6.33106">
        <ele>265.56</ele>
        <time>2021-03-20T15:17:10Z</time>
      </trkpt>
      <trkpt lat="53.05548" lon="-6.33105">
        <ele>264.4</ele>
        <time>2021-03-20T15:17:13Z</time>
      </trkpt>
      <trkpt lat="53.05503" lon="-6.33087">
        <ele>261.88</ele>
        <time>2021-03-20T15:17:15Z</time>
      </trkpt>
      <trkpt lat="53.05481" lon="-6.3308">
        <ele>259.75</ele>
        <time>2021-03-20T15:17:17Z</time>
      </trkpt>
      <trkpt lat="53.05431" lon="-6.33078">
        <ele>256.36</ele>
        <time>2021-03-20T15:17:19Z</time>
      </trkpt>
      <trkpt lat="53.05425" lon="-6.33076">
        <ele>256.46</ele>
        <time>2021-03-20T15:17:21Z</time>
      </trkpt>
      <trkpt lat="53.0539" lon="-6.33051">
        <ele>259.29</ele>
        <time>2021-03-20T15:17:24Z</time>
      </trkpt>
      <trkpt lat="53.05351" lon="-6.3304">
        <ele>256.54</ele>
        <time>2021-03-20T15:17:26Z</time>
      </trkpt>
      <trkpt lat="53.05323" lon="-6.33029">
        <ele>256.32</ele>
        <time>2021-03-20T15:17:28Z</time>
      </trkpt>
      <trkpt lat="53.0531" lon="-6.33036">
        <ele>254.91</ele>
        <time>2021-03-20T15:17:30Z</time>
      </trkpt>
      <trkpt lat="53.05279" lon="-6.33072">
        <ele>253.34</ele>
        <time>2021-03-20T15:17:32Z</time>
      </trkpt>
      <trkpt lat="53.05271" lon="-6.33077">
        <ele>253.86</ele>
        <time>2021-03-20T15:17:34Z</time>
      </trkpt>
      <trkpt lat="53.05263" lon="-6.33079">
        <ele>253.85</ele>
        <time>2021-03-20T15:17:37Z</time>
      </trkpt>
      <trkpt lat="53.05242" lon="-6.33076">
        <ele>252.5</ele>
        <time>2021-03-20T15:17:39Z</time>
      </trkpt>
      <trkpt lat="53.05233" lon="-6.33071">
        <ele>251.56</ele>
        <time>2021-03-20T15:17:41Z</time>
      </trkpt>
      <trkpt lat="53.05213" lon="-6.33057">
        <ele>249.73</ele>
        <time>2021-03-20T15:17:43Z</time>
      </trkpt>
      <trkpt lat="53.05178" lon="-6.33038">
        <ele>249.26</ele>
        <time>2021-03-20T15:17:45Z</time>
      </trkpt>
      <trkpt lat="53.05133" lon="-6.33021">
        <ele>247.54</ele>
        <time>2021-03-20T15:17:48Z</time>
      </trkpt>
      <trkpt lat="53.05086" lon="-6.33012">
        <ele>244.15</ele>
        <time>2021-03-20T15:17:50Z</time>
      </trkpt>
      <trkpt lat="53.05036" lon="-6.32998">
        <ele>241.69</ele>
        <time>2021-03-20T15:17:52Z</time>
      </trkpt>
      <trkpt lat="53.05014" lon="-6.32987">
        <ele>241.23</ele>
        <time>2021-03-20T15:17:54Z</time>
      </trkpt>
      <trkpt lat="53.04922" lon="-6.32933">
        <ele>239.17</ele>
        <time>2021-03-20T15:17:56Z</time>
      </trkpt>
      <trkpt lat="53.0489" lon="-6.32911">
        <ele>238.29</ele>
        <time>2021-03-20T15:17:59Z</time>
      </trkpt>
      <trkpt lat="53.04845" lon="-6.32872">
        <ele>238.56</ele>
        <time>2021-03-20T15:18:01Z</time>
      </trkpt>
      <trkpt lat="53.04816" lon="-6.32854">
        <ele>239.73</ele>
        <time>2021-03-20T15:18:03Z</time>
      </trkpt>
      <trkpt lat="53.048" lon="-6.32849">
        <ele>239.57</ele>
        <time>2021-03-20T15:18:05Z</time>
      </trkpt>
      <trkpt lat="53.04727" lon="-6.32841">
        <ele>235.68</ele>
        <time>2021-03-20T15:18:07Z</time>
      </trkpt>
      <trkpt lat="53.04704" lon="-6.32831">
        <ele>234.82</ele>
        <time>2021-03-20T15:18:10Z</time>
      </trkpt>
      <trkpt lat="53.04634" lon="-6.3279">
        <ele>233.83</ele>
        <time>2021-03-20T15:18:12Z</time>
      </trkpt>
      <trkpt lat="53.04621" lon="-6.3278">
        <ele>233.04</ele>
        <time>2021-03-20T15:18:14Z</time>
      </trkpt>
      <trkpt lat="53.04598" lon="-6.32755">
        <ele>233.59</ele>
        <time>2021-03-20T15:18:16Z</time>
      </trkpt>
      <trkpt lat="53.04587" lon="-6.32746">
        <ele>233.56</ele>
        <time>2021-03-20T15:18:18Z</time>
      </trkpt>
      <trkpt lat="53.04577" lon="-6.32742">
        <ele>233.18</ele>
        <time>2021-03-20T15:18:20Z</time>
      </trkpt>
      <trkpt lat="53.04544" lon="-6.32733">
        <ele>233.04</ele>
        <time>2021-03-20T15:18:23Z</time>
      </trkpt>
      <trkpt lat="53.04525" lon="-6.32724">
        <ele>234.84</ele>
        <time>2021-03-20T15:18:25Z</time>
      </trkpt>
      <trkpt lat="53.04505" lon="-6.32709">
        <ele>236.86</ele>
        <time>2021-03-20T15:18:27Z</time>
      </trkpt>
      <trkpt lat="53.04461" lon="-6.32663">
        <ele>238.5</ele>
        <time>2021-03-20T15:18:29Z</time>
      </trkpt>
      <trkpt lat="53.0445" lon="-6.32655">
        <ele>238.39</ele>
        <time>2021-03-20T15:18:31Z</time>
      </trkpt>
      <trkpt lat="53.04428" lon="-6.32646">
        <ele>237.92</ele>
        <time>2021-03-20T15:18:34Z</time>
      </trkpt>
      <trkpt lat="53.04396" lon="-6.32639">
        <ele>235.7</ele>
        <time>2021-03-20T15:18:36Z</time>
      </trkpt>
      <trkpt lat="53.04378" lon="-6.32632">
        <ele>235.19</ele>
        <time>2021-03-20T15:18:38Z</time>
      </trkpt>
      <trkpt lat="53.04358" lon="-6.3262">
        <ele>235.63</ele>
        <time>2021-03-20T15:18:40Z</time>
      </trkpt>
      <trkpt lat="53.04333" lon="-6.32613">
        <ele>235.79</ele>
        <time>2021-03-20T15:18:42Z</time>
      </trkpt>
      <trkpt lat="53.04297" lon="-6.32609">
        <ele>231.47</ele>
        <time>2021-03-20T15:18:45Z</time>
      </trkpt>
      <trkpt lat="53.0425" lon="-6.32596">
        <ele>230.08</ele>
        <time>2021-03-20T15:18:47Z</time>
      </trkpt>
      <trkpt lat="53.0419" lon="-6.32591">
        <ele>229.73</ele>
        <time>2021-03-20T15:18:49Z</time>
      </trkpt>
      <trkpt lat="53.04178" lon="-6.32587">
        <ele>229.87</ele>
        <time>2021-03-20T15:18:51Z</time>
      </trkpt>
      <trkpt lat="53.04155" lon="-6.32574">
        <ele>230.54</ele>
        <time>2021-03-20T15:18:53Z</time>
      </trkpt>
      <trkpt lat="53.04132" lon="-6.32564">
        <ele>231.09</ele>
        <time>2021-03-20T15:18:56Z</time>
      </trkpt>
      <trkpt lat="53.04033" lon="-6.32538">
        <ele>231.85</ele>
        <time>2021-03-20T15:18:58Z</time>
      </trkpt>
      <trkpt lat="53.04012" lon="-6.32525">
        <ele>232.02</ele>
        <time>2021-03-20T15:19:00Z</time>
      </trkpt>
      <trkpt lat="53.03964" lon="-6.32476">
        <ele>229.67</ele>
        <time>2021-03-20T15:19:02Z</time>
      </trkpt>
      <trkpt lat="53.03898" lon="-6.32429">
        <ele>229.81</ele>
        <time>2021-03-20T15:19:04Z</time>
      </trkpt>
      <trkpt lat="53.03839" lon="-6.32381">
        <ele>226.45</ele>
        <time>2021-03-20T15:19:06Z</time>
      </trkpt>
      <trkpt lat="53.03781" lon="-6.32319">
        <ele>222.05</ele>
        <time>2021-03-20T15:19:09Z</time>
      </trkpt>
      <trkpt lat="53.03735" lon="-6.32277">
        <ele>219.49</ele>
        <time>2021-03-20T15:19:11Z</time>
      </trkpt>
      <trkpt lat="53.03655" lon="-6.32193">
        <ele>218.12</ele>
        <time>2021-03-20T15:19:13Z</time>
      </trkpt>
      <trkpt lat="53.03627" lon="-6.32164">
        <ele>222.68</ele>
        <time>2021-03-20T15:19:15Z</time>
      </trkpt>
      <trkpt lat="53.03599" lon="-6.32129">
        <ele>226.91</ele>
        <time>2021-03-20T15:19:17Z</time>
      </trkpt>
      <trkpt lat="53.03591" lon="-6.32115">
        <ele>227.94</ele>
        <time>2021-03-20T15:19:20Z</time>
      </trkpt>
      <trkpt lat="53.03554" lon="-6.32023">
        <ele>227.8</ele>
        <time>2021-03-20T15:19:22Z</time>
      </trkpt>
      <trkpt lat="53.03535" lon="-6.31987">
        <ele>227.74</ele>
        <time>2021-03-20T15:19:24Z</time>
      </trkpt>
      <trkpt lat="53.0349" lon="-6.31924">
        <ele>227.25</ele>
        <time>2021-03-20T15:19:26Z</time>
      </trkpt>
      <trkpt lat="53.03471" lon="-6.31889">
        <ele>223.77</ele>
        <time>2021-03-20T15:19:28Z</time>
      </trkpt>
      <trkpt lat="53.03434" lon="-6.31813">
        <ele>224.47</ele>
        <time>2021-03-20T15:19:31Z</time>
      </trkpt>
      <trkpt lat="53.03388" lon="-6.31734">
        <ele>221.36</ele>
        <time>2021-03-20T15:19:33Z</time>
      </trkpt>
      <trkpt lat="53.0337" lon="-6.31696">
        <ele>218.28</ele>
        <time>2021-03-20T15:19:35Z</time>
      </trkpt>
      <trkpt lat="53.03358" lon="-6.31661">
        <ele>214.66</ele>
        <time>2021-03-20T15:19:37Z</time>
      </trkpt>
      <trkpt lat="53.03343" lon="-6.31624">
        <ele>213.01</ele>
        <time>2021-03-20T15:19:39Z</time>
      </trkpt>
      <trkpt lat="53.03308" lon="-6.31552">
        <ele>214.41</ele>
        <time>2021-03-20T15:19:42Z</time>
      </trkpt>
      <trkpt lat="53.03293" lon="-6.31517">
        <ele>214.32</ele>
        <time>2021-03-20T15:19:44Z</time>
      </trkpt>
      <trkpt lat="53.03276" lon="-6.31459">
        <ele>214.38</ele>
        <time>2021-03-20T15:19:46Z</time>
      </trkpt>
      <trkpt lat="53.03262" lon="-6.314">
        <ele>215.2</ele>
        <time>2021-03-20T15:19:48Z</time>
      </trkpt>
      <trkpt lat="53.03257" lon="-6.31382">
        <ele>215.24</ele>
        <time>2021-03-20T15:19:50Z</time>
      </trkpt>
      <trkpt lat="53.03242" lon="-6.31349">
        <ele>215.78</ele>
        <time>2021-03-20T15:19:52Z</time>
      </trkpt>
      <trkpt lat="53.03226" lon="-6.31321">
        <ele>215.88</ele>
        <time>2021-03-20T15:19:55Z</time>
      </trkpt>
      <trkpt lat="53.03208" lon="-6.31296">
        <ele>215.68</ele>
        <time>2021-03-20T15:19:57Z</time>
      </trkpt>
      <trkpt lat="53.03102" lon="-6.31167">
        <ele>212</ele>
        <time>2021-03-20T15:19:59Z</time>
      </trkpt>
      <trkpt lat="53.0299" lon="-6.31001">
        <ele>210.4</ele>
        <time>2021-03-20T15:20:01Z</time>
      </trkpt>
      <trkpt lat="53.02944" lon="-6.30917">
        <ele>211.01</ele>
        <time>2021-03-20T15:20:03Z</time>
      </trkpt>
      <trkpt lat="53.02899" lon="-6.30818">
        <ele>211.54</ele>
        <time>2021-03-20T15:20:06Z</time>
      </trkpt>
      <trkpt lat="53.02881" lon="-6.30792">
        <ele>213.14</ele>
        <time>2021-03-20T15:20:08Z</time>
      </trkpt>
      <trkpt lat="53.02871" lon="-6.30781">
        <ele>213.82</ele>
        <time>2021-03-20T15:20:10Z</time>
      </trkpt>
      <trkpt lat="53.02851" lon="-6.30767">
        <ele>214.79</ele>
        <time>2021-03-20T15:20:12Z</time>
      </trkpt>
      <trkpt lat="53.02786" lon="-6.30739">
        <ele>214.76</ele>
        <time>2021-03-20T15:20:14Z</time>
      </trkpt>
      <trkpt lat="53.02754" lon="-6.30742">
        <ele>215.45</ele>
        <time>2021-03-20T15:20:17Z</time>
      </trkpt>
      <trkpt lat="53.02712" lon="-6.30757">
        <ele>216.75</ele>
        <time>2021-03-20T15:20:19Z</time>
      </trkpt>
      <trkpt lat="53.02689" lon="-6.30769">
        <ele>216.12</ele>
        <time>2021-03-20T15:20:21Z</time>
      </trkpt>
      <trkpt lat="53.02664" lon="-6.30776">
        <ele>215.05</ele>
        <time>2021-03-20T15:20:23Z</time>
      </trkpt>
      <trkpt lat="53.02624" lon="-6.30782">
        <ele>215.29</ele>
        <time>2021-03-20T15:20:25Z</time>
      </trkpt>
      <trkpt lat="53.02584" lon="-6.30781">
        <ele>214.91</ele>
        <time>2021-03-20T15:20:27Z</time>
      </trkpt>
      <trkpt lat="53.0256" lon="-6.30783">
        <ele>213.97</ele>
        <time>2021-03-20T15:20:30Z</time>
      </trkpt>
      <trkpt lat="53.02545" lon="-6.30787">
        <ele>214.43</ele>
        <time>2021-03-20T15:20:32Z</time>
      </trkpt>
      <trkpt lat="53.02526" lon="-6.30796">
        <ele>215.38</ele>
        <time>2021-03-20T15:20:34Z</time>
      </trkpt>
      <trkpt lat="53.02484" lon="-6.30835">
        <ele>213.95</ele>
        <time>2021-03-20T15:20:36Z</time>
      </trkpt>
      <trkpt lat="53.02471" lon="-6.30841">
        <ele>213.75</ele>
        <time>2021-03-20T15:20:38Z</time>
      </trkpt>
      <trkpt lat="53.02442" lon="-6.30842">
        <ele>214.4</ele>
        <time>2021-03-20T15:20:41Z</time>
      </trkpt>
      <trkpt lat="53.02375" lon="-6.30836">
        <ele>212.31</ele>
        <time>2021-03-20T15:20:43Z</time>
      </trkpt>
      <trkpt lat="53.02358" lon="-6.30829">
        <ele>211.92</ele>
        <time>2021-03-20T15:20:45Z</time>
      </trkpt>
      <trkpt lat="53.02323" lon="-6.3081">
        <ele>211.48</ele>
        <time>2021-03-20T15:20:47Z</time>
      </trkpt>
      <trkpt lat="53.02312" lon="-6.30802">
        <ele>211.38</ele>
        <time>2021-03-20T15:20:49Z</time>
      </trkpt>
      <trkpt lat="53.02265" lon="-6.30743">
        <ele>210.06</ele>
        <time>2021-03-20T15:20:52Z</time>
      </trkpt>
      <trkpt lat="53.02236" lon="-6.30694">
        <ele>208.54</ele>
        <time>2021-03-20T15:20:54Z</time>
      </trkpt>
      <trkpt lat="53.02207" lon="-6.30652">
        <ele>207.35</ele>
        <time>2021-03-20T15:20:56Z</time>
      </trkpt>
      <trkpt lat="53.02151" lon="-6.30606">
        <ele>206.07</ele>
        <time>2021-03-20T15:20:58Z</time>
      </trkpt>
      <trkpt lat="53.02128" lon="-6.30584">
        <ele>205.59</ele>
        <time>2021-03-20T15:21:00Z</time>
      </trkpt>
      <trkpt lat="53.02107" lon="-6.3056">
        <ele>205.67</ele>
        <time>2021-03-20T15:21:03Z</time>
      </trkpt>
      <trkpt lat="53.02049" lon="-6.30478">
        <ele>204.1</ele>
        <time>2021-03-20T15:21:05Z</time>
      </trkpt>
      <trkpt lat="53.01979" lon="-6.30432">
        <ele>200.95</ele>
        <time>2021-03-20T15:21:07Z</time>
      </trkpt>
      <trkpt lat="53.01955" lon="-6.30411">
        <ele>200.08</ele>
        <time>2021-03-20T15:21:09Z</time>
      </trkpt>
      <trkpt lat="53.01944" lon="-6.30399">
        <ele>200.21</ele>
        <time>2021-03-20T15:21:11Z</time>
      </trkpt>
      <trkpt lat="53.01898" lon="-6.30336">
        <ele>198.75</ele>
        <time>2021-03-20T15:21:13Z</time>
      </trkpt>
      <trkpt lat="53.01855" lon="-6.30299">
        <ele>198.23</ele>
        <time>2021-03-20T15:21:16Z</time>
      </trkpt>
      <trkpt lat="53.01829" lon="-6.30283">
        <ele>198.57</ele>
        <time>2021-03-20T15:21:18Z</time>
      </trkpt>
      <trkpt lat="53.01802" lon="-6.30274">
        <ele>197.1</ele>
        <time>2021-03-20T15:21:20Z</time>
      </trkpt>
      <trkpt lat="53.0176" lon="-6.30266">
        <ele>198.24</ele>
        <time>2021-03-20T15:21:22Z</time>
      </trkpt>
      <trkpt lat="53.01734" lon="-6.30257">
        <ele>198.98</ele>
        <time>2021-03-20T15:21:24Z</time>
      </trkpt>
      <trkpt lat="53.01709" lon="-6.3024">
        <ele>197.63</ele>
        <time>2021-03-20T15:21:27Z</time>
      </trkpt>
      <trkpt lat="53.01685" lon="-6.30215">
        <ele>194.74</ele>
        <time>2021-03-20T15:21:29Z</time>
      </trkpt>
      <trkpt lat="53.01598" lon="-6.30099">
        <ele>188.74</ele>
        <time>2021-03-20T15:21:31Z</time>
      </trkpt>
      <trkpt lat="53.01567" lon="-6.3005">
        <ele>187.13</ele>
        <time>2021-03-20T15:21:33Z</time>
      </trkpt>
      <trkpt lat="53.01479" lon="-6.29946">
        <ele>182.71</ele>
        <time>2021-03-20T15:21:35Z</time>
      </trkpt>
      <trkpt lat="53.01437" lon="-6.29904">
        <ele>177.9</ele>
        <time>2021-03-20T15:21:38Z</time>
      </trkpt>
      <trkpt lat="53.01402" lon="-6.29872">
        <ele>175.56</ele>
        <time>2021-03-20T15:21:40Z</time>
      </trkpt>
      <trkpt lat="53.01372" lon="-6.2984">
        <ele>173.68</ele>
        <time>2021-03-20T15:21:42Z</time>
      </trkpt>
      <trkpt lat="53.01305" lon="-6.29758">
        <ele>169.04</ele>
        <time>2021-03-20T15:21:44Z</time>
      </trkpt>
      <trkpt lat="53.01251" lon="-6.29683">
        <ele>169.29</ele>
        <time>2021-03-20T15:21:46Z</time>
      </trkpt>
      <trkpt lat="53.01156" lon="-6.29629">
        <ele>164.52</ele>
        <time>2021-03-20T15:21:49Z</time>
      </trkpt>
      <trkpt lat="53.01115" lon="-6.29602">
        <ele>161.78</ele>
        <time>2021-03-20T15:21:51Z</time>
      </trkpt>
      <trkpt lat="53.01054" lon="-6.29561">
        <ele>160.17</ele>
        <time>2021-03-20T15:21:53Z</time>
      </trkpt>
      <trkpt lat="53.01029" lon="-6.29557">
        <ele>158.01</ele>
        <time>2021-03-20T15:21:55Z</time>
      </trkpt>
      <trkpt lat="53.00949" lon="-6.29562">
        <ele>149.13</ele>
        <time>2021-03-20T15:21:57Z</time>
      </trkpt>
      <trkpt lat="53.00921" lon="-6.29563">
        <ele>145.96</ele>
        <time>2021-03-20T15:21:59Z</time>
      </trkpt>
      <trkpt lat="53.00912" lon="-6.29559">
        <ele>145.77</ele>
        <time>2021-03-20T15:22:02Z</time>
      </trkpt>
      <trkpt lat="53.00888" lon="-6.29591">
        <ele>143.43</ele>
        <time>2021-03-20T15:22:04Z</time>
      </trkpt>
      <trkpt lat="53.00874" lon="-6.29615">
        <ele>141.32</ele>
        <time>2021-03-20T15:22:06Z</time>
      </trkpt>
      <trkpt lat="53.00869" lon="-6.29639">
        <ele>140.28</ele>
        <time>2021-03-20T15:22:08Z</time>
      </trkpt>
      <trkpt lat="53.00857" lon="-6.29675">
        <ele>139.39</ele>
        <time>2021-03-20T15:22:10Z</time>
      </trkpt>
      <trkpt lat="53.00846" lon="-6.29726">
        <ele>140.58</ele>
        <time>2021-03-20T15:22:12Z</time>
      </trkpt>
      <trkpt lat="53.00844" lon="-6.29738">
        <ele>140.96</ele>
        <time>2021-03-20T15:22:14Z</time>
      </trkpt>
      <trkpt lat="53.00845" lon="-6.29751">
        <ele>141.43</ele>
        <time>2021-03-20T15:22:16Z</time>
      </trkpt>
      <trkpt lat="53.00811" lon="-6.29756">
        <ele>141.04</ele>
        <time>2021-03-20T15:22:21Z</time>
      </trkpt>
      <trkpt lat="53.00797" lon="-6.29764">
        <ele>140.7</ele>
        <time>2021-03-20T15:22:26Z</time>
      </trkpt>
      <trkpt lat="53.00645" lon="-6.29879">
        <ele>131.59</ele>
        <time>2021-03-20T15:22:31Z</time>
      </trkpt>
      <trkpt lat="53.00604" lon="-6.29903">
        <ele>128.11</ele>
        <time>2021-03-20T15:22:35Z</time>
      </trkpt>
      <trkpt lat="53.00536" lon="-6.29933">
        <ele>126.29</ele>
        <time>2021-03-20T15:22:40Z</time>
      </trkpt>
      <trkpt lat="53.00516" lon="-6.29937">
        <ele>126.58</ele>
        <time>2021-03-20T15:22:45Z</time>
      </trkpt>
      <trkpt lat="53.0043" lon="-6.29913">
        <ele>126.72</ele>
        <time>2021-03-20T15:22:50Z</time>
      </trkpt>
      <trkpt lat="53.00407" lon="-6.29911">
        <ele>127.18</ele>
        <time>2021-03-20T15:22:55Z</time>
      </trkpt>
      <trkpt lat="53.00315" lon="-6.29911">
        <ele>128.24</ele>
        <time>2021-03-20T15:22:59Z</time>
      </trkpt>
      <trkpt lat="53.00252" lon="-6.29895">
        <ele>125.52</ele>
        <time>2021-03-20T15:23:04Z</time>
      </trkpt>
      <trkpt lat="53.00197" lon="-6.29884">
        <ele>123.73</ele>
        <time>2021-03-20T15:23:09Z</time>
      </trkpt>
      <trkpt lat="53.00184" lon="-6.29894">
        <ele>125.28</ele>
        <time>2021-03-20T15:23:14Z</time>
      </trkpt>
      <trkpt lat="53.00172" lon="-6.29919">
        <ele>127.46</ele>
        <time>2021-03-20T15:23:18Z</time>
      </trkpt>
      <trkpt lat="53.00148" lon="-6.29955">
        <ele>127.88</ele>
        <time>2021-03-20T15:23:23Z</time>
      </trkpt>
      <trkpt lat="53.00132" lon="-6.2997">
        <ele>127.97</ele>
        <time>2021-03-20T15:23:28Z</time>
      </trkpt>
      <trkpt lat="53.00118" lon="-6.29977">
        <ele>128</ele>
        <time>2021-03-20T15:23:33Z</time>
      </trkpt>
      <trkpt lat="53.00071" lon="-6.29991">
        <ele>130.69</ele>
        <time>2021-03-20T15:23:38Z</time>
      </trkpt>
      <trkpt lat="53.00016" lon="-6.30002">
        <ele>130.19</ele>
        <time>2021-03-20T15:23:42Z</time>
      </trkpt>
      <trkpt lat="52.99963" lon="-6.30029">
        <ele>130.77</ele>
        <time>2021-03-20T15:23:47Z</time>
      </trkpt>
      <trkpt lat="52.99926" lon="-6.30059">
        <ele>130.86</ele>
        <time>2021-03-20T15:23:52Z</time>
      </trkpt>
      <trkpt lat="52.99905" lon="-6.30069">
        <ele>131.36</ele>
        <time>2021-03-20T15:23:57Z</time>
      </trkpt>
      <trkpt lat="52.99706" lon="-6.30226">
        <ele>151.27</ele>
        <time>2021-03-20T15:24:01Z</time>
      </trkpt>
      <trkpt lat="52.99691" lon="-6.30228">
        <ele>152.89</ele>
        <time>2021-03-20T15:24:06Z</time>
      </trkpt>
      <trkpt lat="52.99692" lon="-6.30245">
        <ele>155.35</ele>
        <time>2021-03-20T15:24:09Z</time>
      </trkpt>
      <trkpt lat="52.99685" lon="-6.30265">
        <ele>158.01</ele>
        <time>2021-03-20T15:24:12Z</time>
      </trkpt>
      <trkpt lat="52.99674" lon="-6.30284">
        <ele>161.51</ele>
        <time>2021-03-20T15:24:15Z</time>
      </trkpt>
      <trkpt lat="52.99627" lon="-6.30299">
        <ele>168</ele>
        <time>2021-03-20T15:24:18Z</time>
      </trkpt>
      <trkpt lat="52.99524" lon="-6.30321">
        <ele>177.33</ele>
        <time>2021-03-20T15:24:21Z</time>
      </trkpt>
      <trkpt lat="52.99468" lon="-6.3034">
        <ele>181.41</ele>
        <time>2021-03-20T15:24:24Z</time>
      </trkpt>
      <trkpt lat="52.99403" lon="-6.30365">
        <ele>186.61</ele>
        <time>2021-03-20T15:24:27Z</time>
      </trkpt>
      <trkpt lat="52.99271" lon="-6.30402">
        <ele>190.52</ele>
        <time>2021-03-20T15:24:29Z</time>
      </trkpt>
      <trkpt lat="52.99239" lon="-6.30423">
        <ele>191.28</ele>
        <time>2021-03-20T15:24:32Z</time>
      </trkpt>
      <trkpt lat="52.99219" lon="-6.30445">
        <ele>192.71</ele>
        <time>2021-03-20T15:24:35Z</time>
      </trkpt>
      <trkpt lat="52.99203" lon="-6.30469">
        <ele>193.59</ele>
        <time>2021-03-20T15:24:38Z</time>
      </trkpt>
      <trkpt lat="52.9917" lon="-6.30539">
        <ele>195.21</ele>
        <time>2021-03-20T15:24:41Z</time>
      </trkpt>
      <trkpt lat="52.9914" lon="-6.30637">
        <ele>196.96</ele>
        <time>2021-03-20T15:24:44Z</time>
      </trkpt>
      <trkpt lat="52.99127" lon="-6.30688">
        <ele>197.93</ele>
        <time>2021-03-20T15:24:47Z</time>
      </trkpt>
      <trkpt lat="52.9912" lon="-6.30731">
        <ele>197.93</ele>
        <time>2021-03-20T15:24:50Z</time>
      </trkpt>
      <trkpt lat="52.99134" lon="-6.30827">
        <ele>204.39</ele>
        <time>2021-03-20T15:24:53Z</time>
      </trkpt>
      <trkpt lat="52.99126" lon="-6.30894">
        <ele>208.18</ele>
        <time>2021-03-20T15:24:56Z</time>
      </trkpt>
      <trkpt lat="52.99123" lon="-6.30933">
        <ele>209.11</ele>
        <time>2021-03-20T15:24:58Z</time>
      </trkpt>
      <trkpt lat="52.99125" lon="-6.30976">
        <ele>211.12</ele>
        <time>2021-03-20T15:25:01Z</time>
      </trkpt>
      <trkpt lat="52.99128" lon="-6.31006">
        <ele>212.56</ele>
        <time>2021-03-20T15:25:04Z</time>
      </trkpt>
      <trkpt lat="52.99134" lon="-6.31033">
        <ele>214.11</ele>
        <time>2021-03-20T15:25:07Z</time>
      </trkpt>
      <trkpt lat="52.99138" lon="-6.31118">
        <ele>216.41</ele>
        <time>2021-03-20T15:25:10Z</time>
      </trkpt>
      <trkpt lat="52.99124" lon="-6.31198">
        <ele>218.97</ele>
        <time>2021-03-20T15:25:13Z</time>
      </trkpt>
      <trkpt lat="52.99111" lon="-6.31296">
        <ele>218.69</ele>
        <time>2021-03-20T15:25:16Z</time>
      </trkpt>
      <trkpt lat="52.99105" lon="-6.31359">
        <ele>219.47</ele>
        <time>2021-03-20T15:25:19Z</time>
      </trkpt>
      <trkpt lat="52.99101" lon="-6.31382">
        <ele>220</ele>
        <time>2021-03-20T15:25:22Z</time>
      </trkpt>
      <trkpt lat="52.99098" lon="-6.3139">
        <ele>220.07</ele>
        <time>2021-03-20T15:25:25Z</time>
      </trkpt>
      <trkpt lat="52.99092" lon="-6.31398">
        <ele>219.83</ele>
        <time>2021-03-20T15:25:27Z</time>
      </trkpt>
      <trkpt lat="52.99081" lon="-6.31397">
        <ele>219.49</ele>
        <time>2021-03-20T15:25:30Z</time>
      </trkpt>
      <trkpt lat="52.99076" lon="-6.31392">
        <ele>219.63</ele>
        <time>2021-03-20T15:25:33Z</time>
      </trkpt>
      <trkpt lat="52.99064" lon="-6.31368">
        <ele>219.64</ele>
        <time>2021-03-20T15:25:36Z</time>
      </trkpt>
      <trkpt lat="52.99053" lon="-6.31354">
        <ele>219.62</ele>
        <time>2021-03-20T15:25:39Z</time>
      </trkpt>
      <trkpt lat="52.98999" lon="-6.31298">
        <ele>220.58</ele>
        <time>2021-03-20T15:25:42Z</time>
      </trkpt>
      <trkpt lat="52.98969" lon="-6.3126">
        <ele>221.36</ele>
        <time>2021-03-20T15:25:45Z</time>
      </trkpt>
      <trkpt lat="52.98938" lon="-6.3121">
        <ele>225.17</ele>
        <time>2021-03-20T15:25:48Z</time>
      </trkpt>
      <trkpt lat="52.98894" lon="-6.31152">
        <ele>230.21</ele>
        <time>2021-03-20T15:25:51Z</time>
      </trkpt>
      <trkpt lat="52.98821" lon="-6.31029">
        <ele>233.17</ele>
        <time>2021-03-20T15:25:54Z</time>
      </trkpt>
      <trkpt lat="52.98804" lon="-6.30994">
        <ele>235.24</ele>
        <time>2021-03-20T15:25:56Z</time>
      </trkpt>
      <trkpt lat="52.98777" lon="-6.30932">
        <ele>237.6</ele>
        <time>2021-03-20T15:25:59Z</time>
      </trkpt>
      <trkpt lat="52.98752" lon="-6.30878">
        <ele>238.26</ele>
        <time>2021-03-20T15:26:02Z</time>
      </trkpt>
      <trkpt lat="52.98702" lon="-6.30734">
        <ele>242.65</ele>
        <time>2021-03-20T15:26:05Z</time>
      </trkpt>
      <trkpt lat="52.98636" lon="-6.30577">
        <ele>247.89</ele>
        <time>2021-03-20T15:26:08Z</time>
      </trkpt>
      <trkpt lat="52.98584" lon="-6.30523">
        <ele>250.59</ele>
        <time>2021-03-20T15:26:11Z</time>
      </trkpt>
      <trkpt lat="52.98568" lon="-6.30511">
        <ele>251.08</ele>
        <time>2021-03-20T15:26:14Z</time>
      </trkpt>
      <trkpt lat="52.98508" lon="-6.3049">
        <ele>255.02</ele>
        <time>2021-03-20T15:26:17Z</time>
      </trkpt>
      <trkpt lat="52.98487" lon="-6.30488">
        <ele>257.15</ele>
        <time>2021-03-20T15:26:20Z</time>
      </trkpt>
      <trkpt lat="52.98384" lon="-6.30494">
        <ele>262.3</ele>
        <time>2021-03-20T15:26:23Z</time>
      </trkpt>
      <trkpt lat="52.98363" lon="-6.30501">
        <ele>264.02</ele>
        <time>2021-03-20T15:26:25Z</time>
      </trkpt>
      <trkpt lat="52.98338" lon="-6.30516">
        <ele>265.03</ele>
        <time>2021-03-20T15:26:28Z</time>
      </trkpt>
      <trkpt lat="52.98326" lon="-6.30529">
        <ele>265.51</ele>
        <time>2021-03-20T15:26:31Z</time>
      </trkpt>
      <trkpt lat="52.98252" lon="-6.30632">
        <ele>273.43</ele>
        <time>2021-03-20T15:26:34Z</time>
      </trkpt>
      <trkpt lat="52.98234" lon="-6.30653">
        <ele>274.19</ele>
        <time>2021-03-20T15:26:37Z</time>
      </trkpt>
      <trkpt lat="52.98218" lon="-6.30667">
        <ele>274.74</ele>
        <time>2021-03-20T15:26:40Z</time>
      </trkpt>
      <trkpt lat="52.98185" lon="-6.30686">
        <ele>274.8</ele>
        <time>2021-03-20T15:26:43Z</time>
      </trkpt>
      <trkpt lat="52.98169" lon="-6.30705">
        <ele>275.76</ele>
        <time>2021-03-20T15:26:46Z</time>
      </trkpt>
      <trkpt lat="52.98145" lon="-6.30745">
        <ele>276.6</ele>
        <time>2021-03-20T15:26:49Z</time>
      </trkpt>
      <trkpt lat="52.98127" lon="-6.30782">
        <ele>277.66</ele>
        <time>2021-03-20T15:26:52Z</time>
      </trkpt>
      <trkpt lat="52.98111" lon="-6.30837">
        <ele>282.33</ele>
        <time>2021-03-20T15:26:54Z</time>
      </trkpt>
      <trkpt lat="52.98106" lon="-6.30861">
        <ele>283.98</ele>
        <time>2021-03-20T15:26:57Z</time>
      </trkpt>
      <trkpt lat="52.98091" lon="-6.30922">
        <ele>285.7</ele>
        <time>2021-03-20T15:27:00Z</time>
      </trkpt>
      <trkpt lat="52.98087" lon="-6.30932">
        <ele>285.64</ele>
        <time>2021-03-20T15:27:03Z</time>
      </trkpt>
      <trkpt lat="52.98077" lon="-6.30947">
        <ele>285.27</ele>
        <time>2021-03-20T15:27:06Z</time>
      </trkpt>
      <trkpt lat="52.98071" lon="-6.30967">
        <ele>285.46</ele>
        <time>2021-03-20T15:27:09Z</time>
      </trkpt>
      <trkpt lat="52.98047" lon="-6.3116">
        <ele>291.17</ele>
        <time>2021-03-20T15:27:12Z</time>
      </trkpt>
      <trkpt lat="52.98043" lon="-6.31201">
        <ele>293.15</ele>
        <time>2021-03-20T15:27:15Z</time>
      </trkpt>
      <trkpt lat="52.98043" lon="-6.31275">
        <ele>296.13</ele>
        <time>2021-03-20T15:27:18Z</time>
      </trkpt>
      <trkpt lat="52.9804" lon="-6.31294">
        <ele>296.61</ele>
        <time>2021-03-20T15:27:21Z</time>
      </trkpt>
      <trkpt lat="52.98037" lon="-6.31395">
        <ele>300.59</ele>
        <time>2021-03-20T15:27:23Z</time>
      </trkpt>
      <trkpt lat="52.98041" lon="-6.3147">
        <ele>304.78</ele>
        <time>2021-03-20T15:27:26Z</time>
      </trkpt>
      <trkpt lat="52.98038" lon="-6.31494">
        <ele>305.08</ele>
        <time>2021-03-20T15:27:29Z</time>
      </trkpt>
      <trkpt lat="52.98034" lon="-6.3151">
        <ele>305.06</ele>
        <time>2021-03-20T15:27:32Z</time>
      </trkpt>
      <trkpt lat="52.98016" lon="-6.31557">
        <ele>305.4</ele>
        <time>2021-03-20T15:27:35Z</time>
      </trkpt>
      <trkpt lat="52.98" lon="-6.31612">
        <ele>306.03</ele>
        <time>2021-03-20T15:27:38Z</time>
      </trkpt>
      <trkpt lat="52.97998" lon="-6.31624">
        <ele>306.63</ele>
        <time>2021-03-20T15:27:41Z</time>
      </trkpt>
      <trkpt lat="52.98" lon="-6.31666">
        <ele>309.02</ele>
        <time>2021-03-20T15:27:44Z</time>
      </trkpt>
      <trkpt lat="52.98" lon="-6.31708">
        <ele>310.46</ele>
        <time>2021-03-20T15:27:47Z</time>
      </trkpt>
      <trkpt lat="52.97995" lon="-6.31747">
        <ele>312.54</ele>
        <time>2021-03-20T15:27:50Z</time>
      </trkpt>
      <trkpt lat="52.9799" lon="-6.31762">
        <ele>313.46</ele>
        <time>2021-03-20T15:27:52Z</time>
      </trkpt>
      <trkpt lat="52.97983" lon="-6.31773">
        <ele>314.05</ele>
        <time>2021-03-20T15:27:55Z</time>
      </trkpt>
      <trkpt lat="52.97961" lon="-6.31795">
        <ele>316.48</ele>
        <time>2021-03-20T15:27:58Z</time>
      </trkpt>
      <trkpt lat="52.9789" lon="-6.31837">
        <ele>323.43</ele>
        <time>2021-03-20T15:28:01Z</time>
      </trkpt>
      <trkpt lat="52.97882" lon="-6.3184">
        <ele>324.9</ele>
        <time>2021-03-20T15:28:04Z</time>
      </trkpt>
      <trkpt lat="52.97872" lon="-6.31839">
        <ele>326.01</ele>
        <time>2021-03-20T15:28:07Z</time>
      </trkpt>
      <trkpt lat="52.97821" lon="-6.31802">
        <ele>330.73</ele>
        <time>2021-03-20T15:28:10Z</time>
      </trkpt>
      <trkpt lat="52.97768" lon="-6.31786">
        <ele>331.43</ele>
        <time>2021-03-20T15:28:13Z</time>
      </trkpt>
      <trkpt lat="52.97731" lon="-6.31769">
        <ele>330.56</ele>
        <time>2021-03-20T15:28:16Z</time>
      </trkpt>
      <trkpt lat="52.97707" lon="-6.31767">
        <ele>331.21</ele>
        <time>2021-03-20T15:28:19Z</time>
      </trkpt>
      <trkpt lat="52.97653" lon="-6.31777">
        <ele>335.28</ele>
        <time>2021-03-20T15:28:22Z</time>
      </trkpt>
      <trkpt lat="52.97618" lon="-6.31778">
        <ele>339.27</ele>
        <time>2021-03-20T15:28:24Z</time>
      </trkpt>
      <trkpt lat="52.97587" lon="-6.31771">
        <ele>340.78</ele>
        <time>2021-03-20T15:28:27Z</time>
      </trkpt>
      <trkpt lat="52.97535" lon="-6.31751">
        <ele>341.27</ele>
        <time>2021-03-20T15:28:30Z</time>
      </trkpt>
      <trkpt lat="52.97507" lon="-6.31731">
        <ele>343.63</ele>
        <time>2021-03-20T15:28:33Z</time>
      </trkpt>
      <trkpt lat="52.97488" lon="-6.31707">
        <ele>345.39</ele>
        <time>2021-03-20T15:28:36Z</time>
      </trkpt>
      <trkpt lat="52.97433" lon="-6.31625">
        <ele>346.05</ele>
        <time>2021-03-20T15:28:39Z</time>
      </trkpt>
      <trkpt lat="52.97404" lon="-6.31591">
        <ele>344.96</ele>
        <time>2021-03-20T15:28:42Z</time>
      </trkpt>
      <trkpt lat="52.97377" lon="-6.31561">
        <ele>345.42</ele>
        <time>2021-03-20T15:28:45Z</time>
      </trkpt>
      <trkpt lat="52.97335" lon="-6.31522">
        <ele>346.85</ele>
        <time>2021-03-20T15:28:48Z</time>
      </trkpt>
      <trkpt lat="52.97296" lon="-6.31495">
        <ele>349.44</ele>
        <time>2021-03-20T15:28:51Z</time>
      </trkpt>
      <trkpt lat="52.97266" lon="-6.31478">
        <ele>352.26</ele>
        <time>2021-03-20T15:28:53Z</time>
      </trkpt>
      <trkpt lat="52.97253" lon="-6.31473">
        <ele>353.76</ele>
        <time>2021-03-20T15:28:56Z</time>
      </trkpt>
      <trkpt lat="52.97173" lon="-6.31463">
        <ele>357.34</ele>
        <time>2021-03-20T15:28:59Z</time>
      </trkpt>
      <trkpt lat="52.9715" lon="-6.31462">
        <ele>357.59</ele>
        <time>2021-03-20T15:29:02Z</time>
      </trkpt>
      <trkpt lat="52.97119" lon="-6.31465">
        <ele>358.42</ele>
        <time>2021-03-20T15:29:05Z</time>
      </trkpt>
      <trkpt lat="52.97105" lon="-6.3147">
        <ele>359.11</ele>
        <time>2021-03-20T15:29:08Z</time>
      </trkpt>
      <trkpt lat="52.97077" lon="-6.31496">
        <ele>360.54</ele>
        <time>2021-03-20T15:29:11Z</time>
      </trkpt>
      <trkpt lat="52.97054" lon="-6.31521">
        <ele>362.33</ele>
        <time>2021-03-20T15:29:14Z</time>
      </trkpt>
      <trkpt lat="52.96983" lon="-6.3164">
        <ele>379.13</ele>
        <time>2021-03-20T15:29:17Z</time>
      </trkpt>
      <trkpt lat="52.9697" lon="-6.31665">
        <ele>381.66</ele>
        <time>2021-03-20T15:29:20Z</time>
      </trkpt>
      <trkpt lat="52.96959" lon="-6.317">
        <ele>382.73</ele>
        <time>2021-03-20T15:29:22Z</time>
      </trkpt>
      <trkpt lat="52.96945" lon="-6.31759">
        <ele>382.02</ele>
        <time>2021-03-20T15:29:25Z</time>
      </trkpt>
      <trkpt lat="52.96928" lon="-6.31807">
        <ele>381.77</ele>
        <time>2021-03-20T15:29:28Z</time>
      </trkpt>
      <trkpt lat="52.9691" lon="-6.31851">
        <ele>380.62</ele>
        <time>2021-03-20T15:29:31Z</time>
      </trkpt>
      <trkpt lat="52.96889" lon="-6.31894">
        <ele>378.8</ele>
        <time>2021-03-20T15:29:34Z</time>
      </trkpt>
      <trkpt lat="52.96856" lon="-6.3195">
        <ele>374.09</ele>
        <time>2021-03-20T15:29:37Z</time>
      </trkpt>
      <trkpt lat="52.96818" lon="-6.3201">
        <ele>365.78</ele>
        <time>2021-03-20T15:29:40Z</time>
      </trkpt>
      <trkpt lat="52.968" lon="-6.32045">
        <ele>361.82</ele>
        <time>2021-03-20T15:29:43Z</time>
      </trkpt>
      <trkpt lat="52.9675" lon="-6.32152">
        <ele>354.54</ele>
        <time>2021-03-20T15:29:46Z</time>
      </trkpt>
      <trkpt lat="52.96719" lon="-6.32228">
        <ele>349.87</ele>
        <time>2021-03-20T15:29:49Z</time>
      </trkpt>
      <trkpt lat="52.9671" lon="-6.32255">
        <ele>348.24</ele>
        <time>2021-03-20T15:29:51Z</time>
      </trkpt>
      <trkpt lat="52.96703" lon="-6.32285">
        <ele>345.57</ele>
        <time>2021-03-20T15:29:54Z</time>
      </trkpt>
      <trkpt lat="52.96678" lon="-6.32428">
        <ele>337.92</ele>
        <time>2021-03-20T15:29:57Z</time>
      </trkpt>
      <trkpt lat="52.96648" lon="-6.3258">
        <ele>330.21</ele>
        <time>2021-03-20T15:30:00Z</time>
      </trkpt>
      <trkpt lat="52.96635" lon="-6.32689">
        <ele>324.41</ele>
        <time>2021-03-20T15:30:03Z</time>
      </trkpt>
      <trkpt lat="52.96627" lon="-6.32771">
        <ele>319.35</ele>
        <time>2021-03-20T15:30:06Z</time>
      </trkpt>
      <trkpt lat="52.96625" lon="-6.3291">
        <ele>313.87</ele>
        <time>2021-03-20T15:30:09Z</time>
      </trkpt>
      <trkpt lat="52.9662" lon="-6.32968">
        <ele>311.23</ele>
        <time>2021-03-20T15:30:12Z</time>
      </trkpt>
      <trkpt lat="52.96599" lon="-6.33079">
        <ele>304.24</ele>
        <time>2021-03-20T15:30:15Z</time>
      </trkpt>
      <trkpt lat="52.96579" lon="-6.33304">
        <ele>289.64</ele>
        <time>2021-03-20T15:30:18Z</time>
      </trkpt>
      <trkpt lat="52.96571" lon="-6.33442">
        <ele>282.64</ele>
        <time>2021-03-20T15:30:20Z</time>
      </trkpt>
      <trkpt lat="52.96579" lon="-6.33544">
        <ele>280.32</ele>
        <time>2021-03-20T15:30:23Z</time>
      </trkpt>
      <trkpt lat="52.96596" lon="-6.33628">
        <ele>271.68</ele>
        <time>2021-03-20T15:30:26Z</time>
      </trkpt>
      <trkpt lat="52.966" lon="-6.3367">
        <ele>267.84</ele>
        <time>2021-03-20T15:30:29Z</time>
      </trkpt>
      <trkpt lat="52.966" lon="-6.33827">
        <ele>256.85</ele>
        <time>2021-03-20T15:30:32Z</time>
      </trkpt>
      <trkpt lat="52.96587" lon="-6.33961">
        <ele>251.04</ele>
        <time>2021-03-20T15:30:35Z</time>
      </trkpt>
      <trkpt lat="52.9658" lon="-6.34">
        <ele>248.56</ele>
        <time>2021-03-20T15:30:38Z</time>
      </trkpt>
      <trkpt lat="52.96572" lon="-6.34037">
        <ele>246.59</ele>
        <time>2021-03-20T15:30:41Z</time>
      </trkpt>
      <trkpt lat="52.96551" lon="-6.34118">
        <ele>242.01</ele>
        <time>2021-03-20T15:30:44Z</time>
      </trkpt>
      <trkpt lat="52.96443" lon="-6.34377">
        <ele>233.87</ele>
        <time>2021-03-20T15:30:47Z</time>
      </trkpt>
      <trkpt lat="52.96339" lon="-6.34656">
        <ele>220.66</ele>
        <time>2021-03-20T15:30:49Z</time>
      </trkpt>
      <trkpt lat="52.96316" lon="-6.34705">
        <ele>217.57</ele>
        <time>2021-03-20T15:30:52Z</time>
      </trkpt>
      <trkpt lat="52.96251" lon="-6.34809">
        <ele>213.49</ele>
        <time>2021-03-20T15:30:55Z</time>
      </trkpt>
      <trkpt lat="52.9624" lon="-6.34838">
        <ele>212.22</ele>
        <time>2021-03-20T15:30:58Z</time>
      </trkpt>
      <trkpt lat="52.96224" lon="-6.34888">
        <ele>206.96</ele>
        <time>2021-03-20T15:31:01Z</time>
      </trkpt>
      <trkpt lat="52.962" lon="-6.3494">
        <ele>205.61</ele>
        <time>2021-03-20T15:31:04Z</time>
      </trkpt>
      <trkpt lat="52.96172" lon="-6.34989">
        <ele>201.13</ele>
        <time>2021-03-20T15:31:07Z</time>
      </trkpt>
      <trkpt lat="52.96095" lon="-6.35081">
        <ele>192.58</ele>
        <time>2021-03-20T15:31:10Z</time>
      </trkpt>
      <trkpt lat="52.96035" lon="-6.35159">
        <ele>182.26</ele>
        <time>2021-03-20T15:31:13Z</time>
      </trkpt>
      <trkpt lat="52.9598" lon="-6.35207">
        <ele>173.41</ele>
        <time>2021-03-20T15:31:16Z</time>
      </trkpt>
      <trkpt lat="52.95979" lon="-6.35208">
        <ele>173.27</ele>
        <time>2021-03-20T15:31:18Z</time>
      </trkpt>
      <trkpt lat="52.9583" lon="-6.35309">
        <ele>153.29</ele>
        <time>2021-03-20T15:31:21Z</time>
      </trkpt>
      <trkpt lat="52.95817" lon="-6.35321">
        <ele>150.2</ele>
        <time>2021-03-20T15:31:24Z</time>
      </trkpt>
      <trkpt lat="52.95803" lon="-6.3534">
        <ele>146.55</ele>
        <time>2021-03-20T15:31:27Z</time>
      </trkpt>
      <trkpt lat="52.95796" lon="-6.35354">
        <ele>145.39</ele>
        <time>2021-03-20T15:31:30Z</time>
      </trkpt>
      <trkpt lat="52.95785" lon="-6.35398">
        <ele>142.71</ele>
        <time>2021-03-20T15:31:33Z</time>
      </trkpt>
      <trkpt lat="52.95774" lon="-6.35433">
        <ele>140.31</ele>
        <time>2021-03-20T15:31:36Z</time>
      </trkpt>
      <trkpt lat="52.95767" lon="-6.35469">
        <ele>138.18</ele>
        <time>2021-03-20T15:31:39Z</time>
      </trkpt>
      <trkpt lat="52.95754" lon="-6.35516">
        <ele>134.22</ele>
        <time>2021-03-20T15:31:42Z</time>
      </trkpt>
      <trkpt lat="52.95745" lon="-6.35534">
        <ele>132.46</ele>
        <time>2021-03-20T15:31:45Z</time>
      </trkpt>
      <trkpt lat="52.95698" lon="-6.35575">
        <ele>126.57</ele>
        <time>2021-03-20T15:31:47Z</time>
      </trkpt>
      <trkpt lat="52.95685" lon="-6.3559">
        <ele>125.52</ele>
        <time>2021-03-20T15:31:50Z</time>
      </trkpt>
      <trkpt lat="52.95672" lon="-6.35612">
        <ele>125</ele>
        <time>2021-03-20T15:31:53Z</time>
      </trkpt>
      <trkpt lat="52.9566" lon="-6.35641">
        <ele>125.24</ele>
        <time>2021-03-20T15:31:56Z</time>
      </trkpt>
      <trkpt lat="52.95624" lon="-6.35712">
        <ele>127.52</ele>
        <time>2021-03-20T15:31:59Z</time>
      </trkpt>
      <trkpt lat="52.95593" lon="-6.35757">
        <ele>129.29</ele>
        <time>2021-03-20T15:32:02Z</time>
      </trkpt>
      <trkpt lat="52.95584" lon="-6.35766">
        <ele>129.96</ele>
        <time>2021-03-20T15:32:05Z</time>
      </trkpt>
      <trkpt lat="52.95557" lon="-6.35782">
        <ele>132.69</ele>
        <time>2021-03-20T15:32:08Z</time>
      </trkpt>
      <trkpt lat="52.95478" lon="-6.35814">
        <ele>131.2</ele>
        <time>2021-03-20T15:32:11Z</time>
      </trkpt>
      <trkpt lat="52.95379" lon="-6.35882">
        <ele>137.57</ele>
        <time>2021-03-20T15:32:14Z</time>
      </trkpt>
      <trkpt lat="52.95354" lon="-6.35887">
        <ele>140.21</ele>
        <time>2021-03-20T15:32:16Z</time>
      </trkpt>
      <trkpt lat="52.95345" lon="-6.35887">
        <ele>142.9</ele>
        <time>2021-03-20T15:32:19Z</time>
      </trkpt>
      <trkpt lat="52.95338" lon="-6.35883">
        <ele>144.69</ele>
        <time>2021-03-20T15:32:22Z</time>
      </trkpt>
      <trkpt lat="52.95329" lon="-6.35871">
        <ele>146.64</ele>
        <time>2021-03-20T15:32:25Z</time>
      </trkpt>
      <trkpt lat="52.95247" lon="-6.35718">
        <ele>157.56</ele>
        <time>2021-03-20T15:32:28Z</time>
      </trkpt>
      <trkpt lat="52.95208" lon="-6.35629">
        <ele>153.77</ele>
        <time>2021-03-20T15:32:31Z</time>
      </trkpt>
      <trkpt lat="52.95194" lon="-6.35621">
        <ele>157.09</ele>
        <time>2021-03-20T15:32:34Z</time>
      </trkpt>
      <trkpt lat="52.95175" lon="-6.35614">
        <ele>166.35</ele>
        <time>2021-03-20T15:32:37Z</time>
      </trkpt>
      <trkpt lat="52.95156" lon="-6.35589">
        <ele>169.31</ele>
        <time>2021-03-20T15:32:40Z</time>
      </trkpt>
      <trkpt lat="52.95139" lon="-6.35562">
        <ele>168.31</ele>
        <time>2021-03-20T15:32:43Z</time>
      </trkpt>
      <trkpt lat="52.95122" lon="-6.35551">
        <ele>169.74</ele>
        <time>2021-03-20T15:32:45Z</time>
      </trkpt>
      <trkpt lat="52.95096" lon="-6.35549">
        <ele>177.19</ele>
        <time>2021-03-20T15:32:48Z</time>
      </trkpt>
      <trkpt lat="52.95076" lon="-6.35542">
        <ele>181.17</ele>
        <time>2021-03-20T15:32:51Z</time>
      </trkpt>
      <trkpt lat="52.95017" lon="-6.35495">
        <ele>186.27</ele>
        <time>2021-03-20T15:32:54Z</time>
      </trkpt>
      <trkpt lat="52.94988" lon="-6.35467">
        <ele>191.94</ele>
        <time>2021-03-20T15:32:57Z</time>
      </trkpt>
      <trkpt lat="52.94968" lon="-6.35441">
        <ele>194.87</ele>
        <time>2021-03-20T15:33:00Z</time>
      </trkpt>
      <trkpt lat="52.94948" lon="-6.3541">
        <ele>194.67</ele>
        <time>2021-03-20T15:33:03Z</time>
      </trkpt>
      <trkpt lat="52.9492" lon="-6.35379">
        <ele>200.3</ele>
        <time>2021-03-20T15:33:06Z</time>
      </trkpt>
      <trkpt lat="52.94882" lon="-6.35358">
        <ele>204.15</ele>
        <time>2021-03-20T15:33:09Z</time>
      </trkpt>
      <trkpt lat="52.9483" lon="-6.35338">
        <ele>204.9</ele>
        <time>2021-03-20T15:33:12Z</time>
      </trkpt>
      <trkpt lat="52.9482" lon="-6.35338">
        <ele>205.22</ele>
        <time>2021-03-20T15:33:15Z</time>
      </trkpt>
      <trkpt lat="52.94809" lon="-6.35345">
        <ele>206.68</ele>
        <time>2021-03-20T15:33:17Z</time>
      </trkpt>
      <trkpt lat="52.94764" lon="-6.35389">
        <ele>211.02</ele>
        <time>2021-03-20T15:33:20Z</time>
      </trkpt>
      <trkpt lat="52.94722" lon="-6.35435">
        <ele>214.58</ele>
        <time>2021-03-20T15:33:23Z</time>
      </trkpt>
      <trkpt lat="52.94716" lon="-6.35445">
        <ele>215.81</ele>
        <time>2021-03-20T15:33:26Z</time>
      </trkpt>
      <trkpt lat="52.94661" lon="-6.35602">
        <ele>228.15</ele>
        <time>2021-03-20T15:33:29Z</time>
      </trkpt>
      <trkpt lat="52.94647" lon="-6.3564">
        <ele>230.26</ele>
        <time>2021-03-20T15:33:32Z</time>
      </trkpt>
      <trkpt lat="52.9463" lon="-6.3568">
        <ele>233.06</ele>
        <time>2021-03-20T15:33:35Z</time>
      </trkpt>
      <trkpt lat="52.94609" lon="-6.35721">
        <ele>237.56</ele>
        <time>2021-03-20T15:33:38Z</time>
      </trkpt>
      <trkpt lat="52.9458" lon="-6.35758">
        <ele>242.17</ele>
        <time>2021-03-20T15:33:41Z</time>
      </trkpt>
      <trkpt lat="52.9455" lon="-6.3581">
        <ele>247.05</ele>
        <time>2021-03-20T15:33:44Z</time>
      </trkpt>
      <trkpt lat="52.94541" lon="-6.35838">
        <ele>249.67</ele>
        <time>2021-03-20T15:33:46Z</time>
      </trkpt>
      <trkpt lat="52.9453" lon="-6.35879">
        <ele>254</ele>
        <time>2021-03-20T15:33:49Z</time>
      </trkpt>
      <trkpt lat="52.94515" lon="-6.35921">
        <ele>258.02</ele>
        <time>2021-03-20T15:33:52Z</time>
      </trkpt>
      <trkpt lat="52.94488" lon="-6.35985">
        <ele>261.81</ele>
        <time>2021-03-20T15:33:55Z</time>
      </trkpt>
      <trkpt lat="52.94472" lon="-6.36016">
        <ele>261.67</ele>
        <time>2021-03-20T15:33:58Z</time>
      </trkpt>
      <trkpt lat="52.94457" lon="-6.36037">
        <ele>261.9</ele>
        <time>2021-03-20T15:34:01Z</time>
      </trkpt>
      <trkpt lat="52.94406" lon="-6.36074">
        <ele>265.74</ele>
        <time>2021-03-20T15:34:04Z</time>
      </trkpt>
      <trkpt lat="52.94386" lon="-6.36091">
        <ele>267.74</ele>
        <time>2021-03-20T15:34:07Z</time>
      </trkpt>
      <trkpt lat="52.94371" lon="-6.36108">
        <ele>269.03</ele>
        <time>2021-03-20T15:34:10Z</time>
      </trkpt>
      <trkpt lat="52.94345" lon="-6.36144">
        <ele>272.43</ele>
        <time>2021-03-20T15:34:13Z</time>
      </trkpt>
      <trkpt lat="52.94327" lon="-6.36174">
        <ele>274.48</ele>
        <time>2021-03-20T15:34:15Z</time>
      </trkpt>
      <trkpt lat="52.94287" lon="-6.36252">
        <ele>279.45</ele>
        <time>2021-03-20T15:34:18Z</time>
      </trkpt>
      <trkpt lat="52.94266" lon="-6.36297">
        <ele>282.83</ele>
        <time>2021-03-20T15:34:21Z</time>
      </trkpt>
      <trkpt lat="52.94234" lon="-6.36353">
        <ele>286.3</ele>
        <time>2021-03-20T15:34:24Z</time>
      </trkpt>
      <trkpt lat="52.94223" lon="-6.36377">
        <ele>287.82</ele>
        <time>2021-03-20T15:34:27Z</time>
      </trkpt>
      <trkpt lat="52.94189" lon="-6.36464">
        <ele>294.51</ele>
        <time>2021-03-20T15:34:30Z</time>
      </trkpt>
      <trkpt lat="52.94171" lon="-6.36512">
        <ele>295.95</ele>
        <time>2021-03-20T15:34:33Z</time>
      </trkpt>
      <trkpt lat="52.94157" lon="-6.36582">
        <ele>299.57</ele>
        <time>2021-03-20T15:34:36Z</time>
      </trkpt>
      <trkpt lat="52.94125" lon="-6.36706">
        <ele>304.27</ele>
        <time>2021-03-20T15:34:39Z</time>
      </trkpt>
      <trkpt lat="52.9412" lon="-6.36731">
        <ele>305.35</ele>
        <time>2021-03-20T15:34:42Z</time>
      </trkpt>
      <trkpt lat="52.9412" lon="-6.3679">
        <ele>310.44</ele>
        <time>2021-03-20T15:34:44Z</time>
      </trkpt>
      <trkpt lat="52.94109" lon="-6.36885">
        <ele>318.26</ele>
        <time>2021-03-20T15:34:47Z</time>
      </trkpt>
      <trkpt lat="52.94094" lon="-6.36974">
        <ele>322.55</ele>
        <time>2021-03-20T15:34:50Z</time>
      </trkpt>
      <trkpt lat="52.94087" lon="-6.37036">
        <ele>327.25</ele>
        <time>2021-03-20T15:34:53Z</time>
      </trkpt>
      <trkpt lat="52.94082" lon="-6.37062">
        <ele>328.43</ele>
        <time>2021-03-20T15:34:56Z</time>
      </trkpt>
      <trkpt lat="52.94076" lon="-6.37091">
        <ele>329.44</ele>
        <time>2021-03-20T15:34:59Z</time>
      </trkpt>
      <trkpt lat="52.94055" lon="-6.37162">
        <ele>329.32</ele>
        <time>2021-03-20T15:35:02Z</time>
      </trkpt>
      <trkpt lat="52.94042" lon="-6.37222">
        <ele>333.15</ele>
        <time>2021-03-20T15:35:05Z</time>
      </trkpt>
      <trkpt lat="52.94021" lon="-6.37296">
        <ele>335.76</ele>
        <time>2021-03-20T15:35:08Z</time>
      </trkpt>
      <trkpt lat="52.94" lon="-6.37398">
        <ele>342.59</ele>
        <time>2021-03-20T15:35:11Z</time>
      </trkpt>
      <trkpt lat="52.93974" lon="-6.37496">
        <ele>349.15</ele>
        <time>2021-03-20T15:35:13Z</time>
      </trkpt>
      <trkpt lat="52.93964" lon="-6.3752">
        <ele>351.52</ele>
        <time>2021-03-20T15:35:16Z</time>
      </trkpt>
      <trkpt lat="52.9392" lon="-6.3761">
        <ele>352.33</ele>
        <time>2021-03-20T15:35:19Z</time>
      </trkpt>
      <trkpt lat="52.93888" lon="-6.37698">
        <ele>362.43</ele>
        <time>2021-03-20T15:35:22Z</time>
      </trkpt>
      <trkpt lat="52.93875" lon="-6.37723">
        <ele>363.56</ele>
        <time>2021-03-20T15:35:25Z</time>
      </trkpt>
      <trkpt lat="52.93849" lon="-6.37765">
        <ele>364.98</ele>
        <time>2021-03-20T15:35:28Z</time>
      </trkpt>
      <trkpt lat="52.93798" lon="-6.37826">
        <ele>370.17</ele>
        <time>2021-03-20T15:35:31Z</time>
      </trkpt>
      <trkpt lat="52.93735" lon="-6.37907">
        <ele>378.54</ele>
        <time>2021-03-20T15:35:34Z</time>
      </trkpt>
      <trkpt lat="52.93697" lon="-6.37943">
        <ele>380.1</ele>
        <time>2021-03-20T15:35:37Z</time>
      </trkpt>
      <trkpt lat="52.93676" lon="-6.37956">
        <ele>380.22</ele>
        <time>2021-03-20T15:35:40Z</time>
      </trkpt>
      <trkpt lat="52.93653" lon="-6.3796">
        <ele>380.25</ele>
        <time>2021-03-20T15:35:42Z</time>
      </trkpt>
      <trkpt lat="52.93621" lon="-6.3797">
        <ele>383.41</ele>
        <time>2021-03-20T15:35:45Z</time>
      </trkpt>
      <trkpt lat="52.93593" lon="-6.37982">
        <ele>385.94</ele>
        <time>2021-03-20T15:35:48Z</time>
      </trkpt>
      <trkpt lat="52.93577" lon="-6.37994">
        <ele>387.29</ele>
        <time>2021-03-20T15:35:51Z</time>
      </trkpt>
      <trkpt lat="52.93549" lon="-6.3802">
        <ele>389.58</ele>
        <time>2021-03-20T15:35:54Z</time>
      </trkpt>
      <trkpt lat="52.93507" lon="-6.38064">
        <ele>395.49</ele>
        <time>2021-03-20T15:35:57Z</time>
      </trkpt>
      <trkpt lat="52.93432" lon="-6.38163">
        <ele>406.12</ele>
        <time>2021-03-20T15:36:00Z</time>
      </trkpt>
      <trkpt lat="52.93394" lon="-6.38209">
        <ele>411.38</ele>
        <time>2021-03-20T15:36:03Z</time>
      </trkpt>
      <trkpt lat="52.93369" lon="-6.38242">
        <ele>415.94</ele>
        <time>2021-03-20T15:36:06Z</time>
      </trkpt>
      <trkpt lat="52.93352" lon="-6.3827">
        <ele>420.45</ele>
        <time>2021-03-20T15:36:09Z</time>
      </trkpt>
      <trkpt lat="52.93341" lon="-6.3828">
        <ele>421.51</ele>
        <time>2021-03-20T15:36:11Z</time>
      </trkpt>
      <trkpt lat="52.93299" lon="-6.38294">
        <ele>425.02</ele>
        <time>2021-03-20T15:36:14Z</time>
      </trkpt>
      <trkpt lat="52.93266" lon="-6.38297">
        <ele>426.73</ele>
        <time>2021-03-20T15:36:17Z</time>
      </trkpt>
      <trkpt lat="52.93175" lon="-6.3831">
        <ele>435.24</ele>
        <time>2021-03-20T15:36:20Z</time>
      </trkpt>
      <trkpt lat="52.93031" lon="-6.38311">
        <ele>445.39</ele>
        <time>2021-03-20T15:36:23Z</time>
      </trkpt>
      <trkpt lat="52.92962" lon="-6.38308">
        <ele>452.89</ele>
        <time>2021-03-20T15:36:26Z</time>
      </trkpt>
      <trkpt lat="52.92928" lon="-6.38302">
        <ele>453.82</ele>
        <time>2021-03-20T15:36:29Z</time>
      </trkpt>
      <trkpt lat="52.92906" lon="-6.38306">
        <ele>454.78</ele>
        <time>2021-03-20T15:36:32Z</time>
      </trkpt>
      <trkpt lat="52.92894" lon="-6.38312">
        <ele>455.7</ele>
        <time>2021-03-20T15:36:35Z</time>
      </trkpt>
      <trkpt lat="52.92832" lon="-6.38368">
        <ele>454.54</ele>
        <time>2021-03-20T15:36:38Z</time>
      </trkpt>
      <trkpt lat="52.92815" lon="-6.3839">
        <ele>452.96</ele>
        <time>2021-03-20T15:36:40Z</time>
      </trkpt>
      <trkpt lat="52.92808" lon="-6.38403">
        <ele>452.16</ele>
        <time>2021-03-20T15:36:43Z</time>
      </trkpt>
      <trkpt lat="52.9279" lon="-6.38445">
        <ele>449.41</ele>
        <time>2021-03-20T15:36:46Z</time>
      </trkpt>
      <trkpt lat="52.92781" lon="-6.38462">
        <ele>447.93</ele>
        <time>2021-03-20T15:36:49Z</time>
      </trkpt>
      <trkpt lat="52.92749" lon="-6.38497">
        <ele>444.02</ele>
        <time>2021-03-20T15:36:52Z</time>
      </trkpt>
      <trkpt lat="52.92706" lon="-6.38529">
        <ele>438.67</ele>
        <time>2021-03-20T15:36:55Z</time>
      </trkpt>
      <trkpt lat="52.92683" lon="-6.38535">
        <ele>436.4</ele>
        <time>2021-03-20T15:36:58Z</time>
      </trkpt>
      <trkpt lat="52.92595" lon="-6.38544">
        <ele>428.51</ele>
        <time>2021-03-20T15:37:01Z</time>
      </trkpt>
      <trkpt lat="52.92556" lon="-6.38544">
        <ele>425.86</ele>
        <time>2021-03-20T15:37:04Z</time>
      </trkpt>
      <trkpt lat="52.92528" lon="-6.38538">
        <ele>424.25</ele>
        <time>2021-03-20T15:37:07Z</time>
      </trkpt>
      <trkpt lat="52.92466" lon="-6.38517">
        <ele>422.43</ele>
        <time>2021-03-20T15:37:09Z</time>
      </trkpt>
      <trkpt lat="52.92388" lon="-6.38499">
        <ele>417.02</ele>
        <time>2021-03-20T15:37:12Z</time>
      </trkpt>
      <trkpt lat="52.92282" lon="-6.38502">
        <ele>406.26</ele>
        <time>2021-03-20T15:37:15Z</time>
      </trkpt>
      <trkpt lat="52.92258" lon="-6.38506">
        <ele>408.05</ele>
        <time>2021-03-20T15:37:18Z</time>
      </trkpt>
      <trkpt lat="52.92231" lon="-6.38516">
        <ele>410.45</ele>
        <time>2021-03-20T15:37:21Z</time>
      </trkpt>
      <trkpt lat="52.9221" lon="-6.38536">
        <ele>411.38</ele>
        <time>2021-03-20T15:37:24Z</time>
      </trkpt>
      <trkpt lat="52.92176" lon="-6.38578">
        <ele>411.27</ele>
        <time>2021-03-20T15:37:27Z</time>
      </trkpt>
      <trkpt lat="52.92151" lon="-6.38614">
        <ele>408.17</ele>
        <time>2021-03-20T15:37:30Z</time>
      </trkpt>
      <trkpt lat="52.92061" lon="-6.38763">
        <ele>397.89</ele>
        <time>2021-03-20T15:37:33Z</time>
      </trkpt>
      <trkpt lat="52.92043" lon="-6.38799">
        <ele>397.4</ele>
        <time>2021-03-20T15:37:36Z</time>
      </trkpt>
      <trkpt lat="52.92016" lon="-6.38866">
        <ele>396.47</ele>
        <time>2021-03-20T15:37:38Z</time>
      </trkpt>
      <trkpt lat="52.91986" lon="-6.38959">
        <ele>392.13</ele>
        <time>2021-03-20T15:37:41Z</time>
      </trkpt>
      <trkpt lat="52.91969" lon="-6.39029">
        <ele>384.33</ele>
        <time>2021-03-20T15:37:44Z</time>
      </trkpt>
      <trkpt lat="52.91944" lon="-6.39161">
        <ele>379.04</ele>
        <time>2021-03-20T15:37:47Z</time>
      </trkpt>
      <trkpt lat="52.91935" lon="-6.39226">
        <ele>375.95</ele>
        <time>2021-03-20T15:37:50Z</time>
      </trkpt>
      <trkpt lat="52.91934" lon="-6.39259">
        <ele>372.44</ele>
        <time>2021-03-20T15:37:53Z</time>
      </trkpt>
      <trkpt lat="52.91931" lon="-6.39299">
        <ele>370.71</ele>
        <time>2021-03-20T15:37:56Z</time>
      </trkpt>
      <trkpt lat="52.91917" lon="-6.39396">
        <ele>370.33</ele>
        <time>2021-03-20T15:37:59Z</time>
      </trkpt>
      <trkpt lat="52.91902" lon="-6.39608">
        <ele>358.41</ele>
        <time>2021-03-20T15:38:02Z</time>
      </trkpt>
      <trkpt lat="52.91889" lon="-6.39746">
        <ele>351.63</ele>
        <time>2021-03-20T15:38:05Z</time>
      </trkpt>
      <trkpt lat="52.91886" lon="-6.39794">
        <ele>347.92</ele>
        <time>2021-03-20T15:38:08Z</time>
      </trkpt>
      <trkpt lat="52.91886" lon="-6.39833">
        <ele>344.92</ele>
        <time>2021-03-20T15:38:10Z</time>
      </trkpt>
      <trkpt lat="52.91888" lon="-6.39932">
        <ele>340.89</ele>
        <time>2021-03-20T15:38:13Z</time>
      </trkpt>
      <trkpt lat="52.91899" lon="-6.40117">
        <ele>328.08</ele>
        <time>2021-03-20T15:38:16Z</time>
      </trkpt>
      <trkpt lat="52.91916" lon="-6.40245">
        <ele>320</ele>
        <time>2021-03-20T15:38:19Z</time>
      </trkpt>
      <trkpt lat="52.91943" lon="-6.40377">
        <ele>312.13</ele>
        <time>2021-03-20T15:38:22Z</time>
      </trkpt>
      <trkpt lat="52.91972" lon="-6.40487">
        <ele>300.92</ele>
        <time>2021-03-20T15:38:25Z</time>
      </trkpt>
      <trkpt lat="52.91979" lon="-6.40523">
        <ele>297.4</ele>
        <time>2021-03-20T15:38:28Z</time>
      </trkpt>
      <trkpt lat="52.91983" lon="-6.40562">
        <ele>294.81</ele>
        <time>2021-03-20T15:38:31Z</time>
      </trkpt>
      <trkpt lat="52.91982" lon="-6.40638">
        <ele>287.1</ele>
        <time>2021-03-20T15:38:34Z</time>
      </trkpt>
      <trkpt lat="52.91975" lon="-6.40701">
        <ele>279.04</ele>
        <time>2021-03-20T15:38:37Z</time>
      </trkpt>
      <trkpt lat="52.91946" lon="-6.40823">
        <ele>267.81</ele>
        <time>2021-03-20T15:38:39Z</time>
      </trkpt>
      <trkpt lat="52.91932" lon="-6.40868">
        <ele>264.58</ele>
        <time>2021-03-20T15:38:42Z</time>
      </trkpt>
      <trkpt lat="52.91887" lon="-6.40988">
        <ele>255.46</ele>
        <time>2021-03-20T15:38:45Z</time>
      </trkpt>
      <trkpt lat="52.91869" lon="-6.4105">
        <ele>250.62</ele>
        <time>2021-03-20T15:38:48Z</time>
      </trkpt>
      <trkpt lat="52.91853" lon="-6.41086">
        <ele>248.27</ele>
        <time>2021-03-20T15:38:51Z</time>
      </trkpt>
      <trkpt lat="52.91825" lon="-6.41143">
        <ele>244.9</ele>
        <time>2021-03-20T15:38:54Z</time>
      </trkpt>
      <trkpt lat="52.91768" lon="-6.41326">
        <ele>234.23</ele>
        <time>2021-03-20T15:38:57Z</time>
      </trkpt>
      <trkpt lat="52.91755" lon="-6.41365">
        <ele>230.01</ele>
        <time>2021-03-20T15:39:00Z</time>
      </trkpt>
      <trkpt lat="52.91716" lon="-6.41459">
        <ele>220.51</ele>
        <time>2021-03-20T15:39:03Z</time>
      </trkpt>
      <trkpt lat="52.91693" lon="-6.41505">
        <ele>218.32</ele>
        <time>2021-03-20T15:39:06Z</time>
      </trkpt>
      <trkpt lat="52.91654" lon="-6.41591">
        <ele>211.35</ele>
        <time>2021-03-20T15:39:08Z</time>
      </trkpt>
      <trkpt lat="52.91628" lon="-6.41635">
        <ele>208.53</ele>
        <time>2021-03-20T15:39:11Z</time>
      </trkpt>
      <trkpt lat="52.9161" lon="-6.41679">
        <ele>204.16</ele>
        <time>2021-03-20T15:39:14Z</time>
      </trkpt>
      <trkpt lat="52.91598" lon="-6.41704">
        <ele>203.61</ele>
        <time>2021-03-20T15:39:17Z</time>
      </trkpt>
      <trkpt lat="52.91588" lon="-6.417">
        <ele>204.49</ele>
        <time>2021-03-20T15:39:21Z</time>
      </trkpt>
      <trkpt lat="52.91552" lon="-6.41702">
        <ele>206.54</ele>
        <time>2021-03-20T15:39:24Z</time>
      </trkpt>
      <trkpt lat="52.91501" lon="-6.41716">
        <ele>206.99</ele>
        <time>2021-03-20T15:39:28Z</time>
      </trkpt>
      <trkpt lat="52.91475" lon="-6.41716">
        <ele>208.7</ele>
        <time>2021-03-20T15:39:31Z</time>
      </trkpt>
      <trkpt lat="52.91398" lon="-6.41707">
        <ele>210.35</ele>
        <time>2021-03-20T15:39:35Z</time>
      </trkpt>
      <trkpt lat="52.91382" lon="-6.41702">
        <ele>210.46</ele>
        <time>2021-03-20T15:39:39Z</time>
      </trkpt>
      <trkpt lat="52.91376" lon="-6.41698">
        <ele>210.6</ele>
        <time>2021-03-20T15:39:42Z</time>
      </trkpt>
      <trkpt lat="52.91365" lon="-6.41686">
        <ele>211.5</ele>
        <time>2021-03-20T15:39:46Z</time>
      </trkpt>
      <trkpt lat="52.91299" lon="-6.41588">
        <ele>217.15</ele>
        <time>2021-03-20T15:39:49Z</time>
      </trkpt>
      <trkpt lat="52.91228" lon="-6.41491">
        <ele>221.27</ele>
        <time>2021-03-20T15:39:53Z</time>
      </trkpt>
      <trkpt lat="52.91186" lon="-6.41439">
        <ele>222.95</ele>
        <time>2021-03-20T15:39:56Z</time>
      </trkpt>
      <trkpt lat="52.91076" lon="-6.41321">
        <ele>230.02</ele>
        <time>2021-03-20T15:40:00Z</time>
      </trkpt>
      <trkpt lat="52.91002" lon="-6.41248">
        <ele>230.57</ele>
        <time>2021-03-20T15:40:03Z</time>
      </trkpt>
      <trkpt lat="52.90958" lon="-6.41211">
        <ele>230.92</ele>
        <time>2021-03-20T15:40:07Z</time>
      </trkpt>
      <trkpt lat="52.90946" lon="-6.41205">
        <ele>230.31</ele>
        <time>2021-03-20T15:40:11Z</time>
      </trkpt>
      <trkpt lat="52.90873" lon="-6.4115">
        <ele>224.72</ele>
        <time>2021-03-20T15:40:14Z</time>
      </trkpt>
      <trkpt lat="52.90836" lon="-6.41115">
        <ele>219.09</ele>
        <time>2021-03-20T15:40:18Z</time>
      </trkpt>
      <trkpt lat="52.90738" lon="-6.41022">
        <ele>210.82</ele>
        <time>2021-03-20T15:40:21Z</time>
      </trkpt>
      <trkpt lat="52.9067" lon="-6.40942">
        <ele>200.25</ele>
        <time>2021-03-20T15:40:25Z</time>
      </trkpt>
      <trkpt lat="52.90646" lon="-6.40917">
        <ele>197.02</ele>
        <time>2021-03-20T15:40:28Z</time>
      </trkpt>
      <trkpt lat="52.90572" lon="-6.40858">
        <ele>187.65</ele>
        <time>2021-03-20T15:40:32Z</time>
      </trkpt>
      <trkpt lat="52.90544" lon="-6.40832">
        <ele>184.22</ele>
        <time>2021-03-20T15:40:35Z</time>
      </trkpt>
      <trkpt lat="52.90522" lon="-6.40806">
        <ele>183.52</ele>
        <time>2021-03-20T15:40:39Z</time>
      </trkpt>
      <trkpt lat="52.90452" lon="-6.40734">
        <ele>177.09</ele>
        <time>2021-03-20T15:40:43Z</time>
      </trkpt>
      <trkpt lat="52.90398" lon="-6.40682">
        <ele>172.38</ele>
        <time>2021-03-20T15:40:46Z</time>
      </trkpt>
      <trkpt lat="52.90379" lon="-6.40666">
        <ele>171.32</ele>
        <time>2021-03-20T15:40:50Z</time>
      </trkpt>
      <trkpt lat="52.90368" lon="-6.40685">
        <ele>170.17</ele>
        <time>2021-03-20T15:40:52Z</time>
      </trkpt>
      <trkpt lat="52.90349" lon="-6.40712">
        <ele>170.73</ele>
        <time>2021-03-20T15:40:54Z</time>
      </trkpt>
      <trkpt lat="52.90348" lon="-6.40718">
        <ele>170.91</ele>
        <time>2021-03-20T15:40:56Z</time>
      </trkpt>
      <trkpt lat="52.90376" lon="-6.40843">
        <ele>171.22</ele>
        <time>2021-03-20T15:40:59Z</time>
      </trkpt>
      <trkpt lat="52.90395" lon="-6.40947">
        <ele>177.13</ele>
        <time>2021-03-20T15:41:01Z</time>
      </trkpt>
      <trkpt lat="52.90396" lon="-6.40966">
        <ele>178.31</ele>
        <time>2021-03-20T15:41:03Z</time>
      </trkpt>
      <trkpt lat="52.90385" lon="-6.40948">
        <ele>178.9</ele>
        <time>2021-03-20T15:41:06Z</time>
      </trkpt>
      <trkpt lat="52.90302" lon="-6.40758">
        <ele>177.83</ele>
        <time>2021-03-20T15:41:09Z</time>
      </trkpt>
      <trkpt lat="52.90269" lon="-6.40692">
        <ele>175.65</ele>
        <time>2021-03-20T15:41:12Z</time>
      </trkpt>
      <trkpt lat="52.90247" lon="-6.40654">
        <ele>174.51</ele>
        <time>2021-03-20T15:41:15Z</time>
      </trkpt>
      <trkpt lat="52.90209" lon="-6.40604">
        <ele>175.2</ele>
        <time>2021-03-20T15:41:19Z</time>
      </trkpt>
      <trkpt lat="52.90183" lon="-6.40577">
        <ele>175.02</ele>
        <time>2021-03-20T15:41:22Z</time>
      </trkpt>
      <trkpt lat="52.90141" lon="-6.40548">
        <ele>175.98</ele>
        <time>2021-03-20T15:41:25Z</time>
      </trkpt>
      <trkpt lat="52.90042" lon="-6.40502">
        <ele>172.84</ele>
        <time>2021-03-20T15:41:28Z</time>
      </trkpt>
      <trkpt lat="52.89976" lon="-6.40466">
        <ele>176.16</ele>
        <time>2021-03-20T15:41:31Z</time>
      </trkpt>
      <trkpt lat="52.89943" lon="-6.40444">
        <ele>172.09</ele>
        <time>2021-03-20T15:41:34Z</time>
      </trkpt>
      <trkpt lat="52.89887" lon="-6.40395">
        <ele>173.46</ele>
        <time>2021-03-20T15:41:37Z</time>
      </trkpt>
      <trkpt lat="52.898" lon="-6.40341">
        <ele>169.84</ele>
        <time>2021-03-20T15:41:40Z</time>
      </trkpt>
      <trkpt lat="52.89741" lon="-6.40286">
        <ele>169.01</ele>
        <time>2021-03-20T15:41:43Z</time>
      </trkpt>
      <trkpt lat="52.89661" lon="-6.40225">
        <ele>167.22</ele>
        <time>2021-03-20T15:41:46Z</time>
      </trkpt>
      <trkpt lat="52.89637" lon="-6.40212">
        <ele>166.33</ele>
        <time>2021-03-20T15:41:49Z</time>
      </trkpt>
      <trkpt lat="52.89611" lon="-6.40191">
        <ele>164.43</ele>
        <time>2021-03-20T15:41:53Z</time>
      </trkpt>
      <trkpt lat="52.89582" lon="-6.40174">
        <ele>160.39</ele>
        <time>2021-03-20T15:41:56Z</time>
      </trkpt>
      <trkpt lat="52.89524" lon="-6.40146">
        <ele>156.44</ele>
        <time>2021-03-20T15:41:59Z</time>
      </trkpt>
      <trkpt lat="52.89486" lon="-6.40132">
        <ele>159.65</ele>
        <time>2021-03-20T15:42:02Z</time>
      </trkpt>
      <trkpt lat="52.89474" lon="-6.40131">
        <ele>160.56</ele>
        <time>2021-03-20T15:42:05Z</time>
      </trkpt>
      <trkpt lat="52.89462" lon="-6.40133">
        <ele>160.41</ele>
        <time>2021-03-20T15:42:08Z</time>
      </trkpt>
      <trkpt lat="52.89416" lon="-6.4015">
        <ele>160.36</ele>
        <time>2021-03-20T15:42:11Z</time>
      </trkpt>
      <trkpt lat="52.89395" lon="-6.40153">
        <ele>158.95</ele>
        <time>2021-03-20T15:42:14Z</time>
      </trkpt>
      <trkpt lat="52.89386" lon="-6.40152">
        <ele>158.47</ele>
        <time>2021-03-20T15:42:17Z</time>
      </trkpt>
      <trkpt lat="52.89376" lon="-6.40148">
        <ele>158.31</ele>
        <time>2021-03-20T15:42:20Z</time>
      </trkpt>
      <trkpt lat="52.8936" lon="-6.40135">
        <ele>157.71</ele>
        <time>2021-03-20T15:42:23Z</time>
      </trkpt>
      <trkpt lat="52.89346" lon="-6.40101">
        <ele>156.17</ele>
        <time>2021-03-20T15:42:27Z</time>
      </trkpt>
      <trkpt lat="52.89315" lon="-6.40063">
        <ele>153.5</ele>
        <time>2021-03-20T15:42:30Z</time>
      </trkpt>
      <trkpt lat="52.89144" lon="-6.3992">
        <ele>151</ele>
        <time>2021-03-20T15:42:33Z</time>
      </trkpt>
      <trkpt lat="52.89103" lon="-6.3988">
        <ele>151.05</ele>
        <time>2021-03-20T15:42:36Z</time>
      </trkpt>
      <trkpt lat="52.89066" lon="-6.39851">
        <ele>151.24</ele>
        <time>2021-03-20T15:42:39Z</time>
      </trkpt>
      <trkpt lat="52.89028" lon="-6.39827">
        <ele>148.76</ele>
        <time>2021-03-20T15:42:42Z</time>
      </trkpt>
      <trkpt lat="52.88975" lon="-6.39805">
        <ele>146.3</ele>
        <time>2021-03-20T15:42:45Z</time>
      </trkpt>
      <trkpt lat="52.88927" lon="-6.39799">
        <ele>145.24</ele>
        <time>2021-03-20T15:42:48Z</time>
      </trkpt>
      <trkpt lat="52.88882" lon="-6.39806">
        <ele>145.01</ele>
        <time>2021-03-20T15:42:51Z</time>
      </trkpt>
      <trkpt lat="52.88857" lon="-6.39806">
        <ele>144.8</ele>
        <time>2021-03-20T15:42:54Z</time>
      </trkpt>
      <trkpt lat="52.88837" lon="-6.39796">
        <ele>144.86</ele>
        <time>2021-03-20T15:42:58Z</time>
      </trkpt>
      <trkpt lat="52.88814" lon="-6.3977">
        <ele>145.48</ele>
        <time>2021-03-20T15:43:01Z</time>
      </trkpt>
      <trkpt lat="52.88784" lon="-6.39729">
        <ele>146.56</ele>
        <time>2021-03-20T15:43:04Z</time>
      </trkpt>
      <trkpt lat="52.88716" lon="-6.3962">
        <ele>143.3</ele>
        <time>2021-03-20T15:43:07Z</time>
      </trkpt>
      <trkpt lat="52.88686" lon="-6.3959">
        <ele>139.19</ele>
        <time>2021-03-20T15:43:10Z</time>
      </trkpt>
      <trkpt lat="52.88621" lon="-6.3955">
        <ele>136.84</ele>
        <time>2021-03-20T15:43:13Z</time>
      </trkpt>
      <trkpt lat="52.8853" lon="-6.39488">
        <ele>134.08</ele>
        <time>2021-03-20T15:43:16Z</time>
      </trkpt>
      <trkpt lat="52.88512" lon="-6.39478">
        <ele>134.13</ele>
        <time>2021-03-20T15:43:19Z</time>
      </trkpt>
      <trkpt lat="52.88267" lon="-6.39405">
        <ele>133.43</ele>
        <time>2021-03-20T15:43:22Z</time>
      </trkpt>
      <trkpt lat="52.88217" lon="-6.394">
        <ele>133.85</ele>
        <time>2021-03-20T15:43:25Z</time>
      </trkpt>
      <trkpt lat="52.88188" lon="-6.39411">
        <ele>133.06</ele>
        <time>2021-03-20T15:43:28Z</time>
      </trkpt>
      <trkpt lat="52.88145" lon="-6.39443">
        <ele>132.85</ele>
        <time>2021-03-20T15:43:32Z</time>
      </trkpt>
      <trkpt lat="52.88116" lon="-6.39454">
        <ele>133.33</ele>
        <time>2021-03-20T15:43:35Z</time>
      </trkpt>
      <trkpt lat="52.88084" lon="-6.39457">
        <ele>133.01</ele>
        <time>2021-03-20T15:43:38Z</time>
      </trkpt>
      <trkpt lat="52.87962" lon="-6.39449">
        <ele>127.44</ele>
        <time>2021-03-20T15:43:41Z</time>
      </trkpt>
      <trkpt lat="52.87948" lon="-6.39447">
        <ele>126.35</ele>
        <time>2021-03-20T15:43:44Z</time>
      </trkpt>
      <trkpt lat="52.87938" lon="-6.39439">
        <ele>125.77</ele>
        <time>2021-03-20T15:43:47Z</time>
      </trkpt>
      <trkpt lat="52.87929" lon="-6.39427">
        <ele>125.44</ele>
        <time>2021-03-20T15:43:50Z</time>
      </trkpt>
      <trkpt lat="52.87913" lon="-6.39395">
        <ele>124.22</ele>
        <time>2021-03-20T15:43:53Z</time>
      </trkpt>
      <trkpt lat="52.87906" lon="-6.39377">
        <ele>124</ele>
        <time>2021-03-20T15:43:56Z</time>
      </trkpt>
      <trkpt lat="52.87899" lon="-6.39338">
        <ele>124.29</ele>
        <time>2021-03-20T15:43:59Z</time>
      </trkpt>
      <trkpt lat="52.87898" lon="-6.39317">
        <ele>124.72</ele>
        <time>2021-03-20T15:44:02Z</time>
      </trkpt>
      <trkpt lat="52.87898" lon="-6.39295">
        <ele>125.39</ele>
        <time>2021-03-20T15:44:06Z</time>
      </trkpt>
      <trkpt lat="52.87905" lon="-6.39197">
        <ele>126.82</ele>
        <time>2021-03-20T15:44:09Z</time>
      </trkpt>
      <trkpt lat="52.87905" lon="-6.39171">
        <ele>126.34</ele>
        <time>2021-03-20T15:44:12Z</time>
      </trkpt>
      <trkpt lat="52.87894" lon="-6.39066">
        <ele>122.71</ele>
        <time>2021-03-20T15:44:15Z</time>
      </trkpt>
      <trkpt lat="52.87885" lon="-6.39015">
        <ele>121.46</ele>
        <time>2021-03-20T15:44:18Z</time>
      </trkpt>
      <trkpt lat="52.87874" lon="-6.38964">
        <ele>121</ele>
        <time>2021-03-20T15:44:21Z</time>
      </trkpt>
      <trkpt lat="52.87697" lon="-6.38322">
        <ele>115.29</ele>
        <time>2021-03-20T15:44:24Z</time>
      </trkpt>
      <trkpt lat="52.8768" lon="-6.38272">
        <ele>115.8</ele>
        <time>2021-03-20T15:44:27Z</time>
      </trkpt>
      <trkpt lat="52.8767" lon="-6.38249">
        <ele>116.29</ele>
        <time>2021-03-20T15:44:30Z</time>
      </trkpt>
      <trkpt lat="52.87648" lon="-6.38206">
        <ele>117.12</ele>
        <time>2021-03-20T15:44:33Z</time>
      </trkpt>
      <trkpt lat="52.87623" lon="-6.38167">
        <ele>117.86</ele>
        <time>2021-03-20T15:44:37Z</time>
      </trkpt>
      <trkpt lat="52.87596" lon="-6.38133">
        <ele>116.92</ele>
        <time>2021-03-20T15:44:40Z</time>
      </trkpt>
      <trkpt lat="52.87554" lon="-6.38088">
        <ele>114.69</ele>
        <time>2021-03-20T15:44:43Z</time>
      </trkpt>
      <trkpt lat="52.87541" lon="-6.38072">
        <ele>114.33</ele>
        <time>2021-03-20T15:44:46Z</time>
      </trkpt>
      <trkpt lat="52.87528" lon="-6.38055">
        <ele>114.11</ele>
        <time>2021-03-20T15:44:49Z</time>
      </trkpt>
      <trkpt lat="52.87502" lon="-6.3801">
        <ele>114.51</ele>
        <time>2021-03-20T15:44:52Z</time>
      </trkpt>
      <trkpt lat="52.87474" lon="-6.37967">
        <ele>113.6</ele>
        <time>2021-03-20T15:44:55Z</time>
      </trkpt>
      <trkpt lat="52.87459" lon="-6.37928">
        <ele>113.59</ele>
        <time>2021-03-20T15:44:58Z</time>
      </trkpt>
      <trkpt lat="52.8745" lon="-6.37892">
        <ele>112.55</ele>
        <time>2021-03-20T15:45:01Z</time>
      </trkpt>
      <trkpt lat="52.87425" lon="-6.37753">
        <ele>113.52</ele>
        <time>2021-03-20T15:45:04Z</time>
      </trkpt>
      <trkpt lat="52.87413" lon="-6.37717">
        <ele>113.44</ele>
        <time>2021-03-20T15:45:07Z</time>
      </trkpt>
      <trkpt lat="52.87408" lon="-6.37653">
        <ele>113.37</ele>
        <time>2021-03-20T15:45:11Z</time>
      </trkpt>
      <trkpt lat="52.87399" lon="-6.37573">
        <ele>110.12</ele>
        <time>2021-03-20T15:45:14Z</time>
      </trkpt>
      <trkpt lat="52.87398" lon="-6.37525">
        <ele>106.83</ele>
        <time>2021-03-20T15:45:17Z</time>
      </trkpt>
      <trkpt lat="52.87394" lon="-6.37491">
        <ele>105.4</ele>
        <time>2021-03-20T15:45:20Z</time>
      </trkpt>
      <trkpt lat="52.87384" lon="-6.37373">
        <ele>106.22</ele>
        <time>2021-03-20T15:45:23Z</time>
      </trkpt>
      <trkpt lat="52.87378" lon="-6.37327">
        <ele>107.32</ele>
        <time>2021-03-20T15:45:26Z</time>
      </trkpt>
      <trkpt lat="52.87373" lon="-6.37304">
        <ele>107.33</ele>
        <time>2021-03-20T15:45:29Z</time>
      </trkpt>
      <trkpt lat="52.87357" lon="-6.37254">
        <ele>106.57</ele>
        <time>2021-03-20T15:45:32Z</time>
      </trkpt>
      <trkpt lat="52.87331" lon="-6.37152">
        <ele>108.57</ele>
        <time>2021-03-20T15:45:35Z</time>
      </trkpt>
      <trkpt lat="52.87326" lon="-6.37123">
        <ele>107.26</ele>
        <time>2021-03-20T15:45:38Z</time>
      </trkpt>
      <trkpt lat="52.87316" lon="-6.37019">
        <ele>107.38</ele>
        <time>2021-03-20T15:45:42Z</time>
      </trkpt>
      <trkpt lat="52.8731" lon="-6.36992">
        <ele>107.79</ele>
        <time>2021-03-20T15:45:45Z</time>
      </trkpt>
      <trkpt lat="52.873" lon="-6.36952">
        <ele>108.25</ele>
        <time>2021-03-20T15:45:48Z</time>
      </trkpt>
      <trkpt lat="52.87278" lon="-6.36895">
        <ele>107.79</ele>
        <time>2021-03-20T15:45:51Z</time>
      </trkpt>
      <trkpt lat="52.87271" lon="-6.36874">
        <ele>107.95</ele>
        <time>2021-03-20T15:45:54Z</time>
      </trkpt>
      <trkpt lat="52.87264" lon="-6.3684">
        <ele>108.25</ele>
        <time>2021-03-20T15:45:57Z</time>
      </trkpt>
      <trkpt lat="52.8725" lon="-6.36756">
        <ele>106.01</ele>
        <time>2021-03-20T15:46:00Z</time>
      </trkpt>
      <trkpt lat="52.87243" lon="-6.3673">
        <ele>106.46</ele>
        <time>2021-03-20T15:46:03Z</time>
      </trkpt>
      <trkpt lat="52.87234" lon="-6.36709">
        <ele>106.69</ele>
        <time>2021-03-20T15:46:06Z</time>
      </trkpt>
      <trkpt lat="52.87225" lon="-6.36701">
        <ele>106.8</ele>
        <time>2021-03-20T15:46:09Z</time>
      </trkpt>
      <trkpt lat="52.87184" lon="-6.36677">
        <ele>108.17</ele>
        <time>2021-03-20T15:46:12Z</time>
      </trkpt>
      <trkpt lat="52.87172" lon="-6.36665">
        <ele>108.4</ele>
        <time>2021-03-20T15:46:16Z</time>
      </trkpt>
      <trkpt lat="52.87107" lon="-6.36589">
        <ele>108.4</ele>
        <time>2021-03-20T15:46:19Z</time>
      </trkpt>
      <trkpt lat="52.87067" lon="-6.36537">
        <ele>110.68</ele>
        <time>2021-03-20T15:46:22Z</time>
      </trkpt>
      <trkpt lat="52.87053" lon="-6.36522">
        <ele>110.57</ele>
        <time>2021-03-20T15:46:25Z</time>
      </trkpt>
      <trkpt lat="52.86977" lon="-6.36458">
        <ele>109.28</ele>
        <time>2021-03-20T15:46:28Z</time>
      </trkpt>
      <trkpt lat="52.86918" lon="-6.36402">
        <ele>106.76</ele>
        <time>2021-03-20T15:46:31Z</time>
      </trkpt>
      <trkpt lat="52.86886" lon="-6.3638">
        <ele>107.46</ele>
        <time>2021-03-20T15:46:34Z</time>
      </trkpt>
      <trkpt lat="52.86837" lon="-6.36353">
        <ele>105.94</ele>
        <time>2021-03-20T15:46:37Z</time>
      </trkpt>
      <trkpt lat="52.86806" lon="-6.36329">
        <ele>104.14</ele>
        <time>2021-03-20T15:46:40Z</time>
      </trkpt>
      <trkpt lat="52.86723" lon="-6.36252">
        <ele>98.04</ele>
        <time>2021-03-20T15:46:43Z</time>
      </trkpt>
      <trkpt lat="52.86691" lon="-6.36218">
        <ele>98.02</ele>
        <time>2021-03-20T15:46:46Z</time>
      </trkpt>
      <trkpt lat="52.86674" lon="-6.36196">
        <ele>97.68</ele>
        <time>2021-03-20T15:46:50Z</time>
      </trkpt>
      <trkpt lat="52.86632" lon="-6.36133">
        <ele>98.04</ele>
        <time>2021-03-20T15:46:53Z</time>
      </trkpt>
      <trkpt lat="52.86584" lon="-6.36078">
        <ele>97.43</ele>
        <time>2021-03-20T15:46:56Z</time>
      </trkpt>
      <trkpt lat="52.8657" lon="-6.3606">
        <ele>96.89</ele>
        <time>2021-03-20T15:46:59Z</time>
      </trkpt>
      <trkpt lat="52.86489" lon="-6.35916">
        <ele>94.86</ele>
        <time>2021-03-20T15:47:02Z</time>
      </trkpt>
      <trkpt lat="52.86458" lon="-6.3588">
        <ele>94.15</ele>
        <time>2021-03-20T15:47:05Z</time>
      </trkpt>
      <trkpt lat="52.86428" lon="-6.35838">
        <ele>93.22</ele>
        <time>2021-03-20T15:47:08Z</time>
      </trkpt>
      <trkpt lat="52.86371" lon="-6.35746">
        <ele>93.5</ele>
        <time>2021-03-20T15:47:11Z</time>
      </trkpt>
      <trkpt lat="52.86356" lon="-6.35725">
        <ele>93.54</ele>
        <time>2021-03-20T15:47:14Z</time>
      </trkpt>
      <trkpt lat="52.86265" lon="-6.35613">
        <ele>94.39</ele>
        <time>2021-03-20T15:47:17Z</time>
      </trkpt>
      <trkpt lat="52.86252" lon="-6.35593">
        <ele>94.14</ele>
        <time>2021-03-20T15:47:21Z</time>
      </trkpt>
      <trkpt lat="52.86153" lon="-6.35378">
        <ele>93.27</ele>
        <time>2021-03-20T15:47:24Z</time>
      </trkpt>
      <trkpt lat="52.8614" lon="-6.35355">
        <ele>94.51</ele>
        <time>2021-03-20T15:47:27Z</time>
      </trkpt>
      <trkpt lat="52.86047" lon="-6.35203">
        <ele>97.96</ele>
        <time>2021-03-20T15:47:30Z</time>
      </trkpt>
      <trkpt lat="52.8602" lon="-6.35165">
        <ele>98.83</ele>
        <time>2021-03-20T15:47:33Z</time>
      </trkpt>
      <trkpt lat="52.85908" lon="-6.3504">
        <ele>100.82</ele>
        <time>2021-03-20T15:47:36Z</time>
      </trkpt>
      <trkpt lat="52.85779" lon="-6.34939">
        <ele>97.31</ele>
        <time>2021-03-20T15:47:39Z</time>
      </trkpt>
      <trkpt lat="52.85749" lon="-6.34911">
        <ele>96.31</ele>
        <time>2021-03-20T15:47:42Z</time>
      </trkpt>
      <trkpt lat="52.85719" lon="-6.34877">
        <ele>96.19</ele>
        <time>2021-03-20T15:47:45Z</time>
      </trkpt>
      <trkpt lat="52.85493" lon="-6.34594">
        <ele>89.99</ele>
        <time>2021-03-20T15:47:48Z</time>
      </trkpt>
      <trkpt lat="52.85467" lon="-6.34559">
        <ele>90.86</ele>
        <time>2021-03-20T15:47:51Z</time>
      </trkpt>
      <trkpt lat="52.8544" lon="-6.34531">
        <ele>89.19</ele>
        <time>2021-03-20T15:47:55Z</time>
      </trkpt>
      <trkpt lat="52.85385" lon="-6.34481">
        <ele>85.45</ele>
        <time>2021-03-20T15:47:58Z</time>
      </trkpt>
      <trkpt lat="52.85357" lon="-6.34453">
        <ele>84.31</ele>
        <time>2021-03-20T15:48:01Z</time>
      </trkpt>
      <trkpt lat="52.85331" lon="-6.34419">
        <ele>82.78</ele>
        <time>2021-03-20T15:48:04Z</time>
      </trkpt>
      <trkpt lat="52.85294" lon="-6.3436">
        <ele>81.83</ele>
        <time>2021-03-20T15:48:07Z</time>
      </trkpt>
      <trkpt lat="52.85267" lon="-6.34309">
        <ele>80.77</ele>
        <time>2021-03-20T15:48:10Z</time>
      </trkpt>
      <trkpt lat="52.85201" lon="-6.34135">
        <ele>76.87</ele>
        <time>2021-03-20T15:48:13Z</time>
      </trkpt>
      <trkpt lat="52.85163" lon="-6.34028">
        <ele>75.62</ele>
        <time>2021-03-20T15:48:16Z</time>
      </trkpt>
      <trkpt lat="52.85157" lon="-6.3406">
        <ele>74.91</ele>
        <time>2021-03-20T15:48:22Z</time>
      </trkpt>
      <trkpt lat="52.85164" lon="-6.34149">
        <ele>74</ele>
        <time>2021-03-20T15:48:28Z</time>
      </trkpt>
      <trkpt lat="52.85163" lon="-6.34164">
        <ele>74</ele>
        <time>2021-03-20T15:48:33Z</time>
      </trkpt>
      <trkpt lat="52.85143" lon="-6.34196">
        <ele>75</ele>
        <time>2021-03-20T15:48:39Z</time>
      </trkpt>
      <trkpt lat="52.85141" lon="-6.3421">
        <ele>75</ele>
        <time>2021-03-20T15:48:45Z</time>
      </trkpt>
      <trkpt lat="52.8515" lon="-6.34279">
        <ele>77.64</ele>
        <time>2021-03-20T15:48:51Z</time>
      </trkpt>
      <trkpt lat="52.85142" lon="-6.34432">
        <ele>85.46</ele>
        <time>2021-03-20T15:48:56Z</time>
      </trkpt>
      <trkpt lat="52.85139" lon="-6.34499">
        <ele>87.95</ele>
        <time>2021-03-20T15:49:02Z</time>
      </trkpt>
      <trkpt lat="52.85142" lon="-6.34544">
        <ele>91.03</ele>
        <time>2021-03-20T15:49:08Z</time>
      </trkpt>
      <trkpt lat="52.85134" lon="-6.34616">
        <ele>98.14</ele>
        <time>2021-03-20T15:49:13Z</time>
      </trkpt>
      <trkpt lat="52.85086" lon="-6.34901">
        <ele>119.06</ele>
        <time>2021-03-20T15:49:19Z</time>
      </trkpt>
      <trkpt lat="52.8505" lon="-6.35053">
        <ele>128.86</ele>
        <time>2021-03-20T15:49:25Z</time>
      </trkpt>
      <trkpt lat="52.85013" lon="-6.35245">
        <ele>137.15</ele>
        <time>2021-03-20T15:49:30Z</time>
      </trkpt>
      <trkpt lat="52.84859" lon="-6.35999">
        <ele>153.82</ele>
        <time>2021-03-20T15:49:36Z</time>
      </trkpt>
      <trkpt lat="52.84777" lon="-6.36386">
        <ele>161.69</ele>
        <time>2021-03-20T15:49:42Z</time>
      </trkpt>
      <trkpt lat="52.84743" lon="-6.36463">
        <ele>164.01</ele>
        <time>2021-03-20T15:49:48Z</time>
      </trkpt>
      <trkpt lat="52.84669" lon="-6.36606">
        <ele>161.09</ele>
        <time>2021-03-20T15:49:53Z</time>
      </trkpt>
      <trkpt lat="52.84597" lon="-6.36755">
        <ele>166.81</ele>
        <time>2021-03-20T15:49:59Z</time>
      </trkpt>
      <trkpt lat="52.84592" lon="-6.36745">
        <ele>165.96</ele>
        <time>2021-03-20T15:50:03Z</time>
      </trkpt>
      <trkpt lat="52.84567" lon="-6.36638">
        <ele>156.95</ele>
        <time>2021-03-20T15:50:07Z</time>
      </trkpt>
      <trkpt lat="52.84556" lon="-6.36601">
        <ele>154.62</ele>
        <time>2021-03-20T15:50:11Z</time>
      </trkpt>
      <trkpt lat="52.84546" lon="-6.36584">
        <ele>153.04</ele>
        <time>2021-03-20T15:50:15Z</time>
      </trkpt>
      <trkpt lat="52.84523" lon="-6.36567">
        <ele>148.81</ele>
        <time>2021-03-20T15:50:18Z</time>
      </trkpt>
      <trkpt lat="52.84486" lon="-6.36545">
        <ele>144.45</ele>
        <time>2021-03-20T15:50:22Z</time>
      </trkpt>
      <trkpt lat="52.84469" lon="-6.36529">
        <ele>143.43</ele>
        <time>2021-03-20T15:50:26Z</time>
      </trkpt>
      <trkpt lat="52.84457" lon="-6.36507">
        <ele>143.2</ele>
        <time>2021-03-20T15:50:30Z</time>
      </trkpt>
      <trkpt lat="52.84451" lon="-6.36483">
        <ele>142.84</ele>
        <time>2021-03-20T15:50:34Z</time>
      </trkpt>
      <trkpt lat="52.84452" lon="-6.36436">
        <ele>140.43</ele>
        <time>2021-03-20T15:50:38Z</time>
      </trkpt>
      <trkpt lat="52.84449" lon="-6.36414">
        <ele>139.72</ele>
        <time>2021-03-20T15:50:42Z</time>
      </trkpt>
      <trkpt lat="52.84442" lon="-6.36396">
        <ele>139.19</ele>
        <time>2021-03-20T15:50:45Z</time>
      </trkpt>
      <trkpt lat="52.8442" lon="-6.36359">
        <ele>136.84</ele>
        <time>2021-03-20T15:50:49Z</time>
      </trkpt>
      <trkpt lat="52.84311" lon="-6.3611">
        <ele>128.95</ele>
        <time>2021-03-20T15:50:53Z</time>
      </trkpt>
      <trkpt lat="52.84304" lon="-6.36095">
        <ele>127.98</ele>
        <time>2021-03-20T15:50:57Z</time>
      </trkpt>
      <trkpt lat="52.84293" lon="-6.36083">
        <ele>125.34</ele>
        <time>2021-03-20T15:51:01Z</time>
      </trkpt>
      <trkpt lat="52.84256" lon="-6.36065">
        <ele>116.67</ele>
        <time>2021-03-20T15:51:05Z</time>
      </trkpt>
      <trkpt lat="52.84256" lon="-6.36039">
        <ele>114.7</ele>
        <time>2021-03-20T15:51:10Z</time>
      </trkpt>
      <trkpt lat="52.84229" lon="-6.35916">
        <ele>101.65</ele>
        <time>2021-03-20T15:51:15Z</time>
      </trkpt>
      <trkpt lat="52.84204" lon="-6.35812">
        <ele>93.13</ele>
        <time>2021-03-20T15:51:20Z</time>
      </trkpt>
      <trkpt lat="52.84198" lon="-6.35793">
        <ele>91.32</ele>
        <time>2021-03-20T15:51:25Z</time>
      </trkpt>
      <trkpt lat="52.84151" lon="-6.35678">
        <ele>82.25</ele>
        <time>2021-03-20T15:51:30Z</time>
      </trkpt>
      <trkpt lat="52.8414" lon="-6.35655">
        <ele>81.01</ele>
        <time>2021-03-20T15:51:36Z</time>
      </trkpt>
      <trkpt lat="52.84108" lon="-6.35604">
        <ele>79</ele>
        <time>2021-03-20T15:51:41Z</time>
      </trkpt>
      <trkpt lat="52.84084" lon="-6.35573">
        <ele>78.61</ele>
        <time>2021-03-20T15:51:46Z</time>
      </trkpt>
      <trkpt lat="52.8406" lon="-6.35547">
        <ele>77.1</ele>
        <time>2021-03-20T15:51:51Z</time>
      </trkpt>
      <trkpt lat="52.84035" lon="-6.35526">
        <ele>76.25</ele>
        <time>2021-03-20T15:51:56Z</time>
      </trkpt>
      <trkpt lat="52.84007" lon="-6.35489">
        <ele>76.29</ele>
        <time>2021-03-20T15:52:01Z</time>
      </trkpt>
      <trkpt lat="52.83934" lon="-6.35383">
        <ele>79.45</ele>
        <time>2021-03-20T15:52:06Z</time>
      </trkpt>
      <trkpt lat="52.83918" lon="-6.35334">
        <ele>82.84</ele>
        <time>2021-03-20T15:52:11Z</time>
      </trkpt>
      <trkpt lat="52.83842" lon="-6.35363">
        <ele>84.56</ele>
        <time>2021-03-20T15:52:15Z</time>
      </trkpt>
      <trkpt lat="52.83788" lon="-6.3539">
        <ele>82.53</ele>
        <time>2021-03-20T15:52:19Z</time>
      </trkpt>
      <trkpt lat="52.83202" lon="-6.35653">
        <ele>80.27</ele>
        <time>2021-03-20T15:52:23Z</time>
      </trkpt>
      <trkpt lat="52.83164" lon="-6.35691">
        <ele>81.32</ele>
        <time>2021-03-20T15:52:27Z</time>
      </trkpt>
      <trkpt lat="52.82781" lon="-6.36281">
        <ele>84.58</ele>
        <time>2021-03-20T15:52:31Z</time>
      </trkpt>
      <trkpt lat="52.82632" lon="-6.36514">
        <ele>83.48</ele>
        <time>2021-03-20T15:52:34Z</time>
      </trkpt>
      <trkpt lat="52.82609" lon="-6.36544">
        <ele>83.61</ele>
        <time>2021-03-20T15:52:38Z</time>
      </trkpt>
      <trkpt lat="52.82562" lon="-6.36589">
        <ele>84.38</ele>
        <time>2021-03-20T15:52:42Z</time>
      </trkpt>
      <trkpt lat="52.8255" lon="-6.3661">
        <ele>84.4</ele>
        <time>2021-03-20T15:52:46Z</time>
      </trkpt>
      <trkpt lat="52.8253" lon="-6.36704">
        <ele>84.5</ele>
        <time>2021-03-20T15:52:50Z</time>
      </trkpt>
      <trkpt lat="52.82515" lon="-6.36819">
        <ele>82.46</ele>
        <time>2021-03-20T15:52:54Z</time>
      </trkpt>
      <trkpt lat="52.82492" lon="-6.36931">
        <ele>78.06</ele>
        <time>2021-03-20T15:52:58Z</time>
      </trkpt>
      <trkpt lat="52.82426" lon="-6.37133">
        <ele>85.73</ele>
        <time>2021-03-20T15:53:02Z</time>
      </trkpt>
      <trkpt lat="52.8241" lon="-6.37232">
        <ele>80.85</ele>
        <time>2021-03-20T15:53:05Z</time>
      </trkpt>
      <trkpt lat="52.82382" lon="-6.3744">
        <ele>80.55</ele>
        <time>2021-03-20T15:53:09Z</time>
      </trkpt>
      <trkpt lat="52.82361" lon="-6.37531">
        <ele>82.05</ele>
        <time>2021-03-20T15:53:13Z</time>
      </trkpt>
      <trkpt lat="52.82315" lon="-6.37675">
        <ele>82.11</ele>
        <time>2021-03-20T15:53:17Z</time>
      </trkpt>
      <trkpt lat="52.82256" lon="-6.37827">
        <ele>80.22</ele>
        <time>2021-03-20T15:53:21Z</time>
      </trkpt>
      <trkpt lat="52.82189" lon="-6.37991">
        <ele>82</ele>
        <time>2021-03-20T15:53:25Z</time>
      </trkpt>
      <trkpt lat="52.82172" lon="-6.38071">
        <ele>81.34</ele>
        <time>2021-03-20T15:53:29Z</time>
      </trkpt>
      <trkpt lat="52.82163" lon="-6.38194">
        <ele>81.36</ele>
        <time>2021-03-20T15:53:33Z</time>
      </trkpt>
      <trkpt lat="52.82159" lon="-6.38221">
        <ele>81.86</ele>
        <time>2021-03-20T15:53:36Z</time>
      </trkpt>
      <trkpt lat="52.82141" lon="-6.38262">
        <ele>82.36</ele>
        <time>2021-03-20T15:53:40Z</time>
      </trkpt>
      <trkpt lat="52.82017" lon="-6.38491">
        <ele>88.32</ele>
        <time>2021-03-20T15:53:44Z</time>
      </trkpt>
      <trkpt lat="52.81935" lon="-6.38662">
        <ele>90.54</ele>
        <time>2021-03-20T15:53:48Z</time>
      </trkpt>
      <trkpt lat="52.81853" lon="-6.38862">
        <ele>89.87</ele>
        <time>2021-03-20T15:53:52Z</time>
      </trkpt>
      <trkpt lat="52.81718" lon="-6.39198">
        <ele>90.28</ele>
        <time>2021-03-20T15:53:56Z</time>
      </trkpt>
      <trkpt lat="52.81357" lon="-6.40108">
        <ele>100.17</ele>
        <time>2021-03-20T15:54:00Z</time>
      </trkpt>
      <trkpt lat="52.81283" lon="-6.40286">
        <ele>99.09</ele>
        <time>2021-03-20T15:54:03Z</time>
      </trkpt>
      <trkpt lat="52.81261" lon="-6.40327">
        <ele>98.46</ele>
        <time>2021-03-20T15:54:07Z</time>
      </trkpt>
      <trkpt lat="52.81242" lon="-6.40353">
        <ele>97.11</ele>
        <time>2021-03-20T15:54:11Z</time>
      </trkpt>
      <trkpt lat="52.81214" lon="-6.40413">
        <ele>94.84</ele>
        <time>2021-03-20T15:54:15Z</time>
      </trkpt>
      <trkpt lat="52.81199" lon="-6.40481">
        <ele>93.51</ele>
        <time>2021-03-20T15:54:19Z</time>
      </trkpt>
      <trkpt lat="52.8115" lon="-6.40675">
        <ele>89.51</ele>
        <time>2021-03-20T15:54:23Z</time>
      </trkpt>
      <trkpt lat="52.8113" lon="-6.40765">
        <ele>90.62</ele>
        <time>2021-03-20T15:54:27Z</time>
      </trkpt>
      <trkpt lat="52.81074" lon="-6.41087">
        <ele>88.55</ele>
        <time>2021-03-20T15:54:31Z</time>
      </trkpt>
      <trkpt lat="52.81027" lon="-6.41323">
        <ele>87.45</ele>
        <time>2021-03-20T15:54:34Z</time>
      </trkpt>
      <trkpt lat="52.81011" lon="-6.41383">
        <ele>86.42</ele>
        <time>2021-03-20T15:54:38Z</time>
      </trkpt>
      <trkpt lat="52.80983" lon="-6.41462">
        <ele>84.6</ele>
        <time>2021-03-20T15:54:42Z</time>
      </trkpt>
      <trkpt lat="52.80964" lon="-6.41493">
        <ele>83.32</ele>
        <time>2021-03-20T15:54:46Z</time>
      </trkpt>
      <trkpt lat="52.80933" lon="-6.41534">
        <ele>82.96</ele>
        <time>2021-03-20T15:54:50Z</time>
      </trkpt>
      <trkpt lat="52.80894" lon="-6.41575">
        <ele>83.92</ele>
        <time>2021-03-20T15:54:54Z</time>
      </trkpt>
      <trkpt lat="52.80855" lon="-6.41628">
        <ele>85.49</ele>
        <time>2021-03-20T15:54:58Z</time>
      </trkpt>
      <trkpt lat="52.8083" lon="-6.41655">
        <ele>84.63</ele>
        <time>2021-03-20T15:55:01Z</time>
      </trkpt>
      <trkpt lat="52.80788" lon="-6.41756">
        <ele>83.26</ele>
        <time>2021-03-20T15:55:05Z</time>
      </trkpt>
      <trkpt lat="52.80722" lon="-6.41894">
        <ele>85.81</ele>
        <time>2021-03-20T15:55:09Z</time>
      </trkpt>
      <trkpt lat="52.80703" lon="-6.41975">
        <ele>86.41</ele>
        <time>2021-03-20T15:55:13Z</time>
      </trkpt>
      <trkpt lat="52.80695" lon="-6.42059">
        <ele>87.07</ele>
        <time>2021-03-20T15:55:17Z</time>
      </trkpt>
      <trkpt lat="52.80706" lon="-6.42219">
        <ele>85.14</ele>
        <time>2021-03-20T15:55:21Z</time>
      </trkpt>
      <trkpt lat="52.80688" lon="-6.42341">
        <ele>86.02</ele>
        <time>2021-03-20T15:55:25Z</time>
      </trkpt>
      <trkpt lat="52.80668" lon="-6.4242">
        <ele>86.91</ele>
        <time>2021-03-20T15:55:29Z</time>
      </trkpt>
      <trkpt lat="52.80642" lon="-6.42504">
        <ele>87.03</ele>
        <time>2021-03-20T15:55:32Z</time>
      </trkpt>
      <trkpt lat="52.80609" lon="-6.42584">
        <ele>89</ele>
        <time>2021-03-20T15:55:36Z</time>
      </trkpt>
      <trkpt lat="52.80566" lon="-6.42653">
        <ele>88.63</ele>
        <time>2021-03-20T15:55:40Z</time>
      </trkpt>
      <trkpt lat="52.80504" lon="-6.42745">
        <ele>90.67</ele>
        <time>2021-03-20T15:55:44Z</time>
      </trkpt>
      <trkpt lat="52.80468" lon="-6.42792">
        <ele>92.45</ele>
        <time>2021-03-20T15:55:48Z</time>
      </trkpt>
      <trkpt lat="52.80436" lon="-6.42825">
        <ele>92</ele>
        <time>2021-03-20T15:55:52Z</time>
      </trkpt>
      <trkpt lat="52.80356" lon="-6.42873">
        <ele>93.19</ele>
        <time>2021-03-20T15:55:56Z</time>
      </trkpt>
      <trkpt lat="52.80261" lon="-6.4292">
        <ele>95.28</ele>
        <time>2021-03-20T15:55:59Z</time>
      </trkpt>
      <trkpt lat="52.80035" lon="-6.43011">
        <ele>97.96</ele>
        <time>2021-03-20T15:56:03Z</time>
      </trkpt>
      <trkpt lat="52.79966" lon="-6.4303">
        <ele>98.49</ele>
        <time>2021-03-20T15:56:07Z</time>
      </trkpt>
      <trkpt lat="52.79694" lon="-6.43038">
        <ele>93.24</ele>
        <time>2021-03-20T15:56:11Z</time>
      </trkpt>
      <trkpt lat="52.79605" lon="-6.4305">
        <ele>92.44</ele>
        <time>2021-03-20T15:56:15Z</time>
      </trkpt>
      <trkpt lat="52.79521" lon="-6.43049">
        <ele>91.82</ele>
        <time>2021-03-20T15:56:19Z</time>
      </trkpt>
      <trkpt lat="52.79447" lon="-6.43023">
        <ele>91.32</ele>
        <time>2021-03-20T15:56:23Z</time>
      </trkpt>
      <trkpt lat="52.79416" lon="-6.43007">
        <ele>92.16</ele>
        <time>2021-03-20T15:56:27Z</time>
      </trkpt>
      <trkpt lat="52.79375" lon="-6.42977">
        <ele>91.23</ele>
        <time>2021-03-20T15:56:30Z</time>
      </trkpt>
      <trkpt lat="52.79319" lon="-6.42927">
        <ele>90.61</ele>
        <time>2021-03-20T15:56:34Z</time>
      </trkpt>
      <trkpt lat="52.79293" lon="-6.4291">
        <ele>90.81</ele>
        <time>2021-03-20T15:56:38Z</time>
      </trkpt>
      <trkpt lat="52.79266" lon="-6.42902">
        <ele>90.51</ele>
        <time>2021-03-20T15:56:42Z</time>
      </trkpt>
      <trkpt lat="52.79206" lon="-6.42902">
        <ele>91.14</ele>
        <time>2021-03-20T15:56:46Z</time>
      </trkpt>
      <trkpt lat="52.79117" lon="-6.42887">
        <ele>93.07</ele>
        <time>2021-03-20T15:56:50Z</time>
      </trkpt>
      <trkpt lat="52.79074" lon="-6.42883">
        <ele>95.2</ele>
        <time>2021-03-20T15:56:54Z</time>
      </trkpt>
      <trkpt lat="52.79048" lon="-6.42895">
        <ele>97.07</ele>
        <time>2021-03-20T15:56:58Z</time>
      </trkpt>
      <trkpt lat="52.79023" lon="-6.42916">
        <ele>97.03</ele>
        <time>2021-03-20T15:57:01Z</time>
      </trkpt>
      <trkpt lat="52.78829" lon="-6.43141">
        <ele>93.08</ele>
        <time>2021-03-20T15:57:05Z</time>
      </trkpt>
      <trkpt lat="52.78809" lon="-6.43176">
        <ele>92.87</ele>
        <time>2021-03-20T15:57:09Z</time>
      </trkpt>
      <trkpt lat="52.78747" lon="-6.43337">
        <ele>93.1</ele>
        <time>2021-03-20T15:57:13Z</time>
      </trkpt>
      <trkpt lat="52.78676" lon="-6.43503">
        <ele>94.52</ele>
        <time>2021-03-20T15:57:17Z</time>
      </trkpt>
      <trkpt lat="52.78597" lon="-6.43693">
        <ele>94.6</ele>
        <time>2021-03-20T15:57:21Z</time>
      </trkpt>
      <trkpt lat="52.78558" lon="-6.43768">
        <ele>93.19</ele>
        <time>2021-03-20T15:57:25Z</time>
      </trkpt>
      <trkpt lat="52.7848" lon="-6.43867">
        <ele>91.19</ele>
        <time>2021-03-20T15:57:28Z</time>
      </trkpt>
      <trkpt lat="52.78427" lon="-6.43906">
        <ele>91.38</ele>
        <time>2021-03-20T15:57:32Z</time>
      </trkpt>
      <trkpt lat="52.78366" lon="-6.43933">
        <ele>90.43</ele>
        <time>2021-03-20T15:57:36Z</time>
      </trkpt>
      <trkpt lat="52.78306" lon="-6.43945">
        <ele>89.99</ele>
        <time>2021-03-20T15:57:40Z</time>
      </trkpt>
      <trkpt lat="52.7824" lon="-6.4394">
        <ele>88.64</ele>
        <time>2021-03-20T15:57:44Z</time>
      </trkpt>
      <trkpt lat="52.78199" lon="-6.43926">
        <ele>86.89</ele>
        <time>2021-03-20T15:57:48Z</time>
      </trkpt>
      <trkpt lat="52.78152" lon="-6.43889">
        <ele>85.95</ele>
        <time>2021-03-20T15:57:52Z</time>
      </trkpt>
      <trkpt lat="52.78117" lon="-6.4388">
        <ele>84.22</ele>
        <time>2021-03-20T15:57:56Z</time>
      </trkpt>
      <trkpt lat="52.78094" lon="-6.43884">
        <ele>82.89</ele>
        <time>2021-03-20T15:57:59Z</time>
      </trkpt>
      <trkpt lat="52.78071" lon="-6.43893">
        <ele>81.94</ele>
        <time>2021-03-20T15:58:03Z</time>
      </trkpt>
      <trkpt lat="52.77966" lon="-6.43949">
        <ele>85.04</ele>
        <time>2021-03-20T15:58:07Z</time>
      </trkpt>
      <trkpt lat="52.77605" lon="-6.44111">
        <ele>97.45</ele>
        <time>2021-03-20T15:58:11Z</time>
      </trkpt>
      <trkpt lat="52.77511" lon="-6.44147">
        <ele>102.8</ele>
        <time>2021-03-20T15:58:15Z</time>
      </trkpt>
      <trkpt lat="52.77191" lon="-6.44251">
        <ele>105.02</ele>
        <time>2021-03-20T15:58:19Z</time>
      </trkpt>
      <trkpt lat="52.77135" lon="-6.44271">
        <ele>106.49</ele>
        <time>2021-03-20T15:58:23Z</time>
      </trkpt>
      <trkpt lat="52.77099" lon="-6.44296">
        <ele>107.18</ele>
        <time>2021-03-20T15:58:26Z</time>
      </trkpt>
      <trkpt lat="52.77039" lon="-6.44344">
        <ele>102.62</ele>
        <time>2021-03-20T15:58:30Z</time>
      </trkpt>
      <trkpt lat="52.76935" lon="-6.44437">
        <ele>101.74</ele>
        <time>2021-03-20T15:58:34Z</time>
      </trkpt>
      <trkpt lat="52.7684" lon="-6.44511">
        <ele>104.8</ele>
        <time>2021-03-20T15:58:38Z</time>
      </trkpt>
      <trkpt lat="52.76614" lon="-6.44698">
        <ele>108.13</ele>
        <time>2021-03-20T15:58:42Z</time>
      </trkpt>
      <trkpt lat="52.76583" lon="-6.44729">
        <ele>109.22</ele>
        <time>2021-03-20T15:58:46Z</time>
      </trkpt>
      <trkpt lat="52.76518" lon="-6.44798">
        <ele>110.73</ele>
        <time>2021-03-20T15:58:50Z</time>
      </trkpt>
      <trkpt lat="52.76464" lon="-6.44877">
        <ele>108.69</ele>
        <time>2021-03-20T15:58:54Z</time>
      </trkpt>
      <trkpt lat="52.76407" lon="-6.44971">
        <ele>106.61</ele>
        <time>2021-03-20T15:58:57Z</time>
      </trkpt>
      <trkpt lat="52.76374" lon="-6.45016">
        <ele>106.03</ele>
        <time>2021-03-20T15:59:01Z</time>
      </trkpt>
      <trkpt lat="52.76364" lon="-6.45036">
        <ele>106.14</ele>
        <time>2021-03-20T15:59:05Z</time>
      </trkpt>
      <trkpt lat="52.76325" lon="-6.45089">
        <ele>103.51</ele>
        <time>2021-03-20T15:59:09Z</time>
      </trkpt>
      <trkpt lat="52.76276" lon="-6.45139">
        <ele>98.86</ele>
        <time>2021-03-20T15:59:13Z</time>
      </trkpt>
      <trkpt lat="52.76242" lon="-6.45163">
        <ele>96.69</ele>
        <time>2021-03-20T15:59:17Z</time>
      </trkpt>
      <trkpt lat="52.76179" lon="-6.45191">
        <ele>95.14</ele>
        <time>2021-03-20T15:59:21Z</time>
      </trkpt>
      <trkpt lat="52.75877" lon="-6.45268">
        <ele>89.04</ele>
        <time>2021-03-20T15:59:25Z</time>
      </trkpt>
      <trkpt lat="52.75776" lon="-6.45303">
        <ele>87.32</ele>
        <time>2021-03-20T15:59:28Z</time>
      </trkpt>
      <trkpt lat="52.75722" lon="-6.45334">
        <ele>84.97</ele>
        <time>2021-03-20T15:59:32Z</time>
      </trkpt>
      <trkpt lat="52.7562" lon="-6.45403">
        <ele>85.67</ele>
        <time>2021-03-20T15:59:36Z</time>
      </trkpt>
      <trkpt lat="52.75551" lon="-6.45467">
        <ele>85.2</ele>
        <time>2021-03-20T15:59:40Z</time>
      </trkpt>
      <trkpt lat="52.75335" lon="-6.45731">
        <ele>91.33</ele>
        <time>2021-03-20T15:59:44Z</time>
      </trkpt>
      <trkpt lat="52.75272" lon="-6.45806">
        <ele>94</ele>
        <time>2021-03-20T15:59:48Z</time>
      </trkpt>
      <trkpt lat="52.7517" lon="-6.45934">
        <ele>97</ele>
        <time>2021-03-20T15:59:52Z</time>
      </trkpt>
      <trkpt lat="52.75083" lon="-6.46035">
        <ele>98</ele>
        <time>2021-03-20T15:59:55Z</time>
      </trkpt>
      <trkpt lat="52.75044" lon="-6.46057">
        <ele>98.42</ele>
        <time>2021-03-20T15:59:59Z</time>
      </trkpt>
      <trkpt lat="52.74993" lon="-6.46079">
        <ele>100.28</ele>
        <time>2021-03-20T16:00:03Z</time>
      </trkpt>
      <trkpt lat="52.74835" lon="-6.46159">
        <ele>107</ele>
        <time>2021-03-20T16:00:07Z</time>
      </trkpt>
      <trkpt lat="52.74685" lon="-6.46252">
        <ele>118.07</ele>
        <time>2021-03-20T16:00:11Z</time>
      </trkpt>
      <trkpt lat="52.74616" lon="-6.46299">
        <ele>124.88</ele>
        <time>2021-03-20T16:00:15Z</time>
      </trkpt>
      <trkpt lat="52.74573" lon="-6.46334">
        <ele>127.5</ele>
        <time>2021-03-20T16:00:19Z</time>
      </trkpt>
      <trkpt lat="52.74528" lon="-6.46383">
        <ele>131.94</ele>
        <time>2021-03-20T16:00:23Z</time>
      </trkpt>
      <trkpt lat="52.74432" lon="-6.4651">
        <ele>137.71</ele>
        <time>2021-03-20T16:00:26Z</time>
      </trkpt>
      <trkpt lat="52.74401" lon="-6.46543">
        <ele>141.76</ele>
        <time>2021-03-20T16:00:30Z</time>
      </trkpt>
      <trkpt lat="52.74373" lon="-6.46563">
        <ele>142.76</ele>
        <time>2021-03-20T16:00:34Z</time>
      </trkpt>
      <trkpt lat="52.74247" lon="-6.46605">
        <ele>148.91</ele>
        <time>2021-03-20T16:00:38Z</time>
      </trkpt>
      <trkpt lat="52.74172" lon="-6.46635">
        <ele>154.62</ele>
        <time>2021-03-20T16:00:42Z</time>
      </trkpt>
      <trkpt lat="52.74137" lon="-6.46655">
        <ele>158.22</ele>
        <time>2021-03-20T16:00:46Z</time>
      </trkpt>
      <trkpt lat="52.74125" lon="-6.46664">
        <ele>159.56</ele>
        <time>2021-03-20T16:00:50Z</time>
      </trkpt>
      <trkpt lat="52.74107" lon="-6.46682">
        <ele>160.73</ele>
        <time>2021-03-20T16:00:53Z</time>
      </trkpt>
      <trkpt lat="52.74084" lon="-6.46723">
        <ele>161.8</ele>
        <time>2021-03-20T16:00:57Z</time>
      </trkpt>
      <trkpt lat="52.74027" lon="-6.46837">
        <ele>163.95</ele>
        <time>2021-03-20T16:01:01Z</time>
      </trkpt>
      <trkpt lat="52.74002" lon="-6.46891">
        <ele>165.5</ele>
        <time>2021-03-20T16:01:05Z</time>
      </trkpt>
      <trkpt lat="52.73968" lon="-6.46978">
        <ele>167.35</ele>
        <time>2021-03-20T16:01:09Z</time>
      </trkpt>
      <trkpt lat="52.739" lon="-6.47206">
        <ele>173.66</ele>
        <time>2021-03-20T16:01:13Z</time>
      </trkpt>
      <trkpt lat="52.73877" lon="-6.47302">
        <ele>176.68</ele>
        <time>2021-03-20T16:01:17Z</time>
      </trkpt>
      <trkpt lat="52.73865" lon="-6.47338">
        <ele>178.45</ele>
        <time>2021-03-20T16:01:21Z</time>
      </trkpt>
      <trkpt lat="52.73842" lon="-6.47383">
        <ele>181.82</ele>
        <time>2021-03-20T16:01:24Z</time>
      </trkpt>
      <trkpt lat="52.73819" lon="-6.47421">
        <ele>185.48</ele>
        <time>2021-03-20T16:01:28Z</time>
      </trkpt>
      <trkpt lat="52.73804" lon="-6.47431">
        <ele>187.48</ele>
        <time>2021-03-20T16:01:32Z</time>
      </trkpt>
      <trkpt lat="52.73779" lon="-6.47441">
        <ele>187.12</ele>
        <time>2021-03-20T16:01:36Z</time>
      </trkpt>
      <trkpt lat="52.7375" lon="-6.47446">
        <ele>184</ele>
        <time>2021-03-20T16:01:40Z</time>
      </trkpt>
      <trkpt lat="52.73714" lon="-6.47438">
        <ele>181.94</ele>
        <time>2021-03-20T16:01:44Z</time>
      </trkpt>
      <trkpt lat="52.73684" lon="-6.47428">
        <ele>180.41</ele>
        <time>2021-03-20T16:01:48Z</time>
      </trkpt>
      <trkpt lat="52.73648" lon="-6.47412">
        <ele>176.55</ele>
        <time>2021-03-20T16:01:51Z</time>
      </trkpt>
      <trkpt lat="52.73549" lon="-6.47349">
        <ele>172.3</ele>
        <time>2021-03-20T16:01:55Z</time>
      </trkpt>
      <trkpt lat="52.73505" lon="-6.4733">
        <ele>169.75</ele>
        <time>2021-03-20T16:01:59Z</time>
      </trkpt>
      <trkpt lat="52.73466" lon="-6.47321">
        <ele>169.02</ele>
        <time>2021-03-20T16:02:03Z</time>
      </trkpt>
      <trkpt lat="52.73414" lon="-6.47314">
        <ele>165.5</ele>
        <time>2021-03-20T16:02:07Z</time>
      </trkpt>
      <trkpt lat="52.73375" lon="-6.47313">
        <ele>163.22</ele>
        <time>2021-03-20T16:02:11Z</time>
      </trkpt>
      <trkpt lat="52.73333" lon="-6.47321">
        <ele>161.4</ele>
        <time>2021-03-20T16:02:15Z</time>
      </trkpt>
      <trkpt lat="52.733" lon="-6.47336">
        <ele>159.8</ele>
        <time>2021-03-20T16:02:19Z</time>
      </trkpt>
      <trkpt lat="52.73221" lon="-6.4739">
        <ele>157.95</ele>
        <time>2021-03-20T16:02:22Z</time>
      </trkpt>
      <trkpt lat="52.73183" lon="-6.47431">
        <ele>156.08</ele>
        <time>2021-03-20T16:02:26Z</time>
      </trkpt>
      <trkpt lat="52.73071" lon="-6.47538">
        <ele>148.65</ele>
        <time>2021-03-20T16:02:30Z</time>
      </trkpt>
      <trkpt lat="52.7301" lon="-6.47599">
        <ele>145.71</ele>
        <time>2021-03-20T16:02:34Z</time>
      </trkpt>
      <trkpt lat="52.72901" lon="-6.47689">
        <ele>140.86</ele>
        <time>2021-03-20T16:02:38Z</time>
      </trkpt>
      <trkpt lat="52.72874" lon="-6.47704">
        <ele>139.32</ele>
        <time>2021-03-20T16:02:42Z</time>
      </trkpt>
      <trkpt lat="52.72836" lon="-6.47707">
        <ele>139.08</ele>
        <time>2021-03-20T16:02:46Z</time>
      </trkpt>
      <trkpt lat="52.72764" lon="-6.47699">
        <ele>134.67</ele>
        <time>2021-03-20T16:02:50Z</time>
      </trkpt>
      <trkpt lat="52.72703" lon="-6.47678">
        <ele>132.78</ele>
        <time>2021-03-20T16:02:53Z</time>
      </trkpt>
      <trkpt lat="52.72651" lon="-6.47652">
        <ele>129.42</ele>
        <time>2021-03-20T16:02:57Z</time>
      </trkpt>
      <trkpt lat="52.72606" lon="-6.47634">
        <ele>127.94</ele>
        <time>2021-03-20T16:03:01Z</time>
      </trkpt>
      <trkpt lat="52.72583" lon="-6.47637">
        <ele>126.13</ele>
        <time>2021-03-20T16:03:05Z</time>
      </trkpt>
      <trkpt lat="52.72546" lon="-6.47652">
        <ele>125.24</ele>
        <time>2021-03-20T16:03:09Z</time>
      </trkpt>
      <trkpt lat="52.72492" lon="-6.47697">
        <ele>124.08</ele>
        <time>2021-03-20T16:03:13Z</time>
      </trkpt>
      <trkpt lat="52.72466" lon="-6.47726">
        <ele>122.76</ele>
        <time>2021-03-20T16:03:17Z</time>
      </trkpt>
      <trkpt lat="52.72418" lon="-6.47771">
        <ele>121.18</ele>
        <time>2021-03-20T16:03:20Z</time>
      </trkpt>
      <trkpt lat="52.72375" lon="-6.47821">
        <ele>120.22</ele>
        <time>2021-03-20T16:03:24Z</time>
      </trkpt>
      <trkpt lat="52.72342" lon="-6.4785">
        <ele>118.7</ele>
        <time>2021-03-20T16:03:28Z</time>
      </trkpt>
      <trkpt lat="52.72176" lon="-6.47932">
        <ele>111.34</ele>
        <time>2021-03-20T16:03:32Z</time>
      </trkpt>
      <trkpt lat="52.72138" lon="-6.47941">
        <ele>109.96</ele>
        <time>2021-03-20T16:03:36Z</time>
      </trkpt>
      <trkpt lat="52.72085" lon="-6.47948">
        <ele>107.82</ele>
        <time>2021-03-20T16:03:40Z</time>
      </trkpt>
      <trkpt lat="52.72044" lon="-6.47964">
        <ele>106.3</ele>
        <time>2021-03-20T16:03:44Z</time>
      </trkpt>
      <trkpt lat="52.71989" lon="-6.48009">
        <ele>105.07</ele>
        <time>2021-03-20T16:03:48Z</time>
      </trkpt>
      <trkpt lat="52.71941" lon="-6.4807">
        <ele>103.48</ele>
        <time>2021-03-20T16:03:51Z</time>
      </trkpt>
      <trkpt lat="52.71909" lon="-6.48132">
        <ele>102.78</ele>
        <time>2021-03-20T16:03:55Z</time>
      </trkpt>
      <trkpt lat="52.71859" lon="-6.48268">
        <ele>105.09</ele>
        <time>2021-03-20T16:03:59Z</time>
      </trkpt>
      <trkpt lat="52.71828" lon="-6.48326">
        <ele>104.62</ele>
        <time>2021-03-20T16:04:03Z</time>
      </trkpt>
      <trkpt lat="52.71778" lon="-6.48395">
        <ele>103.79</ele>
        <time>2021-03-20T16:04:07Z</time>
      </trkpt>
      <trkpt lat="52.71736" lon="-6.48442">
        <ele>104.04</ele>
        <time>2021-03-20T16:04:11Z</time>
      </trkpt>
      <trkpt lat="52.71682" lon="-6.48497">
        <ele>103.07</ele>
        <time>2021-03-20T16:04:15Z</time>
      </trkpt>
      <trkpt lat="52.71622" lon="-6.48553">
        <ele>102.46</ele>
        <time>2021-03-20T16:04:18Z</time>
      </trkpt>
      <trkpt lat="52.71551" lon="-6.48639">
        <ele>99.14</ele>
        <time>2021-03-20T16:04:22Z</time>
      </trkpt>
      <trkpt lat="52.71531" lon="-6.48679">
        <ele>99.32</ele>
        <time>2021-03-20T16:04:26Z</time>
      </trkpt>
      <trkpt lat="52.71512" lon="-6.48738">
        <ele>98.01</ele>
        <time>2021-03-20T16:04:30Z</time>
      </trkpt>
      <trkpt lat="52.71495" lon="-6.48813">
        <ele>99.5</ele>
        <time>2021-03-20T16:04:34Z</time>
      </trkpt>
      <trkpt lat="52.71483" lon="-6.48906">
        <ele>100.69</ele>
        <time>2021-03-20T16:04:38Z</time>
      </trkpt>
      <trkpt lat="52.71452" lon="-6.49074">
        <ele>102.52</ele>
        <time>2021-03-20T16:04:42Z</time>
      </trkpt>
      <trkpt lat="52.71426" lon="-6.49161">
        <ele>103.33</ele>
        <time>2021-03-20T16:04:46Z</time>
      </trkpt>
      <trkpt lat="52.71398" lon="-6.49193">
        <ele>103.72</ele>
        <time>2021-03-20T16:04:49Z</time>
      </trkpt>
      <trkpt lat="52.71378" lon="-6.49211">
        <ele>104.4</ele>
        <time>2021-03-20T16:04:53Z</time>
      </trkpt>
      <trkpt lat="52.71329" lon="-6.49232">
        <ele>105.8</ele>
        <time>2021-03-20T16:04:57Z</time>
      </trkpt>
      <trkpt lat="52.71152" lon="-6.49266">
        <ele>112.73</ele>
        <time>2021-03-20T16:05:01Z</time>
      </trkpt>
      <trkpt lat="52.71106" lon="-6.49274">
        <ele>113.31</ele>
        <time>2021-03-20T16:05:05Z</time>
      </trkpt>
      <trkpt lat="52.71062" lon="-6.49277">
        <ele>114</ele>
        <time>2021-03-20T16:05:09Z</time>
      </trkpt>
      <trkpt lat="52.71045" lon="-6.49374">
        <ele>111.63</ele>
        <time>2021-03-20T16:05:13Z</time>
      </trkpt>
      <trkpt lat="52.70987" lon="-6.49747">
        <ele>109.58</ele>
        <time>2021-03-20T16:05:18Z</time>
      </trkpt>
      <trkpt lat="52.70974" lon="-6.49845">
        <ele>109.7</ele>
        <time>2021-03-20T16:05:23Z</time>
      </trkpt>
      <trkpt lat="52.70966" lon="-6.49938">
        <ele>108.78</ele>
        <time>2021-03-20T16:05:27Z</time>
      </trkpt>
      <trkpt lat="52.70966" lon="-6.49978">
        <ele>107.84</ele>
        <time>2021-03-20T16:05:32Z</time>
      </trkpt>
      <trkpt lat="52.70977" lon="-6.50017">
        <ele>106.4</ele>
        <time>2021-03-20T16:05:36Z</time>
      </trkpt>
      <trkpt lat="52.71025" lon="-6.50122">
        <ele>102.67</ele>
        <time>2021-03-20T16:05:41Z</time>
      </trkpt>
      <trkpt lat="52.71157" lon="-6.50451">
        <ele>90.76</ele>
        <time>2021-03-20T16:05:45Z</time>
      </trkpt>
      <trkpt lat="52.71193" lon="-6.50535">
        <ele>85.8</ele>
        <time>2021-03-20T16:05:50Z</time>
      </trkpt>
      <trkpt lat="52.71276" lon="-6.5075">
        <ele>82</ele>
        <time>2021-03-20T16:05:54Z</time>
      </trkpt>
      <trkpt lat="52.71304" lon="-6.50809">
        <ele>80.09</ele>
        <time>2021-03-20T16:05:59Z</time>
      </trkpt>
      <trkpt lat="52.71382" lon="-6.50935">
        <ele>75.14</ele>
        <time>2021-03-20T16:06:03Z</time>
      </trkpt>
      <trkpt lat="52.71455" lon="-6.51108">
        <ele>66.26</ele>
        <time>2021-03-20T16:06:08Z</time>
      </trkpt>
      <trkpt lat="52.71494" lon="-6.51209">
        <ele>66.64</ele>
        <time>2021-03-20T16:06:12Z</time>
      </trkpt>
      <trkpt lat="52.71513" lon="-6.51312">
        <ele>68.45</ele>
        <time>2021-03-20T16:06:17Z</time>
      </trkpt>
      <trkpt lat="52.71542" lon="-6.51591">
        <ele>70.56</ele>
        <time>2021-03-20T16:06:21Z</time>
      </trkpt>
      <trkpt lat="52.71551" lon="-6.51648">
        <ele>71.46</ele>
        <time>2021-03-20T16:06:26Z</time>
      </trkpt>
      <trkpt lat="52.71575" lon="-6.51758">
        <ele>73.37</ele>
        <time>2021-03-20T16:06:30Z</time>
      </trkpt>
      <trkpt lat="52.71595" lon="-6.51842">
        <ele>74.41</ele>
        <time>2021-03-20T16:06:35Z</time>
      </trkpt>
      <trkpt lat="52.71597" lon="-6.51886">
        <ele>74.49</ele>
        <time>2021-03-20T16:06:40Z</time>
      </trkpt>
      <trkpt lat="52.71594" lon="-6.51927">
        <ele>74.38</ele>
        <time>2021-03-20T16:06:44Z</time>
      </trkpt>
      <trkpt lat="52.71582" lon="-6.51977">
        <ele>74.94</ele>
        <time>2021-03-20T16:06:49Z</time>
      </trkpt>
      <trkpt lat="52.71539" lon="-6.52089">
        <ele>73.39</ele>
        <time>2021-03-20T16:06:53Z</time>
      </trkpt>
      <trkpt lat="52.71421" lon="-6.5234">
        <ele>70.17</ele>
        <time>2021-03-20T16:06:58Z</time>
      </trkpt>
      <trkpt lat="52.71384" lon="-6.52471">
        <ele>70.82</ele>
        <time>2021-03-20T16:07:02Z</time>
      </trkpt>
      <trkpt lat="52.71375" lon="-6.52493">
        <ele>70.5</ele>
        <time>2021-03-20T16:07:07Z</time>
      </trkpt>
      <trkpt lat="52.71346" lon="-6.52545">
        <ele>68.44</ele>
        <time>2021-03-20T16:07:11Z</time>
      </trkpt>
      <trkpt lat="52.71273" lon="-6.52687">
        <ele>66.08</ele>
        <time>2021-03-20T16:07:16Z</time>
      </trkpt>
      <trkpt lat="52.71261" lon="-6.52722">
        <ele>65.39</ele>
        <time>2021-03-20T16:07:20Z</time>
      </trkpt>
      <trkpt lat="52.71252" lon="-6.52762">
        <ele>64.04</ele>
        <time>2021-03-20T16:07:25Z</time>
      </trkpt>
      <trkpt lat="52.71226" lon="-6.52779">
        <ele>63.97</ele>
        <time>2021-03-20T16:07:28Z</time>
      </trkpt>
      <trkpt lat="52.71204" lon="-6.52797">
        <ele>62.65</ele>
        <time>2021-03-20T16:07:31Z</time>
      </trkpt>
      <trkpt lat="52.71133" lon="-6.52864">
        <ele>57</ele>
        <time>2021-03-20T16:07:35Z</time>
      </trkpt>
      <trkpt lat="52.7107" lon="-6.5294">
        <ele>56.08</ele>
        <time>2021-03-20T16:07:38Z</time>
      </trkpt>
      <trkpt lat="52.71028" lon="-6.52979">
        <ele>56</ele>
        <time>2021-03-20T16:07:41Z</time>
      </trkpt>
      <trkpt lat="52.71014" lon="-6.52987">
        <ele>56</ele>
        <time>2021-03-20T16:07:45Z</time>
      </trkpt>
      <trkpt lat="52.709" lon="-6.5307">
        <ele>55.81</ele>
        <time>2021-03-20T16:07:48Z</time>
      </trkpt>
      <trkpt lat="52.70856" lon="-6.53094">
        <ele>56</ele>
        <time>2021-03-20T16:07:51Z</time>
      </trkpt>
      <trkpt lat="52.7082" lon="-6.53118">
        <ele>56.24</ele>
        <time>2021-03-20T16:07:55Z</time>
      </trkpt>
      <trkpt lat="52.70785" lon="-6.53166">
        <ele>57.48</ele>
        <time>2021-03-20T16:07:58Z</time>
      </trkpt>
      <trkpt lat="52.70737" lon="-6.53241">
        <ele>62.64</ele>
        <time>2021-03-20T16:08:01Z</time>
      </trkpt>
      <trkpt lat="52.70669" lon="-6.53317">
        <ele>66.93</ele>
        <time>2021-03-20T16:08:05Z</time>
      </trkpt>
      <trkpt lat="52.70588" lon="-6.53391">
        <ele>70.69</ele>
        <time>2021-03-20T16:08:08Z</time>
      </trkpt>
      <trkpt lat="52.70528" lon="-6.5343">
        <ele>72.5</ele>
        <time>2021-03-20T16:08:11Z</time>
      </trkpt>
      <trkpt lat="52.70464" lon="-6.5351">
        <ele>78.38</ele>
        <time>2021-03-20T16:08:15Z</time>
      </trkpt>
      <trkpt lat="52.70417" lon="-6.53614">
        <ele>75.8</ele>
        <time>2021-03-20T16:08:18Z</time>
      </trkpt>
      <trkpt lat="52.70388" lon="-6.53666">
        <ele>74.14</ele>
        <time>2021-03-20T16:08:21Z</time>
      </trkpt>
      <trkpt lat="52.70352" lon="-6.53709">
        <ele>73.78</ele>
        <time>2021-03-20T16:08:24Z</time>
      </trkpt>
      <trkpt lat="52.70208" lon="-6.53813">
        <ele>74.64</ele>
        <time>2021-03-20T16:08:28Z</time>
      </trkpt>
      <trkpt lat="52.70136" lon="-6.53887">
        <ele>71.33</ele>
        <time>2021-03-20T16:08:31Z</time>
      </trkpt>
      <trkpt lat="52.70073" lon="-6.53964">
        <ele>64.43</ele>
        <time>2021-03-20T16:08:34Z</time>
      </trkpt>
      <trkpt lat="52.69958" lon="-6.54057">
        <ele>62.46</ele>
        <time>2021-03-20T16:08:38Z</time>
      </trkpt>
      <trkpt lat="52.69897" lon="-6.54127">
        <ele>64.63</ele>
        <time>2021-03-20T16:08:41Z</time>
      </trkpt>
      <trkpt lat="52.698" lon="-6.54277">
        <ele>73.19</ele>
        <time>2021-03-20T16:08:44Z</time>
      </trkpt>
      <trkpt lat="52.69785" lon="-6.54323">
        <ele>73.47</ele>
        <time>2021-03-20T16:08:48Z</time>
      </trkpt>
      <trkpt lat="52.69746" lon="-6.54423">
        <ele>74.16</ele>
        <time>2021-03-20T16:08:51Z</time>
      </trkpt>
      <trkpt lat="52.69699" lon="-6.54536">
        <ele>78.32</ele>
        <time>2021-03-20T16:08:54Z</time>
      </trkpt>
      <trkpt lat="52.69642" lon="-6.5465">
        <ele>81</ele>
        <time>2021-03-20T16:08:58Z</time>
      </trkpt>
      <trkpt lat="52.69576" lon="-6.54657">
        <ele>85.96</ele>
        <time>2021-03-20T16:09:01Z</time>
      </trkpt>
      <trkpt lat="52.6954" lon="-6.5464">
        <ele>89.67</ele>
        <time>2021-03-20T16:09:05Z</time>
      </trkpt>
      <trkpt lat="52.6951" lon="-6.54622">
        <ele>92.92</ele>
        <time>2021-03-20T16:09:09Z</time>
      </trkpt>
      <trkpt lat="52.69461" lon="-6.54584">
        <ele>96.81</ele>
        <time>2021-03-20T16:09:13Z</time>
      </trkpt>
      <trkpt lat="52.69389" lon="-6.54485">
        <ele>102.94</ele>
        <time>2021-03-20T16:09:17Z</time>
      </trkpt>
      <trkpt lat="52.69382" lon="-6.54436">
        <ele>103.27</ele>
        <time>2021-03-20T16:09:21Z</time>
      </trkpt>
      <trkpt lat="52.69386" lon="-6.54361">
        <ele>103.33</ele>
        <time>2021-03-20T16:09:24Z</time>
      </trkpt>
      <trkpt lat="52.69383" lon="-6.54321">
        <ele>102.78</ele>
        <time>2021-03-20T16:09:28Z</time>
      </trkpt>
      <trkpt lat="52.69376" lon="-6.54301">
        <ele>103.31</ele>
        <time>2021-03-20T16:09:32Z</time>
      </trkpt>
      <trkpt lat="52.69357" lon="-6.54274">
        <ele>104.51</ele>
        <time>2021-03-20T16:09:36Z</time>
      </trkpt>
      <trkpt lat="52.69331" lon="-6.54243">
        <ele>108.11</ele>
        <time>2021-03-20T16:09:40Z</time>
      </trkpt>
      <trkpt lat="52.69285" lon="-6.54177">
        <ele>112.71</ele>
        <time>2021-03-20T16:09:43Z</time>
      </trkpt>
      <trkpt lat="52.69259" lon="-6.54147">
        <ele>113.07</ele>
        <time>2021-03-20T16:09:47Z</time>
      </trkpt>
      <trkpt lat="52.69052" lon="-6.54063">
        <ele>125.47</ele>
        <time>2021-03-20T16:09:51Z</time>
      </trkpt>
      <trkpt lat="52.68981" lon="-6.54052">
        <ele>130.79</ele>
        <time>2021-03-20T16:09:55Z</time>
      </trkpt>
      <trkpt lat="52.68926" lon="-6.54048">
        <ele>135.75</ele>
        <time>2021-03-20T16:09:59Z</time>
      </trkpt>
      <trkpt lat="52.68787" lon="-6.54051">
        <ele>142.14</ele>
        <time>2021-03-20T16:10:03Z</time>
      </trkpt>
      <trkpt lat="52.68731" lon="-6.54057">
        <ele>143.08</ele>
        <time>2021-03-20T16:10:06Z</time>
      </trkpt>
      <trkpt lat="52.6869" lon="-6.5407">
        <ele>141.66</ele>
        <time>2021-03-20T16:10:10Z</time>
      </trkpt>
      <trkpt lat="52.68661" lon="-6.54091">
        <ele>140.98</ele>
        <time>2021-03-20T16:10:14Z</time>
      </trkpt>
      <trkpt lat="52.68617" lon="-6.54132">
        <ele>139.98</ele>
        <time>2021-03-20T16:10:18Z</time>
      </trkpt>
      <trkpt lat="52.68552" lon="-6.54178">
        <ele>137.04</ele>
        <time>2021-03-20T16:10:22Z</time>
      </trkpt>
      <trkpt lat="52.68509" lon="-6.54211">
        <ele>133.62</ele>
        <time>2021-03-20T16:10:26Z</time>
      </trkpt>
      <trkpt lat="52.68443" lon="-6.54272">
        <ele>128.21</ele>
        <time>2021-03-20T16:10:29Z</time>
      </trkpt>
      <trkpt lat="52.68295" lon="-6.54426">
        <ele>123.06</ele>
        <time>2021-03-20T16:10:33Z</time>
      </trkpt>
      <trkpt lat="52.68268" lon="-6.54441">
        <ele>124.7</ele>
        <time>2021-03-20T16:10:37Z</time>
      </trkpt>
      <trkpt lat="52.68226" lon="-6.54452">
        <ele>124.99</ele>
        <time>2021-03-20T16:10:41Z</time>
      </trkpt>
      <trkpt lat="52.68187" lon="-6.54455">
        <ele>124.46</ele>
        <time>2021-03-20T16:10:45Z</time>
      </trkpt>
      <trkpt lat="52.68141" lon="-6.54451">
        <ele>125.57</ele>
        <time>2021-03-20T16:10:49Z</time>
      </trkpt>
      <trkpt lat="52.68114" lon="-6.54455">
        <ele>127.05</ele>
        <time>2021-03-20T16:10:52Z</time>
      </trkpt>
      <trkpt lat="52.68065" lon="-6.54469">
        <ele>128.28</ele>
        <time>2021-03-20T16:10:56Z</time>
      </trkpt>
      <trkpt lat="52.68013" lon="-6.54481">
        <ele>127.58</ele>
        <time>2021-03-20T16:11:00Z</time>
      </trkpt>
      <trkpt lat="52.67981" lon="-6.54485">
        <ele>126.22</ele>
        <time>2021-03-20T16:11:04Z</time>
      </trkpt>
      <trkpt lat="52.67951" lon="-6.54494">
        <ele>126.57</ele>
        <time>2021-03-20T16:11:08Z</time>
      </trkpt>
      <trkpt lat="52.67916" lon="-6.54515">
        <ele>126.01</ele>
        <time>2021-03-20T16:11:11Z</time>
      </trkpt>
      <trkpt lat="52.67852" lon="-6.54566">
        <ele>123.71</ele>
        <time>2021-03-20T16:11:15Z</time>
      </trkpt>
      <trkpt lat="52.6782" lon="-6.54583">
        <ele>122.97</ele>
        <time>2021-03-20T16:11:19Z</time>
      </trkpt>
      <trkpt lat="52.67798" lon="-6.54588">
        <ele>123.41</ele>
        <time>2021-03-20T16:11:23Z</time>
      </trkpt>
      <trkpt lat="52.67708" lon="-6.54586">
        <ele>124.6</ele>
        <time>2021-03-20T16:11:27Z</time>
      </trkpt>
      <trkpt lat="52.67682" lon="-6.54592">
        <ele>125.31</ele>
        <time>2021-03-20T16:11:31Z</time>
      </trkpt>
      <trkpt lat="52.67653" lon="-6.54613">
        <ele>126.63</ele>
        <time>2021-03-20T16:11:34Z</time>
      </trkpt>
      <trkpt lat="52.67579" lon="-6.54673">
        <ele>133.39</ele>
        <time>2021-03-20T16:11:38Z</time>
      </trkpt>
      <trkpt lat="52.6752" lon="-6.54702">
        <ele>136.55</ele>
        <time>2021-03-20T16:11:42Z</time>
      </trkpt>
      <trkpt lat="52.67498" lon="-6.54715">
        <ele>137.86</ele>
        <time>2021-03-20T16:11:46Z</time>
      </trkpt>
      <trkpt lat="52.67454" lon="-6.54733">
        <ele>141.7</ele>
        <time>2021-03-20T16:11:50Z</time>
      </trkpt>
      <trkpt lat="52.67374" lon="-6.54771">
        <ele>144.55</ele>
        <time>2021-03-20T16:11:54Z</time>
      </trkpt>
      <trkpt lat="52.6734" lon="-6.54778">
        <ele>145</ele>
        <time>2021-03-20T16:11:57Z</time>
      </trkpt>
      <trkpt lat="52.67304" lon="-6.5479">
        <ele>144.52</ele>
        <time>2021-03-20T16:12:01Z</time>
      </trkpt>
      <trkpt lat="52.67078" lon="-6.54821">
        <ele>132.61</ele>
        <time>2021-03-20T16:12:05Z</time>
      </trkpt>
      <trkpt lat="52.67001" lon="-6.54837">
        <ele>127.25</ele>
        <time>2021-03-20T16:12:09Z</time>
      </trkpt>
      <trkpt lat="52.66876" lon="-6.5487">
        <ele>114.65</ele>
        <time>2021-03-20T16:12:13Z</time>
      </trkpt>
      <trkpt lat="52.66838" lon="-6.54877">
        <ele>111.36</ele>
        <time>2021-03-20T16:12:16Z</time>
      </trkpt>
      <trkpt lat="52.668" lon="-6.54891">
        <ele>108.64</ele>
        <time>2021-03-20T16:12:20Z</time>
      </trkpt>
      <trkpt lat="52.66749" lon="-6.54921">
        <ele>105.96</ele>
        <time>2021-03-20T16:12:24Z</time>
      </trkpt>
      <trkpt lat="52.66712" lon="-6.54933">
        <ele>104.28</ele>
        <time>2021-03-20T16:12:28Z</time>
      </trkpt>
      <trkpt lat="52.66655" lon="-6.54922">
        <ele>101.16</ele>
        <time>2021-03-20T16:12:32Z</time>
      </trkpt>
      <trkpt lat="52.66482" lon="-6.54901">
        <ele>93.93</ele>
        <time>2021-03-20T16:12:36Z</time>
      </trkpt>
      <trkpt lat="52.6646" lon="-6.54905">
        <ele>92.13</ele>
        <time>2021-03-20T16:12:39Z</time>
      </trkpt>
      <trkpt lat="52.66424" lon="-6.54916">
        <ele>90.01</ele>
        <time>2021-03-20T16:12:43Z</time>
      </trkpt>
      <trkpt lat="52.66248" lon="-6.54963">
        <ele>89.32</ele>
        <time>2021-03-20T16:12:47Z</time>
      </trkpt>
      <trkpt lat="52.662" lon="-6.54972">
        <ele>89.97</ele>
        <time>2021-03-20T16:12:51Z</time>
      </trkpt>
      <trkpt lat="52.66181" lon="-6.54978">
        <ele>90.42</ele>
        <time>2021-03-20T16:12:55Z</time>
      </trkpt>
      <trkpt lat="52.6616" lon="-6.54991">
        <ele>91.18</ele>
        <time>2021-03-20T16:12:59Z</time>
      </trkpt>
      <trkpt lat="52.6608" lon="-6.55055">
        <ele>93.97</ele>
        <time>2021-03-20T16:13:02Z</time>
      </trkpt>
      <trkpt lat="52.66049" lon="-6.55075">
        <ele>94.88</ele>
        <time>2021-03-20T16:13:06Z</time>
      </trkpt>
      <trkpt lat="52.65955" lon="-6.55113">
        <ele>98.08</ele>
        <time>2021-03-20T16:13:10Z</time>
      </trkpt>
      <trkpt lat="52.65856" lon="-6.55144">
        <ele>101.18</ele>
        <time>2021-03-20T16:13:14Z</time>
      </trkpt>
      <trkpt lat="52.65718" lon="-6.55229">
        <ele>105.34</ele>
        <time>2021-03-20T16:13:18Z</time>
      </trkpt>
      <trkpt lat="52.65675" lon="-6.55232">
        <ele>106.71</ele>
        <time>2021-03-20T16:13:22Z</time>
      </trkpt>
      <trkpt lat="52.65559" lon="-6.55278">
        <ele>109.99</ele>
        <time>2021-03-20T16:13:25Z</time>
      </trkpt>
      <trkpt lat="52.6554" lon="-6.5528">
        <ele>109.52</ele>
        <time>2021-03-20T16:13:29Z</time>
      </trkpt>
      <trkpt lat="52.65519" lon="-6.55273">
        <ele>108.83</ele>
        <time>2021-03-20T16:13:33Z</time>
      </trkpt>
      <trkpt lat="52.65495" lon="-6.5526">
        <ele>108.29</ele>
        <time>2021-03-20T16:13:37Z</time>
      </trkpt>
      <trkpt lat="52.65478" lon="-6.55258">
        <ele>108.06</ele>
        <time>2021-03-20T16:13:41Z</time>
      </trkpt>
      <trkpt lat="52.65459" lon="-6.55261">
        <ele>107.52</ele>
        <time>2021-03-20T16:13:44Z</time>
      </trkpt>
      <trkpt lat="52.65422" lon="-6.55254">
        <ele>106.18</ele>
        <time>2021-03-20T16:13:48Z</time>
      </trkpt>
      <trkpt lat="52.65333" lon="-6.55242">
        <ele>105.69</ele>
        <time>2021-03-20T16:13:52Z</time>
      </trkpt>
      <trkpt lat="52.65255" lon="-6.55241">
        <ele>103.43</ele>
        <time>2021-03-20T16:13:56Z</time>
      </trkpt>
      <trkpt lat="52.65229" lon="-6.55236">
        <ele>102.37</ele>
        <time>2021-03-20T16:14:00Z</time>
      </trkpt>
      <trkpt lat="52.65203" lon="-6.55225">
        <ele>100.58</ele>
        <time>2021-03-20T16:14:04Z</time>
      </trkpt>
      <trkpt lat="52.65186" lon="-6.5521">
        <ele>99.25</ele>
        <time>2021-03-20T16:14:07Z</time>
      </trkpt>
      <trkpt lat="52.65169" lon="-6.55201">
        <ele>98.32</ele>
        <time>2021-03-20T16:14:11Z</time>
      </trkpt>
      <trkpt lat="52.64902" lon="-6.5514">
        <ele>91</ele>
        <time>2021-03-20T16:14:15Z</time>
      </trkpt>
      <trkpt lat="52.64862" lon="-6.55109">
        <ele>90.97</ele>
        <time>2021-03-20T16:14:19Z</time>
      </trkpt>
      <trkpt lat="52.64842" lon="-6.55096">
        <ele>89.07</ele>
        <time>2021-03-20T16:14:23Z</time>
      </trkpt>
      <trkpt lat="52.64826" lon="-6.55093">
        <ele>87.94</ele>
        <time>2021-03-20T16:14:27Z</time>
      </trkpt>
      <trkpt lat="52.64808" lon="-6.55094">
        <ele>86.88</ele>
        <time>2021-03-20T16:14:30Z</time>
      </trkpt>
      <trkpt lat="52.64737" lon="-6.55125">
        <ele>86.3</ele>
        <time>2021-03-20T16:14:34Z</time>
      </trkpt>
      <trkpt lat="52.64645" lon="-6.55149">
        <ele>78.55</ele>
        <time>2021-03-20T16:14:38Z</time>
      </trkpt>
      <trkpt lat="52.6462" lon="-6.55159">
        <ele>76.67</ele>
        <time>2021-03-20T16:14:42Z</time>
      </trkpt>
      <trkpt lat="52.64607" lon="-6.5517">
        <ele>75.59</ele>
        <time>2021-03-20T16:14:46Z</time>
      </trkpt>
      <trkpt lat="52.64556" lon="-6.55239">
        <ele>74.24</ele>
        <time>2021-03-20T16:14:49Z</time>
      </trkpt>
      <trkpt lat="52.64538" lon="-6.55256">
        <ele>75.23</ele>
        <time>2021-03-20T16:14:53Z</time>
      </trkpt>
      <trkpt lat="52.64508" lon="-6.55276">
        <ele>75.99</ele>
        <time>2021-03-20T16:14:57Z</time>
      </trkpt>
      <trkpt lat="52.64487" lon="-6.55296">
        <ele>76.29</ele>
        <time>2021-03-20T16:15:01Z</time>
      </trkpt>
      <trkpt lat="52.64466" lon="-6.55326">
        <ele>77.18</ele>
        <time>2021-03-20T16:15:05Z</time>
      </trkpt>
      <trkpt lat="52.64425" lon="-6.55389">
        <ele>81.01</ele>
        <time>2021-03-20T16:15:09Z</time>
      </trkpt>
      <trkpt lat="52.64415" lon="-6.55397">
        <ele>81.7</ele>
        <time>2021-03-20T16:15:12Z</time>
      </trkpt>
      <trkpt lat="52.64387" lon="-6.55403">
        <ele>83.57</ele>
        <time>2021-03-20T16:15:16Z</time>
      </trkpt>
      <trkpt lat="52.64363" lon="-6.55402">
        <ele>84.43</ele>
        <time>2021-03-20T16:15:20Z</time>
      </trkpt>
      <trkpt lat="52.64205" lon="-6.55377">
        <ele>82.74</ele>
        <time>2021-03-20T16:15:24Z</time>
      </trkpt>
      <trkpt lat="52.6415" lon="-6.55372">
        <ele>82</ele>
        <time>2021-03-20T16:15:28Z</time>
      </trkpt>
      <trkpt lat="52.64097" lon="-6.55374">
        <ele>79.48</ele>
        <time>2021-03-20T16:15:32Z</time>
      </trkpt>
      <trkpt lat="52.64061" lon="-6.5537">
        <ele>78.2</ele>
        <time>2021-03-20T16:15:35Z</time>
      </trkpt>
      <trkpt lat="52.63983" lon="-6.55345">
        <ele>75.16</ele>
        <time>2021-03-20T16:15:39Z</time>
      </trkpt>
      <trkpt lat="52.63923" lon="-6.55332">
        <ele>72.47</ele>
        <time>2021-03-20T16:15:43Z</time>
      </trkpt>
      <trkpt lat="52.63897" lon="-6.55317">
        <ele>71.59</ele>
        <time>2021-03-20T16:15:47Z</time>
      </trkpt>
      <trkpt lat="52.6387" lon="-6.5529">
        <ele>70.42</ele>
        <time>2021-03-20T16:15:51Z</time>
      </trkpt>
      <trkpt lat="52.63844" lon="-6.55271">
        <ele>69.28</ele>
        <time>2021-03-20T16:15:55Z</time>
      </trkpt>
      <trkpt lat="52.63808" lon="-6.55252">
        <ele>67.09</ele>
        <time>2021-03-20T16:15:58Z</time>
      </trkpt>
      <trkpt lat="52.63706" lon="-6.55214">
        <ele>66.41</ele>
        <time>2021-03-20T16:16:02Z</time>
      </trkpt>
      <trkpt lat="52.63683" lon="-6.55208">
        <ele>66</ele>
        <time>2021-03-20T16:16:06Z</time>
      </trkpt>
      <trkpt lat="52.6355" lon="-6.55214">
        <ele>60.2</ele>
        <time>2021-03-20T16:16:10Z</time>
      </trkpt>
      <trkpt lat="52.63522" lon="-6.552">
        <ele>61</ele>
        <time>2021-03-20T16:16:14Z</time>
      </trkpt>
      <trkpt lat="52.63504" lon="-6.552">
        <ele>61</ele>
        <time>2021-03-20T16:16:17Z</time>
      </trkpt>
      <trkpt lat="52.63487" lon="-6.55207">
        <ele>60.53</ele>
        <time>2021-03-20T16:16:21Z</time>
      </trkpt>
      <trkpt lat="52.63449" lon="-6.55245">
        <ele>59.85</ele>
        <time>2021-03-20T16:16:25Z</time>
      </trkpt>
      <trkpt lat="52.63426" lon="-6.55262">
        <ele>59.63</ele>
        <time>2021-03-20T16:16:29Z</time>
      </trkpt>
      <trkpt lat="52.63358" lon="-6.55298">
        <ele>59.88</ele>
        <time>2021-03-20T16:16:33Z</time>
      </trkpt>
      <trkpt lat="52.63327" lon="-6.55325">
        <ele>58.51</ele>
        <time>2021-03-20T16:16:37Z</time>
      </trkpt>
      <trkpt lat="52.63262" lon="-6.55394">
        <ele>55.8</ele>
        <time>2021-03-20T16:16:40Z</time>
      </trkpt>
      <trkpt lat="52.63227" lon="-6.55439">
        <ele>55.84</ele>
        <time>2021-03-20T16:16:44Z</time>
      </trkpt>
      <trkpt lat="52.6319" lon="-6.55461">
        <ele>56.94</ele>
        <time>2021-03-20T16:16:48Z</time>
      </trkpt>
      <trkpt lat="52.63094" lon="-6.55511">
        <ele>52.79</ele>
        <time>2021-03-20T16:16:52Z</time>
      </trkpt>
      <trkpt lat="52.63085" lon="-6.55519">
        <ele>51.55</ele>
        <time>2021-03-20T16:16:56Z</time>
      </trkpt>
      <trkpt lat="52.63046" lon="-6.55561">
        <ele>47.81</ele>
        <time>2021-03-20T16:17:00Z</time>
      </trkpt>
      <trkpt lat="52.63021" lon="-6.55578">
        <ele>47.45</ele>
        <time>2021-03-20T16:17:03Z</time>
      </trkpt>
      <trkpt lat="52.63004" lon="-6.55583">
        <ele>47.87</ele>
        <time>2021-03-20T16:17:07Z</time>
      </trkpt>
      <trkpt lat="52.62888" lon="-6.55601">
        <ele>54.03</ele>
        <time>2021-03-20T16:17:11Z</time>
      </trkpt>
      <trkpt lat="52.62845" lon="-6.55584">
        <ele>54.99</ele>
        <time>2021-03-20T16:17:15Z</time>
      </trkpt>
      <trkpt lat="52.62794" lon="-6.55538">
        <ele>56.86</ele>
        <time>2021-03-20T16:17:19Z</time>
      </trkpt>
      <trkpt lat="52.62767" lon="-6.55522">
        <ele>58.98</ele>
        <time>2021-03-20T16:17:22Z</time>
      </trkpt>
      <trkpt lat="52.627" lon="-6.55501">
        <ele>64.76</ele>
        <time>2021-03-20T16:17:26Z</time>
      </trkpt>
      <trkpt lat="52.62659" lon="-6.55492">
        <ele>65.64</ele>
        <time>2021-03-20T16:17:30Z</time>
      </trkpt>
      <trkpt lat="52.62597" lon="-6.55486">
        <ele>67</ele>
        <time>2021-03-20T16:17:34Z</time>
      </trkpt>
      <trkpt lat="52.62549" lon="-6.55485">
        <ele>66.08</ele>
        <time>2021-03-20T16:17:38Z</time>
      </trkpt>
      <trkpt lat="52.62485" lon="-6.5549">
        <ele>67.31</ele>
        <time>2021-03-20T16:17:42Z</time>
      </trkpt>
      <trkpt lat="52.62375" lon="-6.55513">
        <ele>60.57</ele>
        <time>2021-03-20T16:17:45Z</time>
      </trkpt>
      <trkpt lat="52.62339" lon="-6.55513">
        <ele>63.47</ele>
        <time>2021-03-20T16:17:49Z</time>
      </trkpt>
      <trkpt lat="52.62244" lon="-6.55476">
        <ele>65.72</ele>
        <time>2021-03-20T16:17:53Z</time>
      </trkpt>
      <trkpt lat="52.62227" lon="-6.55473">
        <ele>65.96</ele>
        <time>2021-03-20T16:17:57Z</time>
      </trkpt>
      <trkpt lat="52.62202" lon="-6.5548">
        <ele>64.69</ele>
        <time>2021-03-20T16:18:01Z</time>
      </trkpt>
      <trkpt lat="52.62091" lon="-6.55537">
        <ele>62.6</ele>
        <time>2021-03-20T16:18:05Z</time>
      </trkpt>
      <trkpt lat="52.62069" lon="-6.55538">
        <ele>63.09</ele>
        <time>2021-03-20T16:18:08Z</time>
      </trkpt>
      <trkpt lat="52.62047" lon="-6.55534">
        <ele>62.67</ele>
        <time>2021-03-20T16:18:12Z</time>
      </trkpt>
      <trkpt lat="52.62026" lon="-6.55527">
        <ele>60.91</ele>
        <time>2021-03-20T16:18:16Z</time>
      </trkpt>
      <trkpt lat="52.61806" lon="-6.55413">
        <ele>59.28</ele>
        <time>2021-03-20T16:18:20Z</time>
      </trkpt>
      <trkpt lat="52.6175" lon="-6.55388">
        <ele>57</ele>
        <time>2021-03-20T16:18:24Z</time>
      </trkpt>
      <trkpt lat="52.61666" lon="-6.55364">
        <ele>54.69</ele>
        <time>2021-03-20T16:18:28Z</time>
      </trkpt>
      <trkpt lat="52.61582" lon="-6.55351">
        <ele>51.31</ele>
        <time>2021-03-20T16:18:31Z</time>
      </trkpt>
      <trkpt lat="52.61542" lon="-6.55336">
        <ele>49.45</ele>
        <time>2021-03-20T16:18:35Z</time>
      </trkpt>
      <trkpt lat="52.61511" lon="-6.55315">
        <ele>49</ele>
        <time>2021-03-20T16:18:39Z</time>
      </trkpt>
      <trkpt lat="52.61442" lon="-6.5524">
        <ele>54.76</ele>
        <time>2021-03-20T16:18:43Z</time>
      </trkpt>
      <trkpt lat="52.61322" lon="-6.55163">
        <ele>52.79</ele>
        <time>2021-03-20T16:18:47Z</time>
      </trkpt>
      <trkpt lat="52.61295" lon="-6.55139">
        <ele>53.02</ele>
        <time>2021-03-20T16:18:50Z</time>
      </trkpt>
      <trkpt lat="52.61215" lon="-6.55073">
        <ele>54.64</ele>
        <time>2021-03-20T16:18:54Z</time>
      </trkpt>
      <trkpt lat="52.6118" lon="-6.55048">
        <ele>55.26</ele>
        <time>2021-03-20T16:18:58Z</time>
      </trkpt>
      <trkpt lat="52.6114" lon="-6.55005">
        <ele>54.88</ele>
        <time>2021-03-20T16:19:02Z</time>
      </trkpt>
      <trkpt lat="52.61108" lon="-6.5499">
        <ele>54.3</ele>
        <time>2021-03-20T16:19:06Z</time>
      </trkpt>
      <trkpt lat="52.61037" lon="-6.54983">
        <ele>52.09</ele>
        <time>2021-03-20T16:19:10Z</time>
      </trkpt>
      <trkpt lat="52.60977" lon="-6.5497">
        <ele>50.25</ele>
        <time>2021-03-20T16:19:13Z</time>
      </trkpt>
      <trkpt lat="52.60809" lon="-6.54896">
        <ele>49.89</ele>
        <time>2021-03-20T16:19:17Z</time>
      </trkpt>
      <trkpt lat="52.60724" lon="-6.54867">
        <ele>47.84</ele>
        <time>2021-03-20T16:19:21Z</time>
      </trkpt>
      <trkpt lat="52.60669" lon="-6.54862">
        <ele>47.91</ele>
        <time>2021-03-20T16:19:25Z</time>
      </trkpt>
      <trkpt lat="52.60566" lon="-6.54861">
        <ele>48.99</ele>
        <time>2021-03-20T16:19:29Z</time>
      </trkpt>
      <trkpt lat="52.60498" lon="-6.54833">
        <ele>52</ele>
        <time>2021-03-20T16:19:33Z</time>
      </trkpt>
      <trkpt lat="52.60465" lon="-6.54825">
        <ele>52</ele>
        <time>2021-03-20T16:19:36Z</time>
      </trkpt>
      <trkpt lat="52.60432" lon="-6.5483">
        <ele>52</ele>
        <time>2021-03-20T16:19:40Z</time>
      </trkpt>
      <trkpt lat="52.60386" lon="-6.54853">
        <ele>50.36</ele>
        <time>2021-03-20T16:19:44Z</time>
      </trkpt>
      <trkpt lat="52.60315" lon="-6.54898">
        <ele>50.69</ele>
        <time>2021-03-20T16:19:48Z</time>
      </trkpt>
      <trkpt lat="52.60302" lon="-6.54884">
        <ele>51.25</ele>
        <time>2021-03-20T16:19:49Z</time>
      </trkpt>
      <trkpt lat="52.60285" lon="-6.54906">
        <ele>51.85</ele>
        <time>2021-03-20T16:19:52Z</time>
      </trkpt>
      <trkpt lat="52.60205" lon="-6.54973">
        <ele>52.62</ele>
        <time>2021-03-20T16:19:55Z</time>
      </trkpt>
      <trkpt lat="52.60178" lon="-6.54992">
        <ele>53.44</ele>
        <time>2021-03-20T16:19:58Z</time>
      </trkpt>
      <trkpt lat="52.60127" lon="-6.55022">
        <ele>55.79</ele>
        <time>2021-03-20T16:20:01Z</time>
      </trkpt>
      <trkpt lat="52.60104" lon="-6.55032">
        <ele>56.15</ele>
        <time>2021-03-20T16:20:04Z</time>
      </trkpt>
      <trkpt lat="52.60081" lon="-6.55051">
        <ele>56.82</ele>
        <time>2021-03-20T16:20:07Z</time>
      </trkpt>
      <trkpt lat="52.60012" lon="-6.55098">
        <ele>57.23</ele>
        <time>2021-03-20T16:20:10Z</time>
      </trkpt>
      <trkpt lat="52.59999" lon="-6.55083">
        <ele>57</ele>
        <time>2021-03-20T16:20:11Z</time>
      </trkpt>
      <trkpt lat="52.59959" lon="-6.55036">
        <ele>55.51</ele>
        <time>2021-03-20T16:20:15Z</time>
      </trkpt>
      <trkpt lat="52.59888" lon="-6.54983">
        <ele>55.97</ele>
        <time>2021-03-20T16:20:19Z</time>
      </trkpt>
      <trkpt lat="52.59845" lon="-6.54933">
        <ele>55.43</ele>
        <time>2021-03-20T16:20:22Z</time>
      </trkpt>
      <trkpt lat="52.59806" lon="-6.54882">
        <ele>55</ele>
        <time>2021-03-20T16:20:26Z</time>
      </trkpt>
      <trkpt lat="52.59798" lon="-6.5488">
        <ele>55</ele>
        <time>2021-03-20T16:20:30Z</time>
      </trkpt>
      <trkpt lat="52.59741" lon="-6.54919">
        <ele>54</ele>
        <time>2021-03-20T16:20:34Z</time>
      </trkpt>
      <trkpt lat="52.59696" lon="-6.54944">
        <ele>53.05</ele>
        <time>2021-03-20T16:20:38Z</time>
      </trkpt>
      <trkpt lat="52.59674" lon="-6.54949">
        <ele>52.15</ele>
        <time>2021-03-20T16:20:42Z</time>
      </trkpt>
      <trkpt lat="52.5965" lon="-6.54942">
        <ele>50.76</ele>
        <time>2021-03-20T16:20:46Z</time>
      </trkpt>
      <trkpt lat="52.59626" lon="-6.5494">
        <ele>49.55</ele>
        <time>2021-03-20T16:20:50Z</time>
      </trkpt>
      <trkpt lat="52.59573" lon="-6.54948">
        <ele>48.55</ele>
        <time>2021-03-20T16:20:53Z</time>
      </trkpt>
      <trkpt lat="52.59511" lon="-6.54946">
        <ele>46.74</ele>
        <time>2021-03-20T16:20:57Z</time>
      </trkpt>
      <trkpt lat="52.59458" lon="-6.54932">
        <ele>40.96</ele>
        <time>2021-03-20T16:21:01Z</time>
      </trkpt>
      <trkpt lat="52.59411" lon="-6.54911">
        <ele>38.95</ele>
        <time>2021-03-20T16:21:05Z</time>
      </trkpt>
      <trkpt lat="52.59391" lon="-6.54904">
        <ele>38.58</ele>
        <time>2021-03-20T16:21:09Z</time>
      </trkpt>
      <trkpt lat="52.59347" lon="-6.54895">
        <ele>38.23</ele>
        <time>2021-03-20T16:21:13Z</time>
      </trkpt>
      <trkpt lat="52.59309" lon="-6.54905">
        <ele>39.46</ele>
        <time>2021-03-20T16:21:17Z</time>
      </trkpt>
      <trkpt lat="52.59272" lon="-6.5491">
        <ele>40.26</ele>
        <time>2021-03-20T16:21:21Z</time>
      </trkpt>
      <trkpt lat="52.59206" lon="-6.54902">
        <ele>41.38</ele>
        <time>2021-03-20T16:21:25Z</time>
      </trkpt>
      <trkpt lat="52.59141" lon="-6.54891">
        <ele>41.87</ele>
        <time>2021-03-20T16:21:29Z</time>
      </trkpt>
      <trkpt lat="52.58958" lon="-6.54825">
        <ele>37.69</ele>
        <time>2021-03-20T16:21:32Z</time>
      </trkpt>
      <trkpt lat="52.58931" lon="-6.54821">
        <ele>36.07</ele>
        <time>2021-03-20T16:21:36Z</time>
      </trkpt>
      <trkpt lat="52.58859" lon="-6.54832">
        <ele>31.08</ele>
        <time>2021-03-20T16:21:40Z</time>
      </trkpt>
      <trkpt lat="52.5883" lon="-6.5484">
        <ele>32.2</ele>
        <time>2021-03-20T16:21:44Z</time>
      </trkpt>
      <trkpt lat="52.5879" lon="-6.54839">
        <ele>35.78</ele>
        <time>2021-03-20T16:21:48Z</time>
      </trkpt>
      <trkpt lat="52.5877" lon="-6.54826">
        <ele>38.9</ele>
        <time>2021-03-20T16:21:52Z</time>
      </trkpt>
      <trkpt lat="52.5871" lon="-6.54742">
        <ele>42.69</ele>
        <time>2021-03-20T16:21:56Z</time>
      </trkpt>
      <trkpt lat="52.5864" lon="-6.54694">
        <ele>46.96</ele>
        <time>2021-03-20T16:22:00Z</time>
      </trkpt>
      <trkpt lat="52.58548" lon="-6.54639">
        <ele>53.51</ele>
        <time>2021-03-20T16:22:04Z</time>
      </trkpt>
      <trkpt lat="52.58456" lon="-6.54577">
        <ele>54.2</ele>
        <time>2021-03-20T16:22:08Z</time>
      </trkpt>
      <trkpt lat="52.58379" lon="-6.54537">
        <ele>54.95</ele>
        <time>2021-03-20T16:22:12Z</time>
      </trkpt>
      <trkpt lat="52.58338" lon="-6.54532">
        <ele>53.2</ele>
        <time>2021-03-20T16:22:15Z</time>
      </trkpt>
      <trkpt lat="52.58302" lon="-6.54552">
        <ele>51</ele>
        <time>2021-03-20T16:22:19Z</time>
      </trkpt>
      <trkpt lat="52.58184" lon="-6.54541">
        <ele>52.64</ele>
        <time>2021-03-20T16:22:23Z</time>
      </trkpt>
      <trkpt lat="52.58119" lon="-6.54541">
        <ele>52.73</ele>
        <time>2021-03-20T16:22:27Z</time>
      </trkpt>
      <trkpt lat="52.58045" lon="-6.54551">
        <ele>52.36</ele>
        <time>2021-03-20T16:22:31Z</time>
      </trkpt>
      <trkpt lat="52.58012" lon="-6.54551">
        <ele>53.48</ele>
        <time>2021-03-20T16:22:35Z</time>
      </trkpt>
      <trkpt lat="52.57952" lon="-6.54539">
        <ele>52.65</ele>
        <time>2021-03-20T16:22:39Z</time>
      </trkpt>
      <trkpt lat="52.57872" lon="-6.54509">
        <ele>53.77</ele>
        <time>2021-03-20T16:22:43Z</time>
      </trkpt>
      <trkpt lat="52.57841" lon="-6.54502">
        <ele>54.92</ele>
        <time>2021-03-20T16:22:47Z</time>
      </trkpt>
      <trkpt lat="52.57816" lon="-6.54506">
        <ele>54.28</ele>
        <time>2021-03-20T16:22:51Z</time>
      </trkpt>
      <trkpt lat="52.57777" lon="-6.54519">
        <ele>53.64</ele>
        <time>2021-03-20T16:22:55Z</time>
      </trkpt>
      <trkpt lat="52.57707" lon="-6.54523">
        <ele>52.84</ele>
        <time>2021-03-20T16:22:58Z</time>
      </trkpt>
      <trkpt lat="52.57643" lon="-6.54518">
        <ele>53.58</ele>
        <time>2021-03-20T16:23:02Z</time>
      </trkpt>
      <trkpt lat="52.57575" lon="-6.54531">
        <ele>53.71</ele>
        <time>2021-03-20T16:23:06Z</time>
      </trkpt>
      <trkpt lat="52.57377" lon="-6.54594">
        <ele>52.75</ele>
        <time>2021-03-20T16:23:10Z</time>
      </trkpt>
      <trkpt lat="52.57286" lon="-6.54619">
        <ele>49.89</ele>
        <time>2021-03-20T16:23:14Z</time>
      </trkpt>
      <trkpt lat="52.57242" lon="-6.54624">
        <ele>50</ele>
        <time>2021-03-20T16:23:18Z</time>
      </trkpt>
      <trkpt lat="52.57208" lon="-6.54613">
        <ele>52.09</ele>
        <time>2021-03-20T16:23:22Z</time>
      </trkpt>
      <trkpt lat="52.57176" lon="-6.54591">
        <ele>52.28</ele>
        <time>2021-03-20T16:23:26Z</time>
      </trkpt>
      <trkpt lat="52.57132" lon="-6.54579">
        <ele>51.84</ele>
        <time>2021-03-20T16:23:30Z</time>
      </trkpt>
      <trkpt lat="52.57088" lon="-6.54572">
        <ele>51.58</ele>
        <time>2021-03-20T16:23:34Z</time>
      </trkpt>
      <trkpt lat="52.57052" lon="-6.54591">
        <ele>52.13</ele>
        <time>2021-03-20T16:23:38Z</time>
      </trkpt>
      <trkpt lat="52.5701" lon="-6.54632">
        <ele>54.07</ele>
        <time>2021-03-20T16:23:41Z</time>
      </trkpt>
      <trkpt lat="52.56987" lon="-6.5465">
        <ele>54.94</ele>
        <time>2021-03-20T16:23:45Z</time>
      </trkpt>
      <trkpt lat="52.56894" lon="-6.54693">
        <ele>60.96</ele>
        <time>2021-03-20T16:23:49Z</time>
      </trkpt>
      <trkpt lat="52.56817" lon="-6.54743">
        <ele>62.15</ele>
        <time>2021-03-20T16:23:53Z</time>
      </trkpt>
      <trkpt lat="52.56791" lon="-6.54752">
        <ele>61.51</ele>
        <time>2021-03-20T16:23:57Z</time>
      </trkpt>
      <trkpt lat="52.56756" lon="-6.54754">
        <ele>59.51</ele>
        <time>2021-03-20T16:24:01Z</time>
      </trkpt>
      <trkpt lat="52.56726" lon="-6.54776">
        <ele>59.08</ele>
        <time>2021-03-20T16:24:05Z</time>
      </trkpt>
      <trkpt lat="52.56657" lon="-6.54864">
        <ele>60</ele>
        <time>2021-03-20T16:24:09Z</time>
      </trkpt>
      <trkpt lat="52.56548" lon="-6.54989">
        <ele>58.11</ele>
        <time>2021-03-20T16:24:13Z</time>
      </trkpt>
      <trkpt lat="52.56514" lon="-6.5504">
        <ele>57.51</ele>
        <time>2021-03-20T16:24:17Z</time>
      </trkpt>
      <trkpt lat="52.565" lon="-6.55053">
        <ele>58</ele>
        <time>2021-03-20T16:24:21Z</time>
      </trkpt>
      <trkpt lat="52.56474" lon="-6.55072">
        <ele>57.44</ele>
        <time>2021-03-20T16:24:24Z</time>
      </trkpt>
      <trkpt lat="52.56441" lon="-6.5509">
        <ele>54.85</ele>
        <time>2021-03-20T16:24:28Z</time>
      </trkpt>
      <trkpt lat="52.56351" lon="-6.55135">
        <ele>52.54</ele>
        <time>2021-03-20T16:24:32Z</time>
      </trkpt>
      <trkpt lat="52.56293" lon="-6.55177">
        <ele>51.48</ele>
        <time>2021-03-20T16:24:36Z</time>
      </trkpt>
      <trkpt lat="52.56216" lon="-6.55315">
        <ele>44.24</ele>
        <time>2021-03-20T16:24:40Z</time>
      </trkpt>
      <trkpt lat="52.56142" lon="-6.55474">
        <ele>41</ele>
        <time>2021-03-20T16:24:44Z</time>
      </trkpt>
      <trkpt lat="52.56116" lon="-6.55549">
        <ele>38.25</ele>
        <time>2021-03-20T16:24:48Z</time>
      </trkpt>
      <trkpt lat="52.56085" lon="-6.55659">
        <ele>31.28</ele>
        <time>2021-03-20T16:24:52Z</time>
      </trkpt>
      <trkpt lat="52.56073" lon="-6.55708">
        <ele>28.11</ele>
        <time>2021-03-20T16:24:56Z</time>
      </trkpt>
      <trkpt lat="52.56049" lon="-6.55832">
        <ele>22.83</ele>
        <time>2021-03-20T16:25:00Z</time>
      </trkpt>
      <trkpt lat="52.56032" lon="-6.55824">
        <ele>22.46</ele>
        <time>2021-03-20T16:25:06Z</time>
      </trkpt>
      <trkpt lat="52.55964" lon="-6.55804">
        <ele>21.08</ele>
        <time>2021-03-20T16:25:12Z</time>
      </trkpt>
      <trkpt lat="52.55914" lon="-6.55784">
        <ele>22.2</ele>
        <time>2021-03-20T16:25:18Z</time>
      </trkpt>
      <trkpt lat="52.55566" lon="-6.55452">
        <ele>21.03</ele>
        <time>2021-03-20T16:25:24Z</time>
      </trkpt>
      <trkpt lat="52.55486" lon="-6.55396">
        <ele>16.48</ele>
        <time>2021-03-20T16:25:30Z</time>
      </trkpt>
      <trkpt lat="52.5537" lon="-6.55305">
        <ele>20.73</ele>
        <time>2021-03-20T16:25:37Z</time>
      </trkpt>
      <trkpt lat="52.55109" lon="-6.55149">
        <ele>11.93</ele>
        <time>2021-03-20T16:25:43Z</time>
      </trkpt>
      <trkpt lat="52.54929" lon="-6.55007">
        <ele>13.17</ele>
        <time>2021-03-20T16:25:49Z</time>
      </trkpt>
      <trkpt lat="52.54852" lon="-6.5495">
        <ele>12</ele>
        <time>2021-03-20T16:25:55Z</time>
      </trkpt>
      <trkpt lat="52.54804" lon="-6.54891">
        <ele>11.8</ele>
        <time>2021-03-20T16:26:01Z</time>
      </trkpt>
      <trkpt lat="52.54783" lon="-6.54858">
        <ele>10.44</ele>
        <time>2021-03-20T16:26:07Z</time>
      </trkpt>
      <trkpt lat="52.54779" lon="-6.54825">
        <ele>11.05</ele>
        <time>2021-03-20T16:26:13Z</time>
      </trkpt>
      <trkpt lat="52.54793" lon="-6.54777">
        <ele>11.56</ele>
        <time>2021-03-20T16:26:20Z</time>
      </trkpt>
      <trkpt lat="52.54797" lon="-6.54759">
        <ele>11.7</ele>
        <time>2021-03-20T16:26:26Z</time>
      </trkpt>
      <trkpt lat="52.54794" lon="-6.54737">
        <ele>12.06</ele>
        <time>2021-03-20T16:26:32Z</time>
      </trkpt>
      <trkpt lat="52.54789" lon="-6.5472">
        <ele>12.4</ele>
        <time>2021-03-20T16:26:38Z</time>
      </trkpt>
      <trkpt lat="52.54743" lon="-6.54759">
        <ele>11</ele>
        <time>2021-03-20T16:26:42Z</time>
      </trkpt>
      <trkpt lat="52.54671" lon="-6.5454">
        <ele>10.51</ele>
        <time>2021-03-20T16:26:47Z</time>
      </trkpt>
      <trkpt lat="52.54657" lon="-6.54507">
        <ele>9.51</ele>
        <time>2021-03-20T16:26:53Z</time>
      </trkpt>
      <trkpt lat="52.54638" lon="-6.54475">
        <ele>10.16</ele>
        <time>2021-03-20T16:26:58Z</time>
      </trkpt>
      <trkpt lat="52.54612" lon="-6.54454">
        <ele>16.92</ele>
        <time>2021-03-20T16:27:04Z</time>
      </trkpt>
      <trkpt lat="52.54592" lon="-6.54448">
        <ele>22.97</ele>
        <time>2021-03-20T16:27:09Z</time>
      </trkpt>
      <trkpt lat="52.54538" lon="-6.54487">
        <ele>24.36</ele>
        <time>2021-03-20T16:27:15Z</time>
      </trkpt>
      <trkpt lat="52.54491" lon="-6.54479">
        <ele>28.82</ele>
        <time>2021-03-20T16:27:20Z</time>
      </trkpt>
      <trkpt lat="52.54445" lon="-6.54446">
        <ele>30.9</ele>
        <time>2021-03-20T16:27:26Z</time>
      </trkpt>
      <trkpt lat="52.54396" lon="-6.544">
        <ele>33.47</ele>
        <time>2021-03-20T16:27:31Z</time>
      </trkpt>
      <trkpt lat="52.54365" lon="-6.54351">
        <ele>34.4</ele>
        <time>2021-03-20T16:27:37Z</time>
      </trkpt>
      <trkpt lat="52.54345" lon="-6.54301">
        <ele>34.27</ele>
        <time>2021-03-20T16:27:43Z</time>
      </trkpt>
      <trkpt lat="52.5432" lon="-6.54225">
        <ele>31.11</ele>
        <time>2021-03-20T16:27:48Z</time>
      </trkpt>
      <trkpt lat="52.54283" lon="-6.54149">
        <ele>31.3</ele>
        <time>2021-03-20T16:27:54Z</time>
      </trkpt>
      <trkpt lat="52.54247" lon="-6.54088">
        <ele>29.9</ele>
        <time>2021-03-20T16:27:59Z</time>
      </trkpt>
      <trkpt lat="52.54167" lon="-6.53936">
        <ele>24.35</ele>
        <time>2021-03-20T16:28:05Z</time>
      </trkpt>
      <trkpt lat="52.54135" lon="-6.5389">
        <ele>24.18</ele>
        <time>2021-03-20T16:28:10Z</time>
      </trkpt>
      <trkpt lat="52.54068" lon="-6.53837">
        <ele>23.23</ele>
        <time>2021-03-20T16:28:16Z</time>
      </trkpt>
      <trkpt lat="52.54061" lon="-6.53778">
        <ele>24.55</ele>
        <time>2021-03-20T16:28:21Z</time>
      </trkpt>
      <trkpt lat="52.54023" lon="-6.53687">
        <ele>23.79</ele>
        <time>2021-03-20T16:28:27Z</time>
      </trkpt>
      <trkpt lat="52.5397" lon="-6.53601">
        <ele>22.86</ele>
        <time>2021-03-20T16:28:32Z</time>
      </trkpt>
      <trkpt lat="52.53933" lon="-6.53517">
        <ele>22.35</ele>
        <time>2021-03-20T16:28:38Z</time>
      </trkpt>
      <trkpt lat="52.53885" lon="-6.53396">
        <ele>18.36</ele>
        <time>2021-03-20T16:28:43Z</time>
      </trkpt>
      <trkpt lat="52.5385" lon="-6.53327">
        <ele>20.8</ele>
        <time>2021-03-20T16:28:49Z</time>
      </trkpt>
      <trkpt lat="52.53775" lon="-6.53224">
        <ele>20.81</ele>
        <time>2021-03-20T16:28:55Z</time>
      </trkpt>
      <trkpt lat="52.53673" lon="-6.53108">
        <ele>19</ele>
        <time>2021-03-20T16:29:00Z</time>
      </trkpt>
      <trkpt lat="52.53601" lon="-6.53029">
        <ele>18.31</ele>
        <time>2021-03-20T16:29:06Z</time>
      </trkpt>
      <trkpt lat="52.53554" lon="-6.52967">
        <ele>16.8</ele>
        <time>2021-03-20T16:29:11Z</time>
      </trkpt>
      <trkpt lat="52.53509" lon="-6.52944">
        <ele>15.28</ele>
        <time>2021-03-20T16:29:17Z</time>
      </trkpt>
      <trkpt lat="52.53437" lon="-6.52943">
        <ele>12.81</ele>
        <time>2021-03-20T16:29:22Z</time>
      </trkpt>
      <trkpt lat="52.53417" lon="-6.52933">
        <ele>12.83</ele>
        <time>2021-03-20T16:29:28Z</time>
      </trkpt>
      <trkpt lat="52.53397" lon="-6.52917">
        <ele>15.42</ele>
        <time>2021-03-20T16:29:33Z</time>
      </trkpt>
      <trkpt lat="52.53346" lon="-6.52886">
        <ele>18.36</ele>
        <time>2021-03-20T16:29:39Z</time>
      </trkpt>
      <trkpt lat="52.53252" lon="-6.52806">
        <ele>24.95</ele>
        <time>2021-03-20T16:29:44Z</time>
      </trkpt>
      <trkpt lat="52.53145" lon="-6.52764">
        <ele>28.72</ele>
        <time>2021-03-20T16:29:50Z</time>
      </trkpt>
      <trkpt lat="52.53065" lon="-6.5275">
        <ele>29.04</ele>
        <time>2021-03-20T16:29:56Z</time>
      </trkpt>
      <trkpt lat="52.52983" lon="-6.52743">
        <ele>28.4</ele>
        <time>2021-03-20T16:30:01Z</time>
      </trkpt>
      <trkpt lat="52.5284" lon="-6.52727">
        <ele>26.68</ele>
        <time>2021-03-20T16:30:07Z</time>
      </trkpt>
      <trkpt lat="52.52688" lon="-6.52756">
        <ele>21.73</ele>
        <time>2021-03-20T16:30:12Z</time>
      </trkpt>
      <trkpt lat="52.52622" lon="-6.52774">
        <ele>18.5</ele>
        <time>2021-03-20T16:30:18Z</time>
      </trkpt>
      <trkpt lat="52.5256" lon="-6.52841">
        <ele>14.32</ele>
        <time>2021-03-20T16:30:23Z</time>
      </trkpt>
      <trkpt lat="52.52508" lon="-6.52912">
        <ele>11.42</ele>
        <time>2021-03-20T16:30:29Z</time>
      </trkpt>
      <trkpt lat="52.5248" lon="-6.52977">
        <ele>12.22</ele>
        <time>2021-03-20T16:30:34Z</time>
      </trkpt>
      <trkpt lat="52.52454" lon="-6.53018">
        <ele>11.71</ele>
        <time>2021-03-20T16:30:40Z</time>
      </trkpt>
      <trkpt lat="52.52431" lon="-6.53025">
        <ele>10.69</ele>
        <time>2021-03-20T16:30:45Z</time>
      </trkpt>
      <trkpt lat="52.52278" lon="-6.53155">
        <ele>6.45</ele>
        <time>2021-03-20T16:30:51Z</time>
      </trkpt>
      <trkpt lat="52.52176" lon="-6.53232">
        <ele>8.27</ele>
        <time>2021-03-20T16:30:57Z</time>
      </trkpt>
      <trkpt lat="52.52001" lon="-6.53345">
        <ele>10.2</ele>
        <time>2021-03-20T16:31:02Z</time>
      </trkpt>
      <trkpt lat="52.51978" lon="-6.53353">
        <ele>8.57</ele>
        <time>2021-03-20T16:31:08Z</time>
      </trkpt>
      <trkpt lat="52.51928" lon="-6.53356">
        <ele>9.78</ele>
        <time>2021-03-20T16:31:13Z</time>
      </trkpt>
      <trkpt lat="52.51869" lon="-6.53387">
        <ele>8.74</ele>
        <time>2021-03-20T16:31:19Z</time>
      </trkpt>
      <trkpt lat="52.51804" lon="-6.53414">
        <ele>10.85</ele>
        <time>2021-03-20T16:31:24Z</time>
      </trkpt>
      <trkpt lat="52.51674" lon="-6.5348">
        <ele>20.53</ele>
        <time>2021-03-20T16:31:30Z</time>
      </trkpt>
      <trkpt lat="52.5162" lon="-6.53505">
        <ele>24.23</ele>
        <time>2021-03-20T16:31:35Z</time>
      </trkpt>
      <trkpt lat="52.51576" lon="-6.53533">
        <ele>29.26</ele>
        <time>2021-03-20T16:31:41Z</time>
      </trkpt>
      <trkpt lat="52.51533" lon="-6.53565">
        <ele>33.58</ele>
        <time>2021-03-20T16:31:46Z</time>
      </trkpt>
      <trkpt lat="52.5149" lon="-6.53602">
        <ele>38.44</ele>
        <time>2021-03-20T16:31:52Z</time>
      </trkpt>
      <trkpt lat="52.51434" lon="-6.53671">
        <ele>40.34</ele>
        <time>2021-03-20T16:31:57Z</time>
      </trkpt>
      <trkpt lat="52.51358" lon="-6.53774">
        <ele>46.52</ele>
        <time>2021-03-20T16:32:03Z</time>
      </trkpt>
      <trkpt lat="52.51317" lon="-6.53835">
        <ele>47.46</ele>
        <time>2021-03-20T16:32:09Z</time>
      </trkpt>
      <trkpt lat="52.51302" lon="-6.53879">
        <ele>48.36</ele>
        <time>2021-03-20T16:32:14Z</time>
      </trkpt>
      <trkpt lat="52.51135" lon="-6.54507">
        <ele>50.22</ele>
        <time>2021-03-20T16:32:20Z</time>
      </trkpt>
      <trkpt lat="52.51092" lon="-6.54656">
        <ele>50.77</ele>
        <time>2021-03-20T16:32:25Z</time>
      </trkpt>
      <trkpt lat="52.51029" lon="-6.54888">
        <ele>40.9</ele>
        <time>2021-03-20T16:32:31Z</time>
      </trkpt>
      <trkpt lat="52.50812" lon="-6.55713">
        <ele>33.03</ele>
        <time>2021-03-20T16:32:36Z</time>
      </trkpt>
      <trkpt lat="52.50822" lon="-6.55825">
        <ele>29.42</ele>
        <time>2021-03-20T16:32:43Z</time>
      </trkpt>
      <trkpt lat="52.50823" lon="-6.55876">
        <ele>27.36</ele>
        <time>2021-03-20T16:32:50Z</time>
      </trkpt>
      <trkpt lat="52.50822" lon="-6.55961">
        <ele>22.38</ele>
        <time>2021-03-20T16:32:58Z</time>
      </trkpt>
      <trkpt lat="52.50816" lon="-6.56025">
        <ele>20.02</ele>
        <time>2021-03-20T16:33:05Z</time>
      </trkpt>
      <trkpt lat="52.50796" lon="-6.56089">
        <ele>19.32</ele>
        <time>2021-03-20T16:33:12Z</time>
      </trkpt>
      <trkpt lat="52.50788" lon="-6.56109">
        <ele>19.31</ele>
        <time>2021-03-20T16:33:19Z</time>
      </trkpt>
      <trkpt lat="52.50753" lon="-6.56171">
        <ele>20.16</ele>
        <time>2021-03-20T16:33:26Z</time>
      </trkpt>
      <trkpt lat="52.50693" lon="-6.56242">
        <ele>20.66</ele>
        <time>2021-03-20T16:33:33Z</time>
      </trkpt>
      <trkpt lat="52.50577" lon="-6.56351">
        <ele>19.09</ele>
        <time>2021-03-20T16:33:40Z</time>
      </trkpt>
      <trkpt lat="52.50491" lon="-6.56442">
        <ele>14.44</ele>
        <time>2021-03-20T16:33:47Z</time>
      </trkpt>
      <trkpt lat="52.50459" lon="-6.56478">
        <ele>13.7</ele>
        <time>2021-03-20T16:33:54Z</time>
      </trkpt>
      <trkpt lat="52.50444" lon="-6.56504">
        <ele>11.81</ele>
        <time>2021-03-20T16:34:01Z</time>
      </trkpt>
      <trkpt lat="52.50431" lon="-6.56515">
        <ele>10.94</ele>
        <time>2021-03-20T16:34:08Z</time>
      </trkpt>
      <trkpt lat="52.50371" lon="-6.56506">
        <ele>10.43</ele>
        <time>2021-03-20T16:34:15Z</time>
      </trkpt>
      <trkpt lat="52.50353" lon="-6.56507">
        <ele>10.66</ele>
        <time>2021-03-20T16:34:22Z</time>
      </trkpt>
      <trkpt lat="52.50323" lon="-6.56529">
        <ele>8.55</ele>
        <time>2021-03-20T16:34:30Z</time>
      </trkpt>
      <trkpt lat="52.50263" lon="-6.56555">
        <ele>6.96</ele>
        <time>2021-03-20T16:34:37Z</time>
      </trkpt>
      <trkpt lat="52.5024" lon="-6.56552">
        <ele>5.78</ele>
        <time>2021-03-20T16:34:44Z</time>
      </trkpt>
      <trkpt lat="52.50203" lon="-6.56511">
        <ele>5.91</ele>
        <time>2021-03-20T16:34:51Z</time>
      </trkpt>
      <trkpt lat="52.50127" lon="-6.56416">
        <ele>7.72</ele>
        <time>2021-03-20T16:34:58Z</time>
      </trkpt>
      <trkpt lat="52.50097" lon="-6.56395">
        <ele>6.64</ele>
        <time>2021-03-20T16:35:05Z</time>
      </trkpt>
      <trkpt lat="52.50082" lon="-6.56395">
        <ele>5.9</ele>
        <time>2021-03-20T16:35:12Z</time>
      </trkpt>
      <trkpt lat="52.50053" lon="-6.56388">
        <ele>8.32</ele>
        <time>2021-03-20T16:35:19Z</time>
      </trkpt>
      <trkpt lat="52.50014" lon="-6.56388">
        <ele>14.96</ele>
        <time>2021-03-20T16:35:26Z</time>
      </trkpt>
      <trkpt lat="52.49988" lon="-6.56393">
        <ele>19.39</ele>
        <time>2021-03-20T16:35:33Z</time>
      </trkpt>
      <trkpt lat="52.49928" lon="-6.5643">
        <ele>18.3</ele>
        <time>2021-03-20T16:35:40Z</time>
      </trkpt>
      <trkpt lat="52.49875" lon="-6.56451">
        <ele>19.49</ele>
        <time>2021-03-20T16:35:47Z</time>
      </trkpt>
      <trkpt lat="52.49819" lon="-6.56487">
        <ele>17.49</ele>
        <time>2021-03-20T16:35:54Z</time>
      </trkpt>
      <trkpt lat="52.49736" lon="-6.56536">
        <ele>14.8</ele>
        <time>2021-03-20T16:36:02Z</time>
      </trkpt>
      <trkpt lat="52.4969" lon="-6.56554">
        <ele>12.85</ele>
        <time>2021-03-20T16:36:09Z</time>
      </trkpt>
      <trkpt lat="52.49642" lon="-6.56567">
        <ele>14.31</ele>
        <time>2021-03-20T16:36:16Z</time>
      </trkpt>
      <trkpt lat="52.4955" lon="-6.56569">
        <ele>8.39</ele>
        <time>2021-03-20T16:36:23Z</time>
      </trkpt>
      <trkpt lat="52.49505" lon="-6.56567">
        <ele>7.8</ele>
        <time>2021-03-20T16:36:30Z</time>
      </trkpt>
      <trkpt lat="52.49381" lon="-6.56537">
        <ele>10.76</ele>
        <time>2021-03-20T16:36:37Z</time>
      </trkpt>
      <trkpt lat="52.49255" lon="-6.56527">
        <ele>9.12</ele>
        <time>2021-03-20T16:36:44Z</time>
      </trkpt>
      <trkpt lat="52.492" lon="-6.56533">
        <ele>9.31</ele>
        <time>2021-03-20T16:36:51Z</time>
      </trkpt>
      <trkpt lat="52.49164" lon="-6.5654">
        <ele>11.34</ele>
        <time>2021-03-20T16:36:58Z</time>
      </trkpt>
      <trkpt lat="52.49021" lon="-6.56593">
        <ele>15.91</ele>
        <time>2021-03-20T16:37:05Z</time>
      </trkpt>
      <trkpt lat="52.48942" lon="-6.56604">
        <ele>17.51</ele>
        <time>2021-03-20T16:37:12Z</time>
      </trkpt>
      <trkpt lat="52.48843" lon="-6.56597">
        <ele>17.15</ele>
        <time>2021-03-20T16:37:19Z</time>
      </trkpt>
      <trkpt lat="52.48633" lon="-6.56532">
        <ele>15.73</ele>
        <time>2021-03-20T16:37:26Z</time>
      </trkpt>
      <trkpt lat="52.4815" lon="-6.56452">
        <ele>6.35</ele>
        <time>2021-03-20T16:37:34Z</time>
      </trkpt>
      <trkpt lat="52.48052" lon="-6.5643">
        <ele>8.44</ele>
        <time>2021-03-20T16:37:41Z</time>
      </trkpt>
      <trkpt lat="52.4796" lon="-6.56405">
        <ele>4.42</ele>
        <time>2021-03-20T16:37:48Z</time>
      </trkpt>
      <trkpt lat="52.47894" lon="-6.56383">
        <ele>5.43</ele>
        <time>2021-03-20T16:37:55Z</time>
      </trkpt>
      <trkpt lat="52.47826" lon="-6.56355">
        <ele>6.18</ele>
        <time>2021-03-20T16:38:02Z</time>
      </trkpt>
      <trkpt lat="52.47524" lon="-6.5625">
        <ele>2.88</ele>
        <time>2021-03-20T16:38:09Z</time>
      </trkpt>
      <trkpt lat="52.47322" lon="-6.56193">
        <ele>2.52</ele>
        <time>2021-03-20T16:38:16Z</time>
      </trkpt>
      <trkpt lat="52.46929" lon="-6.56128">
        <ele>9.52</ele>
        <time>2021-03-20T16:38:23Z</time>
      </trkpt>
      <trkpt lat="52.46583" lon="-6.56065">
        <ele>5.33</ele>
        <time>2021-03-20T16:38:30Z</time>
      </trkpt>
      <trkpt lat="52.46473" lon="-6.56048">
        <ele>4.58</ele>
        <time>2021-03-20T16:38:37Z</time>
      </trkpt>
      <trkpt lat="52.4637" lon="-6.56023">
        <ele>7.06</ele>
        <time>2021-03-20T16:38:44Z</time>
      </trkpt>
      <trkpt lat="52.46282" lon="-6.55996">
        <ele>6.29</ele>
        <time>2021-03-20T16:38:51Z</time>
      </trkpt>
      <trkpt lat="52.4619" lon="-6.55961">
        <ele>6.41</ele>
        <time>2021-03-20T16:38:58Z</time>
      </trkpt>
      <trkpt lat="52.46116" lon="-6.55929">
        <ele>9.65</ele>
        <time>2021-03-20T16:39:06Z</time>
      </trkpt>
      <trkpt lat="52.46042" lon="-6.55891">
        <ele>9.46</ele>
        <time>2021-03-20T16:39:13Z</time>
      </trkpt>
      <trkpt lat="52.4577" lon="-6.55739">
        <ele>9.12</ele>
        <time>2021-03-20T16:39:20Z</time>
      </trkpt>
      <trkpt lat="52.45626" lon="-6.55666">
        <ele>9.02</ele>
        <time>2021-03-20T16:39:27Z</time>
      </trkpt>
      <trkpt lat="52.45552" lon="-6.55625">
        <ele>10.94</ele>
        <time>2021-03-20T16:39:34Z</time>
      </trkpt>
      <trkpt lat="52.45486" lon="-6.5558">
        <ele>8.49</ele>
        <time>2021-03-20T16:39:41Z</time>
      </trkpt>
      <trkpt lat="52.45476" lon="-6.55625">
        <ele>8.51</ele>
        <time>2021-03-20T16:39:46Z</time>
      </trkpt>
      <trkpt lat="52.45464" lon="-6.55941">
        <ele>3</ele>
        <time>2021-03-20T16:39:52Z</time>
      </trkpt>
      <trkpt lat="52.45454" lon="-6.56012">
        <ele>2.56</ele>
        <time>2021-03-20T16:39:57Z</time>
      </trkpt>
      <trkpt lat="52.45434" lon="-6.56135">
        <ele>-0.47</ele>
        <time>2021-03-20T16:40:03Z</time>
      </trkpt>
      <trkpt lat="52.45416" lon="-6.56265">
        <ele>-1</ele>
        <time>2021-03-20T16:40:08Z</time>
      </trkpt>
      <trkpt lat="52.45403" lon="-6.56399">
        <ele>4.85</ele>
        <time>2021-03-20T16:40:13Z</time>
      </trkpt>
      <trkpt lat="52.45343" lon="-6.56667">
        <ele>9.06</ele>
        <time>2021-03-20T16:40:19Z</time>
      </trkpt>
      <trkpt lat="52.45335" lon="-6.56739">
        <ele>8.59</ele>
        <time>2021-03-20T16:40:24Z</time>
      </trkpt>
      <trkpt lat="52.45346" lon="-6.568">
        <ele>8.21</ele>
        <time>2021-03-20T16:40:30Z</time>
      </trkpt>
      <trkpt lat="52.4536" lon="-6.56861">
        <ele>6.96</ele>
        <time>2021-03-20T16:40:35Z</time>
      </trkpt>
      <trkpt lat="52.45376" lon="-6.56961">
        <ele>5.06</ele>
        <time>2021-03-20T16:40:40Z</time>
      </trkpt>
      <trkpt lat="52.45378" lon="-6.57071">
        <ele>2.38</ele>
        <time>2021-03-20T16:40:46Z</time>
      </trkpt>
      <trkpt lat="52.45386" lon="-6.57188">
        <ele>3.08</ele>
        <time>2021-03-20T16:40:51Z</time>
      </trkpt>
      <trkpt lat="52.45384" lon="-6.57248">
        <ele>4.31</ele>
        <time>2021-03-20T16:40:57Z</time>
      </trkpt>
      <trkpt lat="52.45372" lon="-6.5736">
        <ele>7.2</ele>
        <time>2021-03-20T16:41:02Z</time>
      </trkpt>
      <trkpt lat="52.45425" lon="-6.57663">
        <ele>7.72</ele>
        <time>2021-03-20T16:41:07Z</time>
      </trkpt>
      <trkpt lat="52.45447" lon="-6.57808">
        <ele>12.91</ele>
        <time>2021-03-20T16:41:13Z</time>
      </trkpt>
      <trkpt lat="52.45289" lon="-6.57793">
        <ele>21.68</ele>
        <time>2021-03-20T16:41:16Z</time>
      </trkpt>
      <trkpt lat="52.45213" lon="-6.57778">
        <ele>25.36</ele>
        <time>2021-03-20T16:41:20Z</time>
      </trkpt>
      <trkpt lat="52.45045" lon="-6.57759">
        <ele>36.59</ele>
        <time>2021-03-20T16:41:24Z</time>
      </trkpt>
      <trkpt lat="52.45024" lon="-6.57752">
        <ele>39.43</ele>
        <time>2021-03-20T16:41:27Z</time>
      </trkpt>
      <trkpt lat="52.45003" lon="-6.57742">
        <ele>41.69</ele>
        <time>2021-03-20T16:41:31Z</time>
      </trkpt>
      <trkpt lat="52.44964" lon="-6.57706">
        <ele>43.46</ele>
        <time>2021-03-20T16:41:35Z</time>
      </trkpt>
      <trkpt lat="52.44933" lon="-6.57683">
        <ele>46.67</ele>
        <time>2021-03-20T16:41:38Z</time>
      </trkpt>
      <trkpt lat="52.44904" lon="-6.57665">
        <ele>49.04</ele>
        <time>2021-03-20T16:41:42Z</time>
      </trkpt>
      <trkpt lat="52.44809" lon="-6.57619">
        <ele>48.42</ele>
        <time>2021-03-20T16:41:46Z</time>
      </trkpt>
      <trkpt lat="52.44784" lon="-6.57609">
        <ele>49.07</ele>
        <time>2021-03-20T16:41:49Z</time>
      </trkpt>
      <trkpt lat="52.4476" lon="-6.57604">
        <ele>49.26</ele>
        <time>2021-03-20T16:41:53Z</time>
      </trkpt>
      <trkpt lat="52.44729" lon="-6.57587">
        <ele>49.22</ele>
        <time>2021-03-20T16:41:57Z</time>
      </trkpt>
      <trkpt lat="52.44699" lon="-6.57564">
        <ele>48.3</ele>
        <time>2021-03-20T16:42:00Z</time>
      </trkpt>
      <trkpt lat="52.44675" lon="-6.57554">
        <ele>48.72</ele>
        <time>2021-03-20T16:42:04Z</time>
      </trkpt>
      <trkpt lat="52.44623" lon="-6.5755">
        <ele>46.92</ele>
        <time>2021-03-20T16:42:08Z</time>
      </trkpt>
      <trkpt lat="52.44581" lon="-6.5756">
        <ele>43.2</ele>
        <time>2021-03-20T16:42:11Z</time>
      </trkpt>
      <trkpt lat="52.4448" lon="-6.57589">
        <ele>41.92</ele>
        <time>2021-03-20T16:42:15Z</time>
      </trkpt>
      <trkpt lat="52.44309" lon="-6.57608">
        <ele>31.71</ele>
        <time>2021-03-20T16:42:19Z</time>
      </trkpt>
      <trkpt lat="52.44204" lon="-6.57635">
        <ele>28.5</ele>
        <time>2021-03-20T16:42:22Z</time>
      </trkpt>
      <trkpt lat="52.44111" lon="-6.57667">
        <ele>23.04</ele>
        <time>2021-03-20T16:42:26Z</time>
      </trkpt>
      <trkpt lat="52.44052" lon="-6.5768">
        <ele>23.93</ele>
        <time>2021-03-20T16:42:30Z</time>
      </trkpt>
      <trkpt lat="52.43992" lon="-6.57684">
        <ele>23.7</ele>
        <time>2021-03-20T16:42:33Z</time>
      </trkpt>
      <trkpt lat="52.43926" lon="-6.57683">
        <ele>22.61</ele>
        <time>2021-03-20T16:42:37Z</time>
      </trkpt>
      <trkpt lat="52.43859" lon="-6.57687">
        <ele>17.98</ele>
        <time>2021-03-20T16:42:41Z</time>
      </trkpt>
      <trkpt lat="52.43805" lon="-6.57695">
        <ele>12</ele>
        <time>2021-03-20T16:42:44Z</time>
      </trkpt>
      <trkpt lat="52.43768" lon="-6.57704">
        <ele>12.73</ele>
        <time>2021-03-20T16:42:48Z</time>
      </trkpt>
      <trkpt lat="52.43743" lon="-6.57722">
        <ele>14.48</ele>
        <time>2021-03-20T16:42:52Z</time>
      </trkpt>
      <trkpt lat="52.43728" lon="-6.57739">
        <ele>16.23</ele>
        <time>2021-03-20T16:42:55Z</time>
      </trkpt>
      <trkpt lat="52.43711" lon="-6.57767">
        <ele>18.58</ele>
        <time>2021-03-20T16:42:59Z</time>
      </trkpt>
      <trkpt lat="52.43676" lon="-6.57838">
        <ele>23.72</ele>
        <time>2021-03-20T16:43:02Z</time>
      </trkpt>
      <trkpt lat="52.43665" lon="-6.57864">
        <ele>24</ele>
        <time>2021-03-20T16:43:06Z</time>
      </trkpt>
      <trkpt lat="52.43648" lon="-6.57889">
        <ele>24</ele>
        <time>2021-03-20T16:43:10Z</time>
      </trkpt>
      <trkpt lat="52.43633" lon="-6.57905">
        <ele>24.13</ele>
        <time>2021-03-20T16:43:13Z</time>
      </trkpt>
      <trkpt lat="52.43611" lon="-6.57917">
        <ele>25.05</ele>
        <time>2021-03-20T16:43:17Z</time>
      </trkpt>
      <trkpt lat="52.43589" lon="-6.57915">
        <ele>26.51</ele>
        <time>2021-03-20T16:43:21Z</time>
      </trkpt>
      <trkpt lat="52.43545" lon="-6.57899">
        <ele>27.74</ele>
        <time>2021-03-20T16:43:24Z</time>
      </trkpt>
      <trkpt lat="52.43405" lon="-6.57853">
        <ele>33.94</ele>
        <time>2021-03-20T16:43:28Z</time>
      </trkpt>
      <trkpt lat="52.43353" lon="-6.57833">
        <ele>35.25</ele>
        <time>2021-03-20T16:43:32Z</time>
      </trkpt>
      <trkpt lat="52.43295" lon="-6.57805">
        <ele>33.99</ele>
        <time>2021-03-20T16:43:35Z</time>
      </trkpt>
      <trkpt lat="52.43259" lon="-6.57796">
        <ele>33.65</ele>
        <time>2021-03-20T16:43:39Z</time>
      </trkpt>
      <trkpt lat="52.43162" lon="-6.57792">
        <ele>34.67</ele>
        <time>2021-03-20T16:43:43Z</time>
      </trkpt>
      <trkpt lat="52.43132" lon="-6.57796">
        <ele>35.9</ele>
        <time>2021-03-20T16:43:46Z</time>
      </trkpt>
      <trkpt lat="52.43094" lon="-6.57801">
        <ele>36.94</ele>
        <time>2021-03-20T16:43:50Z</time>
      </trkpt>
      <trkpt lat="52.4301" lon="-6.57822">
        <ele>37.6</ele>
        <time>2021-03-20T16:43:54Z</time>
      </trkpt>
      <trkpt lat="52.42951" lon="-6.5784">
        <ele>38</ele>
        <time>2021-03-20T16:43:57Z</time>
      </trkpt>
      <trkpt lat="52.42923" lon="-6.57855">
        <ele>37.22</ele>
        <time>2021-03-20T16:44:01Z</time>
      </trkpt>
      <trkpt lat="52.42908" lon="-6.57866">
        <ele>36.68</ele>
        <time>2021-03-20T16:44:05Z</time>
      </trkpt>
      <trkpt lat="52.42858" lon="-6.57915">
        <ele>34.92</ele>
        <time>2021-03-20T16:44:08Z</time>
      </trkpt>
      <trkpt lat="52.42789" lon="-6.57961">
        <ele>29.64</ele>
        <time>2021-03-20T16:44:12Z</time>
      </trkpt>
      <trkpt lat="52.42713" lon="-6.5804">
        <ele>21.03</ele>
        <time>2021-03-20T16:44:16Z</time>
      </trkpt>
      <trkpt lat="52.42695" lon="-6.58086">
        <ele>21.09</ele>
        <time>2021-03-20T16:44:19Z</time>
      </trkpt>
      <trkpt lat="52.42684" lon="-6.58099">
        <ele>20.81</ele>
        <time>2021-03-20T16:44:23Z</time>
      </trkpt>
      <trkpt lat="52.42636" lon="-6.58129">
        <ele>19.02</ele>
        <time>2021-03-20T16:44:27Z</time>
      </trkpt>
      <trkpt lat="52.42598" lon="-6.58167">
        <ele>15.59</ele>
        <time>2021-03-20T16:44:30Z</time>
      </trkpt>
      <trkpt lat="52.42559" lon="-6.58213">
        <ele>13.82</ele>
        <time>2021-03-20T16:44:34Z</time>
      </trkpt>
      <trkpt lat="52.4255" lon="-6.58221">
        <ele>13.74</ele>
        <time>2021-03-20T16:44:38Z</time>
      </trkpt>
      <trkpt lat="52.42533" lon="-6.58229">
        <ele>13.43</ele>
        <time>2021-03-20T16:44:41Z</time>
      </trkpt>
      <trkpt lat="52.42471" lon="-6.58229">
        <ele>5.2</ele>
        <time>2021-03-20T16:44:45Z</time>
      </trkpt>
      <trkpt lat="52.42451" lon="-6.58223">
        <ele>4.27</ele>
        <time>2021-03-20T16:44:48Z</time>
      </trkpt>
      <trkpt lat="52.42435" lon="-6.58215">
        <ele>4.35</ele>
        <time>2021-03-20T16:44:52Z</time>
      </trkpt>
      <trkpt lat="52.42401" lon="-6.58193">
        <ele>5</ele>
        <time>2021-03-20T16:44:56Z</time>
      </trkpt>
      <trkpt lat="52.42392" lon="-6.58182">
        <ele>5.34</ele>
        <time>2021-03-20T16:44:59Z</time>
      </trkpt>
      <trkpt lat="52.4233" lon="-6.58042">
        <ele>7.36</ele>
        <time>2021-03-20T16:45:03Z</time>
      </trkpt>
      <trkpt lat="52.4232" lon="-6.58024">
        <ele>8.4</ele>
        <time>2021-03-20T16:45:07Z</time>
      </trkpt>
      <trkpt lat="52.42309" lon="-6.58013">
        <ele>9.14</ele>
        <time>2021-03-20T16:45:10Z</time>
      </trkpt>
      <trkpt lat="52.42274" lon="-6.57995">
        <ele>10.95</ele>
        <time>2021-03-20T16:45:14Z</time>
      </trkpt>
      <trkpt lat="52.42105" lon="-6.57923">
        <ele>17.22</ele>
        <time>2021-03-20T16:45:18Z</time>
      </trkpt>
      <trkpt lat="52.42052" lon="-6.57897">
        <ele>18.53</ele>
        <time>2021-03-20T16:45:21Z</time>
      </trkpt>
      <trkpt lat="52.41946" lon="-6.57855">
        <ele>29.08</ele>
        <time>2021-03-20T16:45:25Z</time>
      </trkpt>
      <trkpt lat="52.41882" lon="-6.57827">
        <ele>33.73</ele>
        <time>2021-03-20T16:45:29Z</time>
      </trkpt>
      <trkpt lat="52.41669" lon="-6.5771">
        <ele>50.15</ele>
        <time>2021-03-20T16:45:32Z</time>
      </trkpt>
      <trkpt lat="52.41623" lon="-6.57679">
        <ele>52.97</ele>
        <time>2021-03-20T16:45:36Z</time>
      </trkpt>
      <trkpt lat="52.41569" lon="-6.57643">
        <ele>52.84</ele>
        <time>2021-03-20T16:45:40Z</time>
      </trkpt>
      <trkpt lat="52.41519" lon="-6.57608">
        <ele>53.82</ele>
        <time>2021-03-20T16:45:43Z</time>
      </trkpt>
      <trkpt lat="52.41446" lon="-6.57549">
        <ele>51.17</ele>
        <time>2021-03-20T16:45:47Z</time>
      </trkpt>
      <trkpt lat="52.41436" lon="-6.57537">
        <ele>50.71</ele>
        <time>2021-03-20T16:45:51Z</time>
      </trkpt>
      <trkpt lat="52.41423" lon="-6.57511">
        <ele>50.24</ele>
        <time>2021-03-20T16:45:54Z</time>
      </trkpt>
      <trkpt lat="52.41415" lon="-6.57499">
        <ele>50</ele>
        <time>2021-03-20T16:45:58Z</time>
      </trkpt>
      <trkpt lat="52.41394" lon="-6.57479">
        <ele>50</ele>
        <time>2021-03-20T16:46:02Z</time>
      </trkpt>
      <trkpt lat="52.41302" lon="-6.57455">
        <ele>47.33</ele>
        <time>2021-03-20T16:46:05Z</time>
      </trkpt>
      <trkpt lat="52.41241" lon="-6.57443">
        <ele>46.66</ele>
        <time>2021-03-20T16:46:09Z</time>
      </trkpt>
      <trkpt lat="52.41184" lon="-6.5743">
        <ele>45.61</ele>
        <time>2021-03-20T16:46:13Z</time>
      </trkpt>
      <trkpt lat="52.40902" lon="-6.57339">
        <ele>33.79</ele>
        <time>2021-03-20T16:46:16Z</time>
      </trkpt>
      <trkpt lat="52.40835" lon="-6.57317">
        <ele>32.74</ele>
        <time>2021-03-20T16:46:20Z</time>
      </trkpt>
      <trkpt lat="52.40795" lon="-6.573">
        <ele>32.94</ele>
        <time>2021-03-20T16:46:24Z</time>
      </trkpt>
      <trkpt lat="52.40765" lon="-6.57293">
        <ele>32.24</ele>
        <time>2021-03-20T16:46:27Z</time>
      </trkpt>
      <trkpt lat="52.40719" lon="-6.57271">
        <ele>30.52</ele>
        <time>2021-03-20T16:46:31Z</time>
      </trkpt>
      <trkpt lat="52.40632" lon="-6.57221">
        <ele>22.99</ele>
        <time>2021-03-20T16:46:34Z</time>
      </trkpt>
      <trkpt lat="52.40608" lon="-6.57212">
        <ele>19.9</ele>
        <time>2021-03-20T16:46:38Z</time>
      </trkpt>
      <trkpt lat="52.40565" lon="-6.57247">
        <ele>18.34</ele>
        <time>2021-03-20T16:46:42Z</time>
      </trkpt>
      <trkpt lat="52.40503" lon="-6.57326">
        <ele>22.68</ele>
        <time>2021-03-20T16:46:45Z</time>
      </trkpt>
      <trkpt lat="52.40389" lon="-6.57409">
        <ele>27</ele>
        <time>2021-03-20T16:46:49Z</time>
      </trkpt>
      <trkpt lat="52.40364" lon="-6.57424">
        <ele>27.88</ele>
        <time>2021-03-20T16:46:53Z</time>
      </trkpt>
      <trkpt lat="52.40288" lon="-6.57444">
        <ele>34.62</ele>
        <time>2021-03-20T16:46:56Z</time>
      </trkpt>
      <trkpt lat="52.40255" lon="-6.57481">
        <ele>35.31</ele>
        <time>2021-03-20T16:47:00Z</time>
      </trkpt>
      <trkpt lat="52.40228" lon="-6.57502">
        <ele>35.72</ele>
        <time>2021-03-20T16:47:04Z</time>
      </trkpt>
      <trkpt lat="52.40201" lon="-6.57512">
        <ele>36.36</ele>
        <time>2021-03-20T16:47:07Z</time>
      </trkpt>
      <trkpt lat="52.40165" lon="-6.57515">
        <ele>38.03</ele>
        <time>2021-03-20T16:47:11Z</time>
      </trkpt>
      <trkpt lat="52.40128" lon="-6.57524">
        <ele>38.85</ele>
        <time>2021-03-20T16:47:15Z</time>
      </trkpt>
      <trkpt lat="52.40076" lon="-6.57537">
        <ele>39</ele>
        <time>2021-03-20T16:47:18Z</time>
      </trkpt>
      <trkpt lat="52.40011" lon="-6.57558">
        <ele>36.29</ele>
        <time>2021-03-20T16:47:22Z</time>
      </trkpt>
      <trkpt lat="52.39975" lon="-6.57578">
        <ele>36.08</ele>
        <time>2021-03-20T16:47:26Z</time>
      </trkpt>
      <trkpt lat="52.3988" lon="-6.5767">
        <ele>31.86</ele>
        <time>2021-03-20T16:47:29Z</time>
      </trkpt>
      <trkpt lat="52.39836" lon="-6.57706">
        <ele>31</ele>
        <time>2021-03-20T16:47:33Z</time>
      </trkpt>
      <trkpt lat="52.39803" lon="-6.57722">
        <ele>31.08</ele>
        <time>2021-03-20T16:47:37Z</time>
      </trkpt>
      <trkpt lat="52.39772" lon="-6.5773">
        <ele>32.26</ele>
        <time>2021-03-20T16:47:40Z</time>
      </trkpt>
      <trkpt lat="52.39724" lon="-6.57729">
        <ele>32.23</ele>
        <time>2021-03-20T16:47:44Z</time>
      </trkpt>
      <trkpt lat="52.39682" lon="-6.57734">
        <ele>32.69</ele>
        <time>2021-03-20T16:47:48Z</time>
      </trkpt>
      <trkpt lat="52.39631" lon="-6.57747">
        <ele>34.56</ele>
        <time>2021-03-20T16:47:51Z</time>
      </trkpt>
      <trkpt lat="52.39592" lon="-6.57774">
        <ele>36.67</ele>
        <time>2021-03-20T16:47:55Z</time>
      </trkpt>
      <trkpt lat="52.3952" lon="-6.57814">
        <ele>40</ele>
        <time>2021-03-20T16:47:59Z</time>
      </trkpt>
      <trkpt lat="52.39476" lon="-6.57828">
        <ele>40</ele>
        <time>2021-03-20T16:48:02Z</time>
      </trkpt>
      <trkpt lat="52.39416" lon="-6.57837">
        <ele>44.92</ele>
        <time>2021-03-20T16:48:06Z</time>
      </trkpt>
      <trkpt lat="52.39402" lon="-6.57836">
        <ele>46.49</ele>
        <time>2021-03-20T16:48:09Z</time>
      </trkpt>
      <trkpt lat="52.39394" lon="-6.57825">
        <ele>47.5</ele>
        <time>2021-03-20T16:48:13Z</time>
      </trkpt>
      <trkpt lat="52.39381" lon="-6.57798">
        <ele>48.02</ele>
        <time>2021-03-20T16:48:17Z</time>
      </trkpt>
      <trkpt lat="52.39357" lon="-6.57718">
        <ele>47.58</ele>
        <time>2021-03-20T16:48:20Z</time>
      </trkpt>
      <trkpt lat="52.39346" lon="-6.57687">
        <ele>48.51</ele>
        <time>2021-03-20T16:48:24Z</time>
      </trkpt>
      <trkpt lat="52.39327" lon="-6.57668">
        <ele>50.12</ele>
        <time>2021-03-20T16:48:28Z</time>
      </trkpt>
      <trkpt lat="52.39304" lon="-6.57666">
        <ele>54.17</ele>
        <time>2021-03-20T16:48:31Z</time>
      </trkpt>
      <trkpt lat="52.39272" lon="-6.5769">
        <ele>58.04</ele>
        <time>2021-03-20T16:48:35Z</time>
      </trkpt>
      <trkpt lat="52.39228" lon="-6.57708">
        <ele>58.6</ele>
        <time>2021-03-20T16:48:39Z</time>
      </trkpt>
      <trkpt lat="52.39183" lon="-6.57707">
        <ele>57.04</ele>
        <time>2021-03-20T16:48:42Z</time>
      </trkpt>
      <trkpt lat="52.39143" lon="-6.57701">
        <ele>55.2</ele>
        <time>2021-03-20T16:48:46Z</time>
      </trkpt>
      <trkpt lat="52.39072" lon="-6.57709">
        <ele>55.52</ele>
        <time>2021-03-20T16:48:50Z</time>
      </trkpt>
      <trkpt lat="52.38994" lon="-6.57712">
        <ele>53.27</ele>
        <time>2021-03-20T16:48:53Z</time>
      </trkpt>
      <trkpt lat="52.38948" lon="-6.57718">
        <ele>50.99</ele>
        <time>2021-03-20T16:48:57Z</time>
      </trkpt>
      <trkpt lat="52.38897" lon="-6.57733">
        <ele>50.7</ele>
        <time>2021-03-20T16:49:01Z</time>
      </trkpt>
      <trkpt lat="52.38763" lon="-6.57755">
        <ele>48.69</ele>
        <time>2021-03-20T16:49:04Z</time>
      </trkpt>
      <trkpt lat="52.38727" lon="-6.57758">
        <ele>49.3</ele>
        <time>2021-03-20T16:49:08Z</time>
      </trkpt>
      <trkpt lat="52.38699" lon="-6.57755">
        <ele>47.53</ele>
        <time>2021-03-20T16:49:12Z</time>
      </trkpt>
      <trkpt lat="52.38639" lon="-6.57732">
        <ele>45.35</ele>
        <time>2021-03-20T16:49:15Z</time>
      </trkpt>
      <trkpt lat="52.38603" lon="-6.577">
        <ele>43.91</ele>
        <time>2021-03-20T16:49:19Z</time>
      </trkpt>
      <trkpt lat="52.38576" lon="-6.57684">
        <ele>42.11</ele>
        <time>2021-03-20T16:49:23Z</time>
      </trkpt>
      <trkpt lat="52.38558" lon="-6.57684">
        <ele>41.66</ele>
        <time>2021-03-20T16:49:26Z</time>
      </trkpt>
      <trkpt lat="52.38535" lon="-6.57694">
        <ele>41.96</ele>
        <time>2021-03-20T16:49:30Z</time>
      </trkpt>
      <trkpt lat="52.38509" lon="-6.577">
        <ele>42.31</ele>
        <time>2021-03-20T16:49:34Z</time>
      </trkpt>
      <trkpt lat="52.38416" lon="-6.57713">
        <ele>40.64</ele>
        <time>2021-03-20T16:49:37Z</time>
      </trkpt>
      <trkpt lat="52.38373" lon="-6.57727">
        <ele>41.41</ele>
        <time>2021-03-20T16:49:41Z</time>
      </trkpt>
      <trkpt lat="52.38322" lon="-6.57711">
        <ele>43.56</ele>
        <time>2021-03-20T16:49:45Z</time>
      </trkpt>
      <trkpt lat="52.38294" lon="-6.57698">
        <ele>46.17</ele>
        <time>2021-03-20T16:49:48Z</time>
      </trkpt>
      <trkpt lat="52.38251" lon="-6.5767">
        <ele>52.72</ele>
        <time>2021-03-20T16:49:52Z</time>
      </trkpt>
      <trkpt lat="52.38227" lon="-6.57619">
        <ele>55.48</ele>
        <time>2021-03-20T16:49:57Z</time>
      </trkpt>
      <trkpt lat="52.38183" lon="-6.57564">
        <ele>56.72</ele>
        <time>2021-03-20T16:50:01Z</time>
      </trkpt>
      <trkpt lat="52.38111" lon="-6.57497">
        <ele>54</ele>
        <time>2021-03-20T16:50:06Z</time>
      </trkpt>
      <trkpt lat="52.3808" lon="-6.57472">
        <ele>53</ele>
        <time>2021-03-20T16:50:10Z</time>
      </trkpt>
      <trkpt lat="52.38055" lon="-6.57449">
        <ele>51.26</ele>
        <time>2021-03-20T16:50:15Z</time>
      </trkpt>
      <trkpt lat="52.38013" lon="-6.57394">
        <ele>49.13</ele>
        <time>2021-03-20T16:50:19Z</time>
      </trkpt>
      <trkpt lat="52.37992" lon="-6.57373">
        <ele>50.12</ele>
        <time>2021-03-20T16:50:24Z</time>
      </trkpt>
      <trkpt lat="52.37978" lon="-6.57365">
        <ele>50.11</ele>
        <time>2021-03-20T16:50:28Z</time>
      </trkpt>
      <trkpt lat="52.37932" lon="-6.57352">
        <ele>47.89</ele>
        <time>2021-03-20T16:50:33Z</time>
      </trkpt>
      <trkpt lat="52.37869" lon="-6.57327">
        <ele>42.28</ele>
        <time>2021-03-20T16:50:37Z</time>
      </trkpt>
      <trkpt lat="52.37844" lon="-6.57316">
        <ele>42</ele>
        <time>2021-03-20T16:50:42Z</time>
      </trkpt>
      <trkpt lat="52.37822" lon="-6.57298">
        <ele>41.33</ele>
        <time>2021-03-20T16:50:46Z</time>
      </trkpt>
      <trkpt lat="52.37811" lon="-6.57278">
        <ele>40.17</ele>
        <time>2021-03-20T16:50:51Z</time>
      </trkpt>
      <trkpt lat="52.37802" lon="-6.57253">
        <ele>38.9</ele>
        <time>2021-03-20T16:50:56Z</time>
      </trkpt>
      <trkpt lat="52.378" lon="-6.57206">
        <ele>36.06</ele>
        <time>2021-03-20T16:51:00Z</time>
      </trkpt>
      <trkpt lat="52.37809" lon="-6.57134">
        <ele>35.41</ele>
        <time>2021-03-20T16:51:05Z</time>
      </trkpt>
      <trkpt lat="52.37807" lon="-6.57066">
        <ele>35.78</ele>
        <time>2021-03-20T16:51:09Z</time>
      </trkpt>
      <trkpt lat="52.37802" lon="-6.57001">
        <ele>35.13</ele>
        <time>2021-03-20T16:51:14Z</time>
      </trkpt>
      <trkpt lat="52.37783" lon="-6.56932">
        <ele>28.82</ele>
        <time>2021-03-20T16:51:18Z</time>
      </trkpt>
      <trkpt lat="52.37761" lon="-6.569">
        <ele>26.78</ele>
        <time>2021-03-20T16:51:23Z</time>
      </trkpt>
      <trkpt lat="52.37649" lon="-6.56867">
        <ele>32.63</ele>
        <time>2021-03-20T16:51:27Z</time>
      </trkpt>
      <trkpt lat="52.37575" lon="-6.56853">
        <ele>35.71</ele>
        <time>2021-03-20T16:51:32Z</time>
      </trkpt>
      <trkpt lat="52.37554" lon="-6.56847">
        <ele>35.48</ele>
        <time>2021-03-20T16:51:36Z</time>
      </trkpt>
      <trkpt lat="52.37455" lon="-6.56857">
        <ele>37.76</ele>
        <time>2021-03-20T16:51:41Z</time>
      </trkpt>
      <trkpt lat="52.37211" lon="-6.56895">
        <ele>39.28</ele>
        <time>2021-03-20T16:51:45Z</time>
      </trkpt>
      <trkpt lat="52.37171" lon="-6.56893">
        <ele>36.59</ele>
        <time>2021-03-20T16:51:50Z</time>
      </trkpt>
      <trkpt lat="52.37141" lon="-6.56881">
        <ele>35.04</ele>
        <time>2021-03-20T16:51:55Z</time>
      </trkpt>
      <trkpt lat="52.37076" lon="-6.56842">
        <ele>31.13</ele>
        <time>2021-03-20T16:51:59Z</time>
      </trkpt>
      <trkpt lat="52.37019" lon="-6.568">
        <ele>27.52</ele>
        <time>2021-03-20T16:52:04Z</time>
      </trkpt>
      <trkpt lat="52.36808" lon="-6.56613">
        <ele>21.14</ele>
        <time>2021-03-20T16:52:08Z</time>
      </trkpt>
      <trkpt lat="52.3677" lon="-6.56584">
        <ele>17.81</ele>
        <time>2021-03-20T16:52:13Z</time>
      </trkpt>
      <trkpt lat="52.36732" lon="-6.56571">
        <ele>13.65</ele>
        <time>2021-03-20T16:52:17Z</time>
      </trkpt>
      <trkpt lat="52.36649" lon="-6.5655">
        <ele>11.51</ele>
        <time>2021-03-20T16:52:22Z</time>
      </trkpt>
      <trkpt lat="52.36598" lon="-6.56526">
        <ele>16.48</ele>
        <time>2021-03-20T16:52:26Z</time>
      </trkpt>
      <trkpt lat="52.3647" lon="-6.56448">
        <ele>22.96</ele>
        <time>2021-03-20T16:52:31Z</time>
      </trkpt>
      <trkpt lat="52.36308" lon="-6.56421">
        <ele>28.67</ele>
        <time>2021-03-20T16:52:35Z</time>
      </trkpt>
      <trkpt lat="52.36233" lon="-6.56403">
        <ele>29.88</ele>
        <time>2021-03-20T16:52:40Z</time>
      </trkpt>
      <trkpt lat="52.36109" lon="-6.56325">
        <ele>32</ele>
        <time>2021-03-20T16:52:45Z</time>
      </trkpt>
      <trkpt lat="52.36054" lon="-6.563">
        <ele>30.91</ele>
        <time>2021-03-20T16:52:49Z</time>
      </trkpt>
      <trkpt lat="52.36036" lon="-6.5625">
        <ele>28.9</ele>
        <time>2021-03-20T16:52:54Z</time>
      </trkpt>
      <trkpt lat="52.36014" lon="-6.56165">
        <ele>27.08</ele>
        <time>2021-03-20T16:52:58Z</time>
      </trkpt>
      <trkpt lat="52.35996" lon="-6.5607">
        <ele>24.63</ele>
        <time>2021-03-20T16:53:03Z</time>
      </trkpt>
      <trkpt lat="52.35967" lon="-6.55594">
        <ele>15.02</ele>
        <time>2021-03-20T16:53:07Z</time>
      </trkpt>
      <trkpt lat="52.35952" lon="-6.55387">
        <ele>11.14</ele>
        <time>2021-03-20T16:53:12Z</time>
      </trkpt>
      <trkpt lat="52.35939" lon="-6.55296">
        <ele>8.24</ele>
        <time>2021-03-20T16:53:16Z</time>
      </trkpt>
      <trkpt lat="52.35922" lon="-6.55214">
        <ele>6.64</ele>
        <time>2021-03-20T16:53:21Z</time>
      </trkpt>
      <trkpt lat="52.35886" lon="-6.55107">
        <ele>5.11</ele>
        <time>2021-03-20T16:53:25Z</time>
      </trkpt>
      <trkpt lat="52.35832" lon="-6.54979">
        <ele>7.91</ele>
        <time>2021-03-20T16:53:30Z</time>
      </trkpt>
      <trkpt lat="52.35763" lon="-6.54826">
        <ele>5.88</ele>
        <time>2021-03-20T16:53:34Z</time>
      </trkpt>
      <trkpt lat="52.35691" lon="-6.54678">
        <ele>10.74</ele>
        <time>2021-03-20T16:53:39Z</time>
      </trkpt>
      <trkpt lat="52.35669" lon="-6.54643">
        <ele>11.02</ele>
        <time>2021-03-20T16:53:44Z</time>
      </trkpt>
      <trkpt lat="52.35632" lon="-6.54617">
        <ele>12.3</ele>
        <time>2021-03-20T16:53:48Z</time>
      </trkpt>
      <trkpt lat="52.35529" lon="-6.54537">
        <ele>14.89</ele>
        <time>2021-03-20T16:53:53Z</time>
      </trkpt>
      <trkpt lat="52.35504" lon="-6.54512">
        <ele>16.07</ele>
        <time>2021-03-20T16:53:57Z</time>
      </trkpt>
      <trkpt lat="52.35445" lon="-6.54438">
        <ele>22.2</ele>
        <time>2021-03-20T16:54:02Z</time>
      </trkpt>
      <trkpt lat="52.35419" lon="-6.54382">
        <ele>22.49</ele>
        <time>2021-03-20T16:54:06Z</time>
      </trkpt>
      <trkpt lat="52.35376" lon="-6.5426">
        <ele>21.12</ele>
        <time>2021-03-20T16:54:11Z</time>
      </trkpt>
      <trkpt lat="52.35337" lon="-6.54144">
        <ele>24.71</ele>
        <time>2021-03-20T16:54:15Z</time>
      </trkpt>
      <trkpt lat="52.35311" lon="-6.54011">
        <ele>20.44</ele>
        <time>2021-03-20T16:54:20Z</time>
      </trkpt>
      <trkpt lat="52.35294" lon="-6.5391">
        <ele>17.08</ele>
        <time>2021-03-20T16:54:24Z</time>
      </trkpt>
      <trkpt lat="52.35279" lon="-6.53846">
        <ele>11.94</ele>
        <time>2021-03-20T16:54:29Z</time>
      </trkpt>
      <trkpt lat="52.3524" lon="-6.53762">
        <ele>10.66</ele>
        <time>2021-03-20T16:54:34Z</time>
      </trkpt>
      <trkpt lat="52.35232" lon="-6.53746">
        <ele>10.13</ele>
        <time>2021-03-20T16:54:38Z</time>
      </trkpt>
      <trkpt lat="52.35217" lon="-6.53712">
        <ele>8.38</ele>
        <time>2021-03-20T16:54:43Z</time>
      </trkpt>
      <trkpt lat="52.35228" lon="-6.53691">
        <ele>6.47</ele>
        <time>2021-03-20T16:54:46Z</time>
      </trkpt>
      <trkpt lat="52.35224" lon="-6.53667">
        <ele>5.93</ele>
        <time>2021-03-20T16:54:50Z</time>
      </trkpt>
      <trkpt lat="52.35212" lon="-6.53631">
        <ele>5.85</ele>
        <time>2021-03-20T16:54:54Z</time>
      </trkpt>
      <trkpt lat="52.35168" lon="-6.53467">
        <ele>8.56</ele>
        <time>2021-03-20T16:54:58Z</time>
      </trkpt>
      <trkpt lat="52.35148" lon="-6.53363">
        <ele>7.7</ele>
        <time>2021-03-20T16:55:02Z</time>
      </trkpt>
      <trkpt lat="52.35123" lon="-6.53255">
        <ele>5.94</ele>
        <time>2021-03-20T16:55:05Z</time>
      </trkpt>
      <trkpt lat="52.35107" lon="-6.532">
        <ele>4.52</ele>
        <time>2021-03-20T16:55:09Z</time>
      </trkpt>
      <trkpt lat="52.35058" lon="-6.53076">
        <ele>3.69</ele>
        <time>2021-03-20T16:55:13Z</time>
      </trkpt>
      <trkpt lat="52.35007" lon="-6.52913">
        <ele>3.96</ele>
        <time>2021-03-20T16:55:17Z</time>
      </trkpt>
      <trkpt lat="52.34992" lon="-6.52853">
        <ele>3.49</ele>
        <time>2021-03-20T16:55:21Z</time>
      </trkpt>
      <trkpt lat="52.34981" lon="-6.52787">
        <ele>2.79</ele>
        <time>2021-03-20T16:55:24Z</time>
      </trkpt>
      <trkpt lat="52.34977" lon="-6.5274">
        <ele>3.15</ele>
        <time>2021-03-20T16:55:28Z</time>
      </trkpt>
      <trkpt lat="52.34974" lon="-6.52676">
        <ele>6.2</ele>
        <time>2021-03-20T16:55:32Z</time>
      </trkpt>
      <trkpt lat="52.34988" lon="-6.52505">
        <ele>11.73</ele>
        <time>2021-03-20T16:55:36Z</time>
      </trkpt>
      <trkpt lat="52.34989" lon="-6.52458">
        <ele>15.62</ele>
        <time>2021-03-20T16:55:40Z</time>
      </trkpt>
      <trkpt lat="52.34985" lon="-6.52362">
        <ele>18.26</ele>
        <time>2021-03-20T16:55:43Z</time>
      </trkpt>
      <trkpt lat="52.3496" lon="-6.52256">
        <ele>16.82</ele>
        <time>2021-03-20T16:55:47Z</time>
      </trkpt>
      <trkpt lat="52.34939" lon="-6.52195">
        <ele>11.74</ele>
        <time>2021-03-20T16:55:51Z</time>
      </trkpt>
      <trkpt lat="52.34868" lon="-6.52031">
        <ele>13.34</ele>
        <time>2021-03-20T16:55:55Z</time>
      </trkpt>
      <trkpt lat="52.34835" lon="-6.51946">
        <ele>9.86</ele>
        <time>2021-03-20T16:55:59Z</time>
      </trkpt>
      <trkpt lat="52.34821" lon="-6.51881">
        <ele>5.73</ele>
        <time>2021-03-20T16:56:02Z</time>
      </trkpt>
      <trkpt lat="52.3482" lon="-6.51824">
        <ele>1.79</ele>
        <time>2021-03-20T16:56:06Z</time>
      </trkpt>
      <trkpt lat="52.34821" lon="-6.51788">
        <ele>0.89</ele>
        <time>2021-03-20T16:56:10Z</time>
      </trkpt>
      <trkpt lat="52.34866" lon="-6.51484">
        <ele>6.28</ele>
        <time>2021-03-20T16:56:14Z</time>
      </trkpt>
      <trkpt lat="52.34871" lon="-6.51433">
        <ele>8.27</ele>
        <time>2021-03-20T16:56:18Z</time>
      </trkpt>
      <trkpt lat="52.34871" lon="-6.5141">
        <ele>10.23</ele>
        <time>2021-03-20T16:56:21Z</time>
      </trkpt>
      <trkpt lat="52.34864" lon="-6.51364">
        <ele>13.77</ele>
        <time>2021-03-20T16:56:25Z</time>
      </trkpt>
      <trkpt lat="52.34796" lon="-6.51409">
        <ele>11.21</ele>
        <time>2021-03-20T16:56:31Z</time>
      </trkpt>
      <trkpt lat="52.3474" lon="-6.51437">
        <ele>12.25</ele>
        <time>2021-03-20T16:56:36Z</time>
      </trkpt>
      <trkpt lat="52.34693" lon="-6.51454">
        <ele>14.4</ele>
        <time>2021-03-20T16:56:41Z</time>
      </trkpt>
      <trkpt lat="52.34146" lon="-6.51557">
        <ele>35.33</ele>
        <time>2021-03-20T16:56:47Z</time>
      </trkpt>
      <trkpt lat="52.34098" lon="-6.51561">
        <ele>35.68</ele>
        <time>2021-03-20T16:56:52Z</time>
      </trkpt>
      <trkpt lat="52.34028" lon="-6.51559">
        <ele>38.86</ele>
        <time>2021-03-20T16:56:58Z</time>
      </trkpt>
      <trkpt lat="52.33962" lon="-6.5155">
        <ele>43.38</ele>
        <time>2021-03-20T16:57:03Z</time>
      </trkpt>
      <trkpt lat="52.33903" lon="-6.51535">
        <ele>44.98</ele>
        <time>2021-03-20T16:57:09Z</time>
      </trkpt>
      <trkpt lat="52.33889" lon="-6.51534">
        <ele>45.97</ele>
        <time>2021-03-20T16:57:14Z</time>
      </trkpt>
      <trkpt lat="52.33854" lon="-6.51524">
        <ele>48.86</ele>
        <time>2021-03-20T16:57:19Z</time>
      </trkpt>
      <trkpt lat="52.33829" lon="-6.51509">
        <ele>50.46</ele>
        <time>2021-03-20T16:57:25Z</time>
      </trkpt>
      <trkpt lat="52.33824" lon="-6.51496">
        <ele>50.16</ele>
        <time>2021-03-20T16:57:30Z</time>
      </trkpt>
      <trkpt lat="52.33817" lon="-6.51486">
        <ele>50.08</ele>
        <time>2021-03-20T16:57:36Z</time>
      </trkpt>
      <trkpt lat="52.33812" lon="-6.51483">
        <ele>50.15</ele>
        <time>2021-03-20T16:57:41Z</time>
      </trkpt>
      <trkpt lat="52.33799" lon="-6.51482">
        <ele>50.35</ele>
        <time>2021-03-20T16:57:47Z</time>
      </trkpt>
      <trkpt lat="52.33789" lon="-6.5149">
        <ele>50.63</ele>
        <time>2021-03-20T16:57:52Z</time>
      </trkpt>
      <trkpt lat="52.33785" lon="-6.51496">
        <ele>50.85</ele>
        <time>2021-03-20T16:57:58Z</time>
      </trkpt>
      <trkpt lat="52.33729" lon="-6.51502">
        <ele>52</ele>
        <time>2021-03-20T16:58:03Z</time>
      </trkpt>
      <trkpt lat="52.33674" lon="-6.51472">
        <ele>49.23</ele>
        <time>2021-03-20T16:58:09Z</time>
      </trkpt>
      <trkpt lat="52.33637" lon="-6.51446">
        <ele>45.1</ele>
        <time>2021-03-20T16:58:15Z</time>
      </trkpt>
      <trkpt lat="52.33576" lon="-6.51398">
        <ele>44.94</ele>
        <time>2021-03-20T16:58:20Z</time>
      </trkpt>
      <trkpt lat="52.33523" lon="-6.5135">
        <ele>46.31</ele>
        <time>2021-03-20T16:58:26Z</time>
      </trkpt>
      <trkpt lat="52.33137" lon="-6.50951">
        <ele>53.76</ele>
        <time>2021-03-20T16:58:31Z</time>
      </trkpt>
      <trkpt lat="52.32796" lon="-6.50592">
        <ele>69.89</ele>
        <time>2021-03-20T16:58:37Z</time>
      </trkpt>
      <trkpt lat="52.32381" lon="-6.50195">
        <ele>70.73</ele>
        <time>2021-03-20T16:58:42Z</time>
      </trkpt>
      <trkpt lat="52.32363" lon="-6.50168">
        <ele>69.11</ele>
        <time>2021-03-20T16:58:48Z</time>
      </trkpt>
      <trkpt lat="52.32349" lon="-6.5014">
        <ele>69</ele>
        <time>2021-03-20T16:58:53Z</time>
      </trkpt>
      <trkpt lat="52.32348" lon="-6.5013">
        <ele>68.84</ele>
        <time>2021-03-20T16:58:59Z</time>
      </trkpt>
      <trkpt lat="52.32344" lon="-6.50121">
        <ele>68.59</ele>
        <time>2021-03-20T16:59:04Z</time>
      </trkpt>
      <trkpt lat="52.32339" lon="-6.50114">
        <ele>68.26</ele>
        <time>2021-03-20T16:59:10Z</time>
      </trkpt>
      <trkpt lat="52.32332" lon="-6.5011">
        <ele>68</ele>
        <time>2021-03-20T16:59:15Z</time>
      </trkpt>
      <trkpt lat="52.32325" lon="-6.50109">
        <ele>68</ele>
        <time>2021-03-20T16:59:20Z</time>
      </trkpt>
      <trkpt lat="52.3232" lon="-6.50112">
        <ele>68.03</ele>
        <time>2021-03-20T16:59:26Z</time>
      </trkpt>
      <trkpt lat="52.32298" lon="-6.50102">
        <ele>68.58</ele>
        <time>2021-03-20T16:59:31Z</time>
      </trkpt>
      <trkpt lat="52.3226" lon="-6.50072">
        <ele>70.89</ele>
        <time>2021-03-20T16:59:37Z</time>
      </trkpt>
      <trkpt lat="52.31708" lon="-6.49481">
        <ele>80.49</ele>
        <time>2021-03-20T16:59:42Z</time>
      </trkpt>
      <trkpt lat="52.31642" lon="-6.49404">
        <ele>79.12</ele>
        <time>2021-03-20T16:59:48Z</time>
      </trkpt>
      <trkpt lat="52.31542" lon="-6.49277">
        <ele>78.53</ele>
        <time>2021-03-20T16:59:53Z</time>
      </trkpt>
      <trkpt lat="52.31413" lon="-6.49095">
        <ele>75.88</ele>
        <time>2021-03-20T16:59:59Z</time>
      </trkpt>
      <trkpt lat="52.31337" lon="-6.48976">
        <ele>71.12</ele>
        <time>2021-03-20T17:00:04Z</time>
      </trkpt>
      <trkpt lat="52.3111" lon="-6.48613">
        <ele>60.9</ele>
        <time>2021-03-20T17:00:10Z</time>
      </trkpt>
      <trkpt lat="52.31067" lon="-6.4854">
        <ele>59.41</ele>
        <time>2021-03-20T17:00:15Z</time>
      </trkpt>
      <trkpt lat="52.30752" lon="-6.48041">
        <ele>44.44</ele>
        <time>2021-03-20T17:00:21Z</time>
      </trkpt>
      <trkpt lat="52.30682" lon="-6.47923">
        <ele>39.56</ele>
        <time>2021-03-20T17:00:26Z</time>
      </trkpt>
      <trkpt lat="52.30631" lon="-6.47824">
        <ele>34.45</ele>
        <time>2021-03-20T17:00:31Z</time>
      </trkpt>
      <trkpt lat="52.30599" lon="-6.47757">
        <ele>33.42</ele>
        <time>2021-03-20T17:00:37Z</time>
      </trkpt>
      <trkpt lat="52.30539" lon="-6.47613">
        <ele>29.11</ele>
        <time>2021-03-20T17:00:42Z</time>
      </trkpt>
      <trkpt lat="52.30498" lon="-6.47494">
        <ele>22.79</ele>
        <time>2021-03-20T17:00:48Z</time>
      </trkpt>
      <trkpt lat="52.30474" lon="-6.47419">
        <ele>21</ele>
        <time>2021-03-20T17:00:53Z</time>
      </trkpt>
      <trkpt lat="52.30457" lon="-6.47358">
        <ele>20.95</ele>
        <time>2021-03-20T17:00:59Z</time>
      </trkpt>
      <trkpt lat="52.30412" lon="-6.47175">
        <ele>19.83</ele>
        <time>2021-03-20T17:01:04Z</time>
      </trkpt>
      <trkpt lat="52.30387" lon="-6.47043">
        <ele>19</ele>
        <time>2021-03-20T17:01:10Z</time>
      </trkpt>
      <trkpt lat="52.30373" lon="-6.46952">
        <ele>18.69</ele>
        <time>2021-03-20T17:01:15Z</time>
      </trkpt>
      <trkpt lat="52.30362" lon="-6.46862">
        <ele>17.98</ele>
        <time>2021-03-20T17:01:21Z</time>
      </trkpt>
      <trkpt lat="52.30352" lon="-6.46766">
        <ele>19.33</ele>
        <time>2021-03-20T17:01:26Z</time>
      </trkpt>
      <trkpt lat="52.30342" lon="-6.46629">
        <ele>20.26</ele>
        <time>2021-03-20T17:01:32Z</time>
      </trkpt>
      <trkpt lat="52.30313" lon="-6.46127">
        <ele>15.54</ele>
        <time>2021-03-20T17:01:37Z</time>
      </trkpt>
      <trkpt lat="52.303" lon="-6.45936">
        <ele>15.19</ele>
        <time>2021-03-20T17:01:43Z</time>
      </trkpt>
      <trkpt lat="52.30301" lon="-6.45894">
        <ele>15.18</ele>
        <time>2021-03-20T17:01:48Z</time>
      </trkpt>
      <trkpt lat="52.30307" lon="-6.45846">
        <ele>14.48</ele>
        <time>2021-03-20T17:01:53Z</time>
      </trkpt>
      <trkpt lat="52.30313" lon="-6.45833">
        <ele>14.26</ele>
        <time>2021-03-20T17:01:57Z</time>
      </trkpt>
      <trkpt lat="52.30314" lon="-6.45826">
        <ele>14.31</ele>
        <time>2021-03-20T17:02:01Z</time>
      </trkpt>
      <trkpt lat="52.30314" lon="-6.45815">
        <ele>14.31</ele>
        <time>2021-03-20T17:02:05Z</time>
      </trkpt>
      <trkpt lat="52.30313" lon="-6.45805">
        <ele>14.25</ele>
        <time>2021-03-20T17:02:09Z</time>
      </trkpt>
      <trkpt lat="52.30309" lon="-6.45796">
        <ele>14.16</ele>
        <time>2021-03-20T17:02:12Z</time>
      </trkpt>
      <trkpt lat="52.30303" lon="-6.4579">
        <ele>13.88</ele>
        <time>2021-03-20T17:02:16Z</time>
      </trkpt>
      <trkpt lat="52.30297" lon="-6.45786">
        <ele>13.48</ele>
        <time>2021-03-20T17:02:20Z</time>
      </trkpt>
      <trkpt lat="52.3029" lon="-6.45786">
        <ele>13.06</ele>
        <time>2021-03-20T17:02:24Z</time>
      </trkpt>
      <trkpt lat="52.30284" lon="-6.4579">
        <ele>12.78</ele>
        <time>2021-03-20T17:02:28Z</time>
      </trkpt>
      <trkpt lat="52.30279" lon="-6.45797">
        <ele>12.72</ele>
        <time>2021-03-20T17:02:32Z</time>
      </trkpt>
      <trkpt lat="52.30275" lon="-6.45806">
        <ele>13.02</ele>
        <time>2021-03-20T17:02:35Z</time>
      </trkpt>
      <trkpt lat="52.30232" lon="-6.45829">
        <ele>15.12</ele>
        <time>2021-03-20T17:02:39Z</time>
      </trkpt>
      <trkpt lat="52.30117" lon="-6.45874">
        <ele>18</ele>
        <time>2021-03-20T17:02:43Z</time>
      </trkpt>
      <trkpt lat="52.30023" lon="-6.45908">
        <ele>15.69</ele>
        <time>2021-03-20T17:02:47Z</time>
      </trkpt>
      <trkpt lat="52.29977" lon="-6.45923">
        <ele>16.86</ele>
        <time>2021-03-20T17:02:51Z</time>
      </trkpt>
      <trkpt lat="52.29698" lon="-6.45996">
        <ele>20.76</ele>
        <time>2021-03-20T17:02:54Z</time>
      </trkpt>
      <trkpt lat="52.29632" lon="-6.46018">
        <ele>24.25</ele>
        <time>2021-03-20T17:02:58Z</time>
      </trkpt>
      <trkpt lat="52.29611" lon="-6.46029">
        <ele>25</ele>
        <time>2021-03-20T17:03:02Z</time>
      </trkpt>
      <trkpt lat="52.29425" lon="-6.46169">
        <ele>29</ele>
        <time>2021-03-20T17:03:06Z</time>
      </trkpt>
      <trkpt lat="52.29271" lon="-6.46276">
        <ele>26.53</ele>
        <time>2021-03-20T17:03:10Z</time>
      </trkpt>
      <trkpt lat="52.29234" lon="-6.46295">
        <ele>25.05</ele>
        <time>2021-03-20T17:03:13Z</time>
      </trkpt>
      <trkpt lat="52.29138" lon="-6.46336">
        <ele>23.08</ele>
        <time>2021-03-20T17:03:17Z</time>
      </trkpt>
      <trkpt lat="52.2902" lon="-6.46367">
        <ele>23</ele>
        <time>2021-03-20T17:03:21Z</time>
      </trkpt>
      <trkpt lat="52.2896" lon="-6.4638">
        <ele>22</ele>
        <time>2021-03-20T17:03:25Z</time>
      </trkpt>
      <trkpt lat="52.2889" lon="-6.46388">
        <ele>23.98</ele>
        <time>2021-03-20T17:03:29Z</time>
      </trkpt>
      <trkpt lat="52.28815" lon="-6.46399">
        <ele>23.35</ele>
        <time>2021-03-20T17:03:32Z</time>
      </trkpt>
      <trkpt lat="52.28708" lon="-6.46411">
        <ele>21.86</ele>
        <time>2021-03-20T17:03:36Z</time>
      </trkpt>
      <trkpt lat="52.2853" lon="-6.46434">
        <ele>19.43</ele>
        <time>2021-03-20T17:03:40Z</time>
      </trkpt>
      <trkpt lat="52.28445" lon="-6.46427">
        <ele>19.97</ele>
        <time>2021-03-20T17:03:44Z</time>
      </trkpt>
      <trkpt lat="52.28402" lon="-6.46414">
        <ele>20</ele>
        <time>2021-03-20T17:03:48Z</time>
      </trkpt>
      <trkpt lat="52.28304" lon="-6.46371">
        <ele>21.92</ele>
        <time>2021-03-20T17:03:51Z</time>
      </trkpt>
      <trkpt lat="52.28159" lon="-6.46295">
        <ele>20.45</ele>
        <time>2021-03-20T17:03:55Z</time>
      </trkpt>
      <trkpt lat="52.28119" lon="-6.4628">
        <ele>20</ele>
        <time>2021-03-20T17:03:59Z</time>
      </trkpt>
      <trkpt lat="52.28078" lon="-6.46269">
        <ele>21.42</ele>
        <time>2021-03-20T17:04:03Z</time>
      </trkpt>
      <trkpt lat="52.28005" lon="-6.46259">
        <ele>20.33</ele>
        <time>2021-03-20T17:04:07Z</time>
      </trkpt>
      <trkpt lat="52.27972" lon="-6.46261">
        <ele>19.02</ele>
        <time>2021-03-20T17:04:11Z</time>
      </trkpt>
      <trkpt lat="52.2794" lon="-6.46259">
        <ele>20</ele>
        <time>2021-03-20T17:04:14Z</time>
      </trkpt>
      <trkpt lat="52.27678" lon="-6.46293">
        <ele>18.27</ele>
        <time>2021-03-20T17:04:18Z</time>
      </trkpt>
      <trkpt lat="52.276" lon="-6.46299">
        <ele>18.41</ele>
        <time>2021-03-20T17:04:22Z</time>
      </trkpt>
      <trkpt lat="52.27531" lon="-6.46296">
        <ele>17.53</ele>
        <time>2021-03-20T17:04:26Z</time>
      </trkpt>
      <trkpt lat="52.27486" lon="-6.46289">
        <ele>17.59</ele>
        <time>2021-03-20T17:04:30Z</time>
      </trkpt>
      <trkpt lat="52.27441" lon="-6.46279">
        <ele>17</ele>
        <time>2021-03-20T17:04:33Z</time>
      </trkpt>
      <trkpt lat="52.27022" lon="-6.46137">
        <ele>11.86</ele>
        <time>2021-03-20T17:04:37Z</time>
      </trkpt>
      <trkpt lat="52.26947" lon="-6.46116">
        <ele>12.92</ele>
        <time>2021-03-20T17:04:41Z</time>
      </trkpt>
      <trkpt lat="52.26901" lon="-6.46114">
        <ele>14.56</ele>
        <time>2021-03-20T17:04:45Z</time>
      </trkpt>
      <trkpt lat="52.26874" lon="-6.46117">
        <ele>15.44</ele>
        <time>2021-03-20T17:04:49Z</time>
      </trkpt>
      <trkpt lat="52.26836" lon="-6.46124">
        <ele>15.54</ele>
        <time>2021-03-20T17:04:52Z</time>
      </trkpt>
      <trkpt lat="52.26806" lon="-6.46131">
        <ele>15.01</ele>
        <time>2021-03-20T17:04:56Z</time>
      </trkpt>
      <trkpt lat="52.26698" lon="-6.4617">
        <ele>16.9</ele>
        <time>2021-03-20T17:05:00Z</time>
      </trkpt>
      <trkpt lat="52.26638" lon="-6.46188">
        <ele>16</ele>
        <time>2021-03-20T17:05:04Z</time>
      </trkpt>
      <trkpt lat="52.26594" lon="-6.46194">
        <ele>16.62</ele>
        <time>2021-03-20T17:05:08Z</time>
      </trkpt>
      <trkpt lat="52.26533" lon="-6.46193">
        <ele>17.01</ele>
        <time>2021-03-20T17:05:11Z</time>
      </trkpt>
      <trkpt lat="52.26459" lon="-6.46177">
        <ele>13.88</ele>
        <time>2021-03-20T17:05:15Z</time>
      </trkpt>
      <trkpt lat="52.26437" lon="-6.46169">
        <ele>12.82</ele>
        <time>2021-03-20T17:05:19Z</time>
      </trkpt>
      <trkpt lat="52.26374" lon="-6.4614">
        <ele>10.45</ele>
        <time>2021-03-20T17:05:23Z</time>
      </trkpt>
      <trkpt lat="52.2608" lon="-6.45943">
        <ele>4.89</ele>
        <time>2021-03-20T17:05:27Z</time>
      </trkpt>
      <trkpt lat="52.25974" lon="-6.45868">
        <ele>6.92</ele>
        <time>2021-03-20T17:05:31Z</time>
      </trkpt>
      <trkpt lat="52.25902" lon="-6.45794">
        <ele>6.26</ele>
        <time>2021-03-20T17:05:34Z</time>
      </trkpt>
      <trkpt lat="52.25875" lon="-6.45758">
        <ele>6.51</ele>
        <time>2021-03-20T17:05:38Z</time>
      </trkpt>
      <trkpt lat="52.25851" lon="-6.45722">
        <ele>8</ele>
        <time>2021-03-20T17:05:42Z</time>
      </trkpt>
      <trkpt lat="52.2582" lon="-6.4567">
        <ele>8</ele>
        <time>2021-03-20T17:05:46Z</time>
      </trkpt>
      <trkpt lat="52.25781" lon="-6.45584">
        <ele>8</ele>
        <time>2021-03-20T17:05:50Z</time>
      </trkpt>
      <trkpt lat="52.2574" lon="-6.45469">
        <ele>7.32</ele>
        <time>2021-03-20T17:05:53Z</time>
      </trkpt>
      <trkpt lat="52.25719" lon="-6.4539">
        <ele>7.01</ele>
        <time>2021-03-20T17:05:57Z</time>
      </trkpt>
      <trkpt lat="52.25708" lon="-6.45337">
        <ele>7.03</ele>
        <time>2021-03-20T17:06:01Z</time>
      </trkpt>
      <trkpt lat="52.25692" lon="-6.45218">
        <ele>7.44</ele>
        <time>2021-03-20T17:06:05Z</time>
      </trkpt>
      <trkpt lat="52.25688" lon="-6.4517">
        <ele>10.27</ele>
        <time>2021-03-20T17:06:09Z</time>
      </trkpt>
      <trkpt lat="52.25687" lon="-6.45088">
        <ele>11.27</ele>
        <time>2021-03-20T17:06:12Z</time>
      </trkpt>
      <trkpt lat="52.25691" lon="-6.45026">
        <ele>11.08</ele>
        <time>2021-03-20T17:06:16Z</time>
      </trkpt>
      <trkpt lat="52.25701" lon="-6.44934">
        <ele>8.86</ele>
        <time>2021-03-20T17:06:20Z</time>
      </trkpt>
      <trkpt lat="52.25719" lon="-6.44787">
        <ele>11.4</ele>
        <time>2021-03-20T17:06:24Z</time>
      </trkpt>
      <trkpt lat="52.25731" lon="-6.44701">
        <ele>11.3</ele>
        <time>2021-03-20T17:06:28Z</time>
      </trkpt>
      <trkpt lat="52.25743" lon="-6.44639">
        <ele>11</ele>
        <time>2021-03-20T17:06:31Z</time>
      </trkpt>
      <trkpt lat="52.2576" lon="-6.44569">
        <ele>10.14</ele>
        <time>2021-03-20T17:06:35Z</time>
      </trkpt>
      <trkpt lat="52.25777" lon="-6.44513">
        <ele>10</ele>
        <time>2021-03-20T17:06:39Z</time>
      </trkpt>
      <trkpt lat="52.25825" lon="-6.44381">
        <ele>5.49</ele>
        <time>2021-03-20T17:06:43Z</time>
      </trkpt>
      <trkpt lat="52.25845" lon="-6.44321">
        <ele>4.41</ele>
        <time>2021-03-20T17:06:47Z</time>
      </trkpt>
      <trkpt lat="52.25862" lon="-6.44259">
        <ele>5</ele>
        <time>2021-03-20T17:06:50Z</time>
      </trkpt>
      <trkpt lat="52.25875" lon="-6.44194">
        <ele>6</ele>
        <time>2021-03-20T17:06:54Z</time>
      </trkpt>
      <trkpt lat="52.25888" lon="-6.44087">
        <ele>7</ele>
        <time>2021-03-20T17:06:58Z</time>
      </trkpt>
      <trkpt lat="52.25893" lon="-6.43929">
        <ele>6.3</ele>
        <time>2021-03-20T17:07:02Z</time>
      </trkpt>
      <trkpt lat="52.25893" lon="-6.43708">
        <ele>3.58</ele>
        <time>2021-03-20T17:07:06Z</time>
      </trkpt>
      <trkpt lat="52.25873" lon="-6.43483">
        <ele>8</ele>
        <time>2021-03-20T17:07:10Z</time>
      </trkpt>
      <trkpt lat="52.25851" lon="-6.4331">
        <ele>11</ele>
        <time>2021-03-20T17:07:13Z</time>
      </trkpt>
      <trkpt lat="52.25822" lon="-6.43129">
        <ele>12.78</ele>
        <time>2021-03-20T17:07:17Z</time>
      </trkpt>
      <trkpt lat="52.2583" lon="-6.4312">
        <ele>12.39</ele>
        <time>2021-03-20T17:07:21Z</time>
      </trkpt>
      <trkpt lat="52.25834" lon="-6.43105">
        <ele>11.97</ele>
        <time>2021-03-20T17:07:25Z</time>
      </trkpt>
      <trkpt lat="52.25832" lon="-6.43089">
        <ele>12.05</ele>
        <time>2021-03-20T17:07:30Z</time>
      </trkpt>
      <trkpt lat="52.25825" lon="-6.43078">
        <ele>12.44</ele>
        <time>2021-03-20T17:07:34Z</time>
      </trkpt>
      <trkpt lat="52.25816" lon="-6.43076">
        <ele>12.73</ele>
        <time>2021-03-20T17:07:38Z</time>
      </trkpt>
      <trkpt lat="52.25808" lon="-6.43082">
        <ele>12.93</ele>
        <time>2021-03-20T17:07:42Z</time>
      </trkpt>
      <trkpt lat="52.25784" lon="-6.43038">
        <ele>13.77</ele>
        <time>2021-03-20T17:07:46Z</time>
      </trkpt>
      <trkpt lat="52.25765" lon="-6.42987">
        <ele>12.53</ele>
        <time>2021-03-20T17:07:50Z</time>
      </trkpt>
      <trkpt lat="52.25565" lon="-6.42424">
        <ele>11</ele>
        <time>2021-03-20T17:07:54Z</time>
      </trkpt>
      <trkpt lat="52.2543" lon="-6.4205">
        <ele>12.54</ele>
        <time>2021-03-20T17:07:58Z</time>
      </trkpt>
      <trkpt lat="52.25387" lon="-6.41925">
        <ele>13.39</ele>
        <time>2021-03-20T17:08:02Z</time>
      </trkpt>
      <trkpt lat="52.25387" lon="-6.41925">
        <ele>13.39</ele>
        <time>2021-03-20T17:08:02Z</time>
      </trkpt>
      <trkpt lat="52.25345" lon="-6.418">
        <ele>14.89</ele>
        <time>2021-03-20T17:08:09Z</time>
      </trkpt>
      <trkpt lat="52.25231" lon="-6.4149">
        <ele>13</ele>
        <time>2021-03-20T17:08:16Z</time>
      </trkpt>
      <trkpt lat="52.25054" lon="-6.41005">
        <ele>14</ele>
        <time>2021-03-20T17:08:23Z</time>
      </trkpt>
      <trkpt lat="52.24979" lon="-6.40804">
        <ele>14.76</ele>
        <time>2021-03-20T17:08:30Z</time>
      </trkpt>
      <trkpt lat="52.24957" lon="-6.40738">
        <ele>15</ele>
        <time>2021-03-20T17:08:37Z</time>
      </trkpt>
      <trkpt lat="52.24931" lon="-6.40665">
        <ele>15.48</ele>
        <time>2021-03-20T17:08:44Z</time>
      </trkpt>
      <trkpt lat="52.2483" lon="-6.40351">
        <ele>15</ele>
        <time>2021-03-20T17:08:51Z</time>
      </trkpt>
      <trkpt lat="52.24456" lon="-6.39308">
        <ele>19.6</ele>
        <time>2021-03-20T17:08:58Z</time>
      </trkpt>
      <trkpt lat="52.24355" lon="-6.3903">
        <ele>16.13</ele>
        <time>2021-03-20T17:09:05Z</time>
      </trkpt>
      <trkpt lat="52.24328" lon="-6.38927">
        <ele>19.36</ele>
        <time>2021-03-20T17:09:12Z</time>
      </trkpt>
      <trkpt lat="52.24313" lon="-6.38834">
        <ele>19.74</ele>
        <time>2021-03-20T17:09:19Z</time>
      </trkpt>
      <trkpt lat="52.24301" lon="-6.38731">
        <ele>20.31</ele>
        <time>2021-03-20T17:09:26Z</time>
      </trkpt>
      <trkpt lat="52.24297" lon="-6.3868">
        <ele>19.84</ele>
        <time>2021-03-20T17:09:33Z</time>
      </trkpt>
      <trkpt lat="52.24297" lon="-6.38603">
        <ele>19</ele>
        <time>2021-03-20T17:09:40Z</time>
      </trkpt>
      <trkpt lat="52.24298" lon="-6.38561">
        <ele>18.18</ele>
        <time>2021-03-20T17:09:47Z</time>
      </trkpt>
      <trkpt lat="52.24301" lon="-6.38517">
        <ele>18</ele>
        <time>2021-03-20T17:09:54Z</time>
      </trkpt>
      <trkpt lat="52.24309" lon="-6.38442">
        <ele>19</ele>
        <time>2021-03-20T17:10:01Z</time>
      </trkpt>
      <trkpt lat="52.24318" lon="-6.38373">
        <ele>19</ele>
        <time>2021-03-20T17:10:08Z</time>
      </trkpt>
      <trkpt lat="52.24433" lon="-6.3775">
        <ele>20.99</ele>
        <time>2021-03-20T17:10:15Z</time>
      </trkpt>
      <trkpt lat="52.24455" lon="-6.37584">
        <ele>20.63</ele>
        <time>2021-03-20T17:10:22Z</time>
      </trkpt>
      <trkpt lat="52.24462" lon="-6.37517">
        <ele>19.61</ele>
        <time>2021-03-20T17:10:29Z</time>
      </trkpt>
      <trkpt lat="52.24475" lon="-6.37314">
        <ele>18.21</ele>
        <time>2021-03-20T17:10:36Z</time>
      </trkpt>
      <trkpt lat="52.24478" lon="-6.37235">
        <ele>19.62</ele>
        <time>2021-03-20T17:10:43Z</time>
      </trkpt>
      <trkpt lat="52.24478" lon="-6.37116">
        <ele>20</ele>
        <time>2021-03-20T17:10:50Z</time>
      </trkpt>
      <trkpt lat="52.24476" lon="-6.37043">
        <ele>20</ele>
        <time>2021-03-20T17:10:57Z</time>
      </trkpt>
      <trkpt lat="52.2447" lon="-6.36948">
        <ele>19.79</ele>
        <time>2021-03-20T17:11:04Z</time>
      </trkpt>
      <trkpt lat="52.24458" lon="-6.36815">
        <ele>18.98</ele>
        <time>2021-03-20T17:11:11Z</time>
      </trkpt>
      <trkpt lat="52.24382" lon="-6.36157">
        <ele>12.23</ele>
        <time>2021-03-20T17:11:18Z</time>
      </trkpt>
      <trkpt lat="52.2437" lon="-6.36082">
        <ele>13.63</ele>
        <time>2021-03-20T17:11:25Z</time>
      </trkpt>
      <trkpt lat="52.2436" lon="-6.36036">
        <ele>13.08</ele>
        <time>2021-03-20T17:11:32Z</time>
      </trkpt>
      <trkpt lat="52.24339" lon="-6.35972">
        <ele>14.62</ele>
        <time>2021-03-20T17:11:39Z</time>
      </trkpt>
      <trkpt lat="52.24282" lon="-6.35834">
        <ele>15.88</ele>
        <time>2021-03-20T17:11:46Z</time>
      </trkpt>
      <trkpt lat="52.2424" lon="-6.35723">
        <ele>17.03</ele>
        <time>2021-03-20T17:11:53Z</time>
      </trkpt>
      <trkpt lat="52.24224" lon="-6.35668">
        <ele>16.94</ele>
        <time>2021-03-20T17:12:00Z</time>
      </trkpt>
      <trkpt lat="52.242" lon="-6.35536">
        <ele>16.79</ele>
        <time>2021-03-20T17:12:07Z</time>
      </trkpt>
      <trkpt lat="52.24206" lon="-6.35536">
        <ele>16.58</ele>
        <time>2021-03-20T17:12:11Z</time>
      </trkpt>
      <trkpt lat="52.24242" lon="-6.35509">
        <ele>15.78</ele>
        <time>2021-03-20T17:12:16Z</time>
      </trkpt>
      <trkpt lat="52.24294" lon="-6.35474">
        <ele>15</ele>
        <time>2021-03-20T17:12:21Z</time>
      </trkpt>
      <trkpt lat="52.24336" lon="-6.35461">
        <ele>13.6</ele>
        <time>2021-03-20T17:12:25Z</time>
      </trkpt>
      <trkpt lat="52.24389" lon="-6.35469">
        <ele>12.9</ele>
        <time>2021-03-20T17:12:30Z</time>
      </trkpt>
      <trkpt lat="52.24407" lon="-6.35469">
        <ele>12.89</ele>
        <time>2021-03-20T17:12:35Z</time>
      </trkpt>
      <trkpt lat="52.24589" lon="-6.35413">
        <ele>11</ele>
        <time>2021-03-20T17:12:39Z</time>
      </trkpt>
      <trkpt lat="52.24627" lon="-6.35404">
        <ele>11</ele>
        <time>2021-03-20T17:12:44Z</time>
      </trkpt>
      <trkpt lat="52.24642" lon="-6.35405">
        <ele>10.95</ele>
        <time>2021-03-20T17:12:49Z</time>
      </trkpt>
      <trkpt lat="52.24684" lon="-6.35421">
        <ele>11</ele>
        <time>2021-03-20T17:12:53Z</time>
      </trkpt>
      <trkpt lat="52.24747" lon="-6.35437">
        <ele>11</ele>
        <time>2021-03-20T17:12:58Z</time>
      </trkpt>
      <trkpt lat="52.24783" lon="-6.35443">
        <ele>10.81</ele>
        <time>2021-03-20T17:13:03Z</time>
      </trkpt>
      <trkpt lat="52.24797" lon="-6.35438">
        <ele>10.3</ele>
        <time>2021-03-20T17:13:07Z</time>
      </trkpt>
      <trkpt lat="52.2484" lon="-6.35402">
        <ele>10.52</ele>
        <time>2021-03-20T17:13:12Z</time>
      </trkpt>
      <trkpt lat="52.24864" lon="-6.35397">
        <ele>10.64</ele>
        <time>2021-03-20T17:13:17Z</time>
      </trkpt>
      <trkpt lat="52.24894" lon="-6.35398">
        <ele>10.11</ele>
        <time>2021-03-20T17:13:21Z</time>
      </trkpt>
      <trkpt lat="52.24917" lon="-6.35391">
        <ele>10.95</ele>
        <time>2021-03-20T17:13:26Z</time>
      </trkpt>
      <trkpt lat="52.24998" lon="-6.35342">
        <ele>12.62</ele>
        <time>2021-03-20T17:13:31Z</time>
      </trkpt>
      <trkpt lat="52.24999" lon="-6.35326">
        <ele>12.95</ele>
        <time>2021-03-20T17:13:35Z</time>
      </trkpt>
      <trkpt lat="52.24986" lon="-6.35224">
        <ele>14.42</ele>
        <time>2021-03-20T17:13:40Z</time>
      </trkpt>
      <trkpt lat="52.2493" lon="-6.34812">
        <ele>15.89</ele>
        <time>2021-03-20T17:13:44Z</time>
      </trkpt>
      <trkpt lat="52.24927" lon="-6.34777">
        <ele>16.63</ele>
        <time>2021-03-20T17:13:48Z</time>
      </trkpt>
      <trkpt lat="52.24929" lon="-6.34763">
        <ele>16.56</ele>
        <time>2021-03-20T17:13:52Z</time>
      </trkpt>
      <trkpt lat="52.24942" lon="-6.34734">
        <ele>16.08</ele>
        <time>2021-03-20T17:13:57Z</time>
      </trkpt>
      <trkpt lat="52.24969" lon="-6.34692">
        <ele>16.96</ele>
        <time>2021-03-20T17:14:01Z</time>
      </trkpt>
      <trkpt lat="52.25013" lon="-6.34636">
        <ele>17.58</ele>
        <time>2021-03-20T17:14:05Z</time>
      </trkpt>
      <trkpt lat="52.25023" lon="-6.34616">
        <ele>17.85</ele>
        <time>2021-03-20T17:14:10Z</time>
      </trkpt>
      <trkpt lat="52.25023" lon="-6.34597">
        <ele>18</ele>
        <time>2021-03-20T17:14:14Z</time>
      </trkpt>
      <trkpt lat="52.2502" lon="-6.34548">
        <ele>18</ele>
        <time>2021-03-20T17:14:18Z</time>
      </trkpt>
      <trkpt lat="52.25018" lon="-6.34527">
        <ele>17.99</ele>
        <time>2021-03-20T17:14:23Z</time>
      </trkpt>
      <trkpt lat="52.25012" lon="-6.34506">
        <ele>17.54</ele>
        <time>2021-03-20T17:14:27Z</time>
      </trkpt>
      <trkpt lat="52.2498" lon="-6.34438">
        <ele>17.42</ele>
        <time>2021-03-20T17:14:31Z</time>
      </trkpt>
      <trkpt lat="52.24974" lon="-6.34419">
        <ele>17.84</ele>
        <time>2021-03-20T17:14:36Z</time>
      </trkpt>
      <trkpt lat="52.24969" lon="-6.34393">
        <ele>17.04</ele>
        <time>2021-03-20T17:14:40Z</time>
      </trkpt>
      <trkpt lat="52.25037" lon="-6.34367">
        <ele>15.19</ele>
        <time>2021-03-20T17:14:44Z</time>
      </trkpt>
      <trkpt lat="52.25062" lon="-6.34352">
        <ele>14.73</ele>
        <time>2021-03-20T17:14:47Z</time>
      </trkpt>
      <trkpt lat="52.25089" lon="-6.34322">
        <ele>16.53</ele>
        <time>2021-03-20T17:14:51Z</time>
      </trkpt>
      <trkpt lat="52.251" lon="-6.34306">
        <ele>17</ele>
        <time>2021-03-20T17:14:54Z</time>
      </trkpt>
      <trkpt lat="52.2511" lon="-6.34285">
        <ele>17.04</ele>
        <time>2021-03-20T17:14:58Z</time>
      </trkpt>
      <trkpt lat="52.2512" lon="-6.34258">
        <ele>15.97</ele>
        <time>2021-03-20T17:15:01Z</time>
      </trkpt>
      <trkpt lat="52.25127" lon="-6.34231">
        <ele>13.28</ele>
        <time>2021-03-20T17:15:05Z</time>
      </trkpt>
      <trkpt lat="52.25132" lon="-6.34182">
        <ele>9.62</ele>
        <time>2021-03-20T17:15:08Z</time>
      </trkpt>
      <trkpt lat="52.25132" lon="-6.34131">
        <ele>9.97</ele>
        <time>2021-03-20T17:15:12Z</time>
      </trkpt>
      <trkpt lat="52.25127" lon="-6.34025">
        <ele>12.41</ele>
        <time>2021-03-20T17:15:15Z</time>
      </trkpt>
      <trkpt lat="52.25125" lon="-6.33973">
        <ele>10.41</ele>
        <time>2021-03-20T17:15:19Z</time>
      </trkpt>
      <trkpt lat="52.25127" lon="-6.33923">
        <ele>8.53</ele>
        <time>2021-03-20T17:15:22Z</time>
      </trkpt>
      <trkpt lat="52.25124" lon="-6.33862">
        <ele>8.76</ele>
        <time>2021-03-20T17:15:26Z</time>
      </trkpt>
      <trkpt lat="52.2512" lon="-6.33834">
        <ele>8.44</ele>
        <time>2021-03-20T17:15:29Z</time>
      </trkpt>
      <trkpt lat="52.25107" lon="-6.33775">
        <ele>8.14</ele>
        <time>2021-03-20T17:15:33Z</time>
      </trkpt>
      <trkpt lat="52.25064" lon="-6.33639">
        <ele>7.79</ele>
        <time>2021-03-20T17:15:36Z</time>
      </trkpt>
      <trkpt lat="52.25054" lon="-6.33599">
        <ele>6.51</ele>
        <time>2021-03-20T17:15:40Z</time>
      </trkpt>
      <trkpt lat="52.25048" lon="-6.33551">
        <ele>8.35</ele>
        <time>2021-03-20T17:15:43Z</time>
      </trkpt>
      <trkpt lat="52.25049" lon="-6.33506">
        <ele>7.44</ele>
        <time>2021-03-20T17:15:47Z</time>
      </trkpt>
      <trkpt lat="52.25054" lon="-6.33475">
        <ele>5.46</ele>
        <time>2021-03-20T17:15:51Z</time>
      </trkpt>
      <trkpt lat="52.25057" lon="-6.33467">
        <ele>4.73</ele>
        <time>2021-03-20T17:15:54Z</time>
      </trkpt>
      <trkpt lat="52.25067" lon="-6.33471">
        <ele>4.18</ele>
        <time>2021-03-20T17:15:55Z</time>
      </trkpt>
      <trkpt lat="52.25072" lon="-6.3347">
        <ele>3.79</ele>
        <time>2021-03-20T17:15:55Z</time>
      </trkpt>
      <trkpt lat="52.25077" lon="-6.33465">
        <ele>3.38</ele>
        <time>2021-03-20T17:15:56Z</time>
      </trkpt>
      <trkpt lat="52.25081" lon="-6.33457">
        <ele>3.11</ele>
        <time>2021-03-20T17:15:56Z</time>
      </trkpt>
      <trkpt lat="52.25084" lon="-6.33441">
        <ele>3.1</ele>
        <time>2021-03-20T17:15:57Z</time>
      </trkpt>
      <trkpt lat="52.25083" lon="-6.33434">
        <ele>3.38</ele>
        <time>2021-03-20T17:15:57Z</time>
      </trkpt>
      <trkpt lat="52.25079" lon="-6.33422">
        <ele>3.85</ele>
        <time>2021-03-20T17:15:58Z</time>
      </trkpt>
      <trkpt lat="52.25097" lon="-6.33389">
        <ele>4.53</ele>
        <time>2021-03-20T17:15:58Z</time>
      </trkpt>
      <trkpt lat="52.25126" lon="-6.33359">
        <ele>3.51</ele>
        <time>2021-03-20T17:16:01Z</time>
      </trkpt>
      <trkpt lat="52.25135" lon="-6.33358">
        <ele>3.17</ele>
        <time>2021-03-20T17:16:04Z</time>
      </trkpt>
      <trkpt lat="52.25144" lon="-6.33362">
        <ele>3</ele>
        <time>2021-03-20T17:16:07Z</time>
      </trkpt>
      <trkpt lat="52.25222" lon="-6.33492">
        <ele>3</ele>
        <time>2021-03-20T17:16:09Z</time>
      </trkpt>
      <trkpt lat="52.25242" lon="-6.33527">
        <ele>3.43</ele>
        <time>2021-03-20T17:16:11Z</time>
      </trkpt>
      <trkpt lat="52.25244" lon="-6.33539">
        <ele>3.55</ele>
        <time>2021-03-20T17:16:12Z</time>
      </trkpt>
      <trkpt lat="52.25241" lon="-6.33546">
        <ele>3.34</ele>
        <time>2021-03-20T17:16:13Z</time>
      </trkpt>
      <trkpt lat="52.25237" lon="-6.33549">
        <ele>3.08</ele>
        <time>2021-03-20T17:16:14Z</time>
      </trkpt>
      <trkpt lat="52.25233" lon="-6.33547">
        <ele>2.77</ele>
        <time>2021-03-20T17:16:15Z</time>
      </trkpt>
      <trkpt lat="52.25192" lon="-6.3348">
        <ele>0.46</ele>
        <time>2021-03-20T17:16:16Z</time>
      </trkpt>
      <trkpt lat="52.25133" lon="-6.33382">
        <ele>3.21</ele>
        <time>2021-03-20T17:16:20Z</time>
      </trkpt>
      <trkpt lat="52.25097" lon="-6.33443">
        <ele>2.54</ele>
        <time>2021-03-20T17:16:23Z</time>
      </trkpt>
      <trkpt lat="52.2519" lon="-6.336">
        <ele>2.59</ele>
        <time>2021-03-20T17:16:26Z</time>
      </trkpt>
      <trkpt lat="52.25214" lon="-6.33587">
        <ele>2.04</ele>
        <time>2021-03-20T17:16:30Z</time>
      </trkpt>
      <trkpt lat="52.25227" lon="-6.33584">
        <ele>2.18</ele>
        <time>2021-03-20T17:16:33Z</time>
      </trkpt>
      <trkpt lat="52.25248" lon="-6.33588">
        <ele>2.94</ele>
        <time>2021-03-20T17:16:36Z</time>
      </trkpt>
      <trkpt lat="52.25275" lon="-6.33596">
        <ele>3.88</ele>
        <time>2021-03-20T17:16:40Z</time>
      </trkpt>
      <trkpt lat="52.25319" lon="-6.33586">
        <ele>4</ele>
        <time>2021-03-20T17:16:43Z</time>
      </trkpt>
      <trkpt lat="52.25383" lon="-6.33657">
        <ele>5</ele>
        <time>2021-03-20T17:17:00Z</time>
      </trkpt>
      <trkpt lat="52.25657" lon="-6.33981">
        <ele>4.99</ele>
        <time>2021-03-20T21:22:46Z</time>
      </trkpt>
      <trkpt lat="52.25931" lon="-6.34057">
        <ele>4.99</ele>
        <time>2021-03-21T01:28:31Z</time>
      </trkpt>
      <trkpt lat="52.26139" lon="-6.33813">
        <ele>4.99</ele>
        <time>2021-03-21T05:34:17Z</time>
      </trkpt>
      <trkpt lat="52.263" lon="-6.33463">
        <ele>4.99</ele>
        <time>2021-03-21T09:40:02Z</time>
      </trkpt>
      <trkpt lat="52.26311" lon="-6.32866">
        <ele>4.98</ele>
        <time>2021-03-21T13:45:48Z</time>
      </trkpt>
      <trkpt lat="52.26129" lon="-6.31983">
        <ele>4.97</ele>
        <time>2021-03-21T17:51:33Z</time>
      </trkpt>
      <trkpt lat="52.25046" lon="-6.29144">
        <ele>4.93</ele>
        <time>2021-03-21T21:57:19Z</time>
      </trkpt>
      <trkpt lat="52.22515" lon="-6.25432">
        <ele>4.87</ele>
        <time>2021-03-22T02:03:04Z</time>
      </trkpt>
      <trkpt lat="52.20407" lon="-6.24012">
        <ele>4.84</ele>
        <time>2021-03-22T06:08:50Z</time>
      </trkpt>
      <trkpt lat="50.78907" lon="-5.98955">
        <ele>3.04</ele>
        <time>2021-03-22T10:14:35Z</time>
      </trkpt>
      <trkpt lat="50.73571" lon="-5.98268">
        <ele>2.98</ele>
        <time>2021-03-22T14:20:21Z</time>
      </trkpt>
      <trkpt lat="50.39115" lon="-5.9221">
        <ele>2.59</ele>
        <time>2021-03-22T18:26:06Z</time>
      </trkpt>
      <trkpt lat="50.39115" lon="-5.9221">
        <ele>2.59</ele>
        <time>2021-03-22T18:26:06Z</time>
      </trkpt>
      <trkpt lat="50.15067" lon="-5.87981">
        <ele>2.59</ele>
        <time>2021-03-23T00:37:27Z</time>
      </trkpt>
      <trkpt lat="50.15067" lon="-5.87981">
        <ele>2.59</ele>
        <time>2021-03-23T00:37:27Z</time>
      </trkpt>
      <trkpt lat="49.94658" lon="-5.84392">
        <ele>2.2</ele>
        <time>2021-03-23T03:45:05Z</time>
      </trkpt>
      <trkpt lat="49.92529" lon="-5.79285">
        <ele>2.05</ele>
        <time>2021-03-23T06:52:42Z</time>
      </trkpt>
      <trkpt lat="49.92529" lon="-5.79285">
        <ele>2.05</ele>
        <time>2021-03-23T06:52:42Z</time>
      </trkpt>
      <trkpt lat="49.81138" lon="-5.51955">
        <ele>1.89</ele>
        <time>2021-03-23T11:37:16Z</time>
      </trkpt>
      <trkpt lat="49.78754" lon="-1.89857">
        <ele>-2.38</ele>
        <time>2021-03-23T16:21:50Z</time>
      </trkpt>
      <trkpt lat="49.67271" lon="-1.65358">
        <ele>-2.77</ele>
        <time>2021-03-23T21:06:23Z</time>
      </trkpt>
      <trkpt lat="49.67121" lon="-1.64953">
        <ele>-2.78</ele>
        <time>2021-03-24T01:50:57Z</time>
      </trkpt>
      <trkpt lat="49.67055" lon="-1.6474">
        <ele>-2.78</ele>
        <time>2021-03-24T06:35:31Z</time>
      </trkpt>
      <trkpt lat="49.66943" lon="-1.64322">
        <ele>-2.79</ele>
        <time>2021-03-24T11:20:04Z</time>
      </trkpt>
      <trkpt lat="49.66749" lon="-1.63624">
        <ele>-2.8</ele>
        <time>2021-03-24T16:04:38Z</time>
      </trkpt>
      <trkpt lat="49.66349" lon="-1.6209">
        <ele>-2.82</ele>
        <time>2021-03-24T20:49:12Z</time>
      </trkpt>
      <trkpt lat="49.66293" lon="-1.61919">
        <ele>-2.82</ele>
        <time>2021-03-25T01:33:45Z</time>
      </trkpt>
      <trkpt lat="49.66221" lon="-1.61809">
        <ele>-2.82</ele>
        <time>2021-03-25T06:18:19Z</time>
      </trkpt>
      <trkpt lat="49.66157" lon="-1.61716">
        <ele>-2.82</ele>
        <time>2021-03-25T11:02:53Z</time>
      </trkpt>
      <trkpt lat="49.66046" lon="-1.61612">
        <ele>-2.82</ele>
        <time>2021-03-25T15:47:26Z</time>
      </trkpt>
      <trkpt lat="49.65846" lon="-1.61517">
        <ele>-2.83</ele>
        <time>2021-03-25T20:32:00Z</time>
      </trkpt>
      <trkpt lat="49.65178" lon="-1.61338">
        <ele>-2.84</ele>
        <time>2021-03-26T01:16:34Z</time>
      </trkpt>
      <trkpt lat="49.64927" lon="-1.61296">
        <ele>-2.84</ele>
        <time>2021-03-26T06:01:07Z</time>
      </trkpt>
      <trkpt lat="49.64877" lon="-1.61286">
        <ele>2.95</ele>
        <time>2021-03-26T06:01:14Z</time>
      </trkpt>
      <trkpt lat="49.64862" lon="-1.61291">
        <ele>4.4</ele>
        <time>2021-03-26T06:01:21Z</time>
      </trkpt>
      <trkpt lat="49.64831" lon="-1.61295">
        <ele>3.3</ele>
        <time>2021-03-26T06:01:29Z</time>
      </trkpt>
      <trkpt lat="49.64771" lon="-1.61284">
        <ele>1.41</ele>
        <time>2021-03-26T06:01:36Z</time>
      </trkpt>
      <trkpt lat="49.64714" lon="-1.61284">
        <ele>3</ele>
        <time>2021-03-26T06:01:43Z</time>
      </trkpt>
      <trkpt lat="49.64391" lon="-1.61225">
        <ele>2.9</ele>
        <time>2021-03-26T06:01:50Z</time>
      </trkpt>
      <trkpt lat="49.64367" lon="-1.61228">
        <ele>2.81</ele>
        <time>2021-03-26T06:01:57Z</time>
      </trkpt>
      <trkpt lat="49.64343" lon="-1.61223">
        <ele>2.33</ele>
        <time>2021-03-26T06:02:04Z</time>
      </trkpt>
      <trkpt lat="49.64333" lon="-1.61219">
        <ele>1.99</ele>
        <time>2021-03-26T06:02:11Z</time>
      </trkpt>
      <trkpt lat="49.64317" lon="-1.61204">
        <ele>0.85</ele>
        <time>2021-03-26T06:02:18Z</time>
      </trkpt>
      <trkpt lat="49.6427" lon="-1.61154">
        <ele>1.85</ele>
        <time>2021-03-26T06:02:25Z</time>
      </trkpt>
      <trkpt lat="49.6429" lon="-1.60883">
        <ele>1.43</ele>
        <time>2021-03-26T06:02:32Z</time>
      </trkpt>
      <trkpt lat="49.64299" lon="-1.60805">
        <ele>3.01</ele>
        <time>2021-03-26T06:02:38Z</time>
      </trkpt>
      <trkpt lat="49.64364" lon="-1.60341">
        <ele>3.91</ele>
        <time>2021-03-26T06:02:45Z</time>
      </trkpt>
      <trkpt lat="49.64374" lon="-1.60285">
        <ele>2.67</ele>
        <time>2021-03-26T06:02:52Z</time>
      </trkpt>
      <trkpt lat="49.64382" lon="-1.60258">
        <ele>2.24</ele>
        <time>2021-03-26T06:02:58Z</time>
      </trkpt>
      <trkpt lat="49.6442" lon="-1.60163">
        <ele>2.99</ele>
        <time>2021-03-26T06:03:05Z</time>
      </trkpt>
      <trkpt lat="49.64425" lon="-1.60142">
        <ele>3.29</ele>
        <time>2021-03-26T06:03:12Z</time>
      </trkpt>
      <trkpt lat="49.64432" lon="-1.60098">
        <ele>1.42</ele>
        <time>2021-03-26T06:03:19Z</time>
      </trkpt>
      <trkpt lat="49.64437" lon="-1.6008">
        <ele>0.47</ele>
        <time>2021-03-26T06:03:25Z</time>
      </trkpt>
      <trkpt lat="49.64444" lon="-1.60065">
        <ele>0.01</ele>
        <time>2021-03-26T06:03:32Z</time>
      </trkpt>
      <trkpt lat="49.64449" lon="-1.60057">
        <ele>0.51</ele>
        <time>2021-03-26T06:03:39Z</time>
      </trkpt>
      <trkpt lat="49.64463" lon="-1.60049">
        <ele>2.04</ele>
        <time>2021-03-26T06:03:46Z</time>
      </trkpt>
      <trkpt lat="49.64468" lon="-1.6005">
        <ele>2.52</ele>
        <time>2021-03-26T06:03:52Z</time>
      </trkpt>
      <trkpt lat="49.64468" lon="-1.6005">
        <ele>2.52</ele>
        <time>2021-03-26T06:03:52Z</time>
      </trkpt>
      <trkpt lat="49.64497" lon="-1.6005">
        <ele>3</ele>
        <time>2021-03-26T06:03:54Z</time>
      </trkpt>
      <trkpt lat="49.64504" lon="-1.60045">
        <ele>3</ele>
        <time>2021-03-26T06:03:56Z</time>
      </trkpt>
      <trkpt lat="49.6451" lon="-1.60035">
        <ele>3</ele>
        <time>2021-03-26T06:03:57Z</time>
      </trkpt>
      <trkpt lat="49.64513" lon="-1.60019">
        <ele>3</ele>
        <time>2021-03-26T06:03:59Z</time>
      </trkpt>
      <trkpt lat="49.64512" lon="-1.60003">
        <ele>3</ele>
        <time>2021-03-26T06:04:01Z</time>
      </trkpt>
      <trkpt lat="49.64507" lon="-1.59986">
        <ele>2.87</ele>
        <time>2021-03-26T06:04:02Z</time>
      </trkpt>
      <trkpt lat="49.64492" lon="-1.59962">
        <ele>2.72</ele>
        <time>2021-03-26T06:04:04Z</time>
      </trkpt>
      <trkpt lat="49.6448" lon="-1.59961">
        <ele>2.27</ele>
        <time>2021-03-26T06:04:06Z</time>
      </trkpt>
      <trkpt lat="49.64474" lon="-1.59957">
        <ele>2.06</ele>
        <time>2021-03-26T06:04:07Z</time>
      </trkpt>
      <trkpt lat="49.64465" lon="-1.59943">
        <ele>2</ele>
        <time>2021-03-26T06:04:09Z</time>
      </trkpt>
      <trkpt lat="49.64461" lon="-1.59923">
        <ele>2</ele>
        <time>2021-03-26T06:04:11Z</time>
      </trkpt>
      <trkpt lat="49.64464" lon="-1.59902">
        <ele>2</ele>
        <time>2021-03-26T06:04:13Z</time>
      </trkpt>
      <trkpt lat="49.64474" lon="-1.59887">
        <ele>2.04</ele>
        <time>2021-03-26T06:04:15Z</time>
      </trkpt>
      <trkpt lat="49.64486" lon="-1.5988">
        <ele>2.35</ele>
        <time>2021-03-26T06:04:17Z</time>
      </trkpt>
      <trkpt lat="49.64498" lon="-1.59862">
        <ele>2.04</ele>
        <time>2021-03-26T06:04:18Z</time>
      </trkpt>
      <trkpt lat="49.64506" lon="-1.5984">
        <ele>1.67</ele>
        <time>2021-03-26T06:04:20Z</time>
      </trkpt>
      <trkpt lat="49.64512" lon="-1.59808">
        <ele>1.46</ele>
        <time>2021-03-26T06:04:22Z</time>
      </trkpt>
      <trkpt lat="49.64519" lon="-1.59782">
        <ele>2.51</ele>
        <time>2021-03-26T06:04:24Z</time>
      </trkpt>
      <trkpt lat="49.64532" lon="-1.59747">
        <ele>3</ele>
        <time>2021-03-26T06:04:26Z</time>
      </trkpt>
      <trkpt lat="49.64616" lon="-1.59575">
        <ele>2.32</ele>
        <time>2021-03-26T06:04:28Z</time>
      </trkpt>
      <trkpt lat="49.64765" lon="-1.59289">
        <ele>1.32</ele>
        <time>2021-03-26T06:04:29Z</time>
      </trkpt>
      <trkpt lat="49.64778" lon="-1.59268">
        <ele>1.37</ele>
        <time>2021-03-26T06:04:31Z</time>
      </trkpt>
      <trkpt lat="49.64811" lon="-1.59229">
        <ele>2.21</ele>
        <time>2021-03-26T06:04:33Z</time>
      </trkpt>
      <trkpt lat="49.64818" lon="-1.59211">
        <ele>2.46</ele>
        <time>2021-03-26T06:04:35Z</time>
      </trkpt>
      <trkpt lat="49.64821" lon="-1.59201">
        <ele>2.55</ele>
        <time>2021-03-26T06:04:37Z</time>
      </trkpt>
      <trkpt lat="49.64818" lon="-1.5919">
        <ele>2.45</ele>
        <time>2021-03-26T06:04:40Z</time>
      </trkpt>
      <trkpt lat="49.64818" lon="-1.59167">
        <ele>2.43</ele>
        <time>2021-03-26T06:04:44Z</time>
      </trkpt>
      <trkpt lat="49.64824" lon="-1.59146">
        <ele>2.91</ele>
        <time>2021-03-26T06:04:48Z</time>
      </trkpt>
      <trkpt lat="49.64829" lon="-1.59139">
        <ele>2.99</ele>
        <time>2021-03-26T06:04:51Z</time>
      </trkpt>
      <trkpt lat="49.64841" lon="-1.59129">
        <ele>2.39</ele>
        <time>2021-03-26T06:04:55Z</time>
      </trkpt>
      <trkpt lat="49.64849" lon="-1.59128">
        <ele>2.03</ele>
        <time>2021-03-26T06:04:59Z</time>
      </trkpt>
      <trkpt lat="49.64863" lon="-1.59111">
        <ele>0.94</ele>
        <time>2021-03-26T06:05:02Z</time>
      </trkpt>
      <trkpt lat="49.64871" lon="-1.59094">
        <ele>0.46</ele>
        <time>2021-03-26T06:05:06Z</time>
      </trkpt>
      <trkpt lat="49.64932" lon="-1.58989">
        <ele>2.18</ele>
        <time>2021-03-26T06:05:10Z</time>
      </trkpt>
      <trkpt lat="49.64963" lon="-1.58933">
        <ele>2.14</ele>
        <time>2021-03-26T06:05:14Z</time>
      </trkpt>
      <trkpt lat="49.6506" lon="-1.58706">
        <ele>3.09</ele>
        <time>2021-03-26T06:05:17Z</time>
      </trkpt>
      <trkpt lat="49.65246" lon="-1.58339">
        <ele>2</ele>
        <time>2021-03-26T06:05:21Z</time>
      </trkpt>
      <trkpt lat="49.6528" lon="-1.58265">
        <ele>1.9</ele>
        <time>2021-03-26T06:05:25Z</time>
      </trkpt>
      <trkpt lat="49.65298" lon="-1.58218">
        <ele>0.68</ele>
        <time>2021-03-26T06:05:28Z</time>
      </trkpt>
      <trkpt lat="49.65311" lon="-1.5817">
        <ele>2.76</ele>
        <time>2021-03-26T06:05:32Z</time>
      </trkpt>
      <trkpt lat="49.65328" lon="-1.58074">
        <ele>3</ele>
        <time>2021-03-26T06:05:36Z</time>
      </trkpt>
      <trkpt lat="49.6534" lon="-1.57961">
        <ele>4.86</ele>
        <time>2021-03-26T06:05:39Z</time>
      </trkpt>
      <trkpt lat="49.6534" lon="-1.57944">
        <ele>4.98</ele>
        <time>2021-03-26T06:05:43Z</time>
      </trkpt>
      <trkpt lat="49.65338" lon="-1.57924">
        <ele>4.39</ele>
        <time>2021-03-26T06:05:47Z</time>
      </trkpt>
      <trkpt lat="49.65327" lon="-1.57911">
        <ele>4.18</ele>
        <time>2021-03-26T06:05:49Z</time>
      </trkpt>
      <trkpt lat="49.6532" lon="-1.57893">
        <ele>4.07</ele>
        <time>2021-03-26T06:05:52Z</time>
      </trkpt>
      <trkpt lat="49.65319" lon="-1.57871">
        <ele>3.36</ele>
        <time>2021-03-26T06:05:55Z</time>
      </trkpt>
      <trkpt lat="49.65323" lon="-1.5785">
        <ele>3</ele>
        <time>2021-03-26T06:05:58Z</time>
      </trkpt>
      <trkpt lat="49.65333" lon="-1.57835">
        <ele>3</ele>
        <time>2021-03-26T06:06:01Z</time>
      </trkpt>
      <trkpt lat="49.6534" lon="-1.57829">
        <ele>2.89</ele>
        <time>2021-03-26T06:06:03Z</time>
      </trkpt>
      <trkpt lat="49.6535" lon="-1.57802">
        <ele>2.59</ele>
        <time>2021-03-26T06:06:06Z</time>
      </trkpt>
      <trkpt lat="49.65354" lon="-1.57785">
        <ele>2.74</ele>
        <time>2021-03-26T06:06:09Z</time>
      </trkpt>
      <trkpt lat="49.6539" lon="-1.57336">
        <ele>4.91</ele>
        <time>2021-03-26T06:06:12Z</time>
      </trkpt>
      <trkpt lat="49.65392" lon="-1.57285">
        <ele>5.12</ele>
        <time>2021-03-26T06:06:15Z</time>
      </trkpt>
      <trkpt lat="49.65392" lon="-1.57234">
        <ele>5</ele>
        <time>2021-03-26T06:06:17Z</time>
      </trkpt>
      <trkpt lat="49.65384" lon="-1.57146">
        <ele>5</ele>
        <time>2021-03-26T06:06:20Z</time>
      </trkpt>
      <trkpt lat="49.65374" lon="-1.57093">
        <ele>5.45</ele>
        <time>2021-03-26T06:06:23Z</time>
      </trkpt>
      <trkpt lat="49.65361" lon="-1.57045">
        <ele>3.6</ele>
        <time>2021-03-26T06:06:26Z</time>
      </trkpt>
      <trkpt lat="49.65328" lon="-1.56951">
        <ele>2</ele>
        <time>2021-03-26T06:06:29Z</time>
      </trkpt>
      <trkpt lat="49.65232" lon="-1.56724">
        <ele>5.96</ele>
        <time>2021-03-26T06:06:31Z</time>
      </trkpt>
      <trkpt lat="49.65217" lon="-1.56694">
        <ele>6</ele>
        <time>2021-03-26T06:06:34Z</time>
      </trkpt>
      <trkpt lat="49.65196" lon="-1.56658">
        <ele>6</ele>
        <time>2021-03-26T06:06:37Z</time>
      </trkpt>
      <trkpt lat="49.65168" lon="-1.56619">
        <ele>6.95</ele>
        <time>2021-03-26T06:06:40Z</time>
      </trkpt>
      <trkpt lat="49.65139" lon="-1.56584">
        <ele>7.99</ele>
        <time>2021-03-26T06:06:43Z</time>
      </trkpt>
      <trkpt lat="49.65117" lon="-1.56563">
        <ele>8.79</ele>
        <time>2021-03-26T06:06:45Z</time>
      </trkpt>
      <trkpt lat="49.65078" lon="-1.56533">
        <ele>10</ele>
        <time>2021-03-26T06:06:48Z</time>
      </trkpt>
      <trkpt lat="49.65028" lon="-1.56506">
        <ele>12.73</ele>
        <time>2021-03-26T06:06:51Z</time>
      </trkpt>
      <trkpt lat="49.64985" lon="-1.56491">
        <ele>16.82</ele>
        <time>2021-03-26T06:06:54Z</time>
      </trkpt>
      <trkpt lat="49.64906" lon="-1.56482">
        <ele>22.41</ele>
        <time>2021-03-26T06:06:57Z</time>
      </trkpt>
      <trkpt lat="49.64721" lon="-1.56487">
        <ele>52.69</ele>
        <time>2021-03-26T06:06:59Z</time>
      </trkpt>
      <trkpt lat="49.64681" lon="-1.56484">
        <ele>57.53</ele>
        <time>2021-03-26T06:07:02Z</time>
      </trkpt>
      <trkpt lat="49.64651" lon="-1.56478">
        <ele>63.61</ele>
        <time>2021-03-26T06:07:05Z</time>
      </trkpt>
      <trkpt lat="49.64615" lon="-1.56467">
        <ele>68.36</ele>
        <time>2021-03-26T06:07:08Z</time>
      </trkpt>
      <trkpt lat="49.64582" lon="-1.56451">
        <ele>68.61</ele>
        <time>2021-03-26T06:07:11Z</time>
      </trkpt>
      <trkpt lat="49.64536" lon="-1.5642">
        <ele>74.07</ele>
        <time>2021-03-26T06:07:13Z</time>
      </trkpt>
      <trkpt lat="49.64473" lon="-1.56352">
        <ele>75.04</ele>
        <time>2021-03-26T06:07:16Z</time>
      </trkpt>
      <trkpt lat="49.64455" lon="-1.56327">
        <ele>75.23</ele>
        <time>2021-03-26T06:07:19Z</time>
      </trkpt>
      <trkpt lat="49.64426" lon="-1.56281">
        <ele>76.96</ele>
        <time>2021-03-26T06:07:22Z</time>
      </trkpt>
      <trkpt lat="49.64401" lon="-1.5623">
        <ele>78.41</ele>
        <time>2021-03-26T06:07:25Z</time>
      </trkpt>
      <trkpt lat="49.64383" lon="-1.56187">
        <ele>79.06</ele>
        <time>2021-03-26T06:07:27Z</time>
      </trkpt>
      <trkpt lat="49.64146" lon="-1.55458">
        <ele>78.43</ele>
        <time>2021-03-26T06:07:30Z</time>
      </trkpt>
      <trkpt lat="49.64126" lon="-1.55408">
        <ele>77.88</ele>
        <time>2021-03-26T06:07:33Z</time>
      </trkpt>
      <trkpt lat="49.64109" lon="-1.55374">
        <ele>78.54</ele>
        <time>2021-03-26T06:07:36Z</time>
      </trkpt>
      <trkpt lat="49.6408" lon="-1.55326">
        <ele>80.61</ele>
        <time>2021-03-26T06:07:39Z</time>
      </trkpt>
      <trkpt lat="49.64044" lon="-1.55276">
        <ele>85.53</ele>
        <time>2021-03-26T06:07:41Z</time>
      </trkpt>
      <trkpt lat="49.63995" lon="-1.55227">
        <ele>90.13</ele>
        <time>2021-03-26T06:07:44Z</time>
      </trkpt>
      <trkpt lat="49.63967" lon="-1.55206">
        <ele>92.57</ele>
        <time>2021-03-26T06:07:47Z</time>
      </trkpt>
      <trkpt lat="49.63938" lon="-1.55188">
        <ele>93.05</ele>
        <time>2021-03-26T06:07:50Z</time>
      </trkpt>
      <trkpt lat="49.63909" lon="-1.55175">
        <ele>92.81</ele>
        <time>2021-03-26T06:07:53Z</time>
      </trkpt>
      <trkpt lat="49.63884" lon="-1.55166">
        <ele>91.54</ele>
        <time>2021-03-26T06:07:55Z</time>
      </trkpt>
      <trkpt lat="49.63858" lon="-1.55159">
        <ele>89.65</ele>
        <time>2021-03-26T06:07:58Z</time>
      </trkpt>
      <trkpt lat="49.63813" lon="-1.55154">
        <ele>86.72</ele>
        <time>2021-03-26T06:08:01Z</time>
      </trkpt>
      <trkpt lat="49.63766" lon="-1.55159">
        <ele>83.28</ele>
        <time>2021-03-26T06:08:04Z</time>
      </trkpt>
      <trkpt lat="49.63711" lon="-1.55176">
        <ele>82.07</ele>
        <time>2021-03-26T06:08:07Z</time>
      </trkpt>
      <trkpt lat="49.63679" lon="-1.55194">
        <ele>82.61</ele>
        <time>2021-03-26T06:08:09Z</time>
      </trkpt>
      <trkpt lat="49.63638" lon="-1.55221">
        <ele>85.11</ele>
        <time>2021-03-26T06:08:12Z</time>
      </trkpt>
      <trkpt lat="49.63603" lon="-1.55252">
        <ele>85.78</ele>
        <time>2021-03-26T06:08:15Z</time>
      </trkpt>
      <trkpt lat="49.63566" lon="-1.55295">
        <ele>86</ele>
        <time>2021-03-26T06:08:18Z</time>
      </trkpt>
      <trkpt lat="49.6354" lon="-1.55337">
        <ele>82.88</ele>
        <time>2021-03-26T06:08:21Z</time>
      </trkpt>
      <trkpt lat="49.63502" lon="-1.55407">
        <ele>84.22</ele>
        <time>2021-03-26T06:08:23Z</time>
      </trkpt>
      <trkpt lat="49.63473" lon="-1.55483">
        <ele>84.51</ele>
        <time>2021-03-26T06:08:26Z</time>
      </trkpt>
      <trkpt lat="49.6346" lon="-1.55534">
        <ele>83.46</ele>
        <time>2021-03-26T06:08:29Z</time>
      </trkpt>
      <trkpt lat="49.63448" lon="-1.55601">
        <ele>79.69</ele>
        <time>2021-03-26T06:08:32Z</time>
      </trkpt>
      <trkpt lat="49.63442" lon="-1.5565">
        <ele>78.36</ele>
        <time>2021-03-26T06:08:35Z</time>
      </trkpt>
      <trkpt lat="49.63441" lon="-1.55716">
        <ele>73.69</ele>
        <time>2021-03-26T06:08:37Z</time>
      </trkpt>
      <trkpt lat="49.63443" lon="-1.5575">
        <ele>72.07</ele>
        <time>2021-03-26T06:08:40Z</time>
      </trkpt>
      <trkpt lat="49.6345" lon="-1.55776">
        <ele>71.79</ele>
        <time>2021-03-26T06:08:42Z</time>
      </trkpt>
      <trkpt lat="49.63466" lon="-1.55798">
        <ele>70.8</ele>
        <time>2021-03-26T06:08:45Z</time>
      </trkpt>
      <trkpt lat="49.63484" lon="-1.55808">
        <ele>69.96</ele>
        <time>2021-03-26T06:08:48Z</time>
      </trkpt>
      <trkpt lat="49.63493" lon="-1.55806">
        <ele>69.98</ele>
        <time>2021-03-26T06:08:50Z</time>
      </trkpt>
      <trkpt lat="49.63507" lon="-1.55797">
        <ele>69.83</ele>
        <time>2021-03-26T06:08:53Z</time>
      </trkpt>
      <trkpt lat="49.6357" lon="-1.5567">
        <ele>73.88</ele>
        <time>2021-03-26T06:08:56Z</time>
      </trkpt>
      <trkpt lat="49.63584" lon="-1.55635">
        <ele>75.13</ele>
        <time>2021-03-26T06:08:58Z</time>
      </trkpt>
      <trkpt lat="49.63604" lon="-1.5557">
        <ele>74.39</ele>
        <time>2021-03-26T06:09:01Z</time>
      </trkpt>
      <trkpt lat="49.63692" lon="-1.55205">
        <ele>81.7</ele>
        <time>2021-03-26T06:09:04Z</time>
      </trkpt>
      <trkpt lat="49.63699" lon="-1.55146">
        <ele>84.08</ele>
        <time>2021-03-26T06:09:06Z</time>
      </trkpt>
      <trkpt lat="49.63712" lon="-1.55064">
        <ele>85.87</ele>
        <time>2021-03-26T06:09:09Z</time>
      </trkpt>
      <trkpt lat="49.63706" lon="-1.55061">
        <ele>86.71</ele>
        <time>2021-03-26T06:09:11Z</time>
      </trkpt>
      <trkpt lat="49.63697" lon="-1.55053">
        <ele>87.79</ele>
        <time>2021-03-26T06:09:12Z</time>
      </trkpt>
      <trkpt lat="49.63689" lon="-1.5504">
        <ele>88.64</ele>
        <time>2021-03-26T06:09:14Z</time>
      </trkpt>
      <trkpt lat="49.63685" lon="-1.55025">
        <ele>89.42</ele>
        <time>2021-03-26T06:09:16Z</time>
      </trkpt>
      <trkpt lat="49.63684" lon="-1.55009">
        <ele>90.14</ele>
        <time>2021-03-26T06:09:18Z</time>
      </trkpt>
      <trkpt lat="49.63687" lon="-1.54991">
        <ele>90.9</ele>
        <time>2021-03-26T06:09:19Z</time>
      </trkpt>
      <trkpt lat="49.63694" lon="-1.54977">
        <ele>91.62</ele>
        <time>2021-03-26T06:09:21Z</time>
      </trkpt>
      <trkpt lat="49.63703" lon="-1.54966">
        <ele>92.21</ele>
        <time>2021-03-26T06:09:23Z</time>
      </trkpt>
      <trkpt lat="49.63714" lon="-1.54961">
        <ele>91.91</ele>
        <time>2021-03-26T06:09:25Z</time>
      </trkpt>
      <trkpt lat="49.63723" lon="-1.54961">
        <ele>91.15</ele>
        <time>2021-03-26T06:09:26Z</time>
      </trkpt>
      <trkpt lat="49.63749" lon="-1.54742">
        <ele>97.39</ele>
        <time>2021-03-26T06:09:28Z</time>
      </trkpt>
      <trkpt lat="49.63763" lon="-1.54665">
        <ele>100.52</ele>
        <time>2021-03-26T06:09:30Z</time>
      </trkpt>
      <trkpt lat="49.63776" lon="-1.54613">
        <ele>103.79</ele>
        <time>2021-03-26T06:09:32Z</time>
      </trkpt>
      <trkpt lat="49.63792" lon="-1.54562">
        <ele>106.75</ele>
        <time>2021-03-26T06:09:33Z</time>
      </trkpt>
      <trkpt lat="49.63788" lon="-1.54559">
        <ele>106.89</ele>
        <time>2021-03-26T06:09:39Z</time>
      </trkpt>
      <trkpt lat="49.6375" lon="-1.54541">
        <ele>108.04</ele>
        <time>2021-03-26T06:09:46Z</time>
      </trkpt>
      <trkpt lat="49.63734" lon="-1.54536">
        <ele>107.78</ele>
        <time>2021-03-26T06:09:52Z</time>
      </trkpt>
      <trkpt lat="49.63721" lon="-1.54536">
        <ele>107.57</ele>
        <time>2021-03-26T06:09:58Z</time>
      </trkpt>
      <trkpt lat="49.63711" lon="-1.54543">
        <ele>108.37</ele>
        <time>2021-03-26T06:10:04Z</time>
      </trkpt>
      <trkpt lat="49.63688" lon="-1.54583">
        <ele>109.18</ele>
        <time>2021-03-26T06:10:10Z</time>
      </trkpt>
      <trkpt lat="49.63615" lon="-1.54747">
        <ele>114.96</ele>
        <time>2021-03-26T06:10:16Z</time>
      </trkpt>
      <trkpt lat="49.63597" lon="-1.54777">
        <ele>115.14</ele>
        <time>2021-03-26T06:10:22Z</time>
      </trkpt>
      <trkpt lat="49.63576" lon="-1.54801">
        <ele>116.95</ele>
        <time>2021-03-26T06:10:29Z</time>
      </trkpt>
      <trkpt lat="49.63517" lon="-1.54852">
        <ele>119.67</ele>
        <time>2021-03-26T06:10:35Z</time>
      </trkpt>
      <trkpt lat="49.63494" lon="-1.54869">
        <ele>120.93</ele>
        <time>2021-03-26T06:10:41Z</time>
      </trkpt>
      <trkpt lat="49.6346" lon="-1.54884">
        <ele>121.55</ele>
        <time>2021-03-26T06:10:47Z</time>
      </trkpt>
      <trkpt lat="49.63358" lon="-1.54886">
        <ele>123.1</ele>
        <time>2021-03-26T06:10:53Z</time>
      </trkpt>
      <trkpt lat="49.63039" lon="-1.54877">
        <ele>128.45</ele>
        <time>2021-03-26T06:10:59Z</time>
      </trkpt>
      <trkpt lat="49.6269" lon="-1.54874">
        <ele>121.92</ele>
        <time>2021-03-26T06:11:05Z</time>
      </trkpt>
      <trkpt lat="49.62682" lon="-1.54862">
        <ele>121.99</ele>
        <time>2021-03-26T06:11:11Z</time>
      </trkpt>
      <trkpt lat="49.62593" lon="-1.54761">
        <ele>125.49</ele>
        <time>2021-03-26T06:11:17Z</time>
      </trkpt>
      <trkpt lat="49.6255" lon="-1.54715">
        <ele>127.06</ele>
        <time>2021-03-26T06:11:23Z</time>
      </trkpt>
      <trkpt lat="49.62441" lon="-1.54632">
        <ele>127.38</ele>
        <time>2021-03-26T06:11:29Z</time>
      </trkpt>
      <trkpt lat="49.62428" lon="-1.54622">
        <ele>128.2</ele>
        <time>2021-03-26T06:11:36Z</time>
      </trkpt>
      <trkpt lat="49.62378" lon="-1.54573">
        <ele>128.61</ele>
        <time>2021-03-26T06:11:42Z</time>
      </trkpt>
      <trkpt lat="49.62331" lon="-1.54523">
        <ele>130.31</ele>
        <time>2021-03-26T06:11:48Z</time>
      </trkpt>
      <trkpt lat="49.62242" lon="-1.54434">
        <ele>133.3</ele>
        <time>2021-03-26T06:11:54Z</time>
      </trkpt>
      <trkpt lat="49.62228" lon="-1.54416">
        <ele>133.81</ele>
        <time>2021-03-26T06:12:00Z</time>
      </trkpt>
      <trkpt lat="49.62203" lon="-1.5438">
        <ele>134</ele>
        <time>2021-03-26T06:12:06Z</time>
      </trkpt>
      <trkpt lat="49.61917" lon="-1.5377">
        <ele>137.02</ele>
        <time>2021-03-26T06:12:12Z</time>
      </trkpt>
      <trkpt lat="49.61886" lon="-1.53685">
        <ele>136.49</ele>
        <time>2021-03-26T06:12:18Z</time>
      </trkpt>
      <trkpt lat="49.61853" lon="-1.53574">
        <ele>134.24</ele>
        <time>2021-03-26T06:12:24Z</time>
      </trkpt>
      <trkpt lat="49.61814" lon="-1.53404">
        <ele>136.3</ele>
        <time>2021-03-26T06:12:30Z</time>
      </trkpt>
      <trkpt lat="49.6176" lon="-1.5315">
        <ele>135.21</ele>
        <time>2021-03-26T06:12:36Z</time>
      </trkpt>
      <trkpt lat="49.61682" lon="-1.52717">
        <ele>126</ele>
        <time>2021-03-26T06:12:42Z</time>
      </trkpt>
      <trkpt lat="49.61644" lon="-1.52375">
        <ele>123.31</ele>
        <time>2021-03-26T06:12:48Z</time>
      </trkpt>
      <trkpt lat="49.61643" lon="-1.52336">
        <ele>122.85</ele>
        <time>2021-03-26T06:12:54Z</time>
      </trkpt>
      <trkpt lat="49.61646" lon="-1.52248">
        <ele>123.46</ele>
        <time>2021-03-26T06:13:00Z</time>
      </trkpt>
      <trkpt lat="49.61645" lon="-1.5222">
        <ele>123.5</ele>
        <time>2021-03-26T06:13:06Z</time>
      </trkpt>
      <trkpt lat="49.61636" lon="-1.52155">
        <ele>123.06</ele>
        <time>2021-03-26T06:13:12Z</time>
      </trkpt>
      <trkpt lat="49.6163" lon="-1.52129">
        <ele>122.64</ele>
        <time>2021-03-26T06:13:18Z</time>
      </trkpt>
      <trkpt lat="49.61618" lon="-1.52105">
        <ele>121.78</ele>
        <time>2021-03-26T06:13:24Z</time>
      </trkpt>
      <trkpt lat="49.61597" lon="-1.52073">
        <ele>121.52</ele>
        <time>2021-03-26T06:13:30Z</time>
      </trkpt>
      <trkpt lat="49.61582" lon="-1.52043">
        <ele>122.04</ele>
        <time>2021-03-26T06:13:36Z</time>
      </trkpt>
      <trkpt lat="49.61463" lon="-1.51664">
        <ele>118.33</ele>
        <time>2021-03-26T06:13:42Z</time>
      </trkpt>
      <trkpt lat="49.61424" lon="-1.51523">
        <ele>120.82</ele>
        <time>2021-03-26T06:13:48Z</time>
      </trkpt>
      <trkpt lat="49.61395" lon="-1.5145">
        <ele>120.16</ele>
        <time>2021-03-26T06:13:54Z</time>
      </trkpt>
      <trkpt lat="49.61374" lon="-1.51391">
        <ele>120</ele>
        <time>2021-03-26T06:14:00Z</time>
      </trkpt>
      <trkpt lat="49.61355" lon="-1.51332">
        <ele>119.79</ele>
        <time>2021-03-26T06:14:06Z</time>
      </trkpt>
      <trkpt lat="49.61298" lon="-1.51066">
        <ele>113.96</ele>
        <time>2021-03-26T06:14:12Z</time>
      </trkpt>
      <trkpt lat="49.61287" lon="-1.51035">
        <ele>112.39</ele>
        <time>2021-03-26T06:14:18Z</time>
      </trkpt>
      <trkpt lat="49.61143" lon="-1.5073">
        <ele>101.69</ele>
        <time>2021-03-26T06:14:24Z</time>
      </trkpt>
      <trkpt lat="49.61093" lon="-1.50592">
        <ele>96.24</ele>
        <time>2021-03-26T06:14:30Z</time>
      </trkpt>
      <trkpt lat="49.61072" lon="-1.50548">
        <ele>96</ele>
        <time>2021-03-26T06:14:36Z</time>
      </trkpt>
      <trkpt lat="49.61031" lon="-1.50469">
        <ele>93.81</ele>
        <time>2021-03-26T06:14:42Z</time>
      </trkpt>
      <trkpt lat="49.61009" lon="-1.50446">
        <ele>90.47</ele>
        <time>2021-03-26T06:14:48Z</time>
      </trkpt>
      <trkpt lat="49.60992" lon="-1.50433">
        <ele>89.01</ele>
        <time>2021-03-26T06:14:54Z</time>
      </trkpt>
      <trkpt lat="49.60963" lon="-1.50421">
        <ele>88.74</ele>
        <time>2021-03-26T06:15:00Z</time>
      </trkpt>
      <trkpt lat="49.60881" lon="-1.50413">
        <ele>95.27</ele>
        <time>2021-03-26T06:15:06Z</time>
      </trkpt>
      <trkpt lat="49.60864" lon="-1.50408">
        <ele>97.39</ele>
        <time>2021-03-26T06:15:13Z</time>
      </trkpt>
      <trkpt lat="49.60841" lon="-1.50392">
        <ele>100.23</ele>
        <time>2021-03-26T06:15:19Z</time>
      </trkpt>
      <trkpt lat="49.60784" lon="-1.50293">
        <ele>100.49</ele>
        <time>2021-03-26T06:15:25Z</time>
      </trkpt>
      <trkpt lat="49.60743" lon="-1.50227">
        <ele>102.8</ele>
        <time>2021-03-26T06:15:31Z</time>
      </trkpt>
      <trkpt lat="49.60658" lon="-1.50112">
        <ele>107.28</ele>
        <time>2021-03-26T06:15:37Z</time>
      </trkpt>
      <trkpt lat="49.60527" lon="-1.49959">
        <ele>118.6</ele>
        <time>2021-03-26T06:15:43Z</time>
      </trkpt>
      <trkpt lat="49.60438" lon="-1.49869">
        <ele>117.72</ele>
        <time>2021-03-26T06:15:49Z</time>
      </trkpt>
      <trkpt lat="49.6039" lon="-1.49795">
        <ele>114.56</ele>
        <time>2021-03-26T06:15:55Z</time>
      </trkpt>
      <trkpt lat="49.60354" lon="-1.49715">
        <ele>115.99</ele>
        <time>2021-03-26T06:16:01Z</time>
      </trkpt>
      <trkpt lat="49.60318" lon="-1.49644">
        <ele>114.66</ele>
        <time>2021-03-26T06:16:07Z</time>
      </trkpt>
      <trkpt lat="49.60274" lon="-1.49544">
        <ele>111.34</ele>
        <time>2021-03-26T06:16:13Z</time>
      </trkpt>
      <trkpt lat="49.60255" lon="-1.49509">
        <ele>109.36</ele>
        <time>2021-03-26T06:16:19Z</time>
      </trkpt>
      <trkpt lat="49.60238" lon="-1.49471">
        <ele>106.91</ele>
        <time>2021-03-26T06:16:25Z</time>
      </trkpt>
      <trkpt lat="49.60184" lon="-1.49376">
        <ele>100.14</ele>
        <time>2021-03-26T06:16:31Z</time>
      </trkpt>
      <trkpt lat="49.60147" lon="-1.49306">
        <ele>95.29</ele>
        <time>2021-03-26T06:16:37Z</time>
      </trkpt>
      <trkpt lat="49.60116" lon="-1.49229">
        <ele>90.1</ele>
        <time>2021-03-26T06:16:43Z</time>
      </trkpt>
      <trkpt lat="49.60108" lon="-1.49218">
        <ele>89.87</ele>
        <time>2021-03-26T06:16:49Z</time>
      </trkpt>
      <trkpt lat="49.60076" lon="-1.49195">
        <ele>90</ele>
        <time>2021-03-26T06:16:55Z</time>
      </trkpt>
      <trkpt lat="49.59974" lon="-1.49138">
        <ele>95.96</ele>
        <time>2021-03-26T06:17:01Z</time>
      </trkpt>
      <trkpt lat="49.59885" lon="-1.491">
        <ele>99.92</ele>
        <time>2021-03-26T06:17:07Z</time>
      </trkpt>
      <trkpt lat="49.59855" lon="-1.49083">
        <ele>99.55</ele>
        <time>2021-03-26T06:17:13Z</time>
      </trkpt>
      <trkpt lat="49.59833" lon="-1.49063">
        <ele>99.46</ele>
        <time>2021-03-26T06:17:19Z</time>
      </trkpt>
      <trkpt lat="49.59802" lon="-1.49005">
        <ele>98.58</ele>
        <time>2021-03-26T06:17:25Z</time>
      </trkpt>
      <trkpt lat="49.59798" lon="-1.49001">
        <ele>98.18</ele>
        <time>2021-03-26T06:17:31Z</time>
      </trkpt>
      <trkpt lat="49.59793" lon="-1.48999">
        <ele>97.67</ele>
        <time>2021-03-26T06:17:37Z</time>
      </trkpt>
      <trkpt lat="49.59791" lon="-1.48844">
        <ele>101.22</ele>
        <time>2021-03-26T06:17:44Z</time>
      </trkpt>
      <trkpt lat="49.59799" lon="-1.48595">
        <ele>106.54</ele>
        <time>2021-03-26T06:17:52Z</time>
      </trkpt>
      <trkpt lat="49.59805" lon="-1.48523">
        <ele>106.98</ele>
        <time>2021-03-26T06:17:59Z</time>
      </trkpt>
      <trkpt lat="49.59806" lon="-1.48457">
        <ele>106.56</ele>
        <time>2021-03-26T06:18:06Z</time>
      </trkpt>
      <trkpt lat="49.59812" lon="-1.48433">
        <ele>107</ele>
        <time>2021-03-26T06:18:13Z</time>
      </trkpt>
      <trkpt lat="49.59803" lon="-1.48422">
        <ele>106.9</ele>
        <time>2021-03-26T06:18:17Z</time>
      </trkpt>
      <trkpt lat="49.59774" lon="-1.48353">
        <ele>108.39</ele>
        <time>2021-03-26T06:18:21Z</time>
      </trkpt>
      <trkpt lat="49.59763" lon="-1.4833">
        <ele>109.1</ele>
        <time>2021-03-26T06:18:24Z</time>
      </trkpt>
      <trkpt lat="49.5965" lon="-1.48154">
        <ele>112.38</ele>
        <time>2021-03-26T06:18:28Z</time>
      </trkpt>
      <trkpt lat="49.59639" lon="-1.48133">
        <ele>112.21</ele>
        <time>2021-03-26T06:18:31Z</time>
      </trkpt>
      <trkpt lat="49.59634" lon="-1.48103">
        <ele>113.29</ele>
        <time>2021-03-26T06:18:35Z</time>
      </trkpt>
      <trkpt lat="49.59629" lon="-1.48039">
        <ele>115</ele>
        <time>2021-03-26T06:18:38Z</time>
      </trkpt>
      <trkpt lat="49.59623" lon="-1.48004">
        <ele>115.86</ele>
        <time>2021-03-26T06:18:42Z</time>
      </trkpt>
      <trkpt lat="49.59613" lon="-1.4796">
        <ele>116.04</ele>
        <time>2021-03-26T06:18:45Z</time>
      </trkpt>
      <trkpt lat="49.5959" lon="-1.47874">
        <ele>117.54</ele>
        <time>2021-03-26T06:18:49Z</time>
      </trkpt>
      <trkpt lat="49.59563" lon="-1.47791">
        <ele>119.39</ele>
        <time>2021-03-26T06:18:53Z</time>
      </trkpt>
      <trkpt lat="49.59507" lon="-1.47644">
        <ele>121.07</ele>
        <time>2021-03-26T06:18:56Z</time>
      </trkpt>
      <trkpt lat="49.59489" lon="-1.47607">
        <ele>122.65</ele>
        <time>2021-03-26T06:19:00Z</time>
      </trkpt>
      <trkpt lat="49.5946" lon="-1.47542">
        <ele>123</ele>
        <time>2021-03-26T06:19:03Z</time>
      </trkpt>
      <trkpt lat="49.59447" lon="-1.475">
        <ele>123</ele>
        <time>2021-03-26T06:19:07Z</time>
      </trkpt>
      <trkpt lat="49.59439" lon="-1.47468">
        <ele>122.81</ele>
        <time>2021-03-26T06:19:10Z</time>
      </trkpt>
      <trkpt lat="49.59407" lon="-1.47445">
        <ele>121.65</ele>
        <time>2021-03-26T06:19:15Z</time>
      </trkpt>
      <trkpt lat="49.59189" lon="-1.47239">
        <ele>123.21</ele>
        <time>2021-03-26T06:19:19Z</time>
      </trkpt>
      <trkpt lat="49.59079" lon="-1.47147">
        <ele>123.4</ele>
        <time>2021-03-26T06:19:23Z</time>
      </trkpt>
      <trkpt lat="49.59047" lon="-1.47114">
        <ele>124.03</ele>
        <time>2021-03-26T06:19:27Z</time>
      </trkpt>
      <trkpt lat="49.58992" lon="-1.47065">
        <ele>124.28</ele>
        <time>2021-03-26T06:19:31Z</time>
      </trkpt>
      <trkpt lat="49.58969" lon="-1.4705">
        <ele>124.79</ele>
        <time>2021-03-26T06:19:35Z</time>
      </trkpt>
      <trkpt lat="49.58809" lon="-1.46972">
        <ele>125.13</ele>
        <time>2021-03-26T06:19:39Z</time>
      </trkpt>
      <trkpt lat="49.58749" lon="-1.46935">
        <ele>122.96</ele>
        <time>2021-03-26T06:19:43Z</time>
      </trkpt>
      <trkpt lat="49.58711" lon="-1.46916">
        <ele>122</ele>
        <time>2021-03-26T06:19:48Z</time>
      </trkpt>
      <trkpt lat="49.58673" lon="-1.46901">
        <ele>122</ele>
        <time>2021-03-26T06:19:52Z</time>
      </trkpt>
      <trkpt lat="49.58534" lon="-1.46867">
        <ele>121.78</ele>
        <time>2021-03-26T06:19:56Z</time>
      </trkpt>
      <trkpt lat="49.58257" lon="-1.46757">
        <ele>116.92</ele>
        <time>2021-03-26T06:20:00Z</time>
      </trkpt>
      <trkpt lat="49.57988" lon="-1.46675">
        <ele>112.4</ele>
        <time>2021-03-26T06:20:04Z</time>
      </trkpt>
      <trkpt lat="49.57902" lon="-1.46625">
        <ele>113.78</ele>
        <time>2021-03-26T06:20:08Z</time>
      </trkpt>
      <trkpt lat="49.57816" lon="-1.46585">
        <ele>117.57</ele>
        <time>2021-03-26T06:20:12Z</time>
      </trkpt>
      <trkpt lat="49.57677" lon="-1.46513">
        <ele>123.19</ele>
        <time>2021-03-26T06:20:16Z</time>
      </trkpt>
      <trkpt lat="49.57511" lon="-1.46414">
        <ele>118.04</ele>
        <time>2021-03-26T06:20:21Z</time>
      </trkpt>
      <trkpt lat="49.57461" lon="-1.46373">
        <ele>117</ele>
        <time>2021-03-26T06:20:25Z</time>
      </trkpt>
      <trkpt lat="49.57401" lon="-1.46321">
        <ele>115.88</ele>
        <time>2021-03-26T06:20:29Z</time>
      </trkpt>
      <trkpt lat="49.57321" lon="-1.46274">
        <ele>114.54</ele>
        <time>2021-03-26T06:20:33Z</time>
      </trkpt>
      <trkpt lat="49.57295" lon="-1.46253">
        <ele>115</ele>
        <time>2021-03-26T06:20:37Z</time>
      </trkpt>
      <trkpt lat="49.57283" lon="-1.46241">
        <ele>115.06</ele>
        <time>2021-03-26T06:20:41Z</time>
      </trkpt>
      <trkpt lat="49.5726" lon="-1.46211">
        <ele>114.77</ele>
        <time>2021-03-26T06:20:45Z</time>
      </trkpt>
      <trkpt lat="49.57135" lon="-1.46025">
        <ele>100.61</ele>
        <time>2021-03-26T06:20:50Z</time>
      </trkpt>
      <trkpt lat="49.57085" lon="-1.45959">
        <ele>93.61</ele>
        <time>2021-03-26T06:20:54Z</time>
      </trkpt>
      <trkpt lat="49.57049" lon="-1.4593">
        <ele>91.65</ele>
        <time>2021-03-26T06:20:58Z</time>
      </trkpt>
      <trkpt lat="49.57006" lon="-1.45904">
        <ele>90.67</ele>
        <time>2021-03-26T06:21:02Z</time>
      </trkpt>
      <trkpt lat="49.56934" lon="-1.45855">
        <ele>91.94</ele>
        <time>2021-03-26T06:21:06Z</time>
      </trkpt>
      <trkpt lat="49.56884" lon="-1.4583">
        <ele>97.64</ele>
        <time>2021-03-26T06:21:10Z</time>
      </trkpt>
      <trkpt lat="49.56835" lon="-1.45811">
        <ele>101.86</ele>
        <time>2021-03-26T06:21:14Z</time>
      </trkpt>
      <trkpt lat="49.5681" lon="-1.45808">
        <ele>102.06</ele>
        <time>2021-03-26T06:21:18Z</time>
      </trkpt>
      <trkpt lat="49.56747" lon="-1.45807">
        <ele>105.16</ele>
        <time>2021-03-26T06:21:23Z</time>
      </trkpt>
      <trkpt lat="49.56712" lon="-1.45812">
        <ele>106.15</ele>
        <time>2021-03-26T06:21:27Z</time>
      </trkpt>
      <trkpt lat="49.5663" lon="-1.45832">
        <ele>107.91</ele>
        <time>2021-03-26T06:21:31Z</time>
      </trkpt>
      <trkpt lat="49.56561" lon="-1.45854">
        <ele>112.95</ele>
        <time>2021-03-26T06:21:35Z</time>
      </trkpt>
      <trkpt lat="49.5653" lon="-1.4587">
        <ele>113.93</ele>
        <time>2021-03-26T06:21:39Z</time>
      </trkpt>
      <trkpt lat="49.56479" lon="-1.45904">
        <ele>114.55</ele>
        <time>2021-03-26T06:21:43Z</time>
      </trkpt>
      <trkpt lat="49.56431" lon="-1.45933">
        <ele>117.88</ele>
        <time>2021-03-26T06:21:47Z</time>
      </trkpt>
      <trkpt lat="49.56394" lon="-1.45942">
        <ele>119.72</ele>
        <time>2021-03-26T06:21:52Z</time>
      </trkpt>
      <trkpt lat="49.56363" lon="-1.45946">
        <ele>121</ele>
        <time>2021-03-26T06:21:56Z</time>
      </trkpt>
      <trkpt lat="49.56288" lon="-1.45936">
        <ele>123.62</ele>
        <time>2021-03-26T06:22:00Z</time>
      </trkpt>
      <trkpt lat="49.56236" lon="-1.4595">
        <ele>125.49</ele>
        <time>2021-03-26T06:22:04Z</time>
      </trkpt>
      <trkpt lat="49.5611" lon="-1.46018">
        <ele>121.36</ele>
        <time>2021-03-26T06:22:08Z</time>
      </trkpt>
      <trkpt lat="49.56011" lon="-1.4608">
        <ele>120.11</ele>
        <time>2021-03-26T06:22:12Z</time>
      </trkpt>
      <trkpt lat="49.55776" lon="-1.46245">
        <ele>117.25</ele>
        <time>2021-03-26T06:22:16Z</time>
      </trkpt>
      <trkpt lat="49.55667" lon="-1.46309">
        <ele>115</ele>
        <time>2021-03-26T06:22:20Z</time>
      </trkpt>
      <trkpt lat="49.55591" lon="-1.46341">
        <ele>116.29</ele>
        <time>2021-03-26T06:22:25Z</time>
      </trkpt>
      <trkpt lat="49.55378" lon="-1.46375">
        <ele>115.39</ele>
        <time>2021-03-26T06:22:29Z</time>
      </trkpt>
      <trkpt lat="49.5536" lon="-1.4638">
        <ele>114.27</ele>
        <time>2021-03-26T06:22:33Z</time>
      </trkpt>
      <trkpt lat="49.55348" lon="-1.46357">
        <ele>114.52</ele>
        <time>2021-03-26T06:22:39Z</time>
      </trkpt>
      <trkpt lat="49.55297" lon="-1.46299">
        <ele>112.68</ele>
        <time>2021-03-26T06:22:45Z</time>
      </trkpt>
      <trkpt lat="49.55249" lon="-1.4624">
        <ele>111.5</ele>
        <time>2021-03-26T06:22:51Z</time>
      </trkpt>
      <trkpt lat="49.55208" lon="-1.46182">
        <ele>108.18</ele>
        <time>2021-03-26T06:22:57Z</time>
      </trkpt>
      <trkpt lat="49.5511" lon="-1.46079">
        <ele>103.98</ele>
        <time>2021-03-26T06:23:03Z</time>
      </trkpt>
      <trkpt lat="49.55068" lon="-1.46046">
        <ele>103.29</ele>
        <time>2021-03-26T06:23:09Z</time>
      </trkpt>
      <trkpt lat="49.55048" lon="-1.46036">
        <ele>103</ele>
        <time>2021-03-26T06:23:16Z</time>
      </trkpt>
      <trkpt lat="49.54939" lon="-1.46003">
        <ele>99.8</ele>
        <time>2021-03-26T06:23:22Z</time>
      </trkpt>
      <trkpt lat="49.54859" lon="-1.46033">
        <ele>98.89</ele>
        <time>2021-03-26T06:23:28Z</time>
      </trkpt>
      <trkpt lat="49.5483" lon="-1.46039">
        <ele>97.53</ele>
        <time>2021-03-26T06:23:34Z</time>
      </trkpt>
      <trkpt lat="49.54674" lon="-1.45954">
        <ele>93</ele>
        <time>2021-03-26T06:23:40Z</time>
      </trkpt>
      <trkpt lat="49.54455" lon="-1.45844">
        <ele>90.24</ele>
        <time>2021-03-26T06:23:46Z</time>
      </trkpt>
      <trkpt lat="49.54345" lon="-1.45825">
        <ele>87.68</ele>
        <time>2021-03-26T06:23:52Z</time>
      </trkpt>
      <trkpt lat="49.54177" lon="-1.45749">
        <ele>82.05</ele>
        <time>2021-03-26T06:23:58Z</time>
      </trkpt>
      <trkpt lat="49.54164" lon="-1.4572">
        <ele>79.93</ele>
        <time>2021-03-26T06:24:04Z</time>
      </trkpt>
      <trkpt lat="49.54082" lon="-1.45477">
        <ele>78.22</ele>
        <time>2021-03-26T06:24:11Z</time>
      </trkpt>
      <trkpt lat="49.54043" lon="-1.45386">
        <ele>77.9</ele>
        <time>2021-03-26T06:24:17Z</time>
      </trkpt>
      <trkpt lat="49.53979" lon="-1.45264">
        <ele>78.37</ele>
        <time>2021-03-26T06:24:23Z</time>
      </trkpt>
      <trkpt lat="49.53963" lon="-1.45228">
        <ele>78.07</ele>
        <time>2021-03-26T06:24:29Z</time>
      </trkpt>
      <trkpt lat="49.53903" lon="-1.45116">
        <ele>77.09</ele>
        <time>2021-03-26T06:24:35Z</time>
      </trkpt>
      <trkpt lat="49.5384" lon="-1.44985">
        <ele>74.76</ele>
        <time>2021-03-26T06:24:41Z</time>
      </trkpt>
      <trkpt lat="49.53837" lon="-1.44963">
        <ele>74.9</ele>
        <time>2021-03-26T06:24:47Z</time>
      </trkpt>
      <trkpt lat="49.53804" lon="-1.44877">
        <ele>73.65</ele>
        <time>2021-03-26T06:24:53Z</time>
      </trkpt>
      <trkpt lat="49.53772" lon="-1.44816">
        <ele>72.96</ele>
        <time>2021-03-26T06:24:59Z</time>
      </trkpt>
      <trkpt lat="49.5375" lon="-1.44788">
        <ele>72.38</ele>
        <time>2021-03-26T06:25:06Z</time>
      </trkpt>
      <trkpt lat="49.53724" lon="-1.4476">
        <ele>73.29</ele>
        <time>2021-03-26T06:25:12Z</time>
      </trkpt>
      <trkpt lat="49.53685" lon="-1.4472">
        <ele>72.92</ele>
        <time>2021-03-26T06:25:18Z</time>
      </trkpt>
      <trkpt lat="49.53637" lon="-1.44675">
        <ele>73</ele>
        <time>2021-03-26T06:25:24Z</time>
      </trkpt>
      <trkpt lat="49.53527" lon="-1.44552">
        <ele>69.85</ele>
        <time>2021-03-26T06:25:30Z</time>
      </trkpt>
      <trkpt lat="49.53477" lon="-1.44486">
        <ele>67.88</ele>
        <time>2021-03-26T06:25:36Z</time>
      </trkpt>
      <trkpt lat="49.53469" lon="-1.44495">
        <ele>68.52</ele>
        <time>2021-03-26T06:25:37Z</time>
      </trkpt>
      <trkpt lat="49.53417" lon="-1.4443">
        <ele>66</ele>
        <time>2021-03-26T06:25:41Z</time>
      </trkpt>
      <trkpt lat="49.53404" lon="-1.44409">
        <ele>65.43</ele>
        <time>2021-03-26T06:25:45Z</time>
      </trkpt>
      <trkpt lat="49.53392" lon="-1.44376">
        <ele>64.19</ele>
        <time>2021-03-26T06:25:50Z</time>
      </trkpt>
      <trkpt lat="49.53368" lon="-1.44248">
        <ele>63.23</ele>
        <time>2021-03-26T06:25:54Z</time>
      </trkpt>
      <trkpt lat="49.53349" lon="-1.44173">
        <ele>62.16</ele>
        <time>2021-03-26T06:25:58Z</time>
      </trkpt>
      <trkpt lat="49.53328" lon="-1.44057">
        <ele>61.81</ele>
        <time>2021-03-26T06:26:03Z</time>
      </trkpt>
      <trkpt lat="49.53306" lon="-1.43985">
        <ele>62.01</ele>
        <time>2021-03-26T06:26:07Z</time>
      </trkpt>
      <trkpt lat="49.53293" lon="-1.43956">
        <ele>61.69</ele>
        <time>2021-03-26T06:26:12Z</time>
      </trkpt>
      <trkpt lat="49.53245" lon="-1.4387">
        <ele>60.32</ele>
        <time>2021-03-26T06:26:16Z</time>
      </trkpt>
      <trkpt lat="49.53174" lon="-1.4378">
        <ele>54.29</ele>
        <time>2021-03-26T06:26:20Z</time>
      </trkpt>
      <trkpt lat="49.53114" lon="-1.43709">
        <ele>51.14</ele>
        <time>2021-03-26T06:26:25Z</time>
      </trkpt>
      <trkpt lat="49.53095" lon="-1.43679">
        <ele>50.75</ele>
        <time>2021-03-26T06:26:29Z</time>
      </trkpt>
      <trkpt lat="49.53062" lon="-1.43608">
        <ele>52.78</ele>
        <time>2021-03-26T06:26:33Z</time>
      </trkpt>
      <trkpt lat="49.53037" lon="-1.43568">
        <ele>52.26</ele>
        <time>2021-03-26T06:26:38Z</time>
      </trkpt>
      <trkpt lat="49.52984" lon="-1.43497">
        <ele>50.52</ele>
        <time>2021-03-26T06:26:42Z</time>
      </trkpt>
      <trkpt lat="49.52974" lon="-1.43476">
        <ele>50.14</ele>
        <time>2021-03-26T06:26:47Z</time>
      </trkpt>
      <trkpt lat="49.52967" lon="-1.43451">
        <ele>50.19</ele>
        <time>2021-03-26T06:26:51Z</time>
      </trkpt>
      <trkpt lat="49.52962" lon="-1.43378">
        <ele>51.62</ele>
        <time>2021-03-26T06:26:55Z</time>
      </trkpt>
      <trkpt lat="49.52954" lon="-1.43318">
        <ele>51.36</ele>
        <time>2021-03-26T06:27:00Z</time>
      </trkpt>
      <trkpt lat="49.52931" lon="-1.43173">
        <ele>49</ele>
        <time>2021-03-26T06:27:04Z</time>
      </trkpt>
      <trkpt lat="49.52888" lon="-1.43012">
        <ele>49.04</ele>
        <time>2021-03-26T06:27:08Z</time>
      </trkpt>
      <trkpt lat="49.52871" lon="-1.42937">
        <ele>50.36</ele>
        <time>2021-03-26T06:27:13Z</time>
      </trkpt>
      <trkpt lat="49.52862" lon="-1.42877">
        <ele>48.97</ele>
        <time>2021-03-26T06:27:17Z</time>
      </trkpt>
      <trkpt lat="49.52856" lon="-1.42849">
        <ele>49.26</ele>
        <time>2021-03-26T06:27:22Z</time>
      </trkpt>
      <trkpt lat="49.52857" lon="-1.42839">
        <ele>49.25</ele>
        <time>2021-03-26T06:27:26Z</time>
      </trkpt>
      <trkpt lat="49.52891" lon="-1.42819">
        <ele>47.85</ele>
        <time>2021-03-26T06:27:30Z</time>
      </trkpt>
      <trkpt lat="49.52943" lon="-1.42807">
        <ele>45.06</ele>
        <time>2021-03-26T06:27:35Z</time>
      </trkpt>
      <trkpt lat="49.52988" lon="-1.42811">
        <ele>44</ele>
        <time>2021-03-26T06:27:39Z</time>
      </trkpt>
      <trkpt lat="49.53006" lon="-1.42805">
        <ele>44.22</ele>
        <time>2021-03-26T06:27:43Z</time>
      </trkpt>
      <trkpt lat="49.53027" lon="-1.42783">
        <ele>44.95</ele>
        <time>2021-03-26T06:27:48Z</time>
      </trkpt>
      <trkpt lat="49.53092" lon="-1.42706">
        <ele>48.43</ele>
        <time>2021-03-26T06:27:52Z</time>
      </trkpt>
      <trkpt lat="49.5311" lon="-1.4267">
        <ele>48.9</ele>
        <time>2021-03-26T06:27:57Z</time>
      </trkpt>
      <trkpt lat="49.53124" lon="-1.42633">
        <ele>49.48</ele>
        <time>2021-03-26T06:28:01Z</time>
      </trkpt>
      <trkpt lat="49.53165" lon="-1.42549">
        <ele>50.93</ele>
        <time>2021-03-26T06:28:05Z</time>
      </trkpt>
      <trkpt lat="49.53174" lon="-1.42517">
        <ele>50.81</ele>
        <time>2021-03-26T06:28:10Z</time>
      </trkpt>
      <trkpt lat="49.53173" lon="-1.42475">
        <ele>50.24</ele>
        <time>2021-03-26T06:28:14Z</time>
      </trkpt>
      <trkpt lat="49.5315" lon="-1.4213">
        <ele>47.6</ele>
        <time>2021-03-26T06:28:18Z</time>
      </trkpt>
      <trkpt lat="49.53152" lon="-1.42089">
        <ele>48.38</ele>
        <time>2021-03-26T06:28:23Z</time>
      </trkpt>
      <trkpt lat="49.53144" lon="-1.41864">
        <ele>41</ele>
        <time>2021-03-26T06:28:27Z</time>
      </trkpt>
      <trkpt lat="49.53138" lon="-1.41759">
        <ele>42</ele>
        <time>2021-03-26T06:28:32Z</time>
      </trkpt>
      <trkpt lat="49.53121" lon="-1.41679">
        <ele>41</ele>
        <time>2021-03-26T06:28:36Z</time>
      </trkpt>
      <trkpt lat="49.53099" lon="-1.41523">
        <ele>38.47</ele>
        <time>2021-03-26T06:28:40Z</time>
      </trkpt>
      <trkpt lat="49.53093" lon="-1.4144">
        <ele>38.72</ele>
        <time>2021-03-26T06:28:45Z</time>
      </trkpt>
      <trkpt lat="49.53089" lon="-1.41345">
        <ele>38.88</ele>
        <time>2021-03-26T06:28:49Z</time>
      </trkpt>
      <trkpt lat="49.5309" lon="-1.41261">
        <ele>39</ele>
        <time>2021-03-26T06:28:53Z</time>
      </trkpt>
      <trkpt lat="49.53101" lon="-1.41222">
        <ele>38.63</ele>
        <time>2021-03-26T06:28:58Z</time>
      </trkpt>
      <trkpt lat="49.53123" lon="-1.41127">
        <ele>38</ele>
        <time>2021-03-26T06:29:02Z</time>
      </trkpt>
      <trkpt lat="49.5314" lon="-1.41024">
        <ele>38.14</ele>
        <time>2021-03-26T06:29:07Z</time>
      </trkpt>
      <trkpt lat="49.53155" lon="-1.40904">
        <ele>39</ele>
        <time>2021-03-26T06:29:11Z</time>
      </trkpt>
      <trkpt lat="49.53198" lon="-1.40701">
        <ele>37</ele>
        <time>2021-03-26T06:29:15Z</time>
      </trkpt>
      <trkpt lat="49.53216" lon="-1.40651">
        <ele>37.12</ele>
        <time>2021-03-26T06:29:20Z</time>
      </trkpt>
      <trkpt lat="49.53215" lon="-1.40639">
        <ele>37.25</ele>
        <time>2021-03-26T06:29:24Z</time>
      </trkpt>
      <trkpt lat="49.53169" lon="-1.40532">
        <ele>37.82</ele>
        <time>2021-03-26T06:29:28Z</time>
      </trkpt>
      <trkpt lat="49.53121" lon="-1.40525">
        <ele>36.34</ele>
        <time>2021-03-26T06:29:36Z</time>
      </trkpt>
      <trkpt lat="49.52983" lon="-1.40493">
        <ele>34.09</ele>
        <time>2021-03-26T06:29:45Z</time>
      </trkpt>
      <trkpt lat="49.52606" lon="-1.40385">
        <ele>44</ele>
        <time>2021-03-26T06:29:53Z</time>
      </trkpt>
      <trkpt lat="49.52419" lon="-1.40339">
        <ele>42.09</ele>
        <time>2021-03-26T06:30:01Z</time>
      </trkpt>
      <trkpt lat="49.52409" lon="-1.40332">
        <ele>41.41</ele>
        <time>2021-03-26T06:30:09Z</time>
      </trkpt>
      <trkpt lat="49.52407" lon="-1.4032">
        <ele>41</ele>
        <time>2021-03-26T06:30:17Z</time>
      </trkpt>
      <trkpt lat="49.52408" lon="-1.40298">
        <ele>40.58</ele>
        <time>2021-03-26T06:30:25Z</time>
      </trkpt>
      <trkpt lat="49.52415" lon="-1.40229">
        <ele>40.86</ele>
        <time>2021-03-26T06:30:33Z</time>
      </trkpt>
      <trkpt lat="49.52363" lon="-1.40287">
        <ele>37.14</ele>
        <time>2021-03-26T06:30:37Z</time>
      </trkpt>
      <trkpt lat="49.52344" lon="-1.40329">
        <ele>36.38</ele>
        <time>2021-03-26T06:30:40Z</time>
      </trkpt>
      <trkpt lat="49.52311" lon="-1.40333">
        <ele>36</ele>
        <time>2021-03-26T06:30:46Z</time>
      </trkpt>
      <trkpt lat="49.52283" lon="-1.40309">
        <ele>36</ele>
        <time>2021-03-26T06:30:52Z</time>
      </trkpt>
      <trkpt lat="49.52204" lon="-1.40272">
        <ele>34.33</ele>
        <time>2021-03-26T06:30:57Z</time>
      </trkpt>
      <trkpt lat="49.52173" lon="-1.40221">
        <ele>34</ele>
        <time>2021-03-26T06:31:03Z</time>
      </trkpt>
      <trkpt lat="49.52142" lon="-1.40061">
        <ele>35.92</ele>
        <time>2021-03-26T06:31:09Z</time>
      </trkpt>
      <trkpt lat="49.52118" lon="-1.39998">
        <ele>37</ele>
        <time>2021-03-26T06:31:14Z</time>
      </trkpt>
      <trkpt lat="49.52084" lon="-1.39926">
        <ele>37</ele>
        <time>2021-03-26T06:31:20Z</time>
      </trkpt>
      <trkpt lat="49.52027" lon="-1.39865">
        <ele>36.84</ele>
        <time>2021-03-26T06:31:25Z</time>
      </trkpt>
      <trkpt lat="49.5197" lon="-1.39831">
        <ele>34.93</ele>
        <time>2021-03-26T06:31:31Z</time>
      </trkpt>
      <trkpt lat="49.51939" lon="-1.39784">
        <ele>35</ele>
        <time>2021-03-26T06:31:37Z</time>
      </trkpt>
      <trkpt lat="49.5188" lon="-1.39736">
        <ele>34.51</ele>
        <time>2021-03-26T06:31:42Z</time>
      </trkpt>
      <trkpt lat="49.51824" lon="-1.39687">
        <ele>33.18</ele>
        <time>2021-03-26T06:31:48Z</time>
      </trkpt>
      <trkpt lat="49.51795" lon="-1.39682">
        <ele>34.21</ele>
        <time>2021-03-26T06:31:54Z</time>
      </trkpt>
      <trkpt lat="49.51717" lon="-1.39697">
        <ele>34.19</ele>
        <time>2021-03-26T06:31:59Z</time>
      </trkpt>
      <trkpt lat="49.51663" lon="-1.39688">
        <ele>38.17</ele>
        <time>2021-03-26T06:32:05Z</time>
      </trkpt>
      <trkpt lat="49.51618" lon="-1.39647">
        <ele>43.02</ele>
        <time>2021-03-26T06:32:11Z</time>
      </trkpt>
      <trkpt lat="49.51568" lon="-1.3961">
        <ele>47.09</ele>
        <time>2021-03-26T06:32:16Z</time>
      </trkpt>
      <trkpt lat="49.51521" lon="-1.39578">
        <ele>48.86</ele>
        <time>2021-03-26T06:32:22Z</time>
      </trkpt>
      <trkpt lat="49.51415" lon="-1.39522">
        <ele>51.08</ele>
        <time>2021-03-26T06:32:27Z</time>
      </trkpt>
      <trkpt lat="49.51372" lon="-1.39495">
        <ele>53.62</ele>
        <time>2021-03-26T06:32:33Z</time>
      </trkpt>
      <trkpt lat="49.51319" lon="-1.39482">
        <ele>54.5</ele>
        <time>2021-03-26T06:32:39Z</time>
      </trkpt>
      <trkpt lat="49.5126" lon="-1.39458">
        <ele>55.18</ele>
        <time>2021-03-26T06:32:44Z</time>
      </trkpt>
      <trkpt lat="49.51105" lon="-1.39368">
        <ele>65.63</ele>
        <time>2021-03-26T06:32:50Z</time>
      </trkpt>
      <trkpt lat="49.50913" lon="-1.39273">
        <ele>80.88</ele>
        <time>2021-03-26T06:32:56Z</time>
      </trkpt>
      <trkpt lat="49.50752" lon="-1.39172">
        <ele>82.93</ele>
        <time>2021-03-26T06:33:01Z</time>
      </trkpt>
      <trkpt lat="49.50576" lon="-1.39071">
        <ele>90.82</ele>
        <time>2021-03-26T06:33:07Z</time>
      </trkpt>
      <trkpt lat="49.50453" lon="-1.38994">
        <ele>95.55</ele>
        <time>2021-03-26T06:33:13Z</time>
      </trkpt>
      <trkpt lat="49.50387" lon="-1.38933">
        <ele>94.54</ele>
        <time>2021-03-26T06:33:18Z</time>
      </trkpt>
      <trkpt lat="49.50234" lon="-1.38768">
        <ele>98.78</ele>
        <time>2021-03-26T06:33:24Z</time>
      </trkpt>
      <trkpt lat="49.50193" lon="-1.38727">
        <ele>100.01</ele>
        <time>2021-03-26T06:33:29Z</time>
      </trkpt>
      <trkpt lat="49.50147" lon="-1.38648">
        <ele>97.54</ele>
        <time>2021-03-26T06:33:35Z</time>
      </trkpt>
      <trkpt lat="49.50088" lon="-1.38575">
        <ele>92.18</ele>
        <time>2021-03-26T06:33:41Z</time>
      </trkpt>
      <trkpt lat="49.50026" lon="-1.38538">
        <ele>85.54</ele>
        <time>2021-03-26T06:33:46Z</time>
      </trkpt>
      <trkpt lat="49.49975" lon="-1.38512">
        <ele>79.6</ele>
        <time>2021-03-26T06:33:52Z</time>
      </trkpt>
      <trkpt lat="49.49947" lon="-1.3846">
        <ele>74.29</ele>
        <time>2021-03-26T06:33:58Z</time>
      </trkpt>
      <trkpt lat="49.49896" lon="-1.38399">
        <ele>69.62</ele>
        <time>2021-03-26T06:34:03Z</time>
      </trkpt>
      <trkpt lat="49.49849" lon="-1.3836">
        <ele>64.04</ele>
        <time>2021-03-26T06:34:09Z</time>
      </trkpt>
      <trkpt lat="49.49789" lon="-1.38348">
        <ele>57.69</ele>
        <time>2021-03-26T06:34:15Z</time>
      </trkpt>
      <trkpt lat="49.49751" lon="-1.38311">
        <ele>53.04</ele>
        <time>2021-03-26T06:34:20Z</time>
      </trkpt>
      <trkpt lat="49.49699" lon="-1.38203">
        <ele>49.17</ele>
        <time>2021-03-26T06:34:26Z</time>
      </trkpt>
      <trkpt lat="49.49672" lon="-1.3814">
        <ele>46.62</ele>
        <time>2021-03-26T06:34:31Z</time>
      </trkpt>
      <trkpt lat="49.49641" lon="-1.38081">
        <ele>42.16</ele>
        <time>2021-03-26T06:34:37Z</time>
      </trkpt>
      <trkpt lat="49.49617" lon="-1.38022">
        <ele>43.42</ele>
        <time>2021-03-26T06:34:43Z</time>
      </trkpt>
      <trkpt lat="49.49621" lon="-1.37967">
        <ele>44.17</ele>
        <time>2021-03-26T06:34:48Z</time>
      </trkpt>
      <trkpt lat="49.49626" lon="-1.37933">
        <ele>43.12</ele>
        <time>2021-03-26T06:34:54Z</time>
      </trkpt>
      <trkpt lat="49.49608" lon="-1.37894">
        <ele>41.02</ele>
        <time>2021-03-26T06:34:59Z</time>
      </trkpt>
      <trkpt lat="49.49564" lon="-1.37865">
        <ele>39.12</ele>
        <time>2021-03-26T06:35:04Z</time>
      </trkpt>
      <trkpt lat="49.49478" lon="-1.37811">
        <ele>39.15</ele>
        <time>2021-03-26T06:35:09Z</time>
      </trkpt>
      <trkpt lat="49.49398" lon="-1.37735">
        <ele>37.81</ele>
        <time>2021-03-26T06:35:14Z</time>
      </trkpt>
      <trkpt lat="49.49341" lon="-1.37676">
        <ele>39.1</ele>
        <time>2021-03-26T06:35:19Z</time>
      </trkpt>
      <trkpt lat="49.49258" lon="-1.37617">
        <ele>38</ele>
        <time>2021-03-26T06:35:24Z</time>
      </trkpt>
      <trkpt lat="49.49216" lon="-1.37567">
        <ele>38.22</ele>
        <time>2021-03-26T06:35:29Z</time>
      </trkpt>
      <trkpt lat="49.49185" lon="-1.37518">
        <ele>38.65</ele>
        <time>2021-03-26T06:35:34Z</time>
      </trkpt>
      <trkpt lat="49.49138" lon="-1.37591">
        <ele>38.98</ele>
        <time>2021-03-26T06:35:39Z</time>
      </trkpt>
      <trkpt lat="49.4912" lon="-1.37606">
        <ele>38.88</ele>
        <time>2021-03-26T06:35:45Z</time>
      </trkpt>
      <trkpt lat="49.49113" lon="-1.37609">
        <ele>38.92</ele>
        <time>2021-03-26T06:35:50Z</time>
      </trkpt>
      <trkpt lat="49.49077" lon="-1.37605">
        <ele>37.95</ele>
        <time>2021-03-26T06:35:55Z</time>
      </trkpt>
      <trkpt lat="49.49051" lon="-1.37597">
        <ele>37.5</ele>
        <time>2021-03-26T06:36:00Z</time>
      </trkpt>
      <trkpt lat="49.49017" lon="-1.37579">
        <ele>37</ele>
        <time>2021-03-26T06:36:05Z</time>
      </trkpt>
      <trkpt lat="49.49003" lon="-1.37575">
        <ele>37</ele>
        <time>2021-03-26T06:36:11Z</time>
      </trkpt>
      <trkpt lat="49.48843" lon="-1.37583">
        <ele>36.35</ele>
        <time>2021-03-26T06:36:16Z</time>
      </trkpt>
      <trkpt lat="49.4873" lon="-1.37634">
        <ele>34.47</ele>
        <time>2021-03-26T06:36:21Z</time>
      </trkpt>
      <trkpt lat="49.48701" lon="-1.37654">
        <ele>34.69</ele>
        <time>2021-03-26T06:36:26Z</time>
      </trkpt>
      <trkpt lat="49.48644" lon="-1.37714">
        <ele>34.87</ele>
        <time>2021-03-26T06:36:32Z</time>
      </trkpt>
      <trkpt lat="49.48623" lon="-1.37741">
        <ele>35.3</ele>
        <time>2021-03-26T06:36:37Z</time>
      </trkpt>
      <trkpt lat="49.48593" lon="-1.37706">
        <ele>32.83</ele>
        <time>2021-03-26T06:36:47Z</time>
      </trkpt>
      <trkpt lat="49.48259" lon="-1.37454">
        <ele>24.66</ele>
        <time>2021-03-26T06:36:57Z</time>
      </trkpt>
      <trkpt lat="49.47769" lon="-1.3708">
        <ele>27.74</ele>
        <time>2021-03-26T06:37:08Z</time>
      </trkpt>
      <trkpt lat="49.4756" lon="-1.36914">
        <ele>24.91</ele>
        <time>2021-03-26T06:37:18Z</time>
      </trkpt>
      <trkpt lat="49.47428" lon="-1.36814">
        <ele>22.41</ele>
        <time>2021-03-26T06:37:28Z</time>
      </trkpt>
      <trkpt lat="49.4732" lon="-1.36699">
        <ele>21.08</ele>
        <time>2021-03-26T06:37:38Z</time>
      </trkpt>
      <trkpt lat="49.47279" lon="-1.36659">
        <ele>21</ele>
        <time>2021-03-26T06:37:49Z</time>
      </trkpt>
      <trkpt lat="49.47206" lon="-1.36602">
        <ele>20.14</ele>
        <time>2021-03-26T06:37:59Z</time>
      </trkpt>
      <trkpt lat="49.47021" lon="-1.36453">
        <ele>15.78</ele>
        <time>2021-03-26T06:38:09Z</time>
      </trkpt>
      <trkpt lat="49.46732" lon="-1.3623">
        <ele>11.1</ele>
        <time>2021-03-26T06:38:20Z</time>
      </trkpt>
      <trkpt lat="49.46652" lon="-1.36154">
        <ele>11.26</ele>
        <time>2021-03-26T06:38:30Z</time>
      </trkpt>
      <trkpt lat="49.46605" lon="-1.361">
        <ele>12.41</ele>
        <time>2021-03-26T06:38:40Z</time>
      </trkpt>
      <trkpt lat="49.46519" lon="-1.35986">
        <ele>16.49</ele>
        <time>2021-03-26T06:38:50Z</time>
      </trkpt>
      <trkpt lat="49.46508" lon="-1.35985">
        <ele>16.53</ele>
        <time>2021-03-26T06:38:51Z</time>
      </trkpt>
      <trkpt lat="49.46499" lon="-1.35993">
        <ele>16.28</ele>
        <time>2021-03-26T06:38:53Z</time>
      </trkpt>
      <trkpt lat="49.46472" lon="-1.36047">
        <ele>16</ele>
        <time>2021-03-26T06:38:54Z</time>
      </trkpt>
      <trkpt lat="49.46452" lon="-1.36083">
        <ele>17.73</ele>
        <time>2021-03-26T06:38:55Z</time>
      </trkpt>
      <trkpt lat="49.46419" lon="-1.36024">
        <ele>17.9</ele>
        <time>2021-03-26T06:38:59Z</time>
      </trkpt>
      <trkpt lat="49.464" lon="-1.35997">
        <ele>16.81</ele>
        <time>2021-03-26T06:39:02Z</time>
      </trkpt>
      <trkpt lat="49.46384" lon="-1.35983">
        <ele>15.83</ele>
        <time>2021-03-26T06:39:06Z</time>
      </trkpt>
      <trkpt lat="49.46365" lon="-1.35972">
        <ele>15.13</ele>
        <time>2021-03-26T06:39:10Z</time>
      </trkpt>
      <trkpt lat="49.46329" lon="-1.35961">
        <ele>15.14</ele>
        <time>2021-03-26T06:39:13Z</time>
      </trkpt>
      <trkpt lat="49.46298" lon="-1.35947">
        <ele>16.25</ele>
        <time>2021-03-26T06:39:17Z</time>
      </trkpt>
      <trkpt lat="49.46253" lon="-1.35915">
        <ele>16</ele>
        <time>2021-03-26T06:39:21Z</time>
      </trkpt>
      <trkpt lat="49.46084" lon="-1.35784">
        <ele>16</ele>
        <time>2021-03-26T06:39:25Z</time>
      </trkpt>
      <trkpt lat="49.46068" lon="-1.35765">
        <ele>16.56</ele>
        <time>2021-03-26T06:39:28Z</time>
      </trkpt>
      <trkpt lat="49.46033" lon="-1.35727">
        <ele>17</ele>
        <time>2021-03-26T06:39:37Z</time>
      </trkpt>
      <trkpt lat="49.46016" lon="-1.35712">
        <ele>17.57</ele>
        <time>2021-03-26T06:39:46Z</time>
      </trkpt>
      <trkpt lat="49.45963" lon="-1.35679">
        <ele>19.19</ele>
        <time>2021-03-26T06:39:55Z</time>
      </trkpt>
      <trkpt lat="49.4591" lon="-1.35652">
        <ele>20.14</ele>
        <time>2021-03-26T06:40:04Z</time>
      </trkpt>
      <trkpt lat="49.4586" lon="-1.35621">
        <ele>21.71</ele>
        <time>2021-03-26T06:40:13Z</time>
      </trkpt>
      <trkpt lat="49.45776" lon="-1.35562">
        <ele>24.06</ele>
        <time>2021-03-26T06:40:21Z</time>
      </trkpt>
      <trkpt lat="49.44903" lon="-1.34891">
        <ele>13.49</ele>
        <time>2021-03-26T06:40:30Z</time>
      </trkpt>
      <trkpt lat="49.4275" lon="-1.33242">
        <ele>11.27</ele>
        <time>2021-03-26T06:40:39Z</time>
      </trkpt>
      <trkpt lat="49.42639" lon="-1.3315">
        <ele>12.39</ele>
        <time>2021-03-26T06:40:48Z</time>
      </trkpt>
      <trkpt lat="49.42426" lon="-1.32976">
        <ele>15.1</ele>
        <time>2021-03-26T06:40:57Z</time>
      </trkpt>
      <trkpt lat="49.41542" lon="-1.32299">
        <ele>17.25</ele>
        <time>2021-03-26T06:41:06Z</time>
      </trkpt>
      <trkpt lat="49.4148" lon="-1.32262">
        <ele>19.01</ele>
        <time>2021-03-26T06:41:14Z</time>
      </trkpt>
      <trkpt lat="49.41416" lon="-1.32233">
        <ele>21.61</ele>
        <time>2021-03-26T06:41:23Z</time>
      </trkpt>
      <trkpt lat="49.41359" lon="-1.32211">
        <ele>23.13</ele>
        <time>2021-03-26T06:41:32Z</time>
      </trkpt>
      <trkpt lat="49.41298" lon="-1.32196">
        <ele>26</ele>
        <time>2021-03-26T06:41:41Z</time>
      </trkpt>
      <trkpt lat="49.41189" lon="-1.32184">
        <ele>26.61</ele>
        <time>2021-03-26T06:41:50Z</time>
      </trkpt>
      <trkpt lat="49.41015" lon="-1.32193">
        <ele>24.65</ele>
        <time>2021-03-26T06:41:59Z</time>
      </trkpt>
      <trkpt lat="49.40975" lon="-1.3219">
        <ele>22.13</ele>
        <time>2021-03-26T06:42:07Z</time>
      </trkpt>
      <trkpt lat="49.40892" lon="-1.32177">
        <ele>22.47</ele>
        <time>2021-03-26T06:42:16Z</time>
      </trkpt>
      <trkpt lat="49.408" lon="-1.32141">
        <ele>19.55</ele>
        <time>2021-03-26T06:42:25Z</time>
      </trkpt>
      <trkpt lat="49.40766" lon="-1.32122">
        <ele>17.41</ele>
        <time>2021-03-26T06:42:34Z</time>
      </trkpt>
      <trkpt lat="49.40699" lon="-1.32074">
        <ele>19.35</ele>
        <time>2021-03-26T06:42:43Z</time>
      </trkpt>
      <trkpt lat="49.40655" lon="-1.32034">
        <ele>19.46</ele>
        <time>2021-03-26T06:42:52Z</time>
      </trkpt>
      <trkpt lat="49.40605" lon="-1.31977">
        <ele>21</ele>
        <time>2021-03-26T06:43:00Z</time>
      </trkpt>
      <trkpt lat="49.40567" lon="-1.31929">
        <ele>21.18</ele>
        <time>2021-03-26T06:43:09Z</time>
      </trkpt>
      <trkpt lat="49.40533" lon="-1.31877">
        <ele>20.08</ele>
        <time>2021-03-26T06:43:18Z</time>
      </trkpt>
      <trkpt lat="49.40494" lon="-1.3181">
        <ele>20</ele>
        <time>2021-03-26T06:43:27Z</time>
      </trkpt>
      <trkpt lat="49.40468" lon="-1.31752">
        <ele>20.06</ele>
        <time>2021-03-26T06:43:36Z</time>
      </trkpt>
      <trkpt lat="49.40416" lon="-1.31617">
        <ele>19.75</ele>
        <time>2021-03-26T06:43:45Z</time>
      </trkpt>
      <trkpt lat="49.4029" lon="-1.31275">
        <ele>24</ele>
        <time>2021-03-26T06:43:53Z</time>
      </trkpt>
      <trkpt lat="49.40242" lon="-1.31152">
        <ele>22.52</ele>
        <time>2021-03-26T06:44:02Z</time>
      </trkpt>
      <trkpt lat="49.40218" lon="-1.31101">
        <ele>24</ele>
        <time>2021-03-26T06:44:11Z</time>
      </trkpt>
      <trkpt lat="49.40179" lon="-1.31027">
        <ele>25</ele>
        <time>2021-03-26T06:44:20Z</time>
      </trkpt>
      <trkpt lat="49.40134" lon="-1.30958">
        <ele>26</ele>
        <time>2021-03-26T06:44:29Z</time>
      </trkpt>
      <trkpt lat="49.4007" lon="-1.30881">
        <ele>25.65</ele>
        <time>2021-03-26T06:44:38Z</time>
      </trkpt>
      <trkpt lat="49.40036" lon="-1.30848">
        <ele>25.3</ele>
        <time>2021-03-26T06:44:46Z</time>
      </trkpt>
      <trkpt lat="49.40002" lon="-1.30817">
        <ele>24.6</ele>
        <time>2021-03-26T06:44:55Z</time>
      </trkpt>
      <trkpt lat="49.39942" lon="-1.30775">
        <ele>25</ele>
        <time>2021-03-26T06:45:04Z</time>
      </trkpt>
      <trkpt lat="49.39857" lon="-1.30737">
        <ele>26.14</ele>
        <time>2021-03-26T06:45:13Z</time>
      </trkpt>
      <trkpt lat="49.39747" lon="-1.30714">
        <ele>29.26</ele>
        <time>2021-03-26T06:45:22Z</time>
      </trkpt>
      <trkpt lat="49.39613" lon="-1.30704">
        <ele>29.32</ele>
        <time>2021-03-26T06:45:31Z</time>
      </trkpt>
      <trkpt lat="49.3951" lon="-1.30686">
        <ele>30.8</ele>
        <time>2021-03-26T06:45:39Z</time>
      </trkpt>
      <trkpt lat="49.39441" lon="-1.30662">
        <ele>26.69</ele>
        <time>2021-03-26T06:45:48Z</time>
      </trkpt>
      <trkpt lat="49.39374" lon="-1.30623">
        <ele>22.9</ele>
        <time>2021-03-26T06:45:57Z</time>
      </trkpt>
      <trkpt lat="49.39322" lon="-1.30587">
        <ele>17.28</ele>
        <time>2021-03-26T06:46:06Z</time>
      </trkpt>
      <trkpt lat="49.38677" lon="-1.30095">
        <ele>15.6</ele>
        <time>2021-03-26T06:46:15Z</time>
      </trkpt>
      <trkpt lat="49.38391" lon="-1.29873">
        <ele>26.44</ele>
        <time>2021-03-26T06:46:24Z</time>
      </trkpt>
      <trkpt lat="49.38239" lon="-1.29771">
        <ele>29.29</ele>
        <time>2021-03-26T06:46:32Z</time>
      </trkpt>
      <trkpt lat="49.38076" lon="-1.29669">
        <ele>30.97</ele>
        <time>2021-03-26T06:46:41Z</time>
      </trkpt>
      <trkpt lat="49.37634" lon="-1.29462">
        <ele>29.17</ele>
        <time>2021-03-26T06:46:50Z</time>
      </trkpt>
      <trkpt lat="49.37399" lon="-1.29348">
        <ele>25.19</ele>
        <time>2021-03-26T06:46:59Z</time>
      </trkpt>
      <trkpt lat="49.37349" lon="-1.29316">
        <ele>25.19</ele>
        <time>2021-03-26T06:47:08Z</time>
      </trkpt>
      <trkpt lat="49.37299" lon="-1.2928">
        <ele>21.53</ele>
        <time>2021-03-26T06:47:17Z</time>
      </trkpt>
      <trkpt lat="49.37254" lon="-1.29244">
        <ele>19.68</ele>
        <time>2021-03-26T06:47:25Z</time>
      </trkpt>
      <trkpt lat="49.37199" lon="-1.29196">
        <ele>17.32</ele>
        <time>2021-03-26T06:47:34Z</time>
      </trkpt>
      <trkpt lat="49.37154" lon="-1.29151">
        <ele>15.32</ele>
        <time>2021-03-26T06:47:43Z</time>
      </trkpt>
      <trkpt lat="49.37102" lon="-1.29094">
        <ele>13.36</ele>
        <time>2021-03-26T06:47:52Z</time>
      </trkpt>
      <trkpt lat="49.37029" lon="-1.29001">
        <ele>10.09</ele>
        <time>2021-03-26T06:48:01Z</time>
      </trkpt>
      <trkpt lat="49.36987" lon="-1.2894">
        <ele>8.46</ele>
        <time>2021-03-26T06:48:10Z</time>
      </trkpt>
      <trkpt lat="49.36954" lon="-1.28886">
        <ele>8</ele>
        <time>2021-03-26T06:48:18Z</time>
      </trkpt>
      <trkpt lat="49.369" lon="-1.2879">
        <ele>6.74</ele>
        <time>2021-03-26T06:48:27Z</time>
      </trkpt>
      <trkpt lat="49.36737" lon="-1.28482">
        <ele>6.83</ele>
        <time>2021-03-26T06:48:36Z</time>
      </trkpt>
      <trkpt lat="49.36704" lon="-1.28425">
        <ele>7</ele>
        <time>2021-03-26T06:48:45Z</time>
      </trkpt>
      <trkpt lat="49.36671" lon="-1.28371">
        <ele>7.95</ele>
        <time>2021-03-26T06:48:54Z</time>
      </trkpt>
      <trkpt lat="49.3663" lon="-1.28313">
        <ele>7.68</ele>
        <time>2021-03-26T06:49:03Z</time>
      </trkpt>
      <trkpt lat="49.36591" lon="-1.28263">
        <ele>7.65</ele>
        <time>2021-03-26T06:49:11Z</time>
      </trkpt>
      <trkpt lat="49.36542" lon="-1.28209">
        <ele>5.56</ele>
        <time>2021-03-26T06:49:20Z</time>
      </trkpt>
      <trkpt lat="49.36495" lon="-1.28163">
        <ele>3.15</ele>
        <time>2021-03-26T06:49:29Z</time>
      </trkpt>
      <trkpt lat="49.36439" lon="-1.28115">
        <ele>3.48</ele>
        <time>2021-03-26T06:49:38Z</time>
      </trkpt>
      <trkpt lat="49.36376" lon="-1.28073">
        <ele>5.02</ele>
        <time>2021-03-26T06:49:47Z</time>
      </trkpt>
      <trkpt lat="49.36313" lon="-1.28036">
        <ele>6.7</ele>
        <time>2021-03-26T06:49:56Z</time>
      </trkpt>
      <trkpt lat="49.36247" lon="-1.2801">
        <ele>10.67</ele>
        <time>2021-03-26T06:50:04Z</time>
      </trkpt>
      <trkpt lat="49.35908" lon="-1.27908">
        <ele>7.09</ele>
        <time>2021-03-26T06:50:13Z</time>
      </trkpt>
      <trkpt lat="49.34684" lon="-1.2755">
        <ele>9.36</ele>
        <time>2021-03-26T06:50:22Z</time>
      </trkpt>
      <trkpt lat="49.34619" lon="-1.27521">
        <ele>11.7</ele>
        <time>2021-03-26T06:50:31Z</time>
      </trkpt>
      <trkpt lat="49.34556" lon="-1.27489">
        <ele>12.39</ele>
        <time>2021-03-26T06:50:40Z</time>
      </trkpt>
      <trkpt lat="49.34489" lon="-1.2745">
        <ele>16.38</ele>
        <time>2021-03-26T06:50:49Z</time>
      </trkpt>
      <trkpt lat="49.34425" lon="-1.27407">
        <ele>18.7</ele>
        <time>2021-03-26T06:50:57Z</time>
      </trkpt>
      <trkpt lat="49.34303" lon="-1.27306">
        <ele>25.16</ele>
        <time>2021-03-26T06:51:06Z</time>
      </trkpt>
      <trkpt lat="49.34266" lon="-1.27269">
        <ele>28.14</ele>
        <time>2021-03-26T06:51:15Z</time>
      </trkpt>
      <trkpt lat="49.34173" lon="-1.27166">
        <ele>30.77</ele>
        <time>2021-03-26T06:51:24Z</time>
      </trkpt>
      <trkpt lat="49.33637" lon="-1.26477">
        <ele>28</ele>
        <time>2021-03-26T06:51:33Z</time>
      </trkpt>
      <trkpt lat="49.32851" lon="-1.2546">
        <ele>2.8</ele>
        <time>2021-03-26T06:51:42Z</time>
      </trkpt>
      <trkpt lat="49.32662" lon="-1.25193">
        <ele>1.95</ele>
        <time>2021-03-26T06:51:50Z</time>
      </trkpt>
      <trkpt lat="49.32519" lon="-1.24983">
        <ele>1</ele>
        <time>2021-03-26T06:51:59Z</time>
      </trkpt>
      <trkpt lat="49.32447" lon="-1.24875">
        <ele>0.61</ele>
        <time>2021-03-26T06:52:08Z</time>
      </trkpt>
      <trkpt lat="49.32233" lon="-1.24536">
        <ele>2.14</ele>
        <time>2021-03-26T06:52:17Z</time>
      </trkpt>
      <trkpt lat="49.3214" lon="-1.24382">
        <ele>2.78</ele>
        <time>2021-03-26T06:52:26Z</time>
      </trkpt>
      <trkpt lat="49.31996" lon="-1.24131">
        <ele>3.04</ele>
        <time>2021-03-26T06:52:35Z</time>
      </trkpt>
      <trkpt lat="49.319" lon="-1.23958">
        <ele>2</ele>
        <time>2021-03-26T06:52:43Z</time>
      </trkpt>
      <trkpt lat="49.31699" lon="-1.23569">
        <ele>3.84</ele>
        <time>2021-03-26T06:52:52Z</time>
      </trkpt>
      <trkpt lat="49.31513" lon="-1.23204">
        <ele>-1.46</ele>
        <time>2021-03-26T06:53:01Z</time>
      </trkpt>
      <trkpt lat="49.31342" lon="-1.22867">
        <ele>0.62</ele>
        <time>2021-03-26T06:53:10Z</time>
      </trkpt>
      <trkpt lat="49.313" lon="-1.22782">
        <ele>0.34</ele>
        <time>2021-03-26T06:53:19Z</time>
      </trkpt>
      <trkpt lat="49.30672" lon="-1.21535">
        <ele>16.2</ele>
        <time>2021-03-26T06:53:28Z</time>
      </trkpt>
      <trkpt lat="49.30636" lon="-1.21456">
        <ele>17.67</ele>
        <time>2021-03-26T06:53:36Z</time>
      </trkpt>
      <trkpt lat="49.3059" lon="-1.21337">
        <ele>19.64</ele>
        <time>2021-03-26T06:53:45Z</time>
      </trkpt>
      <trkpt lat="49.30547" lon="-1.21195">
        <ele>21.29</ele>
        <time>2021-03-26T06:53:54Z</time>
      </trkpt>
      <trkpt lat="49.30528" lon="-1.21126">
        <ele>23.43</ele>
        <time>2021-03-26T06:54:03Z</time>
      </trkpt>
      <trkpt lat="49.305" lon="-1.20997">
        <ele>23.9</ele>
        <time>2021-03-26T06:54:12Z</time>
      </trkpt>
      <trkpt lat="49.30485" lon="-1.20912">
        <ele>25.54</ele>
        <time>2021-03-26T06:54:21Z</time>
      </trkpt>
      <trkpt lat="49.30473" lon="-1.20829">
        <ele>24.82</ele>
        <time>2021-03-26T06:54:29Z</time>
      </trkpt>
      <trkpt lat="49.30461" lon="-1.20726">
        <ele>25</ele>
        <time>2021-03-26T06:54:38Z</time>
      </trkpt>
      <trkpt lat="49.30452" lon="-1.2058">
        <ele>25.34</ele>
        <time>2021-03-26T06:54:47Z</time>
      </trkpt>
      <trkpt lat="49.30439" lon="-1.20183">
        <ele>28</ele>
        <time>2021-03-26T06:54:56Z</time>
      </trkpt>
      <trkpt lat="49.30429" lon="-1.20012">
        <ele>28.43</ele>
        <time>2021-03-26T06:55:05Z</time>
      </trkpt>
      <trkpt lat="49.30419" lon="-1.19894">
        <ele>30</ele>
        <time>2021-03-26T06:55:14Z</time>
      </trkpt>
      <trkpt lat="49.30406" lon="-1.19778">
        <ele>29.38</ele>
        <time>2021-03-26T06:55:23Z</time>
      </trkpt>
      <trkpt lat="49.30307" lon="-1.19014">
        <ele>29.03</ele>
        <time>2021-03-26T06:55:31Z</time>
      </trkpt>
      <trkpt lat="49.30295" lon="-1.18894">
        <ele>28.3</ele>
        <time>2021-03-26T06:55:40Z</time>
      </trkpt>
      <trkpt lat="49.30279" lon="-1.18665">
        <ele>29.03</ele>
        <time>2021-03-26T06:55:49Z</time>
      </trkpt>
      <trkpt lat="49.30273" lon="-1.18553">
        <ele>29</ele>
        <time>2021-03-26T06:55:58Z</time>
      </trkpt>
      <trkpt lat="49.3027" lon="-1.1834">
        <ele>29.16</ele>
        <time>2021-03-26T06:56:07Z</time>
      </trkpt>
      <trkpt lat="49.30274" lon="-1.18171">
        <ele>30</ele>
        <time>2021-03-26T06:56:16Z</time>
      </trkpt>
      <trkpt lat="49.30342" lon="-1.16193">
        <ele>24.3</ele>
        <time>2021-03-26T06:56:24Z</time>
      </trkpt>
      <trkpt lat="49.30353" lon="-1.15977">
        <ele>19</ele>
        <time>2021-03-26T06:56:33Z</time>
      </trkpt>
      <trkpt lat="49.3037" lon="-1.15787">
        <ele>18.23</ele>
        <time>2021-03-26T06:56:42Z</time>
      </trkpt>
      <trkpt lat="49.30385" lon="-1.15654">
        <ele>18</ele>
        <time>2021-03-26T06:56:51Z</time>
      </trkpt>
      <trkpt lat="49.30404" lon="-1.15514">
        <ele>16.73</ele>
        <time>2021-03-26T06:57:00Z</time>
      </trkpt>
      <trkpt lat="49.30437" lon="-1.15317">
        <ele>13.82</ele>
        <time>2021-03-26T06:57:09Z</time>
      </trkpt>
      <trkpt lat="49.30774" lon="-1.13467">
        <ele>1.82</ele>
        <time>2021-03-26T06:57:17Z</time>
      </trkpt>
      <trkpt lat="49.30799" lon="-1.13289">
        <ele>2.91</ele>
        <time>2021-03-26T06:57:26Z</time>
      </trkpt>
      <trkpt lat="49.30817" lon="-1.13112">
        <ele>4.01</ele>
        <time>2021-03-26T06:57:35Z</time>
      </trkpt>
      <trkpt lat="49.30824" lon="-1.13013">
        <ele>4.54</ele>
        <time>2021-03-26T06:57:44Z</time>
      </trkpt>
      <trkpt lat="49.30828" lon="-1.12913">
        <ele>10.35</ele>
        <time>2021-03-26T06:57:53Z</time>
      </trkpt>
      <trkpt lat="49.3083" lon="-1.12781">
        <ele>13.12</ele>
        <time>2021-03-26T06:58:02Z</time>
      </trkpt>
      <trkpt lat="49.30827" lon="-1.1259">
        <ele>16.17</ele>
        <time>2021-03-26T06:58:10Z</time>
      </trkpt>
      <trkpt lat="49.30793" lon="-1.10959">
        <ele>20</ele>
        <time>2021-03-26T06:58:19Z</time>
      </trkpt>
      <trkpt lat="49.30792" lon="-1.10682">
        <ele>23.24</ele>
        <time>2021-03-26T06:58:28Z</time>
      </trkpt>
      <trkpt lat="49.30794" lon="-1.10604">
        <ele>23.85</ele>
        <time>2021-03-26T06:58:37Z</time>
      </trkpt>
      <trkpt lat="49.30803" lon="-1.10495">
        <ele>22</ele>
        <time>2021-03-26T06:58:46Z</time>
      </trkpt>
      <trkpt lat="49.30815" lon="-1.10401">
        <ele>21.16</ele>
        <time>2021-03-26T06:58:55Z</time>
      </trkpt>
      <trkpt lat="49.30833" lon="-1.10311">
        <ele>20.78</ele>
        <time>2021-03-26T06:59:03Z</time>
      </trkpt>
      <trkpt lat="49.30854" lon="-1.10234">
        <ele>19.42</ele>
        <time>2021-03-26T06:59:12Z</time>
      </trkpt>
      <trkpt lat="49.30877" lon="-1.1016">
        <ele>17.31</ele>
        <time>2021-03-26T06:59:21Z</time>
      </trkpt>
      <trkpt lat="49.30899" lon="-1.10101">
        <ele>14.77</ele>
        <time>2021-03-26T06:59:30Z</time>
      </trkpt>
      <trkpt lat="49.3092" lon="-1.10053">
        <ele>14</ele>
        <time>2021-03-26T06:59:39Z</time>
      </trkpt>
      <trkpt lat="49.3095" lon="-1.09993">
        <ele>14</ele>
        <time>2021-03-26T06:59:48Z</time>
      </trkpt>
      <trkpt lat="49.30981" lon="-1.09938">
        <ele>13.69</ele>
        <time>2021-03-26T06:59:56Z</time>
      </trkpt>
      <trkpt lat="49.30985" lon="-1.0992">
        <ele>13.55</ele>
        <time>2021-03-26T07:00:01Z</time>
      </trkpt>
      <trkpt lat="49.31105" lon="-1.09718">
        <ele>7.7</ele>
        <time>2021-03-26T07:00:06Z</time>
      </trkpt>
      <trkpt lat="49.31108" lon="-1.09689">
        <ele>7.5</ele>
        <time>2021-03-26T07:00:07Z</time>
      </trkpt>
      <trkpt lat="49.31093" lon="-1.09669">
        <ele>8.89</ele>
        <time>2021-03-26T07:00:13Z</time>
      </trkpt>
      <trkpt lat="49.31028" lon="-1.09598">
        <ele>11</ele>
        <time>2021-03-26T07:00:20Z</time>
      </trkpt>
      <trkpt lat="49.30891" lon="-1.09463">
        <ele>13.92</ele>
        <time>2021-03-26T07:00:26Z</time>
      </trkpt>
      <trkpt lat="49.30837" lon="-1.09394">
        <ele>14.97</ele>
        <time>2021-03-26T07:00:32Z</time>
      </trkpt>
      <trkpt lat="49.30799" lon="-1.09356">
        <ele>16.24</ele>
        <time>2021-03-26T07:00:39Z</time>
      </trkpt>
      <trkpt lat="49.30742" lon="-1.0929">
        <ele>19</ele>
        <time>2021-03-26T07:00:45Z</time>
      </trkpt>
      <trkpt lat="49.30691" lon="-1.09224">
        <ele>20.12</ele>
        <time>2021-03-26T07:00:51Z</time>
      </trkpt>
      <trkpt lat="49.30667" lon="-1.09186">
        <ele>21.31</ele>
        <time>2021-03-26T07:00:58Z</time>
      </trkpt>
      <trkpt lat="49.30646" lon="-1.09139">
        <ele>22.72</ele>
        <time>2021-03-26T07:01:04Z</time>
      </trkpt>
      <trkpt lat="49.3058" lon="-1.08976">
        <ele>29.02</ele>
        <time>2021-03-26T07:01:10Z</time>
      </trkpt>
      <trkpt lat="49.3055" lon="-1.08916">
        <ele>31.19</ele>
        <time>2021-03-26T07:01:16Z</time>
      </trkpt>
      <trkpt lat="49.30469" lon="-1.08776">
        <ele>33.94</ele>
        <time>2021-03-26T07:01:23Z</time>
      </trkpt>
      <trkpt lat="49.30412" lon="-1.0869">
        <ele>34</ele>
        <time>2021-03-26T07:01:29Z</time>
      </trkpt>
      <trkpt lat="49.30338" lon="-1.08598">
        <ele>34</ele>
        <time>2021-03-26T07:01:35Z</time>
      </trkpt>
      <trkpt lat="49.30237" lon="-1.08464">
        <ele>33.74</ele>
        <time>2021-03-26T07:01:42Z</time>
      </trkpt>
      <trkpt lat="49.30114" lon="-1.08239">
        <ele>34.95</ele>
        <time>2021-03-26T07:01:48Z</time>
      </trkpt>
      <trkpt lat="49.30088" lon="-1.0818">
        <ele>35.08</ele>
        <time>2021-03-26T07:01:54Z</time>
      </trkpt>
      <trkpt lat="49.30074" lon="-1.08136">
        <ele>33.96</ele>
        <time>2021-03-26T07:02:01Z</time>
      </trkpt>
      <trkpt lat="49.3006" lon="-1.08079">
        <ele>32.17</ele>
        <time>2021-03-26T07:02:07Z</time>
      </trkpt>
      <trkpt lat="49.29989" lon="-1.07774">
        <ele>21.14</ele>
        <time>2021-03-26T07:02:13Z</time>
      </trkpt>
      <trkpt lat="49.2998" lon="-1.07708">
        <ele>18.42</ele>
        <time>2021-03-26T07:02:19Z</time>
      </trkpt>
      <trkpt lat="49.2994" lon="-1.07312">
        <ele>20</ele>
        <time>2021-03-26T07:02:26Z</time>
      </trkpt>
      <trkpt lat="49.29923" lon="-1.07197">
        <ele>21.21</ele>
        <time>2021-03-26T07:02:32Z</time>
      </trkpt>
      <trkpt lat="49.29917" lon="-1.07055">
        <ele>19</ele>
        <time>2021-03-26T07:02:38Z</time>
      </trkpt>
      <trkpt lat="49.29909" lon="-1.06979">
        <ele>18.06</ele>
        <time>2021-03-26T07:02:45Z</time>
      </trkpt>
      <trkpt lat="49.2989" lon="-1.06907">
        <ele>14.72</ele>
        <time>2021-03-26T07:02:51Z</time>
      </trkpt>
      <trkpt lat="49.2986" lon="-1.06832">
        <ele>13.91</ele>
        <time>2021-03-26T07:02:57Z</time>
      </trkpt>
      <trkpt lat="49.29827" lon="-1.06758">
        <ele>12.28</ele>
        <time>2021-03-26T07:03:04Z</time>
      </trkpt>
      <trkpt lat="49.29797" lon="-1.06706">
        <ele>10.69</ele>
        <time>2021-03-26T07:03:10Z</time>
      </trkpt>
      <trkpt lat="49.29784" lon="-1.06678">
        <ele>10.09</ele>
        <time>2021-03-26T07:03:16Z</time>
      </trkpt>
      <trkpt lat="49.29777" lon="-1.06646">
        <ele>10.05</ele>
        <time>2021-03-26T07:03:22Z</time>
      </trkpt>
      <trkpt lat="49.29777" lon="-1.06434">
        <ele>15</ele>
        <time>2021-03-26T07:03:29Z</time>
      </trkpt>
      <trkpt lat="49.29774" lon="-1.06301">
        <ele>15.87</ele>
        <time>2021-03-26T07:03:35Z</time>
      </trkpt>
      <trkpt lat="49.29767" lon="-1.06251">
        <ele>14.44</ele>
        <time>2021-03-26T07:03:41Z</time>
      </trkpt>
      <trkpt lat="49.29755" lon="-1.06205">
        <ele>13.82</ele>
        <time>2021-03-26T07:03:48Z</time>
      </trkpt>
      <trkpt lat="49.29732" lon="-1.06157">
        <ele>13.65</ele>
        <time>2021-03-26T07:03:54Z</time>
      </trkpt>
      <trkpt lat="49.2969" lon="-1.06082">
        <ele>15.26</ele>
        <time>2021-03-26T07:04:00Z</time>
      </trkpt>
      <trkpt lat="49.29522" lon="-1.05538">
        <ele>28.85</ele>
        <time>2021-03-26T07:04:07Z</time>
      </trkpt>
      <trkpt lat="49.29501" lon="-1.05495">
        <ele>30.14</ele>
        <time>2021-03-26T07:04:13Z</time>
      </trkpt>
      <trkpt lat="49.29478" lon="-1.05468">
        <ele>31.82</ele>
        <time>2021-03-26T07:04:19Z</time>
      </trkpt>
      <trkpt lat="49.29446" lon="-1.05436">
        <ele>31.05</ele>
        <time>2021-03-26T07:04:25Z</time>
      </trkpt>
      <trkpt lat="49.29391" lon="-1.05412">
        <ele>33.83</ele>
        <time>2021-03-26T07:04:32Z</time>
      </trkpt>
      <trkpt lat="49.29355" lon="-1.05408">
        <ele>34.76</ele>
        <time>2021-03-26T07:04:38Z</time>
      </trkpt>
      <trkpt lat="49.27205" lon="-1.05416">
        <ele>38</ele>
        <time>2021-03-26T07:04:44Z</time>
      </trkpt>
      <trkpt lat="49.25197" lon="-1.0542">
        <ele>46.2</ele>
        <time>2021-03-26T07:04:51Z</time>
      </trkpt>
      <trkpt lat="49.24621" lon="-1.05439">
        <ele>48.36</ele>
        <time>2021-03-26T07:04:57Z</time>
      </trkpt>
      <trkpt lat="49.24523" lon="-1.05429">
        <ele>49.74</ele>
        <time>2021-03-26T07:05:03Z</time>
      </trkpt>
      <trkpt lat="49.24487" lon="-1.05434">
        <ele>50.1</ele>
        <time>2021-03-26T07:05:10Z</time>
      </trkpt>
      <trkpt lat="49.24427" lon="-1.05446">
        <ele>48.29</ele>
        <time>2021-03-26T07:05:16Z</time>
      </trkpt>
      <trkpt lat="49.23691" lon="-1.05614">
        <ele>52.79</ele>
        <time>2021-03-26T07:05:22Z</time>
      </trkpt>
      <trkpt lat="49.23627" lon="-1.05614">
        <ele>49.64</ele>
        <time>2021-03-26T07:05:28Z</time>
      </trkpt>
      <trkpt lat="49.23536" lon="-1.05574">
        <ele>41.16</ele>
        <time>2021-03-26T07:05:35Z</time>
      </trkpt>
      <trkpt lat="49.23249" lon="-1.05443">
        <ele>19.94</ele>
        <time>2021-03-26T07:05:41Z</time>
      </trkpt>
      <trkpt lat="49.23194" lon="-1.05413">
        <ele>16.83</ele>
        <time>2021-03-26T07:05:47Z</time>
      </trkpt>
      <trkpt lat="49.23172" lon="-1.05391">
        <ele>15.21</ele>
        <time>2021-03-26T07:05:54Z</time>
      </trkpt>
      <trkpt lat="49.23126" lon="-1.05327">
        <ele>12.94</ele>
        <time>2021-03-26T07:06:00Z</time>
      </trkpt>
      <trkpt lat="49.23087" lon="-1.05277">
        <ele>11.14</ele>
        <time>2021-03-26T07:06:06Z</time>
      </trkpt>
      <trkpt lat="49.22984" lon="-1.05137">
        <ele>7</ele>
        <time>2021-03-26T07:06:13Z</time>
      </trkpt>
      <trkpt lat="49.22937" lon="-1.05078">
        <ele>5.6</ele>
        <time>2021-03-26T07:06:19Z</time>
      </trkpt>
      <trkpt lat="49.22917" lon="-1.05047">
        <ele>4.71</ele>
        <time>2021-03-26T07:06:25Z</time>
      </trkpt>
      <trkpt lat="49.22907" lon="-1.0503">
        <ele>4.39</ele>
        <time>2021-03-26T07:06:31Z</time>
      </trkpt>
      <trkpt lat="49.22889" lon="-1.0499">
        <ele>4.99</ele>
        <time>2021-03-26T07:06:38Z</time>
      </trkpt>
      <trkpt lat="49.22874" lon="-1.04939">
        <ele>5.33</ele>
        <time>2021-03-26T07:06:44Z</time>
      </trkpt>
      <trkpt lat="49.22846" lon="-1.04832">
        <ele>5.5</ele>
        <time>2021-03-26T07:06:50Z</time>
      </trkpt>
      <trkpt lat="49.22836" lon="-1.04803">
        <ele>6.1</ele>
        <time>2021-03-26T07:06:57Z</time>
      </trkpt>
      <trkpt lat="49.22811" lon="-1.04754">
        <ele>5.2</ele>
        <time>2021-03-26T07:07:03Z</time>
      </trkpt>
      <trkpt lat="49.22798" lon="-1.04736">
        <ele>4.77</ele>
        <time>2021-03-26T07:07:09Z</time>
      </trkpt>
      <trkpt lat="49.22783" lon="-1.0472">
        <ele>4.75</ele>
        <time>2021-03-26T07:07:16Z</time>
      </trkpt>
      <trkpt lat="49.22761" lon="-1.04704">
        <ele>4.95</ele>
        <time>2021-03-26T07:07:22Z</time>
      </trkpt>
      <trkpt lat="49.22705" lon="-1.04667">
        <ele>5.63</ele>
        <time>2021-03-26T07:07:28Z</time>
      </trkpt>
      <trkpt lat="49.22688" lon="-1.04659">
        <ele>6.14</ele>
        <time>2021-03-26T07:07:34Z</time>
      </trkpt>
      <trkpt lat="49.22668" lon="-1.04654">
        <ele>7.02</ele>
        <time>2021-03-26T07:07:41Z</time>
      </trkpt>
      <trkpt lat="49.22643" lon="-1.04656">
        <ele>8.87</ele>
        <time>2021-03-26T07:07:47Z</time>
      </trkpt>
      <trkpt lat="49.22607" lon="-1.04668">
        <ele>10.56</ele>
        <time>2021-03-26T07:07:53Z</time>
      </trkpt>
      <trkpt lat="49.22591" lon="-1.04677">
        <ele>9.13</ele>
        <time>2021-03-26T07:08:00Z</time>
      </trkpt>
      <trkpt lat="49.22563" lon="-1.04684">
        <ele>7.89</ele>
        <time>2021-03-26T07:08:06Z</time>
      </trkpt>
      <trkpt lat="49.22532" lon="-1.04677">
        <ele>8.24</ele>
        <time>2021-03-26T07:08:12Z</time>
      </trkpt>
      <trkpt lat="49.22515" lon="-1.04668">
        <ele>8.05</ele>
        <time>2021-03-26T07:08:19Z</time>
      </trkpt>
      <trkpt lat="49.22502" lon="-1.04657">
        <ele>7.98</ele>
        <time>2021-03-26T07:08:25Z</time>
      </trkpt>
      <trkpt lat="49.22128" lon="-1.04139">
        <ele>6.38</ele>
        <time>2021-03-26T07:08:31Z</time>
      </trkpt>
      <trkpt lat="49.22085" lon="-1.0409">
        <ele>7</ele>
        <time>2021-03-26T07:08:37Z</time>
      </trkpt>
      <trkpt lat="49.22063" lon="-1.04075">
        <ele>6.92</ele>
        <time>2021-03-26T07:08:44Z</time>
      </trkpt>
      <trkpt lat="49.22047" lon="-1.04069">
        <ele>7.65</ele>
        <time>2021-03-26T07:08:50Z</time>
      </trkpt>
      <trkpt lat="49.22018" lon="-1.04074">
        <ele>9.7</ele>
        <time>2021-03-26T07:08:56Z</time>
      </trkpt>
      <trkpt lat="49.21967" lon="-1.0409">
        <ele>12.81</ele>
        <time>2021-03-26T07:09:03Z</time>
      </trkpt>
      <trkpt lat="49.21625" lon="-1.04217">
        <ele>26.1</ele>
        <time>2021-03-26T07:09:09Z</time>
      </trkpt>
      <trkpt lat="49.21413" lon="-1.04302">
        <ele>38.1</ele>
        <time>2021-03-26T07:09:15Z</time>
      </trkpt>
      <trkpt lat="49.21269" lon="-1.04348">
        <ele>39.69</ele>
        <time>2021-03-26T07:09:22Z</time>
      </trkpt>
      <trkpt lat="49.21235" lon="-1.04345">
        <ele>39.23</ele>
        <time>2021-03-26T07:09:28Z</time>
      </trkpt>
      <trkpt lat="49.21211" lon="-1.04336">
        <ele>39.47</ele>
        <time>2021-03-26T07:09:34Z</time>
      </trkpt>
      <trkpt lat="49.21193" lon="-1.04326">
        <ele>40</ele>
        <time>2021-03-26T07:09:40Z</time>
      </trkpt>
      <trkpt lat="49.21118" lon="-1.04258">
        <ele>39.25</ele>
        <time>2021-03-26T07:09:47Z</time>
      </trkpt>
      <trkpt lat="49.21126" lon="-1.04224">
        <ele>39.52</ele>
        <time>2021-03-26T07:09:52Z</time>
      </trkpt>
      <trkpt lat="49.21125" lon="-1.04207">
        <ele>39.51</ele>
        <time>2021-03-26T07:09:57Z</time>
      </trkpt>
      <trkpt lat="49.21117" lon="-1.04182">
        <ele>39.55</ele>
        <time>2021-03-26T07:10:02Z</time>
      </trkpt>
      <trkpt lat="49.21102" lon="-1.04119">
        <ele>39.68</ele>
        <time>2021-03-26T07:10:07Z</time>
      </trkpt>
      <trkpt lat="49.21086" lon="-1.04026">
        <ele>38.93</ele>
        <time>2021-03-26T07:10:11Z</time>
      </trkpt>
      <trkpt lat="49.21065" lon="-1.03923">
        <ele>38</ele>
        <time>2021-03-26T07:10:16Z</time>
      </trkpt>
      <trkpt lat="49.21002" lon="-1.03676">
        <ele>34.38</ele>
        <time>2021-03-26T07:10:21Z</time>
      </trkpt>
      <trkpt lat="49.20986" lon="-1.03603">
        <ele>34.29</ele>
        <time>2021-03-26T07:10:26Z</time>
      </trkpt>
      <trkpt lat="49.2095" lon="-1.0336">
        <ele>36.78</ele>
        <time>2021-03-26T07:10:31Z</time>
      </trkpt>
      <trkpt lat="49.20945" lon="-1.03303">
        <ele>36.93</ele>
        <time>2021-03-26T07:10:36Z</time>
      </trkpt>
      <trkpt lat="49.2094" lon="-1.03127">
        <ele>38.17</ele>
        <time>2021-03-26T07:10:41Z</time>
      </trkpt>
      <trkpt lat="49.20931" lon="-1.0304">
        <ele>40.04</ele>
        <time>2021-03-26T07:10:46Z</time>
      </trkpt>
      <trkpt lat="49.2092" lon="-1.02974">
        <ele>40.75</ele>
        <time>2021-03-26T07:10:51Z</time>
      </trkpt>
      <trkpt lat="49.20859" lon="-1.02754">
        <ele>42.05</ele>
        <time>2021-03-26T07:10:56Z</time>
      </trkpt>
      <trkpt lat="49.2083" lon="-1.02622">
        <ele>44</ele>
        <time>2021-03-26T07:11:01Z</time>
      </trkpt>
      <trkpt lat="49.20797" lon="-1.02456">
        <ele>42.83</ele>
        <time>2021-03-26T07:11:06Z</time>
      </trkpt>
      <trkpt lat="49.20774" lon="-1.02346">
        <ele>44.46</ele>
        <time>2021-03-26T07:11:11Z</time>
      </trkpt>
      <trkpt lat="49.20758" lon="-1.02257">
        <ele>45.29</ele>
        <time>2021-03-26T07:11:16Z</time>
      </trkpt>
      <trkpt lat="49.20728" lon="-1.02044">
        <ele>45.21</ele>
        <time>2021-03-26T07:11:21Z</time>
      </trkpt>
      <trkpt lat="49.20724" lon="-1.02005">
        <ele>45.06</ele>
        <time>2021-03-26T07:11:25Z</time>
      </trkpt>
      <trkpt lat="49.20712" lon="-1.01942">
        <ele>44.68</ele>
        <time>2021-03-26T07:11:30Z</time>
      </trkpt>
      <trkpt lat="49.20624" lon="-1.01533">
        <ele>43.42</ele>
        <time>2021-03-26T07:11:35Z</time>
      </trkpt>
      <trkpt lat="49.20601" lon="-1.01414">
        <ele>44.3</ele>
        <time>2021-03-26T07:11:40Z</time>
      </trkpt>
      <trkpt lat="49.20593" lon="-1.0136">
        <ele>44.05</ele>
        <time>2021-03-26T07:11:45Z</time>
      </trkpt>
      <trkpt lat="49.20589" lon="-1.01291">
        <ele>45.89</ele>
        <time>2021-03-26T07:11:50Z</time>
      </trkpt>
      <trkpt lat="49.20592" lon="-1.01179">
        <ele>41.4</ele>
        <time>2021-03-26T07:11:55Z</time>
      </trkpt>
      <trkpt lat="49.20598" lon="-1.01104">
        <ele>38.51</ele>
        <time>2021-03-26T07:12:00Z</time>
      </trkpt>
      <trkpt lat="49.20608" lon="-1.01025">
        <ele>39.53</ele>
        <time>2021-03-26T07:12:05Z</time>
      </trkpt>
      <trkpt lat="49.20602" lon="-1.00975">
        <ele>38.11</ele>
        <time>2021-03-26T07:12:10Z</time>
      </trkpt>
      <trkpt lat="49.20589" lon="-1.00937">
        <ele>36.65</ele>
        <time>2021-03-26T07:12:15Z</time>
      </trkpt>
      <trkpt lat="49.20554" lon="-1.00883">
        <ele>36.99</ele>
        <time>2021-03-26T07:12:20Z</time>
      </trkpt>
      <trkpt lat="49.20497" lon="-1.00775">
        <ele>38.94</ele>
        <time>2021-03-26T07:12:25Z</time>
      </trkpt>
      <trkpt lat="49.20462" lon="-1.00677">
        <ele>42.26</ele>
        <time>2021-03-26T07:12:30Z</time>
      </trkpt>
      <trkpt lat="49.20425" lon="-1.00521">
        <ele>45.82</ele>
        <time>2021-03-26T07:12:35Z</time>
      </trkpt>
      <trkpt lat="49.20416" lon="-1.0041">
        <ele>46.03</ele>
        <time>2021-03-26T07:12:40Z</time>
      </trkpt>
      <trkpt lat="49.20411" lon="-1.00274">
        <ele>47.21</ele>
        <time>2021-03-26T07:12:44Z</time>
      </trkpt>
      <trkpt lat="49.20436" lon="-0.99835">
        <ele>51.02</ele>
        <time>2021-03-26T07:12:49Z</time>
      </trkpt>
      <trkpt lat="49.20435" lon="-0.99795">
        <ele>50.33</ele>
        <time>2021-03-26T07:12:54Z</time>
      </trkpt>
      <trkpt lat="49.20426" lon="-0.99711">
        <ele>50.67</ele>
        <time>2021-03-26T07:12:59Z</time>
      </trkpt>
      <trkpt lat="49.20413" lon="-0.9962">
        <ele>50.12</ele>
        <time>2021-03-26T07:13:04Z</time>
      </trkpt>
      <trkpt lat="49.20402" lon="-0.99492">
        <ele>51.38</ele>
        <time>2021-03-26T07:13:09Z</time>
      </trkpt>
      <trkpt lat="49.20384" lon="-0.99393">
        <ele>52.35</ele>
        <time>2021-03-26T07:13:14Z</time>
      </trkpt>
      <trkpt lat="49.20353" lon="-0.99246">
        <ele>53.17</ele>
        <time>2021-03-26T07:13:19Z</time>
      </trkpt>
      <trkpt lat="49.20344" lon="-0.9919">
        <ele>55.68</ele>
        <time>2021-03-26T07:13:24Z</time>
      </trkpt>
      <trkpt lat="49.20331" lon="-0.98791">
        <ele>57.15</ele>
        <time>2021-03-26T07:13:29Z</time>
      </trkpt>
      <trkpt lat="49.20323" lon="-0.98669">
        <ele>57.73</ele>
        <time>2021-03-26T07:13:34Z</time>
      </trkpt>
      <trkpt lat="49.20308" lon="-0.98574">
        <ele>56.3</ele>
        <time>2021-03-26T07:13:39Z</time>
      </trkpt>
      <trkpt lat="49.20169" lon="-0.97825">
        <ele>65</ele>
        <time>2021-03-26T07:13:44Z</time>
      </trkpt>
      <trkpt lat="49.20158" lon="-0.9778">
        <ele>65.94</ele>
        <time>2021-03-26T07:13:49Z</time>
      </trkpt>
      <trkpt lat="49.20141" lon="-0.97742">
        <ele>67.3</ele>
        <time>2021-03-26T07:13:54Z</time>
      </trkpt>
      <trkpt lat="49.20023" lon="-0.97517">
        <ele>69.78</ele>
        <time>2021-03-26T07:13:58Z</time>
      </trkpt>
      <trkpt lat="49.19993" lon="-0.97456">
        <ele>70.94</ele>
        <time>2021-03-26T07:14:03Z</time>
      </trkpt>
      <trkpt lat="49.19882" lon="-0.97128">
        <ele>73.23</ele>
        <time>2021-03-26T07:14:08Z</time>
      </trkpt>
      <trkpt lat="49.19801" lon="-0.9692">
        <ele>76.86</ele>
        <time>2021-03-26T07:14:13Z</time>
      </trkpt>
      <trkpt lat="49.19741" lon="-0.96709">
        <ele>79</ele>
        <time>2021-03-26T07:14:18Z</time>
      </trkpt>
      <trkpt lat="49.19701" lon="-0.96585">
        <ele>78.77</ele>
        <time>2021-03-26T07:14:23Z</time>
      </trkpt>
      <trkpt lat="49.19691" lon="-0.96544">
        <ele>79.05</ele>
        <time>2021-03-26T07:14:28Z</time>
      </trkpt>
      <trkpt lat="49.19692" lon="-0.96513">
        <ele>78.58</ele>
        <time>2021-03-26T07:14:33Z</time>
      </trkpt>
      <trkpt lat="49.19747" lon="-0.96178">
        <ele>81.7</ele>
        <time>2021-03-26T07:14:38Z</time>
      </trkpt>
      <trkpt lat="49.19755" lon="-0.96099">
        <ele>80.93</ele>
        <time>2021-03-26T07:14:43Z</time>
      </trkpt>
      <trkpt lat="49.19762" lon="-0.95866">
        <ele>82.92</ele>
        <time>2021-03-26T07:14:48Z</time>
      </trkpt>
      <trkpt lat="49.19759" lon="-0.95807">
        <ele>83</ele>
        <time>2021-03-26T07:14:53Z</time>
      </trkpt>
      <trkpt lat="49.1972" lon="-0.95218">
        <ele>87.93</ele>
        <time>2021-03-26T07:14:58Z</time>
      </trkpt>
      <trkpt lat="49.19697" lon="-0.94996">
        <ele>86</ele>
        <time>2021-03-26T07:15:03Z</time>
      </trkpt>
      <trkpt lat="49.19719" lon="-0.94844">
        <ele>86.95</ele>
        <time>2021-03-26T07:15:08Z</time>
      </trkpt>
      <trkpt lat="49.19725" lon="-0.9479">
        <ele>87</ele>
        <time>2021-03-26T07:15:12Z</time>
      </trkpt>
      <trkpt lat="49.19726" lon="-0.94745">
        <ele>86.11</ele>
        <time>2021-03-26T07:15:17Z</time>
      </trkpt>
      <trkpt lat="49.19715" lon="-0.94504">
        <ele>86.9</ele>
        <time>2021-03-26T07:15:22Z</time>
      </trkpt>
      <trkpt lat="49.19714" lon="-0.94451">
        <ele>87</ele>
        <time>2021-03-26T07:15:27Z</time>
      </trkpt>
      <trkpt lat="49.19762" lon="-0.94038">
        <ele>72.56</ele>
        <time>2021-03-26T07:15:32Z</time>
      </trkpt>
      <trkpt lat="49.1976" lon="-0.94">
        <ele>72</ele>
        <time>2021-03-26T07:15:37Z</time>
      </trkpt>
      <trkpt lat="49.19757" lon="-0.9398">
        <ele>72.55</ele>
        <time>2021-03-26T07:15:42Z</time>
      </trkpt>
      <trkpt lat="49.19748" lon="-0.93952">
        <ele>73.74</ele>
        <time>2021-03-26T07:15:47Z</time>
      </trkpt>
      <trkpt lat="49.19733" lon="-0.93922">
        <ele>74.49</ele>
        <time>2021-03-26T07:15:52Z</time>
      </trkpt>
      <trkpt lat="49.19703" lon="-0.93884">
        <ele>76.16</ele>
        <time>2021-03-26T07:15:57Z</time>
      </trkpt>
      <trkpt lat="49.19644" lon="-0.93821">
        <ele>81.47</ele>
        <time>2021-03-26T07:16:02Z</time>
      </trkpt>
      <trkpt lat="49.19636" lon="-0.93786">
        <ele>82.24</ele>
        <time>2021-03-26T07:16:07Z</time>
      </trkpt>
      <trkpt lat="49.1962" lon="-0.93656">
        <ele>85.26</ele>
        <time>2021-03-26T07:16:12Z</time>
      </trkpt>
      <trkpt lat="49.19497" lon="-0.93678">
        <ele>87.09</ele>
        <time>2021-03-26T07:16:19Z</time>
      </trkpt>
      <trkpt lat="49.19474" lon="-0.93685">
        <ele>87.95</ele>
        <time>2021-03-26T07:16:25Z</time>
      </trkpt>
      <trkpt lat="49.19377" lon="-0.93699">
        <ele>89</ele>
        <time>2021-03-26T07:16:32Z</time>
      </trkpt>
      <trkpt lat="49.19359" lon="-0.93689">
        <ele>89.18</ele>
        <time>2021-03-26T07:16:39Z</time>
      </trkpt>
      <trkpt lat="49.19356" lon="-0.93364">
        <ele>94.1</ele>
        <time>2021-03-26T07:16:45Z</time>
      </trkpt>
      <trkpt lat="49.19351" lon="-0.93323">
        <ele>95.25</ele>
        <time>2021-03-26T07:16:52Z</time>
      </trkpt>
      <trkpt lat="49.19321" lon="-0.93219">
        <ele>94.44</ele>
        <time>2021-03-26T07:16:58Z</time>
      </trkpt>
      <trkpt lat="49.19271" lon="-0.93011">
        <ele>93.1</ele>
        <time>2021-03-26T07:17:05Z</time>
      </trkpt>
      <trkpt lat="49.19249" lon="-0.92953">
        <ele>93.04</ele>
        <time>2021-03-26T07:17:11Z</time>
      </trkpt>
      <trkpt lat="49.19225" lon="-0.92874">
        <ele>95</ele>
        <time>2021-03-26T07:17:18Z</time>
      </trkpt>
      <trkpt lat="49.19183" lon="-0.92715">
        <ele>95.27</ele>
        <time>2021-03-26T07:17:24Z</time>
      </trkpt>
      <trkpt lat="49.19163" lon="-0.92622">
        <ele>92.79</ele>
        <time>2021-03-26T07:17:31Z</time>
      </trkpt>
      <trkpt lat="49.1915" lon="-0.92588">
        <ele>90.81</ele>
        <time>2021-03-26T07:17:37Z</time>
      </trkpt>
      <trkpt lat="49.19117" lon="-0.92539">
        <ele>91.57</ele>
        <time>2021-03-26T07:17:44Z</time>
      </trkpt>
      <trkpt lat="49.19106" lon="-0.92517">
        <ele>92.4</ele>
        <time>2021-03-26T07:17:51Z</time>
      </trkpt>
      <trkpt lat="49.19092" lon="-0.92475">
        <ele>93.14</ele>
        <time>2021-03-26T07:17:57Z</time>
      </trkpt>
      <trkpt lat="49.19069" lon="-0.92393">
        <ele>93</ele>
        <time>2021-03-26T07:18:04Z</time>
      </trkpt>
      <trkpt lat="49.19026" lon="-0.92246">
        <ele>91.83</ele>
        <time>2021-03-26T07:18:10Z</time>
      </trkpt>
      <trkpt lat="49.19023" lon="-0.92203">
        <ele>91.09</ele>
        <time>2021-03-26T07:18:17Z</time>
      </trkpt>
      <trkpt lat="49.19027" lon="-0.92141">
        <ele>92.04</ele>
        <time>2021-03-26T07:18:23Z</time>
      </trkpt>
      <trkpt lat="49.19024" lon="-0.92108">
        <ele>91.01</ele>
        <time>2021-03-26T07:18:30Z</time>
      </trkpt>
      <trkpt lat="49.19017" lon="-0.92073">
        <ele>90.17</ele>
        <time>2021-03-26T07:18:36Z</time>
      </trkpt>
      <trkpt lat="49.1899" lon="-0.92027">
        <ele>93.23</ele>
        <time>2021-03-26T07:18:43Z</time>
      </trkpt>
      <trkpt lat="49.18976" lon="-0.92">
        <ele>96.56</ele>
        <time>2021-03-26T07:18:49Z</time>
      </trkpt>
      <trkpt lat="49.18973" lon="-0.91948">
        <ele>97.92</ele>
        <time>2021-03-26T07:18:56Z</time>
      </trkpt>
      <trkpt lat="49.18968" lon="-0.91714">
        <ele>91.71</ele>
        <time>2021-03-26T07:19:02Z</time>
      </trkpt>
      <trkpt lat="49.18963" lon="-0.91661">
        <ele>90.32</ele>
        <time>2021-03-26T07:19:09Z</time>
      </trkpt>
      <trkpt lat="49.18952" lon="-0.91578">
        <ele>93.37</ele>
        <time>2021-03-26T07:19:15Z</time>
      </trkpt>
      <trkpt lat="49.18958" lon="-0.91505">
        <ele>101.37</ele>
        <time>2021-03-26T07:19:22Z</time>
      </trkpt>
      <trkpt lat="49.19071" lon="-0.90629">
        <ele>128.46</ele>
        <time>2021-03-26T07:19:28Z</time>
      </trkpt>
      <trkpt lat="49.19103" lon="-0.90355">
        <ele>125.11</ele>
        <time>2021-03-26T07:19:35Z</time>
      </trkpt>
      <trkpt lat="49.19133" lon="-0.89859">
        <ele>124.82</ele>
        <time>2021-03-26T07:19:41Z</time>
      </trkpt>
      <trkpt lat="49.19148" lon="-0.8965">
        <ele>117.93</ele>
        <time>2021-03-26T07:19:48Z</time>
      </trkpt>
      <trkpt lat="49.19148" lon="-0.89612">
        <ele>118.31</ele>
        <time>2021-03-26T07:19:54Z</time>
      </trkpt>
      <trkpt lat="49.19238" lon="-0.88374">
        <ele>133.41</ele>
        <time>2021-03-26T07:20:01Z</time>
      </trkpt>
      <trkpt lat="49.19338" lon="-0.86605">
        <ele>136.67</ele>
        <time>2021-03-26T07:20:07Z</time>
      </trkpt>
      <trkpt lat="49.19344" lon="-0.8657">
        <ele>135.21</ele>
        <time>2021-03-26T07:20:14Z</time>
      </trkpt>
      <trkpt lat="49.19362" lon="-0.86513">
        <ele>133</ele>
        <time>2021-03-26T07:20:21Z</time>
      </trkpt>
      <trkpt lat="49.19359" lon="-0.86499">
        <ele>131.73</ele>
        <time>2021-03-26T07:20:27Z</time>
      </trkpt>
      <trkpt lat="49.19351" lon="-0.86486">
        <ele>130.44</ele>
        <time>2021-03-26T07:20:34Z</time>
      </trkpt>
      <trkpt lat="49.1934" lon="-0.86484">
        <ele>129.76</ele>
        <time>2021-03-26T07:20:38Z</time>
      </trkpt>
      <trkpt lat="49.19333" lon="-0.8648">
        <ele>129.3</ele>
        <time>2021-03-26T07:20:43Z</time>
      </trkpt>
      <trkpt lat="49.19324" lon="-0.8647">
        <ele>128.97</ele>
        <time>2021-03-26T07:20:48Z</time>
      </trkpt>
      <trkpt lat="49.19318" lon="-0.86452">
        <ele>129.09</ele>
        <time>2021-03-26T07:20:53Z</time>
      </trkpt>
      <trkpt lat="49.19316" lon="-0.8644">
        <ele>129.37</ele>
        <time>2021-03-26T07:20:58Z</time>
      </trkpt>
      <trkpt lat="49.19317" lon="-0.86428">
        <ele>129.75</ele>
        <time>2021-03-26T07:21:03Z</time>
      </trkpt>
      <trkpt lat="49.19321" lon="-0.86413">
        <ele>130.16</ele>
        <time>2021-03-26T07:21:08Z</time>
      </trkpt>
      <trkpt lat="49.1932" lon="-0.86398">
        <ele>131.3</ele>
        <time>2021-03-26T07:21:13Z</time>
      </trkpt>
      <trkpt lat="49.19316" lon="-0.86372">
        <ele>132.87</ele>
        <time>2021-03-26T07:21:18Z</time>
      </trkpt>
      <trkpt lat="49.19183" lon="-0.86102">
        <ele>132.79</ele>
        <time>2021-03-26T07:21:23Z</time>
      </trkpt>
      <trkpt lat="49.19142" lon="-0.86047">
        <ele>127.28</ele>
        <time>2021-03-26T07:21:28Z</time>
      </trkpt>
      <trkpt lat="49.18589" lon="-0.85616">
        <ele>101.37</ele>
        <time>2021-03-26T07:21:32Z</time>
      </trkpt>
      <trkpt lat="49.18553" lon="-0.85585">
        <ele>99.75</ele>
        <time>2021-03-26T07:21:37Z</time>
      </trkpt>
      <trkpt lat="49.18532" lon="-0.85554">
        <ele>95.52</ele>
        <time>2021-03-26T07:21:42Z</time>
      </trkpt>
      <trkpt lat="49.18523" lon="-0.85523">
        <ele>91.85</ele>
        <time>2021-03-26T07:21:47Z</time>
      </trkpt>
      <trkpt lat="49.1851" lon="-0.85431">
        <ele>87.54</ele>
        <time>2021-03-26T07:21:52Z</time>
      </trkpt>
      <trkpt lat="49.1845" lon="-0.8493">
        <ele>67.17</ele>
        <time>2021-03-26T07:21:57Z</time>
      </trkpt>
      <trkpt lat="49.18432" lon="-0.8477">
        <ele>57.71</ele>
        <time>2021-03-26T07:22:02Z</time>
      </trkpt>
      <trkpt lat="49.18403" lon="-0.84536">
        <ele>55.86</ele>
        <time>2021-03-26T07:22:07Z</time>
      </trkpt>
      <trkpt lat="49.18395" lon="-0.845">
        <ele>56.99</ele>
        <time>2021-03-26T07:22:12Z</time>
      </trkpt>
      <trkpt lat="49.18383" lon="-0.84463">
        <ele>59.32</ele>
        <time>2021-03-26T07:22:17Z</time>
      </trkpt>
      <trkpt lat="49.18129" lon="-0.83943">
        <ele>88.31</ele>
        <time>2021-03-26T07:22:22Z</time>
      </trkpt>
      <trkpt lat="49.18098" lon="-0.83883">
        <ele>90.31</ele>
        <time>2021-03-26T07:22:26Z</time>
      </trkpt>
      <trkpt lat="49.18089" lon="-0.83852">
        <ele>91.93</ele>
        <time>2021-03-26T07:22:31Z</time>
      </trkpt>
      <trkpt lat="49.18082" lon="-0.83853">
        <ele>91.96</ele>
        <time>2021-03-26T07:22:46Z</time>
      </trkpt>
      <trkpt lat="49.18078" lon="-0.83842">
        <ele>91.8</ele>
        <time>2021-03-26T07:23:00Z</time>
      </trkpt>
      <trkpt lat="49.18081" lon="-0.83834">
        <ele>91.92</ele>
        <time>2021-03-26T07:23:15Z</time>
      </trkpt>
      <trkpt lat="49.18085" lon="-0.83833">
        <ele>92.13</ele>
        <time>2021-03-26T07:23:29Z</time>
      </trkpt>
      <trkpt lat="49.18088" lon="-0.83834">
        <ele>92.16</ele>
        <time>2021-03-26T07:23:44Z</time>
      </trkpt>
      <trkpt lat="49.18529" lon="-0.82774">
        <ele>121</ele>
        <time>2021-03-26T07:23:58Z</time>
      </trkpt>
      <trkpt lat="49.18524" lon="-0.82763">
        <ele>120.87</ele>
        <time>2021-03-26T07:24:10Z</time>
      </trkpt>
      <trkpt lat="49.18525" lon="-0.82751">
        <ele>120.91</ele>
        <time>2021-03-26T07:24:21Z</time>
      </trkpt>
      <trkpt lat="49.18369" lon="-0.82645">
        <ele>123.83</ele>
        <time>2021-03-26T07:24:33Z</time>
      </trkpt>
      <trkpt lat="49.18041" lon="-0.82419">
        <ele>125.03</ele>
        <time>2021-03-26T07:24:44Z</time>
      </trkpt>
      <trkpt lat="49.18032" lon="-0.82407">
        <ele>125</ele>
        <time>2021-03-26T07:24:56Z</time>
      </trkpt>
      <trkpt lat="49.18025" lon="-0.82389">
        <ele>125</ele>
        <time>2021-03-26T07:25:07Z</time>
      </trkpt>
      <trkpt lat="49.1802" lon="-0.82372">
        <ele>125.61</ele>
        <time>2021-03-26T07:25:19Z</time>
      </trkpt>
      <trkpt lat="49.17925" lon="-0.81219">
        <ele>128.91</ele>
        <time>2021-03-26T07:25:30Z</time>
      </trkpt>
      <trkpt lat="49.1784" lon="-0.80161">
        <ele>128.23</ele>
        <time>2021-03-26T07:25:42Z</time>
      </trkpt>
      <trkpt lat="49.17826" lon="-0.79971">
        <ele>130.72</ele>
        <time>2021-03-26T07:25:53Z</time>
      </trkpt>
      <trkpt lat="49.17846" lon="-0.79426">
        <ele>127.84</ele>
        <time>2021-03-26T07:26:05Z</time>
      </trkpt>
      <trkpt lat="49.17854" lon="-0.79087">
        <ele>129.23</ele>
        <time>2021-03-26T07:26:17Z</time>
      </trkpt>
      <trkpt lat="49.17869" lon="-0.78724">
        <ele>129.04</ele>
        <time>2021-03-26T07:26:28Z</time>
      </trkpt>
      <trkpt lat="49.17888" lon="-0.78193">
        <ele>127.14</ele>
        <time>2021-03-26T07:26:40Z</time>
      </trkpt>
      <trkpt lat="49.17893" lon="-0.781">
        <ele>129.71</ele>
        <time>2021-03-26T07:26:51Z</time>
      </trkpt>
      <trkpt lat="49.17964" lon="-0.77709">
        <ele>128.29</ele>
        <time>2021-03-26T07:27:03Z</time>
      </trkpt>
      <trkpt lat="49.18281" lon="-0.76069">
        <ele>122.48</ele>
        <time>2021-03-26T07:27:14Z</time>
      </trkpt>
      <trkpt lat="49.18508" lon="-0.74853">
        <ele>95.98</ele>
        <time>2021-03-26T07:27:26Z</time>
      </trkpt>
      <trkpt lat="49.18508" lon="-0.74818">
        <ele>94.73</ele>
        <time>2021-03-26T07:27:37Z</time>
      </trkpt>
      <trkpt lat="49.18505" lon="-0.74785">
        <ele>94.05</ele>
        <time>2021-03-26T07:27:49Z</time>
      </trkpt>
      <trkpt lat="49.18496" lon="-0.74751">
        <ele>94</ele>
        <time>2021-03-26T07:28:00Z</time>
      </trkpt>
      <trkpt lat="49.18028" lon="-0.736">
        <ele>75.4</ele>
        <time>2021-03-26T07:28:12Z</time>
      </trkpt>
      <trkpt lat="49.18015" lon="-0.73558">
        <ele>77.85</ele>
        <time>2021-03-26T07:28:23Z</time>
      </trkpt>
      <trkpt lat="49.18009" lon="-0.73507">
        <ele>80.32</ele>
        <time>2021-03-26T07:28:35Z</time>
      </trkpt>
      <trkpt lat="49.1801" lon="-0.7348">
        <ele>80.63</ele>
        <time>2021-03-26T07:28:46Z</time>
      </trkpt>
      <trkpt lat="49.18196" lon="-0.72569">
        <ele>93.02</ele>
        <time>2021-03-26T07:28:58Z</time>
      </trkpt>
      <trkpt lat="49.18208" lon="-0.72469">
        <ele>92.95</ele>
        <time>2021-03-26T07:29:09Z</time>
      </trkpt>
      <trkpt lat="49.18212" lon="-0.72389">
        <ele>92.29</ele>
        <time>2021-03-26T07:29:21Z</time>
      </trkpt>
      <trkpt lat="49.18213" lon="-0.72345">
        <ele>91.75</ele>
        <time>2021-03-26T07:29:32Z</time>
      </trkpt>
      <trkpt lat="49.18211" lon="-0.72298">
        <ele>90.32</ele>
        <time>2021-03-26T07:29:44Z</time>
      </trkpt>
      <trkpt lat="49.18197" lon="-0.72192">
        <ele>86.01</ele>
        <time>2021-03-26T07:29:55Z</time>
      </trkpt>
      <trkpt lat="49.1817" lon="-0.72073">
        <ele>80.88</ele>
        <time>2021-03-26T07:30:07Z</time>
      </trkpt>
      <trkpt lat="49.17863" lon="-0.71093">
        <ele>87.19</ele>
        <time>2021-03-26T07:30:18Z</time>
      </trkpt>
      <trkpt lat="49.17848" lon="-0.71037">
        <ele>92.24</ele>
        <time>2021-03-26T07:30:30Z</time>
      </trkpt>
      <trkpt lat="49.17846" lon="-0.71">
        <ele>94.56</ele>
        <time>2021-03-26T07:30:41Z</time>
      </trkpt>
      <trkpt lat="49.17854" lon="-0.7067">
        <ele>106.18</ele>
        <time>2021-03-26T07:30:53Z</time>
      </trkpt>
      <trkpt lat="49.17851" lon="-0.70603">
        <ele>107.11</ele>
        <time>2021-03-26T07:31:04Z</time>
      </trkpt>
      <trkpt lat="49.17789" lon="-0.69951">
        <ele>105.13</ele>
        <time>2021-03-26T07:31:16Z</time>
      </trkpt>
      <trkpt lat="49.17567" lon="-0.67541">
        <ele>82.63</ele>
        <time>2021-03-26T07:31:27Z</time>
      </trkpt>
      <trkpt lat="49.17525" lon="-0.67322">
        <ele>85.96</ele>
        <time>2021-03-26T07:31:39Z</time>
      </trkpt>
      <trkpt lat="49.17522" lon="-0.67302">
        <ele>87.36</ele>
        <time>2021-03-26T07:31:50Z</time>
      </trkpt>
      <trkpt lat="49.17511" lon="-0.67255">
        <ele>88.61</ele>
        <time>2021-03-26T07:32:02Z</time>
      </trkpt>
      <trkpt lat="49.17498" lon="-0.67176">
        <ele>89</ele>
        <time>2021-03-26T07:32:13Z</time>
      </trkpt>
      <trkpt lat="49.17376" lon="-0.66568">
        <ele>85.95</ele>
        <time>2021-03-26T07:32:25Z</time>
      </trkpt>
      <trkpt lat="49.1737" lon="-0.66528">
        <ele>86.67</ele>
        <time>2021-03-26T07:32:36Z</time>
      </trkpt>
      <trkpt lat="49.17371" lon="-0.66459">
        <ele>88.46</ele>
        <time>2021-03-26T07:32:48Z</time>
      </trkpt>
      <trkpt lat="49.17483" lon="-0.65332">
        <ele>93.22</ele>
        <time>2021-03-26T07:32:59Z</time>
      </trkpt>
      <trkpt lat="49.17509" lon="-0.65028">
        <ele>91</ele>
        <time>2021-03-26T07:33:11Z</time>
      </trkpt>
      <trkpt lat="49.17507" lon="-0.64969">
        <ele>89.88</ele>
        <time>2021-03-26T07:33:22Z</time>
      </trkpt>
      <trkpt lat="49.17471" lon="-0.64772">
        <ele>87.82</ele>
        <time>2021-03-26T07:33:34Z</time>
      </trkpt>
      <trkpt lat="49.17365" lon="-0.6416">
        <ele>91.85</ele>
        <time>2021-03-26T07:33:45Z</time>
      </trkpt>
      <trkpt lat="49.17359" lon="-0.64116">
        <ele>92.08</ele>
        <time>2021-03-26T07:33:57Z</time>
      </trkpt>
      <trkpt lat="49.1736" lon="-0.64088">
        <ele>92.05</ele>
        <time>2021-03-26T07:34:08Z</time>
      </trkpt>
      <trkpt lat="49.17371" lon="-0.63971">
        <ele>93</ele>
        <time>2021-03-26T07:34:20Z</time>
      </trkpt>
      <trkpt lat="49.1748" lon="-0.62977">
        <ele>78.17</ele>
        <time>2021-03-26T07:34:31Z</time>
      </trkpt>
      <trkpt lat="49.17502" lon="-0.62792">
        <ele>68.13</ele>
        <time>2021-03-26T07:34:43Z</time>
      </trkpt>
      <trkpt lat="49.17514" lon="-0.62734">
        <ele>66.11</ele>
        <time>2021-03-26T07:34:54Z</time>
      </trkpt>
      <trkpt lat="49.17526" lon="-0.62688">
        <ele>63.46</ele>
        <time>2021-03-26T07:35:06Z</time>
      </trkpt>
      <trkpt lat="49.17553" lon="-0.62601">
        <ele>60.49</ele>
        <time>2021-03-26T07:35:17Z</time>
      </trkpt>
      <trkpt lat="49.17561" lon="-0.62606">
        <ele>61.04</ele>
        <time>2021-03-26T07:35:18Z</time>
      </trkpt>
      <trkpt lat="49.1757" lon="-0.62588">
        <ele>60.7</ele>
        <time>2021-03-26T07:35:24Z</time>
      </trkpt>
      <trkpt lat="49.17587" lon="-0.62563">
        <ele>60.37</ele>
        <time>2021-03-26T07:35:31Z</time>
      </trkpt>
      <trkpt lat="49.17656" lon="-0.62472">
        <ele>58.01</ele>
        <time>2021-03-26T07:35:37Z</time>
      </trkpt>
      <trkpt lat="49.17738" lon="-0.62358">
        <ele>52.93</ele>
        <time>2021-03-26T07:35:43Z</time>
      </trkpt>
      <trkpt lat="49.17733" lon="-0.6235">
        <ele>52.85</ele>
        <time>2021-03-26T07:35:56Z</time>
      </trkpt>
      <trkpt lat="49.17732" lon="-0.6234">
        <ele>52.72</ele>
        <time>2021-03-26T07:36:09Z</time>
      </trkpt>
      <trkpt lat="49.17736" lon="-0.62331">
        <ele>52.46</ele>
        <time>2021-03-26T07:36:22Z</time>
      </trkpt>
      <trkpt lat="49.17743" lon="-0.62327">
        <ele>52.11</ele>
        <time>2021-03-26T07:36:35Z</time>
      </trkpt>
      <trkpt lat="49.17746" lon="-0.62328">
        <ele>51.98</ele>
        <time>2021-03-26T07:36:48Z</time>
      </trkpt>
      <trkpt lat="49.1775" lon="-0.62307">
        <ele>51.03</ele>
        <time>2021-03-26T07:37:01Z</time>
      </trkpt>
      <trkpt lat="49.17751" lon="-0.62295">
        <ele>50.99</ele>
        <time>2021-03-26T07:37:14Z</time>
      </trkpt>
      <trkpt lat="49.17751" lon="-0.62244">
        <ele>50.91</ele>
        <time>2021-03-26T07:37:27Z</time>
      </trkpt>
      <trkpt lat="49.17742" lon="-0.62005">
        <ele>55.46</ele>
        <time>2021-03-26T07:37:40Z</time>
      </trkpt>
      <trkpt lat="49.17741" lon="-0.61902">
        <ele>61.27</ele>
        <time>2021-03-26T07:37:53Z</time>
      </trkpt>
      <trkpt lat="49.17742" lon="-0.61888">
        <ele>62.33</ele>
        <time>2021-03-26T07:38:06Z</time>
      </trkpt>
      <trkpt lat="49.17748" lon="-0.61862">
        <ele>64.07</ele>
        <time>2021-03-26T07:38:19Z</time>
      </trkpt>
      <trkpt lat="49.17752" lon="-0.6185">
        <ele>64.21</ele>
        <time>2021-03-26T07:38:33Z</time>
      </trkpt>
      <trkpt lat="49.17856" lon="-0.61687">
        <ele>68.08</ele>
        <time>2021-03-26T07:38:46Z</time>
      </trkpt>
      <trkpt lat="49.17867" lon="-0.61658">
        <ele>70.45</ele>
        <time>2021-03-26T07:38:59Z</time>
      </trkpt>
      <trkpt lat="49.17869" lon="-0.61622">
        <ele>71.89</ele>
        <time>2021-03-26T07:39:12Z</time>
      </trkpt>
      <trkpt lat="49.178" lon="-0.61209">
        <ele>81.79</ele>
        <time>2021-03-26T07:39:25Z</time>
      </trkpt>
      <trkpt lat="49.17748" lon="-0.60912">
        <ele>81.17</ele>
        <time>2021-03-26T07:39:38Z</time>
      </trkpt>
      <trkpt lat="49.1746" lon="-0.59182">
        <ele>83.32</ele>
        <time>2021-03-26T07:39:51Z</time>
      </trkpt>
      <trkpt lat="49.17301" lon="-0.58238">
        <ele>84.82</ele>
        <time>2021-03-26T07:40:04Z</time>
      </trkpt>
      <trkpt lat="49.1725" lon="-0.57923">
        <ele>83.01</ele>
        <time>2021-03-26T07:40:17Z</time>
      </trkpt>
      <trkpt lat="49.17209" lon="-0.57695">
        <ele>87</ele>
        <time>2021-03-26T07:40:30Z</time>
      </trkpt>
      <trkpt lat="49.17062" lon="-0.56818">
        <ele>95.57</ele>
        <time>2021-03-26T07:40:43Z</time>
      </trkpt>
      <trkpt lat="49.17054" lon="-0.56788">
        <ele>95.92</ele>
        <time>2021-03-26T07:40:56Z</time>
      </trkpt>
      <trkpt lat="49.17279" lon="-0.54894">
        <ele>84</ele>
        <time>2021-03-26T07:41:09Z</time>
      </trkpt>
      <trkpt lat="49.17444" lon="-0.53539">
        <ele>80.61</ele>
        <time>2021-03-26T07:41:22Z</time>
      </trkpt>
      <trkpt lat="49.1753" lon="-0.52804">
        <ele>87.92</ele>
        <time>2021-03-26T07:41:35Z</time>
      </trkpt>
      <trkpt lat="49.17586" lon="-0.52344">
        <ele>87.34</ele>
        <time>2021-03-26T07:41:48Z</time>
      </trkpt>
      <trkpt lat="49.17627" lon="-0.51977">
        <ele>82.1</ele>
        <time>2021-03-26T07:42:01Z</time>
      </trkpt>
      <trkpt lat="49.17657" lon="-0.51728">
        <ele>77.74</ele>
        <time>2021-03-26T07:42:14Z</time>
      </trkpt>
      <trkpt lat="49.17694" lon="-0.51423">
        <ele>72.25</ele>
        <time>2021-03-26T07:42:27Z</time>
      </trkpt>
      <trkpt lat="49.17709" lon="-0.51275">
        <ele>71.57</ele>
        <time>2021-03-26T07:42:40Z</time>
      </trkpt>
      <trkpt lat="49.1771" lon="-0.51214">
        <ele>70.83</ele>
        <time>2021-03-26T07:42:53Z</time>
      </trkpt>
      <trkpt lat="49.17698" lon="-0.5107">
        <ele>66.86</ele>
        <time>2021-03-26T07:43:06Z</time>
      </trkpt>
      <trkpt lat="49.17695" lon="-0.51014">
        <ele>68.48</ele>
        <time>2021-03-26T07:43:20Z</time>
      </trkpt>
      <trkpt lat="49.17698" lon="-0.50882">
        <ele>72.25</ele>
        <time>2021-03-26T07:43:33Z</time>
      </trkpt>
      <trkpt lat="49.17703" lon="-0.508">
        <ele>74.67</ele>
        <time>2021-03-26T07:43:46Z</time>
      </trkpt>
      <trkpt lat="49.178" lon="-0.5016">
        <ele>80</ele>
        <time>2021-03-26T07:43:59Z</time>
      </trkpt>
      <trkpt lat="49.17811" lon="-0.5011">
        <ele>80</ele>
        <time>2021-03-26T07:44:12Z</time>
      </trkpt>
      <trkpt lat="49.17881" lon="-0.49897">
        <ele>77.57</ele>
        <time>2021-03-26T07:44:25Z</time>
      </trkpt>
      <trkpt lat="49.18071" lon="-0.49341">
        <ele>74</ele>
        <time>2021-03-26T07:44:38Z</time>
      </trkpt>
      <trkpt lat="49.18123" lon="-0.49178">
        <ele>72</ele>
        <time>2021-03-26T07:44:51Z</time>
      </trkpt>
      <trkpt lat="49.18125" lon="-0.49167">
        <ele>72</ele>
        <time>2021-03-26T07:45:04Z</time>
      </trkpt>
      <trkpt lat="49.18124" lon="-0.49152">
        <ele>72</ele>
        <time>2021-03-26T07:45:17Z</time>
      </trkpt>
      <trkpt lat="49.18119" lon="-0.49136">
        <ele>71.96</ele>
        <time>2021-03-26T07:45:24Z</time>
      </trkpt>
      <trkpt lat="49.1811" lon="-0.49123">
        <ele>72</ele>
        <time>2021-03-26T07:45:31Z</time>
      </trkpt>
      <trkpt lat="49.18098" lon="-0.49113">
        <ele>72</ele>
        <time>2021-03-26T07:45:38Z</time>
      </trkpt>
      <trkpt lat="49.18089" lon="-0.49103">
        <ele>71.94</ele>
        <time>2021-03-26T07:45:45Z</time>
      </trkpt>
      <trkpt lat="49.18033" lon="-0.49058">
        <ele>72</ele>
        <time>2021-03-26T07:45:52Z</time>
      </trkpt>
      <trkpt lat="49.17996" lon="-0.49018">
        <ele>71.94</ele>
        <time>2021-03-26T07:45:59Z</time>
      </trkpt>
      <trkpt lat="49.17969" lon="-0.48957">
        <ele>71.56</ele>
        <time>2021-03-26T07:46:06Z</time>
      </trkpt>
      <trkpt lat="49.17942" lon="-0.48826">
        <ele>71.07</ele>
        <time>2021-03-26T07:46:14Z</time>
      </trkpt>
      <trkpt lat="49.17916" lon="-0.48739">
        <ele>72.41</ele>
        <time>2021-03-26T07:46:21Z</time>
      </trkpt>
      <trkpt lat="49.17891" lon="-0.48684">
        <ele>73.36</ele>
        <time>2021-03-26T07:46:28Z</time>
      </trkpt>
      <trkpt lat="49.1786" lon="-0.48637">
        <ele>74.89</ele>
        <time>2021-03-26T07:46:35Z</time>
      </trkpt>
      <trkpt lat="49.17813" lon="-0.48591">
        <ele>74.07</ele>
        <time>2021-03-26T07:46:42Z</time>
      </trkpt>
      <trkpt lat="49.17621" lon="-0.48454">
        <ele>76.86</ele>
        <time>2021-03-26T07:46:49Z</time>
      </trkpt>
      <trkpt lat="49.17331" lon="-0.48264">
        <ele>83.1</ele>
        <time>2021-03-26T07:46:56Z</time>
      </trkpt>
      <trkpt lat="49.17089" lon="-0.48093">
        <ele>82.57</ele>
        <time>2021-03-26T07:47:03Z</time>
      </trkpt>
      <trkpt lat="49.16963" lon="-0.48026">
        <ele>76.98</ele>
        <time>2021-03-26T07:47:10Z</time>
      </trkpt>
      <trkpt lat="49.1689" lon="-0.4793">
        <ele>75.05</ele>
        <time>2021-03-26T07:47:17Z</time>
      </trkpt>
      <trkpt lat="49.16755" lon="-0.47785">
        <ele>69.31</ele>
        <time>2021-03-26T07:47:24Z</time>
      </trkpt>
      <trkpt lat="49.16688" lon="-0.47714">
        <ele>66.93</ele>
        <time>2021-03-26T07:47:31Z</time>
      </trkpt>
      <trkpt lat="49.16492" lon="-0.47514">
        <ele>61.46</ele>
        <time>2021-03-26T07:47:39Z</time>
      </trkpt>
      <trkpt lat="49.16239" lon="-0.47219">
        <ele>64.93</ele>
        <time>2021-03-26T07:47:46Z</time>
      </trkpt>
      <trkpt lat="49.1615" lon="-0.47134">
        <ele>68</ele>
        <time>2021-03-26T07:47:53Z</time>
      </trkpt>
      <trkpt lat="49.16058" lon="-0.47046">
        <ele>67.94</ele>
        <time>2021-03-26T07:48:00Z</time>
      </trkpt>
      <trkpt lat="49.16015" lon="-0.46991">
        <ele>69.48</ele>
        <time>2021-03-26T07:48:07Z</time>
      </trkpt>
      <trkpt lat="49.15968" lon="-0.46919">
        <ele>69.32</ele>
        <time>2021-03-26T07:48:14Z</time>
      </trkpt>
      <trkpt lat="49.15945" lon="-0.46897">
        <ele>70.99</ele>
        <time>2021-03-26T07:48:21Z</time>
      </trkpt>
      <trkpt lat="49.15851" lon="-0.46832">
        <ele>69.65</ele>
        <time>2021-03-26T07:48:28Z</time>
      </trkpt>
      <trkpt lat="49.15823" lon="-0.46808">
        <ele>69</ele>
        <time>2021-03-26T07:48:35Z</time>
      </trkpt>
      <trkpt lat="49.15798" lon="-0.46763">
        <ele>68.61</ele>
        <time>2021-03-26T07:48:42Z</time>
      </trkpt>
      <trkpt lat="49.15786" lon="-0.46739">
        <ele>68.42</ele>
        <time>2021-03-26T07:48:49Z</time>
      </trkpt>
      <trkpt lat="49.15772" lon="-0.46723">
        <ele>68.02</ele>
        <time>2021-03-26T07:48:57Z</time>
      </trkpt>
      <trkpt lat="49.1577" lon="-0.46731">
        <ele>68.21</ele>
        <time>2021-03-26T07:48:57Z</time>
      </trkpt>
      <trkpt lat="49.15765" lon="-0.46736">
        <ele>68.28</ele>
        <time>2021-03-26T07:48:58Z</time>
      </trkpt>
      <trkpt lat="49.1576" lon="-0.4674">
        <ele>68.22</ele>
        <time>2021-03-26T07:48:59Z</time>
      </trkpt>
      <trkpt lat="49.15754" lon="-0.4674">
        <ele>68.1</ele>
        <time>2021-03-26T07:49:00Z</time>
      </trkpt>
      <trkpt lat="49.15749" lon="-0.46738">
        <ele>67.94</ele>
        <time>2021-03-26T07:49:01Z</time>
      </trkpt>
      <trkpt lat="49.15744" lon="-0.46732">
        <ele>67.66</ele>
        <time>2021-03-26T07:49:02Z</time>
      </trkpt>
      <trkpt lat="49.15741" lon="-0.46725">
        <ele>67.39</ele>
        <time>2021-03-26T07:49:02Z</time>
      </trkpt>
      <trkpt lat="49.1574" lon="-0.46709">
        <ele>66.79</ele>
        <time>2021-03-26T07:49:03Z</time>
      </trkpt>
      <trkpt lat="49.15745" lon="-0.46695">
        <ele>66.69</ele>
        <time>2021-03-26T07:49:04Z</time>
      </trkpt>
      <trkpt lat="49.1575" lon="-0.46691">
        <ele>67</ele>
        <time>2021-03-26T07:49:05Z</time>
      </trkpt>
      <trkpt lat="49.15761" lon="-0.4669">
        <ele>67.38</ele>
        <time>2021-03-26T07:49:06Z</time>
      </trkpt>
      <trkpt lat="49.15766" lon="-0.46693">
        <ele>67.56</ele>
        <time>2021-03-26T07:49:07Z</time>
      </trkpt>
      <trkpt lat="49.1577" lon="-0.46699">
        <ele>67.75</ele>
        <time>2021-03-26T07:49:08Z</time>
      </trkpt>
      <trkpt lat="49.15773" lon="-0.46715">
        <ele>67.96</ele>
        <time>2021-03-26T07:49:08Z</time>
      </trkpt>
      <trkpt lat="49.15772" lon="-0.46723">
        <ele>68.02</ele>
        <time>2021-03-26T07:49:09Z</time>
      </trkpt>
      <trkpt lat="49.15786" lon="-0.46739">
        <ele>68.42</ele>
        <time>2021-03-26T07:49:10Z</time>
      </trkpt>
      <trkpt lat="49.15798" lon="-0.46763">
        <ele>68.61</ele>
        <time>2021-03-26T07:49:11Z</time>
      </trkpt>
      <trkpt lat="49.15811" lon="-0.46767">
        <ele>68.43</ele>
        <time>2021-03-26T07:49:23Z</time>
      </trkpt>
      <trkpt lat="49.1582" lon="-0.46762">
        <ele>67.9</ele>
        <time>2021-03-26T07:49:34Z</time>
      </trkpt>
      <trkpt lat="49.15876" lon="-0.46688">
        <ele>66.64</ele>
        <time>2021-03-26T07:49:46Z</time>
      </trkpt>
      <trkpt lat="49.15895" lon="-0.4665">
        <ele>67</ele>
        <time>2021-03-26T07:49:57Z</time>
      </trkpt>
      <trkpt lat="49.15923" lon="-0.46566">
        <ele>67.13</ele>
        <time>2021-03-26T07:50:09Z</time>
      </trkpt>
      <trkpt lat="49.16291" lon="-0.44582">
        <ele>46.48</ele>
        <time>2021-03-26T07:50:20Z</time>
      </trkpt>
      <trkpt lat="49.1634" lon="-0.443">
        <ele>43.55</ele>
        <time>2021-03-26T07:50:32Z</time>
      </trkpt>
      <trkpt lat="49.16376" lon="-0.4406">
        <ele>37.83</ele>
        <time>2021-03-26T07:50:43Z</time>
      </trkpt>
      <trkpt lat="49.16436" lon="-0.43598">
        <ele>39.66</ele>
        <time>2021-03-26T07:50:55Z</time>
      </trkpt>
      <trkpt lat="49.16473" lon="-0.43311">
        <ele>38.08</ele>
        <time>2021-03-26T07:51:06Z</time>
      </trkpt>
      <trkpt lat="49.16477" lon="-0.43177">
        <ele>34.74</ele>
        <time>2021-03-26T07:51:12Z</time>
      </trkpt>
      <trkpt lat="49.16476" lon="-0.43138">
        <ele>32.22</ele>
        <time>2021-03-26T07:51:18Z</time>
      </trkpt>
      <trkpt lat="49.16474" lon="-0.43123">
        <ele>31.52</ele>
        <time>2021-03-26T07:51:24Z</time>
      </trkpt>
      <trkpt lat="49.16468" lon="-0.43096">
        <ele>31.42</ele>
        <time>2021-03-26T07:51:30Z</time>
      </trkpt>
      <trkpt lat="49.16456" lon="-0.43069">
        <ele>32.63</ele>
        <time>2021-03-26T07:51:36Z</time>
      </trkpt>
      <trkpt lat="49.16449" lon="-0.43056">
        <ele>32.84</ele>
        <time>2021-03-26T07:51:41Z</time>
      </trkpt>
      <trkpt lat="49.16408" lon="-0.43">
        <ele>32.71</ele>
        <time>2021-03-26T07:51:47Z</time>
      </trkpt>
      <trkpt lat="49.1639" lon="-0.42971">
        <ele>32.02</ele>
        <time>2021-03-26T07:51:53Z</time>
      </trkpt>
      <trkpt lat="49.16377" lon="-0.4294">
        <ele>31.02</ele>
        <time>2021-03-26T07:51:59Z</time>
      </trkpt>
      <trkpt lat="49.16356" lon="-0.4287">
        <ele>28.31</ele>
        <time>2021-03-26T07:52:05Z</time>
      </trkpt>
      <trkpt lat="49.16342" lon="-0.4284">
        <ele>27.22</ele>
        <time>2021-03-26T07:52:11Z</time>
      </trkpt>
      <trkpt lat="49.16336" lon="-0.4283">
        <ele>27</ele>
        <time>2021-03-26T07:52:17Z</time>
      </trkpt>
      <trkpt lat="49.16318" lon="-0.42813">
        <ele>26.59</ele>
        <time>2021-03-26T07:52:23Z</time>
      </trkpt>
      <trkpt lat="49.1626" lon="-0.42802">
        <ele>27</ele>
        <time>2021-03-26T07:52:29Z</time>
      </trkpt>
      <trkpt lat="49.16156" lon="-0.42779">
        <ele>25.69</ele>
        <time>2021-03-26T07:52:34Z</time>
      </trkpt>
      <trkpt lat="49.16047" lon="-0.42737">
        <ele>17</ele>
        <time>2021-03-26T07:52:40Z</time>
      </trkpt>
      <trkpt lat="49.16039" lon="-0.42725">
        <ele>17</ele>
        <time>2021-03-26T07:52:46Z</time>
      </trkpt>
      <trkpt lat="49.1599" lon="-0.42701">
        <ele>16.14</ele>
        <time>2021-03-26T07:52:52Z</time>
      </trkpt>
      <trkpt lat="49.15921" lon="-0.42657">
        <ele>16.71</ele>
        <time>2021-03-26T07:52:58Z</time>
      </trkpt>
      <trkpt lat="49.15897" lon="-0.42639">
        <ele>15.27</ele>
        <time>2021-03-26T07:53:04Z</time>
      </trkpt>
      <trkpt lat="49.15822" lon="-0.42575">
        <ele>14.95</ele>
        <time>2021-03-26T07:53:10Z</time>
      </trkpt>
      <trkpt lat="49.15775" lon="-0.42528">
        <ele>17.33</ele>
        <time>2021-03-26T07:53:16Z</time>
      </trkpt>
      <trkpt lat="49.15715" lon="-0.42457">
        <ele>26.29</ele>
        <time>2021-03-26T07:53:22Z</time>
      </trkpt>
      <trkpt lat="49.14961" lon="-0.4143">
        <ele>44.28</ele>
        <time>2021-03-26T07:53:27Z</time>
      </trkpt>
      <trkpt lat="49.14803" lon="-0.41211">
        <ele>43.53</ele>
        <time>2021-03-26T07:53:33Z</time>
      </trkpt>
      <trkpt lat="49.14717" lon="-0.41082">
        <ele>40.41</ele>
        <time>2021-03-26T07:53:39Z</time>
      </trkpt>
      <trkpt lat="49.14616" lon="-0.40919">
        <ele>36.22</ele>
        <time>2021-03-26T07:53:45Z</time>
      </trkpt>
      <trkpt lat="49.145" lon="-0.40713">
        <ele>31.99</ele>
        <time>2021-03-26T07:53:51Z</time>
      </trkpt>
      <trkpt lat="49.14355" lon="-0.40432">
        <ele>22.65</ele>
        <time>2021-03-26T07:53:57Z</time>
      </trkpt>
      <trkpt lat="49.14208" lon="-0.40163">
        <ele>9.38</ele>
        <time>2021-03-26T07:54:03Z</time>
      </trkpt>
      <trkpt lat="49.14135" lon="-0.40024">
        <ele>7.43</ele>
        <time>2021-03-26T07:54:09Z</time>
      </trkpt>
      <trkpt lat="49.1386" lon="-0.39486">
        <ele>7.43</ele>
        <time>2021-03-26T07:54:14Z</time>
      </trkpt>
      <trkpt lat="49.1378" lon="-0.39323">
        <ele>10.55</ele>
        <time>2021-03-26T07:54:20Z</time>
      </trkpt>
      <trkpt lat="49.13763" lon="-0.3928">
        <ele>13.22</ele>
        <time>2021-03-26T07:54:26Z</time>
      </trkpt>
      <trkpt lat="49.13731" lon="-0.39187">
        <ele>16.67</ele>
        <time>2021-03-26T07:54:32Z</time>
      </trkpt>
      <trkpt lat="49.13713" lon="-0.39113">
        <ele>19.19</ele>
        <time>2021-03-26T07:54:38Z</time>
      </trkpt>
      <trkpt lat="49.13698" lon="-0.39039">
        <ele>18.12</ele>
        <time>2021-03-26T07:54:44Z</time>
      </trkpt>
      <trkpt lat="49.13684" lon="-0.38936">
        <ele>19.5</ele>
        <time>2021-03-26T07:54:50Z</time>
      </trkpt>
      <trkpt lat="49.1367" lon="-0.38714">
        <ele>19.39</ele>
        <time>2021-03-26T07:54:56Z</time>
      </trkpt>
      <trkpt lat="49.13646" lon="-0.38303">
        <ele>30.76</ele>
        <time>2021-03-26T07:55:02Z</time>
      </trkpt>
      <trkpt lat="49.13616" lon="-0.38006">
        <ele>42.42</ele>
        <time>2021-03-26T07:55:07Z</time>
      </trkpt>
      <trkpt lat="49.13584" lon="-0.37725">
        <ele>53.89</ele>
        <time>2021-03-26T07:55:12Z</time>
      </trkpt>
      <trkpt lat="49.1358" lon="-0.37715">
        <ele>53.76</ele>
        <time>2021-03-26T07:55:17Z</time>
      </trkpt>
      <trkpt lat="49.13575" lon="-0.3771">
        <ele>53.56</ele>
        <time>2021-03-26T07:55:22Z</time>
      </trkpt>
      <trkpt lat="49.13566" lon="-0.37697">
        <ele>53.1</ele>
        <time>2021-03-26T07:55:25Z</time>
      </trkpt>
      <trkpt lat="49.13558" lon="-0.37675">
        <ele>53</ele>
        <time>2021-03-26T07:55:29Z</time>
      </trkpt>
      <trkpt lat="49.13554" lon="-0.37649">
        <ele>53.67</ele>
        <time>2021-03-26T07:55:32Z</time>
      </trkpt>
      <trkpt lat="49.13558" lon="-0.37625">
        <ele>54.47</ele>
        <time>2021-03-26T07:55:36Z</time>
      </trkpt>
      <trkpt lat="49.13565" lon="-0.37606">
        <ele>54.72</ele>
        <time>2021-03-26T07:55:39Z</time>
      </trkpt>
      <trkpt lat="49.13577" lon="-0.37585">
        <ele>54.96</ele>
        <time>2021-03-26T07:55:42Z</time>
      </trkpt>
      <trkpt lat="49.13581" lon="-0.37567">
        <ele>55.04</ele>
        <time>2021-03-26T07:55:46Z</time>
      </trkpt>
      <trkpt lat="49.13585" lon="-0.37491">
        <ele>56.62</ele>
        <time>2021-03-26T07:55:49Z</time>
      </trkpt>
      <trkpt lat="49.13588" lon="-0.37455">
        <ele>55.9</ele>
        <time>2021-03-26T07:55:53Z</time>
      </trkpt>
      <trkpt lat="49.13597" lon="-0.37395">
        <ele>55.04</ele>
        <time>2021-03-26T07:55:56Z</time>
      </trkpt>
      <trkpt lat="49.13618" lon="-0.37283">
        <ele>55.63</ele>
        <time>2021-03-26T07:55:59Z</time>
      </trkpt>
      <trkpt lat="49.13628" lon="-0.37241">
        <ele>55.38</ele>
        <time>2021-03-26T07:56:03Z</time>
      </trkpt>
      <trkpt lat="49.13663" lon="-0.37137">
        <ele>55.01</ele>
        <time>2021-03-26T07:56:06Z</time>
      </trkpt>
      <trkpt lat="49.13684" lon="-0.37078">
        <ele>53.46</ele>
        <time>2021-03-26T07:56:10Z</time>
      </trkpt>
      <trkpt lat="49.13701" lon="-0.37034">
        <ele>49.76</ele>
        <time>2021-03-26T07:56:13Z</time>
      </trkpt>
      <trkpt lat="49.13739" lon="-0.36956">
        <ele>49.65</ele>
        <time>2021-03-26T07:56:17Z</time>
      </trkpt>
      <trkpt lat="49.13763" lon="-0.36913">
        <ele>49</ele>
        <time>2021-03-26T07:56:20Z</time>
      </trkpt>
      <trkpt lat="49.13783" lon="-0.36882">
        <ele>48.81</ele>
        <time>2021-03-26T07:56:23Z</time>
      </trkpt>
      <trkpt lat="49.13836" lon="-0.3681">
        <ele>46.89</ele>
        <time>2021-03-26T07:56:27Z</time>
      </trkpt>
      <trkpt lat="49.13882" lon="-0.36759">
        <ele>46.91</ele>
        <time>2021-03-26T07:56:30Z</time>
      </trkpt>
      <trkpt lat="49.14494" lon="-0.36161">
        <ele>34.86</ele>
        <time>2021-03-26T07:56:34Z</time>
      </trkpt>
      <trkpt lat="49.14525" lon="-0.36124">
        <ele>32.33</ele>
        <time>2021-03-26T07:56:37Z</time>
      </trkpt>
      <trkpt lat="49.14553" lon="-0.36088">
        <ele>31.13</ele>
        <time>2021-03-26T07:56:41Z</time>
      </trkpt>
      <trkpt lat="49.14576" lon="-0.36055">
        <ele>29.55</ele>
        <time>2021-03-26T07:56:44Z</time>
      </trkpt>
      <trkpt lat="49.14597" lon="-0.36021">
        <ele>28.75</ele>
        <time>2021-03-26T07:56:47Z</time>
      </trkpt>
      <trkpt lat="49.14626" lon="-0.35967">
        <ele>30</ele>
        <time>2021-03-26T07:56:51Z</time>
      </trkpt>
      <trkpt lat="49.1465" lon="-0.35915">
        <ele>31</ele>
        <time>2021-03-26T07:56:54Z</time>
      </trkpt>
      <trkpt lat="49.14668" lon="-0.35872">
        <ele>30.32</ele>
        <time>2021-03-26T07:56:58Z</time>
      </trkpt>
      <trkpt lat="49.14686" lon="-0.35823">
        <ele>27.47</ele>
        <time>2021-03-26T07:57:01Z</time>
      </trkpt>
      <trkpt lat="49.14699" lon="-0.3578">
        <ele>25.06</ele>
        <time>2021-03-26T07:57:05Z</time>
      </trkpt>
      <trkpt lat="49.14722" lon="-0.35687">
        <ele>26.97</ele>
        <time>2021-03-26T07:57:08Z</time>
      </trkpt>
      <trkpt lat="49.14733" lon="-0.35626">
        <ele>25.43</ele>
        <time>2021-03-26T07:57:11Z</time>
      </trkpt>
      <trkpt lat="49.14745" lon="-0.35528">
        <ele>24.01</ele>
        <time>2021-03-26T07:57:15Z</time>
      </trkpt>
      <trkpt lat="49.14751" lon="-0.35447">
        <ele>25.1</ele>
        <time>2021-03-26T07:57:18Z</time>
      </trkpt>
      <trkpt lat="49.14755" lon="-0.35356">
        <ele>23</ele>
        <time>2021-03-26T07:57:22Z</time>
      </trkpt>
      <trkpt lat="49.14748" lon="-0.35271">
        <ele>22.5</ele>
        <time>2021-03-26T07:57:24Z</time>
      </trkpt>
      <trkpt lat="49.14741" lon="-0.3522">
        <ele>20.27</ele>
        <time>2021-03-26T07:57:26Z</time>
      </trkpt>
      <trkpt lat="49.14734" lon="-0.35192">
        <ele>20.21</ele>
        <time>2021-03-26T07:57:29Z</time>
      </trkpt>
      <trkpt lat="49.14725" lon="-0.35168">
        <ele>20.89</ele>
        <time>2021-03-26T07:57:31Z</time>
      </trkpt>
      <trkpt lat="49.14689" lon="-0.35081">
        <ele>23.27</ele>
        <time>2021-03-26T07:57:33Z</time>
      </trkpt>
      <trkpt lat="49.14686" lon="-0.3505">
        <ele>24.06</ele>
        <time>2021-03-26T07:57:36Z</time>
      </trkpt>
      <trkpt lat="49.1468" lon="-0.35045">
        <ele>24.2</ele>
        <time>2021-03-26T07:57:44Z</time>
      </trkpt>
      <trkpt lat="49.14678" lon="-0.35031">
        <ele>24.53</ele>
        <time>2021-03-26T07:57:52Z</time>
      </trkpt>
      <trkpt lat="49.14681" lon="-0.35022">
        <ele>24.48</ele>
        <time>2021-03-26T07:58:00Z</time>
      </trkpt>
      <trkpt lat="49.14689" lon="-0.35017">
        <ele>24.21</ele>
        <time>2021-03-26T07:58:07Z</time>
      </trkpt>
      <trkpt lat="49.14699" lon="-0.34982">
        <ele>22.93</ele>
        <time>2021-03-26T07:58:15Z</time>
      </trkpt>
      <trkpt lat="49.14703" lon="-0.3486">
        <ele>20.3</ele>
        <time>2021-03-26T07:58:23Z</time>
      </trkpt>
      <trkpt lat="49.14699" lon="-0.34806">
        <ele>20.99</ele>
        <time>2021-03-26T07:58:31Z</time>
      </trkpt>
      <trkpt lat="49.14688" lon="-0.34723">
        <ele>20.26</ele>
        <time>2021-03-26T07:58:39Z</time>
      </trkpt>
      <trkpt lat="49.14636" lon="-0.34528">
        <ele>19.01</ele>
        <time>2021-03-26T07:58:47Z</time>
      </trkpt>
      <trkpt lat="49.14623" lon="-0.3447">
        <ele>21.5</ele>
        <time>2021-03-26T07:58:55Z</time>
      </trkpt>
      <trkpt lat="49.14603" lon="-0.34365">
        <ele>21.95</ele>
        <time>2021-03-26T07:59:03Z</time>
      </trkpt>
      <trkpt lat="49.14586" lon="-0.34254">
        <ele>23.67</ele>
        <time>2021-03-26T07:59:10Z</time>
      </trkpt>
      <trkpt lat="49.14571" lon="-0.34114">
        <ele>29.32</ele>
        <time>2021-03-26T07:59:18Z</time>
      </trkpt>
      <trkpt lat="49.14564" lon="-0.33991">
        <ele>33</ele>
        <time>2021-03-26T07:59:26Z</time>
      </trkpt>
      <trkpt lat="49.14561" lon="-0.33852">
        <ele>35.07</ele>
        <time>2021-03-26T07:59:34Z</time>
      </trkpt>
      <trkpt lat="49.14565" lon="-0.33725">
        <ele>33.63</ele>
        <time>2021-03-26T07:59:42Z</time>
      </trkpt>
      <trkpt lat="49.14617" lon="-0.33018">
        <ele>33.37</ele>
        <time>2021-03-26T07:59:50Z</time>
      </trkpt>
      <trkpt lat="49.14632" lon="-0.32848">
        <ele>35.36</ele>
        <time>2021-03-26T07:59:58Z</time>
      </trkpt>
      <trkpt lat="49.14646" lon="-0.32746">
        <ele>33.88</ele>
        <time>2021-03-26T08:00:06Z</time>
      </trkpt>
      <trkpt lat="49.14657" lon="-0.32686">
        <ele>34.39</ele>
        <time>2021-03-26T08:00:14Z</time>
      </trkpt>
      <trkpt lat="49.14682" lon="-0.32566">
        <ele>34.09</ele>
        <time>2021-03-26T08:00:21Z</time>
      </trkpt>
      <trkpt lat="49.14715" lon="-0.32442">
        <ele>33.26</ele>
        <time>2021-03-26T08:00:29Z</time>
      </trkpt>
      <trkpt lat="49.14757" lon="-0.32316">
        <ele>30.81</ele>
        <time>2021-03-26T08:00:37Z</time>
      </trkpt>
      <trkpt lat="49.1478" lon="-0.32257">
        <ele>32.09</ele>
        <time>2021-03-26T08:00:45Z</time>
      </trkpt>
      <trkpt lat="49.14833" lon="-0.3214">
        <ele>33.06</ele>
        <time>2021-03-26T08:00:53Z</time>
      </trkpt>
      <trkpt lat="49.14876" lon="-0.32058">
        <ele>31</ele>
        <time>2021-03-26T08:01:01Z</time>
      </trkpt>
      <trkpt lat="49.14914" lon="-0.31993">
        <ele>30.32</ele>
        <time>2021-03-26T08:01:09Z</time>
      </trkpt>
      <trkpt lat="49.14958" lon="-0.31928">
        <ele>31.15</ele>
        <time>2021-03-26T08:01:17Z</time>
      </trkpt>
      <trkpt lat="49.15015" lon="-0.31849">
        <ele>30.67</ele>
        <time>2021-03-26T08:01:25Z</time>
      </trkpt>
      <trkpt lat="49.15095" lon="-0.31759">
        <ele>28.97</ele>
        <time>2021-03-26T08:01:32Z</time>
      </trkpt>
      <trkpt lat="49.15142" lon="-0.31713">
        <ele>28.8</ele>
        <time>2021-03-26T08:01:40Z</time>
      </trkpt>
      <trkpt lat="49.1535" lon="-0.31528">
        <ele>25.81</ele>
        <time>2021-03-26T08:01:48Z</time>
      </trkpt>
      <trkpt lat="49.15574" lon="-0.31323">
        <ele>23.08</ele>
        <time>2021-03-26T08:01:56Z</time>
      </trkpt>
      <trkpt lat="49.1608" lon="-0.30864">
        <ele>16.21</ele>
        <time>2021-03-26T08:02:04Z</time>
      </trkpt>
      <trkpt lat="49.16333" lon="-0.3063">
        <ele>16.69</ele>
        <time>2021-03-26T08:02:12Z</time>
      </trkpt>
      <trkpt lat="49.16375" lon="-0.30591">
        <ele>16</ele>
        <time>2021-03-26T08:02:20Z</time>
      </trkpt>
      <trkpt lat="49.16571" lon="-0.30419">
        <ele>18.04</ele>
        <time>2021-03-26T08:02:28Z</time>
      </trkpt>
      <trkpt lat="49.16656" lon="-0.30341">
        <ele>17.44</ele>
        <time>2021-03-26T08:02:36Z</time>
      </trkpt>
      <trkpt lat="49.16683" lon="-0.30301">
        <ele>18.28</ele>
        <time>2021-03-26T08:02:38Z</time>
      </trkpt>
      <trkpt lat="49.16721" lon="-0.30253">
        <ele>19.93</ele>
        <time>2021-03-26T08:02:45Z</time>
      </trkpt>
      <trkpt lat="49.16735" lon="-0.3023">
        <ele>19.52</ele>
        <time>2021-03-26T08:02:52Z</time>
      </trkpt>
      <trkpt lat="49.16743" lon="-0.30214">
        <ele>19.26</ele>
        <time>2021-03-26T08:03:00Z</time>
      </trkpt>
      <trkpt lat="49.16749" lon="-0.30195">
        <ele>19.05</ele>
        <time>2021-03-26T08:03:07Z</time>
      </trkpt>
      <trkpt lat="49.16757" lon="-0.30154">
        <ele>19.87</ele>
        <time>2021-03-26T08:03:14Z</time>
      </trkpt>
      <trkpt lat="49.16775" lon="-0.30011">
        <ele>23</ele>
        <time>2021-03-26T08:03:21Z</time>
      </trkpt>
      <trkpt lat="49.16786" lon="-0.29907">
        <ele>22.16</ele>
        <time>2021-03-26T08:03:28Z</time>
      </trkpt>
      <trkpt lat="49.16787" lon="-0.29876">
        <ele>22.45</ele>
        <time>2021-03-26T08:03:35Z</time>
      </trkpt>
      <trkpt lat="49.16786" lon="-0.29782">
        <ele>23.11</ele>
        <time>2021-03-26T08:03:42Z</time>
      </trkpt>
      <trkpt lat="49.16782" lon="-0.29726">
        <ele>20.27</ele>
        <time>2021-03-26T08:03:50Z</time>
      </trkpt>
      <trkpt lat="49.16773" lon="-0.29664">
        <ele>19.28</ele>
        <time>2021-03-26T08:03:57Z</time>
      </trkpt>
      <trkpt lat="49.16774" lon="-0.29644">
        <ele>19.95</ele>
        <time>2021-03-26T08:04:04Z</time>
      </trkpt>
      <trkpt lat="49.16757" lon="-0.29556">
        <ele>20.5</ele>
        <time>2021-03-26T08:04:11Z</time>
      </trkpt>
      <trkpt lat="49.16746" lon="-0.29488">
        <ele>19.94</ele>
        <time>2021-03-26T08:04:18Z</time>
      </trkpt>
      <trkpt lat="49.16722" lon="-0.29296">
        <ele>22.99</ele>
        <time>2021-03-26T08:04:25Z</time>
      </trkpt>
      <trkpt lat="49.16715" lon="-0.29205">
        <ele>21.53</ele>
        <time>2021-03-26T08:04:33Z</time>
      </trkpt>
      <trkpt lat="49.16705" lon="-0.29045">
        <ele>19.59</ele>
        <time>2021-03-26T08:04:40Z</time>
      </trkpt>
      <trkpt lat="49.16702" lon="-0.2893">
        <ele>21.32</ele>
        <time>2021-03-26T08:04:47Z</time>
      </trkpt>
      <trkpt lat="49.16698" lon="-0.28702">
        <ele>15</ele>
        <time>2021-03-26T08:04:54Z</time>
      </trkpt>
      <trkpt lat="49.16699" lon="-0.28511">
        <ele>14.16</ele>
        <time>2021-03-26T08:05:01Z</time>
      </trkpt>
      <trkpt lat="49.16706" lon="-0.28188">
        <ele>19.96</ele>
        <time>2021-03-26T08:05:08Z</time>
      </trkpt>
      <trkpt lat="49.16712" lon="-0.28038">
        <ele>18.47</ele>
        <time>2021-03-26T08:05:16Z</time>
      </trkpt>
      <trkpt lat="49.16721" lon="-0.27871">
        <ele>19.29</ele>
        <time>2021-03-26T08:05:23Z</time>
      </trkpt>
      <trkpt lat="49.16739" lon="-0.27586">
        <ele>17.72</ele>
        <time>2021-03-26T08:05:30Z</time>
      </trkpt>
      <trkpt lat="49.16779" lon="-0.27003">
        <ele>19.95</ele>
        <time>2021-03-26T08:05:37Z</time>
      </trkpt>
      <trkpt lat="49.16793" lon="-0.26723">
        <ele>19.98</ele>
        <time>2021-03-26T08:05:44Z</time>
      </trkpt>
      <trkpt lat="49.16804" lon="-0.26458">
        <ele>19.44</ele>
        <time>2021-03-26T08:05:51Z</time>
      </trkpt>
      <trkpt lat="49.16813" lon="-0.26075">
        <ele>17.73</ele>
        <time>2021-03-26T08:05:59Z</time>
      </trkpt>
      <trkpt lat="49.16815" lon="-0.25798">
        <ele>18.26</ele>
        <time>2021-03-26T08:06:06Z</time>
      </trkpt>
      <trkpt lat="49.16814" lon="-0.25253">
        <ele>18.08</ele>
        <time>2021-03-26T08:06:13Z</time>
      </trkpt>
      <trkpt lat="49.16807" lon="-0.23664">
        <ele>15.85</ele>
        <time>2021-03-26T08:06:20Z</time>
      </trkpt>
      <trkpt lat="49.16806" lon="-0.23202">
        <ele>14.02</ele>
        <time>2021-03-26T08:06:27Z</time>
      </trkpt>
      <trkpt lat="49.16807" lon="-0.23094">
        <ele>15</ele>
        <time>2021-03-26T08:06:34Z</time>
      </trkpt>
      <trkpt lat="49.16812" lon="-0.22892">
        <ele>15.38</ele>
        <time>2021-03-26T08:06:41Z</time>
      </trkpt>
      <trkpt lat="49.16823" lon="-0.2271">
        <ele>13.39</ele>
        <time>2021-03-26T08:06:49Z</time>
      </trkpt>
      <trkpt lat="49.16831" lon="-0.2261">
        <ele>14.08</ele>
        <time>2021-03-26T08:06:56Z</time>
      </trkpt>
      <trkpt lat="49.16847" lon="-0.22453">
        <ele>12</ele>
        <time>2021-03-26T08:07:03Z</time>
      </trkpt>
      <trkpt lat="49.16869" lon="-0.22294">
        <ele>12.31</ele>
        <time>2021-03-26T08:07:10Z</time>
      </trkpt>
      <trkpt lat="49.16888" lon="-0.22174">
        <ele>12.73</ele>
        <time>2021-03-26T08:07:17Z</time>
      </trkpt>
      <trkpt lat="49.1693" lon="-0.21968">
        <ele>13.92</ele>
        <time>2021-03-26T08:07:24Z</time>
      </trkpt>
      <trkpt lat="49.16969" lon="-0.21805">
        <ele>10</ele>
        <time>2021-03-26T08:07:32Z</time>
      </trkpt>
      <trkpt lat="49.16997" lon="-0.21703">
        <ele>10.74</ele>
        <time>2021-03-26T08:07:39Z</time>
      </trkpt>
      <trkpt lat="49.17048" lon="-0.2154">
        <ele>10.16</ele>
        <time>2021-03-26T08:07:46Z</time>
      </trkpt>
      <trkpt lat="49.17078" lon="-0.21452">
        <ele>9.8</ele>
        <time>2021-03-26T08:07:53Z</time>
      </trkpt>
      <trkpt lat="49.17121" lon="-0.21336">
        <ele>8.34</ele>
        <time>2021-03-26T08:08:00Z</time>
      </trkpt>
      <trkpt lat="49.17206" lon="-0.21131">
        <ele>8.29</ele>
        <time>2021-03-26T08:08:07Z</time>
      </trkpt>
      <trkpt lat="49.17266" lon="-0.21003">
        <ele>7</ele>
        <time>2021-03-26T08:08:15Z</time>
      </trkpt>
      <trkpt lat="49.17371" lon="-0.20809">
        <ele>8</ele>
        <time>2021-03-26T08:08:22Z</time>
      </trkpt>
      <trkpt lat="49.17449" lon="-0.2068">
        <ele>8.28</ele>
        <time>2021-03-26T08:08:29Z</time>
      </trkpt>
      <trkpt lat="49.17507" lon="-0.20592">
        <ele>7</ele>
        <time>2021-03-26T08:08:36Z</time>
      </trkpt>
      <trkpt lat="49.17599" lon="-0.20465">
        <ele>8.68</ele>
        <time>2021-03-26T08:08:43Z</time>
      </trkpt>
      <trkpt lat="49.17647" lon="-0.20404">
        <ele>8.75</ele>
        <time>2021-03-26T08:08:50Z</time>
      </trkpt>
      <trkpt lat="49.17703" lon="-0.20337">
        <ele>9.28</ele>
        <time>2021-03-26T08:08:58Z</time>
      </trkpt>
      <trkpt lat="49.17857" lon="-0.2017">
        <ele>15.04</ele>
        <time>2021-03-26T08:09:05Z</time>
      </trkpt>
      <trkpt lat="49.19187" lon="-0.18807">
        <ele>31.53</ele>
        <time>2021-03-26T08:09:12Z</time>
      </trkpt>
      <trkpt lat="49.1935" lon="-0.18632">
        <ele>31.89</ele>
        <time>2021-03-26T08:09:19Z</time>
      </trkpt>
      <trkpt lat="49.19434" lon="-0.18538">
        <ele>28.3</ele>
        <time>2021-03-26T08:09:26Z</time>
      </trkpt>
      <trkpt lat="49.19517" lon="-0.18441">
        <ele>28.44</ele>
        <time>2021-03-26T08:09:33Z</time>
      </trkpt>
      <trkpt lat="49.19593" lon="-0.18346">
        <ele>28.23</ele>
        <time>2021-03-26T08:09:40Z</time>
      </trkpt>
      <trkpt lat="49.19666" lon="-0.18252">
        <ele>24.21</ele>
        <time>2021-03-26T08:09:48Z</time>
      </trkpt>
      <trkpt lat="49.19808" lon="-0.18058">
        <ele>23.46</ele>
        <time>2021-03-26T08:09:55Z</time>
      </trkpt>
      <trkpt lat="49.19936" lon="-0.17864">
        <ele>12.09</ele>
        <time>2021-03-26T08:10:02Z</time>
      </trkpt>
      <trkpt lat="49.20054" lon="-0.17672">
        <ele>8.1</ele>
        <time>2021-03-26T08:10:09Z</time>
      </trkpt>
      <trkpt lat="49.20122" lon="-0.17551">
        <ele>8.62</ele>
        <time>2021-03-26T08:10:16Z</time>
      </trkpt>
      <trkpt lat="49.20183" lon="-0.1743">
        <ele>7.41</ele>
        <time>2021-03-26T08:10:23Z</time>
      </trkpt>
      <trkpt lat="49.20242" lon="-0.17306">
        <ele>8</ele>
        <time>2021-03-26T08:10:31Z</time>
      </trkpt>
      <trkpt lat="49.20298" lon="-0.17178">
        <ele>6.84</ele>
        <time>2021-03-26T08:10:38Z</time>
      </trkpt>
      <trkpt lat="49.20344" lon="-0.17057">
        <ele>6.26</ele>
        <time>2021-03-26T08:10:45Z</time>
      </trkpt>
      <trkpt lat="49.20404" lon="-0.16886">
        <ele>3.46</ele>
        <time>2021-03-26T08:10:52Z</time>
      </trkpt>
      <trkpt lat="49.20448" lon="-0.16742">
        <ele>0.88</ele>
        <time>2021-03-26T08:10:59Z</time>
      </trkpt>
      <trkpt lat="49.20487" lon="-0.16604">
        <ele>3</ele>
        <time>2021-03-26T08:11:06Z</time>
      </trkpt>
      <trkpt lat="49.20976" lon="-0.14779">
        <ele>10.85</ele>
        <time>2021-03-26T08:11:14Z</time>
      </trkpt>
      <trkpt lat="49.21004" lon="-0.14682">
        <ele>10.58</ele>
        <time>2021-03-26T08:11:21Z</time>
      </trkpt>
      <trkpt lat="49.21099" lon="-0.1436">
        <ele>13.04</ele>
        <time>2021-03-26T08:11:28Z</time>
      </trkpt>
      <trkpt lat="49.21211" lon="-0.1401">
        <ele>13</ele>
        <time>2021-03-26T08:11:35Z</time>
      </trkpt>
      <trkpt lat="49.2128" lon="-0.13804">
        <ele>10.13</ele>
        <time>2021-03-26T08:11:42Z</time>
      </trkpt>
      <trkpt lat="49.21377" lon="-0.13529">
        <ele>13.4</ele>
        <time>2021-03-26T08:11:49Z</time>
      </trkpt>
      <trkpt lat="49.21564" lon="-0.13019">
        <ele>14.69</ele>
        <time>2021-03-26T08:11:57Z</time>
      </trkpt>
      <trkpt lat="49.21629" lon="-0.12829">
        <ele>13.94</ele>
        <time>2021-03-26T08:12:04Z</time>
      </trkpt>
      <trkpt lat="49.21691" lon="-0.1264">
        <ele>13.01</ele>
        <time>2021-03-26T08:12:11Z</time>
      </trkpt>
      <trkpt lat="49.21754" lon="-0.12436">
        <ele>10.6</ele>
        <time>2021-03-26T08:12:18Z</time>
      </trkpt>
      <trkpt lat="49.22028" lon="-0.11496">
        <ele>5.13</ele>
        <time>2021-03-26T08:12:25Z</time>
      </trkpt>
      <trkpt lat="49.22156" lon="-0.11068">
        <ele>10.78</ele>
        <time>2021-03-26T08:12:32Z</time>
      </trkpt>
      <trkpt lat="49.22209" lon="-0.10877">
        <ele>11.77</ele>
        <time>2021-03-26T08:12:39Z</time>
      </trkpt>
      <trkpt lat="49.22295" lon="-0.10551">
        <ele>13</ele>
        <time>2021-03-26T08:12:47Z</time>
      </trkpt>
      <trkpt lat="49.22393" lon="-0.10145">
        <ele>7.18</ele>
        <time>2021-03-26T08:12:54Z</time>
      </trkpt>
      <trkpt lat="49.22836" lon="-0.08142">
        <ele>5.09</ele>
        <time>2021-03-26T08:13:01Z</time>
      </trkpt>
      <trkpt lat="49.22853" lon="-0.08072">
        <ele>9.13</ele>
        <time>2021-03-26T08:13:08Z</time>
      </trkpt>
      <trkpt lat="49.22879" lon="-0.07985">
        <ele>10</ele>
        <time>2021-03-26T08:13:15Z</time>
      </trkpt>
      <trkpt lat="49.22925" lon="-0.07821">
        <ele>7</ele>
        <time>2021-03-26T08:13:22Z</time>
      </trkpt>
      <trkpt lat="49.22954" lon="-0.07693">
        <ele>9</ele>
        <time>2021-03-26T08:13:30Z</time>
      </trkpt>
      <trkpt lat="49.22962" lon="-0.07662">
        <ele>9</ele>
        <time>2021-03-26T08:13:37Z</time>
      </trkpt>
      <trkpt lat="49.22982" lon="-0.07561">
        <ele>10</ele>
        <time>2021-03-26T08:13:44Z</time>
      </trkpt>
      <trkpt lat="49.2302" lon="-0.07341">
        <ele>13</ele>
        <time>2021-03-26T08:13:51Z</time>
      </trkpt>
      <trkpt lat="49.23043" lon="-0.07193">
        <ele>13.02</ele>
        <time>2021-03-26T08:13:58Z</time>
      </trkpt>
      <trkpt lat="49.23159" lon="-0.06662">
        <ele>16</ele>
        <time>2021-03-26T08:14:05Z</time>
      </trkpt>
      <trkpt lat="49.23213" lon="-0.06389">
        <ele>19.33</ele>
        <time>2021-03-26T08:14:13Z</time>
      </trkpt>
      <trkpt lat="49.2334" lon="-0.05649">
        <ele>19.91</ele>
        <time>2021-03-26T08:14:20Z</time>
      </trkpt>
      <trkpt lat="49.23398" lon="-0.05338">
        <ele>18.3</ele>
        <time>2021-03-26T08:14:27Z</time>
      </trkpt>
      <trkpt lat="49.23456" lon="-0.05067">
        <ele>18.53</ele>
        <time>2021-03-26T08:14:34Z</time>
      </trkpt>
      <trkpt lat="49.23541" lon="-0.04716">
        <ele>21.47</ele>
        <time>2021-03-26T08:14:41Z</time>
      </trkpt>
      <trkpt lat="49.23635" lon="-0.04378">
        <ele>21.53</ele>
        <time>2021-03-26T08:14:48Z</time>
      </trkpt>
      <trkpt lat="49.23699" lon="-0.04166">
        <ele>18.83</ele>
        <time>2021-03-26T08:14:56Z</time>
      </trkpt>
      <trkpt lat="49.2377" lon="-0.03947">
        <ele>23.16</ele>
        <time>2021-03-26T08:15:03Z</time>
      </trkpt>
      <trkpt lat="49.23898" lon="-0.03575">
        <ele>25.9</ele>
        <time>2021-03-26T08:15:10Z</time>
      </trkpt>
      <trkpt lat="49.24017" lon="-0.03205">
        <ele>21.4</ele>
        <time>2021-03-26T08:15:17Z</time>
      </trkpt>
      <trkpt lat="49.24098" lon="-0.02932">
        <ele>19.48</ele>
        <time>2021-03-26T08:15:24Z</time>
      </trkpt>
      <trkpt lat="49.24456" lon="-0.0163">
        <ele>26.35</ele>
        <time>2021-03-26T08:15:31Z</time>
      </trkpt>
      <trkpt lat="49.24523" lon="-0.01364">
        <ele>26.98</ele>
        <time>2021-03-26T08:15:38Z</time>
      </trkpt>
      <trkpt lat="49.24571" lon="-0.01154">
        <ele>26.44</ele>
        <time>2021-03-26T08:15:46Z</time>
      </trkpt>
      <trkpt lat="49.24611" lon="-0.00966">
        <ele>28.01</ele>
        <time>2021-03-26T08:15:53Z</time>
      </trkpt>
      <trkpt lat="49.24668" lon="-0.00679">
        <ele>32.52</ele>
        <time>2021-03-26T08:16:00Z</time>
      </trkpt>
      <trkpt lat="49.24733" lon="-0.00302">
        <ele>36.57</ele>
        <time>2021-03-26T08:16:07Z</time>
      </trkpt>
      <trkpt lat="49.24751" lon="-0.00184">
        <ele>38.52</ele>
        <time>2021-03-26T08:16:14Z</time>
      </trkpt>
      <trkpt lat="49.24792" lon="0.00102">
        <ele>42.67</ele>
        <time>2021-03-26T08:16:21Z</time>
      </trkpt>
      <trkpt lat="49.24809" lon="0.00233">
        <ele>43.24</ele>
        <time>2021-03-26T08:16:29Z</time>
      </trkpt>
      <trkpt lat="49.24841" lon="0.00513">
        <ele>48.38</ele>
        <time>2021-03-26T08:16:36Z</time>
      </trkpt>
      <trkpt lat="49.24868" lon="0.00802">
        <ele>51.99</ele>
        <time>2021-03-26T08:16:43Z</time>
      </trkpt>
      <trkpt lat="49.24887" lon="0.01033">
        <ele>56.86</ele>
        <time>2021-03-26T08:16:50Z</time>
      </trkpt>
      <trkpt lat="49.24898" lon="0.01204">
        <ele>53.28</ele>
        <time>2021-03-26T08:16:57Z</time>
      </trkpt>
      <trkpt lat="49.24936" lon="0.01888">
        <ele>56.33</ele>
        <time>2021-03-26T08:17:04Z</time>
      </trkpt>
      <trkpt lat="49.24942" lon="0.02014">
        <ele>60.21</ele>
        <time>2021-03-26T08:17:12Z</time>
      </trkpt>
      <trkpt lat="49.24944" lon="0.0214">
        <ele>62.99</ele>
        <time>2021-03-26T08:17:19Z</time>
      </trkpt>
      <trkpt lat="49.24944" lon="0.02228">
        <ele>61.9</ele>
        <time>2021-03-26T08:17:26Z</time>
      </trkpt>
      <trkpt lat="49.24941" lon="0.02311">
        <ele>62.88</ele>
        <time>2021-03-26T08:17:33Z</time>
      </trkpt>
      <trkpt lat="49.24933" lon="0.02416">
        <ele>65.02</ele>
        <time>2021-03-26T08:17:40Z</time>
      </trkpt>
      <trkpt lat="49.24922" lon="0.0252">
        <ele>67.78</ele>
        <time>2021-03-26T08:17:47Z</time>
      </trkpt>
      <trkpt lat="49.24904" lon="0.0263">
        <ele>67.34</ele>
        <time>2021-03-26T08:17:55Z</time>
      </trkpt>
      <trkpt lat="49.24878" lon="0.02757">
        <ele>65.67</ele>
        <time>2021-03-26T08:18:02Z</time>
      </trkpt>
      <trkpt lat="49.24841" lon="0.02907">
        <ele>66.18</ele>
        <time>2021-03-26T08:18:09Z</time>
      </trkpt>
      <trkpt lat="49.24734" lon="0.03283">
        <ele>74.19</ele>
        <time>2021-03-26T08:18:16Z</time>
      </trkpt>
      <trkpt lat="49.24698" lon="0.0342">
        <ele>73.11</ele>
        <time>2021-03-26T08:18:23Z</time>
      </trkpt>
      <trkpt lat="49.24673" lon="0.03532">
        <ele>77.57</ele>
        <time>2021-03-26T08:18:30Z</time>
      </trkpt>
      <trkpt lat="49.24656" lon="0.03621">
        <ele>80.34</ele>
        <time>2021-03-26T08:18:37Z</time>
      </trkpt>
      <trkpt lat="49.24639" lon="0.0373">
        <ele>84.82</ele>
        <time>2021-03-26T08:18:45Z</time>
      </trkpt>
      <trkpt lat="49.24608" lon="0.03964">
        <ele>87.32</ele>
        <time>2021-03-26T08:18:52Z</time>
      </trkpt>
      <trkpt lat="49.24572" lon="0.04294">
        <ele>91.41</ele>
        <time>2021-03-26T08:18:59Z</time>
      </trkpt>
      <trkpt lat="49.24563" lon="0.04416">
        <ele>92.94</ele>
        <time>2021-03-26T08:19:06Z</time>
      </trkpt>
      <trkpt lat="49.24556" lon="0.0453">
        <ele>96</ele>
        <time>2021-03-26T08:19:13Z</time>
      </trkpt>
      <trkpt lat="49.24555" lon="0.04651">
        <ele>93.97</ele>
        <time>2021-03-26T08:19:20Z</time>
      </trkpt>
      <trkpt lat="49.24556" lon="0.04715">
        <ele>95.76</ele>
        <time>2021-03-26T08:19:28Z</time>
      </trkpt>
      <trkpt lat="49.24564" lon="0.04856">
        <ele>97.29</ele>
        <time>2021-03-26T08:19:35Z</time>
      </trkpt>
      <trkpt lat="49.24572" lon="0.0493">
        <ele>100.14</ele>
        <time>2021-03-26T08:19:42Z</time>
      </trkpt>
      <trkpt lat="49.24586" lon="0.0503">
        <ele>101.84</ele>
        <time>2021-03-26T08:19:49Z</time>
      </trkpt>
      <trkpt lat="49.24605" lon="0.05135">
        <ele>103.86</ele>
        <time>2021-03-26T08:19:56Z</time>
      </trkpt>
      <trkpt lat="49.24627" lon="0.05233">
        <ele>106.8</ele>
        <time>2021-03-26T08:20:03Z</time>
      </trkpt>
      <trkpt lat="49.24652" lon="0.05326">
        <ele>105.3</ele>
        <time>2021-03-26T08:20:11Z</time>
      </trkpt>
      <trkpt lat="49.24708" lon="0.05511">
        <ele>115.29</ele>
        <time>2021-03-26T08:20:18Z</time>
      </trkpt>
      <trkpt lat="49.24806" lon="0.05801">
        <ele>114.88</ele>
        <time>2021-03-26T08:20:25Z</time>
      </trkpt>
      <trkpt lat="49.24846" lon="0.05929">
        <ele>117.08</ele>
        <time>2021-03-26T08:20:32Z</time>
      </trkpt>
      <trkpt lat="49.24885" lon="0.0607">
        <ele>116.55</ele>
        <time>2021-03-26T08:20:39Z</time>
      </trkpt>
      <trkpt lat="49.24913" lon="0.06185">
        <ele>121.53</ele>
        <time>2021-03-26T08:20:46Z</time>
      </trkpt>
      <trkpt lat="49.24937" lon="0.06301">
        <ele>127.83</ele>
        <time>2021-03-26T08:20:54Z</time>
      </trkpt>
      <trkpt lat="49.24985" lon="0.06541">
        <ele>136.59</ele>
        <time>2021-03-26T08:21:01Z</time>
      </trkpt>
      <trkpt lat="49.25015" lon="0.06684">
        <ele>137.63</ele>
        <time>2021-03-26T08:21:08Z</time>
      </trkpt>
      <trkpt lat="49.25049" lon="0.06827">
        <ele>139.22</ele>
        <time>2021-03-26T08:21:15Z</time>
      </trkpt>
      <trkpt lat="49.25096" lon="0.06993">
        <ele>142.16</ele>
        <time>2021-03-26T08:21:22Z</time>
      </trkpt>
      <trkpt lat="49.25149" lon="0.07155">
        <ele>145</ele>
        <time>2021-03-26T08:21:29Z</time>
      </trkpt>
      <trkpt lat="49.25234" lon="0.07386">
        <ele>141.96</ele>
        <time>2021-03-26T08:21:36Z</time>
      </trkpt>
      <trkpt lat="49.2539" lon="0.07777">
        <ele>140.95</ele>
        <time>2021-03-26T08:21:44Z</time>
      </trkpt>
      <trkpt lat="49.25452" lon="0.07945">
        <ele>140.47</ele>
        <time>2021-03-26T08:21:51Z</time>
      </trkpt>
      <trkpt lat="49.25506" lon="0.08104">
        <ele>138</ele>
        <time>2021-03-26T08:21:58Z</time>
      </trkpt>
      <trkpt lat="49.25545" lon="0.08233">
        <ele>139.76</ele>
        <time>2021-03-26T08:22:05Z</time>
      </trkpt>
      <trkpt lat="49.25574" lon="0.08336">
        <ele>139.33</ele>
        <time>2021-03-26T08:22:12Z</time>
      </trkpt>
      <trkpt lat="49.25626" lon="0.0855">
        <ele>140.27</ele>
        <time>2021-03-26T08:22:19Z</time>
      </trkpt>
      <trkpt lat="49.25645" lon="0.0864">
        <ele>139.37</ele>
        <time>2021-03-26T08:22:27Z</time>
      </trkpt>
      <trkpt lat="49.25678" lon="0.08816">
        <ele>135.73</ele>
        <time>2021-03-26T08:22:34Z</time>
      </trkpt>
      <trkpt lat="49.25699" lon="0.08951">
        <ele>136.46</ele>
        <time>2021-03-26T08:22:41Z</time>
      </trkpt>
      <trkpt lat="49.25718" lon="0.09094">
        <ele>137.17</ele>
        <time>2021-03-26T08:22:48Z</time>
      </trkpt>
      <trkpt lat="49.25738" lon="0.09288">
        <ele>138.16</ele>
        <time>2021-03-26T08:22:55Z</time>
      </trkpt>
      <trkpt lat="49.258" lon="0.09989">
        <ele>135.32</ele>
        <time>2021-03-26T08:23:02Z</time>
      </trkpt>
      <trkpt lat="49.25822" lon="0.10203">
        <ele>134</ele>
        <time>2021-03-26T08:23:10Z</time>
      </trkpt>
      <trkpt lat="49.25846" lon="0.10394">
        <ele>132</ele>
        <time>2021-03-26T08:23:17Z</time>
      </trkpt>
      <trkpt lat="49.25868" lon="0.10552">
        <ele>133.66</ele>
        <time>2021-03-26T08:23:24Z</time>
      </trkpt>
      <trkpt lat="49.25903" lon="0.1078">
        <ele>128.95</ele>
        <time>2021-03-26T08:23:31Z</time>
      </trkpt>
      <trkpt lat="49.25917" lon="0.10899">
        <ele>130.02</ele>
        <time>2021-03-26T08:23:38Z</time>
      </trkpt>
      <trkpt lat="49.25929" lon="0.10968">
        <ele>129.91</ele>
        <time>2021-03-26T08:23:45Z</time>
      </trkpt>
      <trkpt lat="49.26058" lon="0.11678">
        <ele>118.92</ele>
        <time>2021-03-26T08:23:53Z</time>
      </trkpt>
      <trkpt lat="49.26094" lon="0.11901">
        <ele>117.32</ele>
        <time>2021-03-26T08:24:00Z</time>
      </trkpt>
      <trkpt lat="49.26126" lon="0.12124">
        <ele>116.85</ele>
        <time>2021-03-26T08:24:07Z</time>
      </trkpt>
      <trkpt lat="49.26144" lon="0.12279">
        <ele>118.02</ele>
        <time>2021-03-26T08:24:14Z</time>
      </trkpt>
      <trkpt lat="49.26161" lon="0.12428">
        <ele>121.57</ele>
        <time>2021-03-26T08:24:21Z</time>
      </trkpt>
      <trkpt lat="49.26186" lon="0.12715">
        <ele>122.3</ele>
        <time>2021-03-26T08:24:28Z</time>
      </trkpt>
      <trkpt lat="49.26193" lon="0.12811">
        <ele>122.08</ele>
        <time>2021-03-26T08:24:35Z</time>
      </trkpt>
      <trkpt lat="49.26222" lon="0.13278">
        <ele>120</ele>
        <time>2021-03-26T08:24:43Z</time>
      </trkpt>
      <trkpt lat="49.2623" lon="0.13443">
        <ele>120</ele>
        <time>2021-03-26T08:24:50Z</time>
      </trkpt>
      <trkpt lat="49.26243" lon="0.13866">
        <ele>120.69</ele>
        <time>2021-03-26T08:24:57Z</time>
      </trkpt>
      <trkpt lat="49.26245" lon="0.14021">
        <ele>116</ele>
        <time>2021-03-26T08:25:04Z</time>
      </trkpt>
      <trkpt lat="49.26251" lon="0.14692">
        <ele>118.1</ele>
        <time>2021-03-26T08:25:11Z</time>
      </trkpt>
      <trkpt lat="49.26258" lon="0.14906">
        <ele>117</ele>
        <time>2021-03-26T08:25:18Z</time>
      </trkpt>
      <trkpt lat="49.26264" lon="0.15038">
        <ele>116.96</ele>
        <time>2021-03-26T08:25:26Z</time>
      </trkpt>
      <trkpt lat="49.26272" lon="0.15169">
        <ele>113.6</ele>
        <time>2021-03-26T08:25:33Z</time>
      </trkpt>
      <trkpt lat="49.26283" lon="0.15303">
        <ele>110.08</ele>
        <time>2021-03-26T08:25:40Z</time>
      </trkpt>
      <trkpt lat="49.26296" lon="0.15431">
        <ele>107.13</ele>
        <time>2021-03-26T08:25:47Z</time>
      </trkpt>
      <trkpt lat="49.26321" lon="0.15622">
        <ele>93.18</ele>
        <time>2021-03-26T08:25:54Z</time>
      </trkpt>
      <trkpt lat="49.26341" lon="0.15741">
        <ele>90.36</ele>
        <time>2021-03-26T08:26:01Z</time>
      </trkpt>
      <trkpt lat="49.2638" lon="0.15922">
        <ele>84.87</ele>
        <time>2021-03-26T08:26:09Z</time>
      </trkpt>
      <trkpt lat="49.26422" lon="0.16087">
        <ele>77.03</ele>
        <time>2021-03-26T08:26:16Z</time>
      </trkpt>
      <trkpt lat="49.26472" lon="0.16247">
        <ele>69.11</ele>
        <time>2021-03-26T08:26:23Z</time>
      </trkpt>
      <trkpt lat="49.2653" lon="0.16409">
        <ele>67.36</ele>
        <time>2021-03-26T08:26:30Z</time>
      </trkpt>
      <trkpt lat="49.26803" lon="0.17074">
        <ele>50.59</ele>
        <time>2021-03-26T08:26:37Z</time>
      </trkpt>
      <trkpt lat="49.26901" lon="0.17337">
        <ele>41.73</ele>
        <time>2021-03-26T08:26:44Z</time>
      </trkpt>
      <trkpt lat="49.26947" lon="0.17473">
        <ele>27.06</ele>
        <time>2021-03-26T08:26:52Z</time>
      </trkpt>
      <trkpt lat="49.26992" lon="0.17615">
        <ele>25.9</ele>
        <time>2021-03-26T08:26:59Z</time>
      </trkpt>
      <trkpt lat="49.27055" lon="0.17835">
        <ele>25.03</ele>
        <time>2021-03-26T08:27:06Z</time>
      </trkpt>
      <trkpt lat="49.27177" lon="0.18295">
        <ele>25.47</ele>
        <time>2021-03-26T08:27:13Z</time>
      </trkpt>
      <trkpt lat="49.27227" lon="0.18475">
        <ele>25.91</ele>
        <time>2021-03-26T08:27:20Z</time>
      </trkpt>
      <trkpt lat="49.27284" lon="0.18662">
        <ele>25.84</ele>
        <time>2021-03-26T08:27:27Z</time>
      </trkpt>
      <trkpt lat="49.27319" lon="0.18758">
        <ele>23.87</ele>
        <time>2021-03-26T08:27:34Z</time>
      </trkpt>
      <trkpt lat="49.27356" lon="0.18852">
        <ele>23</ele>
        <time>2021-03-26T08:27:42Z</time>
      </trkpt>
      <trkpt lat="49.27407" lon="0.18957">
        <ele>22.19</ele>
        <time>2021-03-26T08:27:49Z</time>
      </trkpt>
      <trkpt lat="49.27442" lon="0.19022">
        <ele>21.02</ele>
        <time>2021-03-26T08:27:56Z</time>
      </trkpt>
      <trkpt lat="49.27503" lon="0.19121">
        <ele>15.24</ele>
        <time>2021-03-26T08:28:03Z</time>
      </trkpt>
      <trkpt lat="49.27566" lon="0.1921">
        <ele>13.98</ele>
        <time>2021-03-26T08:28:10Z</time>
      </trkpt>
      <trkpt lat="49.27618" lon="0.19274">
        <ele>10.84</ele>
        <time>2021-03-26T08:28:17Z</time>
      </trkpt>
      <trkpt lat="49.27673" lon="0.19332">
        <ele>9.98</ele>
        <time>2021-03-26T08:28:25Z</time>
      </trkpt>
      <trkpt lat="49.27731" lon="0.19386">
        <ele>10.97</ele>
        <time>2021-03-26T08:28:32Z</time>
      </trkpt>
      <trkpt lat="49.2779" lon="0.1943">
        <ele>11.14</ele>
        <time>2021-03-26T08:28:39Z</time>
      </trkpt>
      <trkpt lat="49.27853" lon="0.19472">
        <ele>11</ele>
        <time>2021-03-26T08:28:46Z</time>
      </trkpt>
      <trkpt lat="49.27916" lon="0.1951">
        <ele>11.99</ele>
        <time>2021-03-26T08:28:53Z</time>
      </trkpt>
      <trkpt lat="49.27976" lon="0.19535">
        <ele>12.9</ele>
        <time>2021-03-26T08:29:00Z</time>
      </trkpt>
      <trkpt lat="49.28041" lon="0.19561">
        <ele>12.51</ele>
        <time>2021-03-26T08:29:08Z</time>
      </trkpt>
      <trkpt lat="49.28303" lon="0.19641">
        <ele>9.14</ele>
        <time>2021-03-26T08:29:15Z</time>
      </trkpt>
      <trkpt lat="49.28372" lon="0.19658">
        <ele>12.4</ele>
        <time>2021-03-26T08:29:22Z</time>
      </trkpt>
      <trkpt lat="49.2846" lon="0.19691">
        <ele>13.12</ele>
        <time>2021-03-26T08:29:29Z</time>
      </trkpt>
      <trkpt lat="49.2849" lon="0.19705">
        <ele>13.64</ele>
        <time>2021-03-26T08:29:36Z</time>
      </trkpt>
      <trkpt lat="49.28584" lon="0.19751">
        <ele>12.94</ele>
        <time>2021-03-26T08:29:43Z</time>
      </trkpt>
      <trkpt lat="49.28672" lon="0.19801">
        <ele>14.83</ele>
        <time>2021-03-26T08:29:51Z</time>
      </trkpt>
      <trkpt lat="49.28766" lon="0.19866">
        <ele>16.82</ele>
        <time>2021-03-26T08:29:58Z</time>
      </trkpt>
      <trkpt lat="49.28816" lon="0.19904">
        <ele>21.83</ele>
        <time>2021-03-26T08:30:05Z</time>
      </trkpt>
      <trkpt lat="49.28842" lon="0.19924">
        <ele>21.48</ele>
        <time>2021-03-26T08:30:12Z</time>
      </trkpt>
      <trkpt lat="49.28943" lon="0.20014">
        <ele>18.53</ele>
        <time>2021-03-26T08:30:19Z</time>
      </trkpt>
      <trkpt lat="49.29036" lon="0.2011">
        <ele>17.29</ele>
        <time>2021-03-26T08:30:26Z</time>
      </trkpt>
      <trkpt lat="49.29166" lon="0.20261">
        <ele>16.28</ele>
        <time>2021-03-26T08:30:33Z</time>
      </trkpt>
      <trkpt lat="49.29241" lon="0.20361">
        <ele>13.33</ele>
        <time>2021-03-26T08:30:41Z</time>
      </trkpt>
      <trkpt lat="49.29321" lon="0.20487">
        <ele>13.21</ele>
        <time>2021-03-26T08:30:48Z</time>
      </trkpt>
      <trkpt lat="49.29414" lon="0.20651">
        <ele>13.17</ele>
        <time>2021-03-26T08:30:55Z</time>
      </trkpt>
      <trkpt lat="49.29423" lon="0.20678">
        <ele>13.31</ele>
        <time>2021-03-26T08:31:02Z</time>
      </trkpt>
      <trkpt lat="49.29438" lon="0.20705">
        <ele>13.51</ele>
        <time>2021-03-26T08:31:09Z</time>
      </trkpt>
      <trkpt lat="49.29489" lon="0.2081">
        <ele>15.38</ele>
        <time>2021-03-26T08:31:16Z</time>
      </trkpt>
      <trkpt lat="49.29549" lon="0.20954">
        <ele>13.55</ele>
        <time>2021-03-26T08:31:24Z</time>
      </trkpt>
      <trkpt lat="49.2958" lon="0.21032">
        <ele>15.71</ele>
        <time>2021-03-26T08:31:31Z</time>
      </trkpt>
      <trkpt lat="49.29618" lon="0.21143">
        <ele>15.39</ele>
        <time>2021-03-26T08:31:38Z</time>
      </trkpt>
      <trkpt lat="49.29655" lon="0.21263">
        <ele>16.58</ele>
        <time>2021-03-26T08:31:45Z</time>
      </trkpt>
      <trkpt lat="49.29683" lon="0.21362">
        <ele>17.1</ele>
        <time>2021-03-26T08:31:52Z</time>
      </trkpt>
      <trkpt lat="49.29709" lon="0.2147">
        <ele>17.62</ele>
        <time>2021-03-26T08:31:59Z</time>
      </trkpt>
      <trkpt lat="49.29734" lon="0.21579">
        <ele>19.11</ele>
        <time>2021-03-26T08:32:07Z</time>
      </trkpt>
      <trkpt lat="49.29764" lon="0.21725">
        <ele>23.53</ele>
        <time>2021-03-26T08:32:14Z</time>
      </trkpt>
      <trkpt lat="49.29802" lon="0.21955">
        <ele>26.01</ele>
        <time>2021-03-26T08:32:21Z</time>
      </trkpt>
      <trkpt lat="49.29818" lon="0.22059">
        <ele>26.43</ele>
        <time>2021-03-26T08:32:28Z</time>
      </trkpt>
      <trkpt lat="49.2985" lon="0.22308">
        <ele>26.58</ele>
        <time>2021-03-26T08:32:35Z</time>
      </trkpt>
      <trkpt lat="49.29873" lon="0.22501">
        <ele>26.06</ele>
        <time>2021-03-26T08:32:42Z</time>
      </trkpt>
      <trkpt lat="49.29892" lon="0.22695">
        <ele>25.3</ele>
        <time>2021-03-26T08:32:50Z</time>
      </trkpt>
      <trkpt lat="49.29904" lon="0.22846">
        <ele>22.95</ele>
        <time>2021-03-26T08:32:57Z</time>
      </trkpt>
      <trkpt lat="49.29917" lon="0.23037">
        <ele>18.33</ele>
        <time>2021-03-26T08:33:04Z</time>
      </trkpt>
      <trkpt lat="49.29927" lon="0.23226">
        <ele>19.14</ele>
        <time>2021-03-26T08:33:11Z</time>
      </trkpt>
      <trkpt lat="49.29936" lon="0.23473">
        <ele>19.72</ele>
        <time>2021-03-26T08:33:18Z</time>
      </trkpt>
      <trkpt lat="49.29944" lon="0.23833">
        <ele>20</ele>
        <time>2021-03-26T08:33:25Z</time>
      </trkpt>
      <trkpt lat="49.29965" lon="0.25922">
        <ele>32.26</ele>
        <time>2021-03-26T08:33:32Z</time>
      </trkpt>
      <trkpt lat="49.29971" lon="0.26257">
        <ele>33.28</ele>
        <time>2021-03-26T08:33:40Z</time>
      </trkpt>
      <trkpt lat="49.2998" lon="0.26461">
        <ele>33.73</ele>
        <time>2021-03-26T08:33:47Z</time>
      </trkpt>
      <trkpt lat="49.29989" lon="0.26615">
        <ele>30.41</ele>
        <time>2021-03-26T08:33:54Z</time>
      </trkpt>
      <trkpt lat="49.30001" lon="0.26782">
        <ele>29.82</ele>
        <time>2021-03-26T08:34:01Z</time>
      </trkpt>
      <trkpt lat="49.30016" lon="0.26944">
        <ele>30.82</ele>
        <time>2021-03-26T08:34:08Z</time>
      </trkpt>
      <trkpt lat="49.30046" lon="0.27193">
        <ele>27</ele>
        <time>2021-03-26T08:34:15Z</time>
      </trkpt>
      <trkpt lat="49.30078" lon="0.27387">
        <ele>26.77</ele>
        <time>2021-03-26T08:34:23Z</time>
      </trkpt>
      <trkpt lat="49.3012" lon="0.27595">
        <ele>31.3</ele>
        <time>2021-03-26T08:34:30Z</time>
      </trkpt>
      <trkpt lat="49.30257" lon="0.28202">
        <ele>37.57</ele>
        <time>2021-03-26T08:34:37Z</time>
      </trkpt>
      <trkpt lat="49.30282" lon="0.28336">
        <ele>37.35</ele>
        <time>2021-03-26T08:34:44Z</time>
      </trkpt>
      <trkpt lat="49.30312" lon="0.28554">
        <ele>49.22</ele>
        <time>2021-03-26T08:34:51Z</time>
      </trkpt>
      <trkpt lat="49.30348" lon="0.28871">
        <ele>58.36</ele>
        <time>2021-03-26T08:34:58Z</time>
      </trkpt>
      <trkpt lat="49.30365" lon="0.28988">
        <ele>62.16</ele>
        <time>2021-03-26T08:35:06Z</time>
      </trkpt>
      <trkpt lat="49.30385" lon="0.29095">
        <ele>66.26</ele>
        <time>2021-03-26T08:35:13Z</time>
      </trkpt>
      <trkpt lat="49.30416" lon="0.29223">
        <ele>70.91</ele>
        <time>2021-03-26T08:35:20Z</time>
      </trkpt>
      <trkpt lat="49.30455" lon="0.29349">
        <ele>76.44</ele>
        <time>2021-03-26T08:35:27Z</time>
      </trkpt>
      <trkpt lat="49.30502" lon="0.29477">
        <ele>81.26</ele>
        <time>2021-03-26T08:35:34Z</time>
      </trkpt>
      <trkpt lat="49.3053" lon="0.29541">
        <ele>84.71</ele>
        <time>2021-03-26T08:35:41Z</time>
      </trkpt>
      <trkpt lat="49.30558" lon="0.29598">
        <ele>87.04</ele>
        <time>2021-03-26T08:35:49Z</time>
      </trkpt>
      <trkpt lat="49.30605" lon="0.29686">
        <ele>92.63</ele>
        <time>2021-03-26T08:35:56Z</time>
      </trkpt>
      <trkpt lat="49.30663" lon="0.29782">
        <ele>100.68</ele>
        <time>2021-03-26T08:36:03Z</time>
      </trkpt>
      <trkpt lat="49.30773" lon="0.29928">
        <ele>106.37</ele>
        <time>2021-03-26T08:36:10Z</time>
      </trkpt>
      <trkpt lat="49.3088" lon="0.30052">
        <ele>116.18</ele>
        <time>2021-03-26T08:36:17Z</time>
      </trkpt>
      <trkpt lat="49.31336" lon="0.30542">
        <ele>138.04</ele>
        <time>2021-03-26T08:36:24Z</time>
      </trkpt>
      <trkpt lat="49.31428" lon="0.30644">
        <ele>140.11</ele>
        <time>2021-03-26T08:36:31Z</time>
      </trkpt>
      <trkpt lat="49.31542" lon="0.30789">
        <ele>139.26</ele>
        <time>2021-03-26T08:36:39Z</time>
      </trkpt>
      <trkpt lat="49.31675" lon="0.30986">
        <ele>138.28</ele>
        <time>2021-03-26T08:36:46Z</time>
      </trkpt>
      <trkpt lat="49.3176" lon="0.31131">
        <ele>135</ele>
        <time>2021-03-26T08:36:53Z</time>
      </trkpt>
      <trkpt lat="49.31821" lon="0.31245">
        <ele>137</ele>
        <time>2021-03-26T08:37:00Z</time>
      </trkpt>
      <trkpt lat="49.31875" lon="0.31362">
        <ele>137.99</ele>
        <time>2021-03-26T08:37:07Z</time>
      </trkpt>
      <trkpt lat="49.31958" lon="0.31554">
        <ele>134.54</ele>
        <time>2021-03-26T08:37:14Z</time>
      </trkpt>
      <trkpt lat="49.32045" lon="0.31788">
        <ele>134</ele>
        <time>2021-03-26T08:37:22Z</time>
      </trkpt>
      <trkpt lat="49.32194" lon="0.32227">
        <ele>132.07</ele>
        <time>2021-03-26T08:37:29Z</time>
      </trkpt>
      <trkpt lat="49.32612" lon="0.33481">
        <ele>128.07</ele>
        <time>2021-03-26T08:37:36Z</time>
      </trkpt>
      <trkpt lat="49.32679" lon="0.33673">
        <ele>128.87</ele>
        <time>2021-03-26T08:37:43Z</time>
      </trkpt>
      <trkpt lat="49.3277" lon="0.33919">
        <ele>127</ele>
        <time>2021-03-26T08:37:50Z</time>
      </trkpt>
      <trkpt lat="49.32825" lon="0.34061">
        <ele>127.85</ele>
        <time>2021-03-26T08:37:57Z</time>
      </trkpt>
      <trkpt lat="49.3287" lon="0.34168">
        <ele>130.61</ele>
        <time>2021-03-26T08:38:05Z</time>
      </trkpt>
      <trkpt lat="49.32972" lon="0.34396">
        <ele>133.03</ele>
        <time>2021-03-26T08:38:12Z</time>
      </trkpt>
      <trkpt lat="49.33017" lon="0.34487">
        <ele>131.19</ele>
        <time>2021-03-26T08:38:19Z</time>
      </trkpt>
      <trkpt lat="49.33131" lon="0.34706">
        <ele>131.12</ele>
        <time>2021-03-26T08:38:26Z</time>
      </trkpt>
      <trkpt lat="49.33345" lon="0.35087">
        <ele>131</ele>
        <time>2021-03-26T08:38:33Z</time>
      </trkpt>
      <trkpt lat="49.33414" lon="0.35213">
        <ele>128.62</ele>
        <time>2021-03-26T08:38:40Z</time>
      </trkpt>
      <trkpt lat="49.33471" lon="0.35333">
        <ele>128.96</ele>
        <time>2021-03-26T08:38:48Z</time>
      </trkpt>
      <trkpt lat="49.33513" lon="0.35428">
        <ele>128.5</ele>
        <time>2021-03-26T08:38:55Z</time>
      </trkpt>
      <trkpt lat="49.33559" lon="0.3554">
        <ele>130.93</ele>
        <time>2021-03-26T08:39:02Z</time>
      </trkpt>
      <trkpt lat="49.33601" lon="0.35654">
        <ele>128.85</ele>
        <time>2021-03-26T08:39:09Z</time>
      </trkpt>
      <trkpt lat="49.33631" lon="0.35746">
        <ele>127.61</ele>
        <time>2021-03-26T08:39:16Z</time>
      </trkpt>
      <trkpt lat="49.33656" lon="0.35835">
        <ele>128.02</ele>
        <time>2021-03-26T08:39:23Z</time>
      </trkpt>
      <trkpt lat="49.3371" lon="0.36048">
        <ele>129.28</ele>
        <time>2021-03-26T08:39:30Z</time>
      </trkpt>
      <trkpt lat="49.33732" lon="0.36163">
        <ele>128</ele>
        <time>2021-03-26T08:39:38Z</time>
      </trkpt>
      <trkpt lat="49.33742" lon="0.36235">
        <ele>130.15</ele>
        <time>2021-03-26T08:39:45Z</time>
      </trkpt>
      <trkpt lat="49.33764" lon="0.3646">
        <ele>131</ele>
        <time>2021-03-26T08:39:52Z</time>
      </trkpt>
      <trkpt lat="49.33789" lon="0.36665">
        <ele>127.86</ele>
        <time>2021-03-26T08:39:59Z</time>
      </trkpt>
      <trkpt lat="49.33805" lon="0.36838">
        <ele>128.83</ele>
        <time>2021-03-26T08:40:06Z</time>
      </trkpt>
      <trkpt lat="49.33807" lon="0.36947">
        <ele>126.26</ele>
        <time>2021-03-26T08:40:13Z</time>
      </trkpt>
      <trkpt lat="49.33804" lon="0.37099">
        <ele>127.42</ele>
        <time>2021-03-26T08:40:21Z</time>
      </trkpt>
      <trkpt lat="49.33799" lon="0.37181">
        <ele>127.93</ele>
        <time>2021-03-26T08:40:28Z</time>
      </trkpt>
      <trkpt lat="49.3379" lon="0.37311">
        <ele>128</ele>
        <time>2021-03-26T08:40:35Z</time>
      </trkpt>
      <trkpt lat="49.33772" lon="0.37474">
        <ele>127.73</ele>
        <time>2021-03-26T08:40:42Z</time>
      </trkpt>
      <trkpt lat="49.33754" lon="0.37592">
        <ele>125.04</ele>
        <time>2021-03-26T08:40:49Z</time>
      </trkpt>
      <trkpt lat="49.33733" lon="0.37709">
        <ele>126.18</ele>
        <time>2021-03-26T08:40:56Z</time>
      </trkpt>
      <trkpt lat="49.33719" lon="0.37781">
        <ele>125</ele>
        <time>2021-03-26T08:41:04Z</time>
      </trkpt>
      <trkpt lat="49.33678" lon="0.37952">
        <ele>123</ele>
        <time>2021-03-26T08:41:11Z</time>
      </trkpt>
      <trkpt lat="49.33649" lon="0.38056">
        <ele>125.02</ele>
        <time>2021-03-26T08:41:18Z</time>
      </trkpt>
      <trkpt lat="49.3362" lon="0.38151">
        <ele>126</ele>
        <time>2021-03-26T08:41:25Z</time>
      </trkpt>
      <trkpt lat="49.33589" lon="0.38242">
        <ele>127.46</ele>
        <time>2021-03-26T08:41:32Z</time>
      </trkpt>
      <trkpt lat="49.33532" lon="0.38393">
        <ele>125</ele>
        <time>2021-03-26T08:41:39Z</time>
      </trkpt>
      <trkpt lat="49.33351" lon="0.38824">
        <ele>127.61</ele>
        <time>2021-03-26T08:41:47Z</time>
      </trkpt>
      <trkpt lat="49.33306" lon="0.38951">
        <ele>127.22</ele>
        <time>2021-03-26T08:41:54Z</time>
      </trkpt>
      <trkpt lat="49.3328" lon="0.39031">
        <ele>130.09</ele>
        <time>2021-03-26T08:42:01Z</time>
      </trkpt>
      <trkpt lat="49.33257" lon="0.39113">
        <ele>129.68</ele>
        <time>2021-03-26T08:42:08Z</time>
      </trkpt>
      <trkpt lat="49.33231" lon="0.39227">
        <ele>128.59</ele>
        <time>2021-03-26T08:42:15Z</time>
      </trkpt>
      <trkpt lat="49.33209" lon="0.39345">
        <ele>125.57</ele>
        <time>2021-03-26T08:42:22Z</time>
      </trkpt>
      <trkpt lat="49.33196" lon="0.3945">
        <ele>121.04</ele>
        <time>2021-03-26T08:42:29Z</time>
      </trkpt>
      <trkpt lat="49.33185" lon="0.39577">
        <ele>121.62</ele>
        <time>2021-03-26T08:42:37Z</time>
      </trkpt>
      <trkpt lat="49.3318" lon="0.39725">
        <ele>123.89</ele>
        <time>2021-03-26T08:42:44Z</time>
      </trkpt>
      <trkpt lat="49.33181" lon="0.39803">
        <ele>124.89</ele>
        <time>2021-03-26T08:42:51Z</time>
      </trkpt>
      <trkpt lat="49.33185" lon="0.3988">
        <ele>126.35</ele>
        <time>2021-03-26T08:42:58Z</time>
      </trkpt>
      <trkpt lat="49.33196" lon="0.40006">
        <ele>126.91</ele>
        <time>2021-03-26T08:43:05Z</time>
      </trkpt>
      <trkpt lat="49.33213" lon="0.40129">
        <ele>127.35</ele>
        <time>2021-03-26T08:43:12Z</time>
      </trkpt>
      <trkpt lat="49.33224" lon="0.40195">
        <ele>125.9</ele>
        <time>2021-03-26T08:43:20Z</time>
      </trkpt>
      <trkpt lat="49.33254" lon="0.4033">
        <ele>124.1</ele>
        <time>2021-03-26T08:43:27Z</time>
      </trkpt>
      <trkpt lat="49.33291" lon="0.40459">
        <ele>122.53</ele>
        <time>2021-03-26T08:43:34Z</time>
      </trkpt>
      <trkpt lat="49.33311" lon="0.40516">
        <ele>122.18</ele>
        <time>2021-03-26T08:43:41Z</time>
      </trkpt>
      <trkpt lat="49.3336" lon="0.40642">
        <ele>121.91</ele>
        <time>2021-03-26T08:43:48Z</time>
      </trkpt>
      <trkpt lat="49.33675" lon="0.41315">
        <ele>120.68</ele>
        <time>2021-03-26T08:43:55Z</time>
      </trkpt>
      <trkpt lat="49.33903" lon="0.41793">
        <ele>117.23</ele>
        <time>2021-03-26T08:44:03Z</time>
      </trkpt>
      <trkpt lat="49.33984" lon="0.41948">
        <ele>113.57</ele>
        <time>2021-03-26T08:44:10Z</time>
      </trkpt>
      <trkpt lat="49.34019" lon="0.42003">
        <ele>113.12</ele>
        <time>2021-03-26T08:44:17Z</time>
      </trkpt>
      <trkpt lat="49.34056" lon="0.42059">
        <ele>113.96</ele>
        <time>2021-03-26T08:44:24Z</time>
      </trkpt>
      <trkpt lat="49.34134" lon="0.42159">
        <ele>108.55</ele>
        <time>2021-03-26T08:44:31Z</time>
      </trkpt>
      <trkpt lat="49.34201" lon="0.42225">
        <ele>106.85</ele>
        <time>2021-03-26T08:44:38Z</time>
      </trkpt>
      <trkpt lat="49.3427" lon="0.42286">
        <ele>103.33</ele>
        <time>2021-03-26T08:44:46Z</time>
      </trkpt>
      <trkpt lat="49.34509" lon="0.42442">
        <ele>86.18</ele>
        <time>2021-03-26T08:44:53Z</time>
      </trkpt>
      <trkpt lat="49.34609" lon="0.42529">
        <ele>74.57</ele>
        <time>2021-03-26T08:45:00Z</time>
      </trkpt>
      <trkpt lat="49.34668" lon="0.42595">
        <ele>66.17</ele>
        <time>2021-03-26T08:45:07Z</time>
      </trkpt>
      <trkpt lat="49.34726" lon="0.42673">
        <ele>60.57</ele>
        <time>2021-03-26T08:45:14Z</time>
      </trkpt>
      <trkpt lat="49.34756" lon="0.42721">
        <ele>58.09</ele>
        <time>2021-03-26T08:45:21Z</time>
      </trkpt>
      <trkpt lat="49.34785" lon="0.42771">
        <ele>57</ele>
        <time>2021-03-26T08:45:28Z</time>
      </trkpt>
      <trkpt lat="49.34813" lon="0.42825">
        <ele>55.22</ele>
        <time>2021-03-26T08:45:36Z</time>
      </trkpt>
      <trkpt lat="49.34837" lon="0.42879">
        <ele>53.3</ele>
        <time>2021-03-26T08:45:43Z</time>
      </trkpt>
      <trkpt lat="49.34876" lon="0.42981">
        <ele>51.35</ele>
        <time>2021-03-26T08:45:50Z</time>
      </trkpt>
      <trkpt lat="49.34898" lon="0.43048">
        <ele>49.14</ele>
        <time>2021-03-26T08:45:57Z</time>
      </trkpt>
      <trkpt lat="49.34916" lon="0.43117">
        <ele>45.34</ele>
        <time>2021-03-26T08:46:04Z</time>
      </trkpt>
      <trkpt lat="49.34937" lon="0.43212">
        <ele>39.11</ele>
        <time>2021-03-26T08:46:11Z</time>
      </trkpt>
      <trkpt lat="49.34952" lon="0.43309">
        <ele>36.33</ele>
        <time>2021-03-26T08:46:19Z</time>
      </trkpt>
      <trkpt lat="49.34961" lon="0.43384">
        <ele>33.77</ele>
        <time>2021-03-26T08:46:26Z</time>
      </trkpt>
      <trkpt lat="49.34967" lon="0.43457">
        <ele>31.75</ele>
        <time>2021-03-26T08:46:33Z</time>
      </trkpt>
      <trkpt lat="49.34985" lon="0.43739">
        <ele>38.19</ele>
        <time>2021-03-26T08:46:40Z</time>
      </trkpt>
      <trkpt lat="49.34993" lon="0.43836">
        <ele>41.73</ele>
        <time>2021-03-26T08:46:47Z</time>
      </trkpt>
      <trkpt lat="49.35005" lon="0.43928">
        <ele>40.28</ele>
        <time>2021-03-26T08:46:54Z</time>
      </trkpt>
      <trkpt lat="49.35024" lon="0.44037">
        <ele>40.56</ele>
        <time>2021-03-26T08:47:02Z</time>
      </trkpt>
      <trkpt lat="49.35036" lon="0.44097">
        <ele>42.02</ele>
        <time>2021-03-26T08:47:09Z</time>
      </trkpt>
      <trkpt lat="49.3505" lon="0.44155">
        <ele>41.8</ele>
        <time>2021-03-26T08:47:16Z</time>
      </trkpt>
      <trkpt lat="49.3507" lon="0.44229">
        <ele>41.2</ele>
        <time>2021-03-26T08:47:23Z</time>
      </trkpt>
      <trkpt lat="49.35091" lon="0.44301">
        <ele>41.57</ele>
        <time>2021-03-26T08:47:30Z</time>
      </trkpt>
      <trkpt lat="49.35161" lon="0.44506">
        <ele>38.23</ele>
        <time>2021-03-26T08:47:37Z</time>
      </trkpt>
      <trkpt lat="49.35199" lon="0.44622">
        <ele>40.17</ele>
        <time>2021-03-26T08:47:45Z</time>
      </trkpt>
      <trkpt lat="49.3522" lon="0.44694">
        <ele>39.31</ele>
        <time>2021-03-26T08:47:52Z</time>
      </trkpt>
      <trkpt lat="49.35254" lon="0.4483">
        <ele>39.97</ele>
        <time>2021-03-26T08:47:59Z</time>
      </trkpt>
      <trkpt lat="49.35267" lon="0.44896">
        <ele>44.02</ele>
        <time>2021-03-26T08:48:06Z</time>
      </trkpt>
      <trkpt lat="49.35281" lon="0.44977">
        <ele>43.76</ele>
        <time>2021-03-26T08:48:13Z</time>
      </trkpt>
      <trkpt lat="49.35324" lon="0.45313">
        <ele>43.61</ele>
        <time>2021-03-26T08:48:20Z</time>
      </trkpt>
      <trkpt lat="49.35349" lon="0.4547">
        <ele>39.85</ele>
        <time>2021-03-26T08:48:27Z</time>
      </trkpt>
      <trkpt lat="49.35384" lon="0.45628">
        <ele>39.72</ele>
        <time>2021-03-26T08:48:35Z</time>
      </trkpt>
      <trkpt lat="49.35411" lon="0.45716">
        <ele>38.69</ele>
        <time>2021-03-26T08:48:42Z</time>
      </trkpt>
      <trkpt lat="49.35437" lon="0.45794">
        <ele>39.52</ele>
        <time>2021-03-26T08:48:49Z</time>
      </trkpt>
      <trkpt lat="49.35463" lon="0.45864">
        <ele>39.23</ele>
        <time>2021-03-26T08:48:56Z</time>
      </trkpt>
      <trkpt lat="49.35512" lon="0.45975">
        <ele>38.9</ele>
        <time>2021-03-26T08:49:03Z</time>
      </trkpt>
      <trkpt lat="49.35539" lon="0.4603">
        <ele>39.26</ele>
        <time>2021-03-26T08:49:10Z</time>
      </trkpt>
      <trkpt lat="49.35569" lon="0.46084">
        <ele>40.05</ele>
        <time>2021-03-26T08:49:18Z</time>
      </trkpt>
      <trkpt lat="49.35608" lon="0.46151">
        <ele>40.58</ele>
        <time>2021-03-26T08:49:25Z</time>
      </trkpt>
      <trkpt lat="49.3565" lon="0.46213">
        <ele>41.84</ele>
        <time>2021-03-26T08:49:32Z</time>
      </trkpt>
      <trkpt lat="49.35696" lon="0.46276">
        <ele>40.83</ele>
        <time>2021-03-26T08:49:39Z</time>
      </trkpt>
      <trkpt lat="49.35743" lon="0.46333">
        <ele>37.71</ele>
        <time>2021-03-26T08:49:46Z</time>
      </trkpt>
      <trkpt lat="49.35799" lon="0.46393">
        <ele>35.35</ele>
        <time>2021-03-26T08:49:53Z</time>
      </trkpt>
      <trkpt lat="49.35869" lon="0.46458">
        <ele>32.42</ele>
        <time>2021-03-26T08:50:01Z</time>
      </trkpt>
      <trkpt lat="49.3595" lon="0.46517">
        <ele>30.83</ele>
        <time>2021-03-26T08:50:08Z</time>
      </trkpt>
      <trkpt lat="49.36024" lon="0.46564">
        <ele>27.67</ele>
        <time>2021-03-26T08:50:15Z</time>
      </trkpt>
      <trkpt lat="49.36119" lon="0.46613">
        <ele>23.12</ele>
        <time>2021-03-26T08:50:22Z</time>
      </trkpt>
      <trkpt lat="49.36236" lon="0.46681">
        <ele>17.24</ele>
        <time>2021-03-26T08:50:29Z</time>
      </trkpt>
      <trkpt lat="49.36299" lon="0.46723">
        <ele>14.48</ele>
        <time>2021-03-26T08:50:36Z</time>
      </trkpt>
      <trkpt lat="49.36406" lon="0.46812">
        <ele>7</ele>
        <time>2021-03-26T08:50:44Z</time>
      </trkpt>
      <trkpt lat="49.3646" lon="0.46869">
        <ele>8.68</ele>
        <time>2021-03-26T08:50:51Z</time>
      </trkpt>
      <trkpt lat="49.36562" lon="0.46996">
        <ele>8.34</ele>
        <time>2021-03-26T08:50:58Z</time>
      </trkpt>
      <trkpt lat="49.36612" lon="0.47071">
        <ele>7.42</ele>
        <time>2021-03-26T08:51:05Z</time>
      </trkpt>
      <trkpt lat="49.36658" lon="0.4715">
        <ele>6.87</ele>
        <time>2021-03-26T08:51:12Z</time>
      </trkpt>
      <trkpt lat="49.36707" lon="0.47247">
        <ele>4.59</ele>
        <time>2021-03-26T08:51:19Z</time>
      </trkpt>
      <trkpt lat="49.36751" lon="0.47349">
        <ele>5.41</ele>
        <time>2021-03-26T08:51:26Z</time>
      </trkpt>
      <trkpt lat="49.36803" lon="0.47487">
        <ele>4.05</ele>
        <time>2021-03-26T08:51:34Z</time>
      </trkpt>
      <trkpt lat="49.36893" lon="0.47767">
        <ele>6.1</ele>
        <time>2021-03-26T08:51:41Z</time>
      </trkpt>
      <trkpt lat="49.36959" lon="0.47964">
        <ele>8.66</ele>
        <time>2021-03-26T08:51:48Z</time>
      </trkpt>
      <trkpt lat="49.36992" lon="0.48051">
        <ele>9.46</ele>
        <time>2021-03-26T08:51:55Z</time>
      </trkpt>
      <trkpt lat="49.37048" lon="0.48181">
        <ele>13.06</ele>
        <time>2021-03-26T08:52:02Z</time>
      </trkpt>
      <trkpt lat="49.37093" lon="0.48271">
        <ele>15.11</ele>
        <time>2021-03-26T08:52:09Z</time>
      </trkpt>
      <trkpt lat="49.37141" lon="0.48358">
        <ele>16.11</ele>
        <time>2021-03-26T08:52:17Z</time>
      </trkpt>
      <trkpt lat="49.37198" lon="0.48451">
        <ele>21.06</ele>
        <time>2021-03-26T08:52:24Z</time>
      </trkpt>
      <trkpt lat="49.37261" lon="0.48537">
        <ele>27.53</ele>
        <time>2021-03-26T08:52:31Z</time>
      </trkpt>
      <trkpt lat="49.37325" lon="0.48609">
        <ele>36.21</ele>
        <time>2021-03-26T08:52:38Z</time>
      </trkpt>
      <trkpt lat="49.37407" lon="0.48678">
        <ele>35.42</ele>
        <time>2021-03-26T08:52:45Z</time>
      </trkpt>
      <trkpt lat="49.37509" lon="0.48735">
        <ele>40.59</ele>
        <time>2021-03-26T08:52:52Z</time>
      </trkpt>
      <trkpt lat="49.37721" lon="0.48806">
        <ele>47.06</ele>
        <time>2021-03-26T08:53:00Z</time>
      </trkpt>
      <trkpt lat="49.37778" lon="0.48832">
        <ele>49.05</ele>
        <time>2021-03-26T08:53:07Z</time>
      </trkpt>
      <trkpt lat="49.37828" lon="0.48864">
        <ele>50.96</ele>
        <time>2021-03-26T08:53:14Z</time>
      </trkpt>
      <trkpt lat="49.37871" lon="0.48897">
        <ele>53.74</ele>
        <time>2021-03-26T08:53:21Z</time>
      </trkpt>
      <trkpt lat="49.37919" lon="0.48941">
        <ele>57.72</ele>
        <time>2021-03-26T08:53:28Z</time>
      </trkpt>
      <trkpt lat="49.37969" lon="0.48997">
        <ele>53.63</ele>
        <time>2021-03-26T08:53:35Z</time>
      </trkpt>
      <trkpt lat="49.38005" lon="0.49047">
        <ele>51.06</ele>
        <time>2021-03-26T08:53:43Z</time>
      </trkpt>
      <trkpt lat="49.38044" lon="0.49109">
        <ele>48.12</ele>
        <time>2021-03-26T08:53:50Z</time>
      </trkpt>
      <trkpt lat="49.38097" lon="0.49212">
        <ele>47.51</ele>
        <time>2021-03-26T08:53:57Z</time>
      </trkpt>
      <trkpt lat="49.38156" lon="0.49342">
        <ele>51.75</ele>
        <time>2021-03-26T08:54:04Z</time>
      </trkpt>
      <trkpt lat="49.38212" lon="0.4946">
        <ele>55.89</ele>
        <time>2021-03-26T08:54:11Z</time>
      </trkpt>
      <trkpt lat="49.38243" lon="0.49515">
        <ele>57.52</ele>
        <time>2021-03-26T08:54:18Z</time>
      </trkpt>
      <trkpt lat="49.38274" lon="0.49565">
        <ele>60.42</ele>
        <time>2021-03-26T08:54:25Z</time>
      </trkpt>
      <trkpt lat="49.38409" lon="0.49759">
        <ele>68.71</ele>
        <time>2021-03-26T08:54:33Z</time>
      </trkpt>
      <trkpt lat="49.38454" lon="0.49832">
        <ele>70.47</ele>
        <time>2021-03-26T08:54:40Z</time>
      </trkpt>
      <trkpt lat="49.38495" lon="0.49908">
        <ele>73.56</ele>
        <time>2021-03-26T08:54:47Z</time>
      </trkpt>
      <trkpt lat="49.38526" lon="0.49982">
        <ele>77.56</ele>
        <time>2021-03-26T08:54:54Z</time>
      </trkpt>
      <trkpt lat="49.3856" lon="0.50084">
        <ele>76.75</ele>
        <time>2021-03-26T08:55:01Z</time>
      </trkpt>
      <trkpt lat="49.3858" lon="0.50163">
        <ele>79.16</ele>
        <time>2021-03-26T08:55:08Z</time>
      </trkpt>
      <trkpt lat="49.38595" lon="0.50244">
        <ele>76.42</ele>
        <time>2021-03-26T08:55:16Z</time>
      </trkpt>
      <trkpt lat="49.38638" lon="0.50528">
        <ele>81.13</ele>
        <time>2021-03-26T08:55:23Z</time>
      </trkpt>
      <trkpt lat="49.38663" lon="0.50647">
        <ele>80.34</ele>
        <time>2021-03-26T08:55:30Z</time>
      </trkpt>
      <trkpt lat="49.3869" lon="0.50742">
        <ele>86.31</ele>
        <time>2021-03-26T08:55:37Z</time>
      </trkpt>
      <trkpt lat="49.38721" lon="0.50834">
        <ele>87.93</ele>
        <time>2021-03-26T08:55:44Z</time>
      </trkpt>
      <trkpt lat="49.38771" lon="0.50956">
        <ele>89.87</ele>
        <time>2021-03-26T08:55:51Z</time>
      </trkpt>
      <trkpt lat="49.3883" lon="0.51077">
        <ele>94.58</ele>
        <time>2021-03-26T08:55:59Z</time>
      </trkpt>
      <trkpt lat="49.39029" lon="0.51418">
        <ele>102.16</ele>
        <time>2021-03-26T08:56:06Z</time>
      </trkpt>
      <trkpt lat="49.39082" lon="0.51513">
        <ele>105.43</ele>
        <time>2021-03-26T08:56:13Z</time>
      </trkpt>
      <trkpt lat="49.39129" lon="0.51606">
        <ele>106.13</ele>
        <time>2021-03-26T08:56:20Z</time>
      </trkpt>
      <trkpt lat="49.39169" lon="0.51692">
        <ele>106</ele>
        <time>2021-03-26T08:56:27Z</time>
      </trkpt>
      <trkpt lat="49.39224" lon="0.51818">
        <ele>109.49</ele>
        <time>2021-03-26T08:56:34Z</time>
      </trkpt>
      <trkpt lat="49.39264" lon="0.51922">
        <ele>112</ele>
        <time>2021-03-26T08:56:42Z</time>
      </trkpt>
      <trkpt lat="49.39308" lon="0.52052">
        <ele>115.93</ele>
        <time>2021-03-26T08:56:49Z</time>
      </trkpt>
      <trkpt lat="49.39348" lon="0.52186">
        <ele>116.02</ele>
        <time>2021-03-26T08:56:56Z</time>
      </trkpt>
      <trkpt lat="49.39385" lon="0.52329">
        <ele>119.98</ele>
        <time>2021-03-26T08:57:03Z</time>
      </trkpt>
      <trkpt lat="49.39403" lon="0.52409">
        <ele>121</ele>
        <time>2021-03-26T08:57:10Z</time>
      </trkpt>
      <trkpt lat="49.3942" lon="0.52489">
        <ele>120.71</ele>
        <time>2021-03-26T08:57:17Z</time>
      </trkpt>
      <trkpt lat="49.39442" lon="0.52618">
        <ele>122.69</ele>
        <time>2021-03-26T08:57:24Z</time>
      </trkpt>
      <trkpt lat="49.39453" lon="0.52693">
        <ele>121.31</ele>
        <time>2021-03-26T08:57:32Z</time>
      </trkpt>
      <trkpt lat="49.39471" lon="0.52845">
        <ele>122.96</ele>
        <time>2021-03-26T08:57:39Z</time>
      </trkpt>
      <trkpt lat="49.39478" lon="0.5292">
        <ele>123</ele>
        <time>2021-03-26T08:57:46Z</time>
      </trkpt>
      <trkpt lat="49.39488" lon="0.53088">
        <ele>123</ele>
        <time>2021-03-26T08:57:53Z</time>
      </trkpt>
      <trkpt lat="49.39492" lon="0.5322">
        <ele>126.97</ele>
        <time>2021-03-26T08:58:00Z</time>
      </trkpt>
      <trkpt lat="49.39491" lon="0.53364">
        <ele>127.03</ele>
        <time>2021-03-26T08:58:07Z</time>
      </trkpt>
      <trkpt lat="49.39488" lon="0.53447">
        <ele>126.45</ele>
        <time>2021-03-26T08:58:15Z</time>
      </trkpt>
      <trkpt lat="49.39479" lon="0.53588">
        <ele>130.75</ele>
        <time>2021-03-26T08:58:22Z</time>
      </trkpt>
      <trkpt lat="49.39473" lon="0.53662">
        <ele>130.98</ele>
        <time>2021-03-26T08:58:29Z</time>
      </trkpt>
      <trkpt lat="49.39458" lon="0.53797">
        <ele>128.64</ele>
        <time>2021-03-26T08:58:36Z</time>
      </trkpt>
      <trkpt lat="49.39446" lon="0.53883">
        <ele>129.8</ele>
        <time>2021-03-26T08:58:43Z</time>
      </trkpt>
      <trkpt lat="49.39417" lon="0.54047">
        <ele>131.02</ele>
        <time>2021-03-26T08:58:50Z</time>
      </trkpt>
      <trkpt lat="49.39385" lon="0.54194">
        <ele>128.87</ele>
        <time>2021-03-26T08:58:58Z</time>
      </trkpt>
      <trkpt lat="49.39338" lon="0.54373">
        <ele>132.25</ele>
        <time>2021-03-26T08:59:05Z</time>
      </trkpt>
      <trkpt lat="49.39308" lon="0.54474">
        <ele>129.2</ele>
        <time>2021-03-26T08:59:12Z</time>
      </trkpt>
      <trkpt lat="49.39271" lon="0.54582">
        <ele>131.75</ele>
        <time>2021-03-26T08:59:19Z</time>
      </trkpt>
      <trkpt lat="49.39232" lon="0.54688">
        <ele>130.74</ele>
        <time>2021-03-26T08:59:26Z</time>
      </trkpt>
      <trkpt lat="49.3918" lon="0.54815">
        <ele>130.83</ele>
        <time>2021-03-26T08:59:33Z</time>
      </trkpt>
      <trkpt lat="49.39029" lon="0.55172">
        <ele>131.94</ele>
        <time>2021-03-26T08:59:41Z</time>
      </trkpt>
      <trkpt lat="49.38995" lon="0.55256">
        <ele>131.82</ele>
        <time>2021-03-26T08:59:48Z</time>
      </trkpt>
      <trkpt lat="49.38918" lon="0.55453">
        <ele>128.63</ele>
        <time>2021-03-26T08:59:55Z</time>
      </trkpt>
      <trkpt lat="49.3884" lon="0.55674">
        <ele>128</ele>
        <time>2021-03-26T09:00:02Z</time>
      </trkpt>
      <trkpt lat="49.38787" lon="0.55835">
        <ele>127.98</ele>
        <time>2021-03-26T09:00:09Z</time>
      </trkpt>
      <trkpt lat="49.3874" lon="0.55992">
        <ele>126.7</ele>
        <time>2021-03-26T09:00:16Z</time>
      </trkpt>
      <trkpt lat="49.38671" lon="0.56241">
        <ele>122.66</ele>
        <time>2021-03-26T09:00:23Z</time>
      </trkpt>
      <trkpt lat="49.3861" lon="0.56496">
        <ele>116.04</ele>
        <time>2021-03-26T09:00:31Z</time>
      </trkpt>
      <trkpt lat="49.38553" lon="0.56764">
        <ele>113.48</ele>
        <time>2021-03-26T09:00:38Z</time>
      </trkpt>
      <trkpt lat="49.38505" lon="0.57034">
        <ele>115.96</ele>
        <time>2021-03-26T09:00:45Z</time>
      </trkpt>
      <trkpt lat="49.38469" lon="0.57283">
        <ele>112.15</ele>
        <time>2021-03-26T09:00:52Z</time>
      </trkpt>
      <trkpt lat="49.38442" lon="0.57501">
        <ele>111.11</ele>
        <time>2021-03-26T09:00:59Z</time>
      </trkpt>
      <trkpt lat="49.38429" lon="0.57631">
        <ele>108.53</ele>
        <time>2021-03-26T09:01:06Z</time>
      </trkpt>
      <trkpt lat="49.38417" lon="0.57767">
        <ele>105.36</ele>
        <time>2021-03-26T09:01:14Z</time>
      </trkpt>
      <trkpt lat="49.38404" lon="0.57966">
        <ele>106.17</ele>
        <time>2021-03-26T09:01:21Z</time>
      </trkpt>
      <trkpt lat="49.38395" lon="0.58139">
        <ele>104.58</ele>
        <time>2021-03-26T09:01:28Z</time>
      </trkpt>
      <trkpt lat="49.38389" lon="0.58306">
        <ele>102.95</ele>
        <time>2021-03-26T09:01:35Z</time>
      </trkpt>
      <trkpt lat="49.38388" lon="0.58429">
        <ele>99.98</ele>
        <time>2021-03-26T09:01:42Z</time>
      </trkpt>
      <trkpt lat="49.38388" lon="0.58655">
        <ele>107.87</ele>
        <time>2021-03-26T09:01:49Z</time>
      </trkpt>
      <trkpt lat="49.38403" lon="0.59322">
        <ele>117.11</ele>
        <time>2021-03-26T09:01:57Z</time>
      </trkpt>
      <trkpt lat="49.38401" lon="0.59515">
        <ele>120.81</ele>
        <time>2021-03-26T09:02:04Z</time>
      </trkpt>
      <trkpt lat="49.38392" lon="0.59663">
        <ele>121.99</ele>
        <time>2021-03-26T09:02:11Z</time>
      </trkpt>
      <trkpt lat="49.38376" lon="0.59839">
        <ele>124</ele>
        <time>2021-03-26T09:02:18Z</time>
      </trkpt>
      <trkpt lat="49.38354" lon="0.59998">
        <ele>126.02</ele>
        <time>2021-03-26T09:02:25Z</time>
      </trkpt>
      <trkpt lat="49.38332" lon="0.6013">
        <ele>128.73</ele>
        <time>2021-03-26T09:02:32Z</time>
      </trkpt>
      <trkpt lat="49.3831" lon="0.60236">
        <ele>128</ele>
        <time>2021-03-26T09:02:40Z</time>
      </trkpt>
      <trkpt lat="49.38302" lon="0.60273">
        <ele>127.86</ele>
        <time>2021-03-26T09:02:47Z</time>
      </trkpt>
      <trkpt lat="49.38279" lon="0.60362">
        <ele>127.04</ele>
        <time>2021-03-26T09:02:54Z</time>
      </trkpt>
      <trkpt lat="49.38237" lon="0.60511">
        <ele>131.05</ele>
        <time>2021-03-26T09:03:01Z</time>
      </trkpt>
      <trkpt lat="49.38195" lon="0.60652">
        <ele>131.03</ele>
        <time>2021-03-26T09:03:08Z</time>
      </trkpt>
      <trkpt lat="49.3807" lon="0.61046">
        <ele>129.52</ele>
        <time>2021-03-26T09:03:15Z</time>
      </trkpt>
      <trkpt lat="49.37992" lon="0.61319">
        <ele>128.86</ele>
        <time>2021-03-26T09:03:22Z</time>
      </trkpt>
      <trkpt lat="49.37928" lon="0.61566">
        <ele>126.65</ele>
        <time>2021-03-26T09:03:30Z</time>
      </trkpt>
      <trkpt lat="49.37888" lon="0.61741">
        <ele>125.96</ele>
        <time>2021-03-26T09:03:37Z</time>
      </trkpt>
      <trkpt lat="49.37851" lon="0.61916">
        <ele>127.61</ele>
        <time>2021-03-26T09:03:44Z</time>
      </trkpt>
      <trkpt lat="49.3781" lon="0.62137">
        <ele>129.04</ele>
        <time>2021-03-26T09:03:51Z</time>
      </trkpt>
      <trkpt lat="49.37764" lon="0.62422">
        <ele>127.84</ele>
        <time>2021-03-26T09:03:58Z</time>
      </trkpt>
      <trkpt lat="49.37738" lon="0.62606">
        <ele>127.32</ele>
        <time>2021-03-26T09:04:05Z</time>
      </trkpt>
      <trkpt lat="49.37506" lon="0.645">
        <ele>120.78</ele>
        <time>2021-03-26T09:04:13Z</time>
      </trkpt>
      <trkpt lat="49.37484" lon="0.64668">
        <ele>123.56</ele>
        <time>2021-03-26T09:04:20Z</time>
      </trkpt>
      <trkpt lat="49.37434" lon="0.64992">
        <ele>125.89</ele>
        <time>2021-03-26T09:04:27Z</time>
      </trkpt>
      <trkpt lat="49.37402" lon="0.65176">
        <ele>128.34</ele>
        <time>2021-03-26T09:04:34Z</time>
      </trkpt>
      <trkpt lat="49.37323" lon="0.65621">
        <ele>129</ele>
        <time>2021-03-26T09:04:41Z</time>
      </trkpt>
      <trkpt lat="49.37293" lon="0.658">
        <ele>127.54</ele>
        <time>2021-03-26T09:04:48Z</time>
      </trkpt>
      <trkpt lat="49.37252" lon="0.66103">
        <ele>122.06</ele>
        <time>2021-03-26T09:04:56Z</time>
      </trkpt>
      <trkpt lat="49.37236" lon="0.66244">
        <ele>123.48</ele>
        <time>2021-03-26T09:05:03Z</time>
      </trkpt>
      <trkpt lat="49.37224" lon="0.66361">
        <ele>123</ele>
        <time>2021-03-26T09:05:10Z</time>
      </trkpt>
      <trkpt lat="49.3721" lon="0.66539">
        <ele>121.68</ele>
        <time>2021-03-26T09:05:17Z</time>
      </trkpt>
      <trkpt lat="49.37198" lon="0.66716">
        <ele>119</ele>
        <time>2021-03-26T09:05:24Z</time>
      </trkpt>
      <trkpt lat="49.37189" lon="0.6692">
        <ele>119.12</ele>
        <time>2021-03-26T09:05:31Z</time>
      </trkpt>
      <trkpt lat="49.37185" lon="0.67102">
        <ele>121.31</ele>
        <time>2021-03-26T09:05:39Z</time>
      </trkpt>
      <trkpt lat="49.37184" lon="0.67239">
        <ele>121.61</ele>
        <time>2021-03-26T09:05:46Z</time>
      </trkpt>
      <trkpt lat="49.37185" lon="0.67422">
        <ele>121.47</ele>
        <time>2021-03-26T09:05:53Z</time>
      </trkpt>
      <trkpt lat="49.37196" lon="0.6804">
        <ele>125.97</ele>
        <time>2021-03-26T09:06:00Z</time>
      </trkpt>
      <trkpt lat="49.37198" lon="0.68359">
        <ele>126.68</ele>
        <time>2021-03-26T09:06:07Z</time>
      </trkpt>
      <trkpt lat="49.37196" lon="0.68531">
        <ele>129</ele>
        <time>2021-03-26T09:06:14Z</time>
      </trkpt>
      <trkpt lat="49.3719" lon="0.68747">
        <ele>125.25</ele>
        <time>2021-03-26T09:06:21Z</time>
      </trkpt>
      <trkpt lat="49.37181" lon="0.68956">
        <ele>125.57</ele>
        <time>2021-03-26T09:06:29Z</time>
      </trkpt>
      <trkpt lat="49.37149" lon="0.69443">
        <ele>123.02</ele>
        <time>2021-03-26T09:06:36Z</time>
      </trkpt>
      <trkpt lat="49.37062" lon="0.70503">
        <ele>127.02</ele>
        <time>2021-03-26T09:06:43Z</time>
      </trkpt>
      <trkpt lat="49.37051" lon="0.7065">
        <ele>127.49</ele>
        <time>2021-03-26T09:06:50Z</time>
      </trkpt>
      <trkpt lat="49.37036" lon="0.70903">
        <ele>130.64</ele>
        <time>2021-03-26T09:06:57Z</time>
      </trkpt>
      <trkpt lat="49.37026" lon="0.71155">
        <ele>130.08</ele>
        <time>2021-03-26T09:07:04Z</time>
      </trkpt>
      <trkpt lat="49.37024" lon="0.71412">
        <ele>132</ele>
        <time>2021-03-26T09:07:12Z</time>
      </trkpt>
      <trkpt lat="49.37026" lon="0.7154">
        <ele>133.09</ele>
        <time>2021-03-26T09:07:19Z</time>
      </trkpt>
      <trkpt lat="49.37031" lon="0.71757">
        <ele>133.77</ele>
        <time>2021-03-26T09:07:26Z</time>
      </trkpt>
      <trkpt lat="49.37044" lon="0.72198">
        <ele>132.88</ele>
        <time>2021-03-26T09:07:33Z</time>
      </trkpt>
      <trkpt lat="49.37048" lon="0.72396">
        <ele>133.74</ele>
        <time>2021-03-26T09:07:40Z</time>
      </trkpt>
      <trkpt lat="49.3705" lon="0.72574">
        <ele>131.81</ele>
        <time>2021-03-26T09:07:47Z</time>
      </trkpt>
      <trkpt lat="49.3705" lon="0.72727">
        <ele>129.31</ele>
        <time>2021-03-26T09:07:55Z</time>
      </trkpt>
      <trkpt lat="49.37047" lon="0.72898">
        <ele>128.81</ele>
        <time>2021-03-26T09:08:02Z</time>
      </trkpt>
      <trkpt lat="49.37042" lon="0.73061">
        <ele>127.61</ele>
        <time>2021-03-26T09:08:09Z</time>
      </trkpt>
      <trkpt lat="49.37035" lon="0.73221">
        <ele>128.73</ele>
        <time>2021-03-26T09:08:16Z</time>
      </trkpt>
      <trkpt lat="49.36977" lon="0.74267">
        <ele>135.17</ele>
        <time>2021-03-26T09:08:23Z</time>
      </trkpt>
      <trkpt lat="49.3697" lon="0.7446">
        <ele>138.55</ele>
        <time>2021-03-26T09:08:30Z</time>
      </trkpt>
      <trkpt lat="49.36966" lon="0.74644">
        <ele>139.96</ele>
        <time>2021-03-26T09:08:38Z</time>
      </trkpt>
      <trkpt lat="49.36964" lon="0.74826">
        <ele>142.25</ele>
        <time>2021-03-26T09:08:45Z</time>
      </trkpt>
      <trkpt lat="49.36968" lon="0.75126">
        <ele>141.93</ele>
        <time>2021-03-26T09:08:52Z</time>
      </trkpt>
      <trkpt lat="49.36987" lon="0.75869">
        <ele>139.42</ele>
        <time>2021-03-26T09:08:59Z</time>
      </trkpt>
      <trkpt lat="49.36988" lon="0.76015">
        <ele>136.81</ele>
        <time>2021-03-26T09:09:06Z</time>
      </trkpt>
      <trkpt lat="49.36983" lon="0.76391">
        <ele>140.19</ele>
        <time>2021-03-26T09:09:13Z</time>
      </trkpt>
      <trkpt lat="49.36973" lon="0.76665">
        <ele>140</ele>
        <time>2021-03-26T09:09:20Z</time>
      </trkpt>
      <trkpt lat="49.36966" lon="0.76798">
        <ele>139</ele>
        <time>2021-03-26T09:09:28Z</time>
      </trkpt>
      <trkpt lat="49.36958" lon="0.76931">
        <ele>139.02</ele>
        <time>2021-03-26T09:09:35Z</time>
      </trkpt>
      <trkpt lat="49.36943" lon="0.77123">
        <ele>140.07</ele>
        <time>2021-03-26T09:09:42Z</time>
      </trkpt>
      <trkpt lat="49.36927" lon="0.77288">
        <ele>141.26</ele>
        <time>2021-03-26T09:09:49Z</time>
      </trkpt>
      <trkpt lat="49.36894" lon="0.776">
        <ele>136.41</ele>
        <time>2021-03-26T09:09:56Z</time>
      </trkpt>
      <trkpt lat="49.36859" lon="0.7789">
        <ele>139.85</ele>
        <time>2021-03-26T09:10:03Z</time>
      </trkpt>
      <trkpt lat="49.3666" lon="0.79378">
        <ele>143.9</ele>
        <time>2021-03-26T09:10:11Z</time>
      </trkpt>
      <trkpt lat="49.36631" lon="0.79617">
        <ele>138.29</ele>
        <time>2021-03-26T09:10:18Z</time>
      </trkpt>
      <trkpt lat="49.3661" lon="0.79815">
        <ele>137.67</ele>
        <time>2021-03-26T09:10:25Z</time>
      </trkpt>
      <trkpt lat="49.36589" lon="0.80033">
        <ele>135</ele>
        <time>2021-03-26T09:10:32Z</time>
      </trkpt>
      <trkpt lat="49.36563" lon="0.80375">
        <ele>131.74</ele>
        <time>2021-03-26T09:10:39Z</time>
      </trkpt>
      <trkpt lat="49.36302" lon="0.84611">
        <ele>126.13</ele>
        <time>2021-03-26T09:10:46Z</time>
      </trkpt>
      <trkpt lat="49.36279" lon="0.84929">
        <ele>126.94</ele>
        <time>2021-03-26T09:10:54Z</time>
      </trkpt>
      <trkpt lat="49.36265" lon="0.85105">
        <ele>128.4</ele>
        <time>2021-03-26T09:11:01Z</time>
      </trkpt>
      <trkpt lat="49.36244" lon="0.85327">
        <ele>128.46</ele>
        <time>2021-03-26T09:11:08Z</time>
      </trkpt>
      <trkpt lat="49.36209" lon="0.8562">
        <ele>127</ele>
        <time>2021-03-26T09:11:15Z</time>
      </trkpt>
      <trkpt lat="49.36159" lon="0.85949">
        <ele>132.31</ele>
        <time>2021-03-26T09:11:22Z</time>
      </trkpt>
      <trkpt lat="49.36122" lon="0.86152">
        <ele>132</ele>
        <time>2021-03-26T09:11:29Z</time>
      </trkpt>
      <trkpt lat="49.36072" lon="0.8639">
        <ele>134.22</ele>
        <time>2021-03-26T09:11:37Z</time>
      </trkpt>
      <trkpt lat="49.36027" lon="0.8658">
        <ele>135.08</ele>
        <time>2021-03-26T09:11:44Z</time>
      </trkpt>
      <trkpt lat="49.35976" lon="0.86773">
        <ele>134.02</ele>
        <time>2021-03-26T09:11:51Z</time>
      </trkpt>
      <trkpt lat="49.35949" lon="0.86872">
        <ele>134.39</ele>
        <time>2021-03-26T09:11:58Z</time>
      </trkpt>
      <trkpt lat="49.35912" lon="0.86993">
        <ele>133.47</ele>
        <time>2021-03-26T09:12:05Z</time>
      </trkpt>
      <trkpt lat="49.35857" lon="0.87166">
        <ele>131</ele>
        <time>2021-03-26T09:12:12Z</time>
      </trkpt>
      <trkpt lat="49.35813" lon="0.87295">
        <ele>129.46</ele>
        <time>2021-03-26T09:12:19Z</time>
      </trkpt>
      <trkpt lat="49.35747" lon="0.87483">
        <ele>133.25</ele>
        <time>2021-03-26T09:12:27Z</time>
      </trkpt>
      <trkpt lat="49.35692" lon="0.87624">
        <ele>132.54</ele>
        <time>2021-03-26T09:12:34Z</time>
      </trkpt>
      <trkpt lat="49.35476" lon="0.88167">
        <ele>124.56</ele>
        <time>2021-03-26T09:12:41Z</time>
      </trkpt>
      <trkpt lat="49.35404" lon="0.88352">
        <ele>124.97</ele>
        <time>2021-03-26T09:12:48Z</time>
      </trkpt>
      <trkpt lat="49.3535" lon="0.88497">
        <ele>130.05</ele>
        <time>2021-03-26T09:12:55Z</time>
      </trkpt>
      <trkpt lat="49.35306" lon="0.8862">
        <ele>128.29</ele>
        <time>2021-03-26T09:13:02Z</time>
      </trkpt>
      <trkpt lat="49.35263" lon="0.88748">
        <ele>130.58</ele>
        <time>2021-03-26T09:13:10Z</time>
      </trkpt>
      <trkpt lat="49.35203" lon="0.88939">
        <ele>131.98</ele>
        <time>2021-03-26T09:13:17Z</time>
      </trkpt>
      <trkpt lat="49.3514" lon="0.89155">
        <ele>133.59</ele>
        <time>2021-03-26T09:13:24Z</time>
      </trkpt>
      <trkpt lat="49.35065" lon="0.8945">
        <ele>132.86</ele>
        <time>2021-03-26T09:13:31Z</time>
      </trkpt>
      <trkpt lat="49.34912" lon="0.90155">
        <ele>128.36</ele>
        <time>2021-03-26T09:13:38Z</time>
      </trkpt>
      <trkpt lat="49.34872" lon="0.90321">
        <ele>132</ele>
        <time>2021-03-26T09:13:45Z</time>
      </trkpt>
      <trkpt lat="49.3483" lon="0.90484">
        <ele>132</ele>
        <time>2021-03-26T09:13:53Z</time>
      </trkpt>
      <trkpt lat="49.34764" lon="0.90722">
        <ele>132.97</ele>
        <time>2021-03-26T09:14:00Z</time>
      </trkpt>
      <trkpt lat="49.34724" lon="0.90856">
        <ele>133.34</ele>
        <time>2021-03-26T09:14:07Z</time>
      </trkpt>
      <trkpt lat="49.34584" lon="0.91317">
        <ele>125.21</ele>
        <time>2021-03-26T09:14:14Z</time>
      </trkpt>
      <trkpt lat="49.34543" lon="0.91458">
        <ele>125.55</ele>
        <time>2021-03-26T09:14:21Z</time>
      </trkpt>
      <trkpt lat="49.34498" lon="0.91622">
        <ele>131.8</ele>
        <time>2021-03-26T09:14:28Z</time>
      </trkpt>
      <trkpt lat="49.34432" lon="0.91893">
        <ele>127.91</ele>
        <time>2021-03-26T09:14:36Z</time>
      </trkpt>
      <trkpt lat="49.3435" lon="0.9228">
        <ele>120.53</ele>
        <time>2021-03-26T09:14:43Z</time>
      </trkpt>
      <trkpt lat="49.34215" lon="0.92951">
        <ele>117</ele>
        <time>2021-03-26T09:14:50Z</time>
      </trkpt>
      <trkpt lat="49.34118" lon="0.93459">
        <ele>128.5</ele>
        <time>2021-03-26T09:14:57Z</time>
      </trkpt>
      <trkpt lat="49.34066" lon="0.93781">
        <ele>130.27</ele>
        <time>2021-03-26T09:15:04Z</time>
      </trkpt>
      <trkpt lat="49.3404" lon="0.9397">
        <ele>126.83</ele>
        <time>2021-03-26T09:15:11Z</time>
      </trkpt>
      <trkpt lat="49.33964" lon="0.94584">
        <ele>120.66</ele>
        <time>2021-03-26T09:15:18Z</time>
      </trkpt>
      <trkpt lat="49.33896" lon="0.95079">
        <ele>114.2</ele>
        <time>2021-03-26T09:15:26Z</time>
      </trkpt>
      <trkpt lat="49.33887" lon="0.95164">
        <ele>116.72</ele>
        <time>2021-03-26T09:15:33Z</time>
      </trkpt>
      <trkpt lat="49.3388" lon="0.9525">
        <ele>118</ele>
        <time>2021-03-26T09:15:40Z</time>
      </trkpt>
      <trkpt lat="49.33876" lon="0.95339">
        <ele>113.47</ele>
        <time>2021-03-26T09:15:47Z</time>
      </trkpt>
      <trkpt lat="49.33875" lon="0.95428">
        <ele>110.11</ele>
        <time>2021-03-26T09:15:54Z</time>
      </trkpt>
      <trkpt lat="49.33876" lon="0.9554">
        <ele>102.94</ele>
        <time>2021-03-26T09:16:01Z</time>
      </trkpt>
      <trkpt lat="49.33881" lon="0.95652">
        <ele>101.61</ele>
        <time>2021-03-26T09:16:09Z</time>
      </trkpt>
      <trkpt lat="49.33908" lon="0.96081">
        <ele>84.79</ele>
        <time>2021-03-26T09:16:16Z</time>
      </trkpt>
      <trkpt lat="49.3391" lon="0.96181">
        <ele>86.17</ele>
        <time>2021-03-26T09:16:23Z</time>
      </trkpt>
      <trkpt lat="49.33908" lon="0.96271">
        <ele>92.61</ele>
        <time>2021-03-26T09:16:30Z</time>
      </trkpt>
      <trkpt lat="49.33903" lon="0.96355">
        <ele>103.37</ele>
        <time>2021-03-26T09:16:37Z</time>
      </trkpt>
      <trkpt lat="49.3389" lon="0.96461">
        <ele>109.37</ele>
        <time>2021-03-26T09:16:44Z</time>
      </trkpt>
      <trkpt lat="49.33876" lon="0.96551">
        <ele>107.61</ele>
        <time>2021-03-26T09:16:52Z</time>
      </trkpt>
      <trkpt lat="49.33824" lon="0.96828">
        <ele>111.87</ele>
        <time>2021-03-26T09:16:59Z</time>
      </trkpt>
      <trkpt lat="49.33809" lon="0.96921">
        <ele>112.75</ele>
        <time>2021-03-26T09:17:06Z</time>
      </trkpt>
      <trkpt lat="49.33797" lon="0.97041">
        <ele>113.98</ele>
        <time>2021-03-26T09:17:13Z</time>
      </trkpt>
      <trkpt lat="49.33791" lon="0.97137">
        <ele>121.31</ele>
        <time>2021-03-26T09:17:20Z</time>
      </trkpt>
      <trkpt lat="49.33791" lon="0.97201">
        <ele>120.42</ele>
        <time>2021-03-26T09:17:27Z</time>
      </trkpt>
      <trkpt lat="49.33792" lon="0.97293">
        <ele>124.39</ele>
        <time>2021-03-26T09:17:35Z</time>
      </trkpt>
      <trkpt lat="49.33808" lon="0.97568">
        <ele>121.35</ele>
        <time>2021-03-26T09:17:42Z</time>
      </trkpt>
      <trkpt lat="49.33824" lon="0.97906">
        <ele>123.78</ele>
        <time>2021-03-26T09:17:49Z</time>
      </trkpt>
      <trkpt lat="49.33847" lon="0.98382">
        <ele>133.99</ele>
        <time>2021-03-26T09:17:56Z</time>
      </trkpt>
      <trkpt lat="49.33855" lon="0.98633">
        <ele>135.85</ele>
        <time>2021-03-26T09:18:03Z</time>
      </trkpt>
      <trkpt lat="49.33856" lon="0.98796">
        <ele>135.36</ele>
        <time>2021-03-26T09:18:10Z</time>
      </trkpt>
      <trkpt lat="49.33852" lon="0.98996">
        <ele>135.53</ele>
        <time>2021-03-26T09:18:17Z</time>
      </trkpt>
      <trkpt lat="49.33848" lon="0.99099">
        <ele>140.57</ele>
        <time>2021-03-26T09:18:25Z</time>
      </trkpt>
      <trkpt lat="49.33837" lon="0.99267">
        <ele>140.82</ele>
        <time>2021-03-26T09:18:32Z</time>
      </trkpt>
      <trkpt lat="49.33823" lon="0.99448">
        <ele>142.48</ele>
        <time>2021-03-26T09:18:39Z</time>
      </trkpt>
      <trkpt lat="49.33782" lon="0.99902">
        <ele>140.25</ele>
        <time>2021-03-26T09:18:46Z</time>
      </trkpt>
      <trkpt lat="49.33767" lon="1.00091">
        <ele>138.52</ele>
        <time>2021-03-26T09:18:53Z</time>
      </trkpt>
      <trkpt lat="49.33755" lon="1.00265">
        <ele>135.34</ele>
        <time>2021-03-26T09:19:00Z</time>
      </trkpt>
      <trkpt lat="49.33749" lon="1.0043">
        <ele>132.98</ele>
        <time>2021-03-26T09:19:08Z</time>
      </trkpt>
      <trkpt lat="49.33749" lon="1.00522">
        <ele>131.97</ele>
        <time>2021-03-26T09:19:15Z</time>
      </trkpt>
      <trkpt lat="49.33751" lon="1.00614">
        <ele>133.96</ele>
        <time>2021-03-26T09:19:22Z</time>
      </trkpt>
      <trkpt lat="49.3376" lon="1.00787">
        <ele>131.17</ele>
        <time>2021-03-26T09:19:29Z</time>
      </trkpt>
      <trkpt lat="49.33772" lon="1.00912">
        <ele>130.76</ele>
        <time>2021-03-26T09:19:36Z</time>
      </trkpt>
      <trkpt lat="49.33787" lon="1.01037">
        <ele>130.67</ele>
        <time>2021-03-26T09:19:43Z</time>
      </trkpt>
      <trkpt lat="49.33799" lon="1.01123">
        <ele>128.8</ele>
        <time>2021-03-26T09:19:51Z</time>
      </trkpt>
      <trkpt lat="49.33814" lon="1.01206">
        <ele>128</ele>
        <time>2021-03-26T09:19:58Z</time>
      </trkpt>
      <trkpt lat="49.33845" lon="1.01366">
        <ele>131.26</ele>
        <time>2021-03-26T09:20:05Z</time>
      </trkpt>
      <trkpt lat="49.34003" lon="1.02062">
        <ele>122.79</ele>
        <time>2021-03-26T09:20:12Z</time>
      </trkpt>
      <trkpt lat="49.34048" lon="1.02269">
        <ele>121.68</ele>
        <time>2021-03-26T09:20:19Z</time>
      </trkpt>
      <trkpt lat="49.34103" lon="1.0256">
        <ele>124</ele>
        <time>2021-03-26T09:20:26Z</time>
      </trkpt>
      <trkpt lat="49.34142" lon="1.02792">
        <ele>127.45</ele>
        <time>2021-03-26T09:20:34Z</time>
      </trkpt>
      <trkpt lat="49.3425" lon="1.03473">
        <ele>126.04</ele>
        <time>2021-03-26T09:20:41Z</time>
      </trkpt>
      <trkpt lat="49.34312" lon="1.03875">
        <ele>126.93</ele>
        <time>2021-03-26T09:20:48Z</time>
      </trkpt>
      <trkpt lat="49.34353" lon="1.04155">
        <ele>125</ele>
        <time>2021-03-26T09:20:55Z</time>
      </trkpt>
      <trkpt lat="49.34362" lon="1.04243">
        <ele>124.02</ele>
        <time>2021-03-26T09:21:02Z</time>
      </trkpt>
      <trkpt lat="49.34376" lon="1.04466">
        <ele>118.69</ele>
        <time>2021-03-26T09:21:09Z</time>
      </trkpt>
      <trkpt lat="49.34379" lon="1.04587">
        <ele>118.32</ele>
        <time>2021-03-26T09:21:16Z</time>
      </trkpt>
      <trkpt lat="49.34378" lon="1.04701">
        <ele>115.18</ele>
        <time>2021-03-26T09:21:24Z</time>
      </trkpt>
      <trkpt lat="49.34373" lon="1.04829">
        <ele>114.85</ele>
        <time>2021-03-26T09:21:31Z</time>
      </trkpt>
      <trkpt lat="49.34368" lon="1.04905">
        <ele>116.1</ele>
        <time>2021-03-26T09:21:38Z</time>
      </trkpt>
      <trkpt lat="49.34362" lon="1.04981">
        <ele>112.68</ele>
        <time>2021-03-26T09:21:45Z</time>
      </trkpt>
      <trkpt lat="49.34343" lon="1.05174">
        <ele>110</ele>
        <time>2021-03-26T09:21:52Z</time>
      </trkpt>
      <trkpt lat="49.34333" lon="1.05295">
        <ele>109.42</ele>
        <time>2021-03-26T09:21:59Z</time>
      </trkpt>
      <trkpt lat="49.3433" lon="1.05371">
        <ele>108.2</ele>
        <time>2021-03-26T09:22:07Z</time>
      </trkpt>
      <trkpt lat="49.34321" lon="1.05711">
        <ele>97.51</ele>
        <time>2021-03-26T09:22:14Z</time>
      </trkpt>
      <trkpt lat="49.34315" lon="1.05821">
        <ele>92.73</ele>
        <time>2021-03-26T09:22:21Z</time>
      </trkpt>
      <trkpt lat="49.34307" lon="1.05903">
        <ele>91.71</ele>
        <time>2021-03-26T09:22:28Z</time>
      </trkpt>
      <trkpt lat="49.34298" lon="1.05986">
        <ele>87.19</ele>
        <time>2021-03-26T09:22:35Z</time>
      </trkpt>
      <trkpt lat="49.34284" lon="1.06075">
        <ele>82.85</ele>
        <time>2021-03-26T09:22:42Z</time>
      </trkpt>
      <trkpt lat="49.34253" lon="1.06225">
        <ele>79.74</ele>
        <time>2021-03-26T09:22:50Z</time>
      </trkpt>
      <trkpt lat="49.34226" lon="1.06327">
        <ele>76.68</ele>
        <time>2021-03-26T09:22:57Z</time>
      </trkpt>
      <trkpt lat="49.34197" lon="1.06419">
        <ele>73.58</ele>
        <time>2021-03-26T09:23:04Z</time>
      </trkpt>
      <trkpt lat="49.34165" lon="1.06508">
        <ele>73.87</ele>
        <time>2021-03-26T09:23:11Z</time>
      </trkpt>
      <trkpt lat="49.3412" lon="1.06611">
        <ele>70.34</ele>
        <time>2021-03-26T09:23:18Z</time>
      </trkpt>
      <trkpt lat="49.34085" lon="1.06685">
        <ele>66.67</ele>
        <time>2021-03-26T09:23:25Z</time>
      </trkpt>
      <trkpt lat="49.3404" lon="1.06768">
        <ele>64.54</ele>
        <time>2021-03-26T09:23:33Z</time>
      </trkpt>
      <trkpt lat="49.33944" lon="1.06939">
        <ele>55.57</ele>
        <time>2021-03-26T09:23:40Z</time>
      </trkpt>
      <trkpt lat="49.32979" lon="1.08654">
        <ele>8.65</ele>
        <time>2021-03-26T09:23:47Z</time>
      </trkpt>
      <trkpt lat="49.32883" lon="1.08824">
        <ele>8.48</ele>
        <time>2021-03-26T09:23:54Z</time>
      </trkpt>
      <trkpt lat="49.32498" lon="1.09505">
        <ele>10.39</ele>
        <time>2021-03-26T09:24:01Z</time>
      </trkpt>
      <trkpt lat="49.32364" lon="1.09731">
        <ele>22.33</ele>
        <time>2021-03-26T09:24:08Z</time>
      </trkpt>
      <trkpt lat="49.32249" lon="1.09914">
        <ele>33.54</ele>
        <time>2021-03-26T09:24:15Z</time>
      </trkpt>
      <trkpt lat="49.32193" lon="1.09999">
        <ele>35.33</ele>
        <time>2021-03-26T09:24:23Z</time>
      </trkpt>
      <trkpt lat="49.32097" lon="1.10135">
        <ele>33.68</ele>
        <time>2021-03-26T09:24:30Z</time>
      </trkpt>
      <trkpt lat="49.32009" lon="1.10256">
        <ele>26.04</ele>
        <time>2021-03-26T09:24:37Z</time>
      </trkpt>
      <trkpt lat="49.31944" lon="1.10339">
        <ele>21.93</ele>
        <time>2021-03-26T09:24:44Z</time>
      </trkpt>
      <trkpt lat="49.31872" lon="1.10427">
        <ele>15.42</ele>
        <time>2021-03-26T09:24:51Z</time>
      </trkpt>
      <trkpt lat="49.31722" lon="1.10601">
        <ele>9.97</ele>
        <time>2021-03-26T09:24:58Z</time>
      </trkpt>
      <trkpt lat="49.31601" lon="1.10728">
        <ele>6.44</ele>
        <time>2021-03-26T09:25:06Z</time>
      </trkpt>
      <trkpt lat="49.31469" lon="1.10857">
        <ele>5</ele>
        <time>2021-03-26T09:25:13Z</time>
      </trkpt>
      <trkpt lat="49.31368" lon="1.1095">
        <ele>5</ele>
        <time>2021-03-26T09:25:20Z</time>
      </trkpt>
      <trkpt lat="49.31251" lon="1.11049">
        <ele>5</ele>
        <time>2021-03-26T09:25:27Z</time>
      </trkpt>
      <trkpt lat="49.31187" lon="1.111">
        <ele>6</ele>
        <time>2021-03-26T09:25:34Z</time>
      </trkpt>
      <trkpt lat="49.30419" lon="1.11672">
        <ele>20.05</ele>
        <time>2021-03-26T09:25:41Z</time>
      </trkpt>
      <trkpt lat="49.3035" lon="1.11722">
        <ele>21</ele>
        <time>2021-03-26T09:25:49Z</time>
      </trkpt>
      <trkpt lat="49.30193" lon="1.11828">
        <ele>22</ele>
        <time>2021-03-26T09:25:56Z</time>
      </trkpt>
      <trkpt lat="49.30074" lon="1.11901">
        <ele>21.34</ele>
        <time>2021-03-26T09:26:03Z</time>
      </trkpt>
      <trkpt lat="49.30021" lon="1.11932">
        <ele>22.53</ele>
        <time>2021-03-26T09:26:10Z</time>
      </trkpt>
      <trkpt lat="49.29923" lon="1.11983">
        <ele>29.67</ele>
        <time>2021-03-26T09:26:17Z</time>
      </trkpt>
      <trkpt lat="49.29713" lon="1.12083">
        <ele>30.67</ele>
        <time>2021-03-26T09:26:24Z</time>
      </trkpt>
      <trkpt lat="49.29349" lon="1.12239">
        <ele>43.05</ele>
        <time>2021-03-26T09:26:32Z</time>
      </trkpt>
      <trkpt lat="49.28266" lon="1.12696">
        <ele>75.03</ele>
        <time>2021-03-26T09:26:39Z</time>
      </trkpt>
      <trkpt lat="49.2811" lon="1.12765">
        <ele>84.52</ele>
        <time>2021-03-26T09:26:46Z</time>
      </trkpt>
      <trkpt lat="49.27946" lon="1.12845">
        <ele>90.42</ele>
        <time>2021-03-26T09:26:53Z</time>
      </trkpt>
      <trkpt lat="49.27861" lon="1.1289">
        <ele>97.04</ele>
        <time>2021-03-26T09:27:00Z</time>
      </trkpt>
      <trkpt lat="49.2777" lon="1.12942">
        <ele>102.91</ele>
        <time>2021-03-26T09:27:07Z</time>
      </trkpt>
      <trkpt lat="49.27628" lon="1.13029">
        <ele>113</ele>
        <time>2021-03-26T09:27:14Z</time>
      </trkpt>
      <trkpt lat="49.27537" lon="1.13091">
        <ele>114.58</ele>
        <time>2021-03-26T09:27:22Z</time>
      </trkpt>
      <trkpt lat="49.27421" lon="1.13173">
        <ele>119.45</ele>
        <time>2021-03-26T09:27:29Z</time>
      </trkpt>
      <trkpt lat="49.27353" lon="1.13224">
        <ele>122.13</ele>
        <time>2021-03-26T09:27:36Z</time>
      </trkpt>
      <trkpt lat="49.27273" lon="1.13287">
        <ele>124.47</ele>
        <time>2021-03-26T09:27:43Z</time>
      </trkpt>
      <trkpt lat="49.27131" lon="1.13407">
        <ele>129.74</ele>
        <time>2021-03-26T09:27:50Z</time>
      </trkpt>
      <trkpt lat="49.27057" lon="1.13474">
        <ele>132.75</ele>
        <time>2021-03-26T09:27:57Z</time>
      </trkpt>
      <trkpt lat="49.2694" lon="1.13586">
        <ele>134.95</ele>
        <time>2021-03-26T09:28:05Z</time>
      </trkpt>
      <trkpt lat="49.26856" lon="1.1367">
        <ele>132.82</ele>
        <time>2021-03-26T09:28:12Z</time>
      </trkpt>
      <trkpt lat="49.26706" lon="1.13833">
        <ele>134.19</ele>
        <time>2021-03-26T09:28:19Z</time>
      </trkpt>
      <trkpt lat="49.26645" lon="1.13903">
        <ele>134.5</ele>
        <time>2021-03-26T09:28:26Z</time>
      </trkpt>
      <trkpt lat="49.26543" lon="1.14026">
        <ele>131.68</ele>
        <time>2021-03-26T09:28:33Z</time>
      </trkpt>
      <trkpt lat="49.26487" lon="1.14097">
        <ele>128.52</ele>
        <time>2021-03-26T09:28:40Z</time>
      </trkpt>
      <trkpt lat="49.2639" lon="1.14225">
        <ele>127.95</ele>
        <time>2021-03-26T09:28:48Z</time>
      </trkpt>
      <trkpt lat="49.26341" lon="1.14292">
        <ele>127.22</ele>
        <time>2021-03-26T09:28:55Z</time>
      </trkpt>
      <trkpt lat="49.2626" lon="1.14409">
        <ele>125.37</ele>
        <time>2021-03-26T09:29:02Z</time>
      </trkpt>
      <trkpt lat="49.26149" lon="1.14578">
        <ele>120.9</ele>
        <time>2021-03-26T09:29:09Z</time>
      </trkpt>
      <trkpt lat="49.26078" lon="1.14693">
        <ele>122.66</ele>
        <time>2021-03-26T09:29:16Z</time>
      </trkpt>
      <trkpt lat="49.25977" lon="1.14865">
        <ele>123.73</ele>
        <time>2021-03-26T09:29:23Z</time>
      </trkpt>
      <trkpt lat="49.25914" lon="1.14978">
        <ele>118.84</ele>
        <time>2021-03-26T09:29:31Z</time>
      </trkpt>
      <trkpt lat="49.25845" lon="1.15109">
        <ele>115.04</ele>
        <time>2021-03-26T09:29:38Z</time>
      </trkpt>
      <trkpt lat="49.25787" lon="1.15225">
        <ele>108.57</ele>
        <time>2021-03-26T09:29:45Z</time>
      </trkpt>
      <trkpt lat="49.25692" lon="1.15424">
        <ele>108.01</ele>
        <time>2021-03-26T09:29:52Z</time>
      </trkpt>
      <trkpt lat="49.2562" lon="1.15587">
        <ele>102.53</ele>
        <time>2021-03-26T09:29:59Z</time>
      </trkpt>
      <trkpt lat="49.25511" lon="1.15851">
        <ele>86.93</ele>
        <time>2021-03-26T09:30:06Z</time>
      </trkpt>
      <trkpt lat="49.25446" lon="1.16024">
        <ele>81.07</ele>
        <time>2021-03-26T09:30:13Z</time>
      </trkpt>
      <trkpt lat="49.25389" lon="1.1618">
        <ele>80</ele>
        <time>2021-03-26T09:30:21Z</time>
      </trkpt>
      <trkpt lat="49.24877" lon="1.17626">
        <ele>29</ele>
        <time>2021-03-26T09:30:28Z</time>
      </trkpt>
      <trkpt lat="49.24668" lon="1.18213">
        <ele>22.73</ele>
        <time>2021-03-26T09:30:35Z</time>
      </trkpt>
      <trkpt lat="49.24623" lon="1.18336">
        <ele>20</ele>
        <time>2021-03-26T09:30:42Z</time>
      </trkpt>
      <trkpt lat="49.24575" lon="1.18459">
        <ele>19.91</ele>
        <time>2021-03-26T09:30:49Z</time>
      </trkpt>
      <trkpt lat="49.24513" lon="1.18614">
        <ele>17.95</ele>
        <time>2021-03-26T09:30:56Z</time>
      </trkpt>
      <trkpt lat="49.24426" lon="1.18812">
        <ele>13</ele>
        <time>2021-03-26T09:31:04Z</time>
      </trkpt>
      <trkpt lat="49.24366" lon="1.18938">
        <ele>14.06</ele>
        <time>2021-03-26T09:31:11Z</time>
      </trkpt>
      <trkpt lat="49.24248" lon="1.19166">
        <ele>15.82</ele>
        <time>2021-03-26T09:31:18Z</time>
      </trkpt>
      <trkpt lat="49.24152" lon="1.19335">
        <ele>23.46</ele>
        <time>2021-03-26T09:31:25Z</time>
      </trkpt>
      <trkpt lat="49.24103" lon="1.19416">
        <ele>27.19</ele>
        <time>2021-03-26T09:31:32Z</time>
      </trkpt>
      <trkpt lat="49.24036" lon="1.19521">
        <ele>32.07</ele>
        <time>2021-03-26T09:31:39Z</time>
      </trkpt>
      <trkpt lat="49.23969" lon="1.19621">
        <ele>40.26</ele>
        <time>2021-03-26T09:31:47Z</time>
      </trkpt>
      <trkpt lat="49.23836" lon="1.19805">
        <ele>48.73</ele>
        <time>2021-03-26T09:31:54Z</time>
      </trkpt>
      <trkpt lat="49.23768" lon="1.19894">
        <ele>51.97</ele>
        <time>2021-03-26T09:32:01Z</time>
      </trkpt>
      <trkpt lat="49.23686" lon="1.19994">
        <ele>57.15</ele>
        <time>2021-03-26T09:32:08Z</time>
      </trkpt>
      <trkpt lat="49.23601" lon="1.2009">
        <ele>61.79</ele>
        <time>2021-03-26T09:32:15Z</time>
      </trkpt>
      <trkpt lat="49.23513" lon="1.20185">
        <ele>70.15</ele>
        <time>2021-03-26T09:32:22Z</time>
      </trkpt>
      <trkpt lat="49.23417" lon="1.2028">
        <ele>75.7</ele>
        <time>2021-03-26T09:32:30Z</time>
      </trkpt>
      <trkpt lat="49.2334" lon="1.20354">
        <ele>81.83</ele>
        <time>2021-03-26T09:32:37Z</time>
      </trkpt>
      <trkpt lat="49.23266" lon="1.20421">
        <ele>85.86</ele>
        <time>2021-03-26T09:32:44Z</time>
      </trkpt>
      <trkpt lat="49.23175" lon="1.20497">
        <ele>90.61</ele>
        <time>2021-03-26T09:32:51Z</time>
      </trkpt>
      <trkpt lat="49.23084" lon="1.20568">
        <ele>96.39</ele>
        <time>2021-03-26T09:32:58Z</time>
      </trkpt>
      <trkpt lat="49.22918" lon="1.2069">
        <ele>102.72</ele>
        <time>2021-03-26T09:33:05Z</time>
      </trkpt>
      <trkpt lat="49.21363" lon="1.2174">
        <ele>123.6</ele>
        <time>2021-03-26T09:33:12Z</time>
      </trkpt>
      <trkpt lat="49.19448" lon="1.2303">
        <ele>132.99</ele>
        <time>2021-03-26T09:33:20Z</time>
      </trkpt>
      <trkpt lat="49.19146" lon="1.23219">
        <ele>137.08</ele>
        <time>2021-03-26T09:33:27Z</time>
      </trkpt>
      <trkpt lat="49.19027" lon="1.23302">
        <ele>138.15</ele>
        <time>2021-03-26T09:33:34Z</time>
      </trkpt>
      <trkpt lat="49.1894" lon="1.2337">
        <ele>143.31</ele>
        <time>2021-03-26T09:33:41Z</time>
      </trkpt>
      <trkpt lat="49.18462" lon="1.23696">
        <ele>142.44</ele>
        <time>2021-03-26T09:33:48Z</time>
      </trkpt>
      <trkpt lat="49.18252" lon="1.23849">
        <ele>148.47</ele>
        <time>2021-03-26T09:33:55Z</time>
      </trkpt>
      <trkpt lat="49.18114" lon="1.23955">
        <ele>148.82</ele>
        <time>2021-03-26T09:34:03Z</time>
      </trkpt>
      <trkpt lat="49.17979" lon="1.24065">
        <ele>147.17</ele>
        <time>2021-03-26T09:34:10Z</time>
      </trkpt>
      <trkpt lat="49.17845" lon="1.24178">
        <ele>146.01</ele>
        <time>2021-03-26T09:34:17Z</time>
      </trkpt>
      <trkpt lat="49.17721" lon="1.2429">
        <ele>145</ele>
        <time>2021-03-26T09:34:24Z</time>
      </trkpt>
      <trkpt lat="49.17615" lon="1.24391">
        <ele>142.78</ele>
        <time>2021-03-26T09:34:31Z</time>
      </trkpt>
      <trkpt lat="49.17461" lon="1.24546">
        <ele>135.94</ele>
        <time>2021-03-26T09:34:38Z</time>
      </trkpt>
      <trkpt lat="49.1735" lon="1.24663">
        <ele>135.58</ele>
        <time>2021-03-26T09:34:46Z</time>
      </trkpt>
      <trkpt lat="49.1724" lon="1.24784">
        <ele>136.48</ele>
        <time>2021-03-26T09:34:53Z</time>
      </trkpt>
      <trkpt lat="49.17141" lon="1.24898">
        <ele>138.35</ele>
        <time>2021-03-26T09:35:00Z</time>
      </trkpt>
      <trkpt lat="49.17012" lon="1.25055">
        <ele>134.43</ele>
        <time>2021-03-26T09:35:07Z</time>
      </trkpt>
      <trkpt lat="49.16854" lon="1.25258">
        <ele>126.93</ele>
        <time>2021-03-26T09:35:14Z</time>
      </trkpt>
      <trkpt lat="49.16772" lon="1.25368">
        <ele>128.81</ele>
        <time>2021-03-26T09:35:21Z</time>
      </trkpt>
      <trkpt lat="49.16696" lon="1.25475">
        <ele>127.09</ele>
        <time>2021-03-26T09:35:29Z</time>
      </trkpt>
      <trkpt lat="49.16588" lon="1.25631">
        <ele>128.61</ele>
        <time>2021-03-26T09:35:36Z</time>
      </trkpt>
      <trkpt lat="49.16499" lon="1.25767">
        <ele>128.67</ele>
        <time>2021-03-26T09:35:43Z</time>
      </trkpt>
      <trkpt lat="49.16412" lon="1.25905">
        <ele>133.31</ele>
        <time>2021-03-26T09:35:50Z</time>
      </trkpt>
      <trkpt lat="49.16326" lon="1.26046">
        <ele>135.81</ele>
        <time>2021-03-26T09:35:57Z</time>
      </trkpt>
      <trkpt lat="49.1624" lon="1.26192">
        <ele>138.42</ele>
        <time>2021-03-26T09:36:04Z</time>
      </trkpt>
      <trkpt lat="49.1614" lon="1.26372">
        <ele>139.58</ele>
        <time>2021-03-26T09:36:11Z</time>
      </trkpt>
      <trkpt lat="49.16089" lon="1.26468">
        <ele>140.8</ele>
        <time>2021-03-26T09:36:19Z</time>
      </trkpt>
      <trkpt lat="49.1594" lon="1.26762">
        <ele>146.42</ele>
        <time>2021-03-26T09:36:26Z</time>
      </trkpt>
      <trkpt lat="49.1542" lon="1.2783">
        <ele>147.63</ele>
        <time>2021-03-26T09:36:33Z</time>
      </trkpt>
      <trkpt lat="49.15324" lon="1.28041">
        <ele>149.9</ele>
        <time>2021-03-26T09:36:40Z</time>
      </trkpt>
      <trkpt lat="49.14859" lon="1.29116">
        <ele>139.34</ele>
        <time>2021-03-26T09:36:47Z</time>
      </trkpt>
      <trkpt lat="49.14769" lon="1.29316">
        <ele>145.33</ele>
        <time>2021-03-26T09:36:54Z</time>
      </trkpt>
      <trkpt lat="49.14653" lon="1.29558">
        <ele>142.5</ele>
        <time>2021-03-26T09:37:02Z</time>
      </trkpt>
      <trkpt lat="49.1451" lon="1.29836">
        <ele>141.65</ele>
        <time>2021-03-26T09:37:09Z</time>
      </trkpt>
      <trkpt lat="49.14417" lon="1.30007">
        <ele>140.98</ele>
        <time>2021-03-26T09:37:16Z</time>
      </trkpt>
      <trkpt lat="49.14302" lon="1.30206">
        <ele>142</ele>
        <time>2021-03-26T09:37:23Z</time>
      </trkpt>
      <trkpt lat="49.14183" lon="1.304">
        <ele>138.15</ele>
        <time>2021-03-26T09:37:30Z</time>
      </trkpt>
      <trkpt lat="49.14081" lon="1.30561">
        <ele>139.98</ele>
        <time>2021-03-26T09:37:37Z</time>
      </trkpt>
      <trkpt lat="49.13957" lon="1.30746">
        <ele>137.44</ele>
        <time>2021-03-26T09:37:45Z</time>
      </trkpt>
      <trkpt lat="49.13901" lon="1.30825">
        <ele>138.61</ele>
        <time>2021-03-26T09:37:52Z</time>
      </trkpt>
      <trkpt lat="49.13737" lon="1.31045">
        <ele>137.49</ele>
        <time>2021-03-26T09:37:59Z</time>
      </trkpt>
      <trkpt lat="49.13511" lon="1.31334">
        <ele>138.61</ele>
        <time>2021-03-26T09:38:06Z</time>
      </trkpt>
      <trkpt lat="49.13027" lon="1.31945">
        <ele>138.94</ele>
        <time>2021-03-26T09:38:13Z</time>
      </trkpt>
      <trkpt lat="49.12932" lon="1.32058">
        <ele>135</ele>
        <time>2021-03-26T09:38:20Z</time>
      </trkpt>
      <trkpt lat="49.12818" lon="1.32188">
        <ele>135.45</ele>
        <time>2021-03-26T09:38:28Z</time>
      </trkpt>
      <trkpt lat="49.12759" lon="1.32253">
        <ele>136.09</ele>
        <time>2021-03-26T09:38:35Z</time>
      </trkpt>
      <trkpt lat="49.12583" lon="1.3244">
        <ele>136</ele>
        <time>2021-03-26T09:38:42Z</time>
      </trkpt>
      <trkpt lat="49.12442" lon="1.32578">
        <ele>135.18</ele>
        <time>2021-03-26T09:38:49Z</time>
      </trkpt>
      <trkpt lat="49.12304" lon="1.32707">
        <ele>138.51</ele>
        <time>2021-03-26T09:38:56Z</time>
      </trkpt>
      <trkpt lat="49.1218" lon="1.32814">
        <ele>135.84</ele>
        <time>2021-03-26T09:39:03Z</time>
      </trkpt>
      <trkpt lat="49.11696" lon="1.33217">
        <ele>130.67</ele>
        <time>2021-03-26T09:39:10Z</time>
      </trkpt>
      <trkpt lat="49.1152" lon="1.3337">
        <ele>133.33</ele>
        <time>2021-03-26T09:39:18Z</time>
      </trkpt>
      <trkpt lat="49.11405" lon="1.33477">
        <ele>131.03</ele>
        <time>2021-03-26T09:39:25Z</time>
      </trkpt>
      <trkpt lat="49.1131" lon="1.3357">
        <ele>130</ele>
        <time>2021-03-26T09:39:32Z</time>
      </trkpt>
      <trkpt lat="49.11182" lon="1.337">
        <ele>130.56</ele>
        <time>2021-03-26T09:39:39Z</time>
      </trkpt>
      <trkpt lat="49.11076" lon="1.33812">
        <ele>129.94</ele>
        <time>2021-03-26T09:39:46Z</time>
      </trkpt>
      <trkpt lat="49.10998" lon="1.33899">
        <ele>125.97</ele>
        <time>2021-03-26T09:39:53Z</time>
      </trkpt>
      <trkpt lat="49.10862" lon="1.34055">
        <ele>126</ele>
        <time>2021-03-26T09:40:01Z</time>
      </trkpt>
      <trkpt lat="49.10671" lon="1.34291">
        <ele>128.77</ele>
        <time>2021-03-26T09:40:08Z</time>
      </trkpt>
      <trkpt lat="49.10627" lon="1.34346">
        <ele>129.5</ele>
        <time>2021-03-26T09:40:15Z</time>
      </trkpt>
      <trkpt lat="49.10479" lon="1.34546">
        <ele>131.88</ele>
        <time>2021-03-26T09:40:22Z</time>
      </trkpt>
      <trkpt lat="49.10349" lon="1.34732">
        <ele>128.58</ele>
        <time>2021-03-26T09:40:29Z</time>
      </trkpt>
      <trkpt lat="49.10214" lon="1.3494">
        <ele>130.17</ele>
        <time>2021-03-26T09:40:36Z</time>
      </trkpt>
      <trkpt lat="49.10132" lon="1.3507">
        <ele>129.21</ele>
        <time>2021-03-26T09:40:44Z</time>
      </trkpt>
      <trkpt lat="49.10043" lon="1.35218">
        <ele>129.93</ele>
        <time>2021-03-26T09:40:51Z</time>
      </trkpt>
      <trkpt lat="49.09651" lon="1.35906">
        <ele>131.26</ele>
        <time>2021-03-26T09:40:58Z</time>
      </trkpt>
      <trkpt lat="49.09421" lon="1.36312">
        <ele>128</ele>
        <time>2021-03-26T09:41:05Z</time>
      </trkpt>
      <trkpt lat="49.09329" lon="1.36474">
        <ele>125.71</ele>
        <time>2021-03-26T09:41:12Z</time>
      </trkpt>
      <trkpt lat="49.09257" lon="1.36593">
        <ele>124.26</ele>
        <time>2021-03-26T09:41:19Z</time>
      </trkpt>
      <trkpt lat="49.09184" lon="1.3671">
        <ele>124.57</ele>
        <time>2021-03-26T09:41:27Z</time>
      </trkpt>
      <trkpt lat="49.09106" lon="1.36832">
        <ele>124.76</ele>
        <time>2021-03-26T09:41:34Z</time>
      </trkpt>
      <trkpt lat="49.0861" lon="1.3758">
        <ele>121.96</ele>
        <time>2021-03-26T09:41:41Z</time>
      </trkpt>
      <trkpt lat="49.08512" lon="1.37736">
        <ele>126.78</ele>
        <time>2021-03-26T09:41:48Z</time>
      </trkpt>
      <trkpt lat="49.0842" lon="1.3789">
        <ele>128.88</ele>
        <time>2021-03-26T09:41:55Z</time>
      </trkpt>
      <trkpt lat="49.0833" lon="1.38047">
        <ele>130</ele>
        <time>2021-03-26T09:42:02Z</time>
      </trkpt>
      <trkpt lat="49.0823" lon="1.38229">
        <ele>129.21</ele>
        <time>2021-03-26T09:42:09Z</time>
      </trkpt>
      <trkpt lat="49.08081" lon="1.38519">
        <ele>130.05</ele>
        <time>2021-03-26T09:42:17Z</time>
      </trkpt>
      <trkpt lat="49.07979" lon="1.38733">
        <ele>134.28</ele>
        <time>2021-03-26T09:42:24Z</time>
      </trkpt>
      <trkpt lat="49.07895" lon="1.38916">
        <ele>134.99</ele>
        <time>2021-03-26T09:42:31Z</time>
      </trkpt>
      <trkpt lat="49.07683" lon="1.39402">
        <ele>140</ele>
        <time>2021-03-26T09:42:38Z</time>
      </trkpt>
      <trkpt lat="49.07582" lon="1.39638">
        <ele>136.91</ele>
        <time>2021-03-26T09:42:45Z</time>
      </trkpt>
      <trkpt lat="49.07434" lon="1.39978">
        <ele>140.38</ele>
        <time>2021-03-26T09:42:52Z</time>
      </trkpt>
      <trkpt lat="49.07329" lon="1.40216">
        <ele>143.22</ele>
        <time>2021-03-26T09:43:00Z</time>
      </trkpt>
      <trkpt lat="49.07221" lon="1.40452">
        <ele>143.95</ele>
        <time>2021-03-26T09:43:07Z</time>
      </trkpt>
      <trkpt lat="49.07073" lon="1.40762">
        <ele>142.37</ele>
        <time>2021-03-26T09:43:14Z</time>
      </trkpt>
      <trkpt lat="49.06187" lon="1.42534">
        <ele>136.06</ele>
        <time>2021-03-26T09:43:21Z</time>
      </trkpt>
      <trkpt lat="49.06076" lon="1.42751">
        <ele>136.51</ele>
        <time>2021-03-26T09:43:28Z</time>
      </trkpt>
      <trkpt lat="49.05989" lon="1.42914">
        <ele>139</ele>
        <time>2021-03-26T09:43:35Z</time>
      </trkpt>
      <trkpt lat="49.05845" lon="1.43168">
        <ele>137</ele>
        <time>2021-03-26T09:43:43Z</time>
      </trkpt>
      <trkpt lat="49.05715" lon="1.43382">
        <ele>140</ele>
        <time>2021-03-26T09:43:50Z</time>
      </trkpt>
      <trkpt lat="49.05604" lon="1.43555">
        <ele>140.97</ele>
        <time>2021-03-26T09:43:57Z</time>
      </trkpt>
      <trkpt lat="49.0552" lon="1.43679">
        <ele>139.9</ele>
        <time>2021-03-26T09:44:04Z</time>
      </trkpt>
      <trkpt lat="49.05445" lon="1.43787">
        <ele>138</ele>
        <time>2021-03-26T09:44:11Z</time>
      </trkpt>
      <trkpt lat="49.05348" lon="1.43922">
        <ele>138.66</ele>
        <time>2021-03-26T09:44:18Z</time>
      </trkpt>
      <trkpt lat="49.0525" lon="1.44053">
        <ele>141</ele>
        <time>2021-03-26T09:44:26Z</time>
      </trkpt>
      <trkpt lat="49.05111" lon="1.44227">
        <ele>139.82</ele>
        <time>2021-03-26T09:44:33Z</time>
      </trkpt>
      <trkpt lat="49.05012" lon="1.44346">
        <ele>139.86</ele>
        <time>2021-03-26T09:44:40Z</time>
      </trkpt>
      <trkpt lat="49.04913" lon="1.4446">
        <ele>140.46</ele>
        <time>2021-03-26T09:44:47Z</time>
      </trkpt>
      <trkpt lat="49.04091" lon="1.4538">
        <ele>137.81</ele>
        <time>2021-03-26T09:44:54Z</time>
      </trkpt>
      <trkpt lat="49.03909" lon="1.45599">
        <ele>136.97</ele>
        <time>2021-03-26T09:45:01Z</time>
      </trkpt>
      <trkpt lat="49.0379" lon="1.45752">
        <ele>135.53</ele>
        <time>2021-03-26T09:45:08Z</time>
      </trkpt>
      <trkpt lat="49.03673" lon="1.45914">
        <ele>136.92</ele>
        <time>2021-03-26T09:45:16Z</time>
      </trkpt>
      <trkpt lat="49.03529" lon="1.46132">
        <ele>140.65</ele>
        <time>2021-03-26T09:45:23Z</time>
      </trkpt>
      <trkpt lat="49.03426" lon="1.463">
        <ele>141.74</ele>
        <time>2021-03-26T09:45:30Z</time>
      </trkpt>
      <trkpt lat="49.03303" lon="1.46515">
        <ele>144.41</ele>
        <time>2021-03-26T09:45:37Z</time>
      </trkpt>
      <trkpt lat="49.0324" lon="1.46632">
        <ele>146.49</ele>
        <time>2021-03-26T09:45:44Z</time>
      </trkpt>
      <trkpt lat="49.03179" lon="1.46752">
        <ele>147.4</ele>
        <time>2021-03-26T09:45:51Z</time>
      </trkpt>
      <trkpt lat="49.03133" lon="1.46846">
        <ele>147.65</ele>
        <time>2021-03-26T09:45:59Z</time>
      </trkpt>
      <trkpt lat="49.03009" lon="1.47117">
        <ele>144.12</ele>
        <time>2021-03-26T09:46:06Z</time>
      </trkpt>
      <trkpt lat="49.02936" lon="1.47291">
        <ele>143.84</ele>
        <time>2021-03-26T09:46:13Z</time>
      </trkpt>
      <trkpt lat="49.02867" lon="1.47467">
        <ele>143</ele>
        <time>2021-03-26T09:46:20Z</time>
      </trkpt>
      <trkpt lat="49.02801" lon="1.47645">
        <ele>145.19</ele>
        <time>2021-03-26T09:46:27Z</time>
      </trkpt>
      <trkpt lat="49.02744" lon="1.47812">
        <ele>145.8</ele>
        <time>2021-03-26T09:46:34Z</time>
      </trkpt>
      <trkpt lat="49.02697" lon="1.47961">
        <ele>145.37</ele>
        <time>2021-03-26T09:46:42Z</time>
      </trkpt>
      <trkpt lat="49.02641" lon="1.48147">
        <ele>146.29</ele>
        <time>2021-03-26T09:46:49Z</time>
      </trkpt>
      <trkpt lat="49.02598" lon="1.48299">
        <ele>150.26</ele>
        <time>2021-03-26T09:46:56Z</time>
      </trkpt>
      <trkpt lat="49.02543" lon="1.48514">
        <ele>147.03</ele>
        <time>2021-03-26T09:47:03Z</time>
      </trkpt>
      <trkpt lat="49.02505" lon="1.48675">
        <ele>147.05</ele>
        <time>2021-03-26T09:47:10Z</time>
      </trkpt>
      <trkpt lat="49.02472" lon="1.48824">
        <ele>149.01</ele>
        <time>2021-03-26T09:47:17Z</time>
      </trkpt>
      <trkpt lat="49.02405" lon="1.49156">
        <ele>152.41</ele>
        <time>2021-03-26T09:47:25Z</time>
      </trkpt>
      <trkpt lat="49.02314" lon="1.49645">
        <ele>148.38</ele>
        <time>2021-03-26T09:47:32Z</time>
      </trkpt>
      <trkpt lat="49.02118" lon="1.5071">
        <ele>140.66</ele>
        <time>2021-03-26T09:47:39Z</time>
      </trkpt>
      <trkpt lat="49.02093" lon="1.50853">
        <ele>137.05</ele>
        <time>2021-03-26T09:47:46Z</time>
      </trkpt>
      <trkpt lat="49.02069" lon="1.5101">
        <ele>134.65</ele>
        <time>2021-03-26T09:47:53Z</time>
      </trkpt>
      <trkpt lat="49.02036" lon="1.51252">
        <ele>131.76</ele>
        <time>2021-03-26T09:48:00Z</time>
      </trkpt>
      <trkpt lat="49.02014" lon="1.5144">
        <ele>132.83</ele>
        <time>2021-03-26T09:48:07Z</time>
      </trkpt>
      <trkpt lat="49.01991" lon="1.51701">
        <ele>132.92</ele>
        <time>2021-03-26T09:48:15Z</time>
      </trkpt>
      <trkpt lat="49.01978" lon="1.51883">
        <ele>131.95</ele>
        <time>2021-03-26T09:48:22Z</time>
      </trkpt>
      <trkpt lat="49.01965" lon="1.52156">
        <ele>133.4</ele>
        <time>2021-03-26T09:48:29Z</time>
      </trkpt>
      <trkpt lat="49.01959" lon="1.52445">
        <ele>128.07</ele>
        <time>2021-03-26T09:48:36Z</time>
      </trkpt>
      <trkpt lat="49.01959" lon="1.5258">
        <ele>128</ele>
        <time>2021-03-26T09:48:43Z</time>
      </trkpt>
      <trkpt lat="49.01962" lon="1.52753">
        <ele>127.38</ele>
        <time>2021-03-26T09:48:50Z</time>
      </trkpt>
      <trkpt lat="49.0197" lon="1.52977">
        <ele>128.02</ele>
        <time>2021-03-26T09:48:58Z</time>
      </trkpt>
      <trkpt lat="49.01979" lon="1.53162">
        <ele>122.64</ele>
        <time>2021-03-26T09:49:05Z</time>
      </trkpt>
      <trkpt lat="49.02064" lon="1.544">
        <ele>132.05</ele>
        <time>2021-03-26T09:49:12Z</time>
      </trkpt>
      <trkpt lat="49.02078" lon="1.54636">
        <ele>127.59</ele>
        <time>2021-03-26T09:49:19Z</time>
      </trkpt>
      <trkpt lat="49.02094" lon="1.55018">
        <ele>125</ele>
        <time>2021-03-26T09:49:26Z</time>
      </trkpt>
      <trkpt lat="49.02101" lon="1.55295">
        <ele>124.42</ele>
        <time>2021-03-26T09:49:33Z</time>
      </trkpt>
      <trkpt lat="49.02104" lon="1.55474">
        <ele>123.86</ele>
        <time>2021-03-26T09:49:41Z</time>
      </trkpt>
      <trkpt lat="49.02105" lon="1.55694">
        <ele>121.02</ele>
        <time>2021-03-26T09:49:48Z</time>
      </trkpt>
      <trkpt lat="49.02103" lon="1.56034">
        <ele>114.26</ele>
        <time>2021-03-26T09:49:55Z</time>
      </trkpt>
      <trkpt lat="49.02084" lon="1.56912">
        <ele>106.98</ele>
        <time>2021-03-26T09:50:02Z</time>
      </trkpt>
      <trkpt lat="49.02081" lon="1.57012">
        <ele>106.26</ele>
        <time>2021-03-26T09:50:09Z</time>
      </trkpt>
      <trkpt lat="49.02073" lon="1.57133">
        <ele>106.86</ele>
        <time>2021-03-26T09:50:16Z</time>
      </trkpt>
      <trkpt lat="49.02055" lon="1.57315">
        <ele>107.64</ele>
        <time>2021-03-26T09:50:24Z</time>
      </trkpt>
      <trkpt lat="49.02042" lon="1.57405">
        <ele>105.07</ele>
        <time>2021-03-26T09:50:31Z</time>
      </trkpt>
      <trkpt lat="49.02027" lon="1.57502">
        <ele>112.04</ele>
        <time>2021-03-26T09:50:38Z</time>
      </trkpt>
      <trkpt lat="49.02004" lon="1.57624">
        <ele>112.61</ele>
        <time>2021-03-26T09:50:45Z</time>
      </trkpt>
      <trkpt lat="49.01956" lon="1.57823">
        <ele>113.14</ele>
        <time>2021-03-26T09:50:52Z</time>
      </trkpt>
      <trkpt lat="49.01922" lon="1.57945">
        <ele>103.75</ele>
        <time>2021-03-26T09:50:59Z</time>
      </trkpt>
      <trkpt lat="49.01885" lon="1.58063">
        <ele>99.38</ele>
        <time>2021-03-26T09:51:06Z</time>
      </trkpt>
      <trkpt lat="49.01854" lon="1.5815">
        <ele>95.06</ele>
        <time>2021-03-26T09:51:14Z</time>
      </trkpt>
      <trkpt lat="49.01821" lon="1.58237">
        <ele>91.91</ele>
        <time>2021-03-26T09:51:21Z</time>
      </trkpt>
      <trkpt lat="49.01749" lon="1.58402">
        <ele>70.99</ele>
        <time>2021-03-26T09:51:28Z</time>
      </trkpt>
      <trkpt lat="49.01677" lon="1.58545">
        <ele>69.96</ele>
        <time>2021-03-26T09:51:35Z</time>
      </trkpt>
      <trkpt lat="49.01645" lon="1.58601">
        <ele>70.14</ele>
        <time>2021-03-26T09:51:42Z</time>
      </trkpt>
      <trkpt lat="49.01589" lon="1.58694">
        <ele>67.98</ele>
        <time>2021-03-26T09:51:49Z</time>
      </trkpt>
      <trkpt lat="49.0149" lon="1.58841">
        <ele>70.83</ele>
        <time>2021-03-26T09:51:57Z</time>
      </trkpt>
      <trkpt lat="49.01197" lon="1.59259">
        <ele>87.7</ele>
        <time>2021-03-26T09:52:04Z</time>
      </trkpt>
      <trkpt lat="49.00838" lon="1.59776">
        <ele>117.39</ele>
        <time>2021-03-26T09:52:11Z</time>
      </trkpt>
      <trkpt lat="49.005" lon="1.60258">
        <ele>118.81</ele>
        <time>2021-03-26T09:52:18Z</time>
      </trkpt>
      <trkpt lat="49.00315" lon="1.60525">
        <ele>114.95</ele>
        <time>2021-03-26T09:52:25Z</time>
      </trkpt>
      <trkpt lat="49.00268" lon="1.60597">
        <ele>111.07</ele>
        <time>2021-03-26T09:52:32Z</time>
      </trkpt>
      <trkpt lat="49.00224" lon="1.60671">
        <ele>110.27</ele>
        <time>2021-03-26T09:52:40Z</time>
      </trkpt>
      <trkpt lat="49.00181" lon="1.60748">
        <ele>109.07</ele>
        <time>2021-03-26T09:52:47Z</time>
      </trkpt>
      <trkpt lat="49.00023" lon="1.61052">
        <ele>83.74</ele>
        <time>2021-03-26T09:52:54Z</time>
      </trkpt>
      <trkpt lat="48.9995" lon="1.61184">
        <ele>81.08</ele>
        <time>2021-03-26T09:53:01Z</time>
      </trkpt>
      <trkpt lat="48.99907" lon="1.61255">
        <ele>84.1</ele>
        <time>2021-03-26T09:53:08Z</time>
      </trkpt>
      <trkpt lat="48.99849" lon="1.6134">
        <ele>80.39</ele>
        <time>2021-03-26T09:53:15Z</time>
      </trkpt>
      <trkpt lat="48.99737" lon="1.61492">
        <ele>68.45</ele>
        <time>2021-03-26T09:53:23Z</time>
      </trkpt>
      <trkpt lat="48.99685" lon="1.61572">
        <ele>61.48</ele>
        <time>2021-03-26T09:53:30Z</time>
      </trkpt>
      <trkpt lat="48.99653" lon="1.61627">
        <ele>57.6</ele>
        <time>2021-03-26T09:53:37Z</time>
      </trkpt>
      <trkpt lat="48.99621" lon="1.61685">
        <ele>54.5</ele>
        <time>2021-03-26T09:53:44Z</time>
      </trkpt>
      <trkpt lat="48.99601" lon="1.61727">
        <ele>52.46</ele>
        <time>2021-03-26T09:53:51Z</time>
      </trkpt>
      <trkpt lat="48.99571" lon="1.61799">
        <ele>50.47</ele>
        <time>2021-03-26T09:53:58Z</time>
      </trkpt>
      <trkpt lat="48.99534" lon="1.61901">
        <ele>45.57</ele>
        <time>2021-03-26T09:54:05Z</time>
      </trkpt>
      <trkpt lat="48.99507" lon="1.61988">
        <ele>42</ele>
        <time>2021-03-26T09:54:13Z</time>
      </trkpt>
      <trkpt lat="48.99481" lon="1.62094">
        <ele>37.49</ele>
        <time>2021-03-26T09:54:20Z</time>
      </trkpt>
      <trkpt lat="48.99449" lon="1.62256">
        <ele>39.52</ele>
        <time>2021-03-26T09:54:27Z</time>
      </trkpt>
      <trkpt lat="48.99334" lon="1.62903">
        <ele>35.01</ele>
        <time>2021-03-26T09:54:34Z</time>
      </trkpt>
      <trkpt lat="48.98925" lon="1.65235">
        <ele>44.06</ele>
        <time>2021-03-26T09:54:41Z</time>
      </trkpt>
      <trkpt lat="48.98901" lon="1.65362">
        <ele>43.02</ele>
        <time>2021-03-26T09:54:48Z</time>
      </trkpt>
      <trkpt lat="48.98563" lon="1.67065">
        <ele>49.63</ele>
        <time>2021-03-26T09:54:56Z</time>
      </trkpt>
      <trkpt lat="48.98509" lon="1.67345">
        <ele>53.35</ele>
        <time>2021-03-26T09:55:03Z</time>
      </trkpt>
      <trkpt lat="48.98466" lon="1.67567">
        <ele>51.4</ele>
        <time>2021-03-26T09:55:10Z</time>
      </trkpt>
      <trkpt lat="48.98361" lon="1.68112">
        <ele>54.02</ele>
        <time>2021-03-26T09:55:17Z</time>
      </trkpt>
      <trkpt lat="48.98262" lon="1.68591">
        <ele>57.15</ele>
        <time>2021-03-26T09:55:24Z</time>
      </trkpt>
      <trkpt lat="48.97963" lon="1.70107">
        <ele>63</ele>
        <time>2021-03-26T09:55:31Z</time>
      </trkpt>
      <trkpt lat="48.97917" lon="1.70375">
        <ele>55.51</ele>
        <time>2021-03-26T09:55:39Z</time>
      </trkpt>
      <trkpt lat="48.9779" lon="1.71091">
        <ele>39.88</ele>
        <time>2021-03-26T09:55:46Z</time>
      </trkpt>
      <trkpt lat="48.97733" lon="1.71414">
        <ele>35.72</ele>
        <time>2021-03-26T09:55:53Z</time>
      </trkpt>
      <trkpt lat="48.97573" lon="1.72315">
        <ele>43.33</ele>
        <time>2021-03-26T09:56:00Z</time>
      </trkpt>
      <trkpt lat="48.97558" lon="1.72388">
        <ele>47.74</ele>
        <time>2021-03-26T09:56:07Z</time>
      </trkpt>
      <trkpt lat="48.97525" lon="1.72513">
        <ele>53.33</ele>
        <time>2021-03-26T09:56:14Z</time>
      </trkpt>
      <trkpt lat="48.97489" lon="1.72621">
        <ele>45.53</ele>
        <time>2021-03-26T09:56:22Z</time>
      </trkpt>
      <trkpt lat="48.97465" lon="1.72679">
        <ele>42.72</ele>
        <time>2021-03-26T09:56:29Z</time>
      </trkpt>
      <trkpt lat="48.9742" lon="1.72776">
        <ele>41.9</ele>
        <time>2021-03-26T09:56:36Z</time>
      </trkpt>
      <trkpt lat="48.97368" lon="1.72869">
        <ele>46.01</ele>
        <time>2021-03-26T09:56:43Z</time>
      </trkpt>
      <trkpt lat="48.97335" lon="1.72922">
        <ele>43.44</ele>
        <time>2021-03-26T09:56:50Z</time>
      </trkpt>
      <trkpt lat="48.97171" lon="1.73157">
        <ele>26.69</ele>
        <time>2021-03-26T09:56:57Z</time>
      </trkpt>
      <trkpt lat="48.97132" lon="1.73216">
        <ele>29.28</ele>
        <time>2021-03-26T09:57:04Z</time>
      </trkpt>
      <trkpt lat="48.97102" lon="1.73265">
        <ele>33.71</ele>
        <time>2021-03-26T09:57:12Z</time>
      </trkpt>
      <trkpt lat="48.97067" lon="1.7333">
        <ele>33.63</ele>
        <time>2021-03-26T09:57:19Z</time>
      </trkpt>
      <trkpt lat="48.97033" lon="1.734">
        <ele>33.13</ele>
        <time>2021-03-26T09:57:26Z</time>
      </trkpt>
      <trkpt lat="48.96992" lon="1.73504">
        <ele>38.03</ele>
        <time>2021-03-26T09:57:33Z</time>
      </trkpt>
      <trkpt lat="48.96973" lon="1.73557">
        <ele>38.98</ele>
        <time>2021-03-26T09:57:40Z</time>
      </trkpt>
      <trkpt lat="48.96952" lon="1.73625">
        <ele>42.31</ele>
        <time>2021-03-26T09:57:47Z</time>
      </trkpt>
      <trkpt lat="48.96928" lon="1.73719">
        <ele>45.24</ele>
        <time>2021-03-26T09:57:55Z</time>
      </trkpt>
      <trkpt lat="48.96911" lon="1.738">
        <ele>49.05</ele>
        <time>2021-03-26T09:58:02Z</time>
      </trkpt>
      <trkpt lat="48.96898" lon="1.7388">
        <ele>52.63</ele>
        <time>2021-03-26T09:58:09Z</time>
      </trkpt>
      <trkpt lat="48.96875" lon="1.74058">
        <ele>56.93</ele>
        <time>2021-03-26T09:58:16Z</time>
      </trkpt>
      <trkpt lat="48.96862" lon="1.74147">
        <ele>59.58</ele>
        <time>2021-03-26T09:58:23Z</time>
      </trkpt>
      <trkpt lat="48.96847" lon="1.74226">
        <ele>64.52</ele>
        <time>2021-03-26T09:58:30Z</time>
      </trkpt>
      <trkpt lat="48.96828" lon="1.74312">
        <ele>68.16</ele>
        <time>2021-03-26T09:58:38Z</time>
      </trkpt>
      <trkpt lat="48.96804" lon="1.74397">
        <ele>63.65</ele>
        <time>2021-03-26T09:58:45Z</time>
      </trkpt>
      <trkpt lat="48.96779" lon="1.74475">
        <ele>63.86</ele>
        <time>2021-03-26T09:58:52Z</time>
      </trkpt>
      <trkpt lat="48.96745" lon="1.74561">
        <ele>67.29</ele>
        <time>2021-03-26T09:58:59Z</time>
      </trkpt>
      <trkpt lat="48.96675" lon="1.74717">
        <ele>72.62</ele>
        <time>2021-03-26T09:59:06Z</time>
      </trkpt>
      <trkpt lat="48.96611" lon="1.7487">
        <ele>80.95</ele>
        <time>2021-03-26T09:59:13Z</time>
      </trkpt>
      <trkpt lat="48.96566" lon="1.75018">
        <ele>55.55</ele>
        <time>2021-03-26T09:59:21Z</time>
      </trkpt>
      <trkpt lat="48.96532" lon="1.75181">
        <ele>50.23</ele>
        <time>2021-03-26T09:59:28Z</time>
      </trkpt>
      <trkpt lat="48.96515" lon="1.75305">
        <ele>39.05</ele>
        <time>2021-03-26T09:59:35Z</time>
      </trkpt>
      <trkpt lat="48.96506" lon="1.75403">
        <ele>38.44</ele>
        <time>2021-03-26T09:59:42Z</time>
      </trkpt>
      <trkpt lat="48.96503" lon="1.75507">
        <ele>32.46</ele>
        <time>2021-03-26T09:59:49Z</time>
      </trkpt>
      <trkpt lat="48.9651" lon="1.76103">
        <ele>25.28</ele>
        <time>2021-03-26T09:59:56Z</time>
      </trkpt>
      <trkpt lat="48.96494" lon="1.76436">
        <ele>23.77</ele>
        <time>2021-03-26T10:00:03Z</time>
      </trkpt>
      <trkpt lat="48.96483" lon="1.76583">
        <ele>22.76</ele>
        <time>2021-03-26T10:00:11Z</time>
      </trkpt>
      <trkpt lat="48.96465" lon="1.76768">
        <ele>24.34</ele>
        <time>2021-03-26T10:00:18Z</time>
      </trkpt>
      <trkpt lat="48.96433" lon="1.77042">
        <ele>20.09</ele>
        <time>2021-03-26T10:00:25Z</time>
      </trkpt>
      <trkpt lat="48.96408" lon="1.77291">
        <ele>18.16</ele>
        <time>2021-03-26T10:00:32Z</time>
      </trkpt>
      <trkpt lat="48.96401" lon="1.77395">
        <ele>17.68</ele>
        <time>2021-03-26T10:00:39Z</time>
      </trkpt>
      <trkpt lat="48.96393" lon="1.77571">
        <ele>21.24</ele>
        <time>2021-03-26T10:00:46Z</time>
      </trkpt>
      <trkpt lat="48.96386" lon="1.78022">
        <ele>17.78</ele>
        <time>2021-03-26T10:00:54Z</time>
      </trkpt>
      <trkpt lat="48.9638" lon="1.78761">
        <ele>17.13</ele>
        <time>2021-03-26T10:01:01Z</time>
      </trkpt>
      <trkpt lat="48.96384" lon="1.79077">
        <ele>16.1</ele>
        <time>2021-03-26T10:01:08Z</time>
      </trkpt>
      <trkpt lat="48.96402" lon="1.79454">
        <ele>18.84</ele>
        <time>2021-03-26T10:01:15Z</time>
      </trkpt>
      <trkpt lat="48.96435" lon="1.79852">
        <ele>18.46</ele>
        <time>2021-03-26T10:01:22Z</time>
      </trkpt>
      <trkpt lat="48.96472" lon="1.80141">
        <ele>20.98</ele>
        <time>2021-03-26T10:01:29Z</time>
      </trkpt>
      <trkpt lat="48.96523" lon="1.80503">
        <ele>21.45</ele>
        <time>2021-03-26T10:01:37Z</time>
      </trkpt>
      <trkpt lat="48.96553" lon="1.80769">
        <ele>22.86</ele>
        <time>2021-03-26T10:01:44Z</time>
      </trkpt>
      <trkpt lat="48.96561" lon="1.80895">
        <ele>21.21</ele>
        <time>2021-03-26T10:01:51Z</time>
      </trkpt>
      <trkpt lat="48.96566" lon="1.81002">
        <ele>23.08</ele>
        <time>2021-03-26T10:01:58Z</time>
      </trkpt>
      <trkpt lat="48.96567" lon="1.81115">
        <ele>24.78</ele>
        <time>2021-03-26T10:02:05Z</time>
      </trkpt>
      <trkpt lat="48.9656" lon="1.81343">
        <ele>19.91</ele>
        <time>2021-03-26T10:02:12Z</time>
      </trkpt>
      <trkpt lat="48.96549" lon="1.81472">
        <ele>21.11</ele>
        <time>2021-03-26T10:02:20Z</time>
      </trkpt>
      <trkpt lat="48.96531" lon="1.81637">
        <ele>19.85</ele>
        <time>2021-03-26T10:02:27Z</time>
      </trkpt>
      <trkpt lat="48.96372" lon="1.82716">
        <ele>23.28</ele>
        <time>2021-03-26T10:02:34Z</time>
      </trkpt>
      <trkpt lat="48.96343" lon="1.82915">
        <ele>22.4</ele>
        <time>2021-03-26T10:02:41Z</time>
      </trkpt>
      <trkpt lat="48.96318" lon="1.83116">
        <ele>21.9</ele>
        <time>2021-03-26T10:02:48Z</time>
      </trkpt>
      <trkpt lat="48.96302" lon="1.83374">
        <ele>23.59</ele>
        <time>2021-03-26T10:02:55Z</time>
      </trkpt>
      <trkpt lat="48.96302" lon="1.8359">
        <ele>22.97</ele>
        <time>2021-03-26T10:03:02Z</time>
      </trkpt>
      <trkpt lat="48.96315" lon="1.83863">
        <ele>22.09</ele>
        <time>2021-03-26T10:03:10Z</time>
      </trkpt>
      <trkpt lat="48.9634" lon="1.84102">
        <ele>23.45</ele>
        <time>2021-03-26T10:03:17Z</time>
      </trkpt>
      <trkpt lat="48.96371" lon="1.84278">
        <ele>28</ele>
        <time>2021-03-26T10:03:24Z</time>
      </trkpt>
      <trkpt lat="48.96411" lon="1.84466">
        <ele>27.61</ele>
        <time>2021-03-26T10:03:31Z</time>
      </trkpt>
      <trkpt lat="48.96451" lon="1.84617">
        <ele>26.2</ele>
        <time>2021-03-26T10:03:38Z</time>
      </trkpt>
      <trkpt lat="48.96545" lon="1.84946">
        <ele>29.63</ele>
        <time>2021-03-26T10:03:45Z</time>
      </trkpt>
      <trkpt lat="48.96684" lon="1.85426">
        <ele>30</ele>
        <time>2021-03-26T10:03:53Z</time>
      </trkpt>
      <trkpt lat="48.96805" lon="1.85879">
        <ele>29.36</ele>
        <time>2021-03-26T10:04:00Z</time>
      </trkpt>
      <trkpt lat="48.96842" lon="1.86041">
        <ele>28.74</ele>
        <time>2021-03-26T10:04:07Z</time>
      </trkpt>
      <trkpt lat="48.96914" lon="1.86407">
        <ele>32.99</ele>
        <time>2021-03-26T10:04:14Z</time>
      </trkpt>
      <trkpt lat="48.96939" lon="1.86554">
        <ele>28.47</ele>
        <time>2021-03-26T10:04:21Z</time>
      </trkpt>
      <trkpt lat="48.96962" lon="1.86709">
        <ele>27.59</ele>
        <time>2021-03-26T10:04:28Z</time>
      </trkpt>
      <trkpt lat="48.97002" lon="1.87025">
        <ele>30.1</ele>
        <time>2021-03-26T10:04:36Z</time>
      </trkpt>
      <trkpt lat="48.97019" lon="1.87211">
        <ele>25.71</ele>
        <time>2021-03-26T10:04:43Z</time>
      </trkpt>
      <trkpt lat="48.97032" lon="1.87377">
        <ele>32.76</ele>
        <time>2021-03-26T10:04:50Z</time>
      </trkpt>
      <trkpt lat="48.97047" lon="1.87608">
        <ele>31.03</ele>
        <time>2021-03-26T10:04:57Z</time>
      </trkpt>
      <trkpt lat="48.97055" lon="1.8792">
        <ele>29.97</ele>
        <time>2021-03-26T10:05:04Z</time>
      </trkpt>
      <trkpt lat="48.97044" lon="1.89046">
        <ele>35.86</ele>
        <time>2021-03-26T10:05:11Z</time>
      </trkpt>
      <trkpt lat="48.97025" lon="1.90616">
        <ele>39.15</ele>
        <time>2021-03-26T10:05:19Z</time>
      </trkpt>
      <trkpt lat="48.97021" lon="1.90809">
        <ele>36.72</ele>
        <time>2021-03-26T10:05:26Z</time>
      </trkpt>
      <trkpt lat="48.97005" lon="1.91027">
        <ele>36.64</ele>
        <time>2021-03-26T10:05:33Z</time>
      </trkpt>
      <trkpt lat="48.96971" lon="1.91273">
        <ele>34.28</ele>
        <time>2021-03-26T10:05:40Z</time>
      </trkpt>
      <trkpt lat="48.96926" lon="1.91495">
        <ele>36.12</ele>
        <time>2021-03-26T10:05:47Z</time>
      </trkpt>
      <trkpt lat="48.96893" lon="1.9162">
        <ele>38.58</ele>
        <time>2021-03-26T10:05:54Z</time>
      </trkpt>
      <trkpt lat="48.96854" lon="1.91747">
        <ele>38.17</ele>
        <time>2021-03-26T10:06:01Z</time>
      </trkpt>
      <trkpt lat="48.96786" lon="1.91932">
        <ele>38.17</ele>
        <time>2021-03-26T10:06:09Z</time>
      </trkpt>
      <trkpt lat="48.96696" lon="1.92133">
        <ele>38.94</ele>
        <time>2021-03-26T10:06:16Z</time>
      </trkpt>
      <trkpt lat="48.96638" lon="1.92242">
        <ele>40.72</ele>
        <time>2021-03-26T10:06:23Z</time>
      </trkpt>
      <trkpt lat="48.96578" lon="1.9234">
        <ele>40.95</ele>
        <time>2021-03-26T10:06:30Z</time>
      </trkpt>
      <trkpt lat="48.965" lon="1.92458">
        <ele>42.48</ele>
        <time>2021-03-26T10:06:37Z</time>
      </trkpt>
      <trkpt lat="48.9642" lon="1.92576">
        <ele>44.57</ele>
        <time>2021-03-26T10:06:44Z</time>
      </trkpt>
      <trkpt lat="48.96077" lon="1.93024">
        <ele>69.9</ele>
        <time>2021-03-26T10:06:52Z</time>
      </trkpt>
      <trkpt lat="48.95387" lon="1.93931">
        <ele>89.36</ele>
        <time>2021-03-26T10:06:59Z</time>
      </trkpt>
      <trkpt lat="48.95217" lon="1.94141">
        <ele>84.81</ele>
        <time>2021-03-26T10:07:06Z</time>
      </trkpt>
      <trkpt lat="48.95099" lon="1.94283">
        <ele>81.01</ele>
        <time>2021-03-26T10:07:13Z</time>
      </trkpt>
      <trkpt lat="48.94952" lon="1.94449">
        <ele>81.12</ele>
        <time>2021-03-26T10:07:20Z</time>
      </trkpt>
      <trkpt lat="48.94767" lon="1.9465">
        <ele>80.46</ele>
        <time>2021-03-26T10:07:27Z</time>
      </trkpt>
      <trkpt lat="48.94648" lon="1.94771">
        <ele>79.15</ele>
        <time>2021-03-26T10:07:35Z</time>
      </trkpt>
      <trkpt lat="48.94284" lon="1.95126">
        <ele>92.96</ele>
        <time>2021-03-26T10:07:42Z</time>
      </trkpt>
      <trkpt lat="48.9415" lon="1.95265">
        <ele>95</ele>
        <time>2021-03-26T10:07:49Z</time>
      </trkpt>
      <trkpt lat="48.9407" lon="1.95352">
        <ele>93.36</ele>
        <time>2021-03-26T10:07:56Z</time>
      </trkpt>
      <trkpt lat="48.93995" lon="1.95449">
        <ele>97.92</ele>
        <time>2021-03-26T10:08:03Z</time>
      </trkpt>
      <trkpt lat="48.93904" lon="1.95578">
        <ele>99.82</ele>
        <time>2021-03-26T10:08:10Z</time>
      </trkpt>
      <trkpt lat="48.93845" lon="1.95671">
        <ele>101.12</ele>
        <time>2021-03-26T10:08:18Z</time>
      </trkpt>
      <trkpt lat="48.93738" lon="1.95866">
        <ele>101.32</ele>
        <time>2021-03-26T10:08:25Z</time>
      </trkpt>
      <trkpt lat="48.9366" lon="1.96044">
        <ele>103.58</ele>
        <time>2021-03-26T10:08:32Z</time>
      </trkpt>
      <trkpt lat="48.93604" lon="1.96191">
        <ele>104.52</ele>
        <time>2021-03-26T10:08:39Z</time>
      </trkpt>
      <trkpt lat="48.93537" lon="1.96395">
        <ele>104.11</ele>
        <time>2021-03-26T10:08:46Z</time>
      </trkpt>
      <trkpt lat="48.93476" lon="1.96613">
        <ele>98.32</ele>
        <time>2021-03-26T10:08:53Z</time>
      </trkpt>
      <trkpt lat="48.92995" lon="1.9836">
        <ele>92.57</ele>
        <time>2021-03-26T10:09:00Z</time>
      </trkpt>
      <trkpt lat="48.92888" lon="1.98731">
        <ele>83.68</ele>
        <time>2021-03-26T10:09:08Z</time>
      </trkpt>
      <trkpt lat="48.92821" lon="1.98953">
        <ele>76.23</ele>
        <time>2021-03-26T10:09:15Z</time>
      </trkpt>
      <trkpt lat="48.92734" lon="1.99226">
        <ele>76.45</ele>
        <time>2021-03-26T10:09:22Z</time>
      </trkpt>
      <trkpt lat="48.92632" lon="1.99529">
        <ele>73.97</ele>
        <time>2021-03-26T10:09:29Z</time>
      </trkpt>
      <trkpt lat="48.92585" lon="1.99656">
        <ele>72.59</ele>
        <time>2021-03-26T10:09:36Z</time>
      </trkpt>
      <trkpt lat="48.92539" lon="1.99769">
        <ele>72.51</ele>
        <time>2021-03-26T10:09:43Z</time>
      </trkpt>
      <trkpt lat="48.92491" lon="1.99861">
        <ele>71.34</ele>
        <time>2021-03-26T10:09:51Z</time>
      </trkpt>
      <trkpt lat="48.92459" lon="1.99914">
        <ele>72.48</ele>
        <time>2021-03-26T10:09:58Z</time>
      </trkpt>
      <trkpt lat="48.92426" lon="1.99963">
        <ele>74.35</ele>
        <time>2021-03-26T10:10:05Z</time>
      </trkpt>
      <trkpt lat="48.92372" lon="2.00032">
        <ele>72.49</ele>
        <time>2021-03-26T10:10:13Z</time>
      </trkpt>
      <trkpt lat="48.92243" lon="2.00193">
        <ele>73.75</ele>
        <time>2021-03-26T10:10:22Z</time>
      </trkpt>
      <trkpt lat="48.9222" lon="2.00228">
        <ele>73</ele>
        <time>2021-03-26T10:10:31Z</time>
      </trkpt>
      <trkpt lat="48.92183" lon="2.003">
        <ele>72.42</ele>
        <time>2021-03-26T10:10:40Z</time>
      </trkpt>
      <trkpt lat="48.92138" lon="2.00405">
        <ele>71.44</ele>
        <time>2021-03-26T10:10:49Z</time>
      </trkpt>
      <trkpt lat="48.9199" lon="2.00807">
        <ele>63.07</ele>
        <time>2021-03-26T10:10:59Z</time>
      </trkpt>
      <trkpt lat="48.91875" lon="2.01136">
        <ele>65.47</ele>
        <time>2021-03-26T10:11:08Z</time>
      </trkpt>
      <trkpt lat="48.91764" lon="2.0151">
        <ele>62.32</ele>
        <time>2021-03-26T10:11:17Z</time>
      </trkpt>
      <trkpt lat="48.91734" lon="2.01625">
        <ele>60.41</ele>
        <time>2021-03-26T10:11:26Z</time>
      </trkpt>
      <trkpt lat="48.91717" lon="2.01697">
        <ele>60.76</ele>
        <time>2021-03-26T10:11:36Z</time>
      </trkpt>
      <trkpt lat="48.91683" lon="2.01858">
        <ele>66.48</ele>
        <time>2021-03-26T10:11:45Z</time>
      </trkpt>
      <trkpt lat="48.91637" lon="2.02091">
        <ele>64.9</ele>
        <time>2021-03-26T10:11:54Z</time>
      </trkpt>
      <trkpt lat="48.91618" lon="2.02205">
        <ele>65.72</ele>
        <time>2021-03-26T10:12:03Z</time>
      </trkpt>
      <trkpt lat="48.91603" lon="2.0233">
        <ele>66.61</ele>
        <time>2021-03-26T10:12:13Z</time>
      </trkpt>
      <trkpt lat="48.91591" lon="2.02454">
        <ele>67.48</ele>
        <time>2021-03-26T10:12:22Z</time>
      </trkpt>
      <trkpt lat="48.91578" lon="2.02671">
        <ele>69.21</ele>
        <time>2021-03-26T10:12:31Z</time>
      </trkpt>
      <trkpt lat="48.91566" lon="2.02817">
        <ele>70</ele>
        <time>2021-03-26T10:12:40Z</time>
      </trkpt>
      <trkpt lat="48.91552" lon="2.03024">
        <ele>69.01</ele>
        <time>2021-03-26T10:12:50Z</time>
      </trkpt>
      <trkpt lat="48.91537" lon="2.03189">
        <ele>71.64</ele>
        <time>2021-03-26T10:12:59Z</time>
      </trkpt>
      <trkpt lat="48.9152" lon="2.03397">
        <ele>69.29</ele>
        <time>2021-03-26T10:13:08Z</time>
      </trkpt>
      <trkpt lat="48.91487" lon="2.03751">
        <ele>65.98</ele>
        <time>2021-03-26T10:13:17Z</time>
      </trkpt>
      <trkpt lat="48.91476" lon="2.03842">
        <ele>63.13</ele>
        <time>2021-03-26T10:13:26Z</time>
      </trkpt>
      <trkpt lat="48.9146" lon="2.03946">
        <ele>67</ele>
        <time>2021-03-26T10:13:36Z</time>
      </trkpt>
      <trkpt lat="48.91445" lon="2.04017">
        <ele>65.41</ele>
        <time>2021-03-26T10:13:45Z</time>
      </trkpt>
      <trkpt lat="48.91429" lon="2.04081">
        <ele>62.57</ele>
        <time>2021-03-26T10:13:54Z</time>
      </trkpt>
      <trkpt lat="48.91408" lon="2.04158">
        <ele>60.78</ele>
        <time>2021-03-26T10:14:03Z</time>
      </trkpt>
      <trkpt lat="48.91379" lon="2.04243">
        <ele>59.36</ele>
        <time>2021-03-26T10:14:13Z</time>
      </trkpt>
      <trkpt lat="48.91345" lon="2.04329">
        <ele>62.16</ele>
        <time>2021-03-26T10:14:22Z</time>
      </trkpt>
      <trkpt lat="48.91309" lon="2.04403">
        <ele>63.83</ele>
        <time>2021-03-26T10:14:31Z</time>
      </trkpt>
      <trkpt lat="48.91269" lon="2.04478">
        <ele>63</ele>
        <time>2021-03-26T10:14:40Z</time>
      </trkpt>
      <trkpt lat="48.91212" lon="2.04566">
        <ele>65</ele>
        <time>2021-03-26T10:14:50Z</time>
      </trkpt>
      <trkpt lat="48.9113" lon="2.04686">
        <ele>63.35</ele>
        <time>2021-03-26T10:14:59Z</time>
      </trkpt>
      <trkpt lat="48.90992" lon="2.04874">
        <ele>65.25</ele>
        <time>2021-03-26T10:15:08Z</time>
      </trkpt>
      <trkpt lat="48.9088" lon="2.0503">
        <ele>68.37</ele>
        <time>2021-03-26T10:15:17Z</time>
      </trkpt>
      <trkpt lat="48.90795" lon="2.05155">
        <ele>70.14</ele>
        <time>2021-03-26T10:15:26Z</time>
      </trkpt>
      <trkpt lat="48.9077" lon="2.05194">
        <ele>69</ele>
        <time>2021-03-26T10:15:36Z</time>
      </trkpt>
      <trkpt lat="48.90733" lon="2.05259">
        <ele>72.49</ele>
        <time>2021-03-26T10:15:45Z</time>
      </trkpt>
      <trkpt lat="48.90695" lon="2.05338">
        <ele>73.84</ele>
        <time>2021-03-26T10:15:54Z</time>
      </trkpt>
      <trkpt lat="48.90656" lon="2.05437">
        <ele>71.72</ele>
        <time>2021-03-26T10:16:03Z</time>
      </trkpt>
      <trkpt lat="48.90637" lon="2.05496">
        <ele>71.82</ele>
        <time>2021-03-26T10:16:13Z</time>
      </trkpt>
      <trkpt lat="48.90624" lon="2.05549">
        <ele>71.47</ele>
        <time>2021-03-26T10:16:22Z</time>
      </trkpt>
      <trkpt lat="48.90606" lon="2.05629">
        <ele>74.95</ele>
        <time>2021-03-26T10:16:31Z</time>
      </trkpt>
      <trkpt lat="48.90578" lon="2.05761">
        <ele>75.05</ele>
        <time>2021-03-26T10:16:40Z</time>
      </trkpt>
      <trkpt lat="48.90565" lon="2.05889">
        <ele>75.13</ele>
        <time>2021-03-26T10:16:50Z</time>
      </trkpt>
      <trkpt lat="48.90574" lon="2.06052">
        <ele>75.24</ele>
        <time>2021-03-26T10:16:59Z</time>
      </trkpt>
      <trkpt lat="48.90595" lon="2.06199">
        <ele>75.34</ele>
        <time>2021-03-26T10:17:08Z</time>
      </trkpt>
      <trkpt lat="48.90629" lon="2.0636">
        <ele>75.46</ele>
        <time>2021-03-26T10:17:17Z</time>
      </trkpt>
      <trkpt lat="48.90659" lon="2.06484">
        <ele>75.54</ele>
        <time>2021-03-26T10:17:27Z</time>
      </trkpt>
      <trkpt lat="48.90686" lon="2.06581">
        <ele>75.61</ele>
        <time>2021-03-26T10:17:36Z</time>
      </trkpt>
      <trkpt lat="48.9074" lon="2.06759">
        <ele>75.74</ele>
        <time>2021-03-26T10:17:45Z</time>
      </trkpt>
      <trkpt lat="48.90817" lon="2.07045">
        <ele>75.94</ele>
        <time>2021-03-26T10:17:54Z</time>
      </trkpt>
      <trkpt lat="48.90836" lon="2.07111">
        <ele>75.99</ele>
        <time>2021-03-26T10:18:03Z</time>
      </trkpt>
      <trkpt lat="48.90855" lon="2.07189">
        <ele>76.04</ele>
        <time>2021-03-26T10:18:13Z</time>
      </trkpt>
      <trkpt lat="48.90873" lon="2.07268">
        <ele>76.1</ele>
        <time>2021-03-26T10:18:22Z</time>
      </trkpt>
      <trkpt lat="48.9091" lon="2.07481">
        <ele>76.25</ele>
        <time>2021-03-26T10:18:31Z</time>
      </trkpt>
      <trkpt lat="48.90932" lon="2.07649">
        <ele>76.37</ele>
        <time>2021-03-26T10:18:40Z</time>
      </trkpt>
      <trkpt lat="48.90961" lon="2.07909">
        <ele>77</ele>
        <time>2021-03-26T10:18:50Z</time>
      </trkpt>
      <trkpt lat="48.90996" lon="2.08203">
        <ele>73.11</ele>
        <time>2021-03-26T10:18:59Z</time>
      </trkpt>
      <trkpt lat="48.91086" lon="2.09026">
        <ele>62.25</ele>
        <time>2021-03-26T10:19:08Z</time>
      </trkpt>
      <trkpt lat="48.91176" lon="2.09812">
        <ele>51.91</ele>
        <time>2021-03-26T10:19:17Z</time>
      </trkpt>
      <trkpt lat="48.91195" lon="2.10081">
        <ele>48.42</ele>
        <time>2021-03-26T10:19:27Z</time>
      </trkpt>
      <trkpt lat="48.91217" lon="2.10343">
        <ele>45.04</ele>
        <time>2021-03-26T10:19:36Z</time>
      </trkpt>
      <trkpt lat="48.91233" lon="2.10523">
        <ele>42.75</ele>
        <time>2021-03-26T10:19:45Z</time>
      </trkpt>
      <trkpt lat="48.91245" lon="2.1061">
        <ele>41.63</ele>
        <time>2021-03-26T10:19:54Z</time>
      </trkpt>
      <trkpt lat="48.91259" lon="2.10684">
        <ele>40.66</ele>
        <time>2021-03-26T10:20:03Z</time>
      </trkpt>
      <trkpt lat="48.91275" lon="2.10753">
        <ele>39.77</ele>
        <time>2021-03-26T10:20:13Z</time>
      </trkpt>
      <trkpt lat="48.91292" lon="2.10813">
        <ele>38.97</ele>
        <time>2021-03-26T10:20:22Z</time>
      </trkpt>
      <trkpt lat="48.9132" lon="2.10929">
        <ele>37.45</ele>
        <time>2021-03-26T10:20:31Z</time>
      </trkpt>
      <trkpt lat="48.91363" lon="2.11064">
        <ele>35.65</ele>
        <time>2021-03-26T10:20:40Z</time>
      </trkpt>
      <trkpt lat="48.91383" lon="2.11115">
        <ele>34.95</ele>
        <time>2021-03-26T10:20:50Z</time>
      </trkpt>
      <trkpt lat="48.91506" lon="2.1133">
        <ele>31.75</ele>
        <time>2021-03-26T10:20:59Z</time>
      </trkpt>
      <trkpt lat="48.9163" lon="2.11495">
        <ele>29.06</ele>
        <time>2021-03-26T10:21:08Z</time>
      </trkpt>
      <trkpt lat="48.91659" lon="2.11542">
        <ele>28.93</ele>
        <time>2021-03-26T10:21:17Z</time>
      </trkpt>
      <trkpt lat="48.91687" lon="2.11599">
        <ele>28.93</ele>
        <time>2021-03-26T10:21:27Z</time>
      </trkpt>
      <trkpt lat="48.91705" lon="2.11644">
        <ele>28.93</ele>
        <time>2021-03-26T10:21:36Z</time>
      </trkpt>
      <trkpt lat="48.91727" lon="2.11709">
        <ele>28.94</ele>
        <time>2021-03-26T10:21:45Z</time>
      </trkpt>
      <trkpt lat="48.91744" lon="2.11778">
        <ele>28.94</ele>
        <time>2021-03-26T10:21:54Z</time>
      </trkpt>
      <trkpt lat="48.91752" lon="2.11816">
        <ele>28.94</ele>
        <time>2021-03-26T10:22:03Z</time>
      </trkpt>
      <trkpt lat="48.91762" lon="2.11887">
        <ele>28.94</ele>
        <time>2021-03-26T10:22:13Z</time>
      </trkpt>
      <trkpt lat="48.91765" lon="2.11944">
        <ele>28.94</ele>
        <time>2021-03-26T10:22:22Z</time>
      </trkpt>
      <trkpt lat="48.91766" lon="2.11998">
        <ele>28.95</ele>
        <time>2021-03-26T10:22:31Z</time>
      </trkpt>
      <trkpt lat="48.91765" lon="2.12053">
        <ele>28.95</ele>
        <time>2021-03-26T10:22:40Z</time>
      </trkpt>
      <trkpt lat="48.91759" lon="2.12117">
        <ele>28.95</ele>
        <time>2021-03-26T10:22:50Z</time>
      </trkpt>
      <trkpt lat="48.91755" lon="2.12149">
        <ele>28.95</ele>
        <time>2021-03-26T10:22:59Z</time>
      </trkpt>
      <trkpt lat="48.91739" lon="2.12236">
        <ele>31.3</ele>
        <time>2021-03-26T10:23:08Z</time>
      </trkpt>
      <trkpt lat="48.91694" lon="2.1245">
        <ele>29.79</ele>
        <time>2021-03-26T10:23:17Z</time>
      </trkpt>
      <trkpt lat="48.91663" lon="2.12612">
        <ele>29.86</ele>
        <time>2021-03-26T10:23:27Z</time>
      </trkpt>
      <trkpt lat="48.91654" lon="2.12666">
        <ele>29.01</ele>
        <time>2021-03-26T10:23:36Z</time>
      </trkpt>
      <trkpt lat="48.9158" lon="2.13101">
        <ele>30.07</ele>
        <time>2021-03-26T10:23:45Z</time>
      </trkpt>
      <trkpt lat="48.9151" lon="2.13533">
        <ele>29.31</ele>
        <time>2021-03-26T10:23:54Z</time>
      </trkpt>
      <trkpt lat="48.91498" lon="2.13617">
        <ele>31.49</ele>
        <time>2021-03-26T10:24:04Z</time>
      </trkpt>
      <trkpt lat="48.91475" lon="2.13828">
        <ele>35.51</ele>
        <time>2021-03-26T10:24:13Z</time>
      </trkpt>
      <trkpt lat="48.91471" lon="2.13877">
        <ele>37.06</ele>
        <time>2021-03-26T10:24:22Z</time>
      </trkpt>
      <trkpt lat="48.91463" lon="2.1403">
        <ele>39.06</ele>
        <time>2021-03-26T10:24:31Z</time>
      </trkpt>
      <trkpt lat="48.91443" lon="2.14732">
        <ele>46</ele>
        <time>2021-03-26T10:24:40Z</time>
      </trkpt>
      <trkpt lat="48.91435" lon="2.14903">
        <ele>45.17</ele>
        <time>2021-03-26T10:24:50Z</time>
      </trkpt>
      <trkpt lat="48.91425" lon="2.15077">
        <ele>48.55</ele>
        <time>2021-03-26T10:24:59Z</time>
      </trkpt>
      <trkpt lat="48.91417" lon="2.15172">
        <ele>49.19</ele>
        <time>2021-03-26T10:25:08Z</time>
      </trkpt>
      <trkpt lat="48.91402" lon="2.15333">
        <ele>46.52</ele>
        <time>2021-03-26T10:25:17Z</time>
      </trkpt>
      <trkpt lat="48.91389" lon="2.15444">
        <ele>46.04</ele>
        <time>2021-03-26T10:25:27Z</time>
      </trkpt>
      <trkpt lat="48.91367" lon="2.15602">
        <ele>49.45</ele>
        <time>2021-03-26T10:25:36Z</time>
      </trkpt>
      <trkpt lat="48.91357" lon="2.15707">
        <ele>47.81</ele>
        <time>2021-03-26T10:25:45Z</time>
      </trkpt>
      <trkpt lat="48.91352" lon="2.15788">
        <ele>47.57</ele>
        <time>2021-03-26T10:25:54Z</time>
      </trkpt>
      <trkpt lat="48.91325" lon="2.16043">
        <ele>47.23</ele>
        <time>2021-03-26T10:26:04Z</time>
      </trkpt>
      <trkpt lat="48.91311" lon="2.162">
        <ele>48.25</ele>
        <time>2021-03-26T10:26:13Z</time>
      </trkpt>
      <trkpt lat="48.91298" lon="2.16459">
        <ele>47.02</ele>
        <time>2021-03-26T10:26:22Z</time>
      </trkpt>
      <trkpt lat="48.91269" lon="2.17113">
        <ele>49.43</ele>
        <time>2021-03-26T10:26:31Z</time>
      </trkpt>
      <trkpt lat="48.91259" lon="2.17431">
        <ele>51.89</ele>
        <time>2021-03-26T10:26:40Z</time>
      </trkpt>
      <trkpt lat="48.9125" lon="2.17635">
        <ele>49.15</ele>
        <time>2021-03-26T10:26:50Z</time>
      </trkpt>
      <trkpt lat="48.91236" lon="2.17866">
        <ele>52.42</ele>
        <time>2021-03-26T10:26:59Z</time>
      </trkpt>
      <trkpt lat="48.91226" lon="2.17964">
        <ele>51.71</ele>
        <time>2021-03-26T10:27:08Z</time>
      </trkpt>
      <trkpt lat="48.91214" lon="2.18051">
        <ele>49.69</ele>
        <time>2021-03-26T10:27:17Z</time>
      </trkpt>
      <trkpt lat="48.91193" lon="2.18159">
        <ele>47.18</ele>
        <time>2021-03-26T10:27:27Z</time>
      </trkpt>
      <trkpt lat="48.91129" lon="2.18436">
        <ele>40.65</ele>
        <time>2021-03-26T10:27:36Z</time>
      </trkpt>
      <trkpt lat="48.91102" lon="2.18526">
        <ele>38.69</ele>
        <time>2021-03-26T10:27:45Z</time>
      </trkpt>
      <trkpt lat="48.91051" lon="2.18665">
        <ele>32.92</ele>
        <time>2021-03-26T10:27:54Z</time>
      </trkpt>
      <trkpt lat="48.91008" lon="2.18759">
        <ele>31.74</ele>
        <time>2021-03-26T10:28:04Z</time>
      </trkpt>
      <trkpt lat="48.90963" lon="2.18851">
        <ele>34</ele>
        <time>2021-03-26T10:28:13Z</time>
      </trkpt>
      <trkpt lat="48.90917" lon="2.1894">
        <ele>32.33</ele>
        <time>2021-03-26T10:28:22Z</time>
      </trkpt>
      <trkpt lat="48.90788" lon="2.19136">
        <ele>32.03</ele>
        <time>2021-03-26T10:28:31Z</time>
      </trkpt>
      <trkpt lat="48.90556" lon="2.19471">
        <ele>31.5</ele>
        <time>2021-03-26T10:28:41Z</time>
      </trkpt>
      <trkpt lat="48.90469" lon="2.19608">
        <ele>31.29</ele>
        <time>2021-03-26T10:28:50Z</time>
      </trkpt>
      <trkpt lat="48.90401" lon="2.19711">
        <ele>31.14</ele>
        <time>2021-03-26T10:28:59Z</time>
      </trkpt>
      <trkpt lat="48.90336" lon="2.19842">
        <ele>30.95</ele>
        <time>2021-03-26T10:29:08Z</time>
      </trkpt>
      <trkpt lat="48.90301" lon="2.19916">
        <ele>30.84</ele>
        <time>2021-03-26T10:29:17Z</time>
      </trkpt>
      <trkpt lat="48.90256" lon="2.20021">
        <ele>23.54</ele>
        <time>2021-03-26T10:29:27Z</time>
      </trkpt>
      <trkpt lat="48.90111" lon="2.20388">
        <ele>26.56</ele>
        <time>2021-03-26T10:29:36Z</time>
      </trkpt>
      <trkpt lat="48.90085" lon="2.20484">
        <ele>27.31</ele>
        <time>2021-03-26T10:29:45Z</time>
      </trkpt>
      <trkpt lat="48.9006" lon="2.20597">
        <ele>28.19</ele>
        <time>2021-03-26T10:29:54Z</time>
      </trkpt>
      <trkpt lat="48.90047" lon="2.20669">
        <ele>28.75</ele>
        <time>2021-03-26T10:30:04Z</time>
      </trkpt>
      <trkpt lat="48.90039" lon="2.2074">
        <ele>29.29</ele>
        <time>2021-03-26T10:30:13Z</time>
      </trkpt>
      <trkpt lat="48.90007" lon="2.20958">
        <ele>30.98</ele>
        <time>2021-03-26T10:30:22Z</time>
      </trkpt>
      <trkpt lat="48.89973" lon="2.21122">
        <ele>32.21</ele>
        <time>2021-03-26T10:30:31Z</time>
      </trkpt>
      <trkpt lat="48.89925" lon="2.21342">
        <ele>35.88</ele>
        <time>2021-03-26T10:30:41Z</time>
      </trkpt>
      <trkpt lat="48.89891" lon="2.21477">
        <ele>38.13</ele>
        <time>2021-03-26T10:30:50Z</time>
      </trkpt>
      <trkpt lat="48.89867" lon="2.21562">
        <ele>39.57</ele>
        <time>2021-03-26T10:30:59Z</time>
      </trkpt>
      <trkpt lat="48.8981" lon="2.21757">
        <ele>42.88</ele>
        <time>2021-03-26T10:31:08Z</time>
      </trkpt>
      <trkpt lat="48.89546" lon="2.22625">
        <ele>57.66</ele>
        <time>2021-03-26T10:31:17Z</time>
      </trkpt>
      <trkpt lat="48.89494" lon="2.22797">
        <ele>56.81</ele>
        <time>2021-03-26T10:31:27Z</time>
      </trkpt>
      <trkpt lat="48.89112" lon="2.23902">
        <ele>51.31</ele>
        <time>2021-03-26T10:31:36Z</time>
      </trkpt>
      <trkpt lat="48.88996" lon="2.24341">
        <ele>49.18</ele>
        <time>2021-03-26T10:31:45Z</time>
      </trkpt>
      <trkpt lat="48.88894" lon="2.2468">
        <ele>47.51</ele>
        <time>2021-03-26T10:31:54Z</time>
      </trkpt>
      <trkpt lat="48.88788" lon="2.25017">
        <ele>40.46</ele>
        <time>2021-03-26T10:32:04Z</time>
      </trkpt>
      <trkpt lat="48.88762" lon="2.2511">
        <ele>41.38</ele>
        <time>2021-03-26T10:32:13Z</time>
      </trkpt>
      <trkpt lat="48.88727" lon="2.25231">
        <ele>36.89</ele>
        <time>2021-03-26T10:32:22Z</time>
      </trkpt>
      <trkpt lat="48.8871" lon="2.25274">
        <ele>35.62</ele>
        <time>2021-03-26T10:32:31Z</time>
      </trkpt>
      <trkpt lat="48.88707" lon="2.25283">
        <ele>35.16</ele>
        <time>2021-03-26T10:32:41Z</time>
      </trkpt>
      <trkpt lat="48.88581" lon="2.25683">
        <ele>40.68</ele>
        <time>2021-03-26T10:32:50Z</time>
      </trkpt>
      <trkpt lat="48.88411" lon="2.26226">
        <ele>42.81</ele>
        <time>2021-03-26T10:32:59Z</time>
      </trkpt>
      <trkpt lat="48.88325" lon="2.265">
        <ele>45.81</ele>
        <time>2021-03-26T10:33:08Z</time>
      </trkpt>
      <trkpt lat="48.88303" lon="2.26559">
        <ele>43.09</ele>
        <time>2021-03-26T10:33:18Z</time>
      </trkpt>
      <trkpt lat="48.87939" lon="2.27718">
        <ele>44</ele>
        <time>2021-03-26T10:33:27Z</time>
      </trkpt>
      <trkpt lat="48.87928" lon="2.27731">
        <ele>44.13</ele>
        <time>2021-03-26T10:33:33Z</time>
      </trkpt>
      <trkpt lat="48.87887" lon="2.27831">
        <ele>45.95</ele>
        <time>2021-03-26T10:33:38Z</time>
      </trkpt>
      <trkpt lat="48.87845" lon="2.27961">
        <ele>44.94</ele>
        <time>2021-03-26T10:33:44Z</time>
      </trkpt>
      <trkpt lat="48.8784" lon="2.27978">
        <ele>43.09</ele>
        <time>2021-03-26T10:33:50Z</time>
      </trkpt>
      <trkpt lat="48.87845" lon="2.28">
        <ele>41.87</ele>
        <time>2021-03-26T10:33:53Z</time>
      </trkpt>
      <trkpt lat="48.87832" lon="2.28042">
        <ele>38.58</ele>
        <time>2021-03-26T10:33:56Z</time>
      </trkpt>
      <trkpt lat="48.87826" lon="2.28049">
        <ele>38.41</ele>
        <time>2021-03-26T10:33:59Z</time>
      </trkpt>
      <trkpt lat="48.87815" lon="2.28079">
        <ele>37.99</ele>
        <time>2021-03-26T10:34:01Z</time>
      </trkpt>
      <trkpt lat="48.87801" lon="2.2809">
        <ele>38.81</ele>
        <time>2021-03-26T10:34:04Z</time>
      </trkpt>
      <trkpt lat="48.87775" lon="2.28096">
        <ele>38.87</ele>
        <time>2021-03-26T10:34:07Z</time>
      </trkpt>
      <trkpt lat="48.87757" lon="2.28105">
        <ele>38.09</ele>
        <time>2021-03-26T10:34:09Z</time>
      </trkpt>
      <trkpt lat="48.87745" lon="2.28115">
        <ele>38</ele>
        <time>2021-03-26T10:34:12Z</time>
      </trkpt>
      <trkpt lat="48.87739" lon="2.28122">
        <ele>38</ele>
        <time>2021-03-26T10:34:15Z</time>
      </trkpt>
      <trkpt lat="48.87713" lon="2.28165">
        <ele>37.42</ele>
        <time>2021-03-26T10:34:17Z</time>
      </trkpt>
      <trkpt lat="48.87706" lon="2.28183">
        <ele>36.4</ele>
        <time>2021-03-26T10:34:20Z</time>
      </trkpt>
      <trkpt lat="48.87699" lon="2.28221">
        <ele>35.85</ele>
        <time>2021-03-26T10:34:23Z</time>
      </trkpt>
      <trkpt lat="48.87697" lon="2.28257">
        <ele>36.48</ele>
        <time>2021-03-26T10:34:25Z</time>
      </trkpt>
      <trkpt lat="48.87698" lon="2.2828">
        <ele>37.97</ele>
        <time>2021-03-26T10:34:28Z</time>
      </trkpt>
      <trkpt lat="48.87702" lon="2.28313">
        <ele>39.18</ele>
        <time>2021-03-26T10:34:31Z</time>
      </trkpt>
      <trkpt lat="48.87707" lon="2.28344">
        <ele>38.99</ele>
        <time>2021-03-26T10:34:33Z</time>
      </trkpt>
      <trkpt lat="48.87724" lon="2.28382">
        <ele>40.36</ele>
        <time>2021-03-26T10:34:36Z</time>
      </trkpt>
      <trkpt lat="48.87715" lon="2.28414">
        <ele>45.03</ele>
        <time>2021-03-26T10:35:01Z</time>
      </trkpt>
      <trkpt lat="48.87713" lon="2.28426">
        <ele>46.69</ele>
        <time>2021-03-26T10:35:26Z</time>
      </trkpt>
      <trkpt lat="48.87715" lon="2.28444">
        <ele>49.32</ele>
        <time>2021-03-26T10:35:51Z</time>
      </trkpt>
      <trkpt lat="48.87404" lon="2.29424">
        <ele>58.15</ele>
        <time>2021-03-26T10:36:16Z</time>
      </trkpt>
      <trkpt lat="48.87388" lon="2.29416">
        <ele>61.15</ele>
        <time>2021-03-26T10:36:28Z</time>
      </trkpt>
      <trkpt lat="48.87374" lon="2.29415">
        <ele>64.22</ele>
        <time>2021-03-26T10:36:41Z</time>
      </trkpt>
      <trkpt lat="48.87361" lon="2.29418">
        <ele>67.11</ele>
        <time>2021-03-26T10:36:53Z</time>
      </trkpt>
      <trkpt lat="48.87347" lon="2.29428">
        <ele>68.84</ele>
        <time>2021-03-26T10:37:05Z</time>
      </trkpt>
      <trkpt lat="48.87334" lon="2.29444">
        <ele>69.99</ele>
        <time>2021-03-26T10:37:18Z</time>
      </trkpt>
      <trkpt lat="48.87325" lon="2.29465">
        <ele>69.24</ele>
        <time>2021-03-26T10:37:30Z</time>
      </trkpt>
      <trkpt lat="48.8732" lon="2.29486">
        <ele>68.45</ele>
        <time>2021-03-26T10:37:42Z</time>
      </trkpt>
      <trkpt lat="48.8732" lon="2.29514">
        <ele>66.22</ele>
        <time>2021-03-26T10:37:54Z</time>
      </trkpt>
      <trkpt lat="48.87323" lon="2.29535">
        <ele>63.47</ele>
        <time>2021-03-26T10:38:07Z</time>
      </trkpt>
      <trkpt lat="48.8733" lon="2.29554">
        <ele>61.14</ele>
        <time>2021-03-26T10:38:19Z</time>
      </trkpt>
      <trkpt lat="48.87342" lon="2.29574">
        <ele>61.43</ele>
        <time>2021-03-26T10:38:31Z</time>
      </trkpt>
      <trkpt lat="48.87353" lon="2.29583">
        <ele>62.39</ele>
        <time>2021-03-26T10:38:44Z</time>
      </trkpt>
      <trkpt lat="48.86905" lon="2.3099">
        <ele>44.28</ele>
        <time>2021-03-26T10:38:56Z</time>
      </trkpt>
      <trkpt lat="48.86895" lon="2.30987">
        <ele>42.27</ele>
        <time>2021-03-26T10:39:02Z</time>
      </trkpt>
      <trkpt lat="48.86888" lon="2.30992">
        <ele>40.53</ele>
        <time>2021-03-26T10:39:08Z</time>
      </trkpt>
      <trkpt lat="48.86884" lon="2.30999">
        <ele>39.72</ele>
        <time>2021-03-26T10:39:14Z</time>
      </trkpt>
      <trkpt lat="48.86882" lon="2.31013">
        <ele>38.12</ele>
        <time>2021-03-26T10:39:20Z</time>
      </trkpt>
      <trkpt lat="48.86885" lon="2.31027">
        <ele>36.77</ele>
        <time>2021-03-26T10:39:26Z</time>
      </trkpt>
      <trkpt lat="48.86891" lon="2.31034">
        <ele>37.21</ele>
        <time>2021-03-26T10:39:32Z</time>
      </trkpt>
      <trkpt lat="48.86776" lon="2.31397">
        <ele>35.7</ele>
        <time>2021-03-26T10:39:38Z</time>
      </trkpt>
      <trkpt lat="48.86752" lon="2.31399">
        <ele>35.3</ele>
        <time>2021-03-26T10:40:35Z</time>
      </trkpt>
      <trkpt lat="48.85996" lon="2.31311">
        <ele>26.05</ele>
        <time>2021-03-26T10:41:32Z</time>
      </trkpt>
      <trkpt lat="48.85997" lon="2.31484">
        <ele>39.58</ele>
        <time>2021-03-26T10:41:45Z</time>
      </trkpt>
      <trkpt lat="48.85992" lon="2.31698">
        <ele>39.76</ele>
        <time>2021-03-26T10:41:58Z</time>
      </trkpt>
      <trkpt lat="48.8598" lon="2.31816">
        <ele>43.28</ele>
        <time>2021-03-26T10:42:11Z</time>
      </trkpt>
      <trkpt lat="48.85957" lon="2.31902">
        <ele>39.35</ele>
        <time>2021-03-26T10:42:24Z</time>
      </trkpt>
      <trkpt lat="48.85914" lon="2.32021">
        <ele>43</ele>
        <time>2021-03-26T10:42:36Z</time>
      </trkpt>
      <trkpt lat="48.85889" lon="2.32003">
        <ele>43.44</ele>
        <time>2021-03-26T10:42:43Z</time>
      </trkpt>
    </trkseg>
  </trk>
</gpx>